<?xml version="1.0" encoding="UTF-8" standalone="no" ?>
<gpx xmlns="http://www.topografix.com/GPX/1/1" xmlns:xsi="http://www.w3.org/2001/XMLSchema-instance" xsi:schemaLocation="http://www.topografix.com/GPX/1/1 http://www.topografix.com/GPX/1/1/gpx.xsd" version="1.1" creator="VisuGPX - https://www.visugpx.com">
  <metadata>
    <name>Tour de France 2019</name>
    <desc><![CDATA[4272km en 2 mois en tandem avec notre petit chien dans le panier avant]]></desc>
  </metadata>
  <trk>
    <name><![CDATA[Tracé 20191101-084826]]></name>
    <trkseg>
      <trkpt lat="44.96497" lon="0.90248">
        <ele>189.051</ele>
        <time>2019-11-01T08:08:47Z</time>
      </trkpt>
      <trkpt lat="44.96617" lon="0.90191">
        <ele>186.433</ele>
        <time>2019-11-01T08:09:20Z</time>
      </trkpt>
      <trkpt lat="44.96734" lon="0.90153">
        <ele>183.924</ele>
        <time>2019-11-01T08:09:50Z</time>
      </trkpt>
      <trkpt lat="44.96905" lon="0.9009">
        <ele>178.033</ele>
        <time>2019-11-01T08:10:23Z</time>
      </trkpt>
      <trkpt lat="44.97008" lon="0.90085">
        <ele>183.951</ele>
        <time>2019-11-01T08:10:53Z</time>
      </trkpt>
      <trkpt lat="44.97096" lon="0.90062">
        <ele>185.047</ele>
        <time>2019-11-01T08:11:23Z</time>
      </trkpt>
      <trkpt lat="44.97162" lon="0.90031">
        <ele>187.939</ele>
        <time>2019-11-01T08:11:56Z</time>
      </trkpt>
      <trkpt lat="44.97228" lon="0.89985">
        <ele>194.12</ele>
        <time>2019-11-01T08:12:26Z</time>
      </trkpt>
      <trkpt lat="44.97252" lon="0.89883">
        <ele>198.336</ele>
        <time>2019-11-01T08:12:59Z</time>
      </trkpt>
      <trkpt lat="44.97304" lon="0.89815">
        <ele>202.844</ele>
        <time>2019-11-01T08:13:29Z</time>
      </trkpt>
      <trkpt lat="44.97261" lon="0.89737">
        <ele>204.573</ele>
        <time>2019-11-01T08:14:02Z</time>
      </trkpt>
      <trkpt lat="44.97197" lon="0.89704">
        <ele>208.236</ele>
        <time>2019-11-01T08:14:32Z</time>
      </trkpt>
      <trkpt lat="44.97157" lon="0.89605">
        <ele>217.407</ele>
        <time>2019-11-01T08:15:05Z</time>
      </trkpt>
      <trkpt lat="44.97178" lon="0.89421">
        <ele>205.33</ele>
        <time>2019-11-01T08:15:35Z</time>
      </trkpt>
      <trkpt lat="44.97282" lon="0.89311">
        <ele>198.435</ele>
        <time>2019-11-01T08:18:32Z</time>
      </trkpt>
      <trkpt lat="44.97227" lon="0.88969">
        <ele>163.434</ele>
        <time>2019-11-01T08:19:02Z</time>
      </trkpt>
      <trkpt lat="44.97305" lon="0.89002">
        <ele>148.561</ele>
        <time>2019-11-01T08:19:32Z</time>
      </trkpt>
      <trkpt lat="44.97397" lon="0.88997">
        <ele>151.183</ele>
        <time>2019-11-01T08:20:05Z</time>
      </trkpt>
      <trkpt lat="44.97467" lon="0.8896">
        <ele>162.071</ele>
        <time>2019-11-01T08:20:35Z</time>
      </trkpt>
      <trkpt lat="44.97542" lon="0.88909">
        <ele>174.459</ele>
        <time>2019-11-01T08:21:08Z</time>
      </trkpt>
      <trkpt lat="44.97614" lon="0.88881">
        <ele>175.329</ele>
        <time>2019-11-01T08:21:38Z</time>
      </trkpt>
      <trkpt lat="44.97693" lon="0.88874">
        <ele>180.113</ele>
        <time>2019-11-01T08:22:11.001Z</time>
      </trkpt>
      <trkpt lat="44.97762" lon="0.88854">
        <ele>181.467</ele>
        <time>2019-11-01T08:22:41.001Z</time>
      </trkpt>
      <trkpt lat="44.9784" lon="0.88828">
        <ele>185.392</ele>
        <time>2019-11-01T08:23:14.001Z</time>
      </trkpt>
      <trkpt lat="44.97908" lon="0.88802">
        <ele>191.653</ele>
        <time>2019-11-01T08:23:44.001Z</time>
      </trkpt>
      <trkpt lat="44.97989" lon="0.88765">
        <ele>190.339</ele>
        <time>2019-11-01T08:24:17.001Z</time>
      </trkpt>
      <trkpt lat="44.9806" lon="0.88732">
        <ele>193.291</ele>
        <time>2019-11-01T08:24:47.001Z</time>
      </trkpt>
      <trkpt lat="44.98131" lon="0.88703">
        <ele>197.456</ele>
        <time>2019-11-01T08:25:17.001Z</time>
      </trkpt>
      <trkpt lat="44.98215" lon="0.88696">
        <ele>198.857</ele>
        <time>2019-11-01T08:25:50.001Z</time>
      </trkpt>
      <trkpt lat="44.98281" lon="0.88709">
        <ele>205.181</ele>
        <time>2019-11-01T08:26:20.001Z</time>
      </trkpt>
      <trkpt lat="44.98353" lon="0.88741">
        <ele>212.798</ele>
        <time>2019-11-01T08:26:53.001Z</time>
      </trkpt>
      <trkpt lat="44.98417" lon="0.88779">
        <ele>215.596</ele>
        <time>2019-11-01T08:27:23.001Z</time>
      </trkpt>
      <trkpt lat="44.98489" lon="0.88823">
        <ele>214.823</ele>
        <time>2019-11-01T08:27:56.001Z</time>
      </trkpt>
      <trkpt lat="44.98552" lon="0.88859">
        <ele>220.86</ele>
        <time>2019-11-01T08:28:26.001Z</time>
      </trkpt>
      <trkpt lat="44.98619" lon="0.88907">
        <ele>232.997</ele>
        <time>2019-11-01T08:28:59.001Z</time>
      </trkpt>
      <trkpt lat="44.98683" lon="0.8894">
        <ele>228.898</ele>
        <time>2019-11-01T08:29:29.001Z</time>
      </trkpt>
      <trkpt lat="44.98759" lon="0.88974">
        <ele>229.066</ele>
        <time>2019-11-01T08:30:02Z</time>
      </trkpt>
      <trkpt lat="44.98859" lon="0.88996">
        <ele>236.759</ele>
        <time>2019-11-01T08:30:32.001Z</time>
      </trkpt>
      <trkpt lat="44.99084" lon="0.8889">
        <ele>225.108</ele>
        <time>2019-11-01T08:31:02Z</time>
      </trkpt>
      <trkpt lat="44.9931" lon="0.88772">
        <ele>214.56</ele>
        <time>2019-11-01T08:31:35.001Z</time>
      </trkpt>
      <trkpt lat="44.99505" lon="0.88805">
        <ele>214.293</ele>
        <time>2019-11-01T08:32:05.001Z</time>
      </trkpt>
      <trkpt lat="44.99713" lon="0.88764">
        <ele>214.873</ele>
        <time>2019-11-01T08:32:38.001Z</time>
      </trkpt>
      <trkpt lat="44.99873" lon="0.88561">
        <ele>208.846</ele>
        <time>2019-11-01T08:33:08.001Z</time>
      </trkpt>
      <trkpt lat="44.9997" lon="0.88221">
        <ele>201.471</ele>
        <time>2019-11-01T08:33:41.001Z</time>
      </trkpt>
      <trkpt lat="45.00141" lon="0.88009">
        <ele>201.551</ele>
        <time>2019-11-01T08:34:11.001Z</time>
      </trkpt>
      <trkpt lat="45.00379" lon="0.88143">
        <ele>193.352</ele>
        <time>2019-11-01T08:34:44.001Z</time>
      </trkpt>
      <trkpt lat="45.00615" lon="0.88167">
        <ele>186.47</ele>
        <time>2019-11-01T08:35:14.001Z</time>
      </trkpt>
      <trkpt lat="45.0079" lon="0.88303">
        <ele>191.51</ele>
        <time>2019-11-01T08:35:47.001Z</time>
      </trkpt>
      <trkpt lat="45.00857" lon="0.88388">
        <ele>199.363</ele>
        <time>2019-11-01T08:36:17.001Z</time>
      </trkpt>
      <trkpt lat="45.00923" lon="0.88444">
        <ele>199.249</ele>
        <time>2019-11-01T08:36:47.001Z</time>
      </trkpt>
      <trkpt lat="45.01005" lon="0.88456">
        <ele>202.112</ele>
        <time>2019-11-01T08:37:20.001Z</time>
      </trkpt>
      <trkpt lat="45.01074" lon="0.88411">
        <ele>207.126</ele>
        <time>2019-11-01T08:37:50.001Z</time>
      </trkpt>
      <trkpt lat="45.01136" lon="0.88335">
        <ele>212.88</ele>
        <time>2019-11-01T08:38:23.001Z</time>
      </trkpt>
      <trkpt lat="45.0119" lon="0.88268">
        <ele>218.316</ele>
        <time>2019-11-01T08:38:53.001Z</time>
      </trkpt>
      <trkpt lat="45.01252" lon="0.88183">
        <ele>229.346</ele>
        <time>2019-11-01T08:39:26.001Z</time>
      </trkpt>
      <trkpt lat="45.01308" lon="0.88101">
        <ele>231.098</ele>
        <time>2019-11-01T08:39:56.001Z</time>
      </trkpt>
      <trkpt lat="45.01376" lon="0.88007">
        <ele>229.42</ele>
        <time>2019-11-01T08:40:29.001Z</time>
      </trkpt>
      <trkpt lat="45.01458" lon="0.87933">
        <ele>229.201</ele>
        <time>2019-11-01T08:40:59.001Z</time>
      </trkpt>
      <trkpt lat="45.01576" lon="0.87917">
        <ele>224.062</ele>
        <time>2019-11-01T08:41:32.001Z</time>
      </trkpt>
      <trkpt lat="45.01683" lon="0.87964">
        <ele>222.719</ele>
        <time>2019-11-01T08:42:02Z</time>
      </trkpt>
      <trkpt lat="45.01813" lon="0.88013">
        <ele>222.938</ele>
        <time>2019-11-01T08:42:32.001Z</time>
      </trkpt>
      <trkpt lat="45.01949" lon="0.87933">
        <ele>224.946</ele>
        <time>2019-11-01T08:43:05.001Z</time>
      </trkpt>
      <trkpt lat="45.02066" lon="0.87894">
        <ele>224.81</ele>
        <time>2019-11-01T08:43:35.001Z</time>
      </trkpt>
      <trkpt lat="45.02197" lon="0.87892">
        <ele>227.592</ele>
        <time>2019-11-01T08:44:08.001Z</time>
      </trkpt>
      <trkpt lat="45.02315" lon="0.87926">
        <ele>229.701</ele>
        <time>2019-11-01T08:44:38.001Z</time>
      </trkpt>
      <trkpt lat="45.02423" lon="0.87984">
        <ele>235.314</ele>
        <time>2019-11-01T08:45:11.001Z</time>
      </trkpt>
      <trkpt lat="45.02511" lon="0.8804">
        <ele>238.91</ele>
        <time>2019-11-01T08:45:41.001Z</time>
      </trkpt>
      <trkpt lat="45.02615" lon="0.88081">
        <ele>240.902</ele>
        <time>2019-11-01T08:46:14.001Z</time>
      </trkpt>
      <trkpt lat="45.02728" lon="0.8808">
        <ele>238.28</ele>
        <time>2019-11-01T08:46:44.001Z</time>
      </trkpt>
      <trkpt lat="45.02839" lon="0.87968">
        <ele>239.606</ele>
        <time>2019-11-01T08:47:17.001Z</time>
      </trkpt>
      <trkpt lat="45.02901" lon="0.87781">
        <ele>239.416</ele>
        <time>2019-11-01T08:47:47.001Z</time>
      </trkpt>
      <trkpt lat="45.03073" lon="0.87548">
        <ele>234.378</ele>
        <time>2019-11-01T08:48:17.001Z</time>
      </trkpt>
      <trkpt lat="45.03303" lon="0.87337">
        <ele>228.196</ele>
        <time>2019-11-01T08:48:50.001Z</time>
      </trkpt>
      <trkpt lat="45.03446" lon="0.87137">
        <ele>225.032</ele>
        <time>2019-11-01T08:49:20.001Z</time>
      </trkpt>
      <trkpt lat="45.03669" lon="0.87122">
        <ele>222.346</ele>
        <time>2019-11-01T08:49:53.001Z</time>
      </trkpt>
      <trkpt lat="45.03885" lon="0.87013">
        <ele>217.441</ele>
        <time>2019-11-01T08:50:23.001Z</time>
      </trkpt>
      <trkpt lat="45.04049" lon="0.8663">
        <ele>203.714</ele>
        <time>2019-11-01T08:50:56.001Z</time>
      </trkpt>
      <trkpt lat="45.04077" lon="0.86295">
        <ele>203.639</ele>
        <time>2019-11-01T08:51:26.001Z</time>
      </trkpt>
      <trkpt lat="45.04046" lon="0.86112">
        <ele>204.4</ele>
        <time>2019-11-01T08:51:59.001Z</time>
      </trkpt>
      <trkpt lat="45.04016" lon="0.86015">
        <ele>207.076</ele>
        <time>2019-11-01T08:52:29.001Z</time>
      </trkpt>
      <trkpt lat="45.0401" lon="0.85904">
        <ele>214.036</ele>
        <time>2019-11-01T08:53:02Z</time>
      </trkpt>
      <trkpt lat="45.04028" lon="0.8582">
        <ele>218.399</ele>
        <time>2019-11-01T08:53:32.001Z</time>
      </trkpt>
      <trkpt lat="45.04057" lon="0.85757">
        <ele>225.603</ele>
        <time>2019-11-01T08:54:05.001Z</time>
      </trkpt>
      <trkpt lat="45.04102" lon="0.85698">
        <ele>225.948</ele>
        <time>2019-11-01T08:54:38.001Z</time>
      </trkpt>
      <trkpt lat="45.04158" lon="0.85669">
        <ele>229.491</ele>
        <time>2019-11-01T08:55:11.001Z</time>
      </trkpt>
      <trkpt lat="45.04222" lon="0.85659">
        <ele>234.472</ele>
        <time>2019-11-01T08:55:44.001Z</time>
      </trkpt>
      <trkpt lat="45.04281" lon="0.85678">
        <ele>237.674</ele>
        <time>2019-11-01T08:56:14.001Z</time>
      </trkpt>
      <trkpt lat="45.04337" lon="0.85718">
        <ele>237.218</ele>
        <time>2019-11-01T08:56:47.001Z</time>
      </trkpt>
      <trkpt lat="45.04389" lon="0.8576">
        <ele>241.518</ele>
        <time>2019-11-01T08:57:17.001Z</time>
      </trkpt>
      <trkpt lat="45.04455" lon="0.85779">
        <ele>242.624</ele>
        <time>2019-11-01T08:57:50.001Z</time>
      </trkpt>
      <trkpt lat="45.04514" lon="0.85766">
        <ele>247.815</ele>
        <time>2019-11-01T08:58:20.001Z</time>
      </trkpt>
      <trkpt lat="45.0458" lon="0.85739">
        <ele>250.367</ele>
        <time>2019-11-01T08:58:53.001Z</time>
      </trkpt>
      <trkpt lat="45.04649" lon="0.85734">
        <ele>252.059</ele>
        <time>2019-11-01T08:59:23.001Z</time>
      </trkpt>
      <trkpt lat="45.0473" lon="0.85744">
        <ele>253.216</ele>
        <time>2019-11-01T08:59:53.001Z</time>
      </trkpt>
      <trkpt lat="45.04854" lon="0.85777">
        <ele>253.103</ele>
        <time>2019-11-01T09:00:26.001Z</time>
      </trkpt>
      <trkpt lat="45.04983" lon="0.85912">
        <ele>253.827</ele>
        <time>2019-11-01T09:00:56.001Z</time>
      </trkpt>
      <trkpt lat="45.05221" lon="0.8599">
        <ele>245.734</ele>
        <time>2019-11-01T09:01:29.001Z</time>
      </trkpt>
      <trkpt lat="45.05435" lon="0.85876">
        <ele>243.521</ele>
        <time>2019-11-01T09:01:59.001Z</time>
      </trkpt>
      <trkpt lat="45.05738" lon="0.85878">
        <ele>230.47</ele>
        <time>2019-11-01T09:02:32.001Z</time>
      </trkpt>
      <trkpt lat="45.06053" lon="0.86172">
        <ele>208.615</ele>
        <time>2019-11-01T09:03:02Z</time>
      </trkpt>
      <trkpt lat="45.06118" lon="0.8633">
        <ele>195.718</ele>
        <time>2019-11-01T09:04:14.001Z</time>
      </trkpt>
      <trkpt lat="45.06118" lon="0.86333">
        <ele>199.229</ele>
        <time>2019-11-01T09:15:02Z</time>
      </trkpt>
      <trkpt lat="45.06117" lon="0.86331">
        <ele>199.206</ele>
        <time>2019-11-01T09:21:47.001Z</time>
      </trkpt>
      <trkpt lat="45.06158" lon="0.86434">
        <ele>201.09</ele>
        <time>2019-11-01T09:22:20.001Z</time>
      </trkpt>
      <trkpt lat="45.06264" lon="0.86707">
        <ele>189.433</ele>
        <time>2019-11-01T09:22:50.001Z</time>
      </trkpt>
      <trkpt lat="45.06462" lon="0.86874">
        <ele>188.163</ele>
        <time>2019-11-01T09:23:23.001Z</time>
      </trkpt>
      <trkpt lat="45.06523" lon="0.86947">
        <ele>187.891</ele>
        <time>2019-11-01T09:24:50.001Z</time>
      </trkpt>
      <trkpt lat="45.06678" lon="0.87048">
        <ele>188.136</ele>
        <time>2019-11-01T09:25:23.001Z</time>
      </trkpt>
      <trkpt lat="45.06832" lon="0.86994">
        <ele>190.43</ele>
        <time>2019-11-01T09:25:53.001Z</time>
      </trkpt>
      <trkpt lat="45.07012" lon="0.86902">
        <ele>190.441</ele>
        <time>2019-11-01T09:26:26.001Z</time>
      </trkpt>
      <trkpt lat="45.07287" lon="0.86855">
        <ele>181.598</ele>
        <time>2019-11-01T09:26:56.001Z</time>
      </trkpt>
      <trkpt lat="45.07621" lon="0.86744">
        <ele>168.906</ele>
        <time>2019-11-01T09:27:29.001Z</time>
      </trkpt>
      <trkpt lat="45.07868" lon="0.86685">
        <ele>168.296</ele>
        <time>2019-11-01T09:27:59.001Z</time>
      </trkpt>
      <trkpt lat="45.08083" lon="0.86395">
        <ele>163.939</ele>
        <time>2019-11-01T09:28:32.001Z</time>
      </trkpt>
      <trkpt lat="45.08289" lon="0.86193">
        <ele>153.44</ele>
        <time>2019-11-01T09:29:02Z</time>
      </trkpt>
      <trkpt lat="45.08447" lon="0.86097">
        <ele>152.889</ele>
        <time>2019-11-01T09:29:32.001Z</time>
      </trkpt>
      <trkpt lat="45.08675" lon="0.86013">
        <ele>152.836</ele>
        <time>2019-11-01T09:30:05.001Z</time>
      </trkpt>
      <trkpt lat="45.08846" lon="0.8593">
        <ele>151.897</ele>
        <time>2019-11-01T09:30:35.001Z</time>
      </trkpt>
      <trkpt lat="45.0895" lon="0.85674">
        <ele>151.268</ele>
        <time>2019-11-01T09:31:08.001Z</time>
      </trkpt>
      <trkpt lat="45.09116" lon="0.85582">
        <ele>144.631</ele>
        <time>2019-11-01T09:31:38.001Z</time>
      </trkpt>
      <trkpt lat="45.09269" lon="0.85612">
        <ele>147.347</ele>
        <time>2019-11-01T09:32:11.001Z</time>
      </trkpt>
      <trkpt lat="45.0932" lon="0.85666">
        <ele>155.109</ele>
        <time>2019-11-01T09:32:41.001Z</time>
      </trkpt>
      <trkpt lat="45.09389" lon="0.85692">
        <ele>158.62</ele>
        <time>2019-11-01T09:33:14.001Z</time>
      </trkpt>
      <trkpt lat="45.0945" lon="0.85676">
        <ele>162.235</ele>
        <time>2019-11-01T09:33:44.001Z</time>
      </trkpt>
      <trkpt lat="45.09522" lon="0.85656">
        <ele>166.941</ele>
        <time>2019-11-01T09:34:17.001Z</time>
      </trkpt>
      <trkpt lat="45.09585" lon="0.85648">
        <ele>168.772</ele>
        <time>2019-11-01T09:34:47.001Z</time>
      </trkpt>
      <trkpt lat="45.09647" lon="0.85634">
        <ele>171.419</ele>
        <time>2019-11-01T09:35:17.001Z</time>
      </trkpt>
      <trkpt lat="45.09705" lon="0.85587">
        <ele>173.962</ele>
        <time>2019-11-01T09:35:50.001Z</time>
      </trkpt>
      <trkpt lat="45.09764" lon="0.85579">
        <ele>178.684</ele>
        <time>2019-11-01T09:36:20.001Z</time>
      </trkpt>
      <trkpt lat="45.0983" lon="0.85591">
        <ele>187.994</ele>
        <time>2019-11-01T09:36:53.001Z</time>
      </trkpt>
      <trkpt lat="45.09887" lon="0.85551">
        <ele>188.068</ele>
        <time>2019-11-01T09:37:23.001Z</time>
      </trkpt>
      <trkpt lat="45.09947" lon="0.85529">
        <ele>193.896</ele>
        <time>2019-11-01T09:37:56.001Z</time>
      </trkpt>
      <trkpt lat="45.09983" lon="0.85586">
        <ele>200.684</ele>
        <time>2019-11-01T09:38:26.001Z</time>
      </trkpt>
      <trkpt lat="45.10064" lon="0.85726">
        <ele>209.899</ele>
        <time>2019-11-01T09:38:59.001Z</time>
      </trkpt>
      <trkpt lat="45.10341" lon="0.85695">
        <ele>208.83</ele>
        <time>2019-11-01T09:39:29.001Z</time>
      </trkpt>
      <trkpt lat="45.10503" lon="0.85763">
        <ele>182.171</ele>
        <time>2019-11-01T09:40:02Z</time>
      </trkpt>
      <trkpt lat="45.1056" lon="0.85777">
        <ele>191.811</ele>
        <time>2019-11-01T09:40:38.001Z</time>
      </trkpt>
      <trkpt lat="45.10614" lon="0.85816">
        <ele>204.017</ele>
        <time>2019-11-01T09:41:11.001Z</time>
      </trkpt>
      <trkpt lat="45.1068" lon="0.85818">
        <ele>200.022</ele>
        <time>2019-11-01T09:41:50.001Z</time>
      </trkpt>
      <trkpt lat="45.10743" lon="0.85829">
        <ele>196.16</ele>
        <time>2019-11-01T09:42:23.001Z</time>
      </trkpt>
      <trkpt lat="45.10803" lon="0.8584">
        <ele>199</ele>
        <time>2019-11-01T09:43:02Z</time>
      </trkpt>
      <trkpt lat="45.10858" lon="0.85858">
        <ele>206.209</ele>
        <time>2019-11-01T09:43:35.001Z</time>
      </trkpt>
      <trkpt lat="45.10922" lon="0.8587">
        <ele>218.408</ele>
        <time>2019-11-01T09:44:11.001Z</time>
      </trkpt>
      <trkpt lat="45.10981" lon="0.85879">
        <ele>223.74</ele>
        <time>2019-11-01T09:44:47.001Z</time>
      </trkpt>
      <trkpt lat="45.11042" lon="0.85876">
        <ele>223.067</ele>
        <time>2019-11-01T09:45:20.001Z</time>
      </trkpt>
      <trkpt lat="45.11157" lon="0.85776">
        <ele>223.523</ele>
        <time>2019-11-01T09:45:56.001Z</time>
      </trkpt>
      <trkpt lat="45.11425" lon="0.85977">
        <ele>211.135</ele>
        <time>2019-11-01T09:46:29.001Z</time>
      </trkpt>
      <trkpt lat="45.11739" lon="0.85915">
        <ele>182</ele>
        <time>2019-11-01T09:46:59.001Z</time>
      </trkpt>
      <trkpt lat="45.12" lon="0.86049">
        <ele>150.183</ele>
        <time>2019-11-01T09:47:29.001Z</time>
      </trkpt>
      <trkpt lat="45.1226" lon="0.86067">
        <ele>138.735</ele>
        <time>2019-11-01T09:48:02Z</time>
      </trkpt>
      <trkpt lat="45.12298" lon="0.85987">
        <ele>136.254</ele>
        <time>2019-11-01T09:48:38.001Z</time>
      </trkpt>
      <trkpt lat="45.12269" lon="0.85719">
        <ele>137.194</ele>
        <time>2019-11-01T09:49:11.001Z</time>
      </trkpt>
      <trkpt lat="45.12399" lon="0.85669">
        <ele>139.922</ele>
        <time>2019-11-01T09:49:41.001Z</time>
      </trkpt>
      <trkpt lat="45.12443" lon="0.85617">
        <ele>145.491</ele>
        <time>2019-11-01T09:56:08.001Z</time>
      </trkpt>
      <trkpt lat="45.12468" lon="0.85653">
        <ele>144.33</ele>
        <time>2019-11-01T09:56:41.001Z</time>
      </trkpt>
      <trkpt lat="45.12485" lon="0.8569">
        <ele>146.124</ele>
        <time>2019-11-01T09:57:50.001Z</time>
      </trkpt>
      <trkpt lat="45.12501" lon="0.85646">
        <ele>146.37</ele>
        <time>2019-11-01T09:58:26.001Z</time>
      </trkpt>
      <trkpt lat="45.12551" lon="0.8564">
        <ele>146.16</ele>
        <time>2019-11-01T09:59:20.001Z</time>
      </trkpt>
      <trkpt lat="45.12589" lon="0.85615">
        <ele>150.599</ele>
        <time>2019-11-01T10:00:08.001Z</time>
      </trkpt>
      <trkpt lat="45.12632" lon="0.85632">
        <ele>154.308</ele>
        <time>2019-11-01T10:00:53.001Z</time>
      </trkpt>
      <trkpt lat="45.1269" lon="0.85646">
        <ele>156.259</ele>
        <time>2019-11-01T10:01:26.001Z</time>
      </trkpt>
      <trkpt lat="45.12746" lon="0.85682">
        <ele>159.424</ele>
        <time>2019-11-01T10:02:02Z</time>
      </trkpt>
      <trkpt lat="45.12799" lon="0.85676">
        <ele>165.618</ele>
        <time>2019-11-01T10:02:35.001Z</time>
      </trkpt>
      <trkpt lat="45.12851" lon="0.85689">
        <ele>170.777</ele>
        <time>2019-11-01T10:03:08.001Z</time>
      </trkpt>
      <trkpt lat="45.12906" lon="0.85734">
        <ele>176.754</ele>
        <time>2019-11-01T10:03:50.001Z</time>
      </trkpt>
      <trkpt lat="45.12961" lon="0.85777">
        <ele>180.121</ele>
        <time>2019-11-01T10:04:32.001Z</time>
      </trkpt>
      <trkpt lat="45.1303" lon="0.85814">
        <ele>191.943</ele>
        <time>2019-11-01T10:05:20.001Z</time>
      </trkpt>
      <trkpt lat="45.13088" lon="0.8586">
        <ele>196.078</ele>
        <time>2019-11-01T10:06:05.001Z</time>
      </trkpt>
      <trkpt lat="45.1314" lon="0.85913">
        <ele>198.071</ele>
        <time>2019-11-01T10:06:47.001Z</time>
      </trkpt>
      <trkpt lat="45.13191" lon="0.85947">
        <ele>203.892</ele>
        <time>2019-11-01T10:07:23.001Z</time>
      </trkpt>
      <trkpt lat="45.13246" lon="0.85963">
        <ele>213.493</ele>
        <time>2019-11-01T10:07:59.001Z</time>
      </trkpt>
      <trkpt lat="45.13304" lon="0.8601">
        <ele>222.813</ele>
        <time>2019-11-01T10:08:41.001Z</time>
      </trkpt>
      <trkpt lat="45.13344" lon="0.86059">
        <ele>234.192</ele>
        <time>2019-11-01T10:09:17.001Z</time>
      </trkpt>
      <trkpt lat="45.13384" lon="0.86133">
        <ele>229.189</ele>
        <time>2019-11-01T10:09:56.001Z</time>
      </trkpt>
      <trkpt lat="45.13422" lon="0.86213">
        <ele>232.46</ele>
        <time>2019-11-01T10:10:41.001Z</time>
      </trkpt>
      <trkpt lat="45.13447" lon="0.86311">
        <ele>240.645</ele>
        <time>2019-11-01T10:11:29.001Z</time>
      </trkpt>
      <trkpt lat="45.13448" lon="0.86395">
        <ele>239.843</ele>
        <time>2019-11-01T10:12:05.001Z</time>
      </trkpt>
      <trkpt lat="45.13452" lon="0.86485">
        <ele>242.576</ele>
        <time>2019-11-01T10:12:47.001Z</time>
      </trkpt>
      <trkpt lat="45.13469" lon="0.86555">
        <ele>247.581</ele>
        <time>2019-11-01T10:13:20.001Z</time>
      </trkpt>
      <trkpt lat="45.13516" lon="0.86628">
        <ele>252.952</ele>
        <time>2019-11-01T10:13:53.001Z</time>
      </trkpt>
      <trkpt lat="45.13638" lon="0.86709">
        <ele>252.947</ele>
        <time>2019-11-01T10:14:23.001Z</time>
      </trkpt>
      <trkpt lat="45.1388" lon="0.86869">
        <ele>238.751</ele>
        <time>2019-11-01T10:14:53.001Z</time>
      </trkpt>
      <trkpt lat="45.14047" lon="0.87065">
        <ele>231.655</ele>
        <time>2019-11-01T10:15:26.001Z</time>
      </trkpt>
      <trkpt lat="45.14144" lon="0.87203">
        <ele>234.895</ele>
        <time>2019-11-01T10:15:56.001Z</time>
      </trkpt>
      <trkpt lat="45.14213" lon="0.87398">
        <ele>236.486</ele>
        <time>2019-11-01T10:16:29.001Z</time>
      </trkpt>
      <trkpt lat="45.14267" lon="0.87505">
        <ele>235.596</ele>
        <time>2019-11-01T10:16:59.001Z</time>
      </trkpt>
      <trkpt lat="45.1435" lon="0.87587">
        <ele>237.892</ele>
        <time>2019-11-01T10:17:32.001Z</time>
      </trkpt>
      <trkpt lat="45.14423" lon="0.87675">
        <ele>243.736</ele>
        <time>2019-11-01T10:18:02Z</time>
      </trkpt>
      <trkpt lat="45.1446" lon="0.87854">
        <ele>243.836</ele>
        <time>2019-11-01T10:18:35.001Z</time>
      </trkpt>
      <trkpt lat="45.14446" lon="0.87968">
        <ele>248.538</ele>
        <time>2019-11-01T10:20:56.001Z</time>
      </trkpt>
      <trkpt lat="45.14416" lon="0.88125">
        <ele>240.747</ele>
        <time>2019-11-01T10:21:29.001Z</time>
      </trkpt>
      <trkpt lat="45.14399" lon="0.8823">
        <ele>238.477</ele>
        <time>2019-11-01T10:21:59.001Z</time>
      </trkpt>
      <trkpt lat="45.1441" lon="0.88311">
        <ele>243.99</ele>
        <time>2019-11-01T10:22:29.001Z</time>
      </trkpt>
      <trkpt lat="45.14473" lon="0.88364">
        <ele>250.197</ele>
        <time>2019-11-01T10:23:02Z</time>
      </trkpt>
      <trkpt lat="45.14526" lon="0.88426">
        <ele>251.402</ele>
        <time>2019-11-01T10:23:32.001Z</time>
      </trkpt>
      <trkpt lat="45.14587" lon="0.88587">
        <ele>248.791</ele>
        <time>2019-11-01T10:24:05.001Z</time>
      </trkpt>
      <trkpt lat="45.14541" lon="0.88782">
        <ele>253.641</ele>
        <time>2019-11-01T10:24:35.001Z</time>
      </trkpt>
      <trkpt lat="45.14538" lon="0.89078">
        <ele>248.275</ele>
        <time>2019-11-01T10:25:08.001Z</time>
      </trkpt>
      <trkpt lat="45.1471" lon="0.89436">
        <ele>233.419</ele>
        <time>2019-11-01T10:25:38.001Z</time>
      </trkpt>
      <trkpt lat="45.1489" lon="0.89594">
        <ele>232.84</ele>
        <time>2019-11-01T10:26:11.001Z</time>
      </trkpt>
      <trkpt lat="45.14989" lon="0.8974">
        <ele>227.544</ele>
        <time>2019-11-01T10:26:41.001Z</time>
      </trkpt>
      <trkpt lat="45.1518" lon="0.8989">
        <ele>225.497</ele>
        <time>2019-11-01T10:27:14.001Z</time>
      </trkpt>
      <trkpt lat="45.15343" lon="0.90135">
        <ele>214.463</ele>
        <time>2019-11-01T10:27:44.001Z</time>
      </trkpt>
      <trkpt lat="45.15471" lon="0.90315">
        <ele>211.882</ele>
        <time>2019-11-01T10:28:14.001Z</time>
      </trkpt>
      <trkpt lat="45.15568" lon="0.90481">
        <ele>212.094</ele>
        <time>2019-11-01T10:28:47.001Z</time>
      </trkpt>
      <trkpt lat="45.15622" lon="0.90608">
        <ele>215.333</ele>
        <time>2019-11-01T10:29:17.001Z</time>
      </trkpt>
      <trkpt lat="45.15652" lon="0.9085">
        <ele>213.454</ele>
        <time>2019-11-01T10:29:50.001Z</time>
      </trkpt>
      <trkpt lat="45.15722" lon="0.91059">
        <ele>211.379</ele>
        <time>2019-11-01T10:30:20.001Z</time>
      </trkpt>
      <trkpt lat="45.15804" lon="0.91237">
        <ele>210.174</ele>
        <time>2019-11-01T10:30:53.001Z</time>
      </trkpt>
      <trkpt lat="45.15877" lon="0.9121">
        <ele>210.819</ele>
        <time>2019-11-01T10:31:23.001Z</time>
      </trkpt>
      <trkpt lat="45.15956" lon="0.91189">
        <ele>214.057</ele>
        <time>2019-11-01T10:31:56.001Z</time>
      </trkpt>
      <trkpt lat="45.16022" lon="0.91191">
        <ele>219.141</ele>
        <time>2019-11-01T10:32:26.001Z</time>
      </trkpt>
      <trkpt lat="45.16085" lon="0.91221">
        <ele>220.435</ele>
        <time>2019-11-01T10:32:59.001Z</time>
      </trkpt>
      <trkpt lat="45.16169" lon="0.91297">
        <ele>221.555</ele>
        <time>2019-11-01T10:33:29.001Z</time>
      </trkpt>
      <trkpt lat="45.16366" lon="0.91075">
        <ele>217.929</ele>
        <time>2019-11-01T10:33:59.001Z</time>
      </trkpt>
      <trkpt lat="45.16675" lon="0.9084">
        <ele>201.562</ele>
        <time>2019-11-01T10:34:32.001Z</time>
      </trkpt>
      <trkpt lat="45.17017" lon="0.90773">
        <ele>183.641</ele>
        <time>2019-11-01T10:35:02Z</time>
      </trkpt>
      <trkpt lat="45.17338" lon="0.90723">
        <ele>157.874</ele>
        <time>2019-11-01T10:35:35.001Z</time>
      </trkpt>
      <trkpt lat="45.17575" lon="0.90862">
        <ele>141.825</ele>
        <time>2019-11-01T10:36:05.001Z</time>
      </trkpt>
      <trkpt lat="45.17655" lon="0.90941">
        <ele>145.565</ele>
        <time>2019-11-01T10:36:38.001Z</time>
      </trkpt>
      <trkpt lat="45.17709" lon="0.91">
        <ele>156.597</ele>
        <time>2019-11-01T10:37:08.001Z</time>
      </trkpt>
      <trkpt lat="45.1776" lon="0.91027">
        <ele>152.432</ele>
        <time>2019-11-01T10:38:02Z</time>
      </trkpt>
      <trkpt lat="45.17814" lon="0.91025">
        <ele>164.511</ele>
        <time>2019-11-01T10:39:02Z</time>
      </trkpt>
      <trkpt lat="45.17873" lon="0.91024">
        <ele>169.286</ele>
        <time>2019-11-01T10:40:08.001Z</time>
      </trkpt>
      <trkpt lat="45.17907" lon="0.91039">
        <ele>174.227</ele>
        <time>2019-11-01T10:40:53.001Z</time>
      </trkpt>
      <trkpt lat="45.17925" lon="0.91055">
        <ele>175.194</ele>
        <time>2019-11-01T10:41:26.001Z</time>
      </trkpt>
      <trkpt lat="45.1795" lon="0.9108">
        <ele>176.634</ele>
        <time>2019-11-01T10:42:05.001Z</time>
      </trkpt>
      <trkpt lat="45.17995" lon="0.91071">
        <ele>192.553</ele>
        <time>2019-11-01T10:43:05.001Z</time>
      </trkpt>
      <trkpt lat="45.18038" lon="0.91032">
        <ele>196.676</ele>
        <time>2019-11-01T10:44:02Z</time>
      </trkpt>
      <trkpt lat="45.18071" lon="0.90968">
        <ele>204.035</ele>
        <time>2019-11-01T10:45:05.001Z</time>
      </trkpt>
      <trkpt lat="45.18072" lon="0.90919">
        <ele>204.036</ele>
        <time>2019-11-01T10:46:08.001Z</time>
      </trkpt>
      <trkpt lat="45.1807" lon="0.9084">
        <ele>209.261</ele>
        <time>2019-11-01T10:46:38.001Z</time>
      </trkpt>
      <trkpt lat="45.18104" lon="0.90761">
        <ele>215.622</ele>
        <time>2019-11-01T10:47:14.001Z</time>
      </trkpt>
      <trkpt lat="45.18211" lon="0.90771">
        <ele>211.911</ele>
        <time>2019-11-01T10:47:44.001Z</time>
      </trkpt>
      <trkpt lat="45.18329" lon="0.90807">
        <ele>209.641</ele>
        <time>2019-11-01T10:48:17.001Z</time>
      </trkpt>
      <trkpt lat="45.18405" lon="0.90822">
        <ele>215.488</ele>
        <time>2019-11-01T10:48:47.001Z</time>
      </trkpt>
      <trkpt lat="45.18474" lon="0.90835">
        <ele>220.677</ele>
        <time>2019-11-01T10:49:17.001Z</time>
      </trkpt>
      <trkpt lat="45.18535" lon="0.9089">
        <ele>220.804</ele>
        <time>2019-11-01T10:49:50.001Z</time>
      </trkpt>
      <trkpt lat="45.18595" lon="0.90951">
        <ele>224.658</ele>
        <time>2019-11-01T10:50:20.001Z</time>
      </trkpt>
      <trkpt lat="45.1867" lon="0.91022">
        <ele>234.197</ele>
        <time>2019-11-01T10:50:53.001Z</time>
      </trkpt>
      <trkpt lat="45.18766" lon="0.91169">
        <ele>237.513</ele>
        <time>2019-11-01T10:51:23.001Z</time>
      </trkpt>
      <trkpt lat="45.18937" lon="0.91052">
        <ele>232.213</ele>
        <time>2019-11-01T10:51:56.001Z</time>
      </trkpt>
      <trkpt lat="45.19209" lon="0.90902">
        <ele>214.931</ele>
        <time>2019-11-01T10:52:26.001Z</time>
      </trkpt>
      <trkpt lat="45.19579" lon="0.91037">
        <ele>194.395</ele>
        <time>2019-11-01T10:52:59.001Z</time>
      </trkpt>
      <trkpt lat="45.1987" lon="0.90947">
        <ele>171.386</ele>
        <time>2019-11-01T10:53:29.001Z</time>
      </trkpt>
      <trkpt lat="45.20219" lon="0.90788">
        <ele>153.284</ele>
        <time>2019-11-01T10:54:02Z</time>
      </trkpt>
      <trkpt lat="45.20425" lon="0.9079">
        <ele>135.243</ele>
        <time>2019-11-01T10:54:32.001Z</time>
      </trkpt>
      <trkpt lat="45.20403" lon="0.91151">
        <ele>121.557</ele>
        <time>2019-11-01T10:55:02Z</time>
      </trkpt>
      <trkpt lat="45.20366" lon="0.91547">
        <ele>118.229</ele>
        <time>2019-11-01T10:55:35.001Z</time>
      </trkpt>
      <trkpt lat="45.20354" lon="0.91779">
        <ele>119.289</ele>
        <time>2019-11-01T10:56:05.001Z</time>
      </trkpt>
      <trkpt lat="45.20389" lon="0.92068">
        <ele>120.415</ele>
        <time>2019-11-01T10:56:38.001Z</time>
      </trkpt>
      <trkpt lat="45.20366" lon="0.92327">
        <ele>122.181</ele>
        <time>2019-11-01T10:57:08.001Z</time>
      </trkpt>
      <trkpt lat="45.20379" lon="0.92532">
        <ele>122.598</ele>
        <time>2019-11-01T10:57:41.001Z</time>
      </trkpt>
      <trkpt lat="45.20436" lon="0.92669">
        <ele>124.945</ele>
        <time>2019-11-01T10:58:11.001Z</time>
      </trkpt>
      <trkpt lat="45.20484" lon="0.92785">
        <ele>114.973</ele>
        <time>2019-11-01T10:58:44.001Z</time>
      </trkpt>
      <trkpt lat="45.20581" lon="0.92906">
        <ele>113.857</ele>
        <time>2019-11-01T10:59:14.001Z</time>
      </trkpt>
      <trkpt lat="45.20695" lon="0.93003">
        <ele>114.073</ele>
        <time>2019-11-01T10:59:47.001Z</time>
      </trkpt>
      <trkpt lat="45.20732" lon="0.93082">
        <ele>122.404</ele>
        <time>2019-11-01T11:00:17.001Z</time>
      </trkpt>
      <trkpt lat="45.20862" lon="0.93131">
        <ele>122.82</ele>
        <time>2019-11-01T11:00:47.001Z</time>
      </trkpt>
      <trkpt lat="45.21019" lon="0.93127">
        <ele>124.563</ele>
        <time>2019-11-01T11:01:20.001Z</time>
      </trkpt>
      <trkpt lat="45.21177" lon="0.9313">
        <ele>121.672</ele>
        <time>2019-11-01T11:01:50.001Z</time>
      </trkpt>
      <trkpt lat="45.21375" lon="0.9317">
        <ele>117.431</ele>
        <time>2019-11-01T11:02:23.001Z</time>
      </trkpt>
      <trkpt lat="45.21541" lon="0.93253">
        <ele>112.941</ele>
        <time>2019-11-01T11:02:53.001Z</time>
      </trkpt>
      <trkpt lat="45.21686" lon="0.93361">
        <ele>116.184</ele>
        <time>2019-11-01T11:03:26.001Z</time>
      </trkpt>
      <trkpt lat="45.21823" lon="0.93467">
        <ele>115.801</ele>
        <time>2019-11-01T11:03:56.001Z</time>
      </trkpt>
      <trkpt lat="45.21962" lon="0.93569">
        <ele>119.38</ele>
        <time>2019-11-01T11:04:29.001Z</time>
      </trkpt>
      <trkpt lat="45.2207" lon="0.93691">
        <ele>115.719</ele>
        <time>2019-11-01T11:04:59.001Z</time>
      </trkpt>
      <trkpt lat="45.22097" lon="0.9372">
        <ele>123.005</ele>
        <time>2019-11-01T11:07:35.001Z</time>
      </trkpt>
      <trkpt lat="45.22159" lon="0.93778">
        <ele>113.568</ele>
        <time>2019-11-01T11:08:05.001Z</time>
      </trkpt>
      <trkpt lat="45.22153" lon="0.93818">
        <ele>120.061</ele>
        <time>2019-11-01T11:10:50.001Z</time>
      </trkpt>
      <trkpt lat="45.22167" lon="0.93775">
        <ele>118.962</ele>
        <time>2019-11-01T11:12:44.001Z</time>
      </trkpt>
      <trkpt lat="45.22246" lon="0.93758">
        <ele>114.766</ele>
        <time>2019-11-01T11:13:14.002Z</time>
      </trkpt>
      <trkpt lat="45.22334" lon="0.93703">
        <ele>120.872</ele>
        <time>2019-11-01T11:13:47.001Z</time>
      </trkpt>
      <trkpt lat="45.22387" lon="0.93658">
        <ele>124.595</ele>
        <time>2019-11-01T11:14:17.001Z</time>
      </trkpt>
      <trkpt lat="45.2246" lon="0.93636">
        <ele>130.309</ele>
        <time>2019-11-01T11:14:50.001Z</time>
      </trkpt>
      <trkpt lat="45.22529" lon="0.93642">
        <ele>131.572</ele>
        <time>2019-11-01T11:15:20.001Z</time>
      </trkpt>
      <trkpt lat="45.22616" lon="0.93653">
        <ele>141.705</ele>
        <time>2019-11-01T11:15:53.001Z</time>
      </trkpt>
      <trkpt lat="45.2271" lon="0.93639">
        <ele>140.859</ele>
        <time>2019-11-01T11:16:23.001Z</time>
      </trkpt>
      <trkpt lat="45.22787" lon="0.93609">
        <ele>142.766</ele>
        <time>2019-11-01T11:16:56.001Z</time>
      </trkpt>
      <trkpt lat="45.22861" lon="0.93598">
        <ele>143.373</ele>
        <time>2019-11-01T11:17:26.001Z</time>
      </trkpt>
      <trkpt lat="45.22918" lon="0.93563">
        <ele>147.624</ele>
        <time>2019-11-01T11:17:56.001Z</time>
      </trkpt>
      <trkpt lat="45.2299" lon="0.93552">
        <ele>148.476</ele>
        <time>2019-11-01T11:18:29.001Z</time>
      </trkpt>
      <trkpt lat="45.23059" lon="0.93584">
        <ele>144.502</ele>
        <time>2019-11-01T11:18:59.001Z</time>
      </trkpt>
      <trkpt lat="45.23135" lon="0.93558">
        <ele>148.068</ele>
        <time>2019-11-01T11:19:32.001Z</time>
      </trkpt>
      <trkpt lat="45.23213" lon="0.93532">
        <ele>161.296</ele>
        <time>2019-11-01T11:20:02Z</time>
      </trkpt>
      <trkpt lat="45.23294" lon="0.93497">
        <ele>164.134</ele>
        <time>2019-11-01T11:20:35.001Z</time>
      </trkpt>
      <trkpt lat="45.23365" lon="0.93472">
        <ele>170.193</ele>
        <time>2019-11-01T11:21:05.001Z</time>
      </trkpt>
      <trkpt lat="45.23446" lon="0.93496">
        <ele>170.898</ele>
        <time>2019-11-01T11:21:38.001Z</time>
      </trkpt>
      <trkpt lat="45.23515" lon="0.93532">
        <ele>174.154</ele>
        <time>2019-11-01T11:22:08.001Z</time>
      </trkpt>
      <trkpt lat="45.23585" lon="0.93514">
        <ele>175.908</ele>
        <time>2019-11-01T11:22:41.001Z</time>
      </trkpt>
      <trkpt lat="45.23632" lon="0.93498">
        <ele>177.324</ele>
        <time>2019-11-01T11:23:23.001Z</time>
      </trkpt>
      <trkpt lat="45.23676" lon="0.93479">
        <ele>176.556</ele>
        <time>2019-11-01T11:24:05.001Z</time>
      </trkpt>
      <trkpt lat="45.23729" lon="0.93457">
        <ele>183.665</ele>
        <time>2019-11-01T11:44:38.001Z</time>
      </trkpt>
      <trkpt lat="45.23788" lon="0.93422">
        <ele>188.079</ele>
        <time>2019-11-01T11:45:08.001Z</time>
      </trkpt>
      <trkpt lat="45.23848" lon="0.93345">
        <ele>193.756</ele>
        <time>2019-11-01T11:45:41.001Z</time>
      </trkpt>
      <trkpt lat="45.24056" lon="0.93186">
        <ele>189.523</ele>
        <time>2019-11-01T11:46:11.001Z</time>
      </trkpt>
      <trkpt lat="45.24425" lon="0.92997">
        <ele>167.515</ele>
        <time>2019-11-01T11:46:44.001Z</time>
      </trkpt>
      <trkpt lat="45.24684" lon="0.92974">
        <ele>150.169</ele>
        <time>2019-11-01T11:47:14.001Z</time>
      </trkpt>
      <trkpt lat="45.24855" lon="0.92872">
        <ele>150.624</ele>
        <time>2019-11-01T11:47:47.001Z</time>
      </trkpt>
      <trkpt lat="45.24926" lon="0.92896">
        <ele>157.863</ele>
        <time>2019-11-01T11:48:17.001Z</time>
      </trkpt>
      <trkpt lat="45.24989" lon="0.92921">
        <ele>164.3</ele>
        <time>2019-11-01T11:48:50.001Z</time>
      </trkpt>
      <trkpt lat="45.25046" lon="0.92926">
        <ele>168.927</ele>
        <time>2019-11-01T11:49:20.001Z</time>
      </trkpt>
      <trkpt lat="45.25126" lon="0.92715">
        <ele>161.9</ele>
        <time>2019-11-01T11:49:50.001Z</time>
      </trkpt>
      <trkpt lat="45.25411" lon="0.92633">
        <ele>149.029</ele>
        <time>2019-11-01T11:50:23.001Z</time>
      </trkpt>
      <trkpt lat="45.25459" lon="0.92685">
        <ele>151.35</ele>
        <time>2019-11-01T11:50:56.001Z</time>
      </trkpt>
      <trkpt lat="45.25527" lon="0.92722">
        <ele>163.268</ele>
        <time>2019-11-01T11:51:38.001Z</time>
      </trkpt>
      <trkpt lat="45.25586" lon="0.92706">
        <ele>170.355</ele>
        <time>2019-11-01T11:52:17.001Z</time>
      </trkpt>
      <trkpt lat="45.25652" lon="0.92669">
        <ele>178.209</ele>
        <time>2019-11-01T11:53:02Z</time>
      </trkpt>
      <trkpt lat="45.25665" lon="0.92579">
        <ele>187.951</ele>
        <time>2019-11-01T11:53:38.001Z</time>
      </trkpt>
      <trkpt lat="45.25667" lon="0.92484">
        <ele>191.364</ele>
        <time>2019-11-01T11:54:11.001Z</time>
      </trkpt>
      <trkpt lat="45.25808" lon="0.92391">
        <ele>182.958</ele>
        <time>2019-11-01T11:54:41.001Z</time>
      </trkpt>
      <trkpt lat="45.26019" lon="0.91913">
        <ele>153.778</ele>
        <time>2019-11-01T11:55:14.001Z</time>
      </trkpt>
      <trkpt lat="45.26258" lon="0.91632">
        <ele>139.934</ele>
        <time>2019-11-01T11:55:44.001Z</time>
      </trkpt>
      <trkpt lat="45.26492" lon="0.91585">
        <ele>128.996</ele>
        <time>2019-11-01T11:56:14.001Z</time>
      </trkpt>
      <trkpt lat="45.26748" lon="0.91422">
        <ele>121.162</ele>
        <time>2019-11-01T11:56:47.001Z</time>
      </trkpt>
      <trkpt lat="45.2695" lon="0.91506">
        <ele>112.587</ele>
        <time>2019-11-01T11:57:17.001Z</time>
      </trkpt>
      <trkpt lat="45.27064" lon="0.91647">
        <ele>107.726</ele>
        <time>2019-11-01T11:57:50.001Z</time>
      </trkpt>
      <trkpt lat="45.27172" lon="0.91541">
        <ele>113.75</ele>
        <time>2019-11-01T11:58:20.001Z</time>
      </trkpt>
      <trkpt lat="45.27317" lon="0.91455">
        <ele>113.796</ele>
        <time>2019-11-01T11:58:53.001Z</time>
      </trkpt>
      <trkpt lat="45.27315" lon="0.91376">
        <ele>115.667</ele>
        <time>2019-11-01T12:00:17.001Z</time>
      </trkpt>
      <trkpt lat="45.27224" lon="0.91201">
        <ele>114.475</ele>
        <time>2019-11-01T12:00:50.001Z</time>
      </trkpt>
      <trkpt lat="45.2711" lon="0.91069">
        <ele>114.964</ele>
        <time>2019-11-01T12:01:20.001Z</time>
      </trkpt>
      <trkpt lat="45.27106" lon="0.90917">
        <ele>113.943</ele>
        <time>2019-11-01T12:01:53.001Z</time>
      </trkpt>
      <trkpt lat="45.27153" lon="0.90825">
        <ele>125.159</ele>
        <time>2019-11-01T12:02:23.001Z</time>
      </trkpt>
      <trkpt lat="45.27233" lon="0.90702">
        <ele>124.342</ele>
        <time>2019-11-01T12:02:53.001Z</time>
      </trkpt>
      <trkpt lat="45.27381" lon="0.90561">
        <ele>119.714</ele>
        <time>2019-11-01T12:03:26.001Z</time>
      </trkpt>
      <trkpt lat="45.27524" lon="0.90546">
        <ele>116.19</ele>
        <time>2019-11-01T12:03:56.001Z</time>
      </trkpt>
      <trkpt lat="45.27595" lon="0.90427">
        <ele>116.29</ele>
        <time>2019-11-01T12:04:29.001Z</time>
      </trkpt>
      <trkpt lat="45.27657" lon="0.90263">
        <ele>122.498</ele>
        <time>2019-11-01T12:04:59.001Z</time>
      </trkpt>
      <trkpt lat="45.27752" lon="0.90104">
        <ele>124.32</ele>
        <time>2019-11-01T12:05:32.001Z</time>
      </trkpt>
      <trkpt lat="45.27882" lon="0.90044">
        <ele>122.771</ele>
        <time>2019-11-01T12:06:02Z</time>
      </trkpt>
      <trkpt lat="45.28037" lon="0.90018">
        <ele>123.799</ele>
        <time>2019-11-01T12:06:35.001Z</time>
      </trkpt>
      <trkpt lat="45.28188" lon="0.9005">
        <ele>126.161</ele>
        <time>2019-11-01T12:07:05.001Z</time>
      </trkpt>
      <trkpt lat="45.28356" lon="0.90035">
        <ele>119.713</ele>
        <time>2019-11-01T12:07:38.001Z</time>
      </trkpt>
      <trkpt lat="45.2847" lon="0.90128">
        <ele>128.49</ele>
        <time>2019-11-01T12:08:08.001Z</time>
      </trkpt>
      <trkpt lat="45.28533" lon="0.89986">
        <ele>125.52</ele>
        <time>2019-11-01T12:08:38.001Z</time>
      </trkpt>
      <trkpt lat="45.2862" lon="0.89821">
        <ele>129.824</ele>
        <time>2019-11-01T12:09:11.001Z</time>
      </trkpt>
      <trkpt lat="45.28706" lon="0.89695">
        <ele>134.844</ele>
        <time>2019-11-01T12:09:41.001Z</time>
      </trkpt>
      <trkpt lat="45.28845" lon="0.8957">
        <ele>138.818</ele>
        <time>2019-11-01T12:10:14.001Z</time>
      </trkpt>
      <trkpt lat="45.28981" lon="0.89571">
        <ele>138.879</ele>
        <time>2019-11-01T12:10:44.001Z</time>
      </trkpt>
      <trkpt lat="45.29127" lon="0.89673">
        <ele>139.756</ele>
        <time>2019-11-01T12:11:17.001Z</time>
      </trkpt>
      <trkpt lat="45.29226" lon="0.89587">
        <ele>134.529</ele>
        <time>2019-11-01T12:11:47.001Z</time>
      </trkpt>
      <trkpt lat="45.29244" lon="0.8944">
        <ele>141.544</ele>
        <time>2019-11-01T12:12:20.001Z</time>
      </trkpt>
      <trkpt lat="45.29296" lon="0.89372">
        <ele>140.162</ele>
        <time>2019-11-01T12:12:50.001Z</time>
      </trkpt>
      <trkpt lat="45.2935" lon="0.89321">
        <ele>147.451</ele>
        <time>2019-11-01T12:13:26.001Z</time>
      </trkpt>
      <trkpt lat="45.29397" lon="0.89272">
        <ele>155.433</ele>
        <time>2019-11-01T12:13:56.001Z</time>
      </trkpt>
      <trkpt lat="45.29453" lon="0.89215">
        <ele>157.203</ele>
        <time>2019-11-01T12:14:26.001Z</time>
      </trkpt>
      <trkpt lat="45.29519" lon="0.89148">
        <ele>159.015</ele>
        <time>2019-11-01T12:14:59.001Z</time>
      </trkpt>
      <trkpt lat="45.2956" lon="0.89062">
        <ele>160.996</ele>
        <time>2019-11-01T12:15:29.001Z</time>
      </trkpt>
      <trkpt lat="45.29613" lon="0.88967">
        <ele>160.521</ele>
        <time>2019-11-01T12:16:02Z</time>
      </trkpt>
      <trkpt lat="45.29671" lon="0.88888">
        <ele>163.637</ele>
        <time>2019-11-01T12:16:32.001Z</time>
      </trkpt>
      <trkpt lat="45.29729" lon="0.8881">
        <ele>160.899</ele>
        <time>2019-11-01T12:17:05.001Z</time>
      </trkpt>
      <trkpt lat="45.29784" lon="0.88738">
        <ele>162.77</ele>
        <time>2019-11-01T12:17:35.001Z</time>
      </trkpt>
      <trkpt lat="45.29849" lon="0.8866">
        <ele>166.854</ele>
        <time>2019-11-01T12:18:08.001Z</time>
      </trkpt>
      <trkpt lat="45.29902" lon="0.8859">
        <ele>173.194</ele>
        <time>2019-11-01T12:18:38.001Z</time>
      </trkpt>
      <trkpt lat="45.2994" lon="0.88498">
        <ele>173.799</ele>
        <time>2019-11-01T12:19:08.001Z</time>
      </trkpt>
      <trkpt lat="45.29954" lon="0.88391">
        <ele>177.81</ele>
        <time>2019-11-01T12:19:41.001Z</time>
      </trkpt>
      <trkpt lat="45.29966" lon="0.88299">
        <ele>182.264</ele>
        <time>2019-11-01T12:20:11.001Z</time>
      </trkpt>
      <trkpt lat="45.29991" lon="0.88138">
        <ele>183.386</ele>
        <time>2019-11-01T12:20:44.001Z</time>
      </trkpt>
      <trkpt lat="45.30139" lon="0.87889">
        <ele>174.139</ele>
        <time>2019-11-01T12:21:14.001Z</time>
      </trkpt>
      <trkpt lat="45.30369" lon="0.87612">
        <ele>166.359</ele>
        <time>2019-11-01T12:21:47.001Z</time>
      </trkpt>
      <trkpt lat="45.30466" lon="0.87482">
        <ele>164.498</ele>
        <time>2019-11-01T12:22:17.001Z</time>
      </trkpt>
      <trkpt lat="45.3049" lon="0.87388">
        <ele>168.911</ele>
        <time>2019-11-01T12:37:29.001Z</time>
      </trkpt>
      <trkpt lat="45.30513" lon="0.87303">
        <ele>174.856</ele>
        <time>2019-11-01T12:38:29.001Z</time>
      </trkpt>
      <trkpt lat="45.30565" lon="0.87308">
        <ele>176.063</ele>
        <time>2019-11-01T12:47:50.001Z</time>
      </trkpt>
      <trkpt lat="45.30645" lon="0.87346">
        <ele>182.273</ele>
        <time>2019-11-01T12:48:20.001Z</time>
      </trkpt>
      <trkpt lat="45.30734" lon="0.87362">
        <ele>186.881</ele>
        <time>2019-11-01T12:48:50.001Z</time>
      </trkpt>
      <trkpt lat="45.30847" lon="0.87388">
        <ele>189.775</ele>
        <time>2019-11-01T12:49:23.001Z</time>
      </trkpt>
      <trkpt lat="45.30952" lon="0.87409">
        <ele>189.044</ele>
        <time>2019-11-01T12:49:53.001Z</time>
      </trkpt>
      <trkpt lat="45.31059" lon="0.87429">
        <ele>189.833</ele>
        <time>2019-11-01T12:50:26.001Z</time>
      </trkpt>
      <trkpt lat="45.31153" lon="0.87447">
        <ele>195.364</ele>
        <time>2019-11-01T12:50:56.001Z</time>
      </trkpt>
      <trkpt lat="45.31264" lon="0.87441">
        <ele>195.155</ele>
        <time>2019-11-01T12:51:29.001Z</time>
      </trkpt>
      <trkpt lat="45.31374" lon="0.87363">
        <ele>193.813</ele>
        <time>2019-11-01T12:51:59.001Z</time>
      </trkpt>
      <trkpt lat="45.31525" lon="0.87233">
        <ele>196.653</ele>
        <time>2019-11-01T12:52:32.001Z</time>
      </trkpt>
      <trkpt lat="45.31682" lon="0.87109">
        <ele>199.552</ele>
        <time>2019-11-01T12:53:02Z</time>
      </trkpt>
      <trkpt lat="45.31868" lon="0.87112">
        <ele>196.824</ele>
        <time>2019-11-01T12:53:35.001Z</time>
      </trkpt>
      <trkpt lat="45.31988" lon="0.87143">
        <ele>194.383</ele>
        <time>2019-11-01T12:54:05.001Z</time>
      </trkpt>
      <trkpt lat="45.32091" lon="0.8716">
        <ele>197.124</ele>
        <time>2019-11-01T12:54:35.001Z</time>
      </trkpt>
      <trkpt lat="45.32253" lon="0.87265">
        <ele>190.491</ele>
        <time>2019-11-01T12:55:08.001Z</time>
      </trkpt>
      <trkpt lat="45.32396" lon="0.87344">
        <ele>187.784</ele>
        <time>2019-11-01T12:55:38.001Z</time>
      </trkpt>
      <trkpt lat="45.32584" lon="0.87453">
        <ele>184.651</ele>
        <time>2019-11-01T12:56:11.001Z</time>
      </trkpt>
      <trkpt lat="45.32768" lon="0.87554">
        <ele>185.603</ele>
        <time>2019-11-01T12:56:41.001Z</time>
      </trkpt>
      <trkpt lat="45.32955" lon="0.87659">
        <ele>183.912</ele>
        <time>2019-11-01T12:57:14.001Z</time>
      </trkpt>
      <trkpt lat="45.33117" lon="0.8775">
        <ele>181.777</ele>
        <time>2019-11-01T12:57:44.001Z</time>
      </trkpt>
      <trkpt lat="45.33217" lon="0.87807">
        <ele>186.338</ele>
        <time>2019-11-01T12:58:17.001Z</time>
      </trkpt>
      <trkpt lat="45.33297" lon="0.87852">
        <ele>191.494</ele>
        <time>2019-11-01T12:58:47.001Z</time>
      </trkpt>
      <trkpt lat="45.3339" lon="0.87905">
        <ele>193.899</ele>
        <time>2019-11-01T12:59:20.001Z</time>
      </trkpt>
      <trkpt lat="45.33488" lon="0.87959">
        <ele>199.097</ele>
        <time>2019-11-01T12:59:50.001Z</time>
      </trkpt>
      <trkpt lat="45.33614" lon="0.8803">
        <ele>205.075</ele>
        <time>2019-11-01T13:00:20.001Z</time>
      </trkpt>
      <trkpt lat="45.33794" lon="0.88129">
        <ele>202.477</ele>
        <time>2019-11-01T13:00:53.001Z</time>
      </trkpt>
      <trkpt lat="45.33962" lon="0.88222">
        <ele>198.275</ele>
        <time>2019-11-01T13:01:23.001Z</time>
      </trkpt>
      <trkpt lat="45.34262" lon="0.88384">
        <ele>186.029</ele>
        <time>2019-11-01T13:01:56.001Z</time>
      </trkpt>
      <trkpt lat="45.34495" lon="0.88512">
        <ele>177.834</ele>
        <time>2019-11-01T13:02:26.001Z</time>
      </trkpt>
      <trkpt lat="45.34721" lon="0.8863">
        <ele>174.978</ele>
        <time>2019-11-01T13:02:59.001Z</time>
      </trkpt>
      <trkpt lat="45.34832" lon="0.88693">
        <ele>180.007</ele>
        <time>2019-11-01T13:03:29.001Z</time>
      </trkpt>
      <trkpt lat="45.3492" lon="0.88742">
        <ele>187.48</ele>
        <time>2019-11-01T13:04:02Z</time>
      </trkpt>
      <trkpt lat="45.34989" lon="0.88779">
        <ele>193.753</ele>
        <time>2019-11-01T13:04:32.001Z</time>
      </trkpt>
      <trkpt lat="45.3507" lon="0.88826">
        <ele>196.45</ele>
        <time>2019-11-01T13:05:05.001Z</time>
      </trkpt>
      <trkpt lat="45.3514" lon="0.88867">
        <ele>198.589</ele>
        <time>2019-11-01T13:05:35.001Z</time>
      </trkpt>
      <trkpt lat="45.35216" lon="0.88908">
        <ele>201.878</ele>
        <time>2019-11-01T13:06:05.001Z</time>
      </trkpt>
      <trkpt lat="45.353" lon="0.88937">
        <ele>205.411</ele>
        <time>2019-11-01T13:06:38.001Z</time>
      </trkpt>
      <trkpt lat="45.35424" lon="0.89011">
        <ele>200.156</ele>
        <time>2019-11-01T13:07:08.001Z</time>
      </trkpt>
      <trkpt lat="45.35571" lon="0.89088">
        <ele>198.246</ele>
        <time>2019-11-01T13:07:41.001Z</time>
      </trkpt>
      <trkpt lat="45.35674" lon="0.89147">
        <ele>197.376</ele>
        <time>2019-11-01T13:08:11.001Z</time>
      </trkpt>
      <trkpt lat="45.35785" lon="0.89208">
        <ele>200.862</ele>
        <time>2019-11-01T13:08:44.001Z</time>
      </trkpt>
      <trkpt lat="45.35958" lon="0.89304">
        <ele>202.672</ele>
        <time>2019-11-01T13:09:14.001Z</time>
      </trkpt>
      <trkpt lat="45.36271" lon="0.89485">
        <ele>186.308</ele>
        <time>2019-11-01T13:09:47.001Z</time>
      </trkpt>
      <trkpt lat="45.36342" lon="0.89528">
        <ele>188.742</ele>
        <time>2019-11-01T13:10:17.001Z</time>
      </trkpt>
      <trkpt lat="45.36432" lon="0.89581">
        <ele>195.277</ele>
        <time>2019-11-01T13:10:50.001Z</time>
      </trkpt>
      <trkpt lat="45.36598" lon="0.89678">
        <ele>188.101</ele>
        <time>2019-11-01T13:11:20.001Z</time>
      </trkpt>
      <trkpt lat="45.36805" lon="0.89857">
        <ele>183.299</ele>
        <time>2019-11-01T13:11:50.001Z</time>
      </trkpt>
      <trkpt lat="45.36885" lon="0.89891">
        <ele>185.057</ele>
        <time>2019-11-01T13:12:23.001Z</time>
      </trkpt>
      <trkpt lat="45.36947" lon="0.89916">
        <ele>190.756</ele>
        <time>2019-11-01T13:12:53.001Z</time>
      </trkpt>
      <trkpt lat="45.37159" lon="0.90009">
        <ele>185.533</ele>
        <time>2019-11-01T13:13:26.001Z</time>
      </trkpt>
      <trkpt lat="45.37251" lon="0.90046">
        <ele>184.367</ele>
        <time>2019-11-01T13:13:56.001Z</time>
      </trkpt>
      <trkpt lat="45.37321" lon="0.90076">
        <ele>195.028</ele>
        <time>2019-11-01T13:14:29.001Z</time>
      </trkpt>
      <trkpt lat="45.37391" lon="0.9011">
        <ele>199.216</ele>
        <time>2019-11-01T13:14:59.001Z</time>
      </trkpt>
      <trkpt lat="45.37468" lon="0.90139">
        <ele>199.544</ele>
        <time>2019-11-01T13:15:32.001Z</time>
      </trkpt>
      <trkpt lat="45.3753" lon="0.90164">
        <ele>207.406</ele>
        <time>2019-11-01T13:16:02Z</time>
      </trkpt>
      <trkpt lat="45.37637" lon="0.90213">
        <ele>208.67</ele>
        <time>2019-11-01T13:16:35.001Z</time>
      </trkpt>
      <trkpt lat="45.37764" lon="0.90267">
        <ele>205.062</ele>
        <time>2019-11-01T13:17:05.001Z</time>
      </trkpt>
      <trkpt lat="45.37872" lon="0.90315">
        <ele>206.583</ele>
        <time>2019-11-01T13:17:35.001Z</time>
      </trkpt>
      <trkpt lat="45.38023" lon="0.90351">
        <ele>206.671</ele>
        <time>2019-11-01T13:18:08.001Z</time>
      </trkpt>
      <trkpt lat="45.38092" lon="0.9036">
        <ele>210.73</ele>
        <time>2019-11-01T13:18:38.001Z</time>
      </trkpt>
      <trkpt lat="45.3816" lon="0.90376">
        <ele>215.362</ele>
        <time>2019-11-01T13:19:11.001Z</time>
      </trkpt>
      <trkpt lat="45.38227" lon="0.90392">
        <ele>217.467</ele>
        <time>2019-11-01T13:19:41.001Z</time>
      </trkpt>
      <trkpt lat="45.38324" lon="0.90409">
        <ele>226.052</ele>
        <time>2019-11-01T13:20:14.001Z</time>
      </trkpt>
      <trkpt lat="45.38435" lon="0.90433">
        <ele>223.793</ele>
        <time>2019-11-01T13:20:44.001Z</time>
      </trkpt>
      <trkpt lat="45.38544" lon="0.90446">
        <ele>224.712</ele>
        <time>2019-11-01T13:21:17.001Z</time>
      </trkpt>
      <trkpt lat="45.38695" lon="0.90441">
        <ele>225.446</ele>
        <time>2019-11-01T13:21:47.001Z</time>
      </trkpt>
      <trkpt lat="45.38861" lon="0.90503">
        <ele>223.905</ele>
        <time>2019-11-01T13:22:20.001Z</time>
      </trkpt>
      <trkpt lat="45.39018" lon="0.90559">
        <ele>218.937</ele>
        <time>2019-11-01T13:22:50.001Z</time>
      </trkpt>
      <trkpt lat="45.39224" lon="0.90632">
        <ele>220.145</ele>
        <time>2019-11-01T13:23:20.001Z</time>
      </trkpt>
      <trkpt lat="45.3936" lon="0.9068">
        <ele>220.193</ele>
        <time>2019-11-01T13:23:53.001Z</time>
      </trkpt>
      <trkpt lat="45.39433" lon="0.90708">
        <ele>217.848</ele>
        <time>2019-11-01T13:24:23.001Z</time>
      </trkpt>
      <trkpt lat="45.39509" lon="0.90735">
        <ele>222.014</ele>
        <time>2019-11-01T13:24:56.001Z</time>
      </trkpt>
      <trkpt lat="45.39571" lon="0.90755">
        <ele>227.141</ele>
        <time>2019-11-01T13:25:26.001Z</time>
      </trkpt>
      <trkpt lat="45.39633" lon="0.90777">
        <ele>233.753</ele>
        <time>2019-11-01T13:25:59.001Z</time>
      </trkpt>
      <trkpt lat="45.39681" lon="0.90813">
        <ele>241.442</ele>
        <time>2019-11-01T13:26:29.001Z</time>
      </trkpt>
      <trkpt lat="45.39749" lon="0.90913">
        <ele>242.688</ele>
        <time>2019-11-01T13:27:02Z</time>
      </trkpt>
      <trkpt lat="45.39837" lon="0.91041">
        <ele>241.739</ele>
        <time>2019-11-01T13:27:32.001Z</time>
      </trkpt>
      <trkpt lat="45.39919" lon="0.91165">
        <ele>243.046</ele>
        <time>2019-11-01T13:28:05.001Z</time>
      </trkpt>
      <trkpt lat="45.40014" lon="0.91302">
        <ele>241.276</ele>
        <time>2019-11-01T13:28:35.001Z</time>
      </trkpt>
      <trkpt lat="45.40118" lon="0.91454">
        <ele>234.607</ele>
        <time>2019-11-01T13:29:05.001Z</time>
      </trkpt>
      <trkpt lat="45.4024" lon="0.91528">
        <ele>231.793</ele>
        <time>2019-11-01T13:29:38.001Z</time>
      </trkpt>
      <trkpt lat="45.40349" lon="0.91587">
        <ele>234.13</ele>
        <time>2019-11-01T13:30:08.001Z</time>
      </trkpt>
      <trkpt lat="45.40433" lon="0.91644">
        <ele>234.886</ele>
        <time>2019-11-01T13:30:41.001Z</time>
      </trkpt>
      <trkpt lat="45.4049" lon="0.91677">
        <ele>240.549</ele>
        <time>2019-11-01T13:31:11.001Z</time>
      </trkpt>
      <trkpt lat="45.40546" lon="0.91711">
        <ele>247.075</ele>
        <time>2019-11-01T13:31:44.001Z</time>
      </trkpt>
      <trkpt lat="45.40605" lon="0.91754">
        <ele>253.131</ele>
        <time>2019-11-01T13:32:14.001Z</time>
      </trkpt>
      <trkpt lat="45.40661" lon="0.91823">
        <ele>257.395</ele>
        <time>2019-11-01T13:32:47.001Z</time>
      </trkpt>
      <trkpt lat="45.40708" lon="0.91891">
        <ele>259.695</ele>
        <time>2019-11-01T13:33:17.001Z</time>
      </trkpt>
      <trkpt lat="45.40757" lon="0.9197">
        <ele>262.66</ele>
        <time>2019-11-01T13:33:50.001Z</time>
      </trkpt>
      <trkpt lat="45.40802" lon="0.92046">
        <ele>263.933</ele>
        <time>2019-11-01T13:34:20.001Z</time>
      </trkpt>
      <trkpt lat="45.40871" lon="0.92118">
        <ele>265.013</ele>
        <time>2019-11-01T13:34:50.001Z</time>
      </trkpt>
      <trkpt lat="45.40964" lon="0.92192">
        <ele>265.994</ele>
        <time>2019-11-01T13:35:23.001Z</time>
      </trkpt>
      <trkpt lat="45.41041" lon="0.9222">
        <ele>274.773</ele>
        <time>2019-11-01T13:35:53.001Z</time>
      </trkpt>
      <trkpt lat="45.41132" lon="0.92253">
        <ele>280.214</ele>
        <time>2019-11-01T13:36:26.001Z</time>
      </trkpt>
      <trkpt lat="45.41225" lon="0.92224">
        <ele>282.096</ele>
        <time>2019-11-01T13:36:56.001Z</time>
      </trkpt>
      <trkpt lat="45.41346" lon="0.92152">
        <ele>282.286</ele>
        <time>2019-11-01T13:37:29.001Z</time>
      </trkpt>
      <trkpt lat="45.41426" lon="0.9208">
        <ele>285.552</ele>
        <time>2019-11-01T13:37:59.001Z</time>
      </trkpt>
      <trkpt lat="45.41441" lon="0.92028">
        <ele>275.484</ele>
        <time>2019-11-01T13:38:50.001Z</time>
      </trkpt>
      <trkpt lat="45.41445" lon="0.92022">
        <ele>278.98</ele>
        <time>2019-11-01T13:47:02Z</time>
      </trkpt>
      <trkpt lat="45.41447" lon="0.92022">
        <ele>288.399</ele>
        <time>2019-11-01T13:58:29.001Z</time>
      </trkpt>
      <trkpt lat="45.41447" lon="0.92022">
        <ele>289.697</ele>
        <time>2019-11-01T14:06:29.001Z</time>
      </trkpt>
      <trkpt lat="45.4144" lon="0.92013">
        <ele>295.439</ele>
        <time>2019-11-01T14:07:32.001Z</time>
      </trkpt>
      <trkpt lat="45.41441" lon="0.92016">
        <ele>294.529</ele>
        <time>2019-11-01T14:08:32.001Z</time>
      </trkpt>
      <trkpt lat="45.41441" lon="0.92014">
        <ele>295.8</ele>
        <time>2019-11-01T14:12:02Z</time>
      </trkpt>
      <trkpt lat="45.41465" lon="0.91979">
        <ele>281.851</ele>
        <time>2019-11-01T14:14:50.001Z</time>
      </trkpt>
      <trkpt lat="45.41513" lon="0.9193">
        <ele>283.244</ele>
        <time>2019-11-01T14:15:20.001Z</time>
      </trkpt>
      <trkpt lat="45.41537" lon="0.918">
        <ele>274.12</ele>
        <time>2019-11-01T14:15:53.001Z</time>
      </trkpt>
      <trkpt lat="45.41526" lon="0.91765">
        <ele>278.269</ele>
        <time>2019-11-01T14:40:32.001Z</time>
      </trkpt>
      <trkpt lat="45.41558" lon="0.91616">
        <ele>277.307</ele>
        <time>2019-11-01T14:41:05.001Z</time>
      </trkpt>
      <trkpt lat="45.41606" lon="0.91453">
        <ele>274.39</ele>
        <time>2019-11-01T14:41:35.001Z</time>
      </trkpt>
      <trkpt lat="45.41589" lon="0.91208">
        <ele>259.444</ele>
        <time>2019-11-01T14:42:08.001Z</time>
      </trkpt>
      <trkpt lat="45.41695" lon="0.9104">
        <ele>251.067</ele>
        <time>2019-11-01T14:42:38.001Z</time>
      </trkpt>
      <trkpt lat="45.41836" lon="0.90819">
        <ele>230.209</ele>
        <time>2019-11-01T14:43:08.001Z</time>
      </trkpt>
      <trkpt lat="45.41998" lon="0.90468">
        <ele>211.825</ele>
        <time>2019-11-01T14:43:41.001Z</time>
      </trkpt>
      <trkpt lat="45.42054" lon="0.90161">
        <ele>203.778</ele>
        <time>2019-11-01T14:44:11.001Z</time>
      </trkpt>
      <trkpt lat="45.42114" lon="0.89948">
        <ele>199.474</ele>
        <time>2019-11-01T14:44:44.001Z</time>
      </trkpt>
      <trkpt lat="45.42156" lon="0.89747">
        <ele>201.695</ele>
        <time>2019-11-01T14:45:14.001Z</time>
      </trkpt>
      <trkpt lat="45.4229" lon="0.89504">
        <ele>198.165</ele>
        <time>2019-11-01T14:45:47.001Z</time>
      </trkpt>
      <trkpt lat="45.42424" lon="0.8934">
        <ele>198.134</ele>
        <time>2019-11-01T14:46:17.001Z</time>
      </trkpt>
      <trkpt lat="45.42525" lon="0.8921">
        <ele>200.226</ele>
        <time>2019-11-01T14:46:50.001Z</time>
      </trkpt>
      <trkpt lat="45.42607" lon="0.89113">
        <ele>202.472</ele>
        <time>2019-11-01T14:47:20.001Z</time>
      </trkpt>
      <trkpt lat="45.42625" lon="0.88973">
        <ele>204.291</ele>
        <time>2019-11-01T14:47:53.001Z</time>
      </trkpt>
      <trkpt lat="45.42607" lon="0.88775">
        <ele>200.968</ele>
        <time>2019-11-01T14:48:23.001Z</time>
      </trkpt>
      <trkpt lat="45.42591" lon="0.88562">
        <ele>204.141</ele>
        <time>2019-11-01T14:48:53.001Z</time>
      </trkpt>
      <trkpt lat="45.42573" lon="0.88335">
        <ele>196.321</ele>
        <time>2019-11-01T14:49:26.001Z</time>
      </trkpt>
      <trkpt lat="45.4255" lon="0.88125">
        <ele>188.066</ele>
        <time>2019-11-01T14:49:56.001Z</time>
      </trkpt>
      <trkpt lat="45.4254" lon="0.87921">
        <ele>186.866</ele>
        <time>2019-11-01T14:50:29.001Z</time>
      </trkpt>
      <trkpt lat="45.42521" lon="0.87724">
        <ele>180.433</ele>
        <time>2019-11-01T14:50:59.001Z</time>
      </trkpt>
      <trkpt lat="45.42515" lon="0.87503">
        <ele>180.783</ele>
        <time>2019-11-01T14:51:32.001Z</time>
      </trkpt>
      <trkpt lat="45.42538" lon="0.87294">
        <ele>180.08</ele>
        <time>2019-11-01T14:52:02Z</time>
      </trkpt>
      <trkpt lat="45.42598" lon="0.87097">
        <ele>175.837</ele>
        <time>2019-11-01T14:52:35.001Z</time>
      </trkpt>
      <trkpt lat="45.42676" lon="0.86933">
        <ele>169.668</ele>
        <time>2019-11-01T14:53:05.001Z</time>
      </trkpt>
      <trkpt lat="45.42729" lon="0.86846">
        <ele>174.213</ele>
        <time>2019-11-01T14:53:59.001Z</time>
      </trkpt>
      <trkpt lat="45.42792" lon="0.86738">
        <ele>175.326</ele>
        <time>2019-11-01T14:54:29.001Z</time>
      </trkpt>
      <trkpt lat="45.42852" lon="0.86607">
        <ele>174.86</ele>
        <time>2019-11-01T14:54:59.001Z</time>
      </trkpt>
      <trkpt lat="45.42881" lon="0.86413">
        <ele>176.542</ele>
        <time>2019-11-01T14:55:32.001Z</time>
      </trkpt>
      <trkpt lat="45.42866" lon="0.86205">
        <ele>179.539</ele>
        <time>2019-11-01T14:56:02Z</time>
      </trkpt>
      <trkpt lat="45.42791" lon="0.85998">
        <ele>172.178</ele>
        <time>2019-11-01T14:56:35.001Z</time>
      </trkpt>
      <trkpt lat="45.42748" lon="0.85795">
        <ele>170.17</ele>
        <time>2019-11-01T14:57:05.001Z</time>
      </trkpt>
      <trkpt lat="45.42736" lon="0.85595">
        <ele>170.577</ele>
        <time>2019-11-01T14:57:38.001Z</time>
      </trkpt>
      <trkpt lat="45.42715" lon="0.8544">
        <ele>171.862</ele>
        <time>2019-11-01T14:58:08.001Z</time>
      </trkpt>
      <trkpt lat="45.4267" lon="0.85254">
        <ele>168.23</ele>
        <time>2019-11-01T14:58:41.001Z</time>
      </trkpt>
      <trkpt lat="45.42642" lon="0.85083">
        <ele>163.748</ele>
        <time>2019-11-01T14:59:11.001Z</time>
      </trkpt>
      <trkpt lat="45.42619" lon="0.84895">
        <ele>160.822</ele>
        <time>2019-11-01T14:59:44.001Z</time>
      </trkpt>
      <trkpt lat="45.42608" lon="0.84739">
        <ele>161.786</ele>
        <time>2019-11-01T15:00:14.001Z</time>
      </trkpt>
      <trkpt lat="45.42607" lon="0.84589">
        <ele>161.094</ele>
        <time>2019-11-01T15:00:44.001Z</time>
      </trkpt>
      <trkpt lat="45.42642" lon="0.84426">
        <ele>160.543</ele>
        <time>2019-11-01T15:01:17.001Z</time>
      </trkpt>
      <trkpt lat="45.42676" lon="0.84282">
        <ele>158.125</ele>
        <time>2019-11-01T15:01:47.001Z</time>
      </trkpt>
      <trkpt lat="45.42719" lon="0.84133">
        <ele>157.192</ele>
        <time>2019-11-01T15:02:20.001Z</time>
      </trkpt>
      <trkpt lat="45.4275" lon="0.84012">
        <ele>161.452</ele>
        <time>2019-11-01T15:02:50.001Z</time>
      </trkpt>
      <trkpt lat="45.42789" lon="0.83872">
        <ele>168.83</ele>
        <time>2019-11-01T15:03:23.001Z</time>
      </trkpt>
      <trkpt lat="45.42864" lon="0.83743">
        <ele>169.008</ele>
        <time>2019-11-01T15:03:53.001Z</time>
      </trkpt>
      <trkpt lat="45.42941" lon="0.8364">
        <ele>168.357</ele>
        <time>2019-11-01T15:04:26.001Z</time>
      </trkpt>
      <trkpt lat="45.42994" lon="0.83576">
        <ele>171.412</ele>
        <time>2019-11-01T15:04:56.001Z</time>
      </trkpt>
      <trkpt lat="45.43058" lon="0.83491">
        <ele>173.031</ele>
        <time>2019-11-01T15:05:29.001Z</time>
      </trkpt>
      <trkpt lat="45.43105" lon="0.83414">
        <ele>174.428</ele>
        <time>2019-11-01T15:05:59.001Z</time>
      </trkpt>
      <trkpt lat="45.43149" lon="0.83325">
        <ele>180.412</ele>
        <time>2019-11-01T15:06:29.001Z</time>
      </trkpt>
      <trkpt lat="45.43203" lon="0.83208">
        <ele>177.417</ele>
        <time>2019-11-01T15:07:02Z</time>
      </trkpt>
      <trkpt lat="45.43234" lon="0.83117">
        <ele>180.914</ele>
        <time>2019-11-01T15:07:32.001Z</time>
      </trkpt>
      <trkpt lat="45.43277" lon="0.82999">
        <ele>189.461</ele>
        <time>2019-11-01T15:08:05.001Z</time>
      </trkpt>
      <trkpt lat="45.43314" lon="0.82891">
        <ele>193.519</ele>
        <time>2019-11-01T15:08:35.001Z</time>
      </trkpt>
      <trkpt lat="45.43363" lon="0.82781">
        <ele>194.798</ele>
        <time>2019-11-01T15:09:08.001Z</time>
      </trkpt>
      <trkpt lat="45.43418" lon="0.82687">
        <ele>195.651</ele>
        <time>2019-11-01T15:09:38.001Z</time>
      </trkpt>
      <trkpt lat="45.43489" lon="0.8261">
        <ele>199.321</ele>
        <time>2019-11-01T15:10:11.001Z</time>
      </trkpt>
      <trkpt lat="45.43565" lon="0.82555">
        <ele>201.352</ele>
        <time>2019-11-01T15:10:41.001Z</time>
      </trkpt>
      <trkpt lat="45.43656" lon="0.82507">
        <ele>197.484</ele>
        <time>2019-11-01T15:11:14.001Z</time>
      </trkpt>
      <trkpt lat="45.43738" lon="0.82491">
        <ele>199.75</ele>
        <time>2019-11-01T15:11:44.001Z</time>
      </trkpt>
      <trkpt lat="45.43827" lon="0.82486">
        <ele>204.498</ele>
        <time>2019-11-01T15:12:14.001Z</time>
      </trkpt>
      <trkpt lat="45.43918" lon="0.82487">
        <ele>204.742</ele>
        <time>2019-11-01T15:12:47.001Z</time>
      </trkpt>
      <trkpt lat="45.43996" lon="0.82483">
        <ele>211.455</ele>
        <time>2019-11-01T15:13:17.001Z</time>
      </trkpt>
      <trkpt lat="45.44087" lon="0.82477">
        <ele>223.783</ele>
        <time>2019-11-01T15:13:50.001Z</time>
      </trkpt>
      <trkpt lat="45.44179" lon="0.82481">
        <ele>228.754</ele>
        <time>2019-11-01T15:14:20.001Z</time>
      </trkpt>
      <trkpt lat="45.44266" lon="0.82488">
        <ele>212.354</ele>
        <time>2019-11-01T15:14:53.001Z</time>
      </trkpt>
      <trkpt lat="45.44344" lon="0.82489">
        <ele>207.557</ele>
        <time>2019-11-01T15:15:23.001Z</time>
      </trkpt>
      <trkpt lat="45.44429" lon="0.82485">
        <ele>212.438</ele>
        <time>2019-11-01T15:15:56.001Z</time>
      </trkpt>
      <trkpt lat="45.44519" lon="0.82489">
        <ele>213.274</ele>
        <time>2019-11-01T15:16:26.001Z</time>
      </trkpt>
      <trkpt lat="45.44628" lon="0.82481">
        <ele>214.098</ele>
        <time>2019-11-01T15:16:59.001Z</time>
      </trkpt>
      <trkpt lat="45.44714" lon="0.82445">
        <ele>215.849</ele>
        <time>2019-11-01T15:17:29.001Z</time>
      </trkpt>
      <trkpt lat="45.44804" lon="0.82367">
        <ele>220.75</ele>
        <time>2019-11-01T15:17:59.001Z</time>
      </trkpt>
      <trkpt lat="45.44915" lon="0.82223">
        <ele>219.058</ele>
        <time>2019-11-01T15:18:32.001Z</time>
      </trkpt>
      <trkpt lat="45.4498" lon="0.82099">
        <ele>219.031</ele>
        <time>2019-11-01T15:19:02Z</time>
      </trkpt>
      <trkpt lat="45.45083" lon="0.81909">
        <ele>210.009</ele>
        <time>2019-11-01T15:19:35.001Z</time>
      </trkpt>
      <trkpt lat="45.45168" lon="0.81749">
        <ele>204.853</ele>
        <time>2019-11-01T15:20:05.001Z</time>
      </trkpt>
      <trkpt lat="45.45279" lon="0.81541">
        <ele>195.666</ele>
        <time>2019-11-01T15:20:38.001Z</time>
      </trkpt>
      <trkpt lat="45.45333" lon="0.81382">
        <ele>195.242</ele>
        <time>2019-11-01T15:21:08.001Z</time>
      </trkpt>
      <trkpt lat="45.45376" lon="0.81154">
        <ele>194.622</ele>
        <time>2019-11-01T15:21:41.001Z</time>
      </trkpt>
      <trkpt lat="45.45392" lon="0.80958">
        <ele>193.768</ele>
        <time>2019-11-01T15:22:11.001Z</time>
      </trkpt>
      <trkpt lat="45.45418" lon="0.80755">
        <ele>198.026</ele>
        <time>2019-11-01T15:22:44.001Z</time>
      </trkpt>
      <trkpt lat="45.45477" lon="0.80558">
        <ele>200.105</ele>
        <time>2019-11-01T15:23:14.001Z</time>
      </trkpt>
      <trkpt lat="45.45543" lon="0.80394">
        <ele>193.334</ele>
        <time>2019-11-01T15:23:44.001Z</time>
      </trkpt>
      <trkpt lat="45.45627" lon="0.80236">
        <ele>197.51</ele>
        <time>2019-11-01T15:24:17.001Z</time>
      </trkpt>
      <trkpt lat="45.45722" lon="0.801">
        <ele>195.196</ele>
        <time>2019-11-01T15:24:47.001Z</time>
      </trkpt>
      <trkpt lat="45.45788" lon="0.79993">
        <ele>196.04</ele>
        <time>2019-11-01T15:25:20.001Z</time>
      </trkpt>
      <trkpt lat="45.45857" lon="0.79883">
        <ele>200.848</ele>
        <time>2019-11-01T15:25:50.001Z</time>
      </trkpt>
      <trkpt lat="45.45923" lon="0.79777">
        <ele>206.395</ele>
        <time>2019-11-01T15:26:23.001Z</time>
      </trkpt>
      <trkpt lat="45.45991" lon="0.79672">
        <ele>202.227</ele>
        <time>2019-11-01T15:26:53.001Z</time>
      </trkpt>
      <trkpt lat="45.46065" lon="0.79563">
        <ele>199.721</ele>
        <time>2019-11-01T15:27:26.001Z</time>
      </trkpt>
      <trkpt lat="45.46124" lon="0.79469">
        <ele>197.333</ele>
        <time>2019-11-01T15:27:56.001Z</time>
      </trkpt>
      <trkpt lat="45.46201" lon="0.79346">
        <ele>200.133</ele>
        <time>2019-11-01T15:28:29.001Z</time>
      </trkpt>
      <trkpt lat="45.46279" lon="0.79222">
        <ele>200.919</ele>
        <time>2019-11-01T15:28:59.001Z</time>
      </trkpt>
      <trkpt lat="45.4635" lon="0.79114">
        <ele>198.4</ele>
        <time>2019-11-01T15:29:29.001Z</time>
      </trkpt>
      <trkpt lat="45.46469" lon="0.78961">
        <ele>201.311</ele>
        <time>2019-11-01T15:30:02Z</time>
      </trkpt>
      <trkpt lat="45.46592" lon="0.78873">
        <ele>200.879</ele>
        <time>2019-11-01T15:30:32.001Z</time>
      </trkpt>
      <trkpt lat="45.46722" lon="0.78791">
        <ele>203.233</ele>
        <time>2019-11-01T15:31:05.001Z</time>
      </trkpt>
      <trkpt lat="45.46799" lon="0.78739">
        <ele>206.091</ele>
        <time>2019-11-01T15:33:59.001Z</time>
      </trkpt>
      <trkpt lat="45.46888" lon="0.7868">
        <ele>209.465</ele>
        <time>2019-11-01T15:34:32.001Z</time>
      </trkpt>
      <trkpt lat="45.47001" lon="0.78604">
        <ele>205.473</ele>
        <time>2019-11-01T15:35:02Z</time>
      </trkpt>
      <trkpt lat="45.47084" lon="0.78553">
        <ele>201.987</ele>
        <time>2019-11-01T15:35:41.001Z</time>
      </trkpt>
      <trkpt lat="45.47144" lon="0.78518">
        <ele>200.061</ele>
        <time>2019-11-01T15:36:14.001Z</time>
      </trkpt>
      <trkpt lat="45.47256" lon="0.78445">
        <ele>204.146</ele>
        <time>2019-11-01T15:36:47.001Z</time>
      </trkpt>
      <trkpt lat="45.47356" lon="0.78377">
        <ele>209.034</ele>
        <time>2019-11-01T15:37:17.001Z</time>
      </trkpt>
      <trkpt lat="45.47425" lon="0.78331">
        <ele>202.61</ele>
        <time>2019-11-01T15:37:47.001Z</time>
      </trkpt>
      <trkpt lat="45.47475" lon="0.78289">
        <ele>201.596</ele>
        <time>2019-11-01T15:40:05.001Z</time>
      </trkpt>
      <trkpt lat="45.47542" lon="0.78214">
        <ele>210.386</ele>
        <time>2019-11-01T15:40:35.001Z</time>
      </trkpt>
      <trkpt lat="45.47616" lon="0.78138">
        <ele>210.66</ele>
        <time>2019-11-01T15:41:08.001Z</time>
      </trkpt>
      <trkpt lat="45.4768" lon="0.78076">
        <ele>211.319</ele>
        <time>2019-11-01T15:41:38.001Z</time>
      </trkpt>
      <trkpt lat="45.47764" lon="0.78016">
        <ele>215.753</ele>
        <time>2019-11-01T15:42:11.001Z</time>
      </trkpt>
      <trkpt lat="45.47856" lon="0.77985">
        <ele>219.492</ele>
        <time>2019-11-01T15:42:41.001Z</time>
      </trkpt>
      <trkpt lat="45.47984" lon="0.77952">
        <ele>220.089</ele>
        <time>2019-11-01T15:43:14.001Z</time>
      </trkpt>
      <trkpt lat="45.48138" lon="0.77911">
        <ele>223.59</ele>
        <time>2019-11-01T15:43:44.001Z</time>
      </trkpt>
      <trkpt lat="45.48334" lon="0.77866">
        <ele>209.02</ele>
        <time>2019-11-01T15:44:17.001Z</time>
      </trkpt>
      <trkpt lat="45.48508" lon="0.77828">
        <ele>198.69</ele>
        <time>2019-11-01T15:44:47.001Z</time>
      </trkpt>
      <trkpt lat="45.48676" lon="0.77739">
        <ele>196.749</ele>
        <time>2019-11-01T15:45:17.001Z</time>
      </trkpt>
      <trkpt lat="45.48771" lon="0.77631">
        <ele>188.277</ele>
        <time>2019-11-01T15:45:50.001Z</time>
      </trkpt>
      <trkpt lat="45.48856" lon="0.77439">
        <ele>187.459</ele>
        <time>2019-11-01T15:46:20.001Z</time>
      </trkpt>
      <trkpt lat="45.48914" lon="0.77192">
        <ele>189.667</ele>
        <time>2019-11-01T15:46:53.001Z</time>
      </trkpt>
      <trkpt lat="45.4893" lon="0.7695">
        <ele>192.19</ele>
        <time>2019-11-01T15:47:23.001Z</time>
      </trkpt>
      <trkpt lat="45.48934" lon="0.76658">
        <ele>192.411</ele>
        <time>2019-11-01T15:47:56.001Z</time>
      </trkpt>
      <trkpt lat="45.48945" lon="0.76413">
        <ele>180.192</ele>
        <time>2019-11-01T15:48:26.001Z</time>
      </trkpt>
      <trkpt lat="45.48983" lon="0.76141">
        <ele>184.798</ele>
        <time>2019-11-01T15:48:59.001Z</time>
      </trkpt>
      <trkpt lat="45.49012" lon="0.75906">
        <ele>182.147</ele>
        <time>2019-11-01T15:49:29.001Z</time>
      </trkpt>
      <trkpt lat="45.49053" lon="0.75621">
        <ele>176.656</ele>
        <time>2019-11-01T15:50:02Z</time>
      </trkpt>
      <trkpt lat="45.4904" lon="0.75393">
        <ele>170.503</ele>
        <time>2019-11-01T15:50:32.001Z</time>
      </trkpt>
      <trkpt lat="45.49029" lon="0.75115">
        <ele>164.369</ele>
        <time>2019-11-01T15:51:02Z</time>
      </trkpt>
      <trkpt lat="45.49062" lon="0.74886">
        <ele>158.07</ele>
        <time>2019-11-01T15:51:35.001Z</time>
      </trkpt>
      <trkpt lat="45.4915" lon="0.74667">
        <ele>153.313</ele>
        <time>2019-11-01T15:52:05.001Z</time>
      </trkpt>
      <trkpt lat="45.492" lon="0.74472">
        <ele>154.127</ele>
        <time>2019-11-01T15:52:38.001Z</time>
      </trkpt>
      <trkpt lat="45.49201" lon="0.74273">
        <ele>158.011</ele>
        <time>2019-11-01T15:53:08.001Z</time>
      </trkpt>
      <trkpt lat="45.49145" lon="0.74161">
        <ele>152.439</ele>
        <time>2019-11-01T15:53:41.001Z</time>
      </trkpt>
      <trkpt lat="45.49136" lon="0.74137">
        <ele>161.434</ele>
        <time>2019-11-01T15:56:44.001Z</time>
      </trkpt>
      <trkpt lat="45.49214" lon="0.74262">
        <ele>159.278</ele>
        <time>2019-11-01T15:57:17.001Z</time>
      </trkpt>
      <trkpt lat="45.49301" lon="0.7438">
        <ele>153.711</ele>
        <time>2019-11-01T15:57:47.001Z</time>
      </trkpt>
      <trkpt lat="45.49305" lon="0.74238">
        <ele>154.043</ele>
        <time>2019-11-01T15:58:20.001Z</time>
      </trkpt>
      <trkpt lat="45.49286" lon="0.74136">
        <ele>155.198</ele>
        <time>2019-11-01T15:58:50.001Z</time>
      </trkpt>
      <trkpt lat="45.49323" lon="0.74057">
        <ele>163.787</ele>
        <time>2019-11-01T15:59:20.001Z</time>
      </trkpt>
      <trkpt lat="45.49356" lon="0.73959">
        <ele>162.464</ele>
        <time>2019-11-01T15:59:53.001Z</time>
      </trkpt>
      <trkpt lat="45.49342" lon="0.73851">
        <ele>168.999</ele>
        <time>2019-11-01T16:00:23.001Z</time>
      </trkpt>
      <trkpt lat="45.49349" lon="0.73734">
        <ele>171.361</ele>
        <time>2019-11-01T16:00:56.001Z</time>
      </trkpt>
      <trkpt lat="45.4938" lon="0.73564">
        <ele>167.22</ele>
        <time>2019-11-01T16:01:26.001Z</time>
      </trkpt>
      <trkpt lat="45.49376" lon="0.73386">
        <ele>169.302</ele>
        <time>2019-11-01T16:01:59.001Z</time>
      </trkpt>
      <trkpt lat="45.49389" lon="0.73288">
        <ele>175.678</ele>
        <time>2019-11-01T16:02:29.001Z</time>
      </trkpt>
      <trkpt lat="45.49385" lon="0.73171">
        <ele>179.827</ele>
        <time>2019-11-01T16:03:02Z</time>
      </trkpt>
      <trkpt lat="45.49434" lon="0.73102">
        <ele>181.505</ele>
        <time>2019-11-01T16:03:32.001Z</time>
      </trkpt>
      <trkpt lat="45.49587" lon="0.72905">
        <ele>165.458</ele>
        <time>2019-11-01T16:04:05.001Z</time>
      </trkpt>
      <trkpt lat="45.49531" lon="0.72768">
        <ele>175.697</ele>
        <time>2019-11-01T16:04:35.001Z</time>
      </trkpt>
      <trkpt lat="45.49434" lon="0.72639">
        <ele>171.514</ele>
        <time>2019-11-01T16:05:05.001Z</time>
      </trkpt>
      <trkpt lat="45.49435" lon="0.72419">
        <ele>166.066</ele>
        <time>2019-11-01T16:05:38.001Z</time>
      </trkpt>
      <trkpt lat="45.49446" lon="0.72205">
        <ele>167.522</ele>
        <time>2019-11-01T16:06:08.001Z</time>
      </trkpt>
      <trkpt lat="45.49442" lon="0.71796">
        <ele>152.928</ele>
        <time>2019-11-01T16:06:41.001Z</time>
      </trkpt>
      <trkpt lat="45.49387" lon="0.71567">
        <ele>148.415</ele>
        <time>2019-11-01T16:07:11.001Z</time>
      </trkpt>
      <trkpt lat="45.49383" lon="0.71368">
        <ele>149.232</ele>
        <time>2019-11-01T16:07:44.001Z</time>
      </trkpt>
      <trkpt lat="45.49395" lon="0.71249">
        <ele>151.487</ele>
        <time>2019-11-01T16:08:14.001Z</time>
      </trkpt>
      <trkpt lat="45.49401" lon="0.71155">
        <ele>162.795</ele>
        <time>2019-11-01T16:08:50.001Z</time>
      </trkpt>
      <trkpt lat="45.49413" lon="0.7108">
        <ele>171.755</ele>
        <time>2019-11-01T16:09:20.001Z</time>
      </trkpt>
      <trkpt lat="45.49439" lon="0.7099">
        <ele>172.715</ele>
        <time>2019-11-01T16:09:53.001Z</time>
      </trkpt>
      <trkpt lat="45.49451" lon="0.70899">
        <ele>178.995</ele>
        <time>2019-11-01T16:10:23.001Z</time>
      </trkpt>
      <trkpt lat="45.49466" lon="0.70783">
        <ele>180.61</ele>
        <time>2019-11-01T16:10:53.001Z</time>
      </trkpt>
      <trkpt lat="45.49475" lon="0.70652">
        <ele>182.529</ele>
        <time>2019-11-01T16:11:26.001Z</time>
      </trkpt>
      <trkpt lat="45.49479" lon="0.70552">
        <ele>186.435</ele>
        <time>2019-11-01T16:11:56.001Z</time>
      </trkpt>
      <trkpt lat="45.49478" lon="0.70455">
        <ele>199.038</ele>
        <time>2019-11-01T16:12:29.001Z</time>
      </trkpt>
      <trkpt lat="45.49497" lon="0.70362">
        <ele>201.229</ele>
        <time>2019-11-01T16:12:59.001Z</time>
      </trkpt>
      <trkpt lat="45.49536" lon="0.70287">
        <ele>203.563</ele>
        <time>2019-11-01T16:13:32.001Z</time>
      </trkpt>
      <trkpt lat="45.49546" lon="0.70211">
        <ele>213.621</ele>
        <time>2019-11-01T16:14:02Z</time>
      </trkpt>
      <trkpt lat="45.49555" lon="0.70055">
        <ele>202.4</ele>
        <time>2019-11-01T16:14:35.001Z</time>
      </trkpt>
      <trkpt lat="45.49555" lon="0.69883">
        <ele>190.317</ele>
        <time>2019-11-01T16:15:05.001Z</time>
      </trkpt>
      <trkpt lat="45.49656" lon="0.69646">
        <ele>185.704</ele>
        <time>2019-11-01T16:15:38.001Z</time>
      </trkpt>
      <trkpt lat="45.49755" lon="0.69386">
        <ele>179.712</ele>
        <time>2019-11-01T16:16:08.001Z</time>
      </trkpt>
      <trkpt lat="45.49798" lon="0.69215">
        <ele>179.63</ele>
        <time>2019-11-01T16:16:38.001Z</time>
      </trkpt>
      <trkpt lat="45.49861" lon="0.69221">
        <ele>191.958</ele>
        <time>2019-11-01T16:17:20.001Z</time>
      </trkpt>
      <trkpt lat="45.49912" lon="0.69201">
        <ele>203.365</ele>
        <time>2019-11-01T16:17:56.001Z</time>
      </trkpt>
      <trkpt lat="45.49899" lon="0.69092">
        <ele>212.792</ele>
        <time>2019-11-01T16:18:29.001Z</time>
      </trkpt>
      <trkpt lat="45.49849" lon="0.68996">
        <ele>220.556</ele>
        <time>2019-11-01T16:18:59.001Z</time>
      </trkpt>
      <trkpt lat="45.49772" lon="0.68846">
        <ele>228.875</ele>
        <time>2019-11-01T16:19:32.001Z</time>
      </trkpt>
      <trkpt lat="45.49703" lon="0.68722">
        <ele>205.126</ele>
        <time>2019-11-01T16:20:02Z</time>
      </trkpt>
      <trkpt lat="45.49664" lon="0.68641">
        <ele>211.508</ele>
        <time>2019-11-01T16:20:35.001Z</time>
      </trkpt>
      <trkpt lat="45.49618" lon="0.68593">
        <ele>212.322</ele>
        <time>2019-11-01T16:21:05.001Z</time>
      </trkpt>
      <trkpt lat="45.49562" lon="0.68541">
        <ele>214.962</ele>
        <time>2019-11-01T16:21:38.001Z</time>
      </trkpt>
      <trkpt lat="45.49521" lon="0.68489">
        <ele>220.97</ele>
        <time>2019-11-01T16:22:08.001Z</time>
      </trkpt>
      <trkpt lat="45.49504" lon="0.68414">
        <ele>226.443</ele>
        <time>2019-11-01T16:22:41.001Z</time>
      </trkpt>
      <trkpt lat="45.49486" lon="0.68325">
        <ele>229.849</ele>
        <time>2019-11-01T16:23:14.002Z</time>
      </trkpt>
      <trkpt lat="45.49453" lon="0.6826">
        <ele>232.569</ele>
        <time>2019-11-01T16:23:44.001Z</time>
      </trkpt>
      <trkpt lat="45.49404" lon="0.6818">
        <ele>236.658</ele>
        <time>2019-11-01T16:24:17.001Z</time>
      </trkpt>
      <trkpt lat="45.49366" lon="0.68034">
        <ele>245.66</ele>
        <time>2019-11-01T16:24:47.001Z</time>
      </trkpt>
      <trkpt lat="45.49402" lon="0.67753">
        <ele>227.78</ele>
        <time>2019-11-01T16:25:20.001Z</time>
      </trkpt>
      <trkpt lat="45.494" lon="0.67598">
        <ele>222.22</ele>
        <time>2019-11-01T16:25:50.001Z</time>
      </trkpt>
      <trkpt lat="45.49419" lon="0.67435">
        <ele>223.61</ele>
        <time>2019-11-01T16:26:23.001Z</time>
      </trkpt>
      <trkpt lat="45.49455" lon="0.67251">
        <ele>236.49</ele>
        <time>2019-11-01T16:26:53.001Z</time>
      </trkpt>
      <trkpt lat="45.49544" lon="0.67103">
        <ele>241.149</ele>
        <time>2019-11-01T16:27:26.001Z</time>
      </trkpt>
      <trkpt lat="45.49664" lon="0.66958">
        <ele>231.722</ele>
        <time>2019-11-01T16:27:56.001Z</time>
      </trkpt>
      <trkpt lat="45.49738" lon="0.66854">
        <ele>223.476</ele>
        <time>2019-11-01T16:28:26.001Z</time>
      </trkpt>
      <trkpt lat="45.49781" lon="0.66735">
        <ele>237.505</ele>
        <time>2019-11-01T16:28:59.001Z</time>
      </trkpt>
      <trkpt lat="45.49856" lon="0.66625">
        <ele>252.13</ele>
        <time>2019-11-01T16:29:29.001Z</time>
      </trkpt>
      <trkpt lat="45.49957" lon="0.66527">
        <ele>250.194</ele>
        <time>2019-11-01T16:30:02Z</time>
      </trkpt>
      <trkpt lat="45.50041" lon="0.6645">
        <ele>240.333</ele>
        <time>2019-11-01T16:30:32.001Z</time>
      </trkpt>
      <trkpt lat="45.50131" lon="0.66508">
        <ele>242.873</ele>
        <time>2019-11-01T16:31:05.001Z</time>
      </trkpt>
      <trkpt lat="45.50202" lon="0.666">
        <ele>244.425</ele>
        <time>2019-11-01T16:31:35.001Z</time>
      </trkpt>
      <trkpt lat="45.50274" lon="0.66687">
        <ele>252.571</ele>
        <time>2019-11-01T16:32:08.001Z</time>
      </trkpt>
      <trkpt lat="45.50342" lon="0.66747">
        <ele>249.238</ele>
        <time>2019-11-01T16:32:38.001Z</time>
      </trkpt>
      <trkpt lat="45.50433" lon="0.66722">
        <ele>255.372</ele>
        <time>2019-11-01T16:33:11.001Z</time>
      </trkpt>
      <trkpt lat="45.50571" lon="0.6665">
        <ele>255.764</ele>
        <time>2019-11-01T16:33:41.001Z</time>
      </trkpt>
      <trkpt lat="45.50744" lon="0.66814">
        <ele>244.047</ele>
        <time>2019-11-01T16:34:11.001Z</time>
      </trkpt>
      <trkpt lat="45.50944" lon="0.66954">
        <ele>246.183</ele>
        <time>2019-11-01T16:34:44.001Z</time>
      </trkpt>
      <trkpt lat="45.51154" lon="0.67031">
        <ele>242.526</ele>
        <time>2019-11-01T16:35:14.001Z</time>
      </trkpt>
      <trkpt lat="45.51449" lon="0.67013">
        <ele>221.938</ele>
        <time>2019-11-01T16:35:47.001Z</time>
      </trkpt>
      <trkpt lat="45.51737" lon="0.66792">
        <ele>205.772</ele>
        <time>2019-11-01T16:36:17.001Z</time>
      </trkpt>
      <trkpt lat="45.51998" lon="0.66537">
        <ele>185.887</ele>
        <time>2019-11-01T16:36:50.001Z</time>
      </trkpt>
      <trkpt lat="45.52281" lon="0.6644">
        <ele>175.697</ele>
        <time>2019-11-01T16:37:20.001Z</time>
      </trkpt>
      <trkpt lat="45.52467" lon="0.6618">
        <ele>160.739</ele>
        <time>2019-11-01T16:37:53.001Z</time>
      </trkpt>
      <trkpt lat="45.5248" lon="0.66004">
        <ele>166.341</ele>
        <time>2019-11-01T16:38:23.001Z</time>
      </trkpt>
      <trkpt lat="45.52536" lon="0.6592">
        <ele>179.662</ele>
        <time>2019-11-01T16:38:56.001Z</time>
      </trkpt>
      <trkpt lat="45.52599" lon="0.65939">
        <ele>192.155</ele>
        <time>2019-11-01T16:39:26.001Z</time>
      </trkpt>
      <trkpt lat="45.52642" lon="0.66002">
        <ele>191.907</ele>
        <time>2019-11-01T16:40:02Z</time>
      </trkpt>
      <trkpt lat="45.52699" lon="0.66017">
        <ele>200.987</ele>
        <time>2019-11-01T16:40:38.001Z</time>
      </trkpt>
      <trkpt lat="45.52761" lon="0.66026">
        <ele>212.389</ele>
        <time>2019-11-01T16:41:11.001Z</time>
      </trkpt>
      <trkpt lat="45.52823" lon="0.66047">
        <ele>215.373</ele>
        <time>2019-11-01T16:41:44.001Z</time>
      </trkpt>
      <trkpt lat="45.5279" lon="0.66062">
        <ele>210.428</ele>
        <time>2019-11-01T16:42:17.001Z</time>
      </trkpt>
      <trkpt lat="45.52762" lon="0.66089">
        <ele>207.046</ele>
        <time>2019-11-01T16:42:53.001Z</time>
      </trkpt>
      <trkpt lat="45.52818" lon="0.6613">
        <ele>210.831</ele>
        <time>2019-11-01T16:43:23.001Z</time>
      </trkpt>
      <trkpt lat="45.52843" lon="0.66161">
        <ele>217.974</ele>
        <time>2019-11-01T16:45:38.001Z</time>
      </trkpt>
      <trkpt lat="45.52879" lon="0.66207">
        <ele>231.016</ele>
        <time>2019-11-01T16:46:26.001Z</time>
      </trkpt>
      <trkpt lat="45.52912" lon="0.66221">
        <ele>237.536</ele>
        <time>2019-11-01T16:49:17.001Z</time>
      </trkpt>
      <trkpt lat="45.52937" lon="0.66223">
        <ele>240.544</ele>
        <time>2019-11-01T16:51:20.001Z</time>
      </trkpt>
      <trkpt lat="45.52944" lon="0.66227">
        <ele>224.355</ele>
        <time>2019-11-01T16:52:38.001Z</time>
      </trkpt>
      <trkpt lat="45.5298" lon="0.66238">
        <ele>230.605</ele>
        <time>2019-11-01T16:53:32.001Z</time>
      </trkpt>
      <trkpt lat="45.52984" lon="0.66279">
        <ele>294.421</ele>
        <time>2019-11-01T17:00:28Z</time>
      </trkpt>
      <trkpt lat="45.5297" lon="0.66247">
        <ele>235.316</ele>
        <time>2019-11-01T17:01:13Z</time>
      </trkpt>
    </trkseg>
  </trk>
  <trk>
    <name><![CDATA[Tracé 20191102-080648]]></name>
    <trkseg>
      <trkpt lat="45.52923" lon="0.6622">
        <ele>224.158</ele>
        <time>2019-11-02T07:13:17Z</time>
      </trkpt>
      <trkpt lat="45.52834" lon="0.66146">
        <ele>224.592</ele>
        <time>2019-11-02T07:13:47Z</time>
      </trkpt>
      <trkpt lat="45.52687" lon="0.66059">
        <ele>206.461</ele>
        <time>2019-11-02T07:14:17Z</time>
      </trkpt>
      <trkpt lat="45.52524" lon="0.66001">
        <ele>191.864</ele>
        <time>2019-11-02T07:14:47Z</time>
      </trkpt>
      <trkpt lat="45.52405" lon="0.66043">
        <ele>182.998</ele>
        <time>2019-11-02T07:15:17Z</time>
      </trkpt>
      <trkpt lat="45.52224" lon="0.66016">
        <ele>182.075</ele>
        <time>2019-11-02T07:15:47Z</time>
      </trkpt>
      <trkpt lat="45.52082" lon="0.65784">
        <ele>172.153</ele>
        <time>2019-11-02T07:16:17Z</time>
      </trkpt>
      <trkpt lat="45.51939" lon="0.65438">
        <ele>160.722</ele>
        <time>2019-11-02T07:16:50Z</time>
      </trkpt>
      <trkpt lat="45.51877" lon="0.65195">
        <ele>147.183</ele>
        <time>2019-11-02T07:17:20Z</time>
      </trkpt>
      <trkpt lat="45.52003" lon="0.65181">
        <ele>146.557</ele>
        <time>2019-11-02T07:17:50Z</time>
      </trkpt>
      <trkpt lat="45.52192" lon="0.65067">
        <ele>159.018</ele>
        <time>2019-11-02T07:18:20Z</time>
      </trkpt>
      <trkpt lat="45.5238" lon="0.64968">
        <ele>167.125</ele>
        <time>2019-11-02T07:18:50Z</time>
      </trkpt>
      <trkpt lat="45.52501" lon="0.64796">
        <ele>147.048</ele>
        <time>2019-11-02T07:19:20Z</time>
      </trkpt>
      <trkpt lat="45.52581" lon="0.64608">
        <ele>139.629</ele>
        <time>2019-11-02T07:19:50Z</time>
      </trkpt>
      <trkpt lat="45.52688" lon="0.64438">
        <ele>143.638</ele>
        <time>2019-11-02T07:20:20Z</time>
      </trkpt>
      <trkpt lat="45.52853" lon="0.6435">
        <ele>146.904</ele>
        <time>2019-11-02T07:20:50Z</time>
      </trkpt>
      <trkpt lat="45.52963" lon="0.64155">
        <ele>150.399</ele>
        <time>2019-11-02T07:21:20Z</time>
      </trkpt>
      <trkpt lat="45.5301" lon="0.6394">
        <ele>152.924</ele>
        <time>2019-11-02T07:21:50Z</time>
      </trkpt>
      <trkpt lat="45.5296" lon="0.63747">
        <ele>153.599</ele>
        <time>2019-11-02T07:22:20Z</time>
      </trkpt>
      <trkpt lat="45.52915" lon="0.63577">
        <ele>154.641</ele>
        <time>2019-11-02T07:22:50Z</time>
      </trkpt>
      <trkpt lat="45.53005" lon="0.63259">
        <ele>135.583</ele>
        <time>2019-11-02T07:23:23Z</time>
      </trkpt>
      <trkpt lat="45.53117" lon="0.63007">
        <ele>133.64</ele>
        <time>2019-11-02T07:23:53Z</time>
      </trkpt>
      <trkpt lat="45.53189" lon="0.62762">
        <ele>139.557</ele>
        <time>2019-11-02T07:24:23Z</time>
      </trkpt>
      <trkpt lat="45.53311" lon="0.62572">
        <ele>136.763</ele>
        <time>2019-11-02T07:24:53Z</time>
      </trkpt>
      <trkpt lat="45.534" lon="0.62342">
        <ele>129.801</ele>
        <time>2019-11-02T07:25:23Z</time>
      </trkpt>
      <trkpt lat="45.53471" lon="0.62104">
        <ele>140.828</ele>
        <time>2019-11-02T07:25:53Z</time>
      </trkpt>
      <trkpt lat="45.53477" lon="0.61834">
        <ele>138.614</ele>
        <time>2019-11-02T07:26:23Z</time>
      </trkpt>
      <trkpt lat="45.53541" lon="0.61598">
        <ele>132.62</ele>
        <time>2019-11-02T07:26:53Z</time>
      </trkpt>
      <trkpt lat="45.53663" lon="0.61419">
        <ele>130.042</ele>
        <time>2019-11-02T07:27:23Z</time>
      </trkpt>
      <trkpt lat="45.5382" lon="0.61303">
        <ele>130.234</ele>
        <time>2019-11-02T07:27:53Z</time>
      </trkpt>
      <trkpt lat="45.53953" lon="0.6116">
        <ele>139.514</ele>
        <time>2019-11-02T07:28:23Z</time>
      </trkpt>
      <trkpt lat="45.54055" lon="0.60997">
        <ele>154.048</ele>
        <time>2019-11-02T07:28:53Z</time>
      </trkpt>
      <trkpt lat="45.54098" lon="0.6078">
        <ele>172.796</ele>
        <time>2019-11-02T07:29:23Z</time>
      </trkpt>
      <trkpt lat="45.54057" lon="0.6051">
        <ele>165.27</ele>
        <time>2019-11-02T07:29:56Z</time>
      </trkpt>
      <trkpt lat="45.54106" lon="0.60344">
        <ele>136.612</ele>
        <time>2019-11-02T07:30:26Z</time>
      </trkpt>
      <trkpt lat="45.54178" lon="0.60201">
        <ele>142.231</ele>
        <time>2019-11-02T07:30:56Z</time>
      </trkpt>
      <trkpt lat="45.54286" lon="0.60044">
        <ele>139.918</ele>
        <time>2019-11-02T07:31:26Z</time>
      </trkpt>
      <trkpt lat="45.54392" lon="0.59888">
        <ele>139.624</ele>
        <time>2019-11-02T07:31:56Z</time>
      </trkpt>
      <trkpt lat="45.54494" lon="0.59737">
        <ele>137.15</ele>
        <time>2019-11-02T07:32:26Z</time>
      </trkpt>
      <trkpt lat="45.54602" lon="0.59578">
        <ele>134.455</ele>
        <time>2019-11-02T07:32:56Z</time>
      </trkpt>
      <trkpt lat="45.5469" lon="0.59388">
        <ele>133.968</ele>
        <time>2019-11-02T07:33:26Z</time>
      </trkpt>
      <trkpt lat="45.54744" lon="0.59168">
        <ele>135.837</ele>
        <time>2019-11-02T07:33:56Z</time>
      </trkpt>
      <trkpt lat="45.54826" lon="0.58947">
        <ele>129.867</ele>
        <time>2019-11-02T07:34:26Z</time>
      </trkpt>
      <trkpt lat="45.5499" lon="0.58809">
        <ele>129.684</ele>
        <time>2019-11-02T07:34:56Z</time>
      </trkpt>
      <trkpt lat="45.55158" lon="0.58591">
        <ele>125.99</ele>
        <time>2019-11-02T07:35:26Z</time>
      </trkpt>
      <trkpt lat="45.55185" lon="0.5834">
        <ele>132.291</ele>
        <time>2019-11-02T07:35:56Z</time>
      </trkpt>
      <trkpt lat="45.55204" lon="0.58177">
        <ele>128.425</ele>
        <time>2019-11-02T07:36:26Z</time>
      </trkpt>
      <trkpt lat="45.55256" lon="0.58002">
        <ele>129.973</ele>
        <time>2019-11-02T07:36:59Z</time>
      </trkpt>
      <trkpt lat="45.55315" lon="0.57813">
        <ele>128.179</ele>
        <time>2019-11-02T07:37:29Z</time>
      </trkpt>
      <trkpt lat="45.55382" lon="0.5761">
        <ele>130.67</ele>
        <time>2019-11-02T07:37:59Z</time>
      </trkpt>
      <trkpt lat="45.5546" lon="0.57414">
        <ele>135.041</ele>
        <time>2019-11-02T07:38:29Z</time>
      </trkpt>
      <trkpt lat="45.55598" lon="0.5728">
        <ele>134.919</ele>
        <time>2019-11-02T07:38:59Z</time>
      </trkpt>
      <trkpt lat="45.55776" lon="0.57291">
        <ele>130.375</ele>
        <time>2019-11-02T07:39:29Z</time>
      </trkpt>
      <trkpt lat="45.55956" lon="0.57315">
        <ele>127.009</ele>
        <time>2019-11-02T07:39:59Z</time>
      </trkpt>
      <trkpt lat="45.56087" lon="0.57252">
        <ele>134.515</ele>
        <time>2019-11-02T07:40:29Z</time>
      </trkpt>
      <trkpt lat="45.5623" lon="0.57184">
        <ele>141.417</ele>
        <time>2019-11-02T07:40:59Z</time>
      </trkpt>
      <trkpt lat="45.56398" lon="0.57051">
        <ele>134.86</ele>
        <time>2019-11-02T07:41:29Z</time>
      </trkpt>
      <trkpt lat="45.56511" lon="0.56881">
        <ele>138.271</ele>
        <time>2019-11-02T07:41:59Z</time>
      </trkpt>
      <trkpt lat="45.56575" lon="0.56659">
        <ele>139.83</ele>
        <time>2019-11-02T07:42:29Z</time>
      </trkpt>
      <trkpt lat="45.56622" lon="0.5643">
        <ele>128.828</ele>
        <time>2019-11-02T07:42:59Z</time>
      </trkpt>
      <trkpt lat="45.56749" lon="0.56229">
        <ele>124.06</ele>
        <time>2019-11-02T07:43:32Z</time>
      </trkpt>
      <trkpt lat="45.56887" lon="0.56065">
        <ele>118.706</ele>
        <time>2019-11-02T07:44:02Z</time>
      </trkpt>
      <trkpt lat="45.57012" lon="0.55913">
        <ele>124.162</ele>
        <time>2019-11-02T07:44:32Z</time>
      </trkpt>
      <trkpt lat="45.57146" lon="0.55774">
        <ele>123.047</ele>
        <time>2019-11-02T07:45:02Z</time>
      </trkpt>
      <trkpt lat="45.5725" lon="0.55634">
        <ele>133.292</ele>
        <time>2019-11-02T07:45:32Z</time>
      </trkpt>
      <trkpt lat="45.57362" lon="0.55497">
        <ele>133.856</ele>
        <time>2019-11-02T07:46:02Z</time>
      </trkpt>
      <trkpt lat="45.57487" lon="0.5536">
        <ele>129.969</ele>
        <time>2019-11-02T07:46:32Z</time>
      </trkpt>
      <trkpt lat="45.57577" lon="0.55177">
        <ele>122.067</ele>
        <time>2019-11-02T07:47:02Z</time>
      </trkpt>
      <trkpt lat="45.57663" lon="0.54959">
        <ele>120.274</ele>
        <time>2019-11-02T07:47:32Z</time>
      </trkpt>
      <trkpt lat="45.57729" lon="0.54684">
        <ele>119.913</ele>
        <time>2019-11-02T07:48:02Z</time>
      </trkpt>
      <trkpt lat="45.57835" lon="0.54491">
        <ele>118.585</ele>
        <time>2019-11-02T07:48:32Z</time>
      </trkpt>
      <trkpt lat="45.57963" lon="0.5432">
        <ele>122.919</ele>
        <time>2019-11-02T07:49:02Z</time>
      </trkpt>
      <trkpt lat="45.58113" lon="0.54218">
        <ele>127.554</ele>
        <time>2019-11-02T07:49:32Z</time>
      </trkpt>
      <trkpt lat="45.58261" lon="0.5407">
        <ele>120.987</ele>
        <time>2019-11-02T07:50:05Z</time>
      </trkpt>
      <trkpt lat="45.58324" lon="0.53862">
        <ele>132.27</ele>
        <time>2019-11-02T07:50:35Z</time>
      </trkpt>
      <trkpt lat="45.58384" lon="0.53622">
        <ele>145.145</ele>
        <time>2019-11-02T07:51:05Z</time>
      </trkpt>
      <trkpt lat="45.58415" lon="0.53363">
        <ele>130.179</ele>
        <time>2019-11-02T07:51:35Z</time>
      </trkpt>
      <trkpt lat="45.58485" lon="0.53163">
        <ele>122.463</ele>
        <time>2019-11-02T07:52:05Z</time>
      </trkpt>
      <trkpt lat="45.58569" lon="0.52954">
        <ele>123.159</ele>
        <time>2019-11-02T07:52:35Z</time>
      </trkpt>
      <trkpt lat="45.58679" lon="0.52807">
        <ele>119.902</ele>
        <time>2019-11-02T07:53:05Z</time>
      </trkpt>
      <trkpt lat="45.58795" lon="0.52653">
        <ele>120.872</ele>
        <time>2019-11-02T07:53:35Z</time>
      </trkpt>
      <trkpt lat="45.5887" lon="0.52441">
        <ele>115.35</ele>
        <time>2019-11-02T07:54:05Z</time>
      </trkpt>
      <trkpt lat="45.58925" lon="0.52222">
        <ele>115.744</ele>
        <time>2019-11-02T07:54:35Z</time>
      </trkpt>
      <trkpt lat="45.58924" lon="0.51987">
        <ele>119.141</ele>
        <time>2019-11-02T07:55:05Z</time>
      </trkpt>
      <trkpt lat="45.58989" lon="0.51799">
        <ele>118.626</ele>
        <time>2019-11-02T07:55:35Z</time>
      </trkpt>
      <trkpt lat="45.59091" lon="0.51659">
        <ele>117.997</ele>
        <time>2019-11-02T07:56:05Z</time>
      </trkpt>
      <trkpt lat="45.59194" lon="0.51523">
        <ele>119.042</ele>
        <time>2019-11-02T07:56:35Z</time>
      </trkpt>
      <trkpt lat="45.59299" lon="0.51379">
        <ele>118.126</ele>
        <time>2019-11-02T07:57:08Z</time>
      </trkpt>
      <trkpt lat="45.59394" lon="0.51253">
        <ele>122.896</ele>
        <time>2019-11-02T07:57:38Z</time>
      </trkpt>
      <trkpt lat="45.59509" lon="0.51098">
        <ele>120.123</ele>
        <time>2019-11-02T07:58:08Z</time>
      </trkpt>
      <trkpt lat="45.59605" lon="0.50972">
        <ele>116.723</ele>
        <time>2019-11-02T07:58:38Z</time>
      </trkpt>
      <trkpt lat="45.59683" lon="0.50824">
        <ele>118.195</ele>
        <time>2019-11-02T07:59:08Z</time>
      </trkpt>
      <trkpt lat="45.5975" lon="0.50646">
        <ele>118.215</ele>
        <time>2019-11-02T07:59:38Z</time>
      </trkpt>
      <trkpt lat="45.59814" lon="0.50471">
        <ele>117.333</ele>
        <time>2019-11-02T08:00:08Z</time>
      </trkpt>
      <trkpt lat="45.59873" lon="0.50312">
        <ele>117.497</ele>
        <time>2019-11-02T08:00:38Z</time>
      </trkpt>
      <trkpt lat="45.59931" lon="0.50159">
        <ele>120.31</ele>
        <time>2019-11-02T08:01:08Z</time>
      </trkpt>
      <trkpt lat="45.60003" lon="0.49968">
        <ele>117.904</ele>
        <time>2019-11-02T08:01:38Z</time>
      </trkpt>
      <trkpt lat="45.60062" lon="0.49846">
        <ele>116.468</ele>
        <time>2019-11-02T08:02:14Z</time>
      </trkpt>
      <trkpt lat="45.60108" lon="0.49723">
        <ele>127.38</ele>
        <time>2019-11-02T08:02:44Z</time>
      </trkpt>
      <trkpt lat="45.60165" lon="0.49577">
        <ele>132.748</ele>
        <time>2019-11-02T08:03:14Z</time>
      </trkpt>
      <trkpt lat="45.60246" lon="0.49394">
        <ele>128.676</ele>
        <time>2019-11-02T08:03:47Z</time>
      </trkpt>
      <trkpt lat="45.60322" lon="0.49205">
        <ele>127.844</ele>
        <time>2019-11-02T08:04:17Z</time>
      </trkpt>
      <trkpt lat="45.60411" lon="0.48995">
        <ele>115.264</ele>
        <time>2019-11-02T08:04:47Z</time>
      </trkpt>
      <trkpt lat="45.60469" lon="0.48795">
        <ele>109.907</ele>
        <time>2019-11-02T08:05:17Z</time>
      </trkpt>
      <trkpt lat="45.6051" lon="0.48602">
        <ele>118.698</ele>
        <time>2019-11-02T08:05:47Z</time>
      </trkpt>
      <trkpt lat="45.60516" lon="0.48469">
        <ele>112.209</ele>
        <time>2019-11-02T08:06:17Z</time>
      </trkpt>
      <trkpt lat="45.60553" lon="0.48307">
        <ele>112.142</ele>
        <time>2019-11-02T08:06:47Z</time>
      </trkpt>
      <trkpt lat="45.60576" lon="0.48148">
        <ele>116.891</ele>
        <time>2019-11-02T08:07:17Z</time>
      </trkpt>
      <trkpt lat="45.60626" lon="0.47945">
        <ele>126.674</ele>
        <time>2019-11-02T08:07:47Z</time>
      </trkpt>
      <trkpt lat="45.60685" lon="0.47765">
        <ele>114.898</ele>
        <time>2019-11-02T08:08:17Z</time>
      </trkpt>
      <trkpt lat="45.60762" lon="0.47596">
        <ele>111.147</ele>
        <time>2019-11-02T08:08:47Z</time>
      </trkpt>
      <trkpt lat="45.60875" lon="0.47435">
        <ele>108.116</ele>
        <time>2019-11-02T08:09:17Z</time>
      </trkpt>
      <trkpt lat="45.60966" lon="0.47268">
        <ele>105.309</ele>
        <time>2019-11-02T08:09:47Z</time>
      </trkpt>
      <trkpt lat="45.61045" lon="0.47062">
        <ele>106.203</ele>
        <time>2019-11-02T08:10:20Z</time>
      </trkpt>
      <trkpt lat="45.61116" lon="0.46885">
        <ele>101.493</ele>
        <time>2019-11-02T08:10:50Z</time>
      </trkpt>
      <trkpt lat="45.61184" lon="0.46721">
        <ele>104.27</ele>
        <time>2019-11-02T08:11:20Z</time>
      </trkpt>
      <trkpt lat="45.61238" lon="0.46554">
        <ele>105.165</ele>
        <time>2019-11-02T08:11:50Z</time>
      </trkpt>
      <trkpt lat="45.61284" lon="0.46387">
        <ele>102.452</ele>
        <time>2019-11-02T08:12:20Z</time>
      </trkpt>
      <trkpt lat="45.61309" lon="0.46203">
        <ele>102.693</ele>
        <time>2019-11-02T08:12:50Z</time>
      </trkpt>
      <trkpt lat="45.61327" lon="0.4602">
        <ele>101.541</ele>
        <time>2019-11-02T08:13:20.001Z</time>
      </trkpt>
      <trkpt lat="45.61385" lon="0.45858">
        <ele>103.047</ele>
        <time>2019-11-02T08:13:50Z</time>
      </trkpt>
      <trkpt lat="45.61448" lon="0.45683">
        <ele>103.091</ele>
        <time>2019-11-02T08:14:20Z</time>
      </trkpt>
      <trkpt lat="45.61512" lon="0.45522">
        <ele>103.125</ele>
        <time>2019-11-02T08:14:50Z</time>
      </trkpt>
      <trkpt lat="45.61583" lon="0.45386">
        <ele>103.038</ele>
        <time>2019-11-02T08:15:20Z</time>
      </trkpt>
      <trkpt lat="45.61629" lon="0.45224">
        <ele>101.685</ele>
        <time>2019-11-02T08:15:50Z</time>
      </trkpt>
      <trkpt lat="45.6165" lon="0.45046">
        <ele>100.5</ele>
        <time>2019-11-02T08:16:20Z</time>
      </trkpt>
      <trkpt lat="45.61677" lon="0.44874">
        <ele>101.716</ele>
        <time>2019-11-02T08:16:50Z</time>
      </trkpt>
      <trkpt lat="45.617" lon="0.44691">
        <ele>104.935</ele>
        <time>2019-11-02T08:17:23Z</time>
      </trkpt>
      <trkpt lat="45.61699" lon="0.44521">
        <ele>105.463</ele>
        <time>2019-11-02T08:17:53Z</time>
      </trkpt>
      <trkpt lat="45.61726" lon="0.44377">
        <ele>106.424</ele>
        <time>2019-11-02T08:18:23Z</time>
      </trkpt>
      <trkpt lat="45.61787" lon="0.44467">
        <ele>115.504</ele>
        <time>2019-11-02T08:18:53Z</time>
      </trkpt>
      <trkpt lat="45.61806" lon="0.44341">
        <ele>123.385</ele>
        <time>2019-11-02T08:19:26Z</time>
      </trkpt>
      <trkpt lat="45.61833" lon="0.44154">
        <ele>125.431</ele>
        <time>2019-11-02T08:19:56Z</time>
      </trkpt>
      <trkpt lat="45.61861" lon="0.43989">
        <ele>116.005</ele>
        <time>2019-11-02T08:20:26Z</time>
      </trkpt>
      <trkpt lat="45.6188" lon="0.43841">
        <ele>110.847</ele>
        <time>2019-11-02T08:20:56Z</time>
      </trkpt>
      <trkpt lat="45.61906" lon="0.43673">
        <ele>112.3</ele>
        <time>2019-11-02T08:21:26Z</time>
      </trkpt>
      <trkpt lat="45.61913" lon="0.43512">
        <ele>110.327</ele>
        <time>2019-11-02T08:21:56Z</time>
      </trkpt>
      <trkpt lat="45.61927" lon="0.43349">
        <ele>104.755</ele>
        <time>2019-11-02T08:22:26Z</time>
      </trkpt>
      <trkpt lat="45.6194" lon="0.43159">
        <ele>112.252</ele>
        <time>2019-11-02T08:22:56Z</time>
      </trkpt>
      <trkpt lat="45.61939" lon="0.42962">
        <ele>110.324</ele>
        <time>2019-11-02T08:23:26Z</time>
      </trkpt>
      <trkpt lat="45.61924" lon="0.4278">
        <ele>109.362</ele>
        <time>2019-11-02T08:23:59Z</time>
      </trkpt>
      <trkpt lat="45.61932" lon="0.426">
        <ele>110.7</ele>
        <time>2019-11-02T08:24:29Z</time>
      </trkpt>
      <trkpt lat="45.61973" lon="0.4242">
        <ele>107.181</ele>
        <time>2019-11-02T08:24:59Z</time>
      </trkpt>
      <trkpt lat="45.62015" lon="0.42243">
        <ele>105.461</ele>
        <time>2019-11-02T08:25:29Z</time>
      </trkpt>
      <trkpt lat="45.62061" lon="0.42056">
        <ele>105.8</ele>
        <time>2019-11-02T08:25:59Z</time>
      </trkpt>
      <trkpt lat="45.62109" lon="0.41867">
        <ele>105.309</ele>
        <time>2019-11-02T08:26:29Z</time>
      </trkpt>
      <trkpt lat="45.62156" lon="0.41684">
        <ele>103.715</ele>
        <time>2019-11-02T08:26:59Z</time>
      </trkpt>
      <trkpt lat="45.62171" lon="0.41476">
        <ele>104.086</ele>
        <time>2019-11-02T08:27:29Z</time>
      </trkpt>
      <trkpt lat="45.6213" lon="0.41231">
        <ele>101.001</ele>
        <time>2019-11-02T08:27:59Z</time>
      </trkpt>
      <trkpt lat="45.62072" lon="0.41041">
        <ele>102.231</ele>
        <time>2019-11-02T08:28:29Z</time>
      </trkpt>
      <trkpt lat="45.62039" lon="0.40898">
        <ele>102.625</ele>
        <time>2019-11-02T08:29:02Z</time>
      </trkpt>
      <trkpt lat="45.6203" lon="0.40846">
        <ele>104.15</ele>
        <time>2019-11-02T08:32:23Z</time>
      </trkpt>
      <trkpt lat="45.6203" lon="0.40722">
        <ele>105.851</ele>
        <time>2019-11-02T08:32:56Z</time>
      </trkpt>
      <trkpt lat="45.62071" lon="0.40473">
        <ele>103.624</ele>
        <time>2019-11-02T08:33:29Z</time>
      </trkpt>
      <trkpt lat="45.6213" lon="0.40272">
        <ele>103.133</ele>
        <time>2019-11-02T08:33:59Z</time>
      </trkpt>
      <trkpt lat="45.62165" lon="0.40077">
        <ele>103.041</ele>
        <time>2019-11-02T08:34:29Z</time>
      </trkpt>
      <trkpt lat="45.62186" lon="0.3986">
        <ele>99.795</ele>
        <time>2019-11-02T08:34:59Z</time>
      </trkpt>
      <trkpt lat="45.622" lon="0.39648">
        <ele>100.798</ele>
        <time>2019-11-02T08:35:29Z</time>
      </trkpt>
      <trkpt lat="45.62209" lon="0.39563">
        <ele>101.831</ele>
        <time>2019-11-02T08:36:29Z</time>
      </trkpt>
      <trkpt lat="45.62228" lon="0.39398">
        <ele>101.64</ele>
        <time>2019-11-02T08:36:59Z</time>
      </trkpt>
      <trkpt lat="45.62258" lon="0.392">
        <ele>98.897</ele>
        <time>2019-11-02T08:37:29Z</time>
      </trkpt>
      <trkpt lat="45.62308" lon="0.38983">
        <ele>99.658</ele>
        <time>2019-11-02T08:37:59Z</time>
      </trkpt>
      <trkpt lat="45.62379" lon="0.38777">
        <ele>100.295</ele>
        <time>2019-11-02T08:38:29Z</time>
      </trkpt>
      <trkpt lat="45.62439" lon="0.38634">
        <ele>98.934</ele>
        <time>2019-11-02T08:38:59Z</time>
      </trkpt>
      <trkpt lat="45.62515" lon="0.38492">
        <ele>106.201</ele>
        <time>2019-11-02T08:39:29Z</time>
      </trkpt>
      <trkpt lat="45.62617" lon="0.38335">
        <ele>109.087</ele>
        <time>2019-11-02T08:39:59Z</time>
      </trkpt>
      <trkpt lat="45.62701" lon="0.3818">
        <ele>108.282</ele>
        <time>2019-11-02T08:40:29Z</time>
      </trkpt>
      <trkpt lat="45.628" lon="0.38018">
        <ele>102.561</ele>
        <time>2019-11-02T08:41:02Z</time>
      </trkpt>
      <trkpt lat="45.6288" lon="0.37882">
        <ele>105.381</ele>
        <time>2019-11-02T08:41:32Z</time>
      </trkpt>
      <trkpt lat="45.62968" lon="0.3773">
        <ele>102.826</ele>
        <time>2019-11-02T08:42:02Z</time>
      </trkpt>
      <trkpt lat="45.62905" lon="0.37705">
        <ele>96.782</ele>
        <time>2019-11-02T08:42:32Z</time>
      </trkpt>
      <trkpt lat="45.62846" lon="0.37682">
        <ele>103.279</ele>
        <time>2019-11-02T08:43:05Z</time>
      </trkpt>
      <trkpt lat="45.6278" lon="0.37686">
        <ele>110.713</ele>
        <time>2019-11-02T08:43:47Z</time>
      </trkpt>
      <trkpt lat="45.62729" lon="0.37738">
        <ele>116.876</ele>
        <time>2019-11-02T08:44:17Z</time>
      </trkpt>
      <trkpt lat="45.62677" lon="0.37748">
        <ele>119.516</ele>
        <time>2019-11-02T08:46:29Z</time>
      </trkpt>
      <trkpt lat="45.6266" lon="0.37713">
        <ele>121.799</ele>
        <time>2019-11-02T08:48:23Z</time>
      </trkpt>
      <trkpt lat="45.6263" lon="0.37437">
        <ele>107.566</ele>
        <time>2019-11-02T08:48:53Z</time>
      </trkpt>
      <trkpt lat="45.62617" lon="0.37293">
        <ele>108.386</ele>
        <time>2019-11-02T08:49:23Z</time>
      </trkpt>
      <trkpt lat="45.62606" lon="0.37201">
        <ele>113.853</ele>
        <time>2019-11-02T08:49:53Z</time>
      </trkpt>
      <trkpt lat="45.62597" lon="0.37108">
        <ele>118.877</ele>
        <time>2019-11-02T08:50:23Z</time>
      </trkpt>
      <trkpt lat="45.62584" lon="0.37009">
        <ele>124.261</ele>
        <time>2019-11-02T08:50:56Z</time>
      </trkpt>
      <trkpt lat="45.62577" lon="0.36908">
        <ele>127.154</ele>
        <time>2019-11-02T08:51:26Z</time>
      </trkpt>
      <trkpt lat="45.6258" lon="0.36767">
        <ele>125.887</ele>
        <time>2019-11-02T08:51:56Z</time>
      </trkpt>
      <trkpt lat="45.6259" lon="0.36576">
        <ele>119.225</ele>
        <time>2019-11-02T08:52:26Z</time>
      </trkpt>
      <trkpt lat="45.62604" lon="0.36367">
        <ele>120.696</ele>
        <time>2019-11-02T08:52:56Z</time>
      </trkpt>
      <trkpt lat="45.62613" lon="0.36173">
        <ele>121.689</ele>
        <time>2019-11-02T08:53:26Z</time>
      </trkpt>
      <trkpt lat="45.62628" lon="0.35894">
        <ele>114.947</ele>
        <time>2019-11-02T08:53:56Z</time>
      </trkpt>
      <trkpt lat="45.62641" lon="0.35715">
        <ele>119.04</ele>
        <time>2019-11-02T08:54:26Z</time>
      </trkpt>
      <trkpt lat="45.62648" lon="0.35447">
        <ele>113.509</ele>
        <time>2019-11-02T08:54:56Z</time>
      </trkpt>
      <trkpt lat="45.62653" lon="0.35291">
        <ele>116.765</ele>
        <time>2019-11-02T08:55:44Z</time>
      </trkpt>
      <trkpt lat="45.62654" lon="0.35183">
        <ele>124.065</ele>
        <time>2019-11-02T08:56:41Z</time>
      </trkpt>
      <trkpt lat="45.62658" lon="0.35129">
        <ele>124.006</ele>
        <time>2019-11-02T09:05:08Z</time>
      </trkpt>
      <trkpt lat="45.6266" lon="0.35024">
        <ele>125.964</ele>
        <time>2019-11-02T09:05:38Z</time>
      </trkpt>
      <trkpt lat="45.62664" lon="0.34893">
        <ele>124.783</ele>
        <time>2019-11-02T09:06:11Z</time>
      </trkpt>
      <trkpt lat="45.62667" lon="0.34767">
        <ele>128.027</ele>
        <time>2019-11-02T09:06:41Z</time>
      </trkpt>
      <trkpt lat="45.62673" lon="0.34596">
        <ele>131.404</ele>
        <time>2019-11-02T09:07:11Z</time>
      </trkpt>
      <trkpt lat="45.62625" lon="0.34374">
        <ele>125.524</ele>
        <time>2019-11-02T09:07:41Z</time>
      </trkpt>
      <trkpt lat="45.62576" lon="0.34227">
        <ele>127.14</ele>
        <time>2019-11-02T09:08:11Z</time>
      </trkpt>
      <trkpt lat="45.62529" lon="0.34086">
        <ele>129.498</ele>
        <time>2019-11-02T09:08:41Z</time>
      </trkpt>
      <trkpt lat="45.62475" lon="0.33929">
        <ele>128.897</ele>
        <time>2019-11-02T09:09:11Z</time>
      </trkpt>
      <trkpt lat="45.62421" lon="0.33768">
        <ele>130.34</ele>
        <time>2019-11-02T09:09:41Z</time>
      </trkpt>
      <trkpt lat="45.62369" lon="0.33604">
        <ele>136.38</ele>
        <time>2019-11-02T09:10:11Z</time>
      </trkpt>
      <trkpt lat="45.62308" lon="0.33424">
        <ele>129.891</ele>
        <time>2019-11-02T09:10:41Z</time>
      </trkpt>
      <trkpt lat="45.62263" lon="0.33294">
        <ele>132.016</ele>
        <time>2019-11-02T09:11:11Z</time>
      </trkpt>
      <trkpt lat="45.62227" lon="0.33186">
        <ele>133.883</ele>
        <time>2019-11-02T09:11:41Z</time>
      </trkpt>
      <trkpt lat="45.62193" lon="0.33083">
        <ele>137.167</ele>
        <time>2019-11-02T09:12:11Z</time>
      </trkpt>
      <trkpt lat="45.62164" lon="0.32998">
        <ele>141.875</ele>
        <time>2019-11-02T09:12:41Z</time>
      </trkpt>
      <trkpt lat="45.6213" lon="0.32894">
        <ele>145.005</ele>
        <time>2019-11-02T09:13:14Z</time>
      </trkpt>
      <trkpt lat="45.62098" lon="0.328">
        <ele>144.651</ele>
        <time>2019-11-02T09:13:44Z</time>
      </trkpt>
      <trkpt lat="45.6206" lon="0.32687">
        <ele>149.737</ele>
        <time>2019-11-02T09:14:14Z</time>
      </trkpt>
      <trkpt lat="45.62013" lon="0.32539">
        <ele>150.033</ele>
        <time>2019-11-02T09:14:44Z</time>
      </trkpt>
      <trkpt lat="45.61941" lon="0.32321">
        <ele>148.275</ele>
        <time>2019-11-02T09:15:14Z</time>
      </trkpt>
      <trkpt lat="45.61882" lon="0.32131">
        <ele>147.307</ele>
        <time>2019-11-02T09:15:44Z</time>
      </trkpt>
      <trkpt lat="45.61902" lon="0.31892">
        <ele>144.809</ele>
        <time>2019-11-02T09:16:14Z</time>
      </trkpt>
      <trkpt lat="45.61892" lon="0.31608">
        <ele>135.795</ele>
        <time>2019-11-02T09:16:44Z</time>
      </trkpt>
      <trkpt lat="45.61893" lon="0.31401">
        <ele>135.772</ele>
        <time>2019-11-02T09:17:14Z</time>
      </trkpt>
      <trkpt lat="45.61887" lon="0.31281">
        <ele>142.654</ele>
        <time>2019-11-02T09:17:44Z</time>
      </trkpt>
      <trkpt lat="45.61852" lon="0.31034">
        <ele>141.387</ele>
        <time>2019-11-02T09:18:14Z</time>
      </trkpt>
      <trkpt lat="45.61775" lon="0.30721">
        <ele>129.788</ele>
        <time>2019-11-02T09:18:44Z</time>
      </trkpt>
      <trkpt lat="45.61724" lon="0.30518">
        <ele>129.392</ele>
        <time>2019-11-02T09:19:14Z</time>
      </trkpt>
      <trkpt lat="45.61685" lon="0.30303">
        <ele>130.045</ele>
        <time>2019-11-02T09:19:47Z</time>
      </trkpt>
      <trkpt lat="45.61607" lon="0.30118">
        <ele>130.664</ele>
        <time>2019-11-02T09:20:17Z</time>
      </trkpt>
      <trkpt lat="45.61381" lon="0.29946">
        <ele>119.437</ele>
        <time>2019-11-02T09:20:47Z</time>
      </trkpt>
      <trkpt lat="45.61388" lon="0.29532">
        <ele>98.094</ele>
        <time>2019-11-02T09:21:17Z</time>
      </trkpt>
      <trkpt lat="45.61528" lon="0.2922">
        <ele>80.92</ele>
        <time>2019-11-02T09:21:47Z</time>
      </trkpt>
      <trkpt lat="45.61524" lon="0.29105">
        <ele>81.958</ele>
        <time>2019-11-02T09:22:20Z</time>
      </trkpt>
      <trkpt lat="45.61538" lon="0.29077">
        <ele>87.379</ele>
        <time>2019-11-02T09:23:59Z</time>
      </trkpt>
      <trkpt lat="45.6154" lon="0.28968">
        <ele>95.187</ele>
        <time>2019-11-02T09:24:29Z</time>
      </trkpt>
      <trkpt lat="45.61548" lon="0.2885">
        <ele>95.352</ele>
        <time>2019-11-02T09:24:59Z</time>
      </trkpt>
      <trkpt lat="45.61554" lon="0.28751">
        <ele>97.544</ele>
        <time>2019-11-02T09:25:29Z</time>
      </trkpt>
      <trkpt lat="45.61558" lon="0.28651">
        <ele>99.484</ele>
        <time>2019-11-02T09:25:59Z</time>
      </trkpt>
      <trkpt lat="45.61561" lon="0.28556">
        <ele>101.903</ele>
        <time>2019-11-02T09:26:29Z</time>
      </trkpt>
      <trkpt lat="45.61554" lon="0.28457">
        <ele>106.192</ele>
        <time>2019-11-02T09:26:59Z</time>
      </trkpt>
      <trkpt lat="45.61546" lon="0.28327">
        <ele>107.885</ele>
        <time>2019-11-02T09:27:32Z</time>
      </trkpt>
      <trkpt lat="45.61552" lon="0.28201">
        <ele>111.752</ele>
        <time>2019-11-02T09:28:02Z</time>
      </trkpt>
      <trkpt lat="45.61584" lon="0.27985">
        <ele>108.63</ele>
        <time>2019-11-02T09:28:32Z</time>
      </trkpt>
      <trkpt lat="45.61621" lon="0.2783">
        <ele>109.478</ele>
        <time>2019-11-02T09:29:02Z</time>
      </trkpt>
      <trkpt lat="45.61666" lon="0.27666">
        <ele>111.232</ele>
        <time>2019-11-02T09:29:32Z</time>
      </trkpt>
      <trkpt lat="45.61797" lon="0.2732">
        <ele>99.379</ele>
        <time>2019-11-02T09:30:02Z</time>
      </trkpt>
      <trkpt lat="45.61866" lon="0.27074">
        <ele>96.125</ele>
        <time>2019-11-02T09:30:32Z</time>
      </trkpt>
      <trkpt lat="45.619" lon="0.26952">
        <ele>100.388</ele>
        <time>2019-11-02T09:31:02Z</time>
      </trkpt>
      <trkpt lat="45.61937" lon="0.26817">
        <ele>101.837</ele>
        <time>2019-11-02T09:31:32Z</time>
      </trkpt>
      <trkpt lat="45.61977" lon="0.26667">
        <ele>100.718</ele>
        <time>2019-11-02T09:32:02Z</time>
      </trkpt>
      <trkpt lat="45.62005" lon="0.26466">
        <ele>99.115</ele>
        <time>2019-11-02T09:32:32Z</time>
      </trkpt>
      <trkpt lat="45.62026" lon="0.26313">
        <ele>102.849</ele>
        <time>2019-11-02T09:33:02Z</time>
      </trkpt>
      <trkpt lat="45.62038" lon="0.26217">
        <ele>107.295</ele>
        <time>2019-11-02T09:33:32Z</time>
      </trkpt>
      <trkpt lat="45.62048" lon="0.26128">
        <ele>109.248</ele>
        <time>2019-11-02T09:34:02Z</time>
      </trkpt>
      <trkpt lat="45.62061" lon="0.26028">
        <ele>114.949</ele>
        <time>2019-11-02T09:34:35Z</time>
      </trkpt>
      <trkpt lat="45.62075" lon="0.25938">
        <ele>119.802</ele>
        <time>2019-11-02T09:35:05Z</time>
      </trkpt>
      <trkpt lat="45.62098" lon="0.25859">
        <ele>123.709</ele>
        <time>2019-11-02T09:35:35Z</time>
      </trkpt>
      <trkpt lat="45.62118" lon="0.25775">
        <ele>131.728</ele>
        <time>2019-11-02T09:36:05Z</time>
      </trkpt>
      <trkpt lat="45.62124" lon="0.2569">
        <ele>136.684</ele>
        <time>2019-11-02T09:36:35Z</time>
      </trkpt>
      <trkpt lat="45.62115" lon="0.25604">
        <ele>140.264</ele>
        <time>2019-11-02T09:37:05Z</time>
      </trkpt>
      <trkpt lat="45.621" lon="0.25522">
        <ele>140.843</ele>
        <time>2019-11-02T09:37:35Z</time>
      </trkpt>
      <trkpt lat="45.62084" lon="0.2544">
        <ele>146.82</ele>
        <time>2019-11-02T09:38:05Z</time>
      </trkpt>
      <trkpt lat="45.62074" lon="0.25352">
        <ele>145.672</ele>
        <time>2019-11-02T09:38:35Z</time>
      </trkpt>
      <trkpt lat="45.62167" lon="0.25231">
        <ele>149.422</ele>
        <time>2019-11-02T09:39:05Z</time>
      </trkpt>
      <trkpt lat="45.62271" lon="0.25105">
        <ele>148.661</ele>
        <time>2019-11-02T09:39:35Z</time>
      </trkpt>
      <trkpt lat="45.6238" lon="0.24888">
        <ele>147.44</ele>
        <time>2019-11-02T09:40:08Z</time>
      </trkpt>
      <trkpt lat="45.62425" lon="0.2474">
        <ele>151.396</ele>
        <time>2019-11-02T09:40:38Z</time>
      </trkpt>
      <trkpt lat="45.62467" lon="0.24631">
        <ele>147.394</ele>
        <time>2019-11-02T09:41:11Z</time>
      </trkpt>
      <trkpt lat="45.6249" lon="0.24514">
        <ele>153.066</ele>
        <time>2019-11-02T09:41:41Z</time>
      </trkpt>
      <trkpt lat="45.62521" lon="0.24398">
        <ele>158.483</ele>
        <time>2019-11-02T09:42:11Z</time>
      </trkpt>
      <trkpt lat="45.62562" lon="0.24237">
        <ele>163.814</ele>
        <time>2019-11-02T09:42:41Z</time>
      </trkpt>
      <trkpt lat="45.62629" lon="0.23994">
        <ele>151.809</ele>
        <time>2019-11-02T09:43:11Z</time>
      </trkpt>
      <trkpt lat="45.62662" lon="0.23876">
        <ele>153.731</ele>
        <time>2019-11-02T09:43:41Z</time>
      </trkpt>
      <trkpt lat="45.6269" lon="0.23773">
        <ele>165.688</ele>
        <time>2019-11-02T09:44:11Z</time>
      </trkpt>
      <trkpt lat="45.62719" lon="0.2367">
        <ele>170.587</ele>
        <time>2019-11-02T09:44:41Z</time>
      </trkpt>
      <trkpt lat="45.62748" lon="0.23561">
        <ele>174.255</ele>
        <time>2019-11-02T09:45:11Z</time>
      </trkpt>
      <trkpt lat="45.62776" lon="0.23449">
        <ele>176.843</ele>
        <time>2019-11-02T09:45:41Z</time>
      </trkpt>
      <trkpt lat="45.62808" lon="0.23339">
        <ele>176.944</ele>
        <time>2019-11-02T09:46:11Z</time>
      </trkpt>
      <trkpt lat="45.62843" lon="0.23211">
        <ele>177.759</ele>
        <time>2019-11-02T09:46:41Z</time>
      </trkpt>
      <trkpt lat="45.62884" lon="0.23061">
        <ele>176.985</ele>
        <time>2019-11-02T09:47:11Z</time>
      </trkpt>
      <trkpt lat="45.62929" lon="0.22823">
        <ele>168.969</ele>
        <time>2019-11-02T09:47:44Z</time>
      </trkpt>
      <trkpt lat="45.62972" lon="0.22441">
        <ele>158.665</ele>
        <time>2019-11-02T09:48:17Z</time>
      </trkpt>
      <trkpt lat="45.63064" lon="0.22049">
        <ele>150.319</ele>
        <time>2019-11-02T09:48:47Z</time>
      </trkpt>
      <trkpt lat="45.6315" lon="0.21848">
        <ele>152.179</ele>
        <time>2019-11-02T09:49:17Z</time>
      </trkpt>
      <trkpt lat="45.63266" lon="0.21583">
        <ele>143.251</ele>
        <time>2019-11-02T09:49:47Z</time>
      </trkpt>
      <trkpt lat="45.6338" lon="0.21317">
        <ele>135.305</ele>
        <time>2019-11-02T09:50:17Z</time>
      </trkpt>
      <trkpt lat="45.63376" lon="0.21181">
        <ele>131.714</ele>
        <time>2019-11-02T09:50:47Z</time>
      </trkpt>
      <trkpt lat="45.63204" lon="0.20959">
        <ele>125.631</ele>
        <time>2019-11-02T09:51:17Z</time>
      </trkpt>
      <trkpt lat="45.6305" lon="0.20701">
        <ele>118.646</ele>
        <time>2019-11-02T09:51:47Z</time>
      </trkpt>
      <trkpt lat="45.62962" lon="0.20494">
        <ele>117.561</ele>
        <time>2019-11-02T09:52:17Z</time>
      </trkpt>
      <trkpt lat="45.62892" lon="0.20324">
        <ele>119.232</ele>
        <time>2019-11-02T09:52:47Z</time>
      </trkpt>
      <trkpt lat="45.62819" lon="0.20147">
        <ele>117.3</ele>
        <time>2019-11-02T09:53:17Z</time>
      </trkpt>
      <trkpt lat="45.62746" lon="0.19967">
        <ele>117.391</ele>
        <time>2019-11-02T09:53:47Z</time>
      </trkpt>
      <trkpt lat="45.62665" lon="0.19769">
        <ele>117.838</ele>
        <time>2019-11-02T09:54:17Z</time>
      </trkpt>
      <trkpt lat="45.6257" lon="0.19539">
        <ele>114.107</ele>
        <time>2019-11-02T09:54:50Z</time>
      </trkpt>
      <trkpt lat="45.62482" lon="0.19324">
        <ele>112.445</ele>
        <time>2019-11-02T09:55:20Z</time>
      </trkpt>
      <trkpt lat="45.62407" lon="0.19103">
        <ele>112.151</ele>
        <time>2019-11-02T09:55:50Z</time>
      </trkpt>
      <trkpt lat="45.62399" lon="0.18928">
        <ele>112.105</ele>
        <time>2019-11-02T09:56:20Z</time>
      </trkpt>
      <trkpt lat="45.62427" lon="0.18762">
        <ele>117.479</ele>
        <time>2019-11-02T09:56:50Z</time>
      </trkpt>
      <trkpt lat="45.62456" lon="0.18601">
        <ele>119.216</ele>
        <time>2019-11-02T09:57:20Z</time>
      </trkpt>
      <trkpt lat="45.62486" lon="0.1843">
        <ele>118.001</ele>
        <time>2019-11-02T09:57:50Z</time>
      </trkpt>
      <trkpt lat="45.62514" lon="0.18264">
        <ele>121.221</ele>
        <time>2019-11-02T09:58:20Z</time>
      </trkpt>
      <trkpt lat="45.6254" lon="0.1812">
        <ele>122.729</ele>
        <time>2019-11-02T09:58:50Z</time>
      </trkpt>
      <trkpt lat="45.62578" lon="0.18013">
        <ele>123.737</ele>
        <time>2019-11-02T09:59:23Z</time>
      </trkpt>
      <trkpt lat="45.62697" lon="0.17958">
        <ele>118.583</ele>
        <time>2019-11-02T10:01:56Z</time>
      </trkpt>
      <trkpt lat="45.62941" lon="0.1788">
        <ele>106.844</ele>
        <time>2019-11-02T10:02:26Z</time>
      </trkpt>
      <trkpt lat="45.63039" lon="0.17568">
        <ele>96.882</ele>
        <time>2019-11-02T10:02:56Z</time>
      </trkpt>
      <trkpt lat="45.6308" lon="0.1747">
        <ele>102.734</ele>
        <time>2019-11-02T10:03:29Z</time>
      </trkpt>
      <trkpt lat="45.63117" lon="0.17373">
        <ele>106.16</ele>
        <time>2019-11-02T10:03:59Z</time>
      </trkpt>
      <trkpt lat="45.63154" lon="0.17256">
        <ele>109.05</ele>
        <time>2019-11-02T10:04:29Z</time>
      </trkpt>
      <trkpt lat="45.63199" lon="0.17108">
        <ele>103.423</ele>
        <time>2019-11-02T10:04:59Z</time>
      </trkpt>
      <trkpt lat="45.63176" lon="0.16823">
        <ele>95.243</ele>
        <time>2019-11-02T10:05:29Z</time>
      </trkpt>
      <trkpt lat="45.63259" lon="0.16709">
        <ele>96.361</ele>
        <time>2019-11-02T10:05:59Z</time>
      </trkpt>
      <trkpt lat="45.63324" lon="0.16619">
        <ele>98.158</ele>
        <time>2019-11-02T10:06:29Z</time>
      </trkpt>
      <trkpt lat="45.63403" lon="0.16476">
        <ele>105.779</ele>
        <time>2019-11-02T10:06:59Z</time>
      </trkpt>
      <trkpt lat="45.63474" lon="0.16315">
        <ele>103.428</ele>
        <time>2019-11-02T10:07:29Z</time>
      </trkpt>
      <trkpt lat="45.63532" lon="0.16096">
        <ele>100.555</ele>
        <time>2019-11-02T10:07:59Z</time>
      </trkpt>
      <trkpt lat="45.63563" lon="0.15855">
        <ele>96.367</ele>
        <time>2019-11-02T10:08:29Z</time>
      </trkpt>
      <trkpt lat="45.63582" lon="0.15655">
        <ele>93.635</ele>
        <time>2019-11-02T10:08:59Z</time>
      </trkpt>
      <trkpt lat="45.63603" lon="0.15458">
        <ele>92.479</ele>
        <time>2019-11-02T10:09:29Z</time>
      </trkpt>
      <trkpt lat="45.63673" lon="0.15434">
        <ele>94.258</ele>
        <time>2019-11-02T10:10:02Z</time>
      </trkpt>
      <trkpt lat="45.63854" lon="0.15499">
        <ele>79.413</ele>
        <time>2019-11-02T10:10:32Z</time>
      </trkpt>
      <trkpt lat="45.63956" lon="0.15709">
        <ele>69.452</ele>
        <time>2019-11-02T10:11:02Z</time>
      </trkpt>
      <trkpt lat="45.64143" lon="0.15725">
        <ele>60.934</ele>
        <time>2019-11-02T10:11:32Z</time>
      </trkpt>
      <trkpt lat="45.6426" lon="0.15706">
        <ele>62.061</ele>
        <time>2019-11-02T10:12:02Z</time>
      </trkpt>
      <trkpt lat="45.64266" lon="0.1571">
        <ele>61.665</ele>
        <time>2019-11-02T10:14:38Z</time>
      </trkpt>
      <trkpt lat="45.64238" lon="0.15647">
        <ele>60.175</ele>
        <time>2019-11-02T10:15:32Z</time>
      </trkpt>
      <trkpt lat="45.64178" lon="0.15586">
        <ele>52.765</ele>
        <time>2019-11-02T10:16:02Z</time>
      </trkpt>
      <trkpt lat="45.64208" lon="0.1551">
        <ele>60.722</ele>
        <time>2019-11-02T10:16:38Z</time>
      </trkpt>
      <trkpt lat="45.64276" lon="0.15346">
        <ele>65.284</ele>
        <time>2019-11-02T10:17:08Z</time>
      </trkpt>
      <trkpt lat="45.64327" lon="0.15141">
        <ele>56.807</ele>
        <time>2019-11-02T10:17:38Z</time>
      </trkpt>
      <trkpt lat="45.64362" lon="0.15002">
        <ele>53.918</ele>
        <time>2019-11-02T10:18:08Z</time>
      </trkpt>
      <trkpt lat="45.64368" lon="0.14983">
        <ele>53.437</ele>
        <time>2019-11-02T10:19:23Z</time>
      </trkpt>
      <trkpt lat="45.64404" lon="0.14838">
        <ele>49.74</ele>
        <time>2019-11-02T10:19:53Z</time>
      </trkpt>
      <trkpt lat="45.64407" lon="0.14641">
        <ele>48.941</ele>
        <time>2019-11-02T10:20:26Z</time>
      </trkpt>
      <trkpt lat="45.64404" lon="0.1448">
        <ele>50.026</ele>
        <time>2019-11-02T10:20:56Z</time>
      </trkpt>
      <trkpt lat="45.64442" lon="0.14334">
        <ele>53.972</ele>
        <time>2019-11-02T10:21:26Z</time>
      </trkpt>
      <trkpt lat="45.64439" lon="0.14217">
        <ele>53.239</ele>
        <time>2019-11-02T10:21:56Z</time>
      </trkpt>
      <trkpt lat="45.644" lon="0.14138">
        <ele>54.479</ele>
        <time>2019-11-02T10:22:26Z</time>
      </trkpt>
      <trkpt lat="45.64317" lon="0.14091">
        <ele>57.666</ele>
        <time>2019-11-02T10:22:56Z</time>
      </trkpt>
      <trkpt lat="45.64309" lon="0.1398">
        <ele>56.371</ele>
        <time>2019-11-02T10:23:26Z</time>
      </trkpt>
      <trkpt lat="45.64317" lon="0.13796">
        <ele>55.659</ele>
        <time>2019-11-02T10:23:56Z</time>
      </trkpt>
      <trkpt lat="45.64316" lon="0.13631">
        <ele>52.568</ele>
        <time>2019-11-02T10:24:26Z</time>
      </trkpt>
      <trkpt lat="45.64285" lon="0.13553">
        <ele>52.404</ele>
        <time>2019-11-02T10:25:02Z</time>
      </trkpt>
      <trkpt lat="45.64165" lon="0.13405">
        <ele>50.189</ele>
        <time>2019-11-02T10:25:32Z</time>
      </trkpt>
      <trkpt lat="45.64051" lon="0.13261">
        <ele>50.198</ele>
        <time>2019-11-02T10:26:02Z</time>
      </trkpt>
      <trkpt lat="45.6394" lon="0.13124">
        <ele>50.324</ele>
        <time>2019-11-02T10:26:32Z</time>
      </trkpt>
      <trkpt lat="45.6382" lon="0.12967">
        <ele>46.83</ele>
        <time>2019-11-02T10:27:05Z</time>
      </trkpt>
      <trkpt lat="45.63705" lon="0.12831">
        <ele>44.774</ele>
        <time>2019-11-02T10:27:35Z</time>
      </trkpt>
      <trkpt lat="45.63615" lon="0.12721">
        <ele>36.329</ele>
        <time>2019-11-02T10:28:05Z</time>
      </trkpt>
      <trkpt lat="45.63566" lon="0.12567">
        <ele>36.083</ele>
        <time>2019-11-02T10:28:35Z</time>
      </trkpt>
      <trkpt lat="45.63479" lon="0.12499">
        <ele>35.684</ele>
        <time>2019-11-02T10:29:05Z</time>
      </trkpt>
      <trkpt lat="45.63383" lon="0.12436">
        <ele>40.898</ele>
        <time>2019-11-02T10:29:35Z</time>
      </trkpt>
      <trkpt lat="45.63314" lon="0.12347">
        <ele>43.686</ele>
        <time>2019-11-02T10:30:05Z</time>
      </trkpt>
      <trkpt lat="45.6325" lon="0.1227">
        <ele>49.297</ele>
        <time>2019-11-02T10:30:35Z</time>
      </trkpt>
      <trkpt lat="45.63197" lon="0.12201">
        <ele>50.102</ele>
        <time>2019-11-02T10:31:05Z</time>
      </trkpt>
      <trkpt lat="45.63143" lon="0.12135">
        <ele>53.562</ele>
        <time>2019-11-02T10:31:35Z</time>
      </trkpt>
      <trkpt lat="45.63091" lon="0.12068">
        <ele>56.766</ele>
        <time>2019-11-02T10:32:05Z</time>
      </trkpt>
      <trkpt lat="45.63023" lon="0.11985">
        <ele>58.488</ele>
        <time>2019-11-02T10:32:35Z</time>
      </trkpt>
      <trkpt lat="45.62872" lon="0.11793">
        <ele>47.746</ele>
        <time>2019-11-02T10:33:05Z</time>
      </trkpt>
      <trkpt lat="45.62691" lon="0.11573">
        <ele>39.052</ele>
        <time>2019-11-02T10:33:38Z</time>
      </trkpt>
      <trkpt lat="45.62563" lon="0.11416">
        <ele>35.658</ele>
        <time>2019-11-02T10:34:08Z</time>
      </trkpt>
      <trkpt lat="45.62483" lon="0.11315">
        <ele>36.849</ele>
        <time>2019-11-02T10:34:38Z</time>
      </trkpt>
      <trkpt lat="45.62426" lon="0.1124">
        <ele>43.963</ele>
        <time>2019-11-02T10:35:08Z</time>
      </trkpt>
      <trkpt lat="45.62381" lon="0.11151">
        <ele>50.837</ele>
        <time>2019-11-02T10:35:38Z</time>
      </trkpt>
      <trkpt lat="45.62411" lon="0.11034">
        <ele>49.878</ele>
        <time>2019-11-02T10:36:08Z</time>
      </trkpt>
      <trkpt lat="45.62457" lon="0.11083">
        <ele>54.979</ele>
        <time>2019-11-02T10:36:38Z</time>
      </trkpt>
      <trkpt lat="45.62481" lon="0.11169">
        <ele>53.462</ele>
        <time>2019-11-02T10:37:08Z</time>
      </trkpt>
      <trkpt lat="45.62484" lon="0.11172">
        <ele>45.493</ele>
        <time>2019-11-02T10:37:59Z</time>
      </trkpt>
      <trkpt lat="45.62468" lon="0.11191">
        <ele>42.94</ele>
        <time>2019-11-02T10:38:53Z</time>
      </trkpt>
      <trkpt lat="45.62463" lon="0.11184">
        <ele>50.298</ele>
        <time>2019-11-02T10:42:11Z</time>
      </trkpt>
      <trkpt lat="45.62474" lon="0.11184">
        <ele>44.912</ele>
        <time>2019-11-02T10:43:44Z</time>
      </trkpt>
      <trkpt lat="45.6248" lon="0.11182">
        <ele>42.427</ele>
        <time>2019-11-02T10:45:20Z</time>
      </trkpt>
      <trkpt lat="45.62491" lon="0.11205">
        <ele>40.685</ele>
        <time>2019-11-02T10:46:44Z</time>
      </trkpt>
      <trkpt lat="45.62515" lon="0.11228">
        <ele>50.515</ele>
        <time>2019-11-02T10:47:35Z</time>
      </trkpt>
      <trkpt lat="45.6251" lon="0.11235">
        <ele>53.573</ele>
        <time>2019-11-02T10:56:46Z</time>
      </trkpt>
      <trkpt lat="45.62485" lon="0.11241">
        <ele>66.926</ele>
        <time>2019-11-02T10:58:40Z</time>
      </trkpt>
      <trkpt lat="45.62483" lon="0.11193">
        <ele>36.991</ele>
        <time>2019-11-02T10:59:34Z</time>
      </trkpt>
      <trkpt lat="45.62482" lon="0.11193">
        <ele>33.304</ele>
        <time>2019-11-02T11:02:10Z</time>
      </trkpt>
      <trkpt lat="45.62475" lon="0.11168">
        <ele>36.993</ele>
        <time>2019-11-02T11:09:46Z</time>
      </trkpt>
      <trkpt lat="45.62495" lon="0.11189">
        <ele>15.17</ele>
        <time>2019-11-02T11:16:52Z</time>
      </trkpt>
      <trkpt lat="45.62472" lon="0.11173">
        <ele>27.649</ele>
        <time>2019-11-02T11:18:13Z</time>
      </trkpt>
      <trkpt lat="45.62476" lon="0.11187">
        <ele>14.18</ele>
        <time>2019-11-02T11:19:22Z</time>
      </trkpt>
      <trkpt lat="45.62479" lon="0.11179">
        <ele>17.554</ele>
        <time>2019-11-02T11:20:34Z</time>
      </trkpt>
      <trkpt lat="45.6248" lon="0.11174">
        <ele>22.438</ele>
        <time>2019-11-02T11:23:28Z</time>
      </trkpt>
      <trkpt lat="45.62479" lon="0.11188">
        <ele>28.718</ele>
        <time>2019-11-02T11:25:55Z</time>
      </trkpt>
      <trkpt lat="45.62479" lon="0.11175">
        <ele>26.863</ele>
        <time>2019-11-02T11:27:43Z</time>
      </trkpt>
      <trkpt lat="45.62465" lon="0.11199">
        <ele>30.397</ele>
        <time>2019-11-02T11:29:13Z</time>
      </trkpt>
      <trkpt lat="45.62483" lon="0.11184">
        <ele>0.201</ele>
        <time>2019-11-02T11:29:52Z</time>
      </trkpt>
      <trkpt lat="45.62469" lon="0.11178">
        <ele>25.671</ele>
        <time>2019-11-02T11:30:46Z</time>
      </trkpt>
      <trkpt lat="45.62503" lon="0.11196">
        <ele>34.466</ele>
        <time>2019-11-02T11:31:25Z</time>
      </trkpt>
      <trkpt lat="45.62474" lon="0.11196">
        <ele>45.25</ele>
        <time>2019-11-02T11:35:53Z</time>
      </trkpt>
      <trkpt lat="45.62479" lon="0.11205">
        <ele>39.06</ele>
        <time>2019-11-02T11:37:56Z</time>
      </trkpt>
      <trkpt lat="45.62484" lon="0.1119">
        <ele>44.41</ele>
        <time>2019-11-02T11:40:50Z</time>
      </trkpt>
      <trkpt lat="45.62481" lon="0.11191">
        <ele>44.79</ele>
        <time>2019-11-02T11:42:11Z</time>
      </trkpt>
      <trkpt lat="45.6251" lon="0.11144">
        <ele>41.972</ele>
        <time>2019-11-02T11:56:02Z</time>
      </trkpt>
      <trkpt lat="45.62478" lon="0.11059">
        <ele>46.188</ele>
        <time>2019-11-02T11:56:32Z</time>
      </trkpt>
      <trkpt lat="45.62554" lon="0.11073">
        <ele>46.809</ele>
        <time>2019-11-02T11:57:02Z</time>
      </trkpt>
      <trkpt lat="45.62634" lon="0.11165">
        <ele>43.491</ele>
        <time>2019-11-02T11:57:32Z</time>
      </trkpt>
      <trkpt lat="45.62702" lon="0.11195">
        <ele>40.102</ele>
        <time>2019-11-02T11:59:41Z</time>
      </trkpt>
      <trkpt lat="45.62751" lon="0.1124">
        <ele>39.797</ele>
        <time>2019-11-02T12:01:14Z</time>
      </trkpt>
      <trkpt lat="45.62796" lon="0.11287">
        <ele>40.145</ele>
        <time>2019-11-02T12:01:44Z</time>
      </trkpt>
      <trkpt lat="45.62851" lon="0.11352">
        <ele>40.201</ele>
        <time>2019-11-02T12:02:14Z</time>
      </trkpt>
      <trkpt lat="45.62887" lon="0.11383">
        <ele>38.644</ele>
        <time>2019-11-02T12:03:20Z</time>
      </trkpt>
      <trkpt lat="45.62919" lon="0.11418">
        <ele>40.758</ele>
        <time>2019-11-02T12:07:35Z</time>
      </trkpt>
      <trkpt lat="45.62858" lon="0.1135">
        <ele>44.536</ele>
        <time>2019-11-02T12:08:08Z</time>
      </trkpt>
      <trkpt lat="45.62802" lon="0.1129">
        <ele>44.392</ele>
        <time>2019-11-02T12:08:38Z</time>
      </trkpt>
      <trkpt lat="45.62751" lon="0.11232">
        <ele>46.712</ele>
        <time>2019-11-02T12:09:17Z</time>
      </trkpt>
      <trkpt lat="45.62713" lon="0.11202">
        <ele>45.1</ele>
        <time>2019-11-02T12:10:17Z</time>
      </trkpt>
      <trkpt lat="45.62687" lon="0.11191">
        <ele>46.754</ele>
        <time>2019-11-02T12:10:59Z</time>
      </trkpt>
      <trkpt lat="45.62642" lon="0.1118">
        <ele>46.3</ele>
        <time>2019-11-02T12:11:38Z</time>
      </trkpt>
      <trkpt lat="45.62606" lon="0.11118">
        <ele>45.341</ele>
        <time>2019-11-02T12:12:41Z</time>
      </trkpt>
      <trkpt lat="45.62556" lon="0.11072">
        <ele>46.276</ele>
        <time>2019-11-02T12:13:41Z</time>
      </trkpt>
      <trkpt lat="45.62519" lon="0.11041">
        <ele>46.14</ele>
        <time>2019-11-02T12:15:05Z</time>
      </trkpt>
      <trkpt lat="45.6244" lon="0.10994">
        <ele>55.065</ele>
        <time>2019-11-02T12:15:38Z</time>
      </trkpt>
      <trkpt lat="45.62376" lon="0.11076">
        <ele>51.361</ele>
        <time>2019-11-02T12:16:08Z</time>
      </trkpt>
      <trkpt lat="45.6239" lon="0.11208">
        <ele>48.729</ele>
        <time>2019-11-02T12:16:38Z</time>
      </trkpt>
      <trkpt lat="45.62567" lon="0.11446">
        <ele>45.729</ele>
        <time>2019-11-02T12:17:08Z</time>
      </trkpt>
      <trkpt lat="45.62724" lon="0.11635">
        <ele>43.674</ele>
        <time>2019-11-02T12:17:38Z</time>
      </trkpt>
      <trkpt lat="45.62801" lon="0.11731">
        <ele>44.673</ele>
        <time>2019-11-02T12:18:08Z</time>
      </trkpt>
      <trkpt lat="45.62864" lon="0.11765">
        <ele>48.719</ele>
        <time>2019-11-02T12:18:38Z</time>
      </trkpt>
      <trkpt lat="45.6295" lon="0.11613">
        <ele>47.833</ele>
        <time>2019-11-02T12:19:08Z</time>
      </trkpt>
      <trkpt lat="45.63005" lon="0.11697">
        <ele>49.628</ele>
        <time>2019-11-02T12:19:38Z</time>
      </trkpt>
      <trkpt lat="45.63121" lon="0.11772">
        <ele>51.423</ele>
        <time>2019-11-02T12:20:08Z</time>
      </trkpt>
      <trkpt lat="45.6317" lon="0.11702">
        <ele>47.957</ele>
        <time>2019-11-02T12:20:38Z</time>
      </trkpt>
      <trkpt lat="45.63242" lon="0.1149">
        <ele>44.951</ele>
        <time>2019-11-02T12:21:08Z</time>
      </trkpt>
      <trkpt lat="45.63309" lon="0.11393">
        <ele>45.232</ele>
        <time>2019-11-02T12:21:38Z</time>
      </trkpt>
      <trkpt lat="45.6339" lon="0.11276">
        <ele>49.441</ele>
        <time>2019-11-02T12:22:11Z</time>
      </trkpt>
      <trkpt lat="45.63497" lon="0.11226">
        <ele>58.663</ele>
        <time>2019-11-02T12:22:41Z</time>
      </trkpt>
      <trkpt lat="45.63613" lon="0.11277">
        <ele>57.956</ele>
        <time>2019-11-02T12:23:11Z</time>
      </trkpt>
      <trkpt lat="45.63719" lon="0.11224">
        <ele>61.355</ele>
        <time>2019-11-02T12:23:41Z</time>
      </trkpt>
      <trkpt lat="45.63811" lon="0.11089">
        <ele>58.474</ele>
        <time>2019-11-02T12:24:11Z</time>
      </trkpt>
      <trkpt lat="45.63903" lon="0.10977">
        <ele>59.474</ele>
        <time>2019-11-02T12:24:41Z</time>
      </trkpt>
      <trkpt lat="45.63894" lon="0.10972">
        <ele>65.584</ele>
        <time>2019-11-02T12:25:17Z</time>
      </trkpt>
      <trkpt lat="45.63994" lon="0.10978">
        <ele>68.186</ele>
        <time>2019-11-02T12:25:47Z</time>
      </trkpt>
      <trkpt lat="45.64029" lon="0.11134">
        <ele>55.783</ele>
        <time>2019-11-02T12:26:17Z</time>
      </trkpt>
      <trkpt lat="45.64142" lon="0.11021">
        <ele>46.911</ele>
        <time>2019-11-02T12:26:47Z</time>
      </trkpt>
      <trkpt lat="45.64225" lon="0.10845">
        <ele>44.231</ele>
        <time>2019-11-02T12:27:17Z</time>
      </trkpt>
      <trkpt lat="45.64266" lon="0.10783">
        <ele>46.233</ele>
        <time>2019-11-02T12:30:05Z</time>
      </trkpt>
      <trkpt lat="45.6436" lon="0.10867">
        <ele>40.352</ele>
        <time>2019-11-02T12:30:35Z</time>
      </trkpt>
      <trkpt lat="45.64466" lon="0.10884">
        <ele>35.491</ele>
        <time>2019-11-02T12:31:08Z</time>
      </trkpt>
      <trkpt lat="45.64547" lon="0.10845">
        <ele>37.37</ele>
        <time>2019-11-02T12:31:38Z</time>
      </trkpt>
      <trkpt lat="45.6459" lon="0.10756">
        <ele>41.258</ele>
        <time>2019-11-02T12:32:08Z</time>
      </trkpt>
      <trkpt lat="45.64673" lon="0.10683">
        <ele>46.814</ele>
        <time>2019-11-02T12:32:38Z</time>
      </trkpt>
      <trkpt lat="45.64828" lon="0.10606">
        <ele>45.436</ele>
        <time>2019-11-02T12:33:08Z</time>
      </trkpt>
      <trkpt lat="45.64971" lon="0.10692">
        <ele>42.176</ele>
        <time>2019-11-02T12:33:38Z</time>
      </trkpt>
      <trkpt lat="45.65206" lon="0.10659">
        <ele>36.97</ele>
        <time>2019-11-02T12:34:08Z</time>
      </trkpt>
      <trkpt lat="45.65299" lon="0.10634">
        <ele>32.266</ele>
        <time>2019-11-02T12:34:38Z</time>
      </trkpt>
      <trkpt lat="45.65277" lon="0.10512">
        <ele>34.903</ele>
        <time>2019-11-02T12:35:08Z</time>
      </trkpt>
      <trkpt lat="45.65231" lon="0.10323">
        <ele>33.352</ele>
        <time>2019-11-02T12:35:38Z</time>
      </trkpt>
      <trkpt lat="45.65149" lon="0.10145">
        <ele>34.885</ele>
        <time>2019-11-02T12:36:08Z</time>
      </trkpt>
      <trkpt lat="45.65076" lon="0.09987">
        <ele>31.826</ele>
        <time>2019-11-02T12:36:38Z</time>
      </trkpt>
      <trkpt lat="45.65034" lon="0.09833">
        <ele>34.508</ele>
        <time>2019-11-02T12:37:08Z</time>
      </trkpt>
      <trkpt lat="45.65024" lon="0.09699">
        <ele>38.41</ele>
        <time>2019-11-02T12:37:38Z</time>
      </trkpt>
      <trkpt lat="45.65016" lon="0.09559">
        <ele>38.4</ele>
        <time>2019-11-02T12:38:11Z</time>
      </trkpt>
      <trkpt lat="45.65009" lon="0.09426">
        <ele>38.867</ele>
        <time>2019-11-02T12:38:41Z</time>
      </trkpt>
      <trkpt lat="45.64999" lon="0.09289">
        <ele>42.065</ele>
        <time>2019-11-02T12:39:11Z</time>
      </trkpt>
      <trkpt lat="45.64992" lon="0.09163">
        <ele>46.466</ele>
        <time>2019-11-02T12:39:41Z</time>
      </trkpt>
      <trkpt lat="45.64987" lon="0.09044">
        <ele>46.598</ele>
        <time>2019-11-02T12:40:11Z</time>
      </trkpt>
      <trkpt lat="45.65008" lon="0.08945">
        <ele>55.977</ele>
        <time>2019-11-02T12:40:41Z</time>
      </trkpt>
      <trkpt lat="45.65047" lon="0.08818">
        <ele>51.293</ele>
        <time>2019-11-02T12:41:11Z</time>
      </trkpt>
      <trkpt lat="45.65095" lon="0.08645">
        <ele>49.626</ele>
        <time>2019-11-02T12:41:41Z</time>
      </trkpt>
      <trkpt lat="45.65129" lon="0.08549">
        <ele>55.741</ele>
        <time>2019-11-02T12:42:11Z</time>
      </trkpt>
      <trkpt lat="45.65091" lon="0.08291">
        <ele>51.707</ele>
        <time>2019-11-02T12:42:41Z</time>
      </trkpt>
      <trkpt lat="45.6502" lon="0.07896">
        <ele>31.072</ele>
        <time>2019-11-02T12:43:11Z</time>
      </trkpt>
      <trkpt lat="45.64989" lon="0.07725">
        <ele>31.802</ele>
        <time>2019-11-02T12:43:41Z</time>
      </trkpt>
      <trkpt lat="45.64976" lon="0.07665">
        <ele>36.126</ele>
        <time>2019-11-02T12:46:59Z</time>
      </trkpt>
      <trkpt lat="45.64956" lon="0.07565">
        <ele>39.734</ele>
        <time>2019-11-02T12:48:08Z</time>
      </trkpt>
      <trkpt lat="45.64941" lon="0.0747">
        <ele>47.401</ele>
        <time>2019-11-02T12:49:08Z</time>
      </trkpt>
      <trkpt lat="45.64929" lon="0.07416">
        <ele>49.416</ele>
        <time>2019-11-02T12:49:59Z</time>
      </trkpt>
      <trkpt lat="45.64904" lon="0.07329">
        <ele>57.626</ele>
        <time>2019-11-02T12:50:29Z</time>
      </trkpt>
      <trkpt lat="45.6487" lon="0.07226">
        <ele>52.595</ele>
        <time>2019-11-02T12:50:59Z</time>
      </trkpt>
      <trkpt lat="45.64833" lon="0.0713">
        <ele>56.235</ele>
        <time>2019-11-02T12:51:29Z</time>
      </trkpt>
      <trkpt lat="45.64796" lon="0.07033">
        <ele>54.532</ele>
        <time>2019-11-02T12:51:59Z</time>
      </trkpt>
      <trkpt lat="45.64729" lon="0.0685">
        <ele>47.738</ele>
        <time>2019-11-02T12:52:29Z</time>
      </trkpt>
      <trkpt lat="45.64663" lon="0.06684">
        <ele>45.928</ele>
        <time>2019-11-02T12:52:59Z</time>
      </trkpt>
      <trkpt lat="45.64578" lon="0.06504">
        <ele>46.334</ele>
        <time>2019-11-02T12:53:29Z</time>
      </trkpt>
      <trkpt lat="45.6445" lon="0.0629">
        <ele>40.057</ele>
        <time>2019-11-02T12:53:59Z</time>
      </trkpt>
      <trkpt lat="45.64394" lon="0.06097">
        <ele>35.833</ele>
        <time>2019-11-02T12:54:29Z</time>
      </trkpt>
      <trkpt lat="45.64356" lon="0.05898">
        <ele>34.331</ele>
        <time>2019-11-02T12:54:59Z</time>
      </trkpt>
      <trkpt lat="45.64339" lon="0.05713">
        <ele>36.892</ele>
        <time>2019-11-02T12:55:32Z</time>
      </trkpt>
      <trkpt lat="45.6432" lon="0.05557">
        <ele>39.131</ele>
        <time>2019-11-02T12:56:02Z</time>
      </trkpt>
      <trkpt lat="45.64299" lon="0.05336">
        <ele>35.135</ele>
        <time>2019-11-02T12:56:32Z</time>
      </trkpt>
      <trkpt lat="45.64265" lon="0.05197">
        <ele>38.044</ele>
        <time>2019-11-02T12:57:02Z</time>
      </trkpt>
      <trkpt lat="45.64217" lon="0.05042">
        <ele>40.616</ele>
        <time>2019-11-02T12:57:32Z</time>
      </trkpt>
      <trkpt lat="45.6416" lon="0.04903">
        <ele>39.311</ele>
        <time>2019-11-02T12:58:02Z</time>
      </trkpt>
      <trkpt lat="45.64114" lon="0.04753">
        <ele>38.72</ele>
        <time>2019-11-02T12:58:32Z</time>
      </trkpt>
      <trkpt lat="45.64113" lon="0.04602">
        <ele>43.958</ele>
        <time>2019-11-02T12:59:02Z</time>
      </trkpt>
      <trkpt lat="45.64176" lon="0.04574">
        <ele>52.953</ele>
        <time>2019-11-02T12:59:32Z</time>
      </trkpt>
      <trkpt lat="45.6424" lon="0.04531">
        <ele>51.601</ele>
        <time>2019-11-02T13:00:02Z</time>
      </trkpt>
      <trkpt lat="45.64297" lon="0.04477">
        <ele>50.53</ele>
        <time>2019-11-02T13:00:32Z</time>
      </trkpt>
      <trkpt lat="45.64345" lon="0.04398">
        <ele>55.817</ele>
        <time>2019-11-02T13:01:02Z</time>
      </trkpt>
      <trkpt lat="45.64378" lon="0.04304">
        <ele>59.419</ele>
        <time>2019-11-02T13:01:32Z</time>
      </trkpt>
      <trkpt lat="45.64381" lon="0.04223">
        <ele>55.288</ele>
        <time>2019-11-02T13:02:02Z</time>
      </trkpt>
      <trkpt lat="45.64398" lon="0.04138">
        <ele>58.829</ele>
        <time>2019-11-02T13:02:35Z</time>
      </trkpt>
      <trkpt lat="45.64441" lon="0.04067">
        <ele>63.262</ele>
        <time>2019-11-02T13:03:05Z</time>
      </trkpt>
      <trkpt lat="45.64459" lon="0.03989">
        <ele>67.551</ele>
        <time>2019-11-02T13:03:35Z</time>
      </trkpt>
      <trkpt lat="45.64474" lon="0.03909">
        <ele>68.262</ele>
        <time>2019-11-02T13:04:05Z</time>
      </trkpt>
      <trkpt lat="45.64481" lon="0.03828">
        <ele>70.891</ele>
        <time>2019-11-02T13:04:35Z</time>
      </trkpt>
      <trkpt lat="45.64471" lon="0.03749">
        <ele>70.968</ele>
        <time>2019-11-02T13:05:05Z</time>
      </trkpt>
      <trkpt lat="45.64462" lon="0.03668">
        <ele>74.613</ele>
        <time>2019-11-02T13:05:38Z</time>
      </trkpt>
      <trkpt lat="45.64456" lon="0.03584">
        <ele>78.315</ele>
        <time>2019-11-02T13:06:11Z</time>
      </trkpt>
      <trkpt lat="45.64488" lon="0.03531">
        <ele>84.553</ele>
        <time>2019-11-02T13:06:41Z</time>
      </trkpt>
      <trkpt lat="45.64548" lon="0.03492">
        <ele>85.282</ele>
        <time>2019-11-02T13:07:11Z</time>
      </trkpt>
      <trkpt lat="45.64591" lon="0.03349">
        <ele>85.029</ele>
        <time>2019-11-02T13:07:41Z</time>
      </trkpt>
      <trkpt lat="45.64488" lon="0.03019">
        <ele>71.154</ele>
        <time>2019-11-02T13:08:11Z</time>
      </trkpt>
      <trkpt lat="45.64456" lon="0.02664">
        <ele>59.102</ele>
        <time>2019-11-02T13:08:41Z</time>
      </trkpt>
      <trkpt lat="45.64321" lon="0.0242">
        <ele>49.91</ele>
        <time>2019-11-02T13:09:14Z</time>
      </trkpt>
      <trkpt lat="45.64218" lon="0.02254">
        <ele>44.672</ele>
        <time>2019-11-02T13:09:44Z</time>
      </trkpt>
      <trkpt lat="45.64137" lon="0.02059">
        <ele>42.638</ele>
        <time>2019-11-02T13:10:14Z</time>
      </trkpt>
      <trkpt lat="45.64206" lon="0.01789">
        <ele>41.838</ele>
        <time>2019-11-02T13:10:44Z</time>
      </trkpt>
      <trkpt lat="45.64161" lon="0.01619">
        <ele>40.679</ele>
        <time>2019-11-02T13:11:14Z</time>
      </trkpt>
      <trkpt lat="45.64034" lon="0.01489">
        <ele>43.716</ele>
        <time>2019-11-02T13:11:44Z</time>
      </trkpt>
      <trkpt lat="45.63929" lon="0.01265">
        <ele>36.602</ele>
        <time>2019-11-02T13:12:14Z</time>
      </trkpt>
      <trkpt lat="45.63827" lon="0.01109">
        <ele>32.441</ele>
        <time>2019-11-02T13:12:44Z</time>
      </trkpt>
      <trkpt lat="45.63753" lon="0.00908">
        <ele>31.588</ele>
        <time>2019-11-02T13:13:14Z</time>
      </trkpt>
      <trkpt lat="45.63672" lon="0.00704">
        <ele>39.511</ele>
        <time>2019-11-02T13:13:44Z</time>
      </trkpt>
      <trkpt lat="45.63668" lon="0.00476">
        <ele>28.766</ele>
        <time>2019-11-02T13:14:14Z</time>
      </trkpt>
      <trkpt lat="45.63627" lon="0.00266">
        <ele>25.432</ele>
        <time>2019-11-02T13:14:44Z</time>
      </trkpt>
      <trkpt lat="45.63552" lon="0.00063">
        <ele>26.008</ele>
        <time>2019-11-02T13:15:14Z</time>
      </trkpt>
      <trkpt lat="45.635" lon="-0.00115">
        <ele>28.437</ele>
        <time>2019-11-02T13:15:47Z</time>
      </trkpt>
      <trkpt lat="45.6346" lon="-0.00296">
        <ele>23.076</ele>
        <time>2019-11-02T13:16:17Z</time>
      </trkpt>
      <trkpt lat="45.63456" lon="-0.00413">
        <ele>28.107</ele>
        <time>2019-11-02T13:16:47Z</time>
      </trkpt>
      <trkpt lat="45.63459" lon="-0.00562">
        <ele>33.613</ele>
        <time>2019-11-02T13:17:17Z</time>
      </trkpt>
      <trkpt lat="45.63455" lon="-0.00855">
        <ele>32.961</ele>
        <time>2019-11-02T13:17:47Z</time>
      </trkpt>
      <trkpt lat="45.63425" lon="-0.01082">
        <ele>26.773</ele>
        <time>2019-11-02T13:18:17Z</time>
      </trkpt>
      <trkpt lat="45.63383" lon="-0.01267">
        <ele>24.236</ele>
        <time>2019-11-02T13:18:47Z</time>
      </trkpt>
      <trkpt lat="45.63338" lon="-0.01424">
        <ele>22.227</ele>
        <time>2019-11-02T13:19:17Z</time>
      </trkpt>
      <trkpt lat="45.63293" lon="-0.01573">
        <ele>19.946</ele>
        <time>2019-11-02T13:19:47Z</time>
      </trkpt>
      <trkpt lat="45.63208" lon="-0.0176">
        <ele>25.246</ele>
        <time>2019-11-02T13:20:17Z</time>
      </trkpt>
      <trkpt lat="45.63104" lon="-0.0196">
        <ele>28.813</ele>
        <time>2019-11-02T13:20:47Z</time>
      </trkpt>
      <trkpt lat="45.63" lon="-0.02128">
        <ele>26.323</ele>
        <time>2019-11-02T13:21:17Z</time>
      </trkpt>
      <trkpt lat="45.62864" lon="-0.02275">
        <ele>20.75</ele>
        <time>2019-11-02T13:21:47Z</time>
      </trkpt>
      <trkpt lat="45.6274" lon="-0.02406">
        <ele>19.192</ele>
        <time>2019-11-02T13:22:17Z</time>
      </trkpt>
      <trkpt lat="45.62607" lon="-0.0254">
        <ele>18.502</ele>
        <time>2019-11-02T13:22:50Z</time>
      </trkpt>
      <trkpt lat="45.62538" lon="-0.02679">
        <ele>22.919</ele>
        <time>2019-11-02T13:23:20Z</time>
      </trkpt>
      <trkpt lat="45.62415" lon="-0.02758">
        <ele>20.051</ele>
        <time>2019-11-02T13:23:50Z</time>
      </trkpt>
      <trkpt lat="45.623" lon="-0.02794">
        <ele>26.891</ele>
        <time>2019-11-02T13:24:20Z</time>
      </trkpt>
      <trkpt lat="45.62232" lon="-0.02689">
        <ele>29.214</ele>
        <time>2019-11-02T13:24:50Z</time>
      </trkpt>
      <trkpt lat="45.62238" lon="-0.02564">
        <ele>23.674</ele>
        <time>2019-11-02T13:25:20Z</time>
      </trkpt>
      <trkpt lat="45.6226" lon="-0.02292">
        <ele>21.745</ele>
        <time>2019-11-02T13:25:50Z</time>
      </trkpt>
      <trkpt lat="45.62176" lon="-0.02083">
        <ele>23.494</ele>
        <time>2019-11-02T13:26:20Z</time>
      </trkpt>
      <trkpt lat="45.62088" lon="-0.01897">
        <ele>22.612</ele>
        <time>2019-11-02T13:26:50Z</time>
      </trkpt>
      <trkpt lat="45.62019" lon="-0.01767">
        <ele>26.037</ele>
        <time>2019-11-02T13:27:20Z</time>
      </trkpt>
      <trkpt lat="45.61911" lon="-0.01814">
        <ele>22.059</ele>
        <time>2019-11-02T13:27:50Z</time>
      </trkpt>
      <trkpt lat="45.6182" lon="-0.01914">
        <ele>27.968</ele>
        <time>2019-11-02T13:28:20Z</time>
      </trkpt>
      <trkpt lat="45.61666" lon="-0.01949">
        <ele>23.01</ele>
        <time>2019-11-02T13:28:50Z</time>
      </trkpt>
      <trkpt lat="45.61511" lon="-0.02009">
        <ele>20.699</ele>
        <time>2019-11-02T13:29:23Z</time>
      </trkpt>
      <trkpt lat="45.61379" lon="-0.02087">
        <ele>20.433</ele>
        <time>2019-11-02T13:29:53Z</time>
      </trkpt>
      <trkpt lat="45.61262" lon="-0.02157">
        <ele>20.969</ele>
        <time>2019-11-02T13:30:23Z</time>
      </trkpt>
      <trkpt lat="45.61137" lon="-0.02212">
        <ele>24.435</ele>
        <time>2019-11-02T13:30:53Z</time>
      </trkpt>
      <trkpt lat="45.60989" lon="-0.02213">
        <ele>21.972</ele>
        <time>2019-11-02T13:31:23Z</time>
      </trkpt>
      <trkpt lat="45.60844" lon="-0.02283">
        <ele>24.312</ele>
        <time>2019-11-02T13:31:53Z</time>
      </trkpt>
      <trkpt lat="45.60739" lon="-0.02361">
        <ele>20.158</ele>
        <time>2019-11-02T13:32:23Z</time>
      </trkpt>
      <trkpt lat="45.60643" lon="-0.02443">
        <ele>25.828</ele>
        <time>2019-11-02T13:32:53Z</time>
      </trkpt>
      <trkpt lat="45.60523" lon="-0.02544">
        <ele>24.154</ele>
        <time>2019-11-02T13:33:23Z</time>
      </trkpt>
      <trkpt lat="45.60396" lon="-0.02631">
        <ele>18.614</ele>
        <time>2019-11-02T13:33:53Z</time>
      </trkpt>
      <trkpt lat="45.60272" lon="-0.02723">
        <ele>17.415</ele>
        <time>2019-11-02T13:34:23Z</time>
      </trkpt>
      <trkpt lat="45.60148" lon="-0.02847">
        <ele>20.164</ele>
        <time>2019-11-02T13:34:53Z</time>
      </trkpt>
      <trkpt lat="45.60046" lon="-0.02984">
        <ele>16.653</ele>
        <time>2019-11-02T13:35:23Z</time>
      </trkpt>
      <trkpt lat="45.59972" lon="-0.03172">
        <ele>15.84</ele>
        <time>2019-11-02T13:35:56Z</time>
      </trkpt>
      <trkpt lat="45.59893" lon="-0.0333">
        <ele>16.733</ele>
        <time>2019-11-02T13:36:26Z</time>
      </trkpt>
      <trkpt lat="45.59806" lon="-0.03466">
        <ele>16.56</ele>
        <time>2019-11-02T13:36:56Z</time>
      </trkpt>
      <trkpt lat="45.59734" lon="-0.03586">
        <ele>16.413</ele>
        <time>2019-11-02T13:37:26Z</time>
      </trkpt>
      <trkpt lat="45.59675" lon="-0.03683">
        <ele>19.031</ele>
        <time>2019-11-02T13:37:56Z</time>
      </trkpt>
      <trkpt lat="45.59648" lon="-0.03867">
        <ele>19.438</ele>
        <time>2019-11-02T13:38:26Z</time>
      </trkpt>
      <trkpt lat="45.59682" lon="-0.04052">
        <ele>24.815</ele>
        <time>2019-11-02T13:38:56Z</time>
      </trkpt>
      <trkpt lat="45.59699" lon="-0.04255">
        <ele>23.62</ele>
        <time>2019-11-02T13:39:26Z</time>
      </trkpt>
      <trkpt lat="45.59707" lon="-0.0447">
        <ele>26.829</ele>
        <time>2019-11-02T13:39:56Z</time>
      </trkpt>
      <trkpt lat="45.59714" lon="-0.04644">
        <ele>25.916</ele>
        <time>2019-11-02T13:40:26Z</time>
      </trkpt>
      <trkpt lat="45.59682" lon="-0.04753">
        <ele>28.285</ele>
        <time>2019-11-02T13:40:56Z</time>
      </trkpt>
      <trkpt lat="45.59648" lon="-0.04836">
        <ele>28.101</ele>
        <time>2019-11-02T13:41:29Z</time>
      </trkpt>
      <trkpt lat="45.59643" lon="-0.04926">
        <ele>40.408</ele>
        <time>2019-11-02T13:41:59Z</time>
      </trkpt>
      <trkpt lat="45.59662" lon="-0.05028">
        <ele>47.303</ele>
        <time>2019-11-02T13:42:29Z</time>
      </trkpt>
      <trkpt lat="45.59805" lon="-0.05145">
        <ele>41.674</ele>
        <time>2019-11-02T13:43:02Z</time>
      </trkpt>
      <trkpt lat="45.59918" lon="-0.05164">
        <ele>25.384</ele>
        <time>2019-11-02T13:43:32Z</time>
      </trkpt>
      <trkpt lat="45.59875" lon="-0.05046">
        <ele>26.546</ele>
        <time>2019-11-02T13:44:02Z</time>
      </trkpt>
      <trkpt lat="45.59867" lon="-0.0502">
        <ele>26.604</ele>
        <time>2019-11-02T14:05:17Z</time>
      </trkpt>
      <trkpt lat="45.5994" lon="-0.05053">
        <ele>31.027</ele>
        <time>2019-11-02T14:05:47Z</time>
      </trkpt>
      <trkpt lat="45.60031" lon="-0.05092">
        <ele>29.16</ele>
        <time>2019-11-02T14:06:17Z</time>
      </trkpt>
      <trkpt lat="45.60105" lon="-0.05147">
        <ele>26.996</ele>
        <time>2019-11-02T14:06:47Z</time>
      </trkpt>
      <trkpt lat="45.6016" lon="-0.05053">
        <ele>26.16</ele>
        <time>2019-11-02T14:07:17Z</time>
      </trkpt>
      <trkpt lat="45.60091" lon="-0.04889">
        <ele>32.614</ele>
        <time>2019-11-02T14:07:47Z</time>
      </trkpt>
      <trkpt lat="45.6007" lon="-0.04729">
        <ele>31.377</ele>
        <time>2019-11-02T14:08:17Z</time>
      </trkpt>
      <trkpt lat="45.60074" lon="-0.04651">
        <ele>29.04</ele>
        <time>2019-11-02T14:11:35Z</time>
      </trkpt>
      <trkpt lat="45.60066" lon="-0.0474">
        <ele>27.08</ele>
        <time>2019-11-02T14:12:11Z</time>
      </trkpt>
      <trkpt lat="45.60097" lon="-0.04907">
        <ele>23.85</ele>
        <time>2019-11-02T14:12:41Z</time>
      </trkpt>
      <trkpt lat="45.60154" lon="-0.05059">
        <ele>25.764</ele>
        <time>2019-11-02T14:13:14Z</time>
      </trkpt>
      <trkpt lat="45.60139" lon="-0.05104">
        <ele>23.143</ele>
        <time>2019-11-02T14:13:47Z</time>
      </trkpt>
      <trkpt lat="45.6006" lon="-0.05136">
        <ele>24.693</ele>
        <time>2019-11-02T14:14:17Z</time>
      </trkpt>
      <trkpt lat="45.59957" lon="-0.05088">
        <ele>22.669</ele>
        <time>2019-11-02T14:14:47Z</time>
      </trkpt>
      <trkpt lat="45.59899" lon="-0.05204">
        <ele>22.695</ele>
        <time>2019-11-02T14:15:17Z</time>
      </trkpt>
      <trkpt lat="45.59938" lon="-0.05263">
        <ele>28.276</ele>
        <time>2019-11-02T14:15:47Z</time>
      </trkpt>
      <trkpt lat="45.60002" lon="-0.05362">
        <ele>34.399</ele>
        <time>2019-11-02T14:16:17Z</time>
      </trkpt>
      <trkpt lat="45.60007" lon="-0.05463">
        <ele>35.965</ele>
        <time>2019-11-02T14:16:47Z</time>
      </trkpt>
      <trkpt lat="45.59997" lon="-0.05498">
        <ele>31.202</ele>
        <time>2019-11-02T14:17:23Z</time>
      </trkpt>
      <trkpt lat="45.59992" lon="-0.05503">
        <ele>30.474</ele>
        <time>2019-11-02T14:19:53Z</time>
      </trkpt>
      <trkpt lat="45.60003" lon="-0.05424">
        <ele>42.231</ele>
        <time>2019-11-02T14:20:26Z</time>
      </trkpt>
      <trkpt lat="45.59998" lon="-0.05467">
        <ele>41.698</ele>
        <time>2019-11-02T14:21:02Z</time>
      </trkpt>
      <trkpt lat="45.60013" lon="-0.05357">
        <ele>39.699</ele>
        <time>2019-11-02T14:21:32Z</time>
      </trkpt>
      <trkpt lat="45.59922" lon="-0.0525">
        <ele>29.267</ele>
        <time>2019-11-02T14:22:05Z</time>
      </trkpt>
      <trkpt lat="45.59912" lon="-0.05172">
        <ele>25.687</ele>
        <time>2019-11-02T14:22:38Z</time>
      </trkpt>
      <trkpt lat="45.59963" lon="-0.05059">
        <ele>25.696</ele>
        <time>2019-11-02T14:23:08Z</time>
      </trkpt>
      <trkpt lat="45.59964" lon="-0.05088">
        <ele>31.715</ele>
        <time>2019-11-02T14:23:59Z</time>
      </trkpt>
      <trkpt lat="45.59943" lon="-0.05041">
        <ele>29.014</ele>
        <time>2019-11-02T14:25:11Z</time>
      </trkpt>
      <trkpt lat="45.59954" lon="-0.05056">
        <ele>26.505</ele>
        <time>2019-11-02T14:26:20Z</time>
      </trkpt>
      <trkpt lat="45.59967" lon="-0.05063">
        <ele>23.332</ele>
        <time>2019-11-02T14:27:53Z</time>
      </trkpt>
    </trkseg>
  </trk>
  <trk>
    <name><![CDATA[Tracé 20191103-093812]]></name>
    <trkseg>
      <trkpt lat="45.60116" lon="-0.04644">
        <ele>5.914</ele>
        <time>2019-11-03T08:38:39Z</time>
      </trkpt>
      <trkpt lat="45.60075" lon="-0.04711">
        <ele>16.261</ele>
        <time>2019-11-03T08:54:07Z</time>
      </trkpt>
      <trkpt lat="45.60087" lon="-0.0486">
        <ele>17.361</ele>
        <time>2019-11-03T08:54:46Z</time>
      </trkpt>
      <trkpt lat="45.6014" lon="-0.05013">
        <ele>19.877</ele>
        <time>2019-11-03T08:55:19Z</time>
      </trkpt>
      <trkpt lat="45.6025" lon="-0.05008">
        <ele>17.307</ele>
        <time>2019-11-03T08:55:52Z</time>
      </trkpt>
      <trkpt lat="45.60421" lon="-0.04956">
        <ele>19.606</ele>
        <time>2019-11-03T08:56:28Z</time>
      </trkpt>
      <trkpt lat="45.6056" lon="-0.04852">
        <ele>18.225</ele>
        <time>2019-11-03T08:57:01Z</time>
      </trkpt>
      <trkpt lat="45.60696" lon="-0.0475">
        <ele>22.247</ele>
        <time>2019-11-03T08:57:37Z</time>
      </trkpt>
      <trkpt lat="45.60816" lon="-0.04673">
        <ele>25.203</ele>
        <time>2019-11-03T08:58:10Z</time>
      </trkpt>
      <trkpt lat="45.60954" lon="-0.04632">
        <ele>24.315</ele>
        <time>2019-11-03T08:58:46Z</time>
      </trkpt>
      <trkpt lat="45.61074" lon="-0.04702">
        <ele>25.515</ele>
        <time>2019-11-03T08:59:19Z</time>
      </trkpt>
      <trkpt lat="45.6124" lon="-0.04785">
        <ele>21.518</ele>
        <time>2019-11-03T08:59:52Z</time>
      </trkpt>
      <trkpt lat="45.61429" lon="-0.04821">
        <ele>23.817</ele>
        <time>2019-11-03T09:00:28Z</time>
      </trkpt>
      <trkpt lat="45.61589" lon="-0.049">
        <ele>20.44</ele>
        <time>2019-11-03T09:01:01Z</time>
      </trkpt>
      <trkpt lat="45.61746" lon="-0.04987">
        <ele>18.396</ele>
        <time>2019-11-03T09:01:37Z</time>
      </trkpt>
      <trkpt lat="45.61908" lon="-0.05009">
        <ele>17.997</ele>
        <time>2019-11-03T09:02:10Z</time>
      </trkpt>
      <trkpt lat="45.62068" lon="-0.04999">
        <ele>18.763</ele>
        <time>2019-11-03T09:02:46Z</time>
      </trkpt>
      <trkpt lat="45.622" lon="-0.0499">
        <ele>17.707</ele>
        <time>2019-11-03T09:03:19Z</time>
      </trkpt>
      <trkpt lat="45.62339" lon="-0.04983">
        <ele>19.019</ele>
        <time>2019-11-03T09:03:52Z</time>
      </trkpt>
      <trkpt lat="45.62476" lon="-0.04996">
        <ele>18.431</ele>
        <time>2019-11-03T09:04:28Z</time>
      </trkpt>
      <trkpt lat="45.6258" lon="-0.05046">
        <ele>22.218</ele>
        <time>2019-11-03T09:05:01Z</time>
      </trkpt>
      <trkpt lat="45.62688" lon="-0.05095">
        <ele>21.327</ele>
        <time>2019-11-03T09:05:37Z</time>
      </trkpt>
      <trkpt lat="45.62785" lon="-0.05214">
        <ele>20.272</ele>
        <time>2019-11-03T09:06:10Z</time>
      </trkpt>
      <trkpt lat="45.6288" lon="-0.05364">
        <ele>21.218</ele>
        <time>2019-11-03T09:06:46Z</time>
      </trkpt>
      <trkpt lat="45.62981" lon="-0.0551">
        <ele>19.329</ele>
        <time>2019-11-03T09:07:19Z</time>
      </trkpt>
      <trkpt lat="45.63093" lon="-0.05593">
        <ele>18.84</ele>
        <time>2019-11-03T09:07:52Z</time>
      </trkpt>
      <trkpt lat="45.63199" lon="-0.05568">
        <ele>20.257</ele>
        <time>2019-11-03T09:08:28Z</time>
      </trkpt>
      <trkpt lat="45.63283" lon="-0.05475">
        <ele>27.09</ele>
        <time>2019-11-03T09:09:01Z</time>
      </trkpt>
      <trkpt lat="45.63368" lon="-0.05536">
        <ele>26.531</ele>
        <time>2019-11-03T09:09:37Z</time>
      </trkpt>
      <trkpt lat="45.63455" lon="-0.0562">
        <ele>28.882</ele>
        <time>2019-11-03T09:10:10Z</time>
      </trkpt>
      <trkpt lat="45.63576" lon="-0.05706">
        <ele>25.306</ele>
        <time>2019-11-03T09:10:46Z</time>
      </trkpt>
      <trkpt lat="45.63682" lon="-0.05774">
        <ele>24.123</ele>
        <time>2019-11-03T09:11:19Z</time>
      </trkpt>
      <trkpt lat="45.63824" lon="-0.05856">
        <ele>20.716</ele>
        <time>2019-11-03T09:11:52Z</time>
      </trkpt>
      <trkpt lat="45.63982" lon="-0.05911">
        <ele>19.92</ele>
        <time>2019-11-03T09:12:28.001Z</time>
      </trkpt>
      <trkpt lat="45.64064" lon="-0.06088">
        <ele>15.602</ele>
        <time>2019-11-03T09:13:01.001Z</time>
      </trkpt>
      <trkpt lat="45.63978" lon="-0.06276">
        <ele>15.169</ele>
        <time>2019-11-03T09:13:37.001Z</time>
      </trkpt>
      <trkpt lat="45.63841" lon="-0.06292">
        <ele>14.715</ele>
        <time>2019-11-03T09:14:10.001Z</time>
      </trkpt>
      <trkpt lat="45.63657" lon="-0.06291">
        <ele>13.97</ele>
        <time>2019-11-03T09:14:46.001Z</time>
      </trkpt>
      <trkpt lat="45.63558" lon="-0.06269">
        <ele>23.354</ele>
        <time>2019-11-03T09:15:19.001Z</time>
      </trkpt>
      <trkpt lat="45.63424" lon="-0.06198">
        <ele>14.997</ele>
        <time>2019-11-03T09:15:52.001Z</time>
      </trkpt>
      <trkpt lat="45.63317" lon="-0.06383">
        <ele>14.358</ele>
        <time>2019-11-03T09:16:28.001Z</time>
      </trkpt>
      <trkpt lat="45.6325" lon="-0.06552">
        <ele>15.516</ele>
        <time>2019-11-03T09:17:01.001Z</time>
      </trkpt>
      <trkpt lat="45.63198" lon="-0.06738">
        <ele>15.426</ele>
        <time>2019-11-03T09:17:37.001Z</time>
      </trkpt>
      <trkpt lat="45.63157" lon="-0.06905">
        <ele>15.932</ele>
        <time>2019-11-03T09:18:10.001Z</time>
      </trkpt>
      <trkpt lat="45.63111" lon="-0.07122">
        <ele>16.832</ele>
        <time>2019-11-03T09:18:46.001Z</time>
      </trkpt>
      <trkpt lat="45.63089" lon="-0.07315">
        <ele>17.526</ele>
        <time>2019-11-03T09:19:19.001Z</time>
      </trkpt>
      <trkpt lat="45.63085" lon="-0.07437">
        <ele>20.79</ele>
        <time>2019-11-03T09:19:52.001Z</time>
      </trkpt>
      <trkpt lat="45.63157" lon="-0.07509">
        <ele>20.561</ele>
        <time>2019-11-03T09:20:28.001Z</time>
      </trkpt>
      <trkpt lat="45.63305" lon="-0.07505">
        <ele>20.504</ele>
        <time>2019-11-03T09:21:01.001Z</time>
      </trkpt>
      <trkpt lat="45.63456" lon="-0.0743">
        <ele>22.08</ele>
        <time>2019-11-03T09:21:37.001Z</time>
      </trkpt>
      <trkpt lat="45.63592" lon="-0.07396">
        <ele>16.856</ele>
        <time>2019-11-03T09:22:10.001Z</time>
      </trkpt>
      <trkpt lat="45.63728" lon="-0.07499">
        <ele>15.151</ele>
        <time>2019-11-03T09:22:46.001Z</time>
      </trkpt>
      <trkpt lat="45.63829" lon="-0.07626">
        <ele>17.58</ele>
        <time>2019-11-03T09:23:19.001Z</time>
      </trkpt>
      <trkpt lat="45.63925" lon="-0.07737">
        <ele>16.675</ele>
        <time>2019-11-03T09:23:52.001Z</time>
      </trkpt>
      <trkpt lat="45.64015" lon="-0.07876">
        <ele>14.562</ele>
        <time>2019-11-03T09:24:28.001Z</time>
      </trkpt>
      <trkpt lat="45.64066" lon="-0.08056">
        <ele>12.881</ele>
        <time>2019-11-03T09:25:01.001Z</time>
      </trkpt>
      <trkpt lat="45.6406" lon="-0.08182">
        <ele>18.405</ele>
        <time>2019-11-03T09:25:37.001Z</time>
      </trkpt>
      <trkpt lat="45.6397" lon="-0.08286">
        <ele>18.522</ele>
        <time>2019-11-03T09:26:10.001Z</time>
      </trkpt>
      <trkpt lat="45.64044" lon="-0.08407">
        <ele>16.397</ele>
        <time>2019-11-03T09:26:46.001Z</time>
      </trkpt>
      <trkpt lat="45.64075" lon="-0.08558">
        <ele>16.082</ele>
        <time>2019-11-03T09:27:19.001Z</time>
      </trkpt>
      <trkpt lat="45.6413" lon="-0.087">
        <ele>15.961</ele>
        <time>2019-11-03T09:27:52.001Z</time>
      </trkpt>
      <trkpt lat="45.64218" lon="-0.08796">
        <ele>15.648</ele>
        <time>2019-11-03T09:28:28.001Z</time>
      </trkpt>
      <trkpt lat="45.64274" lon="-0.08928">
        <ele>16.146</ele>
        <time>2019-11-03T09:29:01.001Z</time>
      </trkpt>
      <trkpt lat="45.64328" lon="-0.09082">
        <ele>16.682</ele>
        <time>2019-11-03T09:29:37.001Z</time>
      </trkpt>
      <trkpt lat="45.64378" lon="-0.09286">
        <ele>18.397</ele>
        <time>2019-11-03T09:30:10.001Z</time>
      </trkpt>
      <trkpt lat="45.6443" lon="-0.0939">
        <ele>22.388</ele>
        <time>2019-11-03T09:30:46.001Z</time>
      </trkpt>
      <trkpt lat="45.64494" lon="-0.0951">
        <ele>24.288</ele>
        <time>2019-11-03T09:31:19.001Z</time>
      </trkpt>
      <trkpt lat="45.64574" lon="-0.0965">
        <ele>21.358</ele>
        <time>2019-11-03T09:31:52.001Z</time>
      </trkpt>
      <trkpt lat="45.64663" lon="-0.09846">
        <ele>14.642</ele>
        <time>2019-11-03T09:32:28.001Z</time>
      </trkpt>
      <trkpt lat="45.64731" lon="-0.10002">
        <ele>13.825</ele>
        <time>2019-11-03T09:33:01.001Z</time>
      </trkpt>
      <trkpt lat="45.64802" lon="-0.10142">
        <ele>12.941</ele>
        <time>2019-11-03T09:33:37.001Z</time>
      </trkpt>
      <trkpt lat="45.64838" lon="-0.10286">
        <ele>20.504</ele>
        <time>2019-11-03T09:34:10.001Z</time>
      </trkpt>
      <trkpt lat="45.64875" lon="-0.10507">
        <ele>15.673</ele>
        <time>2019-11-03T09:34:43.001Z</time>
      </trkpt>
      <trkpt lat="45.64918" lon="-0.10625">
        <ele>17.832</ele>
        <time>2019-11-03T09:35:22.001Z</time>
      </trkpt>
      <trkpt lat="45.64881" lon="-0.1072">
        <ele>23.116</ele>
        <time>2019-11-03T09:35:55.001Z</time>
      </trkpt>
      <trkpt lat="45.64851" lon="-0.10887">
        <ele>23.82</ele>
        <time>2019-11-03T09:36:31.001Z</time>
      </trkpt>
      <trkpt lat="45.64893" lon="-0.10994">
        <ele>24.386</ele>
        <time>2019-11-03T09:37:04.001Z</time>
      </trkpt>
      <trkpt lat="45.64951" lon="-0.11145">
        <ele>21.698</ele>
        <time>2019-11-03T09:37:40.001Z</time>
      </trkpt>
      <trkpt lat="45.64997" lon="-0.11314">
        <ele>21.919</ele>
        <time>2019-11-03T09:38:13.001Z</time>
      </trkpt>
      <trkpt lat="45.65032" lon="-0.11486">
        <ele>23.391</ele>
        <time>2019-11-03T09:38:46.001Z</time>
      </trkpt>
      <trkpt lat="45.65179" lon="-0.11594">
        <ele>21.243</ele>
        <time>2019-11-03T09:39:22.001Z</time>
      </trkpt>
      <trkpt lat="45.65316" lon="-0.11663">
        <ele>18.836</ele>
        <time>2019-11-03T09:39:55.001Z</time>
      </trkpt>
      <trkpt lat="45.65427" lon="-0.11825">
        <ele>20.689</ele>
        <time>2019-11-03T09:40:31.001Z</time>
      </trkpt>
      <trkpt lat="45.65519" lon="-0.11974">
        <ele>21.009</ele>
        <time>2019-11-03T09:41:04.001Z</time>
      </trkpt>
      <trkpt lat="45.65637" lon="-0.12106">
        <ele>24.175</ele>
        <time>2019-11-03T09:41:40.001Z</time>
      </trkpt>
      <trkpt lat="45.65746" lon="-0.12237">
        <ele>26.098</ele>
        <time>2019-11-03T09:42:13.001Z</time>
      </trkpt>
      <trkpt lat="45.65873" lon="-0.12362">
        <ele>20.339</ele>
        <time>2019-11-03T09:42:46.001Z</time>
      </trkpt>
      <trkpt lat="45.66005" lon="-0.12374">
        <ele>14.945</ele>
        <time>2019-11-03T09:43:22.001Z</time>
      </trkpt>
      <trkpt lat="45.66129" lon="-0.12421">
        <ele>17.945</ele>
        <time>2019-11-03T09:43:55.001Z</time>
      </trkpt>
      <trkpt lat="45.66215" lon="-0.1254">
        <ele>18.684</ele>
        <time>2019-11-03T09:44:31.001Z</time>
      </trkpt>
      <trkpt lat="45.66328" lon="-0.12527">
        <ele>17.314</ele>
        <time>2019-11-03T09:45:04.001Z</time>
      </trkpt>
      <trkpt lat="45.66396" lon="-0.1269">
        <ele>16.016</ele>
        <time>2019-11-03T09:45:40.001Z</time>
      </trkpt>
      <trkpt lat="45.66451" lon="-0.12845">
        <ele>14.167</ele>
        <time>2019-11-03T09:46:13.001Z</time>
      </trkpt>
      <trkpt lat="45.66449" lon="-0.13008">
        <ele>16.854</ele>
        <time>2019-11-03T09:46:46.001Z</time>
      </trkpt>
      <trkpt lat="45.665" lon="-0.13175">
        <ele>16.228</ele>
        <time>2019-11-03T09:47:22.001Z</time>
      </trkpt>
      <trkpt lat="45.66548" lon="-0.13318">
        <ele>16.744</ele>
        <time>2019-11-03T09:47:55.001Z</time>
      </trkpt>
      <trkpt lat="45.6659" lon="-0.13475">
        <ele>17.284</ele>
        <time>2019-11-03T09:48:31.001Z</time>
      </trkpt>
      <trkpt lat="45.66627" lon="-0.13636">
        <ele>20.146</ele>
        <time>2019-11-03T09:49:04.001Z</time>
      </trkpt>
      <trkpt lat="45.66764" lon="-0.13647">
        <ele>22.125</ele>
        <time>2019-11-03T09:49:40.001Z</time>
      </trkpt>
      <trkpt lat="45.66868" lon="-0.13713">
        <ele>22.859</ele>
        <time>2019-11-03T09:50:13.001Z</time>
      </trkpt>
      <trkpt lat="45.66906" lon="-0.13951">
        <ele>13.91</ele>
        <time>2019-11-03T09:50:46.001Z</time>
      </trkpt>
      <trkpt lat="45.6694" lon="-0.14179">
        <ele>12.968</ele>
        <time>2019-11-03T09:51:22.001Z</time>
      </trkpt>
      <trkpt lat="45.66994" lon="-0.14372">
        <ele>13.66</ele>
        <time>2019-11-03T09:51:55.001Z</time>
      </trkpt>
      <trkpt lat="45.67038" lon="-0.14561">
        <ele>18.459</ele>
        <time>2019-11-03T09:52:31.001Z</time>
      </trkpt>
      <trkpt lat="45.67076" lon="-0.14731">
        <ele>17.276</ele>
        <time>2019-11-03T09:53:04.001Z</time>
      </trkpt>
      <trkpt lat="45.67052" lon="-0.14892">
        <ele>17.456</ele>
        <time>2019-11-03T09:53:40.001Z</time>
      </trkpt>
      <trkpt lat="45.67036" lon="-0.15063">
        <ele>14.41</ele>
        <time>2019-11-03T09:54:13.001Z</time>
      </trkpt>
      <trkpt lat="45.67043" lon="-0.15243">
        <ele>11.376</ele>
        <time>2019-11-03T09:54:46.001Z</time>
      </trkpt>
      <trkpt lat="45.67052" lon="-0.15447">
        <ele>12.883</ele>
        <time>2019-11-03T09:55:22.001Z</time>
      </trkpt>
      <trkpt lat="45.67064" lon="-0.15625">
        <ele>11.614</ele>
        <time>2019-11-03T09:55:55.001Z</time>
      </trkpt>
      <trkpt lat="45.67078" lon="-0.15815">
        <ele>12.922</ele>
        <time>2019-11-03T09:56:31.001Z</time>
      </trkpt>
      <trkpt lat="45.67095" lon="-0.16018">
        <ele>11.644</ele>
        <time>2019-11-03T09:57:04.001Z</time>
      </trkpt>
      <trkpt lat="45.67143" lon="-0.16247">
        <ele>9.392</ele>
        <time>2019-11-03T09:57:40.001Z</time>
      </trkpt>
      <trkpt lat="45.6716" lon="-0.16448">
        <ele>10.318</ele>
        <time>2019-11-03T09:58:13.001Z</time>
      </trkpt>
      <trkpt lat="45.67183" lon="-0.16641">
        <ele>12.088</ele>
        <time>2019-11-03T09:58:46.001Z</time>
      </trkpt>
      <trkpt lat="45.67207" lon="-0.16846">
        <ele>12.981</ele>
        <time>2019-11-03T09:59:22.001Z</time>
      </trkpt>
      <trkpt lat="45.67227" lon="-0.17016">
        <ele>10.728</ele>
        <time>2019-11-03T09:59:55.001Z</time>
      </trkpt>
      <trkpt lat="45.67251" lon="-0.17214">
        <ele>12.855</ele>
        <time>2019-11-03T10:00:31.001Z</time>
      </trkpt>
      <trkpt lat="45.67271" lon="-0.17393">
        <ele>14.913</ele>
        <time>2019-11-03T10:01:04.001Z</time>
      </trkpt>
      <trkpt lat="45.67293" lon="-0.17598">
        <ele>17.259</ele>
        <time>2019-11-03T10:01:40.001Z</time>
      </trkpt>
      <trkpt lat="45.67301" lon="-0.1779">
        <ele>12.205</ele>
        <time>2019-11-03T10:02:13.001Z</time>
      </trkpt>
      <trkpt lat="45.67189" lon="-0.17866">
        <ele>12.288</ele>
        <time>2019-11-03T10:02:49.001Z</time>
      </trkpt>
      <trkpt lat="45.67046" lon="-0.17961">
        <ele>17.49</ele>
        <time>2019-11-03T10:03:25.001Z</time>
      </trkpt>
      <trkpt lat="45.67057" lon="-0.18081">
        <ele>13.644</ele>
        <time>2019-11-03T10:03:58.001Z</time>
      </trkpt>
      <trkpt lat="45.67013" lon="-0.18288">
        <ele>12.299</ele>
        <time>2019-11-03T10:04:34.001Z</time>
      </trkpt>
      <trkpt lat="45.67006" lon="-0.1845">
        <ele>14.881</ele>
        <time>2019-11-03T10:05:07.001Z</time>
      </trkpt>
      <trkpt lat="45.67053" lon="-0.18635">
        <ele>14.68</ele>
        <time>2019-11-03T10:05:43.001Z</time>
      </trkpt>
      <trkpt lat="45.67074" lon="-0.18802">
        <ele>14.213</ele>
        <time>2019-11-03T10:06:16Z</time>
      </trkpt>
      <trkpt lat="45.671" lon="-0.18969">
        <ele>12.733</ele>
        <time>2019-11-03T10:06:49.001Z</time>
      </trkpt>
      <trkpt lat="45.67131" lon="-0.19115">
        <ele>13.821</ele>
        <time>2019-11-03T10:07:25.001Z</time>
      </trkpt>
      <trkpt lat="45.67129" lon="-0.19254">
        <ele>16.812</ele>
        <time>2019-11-03T10:07:58.001Z</time>
      </trkpt>
      <trkpt lat="45.67146" lon="-0.19399">
        <ele>20.413</ele>
        <time>2019-11-03T10:08:34.001Z</time>
      </trkpt>
      <trkpt lat="45.67187" lon="-0.19591">
        <ele>18.861</ele>
        <time>2019-11-03T10:09:07.001Z</time>
      </trkpt>
      <trkpt lat="45.67216" lon="-0.19814">
        <ele>18.671</ele>
        <time>2019-11-03T10:09:43.001Z</time>
      </trkpt>
      <trkpt lat="45.67227" lon="-0.20015">
        <ele>14.142</ele>
        <time>2019-11-03T10:10:16Z</time>
      </trkpt>
      <trkpt lat="45.67212" lon="-0.20209">
        <ele>12.496</ele>
        <time>2019-11-03T10:10:49.001Z</time>
      </trkpt>
      <trkpt lat="45.67202" lon="-0.20392">
        <ele>11.875</ele>
        <time>2019-11-03T10:11:25.001Z</time>
      </trkpt>
      <trkpt lat="45.67206" lon="-0.20569">
        <ele>13.478</ele>
        <time>2019-11-03T10:11:58.001Z</time>
      </trkpt>
      <trkpt lat="45.67245" lon="-0.20789">
        <ele>13.014</ele>
        <time>2019-11-03T10:12:34.001Z</time>
      </trkpt>
      <trkpt lat="45.67251" lon="-0.21005">
        <ele>15.3</ele>
        <time>2019-11-03T10:13:07.001Z</time>
      </trkpt>
      <trkpt lat="45.67308" lon="-0.21228">
        <ele>13.792</ele>
        <time>2019-11-03T10:13:43.001Z</time>
      </trkpt>
      <trkpt lat="45.67374" lon="-0.21398">
        <ele>11.014</ele>
        <time>2019-11-03T10:14:16Z</time>
      </trkpt>
      <trkpt lat="45.67416" lon="-0.21576">
        <ele>13.219</ele>
        <time>2019-11-03T10:14:49.001Z</time>
      </trkpt>
      <trkpt lat="45.67337" lon="-0.2173">
        <ele>11.536</ele>
        <time>2019-11-03T10:15:25.001Z</time>
      </trkpt>
      <trkpt lat="45.67363" lon="-0.21915">
        <ele>17.783</ele>
        <time>2019-11-03T10:15:58.001Z</time>
      </trkpt>
      <trkpt lat="45.67351" lon="-0.22171">
        <ele>16.828</ele>
        <time>2019-11-03T10:16:34.001Z</time>
      </trkpt>
      <trkpt lat="45.67327" lon="-0.22341">
        <ele>15.896</ele>
        <time>2019-11-03T10:17:07.001Z</time>
      </trkpt>
      <trkpt lat="45.67347" lon="-0.22366">
        <ele>18.994</ele>
        <time>2019-11-03T10:21:04.001Z</time>
      </trkpt>
      <trkpt lat="45.67424" lon="-0.22383">
        <ele>19.457</ele>
        <time>2019-11-03T10:21:40.001Z</time>
      </trkpt>
      <trkpt lat="45.67549" lon="-0.22412">
        <ele>11.688</ele>
        <time>2019-11-03T10:22:13.001Z</time>
      </trkpt>
      <trkpt lat="45.67704" lon="-0.22516">
        <ele>9.837</ele>
        <time>2019-11-03T10:22:49.001Z</time>
      </trkpt>
      <trkpt lat="45.67814" lon="-0.22624">
        <ele>16.502</ele>
        <time>2019-11-03T10:23:22.001Z</time>
      </trkpt>
      <trkpt lat="45.6794" lon="-0.22637">
        <ele>13.519</ele>
        <time>2019-11-03T10:23:58.001Z</time>
      </trkpt>
      <trkpt lat="45.67944" lon="-0.2272">
        <ele>17.626</ele>
        <time>2019-11-03T10:24:31.001Z</time>
      </trkpt>
      <trkpt lat="45.67938" lon="-0.22852">
        <ele>21.886</ele>
        <time>2019-11-03T10:25:07.001Z</time>
      </trkpt>
      <trkpt lat="45.67916" lon="-0.22968">
        <ele>27.905</ele>
        <time>2019-11-03T10:25:40.001Z</time>
      </trkpt>
      <trkpt lat="45.67869" lon="-0.23058">
        <ele>33.538</ele>
        <time>2019-11-03T10:26:22.001Z</time>
      </trkpt>
      <trkpt lat="45.67814" lon="-0.23145">
        <ele>32.319</ele>
        <time>2019-11-03T10:26:58.001Z</time>
      </trkpt>
      <trkpt lat="45.67801" lon="-0.23343">
        <ele>31.26</ele>
        <time>2019-11-03T10:27:31.001Z</time>
      </trkpt>
      <trkpt lat="45.67767" lon="-0.23609">
        <ele>25.136</ele>
        <time>2019-11-03T10:28:07.001Z</time>
      </trkpt>
      <trkpt lat="45.67702" lon="-0.23876">
        <ele>22.705</ele>
        <time>2019-11-03T10:28:40.001Z</time>
      </trkpt>
      <trkpt lat="45.67684" lon="-0.24068">
        <ele>19.104</ele>
        <time>2019-11-03T10:29:16Z</time>
      </trkpt>
      <trkpt lat="45.67695" lon="-0.24216">
        <ele>19.023</ele>
        <time>2019-11-03T10:29:49.001Z</time>
      </trkpt>
      <trkpt lat="45.67714" lon="-0.24377">
        <ele>19.535</ele>
        <time>2019-11-03T10:30:22.001Z</time>
      </trkpt>
      <trkpt lat="45.67741" lon="-0.24558">
        <ele>18.459</ele>
        <time>2019-11-03T10:30:58.001Z</time>
      </trkpt>
      <trkpt lat="45.67747" lon="-0.24766">
        <ele>20.28</ele>
        <time>2019-11-03T10:31:31.001Z</time>
      </trkpt>
      <trkpt lat="45.67802" lon="-0.24966">
        <ele>19.178</ele>
        <time>2019-11-03T10:32:07.001Z</time>
      </trkpt>
      <trkpt lat="45.67884" lon="-0.24925">
        <ele>20.597</ele>
        <time>2019-11-03T10:32:40.001Z</time>
      </trkpt>
      <trkpt lat="45.6795" lon="-0.2486">
        <ele>25.641</ele>
        <time>2019-11-03T10:33:16Z</time>
      </trkpt>
      <trkpt lat="45.6797" lon="-0.24767">
        <ele>27.923</ele>
        <time>2019-11-03T10:33:52.001Z</time>
      </trkpt>
      <trkpt lat="45.6801" lon="-0.247">
        <ele>36.306</ele>
        <time>2019-11-03T10:34:25.001Z</time>
      </trkpt>
      <trkpt lat="45.68056" lon="-0.24631">
        <ele>40.675</ele>
        <time>2019-11-03T10:35:01.001Z</time>
      </trkpt>
      <trkpt lat="45.68098" lon="-0.24549">
        <ele>50.262</ele>
        <time>2019-11-03T10:35:34.001Z</time>
      </trkpt>
      <trkpt lat="45.68116" lon="-0.2445">
        <ele>53.388</ele>
        <time>2019-11-03T10:36:13.001Z</time>
      </trkpt>
      <trkpt lat="45.68156" lon="-0.24381">
        <ele>51.608</ele>
        <time>2019-11-03T10:36:49.001Z</time>
      </trkpt>
      <trkpt lat="45.68224" lon="-0.24321">
        <ele>54.784</ele>
        <time>2019-11-03T10:37:25.001Z</time>
      </trkpt>
      <trkpt lat="45.6838" lon="-0.24278">
        <ele>47.413</ele>
        <time>2019-11-03T10:37:58.001Z</time>
      </trkpt>
      <trkpt lat="45.68481" lon="-0.24235">
        <ele>45.271</ele>
        <time>2019-11-03T10:38:31.001Z</time>
      </trkpt>
      <trkpt lat="45.6856" lon="-0.24381">
        <ele>41.153</ele>
        <time>2019-11-03T10:39:07.001Z</time>
      </trkpt>
      <trkpt lat="45.68691" lon="-0.245">
        <ele>45.242</ele>
        <time>2019-11-03T10:39:40.001Z</time>
      </trkpt>
      <trkpt lat="45.68803" lon="-0.24652">
        <ele>48</ele>
        <time>2019-11-03T10:40:16Z</time>
      </trkpt>
      <trkpt lat="45.68881" lon="-0.24759">
        <ele>46.141</ele>
        <time>2019-11-03T10:40:49.001Z</time>
      </trkpt>
      <trkpt lat="45.68961" lon="-0.24885">
        <ele>45.67</ele>
        <time>2019-11-03T10:41:25.001Z</time>
      </trkpt>
      <trkpt lat="45.69022" lon="-0.25029">
        <ele>52.225</ele>
        <time>2019-11-03T10:41:58.001Z</time>
      </trkpt>
      <trkpt lat="45.69044" lon="-0.25273">
        <ele>42.122</ele>
        <time>2019-11-03T10:42:31.001Z</time>
      </trkpt>
      <trkpt lat="45.68999" lon="-0.25497">
        <ele>43.043</ele>
        <time>2019-11-03T10:43:07.001Z</time>
      </trkpt>
      <trkpt lat="45.6902" lon="-0.25629">
        <ele>46.75</ele>
        <time>2019-11-03T10:43:40.001Z</time>
      </trkpt>
      <trkpt lat="45.69002" lon="-0.25799">
        <ele>48.873</ele>
        <time>2019-11-03T10:44:16Z</time>
      </trkpt>
      <trkpt lat="45.68962" lon="-0.25866">
        <ele>45.522</ele>
        <time>2019-11-03T10:44:49.001Z</time>
      </trkpt>
      <trkpt lat="45.68905" lon="-0.25934">
        <ele>50.917</ele>
        <time>2019-11-03T10:45:25.001Z</time>
      </trkpt>
      <trkpt lat="45.68923" lon="-0.26054">
        <ele>51.577</ele>
        <time>2019-11-03T10:45:58.001Z</time>
      </trkpt>
      <trkpt lat="45.68957" lon="-0.26253">
        <ele>51.779</ele>
        <time>2019-11-03T10:46:31.001Z</time>
      </trkpt>
      <trkpt lat="45.68949" lon="-0.26469">
        <ele>47.693</ele>
        <time>2019-11-03T10:47:07.001Z</time>
      </trkpt>
      <trkpt lat="45.68942" lon="-0.26657">
        <ele>48.461</ele>
        <time>2019-11-03T10:47:40.001Z</time>
      </trkpt>
      <trkpt lat="45.68919" lon="-0.26921">
        <ele>44.723</ele>
        <time>2019-11-03T10:48:16Z</time>
      </trkpt>
      <trkpt lat="45.68811" lon="-0.27234">
        <ele>30.434</ele>
        <time>2019-11-03T10:48:49.001Z</time>
      </trkpt>
      <trkpt lat="45.68797" lon="-0.27494">
        <ele>21.069</ele>
        <time>2019-11-03T10:49:25.001Z</time>
      </trkpt>
      <trkpt lat="45.68839" lon="-0.27675">
        <ele>26.759</ele>
        <time>2019-11-03T10:49:58.001Z</time>
      </trkpt>
      <trkpt lat="45.68861" lon="-0.27782">
        <ele>23.497</ele>
        <time>2019-11-03T10:50:31.001Z</time>
      </trkpt>
      <trkpt lat="45.68891" lon="-0.27865">
        <ele>23.735</ele>
        <time>2019-11-03T10:52:40.001Z</time>
      </trkpt>
      <trkpt lat="45.6884" lon="-0.28125">
        <ele>14.527</ele>
        <time>2019-11-03T10:53:13.001Z</time>
      </trkpt>
      <trkpt lat="45.68896" lon="-0.28239">
        <ele>20.764</ele>
        <time>2019-11-03T10:53:49.001Z</time>
      </trkpt>
      <trkpt lat="45.68979" lon="-0.28392">
        <ele>19.709</ele>
        <time>2019-11-03T10:54:22.001Z</time>
      </trkpt>
      <trkpt lat="45.69018" lon="-0.28418">
        <ele>20.612</ele>
        <time>2019-11-03T10:54:55.001Z</time>
      </trkpt>
      <trkpt lat="45.68869" lon="-0.28468">
        <ele>11.787</ele>
        <time>2019-11-03T10:55:31.001Z</time>
      </trkpt>
      <trkpt lat="45.68737" lon="-0.28594">
        <ele>7.543</ele>
        <time>2019-11-03T10:56:04.001Z</time>
      </trkpt>
      <trkpt lat="45.68617" lon="-0.28708">
        <ele>7.512</ele>
        <time>2019-11-03T10:56:43.001Z</time>
      </trkpt>
      <trkpt lat="45.68633" lon="-0.28688">
        <ele>12.489</ele>
        <time>2019-11-03T10:58:34.001Z</time>
      </trkpt>
      <trkpt lat="45.6871" lon="-0.28599">
        <ele>21.802</ele>
        <time>2019-11-03T10:59:10.001Z</time>
      </trkpt>
      <trkpt lat="45.68751" lon="-0.28534">
        <ele>21.452</ele>
        <time>2019-11-03T10:59:49.001Z</time>
      </trkpt>
      <trkpt lat="45.68793" lon="-0.28537">
        <ele>11.199</ele>
        <time>2019-11-03T11:00:25.001Z</time>
      </trkpt>
      <trkpt lat="45.68818" lon="-0.28664">
        <ele>6.326</ele>
        <time>2019-11-03T11:01:01.001Z</time>
      </trkpt>
      <trkpt lat="45.68871" lon="-0.28819">
        <ele>7.156</ele>
        <time>2019-11-03T11:01:34.001Z</time>
      </trkpt>
      <trkpt lat="45.68924" lon="-0.28982">
        <ele>9.639</ele>
        <time>2019-11-03T11:02:10.001Z</time>
      </trkpt>
      <trkpt lat="45.68979" lon="-0.29114">
        <ele>5.744</ele>
        <time>2019-11-03T11:02:43.001Z</time>
      </trkpt>
      <trkpt lat="45.69041" lon="-0.29252">
        <ele>7.234</ele>
        <time>2019-11-03T11:03:19.001Z</time>
      </trkpt>
      <trkpt lat="45.69105" lon="-0.29385">
        <ele>4.279</ele>
        <time>2019-11-03T11:03:52.001Z</time>
      </trkpt>
      <trkpt lat="45.69189" lon="-0.29509">
        <ele>5.149</ele>
        <time>2019-11-03T11:04:25.001Z</time>
      </trkpt>
      <trkpt lat="45.69262" lon="-0.29632">
        <ele>9.34</ele>
        <time>2019-11-03T11:05:01.001Z</time>
      </trkpt>
      <trkpt lat="45.69338" lon="-0.2972">
        <ele>9.856</ele>
        <time>2019-11-03T11:05:34.001Z</time>
      </trkpt>
      <trkpt lat="45.6944" lon="-0.29812">
        <ele>7.352</ele>
        <time>2019-11-03T11:06:10.001Z</time>
      </trkpt>
      <trkpt lat="45.69542" lon="-0.29881">
        <ele>8.959</ele>
        <time>2019-11-03T11:06:43.001Z</time>
      </trkpt>
      <trkpt lat="45.69647" lon="-0.29968">
        <ele>10.696</ele>
        <time>2019-11-03T11:07:19.001Z</time>
      </trkpt>
      <trkpt lat="45.69745" lon="-0.30045">
        <ele>8.423</ele>
        <time>2019-11-03T11:07:52.001Z</time>
      </trkpt>
      <trkpt lat="45.69843" lon="-0.30164">
        <ele>5.833</ele>
        <time>2019-11-03T11:08:25.001Z</time>
      </trkpt>
      <trkpt lat="45.69933" lon="-0.30312">
        <ele>6.48</ele>
        <time>2019-11-03T11:09:01.001Z</time>
      </trkpt>
      <trkpt lat="45.70035" lon="-0.30413">
        <ele>9.102</ele>
        <time>2019-11-03T11:09:34.001Z</time>
      </trkpt>
      <trkpt lat="45.70138" lon="-0.30462">
        <ele>7.578</ele>
        <time>2019-11-03T11:10:10.001Z</time>
      </trkpt>
      <trkpt lat="45.70245" lon="-0.30511">
        <ele>4.807</ele>
        <time>2019-11-03T11:10:43.001Z</time>
      </trkpt>
      <trkpt lat="45.70369" lon="-0.3057">
        <ele>5.56</ele>
        <time>2019-11-03T11:11:19.001Z</time>
      </trkpt>
      <trkpt lat="45.70452" lon="-0.30683">
        <ele>7.225</ele>
        <time>2019-11-03T11:11:52.001Z</time>
      </trkpt>
      <trkpt lat="45.70526" lon="-0.30803">
        <ele>9.53</ele>
        <time>2019-11-03T11:12:25.001Z</time>
      </trkpt>
      <trkpt lat="45.7054" lon="-0.30841">
        <ele>10.406</ele>
        <time>2019-11-03T11:13:28.001Z</time>
      </trkpt>
      <trkpt lat="45.70571" lon="-0.30892">
        <ele>11.239</ele>
        <time>2019-11-03T11:15:49.001Z</time>
      </trkpt>
      <trkpt lat="45.70648" lon="-0.31029">
        <ele>11.054</ele>
        <time>2019-11-03T11:16:25.001Z</time>
      </trkpt>
      <trkpt lat="45.7071" lon="-0.31193">
        <ele>8.829</ele>
        <time>2019-11-03T11:16:58.001Z</time>
      </trkpt>
      <trkpt lat="45.70794" lon="-0.31349">
        <ele>5.216</ele>
        <time>2019-11-03T11:17:34.001Z</time>
      </trkpt>
      <trkpt lat="45.70792" lon="-0.31437">
        <ele>6.249</ele>
        <time>2019-11-03T11:18:10.001Z</time>
      </trkpt>
      <trkpt lat="45.70747" lon="-0.3148">
        <ele>7.207</ele>
        <time>2019-11-03T11:19:22.001Z</time>
      </trkpt>
      <trkpt lat="45.70763" lon="-0.31531">
        <ele>9.659</ele>
        <time>2019-11-03T11:20:01.001Z</time>
      </trkpt>
      <trkpt lat="45.70833" lon="-0.31445">
        <ele>11.093</ele>
        <time>2019-11-03T11:20:34.001Z</time>
      </trkpt>
      <trkpt lat="45.70892" lon="-0.31468">
        <ele>9.508</ele>
        <time>2019-11-03T11:21:16Z</time>
      </trkpt>
      <trkpt lat="45.70939" lon="-0.31551">
        <ele>8.434</ele>
        <time>2019-11-03T11:22:16Z</time>
      </trkpt>
      <trkpt lat="45.70981" lon="-0.31731">
        <ele>8.794</ele>
        <time>2019-11-03T11:22:52.001Z</time>
      </trkpt>
      <trkpt lat="45.70996" lon="-0.31905">
        <ele>9.401</ele>
        <time>2019-11-03T11:23:25.001Z</time>
      </trkpt>
      <trkpt lat="45.70985" lon="-0.32084">
        <ele>9.644</ele>
        <time>2019-11-03T11:23:58.001Z</time>
      </trkpt>
      <trkpt lat="45.70957" lon="-0.32228">
        <ele>13.272</ele>
        <time>2019-11-03T11:24:34.001Z</time>
      </trkpt>
      <trkpt lat="45.70881" lon="-0.32379">
        <ele>12.862</ele>
        <time>2019-11-03T11:25:07.001Z</time>
      </trkpt>
      <trkpt lat="45.70757" lon="-0.32442">
        <ele>10.184</ele>
        <time>2019-11-03T11:25:43.001Z</time>
      </trkpt>
      <trkpt lat="45.70647" lon="-0.32445">
        <ele>10.757</ele>
        <time>2019-11-03T11:26:16Z</time>
      </trkpt>
      <trkpt lat="45.70569" lon="-0.32437">
        <ele>9.93</ele>
        <time>2019-11-03T11:27:07.001Z</time>
      </trkpt>
      <trkpt lat="45.70474" lon="-0.32477">
        <ele>9.704</ele>
        <time>2019-11-03T11:27:40.001Z</time>
      </trkpt>
      <trkpt lat="45.70376" lon="-0.32537">
        <ele>11.891</ele>
        <time>2019-11-03T11:28:13.001Z</time>
      </trkpt>
      <trkpt lat="45.70275" lon="-0.32605">
        <ele>16.898</ele>
        <time>2019-11-03T11:28:49.001Z</time>
      </trkpt>
      <trkpt lat="45.70195" lon="-0.32657">
        <ele>12.909</ele>
        <time>2019-11-03T11:29:22.001Z</time>
      </trkpt>
      <trkpt lat="45.70076" lon="-0.32742">
        <ele>8.214</ele>
        <time>2019-11-03T11:29:58.001Z</time>
      </trkpt>
      <trkpt lat="45.70019" lon="-0.32849">
        <ele>10.963</ele>
        <time>2019-11-03T11:30:31.001Z</time>
      </trkpt>
      <trkpt lat="45.69921" lon="-0.32931">
        <ele>6.591</ele>
        <time>2019-11-03T11:31:07.001Z</time>
      </trkpt>
      <trkpt lat="45.6987" lon="-0.33024">
        <ele>15.475</ele>
        <time>2019-11-03T11:31:40.001Z</time>
      </trkpt>
      <trkpt lat="45.69877" lon="-0.33018">
        <ele>13.998</ele>
        <time>2019-11-03T11:37:34.001Z</time>
      </trkpt>
      <trkpt lat="45.69848" lon="-0.33042">
        <ele>8.14</ele>
        <time>2019-11-03T11:57:40.001Z</time>
      </trkpt>
      <trkpt lat="45.69765" lon="-0.33154">
        <ele>12.46</ele>
        <time>2019-11-03T11:58:13.001Z</time>
      </trkpt>
      <trkpt lat="45.69663" lon="-0.33265">
        <ele>9.433</ele>
        <time>2019-11-03T11:58:49.001Z</time>
      </trkpt>
      <trkpt lat="45.69549" lon="-0.3334">
        <ele>9.427</ele>
        <time>2019-11-03T11:59:22.001Z</time>
      </trkpt>
      <trkpt lat="45.69426" lon="-0.33402">
        <ele>11.994</ele>
        <time>2019-11-03T11:59:58.001Z</time>
      </trkpt>
      <trkpt lat="45.69323" lon="-0.33515">
        <ele>19.66</ele>
        <time>2019-11-03T12:00:31.001Z</time>
      </trkpt>
      <trkpt lat="45.69226" lon="-0.33634">
        <ele>15.784</ele>
        <time>2019-11-03T12:01:04.001Z</time>
      </trkpt>
      <trkpt lat="45.69227" lon="-0.33648">
        <ele>10.81</ele>
        <time>2019-11-03T12:01:49.001Z</time>
      </trkpt>
      <trkpt lat="45.69185" lon="-0.33731">
        <ele>18.678</ele>
        <time>2019-11-03T12:02:25.001Z</time>
      </trkpt>
      <trkpt lat="45.6909" lon="-0.33837">
        <ele>19.701</ele>
        <time>2019-11-03T12:03:01.001Z</time>
      </trkpt>
      <trkpt lat="45.68984" lon="-0.33894">
        <ele>12.17</ele>
        <time>2019-11-03T12:03:34.001Z</time>
      </trkpt>
      <trkpt lat="45.68881" lon="-0.3394">
        <ele>13.073</ele>
        <time>2019-11-03T12:04:10.001Z</time>
      </trkpt>
      <trkpt lat="45.68816" lon="-0.33999">
        <ele>14.611</ele>
        <time>2019-11-03T12:05:04.001Z</time>
      </trkpt>
      <trkpt lat="45.68762" lon="-0.34077">
        <ele>15.124</ele>
        <time>2019-11-03T12:05:37.001Z</time>
      </trkpt>
      <trkpt lat="45.68693" lon="-0.34175">
        <ele>13.072</ele>
        <time>2019-11-03T12:06:13.001Z</time>
      </trkpt>
      <trkpt lat="45.68608" lon="-0.34257">
        <ele>16.328</ele>
        <time>2019-11-03T12:06:46.001Z</time>
      </trkpt>
      <trkpt lat="45.68535" lon="-0.34324">
        <ele>14.457</ele>
        <time>2019-11-03T12:07:22.001Z</time>
      </trkpt>
      <trkpt lat="45.68486" lon="-0.34372">
        <ele>18.55</ele>
        <time>2019-11-03T12:08:25.001Z</time>
      </trkpt>
      <trkpt lat="45.68394" lon="-0.34328">
        <ele>13.394</ele>
        <time>2019-11-03T12:09:01.001Z</time>
      </trkpt>
      <trkpt lat="45.68289" lon="-0.34206">
        <ele>11.207</ele>
        <time>2019-11-03T12:09:34.001Z</time>
      </trkpt>
      <trkpt lat="45.68213" lon="-0.34303">
        <ele>12.662</ele>
        <time>2019-11-03T12:10:07.001Z</time>
      </trkpt>
      <trkpt lat="45.6815" lon="-0.34413">
        <ele>12.864</ele>
        <time>2019-11-03T12:10:46.001Z</time>
      </trkpt>
      <trkpt lat="45.68073" lon="-0.34535">
        <ele>10.695</ele>
        <time>2019-11-03T12:11:19.001Z</time>
      </trkpt>
      <trkpt lat="45.67993" lon="-0.34677">
        <ele>11.233</ele>
        <time>2019-11-03T12:11:55.001Z</time>
      </trkpt>
      <trkpt lat="45.67919" lon="-0.3481">
        <ele>14.731</ele>
        <time>2019-11-03T12:12:28.001Z</time>
      </trkpt>
      <trkpt lat="45.67854" lon="-0.3497">
        <ele>19.401</ele>
        <time>2019-11-03T12:13:04.001Z</time>
      </trkpt>
      <trkpt lat="45.67802" lon="-0.35093">
        <ele>22.326</ele>
        <time>2019-11-03T12:13:37.001Z</time>
      </trkpt>
      <trkpt lat="45.6774" lon="-0.35254">
        <ele>15.482</ele>
        <time>2019-11-03T12:14:10.001Z</time>
      </trkpt>
      <trkpt lat="45.67683" lon="-0.35417">
        <ele>13.182</ele>
        <time>2019-11-03T12:14:46.001Z</time>
      </trkpt>
      <trkpt lat="45.67622" lon="-0.3557">
        <ele>17.783</ele>
        <time>2019-11-03T12:15:19.001Z</time>
      </trkpt>
      <trkpt lat="45.67585" lon="-0.3571">
        <ele>15.221</ele>
        <time>2019-11-03T12:15:55.001Z</time>
      </trkpt>
      <trkpt lat="45.67523" lon="-0.3589">
        <ele>15.143</ele>
        <time>2019-11-03T12:16:28.001Z</time>
      </trkpt>
      <trkpt lat="45.67501" lon="-0.36041">
        <ele>21.796</ele>
        <time>2019-11-03T12:17:07.001Z</time>
      </trkpt>
      <trkpt lat="45.67452" lon="-0.36208">
        <ele>23.198</ele>
        <time>2019-11-03T12:17:40.001Z</time>
      </trkpt>
      <trkpt lat="45.67443" lon="-0.36351">
        <ele>20.126</ele>
        <time>2019-11-03T12:18:13.001Z</time>
      </trkpt>
      <trkpt lat="45.67417" lon="-0.36486">
        <ele>13.403</ele>
        <time>2019-11-03T12:18:52.001Z</time>
      </trkpt>
      <trkpt lat="45.67394" lon="-0.36606">
        <ele>15.293</ele>
        <time>2019-11-03T12:19:25.001Z</time>
      </trkpt>
      <trkpt lat="45.6739" lon="-0.36765">
        <ele>18.044</ele>
        <time>2019-11-03T12:20:01.001Z</time>
      </trkpt>
      <trkpt lat="45.67388" lon="-0.36925">
        <ele>21.555</ele>
        <time>2019-11-03T12:20:34.001Z</time>
      </trkpt>
      <trkpt lat="45.67366" lon="-0.37083">
        <ele>24.153</ele>
        <time>2019-11-03T12:21:10.001Z</time>
      </trkpt>
      <trkpt lat="45.67365" lon="-0.37253">
        <ele>21.502</ele>
        <time>2019-11-03T12:21:43.001Z</time>
      </trkpt>
      <trkpt lat="45.67366" lon="-0.37403">
        <ele>20.85</ele>
        <time>2019-11-03T12:22:16Z</time>
      </trkpt>
      <trkpt lat="45.67363" lon="-0.37609">
        <ele>19.117</ele>
        <time>2019-11-03T12:22:52.001Z</time>
      </trkpt>
      <trkpt lat="45.67365" lon="-0.37801">
        <ele>11.566</ele>
        <time>2019-11-03T12:23:25.001Z</time>
      </trkpt>
      <trkpt lat="45.67385" lon="-0.37985">
        <ele>16.744</ele>
        <time>2019-11-03T12:24:01.001Z</time>
      </trkpt>
      <trkpt lat="45.67411" lon="-0.38163">
        <ele>12.599</ele>
        <time>2019-11-03T12:24:34.001Z</time>
      </trkpt>
      <trkpt lat="45.67443" lon="-0.38323">
        <ele>13.895</ele>
        <time>2019-11-03T12:25:10.001Z</time>
      </trkpt>
      <trkpt lat="45.67471" lon="-0.3847">
        <ele>22.256</ele>
        <time>2019-11-03T12:25:43.001Z</time>
      </trkpt>
      <trkpt lat="45.67513" lon="-0.38614">
        <ele>20.874</ele>
        <time>2019-11-03T12:26:16Z</time>
      </trkpt>
      <trkpt lat="45.67529" lon="-0.3877">
        <ele>22.24</ele>
        <time>2019-11-03T12:26:52.001Z</time>
      </trkpt>
      <trkpt lat="45.67551" lon="-0.38844">
        <ele>19.771</ele>
        <time>2019-11-03T12:28:31.001Z</time>
      </trkpt>
      <trkpt lat="45.67578" lon="-0.38963">
        <ele>22.488</ele>
        <time>2019-11-03T12:30:19.001Z</time>
      </trkpt>
      <trkpt lat="45.67611" lon="-0.39118">
        <ele>24.37</ele>
        <time>2019-11-03T12:30:52.001Z</time>
      </trkpt>
      <trkpt lat="45.67679" lon="-0.39291">
        <ele>23.671</ele>
        <time>2019-11-03T12:31:28.001Z</time>
      </trkpt>
      <trkpt lat="45.6773" lon="-0.3945">
        <ele>21.06</ele>
        <time>2019-11-03T12:32:01.001Z</time>
      </trkpt>
      <trkpt lat="45.67769" lon="-0.39606">
        <ele>19.557</ele>
        <time>2019-11-03T12:32:34.001Z</time>
      </trkpt>
      <trkpt lat="45.67676" lon="-0.39711">
        <ele>18.233</ele>
        <time>2019-11-03T12:33:10.001Z</time>
      </trkpt>
      <trkpt lat="45.67627" lon="-0.3977">
        <ele>19.214</ele>
        <time>2019-11-03T12:33:43.001Z</time>
      </trkpt>
      <trkpt lat="45.67585" lon="-0.39924">
        <ele>15.644</ele>
        <time>2019-11-03T12:34:19.001Z</time>
      </trkpt>
      <trkpt lat="45.67501" lon="-0.40071">
        <ele>19.184</ele>
        <time>2019-11-03T12:34:52.001Z</time>
      </trkpt>
      <trkpt lat="45.67428" lon="-0.40225">
        <ele>18.028</ele>
        <time>2019-11-03T12:35:28.001Z</time>
      </trkpt>
      <trkpt lat="45.67463" lon="-0.4039">
        <ele>18.52</ele>
        <time>2019-11-03T12:36:01.001Z</time>
      </trkpt>
      <trkpt lat="45.67571" lon="-0.40527">
        <ele>10.455</ele>
        <time>2019-11-03T12:36:34.001Z</time>
      </trkpt>
      <trkpt lat="45.67695" lon="-0.40641">
        <ele>6.36</ele>
        <time>2019-11-03T12:37:10.001Z</time>
      </trkpt>
      <trkpt lat="45.6781" lon="-0.40649">
        <ele>6.487</ele>
        <time>2019-11-03T12:37:43.001Z</time>
      </trkpt>
      <trkpt lat="45.67911" lon="-0.40721">
        <ele>1.823</ele>
        <time>2019-11-03T12:38:19.001Z</time>
      </trkpt>
      <trkpt lat="45.68001" lon="-0.40799">
        <ele>1.747</ele>
        <time>2019-11-03T12:38:52.001Z</time>
      </trkpt>
      <trkpt lat="45.68085" lon="-0.40915">
        <ele>5.674</ele>
        <time>2019-11-03T12:39:28.001Z</time>
      </trkpt>
      <trkpt lat="45.68154" lon="-0.41043">
        <ele>7.959</ele>
        <time>2019-11-03T12:40:01.001Z</time>
      </trkpt>
      <trkpt lat="45.6818" lon="-0.41193">
        <ele>16.185</ele>
        <time>2019-11-03T12:40:34.001Z</time>
      </trkpt>
      <trkpt lat="45.68151" lon="-0.41341">
        <ele>7.154</ele>
        <time>2019-11-03T12:41:10.001Z</time>
      </trkpt>
      <trkpt lat="45.68053" lon="-0.41433">
        <ele>10.086</ele>
        <time>2019-11-03T12:41:43.001Z</time>
      </trkpt>
      <trkpt lat="45.67931" lon="-0.41522">
        <ele>15.326</ele>
        <time>2019-11-03T12:42:19.001Z</time>
      </trkpt>
      <trkpt lat="45.678" lon="-0.41589">
        <ele>7.623</ele>
        <time>2019-11-03T12:42:52.001Z</time>
      </trkpt>
      <trkpt lat="45.67745" lon="-0.41671">
        <ele>7.306</ele>
        <time>2019-11-03T12:43:25.001Z</time>
      </trkpt>
      <trkpt lat="45.67833" lon="-0.41809">
        <ele>9.025</ele>
        <time>2019-11-03T12:44:01.001Z</time>
      </trkpt>
      <trkpt lat="45.67926" lon="-0.4183">
        <ele>12.957</ele>
        <time>2019-11-03T12:44:34.001Z</time>
      </trkpt>
      <trkpt lat="45.68027" lon="-0.4191">
        <ele>7.66</ele>
        <time>2019-11-03T12:45:10.001Z</time>
      </trkpt>
      <trkpt lat="45.68117" lon="-0.41933">
        <ele>6.616</ele>
        <time>2019-11-03T12:45:43.001Z</time>
      </trkpt>
      <trkpt lat="45.68188" lon="-0.4207">
        <ele>6.876</ele>
        <time>2019-11-03T12:46:19.001Z</time>
      </trkpt>
      <trkpt lat="45.68245" lon="-0.42197">
        <ele>3.266</ele>
        <time>2019-11-03T12:46:52.001Z</time>
      </trkpt>
      <trkpt lat="45.68251" lon="-0.42336">
        <ele>4.878</ele>
        <time>2019-11-03T12:47:25.001Z</time>
      </trkpt>
      <trkpt lat="45.68211" lon="-0.42491">
        <ele>5.467</ele>
        <time>2019-11-03T12:48:01.001Z</time>
      </trkpt>
      <trkpt lat="45.68176" lon="-0.4263">
        <ele>4.275</ele>
        <time>2019-11-03T12:48:34.001Z</time>
      </trkpt>
      <trkpt lat="45.68142" lon="-0.42793">
        <ele>9.298</ele>
        <time>2019-11-03T12:49:10.001Z</time>
      </trkpt>
      <trkpt lat="45.68126" lon="-0.42946">
        <ele>3.16</ele>
        <time>2019-11-03T12:49:43.001Z</time>
      </trkpt>
      <trkpt lat="45.68106" lon="-0.4311">
        <ele>4.937</ele>
        <time>2019-11-03T12:50:19.001Z</time>
      </trkpt>
      <trkpt lat="45.68088" lon="-0.43252">
        <ele>4.324</ele>
        <time>2019-11-03T12:50:52.001Z</time>
      </trkpt>
      <trkpt lat="45.6807" lon="-0.43388">
        <ele>5.689</ele>
        <time>2019-11-03T12:51:25.001Z</time>
      </trkpt>
      <trkpt lat="45.68048" lon="-0.43563">
        <ele>3.46</ele>
        <time>2019-11-03T12:52:01.001Z</time>
      </trkpt>
      <trkpt lat="45.68029" lon="-0.43713">
        <ele>11.041</ele>
        <time>2019-11-03T12:52:34.001Z</time>
      </trkpt>
      <trkpt lat="45.68083" lon="-0.43811">
        <ele>12.602</ele>
        <time>2019-11-03T12:53:10.001Z</time>
      </trkpt>
      <trkpt lat="45.68173" lon="-0.43881">
        <ele>9.895</ele>
        <time>2019-11-03T12:53:43.001Z</time>
      </trkpt>
      <trkpt lat="45.68163" lon="-0.44039">
        <ele>2.972</ele>
        <time>2019-11-03T12:54:19.001Z</time>
      </trkpt>
      <trkpt lat="45.68181" lon="-0.44204">
        <ele>2.712</ele>
        <time>2019-11-03T12:54:52.001Z</time>
      </trkpt>
      <trkpt lat="45.68205" lon="-0.44353">
        <ele>3.509</ele>
        <time>2019-11-03T12:55:25.001Z</time>
      </trkpt>
      <trkpt lat="45.68216" lon="-0.4452">
        <ele>2.164</ele>
        <time>2019-11-03T12:56:01.001Z</time>
      </trkpt>
      <trkpt lat="45.68224" lon="-0.44673">
        <ele>3.343</ele>
        <time>2019-11-03T12:56:34.001Z</time>
      </trkpt>
      <trkpt lat="45.68222" lon="-0.44846">
        <ele>5.939</ele>
        <time>2019-11-03T12:57:10.001Z</time>
      </trkpt>
      <trkpt lat="45.68229" lon="-0.45013">
        <ele>4.514</ele>
        <time>2019-11-03T12:57:43.001Z</time>
      </trkpt>
      <trkpt lat="45.6826" lon="-0.45168">
        <ele>4.022</ele>
        <time>2019-11-03T12:58:19.001Z</time>
      </trkpt>
      <trkpt lat="45.68288" lon="-0.45322">
        <ele>3.784</ele>
        <time>2019-11-03T12:58:52.001Z</time>
      </trkpt>
      <trkpt lat="45.68276" lon="-0.45484">
        <ele>8.349</ele>
        <time>2019-11-03T12:59:25.001Z</time>
      </trkpt>
      <trkpt lat="45.68207" lon="-0.45629">
        <ele>8.461</ele>
        <time>2019-11-03T13:00:01.001Z</time>
      </trkpt>
      <trkpt lat="45.6814" lon="-0.45729">
        <ele>9.927</ele>
        <time>2019-11-03T13:00:34.001Z</time>
      </trkpt>
      <trkpt lat="45.68005" lon="-0.45699">
        <ele>5.215</ele>
        <time>2019-11-03T13:01:10.001Z</time>
      </trkpt>
      <trkpt lat="45.67898" lon="-0.45769">
        <ele>6.316</ele>
        <time>2019-11-03T13:01:43.001Z</time>
      </trkpt>
      <trkpt lat="45.67777" lon="-0.45858">
        <ele>11.195</ele>
        <time>2019-11-03T13:02:19.001Z</time>
      </trkpt>
      <trkpt lat="45.67688" lon="-0.45987">
        <ele>4.959</ele>
        <time>2019-11-03T13:02:52.001Z</time>
      </trkpt>
      <trkpt lat="45.67584" lon="-0.45989">
        <ele>12.239</ele>
        <time>2019-11-03T13:03:25.001Z</time>
      </trkpt>
      <trkpt lat="45.6761" lon="-0.46175">
        <ele>14.132</ele>
        <time>2019-11-03T13:04:01.001Z</time>
      </trkpt>
      <trkpt lat="45.6765" lon="-0.4635">
        <ele>13.392</ele>
        <time>2019-11-03T13:04:34.001Z</time>
      </trkpt>
      <trkpt lat="45.67681" lon="-0.46525">
        <ele>8.997</ele>
        <time>2019-11-03T13:05:10.001Z</time>
      </trkpt>
      <trkpt lat="45.6758" lon="-0.46552">
        <ele>5.318</ele>
        <time>2019-11-03T13:05:43.001Z</time>
      </trkpt>
      <trkpt lat="45.67577" lon="-0.46564">
        <ele>4.409</ele>
        <time>2019-11-03T13:06:46.001Z</time>
      </trkpt>
      <trkpt lat="45.67602" lon="-0.46553">
        <ele>3.092</ele>
        <time>2019-11-03T13:14:28.001Z</time>
      </trkpt>
      <trkpt lat="45.6763" lon="-0.46553">
        <ele>6.837</ele>
        <time>2019-11-03T13:15:04.001Z</time>
      </trkpt>
      <trkpt lat="45.67681" lon="-0.46519">
        <ele>8.976</ele>
        <time>2019-11-03T13:16:04.001Z</time>
      </trkpt>
      <trkpt lat="45.67678" lon="-0.46517">
        <ele>11.194</ele>
        <time>2019-11-03T13:45:19.001Z</time>
      </trkpt>
      <trkpt lat="45.67677" lon="-0.46516">
        <ele>10.641</ele>
        <time>2019-11-03T13:46:55.001Z</time>
      </trkpt>
      <trkpt lat="45.6767" lon="-0.46505">
        <ele>22.221</ele>
        <time>2019-11-03T13:54:16Z</time>
      </trkpt>
      <trkpt lat="45.67673" lon="-0.46515">
        <ele>17.429</ele>
        <time>2019-11-03T13:56:52.001Z</time>
      </trkpt>
      <trkpt lat="45.67678" lon="-0.46518">
        <ele>9.996</ele>
        <time>2019-11-03T13:59:19.001Z</time>
      </trkpt>
      <trkpt lat="45.67643" lon="-0.46317">
        <ele>9.297</ele>
        <time>2019-11-03T14:00:10.001Z</time>
      </trkpt>
      <trkpt lat="45.67406" lon="-0.46208">
        <ele>10.606</ele>
        <time>2019-11-03T14:00:49.001Z</time>
      </trkpt>
      <trkpt lat="45.67208" lon="-0.46235">
        <ele>17.307</ele>
        <time>2019-11-03T14:01:25.001Z</time>
      </trkpt>
      <trkpt lat="45.66966" lon="-0.46377">
        <ele>13.597</ele>
        <time>2019-11-03T14:02:01.001Z</time>
      </trkpt>
      <trkpt lat="45.67171" lon="-0.47243">
        <ele>15.93</ele>
        <time>2019-11-03T14:02:34.001Z</time>
      </trkpt>
      <trkpt lat="45.67375" lon="-0.48154">
        <ele>12.862</ele>
        <time>2019-11-03T14:03:10.001Z</time>
      </trkpt>
      <trkpt lat="45.67678" lon="-0.48659">
        <ele>8.268</ele>
        <time>2019-11-03T14:03:43.001Z</time>
      </trkpt>
      <trkpt lat="45.67893" lon="-0.49309">
        <ele>17.159</ele>
        <time>2019-11-03T14:04:16Z</time>
      </trkpt>
      <trkpt lat="45.68078" lon="-0.49882">
        <ele>17.906</ele>
        <time>2019-11-03T14:04:55.001Z</time>
      </trkpt>
      <trkpt lat="45.68245" lon="-0.50612">
        <ele>8.111</ele>
        <time>2019-11-03T14:05:28.001Z</time>
      </trkpt>
      <trkpt lat="45.68485" lon="-0.51587">
        <ele>2.488</ele>
        <time>2019-11-03T14:06:04.001Z</time>
      </trkpt>
      <trkpt lat="45.68636" lon="-0.51921">
        <ele>11.288</ele>
        <time>2019-11-03T14:06:37.001Z</time>
      </trkpt>
      <trkpt lat="45.68719" lon="-0.51815">
        <ele>13.75</ele>
        <time>2019-11-03T14:07:13.001Z</time>
      </trkpt>
      <trkpt lat="45.68732" lon="-0.51865">
        <ele>12.355</ele>
        <time>2019-11-03T14:08:52.001Z</time>
      </trkpt>
      <trkpt lat="45.68742" lon="-0.51883">
        <ele>6.806</ele>
        <time>2019-11-03T14:15:15.001Z</time>
      </trkpt>
      <trkpt lat="45.68726" lon="-0.51893">
        <ele>21.301</ele>
        <time>2019-11-03T14:18:21.001Z</time>
      </trkpt>
      <trkpt lat="45.68742" lon="-0.51866">
        <ele>18.084</ele>
        <time>2019-11-03T15:05:09.001Z</time>
      </trkpt>
    </trkseg>
  </trk>
  <trk>
    <name><![CDATA[Tracé 20191104-103740]]></name>
    <trkseg>
      <trkpt lat="45.67668" lon="-0.46531">
        <ele>10.38</ele>
        <time>2019-11-04T09:57:49Z</time>
      </trkpt>
      <trkpt lat="45.67579" lon="-0.46555">
        <ele>10.245</ele>
        <time>2019-11-04T09:58:22Z</time>
      </trkpt>
      <trkpt lat="45.67577" lon="-0.46652">
        <ele>8.633</ele>
        <time>2019-11-04T10:01:25Z</time>
      </trkpt>
      <trkpt lat="45.67587" lon="-0.46749">
        <ele>18.391</ele>
        <time>2019-11-04T10:01:55Z</time>
      </trkpt>
      <trkpt lat="45.67612" lon="-0.46872">
        <ele>22.387</ele>
        <time>2019-11-04T10:02:28Z</time>
      </trkpt>
      <trkpt lat="45.67653" lon="-0.46997">
        <ele>11.127</ele>
        <time>2019-11-04T10:03:01Z</time>
      </trkpt>
      <trkpt lat="45.67663" lon="-0.4713">
        <ele>7.452</ele>
        <time>2019-11-04T10:03:31Z</time>
      </trkpt>
      <trkpt lat="45.67675" lon="-0.47228">
        <ele>11.058</ele>
        <time>2019-11-04T10:04:04Z</time>
      </trkpt>
      <trkpt lat="45.67686" lon="-0.47321">
        <ele>14.048</ele>
        <time>2019-11-04T10:04:37Z</time>
      </trkpt>
      <trkpt lat="45.6771" lon="-0.47428">
        <ele>13.355</ele>
        <time>2019-11-04T10:05:07Z</time>
      </trkpt>
      <trkpt lat="45.67786" lon="-0.47473">
        <ele>15.705</ele>
        <time>2019-11-04T10:05:40Z</time>
      </trkpt>
      <trkpt lat="45.67929" lon="-0.47386">
        <ele>16.971</ele>
        <time>2019-11-04T10:06:13Z</time>
      </trkpt>
      <trkpt lat="45.68073" lon="-0.47291">
        <ele>4.425</ele>
        <time>2019-11-04T10:06:43Z</time>
      </trkpt>
      <trkpt lat="45.68228" lon="-0.47194">
        <ele>2.053</ele>
        <time>2019-11-04T10:07:16Z</time>
      </trkpt>
      <trkpt lat="45.68368" lon="-0.47103">
        <ele>3.422</ele>
        <time>2019-11-04T10:07:49Z</time>
      </trkpt>
      <trkpt lat="45.68464" lon="-0.47134">
        <ele>4.478</ele>
        <time>2019-11-04T10:08:19Z</time>
      </trkpt>
      <trkpt lat="45.68537" lon="-0.47284">
        <ele>4.582</ele>
        <time>2019-11-04T10:08:52Z</time>
      </trkpt>
      <trkpt lat="45.68607" lon="-0.47422">
        <ele>5.61</ele>
        <time>2019-11-04T10:09:25Z</time>
      </trkpt>
      <trkpt lat="45.68667" lon="-0.47544">
        <ele>5.344</ele>
        <time>2019-11-04T10:09:55Z</time>
      </trkpt>
      <trkpt lat="45.68732" lon="-0.47677">
        <ele>4.756</ele>
        <time>2019-11-04T10:10:28Z</time>
      </trkpt>
      <trkpt lat="45.68794" lon="-0.478">
        <ele>5.075</ele>
        <time>2019-11-04T10:10:58Z</time>
      </trkpt>
      <trkpt lat="45.68862" lon="-0.47937">
        <ele>4.187</ele>
        <time>2019-11-04T10:11:31Z</time>
      </trkpt>
      <trkpt lat="45.68918" lon="-0.4805">
        <ele>5.216</ele>
        <time>2019-11-04T10:12:04Z</time>
      </trkpt>
      <trkpt lat="45.68965" lon="-0.48142">
        <ele>9.532</ele>
        <time>2019-11-04T10:12:34Z</time>
      </trkpt>
      <trkpt lat="45.69006" lon="-0.48225">
        <ele>9.568</ele>
        <time>2019-11-04T10:13:07Z</time>
      </trkpt>
      <trkpt lat="45.69045" lon="-0.48304">
        <ele>11.848</ele>
        <time>2019-11-04T10:13:40Z</time>
      </trkpt>
      <trkpt lat="45.69082" lon="-0.48383">
        <ele>7.535</ele>
        <time>2019-11-04T10:14:10Z</time>
      </trkpt>
      <trkpt lat="45.69123" lon="-0.48458">
        <ele>5.241</ele>
        <time>2019-11-04T10:14:43Z</time>
      </trkpt>
      <trkpt lat="45.69112" lon="-0.48439">
        <ele>2.713</ele>
        <time>2019-11-04T10:17:52Z</time>
      </trkpt>
      <trkpt lat="45.69076" lon="-0.48369">
        <ele>1.78</ele>
        <time>2019-11-04T10:18:22Z</time>
      </trkpt>
      <trkpt lat="45.69037" lon="-0.4829">
        <ele>1.789</ele>
        <time>2019-11-04T10:18:55Z</time>
      </trkpt>
      <trkpt lat="45.68999" lon="-0.48214">
        <ele>3.103</ele>
        <time>2019-11-04T10:19:28Z</time>
      </trkpt>
      <trkpt lat="45.68963" lon="-0.48135">
        <ele>3.945</ele>
        <time>2019-11-04T10:19:58Z</time>
      </trkpt>
      <trkpt lat="45.68913" lon="-0.4804">
        <ele>2.437</ele>
        <time>2019-11-04T10:20:31Z</time>
      </trkpt>
      <trkpt lat="45.68866" lon="-0.47946">
        <ele>2.203</ele>
        <time>2019-11-04T10:21:04Z</time>
      </trkpt>
      <trkpt lat="45.6881" lon="-0.47834">
        <ele>3.624</ele>
        <time>2019-11-04T10:21:34Z</time>
      </trkpt>
      <trkpt lat="45.68747" lon="-0.47706">
        <ele>2.292</ele>
        <time>2019-11-04T10:22:07Z</time>
      </trkpt>
      <trkpt lat="45.68689" lon="-0.47589">
        <ele>2.652</ele>
        <time>2019-11-04T10:22:40Z</time>
      </trkpt>
      <trkpt lat="45.68642" lon="-0.47492">
        <ele>2.752</ele>
        <time>2019-11-04T10:23:19Z</time>
      </trkpt>
      <trkpt lat="45.68618" lon="-0.47447">
        <ele>1.528</ele>
        <time>2019-11-04T10:24:01Z</time>
      </trkpt>
      <trkpt lat="45.68589" lon="-0.47389">
        <ele>2.086</ele>
        <time>2019-11-04T10:25:28Z</time>
      </trkpt>
      <trkpt lat="45.68542" lon="-0.47296">
        <ele>1.866</ele>
        <time>2019-11-04T10:26:01Z</time>
      </trkpt>
      <trkpt lat="45.68478" lon="-0.47165">
        <ele>3.372</ele>
        <time>2019-11-04T10:26:34Z</time>
      </trkpt>
      <trkpt lat="45.6842" lon="-0.47045">
        <ele>5.23</ele>
        <time>2019-11-04T10:27:07Z</time>
      </trkpt>
      <trkpt lat="45.68377" lon="-0.46963">
        <ele>3.478</ele>
        <time>2019-11-04T10:34:04Z</time>
      </trkpt>
      <trkpt lat="45.68426" lon="-0.47065">
        <ele>4.668</ele>
        <time>2019-11-04T10:34:37Z</time>
      </trkpt>
      <trkpt lat="45.6834" lon="-0.47121">
        <ele>4.385</ele>
        <time>2019-11-04T10:35:10Z</time>
      </trkpt>
      <trkpt lat="45.68255" lon="-0.47177">
        <ele>4.356</ele>
        <time>2019-11-04T10:35:40Z</time>
      </trkpt>
      <trkpt lat="45.68163" lon="-0.47235">
        <ele>3.594</ele>
        <time>2019-11-04T10:36:13Z</time>
      </trkpt>
      <trkpt lat="45.68063" lon="-0.47299">
        <ele>1.455</ele>
        <time>2019-11-04T10:36:46Z</time>
      </trkpt>
      <trkpt lat="45.67979" lon="-0.47345">
        <ele>4.586</ele>
        <time>2019-11-04T10:37:16Z</time>
      </trkpt>
      <trkpt lat="45.67903" lon="-0.47395">
        <ele>7.293</ele>
        <time>2019-11-04T10:37:49Z</time>
      </trkpt>
      <trkpt lat="45.67835" lon="-0.47443">
        <ele>12.358</ele>
        <time>2019-11-04T10:38:22Z</time>
      </trkpt>
      <trkpt lat="45.67748" lon="-0.47489">
        <ele>12.665</ele>
        <time>2019-11-04T10:38:52Z</time>
      </trkpt>
      <trkpt lat="45.67644" lon="-0.47522">
        <ele>13.957</ele>
        <time>2019-11-04T10:39:25Z</time>
      </trkpt>
      <trkpt lat="45.67547" lon="-0.47557">
        <ele>12.056</ele>
        <time>2019-11-04T10:39:58Z</time>
      </trkpt>
      <trkpt lat="45.67454" lon="-0.47586">
        <ele>13.917</ele>
        <time>2019-11-04T10:40:28Z</time>
      </trkpt>
      <trkpt lat="45.67352" lon="-0.47622">
        <ele>11.794</ele>
        <time>2019-11-04T10:41:01Z</time>
      </trkpt>
      <trkpt lat="45.67269" lon="-0.47656">
        <ele>13.158</ele>
        <time>2019-11-04T10:41:31Z</time>
      </trkpt>
      <trkpt lat="45.67292" lon="-0.47839">
        <ele>10.211</ele>
        <time>2019-11-04T10:42:04Z</time>
      </trkpt>
      <trkpt lat="45.67331" lon="-0.48004">
        <ele>6.581</ele>
        <time>2019-11-04T10:42:37Z</time>
      </trkpt>
      <trkpt lat="45.67373" lon="-0.48148">
        <ele>4.553</ele>
        <time>2019-11-04T10:43:07Z</time>
      </trkpt>
      <trkpt lat="45.67419" lon="-0.48304">
        <ele>5.861</ele>
        <time>2019-11-04T10:43:40Z</time>
      </trkpt>
      <trkpt lat="45.67484" lon="-0.48461">
        <ele>4.295</ele>
        <time>2019-11-04T10:44:13Z</time>
      </trkpt>
      <trkpt lat="45.67534" lon="-0.48523">
        <ele>8.96</ele>
        <time>2019-11-04T10:44:43Z</time>
      </trkpt>
      <trkpt lat="45.67608" lon="-0.48517">
        <ele>13.965</ele>
        <time>2019-11-04T10:45:16Z</time>
      </trkpt>
      <trkpt lat="45.6772" lon="-0.48403">
        <ele>12.248</ele>
        <time>2019-11-04T10:45:49Z</time>
      </trkpt>
      <trkpt lat="45.67842" lon="-0.48232">
        <ele>11.506</ele>
        <time>2019-11-04T10:46:19Z</time>
      </trkpt>
      <trkpt lat="45.67904" lon="-0.48329">
        <ele>18.235</ele>
        <time>2019-11-04T10:46:52Z</time>
      </trkpt>
      <trkpt lat="45.6797" lon="-0.48434">
        <ele>17.88</ele>
        <time>2019-11-04T10:47:25Z</time>
      </trkpt>
      <trkpt lat="45.68044" lon="-0.48502">
        <ele>26.252</ele>
        <time>2019-11-04T10:47:55Z</time>
      </trkpt>
      <trkpt lat="45.68127" lon="-0.48568">
        <ele>29.198</ele>
        <time>2019-11-04T10:48:28Z</time>
      </trkpt>
      <trkpt lat="45.68214" lon="-0.4867">
        <ele>22.139</ele>
        <time>2019-11-04T10:49:01Z</time>
      </trkpt>
      <trkpt lat="45.68279" lon="-0.48822">
        <ele>22.141</ele>
        <time>2019-11-04T10:49:31Z</time>
      </trkpt>
      <trkpt lat="45.68386" lon="-0.48927">
        <ele>26.812</ele>
        <time>2019-11-04T10:50:04Z</time>
      </trkpt>
      <trkpt lat="45.68454" lon="-0.48981">
        <ele>26.624</ele>
        <time>2019-11-04T10:57:58Z</time>
      </trkpt>
      <trkpt lat="45.68506" lon="-0.49037">
        <ele>25.05</ele>
        <time>2019-11-04T10:59:22Z</time>
      </trkpt>
      <trkpt lat="45.68513" lon="-0.49223">
        <ele>17.255</ele>
        <time>2019-11-04T10:59:55Z</time>
      </trkpt>
      <trkpt lat="45.68491" lon="-0.49444">
        <ele>10.841</ele>
        <time>2019-11-04T11:00:28Z</time>
      </trkpt>
      <trkpt lat="45.68507" lon="-0.49583">
        <ele>10.073</ele>
        <time>2019-11-04T11:00:58Z</time>
      </trkpt>
      <trkpt lat="45.68598" lon="-0.49727">
        <ele>12.67</ele>
        <time>2019-11-04T11:01:31Z</time>
      </trkpt>
      <trkpt lat="45.68717" lon="-0.4986">
        <ele>13.636</ele>
        <time>2019-11-04T11:02:04Z</time>
      </trkpt>
      <trkpt lat="45.68848" lon="-0.4994">
        <ele>11.893</ele>
        <time>2019-11-04T11:02:34Z</time>
      </trkpt>
      <trkpt lat="45.68971" lon="-0.50094">
        <ele>8.769</ele>
        <time>2019-11-04T11:03:07Z</time>
      </trkpt>
      <trkpt lat="45.69037" lon="-0.50194">
        <ele>5.696</ele>
        <time>2019-11-04T11:03:40Z</time>
      </trkpt>
      <trkpt lat="45.69112" lon="-0.50306">
        <ele>6.014</ele>
        <time>2019-11-04T11:04:10Z</time>
      </trkpt>
      <trkpt lat="45.69203" lon="-0.50441">
        <ele>3.615</ele>
        <time>2019-11-04T11:04:43Z</time>
      </trkpt>
      <trkpt lat="45.69287" lon="-0.5061">
        <ele>10.757</ele>
        <time>2019-11-04T11:05:16Z</time>
      </trkpt>
      <trkpt lat="45.69393" lon="-0.50775">
        <ele>11.561</ele>
        <time>2019-11-04T11:05:46Z</time>
      </trkpt>
      <trkpt lat="45.6945" lon="-0.50927">
        <ele>10.049</ele>
        <time>2019-11-04T11:06:19Z</time>
      </trkpt>
      <trkpt lat="45.69533" lon="-0.51095">
        <ele>9.341</ele>
        <time>2019-11-04T11:06:52Z</time>
      </trkpt>
      <trkpt lat="45.69596" lon="-0.51252">
        <ele>10.289</ele>
        <time>2019-11-04T11:07:22Z</time>
      </trkpt>
      <trkpt lat="45.69696" lon="-0.5143">
        <ele>9.061</ele>
        <time>2019-11-04T11:07:55Z</time>
      </trkpt>
      <trkpt lat="45.69683" lon="-0.51603">
        <ele>9.756</ele>
        <time>2019-11-04T11:08:28Z</time>
      </trkpt>
      <trkpt lat="45.69664" lon="-0.51751">
        <ele>9.377</ele>
        <time>2019-11-04T11:08:58Z</time>
      </trkpt>
      <trkpt lat="45.69664" lon="-0.51921">
        <ele>8.105</ele>
        <time>2019-11-04T11:09:31Z</time>
      </trkpt>
      <trkpt lat="45.69672" lon="-0.52076">
        <ele>5.949</ele>
        <time>2019-11-04T11:10:01Z</time>
      </trkpt>
      <trkpt lat="45.69658" lon="-0.52261">
        <ele>8.101</ele>
        <time>2019-11-04T11:10:34Z</time>
      </trkpt>
      <trkpt lat="45.69659" lon="-0.52436">
        <ele>4.005</ele>
        <time>2019-11-04T11:11:07Z</time>
      </trkpt>
      <trkpt lat="45.69644" lon="-0.52589">
        <ele>6.792</ele>
        <time>2019-11-04T11:11:37Z</time>
      </trkpt>
      <trkpt lat="45.69637" lon="-0.5277">
        <ele>9.64</ele>
        <time>2019-11-04T11:12:10Z</time>
      </trkpt>
      <trkpt lat="45.69626" lon="-0.52965">
        <ele>5.947</ele>
        <time>2019-11-04T11:12:43Z</time>
      </trkpt>
      <trkpt lat="45.69617" lon="-0.53121">
        <ele>3.253</ele>
        <time>2019-11-04T11:13:13Z</time>
      </trkpt>
      <trkpt lat="45.69644" lon="-0.53296">
        <ele>2.761</ele>
        <time>2019-11-04T11:13:46Z</time>
      </trkpt>
      <trkpt lat="45.69677" lon="-0.53468">
        <ele>8.843</ele>
        <time>2019-11-04T11:14:19Z</time>
      </trkpt>
      <trkpt lat="45.69705" lon="-0.53608">
        <ele>5.531</ele>
        <time>2019-11-04T11:14:49Z</time>
      </trkpt>
      <trkpt lat="45.69727" lon="-0.53723">
        <ele>7.475</ele>
        <time>2019-11-04T11:15:22Z</time>
      </trkpt>
      <trkpt lat="45.69748" lon="-0.53827">
        <ele>8.231</ele>
        <time>2019-11-04T11:15:55Z</time>
      </trkpt>
      <trkpt lat="45.69768" lon="-0.53931">
        <ele>9.846</ele>
        <time>2019-11-04T11:16:25Z</time>
      </trkpt>
      <trkpt lat="45.69791" lon="-0.54039">
        <ele>14.18</ele>
        <time>2019-11-04T11:16:58Z</time>
      </trkpt>
      <trkpt lat="45.69819" lon="-0.54161">
        <ele>14.935</ele>
        <time>2019-11-04T11:17:31Z</time>
      </trkpt>
      <trkpt lat="45.69861" lon="-0.54276">
        <ele>15.847</ele>
        <time>2019-11-04T11:18:01Z</time>
      </trkpt>
      <trkpt lat="45.69924" lon="-0.5445">
        <ele>14.144</ele>
        <time>2019-11-04T11:18:34Z</time>
      </trkpt>
      <trkpt lat="45.70029" lon="-0.54629">
        <ele>10.536</ele>
        <time>2019-11-04T11:19:07Z</time>
      </trkpt>
      <trkpt lat="45.70074" lon="-0.54814">
        <ele>9.809</ele>
        <time>2019-11-04T11:19:37Z</time>
      </trkpt>
      <trkpt lat="45.70124" lon="-0.54957">
        <ele>13.465</ele>
        <time>2019-11-04T11:20:10Z</time>
      </trkpt>
      <trkpt lat="45.70169" lon="-0.55072">
        <ele>14.725</ele>
        <time>2019-11-04T11:20:43Z</time>
      </trkpt>
      <trkpt lat="45.70234" lon="-0.55171">
        <ele>15.035</ele>
        <time>2019-11-04T11:21:13Z</time>
      </trkpt>
      <trkpt lat="45.70316" lon="-0.55334">
        <ele>14.133</ele>
        <time>2019-11-04T11:21:46Z</time>
      </trkpt>
      <trkpt lat="45.70359" lon="-0.55507">
        <ele>11.379</ele>
        <time>2019-11-04T11:22:19Z</time>
      </trkpt>
      <trkpt lat="45.7038" lon="-0.5564">
        <ele>12.628</ele>
        <time>2019-11-04T11:22:49Z</time>
      </trkpt>
      <trkpt lat="45.70399" lon="-0.55781">
        <ele>14.542</ele>
        <time>2019-11-04T11:23:22Z</time>
      </trkpt>
      <trkpt lat="45.70397" lon="-0.55918">
        <ele>18.065</ele>
        <time>2019-11-04T11:23:55Z</time>
      </trkpt>
      <trkpt lat="45.70385" lon="-0.56038">
        <ele>16.761</ele>
        <time>2019-11-04T11:24:25Z</time>
      </trkpt>
      <trkpt lat="45.70394" lon="-0.56174">
        <ele>20.845</ele>
        <time>2019-11-04T11:24:58Z</time>
      </trkpt>
      <trkpt lat="45.70426" lon="-0.56318">
        <ele>18.837</ele>
        <time>2019-11-04T11:25:31Z</time>
      </trkpt>
      <trkpt lat="45.70499" lon="-0.56426">
        <ele>18.782</ele>
        <time>2019-11-04T11:26:01Z</time>
      </trkpt>
      <trkpt lat="45.7062" lon="-0.56526">
        <ele>17.147</ele>
        <time>2019-11-04T11:26:34Z</time>
      </trkpt>
      <trkpt lat="45.7075" lon="-0.56683">
        <ele>11.992</ele>
        <time>2019-11-04T11:27:07Z</time>
      </trkpt>
      <trkpt lat="45.70797" lon="-0.56823">
        <ele>14.299</ele>
        <time>2019-11-04T11:27:37Z</time>
      </trkpt>
      <trkpt lat="45.70817" lon="-0.56979">
        <ele>16.232</ele>
        <time>2019-11-04T11:28:10Z</time>
      </trkpt>
      <trkpt lat="45.70865" lon="-0.57166">
        <ele>14.409</ele>
        <time>2019-11-04T11:28:43Z</time>
      </trkpt>
      <trkpt lat="45.70923" lon="-0.57301">
        <ele>16.298</ele>
        <time>2019-11-04T11:29:13Z</time>
      </trkpt>
      <trkpt lat="45.7095" lon="-0.57443">
        <ele>14.662</ele>
        <time>2019-11-04T11:29:46Z</time>
      </trkpt>
      <trkpt lat="45.70842" lon="-0.57523">
        <ele>15.534</ele>
        <time>2019-11-04T11:30:19Z</time>
      </trkpt>
      <trkpt lat="45.70937" lon="-0.57663">
        <ele>13.402</ele>
        <time>2019-11-04T11:30:49Z</time>
      </trkpt>
      <trkpt lat="45.71088" lon="-0.57785">
        <ele>10.6</ele>
        <time>2019-11-04T11:31:22Z</time>
      </trkpt>
      <trkpt lat="45.7121" lon="-0.57896">
        <ele>9.563</ele>
        <time>2019-11-04T11:31:52Z</time>
      </trkpt>
      <trkpt lat="45.7125" lon="-0.58056">
        <ele>13.747</ele>
        <time>2019-11-04T11:32:25Z</time>
      </trkpt>
      <trkpt lat="45.71242" lon="-0.58236">
        <ele>7.75</ele>
        <time>2019-11-04T11:32:58Z</time>
      </trkpt>
      <trkpt lat="45.71223" lon="-0.58384">
        <ele>7.717</ele>
        <time>2019-11-04T11:33:28Z</time>
      </trkpt>
      <trkpt lat="45.71199" lon="-0.58558">
        <ele>6.052</ele>
        <time>2019-11-04T11:34:01Z</time>
      </trkpt>
      <trkpt lat="45.71156" lon="-0.58744">
        <ele>9.917</ele>
        <time>2019-11-04T11:34:34Z</time>
      </trkpt>
      <trkpt lat="45.71118" lon="-0.58883">
        <ele>14.33</ele>
        <time>2019-11-04T11:35:04Z</time>
      </trkpt>
      <trkpt lat="45.71018" lon="-0.59021">
        <ele>11.385</ele>
        <time>2019-11-04T11:35:37Z</time>
      </trkpt>
      <trkpt lat="45.70904" lon="-0.59131">
        <ele>9.473</ele>
        <time>2019-11-04T11:36:10Z</time>
      </trkpt>
      <trkpt lat="45.70797" lon="-0.59229">
        <ele>11.284</ele>
        <time>2019-11-04T11:36:40Z</time>
      </trkpt>
      <trkpt lat="45.70669" lon="-0.59345">
        <ele>9.327</ele>
        <time>2019-11-04T11:37:13Z</time>
      </trkpt>
      <trkpt lat="45.70637" lon="-0.59437">
        <ele>12.992</ele>
        <time>2019-11-04T11:37:46Z</time>
      </trkpt>
      <trkpt lat="45.70665" lon="-0.59558">
        <ele>14.056</ele>
        <time>2019-11-04T11:38:16Z</time>
      </trkpt>
      <trkpt lat="45.70709" lon="-0.59703">
        <ele>8.07</ele>
        <time>2019-11-04T11:38:49Z</time>
      </trkpt>
      <trkpt lat="45.70749" lon="-0.59834">
        <ele>6.775</ele>
        <time>2019-11-04T11:39:22Z</time>
      </trkpt>
      <trkpt lat="45.70782" lon="-0.59953">
        <ele>9.175</ele>
        <time>2019-11-04T11:39:52Z</time>
      </trkpt>
      <trkpt lat="45.70857" lon="-0.60123">
        <ele>4.261</ele>
        <time>2019-11-04T11:40:25Z</time>
      </trkpt>
      <trkpt lat="45.70969" lon="-0.60225">
        <ele>4.734</ele>
        <time>2019-11-04T11:40:58Z</time>
      </trkpt>
      <trkpt lat="45.71094" lon="-0.6027">
        <ele>5.442</ele>
        <time>2019-11-04T11:41:28Z</time>
      </trkpt>
      <trkpt lat="45.71182" lon="-0.60377">
        <ele>3.863</ele>
        <time>2019-11-04T11:42:01Z</time>
      </trkpt>
      <trkpt lat="45.71192" lon="-0.60545">
        <ele>5.916</ele>
        <time>2019-11-04T11:42:34Z</time>
      </trkpt>
      <trkpt lat="45.71201" lon="-0.60702">
        <ele>7.884</ele>
        <time>2019-11-04T11:43:04Z</time>
      </trkpt>
      <trkpt lat="45.71263" lon="-0.60874">
        <ele>7.785</ele>
        <time>2019-11-04T11:43:37Z</time>
      </trkpt>
      <trkpt lat="45.71298" lon="-0.61074">
        <ele>8.535</ele>
        <time>2019-11-04T11:44:10Z</time>
      </trkpt>
      <trkpt lat="45.71357" lon="-0.61248">
        <ele>4.741</ele>
        <time>2019-11-04T11:44:40Z</time>
      </trkpt>
      <trkpt lat="45.71416" lon="-0.61412">
        <ele>5.146</ele>
        <time>2019-11-04T11:45:13Z</time>
      </trkpt>
      <trkpt lat="45.71496" lon="-0.61567">
        <ele>10.543</ele>
        <time>2019-11-04T11:45:46Z</time>
      </trkpt>
      <trkpt lat="45.71544" lon="-0.61721">
        <ele>12.368</ele>
        <time>2019-11-04T11:46:16Z</time>
      </trkpt>
      <trkpt lat="45.716" lon="-0.61895">
        <ele>11.932</ele>
        <time>2019-11-04T11:46:49Z</time>
      </trkpt>
      <trkpt lat="45.71633" lon="-0.62062">
        <ele>14.316</ele>
        <time>2019-11-04T11:47:22Z</time>
      </trkpt>
      <trkpt lat="45.71657" lon="-0.62211">
        <ele>9.534</ele>
        <time>2019-11-04T11:47:52Z</time>
      </trkpt>
      <trkpt lat="45.71699" lon="-0.62354">
        <ele>10.176</ele>
        <time>2019-11-04T11:48:25Z</time>
      </trkpt>
      <trkpt lat="45.71749" lon="-0.62474">
        <ele>11.435</ele>
        <time>2019-11-04T11:48:58Z</time>
      </trkpt>
      <trkpt lat="45.71793" lon="-0.62592">
        <ele>10.825</ele>
        <time>2019-11-04T11:49:28Z</time>
      </trkpt>
      <trkpt lat="45.71826" lon="-0.62731">
        <ele>17.473</ele>
        <time>2019-11-04T11:50:01Z</time>
      </trkpt>
      <trkpt lat="45.7187" lon="-0.62891">
        <ele>14.945</ele>
        <time>2019-11-04T11:50:34Z</time>
      </trkpt>
      <trkpt lat="45.71925" lon="-0.63064">
        <ele>10.25</ele>
        <time>2019-11-04T11:51:04Z</time>
      </trkpt>
      <trkpt lat="45.72008" lon="-0.63142">
        <ele>10.166</ele>
        <time>2019-11-04T11:51:37Z</time>
      </trkpt>
      <trkpt lat="45.72055" lon="-0.63209">
        <ele>15.343</ele>
        <time>2019-11-04T11:52:07Z</time>
      </trkpt>
      <trkpt lat="45.72098" lon="-0.63271">
        <ele>16.001</ele>
        <time>2019-11-04T11:52:40Z</time>
      </trkpt>
      <trkpt lat="45.72139" lon="-0.63337">
        <ele>17.727</ele>
        <time>2019-11-04T11:53:13Z</time>
      </trkpt>
      <trkpt lat="45.72197" lon="-0.63372">
        <ele>21.84</ele>
        <time>2019-11-04T11:53:43Z</time>
      </trkpt>
      <trkpt lat="45.72257" lon="-0.63429">
        <ele>24.379</ele>
        <time>2019-11-04T11:54:16Z</time>
      </trkpt>
      <trkpt lat="45.72384" lon="-0.63426">
        <ele>24.919</ele>
        <time>2019-11-04T11:54:49Z</time>
      </trkpt>
      <trkpt lat="45.7261" lon="-0.6359">
        <ele>11.724</ele>
        <time>2019-11-04T11:55:19Z</time>
      </trkpt>
      <trkpt lat="45.72758" lon="-0.63725">
        <ele>7.656</ele>
        <time>2019-11-04T11:55:52Z</time>
      </trkpt>
      <trkpt lat="45.72777" lon="-0.6387">
        <ele>7.39</ele>
        <time>2019-11-04T11:57:31Z</time>
      </trkpt>
      <trkpt lat="45.72744" lon="-0.63947">
        <ele>9.863</ele>
        <time>2019-11-04T11:58:07Z</time>
      </trkpt>
      <trkpt lat="45.72692" lon="-0.6403">
        <ele>13.452</ele>
        <time>2019-11-04T11:58:40Z</time>
      </trkpt>
      <trkpt lat="45.72646" lon="-0.64092">
        <ele>17.188</ele>
        <time>2019-11-04T11:59:13Z</time>
      </trkpt>
      <trkpt lat="45.72631" lon="-0.64174">
        <ele>15.917</ele>
        <time>2019-11-04T11:59:43Z</time>
      </trkpt>
      <trkpt lat="45.728" lon="-0.643">
        <ele>12.64</ele>
        <time>2019-11-04T12:00:16Z</time>
      </trkpt>
      <trkpt lat="45.72879" lon="-0.6436">
        <ele>14.794</ele>
        <time>2019-11-04T12:00:49Z</time>
      </trkpt>
      <trkpt lat="45.72932" lon="-0.64399">
        <ele>20.43</ele>
        <time>2019-11-04T12:01:19Z</time>
      </trkpt>
      <trkpt lat="45.72995" lon="-0.64446">
        <ele>24.535</ele>
        <time>2019-11-04T12:01:55Z</time>
      </trkpt>
      <trkpt lat="45.73052" lon="-0.6449">
        <ele>28.711</ele>
        <time>2019-11-04T12:02:28Z</time>
      </trkpt>
      <trkpt lat="45.73107" lon="-0.64526">
        <ele>30.889</ele>
        <time>2019-11-04T12:02:58Z</time>
      </trkpt>
      <trkpt lat="45.73172" lon="-0.64551">
        <ele>33.188</ele>
        <time>2019-11-04T12:03:31Z</time>
      </trkpt>
      <trkpt lat="45.73241" lon="-0.64563">
        <ele>35.771</ele>
        <time>2019-11-04T12:04:04Z</time>
      </trkpt>
      <trkpt lat="45.73306" lon="-0.64551">
        <ele>42.034</ele>
        <time>2019-11-04T12:04:34Z</time>
      </trkpt>
      <trkpt lat="45.73384" lon="-0.64535">
        <ele>46.598</ele>
        <time>2019-11-04T12:05:07Z</time>
      </trkpt>
      <trkpt lat="45.73502" lon="-0.64488">
        <ele>45.024</ele>
        <time>2019-11-04T12:05:40Z</time>
      </trkpt>
      <trkpt lat="45.73626" lon="-0.64439">
        <ele>45.842</ele>
        <time>2019-11-04T12:06:10Z</time>
      </trkpt>
      <trkpt lat="45.73765" lon="-0.6436">
        <ele>41.536</ele>
        <time>2019-11-04T12:06:43Z</time>
      </trkpt>
      <trkpt lat="45.73973" lon="-0.64217">
        <ele>28.647</ele>
        <time>2019-11-04T12:07:16Z</time>
      </trkpt>
      <trkpt lat="45.74095" lon="-0.64057">
        <ele>19.441</ele>
        <time>2019-11-04T12:07:46Z</time>
      </trkpt>
      <trkpt lat="45.74176" lon="-0.63873">
        <ele>9.481</ele>
        <time>2019-11-04T12:08:19Z</time>
      </trkpt>
      <trkpt lat="45.74179" lon="-0.63876">
        <ele>9.25</ele>
        <time>2019-11-04T12:10:19Z</time>
      </trkpt>
      <trkpt lat="45.74193" lon="-0.63741">
        <ele>9.577</ele>
        <time>2019-11-04T12:10:49Z</time>
      </trkpt>
      <trkpt lat="45.74155" lon="-0.63608">
        <ele>9.577</ele>
        <time>2019-11-04T12:11:22Z</time>
      </trkpt>
      <trkpt lat="45.74097" lon="-0.63389">
        <ele>10.6</ele>
        <time>2019-11-04T12:11:55Z</time>
      </trkpt>
      <trkpt lat="45.74084" lon="-0.63187">
        <ele>8.369</ele>
        <time>2019-11-04T12:12:25Z</time>
      </trkpt>
      <trkpt lat="45.74088" lon="-0.63014">
        <ele>9.424</ele>
        <time>2019-11-04T12:12:58Z</time>
      </trkpt>
      <trkpt lat="45.74087" lon="-0.62816">
        <ele>11.616</ele>
        <time>2019-11-04T12:13:31Z</time>
      </trkpt>
      <trkpt lat="45.74093" lon="-0.62665">
        <ele>7.862</ele>
        <time>2019-11-04T12:14:01Z</time>
      </trkpt>
      <trkpt lat="45.74153" lon="-0.62551">
        <ele>9.988</ele>
        <time>2019-11-04T12:14:34Z</time>
      </trkpt>
      <trkpt lat="45.74156" lon="-0.62467">
        <ele>15.224</ele>
        <time>2019-11-04T12:15:04Z</time>
      </trkpt>
      <trkpt lat="45.74167" lon="-0.62464">
        <ele>10.134</ele>
        <time>2019-11-04T12:54:31.001Z</time>
      </trkpt>
      <trkpt lat="45.74173" lon="-0.62459">
        <ele>6.861</ele>
        <time>2019-11-04T13:02:19.001Z</time>
      </trkpt>
      <trkpt lat="45.74173" lon="-0.62458">
        <ele>6.861</ele>
        <time>2019-11-04T13:09:16Z</time>
      </trkpt>
      <trkpt lat="45.7418" lon="-0.62557">
        <ele>15.468</ele>
        <time>2019-11-04T13:10:19.001Z</time>
      </trkpt>
      <trkpt lat="45.74268" lon="-0.62592">
        <ele>16.626</ele>
        <time>2019-11-04T13:10:52.001Z</time>
      </trkpt>
      <trkpt lat="45.74366" lon="-0.62624">
        <ele>21.958</ele>
        <time>2019-11-04T13:11:22.001Z</time>
      </trkpt>
      <trkpt lat="45.74439" lon="-0.62778">
        <ele>17.032</ele>
        <time>2019-11-04T13:11:55.001Z</time>
      </trkpt>
      <trkpt lat="45.7447" lon="-0.62905">
        <ele>15.896</ele>
        <time>2019-11-04T13:12:28.001Z</time>
      </trkpt>
      <trkpt lat="45.74541" lon="-0.62909">
        <ele>15.041</ele>
        <time>2019-11-04T13:13:01.001Z</time>
      </trkpt>
      <trkpt lat="45.74626" lon="-0.6293">
        <ele>14.51</ele>
        <time>2019-11-04T13:13:34.001Z</time>
      </trkpt>
      <trkpt lat="45.74678" lon="-0.62882">
        <ele>8.624</ele>
        <time>2019-11-04T13:14:10.001Z</time>
      </trkpt>
      <trkpt lat="45.74699" lon="-0.62949">
        <ele>12.749</ele>
        <time>2019-11-04T13:14:40.001Z</time>
      </trkpt>
      <trkpt lat="45.74767" lon="-0.63055">
        <ele>10.485</ele>
        <time>2019-11-04T13:15:13.001Z</time>
      </trkpt>
      <trkpt lat="45.7493" lon="-0.63134">
        <ele>9.742</ele>
        <time>2019-11-04T13:15:46.001Z</time>
      </trkpt>
      <trkpt lat="45.75061" lon="-0.63156">
        <ele>9.975</ele>
        <time>2019-11-04T13:16:16Z</time>
      </trkpt>
      <trkpt lat="45.75205" lon="-0.63102">
        <ele>12.901</ele>
        <time>2019-11-04T13:16:49.001Z</time>
      </trkpt>
      <trkpt lat="45.75323" lon="-0.63114">
        <ele>14.802</ele>
        <time>2019-11-04T13:17:22.001Z</time>
      </trkpt>
      <trkpt lat="45.75385" lon="-0.6312">
        <ele>17.329</ele>
        <time>2019-11-04T13:17:52.001Z</time>
      </trkpt>
      <trkpt lat="45.75434" lon="-0.63167">
        <ele>23.239</ele>
        <time>2019-11-04T13:18:25.001Z</time>
      </trkpt>
      <trkpt lat="45.75475" lon="-0.63222">
        <ele>28.869</ele>
        <time>2019-11-04T13:18:58.001Z</time>
      </trkpt>
      <trkpt lat="45.75537" lon="-0.63278">
        <ele>33.728</ele>
        <time>2019-11-04T13:19:28.001Z</time>
      </trkpt>
      <trkpt lat="45.75623" lon="-0.6335">
        <ele>36.463</ele>
        <time>2019-11-04T13:20:01.001Z</time>
      </trkpt>
      <trkpt lat="45.75751" lon="-0.63496">
        <ele>31.246</ele>
        <time>2019-11-04T13:20:34.001Z</time>
      </trkpt>
      <trkpt lat="45.75922" lon="-0.63609">
        <ele>11.955</ele>
        <time>2019-11-04T13:21:04.001Z</time>
      </trkpt>
      <trkpt lat="45.75988" lon="-0.63676">
        <ele>16.684</ele>
        <time>2019-11-04T13:21:37.001Z</time>
      </trkpt>
      <trkpt lat="45.76031" lon="-0.6376">
        <ele>25.079</ele>
        <time>2019-11-04T13:22:10.001Z</time>
      </trkpt>
      <trkpt lat="45.76107" lon="-0.63789">
        <ele>29.732</ele>
        <time>2019-11-04T13:22:40.001Z</time>
      </trkpt>
      <trkpt lat="45.76197" lon="-0.6387">
        <ele>33.127</ele>
        <time>2019-11-04T13:23:13.001Z</time>
      </trkpt>
      <trkpt lat="45.76307" lon="-0.63964">
        <ele>30.791</ele>
        <time>2019-11-04T13:23:46.001Z</time>
      </trkpt>
      <trkpt lat="45.76424" lon="-0.64079">
        <ele>26.215</ele>
        <time>2019-11-04T13:24:16Z</time>
      </trkpt>
      <trkpt lat="45.7654" lon="-0.6422">
        <ele>32.364</ele>
        <time>2019-11-04T13:24:49.001Z</time>
      </trkpt>
      <trkpt lat="45.76621" lon="-0.64342">
        <ele>40.136</ele>
        <time>2019-11-04T13:25:22.001Z</time>
      </trkpt>
      <trkpt lat="45.76792" lon="-0.64514">
        <ele>21.631</ele>
        <time>2019-11-04T13:25:52.001Z</time>
      </trkpt>
      <trkpt lat="45.76878" lon="-0.64732">
        <ele>10.883</ele>
        <time>2019-11-04T13:26:25.001Z</time>
      </trkpt>
      <trkpt lat="45.77002" lon="-0.64948">
        <ele>7.6</ele>
        <time>2019-11-04T13:26:58.001Z</time>
      </trkpt>
      <trkpt lat="45.77077" lon="-0.64957">
        <ele>12.402</ele>
        <time>2019-11-04T13:27:28.001Z</time>
      </trkpt>
      <trkpt lat="45.77145" lon="-0.64976">
        <ele>24.342</ele>
        <time>2019-11-04T13:28:01.001Z</time>
      </trkpt>
      <trkpt lat="45.77202" lon="-0.64991">
        <ele>25.55</ele>
        <time>2019-11-04T13:28:31.001Z</time>
      </trkpt>
      <trkpt lat="45.77261" lon="-0.6502">
        <ele>30.976</ele>
        <time>2019-11-04T13:29:04.001Z</time>
      </trkpt>
      <trkpt lat="45.77322" lon="-0.65049">
        <ele>30.298</ele>
        <time>2019-11-04T13:29:37.001Z</time>
      </trkpt>
      <trkpt lat="45.77383" lon="-0.65076">
        <ele>28.908</ele>
        <time>2019-11-04T13:30:07.001Z</time>
      </trkpt>
      <trkpt lat="45.77458" lon="-0.65114">
        <ele>28.728</ele>
        <time>2019-11-04T13:30:40.001Z</time>
      </trkpt>
      <trkpt lat="45.77547" lon="-0.65154">
        <ele>30.306</ele>
        <time>2019-11-04T13:31:13.001Z</time>
      </trkpt>
      <trkpt lat="45.77642" lon="-0.65185">
        <ele>35.03</ele>
        <time>2019-11-04T13:31:43.001Z</time>
      </trkpt>
      <trkpt lat="45.77754" lon="-0.65222">
        <ele>28.675</ele>
        <time>2019-11-04T13:32:16Z</time>
      </trkpt>
      <trkpt lat="45.77864" lon="-0.65252">
        <ele>27.702</ele>
        <time>2019-11-04T13:32:49.001Z</time>
      </trkpt>
      <trkpt lat="45.77985" lon="-0.65282">
        <ele>23.805</ele>
        <time>2019-11-04T13:33:19.001Z</time>
      </trkpt>
      <trkpt lat="45.78158" lon="-0.653">
        <ele>13.3</ele>
        <time>2019-11-04T13:33:52.001Z</time>
      </trkpt>
      <trkpt lat="45.78296" lon="-0.65227">
        <ele>14.596</ele>
        <time>2019-11-04T13:34:25.001Z</time>
      </trkpt>
      <trkpt lat="45.78387" lon="-0.65212">
        <ele>19.594</ele>
        <time>2019-11-04T13:34:55.001Z</time>
      </trkpt>
      <trkpt lat="45.7845" lon="-0.65216">
        <ele>27.247</ele>
        <time>2019-11-04T13:35:28.001Z</time>
      </trkpt>
      <trkpt lat="45.78518" lon="-0.65219">
        <ele>31.688</ele>
        <time>2019-11-04T13:36:01.001Z</time>
      </trkpt>
      <trkpt lat="45.78604" lon="-0.65241">
        <ele>35.139</ele>
        <time>2019-11-04T13:36:31.001Z</time>
      </trkpt>
      <trkpt lat="45.787" lon="-0.65344">
        <ele>38.738</ele>
        <time>2019-11-04T13:37:04.001Z</time>
      </trkpt>
      <trkpt lat="45.7885" lon="-0.65324">
        <ele>35.247</ele>
        <time>2019-11-04T13:37:37.001Z</time>
      </trkpt>
      <trkpt lat="45.78901" lon="-0.65285">
        <ele>37.177</ele>
        <time>2019-11-04T13:38:07.001Z</time>
      </trkpt>
      <trkpt lat="45.78958" lon="-0.65237">
        <ele>34.34</ele>
        <time>2019-11-04T13:38:40.001Z</time>
      </trkpt>
      <trkpt lat="45.79027" lon="-0.65248">
        <ele>42.231</ele>
        <time>2019-11-04T13:39:13.001Z</time>
      </trkpt>
      <trkpt lat="45.79149" lon="-0.65266">
        <ele>42.828</ele>
        <time>2019-11-04T13:39:43.001Z</time>
      </trkpt>
      <trkpt lat="45.79413" lon="-0.65062">
        <ele>29.54</ele>
        <time>2019-11-04T13:40:16Z</time>
      </trkpt>
      <trkpt lat="45.7957" lon="-0.64996">
        <ele>21.131</ele>
        <time>2019-11-04T13:40:49.001Z</time>
      </trkpt>
      <trkpt lat="45.7977" lon="-0.64988">
        <ele>19.214</ele>
        <time>2019-11-04T13:41:19.001Z</time>
      </trkpt>
      <trkpt lat="45.79929" lon="-0.65022">
        <ele>17.257</ele>
        <time>2019-11-04T13:41:52.001Z</time>
      </trkpt>
      <trkpt lat="45.80118" lon="-0.64954">
        <ele>10.509</ele>
        <time>2019-11-04T13:42:25.001Z</time>
      </trkpt>
      <trkpt lat="45.8026" lon="-0.64904">
        <ele>12.266</ele>
        <time>2019-11-04T13:42:55.001Z</time>
      </trkpt>
      <trkpt lat="45.80375" lon="-0.64895">
        <ele>16.595</ele>
        <time>2019-11-04T13:43:28.001Z</time>
      </trkpt>
      <trkpt lat="45.80439" lon="-0.64889">
        <ele>16.596</ele>
        <time>2019-11-04T13:45:22.001Z</time>
      </trkpt>
      <trkpt lat="45.80615" lon="-0.64864">
        <ele>15.033</ele>
        <time>2019-11-04T13:45:52.001Z</time>
      </trkpt>
      <trkpt lat="45.80726" lon="-0.64912">
        <ele>16.374</ele>
        <time>2019-11-04T13:46:25.001Z</time>
      </trkpt>
      <trkpt lat="45.80853" lon="-0.64979">
        <ele>13.685</ele>
        <time>2019-11-04T13:46:58.001Z</time>
      </trkpt>
      <trkpt lat="45.80976" lon="-0.65011">
        <ele>14.553</ele>
        <time>2019-11-04T13:47:28.001Z</time>
      </trkpt>
      <trkpt lat="45.811" lon="-0.65055">
        <ele>12.488</ele>
        <time>2019-11-04T13:48:01.001Z</time>
      </trkpt>
      <trkpt lat="45.81215" lon="-0.65098">
        <ele>15.052</ele>
        <time>2019-11-04T13:48:34.001Z</time>
      </trkpt>
      <trkpt lat="45.81312" lon="-0.65144">
        <ele>16.663</ele>
        <time>2019-11-04T13:49:04.001Z</time>
      </trkpt>
      <trkpt lat="45.81404" lon="-0.6522">
        <ele>23.258</ele>
        <time>2019-11-04T13:49:37.001Z</time>
      </trkpt>
      <trkpt lat="45.81541" lon="-0.65341">
        <ele>18.622</ele>
        <time>2019-11-04T13:50:07.001Z</time>
      </trkpt>
      <trkpt lat="45.81683" lon="-0.65476">
        <ele>10.651</ele>
        <time>2019-11-04T13:50:40.001Z</time>
      </trkpt>
      <trkpt lat="45.81846" lon="-0.65627">
        <ele>8.391</ele>
        <time>2019-11-04T13:51:13.001Z</time>
      </trkpt>
      <trkpt lat="45.81948" lon="-0.65753">
        <ele>7.784</ele>
        <time>2019-11-04T13:51:43.001Z</time>
      </trkpt>
      <trkpt lat="45.82067" lon="-0.65871">
        <ele>11.436</ele>
        <time>2019-11-04T13:52:16Z</time>
      </trkpt>
      <trkpt lat="45.82175" lon="-0.6599">
        <ele>17.673</ele>
        <time>2019-11-04T13:52:49.001Z</time>
      </trkpt>
      <trkpt lat="45.82245" lon="-0.66111">
        <ele>8.28</ele>
        <time>2019-11-04T13:53:19.001Z</time>
      </trkpt>
      <trkpt lat="45.82296" lon="-0.66228">
        <ele>8.155</ele>
        <time>2019-11-04T13:53:52.001Z</time>
      </trkpt>
      <trkpt lat="45.82348" lon="-0.66341">
        <ele>10.045</ele>
        <time>2019-11-04T13:54:25.001Z</time>
      </trkpt>
      <trkpt lat="45.82423" lon="-0.66444">
        <ele>10.282</ele>
        <time>2019-11-04T13:54:55.001Z</time>
      </trkpt>
      <trkpt lat="45.82513" lon="-0.66562">
        <ele>9.52</ele>
        <time>2019-11-04T13:55:28.001Z</time>
      </trkpt>
      <trkpt lat="45.8264" lon="-0.66724">
        <ele>10.32</ele>
        <time>2019-11-04T13:56:01.001Z</time>
      </trkpt>
      <trkpt lat="45.82732" lon="-0.66837">
        <ele>12.867</ele>
        <time>2019-11-04T13:56:31.001Z</time>
      </trkpt>
      <trkpt lat="45.82855" lon="-0.66965">
        <ele>13.363</ele>
        <time>2019-11-04T13:57:04.001Z</time>
      </trkpt>
      <trkpt lat="45.82986" lon="-0.671">
        <ele>15.28</ele>
        <time>2019-11-04T13:57:37.001Z</time>
      </trkpt>
      <trkpt lat="45.83031" lon="-0.67162">
        <ele>16.745</ele>
        <time>2019-11-04T13:58:07.001Z</time>
      </trkpt>
      <trkpt lat="45.83105" lon="-0.67218">
        <ele>27.034</ele>
        <time>2019-11-04T13:58:40.001Z</time>
      </trkpt>
      <trkpt lat="45.83192" lon="-0.67365">
        <ele>20.455</ele>
        <time>2019-11-04T13:59:13.001Z</time>
      </trkpt>
      <trkpt lat="45.83264" lon="-0.67508">
        <ele>13.24</ele>
        <time>2019-11-04T13:59:43.001Z</time>
      </trkpt>
      <trkpt lat="45.83343" lon="-0.67696">
        <ele>18.35</ele>
        <time>2019-11-04T14:00:16Z</time>
      </trkpt>
      <trkpt lat="45.83446" lon="-0.67847">
        <ele>13.862</ele>
        <time>2019-11-04T14:00:49.001Z</time>
      </trkpt>
      <trkpt lat="45.83507" lon="-0.67909">
        <ele>20.039</ele>
        <time>2019-11-04T14:01:19.001Z</time>
      </trkpt>
      <trkpt lat="45.83591" lon="-0.6799">
        <ele>27.32</ele>
        <time>2019-11-04T14:01:52.001Z</time>
      </trkpt>
      <trkpt lat="45.83691" lon="-0.68083">
        <ele>27.095</ele>
        <time>2019-11-04T14:02:25.001Z</time>
      </trkpt>
      <trkpt lat="45.83808" lon="-0.68176">
        <ele>21.257</ele>
        <time>2019-11-04T14:02:55.001Z</time>
      </trkpt>
      <trkpt lat="45.8391" lon="-0.68255">
        <ele>21.201</ele>
        <time>2019-11-04T14:03:28.001Z</time>
      </trkpt>
      <trkpt lat="45.83917" lon="-0.68345">
        <ele>20.751</ele>
        <time>2019-11-04T14:04:01.001Z</time>
      </trkpt>
      <trkpt lat="45.83895" lon="-0.68421">
        <ele>21.63</ele>
        <time>2019-11-04T14:04:31.001Z</time>
      </trkpt>
      <trkpt lat="45.83878" lon="-0.68512">
        <ele>26.603</ele>
        <time>2019-11-04T14:05:04.001Z</time>
      </trkpt>
      <trkpt lat="45.83871" lon="-0.68639">
        <ele>26.459</ele>
        <time>2019-11-04T14:05:37.001Z</time>
      </trkpt>
      <trkpt lat="45.83847" lon="-0.68778">
        <ele>18.92</ele>
        <time>2019-11-04T14:06:07.001Z</time>
      </trkpt>
      <trkpt lat="45.83842" lon="-0.68981">
        <ele>13.933</ele>
        <time>2019-11-04T14:06:40.001Z</time>
      </trkpt>
      <trkpt lat="45.83915" lon="-0.69179">
        <ele>10.434</ele>
        <time>2019-11-04T14:07:13.001Z</time>
      </trkpt>
      <trkpt lat="45.83946" lon="-0.69255">
        <ele>13.845</ele>
        <time>2019-11-04T14:07:43.001Z</time>
      </trkpt>
      <trkpt lat="45.83971" lon="-0.69351">
        <ele>19.023</ele>
        <time>2019-11-04T14:08:16Z</time>
      </trkpt>
      <trkpt lat="45.83998" lon="-0.69446">
        <ele>17.848</ele>
        <time>2019-11-04T14:08:49.001Z</time>
      </trkpt>
      <trkpt lat="45.84158" lon="-0.69597">
        <ele>18.829</ele>
        <time>2019-11-04T14:09:19.001Z</time>
      </trkpt>
      <trkpt lat="45.84255" lon="-0.6968">
        <ele>17.766</ele>
        <time>2019-11-04T14:09:52.001Z</time>
      </trkpt>
      <trkpt lat="45.84291" lon="-0.69751">
        <ele>24.151</ele>
        <time>2019-11-04T14:10:22.001Z</time>
      </trkpt>
      <trkpt lat="45.8433" lon="-0.69825">
        <ele>17.89</ele>
        <time>2019-11-04T14:10:55.001Z</time>
      </trkpt>
      <trkpt lat="45.84388" lon="-0.69912">
        <ele>16.757</ele>
        <time>2019-11-04T14:11:28.001Z</time>
      </trkpt>
      <trkpt lat="45.84453" lon="-0.69987">
        <ele>14.925</ele>
        <time>2019-11-04T14:11:58.001Z</time>
      </trkpt>
      <trkpt lat="45.84557" lon="-0.70089">
        <ele>16.895</ele>
        <time>2019-11-04T14:12:31.001Z</time>
      </trkpt>
      <trkpt lat="45.84656" lon="-0.70183">
        <ele>20.451</ele>
        <time>2019-11-04T14:13:04.001Z</time>
      </trkpt>
      <trkpt lat="45.84687" lon="-0.70327">
        <ele>21.753</ele>
        <time>2019-11-04T14:13:34.001Z</time>
      </trkpt>
      <trkpt lat="45.84722" lon="-0.7051">
        <ele>16.799</ele>
        <time>2019-11-04T14:14:07.001Z</time>
      </trkpt>
      <trkpt lat="45.848" lon="-0.70561">
        <ele>27.529</ele>
        <time>2019-11-04T14:14:40.001Z</time>
      </trkpt>
      <trkpt lat="45.84865" lon="-0.70618">
        <ele>30.521</ele>
        <time>2019-11-04T14:15:10.001Z</time>
      </trkpt>
      <trkpt lat="45.84924" lon="-0.70719">
        <ele>29.923</ele>
        <time>2019-11-04T14:15:43.001Z</time>
      </trkpt>
      <trkpt lat="45.85001" lon="-0.70879">
        <ele>14.932</ele>
        <time>2019-11-04T14:16:16Z</time>
      </trkpt>
      <trkpt lat="45.8507" lon="-0.70981">
        <ele>16.538</ele>
        <time>2019-11-04T14:16:46.001Z</time>
      </trkpt>
      <trkpt lat="45.85132" lon="-0.71117">
        <ele>20.337</ele>
        <time>2019-11-04T14:17:19.001Z</time>
      </trkpt>
      <trkpt lat="45.8519" lon="-0.7127">
        <ele>24.029</ele>
        <time>2019-11-04T14:17:52.001Z</time>
      </trkpt>
      <trkpt lat="45.85227" lon="-0.71404">
        <ele>18.404</ele>
        <time>2019-11-04T14:18:22.001Z</time>
      </trkpt>
      <trkpt lat="45.8526" lon="-0.71577">
        <ele>15.438</ele>
        <time>2019-11-04T14:18:55.001Z</time>
      </trkpt>
      <trkpt lat="45.85281" lon="-0.71725">
        <ele>19.417</ele>
        <time>2019-11-04T14:19:28.001Z</time>
      </trkpt>
      <trkpt lat="45.85295" lon="-0.71813">
        <ele>26.519</ele>
        <time>2019-11-04T14:19:58.001Z</time>
      </trkpt>
      <trkpt lat="45.85315" lon="-0.71934">
        <ele>28.226</ele>
        <time>2019-11-04T14:20:31.001Z</time>
      </trkpt>
      <trkpt lat="45.85339" lon="-0.7208">
        <ele>26.709</ele>
        <time>2019-11-04T14:21:04.001Z</time>
      </trkpt>
      <trkpt lat="45.85362" lon="-0.72227">
        <ele>21.336</ele>
        <time>2019-11-04T14:21:34.001Z</time>
      </trkpt>
      <trkpt lat="45.85386" lon="-0.72393">
        <ele>19.553</ele>
        <time>2019-11-04T14:22:07.001Z</time>
      </trkpt>
      <trkpt lat="45.85413" lon="-0.72564">
        <ele>16.587</ele>
        <time>2019-11-04T14:22:40.001Z</time>
      </trkpt>
      <trkpt lat="45.85444" lon="-0.72723">
        <ele>15.585</ele>
        <time>2019-11-04T14:23:10.001Z</time>
      </trkpt>
      <trkpt lat="45.85506" lon="-0.72836">
        <ele>15.867</ele>
        <time>2019-11-04T14:23:43.001Z</time>
      </trkpt>
      <trkpt lat="45.85562" lon="-0.72938">
        <ele>20.608</ele>
        <time>2019-11-04T14:24:16Z</time>
      </trkpt>
      <trkpt lat="45.85612" lon="-0.73046">
        <ele>19.588</ele>
        <time>2019-11-04T14:24:46.001Z</time>
      </trkpt>
      <trkpt lat="45.85666" lon="-0.73166">
        <ele>19.289</ele>
        <time>2019-11-04T14:25:19.001Z</time>
      </trkpt>
      <trkpt lat="45.85737" lon="-0.73317">
        <ele>18.088</ele>
        <time>2019-11-04T14:25:52.001Z</time>
      </trkpt>
      <trkpt lat="45.85807" lon="-0.73449">
        <ele>12.991</ele>
        <time>2019-11-04T14:26:22.001Z</time>
      </trkpt>
      <trkpt lat="45.85852" lon="-0.73524">
        <ele>17.011</ele>
        <time>2019-11-04T14:26:55.001Z</time>
      </trkpt>
      <trkpt lat="45.85908" lon="-0.73615">
        <ele>16.78</ele>
        <time>2019-11-04T14:27:28.001Z</time>
      </trkpt>
      <trkpt lat="45.8598" lon="-0.73723">
        <ele>16.065</ele>
        <time>2019-11-04T14:27:58.001Z</time>
      </trkpt>
      <trkpt lat="45.86074" lon="-0.73756">
        <ele>20.399</ele>
        <time>2019-11-04T14:28:34.001Z</time>
      </trkpt>
      <trkpt lat="45.86135" lon="-0.73849">
        <ele>21.291</ele>
        <time>2019-11-04T14:29:07.001Z</time>
      </trkpt>
      <trkpt lat="45.86183" lon="-0.73951">
        <ele>22.709</ele>
        <time>2019-11-04T14:29:37.001Z</time>
      </trkpt>
      <trkpt lat="45.86251" lon="-0.74052">
        <ele>24.172</ele>
        <time>2019-11-04T14:30:10.001Z</time>
      </trkpt>
      <trkpt lat="45.86324" lon="-0.74123">
        <ele>23.074</ele>
        <time>2019-11-04T14:30:40.001Z</time>
      </trkpt>
      <trkpt lat="45.86402" lon="-0.74242">
        <ele>20.3</ele>
        <time>2019-11-04T14:31:13.001Z</time>
      </trkpt>
      <trkpt lat="45.86458" lon="-0.74383">
        <ele>22.655</ele>
        <time>2019-11-04T14:31:46.001Z</time>
      </trkpt>
      <trkpt lat="45.86491" lon="-0.74485">
        <ele>21.099</ele>
        <time>2019-11-04T14:32:16Z</time>
      </trkpt>
      <trkpt lat="45.8653" lon="-0.74605">
        <ele>24.048</ele>
        <time>2019-11-04T14:32:49.001Z</time>
      </trkpt>
      <trkpt lat="45.86565" lon="-0.74728">
        <ele>25.068</ele>
        <time>2019-11-04T14:33:22.001Z</time>
      </trkpt>
      <trkpt lat="45.86589" lon="-0.74843">
        <ele>28.443</ele>
        <time>2019-11-04T14:33:52.001Z</time>
      </trkpt>
      <trkpt lat="45.86618" lon="-0.74985">
        <ele>34.839</ele>
        <time>2019-11-04T14:34:25.001Z</time>
      </trkpt>
      <trkpt lat="45.86685" lon="-0.7517">
        <ele>26.355</ele>
        <time>2019-11-04T14:34:58.001Z</time>
      </trkpt>
      <trkpt lat="45.8673" lon="-0.7531">
        <ele>19.72</ele>
        <time>2019-11-04T14:35:28.001Z</time>
      </trkpt>
      <trkpt lat="45.86774" lon="-0.75424">
        <ele>22.529</ele>
        <time>2019-11-04T14:36:01.001Z</time>
      </trkpt>
      <trkpt lat="45.86803" lon="-0.75571">
        <ele>21.573</ele>
        <time>2019-11-04T14:36:34.001Z</time>
      </trkpt>
      <trkpt lat="45.86807" lon="-0.75714">
        <ele>19.189</ele>
        <time>2019-11-04T14:37:04.001Z</time>
      </trkpt>
      <trkpt lat="45.86817" lon="-0.75842">
        <ele>21.483</ele>
        <time>2019-11-04T14:37:37.001Z</time>
      </trkpt>
      <trkpt lat="45.86817" lon="-0.75976">
        <ele>25.692</ele>
        <time>2019-11-04T14:38:10.001Z</time>
      </trkpt>
      <trkpt lat="45.86807" lon="-0.76113">
        <ele>25.5</ele>
        <time>2019-11-04T14:38:40.001Z</time>
      </trkpt>
      <trkpt lat="45.86837" lon="-0.76274">
        <ele>24.707</ele>
        <time>2019-11-04T14:39:13.001Z</time>
      </trkpt>
      <trkpt lat="45.86873" lon="-0.76428">
        <ele>24.174</ele>
        <time>2019-11-04T14:39:46.001Z</time>
      </trkpt>
      <trkpt lat="45.86911" lon="-0.76564">
        <ele>25.765</ele>
        <time>2019-11-04T14:40:16Z</time>
      </trkpt>
      <trkpt lat="45.86966" lon="-0.7669">
        <ele>24.49</ele>
        <time>2019-11-04T14:40:49.001Z</time>
      </trkpt>
      <trkpt lat="45.86998" lon="-0.76874">
        <ele>20.517</ele>
        <time>2019-11-04T14:41:22.001Z</time>
      </trkpt>
      <trkpt lat="45.87035" lon="-0.77045">
        <ele>19.859</ele>
        <time>2019-11-04T14:41:52.001Z</time>
      </trkpt>
      <trkpt lat="45.87034" lon="-0.77185">
        <ele>23.077</ele>
        <time>2019-11-04T14:42:25.001Z</time>
      </trkpt>
      <trkpt lat="45.87041" lon="-0.77312">
        <ele>23.922</ele>
        <time>2019-11-04T14:42:58.001Z</time>
      </trkpt>
      <trkpt lat="45.87055" lon="-0.77428">
        <ele>22.676</ele>
        <time>2019-11-04T14:43:28.001Z</time>
      </trkpt>
      <trkpt lat="45.87068" lon="-0.77581">
        <ele>23.828</ele>
        <time>2019-11-04T14:44:01.001Z</time>
      </trkpt>
      <trkpt lat="45.87131" lon="-0.77732">
        <ele>24.343</ele>
        <time>2019-11-04T14:44:34.001Z</time>
      </trkpt>
      <trkpt lat="45.87217" lon="-0.77862">
        <ele>22.944</ele>
        <time>2019-11-04T14:45:04.001Z</time>
      </trkpt>
      <trkpt lat="45.87269" lon="-0.78069">
        <ele>21.961</ele>
        <time>2019-11-04T14:45:37.001Z</time>
      </trkpt>
      <trkpt lat="45.87339" lon="-0.78393">
        <ele>8.786</ele>
        <time>2019-11-04T14:46:10.001Z</time>
      </trkpt>
      <trkpt lat="45.8733" lon="-0.7862">
        <ele>2</ele>
        <time>2019-11-04T14:46:40.001Z</time>
      </trkpt>
      <trkpt lat="45.87348" lon="-0.78786">
        <ele>1.7</ele>
        <time>2019-11-04T14:47:13.001Z</time>
      </trkpt>
      <trkpt lat="45.87367" lon="-0.78949">
        <ele>0.612</ele>
        <time>2019-11-04T14:47:46.001Z</time>
      </trkpt>
      <trkpt lat="45.8737" lon="-0.79088">
        <ele>10.313</ele>
        <time>2019-11-04T14:48:16Z</time>
      </trkpt>
      <trkpt lat="45.87393" lon="-0.79203">
        <ele>9.288</ele>
        <time>2019-11-04T14:48:49.001Z</time>
      </trkpt>
      <trkpt lat="45.87419" lon="-0.79289">
        <ele>7.958</ele>
        <time>2019-11-04T14:49:22.001Z</time>
      </trkpt>
      <trkpt lat="45.87438" lon="-0.79364">
        <ele>11.939</ele>
        <time>2019-11-04T14:49:52.001Z</time>
      </trkpt>
      <trkpt lat="45.87459" lon="-0.79452">
        <ele>12.495</ele>
        <time>2019-11-04T14:50:25.001Z</time>
      </trkpt>
      <trkpt lat="45.87478" lon="-0.79557">
        <ele>12.875</ele>
        <time>2019-11-04T14:50:58.001Z</time>
      </trkpt>
      <trkpt lat="45.87455" lon="-0.79714">
        <ele>14.899</ele>
        <time>2019-11-04T14:51:28.001Z</time>
      </trkpt>
      <trkpt lat="45.87367" lon="-0.80001">
        <ele>4.478</ele>
        <time>2019-11-04T14:52:01.001Z</time>
      </trkpt>
      <trkpt lat="45.87336" lon="-0.80118">
        <ele>1.527</ele>
        <time>2019-11-04T14:52:31.001Z</time>
      </trkpt>
      <trkpt lat="45.87313" lon="-0.80206">
        <ele>7.39</ele>
        <time>2019-11-04T14:53:04.001Z</time>
      </trkpt>
      <trkpt lat="45.8729" lon="-0.80286">
        <ele>9.859</ele>
        <time>2019-11-04T14:53:37.001Z</time>
      </trkpt>
      <trkpt lat="45.8727" lon="-0.80359">
        <ele>15.738</ele>
        <time>2019-11-04T14:54:07.001Z</time>
      </trkpt>
      <trkpt lat="45.87245" lon="-0.80448">
        <ele>25.467</ele>
        <time>2019-11-04T14:54:43.001Z</time>
      </trkpt>
      <trkpt lat="45.87215" lon="-0.80526">
        <ele>27.007</ele>
        <time>2019-11-04T14:55:19.001Z</time>
      </trkpt>
      <trkpt lat="45.87217" lon="-0.80526">
        <ele>22.667</ele>
        <time>2019-11-04T15:07:43.001Z</time>
      </trkpt>
      <trkpt lat="45.87146" lon="-0.80603">
        <ele>23.63</ele>
        <time>2019-11-04T15:08:16Z</time>
      </trkpt>
      <trkpt lat="45.87047" lon="-0.80725">
        <ele>20.8</ele>
        <time>2019-11-04T15:08:49.001Z</time>
      </trkpt>
      <trkpt lat="45.87032" lon="-0.80841">
        <ele>26.779</ele>
        <time>2019-11-04T15:09:19.001Z</time>
      </trkpt>
      <trkpt lat="45.86983" lon="-0.80934">
        <ele>22.197</ele>
        <time>2019-11-04T15:09:52.001Z</time>
      </trkpt>
      <trkpt lat="45.86931" lon="-0.81012">
        <ele>23.048</ele>
        <time>2019-11-04T15:10:25.001Z</time>
      </trkpt>
      <trkpt lat="45.86942" lon="-0.81128">
        <ele>22.479</ele>
        <time>2019-11-04T15:10:55.001Z</time>
      </trkpt>
      <trkpt lat="45.86953" lon="-0.81264">
        <ele>20.187</ele>
        <time>2019-11-04T15:11:28.001Z</time>
      </trkpt>
      <trkpt lat="45.86963" lon="-0.81399">
        <ele>18.359</ele>
        <time>2019-11-04T15:12:01.001Z</time>
      </trkpt>
      <trkpt lat="45.86969" lon="-0.81528">
        <ele>19.459</ele>
        <time>2019-11-04T15:12:31.001Z</time>
      </trkpt>
      <trkpt lat="45.8708" lon="-0.8168">
        <ele>24.905</ele>
        <time>2019-11-04T15:13:04.001Z</time>
      </trkpt>
      <trkpt lat="45.874" lon="-0.81781">
        <ele>0.075</ele>
        <time>2019-11-04T15:13:37.001Z</time>
      </trkpt>
      <trkpt lat="45.87519" lon="-0.81797">
        <ele>5.603</ele>
        <time>2019-11-04T15:14:07.001Z</time>
      </trkpt>
      <trkpt lat="45.8763" lon="-0.81901">
        <ele>2.078</ele>
        <time>2019-11-04T15:14:40.001Z</time>
      </trkpt>
      <trkpt lat="45.87712" lon="-0.8201">
        <ele>2.957</ele>
        <time>2019-11-04T15:15:13.001Z</time>
      </trkpt>
      <trkpt lat="45.87789" lon="-0.82111">
        <ele>2.59</ele>
        <time>2019-11-04T15:15:43.001Z</time>
      </trkpt>
      <trkpt lat="45.87894" lon="-0.82133">
        <ele>4.019</ele>
        <time>2019-11-04T15:16:16Z</time>
      </trkpt>
      <trkpt lat="45.88013" lon="-0.82114">
        <ele>6.158</ele>
        <time>2019-11-04T15:16:49.001Z</time>
      </trkpt>
      <trkpt lat="45.8809" lon="-0.8204">
        <ele>8.479</ele>
        <time>2019-11-04T15:17:19.001Z</time>
      </trkpt>
      <trkpt lat="45.88162" lon="-0.81917">
        <ele>12.583</ele>
        <time>2019-11-04T15:17:52.001Z</time>
      </trkpt>
      <trkpt lat="45.88209" lon="-0.81758">
        <ele>9.947</ele>
        <time>2019-11-04T15:18:25.001Z</time>
      </trkpt>
      <trkpt lat="45.88257" lon="-0.81558">
        <ele>8.621</ele>
        <time>2019-11-04T15:18:55.001Z</time>
      </trkpt>
      <trkpt lat="45.88407" lon="-0.81266">
        <ele>7.44</ele>
        <time>2019-11-04T15:19:28.001Z</time>
      </trkpt>
      <trkpt lat="45.88485" lon="-0.81112">
        <ele>5.996</ele>
        <time>2019-11-04T15:20:01.001Z</time>
      </trkpt>
      <trkpt lat="45.88614" lon="-0.8093">
        <ele>4.154</ele>
        <time>2019-11-04T15:20:31.001Z</time>
      </trkpt>
      <trkpt lat="45.88747" lon="-0.80766">
        <ele>5.293</ele>
        <time>2019-11-04T15:21:04.001Z</time>
      </trkpt>
      <trkpt lat="45.88868" lon="-0.80613">
        <ele>8.754</ele>
        <time>2019-11-04T15:21:37.001Z</time>
      </trkpt>
      <trkpt lat="45.88982" lon="-0.80472">
        <ele>5.552</ele>
        <time>2019-11-04T15:22:07.001Z</time>
      </trkpt>
      <trkpt lat="45.89121" lon="-0.80352">
        <ele>1.111</ele>
        <time>2019-11-04T15:22:40.001Z</time>
      </trkpt>
      <trkpt lat="45.89236" lon="-0.80182">
        <ele>4.472</ele>
        <time>2019-11-04T15:23:13.001Z</time>
      </trkpt>
      <trkpt lat="45.89288" lon="-0.79982">
        <ele>7.03</ele>
        <time>2019-11-04T15:23:43.001Z</time>
      </trkpt>
      <trkpt lat="45.89406" lon="-0.7982">
        <ele>5.506</ele>
        <time>2019-11-04T15:24:16Z</time>
      </trkpt>
      <trkpt lat="45.895" lon="-0.79727">
        <ele>8.765</ele>
        <time>2019-11-04T15:24:46.001Z</time>
      </trkpt>
      <trkpt lat="45.89578" lon="-0.7964">
        <ele>10.452</ele>
        <time>2019-11-04T15:25:19.001Z</time>
      </trkpt>
      <trkpt lat="45.89657" lon="-0.79553">
        <ele>17.043</ele>
        <time>2019-11-04T15:25:52.001Z</time>
      </trkpt>
      <trkpt lat="45.89712" lon="-0.7957">
        <ele>20.308</ele>
        <time>2019-11-04T15:26:22.001Z</time>
      </trkpt>
      <trkpt lat="45.89779" lon="-0.79768">
        <ele>14.008</ele>
        <time>2019-11-04T15:26:55.001Z</time>
      </trkpt>
      <trkpt lat="45.89862" lon="-0.79953">
        <ele>5.773</ele>
        <time>2019-11-04T15:27:28.001Z</time>
      </trkpt>
      <trkpt lat="45.89923" lon="-0.80151">
        <ele>3.9</ele>
        <time>2019-11-04T15:27:58.001Z</time>
      </trkpt>
      <trkpt lat="45.90044" lon="-0.80319">
        <ele>3.7</ele>
        <time>2019-11-04T15:28:31.001Z</time>
      </trkpt>
      <trkpt lat="45.90109" lon="-0.80414">
        <ele>4.68</ele>
        <time>2019-11-04T15:29:04.001Z</time>
      </trkpt>
      <trkpt lat="45.90151" lon="-0.80504">
        <ele>5.637</ele>
        <time>2019-11-04T15:29:34.001Z</time>
      </trkpt>
      <trkpt lat="45.90182" lon="-0.8061">
        <ele>8.866</ele>
        <time>2019-11-04T15:30:07.001Z</time>
      </trkpt>
      <trkpt lat="45.90195" lon="-0.80754">
        <ele>12.911</ele>
        <time>2019-11-04T15:30:40.001Z</time>
      </trkpt>
      <trkpt lat="45.90255" lon="-0.80869">
        <ele>15.496</ele>
        <time>2019-11-04T15:31:10.001Z</time>
      </trkpt>
      <trkpt lat="45.90325" lon="-0.81023">
        <ele>13.506</ele>
        <time>2019-11-04T15:31:43.001Z</time>
      </trkpt>
      <trkpt lat="45.90343" lon="-0.81192">
        <ele>8.493</ele>
        <time>2019-11-04T15:32:16Z</time>
      </trkpt>
      <trkpt lat="45.90333" lon="-0.81335">
        <ele>10.893</ele>
        <time>2019-11-04T15:32:46.001Z</time>
      </trkpt>
      <trkpt lat="45.90368" lon="-0.81489">
        <ele>9.022</ele>
        <time>2019-11-04T15:33:19.001Z</time>
      </trkpt>
      <trkpt lat="45.90417" lon="-0.81627">
        <ele>9.497</ele>
        <time>2019-11-04T15:33:52.001Z</time>
      </trkpt>
      <trkpt lat="45.90464" lon="-0.81765">
        <ele>7.269</ele>
        <time>2019-11-04T15:34:22.001Z</time>
      </trkpt>
      <trkpt lat="45.90497" lon="-0.81931">
        <ele>9.164</ele>
        <time>2019-11-04T15:34:55.001Z</time>
      </trkpt>
      <trkpt lat="45.90547" lon="-0.82222">
        <ele>2.499</ele>
        <time>2019-11-04T15:35:28.001Z</time>
      </trkpt>
      <trkpt lat="45.90687" lon="-0.82278">
        <ele>2.311</ele>
        <time>2019-11-04T15:35:58.001Z</time>
      </trkpt>
      <trkpt lat="45.90837" lon="-0.82335">
        <ele>2.518</ele>
        <time>2019-11-04T15:36:31.001Z</time>
      </trkpt>
      <trkpt lat="45.90962" lon="-0.82459">
        <ele>4.411</ele>
        <time>2019-11-04T15:37:04.001Z</time>
      </trkpt>
      <trkpt lat="45.91007" lon="-0.82586">
        <ele>8.829</ele>
        <time>2019-11-04T15:37:34.001Z</time>
      </trkpt>
      <trkpt lat="45.91056" lon="-0.82762">
        <ele>6.991</ele>
        <time>2019-11-04T15:38:07.001Z</time>
      </trkpt>
      <trkpt lat="45.91185" lon="-0.82914">
        <ele>5.552</ele>
        <time>2019-11-04T15:38:40.001Z</time>
      </trkpt>
      <trkpt lat="45.91216" lon="-0.83049">
        <ele>2.093</ele>
        <time>2019-11-04T15:39:10.001Z</time>
      </trkpt>
      <trkpt lat="45.91238" lon="-0.83197">
        <ele>4.022</ele>
        <time>2019-11-04T15:39:43.001Z</time>
      </trkpt>
      <trkpt lat="45.91264" lon="-0.83323">
        <ele>3.464</ele>
        <time>2019-11-04T15:40:16Z</time>
      </trkpt>
      <trkpt lat="45.91292" lon="-0.83436">
        <ele>5.081</ele>
        <time>2019-11-04T15:40:46.001Z</time>
      </trkpt>
      <trkpt lat="45.91325" lon="-0.83564">
        <ele>6.726</ele>
        <time>2019-11-04T15:41:19.001Z</time>
      </trkpt>
      <trkpt lat="45.91358" lon="-0.83695">
        <ele>5.53</ele>
        <time>2019-11-04T15:41:52.001Z</time>
      </trkpt>
      <trkpt lat="45.91432" lon="-0.83768">
        <ele>6.671</ele>
        <time>2019-11-04T15:42:22.001Z</time>
      </trkpt>
      <trkpt lat="45.91554" lon="-0.8371">
        <ele>5.584</ele>
        <time>2019-11-04T15:42:55.001Z</time>
      </trkpt>
      <trkpt lat="45.91687" lon="-0.8364">
        <ele>8.231</ele>
        <time>2019-11-04T15:43:28.001Z</time>
      </trkpt>
      <trkpt lat="45.91813" lon="-0.83608">
        <ele>8.733</ele>
        <time>2019-11-04T15:43:58.001Z</time>
      </trkpt>
      <trkpt lat="45.91941" lon="-0.83644">
        <ele>13.184</ele>
        <time>2019-11-04T15:44:31.001Z</time>
      </trkpt>
      <trkpt lat="45.92062" lon="-0.8374">
        <ele>7.177</ele>
        <time>2019-11-04T15:45:01.001Z</time>
      </trkpt>
      <trkpt lat="45.92139" lon="-0.83931">
        <ele>3.17</ele>
        <time>2019-11-04T15:45:34.001Z</time>
      </trkpt>
      <trkpt lat="45.92182" lon="-0.84044">
        <ele>3.228</ele>
        <time>2019-11-04T15:46:07.001Z</time>
      </trkpt>
      <trkpt lat="45.92209" lon="-0.84119">
        <ele>5.043</ele>
        <time>2019-11-04T15:46:37.001Z</time>
      </trkpt>
      <trkpt lat="45.92246" lon="-0.84195">
        <ele>8.892</ele>
        <time>2019-11-04T15:47:10.001Z</time>
      </trkpt>
      <trkpt lat="45.92288" lon="-0.84264">
        <ele>12.226</ele>
        <time>2019-11-04T15:47:43.001Z</time>
      </trkpt>
      <trkpt lat="45.92338" lon="-0.84333">
        <ele>14.56</ele>
        <time>2019-11-04T15:48:13.001Z</time>
      </trkpt>
      <trkpt lat="45.92418" lon="-0.84404">
        <ele>15.487</ele>
        <time>2019-11-04T15:48:46.001Z</time>
      </trkpt>
      <trkpt lat="45.925" lon="-0.84502">
        <ele>17.503</ele>
        <time>2019-11-04T15:49:19.001Z</time>
      </trkpt>
      <trkpt lat="45.92606" lon="-0.84582">
        <ele>18.462</ele>
        <time>2019-11-04T15:49:49.001Z</time>
      </trkpt>
      <trkpt lat="45.92696" lon="-0.8474">
        <ele>11.189</ele>
        <time>2019-11-04T15:50:22.001Z</time>
      </trkpt>
      <trkpt lat="45.92779" lon="-0.84881">
        <ele>4.838</ele>
        <time>2019-11-04T15:50:55.001Z</time>
      </trkpt>
      <trkpt lat="45.92847" lon="-0.8501">
        <ele>6.578</ele>
        <time>2019-11-04T15:51:25.001Z</time>
      </trkpt>
      <trkpt lat="45.92903" lon="-0.8514">
        <ele>8.32</ele>
        <time>2019-11-04T15:51:58.001Z</time>
      </trkpt>
      <trkpt lat="45.92932" lon="-0.85244">
        <ele>12.505</ele>
        <time>2019-11-04T15:52:31.001Z</time>
      </trkpt>
      <trkpt lat="45.92845" lon="-0.85289">
        <ele>13.477</ele>
        <time>2019-11-04T15:53:01.001Z</time>
      </trkpt>
      <trkpt lat="45.92763" lon="-0.85395">
        <ele>15.873</ele>
        <time>2019-11-04T15:53:34.001Z</time>
      </trkpt>
      <trkpt lat="45.92701" lon="-0.85531">
        <ele>20.042</ele>
        <time>2019-11-04T15:54:07.001Z</time>
      </trkpt>
    </trkseg>
  </trk>
  <trk>
    <name><![CDATA[Tracé 20191105-085943]]></name>
    <trkseg>
      <trkpt lat="45.92675" lon="-0.85561">
        <ele>8.912</ele>
        <time>2019-11-05T08:00:10Z</time>
      </trkpt>
      <trkpt lat="45.92641" lon="-0.85619">
        <ele>11.704</ele>
        <time>2019-11-05T08:05:46Z</time>
      </trkpt>
      <trkpt lat="45.92561" lon="-0.85725">
        <ele>12.64</ele>
        <time>2019-11-05T08:06:19Z</time>
      </trkpt>
      <trkpt lat="45.92615" lon="-0.85842">
        <ele>15.017</ele>
        <time>2019-11-05T08:06:49Z</time>
      </trkpt>
      <trkpt lat="45.92753" lon="-0.85983">
        <ele>13.7</ele>
        <time>2019-11-05T08:07:19Z</time>
      </trkpt>
      <trkpt lat="45.92843" lon="-0.86195">
        <ele>10.205</ele>
        <time>2019-11-05T08:07:52Z</time>
      </trkpt>
      <trkpt lat="45.92889" lon="-0.86318">
        <ele>12.818</ele>
        <time>2019-11-05T08:08:22Z</time>
      </trkpt>
      <trkpt lat="45.92942" lon="-0.86429">
        <ele>11.675</ele>
        <time>2019-11-05T08:08:52Z</time>
      </trkpt>
      <trkpt lat="45.93019" lon="-0.86534">
        <ele>14.213</ele>
        <time>2019-11-05T08:09:25Z</time>
      </trkpt>
      <trkpt lat="45.93077" lon="-0.86658">
        <ele>11.977</ele>
        <time>2019-11-05T08:09:55Z</time>
      </trkpt>
      <trkpt lat="45.93052" lon="-0.86816">
        <ele>16.385</ele>
        <time>2019-11-05T08:10:25Z</time>
      </trkpt>
      <trkpt lat="45.92891" lon="-0.86851">
        <ele>8.649</ele>
        <time>2019-11-05T08:10:55Z</time>
      </trkpt>
      <trkpt lat="45.92961" lon="-0.86937">
        <ele>4.533</ele>
        <time>2019-11-05T08:11:28Z</time>
      </trkpt>
      <trkpt lat="45.93058" lon="-0.87028">
        <ele>3.958</ele>
        <time>2019-11-05T08:11:58Z</time>
      </trkpt>
      <trkpt lat="45.93169" lon="-0.87137">
        <ele>3.092</ele>
        <time>2019-11-05T08:12:28Z</time>
      </trkpt>
      <trkpt lat="45.93307" lon="-0.87266">
        <ele>4.427</ele>
        <time>2019-11-05T08:13:01Z</time>
      </trkpt>
      <trkpt lat="45.93429" lon="-0.87382">
        <ele>5.672</ele>
        <time>2019-11-05T08:13:31Z</time>
      </trkpt>
      <trkpt lat="45.93532" lon="-0.87482">
        <ele>4.027</ele>
        <time>2019-11-05T08:14:01Z</time>
      </trkpt>
      <trkpt lat="45.93635" lon="-0.876">
        <ele>7.486</ele>
        <time>2019-11-05T08:14:31Z</time>
      </trkpt>
      <trkpt lat="45.93735" lon="-0.87714">
        <ele>6.69</ele>
        <time>2019-11-05T08:15:04Z</time>
      </trkpt>
      <trkpt lat="45.93834" lon="-0.87832">
        <ele>10.488</ele>
        <time>2019-11-05T08:15:34Z</time>
      </trkpt>
      <trkpt lat="45.93926" lon="-0.8794">
        <ele>10.593</ele>
        <time>2019-11-05T08:16:04Z</time>
      </trkpt>
      <trkpt lat="45.93988" lon="-0.88071">
        <ele>11.474</ele>
        <time>2019-11-05T08:16:37Z</time>
      </trkpt>
      <trkpt lat="45.93951" lon="-0.88231">
        <ele>9.9</ele>
        <time>2019-11-05T08:17:07Z</time>
      </trkpt>
      <trkpt lat="45.93965" lon="-0.88398">
        <ele>7.833</ele>
        <time>2019-11-05T08:17:37Z</time>
      </trkpt>
      <trkpt lat="45.94062" lon="-0.88586">
        <ele>3.86</ele>
        <time>2019-11-05T08:18:10Z</time>
      </trkpt>
      <trkpt lat="45.94151" lon="-0.88734">
        <ele>8.402</ele>
        <time>2019-11-05T08:18:40Z</time>
      </trkpt>
      <trkpt lat="45.94205" lon="-0.88872">
        <ele>13.978</ele>
        <time>2019-11-05T08:19:10Z</time>
      </trkpt>
      <trkpt lat="45.94242" lon="-0.89035">
        <ele>16.826</ele>
        <time>2019-11-05T08:19:40Z</time>
      </trkpt>
      <trkpt lat="45.94264" lon="-0.89243">
        <ele>7.8</ele>
        <time>2019-11-05T08:20:13Z</time>
      </trkpt>
      <trkpt lat="45.94345" lon="-0.89289">
        <ele>6.724</ele>
        <time>2019-11-05T08:20:43Z</time>
      </trkpt>
      <trkpt lat="45.94425" lon="-0.89285">
        <ele>8.669</ele>
        <time>2019-11-05T08:21:13Z</time>
      </trkpt>
      <trkpt lat="45.94456" lon="-0.89402">
        <ele>19.863</ele>
        <time>2019-11-05T08:21:46Z</time>
      </trkpt>
      <trkpt lat="45.94491" lon="-0.89524">
        <ele>25.644</ele>
        <time>2019-11-05T08:22:16Z</time>
      </trkpt>
      <trkpt lat="45.9453" lon="-0.89654">
        <ele>23.704</ele>
        <time>2019-11-05T08:22:46Z</time>
      </trkpt>
      <trkpt lat="45.94567" lon="-0.89777">
        <ele>29.593</ele>
        <time>2019-11-05T08:23:16Z</time>
      </trkpt>
      <trkpt lat="45.94606" lon="-0.89909">
        <ele>28.44</ele>
        <time>2019-11-05T08:23:49Z</time>
      </trkpt>
      <trkpt lat="45.94623" lon="-0.90023">
        <ele>32.212</ele>
        <time>2019-11-05T08:24:19Z</time>
      </trkpt>
      <trkpt lat="45.94643" lon="-0.90149">
        <ele>30.408</ele>
        <time>2019-11-05T08:24:49Z</time>
      </trkpt>
      <trkpt lat="45.94662" lon="-0.90286">
        <ele>27.342</ele>
        <time>2019-11-05T08:25:22Z</time>
      </trkpt>
      <trkpt lat="45.94685" lon="-0.90413">
        <ele>29.04</ele>
        <time>2019-11-05T08:25:52Z</time>
      </trkpt>
      <trkpt lat="45.94705" lon="-0.90541">
        <ele>31.473</ele>
        <time>2019-11-05T08:26:22Z</time>
      </trkpt>
      <trkpt lat="45.94734" lon="-0.90727">
        <ele>30.044</ele>
        <time>2019-11-05T08:26:55Z</time>
      </trkpt>
      <trkpt lat="45.94762" lon="-0.90902">
        <ele>29.273</ele>
        <time>2019-11-05T08:27:25Z</time>
      </trkpt>
      <trkpt lat="45.9481" lon="-0.91001">
        <ele>27.425</ele>
        <time>2019-11-05T08:27:55Z</time>
      </trkpt>
      <trkpt lat="45.94823" lon="-0.91097">
        <ele>28.647</ele>
        <time>2019-11-05T08:28:25Z</time>
      </trkpt>
      <trkpt lat="45.94824" lon="-0.91308">
        <ele>32.603</ele>
        <time>2019-11-05T08:28:58Z</time>
      </trkpt>
      <trkpt lat="45.94854" lon="-0.91494">
        <ele>32.953</ele>
        <time>2019-11-05T08:29:28Z</time>
      </trkpt>
      <trkpt lat="45.94886" lon="-0.91695">
        <ele>26.101</ele>
        <time>2019-11-05T08:29:58Z</time>
      </trkpt>
      <trkpt lat="45.94926" lon="-0.91959">
        <ele>16.67</ele>
        <time>2019-11-05T08:30:31Z</time>
      </trkpt>
      <trkpt lat="45.94965" lon="-0.92213">
        <ele>10.204</ele>
        <time>2019-11-05T08:31:01Z</time>
      </trkpt>
      <trkpt lat="45.94998" lon="-0.92414">
        <ele>10.257</ele>
        <time>2019-11-05T08:31:31Z</time>
      </trkpt>
      <trkpt lat="45.95029" lon="-0.9261">
        <ele>6.084</ele>
        <time>2019-11-05T08:32:01Z</time>
      </trkpt>
      <trkpt lat="45.95061" lon="-0.92819">
        <ele>4.181</ele>
        <time>2019-11-05T08:32:34Z</time>
      </trkpt>
      <trkpt lat="45.95074" lon="-0.92977">
        <ele>5.775</ele>
        <time>2019-11-05T08:33:04.001Z</time>
      </trkpt>
      <trkpt lat="45.95087" lon="-0.93066">
        <ele>6.272</ele>
        <time>2019-11-05T08:33:34.001Z</time>
      </trkpt>
      <trkpt lat="45.95069" lon="-0.93232">
        <ele>11.547</ele>
        <time>2019-11-05T08:34:07.001Z</time>
      </trkpt>
      <trkpt lat="45.95067" lon="-0.93426">
        <ele>7.488</ele>
        <time>2019-11-05T08:34:37.001Z</time>
      </trkpt>
      <trkpt lat="45.95065" lon="-0.93619">
        <ele>4.472</ele>
        <time>2019-11-05T08:35:07.001Z</time>
      </trkpt>
      <trkpt lat="45.95066" lon="-0.9379">
        <ele>5.555</ele>
        <time>2019-11-05T08:35:40.001Z</time>
      </trkpt>
      <trkpt lat="45.95058" lon="-0.93951">
        <ele>7.952</ele>
        <time>2019-11-05T08:36:10.001Z</time>
      </trkpt>
      <trkpt lat="45.95057" lon="-0.94101">
        <ele>6.627</ele>
        <time>2019-11-05T08:36:40.001Z</time>
      </trkpt>
      <trkpt lat="45.95053" lon="-0.94288">
        <ele>7.827</ele>
        <time>2019-11-05T08:37:10.001Z</time>
      </trkpt>
      <trkpt lat="45.95052" lon="-0.94445">
        <ele>8.202</ele>
        <time>2019-11-05T08:37:55.001Z</time>
      </trkpt>
      <trkpt lat="45.9505" lon="-0.94597">
        <ele>4.591</ele>
        <time>2019-11-05T08:38:25.001Z</time>
      </trkpt>
      <trkpt lat="45.95044" lon="-0.94789">
        <ele>8.375</ele>
        <time>2019-11-05T08:38:55.001Z</time>
      </trkpt>
      <trkpt lat="45.9504" lon="-0.95009">
        <ele>7.3</ele>
        <time>2019-11-05T08:39:28.001Z</time>
      </trkpt>
      <trkpt lat="45.95117" lon="-0.95152">
        <ele>9.159</ele>
        <time>2019-11-05T08:39:58.001Z</time>
      </trkpt>
      <trkpt lat="45.95228" lon="-0.95228">
        <ele>11.671</ele>
        <time>2019-11-05T08:40:28.001Z</time>
      </trkpt>
      <trkpt lat="45.95308" lon="-0.95257">
        <ele>7.578</ele>
        <time>2019-11-05T08:44:13.001Z</time>
      </trkpt>
      <trkpt lat="45.95402" lon="-0.9534">
        <ele>7.169</ele>
        <time>2019-11-05T08:44:46.001Z</time>
      </trkpt>
      <trkpt lat="45.95498" lon="-0.95459">
        <ele>5.526</ele>
        <time>2019-11-05T08:45:16Z</time>
      </trkpt>
      <trkpt lat="45.95568" lon="-0.95518">
        <ele>9.09</ele>
        <time>2019-11-05T08:45:46.001Z</time>
      </trkpt>
      <trkpt lat="45.95649" lon="-0.95587">
        <ele>10.432</ele>
        <time>2019-11-05T08:46:19.001Z</time>
      </trkpt>
      <trkpt lat="45.95737" lon="-0.95664">
        <ele>12.178</ele>
        <time>2019-11-05T08:46:49.001Z</time>
      </trkpt>
      <trkpt lat="45.9587" lon="-0.95738">
        <ele>10.277</ele>
        <time>2019-11-05T08:47:19.001Z</time>
      </trkpt>
      <trkpt lat="45.95864" lon="-0.95947">
        <ele>9.609</ele>
        <time>2019-11-05T08:47:52.001Z</time>
      </trkpt>
      <trkpt lat="45.95865" lon="-0.96231">
        <ele>8.563</ele>
        <time>2019-11-05T08:48:22.001Z</time>
      </trkpt>
      <trkpt lat="45.95861" lon="-0.9646">
        <ele>9.044</ele>
        <time>2019-11-05T08:48:52.001Z</time>
      </trkpt>
      <trkpt lat="45.95847" lon="-0.9664">
        <ele>10.054</ele>
        <time>2019-11-05T08:49:22.001Z</time>
      </trkpt>
      <trkpt lat="45.95833" lon="-0.96828">
        <ele>10.147</ele>
        <time>2019-11-05T08:49:55.001Z</time>
      </trkpt>
      <trkpt lat="45.95805" lon="-0.96966">
        <ele>7.895</ele>
        <time>2019-11-05T08:50:25.001Z</time>
      </trkpt>
      <trkpt lat="45.9565" lon="-0.96923">
        <ele>3.909</ele>
        <time>2019-11-05T08:50:55.001Z</time>
      </trkpt>
      <trkpt lat="45.95543" lon="-0.96981">
        <ele>7.672</ele>
        <time>2019-11-05T08:51:28.001Z</time>
      </trkpt>
      <trkpt lat="45.95513" lon="-0.97099">
        <ele>15.268</ele>
        <time>2019-11-05T08:51:58.001Z</time>
      </trkpt>
      <trkpt lat="45.95488" lon="-0.97207">
        <ele>20.788</ele>
        <time>2019-11-05T08:52:28.001Z</time>
      </trkpt>
      <trkpt lat="45.95453" lon="-0.97323">
        <ele>19.732</ele>
        <time>2019-11-05T08:53:01.001Z</time>
      </trkpt>
      <trkpt lat="45.95422" lon="-0.97433">
        <ele>20.416</ele>
        <time>2019-11-05T08:53:31.001Z</time>
      </trkpt>
      <trkpt lat="45.95389" lon="-0.97613">
        <ele>19.035</ele>
        <time>2019-11-05T08:54:01.001Z</time>
      </trkpt>
      <trkpt lat="45.95365" lon="-0.97734">
        <ele>12.41</ele>
        <time>2019-11-05T08:54:31.001Z</time>
      </trkpt>
      <trkpt lat="45.955" lon="-0.97786">
        <ele>11.811</ele>
        <time>2019-11-05T08:55:04.001Z</time>
      </trkpt>
      <trkpt lat="45.95687" lon="-0.97831">
        <ele>11.852</ele>
        <time>2019-11-05T08:55:34.001Z</time>
      </trkpt>
      <trkpt lat="45.95855" lon="-0.97852">
        <ele>5.86</ele>
        <time>2019-11-05T08:56:04.001Z</time>
      </trkpt>
      <trkpt lat="45.95845" lon="-0.98063">
        <ele>8.991</ele>
        <time>2019-11-05T08:56:37.001Z</time>
      </trkpt>
      <trkpt lat="45.95879" lon="-0.98266">
        <ele>11.084</ele>
        <time>2019-11-05T08:57:07.001Z</time>
      </trkpt>
      <trkpt lat="45.95952" lon="-0.98407">
        <ele>9.006</ele>
        <time>2019-11-05T08:57:37.001Z</time>
      </trkpt>
      <trkpt lat="45.96006" lon="-0.98567">
        <ele>12.29</ele>
        <time>2019-11-05T08:58:07.001Z</time>
      </trkpt>
      <trkpt lat="45.96106" lon="-0.98639">
        <ele>12.508</ele>
        <time>2019-11-05T08:58:40.001Z</time>
      </trkpt>
      <trkpt lat="45.96212" lon="-0.98623">
        <ele>7.087</ele>
        <time>2019-11-05T08:59:10.001Z</time>
      </trkpt>
      <trkpt lat="45.96291" lon="-0.98599">
        <ele>11.098</ele>
        <time>2019-11-05T08:59:40.001Z</time>
      </trkpt>
      <trkpt lat="45.96377" lon="-0.98578">
        <ele>13.113</ele>
        <time>2019-11-05T09:00:13.001Z</time>
      </trkpt>
      <trkpt lat="45.9645" lon="-0.98544">
        <ele>15.117</ele>
        <time>2019-11-05T09:00:43.001Z</time>
      </trkpt>
      <trkpt lat="45.96508" lon="-0.98454">
        <ele>17.844</ele>
        <time>2019-11-05T09:01:13.001Z</time>
      </trkpt>
      <trkpt lat="45.9659" lon="-0.98379">
        <ele>17.373</ele>
        <time>2019-11-05T09:01:46.001Z</time>
      </trkpt>
      <trkpt lat="45.96693" lon="-0.98341">
        <ele>17.603</ele>
        <time>2019-11-05T09:02:16Z</time>
      </trkpt>
      <trkpt lat="45.96849" lon="-0.98307">
        <ele>12.266</ele>
        <time>2019-11-05T09:02:46.001Z</time>
      </trkpt>
      <trkpt lat="45.96972" lon="-0.9847">
        <ele>8.89</ele>
        <time>2019-11-05T09:03:16Z</time>
      </trkpt>
      <trkpt lat="45.97148" lon="-0.98654">
        <ele>7.353</ele>
        <time>2019-11-05T09:03:49.001Z</time>
      </trkpt>
      <trkpt lat="45.97269" lon="-0.98816">
        <ele>2.554</ele>
        <time>2019-11-05T09:04:19.001Z</time>
      </trkpt>
      <trkpt lat="45.97364" lon="-0.9894">
        <ele>2.883</ele>
        <time>2019-11-05T09:04:49.001Z</time>
      </trkpt>
      <trkpt lat="45.97463" lon="-0.99094">
        <ele>5.083</ele>
        <time>2019-11-05T09:05:22.001Z</time>
      </trkpt>
      <trkpt lat="45.97553" lon="-0.99238">
        <ele>3.243</ele>
        <time>2019-11-05T09:05:52.001Z</time>
      </trkpt>
      <trkpt lat="45.97644" lon="-0.99382">
        <ele>1.301</ele>
        <time>2019-11-05T09:06:22.001Z</time>
      </trkpt>
      <trkpt lat="45.9773" lon="-0.99515">
        <ele>3.24</ele>
        <time>2019-11-05T09:06:52.001Z</time>
      </trkpt>
      <trkpt lat="45.97831" lon="-0.99672">
        <ele>2.222</ele>
        <time>2019-11-05T09:07:25.001Z</time>
      </trkpt>
      <trkpt lat="45.97906" lon="-0.99833">
        <ele>3.363</ele>
        <time>2019-11-05T09:07:55.001Z</time>
      </trkpt>
      <trkpt lat="45.97984" lon="-1.00001">
        <ele>2.652</ele>
        <time>2019-11-05T09:08:25.001Z</time>
      </trkpt>
      <trkpt lat="45.98018" lon="-1.00187">
        <ele>6.487</ele>
        <time>2019-11-05T09:08:58.001Z</time>
      </trkpt>
      <trkpt lat="45.98018" lon="-1.00356">
        <ele>5.367</ele>
        <time>2019-11-05T09:09:28.001Z</time>
      </trkpt>
      <trkpt lat="45.98019" lon="-1.00549">
        <ele>8.892</ele>
        <time>2019-11-05T09:09:58.001Z</time>
      </trkpt>
      <trkpt lat="45.98035" lon="-1.00761">
        <ele>8.59</ele>
        <time>2019-11-05T09:10:31.001Z</time>
      </trkpt>
      <trkpt lat="45.98045" lon="-1.00946">
        <ele>2</ele>
        <time>2019-11-05T09:11:01.001Z</time>
      </trkpt>
      <trkpt lat="45.98053" lon="-1.01138">
        <ele>4.817</ele>
        <time>2019-11-05T09:11:31.001Z</time>
      </trkpt>
      <trkpt lat="45.98077" lon="-1.01319">
        <ele>5.106</ele>
        <time>2019-11-05T09:12:01.001Z</time>
      </trkpt>
      <trkpt lat="45.9812" lon="-1.01502">
        <ele>7.524</ele>
        <time>2019-11-05T09:12:34.001Z</time>
      </trkpt>
      <trkpt lat="45.98178" lon="-1.01666">
        <ele>1.8</ele>
        <time>2019-11-05T09:13:04.001Z</time>
      </trkpt>
      <trkpt lat="45.98237" lon="-1.01829">
        <ele>0.691</ele>
        <time>2019-11-05T09:13:34.001Z</time>
      </trkpt>
      <trkpt lat="45.98304" lon="-1.02011">
        <ele>2.229</ele>
        <time>2019-11-05T09:14:07.001Z</time>
      </trkpt>
      <trkpt lat="45.98365" lon="-1.02182">
        <ele>3.207</ele>
        <time>2019-11-05T09:14:37.001Z</time>
      </trkpt>
      <trkpt lat="45.98421" lon="-1.02335">
        <ele>3.944</ele>
        <time>2019-11-05T09:15:07.001Z</time>
      </trkpt>
      <trkpt lat="45.9848" lon="-1.02498">
        <ele>4.699</ele>
        <time>2019-11-05T09:15:37.001Z</time>
      </trkpt>
      <trkpt lat="45.98547" lon="-1.02678">
        <ele>4.443</ele>
        <time>2019-11-05T09:16:10.001Z</time>
      </trkpt>
      <trkpt lat="45.98599" lon="-1.02839">
        <ele>1.536</ele>
        <time>2019-11-05T09:16:40.001Z</time>
      </trkpt>
      <trkpt lat="45.98643" lon="-1.0298">
        <ele>6.417</ele>
        <time>2019-11-05T09:17:10.001Z</time>
      </trkpt>
      <trkpt lat="45.98684" lon="-1.03116">
        <ele>10.868</ele>
        <time>2019-11-05T09:17:43.001Z</time>
      </trkpt>
      <trkpt lat="45.98703" lon="-1.03154">
        <ele>10.21</ele>
        <time>2019-11-05T09:19:13.001Z</time>
      </trkpt>
      <trkpt lat="45.98841" lon="-1.03027">
        <ele>7.712</ele>
        <time>2019-11-05T09:19:43.001Z</time>
      </trkpt>
      <trkpt lat="45.98995" lon="-1.02901">
        <ele>7.924</ele>
        <time>2019-11-05T09:20:16Z</time>
      </trkpt>
      <trkpt lat="45.99131" lon="-1.02846">
        <ele>8.083</ele>
        <time>2019-11-05T09:20:46.001Z</time>
      </trkpt>
      <trkpt lat="45.99225" lon="-1.02735">
        <ele>7.803</ele>
        <time>2019-11-05T09:21:16Z</time>
      </trkpt>
      <trkpt lat="45.99287" lon="-1.02807">
        <ele>4.835</ele>
        <time>2019-11-05T09:21:46.001Z</time>
      </trkpt>
      <trkpt lat="45.99327" lon="-1.03033">
        <ele>4.975</ele>
        <time>2019-11-05T09:22:19.001Z</time>
      </trkpt>
      <trkpt lat="45.99345" lon="-1.03231">
        <ele>5.46</ele>
        <time>2019-11-05T09:22:49.001Z</time>
      </trkpt>
      <trkpt lat="45.99411" lon="-1.0342">
        <ele>11.978</ele>
        <time>2019-11-05T09:23:19.001Z</time>
      </trkpt>
      <trkpt lat="45.99499" lon="-1.03582">
        <ele>7.919</ele>
        <time>2019-11-05T09:23:52.001Z</time>
      </trkpt>
      <trkpt lat="45.99524" lon="-1.03724">
        <ele>11.638</ele>
        <time>2019-11-05T09:24:22.001Z</time>
      </trkpt>
      <trkpt lat="45.99569" lon="-1.03859">
        <ele>11.137</ele>
        <time>2019-11-05T09:24:52.001Z</time>
      </trkpt>
      <trkpt lat="45.99665" lon="-1.04018">
        <ele>11.529</ele>
        <time>2019-11-05T09:25:25.001Z</time>
      </trkpt>
      <trkpt lat="45.9979" lon="-1.04103">
        <ele>5.751</ele>
        <time>2019-11-05T09:25:55.001Z</time>
      </trkpt>
      <trkpt lat="45.99917" lon="-1.04165">
        <ele>7.129</ele>
        <time>2019-11-05T09:26:25.001Z</time>
      </trkpt>
      <trkpt lat="46.0005" lon="-1.04241">
        <ele>3.941</ele>
        <time>2019-11-05T09:26:55.001Z</time>
      </trkpt>
      <trkpt lat="46.00245" lon="-1.04342">
        <ele>0.021</ele>
        <time>2019-11-05T09:27:28.001Z</time>
      </trkpt>
      <trkpt lat="46.00383" lon="-1.04415">
        <ele>4.1</ele>
        <time>2019-11-05T09:27:58.001Z</time>
      </trkpt>
      <trkpt lat="46.00535" lon="-1.04495">
        <ele>2.242</ele>
        <time>2019-11-05T09:28:28.001Z</time>
      </trkpt>
      <trkpt lat="46.00692" lon="-1.0458">
        <ele>1.127</ele>
        <time>2019-11-05T09:29:01.001Z</time>
      </trkpt>
      <trkpt lat="46.00833" lon="-1.04654">
        <ele>0.936</ele>
        <time>2019-11-05T09:29:31.001Z</time>
      </trkpt>
      <trkpt lat="46.00979" lon="-1.04712">
        <ele>1.799</ele>
        <time>2019-11-05T09:30:01.001Z</time>
      </trkpt>
      <trkpt lat="46.01107" lon="-1.04631">
        <ele>1.329</ele>
        <time>2019-11-05T09:30:31.001Z</time>
      </trkpt>
      <trkpt lat="46.01156" lon="-1.04832">
        <ele>3.834</ele>
        <time>2019-11-05T09:31:04.001Z</time>
      </trkpt>
      <trkpt lat="46.0128" lon="-1.04888">
        <ele>4.758</ele>
        <time>2019-11-05T09:31:34.001Z</time>
      </trkpt>
      <trkpt lat="46.01383" lon="-1.04925">
        <ele>6.626</ele>
        <time>2019-11-05T09:32:04.001Z</time>
      </trkpt>
      <trkpt lat="46.0149" lon="-1.04882">
        <ele>8.841</ele>
        <time>2019-11-05T09:32:37.001Z</time>
      </trkpt>
      <trkpt lat="46.01615" lon="-1.04912">
        <ele>9.161</ele>
        <time>2019-11-05T09:33:07.001Z</time>
      </trkpt>
      <trkpt lat="46.01713" lon="-1.04871">
        <ele>8.923</ele>
        <time>2019-11-05T09:33:37.001Z</time>
      </trkpt>
      <trkpt lat="46.01836" lon="-1.04775">
        <ele>13.329</ele>
        <time>2019-11-05T09:34:10.001Z</time>
      </trkpt>
      <trkpt lat="46.01967" lon="-1.04689">
        <ele>13.336</ele>
        <time>2019-11-05T09:34:40.001Z</time>
      </trkpt>
      <trkpt lat="46.02069" lon="-1.04582">
        <ele>6.999</ele>
        <time>2019-11-05T09:35:10.001Z</time>
      </trkpt>
      <trkpt lat="46.02196" lon="-1.04612">
        <ele>3.228</ele>
        <time>2019-11-05T09:35:40.001Z</time>
      </trkpt>
      <trkpt lat="46.02364" lon="-1.04663">
        <ele>3.818</ele>
        <time>2019-11-05T09:36:13.001Z</time>
      </trkpt>
      <trkpt lat="46.02511" lon="-1.04709">
        <ele>2.43</ele>
        <time>2019-11-05T09:36:43.001Z</time>
      </trkpt>
      <trkpt lat="46.02656" lon="-1.04755">
        <ele>2.629</ele>
        <time>2019-11-05T09:37:13.001Z</time>
      </trkpt>
      <trkpt lat="46.02821" lon="-1.04803">
        <ele>2.191</ele>
        <time>2019-11-05T09:37:46.001Z</time>
      </trkpt>
      <trkpt lat="46.02974" lon="-1.04814">
        <ele>1.379</ele>
        <time>2019-11-05T09:38:16Z</time>
      </trkpt>
      <trkpt lat="46.03124" lon="-1.04785">
        <ele>1.674</ele>
        <time>2019-11-05T09:38:46.001Z</time>
      </trkpt>
      <trkpt lat="46.03263" lon="-1.04727">
        <ele>1.796</ele>
        <time>2019-11-05T09:39:16Z</time>
      </trkpt>
      <trkpt lat="46.03424" lon="-1.04663">
        <ele>4.021</ele>
        <time>2019-11-05T09:39:49.001Z</time>
      </trkpt>
      <trkpt lat="46.03572" lon="-1.04604">
        <ele>0.601</ele>
        <time>2019-11-05T09:40:19.001Z</time>
      </trkpt>
      <trkpt lat="46.03705" lon="-1.04522">
        <ele>3.689</ele>
        <time>2019-11-05T09:40:49.001Z</time>
      </trkpt>
      <trkpt lat="46.03835" lon="-1.04376">
        <ele>4.909</ele>
        <time>2019-11-05T09:41:22.001Z</time>
      </trkpt>
      <trkpt lat="46.03958" lon="-1.04254">
        <ele>4.967</ele>
        <time>2019-11-05T09:41:52.001Z</time>
      </trkpt>
      <trkpt lat="46.04078" lon="-1.04136">
        <ele>5.7</ele>
        <time>2019-11-05T09:42:22.001Z</time>
      </trkpt>
      <trkpt lat="46.04207" lon="-1.04">
        <ele>7.634</ele>
        <time>2019-11-05T09:42:55.001Z</time>
      </trkpt>
      <trkpt lat="46.04265" lon="-1.04044">
        <ele>9.692</ele>
        <time>2019-11-05T09:43:25.001Z</time>
      </trkpt>
      <trkpt lat="46.04248" lon="-1.04253">
        <ele>9.029</ele>
        <time>2019-11-05T09:43:55.001Z</time>
      </trkpt>
      <trkpt lat="46.04231" lon="-1.04455">
        <ele>5.154</ele>
        <time>2019-11-05T09:44:25.001Z</time>
      </trkpt>
      <trkpt lat="46.04259" lon="-1.04663">
        <ele>4.633</ele>
        <time>2019-11-05T09:45:01.001Z</time>
      </trkpt>
      <trkpt lat="46.04393" lon="-1.04646">
        <ele>2.056</ele>
        <time>2019-11-05T09:45:31.001Z</time>
      </trkpt>
      <trkpt lat="46.04525" lon="-1.04758">
        <ele>3.203</ele>
        <time>2019-11-05T09:46:01.001Z</time>
      </trkpt>
      <trkpt lat="46.04662" lon="-1.04871">
        <ele>4.744</ele>
        <time>2019-11-05T09:46:34.001Z</time>
      </trkpt>
      <trkpt lat="46.04784" lon="-1.04968">
        <ele>7.47</ele>
        <time>2019-11-05T09:47:04.001Z</time>
      </trkpt>
      <trkpt lat="46.04912" lon="-1.05099">
        <ele>7.43</ele>
        <time>2019-11-05T09:47:34.001Z</time>
      </trkpt>
      <trkpt lat="46.05041" lon="-1.05211">
        <ele>2.773</ele>
        <time>2019-11-05T09:48:04.001Z</time>
      </trkpt>
      <trkpt lat="46.05184" lon="-1.05325">
        <ele>1.136</ele>
        <time>2019-11-05T09:48:37.001Z</time>
      </trkpt>
      <trkpt lat="46.0531" lon="-1.05427">
        <ele>2.045</ele>
        <time>2019-11-05T09:49:07.001Z</time>
      </trkpt>
      <trkpt lat="46.05436" lon="-1.05532">
        <ele>2.146</ele>
        <time>2019-11-05T09:49:37.001Z</time>
      </trkpt>
      <trkpt lat="46.05572" lon="-1.0564">
        <ele>1.792</ele>
        <time>2019-11-05T09:50:10.001Z</time>
      </trkpt>
      <trkpt lat="46.05675" lon="-1.0579">
        <ele>1.863</ele>
        <time>2019-11-05T09:50:40.001Z</time>
      </trkpt>
      <trkpt lat="46.05697" lon="-1.05861">
        <ele>6.343</ele>
        <time>2019-11-05T09:52:28.001Z</time>
      </trkpt>
      <trkpt lat="46.05767" lon="-1.05922">
        <ele>12.172</ele>
        <time>2019-11-05T09:53:01.001Z</time>
      </trkpt>
      <trkpt lat="46.05703" lon="-1.05867">
        <ele>5.933</ele>
        <time>2019-11-05T09:53:37.001Z</time>
      </trkpt>
      <trkpt lat="46.05697" lon="-1.05865">
        <ele>7.021</ele>
        <time>2019-11-05T09:54:55.001Z</time>
      </trkpt>
      <trkpt lat="46.05705" lon="-1.05895">
        <ele>6.653</ele>
        <time>2019-11-05T09:56:04.001Z</time>
      </trkpt>
      <trkpt lat="46.05724" lon="-1.06051">
        <ele>6.683</ele>
        <time>2019-11-05T09:56:40.001Z</time>
      </trkpt>
      <trkpt lat="46.05749" lon="-1.06209">
        <ele>2.657</ele>
        <time>2019-11-05T09:57:10.001Z</time>
      </trkpt>
      <trkpt lat="46.05774" lon="-1.06393">
        <ele>4.312</ele>
        <time>2019-11-05T09:57:40.001Z</time>
      </trkpt>
      <trkpt lat="46.0575" lon="-1.06548">
        <ele>0.468</ele>
        <time>2019-11-05T09:58:13.001Z</time>
      </trkpt>
      <trkpt lat="46.05619" lon="-1.06607">
        <ele>2.934</ele>
        <time>2019-11-05T09:58:43.001Z</time>
      </trkpt>
      <trkpt lat="46.05488" lon="-1.06665">
        <ele>2.332</ele>
        <time>2019-11-05T09:59:13.001Z</time>
      </trkpt>
      <trkpt lat="46.05332" lon="-1.06736">
        <ele>2.986</ele>
        <time>2019-11-05T09:59:46.001Z</time>
      </trkpt>
      <trkpt lat="46.05205" lon="-1.06793">
        <ele>1.713</ele>
        <time>2019-11-05T10:00:16Z</time>
      </trkpt>
      <trkpt lat="46.05085" lon="-1.06845">
        <ele>3.573</ele>
        <time>2019-11-05T10:00:46.001Z</time>
      </trkpt>
      <trkpt lat="46.05059" lon="-1.06909">
        <ele>3.868</ele>
        <time>2019-11-05T10:01:16Z</time>
      </trkpt>
      <trkpt lat="46.05091" lon="-1.07039">
        <ele>1.379</ele>
        <time>2019-11-05T10:01:49.001Z</time>
      </trkpt>
      <trkpt lat="46.05148" lon="-1.07185">
        <ele>3.177</ele>
        <time>2019-11-05T10:02:19.001Z</time>
      </trkpt>
      <trkpt lat="46.05205" lon="-1.07332">
        <ele>3.239</ele>
        <time>2019-11-05T10:02:49.001Z</time>
      </trkpt>
      <trkpt lat="46.05269" lon="-1.07497">
        <ele>2.89</ele>
        <time>2019-11-05T10:03:22.001Z</time>
      </trkpt>
      <trkpt lat="46.05324" lon="-1.07656">
        <ele>0.902</ele>
        <time>2019-11-05T10:03:52.001Z</time>
      </trkpt>
      <trkpt lat="46.05351" lon="-1.07834">
        <ele>3.25</ele>
        <time>2019-11-05T10:04:22.001Z</time>
      </trkpt>
      <trkpt lat="46.05341" lon="-1.08016">
        <ele>1.624</ele>
        <time>2019-11-05T10:04:52.001Z</time>
      </trkpt>
      <trkpt lat="46.05313" lon="-1.08235">
        <ele>1.236</ele>
        <time>2019-11-05T10:05:25.001Z</time>
      </trkpt>
      <trkpt lat="46.05301" lon="-1.08338">
        <ele>2.826</ele>
        <time>2019-11-05T10:05:55.001Z</time>
      </trkpt>
      <trkpt lat="46.05306" lon="-1.08476">
        <ele>3.5</ele>
        <time>2019-11-05T10:06:25.001Z</time>
      </trkpt>
      <trkpt lat="46.05331" lon="-1.08658">
        <ele>1.341</ele>
        <time>2019-11-05T10:06:58.001Z</time>
      </trkpt>
      <trkpt lat="46.05377" lon="-1.0876">
        <ele>4.33</ele>
        <time>2019-11-05T10:07:28.001Z</time>
      </trkpt>
      <trkpt lat="46.05461" lon="-1.08745">
        <ele>11.714</ele>
        <time>2019-11-05T10:07:58.001Z</time>
      </trkpt>
      <trkpt lat="46.05549" lon="-1.08729">
        <ele>16.821</ele>
        <time>2019-11-05T10:08:31.001Z</time>
      </trkpt>
      <trkpt lat="46.05648" lon="-1.08712">
        <ele>13.626</ele>
        <time>2019-11-05T10:09:01.001Z</time>
      </trkpt>
      <trkpt lat="46.05733" lon="-1.08697">
        <ele>17.574</ele>
        <time>2019-11-05T10:09:31.001Z</time>
      </trkpt>
      <trkpt lat="46.05813" lon="-1.08677">
        <ele>19.812</ele>
        <time>2019-11-05T10:10:01.001Z</time>
      </trkpt>
      <trkpt lat="46.05868" lon="-1.08757">
        <ele>22.588</ele>
        <time>2019-11-05T10:10:34.001Z</time>
      </trkpt>
      <trkpt lat="46.05945" lon="-1.08955">
        <ele>14.096</ele>
        <time>2019-11-05T10:11:04.001Z</time>
      </trkpt>
      <trkpt lat="46.06091" lon="-1.09048">
        <ele>11.512</ele>
        <time>2019-11-05T10:11:34.001Z</time>
      </trkpt>
      <trkpt lat="46.06267" lon="-1.09169">
        <ele>2.109</ele>
        <time>2019-11-05T10:12:10.001Z</time>
      </trkpt>
      <trkpt lat="46.06219" lon="-1.09276">
        <ele>3.649</ele>
        <time>2019-11-05T10:12:40.001Z</time>
      </trkpt>
      <trkpt lat="46.06267" lon="-1.09245">
        <ele>5.597</ele>
        <time>2019-11-05T10:13:16Z</time>
      </trkpt>
      <trkpt lat="46.06392" lon="-1.09203">
        <ele>6.813</ele>
        <time>2019-11-05T10:13:46.001Z</time>
      </trkpt>
      <trkpt lat="46.0654" lon="-1.09158">
        <ele>1.657</ele>
        <time>2019-11-05T10:14:19.001Z</time>
      </trkpt>
      <trkpt lat="46.06616" lon="-1.09132">
        <ele>5.601</ele>
        <time>2019-11-05T10:14:49.001Z</time>
      </trkpt>
      <trkpt lat="46.06739" lon="-1.09094">
        <ele>4.264</ele>
        <time>2019-11-05T10:15:19.001Z</time>
      </trkpt>
      <trkpt lat="46.06871" lon="-1.09053">
        <ele>5.51</ele>
        <time>2019-11-05T10:15:52.001Z</time>
      </trkpt>
      <trkpt lat="46.06995" lon="-1.09015">
        <ele>2.389</ele>
        <time>2019-11-05T10:16:22.001Z</time>
      </trkpt>
      <trkpt lat="46.07117" lon="-1.08977">
        <ele>4.572</ele>
        <time>2019-11-05T10:16:52.001Z</time>
      </trkpt>
      <trkpt lat="46.07248" lon="-1.08938">
        <ele>11.716</ele>
        <time>2019-11-05T10:17:25.001Z</time>
      </trkpt>
      <trkpt lat="46.07343" lon="-1.0899">
        <ele>15.538</ele>
        <time>2019-11-05T10:17:55.001Z</time>
      </trkpt>
      <trkpt lat="46.07404" lon="-1.09017">
        <ele>21.109</ele>
        <time>2019-11-05T10:18:25.001Z</time>
      </trkpt>
      <trkpt lat="46.07468" lon="-1.0907">
        <ele>24.347</ele>
        <time>2019-11-05T10:18:55.001Z</time>
      </trkpt>
      <trkpt lat="46.07573" lon="-1.09132">
        <ele>23.167</ele>
        <time>2019-11-05T10:19:28.001Z</time>
      </trkpt>
      <trkpt lat="46.0768" lon="-1.09194">
        <ele>25.429</ele>
        <time>2019-11-05T10:19:58.001Z</time>
      </trkpt>
      <trkpt lat="46.07803" lon="-1.09264">
        <ele>22.266</ele>
        <time>2019-11-05T10:20:28.001Z</time>
      </trkpt>
      <trkpt lat="46.07936" lon="-1.0934">
        <ele>8.373</ele>
        <time>2019-11-05T10:21:01.001Z</time>
      </trkpt>
      <trkpt lat="46.08049" lon="-1.09408">
        <ele>14.203</ele>
        <time>2019-11-05T10:21:31.001Z</time>
      </trkpt>
      <trkpt lat="46.08172" lon="-1.0948">
        <ele>11.337</ele>
        <time>2019-11-05T10:22:01.001Z</time>
      </trkpt>
      <trkpt lat="46.08299" lon="-1.09544">
        <ele>4.528</ele>
        <time>2019-11-05T10:22:31.001Z</time>
      </trkpt>
      <trkpt lat="46.08279" lon="-1.09653">
        <ele>3.314</ele>
        <time>2019-11-05T10:23:04.001Z</time>
      </trkpt>
      <trkpt lat="46.08272" lon="-1.09627">
        <ele>3.759</ele>
        <time>2019-11-05T10:24:16Z</time>
      </trkpt>
      <trkpt lat="46.08291" lon="-1.09602">
        <ele>4.389</ele>
        <time>2019-11-05T10:49:19.001Z</time>
      </trkpt>
      <trkpt lat="46.08328" lon="-1.09449">
        <ele>6.313</ele>
        <time>2019-11-05T10:49:52.001Z</time>
      </trkpt>
      <trkpt lat="46.08392" lon="-1.09289">
        <ele>7.816</ele>
        <time>2019-11-05T10:50:22.001Z</time>
      </trkpt>
      <trkpt lat="46.08413" lon="-1.09318">
        <ele>2.1</ele>
        <time>2019-11-05T10:50:55.001Z</time>
      </trkpt>
      <trkpt lat="46.0844" lon="-1.09283">
        <ele>4.579</ele>
        <time>2019-11-05T10:52:28.001Z</time>
      </trkpt>
      <trkpt lat="46.08463" lon="-1.09333">
        <ele>7.508</ele>
        <time>2019-11-05T11:04:37.001Z</time>
      </trkpt>
      <trkpt lat="46.08546" lon="-1.09416">
        <ele>5.863</ele>
        <time>2019-11-05T11:05:07.001Z</time>
      </trkpt>
      <trkpt lat="46.08648" lon="-1.09508">
        <ele>2.176</ele>
        <time>2019-11-05T11:05:37.001Z</time>
      </trkpt>
      <trkpt lat="46.08762" lon="-1.09612">
        <ele>3.692</ele>
        <time>2019-11-05T11:06:10.001Z</time>
      </trkpt>
      <trkpt lat="46.08832" lon="-1.09692">
        <ele>4.352</ele>
        <time>2019-11-05T11:06:43.001Z</time>
      </trkpt>
      <trkpt lat="46.0892" lon="-1.09803">
        <ele>2.003</ele>
        <time>2019-11-05T11:07:13.001Z</time>
      </trkpt>
      <trkpt lat="46.09055" lon="-1.09886">
        <ele>3.429</ele>
        <time>2019-11-05T11:07:46.001Z</time>
      </trkpt>
      <trkpt lat="46.09176" lon="-1.09925">
        <ele>5.413</ele>
        <time>2019-11-05T11:08:16Z</time>
      </trkpt>
      <trkpt lat="46.09313" lon="-1.09956">
        <ele>4.47</ele>
        <time>2019-11-05T11:08:46.001Z</time>
      </trkpt>
      <trkpt lat="46.09459" lon="-1.1001">
        <ele>4.228</ele>
        <time>2019-11-05T11:09:19.001Z</time>
      </trkpt>
      <trkpt lat="46.09525" lon="-1.10079">
        <ele>9.891</ele>
        <time>2019-11-05T11:09:49.001Z</time>
      </trkpt>
      <trkpt lat="46.09594" lon="-1.10175">
        <ele>15.834</ele>
        <time>2019-11-05T11:10:19.001Z</time>
      </trkpt>
      <trkpt lat="46.09659" lon="-1.10286">
        <ele>21.813</ele>
        <time>2019-11-05T11:10:49.001Z</time>
      </trkpt>
      <trkpt lat="46.09739" lon="-1.10419">
        <ele>19.469</ele>
        <time>2019-11-05T11:11:22.001Z</time>
      </trkpt>
      <trkpt lat="46.09827" lon="-1.10493">
        <ele>18.8</ele>
        <time>2019-11-05T11:11:52.001Z</time>
      </trkpt>
      <trkpt lat="46.09917" lon="-1.10572">
        <ele>21.994</ele>
        <time>2019-11-05T11:12:22.001Z</time>
      </trkpt>
      <trkpt lat="46.10043" lon="-1.10685">
        <ele>17.634</ele>
        <time>2019-11-05T11:12:55.001Z</time>
      </trkpt>
      <trkpt lat="46.10095" lon="-1.1076">
        <ele>16.651</ele>
        <time>2019-11-05T11:13:25.001Z</time>
      </trkpt>
      <trkpt lat="46.09983" lon="-1.10793">
        <ele>19.674</ele>
        <time>2019-11-05T11:13:55.001Z</time>
      </trkpt>
      <trkpt lat="46.09957" lon="-1.10883">
        <ele>16.344</ele>
        <time>2019-11-05T11:14:25.001Z</time>
      </trkpt>
      <trkpt lat="46.10059" lon="-1.11072">
        <ele>12.701</ele>
        <time>2019-11-05T11:14:58.001Z</time>
      </trkpt>
      <trkpt lat="46.10163" lon="-1.1121">
        <ele>13.869</ele>
        <time>2019-11-05T11:15:28.001Z</time>
      </trkpt>
      <trkpt lat="46.10239" lon="-1.11284">
        <ele>11.844</ele>
        <time>2019-11-05T11:16:04.001Z</time>
      </trkpt>
      <trkpt lat="46.10365" lon="-1.11369">
        <ele>11.489</ele>
        <time>2019-11-05T11:16:37.001Z</time>
      </trkpt>
      <trkpt lat="46.10371" lon="-1.11517">
        <ele>9.974</ele>
        <time>2019-11-05T11:17:07.001Z</time>
      </trkpt>
      <trkpt lat="46.10333" lon="-1.11702">
        <ele>9.11</ele>
        <time>2019-11-05T11:17:37.001Z</time>
      </trkpt>
      <trkpt lat="46.10379" lon="-1.11831">
        <ele>10.976</ele>
        <time>2019-11-05T11:18:10.001Z</time>
      </trkpt>
      <trkpt lat="46.10501" lon="-1.11873">
        <ele>14.654</ele>
        <time>2019-11-05T11:18:40.001Z</time>
      </trkpt>
      <trkpt lat="46.10572" lon="-1.11738">
        <ele>5.944</ele>
        <time>2019-11-05T11:19:10.001Z</time>
      </trkpt>
      <trkpt lat="46.10659" lon="-1.11565">
        <ele>6.685</ele>
        <time>2019-11-05T11:19:40.001Z</time>
      </trkpt>
      <trkpt lat="46.10793" lon="-1.11623">
        <ele>8.948</ele>
        <time>2019-11-05T11:20:13.001Z</time>
      </trkpt>
      <trkpt lat="46.10877" lon="-1.11743">
        <ele>8.693</ele>
        <time>2019-11-05T11:20:43.001Z</time>
      </trkpt>
      <trkpt lat="46.10972" lon="-1.11824">
        <ele>6.368</ele>
        <time>2019-11-05T11:21:13.001Z</time>
      </trkpt>
      <trkpt lat="46.11032" lon="-1.12008">
        <ele>4.101</ele>
        <time>2019-11-05T11:21:46.001Z</time>
      </trkpt>
      <trkpt lat="46.11133" lon="-1.12101">
        <ele>2.294</ele>
        <time>2019-11-05T11:22:16Z</time>
      </trkpt>
      <trkpt lat="46.11233" lon="-1.12191">
        <ele>4.464</ele>
        <time>2019-11-05T11:22:46.001Z</time>
      </trkpt>
      <trkpt lat="46.1129" lon="-1.12295">
        <ele>3.99</ele>
        <time>2019-11-05T11:23:16Z</time>
      </trkpt>
      <trkpt lat="46.11362" lon="-1.12368">
        <ele>8.739</ele>
        <time>2019-11-05T11:23:49.001Z</time>
      </trkpt>
      <trkpt lat="46.11448" lon="-1.12355">
        <ele>11.802</ele>
        <time>2019-11-05T11:24:19.001Z</time>
      </trkpt>
      <trkpt lat="46.11538" lon="-1.12343">
        <ele>10.253</ele>
        <time>2019-11-05T11:24:49.001Z</time>
      </trkpt>
      <trkpt lat="46.11642" lon="-1.12317">
        <ele>6.921</ele>
        <time>2019-11-05T11:25:22.001Z</time>
      </trkpt>
      <trkpt lat="46.11757" lon="-1.1233">
        <ele>9.176</ele>
        <time>2019-11-05T11:25:52.001Z</time>
      </trkpt>
      <trkpt lat="46.11852" lon="-1.12311">
        <ele>9.564</ele>
        <time>2019-11-05T11:26:22.001Z</time>
      </trkpt>
      <trkpt lat="46.11951" lon="-1.12327">
        <ele>6.217</ele>
        <time>2019-11-05T11:26:55.001Z</time>
      </trkpt>
      <trkpt lat="46.12062" lon="-1.1237">
        <ele>0.927</ele>
        <time>2019-11-05T11:27:25.001Z</time>
      </trkpt>
      <trkpt lat="46.12174" lon="-1.12424">
        <ele>2.015</ele>
        <time>2019-11-05T11:27:55.001Z</time>
      </trkpt>
      <trkpt lat="46.12281" lon="-1.12488">
        <ele>1.601</ele>
        <time>2019-11-05T11:28:25.001Z</time>
      </trkpt>
      <trkpt lat="46.12375" lon="-1.12543">
        <ele>5.89</ele>
        <time>2019-11-05T11:28:58.001Z</time>
      </trkpt>
      <trkpt lat="46.12468" lon="-1.12601">
        <ele>10.031</ele>
        <time>2019-11-05T11:29:28.001Z</time>
      </trkpt>
      <trkpt lat="46.12562" lon="-1.12664">
        <ele>8.991</ele>
        <time>2019-11-05T11:29:58.001Z</time>
      </trkpt>
      <trkpt lat="46.12669" lon="-1.12744">
        <ele>5.562</ele>
        <time>2019-11-05T11:30:31.001Z</time>
      </trkpt>
      <trkpt lat="46.12757" lon="-1.12842">
        <ele>8.003</ele>
        <time>2019-11-05T11:31:01.001Z</time>
      </trkpt>
      <trkpt lat="46.12818" lon="-1.1283">
        <ele>8.867</ele>
        <time>2019-11-05T11:31:31.001Z</time>
      </trkpt>
      <trkpt lat="46.12894" lon="-1.12772">
        <ele>10.621</ele>
        <time>2019-11-05T11:32:01.001Z</time>
      </trkpt>
      <trkpt lat="46.12967" lon="-1.1286">
        <ele>4.369</ele>
        <time>2019-11-05T11:32:34.001Z</time>
      </trkpt>
      <trkpt lat="46.12942" lon="-1.12985">
        <ele>5.491</ele>
        <time>2019-11-05T11:33:04.001Z</time>
      </trkpt>
      <trkpt lat="46.12999" lon="-1.13067">
        <ele>4.607</ele>
        <time>2019-11-05T11:33:34.001Z</time>
      </trkpt>
      <trkpt lat="46.13069" lon="-1.13141">
        <ele>3.463</ele>
        <time>2019-11-05T11:34:07.001Z</time>
      </trkpt>
      <trkpt lat="46.13119" lon="-1.13172">
        <ele>4.915</ele>
        <time>2019-11-05T11:34:40.001Z</time>
      </trkpt>
      <trkpt lat="46.13135" lon="-1.13286">
        <ele>3.797</ele>
        <time>2019-11-05T11:35:10.001Z</time>
      </trkpt>
      <trkpt lat="46.13152" lon="-1.1341">
        <ele>4.817</ele>
        <time>2019-11-05T11:35:43.001Z</time>
      </trkpt>
      <trkpt lat="46.13167" lon="-1.1352">
        <ele>8.947</ele>
        <time>2019-11-05T11:36:13.001Z</time>
      </trkpt>
      <trkpt lat="46.13186" lon="-1.13636">
        <ele>12.615</ele>
        <time>2019-11-05T11:36:43.001Z</time>
      </trkpt>
      <trkpt lat="46.13183" lon="-1.13753">
        <ele>19.348</ele>
        <time>2019-11-05T11:37:13.001Z</time>
      </trkpt>
      <trkpt lat="46.13173" lon="-1.1391">
        <ele>11.595</ele>
        <time>2019-11-05T11:37:46.001Z</time>
      </trkpt>
      <trkpt lat="46.13153" lon="-1.14123">
        <ele>1.907</ele>
        <time>2019-11-05T11:38:16Z</time>
      </trkpt>
      <trkpt lat="46.13134" lon="-1.14316">
        <ele>2.383</ele>
        <time>2019-11-05T11:38:46.001Z</time>
      </trkpt>
      <trkpt lat="46.13106" lon="-1.14508">
        <ele>1.624</ele>
        <time>2019-11-05T11:39:19.001Z</time>
      </trkpt>
      <trkpt lat="46.13079" lon="-1.14672">
        <ele>2.048</ele>
        <time>2019-11-05T11:39:49.001Z</time>
      </trkpt>
      <trkpt lat="46.13091" lon="-1.14831">
        <ele>2.682</ele>
        <time>2019-11-05T11:40:19.001Z</time>
      </trkpt>
      <trkpt lat="46.13182" lon="-1.14827">
        <ele>4.523</ele>
        <time>2019-11-05T11:40:49.001Z</time>
      </trkpt>
      <trkpt lat="46.13292" lon="-1.14874">
        <ele>3.381</ele>
        <time>2019-11-05T11:41:22.001Z</time>
      </trkpt>
      <trkpt lat="46.13346" lon="-1.14952">
        <ele>3.177</ele>
        <time>2019-11-05T11:41:52.001Z</time>
      </trkpt>
      <trkpt lat="46.13412" lon="-1.15062">
        <ele>5.043</ele>
        <time>2019-11-05T11:42:22.001Z</time>
      </trkpt>
      <trkpt lat="46.13513" lon="-1.1515">
        <ele>4.492</ele>
        <time>2019-11-05T11:42:55.001Z</time>
      </trkpt>
      <trkpt lat="46.13603" lon="-1.15226">
        <ele>5.965</ele>
        <time>2019-11-05T11:43:25.001Z</time>
      </trkpt>
      <trkpt lat="46.13691" lon="-1.15307">
        <ele>6.049</ele>
        <time>2019-11-05T11:43:55.001Z</time>
      </trkpt>
      <trkpt lat="46.13758" lon="-1.15448">
        <ele>4.707</ele>
        <time>2019-11-05T11:44:28.001Z</time>
      </trkpt>
      <trkpt lat="46.13777" lon="-1.15581">
        <ele>4.365</ele>
        <time>2019-11-05T11:44:58.001Z</time>
      </trkpt>
      <trkpt lat="46.13787" lon="-1.15725">
        <ele>5.545</ele>
        <time>2019-11-05T11:45:28.001Z</time>
      </trkpt>
      <trkpt lat="46.13786" lon="-1.15878">
        <ele>6.049</ele>
        <time>2019-11-05T11:45:58.001Z</time>
      </trkpt>
      <trkpt lat="46.13761" lon="-1.16047">
        <ele>7.883</ele>
        <time>2019-11-05T11:46:31.001Z</time>
      </trkpt>
      <trkpt lat="46.13798" lon="-1.16139">
        <ele>11.419</ele>
        <time>2019-11-05T11:47:01.001Z</time>
      </trkpt>
      <trkpt lat="46.1388" lon="-1.16208">
        <ele>15.032</ele>
        <time>2019-11-05T11:47:31.001Z</time>
      </trkpt>
      <trkpt lat="46.1402" lon="-1.16254">
        <ele>13.974</ele>
        <time>2019-11-05T11:48:04.001Z</time>
      </trkpt>
      <trkpt lat="46.14165" lon="-1.16274">
        <ele>12.562</ele>
        <time>2019-11-05T11:48:34.001Z</time>
      </trkpt>
      <trkpt lat="46.14218" lon="-1.16344">
        <ele>10.068</ele>
        <time>2019-11-05T11:49:04.001Z</time>
      </trkpt>
      <trkpt lat="46.14342" lon="-1.16296">
        <ele>15.026</ele>
        <time>2019-11-05T11:49:37.001Z</time>
      </trkpt>
      <trkpt lat="46.14394" lon="-1.16139">
        <ele>7.852</ele>
        <time>2019-11-05T11:50:07.001Z</time>
      </trkpt>
      <trkpt lat="46.14458" lon="-1.15978">
        <ele>7.625</ele>
        <time>2019-11-05T11:50:37.001Z</time>
      </trkpt>
      <trkpt lat="46.14578" lon="-1.15922">
        <ele>13.735</ele>
        <time>2019-11-05T11:51:07.001Z</time>
      </trkpt>
      <trkpt lat="46.14715" lon="-1.15874">
        <ele>13.186</ele>
        <time>2019-11-05T11:51:40.001Z</time>
      </trkpt>
      <trkpt lat="46.14849" lon="-1.15857">
        <ele>16.275</ele>
        <time>2019-11-05T11:52:10.001Z</time>
      </trkpt>
      <trkpt lat="46.14981" lon="-1.1586">
        <ele>11.816</ele>
        <time>2019-11-05T11:52:40.001Z</time>
      </trkpt>
      <trkpt lat="46.15122" lon="-1.15816">
        <ele>10.994</ele>
        <time>2019-11-05T11:53:13.001Z</time>
      </trkpt>
      <trkpt lat="46.15245" lon="-1.15771">
        <ele>12.266</ele>
        <time>2019-11-05T11:53:43.001Z</time>
      </trkpt>
      <trkpt lat="46.15325" lon="-1.15669">
        <ele>10.844</ele>
        <time>2019-11-05T11:54:13.001Z</time>
      </trkpt>
      <trkpt lat="46.15366" lon="-1.15596">
        <ele>6.878</ele>
        <time>2019-11-05T11:54:43.001Z</time>
      </trkpt>
      <trkpt lat="46.15386" lon="-1.15459">
        <ele>5.803</ele>
        <time>2019-11-05T11:55:16Z</time>
      </trkpt>
      <trkpt lat="46.15407" lon="-1.15309">
        <ele>8.023</ele>
        <time>2019-11-05T11:55:46.001Z</time>
      </trkpt>
      <trkpt lat="46.15446" lon="-1.15235">
        <ele>10.618</ele>
        <time>2019-11-05T11:56:16Z</time>
      </trkpt>
      <trkpt lat="46.15475" lon="-1.15207">
        <ele>14.787</ele>
        <time>2019-11-05T11:56:49.001Z</time>
      </trkpt>
      <trkpt lat="46.15486" lon="-1.15062">
        <ele>16.192</ele>
        <time>2019-11-05T11:57:19.001Z</time>
      </trkpt>
      <trkpt lat="46.15505" lon="-1.14929">
        <ele>14.062</ele>
        <time>2019-11-05T11:57:49.001Z</time>
      </trkpt>
      <trkpt lat="46.15475" lon="-1.14807">
        <ele>19.367</ele>
        <time>2019-11-05T11:58:22.001Z</time>
      </trkpt>
      <trkpt lat="46.15386" lon="-1.14695">
        <ele>23.376</ele>
        <time>2019-11-05T11:58:52.001Z</time>
      </trkpt>
      <trkpt lat="46.15466" lon="-1.14563">
        <ele>29.527</ele>
        <time>2019-11-05T11:59:22.001Z</time>
      </trkpt>
      <trkpt lat="46.15555" lon="-1.14427">
        <ele>21.011</ele>
        <time>2019-11-05T11:59:52.001Z</time>
      </trkpt>
      <trkpt lat="46.15611" lon="-1.14305">
        <ele>6.795</ele>
        <time>2019-11-05T12:00:25.001Z</time>
      </trkpt>
      <trkpt lat="46.15673" lon="-1.14278">
        <ele>10.407</ele>
        <time>2019-11-05T12:00:58.001Z</time>
      </trkpt>
      <trkpt lat="46.15668" lon="-1.14147">
        <ele>6.024</ele>
        <time>2019-11-05T12:01:28.001Z</time>
      </trkpt>
      <trkpt lat="46.15716" lon="-1.13972">
        <ele>7.478</ele>
        <time>2019-11-05T12:02:01.001Z</time>
      </trkpt>
      <trkpt lat="46.15768" lon="-1.13781">
        <ele>10.722</ele>
        <time>2019-11-05T12:02:31.001Z</time>
      </trkpt>
      <trkpt lat="46.1583" lon="-1.13571">
        <ele>7.377</ele>
        <time>2019-11-05T12:03:01.001Z</time>
      </trkpt>
      <trkpt lat="46.15887" lon="-1.1337">
        <ele>13.42</ele>
        <time>2019-11-05T12:03:31.001Z</time>
      </trkpt>
      <trkpt lat="46.15947" lon="-1.13147">
        <ele>12.388</ele>
        <time>2019-11-05T12:04:04.001Z</time>
      </trkpt>
      <trkpt lat="46.16006" lon="-1.12941">
        <ele>8.583</ele>
        <time>2019-11-05T12:04:34.001Z</time>
      </trkpt>
      <trkpt lat="46.16056" lon="-1.12762">
        <ele>10.303</ele>
        <time>2019-11-05T12:05:04.001Z</time>
      </trkpt>
      <trkpt lat="46.16117" lon="-1.12548">
        <ele>14.745</ele>
        <time>2019-11-05T12:05:37.001Z</time>
      </trkpt>
      <trkpt lat="46.16164" lon="-1.12355">
        <ele>9.593</ele>
        <time>2019-11-05T12:06:07.001Z</time>
      </trkpt>
      <trkpt lat="46.16164" lon="-1.12251">
        <ele>11.743</ele>
        <time>2019-11-05T12:06:43.001Z</time>
      </trkpt>
      <trkpt lat="46.16221" lon="-1.12057">
        <ele>11.846</ele>
        <time>2019-11-05T12:07:16Z</time>
      </trkpt>
      <trkpt lat="46.16276" lon="-1.11868">
        <ele>8.173</ele>
        <time>2019-11-05T12:07:46.001Z</time>
      </trkpt>
      <trkpt lat="46.16326" lon="-1.11684">
        <ele>10.357</ele>
        <time>2019-11-05T12:08:16Z</time>
      </trkpt>
      <trkpt lat="46.16394" lon="-1.11582">
        <ele>10.549</ele>
        <time>2019-11-05T12:08:46.001Z</time>
      </trkpt>
      <trkpt lat="46.16457" lon="-1.11415">
        <ele>14.259</ele>
        <time>2019-11-05T12:09:19.001Z</time>
      </trkpt>
      <trkpt lat="46.16536" lon="-1.11251">
        <ele>12.418</ele>
        <time>2019-11-05T12:09:49.001Z</time>
      </trkpt>
      <trkpt lat="46.16618" lon="-1.11098">
        <ele>12.011</ele>
        <time>2019-11-05T12:10:19.001Z</time>
      </trkpt>
      <trkpt lat="46.16699" lon="-1.10943">
        <ele>12.632</ele>
        <time>2019-11-05T12:10:52.001Z</time>
      </trkpt>
      <trkpt lat="46.16736" lon="-1.10855">
        <ele>11.655</ele>
        <time>2019-11-05T12:11:22.001Z</time>
      </trkpt>
      <trkpt lat="46.16802" lon="-1.10733">
        <ele>15.989</ele>
        <time>2019-11-05T12:11:52.001Z</time>
      </trkpt>
      <trkpt lat="46.16874" lon="-1.10593">
        <ele>18.486</ele>
        <time>2019-11-05T12:12:22.001Z</time>
      </trkpt>
      <trkpt lat="46.16935" lon="-1.10427">
        <ele>20.702</ele>
        <time>2019-11-05T12:12:55.001Z</time>
      </trkpt>
      <trkpt lat="46.16958" lon="-1.10269">
        <ele>19.586</ele>
        <time>2019-11-05T12:13:25.001Z</time>
      </trkpt>
      <trkpt lat="46.16944" lon="-1.10092">
        <ele>20.296</ele>
        <time>2019-11-05T12:13:55.001Z</time>
      </trkpt>
      <trkpt lat="46.16911" lon="-1.09911">
        <ele>20.588</ele>
        <time>2019-11-05T12:14:28.001Z</time>
      </trkpt>
      <trkpt lat="46.16884" lon="-1.09742">
        <ele>21.408</ele>
        <time>2019-11-05T12:14:58.001Z</time>
      </trkpt>
      <trkpt lat="46.16855" lon="-1.09568">
        <ele>18.44</ele>
        <time>2019-11-05T12:15:28.001Z</time>
      </trkpt>
      <trkpt lat="46.16826" lon="-1.0939">
        <ele>19.3</ele>
        <time>2019-11-05T12:16:01.001Z</time>
      </trkpt>
      <trkpt lat="46.16801" lon="-1.09235">
        <ele>21.249</ele>
        <time>2019-11-05T12:16:31.001Z</time>
      </trkpt>
      <trkpt lat="46.16788" lon="-1.09097">
        <ele>20.585</ele>
        <time>2019-11-05T12:17:01.001Z</time>
      </trkpt>
      <trkpt lat="46.16821" lon="-1.0894">
        <ele>17.165</ele>
        <time>2019-11-05T12:17:31.001Z</time>
      </trkpt>
      <trkpt lat="46.16841" lon="-1.08776">
        <ele>20.34</ele>
        <time>2019-11-05T12:18:04.001Z</time>
      </trkpt>
      <trkpt lat="46.16864" lon="-1.08613">
        <ele>23.937</ele>
        <time>2019-11-05T12:18:34.001Z</time>
      </trkpt>
      <trkpt lat="46.1689" lon="-1.08459">
        <ele>23.399</ele>
        <time>2019-11-05T12:19:04.001Z</time>
      </trkpt>
      <trkpt lat="46.16923" lon="-1.08278">
        <ele>25.211</ele>
        <time>2019-11-05T12:19:37.001Z</time>
      </trkpt>
      <trkpt lat="46.16945" lon="-1.08119">
        <ele>25.04</ele>
        <time>2019-11-05T12:20:07.001Z</time>
      </trkpt>
      <trkpt lat="46.1697" lon="-1.07959">
        <ele>24.889</ele>
        <time>2019-11-05T12:20:37.001Z</time>
      </trkpt>
      <trkpt lat="46.17002" lon="-1.07775">
        <ele>23.428</ele>
        <time>2019-11-05T12:21:10.001Z</time>
      </trkpt>
      <trkpt lat="46.17059" lon="-1.07632">
        <ele>25.362</ele>
        <time>2019-11-05T12:21:40.001Z</time>
      </trkpt>
      <trkpt lat="46.17127" lon="-1.07513">
        <ele>29.697</ele>
        <time>2019-11-05T12:22:10.001Z</time>
      </trkpt>
      <trkpt lat="46.17206" lon="-1.07393">
        <ele>30.941</ele>
        <time>2019-11-05T12:22:40.001Z</time>
      </trkpt>
      <trkpt lat="46.17287" lon="-1.07266">
        <ele>31.494</ele>
        <time>2019-11-05T12:23:13.001Z</time>
      </trkpt>
      <trkpt lat="46.17341" lon="-1.07173">
        <ele>36.018</ele>
        <time>2019-11-05T12:23:43.001Z</time>
      </trkpt>
      <trkpt lat="46.17342" lon="-1.07171">
        <ele>36.485</ele>
        <time>2019-11-05T12:32:34.001Z</time>
      </trkpt>
      <trkpt lat="46.17342" lon="-1.07169">
        <ele>36.617</ele>
        <time>2019-11-05T12:37:40.001Z</time>
      </trkpt>
      <trkpt lat="46.17368" lon="-1.07128">
        <ele>36.183</ele>
        <time>2019-11-05T12:48:31.001Z</time>
      </trkpt>
      <trkpt lat="46.17418" lon="-1.07027">
        <ele>37.094</ele>
        <time>2019-11-05T12:49:01.001Z</time>
      </trkpt>
      <trkpt lat="46.17495" lon="-1.06996">
        <ele>38.012</ele>
        <time>2019-11-05T12:49:34.001Z</time>
      </trkpt>
      <trkpt lat="46.17582" lon="-1.06963">
        <ele>39.24</ele>
        <time>2019-11-05T12:50:13.001Z</time>
      </trkpt>
      <trkpt lat="46.17663" lon="-1.06832">
        <ele>42.129</ele>
        <time>2019-11-05T12:50:43.001Z</time>
      </trkpt>
      <trkpt lat="46.17749" lon="-1.06671">
        <ele>39.496</ele>
        <time>2019-11-05T12:51:13.001Z</time>
      </trkpt>
      <trkpt lat="46.17813" lon="-1.06555">
        <ele>37.01</ele>
        <time>2019-11-05T12:51:46.001Z</time>
      </trkpt>
      <trkpt lat="46.17911" lon="-1.06384">
        <ele>35.588</ele>
        <time>2019-11-05T12:52:16Z</time>
      </trkpt>
      <trkpt lat="46.17997" lon="-1.06227">
        <ele>27.471</ele>
        <time>2019-11-05T12:52:46.001Z</time>
      </trkpt>
      <trkpt lat="46.18086" lon="-1.06067">
        <ele>25.279</ele>
        <time>2019-11-05T12:53:19.001Z</time>
      </trkpt>
      <trkpt lat="46.18159" lon="-1.0594">
        <ele>27.262</ele>
        <time>2019-11-05T12:53:49.001Z</time>
      </trkpt>
      <trkpt lat="46.18229" lon="-1.0583">
        <ele>24.588</ele>
        <time>2019-11-05T12:54:19.001Z</time>
      </trkpt>
      <trkpt lat="46.18298" lon="-1.05766">
        <ele>19.683</ele>
        <time>2019-11-05T12:54:49.001Z</time>
      </trkpt>
      <trkpt lat="46.18361" lon="-1.05698">
        <ele>19.96</ele>
        <time>2019-11-05T12:55:22.001Z</time>
      </trkpt>
      <trkpt lat="46.18411" lon="-1.05652">
        <ele>23.113</ele>
        <time>2019-11-05T12:56:58.001Z</time>
      </trkpt>
      <trkpt lat="46.18478" lon="-1.05584">
        <ele>20.36</ele>
        <time>2019-11-05T12:57:28.001Z</time>
      </trkpt>
      <trkpt lat="46.18559" lon="-1.05505">
        <ele>17.986</ele>
        <time>2019-11-05T12:58:01.001Z</time>
      </trkpt>
      <trkpt lat="46.18637" lon="-1.05429">
        <ele>23.71</ele>
        <time>2019-11-05T12:58:31.001Z</time>
      </trkpt>
      <trkpt lat="46.18735" lon="-1.05393">
        <ele>25.332</ele>
        <time>2019-11-05T12:59:01.001Z</time>
      </trkpt>
      <trkpt lat="46.18848" lon="-1.05408">
        <ele>20.492</ele>
        <time>2019-11-05T12:59:31.001Z</time>
      </trkpt>
      <trkpt lat="46.18997" lon="-1.05442">
        <ele>23.391</ele>
        <time>2019-11-05T13:00:04.001Z</time>
      </trkpt>
      <trkpt lat="46.19145" lon="-1.05469">
        <ele>22.903</ele>
        <time>2019-11-05T13:00:34.001Z</time>
      </trkpt>
      <trkpt lat="46.19275" lon="-1.05497">
        <ele>22.697</ele>
        <time>2019-11-05T13:01:04.001Z</time>
      </trkpt>
      <trkpt lat="46.19398" lon="-1.05518">
        <ele>25.943</ele>
        <time>2019-11-05T13:01:37.001Z</time>
      </trkpt>
      <trkpt lat="46.1949" lon="-1.05526">
        <ele>18.581</ele>
        <time>2019-11-05T13:02:07.001Z</time>
      </trkpt>
      <trkpt lat="46.19481" lon="-1.0564">
        <ele>12.477</ele>
        <time>2019-11-05T13:02:37.001Z</time>
      </trkpt>
      <trkpt lat="46.19506" lon="-1.0575">
        <ele>24.453</ele>
        <time>2019-11-05T13:03:10.001Z</time>
      </trkpt>
      <trkpt lat="46.19532" lon="-1.05858">
        <ele>27.548</ele>
        <time>2019-11-05T13:03:40.001Z</time>
      </trkpt>
      <trkpt lat="46.19498" lon="-1.05967">
        <ele>16.994</ele>
        <time>2019-11-05T13:04:10.001Z</time>
      </trkpt>
      <trkpt lat="46.19472" lon="-1.06081">
        <ele>16.294</ele>
        <time>2019-11-05T13:04:40.001Z</time>
      </trkpt>
      <trkpt lat="46.19422" lon="-1.06152">
        <ele>20.79</ele>
        <time>2019-11-05T13:05:13.001Z</time>
      </trkpt>
      <trkpt lat="46.19504" lon="-1.06111">
        <ele>22.27</ele>
        <time>2019-11-05T13:05:43.001Z</time>
      </trkpt>
      <trkpt lat="46.19581" lon="-1.06075">
        <ele>19.604</ele>
        <time>2019-11-05T13:06:58.001Z</time>
      </trkpt>
      <trkpt lat="46.19666" lon="-1.06021">
        <ele>17.827</ele>
        <time>2019-11-05T13:08:49.001Z</time>
      </trkpt>
      <trkpt lat="46.19801" lon="-1.05962">
        <ele>15.928</ele>
        <time>2019-11-05T13:09:19.001Z</time>
      </trkpt>
      <trkpt lat="46.19909" lon="-1.05857">
        <ele>10.76</ele>
        <time>2019-11-05T13:09:49.001Z</time>
      </trkpt>
      <trkpt lat="46.19973" lon="-1.05701">
        <ele>9.843</ele>
        <time>2019-11-05T13:10:19.001Z</time>
      </trkpt>
      <trkpt lat="46.20063" lon="-1.05631">
        <ele>14.76</ele>
        <time>2019-11-05T13:10:52.001Z</time>
      </trkpt>
      <trkpt lat="46.20165" lon="-1.05589">
        <ele>14.104</ele>
        <time>2019-11-05T13:11:22.001Z</time>
      </trkpt>
      <trkpt lat="46.20295" lon="-1.05498">
        <ele>8.495</ele>
        <time>2019-11-05T13:11:52.001Z</time>
      </trkpt>
      <trkpt lat="46.20408" lon="-1.05416">
        <ele>10.075</ele>
        <time>2019-11-05T13:12:25.001Z</time>
      </trkpt>
      <trkpt lat="46.20435" lon="-1.05313">
        <ele>10.635</ele>
        <time>2019-11-05T13:12:55.001Z</time>
      </trkpt>
      <trkpt lat="46.20435" lon="-1.05312">
        <ele>9.276</ele>
        <time>2019-11-05T13:16:55.001Z</time>
      </trkpt>
      <trkpt lat="46.20467" lon="-1.05373">
        <ele>12.863</ele>
        <time>2019-11-05T13:17:28.001Z</time>
      </trkpt>
      <trkpt lat="46.20551" lon="-1.0533">
        <ele>10.267</ele>
        <time>2019-11-05T13:17:58.001Z</time>
      </trkpt>
      <trkpt lat="46.20635" lon="-1.05285">
        <ele>11.852</ele>
        <time>2019-11-05T13:18:28.001Z</time>
      </trkpt>
      <trkpt lat="46.20728" lon="-1.05231">
        <ele>14.104</ele>
        <time>2019-11-05T13:18:58.001Z</time>
      </trkpt>
      <trkpt lat="46.20774" lon="-1.05078">
        <ele>6.627</ele>
        <time>2019-11-05T13:19:31.001Z</time>
      </trkpt>
      <trkpt lat="46.20816" lon="-1.04941">
        <ele>3.194</ele>
        <time>2019-11-05T13:20:01.001Z</time>
      </trkpt>
      <trkpt lat="46.20933" lon="-1.04924">
        <ele>7.115</ele>
        <time>2019-11-05T13:20:31.001Z</time>
      </trkpt>
      <trkpt lat="46.2104" lon="-1.04919">
        <ele>8.043</ele>
        <time>2019-11-05T13:21:04.001Z</time>
      </trkpt>
      <trkpt lat="46.21139" lon="-1.04929">
        <ele>8.37</ele>
        <time>2019-11-05T13:21:34.001Z</time>
      </trkpt>
      <trkpt lat="46.21127" lon="-1.04769">
        <ele>4.581</ele>
        <time>2019-11-05T13:22:04.001Z</time>
      </trkpt>
      <trkpt lat="46.21155" lon="-1.0474">
        <ele>3.378</ele>
        <time>2019-11-05T13:23:13.001Z</time>
      </trkpt>
      <trkpt lat="46.2114" lon="-1.04819">
        <ele>5.362</ele>
        <time>2019-11-05T13:23:46.001Z</time>
      </trkpt>
      <trkpt lat="46.21174" lon="-1.04887">
        <ele>6.114</ele>
        <time>2019-11-05T13:24:16Z</time>
      </trkpt>
      <trkpt lat="46.21256" lon="-1.04788">
        <ele>4.172</ele>
        <time>2019-11-05T13:24:46.001Z</time>
      </trkpt>
      <trkpt lat="46.21307" lon="-1.04687">
        <ele>1.969</ele>
        <time>2019-11-05T13:25:19.001Z</time>
      </trkpt>
      <trkpt lat="46.21306" lon="-1.04703">
        <ele>2.658</ele>
        <time>2019-11-05T13:26:10.001Z</time>
      </trkpt>
      <trkpt lat="46.21328" lon="-1.04712">
        <ele>1.541</ele>
        <time>2019-11-05T13:26:43.001Z</time>
      </trkpt>
      <trkpt lat="46.21364" lon="-1.04598">
        <ele>4.586</ele>
        <time>2019-11-05T13:27:19.001Z</time>
      </trkpt>
      <trkpt lat="46.2138" lon="-1.04555">
        <ele>10.326</ele>
        <time>2019-11-05T13:28:10.001Z</time>
      </trkpt>
      <trkpt lat="46.21447" lon="-1.04579">
        <ele>7.624</ele>
        <time>2019-11-05T13:28:40.001Z</time>
      </trkpt>
      <trkpt lat="46.21547" lon="-1.04622">
        <ele>3.935</ele>
        <time>2019-11-05T13:29:10.001Z</time>
      </trkpt>
      <trkpt lat="46.21659" lon="-1.04664">
        <ele>7.658</ele>
        <time>2019-11-05T13:29:43.001Z</time>
      </trkpt>
      <trkpt lat="46.21763" lon="-1.04708">
        <ele>3.704</ele>
        <time>2019-11-05T13:30:13.001Z</time>
      </trkpt>
      <trkpt lat="46.21868" lon="-1.04755">
        <ele>2.393</ele>
        <time>2019-11-05T13:30:43.001Z</time>
      </trkpt>
      <trkpt lat="46.21979" lon="-1.04798">
        <ele>7.612</ele>
        <time>2019-11-05T13:31:16Z</time>
      </trkpt>
      <trkpt lat="46.22086" lon="-1.0484">
        <ele>11.212</ele>
        <time>2019-11-05T13:31:46.001Z</time>
      </trkpt>
      <trkpt lat="46.22195" lon="-1.04891">
        <ele>10.322</ele>
        <time>2019-11-05T13:32:16Z</time>
      </trkpt>
      <trkpt lat="46.22311" lon="-1.04938">
        <ele>8.712</ele>
        <time>2019-11-05T13:32:49.001Z</time>
      </trkpt>
      <trkpt lat="46.22413" lon="-1.04976">
        <ele>4.626</ele>
        <time>2019-11-05T13:33:19.001Z</time>
      </trkpt>
      <trkpt lat="46.22519" lon="-1.05023">
        <ele>3.397</ele>
        <time>2019-11-05T13:33:49.001Z</time>
      </trkpt>
      <trkpt lat="46.22627" lon="-1.05071">
        <ele>5.418</ele>
        <time>2019-11-05T13:34:19.001Z</time>
      </trkpt>
      <trkpt lat="46.22752" lon="-1.05117">
        <ele>8.514</ele>
        <time>2019-11-05T13:34:52.001Z</time>
      </trkpt>
      <trkpt lat="46.22861" lon="-1.05168">
        <ele>6.74</ele>
        <time>2019-11-05T13:35:22.001Z</time>
      </trkpt>
      <trkpt lat="46.22977" lon="-1.05168">
        <ele>3.929</ele>
        <time>2019-11-05T13:35:52.001Z</time>
      </trkpt>
      <trkpt lat="46.23104" lon="-1.05127">
        <ele>2.566</ele>
        <time>2019-11-05T13:36:25.001Z</time>
      </trkpt>
      <trkpt lat="46.23218" lon="-1.05085">
        <ele>2.098</ele>
        <time>2019-11-05T13:36:55.001Z</time>
      </trkpt>
      <trkpt lat="46.23333" lon="-1.05041">
        <ele>2.73</ele>
        <time>2019-11-05T13:37:25.001Z</time>
      </trkpt>
      <trkpt lat="46.2345" lon="-1.04997">
        <ele>2.042</ele>
        <time>2019-11-05T13:37:55.001Z</time>
      </trkpt>
      <trkpt lat="46.23578" lon="-1.0495">
        <ele>4.247</ele>
        <time>2019-11-05T13:38:28.001Z</time>
      </trkpt>
      <trkpt lat="46.23698" lon="-1.04905">
        <ele>3.521</ele>
        <time>2019-11-05T13:38:58.001Z</time>
      </trkpt>
      <trkpt lat="46.2382" lon="-1.04861">
        <ele>3.2</ele>
        <time>2019-11-05T13:39:28.001Z</time>
      </trkpt>
      <trkpt lat="46.23958" lon="-1.0481">
        <ele>2.192</ele>
        <time>2019-11-05T13:40:01.001Z</time>
      </trkpt>
      <trkpt lat="46.24073" lon="-1.04765">
        <ele>1.426</ele>
        <time>2019-11-05T13:40:31.001Z</time>
      </trkpt>
      <trkpt lat="46.24189" lon="-1.04724">
        <ele>3.864</ele>
        <time>2019-11-05T13:41:01.001Z</time>
      </trkpt>
      <trkpt lat="46.24316" lon="-1.04678">
        <ele>0.8</ele>
        <time>2019-11-05T13:41:34.001Z</time>
      </trkpt>
      <trkpt lat="46.24437" lon="-1.04633">
        <ele>1.239</ele>
        <time>2019-11-05T13:42:04.001Z</time>
      </trkpt>
      <trkpt lat="46.24553" lon="-1.04587">
        <ele>2.267</ele>
        <time>2019-11-05T13:42:34.001Z</time>
      </trkpt>
      <trkpt lat="46.24667" lon="-1.04547">
        <ele>4.606</ele>
        <time>2019-11-05T13:43:04.001Z</time>
      </trkpt>
      <trkpt lat="46.24784" lon="-1.04504">
        <ele>2.78</ele>
        <time>2019-11-05T13:43:37.001Z</time>
      </trkpt>
      <trkpt lat="46.24871" lon="-1.04469">
        <ele>2.647</ele>
        <time>2019-11-05T13:44:10.001Z</time>
      </trkpt>
      <trkpt lat="46.24988" lon="-1.04429">
        <ele>1.798</ele>
        <time>2019-11-05T13:44:40.001Z</time>
      </trkpt>
      <trkpt lat="46.25108" lon="-1.04385">
        <ele>3.375</ele>
        <time>2019-11-05T13:45:13.001Z</time>
      </trkpt>
      <trkpt lat="46.25221" lon="-1.04342">
        <ele>2.237</ele>
        <time>2019-11-05T13:45:43.001Z</time>
      </trkpt>
      <trkpt lat="46.25338" lon="-1.04298">
        <ele>2.372</ele>
        <time>2019-11-05T13:46:13.001Z</time>
      </trkpt>
      <trkpt lat="46.25451" lon="-1.04257">
        <ele>0.51</ele>
        <time>2019-11-05T13:46:43.001Z</time>
      </trkpt>
      <trkpt lat="46.25582" lon="-1.0421">
        <ele>2.5</ele>
        <time>2019-11-05T13:47:16Z</time>
      </trkpt>
      <trkpt lat="46.25693" lon="-1.04164">
        <ele>0.626</ele>
        <time>2019-11-05T13:47:46.001Z</time>
      </trkpt>
      <trkpt lat="46.25807" lon="-1.04125">
        <ele>1.151</ele>
        <time>2019-11-05T13:48:16Z</time>
      </trkpt>
      <trkpt lat="46.25943" lon="-1.04076">
        <ele>1.272</ele>
        <time>2019-11-05T13:48:49.001Z</time>
      </trkpt>
      <trkpt lat="46.26055" lon="-1.04031">
        <ele>0.996</ele>
        <time>2019-11-05T13:49:19.001Z</time>
      </trkpt>
      <trkpt lat="46.26169" lon="-1.03991">
        <ele>3.7</ele>
        <time>2019-11-05T13:49:49.001Z</time>
      </trkpt>
      <trkpt lat="46.26292" lon="-1.03942">
        <ele>3.5</ele>
        <time>2019-11-05T13:50:22.001Z</time>
      </trkpt>
      <trkpt lat="46.26404" lon="-1.03902">
        <ele>0.686</ele>
        <time>2019-11-05T13:50:52.001Z</time>
      </trkpt>
      <trkpt lat="46.26519" lon="-1.0386">
        <ele>0.8</ele>
        <time>2019-11-05T13:51:22.001Z</time>
      </trkpt>
      <trkpt lat="46.26638" lon="-1.03815">
        <ele>4.264</ele>
        <time>2019-11-05T13:51:52.001Z</time>
      </trkpt>
      <trkpt lat="46.26757" lon="-1.03771">
        <ele>2.501</ele>
        <time>2019-11-05T13:52:25.001Z</time>
      </trkpt>
      <trkpt lat="46.26871" lon="-1.0373">
        <ele>0.575</ele>
        <time>2019-11-05T13:52:55.001Z</time>
      </trkpt>
      <trkpt lat="46.26985" lon="-1.03687">
        <ele>1.353</ele>
        <time>2019-11-05T13:53:25.001Z</time>
      </trkpt>
      <trkpt lat="46.2711" lon="-1.03642">
        <ele>0.654</ele>
        <time>2019-11-05T13:53:58.001Z</time>
      </trkpt>
      <trkpt lat="46.27218" lon="-1.03603">
        <ele>3.002</ele>
        <time>2019-11-05T13:54:28.001Z</time>
      </trkpt>
      <trkpt lat="46.27334" lon="-1.03559">
        <ele>2.56</ele>
        <time>2019-11-05T13:54:58.001Z</time>
      </trkpt>
      <trkpt lat="46.27443" lon="-1.03517">
        <ele>2.163</ele>
        <time>2019-11-05T13:55:28.001Z</time>
      </trkpt>
      <trkpt lat="46.27565" lon="-1.0347">
        <ele>2.2</ele>
        <time>2019-11-05T13:56:01.001Z</time>
      </trkpt>
      <trkpt lat="46.2768" lon="-1.03431">
        <ele>0.652</ele>
        <time>2019-11-05T13:56:31.001Z</time>
      </trkpt>
      <trkpt lat="46.2779" lon="-1.03388">
        <ele>1.525</ele>
        <time>2019-11-05T13:57:01.001Z</time>
      </trkpt>
      <trkpt lat="46.27914" lon="-1.03344">
        <ele>1.761</ele>
        <time>2019-11-05T13:57:34.001Z</time>
      </trkpt>
      <trkpt lat="46.28022" lon="-1.03304">
        <ele>1.519</ele>
        <time>2019-11-05T13:58:04.001Z</time>
      </trkpt>
      <trkpt lat="46.28131" lon="-1.03259">
        <ele>1.638</ele>
        <time>2019-11-05T13:58:34.001Z</time>
      </trkpt>
      <trkpt lat="46.28257" lon="-1.03207">
        <ele>2.7</ele>
        <time>2019-11-05T13:59:07.001Z</time>
      </trkpt>
      <trkpt lat="46.28372" lon="-1.03164">
        <ele>1.9</ele>
        <time>2019-11-05T13:59:37.001Z</time>
      </trkpt>
      <trkpt lat="46.28486" lon="-1.03123">
        <ele>1.5</ele>
        <time>2019-11-05T14:00:07.001Z</time>
      </trkpt>
      <trkpt lat="46.28601" lon="-1.03082">
        <ele>1.1</ele>
        <time>2019-11-05T14:00:37.001Z</time>
      </trkpt>
      <trkpt lat="46.28715" lon="-1.03037">
        <ele>1</ele>
        <time>2019-11-05T14:01:10.001Z</time>
      </trkpt>
      <trkpt lat="46.28819" lon="-1.03">
        <ele>1</ele>
        <time>2019-11-05T14:01:40.001Z</time>
      </trkpt>
      <trkpt lat="46.28934" lon="-1.0297">
        <ele>1</ele>
        <time>2019-11-05T14:02:10.001Z</time>
      </trkpt>
      <trkpt lat="46.29048" lon="-1.02927">
        <ele>1</ele>
        <time>2019-11-05T14:02:43.001Z</time>
      </trkpt>
      <trkpt lat="46.29152" lon="-1.02889">
        <ele>1.9</ele>
        <time>2019-11-05T14:03:13.001Z</time>
      </trkpt>
      <trkpt lat="46.2925" lon="-1.02855">
        <ele>0.052</ele>
        <time>2019-11-05T14:03:43.001Z</time>
      </trkpt>
      <trkpt lat="46.29374" lon="-1.02806">
        <ele>0.233</ele>
        <time>2019-11-05T14:04:16Z</time>
      </trkpt>
      <trkpt lat="46.29488" lon="-1.02764">
        <ele>1.7</ele>
        <time>2019-11-05T14:04:46.001Z</time>
      </trkpt>
      <trkpt lat="46.29601" lon="-1.02721">
        <ele>1.6</ele>
        <time>2019-11-05T14:05:16Z</time>
      </trkpt>
      <trkpt lat="46.2971" lon="-1.02681">
        <ele>1</ele>
        <time>2019-11-05T14:05:46.001Z</time>
      </trkpt>
      <trkpt lat="46.29832" lon="-1.02637">
        <ele>1.9</ele>
        <time>2019-11-05T14:06:19.001Z</time>
      </trkpt>
      <trkpt lat="46.29904" lon="-1.02584">
        <ele>2.1</ele>
        <time>2019-11-05T14:06:49.001Z</time>
      </trkpt>
      <trkpt lat="46.29979" lon="-1.02579">
        <ele>1.9</ele>
        <time>2019-11-05T14:07:19.001Z</time>
      </trkpt>
      <trkpt lat="46.30071" lon="-1.02536">
        <ele>0.257</ele>
        <time>2019-11-05T14:07:52.001Z</time>
      </trkpt>
      <trkpt lat="46.30131" lon="-1.02522">
        <ele>2.5</ele>
        <time>2019-11-05T14:08:22.001Z</time>
      </trkpt>
      <trkpt lat="46.30214" lon="-1.02483">
        <ele>3.5</ele>
        <time>2019-11-05T14:08:52.001Z</time>
      </trkpt>
      <trkpt lat="46.30292" lon="-1.02457">
        <ele>2.5</ele>
        <time>2019-11-05T14:09:25.001Z</time>
      </trkpt>
      <trkpt lat="46.3041" lon="-1.02421">
        <ele>1.1</ele>
        <time>2019-11-05T14:09:58.001Z</time>
      </trkpt>
      <trkpt lat="46.30519" lon="-1.02383">
        <ele>1.6</ele>
        <time>2019-11-05T14:10:28.001Z</time>
      </trkpt>
      <trkpt lat="46.30625" lon="-1.02343">
        <ele>2.5</ele>
        <time>2019-11-05T14:10:58.001Z</time>
      </trkpt>
      <trkpt lat="46.3074" lon="-1.02287">
        <ele>2.2</ele>
        <time>2019-11-05T14:11:31.001Z</time>
      </trkpt>
      <trkpt lat="46.30829" lon="-1.02199">
        <ele>1.9</ele>
        <time>2019-11-05T14:12:01.001Z</time>
      </trkpt>
      <trkpt lat="46.309" lon="-1.021">
        <ele>2</ele>
        <time>2019-11-05T14:12:31.001Z</time>
      </trkpt>
      <trkpt lat="46.30962" lon="-1.01946">
        <ele>2.5</ele>
        <time>2019-11-05T14:13:04.001Z</time>
      </trkpt>
      <trkpt lat="46.31008" lon="-1.01804">
        <ele>1.741</ele>
        <time>2019-11-05T14:13:34.001Z</time>
      </trkpt>
      <trkpt lat="46.31052" lon="-1.01654">
        <ele>2.006</ele>
        <time>2019-11-05T14:14:04.001Z</time>
      </trkpt>
      <trkpt lat="46.31098" lon="-1.015">
        <ele>3.7</ele>
        <time>2019-11-05T14:14:34.001Z</time>
      </trkpt>
      <trkpt lat="46.31148" lon="-1.01338">
        <ele>2.2</ele>
        <time>2019-11-05T14:15:07.001Z</time>
      </trkpt>
      <trkpt lat="46.3119" lon="-1.01197">
        <ele>0.742</ele>
        <time>2019-11-05T14:15:37.001Z</time>
      </trkpt>
      <trkpt lat="46.31236" lon="-1.01048">
        <ele>4.1</ele>
        <time>2019-11-05T14:16:07.001Z</time>
      </trkpt>
      <trkpt lat="46.31287" lon="-1.00873">
        <ele>4</ele>
        <time>2019-11-05T14:16:40.001Z</time>
      </trkpt>
      <trkpt lat="46.31334" lon="-1.00723">
        <ele>4.4</ele>
        <time>2019-11-05T14:17:10.001Z</time>
      </trkpt>
      <trkpt lat="46.3138" lon="-1.00567">
        <ele>0.404</ele>
        <time>2019-11-05T14:17:40.001Z</time>
      </trkpt>
      <trkpt lat="46.31409" lon="-1.00413">
        <ele>0.395</ele>
        <time>2019-11-05T14:18:10.002Z</time>
      </trkpt>
      <trkpt lat="46.31372" lon="-1.0023">
        <ele>1.3</ele>
        <time>2019-11-05T14:18:43.001Z</time>
      </trkpt>
      <trkpt lat="46.31317" lon="-1.00058">
        <ele>3.686</ele>
        <time>2019-11-05T14:19:13.001Z</time>
      </trkpt>
      <trkpt lat="46.31233" lon="-0.99913">
        <ele>7.612</ele>
        <time>2019-11-05T14:19:43.001Z</time>
      </trkpt>
      <trkpt lat="46.31235" lon="-0.99733">
        <ele>4.938</ele>
        <time>2019-11-05T14:20:16Z</time>
      </trkpt>
      <trkpt lat="46.31238" lon="-0.99586">
        <ele>5.3</ele>
        <time>2019-11-05T14:20:46.001Z</time>
      </trkpt>
      <trkpt lat="46.3115" lon="-0.99456">
        <ele>6.1</ele>
        <time>2019-11-05T14:21:16Z</time>
      </trkpt>
      <trkpt lat="46.31134" lon="-0.9933">
        <ele>1.889</ele>
        <time>2019-11-05T14:21:49.001Z</time>
      </trkpt>
      <trkpt lat="46.31133" lon="-0.99193">
        <ele>9.413</ele>
        <time>2019-11-05T14:22:19.001Z</time>
      </trkpt>
      <trkpt lat="46.31123" lon="-0.99169">
        <ele>9.095</ele>
        <time>2019-11-05T14:24:19.001Z</time>
      </trkpt>
      <trkpt lat="46.31164" lon="-0.99153">
        <ele>9.079</ele>
        <time>2019-11-05T14:25:10.001Z</time>
      </trkpt>
      <trkpt lat="46.31298" lon="-0.99165">
        <ele>8.405</ele>
        <time>2019-11-05T14:25:43.001Z</time>
      </trkpt>
      <trkpt lat="46.31307" lon="-0.99213">
        <ele>1.331</ele>
        <time>2019-11-05T14:39:10.001Z</time>
      </trkpt>
      <trkpt lat="46.31287" lon="-0.99195">
        <ele>3.269</ele>
        <time>2019-11-05T14:58:58.001Z</time>
      </trkpt>
      <trkpt lat="46.31309" lon="-0.99118">
        <ele>2.546</ele>
        <time>2019-11-05T14:59:31.001Z</time>
      </trkpt>
      <trkpt lat="46.31427" lon="-0.99097">
        <ele>3.079</ele>
        <time>2019-11-05T15:00:01.001Z</time>
      </trkpt>
      <trkpt lat="46.31553" lon="-0.99118">
        <ele>1.922</ele>
        <time>2019-11-05T15:00:31.001Z</time>
      </trkpt>
      <trkpt lat="46.31675" lon="-0.99158">
        <ele>0.162</ele>
        <time>2019-11-05T15:01:01.001Z</time>
      </trkpt>
      <trkpt lat="46.31796" lon="-0.99197">
        <ele>5.68</ele>
        <time>2019-11-05T15:01:34.001Z</time>
      </trkpt>
      <trkpt lat="46.31917" lon="-0.99208">
        <ele>0.495</ele>
        <time>2019-11-05T15:02:04.001Z</time>
      </trkpt>
      <trkpt lat="46.31928" lon="-0.99166">
        <ele>2.8</ele>
        <time>2019-11-05T15:04:31.001Z</time>
      </trkpt>
      <trkpt lat="46.31878" lon="-0.99177">
        <ele>3.5</ele>
        <time>2019-11-05T15:07:04.001Z</time>
      </trkpt>
      <trkpt lat="46.31874" lon="-0.9917">
        <ele>3.5</ele>
        <time>2019-11-05T15:08:49.001Z</time>
      </trkpt>
      <trkpt lat="46.31894" lon="-0.99176">
        <ele>3.4</ele>
        <time>2019-11-05T15:09:34.001Z</time>
      </trkpt>
      <trkpt lat="46.31883" lon="-0.99174">
        <ele>3.4</ele>
        <time>2019-11-05T15:10:31.001Z</time>
      </trkpt>
      <trkpt lat="46.3188" lon="-0.9917">
        <ele>3.5</ele>
        <time>2019-11-05T15:13:16Z</time>
      </trkpt>
    </trkseg>
  </trk>
  <trk>
    <name><![CDATA[Tracé 20191106-091041]]></name>
    <trkseg>
      <trkpt lat="46.31897" lon="-0.99193">
        <ele>1.502</ele>
        <time>2019-11-06T08:10:53Z</time>
      </trkpt>
      <trkpt lat="46.31904" lon="-0.99216">
        <ele>1.16</ele>
        <time>2019-11-06T08:14:59Z</time>
      </trkpt>
      <trkpt lat="46.31844" lon="-0.99221">
        <ele>5.475</ele>
        <time>2019-11-06T08:15:47Z</time>
      </trkpt>
      <trkpt lat="46.31712" lon="-0.99181">
        <ele>1.362</ele>
        <time>2019-11-06T08:16:17Z</time>
      </trkpt>
      <trkpt lat="46.31554" lon="-0.9913">
        <ele>0.555</ele>
        <time>2019-11-06T08:16:50Z</time>
      </trkpt>
      <trkpt lat="46.3142" lon="-0.99107">
        <ele>0.462</ele>
        <time>2019-11-06T08:17:20Z</time>
      </trkpt>
      <trkpt lat="46.31258" lon="-0.99142">
        <ele>1.961</ele>
        <time>2019-11-06T08:17:53Z</time>
      </trkpt>
      <trkpt lat="46.31121" lon="-0.99169">
        <ele>8.616</ele>
        <time>2019-11-06T08:18:26Z</time>
      </trkpt>
      <trkpt lat="46.31021" lon="-0.99207">
        <ele>13.033</ele>
        <time>2019-11-06T08:18:56Z</time>
      </trkpt>
      <trkpt lat="46.3102" lon="-0.992">
        <ele>14.559</ele>
        <time>2019-11-06T08:21:44Z</time>
      </trkpt>
      <trkpt lat="46.31024" lon="-0.99264">
        <ele>13.69</ele>
        <time>2019-11-06T08:23:32Z</time>
      </trkpt>
      <trkpt lat="46.31025" lon="-0.99408">
        <ele>16.272</ele>
        <time>2019-11-06T08:24:05Z</time>
      </trkpt>
      <trkpt lat="46.31099" lon="-0.99399">
        <ele>18.074</ele>
        <time>2019-11-06T08:24:56Z</time>
      </trkpt>
      <trkpt lat="46.31179" lon="-0.99496">
        <ele>4.056</ele>
        <time>2019-11-06T08:25:26Z</time>
      </trkpt>
      <trkpt lat="46.31268" lon="-0.99636">
        <ele>1.564</ele>
        <time>2019-11-06T08:25:59Z</time>
      </trkpt>
      <trkpt lat="46.31214" lon="-0.99805">
        <ele>3.697</ele>
        <time>2019-11-06T08:26:32Z</time>
      </trkpt>
      <trkpt lat="46.31265" lon="-0.99959">
        <ele>2.707</ele>
        <time>2019-11-06T08:27:02Z</time>
      </trkpt>
      <trkpt lat="46.31339" lon="-1.00114">
        <ele>7.037</ele>
        <time>2019-11-06T08:27:35Z</time>
      </trkpt>
      <trkpt lat="46.3139" lon="-1.00277">
        <ele>7.046</ele>
        <time>2019-11-06T08:28:05Z</time>
      </trkpt>
      <trkpt lat="46.31432" lon="-1.00439">
        <ele>4.827</ele>
        <time>2019-11-06T08:28:38Z</time>
      </trkpt>
      <trkpt lat="46.31469" lon="-1.00576">
        <ele>3.277</ele>
        <time>2019-11-06T08:29:14Z</time>
      </trkpt>
      <trkpt lat="46.31477" lon="-1.00743">
        <ele>3.296</ele>
        <time>2019-11-06T08:29:44Z</time>
      </trkpt>
      <trkpt lat="46.31445" lon="-1.00935">
        <ele>2.039</ele>
        <time>2019-11-06T08:30:17Z</time>
      </trkpt>
      <trkpt lat="46.31407" lon="-1.01125">
        <ele>3.77</ele>
        <time>2019-11-06T08:30:50Z</time>
      </trkpt>
      <trkpt lat="46.3139" lon="-1.01307">
        <ele>2.692</ele>
        <time>2019-11-06T08:31:20Z</time>
      </trkpt>
      <trkpt lat="46.31399" lon="-1.01512">
        <ele>1.682</ele>
        <time>2019-11-06T08:31:53Z</time>
      </trkpt>
      <trkpt lat="46.31411" lon="-1.01698">
        <ele>4</ele>
        <time>2019-11-06T08:32:23Z</time>
      </trkpt>
      <trkpt lat="46.31424" lon="-1.01905">
        <ele>1.645</ele>
        <time>2019-11-06T08:32:56Z</time>
      </trkpt>
      <trkpt lat="46.31435" lon="-1.02108">
        <ele>1.475</ele>
        <time>2019-11-06T08:33:29Z</time>
      </trkpt>
      <trkpt lat="46.31448" lon="-1.02295">
        <ele>3.559</ele>
        <time>2019-11-06T08:33:59Z</time>
      </trkpt>
      <trkpt lat="46.3146" lon="-1.02501">
        <ele>2.1</ele>
        <time>2019-11-06T08:34:32Z</time>
      </trkpt>
      <trkpt lat="46.31457" lon="-1.02688">
        <ele>0.969</ele>
        <time>2019-11-06T08:35:02Z</time>
      </trkpt>
      <trkpt lat="46.31485" lon="-1.02889">
        <ele>1.418</ele>
        <time>2019-11-06T08:35:35Z</time>
      </trkpt>
      <trkpt lat="46.31495" lon="-1.03091">
        <ele>1.336</ele>
        <time>2019-11-06T08:36:08Z</time>
      </trkpt>
      <trkpt lat="46.31508" lon="-1.03274">
        <ele>0.945</ele>
        <time>2019-11-06T08:36:38Z</time>
      </trkpt>
      <trkpt lat="46.31519" lon="-1.03471">
        <ele>2.6</ele>
        <time>2019-11-06T08:37:11Z</time>
      </trkpt>
      <trkpt lat="46.31531" lon="-1.03666">
        <ele>2.073</ele>
        <time>2019-11-06T08:37:44Z</time>
      </trkpt>
      <trkpt lat="46.31541" lon="-1.03835">
        <ele>1.099</ele>
        <time>2019-11-06T08:38:14Z</time>
      </trkpt>
      <trkpt lat="46.31554" lon="-1.04027">
        <ele>0.391</ele>
        <time>2019-11-06T08:38:47Z</time>
      </trkpt>
      <trkpt lat="46.31565" lon="-1.04199">
        <ele>1.806</ele>
        <time>2019-11-06T08:39:17Z</time>
      </trkpt>
      <trkpt lat="46.31576" lon="-1.04392">
        <ele>2.291</ele>
        <time>2019-11-06T08:39:50Z</time>
      </trkpt>
      <trkpt lat="46.31587" lon="-1.04573">
        <ele>1.183</ele>
        <time>2019-11-06T08:40:23Z</time>
      </trkpt>
      <trkpt lat="46.31599" lon="-1.04743">
        <ele>1.416</ele>
        <time>2019-11-06T08:40:53Z</time>
      </trkpt>
      <trkpt lat="46.31608" lon="-1.04931">
        <ele>3.1</ele>
        <time>2019-11-06T08:41:26Z</time>
      </trkpt>
      <trkpt lat="46.31621" lon="-1.05116">
        <ele>1.336</ele>
        <time>2019-11-06T08:41:59Z</time>
      </trkpt>
      <trkpt lat="46.31632" lon="-1.05283">
        <ele>0.14</ele>
        <time>2019-11-06T08:42:29Z</time>
      </trkpt>
      <trkpt lat="46.31645" lon="-1.05477">
        <ele>1.4</ele>
        <time>2019-11-06T08:43:02Z</time>
      </trkpt>
      <trkpt lat="46.31656" lon="-1.05648">
        <ele>3.365</ele>
        <time>2019-11-06T08:43:32Z</time>
      </trkpt>
      <trkpt lat="46.31666" lon="-1.05831">
        <ele>2.818</ele>
        <time>2019-11-06T08:44:05.001Z</time>
      </trkpt>
      <trkpt lat="46.31676" lon="-1.05995">
        <ele>1.11</ele>
        <time>2019-11-06T08:44:38.001Z</time>
      </trkpt>
      <trkpt lat="46.31685" lon="-1.06159">
        <ele>2.6</ele>
        <time>2019-11-06T08:45:08.001Z</time>
      </trkpt>
      <trkpt lat="46.31696" lon="-1.06333">
        <ele>0.958</ele>
        <time>2019-11-06T08:45:41.001Z</time>
      </trkpt>
      <trkpt lat="46.31707" lon="-1.06494">
        <ele>0.195</ele>
        <time>2019-11-06T08:46:11.001Z</time>
      </trkpt>
      <trkpt lat="46.31717" lon="-1.06672">
        <ele>1.7</ele>
        <time>2019-11-06T08:46:44.001Z</time>
      </trkpt>
      <trkpt lat="46.31727" lon="-1.06852">
        <ele>0.42</ele>
        <time>2019-11-06T08:47:17.001Z</time>
      </trkpt>
      <trkpt lat="46.31726" lon="-1.07015">
        <ele>1</ele>
        <time>2019-11-06T08:47:47.001Z</time>
      </trkpt>
      <trkpt lat="46.31734" lon="-1.07141">
        <ele>1</ele>
        <time>2019-11-06T08:48:47.001Z</time>
      </trkpt>
      <trkpt lat="46.31809" lon="-1.07135">
        <ele>4.895</ele>
        <time>2019-11-06T08:49:20.001Z</time>
      </trkpt>
      <trkpt lat="46.3189" lon="-1.07235">
        <ele>4.737</ele>
        <time>2019-11-06T08:49:50.001Z</time>
      </trkpt>
      <trkpt lat="46.31937" lon="-1.07381">
        <ele>4.921</ele>
        <time>2019-11-06T08:50:23.001Z</time>
      </trkpt>
      <trkpt lat="46.3193" lon="-1.0748">
        <ele>7.15</ele>
        <time>2019-11-06T08:50:53.001Z</time>
      </trkpt>
      <trkpt lat="46.31906" lon="-1.07677">
        <ele>4.774</ele>
        <time>2019-11-06T08:51:26.001Z</time>
      </trkpt>
      <trkpt lat="46.31967" lon="-1.07883">
        <ele>3.234</ele>
        <time>2019-11-06T08:51:59.001Z</time>
      </trkpt>
      <trkpt lat="46.32034" lon="-1.0805">
        <ele>3.94</ele>
        <time>2019-11-06T08:52:29.001Z</time>
      </trkpt>
      <trkpt lat="46.3211" lon="-1.08204">
        <ele>3.702</ele>
        <time>2019-11-06T08:53:02Z</time>
      </trkpt>
      <trkpt lat="46.32255" lon="-1.08216">
        <ele>2.596</ele>
        <time>2019-11-06T08:53:35.001Z</time>
      </trkpt>
      <trkpt lat="46.32376" lon="-1.08207">
        <ele>2.346</ele>
        <time>2019-11-06T08:54:05.001Z</time>
      </trkpt>
      <trkpt lat="46.32509" lon="-1.08134">
        <ele>2.244</ele>
        <time>2019-11-06T08:54:38.001Z</time>
      </trkpt>
      <trkpt lat="46.32625" lon="-1.08052">
        <ele>4.33</ele>
        <time>2019-11-06T08:55:08.001Z</time>
      </trkpt>
      <trkpt lat="46.32769" lon="-1.08077">
        <ele>3.601</ele>
        <time>2019-11-06T08:55:41.001Z</time>
      </trkpt>
      <trkpt lat="46.32914" lon="-1.08105">
        <ele>2.278</ele>
        <time>2019-11-06T08:56:14.001Z</time>
      </trkpt>
      <trkpt lat="46.33041" lon="-1.08128">
        <ele>3.469</ele>
        <time>2019-11-06T08:56:44.001Z</time>
      </trkpt>
      <trkpt lat="46.33177" lon="-1.08154">
        <ele>5.141</ele>
        <time>2019-11-06T08:57:17.001Z</time>
      </trkpt>
      <trkpt lat="46.33303" lon="-1.08179">
        <ele>2.967</ele>
        <time>2019-11-06T08:57:47.001Z</time>
      </trkpt>
      <trkpt lat="46.33343" lon="-1.08127">
        <ele>4.256</ele>
        <time>2019-11-06T08:58:23.001Z</time>
      </trkpt>
      <trkpt lat="46.33316" lon="-1.08119">
        <ele>3.827</ele>
        <time>2019-11-06T09:00:26.001Z</time>
      </trkpt>
      <trkpt lat="46.33347" lon="-1.08189">
        <ele>3.507</ele>
        <time>2019-11-06T09:00:56.001Z</time>
      </trkpt>
      <trkpt lat="46.332" lon="-1.08158">
        <ele>5.821</ele>
        <time>2019-11-06T09:01:29.001Z</time>
      </trkpt>
      <trkpt lat="46.33037" lon="-1.08127">
        <ele>5.196</ele>
        <time>2019-11-06T09:02:02Z</time>
      </trkpt>
      <trkpt lat="46.32892" lon="-1.08101">
        <ele>5.145</ele>
        <time>2019-11-06T09:02:32.001Z</time>
      </trkpt>
      <trkpt lat="46.32735" lon="-1.08072">
        <ele>6.908</ele>
        <time>2019-11-06T09:03:05.001Z</time>
      </trkpt>
      <trkpt lat="46.32589" lon="-1.08069">
        <ele>4.959</ele>
        <time>2019-11-06T09:03:35.001Z</time>
      </trkpt>
      <trkpt lat="46.3245" lon="-1.08172">
        <ele>2.11</ele>
        <time>2019-11-06T09:04:08.001Z</time>
      </trkpt>
      <trkpt lat="46.323" lon="-1.08219">
        <ele>5.733</ele>
        <time>2019-11-06T09:04:41.001Z</time>
      </trkpt>
      <trkpt lat="46.32157" lon="-1.08218">
        <ele>6.203</ele>
        <time>2019-11-06T09:05:11.001Z</time>
      </trkpt>
      <trkpt lat="46.32007" lon="-1.08231">
        <ele>4.406</ele>
        <time>2019-11-06T09:05:44.001Z</time>
      </trkpt>
      <trkpt lat="46.31858" lon="-1.08249">
        <ele>4.951</ele>
        <time>2019-11-06T09:06:17.001Z</time>
      </trkpt>
      <trkpt lat="46.31781" lon="-1.08297">
        <ele>6.002</ele>
        <time>2019-11-06T09:06:50.001Z</time>
      </trkpt>
      <trkpt lat="46.31756" lon="-1.08403">
        <ele>6.362</ele>
        <time>2019-11-06T09:07:26.001Z</time>
      </trkpt>
      <trkpt lat="46.31795" lon="-1.08535">
        <ele>6.467</ele>
        <time>2019-11-06T09:07:56.001Z</time>
      </trkpt>
      <trkpt lat="46.31845" lon="-1.08692">
        <ele>5.775</ele>
        <time>2019-11-06T09:08:29.001Z</time>
      </trkpt>
      <trkpt lat="46.31875" lon="-1.08859">
        <ele>6.039</ele>
        <time>2019-11-06T09:09:02Z</time>
      </trkpt>
      <trkpt lat="46.31959" lon="-1.08957">
        <ele>5.532</ele>
        <time>2019-11-06T09:09:32.001Z</time>
      </trkpt>
      <trkpt lat="46.32016" lon="-1.09029">
        <ele>3.703</ele>
        <time>2019-11-06T09:10:35.001Z</time>
      </trkpt>
      <trkpt lat="46.32102" lon="-1.09129">
        <ele>4.323</ele>
        <time>2019-11-06T09:11:05.001Z</time>
      </trkpt>
      <trkpt lat="46.32202" lon="-1.09232">
        <ele>5.004</ele>
        <time>2019-11-06T09:11:38.001Z</time>
      </trkpt>
      <trkpt lat="46.32302" lon="-1.09334">
        <ele>5.488</ele>
        <time>2019-11-06T09:12:11.001Z</time>
      </trkpt>
      <trkpt lat="46.32385" lon="-1.09444">
        <ele>2.687</ele>
        <time>2019-11-06T09:12:41.001Z</time>
      </trkpt>
      <trkpt lat="46.32478" lon="-1.09566">
        <ele>2.498</ele>
        <time>2019-11-06T09:13:14.001Z</time>
      </trkpt>
      <trkpt lat="46.32572" lon="-1.09679">
        <ele>5.048</ele>
        <time>2019-11-06T09:13:47.001Z</time>
      </trkpt>
      <trkpt lat="46.32655" lon="-1.09774">
        <ele>3.25</ele>
        <time>2019-11-06T09:14:17.001Z</time>
      </trkpt>
      <trkpt lat="46.32745" lon="-1.09889">
        <ele>3.823</ele>
        <time>2019-11-06T09:14:50.001Z</time>
      </trkpt>
      <trkpt lat="46.32794" lon="-1.0994">
        <ele>3.769</ele>
        <time>2019-11-06T09:16:23.001Z</time>
      </trkpt>
      <trkpt lat="46.32875" lon="-1.10023">
        <ele>4.035</ele>
        <time>2019-11-06T09:17:26.001Z</time>
      </trkpt>
      <trkpt lat="46.3299" lon="-1.10119">
        <ele>5.89</ele>
        <time>2019-11-06T09:17:59.001Z</time>
      </trkpt>
      <trkpt lat="46.33103" lon="-1.10177">
        <ele>5.232</ele>
        <time>2019-11-06T09:18:29.001Z</time>
      </trkpt>
      <trkpt lat="46.33174" lon="-1.10317">
        <ele>2.894</ele>
        <time>2019-11-06T09:19:02Z</time>
      </trkpt>
      <trkpt lat="46.33205" lon="-1.10495">
        <ele>1.254</ele>
        <time>2019-11-06T09:19:32.001Z</time>
      </trkpt>
      <trkpt lat="46.33182" lon="-1.1069">
        <ele>0.848</ele>
        <time>2019-11-06T09:20:05.001Z</time>
      </trkpt>
      <trkpt lat="46.33093" lon="-1.10857">
        <ele>1.917</ele>
        <time>2019-11-06T09:20:38.001Z</time>
      </trkpt>
      <trkpt lat="46.33016" lon="-1.11">
        <ele>2.941</ele>
        <time>2019-11-06T09:21:08.001Z</time>
      </trkpt>
      <trkpt lat="46.32945" lon="-1.11167">
        <ele>4.09</ele>
        <time>2019-11-06T09:21:41.001Z</time>
      </trkpt>
      <trkpt lat="46.32931" lon="-1.11359">
        <ele>4.595</ele>
        <time>2019-11-06T09:22:14.001Z</time>
      </trkpt>
      <trkpt lat="46.32927" lon="-1.11537">
        <ele>1.306</ele>
        <time>2019-11-06T09:22:44.001Z</time>
      </trkpt>
      <trkpt lat="46.32911" lon="-1.11758">
        <ele>0.572</ele>
        <time>2019-11-06T09:23:17.001Z</time>
      </trkpt>
      <trkpt lat="46.32933" lon="-1.11955">
        <ele>1.945</ele>
        <time>2019-11-06T09:23:47.001Z</time>
      </trkpt>
      <trkpt lat="46.32955" lon="-1.12158">
        <ele>1.301</ele>
        <time>2019-11-06T09:24:20.001Z</time>
      </trkpt>
      <trkpt lat="46.33" lon="-1.1235">
        <ele>0.727</ele>
        <time>2019-11-06T09:24:53.001Z</time>
      </trkpt>
      <trkpt lat="46.33087" lon="-1.12488">
        <ele>1.3</ele>
        <time>2019-11-06T09:25:23.001Z</time>
      </trkpt>
      <trkpt lat="46.33183" lon="-1.1263">
        <ele>0.54</ele>
        <time>2019-11-06T09:25:56.001Z</time>
      </trkpt>
      <trkpt lat="46.3328" lon="-1.12777">
        <ele>1.857</ele>
        <time>2019-11-06T09:26:29.001Z</time>
      </trkpt>
      <trkpt lat="46.33367" lon="-1.12911">
        <ele>1.995</ele>
        <time>2019-11-06T09:26:59.001Z</time>
      </trkpt>
      <trkpt lat="46.33459" lon="-1.13052">
        <ele>1.668</ele>
        <time>2019-11-06T09:27:32.001Z</time>
      </trkpt>
      <trkpt lat="46.33546" lon="-1.13184">
        <ele>1.212</ele>
        <time>2019-11-06T09:28:02Z</time>
      </trkpt>
      <trkpt lat="46.33639" lon="-1.13328">
        <ele>1.868</ele>
        <time>2019-11-06T09:28:35.001Z</time>
      </trkpt>
      <trkpt lat="46.33726" lon="-1.13468">
        <ele>2.327</ele>
        <time>2019-11-06T09:29:08.001Z</time>
      </trkpt>
      <trkpt lat="46.33809" lon="-1.13595">
        <ele>0.287</ele>
        <time>2019-11-06T09:29:38.001Z</time>
      </trkpt>
      <trkpt lat="46.33897" lon="-1.13735">
        <ele>1.477</ele>
        <time>2019-11-06T09:30:11.001Z</time>
      </trkpt>
      <trkpt lat="46.33977" lon="-1.1386">
        <ele>1.632</ele>
        <time>2019-11-06T09:30:41.001Z</time>
      </trkpt>
      <trkpt lat="46.34064" lon="-1.13997">
        <ele>2.862</ele>
        <time>2019-11-06T09:31:14.001Z</time>
      </trkpt>
      <trkpt lat="46.34143" lon="-1.1415">
        <ele>3.861</ele>
        <time>2019-11-06T09:31:47.001Z</time>
      </trkpt>
      <trkpt lat="46.3421" lon="-1.14285">
        <ele>3.413</ele>
        <time>2019-11-06T09:32:17.001Z</time>
      </trkpt>
      <trkpt lat="46.34286" lon="-1.14434">
        <ele>4.443</ele>
        <time>2019-11-06T09:32:50.001Z</time>
      </trkpt>
      <trkpt lat="46.3436" lon="-1.14584">
        <ele>3.162</ele>
        <time>2019-11-06T09:33:23.001Z</time>
      </trkpt>
      <trkpt lat="46.34427" lon="-1.14719">
        <ele>3.8</ele>
        <time>2019-11-06T09:33:53.001Z</time>
      </trkpt>
      <trkpt lat="46.34503" lon="-1.1487">
        <ele>2.351</ele>
        <time>2019-11-06T09:34:26.001Z</time>
      </trkpt>
      <trkpt lat="46.3457" lon="-1.15006">
        <ele>3.001</ele>
        <time>2019-11-06T09:34:56.001Z</time>
      </trkpt>
      <trkpt lat="46.34676" lon="-1.15074">
        <ele>2.332</ele>
        <time>2019-11-06T09:35:29.001Z</time>
      </trkpt>
      <trkpt lat="46.34802" lon="-1.15072">
        <ele>2.236</ele>
        <time>2019-11-06T09:36:02Z</time>
      </trkpt>
      <trkpt lat="46.349" lon="-1.15146">
        <ele>1.543</ele>
        <time>2019-11-06T09:36:32.001Z</time>
      </trkpt>
      <trkpt lat="46.34986" lon="-1.15268">
        <ele>3.213</ele>
        <time>2019-11-06T09:37:05.001Z</time>
      </trkpt>
      <trkpt lat="46.35055" lon="-1.15413">
        <ele>2.967</ele>
        <time>2019-11-06T09:37:38.001Z</time>
      </trkpt>
      <trkpt lat="46.35118" lon="-1.15544">
        <ele>3.936</ele>
        <time>2019-11-06T09:38:08.001Z</time>
      </trkpt>
      <trkpt lat="46.3519" lon="-1.15696">
        <ele>4.43</ele>
        <time>2019-11-06T09:38:41.001Z</time>
      </trkpt>
      <trkpt lat="46.35259" lon="-1.15838">
        <ele>2.311</ele>
        <time>2019-11-06T09:39:11.001Z</time>
      </trkpt>
      <trkpt lat="46.35334" lon="-1.15992">
        <ele>5.08</ele>
        <time>2019-11-06T09:39:44.001Z</time>
      </trkpt>
      <trkpt lat="46.35412" lon="-1.16155">
        <ele>5.827</ele>
        <time>2019-11-06T09:40:17.001Z</time>
      </trkpt>
      <trkpt lat="46.35463" lon="-1.163">
        <ele>6.081</ele>
        <time>2019-11-06T09:40:47.001Z</time>
      </trkpt>
      <trkpt lat="46.35488" lon="-1.16486">
        <ele>4.297</ele>
        <time>2019-11-06T09:41:20.001Z</time>
      </trkpt>
      <trkpt lat="46.35565" lon="-1.16571">
        <ele>2.958</ele>
        <time>2019-11-06T09:41:50.001Z</time>
      </trkpt>
      <trkpt lat="46.35577" lon="-1.16585">
        <ele>3.893</ele>
        <time>2019-11-06T09:42:23.001Z</time>
      </trkpt>
      <trkpt lat="46.35614" lon="-1.16619">
        <ele>5.779</ele>
        <time>2019-11-06T09:44:08.001Z</time>
      </trkpt>
      <trkpt lat="46.35713" lon="-1.16638">
        <ele>3.112</ele>
        <time>2019-11-06T09:44:38.001Z</time>
      </trkpt>
      <trkpt lat="46.35818" lon="-1.16655">
        <ele>3.052</ele>
        <time>2019-11-06T09:45:11.001Z</time>
      </trkpt>
      <trkpt lat="46.35814" lon="-1.16807">
        <ele>2.427</ele>
        <time>2019-11-06T09:45:44.001Z</time>
      </trkpt>
      <trkpt lat="46.3587" lon="-1.1692">
        <ele>3.582</ele>
        <time>2019-11-06T09:46:14.001Z</time>
      </trkpt>
      <trkpt lat="46.35953" lon="-1.1703">
        <ele>2.152</ele>
        <time>2019-11-06T09:46:47.001Z</time>
      </trkpt>
      <trkpt lat="46.3603" lon="-1.17132">
        <ele>1.572</ele>
        <time>2019-11-06T09:47:17.001Z</time>
      </trkpt>
      <trkpt lat="46.36106" lon="-1.17244">
        <ele>4.698</ele>
        <time>2019-11-06T09:47:50.001Z</time>
      </trkpt>
      <trkpt lat="46.36105" lon="-1.17417">
        <ele>2.879</ele>
        <time>2019-11-06T09:48:23.001Z</time>
      </trkpt>
      <trkpt lat="46.361" lon="-1.17571">
        <ele>3.99</ele>
        <time>2019-11-06T09:48:53.001Z</time>
      </trkpt>
      <trkpt lat="46.36095" lon="-1.17748">
        <ele>4.081</ele>
        <time>2019-11-06T09:49:26.001Z</time>
      </trkpt>
      <trkpt lat="46.36095" lon="-1.17916">
        <ele>3.404</ele>
        <time>2019-11-06T09:49:59.001Z</time>
      </trkpt>
      <trkpt lat="46.36103" lon="-1.18062">
        <ele>4.278</ele>
        <time>2019-11-06T09:50:29.001Z</time>
      </trkpt>
      <trkpt lat="46.36121" lon="-1.18227">
        <ele>3.772</ele>
        <time>2019-11-06T09:51:02Z</time>
      </trkpt>
      <trkpt lat="46.3614" lon="-1.18395">
        <ele>4.65</ele>
        <time>2019-11-06T09:51:32.001Z</time>
      </trkpt>
      <trkpt lat="46.36139" lon="-1.18573">
        <ele>3.251</ele>
        <time>2019-11-06T09:52:05.001Z</time>
      </trkpt>
      <trkpt lat="46.36113" lon="-1.18749">
        <ele>2.769</ele>
        <time>2019-11-06T09:52:38.001Z</time>
      </trkpt>
      <trkpt lat="46.36091" lon="-1.1891">
        <ele>1.612</ele>
        <time>2019-11-06T09:53:08.001Z</time>
      </trkpt>
      <trkpt lat="46.36073" lon="-1.19086">
        <ele>0.163</ele>
        <time>2019-11-06T09:53:41.001Z</time>
      </trkpt>
      <trkpt lat="46.36057" lon="-1.19251">
        <ele>1.91</ele>
        <time>2019-11-06T09:54:11.001Z</time>
      </trkpt>
      <trkpt lat="46.36036" lon="-1.19436">
        <ele>3.844</ele>
        <time>2019-11-06T09:54:44.001Z</time>
      </trkpt>
      <trkpt lat="46.36015" lon="-1.19616">
        <ele>2.375</ele>
        <time>2019-11-06T09:55:17.001Z</time>
      </trkpt>
      <trkpt lat="46.35997" lon="-1.19775">
        <ele>2.41</ele>
        <time>2019-11-06T09:55:47.001Z</time>
      </trkpt>
      <trkpt lat="46.35981" lon="-1.19947">
        <ele>0.964</ele>
        <time>2019-11-06T09:56:20.001Z</time>
      </trkpt>
      <trkpt lat="46.35968" lon="-1.20116">
        <ele>3.412</ele>
        <time>2019-11-06T09:56:53.001Z</time>
      </trkpt>
      <trkpt lat="46.35955" lon="-1.20267">
        <ele>3.098</ele>
        <time>2019-11-06T09:57:23.001Z</time>
      </trkpt>
      <trkpt lat="46.35937" lon="-1.20429">
        <ele>1.135</ele>
        <time>2019-11-06T09:57:56.001Z</time>
      </trkpt>
      <trkpt lat="46.35923" lon="-1.20586">
        <ele>0.5</ele>
        <time>2019-11-06T09:58:26.001Z</time>
      </trkpt>
      <trkpt lat="46.35923" lon="-1.20756">
        <ele>1.663</ele>
        <time>2019-11-06T09:58:59.001Z</time>
      </trkpt>
      <trkpt lat="46.35932" lon="-1.2092">
        <ele>1.912</ele>
        <time>2019-11-06T09:59:32.001Z</time>
      </trkpt>
      <trkpt lat="46.35944" lon="-1.21076">
        <ele>3.525</ele>
        <time>2019-11-06T10:00:02Z</time>
      </trkpt>
      <trkpt lat="46.35951" lon="-1.2124">
        <ele>3.192</ele>
        <time>2019-11-06T10:00:35.001Z</time>
      </trkpt>
      <trkpt lat="46.35963" lon="-1.21402">
        <ele>6.168</ele>
        <time>2019-11-06T10:01:08.001Z</time>
      </trkpt>
      <trkpt lat="46.35971" lon="-1.21557">
        <ele>3.778</ele>
        <time>2019-11-06T10:01:38.001Z</time>
      </trkpt>
      <trkpt lat="46.35961" lon="-1.21694">
        <ele>2.986</ele>
        <time>2019-11-06T10:02:14.001Z</time>
      </trkpt>
      <trkpt lat="46.35879" lon="-1.21666">
        <ele>3.149</ele>
        <time>2019-11-06T10:02:44.001Z</time>
      </trkpt>
      <trkpt lat="46.35804" lon="-1.21632">
        <ele>1.885</ele>
        <time>2019-11-06T10:03:17.001Z</time>
      </trkpt>
      <trkpt lat="46.35812" lon="-1.21695">
        <ele>4.215</ele>
        <time>2019-11-06T10:04:11.001Z</time>
      </trkpt>
      <trkpt lat="46.35875" lon="-1.2178">
        <ele>2.367</ele>
        <time>2019-11-06T10:04:41.001Z</time>
      </trkpt>
      <trkpt lat="46.35913" lon="-1.21891">
        <ele>3.583</ele>
        <time>2019-11-06T10:05:14.001Z</time>
      </trkpt>
      <trkpt lat="46.35864" lon="-1.22011">
        <ele>1.151</ele>
        <time>2019-11-06T10:05:44.001Z</time>
      </trkpt>
      <trkpt lat="46.35812" lon="-1.22147">
        <ele>1.786</ele>
        <time>2019-11-06T10:06:17.001Z</time>
      </trkpt>
      <trkpt lat="46.35759" lon="-1.2229">
        <ele>1.994</ele>
        <time>2019-11-06T10:06:50.001Z</time>
      </trkpt>
      <trkpt lat="46.35723" lon="-1.2243">
        <ele>3.685</ele>
        <time>2019-11-06T10:07:20.001Z</time>
      </trkpt>
      <trkpt lat="46.35677" lon="-1.22589">
        <ele>4.134</ele>
        <time>2019-11-06T10:07:53.001Z</time>
      </trkpt>
      <trkpt lat="46.35634" lon="-1.22742">
        <ele>3.389</ele>
        <time>2019-11-06T10:08:26.001Z</time>
      </trkpt>
      <trkpt lat="46.35594" lon="-1.22878">
        <ele>0.713</ele>
        <time>2019-11-06T10:08:56.001Z</time>
      </trkpt>
      <trkpt lat="46.35551" lon="-1.23026">
        <ele>2.031</ele>
        <time>2019-11-06T10:09:29.001Z</time>
      </trkpt>
      <trkpt lat="46.35516" lon="-1.23161">
        <ele>1.591</ele>
        <time>2019-11-06T10:09:59.001Z</time>
      </trkpt>
      <trkpt lat="46.35478" lon="-1.23318">
        <ele>1.724</ele>
        <time>2019-11-06T10:10:32.001Z</time>
      </trkpt>
      <trkpt lat="46.35428" lon="-1.23465">
        <ele>5.33</ele>
        <time>2019-11-06T10:11:05.001Z</time>
      </trkpt>
      <trkpt lat="46.35379" lon="-1.23599">
        <ele>1.509</ele>
        <time>2019-11-06T10:11:35.001Z</time>
      </trkpt>
      <trkpt lat="46.35333" lon="-1.23755">
        <ele>0.407</ele>
        <time>2019-11-06T10:12:08.001Z</time>
      </trkpt>
      <trkpt lat="46.3529" lon="-1.23893">
        <ele>1.739</ele>
        <time>2019-11-06T10:12:38.001Z</time>
      </trkpt>
      <trkpt lat="46.35266" lon="-1.24063">
        <ele>0.683</ele>
        <time>2019-11-06T10:13:11.001Z</time>
      </trkpt>
      <trkpt lat="46.35227" lon="-1.2423">
        <ele>2.041</ele>
        <time>2019-11-06T10:13:44.001Z</time>
      </trkpt>
      <trkpt lat="46.35193" lon="-1.24374">
        <ele>4.333</ele>
        <time>2019-11-06T10:14:14.001Z</time>
      </trkpt>
      <trkpt lat="46.35145" lon="-1.2454">
        <ele>2.122</ele>
        <time>2019-11-06T10:14:47.001Z</time>
      </trkpt>
      <trkpt lat="46.35098" lon="-1.24704">
        <ele>1.063</ele>
        <time>2019-11-06T10:15:20.001Z</time>
      </trkpt>
      <trkpt lat="46.35031" lon="-1.24768">
        <ele>3.189</ele>
        <time>2019-11-06T10:15:50.001Z</time>
      </trkpt>
      <trkpt lat="46.35021" lon="-1.24767">
        <ele>2.611</ele>
        <time>2019-11-06T10:39:23.001Z</time>
      </trkpt>
      <trkpt lat="46.35085" lon="-1.24788">
        <ele>3.143</ele>
        <time>2019-11-06T10:43:47.001Z</time>
      </trkpt>
      <trkpt lat="46.35012" lon="-1.24933">
        <ele>0.613</ele>
        <time>2019-11-06T10:44:20.001Z</time>
      </trkpt>
      <trkpt lat="46.34952" lon="-1.25064">
        <ele>2.6</ele>
        <time>2019-11-06T10:44:56.001Z</time>
      </trkpt>
      <trkpt lat="46.35019" lon="-1.25087">
        <ele>4.147</ele>
        <time>2019-11-06T10:45:26.001Z</time>
      </trkpt>
      <trkpt lat="46.34985" lon="-1.25241">
        <ele>2.743</ele>
        <time>2019-11-06T10:46:02Z</time>
      </trkpt>
      <trkpt lat="46.34955" lon="-1.25433">
        <ele>3.192</ele>
        <time>2019-11-06T10:46:35.001Z</time>
      </trkpt>
      <trkpt lat="46.34923" lon="-1.25611">
        <ele>5.597</ele>
        <time>2019-11-06T10:47:05.001Z</time>
      </trkpt>
      <trkpt lat="46.34899" lon="-1.25805">
        <ele>8.073</ele>
        <time>2019-11-06T10:47:38.001Z</time>
      </trkpt>
      <trkpt lat="46.34871" lon="-1.25984">
        <ele>2.083</ele>
        <time>2019-11-06T10:48:08.001Z</time>
      </trkpt>
      <trkpt lat="46.34872" lon="-1.26189">
        <ele>2.154</ele>
        <time>2019-11-06T10:48:41.001Z</time>
      </trkpt>
      <trkpt lat="46.34861" lon="-1.26364">
        <ele>2.996</ele>
        <time>2019-11-06T10:49:14.001Z</time>
      </trkpt>
      <trkpt lat="46.34777" lon="-1.26476">
        <ele>1.8</ele>
        <time>2019-11-06T10:49:44.001Z</time>
      </trkpt>
      <trkpt lat="46.34682" lon="-1.26616">
        <ele>2.4</ele>
        <time>2019-11-06T10:50:17.001Z</time>
      </trkpt>
      <trkpt lat="46.34602" lon="-1.26747">
        <ele>1.745</ele>
        <time>2019-11-06T10:50:47.001Z</time>
      </trkpt>
      <trkpt lat="46.34516" lon="-1.26896">
        <ele>1.3</ele>
        <time>2019-11-06T10:51:20.001Z</time>
      </trkpt>
      <trkpt lat="46.34429" lon="-1.2705">
        <ele>1.2</ele>
        <time>2019-11-06T10:51:53.001Z</time>
      </trkpt>
      <trkpt lat="46.34352" lon="-1.27185">
        <ele>2.1</ele>
        <time>2019-11-06T10:52:23.001Z</time>
      </trkpt>
      <trkpt lat="46.34268" lon="-1.27337">
        <ele>2</ele>
        <time>2019-11-06T10:52:56.001Z</time>
      </trkpt>
      <trkpt lat="46.34182" lon="-1.27485">
        <ele>2.4</ele>
        <time>2019-11-06T10:53:29.001Z</time>
      </trkpt>
      <trkpt lat="46.34106" lon="-1.2762">
        <ele>1</ele>
        <time>2019-11-06T10:53:59.001Z</time>
      </trkpt>
      <trkpt lat="46.34016" lon="-1.27779">
        <ele>2</ele>
        <time>2019-11-06T10:54:32.001Z</time>
      </trkpt>
      <trkpt lat="46.33937" lon="-1.27918">
        <ele>1</ele>
        <time>2019-11-06T10:55:02Z</time>
      </trkpt>
      <trkpt lat="46.33867" lon="-1.28076">
        <ele>1.661</ele>
        <time>2019-11-06T10:55:35.001Z</time>
      </trkpt>
      <trkpt lat="46.33875" lon="-1.28225">
        <ele>2.424</ele>
        <time>2019-11-06T10:56:08.001Z</time>
      </trkpt>
      <trkpt lat="46.33867" lon="-1.28088">
        <ele>0.021</ele>
        <time>2019-11-06T10:56:41.001Z</time>
      </trkpt>
      <trkpt lat="46.33786" lon="-1.28206">
        <ele>1.5</ele>
        <time>2019-11-06T10:57:14.001Z</time>
      </trkpt>
      <trkpt lat="46.33689" lon="-1.28355">
        <ele>2.324</ele>
        <time>2019-11-06T10:57:47.001Z</time>
      </trkpt>
      <trkpt lat="46.3362" lon="-1.28516">
        <ele>0.071</ele>
        <time>2019-11-06T10:58:17.001Z</time>
      </trkpt>
      <trkpt lat="46.33546" lon="-1.28697">
        <ele>1.2</ele>
        <time>2019-11-06T10:58:50.001Z</time>
      </trkpt>
      <trkpt lat="46.33481" lon="-1.2886">
        <ele>1.6</ele>
        <time>2019-11-06T10:59:20.001Z</time>
      </trkpt>
      <trkpt lat="46.33409" lon="-1.29041">
        <ele>1.5</ele>
        <time>2019-11-06T10:59:53.001Z</time>
      </trkpt>
      <trkpt lat="46.33339" lon="-1.29223">
        <ele>1.7</ele>
        <time>2019-11-06T11:00:26.001Z</time>
      </trkpt>
      <trkpt lat="46.33284" lon="-1.29375">
        <ele>1.164</ele>
        <time>2019-11-06T11:00:56.001Z</time>
      </trkpt>
      <trkpt lat="46.33205" lon="-1.29541">
        <ele>2.013</ele>
        <time>2019-11-06T11:01:29.001Z</time>
      </trkpt>
      <trkpt lat="46.33118" lon="-1.29661">
        <ele>2.33</ele>
        <time>2019-11-06T11:01:59.001Z</time>
      </trkpt>
      <trkpt lat="46.33014" lon="-1.29774">
        <ele>3.594</ele>
        <time>2019-11-06T11:02:32.001Z</time>
      </trkpt>
      <trkpt lat="46.32893" lon="-1.2991">
        <ele>2.044</ele>
        <time>2019-11-06T11:03:05.001Z</time>
      </trkpt>
      <trkpt lat="46.32797" lon="-1.30016">
        <ele>2.488</ele>
        <time>2019-11-06T11:03:35.001Z</time>
      </trkpt>
      <trkpt lat="46.32893" lon="-1.30155">
        <ele>5.118</ele>
        <time>2019-11-06T11:04:08.001Z</time>
      </trkpt>
      <trkpt lat="46.32977" lon="-1.30324">
        <ele>6.315</ele>
        <time>2019-11-06T11:04:41.001Z</time>
      </trkpt>
      <trkpt lat="46.33073" lon="-1.30448">
        <ele>6.696</ele>
        <time>2019-11-06T11:05:11.001Z</time>
      </trkpt>
      <trkpt lat="46.33173" lon="-1.30591">
        <ele>4.696</ele>
        <time>2019-11-06T11:05:44.001Z</time>
      </trkpt>
      <trkpt lat="46.33243" lon="-1.30733">
        <ele>4.661</ele>
        <time>2019-11-06T11:06:14.001Z</time>
      </trkpt>
      <trkpt lat="46.33192" lon="-1.30887">
        <ele>0.029</ele>
        <time>2019-11-06T11:06:47.001Z</time>
      </trkpt>
      <trkpt lat="46.3325" lon="-1.31048">
        <ele>1</ele>
        <time>2019-11-06T11:07:20.001Z</time>
      </trkpt>
      <trkpt lat="46.33299" lon="-1.31135">
        <ele>3</ele>
        <time>2019-11-06T11:07:50.001Z</time>
      </trkpt>
      <trkpt lat="46.33393" lon="-1.31251">
        <ele>0.184</ele>
        <time>2019-11-06T11:08:23.001Z</time>
      </trkpt>
      <trkpt lat="46.33473" lon="-1.31276">
        <ele>7.716</ele>
        <time>2019-11-06T11:10:50.001Z</time>
      </trkpt>
      <trkpt lat="46.33513" lon="-1.31372">
        <ele>10.054</ele>
        <time>2019-11-06T11:11:23.001Z</time>
      </trkpt>
      <trkpt lat="46.33548" lon="-1.31508">
        <ele>4.108</ele>
        <time>2019-11-06T11:11:56.001Z</time>
      </trkpt>
      <trkpt lat="46.33486" lon="-1.3163">
        <ele>3.831</ele>
        <time>2019-11-06T11:12:26.001Z</time>
      </trkpt>
      <trkpt lat="46.33409" lon="-1.31774">
        <ele>3.744</ele>
        <time>2019-11-06T11:12:59.001Z</time>
      </trkpt>
      <trkpt lat="46.33329" lon="-1.31906">
        <ele>0.565</ele>
        <time>2019-11-06T11:13:32.001Z</time>
      </trkpt>
      <trkpt lat="46.33327" lon="-1.3203">
        <ele>3.361</ele>
        <time>2019-11-06T11:14:02Z</time>
      </trkpt>
      <trkpt lat="46.3329" lon="-1.32222">
        <ele>3.874</ele>
        <time>2019-11-06T11:14:35.001Z</time>
      </trkpt>
      <trkpt lat="46.33295" lon="-1.32227">
        <ele>6.602</ele>
        <time>2019-11-06T11:15:05.001Z</time>
      </trkpt>
      <trkpt lat="46.33361" lon="-1.32392">
        <ele>5.925</ele>
        <time>2019-11-06T11:15:38.001Z</time>
      </trkpt>
      <trkpt lat="46.33397" lon="-1.32463">
        <ele>7.289</ele>
        <time>2019-11-06T11:16:11.001Z</time>
      </trkpt>
      <trkpt lat="46.33433" lon="-1.32549">
        <ele>9.208</ele>
        <time>2019-11-06T11:17:47.001Z</time>
      </trkpt>
      <trkpt lat="46.33502" lon="-1.32699">
        <ele>7.719</ele>
        <time>2019-11-06T11:18:20.001Z</time>
      </trkpt>
      <trkpt lat="46.33576" lon="-1.32866">
        <ele>8.434</ele>
        <time>2019-11-06T11:18:53.001Z</time>
      </trkpt>
      <trkpt lat="46.33632" lon="-1.33018">
        <ele>4.796</ele>
        <time>2019-11-06T11:19:23.001Z</time>
      </trkpt>
      <trkpt lat="46.33607" lon="-1.33216">
        <ele>3.707</ele>
        <time>2019-11-06T11:19:56.001Z</time>
      </trkpt>
      <trkpt lat="46.33626" lon="-1.33379">
        <ele>2.293</ele>
        <time>2019-11-06T11:20:26.001Z</time>
      </trkpt>
      <trkpt lat="46.33649" lon="-1.33412">
        <ele>3.613</ele>
        <time>2019-11-06T11:24:41.001Z</time>
      </trkpt>
      <trkpt lat="46.33733" lon="-1.33527">
        <ele>5.021</ele>
        <time>2019-11-06T11:25:14.001Z</time>
      </trkpt>
      <trkpt lat="46.3378" lon="-1.33589">
        <ele>5.291</ele>
        <time>2019-11-06T11:26:44.001Z</time>
      </trkpt>
      <trkpt lat="46.33859" lon="-1.33699">
        <ele>3.907</ele>
        <time>2019-11-06T11:27:17.001Z</time>
      </trkpt>
      <trkpt lat="46.33956" lon="-1.33813">
        <ele>4.752</ele>
        <time>2019-11-06T11:27:50.001Z</time>
      </trkpt>
      <trkpt lat="46.34049" lon="-1.33927">
        <ele>4.19</ele>
        <time>2019-11-06T11:28:20.001Z</time>
      </trkpt>
      <trkpt lat="46.34115" lon="-1.34013">
        <ele>1.803</ele>
        <time>2019-11-06T11:28:53.001Z</time>
      </trkpt>
      <trkpt lat="46.34183" lon="-1.34128">
        <ele>1.183</ele>
        <time>2019-11-06T11:29:23.001Z</time>
      </trkpt>
      <trkpt lat="46.34266" lon="-1.34263">
        <ele>4.309</ele>
        <time>2019-11-06T11:29:56.001Z</time>
      </trkpt>
      <trkpt lat="46.34345" lon="-1.3442">
        <ele>5.984</ele>
        <time>2019-11-06T11:30:29.001Z</time>
      </trkpt>
      <trkpt lat="46.34386" lon="-1.34597">
        <ele>5.825</ele>
        <time>2019-11-06T11:30:59.001Z</time>
      </trkpt>
      <trkpt lat="46.34433" lon="-1.34765">
        <ele>5.694</ele>
        <time>2019-11-06T11:31:32.001Z</time>
      </trkpt>
      <trkpt lat="46.34506" lon="-1.34908">
        <ele>7.675</ele>
        <time>2019-11-06T11:32:02Z</time>
      </trkpt>
      <trkpt lat="46.34594" lon="-1.35067">
        <ele>11.117</ele>
        <time>2019-11-06T11:32:35.001Z</time>
      </trkpt>
      <trkpt lat="46.34677" lon="-1.35231">
        <ele>8.005</ele>
        <time>2019-11-06T11:33:08.001Z</time>
      </trkpt>
      <trkpt lat="46.34727" lon="-1.35369">
        <ele>11.585</ele>
        <time>2019-11-06T11:33:38.001Z</time>
      </trkpt>
      <trkpt lat="46.34786" lon="-1.35589">
        <ele>7.574</ele>
        <time>2019-11-06T11:34:11.001Z</time>
      </trkpt>
      <trkpt lat="46.34834" lon="-1.35776">
        <ele>6.568</ele>
        <time>2019-11-06T11:34:44.001Z</time>
      </trkpt>
      <trkpt lat="46.34877" lon="-1.35952">
        <ele>5.402</ele>
        <time>2019-11-06T11:35:14.001Z</time>
      </trkpt>
      <trkpt lat="46.34888" lon="-1.36167">
        <ele>7.214</ele>
        <time>2019-11-06T11:35:47.001Z</time>
      </trkpt>
      <trkpt lat="46.34893" lon="-1.3635">
        <ele>7.829</ele>
        <time>2019-11-06T11:36:17.001Z</time>
      </trkpt>
      <trkpt lat="46.34903" lon="-1.36553">
        <ele>10.108</ele>
        <time>2019-11-06T11:36:50.001Z</time>
      </trkpt>
      <trkpt lat="46.34935" lon="-1.36726">
        <ele>3.952</ele>
        <time>2019-11-06T11:37:23.001Z</time>
      </trkpt>
      <trkpt lat="46.35034" lon="-1.36716">
        <ele>7.847</ele>
        <time>2019-11-06T11:37:53.001Z</time>
      </trkpt>
      <trkpt lat="46.35175" lon="-1.36794">
        <ele>5.431</ele>
        <time>2019-11-06T11:38:26.001Z</time>
      </trkpt>
      <trkpt lat="46.35223" lon="-1.3696">
        <ele>3.531</ele>
        <time>2019-11-06T11:38:56.001Z</time>
      </trkpt>
      <trkpt lat="46.35257" lon="-1.37157">
        <ele>4.329</ele>
        <time>2019-11-06T11:39:29.001Z</time>
      </trkpt>
      <trkpt lat="46.35288" lon="-1.37351">
        <ele>2.176</ele>
        <time>2019-11-06T11:40:02Z</time>
      </trkpt>
      <trkpt lat="46.35316" lon="-1.37529">
        <ele>2.402</ele>
        <time>2019-11-06T11:40:32.001Z</time>
      </trkpt>
      <trkpt lat="46.35349" lon="-1.37722">
        <ele>3.424</ele>
        <time>2019-11-06T11:41:05.001Z</time>
      </trkpt>
      <trkpt lat="46.35376" lon="-1.37903">
        <ele>4.706</ele>
        <time>2019-11-06T11:41:38.001Z</time>
      </trkpt>
      <trkpt lat="46.35406" lon="-1.38076">
        <ele>3.149</ele>
        <time>2019-11-06T11:42:08.001Z</time>
      </trkpt>
      <trkpt lat="46.35429" lon="-1.38258">
        <ele>3.579</ele>
        <time>2019-11-06T11:42:41.001Z</time>
      </trkpt>
      <trkpt lat="46.35438" lon="-1.38441">
        <ele>4.069</ele>
        <time>2019-11-06T11:43:11.001Z</time>
      </trkpt>
      <trkpt lat="46.35432" lon="-1.38641">
        <ele>4</ele>
        <time>2019-11-06T11:43:44.001Z</time>
      </trkpt>
      <trkpt lat="46.35414" lon="-1.38824">
        <ele>5.615</ele>
        <time>2019-11-06T11:44:17.001Z</time>
      </trkpt>
      <trkpt lat="46.35388" lon="-1.39002">
        <ele>4.158</ele>
        <time>2019-11-06T11:44:47.001Z</time>
      </trkpt>
      <trkpt lat="46.35363" lon="-1.39188">
        <ele>4.201</ele>
        <time>2019-11-06T11:45:20.001Z</time>
      </trkpt>
      <trkpt lat="46.35331" lon="-1.3938">
        <ele>2.686</ele>
        <time>2019-11-06T11:45:53.001Z</time>
      </trkpt>
      <trkpt lat="46.35319" lon="-1.39555">
        <ele>3.885</ele>
        <time>2019-11-06T11:46:23.001Z</time>
      </trkpt>
      <trkpt lat="46.35311" lon="-1.3975">
        <ele>6.359</ele>
        <time>2019-11-06T11:46:56.001Z</time>
      </trkpt>
      <trkpt lat="46.35319" lon="-1.39931">
        <ele>4.367</ele>
        <time>2019-11-06T11:47:26.001Z</time>
      </trkpt>
      <trkpt lat="46.35329" lon="-1.40121">
        <ele>5.184</ele>
        <time>2019-11-06T11:47:59.001Z</time>
      </trkpt>
      <trkpt lat="46.35336" lon="-1.4032">
        <ele>4.231</ele>
        <time>2019-11-06T11:48:32.001Z</time>
      </trkpt>
      <trkpt lat="46.35336" lon="-1.40493">
        <ele>4.706</ele>
        <time>2019-11-06T11:49:02Z</time>
      </trkpt>
      <trkpt lat="46.35345" lon="-1.4069">
        <ele>5.779</ele>
        <time>2019-11-06T11:49:35.001Z</time>
      </trkpt>
      <trkpt lat="46.35353" lon="-1.40864">
        <ele>4.563</ele>
        <time>2019-11-06T11:50:05.001Z</time>
      </trkpt>
      <trkpt lat="46.35353" lon="-1.41058">
        <ele>5.349</ele>
        <time>2019-11-06T11:50:38.001Z</time>
      </trkpt>
      <trkpt lat="46.35355" lon="-1.41253">
        <ele>6.513</ele>
        <time>2019-11-06T11:51:11.001Z</time>
      </trkpt>
      <trkpt lat="46.3536" lon="-1.4143">
        <ele>3.371</ele>
        <time>2019-11-06T11:51:41.001Z</time>
      </trkpt>
      <trkpt lat="46.35365" lon="-1.4162">
        <ele>2.667</ele>
        <time>2019-11-06T11:52:14.001Z</time>
      </trkpt>
      <trkpt lat="46.35368" lon="-1.41821">
        <ele>2.982</ele>
        <time>2019-11-06T11:52:47.001Z</time>
      </trkpt>
      <trkpt lat="46.35372" lon="-1.41994">
        <ele>1.278</ele>
        <time>2019-11-06T11:53:17.001Z</time>
      </trkpt>
      <trkpt lat="46.35374" lon="-1.42192">
        <ele>4.273</ele>
        <time>2019-11-06T11:53:50.001Z</time>
      </trkpt>
      <trkpt lat="46.35392" lon="-1.42372">
        <ele>5.228</ele>
        <time>2019-11-06T11:54:20.001Z</time>
      </trkpt>
      <trkpt lat="46.35385" lon="-1.42509">
        <ele>5.851</ele>
        <time>2019-11-06T11:54:53.001Z</time>
      </trkpt>
      <trkpt lat="46.35311" lon="-1.42673">
        <ele>4.461</ele>
        <time>2019-11-06T11:55:26.001Z</time>
      </trkpt>
      <trkpt lat="46.35239" lon="-1.42809">
        <ele>3.555</ele>
        <time>2019-11-06T11:55:56.001Z</time>
      </trkpt>
      <trkpt lat="46.35213" lon="-1.4293">
        <ele>3.505</ele>
        <time>2019-11-06T11:56:29.001Z</time>
      </trkpt>
      <trkpt lat="46.35237" lon="-1.43085">
        <ele>6.821</ele>
        <time>2019-11-06T11:57:02Z</time>
      </trkpt>
      <trkpt lat="46.35294" lon="-1.43219">
        <ele>6.415</ele>
        <time>2019-11-06T11:57:32.001Z</time>
      </trkpt>
      <trkpt lat="46.35364" lon="-1.43377">
        <ele>7.435</ele>
        <time>2019-11-06T11:58:05.001Z</time>
      </trkpt>
      <trkpt lat="46.35427" lon="-1.4353">
        <ele>4.285</ele>
        <time>2019-11-06T11:58:35.001Z</time>
      </trkpt>
      <trkpt lat="46.35485" lon="-1.437">
        <ele>4.072</ele>
        <time>2019-11-06T11:59:08.001Z</time>
      </trkpt>
      <trkpt lat="46.35544" lon="-1.43864">
        <ele>3.521</ele>
        <time>2019-11-06T11:59:41.001Z</time>
      </trkpt>
      <trkpt lat="46.35593" lon="-1.44013">
        <ele>6.517</ele>
        <time>2019-11-06T12:00:11.001Z</time>
      </trkpt>
      <trkpt lat="46.3565" lon="-1.44176">
        <ele>6.171</ele>
        <time>2019-11-06T12:00:44.001Z</time>
      </trkpt>
      <trkpt lat="46.35709" lon="-1.44326">
        <ele>6.292</ele>
        <time>2019-11-06T12:01:14.001Z</time>
      </trkpt>
      <trkpt lat="46.35787" lon="-1.44483">
        <ele>3.974</ele>
        <time>2019-11-06T12:01:47.001Z</time>
      </trkpt>
      <trkpt lat="46.35875" lon="-1.4463">
        <ele>5.289</ele>
        <time>2019-11-06T12:02:20.001Z</time>
      </trkpt>
      <trkpt lat="46.3596" lon="-1.44766">
        <ele>9.134</ele>
        <time>2019-11-06T12:02:50.001Z</time>
      </trkpt>
      <trkpt lat="46.36048" lon="-1.44914">
        <ele>10.227</ele>
        <time>2019-11-06T12:03:23.001Z</time>
      </trkpt>
      <trkpt lat="46.36139" lon="-1.45071">
        <ele>4.613</ele>
        <time>2019-11-06T12:03:56.001Z</time>
      </trkpt>
      <trkpt lat="46.36192" lon="-1.45166">
        <ele>4.872</ele>
        <time>2019-11-06T12:04:26.001Z</time>
      </trkpt>
      <trkpt lat="46.36276" lon="-1.45291">
        <ele>4.614</ele>
        <time>2019-11-06T12:04:59.001Z</time>
      </trkpt>
      <trkpt lat="46.36358" lon="-1.45427">
        <ele>4.822</ele>
        <time>2019-11-06T12:05:29.001Z</time>
      </trkpt>
      <trkpt lat="46.36441" lon="-1.45565">
        <ele>5.673</ele>
        <time>2019-11-06T12:06:02Z</time>
      </trkpt>
      <trkpt lat="46.3652" lon="-1.45665">
        <ele>13.756</ele>
        <time>2019-11-06T12:06:38.001Z</time>
      </trkpt>
      <trkpt lat="46.36635" lon="-1.45763">
        <ele>9.539</ele>
        <time>2019-11-06T12:07:08.001Z</time>
      </trkpt>
      <trkpt lat="46.36752" lon="-1.45839">
        <ele>12.969</ele>
        <time>2019-11-06T12:07:41.001Z</time>
      </trkpt>
      <trkpt lat="46.36869" lon="-1.4592">
        <ele>11.543</ele>
        <time>2019-11-06T12:08:14.001Z</time>
      </trkpt>
      <trkpt lat="46.36945" lon="-1.4598">
        <ele>16.246</ele>
        <time>2019-11-06T12:08:44.001Z</time>
      </trkpt>
      <trkpt lat="46.37051" lon="-1.46032">
        <ele>25.069</ele>
        <time>2019-11-06T12:09:17.001Z</time>
      </trkpt>
      <trkpt lat="46.37169" lon="-1.4612">
        <ele>23.09</ele>
        <time>2019-11-06T12:09:47.001Z</time>
      </trkpt>
      <trkpt lat="46.37301" lon="-1.46228">
        <ele>21.448</ele>
        <time>2019-11-06T12:10:20.001Z</time>
      </trkpt>
      <trkpt lat="46.37349" lon="-1.46368">
        <ele>21.549</ele>
        <time>2019-11-06T12:10:53.001Z</time>
      </trkpt>
      <trkpt lat="46.37375" lon="-1.46514">
        <ele>15.875</ele>
        <time>2019-11-06T12:11:23.001Z</time>
      </trkpt>
      <trkpt lat="46.37379" lon="-1.46673">
        <ele>16.926</ele>
        <time>2019-11-06T12:11:56.001Z</time>
      </trkpt>
      <trkpt lat="46.37414" lon="-1.46674">
        <ele>15.809</ele>
        <time>2019-11-06T12:19:44.001Z</time>
      </trkpt>
      <trkpt lat="46.37516" lon="-1.46625">
        <ele>13.431</ele>
        <time>2019-11-06T12:20:17.001Z</time>
      </trkpt>
      <trkpt lat="46.37607" lon="-1.46556">
        <ele>14.605</ele>
        <time>2019-11-06T12:20:50.001Z</time>
      </trkpt>
      <trkpt lat="46.37704" lon="-1.46523">
        <ele>16.711</ele>
        <time>2019-11-06T12:21:20.001Z</time>
      </trkpt>
      <trkpt lat="46.37775" lon="-1.46518">
        <ele>19.911</ele>
        <time>2019-11-06T12:21:53.001Z</time>
      </trkpt>
      <trkpt lat="46.37853" lon="-1.46596">
        <ele>21.086</ele>
        <time>2019-11-06T12:22:26.001Z</time>
      </trkpt>
      <trkpt lat="46.37976" lon="-1.46606">
        <ele>23.139</ele>
        <time>2019-11-06T12:22:56.001Z</time>
      </trkpt>
      <trkpt lat="46.38074" lon="-1.46607">
        <ele>15.952</ele>
        <time>2019-11-06T12:23:29.001Z</time>
      </trkpt>
      <trkpt lat="46.38162" lon="-1.46605">
        <ele>17.628</ele>
        <time>2019-11-06T12:23:59.001Z</time>
      </trkpt>
      <trkpt lat="46.38258" lon="-1.46647">
        <ele>14.47</ele>
        <time>2019-11-06T12:24:32.001Z</time>
      </trkpt>
      <trkpt lat="46.38314" lon="-1.46777">
        <ele>18.861</ele>
        <time>2019-11-06T12:25:05.001Z</time>
      </trkpt>
      <trkpt lat="46.38368" lon="-1.46936">
        <ele>15.175</ele>
        <time>2019-11-06T12:25:35.001Z</time>
      </trkpt>
      <trkpt lat="46.38399" lon="-1.47015">
        <ele>20.73</ele>
        <time>2019-11-06T12:26:08.001Z</time>
      </trkpt>
      <trkpt lat="46.38492" lon="-1.47115">
        <ele>15.988</ele>
        <time>2019-11-06T12:26:41.001Z</time>
      </trkpt>
      <trkpt lat="46.3851" lon="-1.47248">
        <ele>10.996</ele>
        <time>2019-11-06T12:27:11.001Z</time>
      </trkpt>
      <trkpt lat="46.38505" lon="-1.47334">
        <ele>24.589</ele>
        <time>2019-11-06T12:27:44.001Z</time>
      </trkpt>
      <trkpt lat="46.38504" lon="-1.47469">
        <ele>21.224</ele>
        <time>2019-11-06T12:28:14.001Z</time>
      </trkpt>
      <trkpt lat="46.38453" lon="-1.47777">
        <ele>18.777</ele>
        <time>2019-11-06T12:28:47.001Z</time>
      </trkpt>
      <trkpt lat="46.38446" lon="-1.47962">
        <ele>16.729</ele>
        <time>2019-11-06T12:29:20.001Z</time>
      </trkpt>
      <trkpt lat="46.38447" lon="-1.48119">
        <ele>14.958</ele>
        <time>2019-11-06T12:29:50.001Z</time>
      </trkpt>
      <trkpt lat="46.38574" lon="-1.48203">
        <ele>19.123</ele>
        <time>2019-11-06T12:30:23.001Z</time>
      </trkpt>
      <trkpt lat="46.38674" lon="-1.48294">
        <ele>21.905</ele>
        <time>2019-11-06T12:30:53.001Z</time>
      </trkpt>
      <trkpt lat="46.38743" lon="-1.48449">
        <ele>18.328</ele>
        <time>2019-11-06T12:31:26.001Z</time>
      </trkpt>
      <trkpt lat="46.38824" lon="-1.4857">
        <ele>19.261</ele>
        <time>2019-11-06T12:31:59.001Z</time>
      </trkpt>
      <trkpt lat="46.38845" lon="-1.48785">
        <ele>14.189</ele>
        <time>2019-11-06T12:32:29.001Z</time>
      </trkpt>
      <trkpt lat="46.38862" lon="-1.48992">
        <ele>12.287</ele>
        <time>2019-11-06T12:33:02Z</time>
      </trkpt>
      <trkpt lat="46.38922" lon="-1.49109">
        <ele>12.865</ele>
        <time>2019-11-06T12:33:35.001Z</time>
      </trkpt>
      <trkpt lat="46.38973" lon="-1.4898">
        <ele>15.341</ele>
        <time>2019-11-06T12:34:05.001Z</time>
      </trkpt>
      <trkpt lat="46.39015" lon="-1.48852">
        <ele>19.681</ele>
        <time>2019-11-06T12:34:38.001Z</time>
      </trkpt>
      <trkpt lat="46.39044" lon="-1.4878">
        <ele>20.452</ele>
        <time>2019-11-06T12:35:08.001Z</time>
      </trkpt>
      <trkpt lat="46.39096" lon="-1.48659">
        <ele>18.868</ele>
        <time>2019-11-06T12:35:41.001Z</time>
      </trkpt>
      <trkpt lat="46.39144" lon="-1.48577">
        <ele>18.454</ele>
        <time>2019-11-06T12:36:14.001Z</time>
      </trkpt>
      <trkpt lat="46.39227" lon="-1.48546">
        <ele>14.566</ele>
        <time>2019-11-06T12:36:44.001Z</time>
      </trkpt>
      <trkpt lat="46.39278" lon="-1.48685">
        <ele>9.126</ele>
        <time>2019-11-06T12:37:17.001Z</time>
      </trkpt>
      <trkpt lat="46.39298" lon="-1.48791">
        <ele>13.284</ele>
        <time>2019-11-06T12:37:50.001Z</time>
      </trkpt>
      <trkpt lat="46.39413" lon="-1.48861">
        <ele>17.473</ele>
        <time>2019-11-06T12:38:20.001Z</time>
      </trkpt>
      <trkpt lat="46.39523" lon="-1.48902">
        <ele>15.097</ele>
        <time>2019-11-06T12:38:53.001Z</time>
      </trkpt>
      <trkpt lat="46.3962" lon="-1.48948">
        <ele>11.847</ele>
        <time>2019-11-06T12:39:23.001Z</time>
      </trkpt>
      <trkpt lat="46.39721" lon="-1.48853">
        <ele>12.945</ele>
        <time>2019-11-06T12:39:56.001Z</time>
      </trkpt>
      <trkpt lat="46.3984" lon="-1.48829">
        <ele>15.752</ele>
        <time>2019-11-06T12:40:29.001Z</time>
      </trkpt>
      <trkpt lat="46.39906" lon="-1.48702">
        <ele>15.931</ele>
        <time>2019-11-06T12:40:59.001Z</time>
      </trkpt>
      <trkpt lat="46.39987" lon="-1.48612">
        <ele>16.708</ele>
        <time>2019-11-06T12:41:32.001Z</time>
      </trkpt>
      <trkpt lat="46.40108" lon="-1.48613">
        <ele>15.703</ele>
        <time>2019-11-06T12:42:02Z</time>
      </trkpt>
      <trkpt lat="46.4016" lon="-1.48681">
        <ele>14.864</ele>
        <time>2019-11-06T12:42:38.001Z</time>
      </trkpt>
      <trkpt lat="46.40208" lon="-1.48752">
        <ele>17.653</ele>
        <time>2019-11-06T12:43:20.001Z</time>
      </trkpt>
      <trkpt lat="46.40282" lon="-1.48905">
        <ele>20.613</ele>
        <time>2019-11-06T12:43:50.001Z</time>
      </trkpt>
      <trkpt lat="46.40391" lon="-1.49062">
        <ele>15.612</ele>
        <time>2019-11-06T12:44:23.001Z</time>
      </trkpt>
      <trkpt lat="46.40468" lon="-1.48961">
        <ele>15.55</ele>
        <time>2019-11-06T12:44:56.001Z</time>
      </trkpt>
      <trkpt lat="46.40566" lon="-1.49042">
        <ele>14.721</ele>
        <time>2019-11-06T12:45:26.001Z</time>
      </trkpt>
      <trkpt lat="46.40649" lon="-1.49126">
        <ele>14.109</ele>
        <time>2019-11-06T12:45:59.001Z</time>
      </trkpt>
      <trkpt lat="46.40739" lon="-1.49206">
        <ele>13.904</ele>
        <time>2019-11-06T12:46:29.001Z</time>
      </trkpt>
      <trkpt lat="46.40757" lon="-1.49318">
        <ele>14.612</ele>
        <time>2019-11-06T12:47:02Z</time>
      </trkpt>
      <trkpt lat="46.40698" lon="-1.49405">
        <ele>19.224</ele>
        <time>2019-11-06T12:47:35.001Z</time>
      </trkpt>
      <trkpt lat="46.40592" lon="-1.49521">
        <ele>17.711</ele>
        <time>2019-11-06T12:48:05.001Z</time>
      </trkpt>
      <trkpt lat="46.40511" lon="-1.49665">
        <ele>12.49</ele>
        <time>2019-11-06T12:48:38.001Z</time>
      </trkpt>
      <trkpt lat="46.40427" lon="-1.49809">
        <ele>17.468</ele>
        <time>2019-11-06T12:49:08.001Z</time>
      </trkpt>
      <trkpt lat="46.40367" lon="-1.49957">
        <ele>15.131</ele>
        <time>2019-11-06T12:49:41.001Z</time>
      </trkpt>
      <trkpt lat="46.40344" lon="-1.50061">
        <ele>17.305</ele>
        <time>2019-11-06T12:50:20.001Z</time>
      </trkpt>
      <trkpt lat="46.40399" lon="-1.50114">
        <ele>22.064</ele>
        <time>2019-11-06T12:50:59.001Z</time>
      </trkpt>
      <trkpt lat="46.40503" lon="-1.50214">
        <ele>19.642</ele>
        <time>2019-11-06T12:51:35.001Z</time>
      </trkpt>
      <trkpt lat="46.40542" lon="-1.50254">
        <ele>25.916</ele>
        <time>2019-11-06T12:52:20.001Z</time>
      </trkpt>
      <trkpt lat="46.40568" lon="-1.50275">
        <ele>27.954</ele>
        <time>2019-11-06T12:53:08.001Z</time>
      </trkpt>
      <trkpt lat="46.40671" lon="-1.50398">
        <ele>28.792</ele>
        <time>2019-11-06T12:53:41.001Z</time>
      </trkpt>
      <trkpt lat="46.40743" lon="-1.5037">
        <ele>25.627</ele>
        <time>2019-11-06T12:54:11.001Z</time>
      </trkpt>
      <trkpt lat="46.40832" lon="-1.50322">
        <ele>27.649</ele>
        <time>2019-11-06T12:54:44.001Z</time>
      </trkpt>
      <trkpt lat="46.40886" lon="-1.50294">
        <ele>27.685</ele>
        <time>2019-11-06T12:55:23.001Z</time>
      </trkpt>
      <trkpt lat="46.40936" lon="-1.50261">
        <ele>28.168</ele>
        <time>2019-11-06T12:56:05.001Z</time>
      </trkpt>
      <trkpt lat="46.40998" lon="-1.5023">
        <ele>27.401</ele>
        <time>2019-11-06T12:56:50.001Z</time>
      </trkpt>
      <trkpt lat="46.41044" lon="-1.50236">
        <ele>29.612</ele>
        <time>2019-11-06T12:58:02Z</time>
      </trkpt>
      <trkpt lat="46.41029" lon="-1.50309">
        <ele>29.122</ele>
        <time>2019-11-06T12:58:32.001Z</time>
      </trkpt>
      <trkpt lat="46.41035" lon="-1.5046">
        <ele>31.1</ele>
        <time>2019-11-06T12:59:05.001Z</time>
      </trkpt>
      <trkpt lat="46.4109" lon="-1.50618">
        <ele>39.605</ele>
        <time>2019-11-06T12:59:35.001Z</time>
      </trkpt>
      <trkpt lat="46.41096" lon="-1.50756">
        <ele>25.828</ele>
        <time>2019-11-06T13:00:08.001Z</time>
      </trkpt>
      <trkpt lat="46.41096" lon="-1.50927">
        <ele>27.221</ele>
        <time>2019-11-06T13:00:41.001Z</time>
      </trkpt>
      <trkpt lat="46.41091" lon="-1.5104">
        <ele>26.311</ele>
        <time>2019-11-06T13:01:11.001Z</time>
      </trkpt>
      <trkpt lat="46.4115" lon="-1.51157">
        <ele>31.703</ele>
        <time>2019-11-06T13:01:44.001Z</time>
      </trkpt>
      <trkpt lat="46.41225" lon="-1.51276">
        <ele>38.019</ele>
        <time>2019-11-06T13:02:14.001Z</time>
      </trkpt>
      <trkpt lat="46.41319" lon="-1.51419">
        <ele>34.933</ele>
        <time>2019-11-06T13:02:47.001Z</time>
      </trkpt>
      <trkpt lat="46.41354" lon="-1.51587">
        <ele>15.626</ele>
        <time>2019-11-06T13:03:20.001Z</time>
      </trkpt>
      <trkpt lat="46.41373" lon="-1.51764">
        <ele>15.171</ele>
        <time>2019-11-06T13:03:50.001Z</time>
      </trkpt>
      <trkpt lat="46.41357" lon="-1.51974">
        <ele>14.131</ele>
        <time>2019-11-06T13:04:23.001Z</time>
      </trkpt>
      <trkpt lat="46.41335" lon="-1.52183">
        <ele>12.863</ele>
        <time>2019-11-06T13:04:56.001Z</time>
      </trkpt>
      <trkpt lat="46.41311" lon="-1.52418">
        <ele>9.451</ele>
        <time>2019-11-06T13:05:26.001Z</time>
      </trkpt>
      <trkpt lat="46.41305" lon="-1.52595">
        <ele>11.206</ele>
        <time>2019-11-06T13:05:59.001Z</time>
      </trkpt>
      <trkpt lat="46.41258" lon="-1.52767">
        <ele>11.087</ele>
        <time>2019-11-06T13:06:29.001Z</time>
      </trkpt>
      <trkpt lat="46.41251" lon="-1.52995">
        <ele>15.559</ele>
        <time>2019-11-06T13:07:02Z</time>
      </trkpt>
      <trkpt lat="46.41235" lon="-1.53226">
        <ele>14.827</ele>
        <time>2019-11-06T13:07:35.001Z</time>
      </trkpt>
      <trkpt lat="46.41149" lon="-1.53424">
        <ele>10.048</ele>
        <time>2019-11-06T13:08:05.001Z</time>
      </trkpt>
      <trkpt lat="46.41103" lon="-1.53681">
        <ele>9.205</ele>
        <time>2019-11-06T13:08:38.001Z</time>
      </trkpt>
      <trkpt lat="46.41064" lon="-1.53916">
        <ele>10.312</ele>
        <time>2019-11-06T13:09:11.001Z</time>
      </trkpt>
      <trkpt lat="46.41041" lon="-1.54023">
        <ele>7.105</ele>
        <time>2019-11-06T13:10:32.001Z</time>
      </trkpt>
      <trkpt lat="46.40993" lon="-1.54212">
        <ele>7.476</ele>
        <time>2019-11-06T13:11:05.001Z</time>
      </trkpt>
      <trkpt lat="46.40931" lon="-1.54386">
        <ele>2.611</ele>
        <time>2019-11-06T13:11:35.001Z</time>
      </trkpt>
      <trkpt lat="46.40982" lon="-1.54564">
        <ele>5.083</ele>
        <time>2019-11-06T13:12:08.001Z</time>
      </trkpt>
      <trkpt lat="46.41069" lon="-1.54706">
        <ele>7.48</ele>
        <time>2019-11-06T13:12:41.001Z</time>
      </trkpt>
      <trkpt lat="46.41132" lon="-1.5484">
        <ele>10.348</ele>
        <time>2019-11-06T13:13:11.001Z</time>
      </trkpt>
      <trkpt lat="46.41229" lon="-1.54919">
        <ele>9.126</ele>
        <time>2019-11-06T13:13:44.001Z</time>
      </trkpt>
      <trkpt lat="46.41358" lon="-1.54886">
        <ele>9.796</ele>
        <time>2019-11-06T13:14:14.001Z</time>
      </trkpt>
      <trkpt lat="46.4142" lon="-1.54927">
        <ele>16.516</ele>
        <time>2019-11-06T13:14:47.001Z</time>
      </trkpt>
      <trkpt lat="46.41434" lon="-1.55101">
        <ele>11.798</ele>
        <time>2019-11-06T13:15:20.001Z</time>
      </trkpt>
      <trkpt lat="46.41458" lon="-1.55263">
        <ele>11.67</ele>
        <time>2019-11-06T13:15:50.001Z</time>
      </trkpt>
      <trkpt lat="46.4149" lon="-1.55438">
        <ele>11.073</ele>
        <time>2019-11-06T13:16:23.001Z</time>
      </trkpt>
      <trkpt lat="46.41513" lon="-1.55628">
        <ele>14.174</ele>
        <time>2019-11-06T13:16:56.001Z</time>
      </trkpt>
      <trkpt lat="46.41534" lon="-1.55838">
        <ele>12.015</ele>
        <time>2019-11-06T13:17:26.001Z</time>
      </trkpt>
      <trkpt lat="46.41533" lon="-1.55999">
        <ele>10.962</ele>
        <time>2019-11-06T13:17:59.001Z</time>
      </trkpt>
      <trkpt lat="46.41519" lon="-1.56162">
        <ele>11.991</ele>
        <time>2019-11-06T13:18:29.001Z</time>
      </trkpt>
      <trkpt lat="46.41499" lon="-1.56352">
        <ele>11.735</ele>
        <time>2019-11-06T13:19:02Z</time>
      </trkpt>
      <trkpt lat="46.41505" lon="-1.56549">
        <ele>14.117</ele>
        <time>2019-11-06T13:19:35.001Z</time>
      </trkpt>
      <trkpt lat="46.41528" lon="-1.56732">
        <ele>15.356</ele>
        <time>2019-11-06T13:20:05.001Z</time>
      </trkpt>
      <trkpt lat="46.4159" lon="-1.56941">
        <ele>14.189</ele>
        <time>2019-11-06T13:20:38.001Z</time>
      </trkpt>
      <trkpt lat="46.41672" lon="-1.57134">
        <ele>13.016</ele>
        <time>2019-11-06T13:21:11.001Z</time>
      </trkpt>
      <trkpt lat="46.41727" lon="-1.57276">
        <ele>12.523</ele>
        <time>2019-11-06T13:21:41.001Z</time>
      </trkpt>
      <trkpt lat="46.41719" lon="-1.57268">
        <ele>11.684</ele>
        <time>2019-11-06T13:45:05.001Z</time>
      </trkpt>
      <trkpt lat="46.41779" lon="-1.57342">
        <ele>15.002</ele>
        <time>2019-11-06T13:45:44.001Z</time>
      </trkpt>
      <trkpt lat="46.41771" lon="-1.57462">
        <ele>15.199</ele>
        <time>2019-11-06T13:46:17.001Z</time>
      </trkpt>
      <trkpt lat="46.41838" lon="-1.5754">
        <ele>14.511</ele>
        <time>2019-11-06T13:46:50.001Z</time>
      </trkpt>
      <trkpt lat="46.41955" lon="-1.57472">
        <ele>11.641</ele>
        <time>2019-11-06T13:47:20.001Z</time>
      </trkpt>
      <trkpt lat="46.42036" lon="-1.57479">
        <ele>11.89</ele>
        <time>2019-11-06T13:47:53.001Z</time>
      </trkpt>
      <trkpt lat="46.42052" lon="-1.57665">
        <ele>11.332</ele>
        <time>2019-11-06T13:48:23.001Z</time>
      </trkpt>
      <trkpt lat="46.42048" lon="-1.57865">
        <ele>9.44</ele>
        <time>2019-11-06T13:48:56.001Z</time>
      </trkpt>
      <trkpt lat="46.42036" lon="-1.58083">
        <ele>10.21</ele>
        <time>2019-11-06T13:49:29.001Z</time>
      </trkpt>
      <trkpt lat="46.4198" lon="-1.58229">
        <ele>9.674</ele>
        <time>2019-11-06T13:49:59.001Z</time>
      </trkpt>
      <trkpt lat="46.41883" lon="-1.58359">
        <ele>11.866</ele>
        <time>2019-11-06T13:50:32.001Z</time>
      </trkpt>
      <trkpt lat="46.41885" lon="-1.58593">
        <ele>16.038</ele>
        <time>2019-11-06T13:51:05.001Z</time>
      </trkpt>
      <trkpt lat="46.41855" lon="-1.58748">
        <ele>13.415</ele>
        <time>2019-11-06T13:51:35.001Z</time>
      </trkpt>
      <trkpt lat="46.41854" lon="-1.5895">
        <ele>16.082</ele>
        <time>2019-11-06T13:52:08.001Z</time>
      </trkpt>
      <trkpt lat="46.41882" lon="-1.59148">
        <ele>15.257</ele>
        <time>2019-11-06T13:52:38.001Z</time>
      </trkpt>
      <trkpt lat="46.41918" lon="-1.59359">
        <ele>19.503</ele>
        <time>2019-11-06T13:53:11.001Z</time>
      </trkpt>
      <trkpt lat="46.41923" lon="-1.59575">
        <ele>17.584</ele>
        <time>2019-11-06T13:53:44.001Z</time>
      </trkpt>
      <trkpt lat="46.4191" lon="-1.59779">
        <ele>11.587</ele>
        <time>2019-11-06T13:54:14.001Z</time>
      </trkpt>
      <trkpt lat="46.41967" lon="-1.5996">
        <ele>12.411</ele>
        <time>2019-11-06T13:54:47.001Z</time>
      </trkpt>
      <trkpt lat="46.4206" lon="-1.60141">
        <ele>13.423</ele>
        <time>2019-11-06T13:55:20.001Z</time>
      </trkpt>
      <trkpt lat="46.42155" lon="-1.60305">
        <ele>15.51</ele>
        <time>2019-11-06T13:55:50.001Z</time>
      </trkpt>
      <trkpt lat="46.42232" lon="-1.60119">
        <ele>4.758</ele>
        <time>2019-11-06T13:56:23.001Z</time>
      </trkpt>
      <trkpt lat="46.42268" lon="-1.59945">
        <ele>11.981</ele>
        <time>2019-11-06T13:56:53.001Z</time>
      </trkpt>
      <trkpt lat="46.42311" lon="-1.59739">
        <ele>11.964</ele>
        <time>2019-11-06T13:57:26.001Z</time>
      </trkpt>
      <trkpt lat="46.42314" lon="-1.59615">
        <ele>12.092</ele>
        <time>2019-11-06T13:57:59.001Z</time>
      </trkpt>
      <trkpt lat="46.42369" lon="-1.59515">
        <ele>19.036</ele>
        <time>2019-11-06T13:58:29.001Z</time>
      </trkpt>
      <trkpt lat="46.42464" lon="-1.59414">
        <ele>21.924</ele>
        <time>2019-11-06T13:59:02Z</time>
      </trkpt>
      <trkpt lat="46.42551" lon="-1.59301">
        <ele>15.507</ele>
        <time>2019-11-06T13:59:32.001Z</time>
      </trkpt>
      <trkpt lat="46.42633" lon="-1.59168">
        <ele>18.78</ele>
        <time>2019-11-06T14:00:05.001Z</time>
      </trkpt>
      <trkpt lat="46.42695" lon="-1.58999">
        <ele>21.187</ele>
        <time>2019-11-06T14:00:38.001Z</time>
      </trkpt>
      <trkpt lat="46.42741" lon="-1.58855">
        <ele>19.357</ele>
        <time>2019-11-06T14:01:08.001Z</time>
      </trkpt>
      <trkpt lat="46.42854" lon="-1.58891">
        <ele>13.67</ele>
        <time>2019-11-06T14:01:41.001Z</time>
      </trkpt>
      <trkpt lat="46.42992" lon="-1.59099">
        <ele>0.893</ele>
        <time>2019-11-06T14:02:14.001Z</time>
      </trkpt>
      <trkpt lat="46.43058" lon="-1.59244">
        <ele>1</ele>
        <time>2019-11-06T14:02:44.001Z</time>
      </trkpt>
      <trkpt lat="46.43157" lon="-1.59366">
        <ele>1.4</ele>
        <time>2019-11-06T14:03:17.001Z</time>
      </trkpt>
      <trkpt lat="46.43232" lon="-1.59494">
        <ele>2.496</ele>
        <time>2019-11-06T14:03:47.001Z</time>
      </trkpt>
      <trkpt lat="46.43322" lon="-1.59627">
        <ele>2.94</ele>
        <time>2019-11-06T14:04:20.001Z</time>
      </trkpt>
      <trkpt lat="46.43374" lon="-1.59792">
        <ele>2.853</ele>
        <time>2019-11-06T14:04:53.001Z</time>
      </trkpt>
      <trkpt lat="46.43409" lon="-1.59939">
        <ele>1.188</ele>
        <time>2019-11-06T14:05:23.001Z</time>
      </trkpt>
      <trkpt lat="46.43453" lon="-1.60098">
        <ele>0.401</ele>
        <time>2019-11-06T14:05:56.001Z</time>
      </trkpt>
      <trkpt lat="46.43511" lon="-1.60206">
        <ele>2.517</ele>
        <time>2019-11-06T14:06:26.001Z</time>
      </trkpt>
      <trkpt lat="46.43571" lon="-1.60304">
        <ele>5.992</ele>
        <time>2019-11-06T14:06:59.001Z</time>
      </trkpt>
      <trkpt lat="46.43667" lon="-1.60295">
        <ele>0.634</ele>
        <time>2019-11-06T14:07:32.001Z</time>
      </trkpt>
      <trkpt lat="46.4372" lon="-1.60361">
        <ele>4.642</ele>
        <time>2019-11-06T14:08:02Z</time>
      </trkpt>
      <trkpt lat="46.43842" lon="-1.60295">
        <ele>5.094</ele>
        <time>2019-11-06T14:08:35.001Z</time>
      </trkpt>
      <trkpt lat="46.4397" lon="-1.60208">
        <ele>0.927</ele>
        <time>2019-11-06T14:09:08.001Z</time>
      </trkpt>
      <trkpt lat="46.44098" lon="-1.60225">
        <ele>1.898</ele>
        <time>2019-11-06T14:09:38.001Z</time>
      </trkpt>
      <trkpt lat="46.4411" lon="-1.60441">
        <ele>0.652</ele>
        <time>2019-11-06T14:10:11.001Z</time>
      </trkpt>
      <trkpt lat="46.44178" lon="-1.60606">
        <ele>2.964</ele>
        <time>2019-11-06T14:10:41.001Z</time>
      </trkpt>
      <trkpt lat="46.44184" lon="-1.60744">
        <ele>4.294</ele>
        <time>2019-11-06T14:11:14.001Z</time>
      </trkpt>
      <trkpt lat="46.44165" lon="-1.60893">
        <ele>3.917</ele>
        <time>2019-11-06T14:11:47.001Z</time>
      </trkpt>
      <trkpt lat="46.44189" lon="-1.61103">
        <ele>0.423</ele>
        <time>2019-11-06T14:12:17.001Z</time>
      </trkpt>
      <trkpt lat="46.44123" lon="-1.61289">
        <ele>1.839</ele>
        <time>2019-11-06T14:12:50.001Z</time>
      </trkpt>
      <trkpt lat="46.44157" lon="-1.61473">
        <ele>3.609</ele>
        <time>2019-11-06T14:13:23.001Z</time>
      </trkpt>
      <trkpt lat="46.44153" lon="-1.61632">
        <ele>3.612</ele>
        <time>2019-11-06T14:13:53.001Z</time>
      </trkpt>
      <trkpt lat="46.44111" lon="-1.61857">
        <ele>3</ele>
        <time>2019-11-06T14:14:26.001Z</time>
      </trkpt>
      <trkpt lat="46.44102" lon="-1.62073">
        <ele>1.543</ele>
        <time>2019-11-06T14:14:56.001Z</time>
      </trkpt>
      <trkpt lat="46.44155" lon="-1.62262">
        <ele>3.428</ele>
        <time>2019-11-06T14:15:29.001Z</time>
      </trkpt>
      <trkpt lat="46.44167" lon="-1.62501">
        <ele>3.1</ele>
        <time>2019-11-06T14:16:02Z</time>
      </trkpt>
      <trkpt lat="46.44202" lon="-1.62677">
        <ele>4.2</ele>
        <time>2019-11-06T14:16:32.001Z</time>
      </trkpt>
      <trkpt lat="46.44158" lon="-1.62846">
        <ele>2.722</ele>
        <time>2019-11-06T14:17:05.001Z</time>
      </trkpt>
      <trkpt lat="46.44235" lon="-1.62932">
        <ele>0.832</ele>
        <time>2019-11-06T14:17:35.001Z</time>
      </trkpt>
      <trkpt lat="46.44355" lon="-1.62959">
        <ele>3.6</ele>
        <time>2019-11-06T14:18:08.001Z</time>
      </trkpt>
      <trkpt lat="46.44452" lon="-1.63071">
        <ele>3.3</ele>
        <time>2019-11-06T14:18:41.001Z</time>
      </trkpt>
      <trkpt lat="46.4455" lon="-1.63196">
        <ele>0.144</ele>
        <time>2019-11-06T14:19:11.001Z</time>
      </trkpt>
      <trkpt lat="46.44667" lon="-1.63245">
        <ele>2.873</ele>
        <time>2019-11-06T14:19:44.001Z</time>
      </trkpt>
      <trkpt lat="46.44748" lon="-1.63312">
        <ele>7.949</ele>
        <time>2019-11-06T14:20:17.001Z</time>
      </trkpt>
      <trkpt lat="46.44782" lon="-1.63432">
        <ele>5.201</ele>
        <time>2019-11-06T14:20:47.001Z</time>
      </trkpt>
      <trkpt lat="46.44813" lon="-1.63556">
        <ele>4.096</ele>
        <time>2019-11-06T14:21:20.001Z</time>
      </trkpt>
      <trkpt lat="46.4479" lon="-1.63712">
        <ele>7.466</ele>
        <time>2019-11-06T14:21:50.001Z</time>
      </trkpt>
      <trkpt lat="46.44753" lon="-1.63894">
        <ele>6.99</ele>
        <time>2019-11-06T14:22:23.001Z</time>
      </trkpt>
      <trkpt lat="46.44714" lon="-1.64071">
        <ele>7.428</ele>
        <time>2019-11-06T14:22:56.001Z</time>
      </trkpt>
      <trkpt lat="46.44671" lon="-1.64195">
        <ele>8.42</ele>
        <time>2019-11-06T14:23:26.001Z</time>
      </trkpt>
      <trkpt lat="46.44676" lon="-1.6441">
        <ele>2.073</ele>
        <time>2019-11-06T14:23:59.001Z</time>
      </trkpt>
      <trkpt lat="46.44609" lon="-1.64474">
        <ele>2.3</ele>
        <time>2019-11-06T14:24:32.001Z</time>
      </trkpt>
      <trkpt lat="46.44585" lon="-1.64619">
        <ele>2.4</ele>
        <time>2019-11-06T14:25:02Z</time>
      </trkpt>
      <trkpt lat="46.44616" lon="-1.64762">
        <ele>0.991</ele>
        <time>2019-11-06T14:25:35.001Z</time>
      </trkpt>
      <trkpt lat="46.44637" lon="-1.64861">
        <ele>1.033</ele>
        <time>2019-11-06T14:26:08.001Z</time>
      </trkpt>
      <trkpt lat="46.4453" lon="-1.64866">
        <ele>3.043</ele>
        <time>2019-11-06T14:26:41.001Z</time>
      </trkpt>
      <trkpt lat="46.44411" lon="-1.6483">
        <ele>2.614</ele>
        <time>2019-11-06T14:27:14.001Z</time>
      </trkpt>
      <trkpt lat="46.44309" lon="-1.64829">
        <ele>3.518</ele>
        <time>2019-11-06T14:27:44.001Z</time>
      </trkpt>
      <trkpt lat="46.44271" lon="-1.65">
        <ele>2.426</ele>
        <time>2019-11-06T14:28:17.001Z</time>
      </trkpt>
      <trkpt lat="46.44212" lon="-1.65134">
        <ele>2.68</ele>
        <time>2019-11-06T14:28:47.001Z</time>
      </trkpt>
      <trkpt lat="46.44094" lon="-1.65237">
        <ele>3.151</ele>
        <time>2019-11-06T14:29:20.001Z</time>
      </trkpt>
      <trkpt lat="46.44027" lon="-1.65287">
        <ele>10.822</ele>
        <time>2019-11-06T14:29:53.001Z</time>
      </trkpt>
      <trkpt lat="46.44024" lon="-1.65396">
        <ele>15.774</ele>
        <time>2019-11-06T14:30:23.001Z</time>
      </trkpt>
      <trkpt lat="46.44009" lon="-1.65551">
        <ele>20.108</ele>
        <time>2019-11-06T14:30:56.001Z</time>
      </trkpt>
      <trkpt lat="46.44011" lon="-1.65735">
        <ele>19.515</ele>
        <time>2019-11-06T14:31:29.001Z</time>
      </trkpt>
      <trkpt lat="46.44024" lon="-1.65896">
        <ele>24.839</ele>
        <time>2019-11-06T14:32:02Z</time>
      </trkpt>
      <trkpt lat="46.44038" lon="-1.66073">
        <ele>24.383</ele>
        <time>2019-11-06T14:32:35.001Z</time>
      </trkpt>
      <trkpt lat="46.43999" lon="-1.66252">
        <ele>10.969</ele>
        <time>2019-11-06T14:33:05.001Z</time>
      </trkpt>
      <trkpt lat="46.44118" lon="-1.66373">
        <ele>4.584</ele>
        <time>2019-11-06T14:33:38.001Z</time>
      </trkpt>
      <trkpt lat="46.44211" lon="-1.66456">
        <ele>7.842</ele>
        <time>2019-11-06T14:34:11.001Z</time>
      </trkpt>
      <trkpt lat="46.44239" lon="-1.66572">
        <ele>9.178</ele>
        <time>2019-11-06T14:34:41.001Z</time>
      </trkpt>
      <trkpt lat="46.44295" lon="-1.66697">
        <ele>8.604</ele>
        <time>2019-11-06T14:35:14.001Z</time>
      </trkpt>
      <trkpt lat="46.44367" lon="-1.66815">
        <ele>8.366</ele>
        <time>2019-11-06T14:35:47.001Z</time>
      </trkpt>
      <trkpt lat="46.44436" lon="-1.66945">
        <ele>10.388</ele>
        <time>2019-11-06T14:36:17.001Z</time>
      </trkpt>
      <trkpt lat="46.44455" lon="-1.67113">
        <ele>11.963</ele>
        <time>2019-11-06T14:36:50.001Z</time>
      </trkpt>
      <trkpt lat="46.44516" lon="-1.67251">
        <ele>13.349</ele>
        <time>2019-11-06T14:37:20.001Z</time>
      </trkpt>
      <trkpt lat="46.44565" lon="-1.67364">
        <ele>12.584</ele>
        <time>2019-11-06T14:37:53.001Z</time>
      </trkpt>
      <trkpt lat="46.44632" lon="-1.67503">
        <ele>15.036</ele>
        <time>2019-11-06T14:38:26.001Z</time>
      </trkpt>
      <trkpt lat="46.44679" lon="-1.67611">
        <ele>19.571</ele>
        <time>2019-11-06T14:38:56.001Z</time>
      </trkpt>
      <trkpt lat="46.44706" lon="-1.67757">
        <ele>22.274</ele>
        <time>2019-11-06T14:39:29.001Z</time>
      </trkpt>
      <trkpt lat="46.44696" lon="-1.6789">
        <ele>20.782</ele>
        <time>2019-11-06T14:39:59.001Z</time>
      </trkpt>
      <trkpt lat="46.44703" lon="-1.68022">
        <ele>18.295</ele>
        <time>2019-11-06T14:40:32.001Z</time>
      </trkpt>
      <trkpt lat="46.44714" lon="-1.6815">
        <ele>21.076</ele>
        <time>2019-11-06T14:41:05.001Z</time>
      </trkpt>
      <trkpt lat="46.44748" lon="-1.68304">
        <ele>21.628</ele>
        <time>2019-11-06T14:41:35.001Z</time>
      </trkpt>
      <trkpt lat="46.44841" lon="-1.68467">
        <ele>21.002</ele>
        <time>2019-11-06T14:42:08.001Z</time>
      </trkpt>
      <trkpt lat="46.4497" lon="-1.68583">
        <ele>16.952</ele>
        <time>2019-11-06T14:42:41.001Z</time>
      </trkpt>
      <trkpt lat="46.45068" lon="-1.68726">
        <ele>11.754</ele>
        <time>2019-11-06T14:43:11.001Z</time>
      </trkpt>
      <trkpt lat="46.45114" lon="-1.68977">
        <ele>11.845</ele>
        <time>2019-11-06T14:43:44.001Z</time>
      </trkpt>
      <trkpt lat="46.4517" lon="-1.69209">
        <ele>8.839</ele>
        <time>2019-11-06T14:44:14.001Z</time>
      </trkpt>
      <trkpt lat="46.45218" lon="-1.69407">
        <ele>7.949</ele>
        <time>2019-11-06T14:44:47.001Z</time>
      </trkpt>
      <trkpt lat="46.4525" lon="-1.69549">
        <ele>8.995</ele>
        <time>2019-11-06T14:45:20.001Z</time>
      </trkpt>
      <trkpt lat="46.45257" lon="-1.69661">
        <ele>12.318</ele>
        <time>2019-11-06T14:45:50.001Z</time>
      </trkpt>
      <trkpt lat="46.4522" lon="-1.69809">
        <ele>15.923</ele>
        <time>2019-11-06T14:46:23.001Z</time>
      </trkpt>
      <trkpt lat="46.4521" lon="-1.69947">
        <ele>21.185</ele>
        <time>2019-11-06T14:46:56.001Z</time>
      </trkpt>
      <trkpt lat="46.45198" lon="-1.70075">
        <ele>26.399</ele>
        <time>2019-11-06T14:47:26.001Z</time>
      </trkpt>
      <trkpt lat="46.45222" lon="-1.70174">
        <ele>19.74</ele>
        <time>2019-11-06T14:47:59.001Z</time>
      </trkpt>
      <trkpt lat="46.45222" lon="-1.70281">
        <ele>21.326</ele>
        <time>2019-11-06T14:48:29.001Z</time>
      </trkpt>
      <trkpt lat="46.45239" lon="-1.70433">
        <ele>23.782</ele>
        <time>2019-11-06T14:49:02Z</time>
      </trkpt>
      <trkpt lat="46.45274" lon="-1.70613">
        <ele>24.789</ele>
        <time>2019-11-06T14:49:35.001Z</time>
      </trkpt>
      <trkpt lat="46.45307" lon="-1.7081">
        <ele>26.515</ele>
        <time>2019-11-06T14:50:05.001Z</time>
      </trkpt>
      <trkpt lat="46.45337" lon="-1.70989">
        <ele>18</ele>
        <time>2019-11-06T14:50:38.001Z</time>
      </trkpt>
      <trkpt lat="46.45348" lon="-1.71033">
        <ele>14.539</ele>
        <time>2019-11-06T14:51:47.001Z</time>
      </trkpt>
      <trkpt lat="46.45419" lon="-1.71146">
        <ele>10.568</ele>
        <time>2019-11-06T14:52:20.001Z</time>
      </trkpt>
      <trkpt lat="46.45509" lon="-1.7118">
        <ele>9.091</ele>
        <time>2019-11-06T14:52:53.001Z</time>
      </trkpt>
      <trkpt lat="46.45598" lon="-1.71205">
        <ele>10.228</ele>
        <time>2019-11-06T14:53:23.001Z</time>
      </trkpt>
      <trkpt lat="46.45697" lon="-1.71255">
        <ele>15.699</ele>
        <time>2019-11-06T14:53:56.001Z</time>
      </trkpt>
      <trkpt lat="46.45825" lon="-1.71363">
        <ele>8.97</ele>
        <time>2019-11-06T14:54:29.001Z</time>
      </trkpt>
      <trkpt lat="46.45905" lon="-1.71445">
        <ele>5.877</ele>
        <time>2019-11-06T14:54:59.001Z</time>
      </trkpt>
      <trkpt lat="46.45939" lon="-1.7152">
        <ele>8.573</ele>
        <time>2019-11-06T14:55:32.001Z</time>
      </trkpt>
      <trkpt lat="46.45985" lon="-1.71597">
        <ele>13.8</ele>
        <time>2019-11-06T14:56:02Z</time>
      </trkpt>
      <trkpt lat="46.46042" lon="-1.71685">
        <ele>16.355</ele>
        <time>2019-11-06T14:56:35.001Z</time>
      </trkpt>
      <trkpt lat="46.461" lon="-1.71772">
        <ele>19.405</ele>
        <time>2019-11-06T14:57:08.001Z</time>
      </trkpt>
      <trkpt lat="46.46169" lon="-1.71834">
        <ele>24.818</ele>
        <time>2019-11-06T14:57:38.001Z</time>
      </trkpt>
      <trkpt lat="46.46263" lon="-1.71968">
        <ele>26.886</ele>
        <time>2019-11-06T14:58:11.001Z</time>
      </trkpt>
      <trkpt lat="46.46313" lon="-1.72113">
        <ele>33.304</ele>
        <time>2019-11-06T14:58:41.001Z</time>
      </trkpt>
      <trkpt lat="46.46344" lon="-1.72282">
        <ele>29.128</ele>
        <time>2019-11-06T14:59:14.001Z</time>
      </trkpt>
      <trkpt lat="46.46365" lon="-1.72459">
        <ele>33.429</ele>
        <time>2019-11-06T14:59:47.001Z</time>
      </trkpt>
      <trkpt lat="46.46386" lon="-1.72639">
        <ele>36.29</ele>
        <time>2019-11-06T15:00:17.001Z</time>
      </trkpt>
      <trkpt lat="46.46393" lon="-1.72892">
        <ele>26.801</ele>
        <time>2019-11-06T15:00:50.001Z</time>
      </trkpt>
      <trkpt lat="46.46483" lon="-1.73158">
        <ele>12.766</ele>
        <time>2019-11-06T15:01:23.001Z</time>
      </trkpt>
      <trkpt lat="46.46586" lon="-1.73203">
        <ele>9.257</ele>
        <time>2019-11-06T15:01:53.001Z</time>
      </trkpt>
      <trkpt lat="46.4663" lon="-1.7336">
        <ele>11.883</ele>
        <time>2019-11-06T15:02:26.001Z</time>
      </trkpt>
      <trkpt lat="46.46664" lon="-1.7352">
        <ele>13.55</ele>
        <time>2019-11-06T15:02:56.001Z</time>
      </trkpt>
      <trkpt lat="46.46753" lon="-1.73681">
        <ele>10.117</ele>
        <time>2019-11-06T15:03:29.001Z</time>
      </trkpt>
      <trkpt lat="46.46838" lon="-1.73807">
        <ele>6.237</ele>
        <time>2019-11-06T15:04:02Z</time>
      </trkpt>
      <trkpt lat="46.46839" lon="-1.73924">
        <ele>11.313</ele>
        <time>2019-11-06T15:04:32.001Z</time>
      </trkpt>
      <trkpt lat="46.46858" lon="-1.74068">
        <ele>11.23</ele>
        <time>2019-11-06T15:05:05.001Z</time>
      </trkpt>
      <trkpt lat="46.46947" lon="-1.74175">
        <ele>10.161</ele>
        <time>2019-11-06T15:05:38.001Z</time>
      </trkpt>
      <trkpt lat="46.47042" lon="-1.74266">
        <ele>9.238</ele>
        <time>2019-11-06T15:06:08.001Z</time>
      </trkpt>
      <trkpt lat="46.4713" lon="-1.74407">
        <ele>11.032</ele>
        <time>2019-11-06T15:06:41.001Z</time>
      </trkpt>
      <trkpt lat="46.47204" lon="-1.74545">
        <ele>10.36</ele>
        <time>2019-11-06T15:07:11.001Z</time>
      </trkpt>
      <trkpt lat="46.4728" lon="-1.74674">
        <ele>10.739</ele>
        <time>2019-11-06T15:07:44.001Z</time>
      </trkpt>
      <trkpt lat="46.47364" lon="-1.74822">
        <ele>9.986</ele>
        <time>2019-11-06T15:08:17.001Z</time>
      </trkpt>
      <trkpt lat="46.474" lon="-1.74975">
        <ele>11.541</ele>
        <time>2019-11-06T15:08:47.001Z</time>
      </trkpt>
      <trkpt lat="46.47438" lon="-1.75152">
        <ele>11.607</ele>
        <time>2019-11-06T15:09:20.001Z</time>
      </trkpt>
      <trkpt lat="46.47451" lon="-1.7533">
        <ele>9.611</ele>
        <time>2019-11-06T15:09:50.001Z</time>
      </trkpt>
      <trkpt lat="46.475" lon="-1.75493">
        <ele>9.22</ele>
        <time>2019-11-06T15:10:23.001Z</time>
      </trkpt>
      <trkpt lat="46.47551" lon="-1.75645">
        <ele>10.486</ele>
        <time>2019-11-06T15:10:56.001Z</time>
      </trkpt>
      <trkpt lat="46.47625" lon="-1.75745">
        <ele>9.065</ele>
        <time>2019-11-06T15:11:26.001Z</time>
      </trkpt>
      <trkpt lat="46.47743" lon="-1.75895">
        <ele>5.997</ele>
        <time>2019-11-06T15:11:59.001Z</time>
      </trkpt>
      <trkpt lat="46.47823" lon="-1.76017">
        <ele>8.864</ele>
        <time>2019-11-06T15:12:32.001Z</time>
      </trkpt>
      <trkpt lat="46.47921" lon="-1.76031">
        <ele>11.667</ele>
        <time>2019-11-06T15:13:02Z</time>
      </trkpt>
      <trkpt lat="46.48058" lon="-1.76067">
        <ele>6.653</ele>
        <time>2019-11-06T15:13:35.001Z</time>
      </trkpt>
      <trkpt lat="46.48149" lon="-1.76172">
        <ele>7.015</ele>
        <time>2019-11-06T15:14:05.001Z</time>
      </trkpt>
      <trkpt lat="46.48245" lon="-1.76286">
        <ele>10.036</ele>
        <time>2019-11-06T15:14:38.001Z</time>
      </trkpt>
      <trkpt lat="46.48341" lon="-1.76398">
        <ele>12.527</ele>
        <time>2019-11-06T15:15:11.001Z</time>
      </trkpt>
      <trkpt lat="46.48428" lon="-1.76499">
        <ele>11.525</ele>
        <time>2019-11-06T15:15:41.001Z</time>
      </trkpt>
      <trkpt lat="46.48508" lon="-1.76577">
        <ele>14.785</ele>
        <time>2019-11-06T15:16:14.001Z</time>
      </trkpt>
      <trkpt lat="46.48605" lon="-1.76671">
        <ele>16.965</ele>
        <time>2019-11-06T15:16:47.001Z</time>
      </trkpt>
      <trkpt lat="46.48694" lon="-1.7676">
        <ele>20.149</ele>
        <time>2019-11-06T15:17:17.001Z</time>
      </trkpt>
      <trkpt lat="46.48797" lon="-1.76858">
        <ele>23.782</ele>
        <time>2019-11-06T15:17:50.001Z</time>
      </trkpt>
      <trkpt lat="46.48897" lon="-1.76905">
        <ele>19.293</ele>
        <time>2019-11-06T15:18:20.001Z</time>
      </trkpt>
      <trkpt lat="46.48949" lon="-1.76792">
        <ele>12.472</ele>
        <time>2019-11-06T15:18:53.001Z</time>
      </trkpt>
      <trkpt lat="46.4903" lon="-1.76892">
        <ele>29.12</ele>
        <time>2019-11-06T15:19:26.001Z</time>
      </trkpt>
      <trkpt lat="46.49102" lon="-1.76982">
        <ele>32.626</ele>
        <time>2019-11-06T15:19:56.001Z</time>
      </trkpt>
      <trkpt lat="46.49185" lon="-1.77084">
        <ele>33.077</ele>
        <time>2019-11-06T15:20:29.001Z</time>
      </trkpt>
      <trkpt lat="46.49263" lon="-1.7721">
        <ele>22.096</ele>
        <time>2019-11-06T15:20:59.001Z</time>
      </trkpt>
      <trkpt lat="46.49334" lon="-1.77357">
        <ele>26.912</ele>
        <time>2019-11-06T15:21:32.001Z</time>
      </trkpt>
      <trkpt lat="46.49407" lon="-1.77501">
        <ele>31.07</ele>
        <time>2019-11-06T15:22:05.001Z</time>
      </trkpt>
      <trkpt lat="46.49485" lon="-1.77608">
        <ele>42.051</ele>
        <time>2019-11-06T15:22:35.001Z</time>
      </trkpt>
      <trkpt lat="46.49564" lon="-1.77718">
        <ele>39.135</ele>
        <time>2019-11-06T15:23:08.001Z</time>
      </trkpt>
      <trkpt lat="46.49589" lon="-1.77795">
        <ele>30.238</ele>
        <time>2019-11-06T15:23:44.001Z</time>
      </trkpt>
      <trkpt lat="46.49577" lon="-1.77966">
        <ele>18.584</ele>
        <time>2019-11-06T15:24:14.001Z</time>
      </trkpt>
      <trkpt lat="46.49594" lon="-1.78159">
        <ele>12.89</ele>
        <time>2019-11-06T15:24:47.001Z</time>
      </trkpt>
      <trkpt lat="46.49664" lon="-1.78235">
        <ele>16.601</ele>
        <time>2019-11-06T15:25:17.001Z</time>
      </trkpt>
      <trkpt lat="46.49719" lon="-1.78197">
        <ele>9.214</ele>
        <time>2019-11-06T15:25:53.001Z</time>
      </trkpt>
      <trkpt lat="46.49732" lon="-1.78154">
        <ele>12.434</ele>
        <time>2019-11-06T15:26:44.001Z</time>
      </trkpt>
      <trkpt lat="46.49713" lon="-1.78169">
        <ele>17.649</ele>
        <time>2019-11-06T15:27:20.001Z</time>
      </trkpt>
      <trkpt lat="46.49731" lon="-1.78187">
        <ele>19.079</ele>
        <time>2019-11-06T15:30:17.001Z</time>
      </trkpt>
      <trkpt lat="46.49749" lon="-1.78184">
        <ele>17.709</ele>
        <time>2019-11-06T15:31:56.001Z</time>
      </trkpt>
      <trkpt lat="46.49776" lon="-1.78171">
        <ele>20.294</ele>
        <time>2019-11-06T15:33:53.001Z</time>
      </trkpt>
      <trkpt lat="46.49751" lon="-1.78171">
        <ele>18.928</ele>
        <time>2019-11-06T15:36:11.001Z</time>
      </trkpt>
      <trkpt lat="46.49749" lon="-1.78171">
        <ele>21.23</ele>
        <time>2019-11-06T15:38:14.001Z</time>
      </trkpt>
      <trkpt lat="46.49751" lon="-1.78169">
        <ele>24.154</ele>
        <time>2019-11-06T15:40:26.001Z</time>
      </trkpt>
      <trkpt lat="46.49755" lon="-1.78177">
        <ele>26.957</ele>
        <time>2019-11-06T15:41:11.001Z</time>
      </trkpt>
      <trkpt lat="46.49737" lon="-1.78197">
        <ele>27.796</ele>
        <time>2019-11-06T15:42:02Z</time>
      </trkpt>
      <trkpt lat="46.497" lon="-1.78237">
        <ele>19.646</ele>
        <time>2019-11-06T15:43:11.001Z</time>
      </trkpt>
      <trkpt lat="46.49639" lon="-1.78223">
        <ele>17.331</ele>
        <time>2019-11-06T15:43:44.001Z</time>
      </trkpt>
      <trkpt lat="46.49733" lon="-1.78125">
        <ele>11.926</ele>
        <time>2019-11-06T15:44:17.001Z</time>
      </trkpt>
      <trkpt lat="46.49763" lon="-1.77947">
        <ele>0.751</ele>
        <time>2019-11-06T15:44:50.001Z</time>
      </trkpt>
      <trkpt lat="46.49805" lon="-1.77796">
        <ele>4.403</ele>
        <time>2019-11-06T15:45:20.001Z</time>
      </trkpt>
      <trkpt lat="46.49747" lon="-1.77721">
        <ele>9.394</ele>
        <time>2019-11-06T15:45:53.001Z</time>
      </trkpt>
      <trkpt lat="46.4966" lon="-1.77743">
        <ele>7.959</ele>
        <time>2019-11-06T15:46:26.001Z</time>
      </trkpt>
      <trkpt lat="46.49595" lon="-1.77728">
        <ele>13.969</ele>
        <time>2019-11-06T15:46:56.001Z</time>
      </trkpt>
      <trkpt lat="46.49598" lon="-1.7749">
        <ele>13.791</ele>
        <time>2019-11-06T15:47:29.001Z</time>
      </trkpt>
      <trkpt lat="46.49601" lon="-1.77344">
        <ele>16.97</ele>
        <time>2019-11-06T15:48:02Z</time>
      </trkpt>
      <trkpt lat="46.49609" lon="-1.77189">
        <ele>13.816</ele>
        <time>2019-11-06T15:48:35.001Z</time>
      </trkpt>
      <trkpt lat="46.49603" lon="-1.77181">
        <ele>15.803</ele>
        <time>2019-11-06T15:53:11.001Z</time>
      </trkpt>
      <trkpt lat="46.49621" lon="-1.77202">
        <ele>12.704</ele>
        <time>2019-11-06T15:56:05.001Z</time>
      </trkpt>
      <trkpt lat="46.49634" lon="-1.77196">
        <ele>8.168</ele>
        <time>2019-11-06T15:57:17.001Z</time>
      </trkpt>
      <trkpt lat="46.49624" lon="-1.77194">
        <ele>5.372</ele>
        <time>2019-11-06T16:02:02Z</time>
      </trkpt>
      <trkpt lat="46.496" lon="-1.77191">
        <ele>10.1</ele>
        <time>2019-11-06T16:02:44.001Z</time>
      </trkpt>
      <trkpt lat="46.49616" lon="-1.77195">
        <ele>9.9</ele>
        <time>2019-11-06T16:06:47.001Z</time>
      </trkpt>
      <trkpt lat="46.49608" lon="-1.77182">
        <ele>10.1</ele>
        <time>2019-11-06T16:13:35.001Z</time>
      </trkpt>
      <trkpt lat="46.49626" lon="-1.77195">
        <ele>9.8</ele>
        <time>2019-11-06T16:29:02Z</time>
      </trkpt>
      <trkpt lat="46.49608" lon="-1.77197">
        <ele>1.473</ele>
        <time>2019-11-06T16:29:35.001Z</time>
      </trkpt>
      <trkpt lat="46.49607" lon="-1.77189">
        <ele>9.375</ele>
        <time>2019-11-06T16:34:23.001Z</time>
      </trkpt>
      <trkpt lat="46.49607" lon="-1.77197">
        <ele>17.7</ele>
        <time>2019-11-06T16:35:29.001Z</time>
      </trkpt>
      <trkpt lat="46.49607" lon="-1.77215">
        <ele>20.29</ele>
        <time>2019-11-06T16:36:59.001Z</time>
      </trkpt>
      <trkpt lat="46.49614" lon="-1.77192">
        <ele>11.602</ele>
        <time>2019-11-06T16:38:35.001Z</time>
      </trkpt>
      <trkpt lat="46.49649" lon="-1.77154">
        <ele>10.486</ele>
        <time>2019-11-06T16:39:26.001Z</time>
      </trkpt>
    </trkseg>
  </trk>
  <trk>
    <name><![CDATA[Tracé 20191108-121559]]></name>
    <trkseg>
      <trkpt lat="46.4965" lon="-1.77186">
        <ele>46.153</ele>
        <time>2019-11-08T11:16:26Z</time>
      </trkpt>
      <trkpt lat="46.49619" lon="-1.77179">
        <ele>25.476</ele>
        <time>2019-11-08T11:17:08Z</time>
      </trkpt>
      <trkpt lat="46.4965" lon="-1.77173">
        <ele>16.901</ele>
        <time>2019-11-08T11:18:41Z</time>
      </trkpt>
      <trkpt lat="46.49658" lon="-1.77201">
        <ele>12.243</ele>
        <time>2019-11-08T11:24:59Z</time>
      </trkpt>
      <trkpt lat="46.49657" lon="-1.77248">
        <ele>12.696</ele>
        <time>2019-11-08T11:26:35Z</time>
      </trkpt>
      <trkpt lat="46.49652" lon="-1.77395">
        <ele>19.492</ele>
        <time>2019-11-08T11:27:08Z</time>
      </trkpt>
      <trkpt lat="46.49648" lon="-1.775">
        <ele>15.011</ele>
        <time>2019-11-08T11:29:29Z</time>
      </trkpt>
      <trkpt lat="46.49618" lon="-1.77636">
        <ele>15.035</ele>
        <time>2019-11-08T11:30:02Z</time>
      </trkpt>
      <trkpt lat="46.49598" lon="-1.77725">
        <ele>14.539</ele>
        <time>2019-11-08T11:30:38Z</time>
      </trkpt>
      <trkpt lat="46.49588" lon="-1.77816">
        <ele>18.497</ele>
        <time>2019-11-08T11:31:08Z</time>
      </trkpt>
      <trkpt lat="46.49571" lon="-1.78015">
        <ele>22.171</ele>
        <time>2019-11-08T11:31:38Z</time>
      </trkpt>
      <trkpt lat="46.49629" lon="-1.78229">
        <ele>21.821</ele>
        <time>2019-11-08T11:32:11Z</time>
      </trkpt>
      <trkpt lat="46.4978" lon="-1.78282">
        <ele>13.918</ele>
        <time>2019-11-08T11:32:41Z</time>
      </trkpt>
      <trkpt lat="46.49856" lon="-1.78474">
        <ele>7.393</ele>
        <time>2019-11-08T11:33:11Z</time>
      </trkpt>
      <trkpt lat="46.49936" lon="-1.78432">
        <ele>14.272</ele>
        <time>2019-11-08T11:33:44Z</time>
      </trkpt>
      <trkpt lat="46.50032" lon="-1.78542">
        <ele>16.849</ele>
        <time>2019-11-08T11:34:14Z</time>
      </trkpt>
      <trkpt lat="46.50176" lon="-1.78604">
        <ele>10.532</ele>
        <time>2019-11-08T11:34:44Z</time>
      </trkpt>
      <trkpt lat="46.50296" lon="-1.78716">
        <ele>12.644</ele>
        <time>2019-11-08T11:35:14Z</time>
      </trkpt>
      <trkpt lat="46.50419" lon="-1.78852">
        <ele>9.115</ele>
        <time>2019-11-08T11:35:47Z</time>
      </trkpt>
      <trkpt lat="46.50537" lon="-1.78939">
        <ele>10.201</ele>
        <time>2019-11-08T11:36:17Z</time>
      </trkpt>
      <trkpt lat="46.50506" lon="-1.79111">
        <ele>6.566</ele>
        <time>2019-11-08T11:36:47Z</time>
      </trkpt>
      <trkpt lat="46.50453" lon="-1.79323">
        <ele>5.809</ele>
        <time>2019-11-08T11:37:20Z</time>
      </trkpt>
      <trkpt lat="46.5039" lon="-1.79515">
        <ele>5.57</ele>
        <time>2019-11-08T11:37:50Z</time>
      </trkpt>
      <trkpt lat="46.50314" lon="-1.79726">
        <ele>5.817</ele>
        <time>2019-11-08T11:38:20Z</time>
      </trkpt>
      <trkpt lat="46.50272" lon="-1.79928">
        <ele>8.144</ele>
        <time>2019-11-08T11:38:53Z</time>
      </trkpt>
      <trkpt lat="46.50248" lon="-1.80071">
        <ele>10.037</ele>
        <time>2019-11-08T11:39:23Z</time>
      </trkpt>
      <trkpt lat="46.50235" lon="-1.80191">
        <ele>11.561</ele>
        <time>2019-11-08T11:39:53Z</time>
      </trkpt>
      <trkpt lat="46.50213" lon="-1.80384">
        <ele>13.491</ele>
        <time>2019-11-08T11:40:26Z</time>
      </trkpt>
      <trkpt lat="46.50178" lon="-1.80529">
        <ele>16.055</ele>
        <time>2019-11-08T11:40:56Z</time>
      </trkpt>
      <trkpt lat="46.50219" lon="-1.8067">
        <ele>17.656</ele>
        <time>2019-11-08T11:41:26Z</time>
      </trkpt>
      <trkpt lat="46.50231" lon="-1.80841">
        <ele>14.687</ele>
        <time>2019-11-08T11:41:59Z</time>
      </trkpt>
      <trkpt lat="46.50265" lon="-1.81003">
        <ele>15.479</ele>
        <time>2019-11-08T11:42:29Z</time>
      </trkpt>
      <trkpt lat="46.50322" lon="-1.81272">
        <ele>10.568</ele>
        <time>2019-11-08T11:42:59Z</time>
      </trkpt>
      <trkpt lat="46.50414" lon="-1.8148">
        <ele>10.095</ele>
        <time>2019-11-08T11:43:29Z</time>
      </trkpt>
      <trkpt lat="46.50526" lon="-1.81597">
        <ele>7.07</ele>
        <time>2019-11-08T11:44:02Z</time>
      </trkpt>
      <trkpt lat="46.50634" lon="-1.81686">
        <ele>7.435</ele>
        <time>2019-11-08T11:44:32Z</time>
      </trkpt>
      <trkpt lat="46.50752" lon="-1.81718">
        <ele>7.308</ele>
        <time>2019-11-08T11:45:02Z</time>
      </trkpt>
      <trkpt lat="46.50871" lon="-1.81779">
        <ele>10.03</ele>
        <time>2019-11-08T11:45:35Z</time>
      </trkpt>
      <trkpt lat="46.50975" lon="-1.81835">
        <ele>10.063</ele>
        <time>2019-11-08T11:46:05Z</time>
      </trkpt>
      <trkpt lat="46.51033" lon="-1.81803">
        <ele>9.038</ele>
        <time>2019-11-08T11:46:35Z</time>
      </trkpt>
      <trkpt lat="46.51051" lon="-1.8167">
        <ele>9.24</ele>
        <time>2019-11-08T11:47:08Z</time>
      </trkpt>
      <trkpt lat="46.51087" lon="-1.81571">
        <ele>11.804</ele>
        <time>2019-11-08T11:47:38Z</time>
      </trkpt>
      <trkpt lat="46.51108" lon="-1.81446">
        <ele>16.763</ele>
        <time>2019-11-08T11:48:08Z</time>
      </trkpt>
      <trkpt lat="46.51168" lon="-1.81353">
        <ele>19.623</ele>
        <time>2019-11-08T11:48:41Z</time>
      </trkpt>
      <trkpt lat="46.51275" lon="-1.81322">
        <ele>15.348</ele>
        <time>2019-11-08T11:49:11Z</time>
      </trkpt>
      <trkpt lat="46.51384" lon="-1.81191">
        <ele>17.407</ele>
        <time>2019-11-08T11:49:41Z</time>
      </trkpt>
      <trkpt lat="46.51482" lon="-1.81021">
        <ele>21.32</ele>
        <time>2019-11-08T11:50:14Z</time>
      </trkpt>
      <trkpt lat="46.51597" lon="-1.80995">
        <ele>19.925</ele>
        <time>2019-11-08T11:50:44.001Z</time>
      </trkpt>
      <trkpt lat="46.51705" lon="-1.80959">
        <ele>22.126</ele>
        <time>2019-11-08T11:51:14.001Z</time>
      </trkpt>
      <trkpt lat="46.51763" lon="-1.80987">
        <ele>22.706</ele>
        <time>2019-11-08T11:51:44.001Z</time>
      </trkpt>
      <trkpt lat="46.51825" lon="-1.81129">
        <ele>21.206</ele>
        <time>2019-11-08T11:52:17.001Z</time>
      </trkpt>
      <trkpt lat="46.51878" lon="-1.81248">
        <ele>30.511</ele>
        <time>2019-11-08T11:52:47.001Z</time>
      </trkpt>
      <trkpt lat="46.51991" lon="-1.81296">
        <ele>23.322</ele>
        <time>2019-11-08T11:53:17.001Z</time>
      </trkpt>
      <trkpt lat="46.52088" lon="-1.81252">
        <ele>22.148</ele>
        <time>2019-11-08T11:53:50.001Z</time>
      </trkpt>
      <trkpt lat="46.52177" lon="-1.81288">
        <ele>13.674</ele>
        <time>2019-11-08T11:54:20.001Z</time>
      </trkpt>
      <trkpt lat="46.52311" lon="-1.81341">
        <ele>16.593</ele>
        <time>2019-11-08T11:54:50.001Z</time>
      </trkpt>
      <trkpt lat="46.52388" lon="-1.81248">
        <ele>17.858</ele>
        <time>2019-11-08T11:55:23.001Z</time>
      </trkpt>
      <trkpt lat="46.52424" lon="-1.81018">
        <ele>11.54</ele>
        <time>2019-11-08T11:55:53.001Z</time>
      </trkpt>
      <trkpt lat="46.52429" lon="-1.80861">
        <ele>3.379</ele>
        <time>2019-11-08T11:56:23.001Z</time>
      </trkpt>
      <trkpt lat="46.52497" lon="-1.80772">
        <ele>3.738</ele>
        <time>2019-11-08T11:56:56.001Z</time>
      </trkpt>
      <trkpt lat="46.52549" lon="-1.80685">
        <ele>5.287</ele>
        <time>2019-11-08T11:57:26.001Z</time>
      </trkpt>
      <trkpt lat="46.52679" lon="-1.80676">
        <ele>7.396</ele>
        <time>2019-11-08T11:57:56.001Z</time>
      </trkpt>
      <trkpt lat="46.52791" lon="-1.80624">
        <ele>7.66</ele>
        <time>2019-11-08T11:58:29.001Z</time>
      </trkpt>
      <trkpt lat="46.52807" lon="-1.80743">
        <ele>4.801</ele>
        <time>2019-11-08T11:59:02Z</time>
      </trkpt>
      <trkpt lat="46.52884" lon="-1.80817">
        <ele>5.351</ele>
        <time>2019-11-08T11:59:32.001Z</time>
      </trkpt>
      <trkpt lat="46.52946" lon="-1.80884">
        <ele>10.786</ele>
        <time>2019-11-08T12:00:02Z</time>
      </trkpt>
      <trkpt lat="46.53073" lon="-1.80846">
        <ele>10.744</ele>
        <time>2019-11-08T12:00:35.001Z</time>
      </trkpt>
      <trkpt lat="46.53199" lon="-1.80756">
        <ele>3.809</ele>
        <time>2019-11-08T12:01:05.001Z</time>
      </trkpt>
      <trkpt lat="46.53309" lon="-1.80678">
        <ele>3.214</ele>
        <time>2019-11-08T12:01:35.001Z</time>
      </trkpt>
      <trkpt lat="46.53421" lon="-1.80599">
        <ele>6.698</ele>
        <time>2019-11-08T12:02:08.001Z</time>
      </trkpt>
      <trkpt lat="46.53504" lon="-1.80584">
        <ele>5.856</ele>
        <time>2019-11-08T12:02:41.001Z</time>
      </trkpt>
      <trkpt lat="46.53614" lon="-1.80494">
        <ele>3.745</ele>
        <time>2019-11-08T12:03:11.001Z</time>
      </trkpt>
      <trkpt lat="46.53747" lon="-1.80432">
        <ele>4.304</ele>
        <time>2019-11-08T12:03:44.001Z</time>
      </trkpt>
      <trkpt lat="46.53863" lon="-1.80366">
        <ele>4.975</ele>
        <time>2019-11-08T12:04:14.001Z</time>
      </trkpt>
      <trkpt lat="46.53963" lon="-1.80281">
        <ele>5.115</ele>
        <time>2019-11-08T12:04:44.001Z</time>
      </trkpt>
      <trkpt lat="46.54048" lon="-1.80185">
        <ele>8.667</ele>
        <time>2019-11-08T12:05:17.001Z</time>
      </trkpt>
      <trkpt lat="46.54175" lon="-1.80203">
        <ele>8.206</ele>
        <time>2019-11-08T12:05:47.001Z</time>
      </trkpt>
      <trkpt lat="46.54295" lon="-1.80184">
        <ele>5.904</ele>
        <time>2019-11-08T12:06:17.001Z</time>
      </trkpt>
      <trkpt lat="46.54297" lon="-1.8033">
        <ele>6.536</ele>
        <time>2019-11-08T12:06:50.001Z</time>
      </trkpt>
      <trkpt lat="46.54335" lon="-1.8048">
        <ele>5.331</ele>
        <time>2019-11-08T12:07:20.001Z</time>
      </trkpt>
      <trkpt lat="46.54364" lon="-1.80642">
        <ele>6.954</ele>
        <time>2019-11-08T12:07:50.001Z</time>
      </trkpt>
      <trkpt lat="46.54353" lon="-1.80812">
        <ele>2.85</ele>
        <time>2019-11-08T12:08:20.001Z</time>
      </trkpt>
      <trkpt lat="46.54389" lon="-1.80978">
        <ele>5.54</ele>
        <time>2019-11-08T12:08:53.001Z</time>
      </trkpt>
      <trkpt lat="46.5446" lon="-1.81016">
        <ele>12.32</ele>
        <time>2019-11-08T12:09:23.001Z</time>
      </trkpt>
      <trkpt lat="46.54556" lon="-1.81014">
        <ele>12.029</ele>
        <time>2019-11-08T12:09:53.001Z</time>
      </trkpt>
      <trkpt lat="46.54662" lon="-1.81085">
        <ele>14.056</ele>
        <time>2019-11-08T12:10:26.001Z</time>
      </trkpt>
      <trkpt lat="46.54747" lon="-1.81047">
        <ele>11.157</ele>
        <time>2019-11-08T12:10:56.001Z</time>
      </trkpt>
      <trkpt lat="46.54809" lon="-1.80919">
        <ele>10.403</ele>
        <time>2019-11-08T12:11:26.001Z</time>
      </trkpt>
      <trkpt lat="46.54916" lon="-1.80972">
        <ele>8.962</ele>
        <time>2019-11-08T12:11:59.001Z</time>
      </trkpt>
      <trkpt lat="46.5502" lon="-1.80996">
        <ele>13.117</ele>
        <time>2019-11-08T12:12:29.001Z</time>
      </trkpt>
      <trkpt lat="46.55136" lon="-1.81089">
        <ele>8.102</ele>
        <time>2019-11-08T12:12:59.001Z</time>
      </trkpt>
      <trkpt lat="46.55235" lon="-1.81183">
        <ele>10.457</ele>
        <time>2019-11-08T12:13:32.001Z</time>
      </trkpt>
      <trkpt lat="46.55294" lon="-1.81228">
        <ele>10.57</ele>
        <time>2019-11-08T12:14:08.001Z</time>
      </trkpt>
      <trkpt lat="46.55336" lon="-1.81343">
        <ele>8.354</ele>
        <time>2019-11-08T12:14:38.001Z</time>
      </trkpt>
      <trkpt lat="46.55413" lon="-1.81463">
        <ele>10.945</ele>
        <time>2019-11-08T12:15:11.001Z</time>
      </trkpt>
      <trkpt lat="46.55478" lon="-1.81609">
        <ele>8.873</ele>
        <time>2019-11-08T12:15:41.001Z</time>
      </trkpt>
      <trkpt lat="46.5554" lon="-1.8158">
        <ele>13.46</ele>
        <time>2019-11-08T12:16:11.001Z</time>
      </trkpt>
      <trkpt lat="46.55604" lon="-1.81456">
        <ele>18.767</ele>
        <time>2019-11-08T12:16:41.001Z</time>
      </trkpt>
      <trkpt lat="46.55595" lon="-1.81288">
        <ele>17.434</ele>
        <time>2019-11-08T12:17:14.001Z</time>
      </trkpt>
      <trkpt lat="46.55638" lon="-1.81149">
        <ele>8.396</ele>
        <time>2019-11-08T12:17:44.001Z</time>
      </trkpt>
      <trkpt lat="46.55656" lon="-1.81072">
        <ele>10.078</ele>
        <time>2019-11-08T12:18:35.001Z</time>
      </trkpt>
      <trkpt lat="46.55745" lon="-1.80922">
        <ele>11.522</ele>
        <time>2019-11-08T12:19:08.001Z</time>
      </trkpt>
      <trkpt lat="46.55868" lon="-1.80876">
        <ele>10.046</ele>
        <time>2019-11-08T12:19:38.001Z</time>
      </trkpt>
      <trkpt lat="46.55971" lon="-1.8094">
        <ele>10.391</ele>
        <time>2019-11-08T12:20:08.001Z</time>
      </trkpt>
      <trkpt lat="46.561" lon="-1.81057">
        <ele>7.89</ele>
        <time>2019-11-08T12:20:41.001Z</time>
      </trkpt>
      <trkpt lat="46.56217" lon="-1.80999">
        <ele>6.89</ele>
        <time>2019-11-08T12:21:11.001Z</time>
      </trkpt>
      <trkpt lat="46.56341" lon="-1.81019">
        <ele>8.123</ele>
        <time>2019-11-08T12:21:41.001Z</time>
      </trkpt>
      <trkpt lat="46.56414" lon="-1.81181">
        <ele>13.154</ele>
        <time>2019-11-08T12:22:14.001Z</time>
      </trkpt>
      <trkpt lat="46.56496" lon="-1.81297">
        <ele>20.605</ele>
        <time>2019-11-08T12:22:44.001Z</time>
      </trkpt>
      <trkpt lat="46.56596" lon="-1.81412">
        <ele>20.196</ele>
        <time>2019-11-08T12:23:14.001Z</time>
      </trkpt>
      <trkpt lat="46.56657" lon="-1.81585">
        <ele>15.799</ele>
        <time>2019-11-08T12:23:47.001Z</time>
      </trkpt>
      <trkpt lat="46.56711" lon="-1.8169">
        <ele>24.592</ele>
        <time>2019-11-08T12:24:17.001Z</time>
      </trkpt>
      <trkpt lat="46.56784" lon="-1.81818">
        <ele>33.169</ele>
        <time>2019-11-08T12:24:47.001Z</time>
      </trkpt>
      <trkpt lat="46.56824" lon="-1.81958">
        <ele>42.41</ele>
        <time>2019-11-08T12:25:17.001Z</time>
      </trkpt>
      <trkpt lat="46.56936" lon="-1.81976">
        <ele>13.511</ele>
        <time>2019-11-08T12:25:50.001Z</time>
      </trkpt>
      <trkpt lat="46.5703" lon="-1.8186">
        <ele>5.326</ele>
        <time>2019-11-08T12:26:20.001Z</time>
      </trkpt>
      <trkpt lat="46.57133" lon="-1.81888">
        <ele>5.431</ele>
        <time>2019-11-08T12:26:50.001Z</time>
      </trkpt>
      <trkpt lat="46.57211" lon="-1.82066">
        <ele>7.312</ele>
        <time>2019-11-08T12:27:23.001Z</time>
      </trkpt>
      <trkpt lat="46.57319" lon="-1.82109">
        <ele>11.861</ele>
        <time>2019-11-08T12:27:53.001Z</time>
      </trkpt>
      <trkpt lat="46.57429" lon="-1.82164">
        <ele>7.112</ele>
        <time>2019-11-08T12:28:23.001Z</time>
      </trkpt>
      <trkpt lat="46.57567" lon="-1.82235">
        <ele>12.755</ele>
        <time>2019-11-08T12:28:56.001Z</time>
      </trkpt>
      <trkpt lat="46.57628" lon="-1.82311">
        <ele>13.034</ele>
        <time>2019-11-08T12:29:26.001Z</time>
      </trkpt>
      <trkpt lat="46.57631" lon="-1.82419">
        <ele>13.698</ele>
        <time>2019-11-08T12:29:56.001Z</time>
      </trkpt>
      <trkpt lat="46.57708" lon="-1.82508">
        <ele>15.436</ele>
        <time>2019-11-08T12:30:29.001Z</time>
      </trkpt>
      <trkpt lat="46.5778" lon="-1.82657">
        <ele>11.091</ele>
        <time>2019-11-08T12:30:59.001Z</time>
      </trkpt>
      <trkpt lat="46.57814" lon="-1.82814">
        <ele>10.547</ele>
        <time>2019-11-08T12:31:29.001Z</time>
      </trkpt>
      <trkpt lat="46.57842" lon="-1.83037">
        <ele>4.88</ele>
        <time>2019-11-08T12:32:02Z</time>
      </trkpt>
      <trkpt lat="46.57888" lon="-1.83205">
        <ele>10.569</ele>
        <time>2019-11-08T12:32:32.001Z</time>
      </trkpt>
      <trkpt lat="46.57952" lon="-1.83362">
        <ele>15.885</ele>
        <time>2019-11-08T12:33:02Z</time>
      </trkpt>
      <trkpt lat="46.58001" lon="-1.83459">
        <ele>17.869</ele>
        <time>2019-11-08T12:33:32.001Z</time>
      </trkpt>
      <trkpt lat="46.58058" lon="-1.83667">
        <ele>17.73</ele>
        <time>2019-11-08T12:34:05.001Z</time>
      </trkpt>
      <trkpt lat="46.58179" lon="-1.83717">
        <ele>8.06</ele>
        <time>2019-11-08T12:34:35.001Z</time>
      </trkpt>
      <trkpt lat="46.58304" lon="-1.8376">
        <ele>10.022</ele>
        <time>2019-11-08T12:35:05.001Z</time>
      </trkpt>
      <trkpt lat="46.58414" lon="-1.83872">
        <ele>6.79</ele>
        <time>2019-11-08T12:35:38.001Z</time>
      </trkpt>
      <trkpt lat="46.58562" lon="-1.83944">
        <ele>5.194</ele>
        <time>2019-11-08T12:36:08.001Z</time>
      </trkpt>
      <trkpt lat="46.58689" lon="-1.83895">
        <ele>10.557</ele>
        <time>2019-11-08T12:36:38.001Z</time>
      </trkpt>
      <trkpt lat="46.58859" lon="-1.83825">
        <ele>12.573</ele>
        <time>2019-11-08T12:37:11.001Z</time>
      </trkpt>
      <trkpt lat="46.58988" lon="-1.83772">
        <ele>5.857</ele>
        <time>2019-11-08T12:37:41.001Z</time>
      </trkpt>
      <trkpt lat="46.59097" lon="-1.83643">
        <ele>6.912</ele>
        <time>2019-11-08T12:38:11.001Z</time>
      </trkpt>
      <trkpt lat="46.59215" lon="-1.83513">
        <ele>6.247</ele>
        <time>2019-11-08T12:38:44.001Z</time>
      </trkpt>
      <trkpt lat="46.59274" lon="-1.83353">
        <ele>7.045</ele>
        <time>2019-11-08T12:39:14.001Z</time>
      </trkpt>
      <trkpt lat="46.59368" lon="-1.83347">
        <ele>7.407</ele>
        <time>2019-11-08T12:39:44.001Z</time>
      </trkpt>
      <trkpt lat="46.5947" lon="-1.83354">
        <ele>8.315</ele>
        <time>2019-11-08T12:40:17.001Z</time>
      </trkpt>
      <trkpt lat="46.59567" lon="-1.83292">
        <ele>8.938</ele>
        <time>2019-11-08T12:40:47.001Z</time>
      </trkpt>
      <trkpt lat="46.59558" lon="-1.8348">
        <ele>8.899</ele>
        <time>2019-11-08T12:41:17.001Z</time>
      </trkpt>
      <trkpt lat="46.59599" lon="-1.83627">
        <ele>9.066</ele>
        <time>2019-11-08T12:41:47.001Z</time>
      </trkpt>
      <trkpt lat="46.59729" lon="-1.83594">
        <ele>6.317</ele>
        <time>2019-11-08T12:42:20.001Z</time>
      </trkpt>
      <trkpt lat="46.59841" lon="-1.83565">
        <ele>5.455</ele>
        <time>2019-11-08T12:42:50.001Z</time>
      </trkpt>
      <trkpt lat="46.59948" lon="-1.83582">
        <ele>10.291</ele>
        <time>2019-11-08T12:43:20.001Z</time>
      </trkpt>
      <trkpt lat="46.60058" lon="-1.83578">
        <ele>8.399</ele>
        <time>2019-11-08T12:43:53.001Z</time>
      </trkpt>
      <trkpt lat="46.60152" lon="-1.83642">
        <ele>11.912</ele>
        <time>2019-11-08T12:44:23.001Z</time>
      </trkpt>
      <trkpt lat="46.60257" lon="-1.83759">
        <ele>13.071</ele>
        <time>2019-11-08T12:44:53.001Z</time>
      </trkpt>
      <trkpt lat="46.60327" lon="-1.83956">
        <ele>6.09</ele>
        <time>2019-11-08T12:45:26.001Z</time>
      </trkpt>
      <trkpt lat="46.60417" lon="-1.84043">
        <ele>11.788</ele>
        <time>2019-11-08T12:45:56.001Z</time>
      </trkpt>
      <trkpt lat="46.60393" lon="-1.8424">
        <ele>10.446</ele>
        <time>2019-11-08T12:46:26.001Z</time>
      </trkpt>
      <trkpt lat="46.60352" lon="-1.84495">
        <ele>5.808</ele>
        <time>2019-11-08T12:46:59.001Z</time>
      </trkpt>
      <trkpt lat="46.60324" lon="-1.84697">
        <ele>4.747</ele>
        <time>2019-11-08T12:47:29.001Z</time>
      </trkpt>
      <trkpt lat="46.60289" lon="-1.84877">
        <ele>4.116</ele>
        <time>2019-11-08T12:47:59.001Z</time>
      </trkpt>
      <trkpt lat="46.60282" lon="-1.8502">
        <ele>7.216</ele>
        <time>2019-11-08T12:48:38.001Z</time>
      </trkpt>
      <trkpt lat="46.60345" lon="-1.85052">
        <ele>9.34</ele>
        <time>2019-11-08T12:52:11.001Z</time>
      </trkpt>
      <trkpt lat="46.60435" lon="-1.85088">
        <ele>13.119</ele>
        <time>2019-11-08T12:52:41.001Z</time>
      </trkpt>
      <trkpt lat="46.60557" lon="-1.85151">
        <ele>12.911</ele>
        <time>2019-11-08T12:53:11.001Z</time>
      </trkpt>
      <trkpt lat="46.60679" lon="-1.85209">
        <ele>14.066</ele>
        <time>2019-11-08T12:53:44.001Z</time>
      </trkpt>
      <trkpt lat="46.60758" lon="-1.85246">
        <ele>14.046</ele>
        <time>2019-11-08T12:54:14.001Z</time>
      </trkpt>
      <trkpt lat="46.60824" lon="-1.85302">
        <ele>14.396</ele>
        <time>2019-11-08T12:54:44.001Z</time>
      </trkpt>
      <trkpt lat="46.6093" lon="-1.85386">
        <ele>14.626</ele>
        <time>2019-11-08T12:55:17.001Z</time>
      </trkpt>
      <trkpt lat="46.61034" lon="-1.85438">
        <ele>16.295</ele>
        <time>2019-11-08T12:55:47.001Z</time>
      </trkpt>
      <trkpt lat="46.61127" lon="-1.85506">
        <ele>17.606</ele>
        <time>2019-11-08T12:56:17.001Z</time>
      </trkpt>
      <trkpt lat="46.61194" lon="-1.85674">
        <ele>13.523</ele>
        <time>2019-11-08T12:56:50.001Z</time>
      </trkpt>
      <trkpt lat="46.61247" lon="-1.8589">
        <ele>10.677</ele>
        <time>2019-11-08T12:57:20.001Z</time>
      </trkpt>
      <trkpt lat="46.61294" lon="-1.86043">
        <ele>8.202</ele>
        <time>2019-11-08T12:57:50.001Z</time>
      </trkpt>
      <trkpt lat="46.61328" lon="-1.86064">
        <ele>7.69</ele>
        <time>2019-11-08T12:59:14.001Z</time>
      </trkpt>
      <trkpt lat="46.61364" lon="-1.86014">
        <ele>11.014</ele>
        <time>2019-11-08T13:02:38.001Z</time>
      </trkpt>
      <trkpt lat="46.61408" lon="-1.85895">
        <ele>16.694</ele>
        <time>2019-11-08T13:03:08.001Z</time>
      </trkpt>
      <trkpt lat="46.61444" lon="-1.85985">
        <ele>11.685</ele>
        <time>2019-11-08T13:03:41.001Z</time>
      </trkpt>
      <trkpt lat="46.61466" lon="-1.86126">
        <ele>10.051</ele>
        <time>2019-11-08T13:04:11.001Z</time>
      </trkpt>
      <trkpt lat="46.61519" lon="-1.86155">
        <ele>12.838</ele>
        <time>2019-11-08T13:04:44.001Z</time>
      </trkpt>
      <trkpt lat="46.6161" lon="-1.86233">
        <ele>17.647</ele>
        <time>2019-11-08T13:05:14.001Z</time>
      </trkpt>
      <trkpt lat="46.61589" lon="-1.86405">
        <ele>16.73</ele>
        <time>2019-11-08T13:05:47.001Z</time>
      </trkpt>
      <trkpt lat="46.61613" lon="-1.86552">
        <ele>10.711</ele>
        <time>2019-11-08T13:06:17.001Z</time>
      </trkpt>
      <trkpt lat="46.61631" lon="-1.86751">
        <ele>8.583</ele>
        <time>2019-11-08T13:06:47.001Z</time>
      </trkpt>
      <trkpt lat="46.61675" lon="-1.86933">
        <ele>10.44</ele>
        <time>2019-11-08T13:07:20.001Z</time>
      </trkpt>
      <trkpt lat="46.61757" lon="-1.87051">
        <ele>11.987</ele>
        <time>2019-11-08T13:07:50.001Z</time>
      </trkpt>
      <trkpt lat="46.61859" lon="-1.87141">
        <ele>13.675</ele>
        <time>2019-11-08T13:08:20.001Z</time>
      </trkpt>
      <trkpt lat="46.6196" lon="-1.87201">
        <ele>17.547</ele>
        <time>2019-11-08T13:08:53.001Z</time>
      </trkpt>
      <trkpt lat="46.62075" lon="-1.87239">
        <ele>19.404</ele>
        <time>2019-11-08T13:09:23.001Z</time>
      </trkpt>
      <trkpt lat="46.62205" lon="-1.8725">
        <ele>19.532</ele>
        <time>2019-11-08T13:09:53.001Z</time>
      </trkpt>
      <trkpt lat="46.62319" lon="-1.87324">
        <ele>16.326</ele>
        <time>2019-11-08T13:10:26.001Z</time>
      </trkpt>
      <trkpt lat="46.62444" lon="-1.87371">
        <ele>23.512</ele>
        <time>2019-11-08T13:10:56.001Z</time>
      </trkpt>
      <trkpt lat="46.62592" lon="-1.87372">
        <ele>27.479</ele>
        <time>2019-11-08T13:11:26.001Z</time>
      </trkpt>
      <trkpt lat="46.62674" lon="-1.87376">
        <ele>26.824</ele>
        <time>2019-11-08T13:12:02Z</time>
      </trkpt>
      <trkpt lat="46.62708" lon="-1.8742">
        <ele>27.651</ele>
        <time>2019-11-08T13:16:14.001Z</time>
      </trkpt>
      <trkpt lat="46.62789" lon="-1.87474">
        <ele>30.778</ele>
        <time>2019-11-08T13:16:44.001Z</time>
      </trkpt>
      <trkpt lat="46.62872" lon="-1.87557">
        <ele>30.274</ele>
        <time>2019-11-08T13:17:14.001Z</time>
      </trkpt>
      <trkpt lat="46.62922" lon="-1.87699">
        <ele>18.604</ele>
        <time>2019-11-08T13:17:47.001Z</time>
      </trkpt>
      <trkpt lat="46.62984" lon="-1.87769">
        <ele>23.494</ele>
        <time>2019-11-08T13:18:17.001Z</time>
      </trkpt>
      <trkpt lat="46.63021" lon="-1.87912">
        <ele>23.572</ele>
        <time>2019-11-08T13:18:47.001Z</time>
      </trkpt>
      <trkpt lat="46.6309" lon="-1.88044">
        <ele>16.744</ele>
        <time>2019-11-08T13:19:20.001Z</time>
      </trkpt>
      <trkpt lat="46.63166" lon="-1.88235">
        <ele>12.274</ele>
        <time>2019-11-08T13:19:50.001Z</time>
      </trkpt>
      <trkpt lat="46.6317" lon="-1.88416">
        <ele>12.708</ele>
        <time>2019-11-08T13:20:20.001Z</time>
      </trkpt>
      <trkpt lat="46.63265" lon="-1.8858">
        <ele>11.406</ele>
        <time>2019-11-08T13:20:53.001Z</time>
      </trkpt>
      <trkpt lat="46.63343" lon="-1.88704">
        <ele>13.084</ele>
        <time>2019-11-08T13:21:23.001Z</time>
      </trkpt>
      <trkpt lat="46.63424" lon="-1.88808">
        <ele>14.053</ele>
        <time>2019-11-08T13:21:53.001Z</time>
      </trkpt>
      <trkpt lat="46.63496" lon="-1.88983">
        <ele>11.974</ele>
        <time>2019-11-08T13:22:26.001Z</time>
      </trkpt>
      <trkpt lat="46.63583" lon="-1.89103">
        <ele>11.7</ele>
        <time>2019-11-08T13:22:56.001Z</time>
      </trkpt>
      <trkpt lat="46.63656" lon="-1.89174">
        <ele>18.395</ele>
        <time>2019-11-08T13:23:26.001Z</time>
      </trkpt>
      <trkpt lat="46.63748" lon="-1.89216">
        <ele>17.12</ele>
        <time>2019-11-08T13:25:02Z</time>
      </trkpt>
      <trkpt lat="46.63834" lon="-1.89327">
        <ele>18.03</ele>
        <time>2019-11-08T13:25:32.001Z</time>
      </trkpt>
      <trkpt lat="46.63944" lon="-1.8944">
        <ele>18.565</ele>
        <time>2019-11-08T13:26:02Z</time>
      </trkpt>
      <trkpt lat="46.64039" lon="-1.89425">
        <ele>25.65</ele>
        <time>2019-11-08T13:26:38.001Z</time>
      </trkpt>
      <trkpt lat="46.64117" lon="-1.89426">
        <ele>28.273</ele>
        <time>2019-11-08T13:27:11.001Z</time>
      </trkpt>
      <trkpt lat="46.64193" lon="-1.89448">
        <ele>30.462</ele>
        <time>2019-11-08T13:27:41.001Z</time>
      </trkpt>
      <trkpt lat="46.64274" lon="-1.89474">
        <ele>31.366</ele>
        <time>2019-11-08T13:28:11.001Z</time>
      </trkpt>
      <trkpt lat="46.64323" lon="-1.89364">
        <ele>29.586</ele>
        <time>2019-11-08T13:28:44.001Z</time>
      </trkpt>
      <trkpt lat="46.64425" lon="-1.89374">
        <ele>32.475</ele>
        <time>2019-11-08T13:29:14.001Z</time>
      </trkpt>
      <trkpt lat="46.64536" lon="-1.89349">
        <ele>43.59</ele>
        <time>2019-11-08T13:29:44.001Z</time>
      </trkpt>
      <trkpt lat="46.64646" lon="-1.89395">
        <ele>36.231</ele>
        <time>2019-11-08T13:30:17.001Z</time>
      </trkpt>
      <trkpt lat="46.64776" lon="-1.89439">
        <ele>28.051</ele>
        <time>2019-11-08T13:30:47.001Z</time>
      </trkpt>
      <trkpt lat="46.64878" lon="-1.89321">
        <ele>28.394</ele>
        <time>2019-11-08T13:31:17.001Z</time>
      </trkpt>
      <trkpt lat="46.64961" lon="-1.89477">
        <ele>25.428</ele>
        <time>2019-11-08T13:31:50.001Z</time>
      </trkpt>
      <trkpt lat="46.65049" lon="-1.89669">
        <ele>15.987</ele>
        <time>2019-11-08T13:32:20.001Z</time>
      </trkpt>
      <trkpt lat="46.65129" lon="-1.89755">
        <ele>14.823</ele>
        <time>2019-11-08T13:32:50.001Z</time>
      </trkpt>
      <trkpt lat="46.65293" lon="-1.89755">
        <ele>9.144</ele>
        <time>2019-11-08T13:33:23.001Z</time>
      </trkpt>
      <trkpt lat="46.65415" lon="-1.89635">
        <ele>10.146</ele>
        <time>2019-11-08T13:33:53.001Z</time>
      </trkpt>
      <trkpt lat="46.6555" lon="-1.89675">
        <ele>14.277</ele>
        <time>2019-11-08T13:34:23.001Z</time>
      </trkpt>
      <trkpt lat="46.65682" lon="-1.89757">
        <ele>17.908</ele>
        <time>2019-11-08T13:34:53.001Z</time>
      </trkpt>
      <trkpt lat="46.65836" lon="-1.89859">
        <ele>20.616</ele>
        <time>2019-11-08T13:35:26.001Z</time>
      </trkpt>
      <trkpt lat="46.65969" lon="-1.8994">
        <ele>15.164</ele>
        <time>2019-11-08T13:35:56.001Z</time>
      </trkpt>
      <trkpt lat="46.66093" lon="-1.90065">
        <ele>10.844</ele>
        <time>2019-11-08T13:36:26.001Z</time>
      </trkpt>
      <trkpt lat="46.66093" lon="-1.90262">
        <ele>16.365</ele>
        <time>2019-11-08T13:36:59.001Z</time>
      </trkpt>
      <trkpt lat="46.661" lon="-1.90487">
        <ele>12.79</ele>
        <time>2019-11-08T13:37:29.001Z</time>
      </trkpt>
      <trkpt lat="46.66225" lon="-1.90608">
        <ele>12.282</ele>
        <time>2019-11-08T13:37:59.001Z</time>
      </trkpt>
      <trkpt lat="46.66389" lon="-1.90614">
        <ele>9.214</ele>
        <time>2019-11-08T13:38:32.001Z</time>
      </trkpt>
      <trkpt lat="46.66544" lon="-1.90601">
        <ele>11.253</ele>
        <time>2019-11-08T13:39:02Z</time>
      </trkpt>
      <trkpt lat="46.66673" lon="-1.90661">
        <ele>10.354</ele>
        <time>2019-11-08T13:39:32.001Z</time>
      </trkpt>
      <trkpt lat="46.66685" lon="-1.90916">
        <ele>4.382</ele>
        <time>2019-11-08T13:40:05.001Z</time>
      </trkpt>
      <trkpt lat="46.66697" lon="-1.91094">
        <ele>9.142</ele>
        <time>2019-11-08T13:40:35.001Z</time>
      </trkpt>
      <trkpt lat="46.66767" lon="-1.9095">
        <ele>10.49</ele>
        <time>2019-11-08T13:41:05.001Z</time>
      </trkpt>
      <trkpt lat="46.66913" lon="-1.90834">
        <ele>4.557</ele>
        <time>2019-11-08T13:41:38.001Z</time>
      </trkpt>
      <trkpt lat="46.67061" lon="-1.90844">
        <ele>9.185</ele>
        <time>2019-11-08T13:42:08.001Z</time>
      </trkpt>
      <trkpt lat="46.67157" lon="-1.90812">
        <ele>8.169</ele>
        <time>2019-11-08T13:42:38.001Z</time>
      </trkpt>
      <trkpt lat="46.67242" lon="-1.90955">
        <ele>0.515</ele>
        <time>2019-11-08T13:43:08.001Z</time>
      </trkpt>
      <trkpt lat="46.6734" lon="-1.91142">
        <ele>4</ele>
        <time>2019-11-08T13:43:41.001Z</time>
      </trkpt>
      <trkpt lat="46.67405" lon="-1.91297">
        <ele>4.9</ele>
        <time>2019-11-08T13:44:11.001Z</time>
      </trkpt>
      <trkpt lat="46.67469" lon="-1.91401">
        <ele>2.326</ele>
        <time>2019-11-08T13:44:41.001Z</time>
      </trkpt>
      <trkpt lat="46.67546" lon="-1.91549">
        <ele>6.611</ele>
        <time>2019-11-08T13:45:14.001Z</time>
      </trkpt>
      <trkpt lat="46.67613" lon="-1.91698">
        <ele>10.612</ele>
        <time>2019-11-08T13:45:44.001Z</time>
      </trkpt>
      <trkpt lat="46.67702" lon="-1.91863">
        <ele>5.879</ele>
        <time>2019-11-08T13:46:14.001Z</time>
      </trkpt>
      <trkpt lat="46.67796" lon="-1.9202">
        <ele>4.613</ele>
        <time>2019-11-08T13:46:47.001Z</time>
      </trkpt>
      <trkpt lat="46.67865" lon="-1.92193">
        <ele>3.78</ele>
        <time>2019-11-08T13:47:17.001Z</time>
      </trkpt>
      <trkpt lat="46.67968" lon="-1.92277">
        <ele>9.038</ele>
        <time>2019-11-08T13:47:47.001Z</time>
      </trkpt>
      <trkpt lat="46.68059" lon="-1.92392">
        <ele>12.168</ele>
        <time>2019-11-08T13:48:20.001Z</time>
      </trkpt>
      <trkpt lat="46.68122" lon="-1.92535">
        <ele>8.03</ele>
        <time>2019-11-08T13:48:50.001Z</time>
      </trkpt>
      <trkpt lat="46.68215" lon="-1.92686">
        <ele>6.982</ele>
        <time>2019-11-08T13:49:20.001Z</time>
      </trkpt>
      <trkpt lat="46.68315" lon="-1.92827">
        <ele>7.42</ele>
        <time>2019-11-08T13:49:53.001Z</time>
      </trkpt>
      <trkpt lat="46.6842" lon="-1.92973">
        <ele>8.494</ele>
        <time>2019-11-08T13:50:23.001Z</time>
      </trkpt>
      <trkpt lat="46.68524" lon="-1.93092">
        <ele>6.397</ele>
        <time>2019-11-08T13:50:53.001Z</time>
      </trkpt>
      <trkpt lat="46.68629" lon="-1.93188">
        <ele>9.677</ele>
        <time>2019-11-08T13:51:23.001Z</time>
      </trkpt>
      <trkpt lat="46.68759" lon="-1.93231">
        <ele>9.443</ele>
        <time>2019-11-08T13:51:56.001Z</time>
      </trkpt>
      <trkpt lat="46.68907" lon="-1.93181">
        <ele>8.322</ele>
        <time>2019-11-08T13:52:26.001Z</time>
      </trkpt>
      <trkpt lat="46.69033" lon="-1.9316">
        <ele>5.814</ele>
        <time>2019-11-08T13:52:56.001Z</time>
      </trkpt>
      <trkpt lat="46.69144" lon="-1.93275">
        <ele>5.561</ele>
        <time>2019-11-08T13:53:29.001Z</time>
      </trkpt>
      <trkpt lat="46.69225" lon="-1.9332">
        <ele>6.378</ele>
        <time>2019-11-08T13:53:59.001Z</time>
      </trkpt>
      <trkpt lat="46.69272" lon="-1.93355">
        <ele>6.801</ele>
        <time>2019-11-08T14:02:38.001Z</time>
      </trkpt>
      <trkpt lat="46.69273" lon="-1.93361">
        <ele>6.676</ele>
        <time>2019-11-08T14:05:44.001Z</time>
      </trkpt>
      <trkpt lat="46.69306" lon="-1.93323">
        <ele>3.8</ele>
        <time>2019-11-08T14:19:11.001Z</time>
      </trkpt>
      <trkpt lat="46.69395" lon="-1.93344">
        <ele>6.885</ele>
        <time>2019-11-08T14:19:41.001Z</time>
      </trkpt>
      <trkpt lat="46.69515" lon="-1.93379">
        <ele>17.482</ele>
        <time>2019-11-08T14:20:14.001Z</time>
      </trkpt>
      <trkpt lat="46.69606" lon="-1.93425">
        <ele>18.757</ele>
        <time>2019-11-08T14:20:44.001Z</time>
      </trkpt>
      <trkpt lat="46.69613" lon="-1.93499">
        <ele>26.069</ele>
        <time>2019-11-08T14:21:14.001Z</time>
      </trkpt>
      <trkpt lat="46.69506" lon="-1.93585">
        <ele>18.978</ele>
        <time>2019-11-08T14:21:47.001Z</time>
      </trkpt>
      <trkpt lat="46.69445" lon="-1.93712">
        <ele>12.111</ele>
        <time>2019-11-08T14:22:17.001Z</time>
      </trkpt>
      <trkpt lat="46.69517" lon="-1.9389">
        <ele>19.829</ele>
        <time>2019-11-08T14:22:47.001Z</time>
      </trkpt>
      <trkpt lat="46.69592" lon="-1.94045">
        <ele>24.641</ele>
        <time>2019-11-08T14:23:17.001Z</time>
      </trkpt>
      <trkpt lat="46.69666" lon="-1.94158">
        <ele>22.048</ele>
        <time>2019-11-08T14:23:50.001Z</time>
      </trkpt>
      <trkpt lat="46.69673" lon="-1.94188">
        <ele>25.604</ele>
        <time>2019-11-08T14:24:44.001Z</time>
      </trkpt>
      <trkpt lat="46.69695" lon="-1.94291">
        <ele>30.836</ele>
        <time>2019-11-08T14:38:17.001Z</time>
      </trkpt>
      <trkpt lat="46.69748" lon="-1.94473">
        <ele>48.67</ele>
        <time>2019-11-08T14:38:50.001Z</time>
      </trkpt>
      <trkpt lat="46.69801" lon="-1.94654">
        <ele>41.875</ele>
        <time>2019-11-08T14:39:20.001Z</time>
      </trkpt>
      <trkpt lat="46.69804" lon="-1.9477">
        <ele>36.548</ele>
        <time>2019-11-08T14:39:53.001Z</time>
      </trkpt>
      <trkpt lat="46.6973" lon="-1.94931">
        <ele>26.886</ele>
        <time>2019-11-08T14:40:26.001Z</time>
      </trkpt>
      <trkpt lat="46.69656" lon="-1.95055">
        <ele>19.616</ele>
        <time>2019-11-08T14:40:56.001Z</time>
      </trkpt>
      <trkpt lat="46.69598" lon="-1.95211">
        <ele>13.582</ele>
        <time>2019-11-08T14:41:26.001Z</time>
      </trkpt>
      <trkpt lat="46.6956" lon="-1.95421">
        <ele>9.005</ele>
        <time>2019-11-08T14:41:59.001Z</time>
      </trkpt>
      <trkpt lat="46.69499" lon="-1.95613">
        <ele>6.331</ele>
        <time>2019-11-08T14:42:29.001Z</time>
      </trkpt>
      <trkpt lat="46.69464" lon="-1.95826">
        <ele>4.354</ele>
        <time>2019-11-08T14:42:59.001Z</time>
      </trkpt>
      <trkpt lat="46.69387" lon="-1.96078">
        <ele>3.49</ele>
        <time>2019-11-08T14:43:32.001Z</time>
      </trkpt>
      <trkpt lat="46.69328" lon="-1.9617">
        <ele>11.311</ele>
        <time>2019-11-08T14:44:02Z</time>
      </trkpt>
      <trkpt lat="46.69325" lon="-1.96292">
        <ele>15.791</ele>
        <time>2019-11-08T14:44:32.001Z</time>
      </trkpt>
      <trkpt lat="46.69299" lon="-1.96453">
        <ele>10.022</ele>
        <time>2019-11-08T14:45:02Z</time>
      </trkpt>
      <trkpt lat="46.69325" lon="-1.96678">
        <ele>4.668</ele>
        <time>2019-11-08T14:45:35.001Z</time>
      </trkpt>
      <trkpt lat="46.69425" lon="-1.96815">
        <ele>1.852</ele>
        <time>2019-11-08T14:46:05.001Z</time>
      </trkpt>
      <trkpt lat="46.69557" lon="-1.96944">
        <ele>8.6</ele>
        <time>2019-11-08T14:46:35.001Z</time>
      </trkpt>
      <trkpt lat="46.69667" lon="-1.97058">
        <ele>3.85</ele>
        <time>2019-11-08T14:47:08.001Z</time>
      </trkpt>
      <trkpt lat="46.69756" lon="-1.97153">
        <ele>9.26</ele>
        <time>2019-11-08T14:47:38.001Z</time>
      </trkpt>
      <trkpt lat="46.69882" lon="-1.97254">
        <ele>6.218</ele>
        <time>2019-11-08T14:48:08.001Z</time>
      </trkpt>
      <trkpt lat="46.70016" lon="-1.97371">
        <ele>1.559</ele>
        <time>2019-11-08T14:48:41.001Z</time>
      </trkpt>
      <trkpt lat="46.70113" lon="-1.97502">
        <ele>3.564</ele>
        <time>2019-11-08T14:49:11.001Z</time>
      </trkpt>
      <trkpt lat="46.70191" lon="-1.97606">
        <ele>10.521</ele>
        <time>2019-11-08T14:49:41.001Z</time>
      </trkpt>
      <trkpt lat="46.70283" lon="-1.97714">
        <ele>11.436</ele>
        <time>2019-11-08T14:50:14.001Z</time>
      </trkpt>
      <trkpt lat="46.70387" lon="-1.97824">
        <ele>7.05</ele>
        <time>2019-11-08T14:50:44.001Z</time>
      </trkpt>
      <trkpt lat="46.70517" lon="-1.97922">
        <ele>5.653</ele>
        <time>2019-11-08T14:51:14.001Z</time>
      </trkpt>
      <trkpt lat="46.70682" lon="-1.97896">
        <ele>5.194</ele>
        <time>2019-11-08T14:51:47.001Z</time>
      </trkpt>
      <trkpt lat="46.70795" lon="-1.97917">
        <ele>9.774</ele>
        <time>2019-11-08T14:52:17.001Z</time>
      </trkpt>
      <trkpt lat="46.70884" lon="-1.97999">
        <ele>4.322</ele>
        <time>2019-11-08T14:52:47.001Z</time>
      </trkpt>
      <trkpt lat="46.70961" lon="-1.98054">
        <ele>9.223</ele>
        <time>2019-11-08T14:53:17.001Z</time>
      </trkpt>
      <trkpt lat="46.71088" lon="-1.98045">
        <ele>7.805</ele>
        <time>2019-11-08T14:53:50.001Z</time>
      </trkpt>
      <trkpt lat="46.7116" lon="-1.97974">
        <ele>5.241</ele>
        <time>2019-11-08T14:54:20.001Z</time>
      </trkpt>
      <trkpt lat="46.7123" lon="-1.97854">
        <ele>5.3</ele>
        <time>2019-11-08T14:54:50.001Z</time>
      </trkpt>
      <trkpt lat="46.71313" lon="-1.97733">
        <ele>8.3</ele>
        <time>2019-11-08T14:55:23.001Z</time>
      </trkpt>
      <trkpt lat="46.71384" lon="-1.97632">
        <ele>8.9</ele>
        <time>2019-11-08T14:55:53.001Z</time>
      </trkpt>
      <trkpt lat="46.71465" lon="-1.97515">
        <ele>10.6</ele>
        <time>2019-11-08T14:56:23.001Z</time>
      </trkpt>
      <trkpt lat="46.71567" lon="-1.97345">
        <ele>1.196</ele>
        <time>2019-11-08T14:56:56.001Z</time>
      </trkpt>
      <trkpt lat="46.71651" lon="-1.97194">
        <ele>2.088</ele>
        <time>2019-11-08T14:57:26.001Z</time>
      </trkpt>
      <trkpt lat="46.71721" lon="-1.971">
        <ele>9.079</ele>
        <time>2019-11-08T14:57:56.001Z</time>
      </trkpt>
      <trkpt lat="46.71802" lon="-1.96951">
        <ele>3.3</ele>
        <time>2019-11-08T14:58:29.001Z</time>
      </trkpt>
      <trkpt lat="46.71877" lon="-1.96899">
        <ele>1.644</ele>
        <time>2019-11-08T14:58:59.001Z</time>
      </trkpt>
      <trkpt lat="46.71969" lon="-1.97061">
        <ele>4.899</ele>
        <time>2019-11-08T14:59:29.001Z</time>
      </trkpt>
      <trkpt lat="46.72066" lon="-1.97254">
        <ele>6.171</ele>
        <time>2019-11-08T15:00:02Z</time>
      </trkpt>
      <trkpt lat="46.72158" lon="-1.97414">
        <ele>9.3</ele>
        <time>2019-11-08T15:00:32.001Z</time>
      </trkpt>
      <trkpt lat="46.72248" lon="-1.97575">
        <ele>11.9</ele>
        <time>2019-11-08T15:01:02Z</time>
      </trkpt>
      <trkpt lat="46.72333" lon="-1.97722">
        <ele>0.978</ele>
        <time>2019-11-08T15:01:32.001Z</time>
      </trkpt>
      <trkpt lat="46.72419" lon="-1.97872">
        <ele>4.271</ele>
        <time>2019-11-08T15:02:05.001Z</time>
      </trkpt>
      <trkpt lat="46.72517" lon="-1.9798">
        <ele>3.377</ele>
        <time>2019-11-08T15:02:35.001Z</time>
      </trkpt>
      <trkpt lat="46.72641" lon="-1.98065">
        <ele>2.623</ele>
        <time>2019-11-08T15:03:05.001Z</time>
      </trkpt>
      <trkpt lat="46.72783" lon="-1.98152">
        <ele>0.62</ele>
        <time>2019-11-08T15:03:38.001Z</time>
      </trkpt>
      <trkpt lat="46.72903" lon="-1.98205">
        <ele>3.958</ele>
        <time>2019-11-08T15:04:08.001Z</time>
      </trkpt>
      <trkpt lat="46.73023" lon="-1.98258">
        <ele>3.82</ele>
        <time>2019-11-08T15:04:38.001Z</time>
      </trkpt>
      <trkpt lat="46.73152" lon="-1.98312">
        <ele>7.478</ele>
        <time>2019-11-08T15:05:11.001Z</time>
      </trkpt>
      <trkpt lat="46.73269" lon="-1.98409">
        <ele>6.695</ele>
        <time>2019-11-08T15:05:41.001Z</time>
      </trkpt>
      <trkpt lat="46.73359" lon="-1.98516">
        <ele>3.448</ele>
        <time>2019-11-08T15:06:11.001Z</time>
      </trkpt>
      <trkpt lat="46.73374" lon="-1.987">
        <ele>6.389</ele>
        <time>2019-11-08T15:06:44.001Z</time>
      </trkpt>
      <trkpt lat="46.73477" lon="-1.98793">
        <ele>7.132</ele>
        <time>2019-11-08T15:07:14.001Z</time>
      </trkpt>
      <trkpt lat="46.73587" lon="-1.98899">
        <ele>3.835</ele>
        <time>2019-11-08T15:07:44.001Z</time>
      </trkpt>
      <trkpt lat="46.737" lon="-1.9901">
        <ele>5.032</ele>
        <time>2019-11-08T15:08:17.001Z</time>
      </trkpt>
      <trkpt lat="46.73828" lon="-1.9913">
        <ele>7.8</ele>
        <time>2019-11-08T15:08:47.001Z</time>
      </trkpt>
      <trkpt lat="46.73921" lon="-1.99222">
        <ele>1.943</ele>
        <time>2019-11-08T15:09:17.001Z</time>
      </trkpt>
      <trkpt lat="46.74023" lon="-1.99267">
        <ele>2.579</ele>
        <time>2019-11-08T15:09:47.001Z</time>
      </trkpt>
      <trkpt lat="46.74171" lon="-1.99283">
        <ele>4.938</ele>
        <time>2019-11-08T15:10:20.001Z</time>
      </trkpt>
      <trkpt lat="46.74212" lon="-1.99441">
        <ele>0.921</ele>
        <time>2019-11-08T15:10:50.001Z</time>
      </trkpt>
      <trkpt lat="46.74168" lon="-1.99624">
        <ele>1.33</ele>
        <time>2019-11-08T15:11:20.001Z</time>
      </trkpt>
      <trkpt lat="46.74142" lon="-1.99865">
        <ele>3.628</ele>
        <time>2019-11-08T15:11:53.001Z</time>
      </trkpt>
      <trkpt lat="46.74127" lon="-2.00094">
        <ele>0.6</ele>
        <time>2019-11-08T15:12:23.001Z</time>
      </trkpt>
      <trkpt lat="46.7408" lon="-2.00305">
        <ele>1.018</ele>
        <time>2019-11-08T15:12:53.001Z</time>
      </trkpt>
      <trkpt lat="46.74045" lon="-2.00504">
        <ele>4.5</ele>
        <time>2019-11-08T15:13:26.001Z</time>
      </trkpt>
      <trkpt lat="46.74035" lon="-2.00678">
        <ele>2.7</ele>
        <time>2019-11-08T15:13:56.001Z</time>
      </trkpt>
      <trkpt lat="46.74148" lon="-2.00715">
        <ele>1.156</ele>
        <time>2019-11-08T15:14:26.001Z</time>
      </trkpt>
      <trkpt lat="46.74286" lon="-2.00796">
        <ele>1.87</ele>
        <time>2019-11-08T15:14:59.001Z</time>
      </trkpt>
      <trkpt lat="46.74396" lon="-2.00908">
        <ele>2.8</ele>
        <time>2019-11-08T15:15:29.001Z</time>
      </trkpt>
      <trkpt lat="46.74513" lon="-2.01006">
        <ele>4.8</ele>
        <time>2019-11-08T15:15:59.001Z</time>
      </trkpt>
      <trkpt lat="46.74618" lon="-2.01133">
        <ele>1.498</ele>
        <time>2019-11-08T15:16:32.001Z</time>
      </trkpt>
      <trkpt lat="46.7473" lon="-2.01228">
        <ele>7.042</ele>
        <time>2019-11-08T15:17:02Z</time>
      </trkpt>
      <trkpt lat="46.74864" lon="-2.01305">
        <ele>5.466</ele>
        <time>2019-11-08T15:17:32.001Z</time>
      </trkpt>
      <trkpt lat="46.74998" lon="-2.01429">
        <ele>4.7</ele>
        <time>2019-11-08T15:18:02Z</time>
      </trkpt>
      <trkpt lat="46.751" lon="-2.01578">
        <ele>3.2</ele>
        <time>2019-11-08T15:18:35.001Z</time>
      </trkpt>
      <trkpt lat="46.75188" lon="-2.01717">
        <ele>1.46</ele>
        <time>2019-11-08T15:19:05.001Z</time>
      </trkpt>
      <trkpt lat="46.75283" lon="-2.01848">
        <ele>1.792</ele>
        <time>2019-11-08T15:19:35.001Z</time>
      </trkpt>
      <trkpt lat="46.75392" lon="-2.02013">
        <ele>1.518</ele>
        <time>2019-11-08T15:20:08.001Z</time>
      </trkpt>
      <trkpt lat="46.75486" lon="-2.0216">
        <ele>2.4</ele>
        <time>2019-11-08T15:20:38.001Z</time>
      </trkpt>
      <trkpt lat="46.75577" lon="-2.02293">
        <ele>0.253</ele>
        <time>2019-11-08T15:21:08.001Z</time>
      </trkpt>
      <trkpt lat="46.75693" lon="-2.02408">
        <ele>2.918</ele>
        <time>2019-11-08T15:21:41.001Z</time>
      </trkpt>
      <trkpt lat="46.75817" lon="-2.02473">
        <ele>3.746</ele>
        <time>2019-11-08T15:22:11.001Z</time>
      </trkpt>
      <trkpt lat="46.75945" lon="-2.02517">
        <ele>8.381</ele>
        <time>2019-11-08T15:22:41.001Z</time>
      </trkpt>
      <trkpt lat="46.76044" lon="-2.02643">
        <ele>11.057</ele>
        <time>2019-11-08T15:23:14.001Z</time>
      </trkpt>
      <trkpt lat="46.76182" lon="-2.02761">
        <ele>6.199</ele>
        <time>2019-11-08T15:23:44.001Z</time>
      </trkpt>
      <trkpt lat="46.76309" lon="-2.02882">
        <ele>2.994</ele>
        <time>2019-11-08T15:24:14.001Z</time>
      </trkpt>
      <trkpt lat="46.76378" lon="-2.03092">
        <ele>2.503</ele>
        <time>2019-11-08T15:24:47.001Z</time>
      </trkpt>
      <trkpt lat="46.76461" lon="-2.03285">
        <ele>2.526</ele>
        <time>2019-11-08T15:25:17.001Z</time>
      </trkpt>
      <trkpt lat="46.76542" lon="-2.03474">
        <ele>5.869</ele>
        <time>2019-11-08T15:25:47.001Z</time>
      </trkpt>
      <trkpt lat="46.7668" lon="-2.03578">
        <ele>5.679</ele>
        <time>2019-11-08T15:26:17.001Z</time>
      </trkpt>
      <trkpt lat="46.76814" lon="-2.03413">
        <ele>6.926</ele>
        <time>2019-11-08T15:26:50.001Z</time>
      </trkpt>
      <trkpt lat="46.76945" lon="-2.03247">
        <ele>3.2</ele>
        <time>2019-11-08T15:27:20.001Z</time>
      </trkpt>
      <trkpt lat="46.77061" lon="-2.0323">
        <ele>0.236</ele>
        <time>2019-11-08T15:27:50.001Z</time>
      </trkpt>
      <trkpt lat="46.77165" lon="-2.0343">
        <ele>3.1</ele>
        <time>2019-11-08T15:28:23.001Z</time>
      </trkpt>
      <trkpt lat="46.77267" lon="-2.03601">
        <ele>5.733</ele>
        <time>2019-11-08T15:28:53.001Z</time>
      </trkpt>
      <trkpt lat="46.77402" lon="-2.03718">
        <ele>6.763</ele>
        <time>2019-11-08T15:29:23.001Z</time>
      </trkpt>
      <trkpt lat="46.77558" lon="-2.03769">
        <ele>3.219</ele>
        <time>2019-11-08T15:29:56.001Z</time>
      </trkpt>
      <trkpt lat="46.77686" lon="-2.03816">
        <ele>2.006</ele>
        <time>2019-11-08T15:30:26.001Z</time>
      </trkpt>
      <trkpt lat="46.77803" lon="-2.03882">
        <ele>3.304</ele>
        <time>2019-11-08T15:30:56.001Z</time>
      </trkpt>
      <trkpt lat="46.77868" lon="-2.04009">
        <ele>2.29</ele>
        <time>2019-11-08T15:31:29.001Z</time>
      </trkpt>
      <trkpt lat="46.779" lon="-2.04185">
        <ele>0.156</ele>
        <time>2019-11-08T15:31:59.001Z</time>
      </trkpt>
      <trkpt lat="46.77915" lon="-2.04377">
        <ele>3</ele>
        <time>2019-11-08T15:32:29.001Z</time>
      </trkpt>
      <trkpt lat="46.77987" lon="-2.04521">
        <ele>4.996</ele>
        <time>2019-11-08T15:33:02Z</time>
      </trkpt>
      <trkpt lat="46.77937" lon="-2.04676">
        <ele>4.011</ele>
        <time>2019-11-08T15:33:32.001Z</time>
      </trkpt>
      <trkpt lat="46.77857" lon="-2.04855">
        <ele>4.475</ele>
        <time>2019-11-08T15:34:02Z</time>
      </trkpt>
      <trkpt lat="46.77808" lon="-2.05042">
        <ele>4.483</ele>
        <time>2019-11-08T15:34:32.001Z</time>
      </trkpt>
      <trkpt lat="46.7789" lon="-2.05181">
        <ele>6.714</ele>
        <time>2019-11-08T15:35:05.001Z</time>
      </trkpt>
      <trkpt lat="46.77928" lon="-2.05338">
        <ele>7.977</ele>
        <time>2019-11-08T15:35:35.001Z</time>
      </trkpt>
      <trkpt lat="46.77933" lon="-2.05485">
        <ele>8.682</ele>
        <time>2019-11-08T15:36:05.001Z</time>
      </trkpt>
      <trkpt lat="46.78055" lon="-2.05676">
        <ele>3.886</ele>
        <time>2019-11-08T15:36:38.001Z</time>
      </trkpt>
      <trkpt lat="46.78136" lon="-2.05876">
        <ele>4.64</ele>
        <time>2019-11-08T15:37:08.001Z</time>
      </trkpt>
      <trkpt lat="46.78224" lon="-2.06076">
        <ele>7.758</ele>
        <time>2019-11-08T15:37:38.001Z</time>
      </trkpt>
      <trkpt lat="46.78318" lon="-2.0629">
        <ele>1.427</ele>
        <time>2019-11-08T15:38:11.001Z</time>
      </trkpt>
      <trkpt lat="46.78395" lon="-2.06475">
        <ele>6.178</ele>
        <time>2019-11-08T15:38:41.001Z</time>
      </trkpt>
      <trkpt lat="46.78429" lon="-2.06636">
        <ele>8.433</ele>
        <time>2019-11-08T15:39:11.001Z</time>
      </trkpt>
      <trkpt lat="46.78333" lon="-2.06658">
        <ele>4.313</ele>
        <time>2019-11-08T15:39:44.001Z</time>
      </trkpt>
      <trkpt lat="46.78311" lon="-2.06676">
        <ele>7.89</ele>
        <time>2019-11-08T15:46:32.001Z</time>
      </trkpt>
      <trkpt lat="46.78301" lon="-2.06645">
        <ele>4.435</ele>
        <time>2019-11-08T15:47:17.001Z</time>
      </trkpt>
      <trkpt lat="46.78322" lon="-2.0663">
        <ele>5.32</ele>
        <time>2019-11-08T15:50:05.001Z</time>
      </trkpt>
      <trkpt lat="46.78326" lon="-2.06626">
        <ele>4.242</ele>
        <time>2019-11-08T15:51:20.001Z</time>
      </trkpt>
    </trkseg>
  </trk>
  <trk>
    <name><![CDATA[Tracé 20191109-084145]]></name>
    <trkseg>
      <trkpt lat="46.78328" lon="-2.06622">
        <ele>0.085</ele>
        <time>2019-11-09T07:42:21Z</time>
      </trkpt>
      <trkpt lat="46.78309" lon="-2.0664">
        <ele>6</ele>
        <time>2019-11-09T07:49:42Z</time>
      </trkpt>
      <trkpt lat="46.78298" lon="-2.06664">
        <ele>5.615</ele>
        <time>2019-11-09T07:50:27Z</time>
      </trkpt>
      <trkpt lat="46.78345" lon="-2.0666">
        <ele>7.633</ele>
        <time>2019-11-09T07:52:54Z</time>
      </trkpt>
      <trkpt lat="46.7847" lon="-2.06594">
        <ele>10.911</ele>
        <time>2019-11-09T07:53:27Z</time>
      </trkpt>
      <trkpt lat="46.78621" lon="-2.06504">
        <ele>16.781</ele>
        <time>2019-11-09T07:54:00Z</time>
      </trkpt>
      <trkpt lat="46.78767" lon="-2.06415">
        <ele>26.685</ele>
        <time>2019-11-09T07:54:33Z</time>
      </trkpt>
      <trkpt lat="46.78904" lon="-2.06324">
        <ele>22.825</ele>
        <time>2019-11-09T07:55:06Z</time>
      </trkpt>
      <trkpt lat="46.79034" lon="-2.06219">
        <ele>14.399</ele>
        <time>2019-11-09T07:55:39Z</time>
      </trkpt>
      <trkpt lat="46.79205" lon="-2.06112">
        <ele>15.82</ele>
        <time>2019-11-09T07:56:12Z</time>
      </trkpt>
      <trkpt lat="46.79336" lon="-2.06123">
        <ele>11.683</ele>
        <time>2019-11-09T07:56:45Z</time>
      </trkpt>
      <trkpt lat="46.79392" lon="-2.06375">
        <ele>4.168</ele>
        <time>2019-11-09T07:57:18Z</time>
      </trkpt>
      <trkpt lat="46.79459" lon="-2.06626">
        <ele>4.434</ele>
        <time>2019-11-09T07:57:51Z</time>
      </trkpt>
      <trkpt lat="46.79545" lon="-2.06823">
        <ele>8.413</ele>
        <time>2019-11-09T07:58:21Z</time>
      </trkpt>
      <trkpt lat="46.79701" lon="-2.06941">
        <ele>3.295</ele>
        <time>2019-11-09T07:58:54Z</time>
      </trkpt>
      <trkpt lat="46.79887" lon="-2.06834">
        <ele>7.615</ele>
        <time>2019-11-09T07:59:27Z</time>
      </trkpt>
      <trkpt lat="46.80065" lon="-2.06744">
        <ele>3.745</ele>
        <time>2019-11-09T08:00:00Z</time>
      </trkpt>
      <trkpt lat="46.80214" lon="-2.06683">
        <ele>4.643</ele>
        <time>2019-11-09T08:00:33Z</time>
      </trkpt>
      <trkpt lat="46.80406" lon="-2.06622">
        <ele>1.937</ele>
        <time>2019-11-09T08:01:06Z</time>
      </trkpt>
      <trkpt lat="46.80573" lon="-2.06512">
        <ele>3.672</ele>
        <time>2019-11-09T08:01:39Z</time>
      </trkpt>
      <trkpt lat="46.80735" lon="-2.06402">
        <ele>3.063</ele>
        <time>2019-11-09T08:02:12Z</time>
      </trkpt>
      <trkpt lat="46.8091" lon="-2.06329">
        <ele>2.6</ele>
        <time>2019-11-09T08:02:45Z</time>
      </trkpt>
      <trkpt lat="46.81094" lon="-2.06311">
        <ele>2.15</ele>
        <time>2019-11-09T08:03:18Z</time>
      </trkpt>
      <trkpt lat="46.81265" lon="-2.06313">
        <ele>3.726</ele>
        <time>2019-11-09T08:03:51Z</time>
      </trkpt>
      <trkpt lat="46.8145" lon="-2.06365">
        <ele>5.197</ele>
        <time>2019-11-09T08:04:24Z</time>
      </trkpt>
      <trkpt lat="46.81623" lon="-2.06405">
        <ele>2.09</ele>
        <time>2019-11-09T08:04:57Z</time>
      </trkpt>
      <trkpt lat="46.81785" lon="-2.06367">
        <ele>2.82</ele>
        <time>2019-11-09T08:05:27Z</time>
      </trkpt>
      <trkpt lat="46.81975" lon="-2.06323">
        <ele>1.408</ele>
        <time>2019-11-09T08:06:00Z</time>
      </trkpt>
      <trkpt lat="46.82161" lon="-2.06294">
        <ele>4.714</ele>
        <time>2019-11-09T08:06:33Z</time>
      </trkpt>
      <trkpt lat="46.82332" lon="-2.06205">
        <ele>2.688</ele>
        <time>2019-11-09T08:07:06Z</time>
      </trkpt>
      <trkpt lat="46.82496" lon="-2.06133">
        <ele>5.778</ele>
        <time>2019-11-09T08:07:39Z</time>
      </trkpt>
      <trkpt lat="46.82682" lon="-2.06145">
        <ele>7.2</ele>
        <time>2019-11-09T08:08:12Z</time>
      </trkpt>
      <trkpt lat="46.82872" lon="-2.06141">
        <ele>2.819</ele>
        <time>2019-11-09T08:08:45Z</time>
      </trkpt>
      <trkpt lat="46.8305" lon="-2.0611">
        <ele>4.24</ele>
        <time>2019-11-09T08:09:18Z</time>
      </trkpt>
      <trkpt lat="46.83223" lon="-2.0614">
        <ele>5.044</ele>
        <time>2019-11-09T08:09:51Z</time>
      </trkpt>
      <trkpt lat="46.83396" lon="-2.0622">
        <ele>2.769</ele>
        <time>2019-11-09T08:10:24Z</time>
      </trkpt>
      <trkpt lat="46.83578" lon="-2.06273">
        <ele>2.131</ele>
        <time>2019-11-09T08:10:57Z</time>
      </trkpt>
      <trkpt lat="46.83758" lon="-2.06237">
        <ele>1.784</ele>
        <time>2019-11-09T08:11:30Z</time>
      </trkpt>
      <trkpt lat="46.83923" lon="-2.06148">
        <ele>2.076</ele>
        <time>2019-11-09T08:12:03Z</time>
      </trkpt>
      <trkpt lat="46.84075" lon="-2.06068">
        <ele>2.747</ele>
        <time>2019-11-09T08:12:33Z</time>
      </trkpt>
      <trkpt lat="46.84251" lon="-2.06025">
        <ele>3.731</ele>
        <time>2019-11-09T08:13:06Z</time>
      </trkpt>
      <trkpt lat="46.84442" lon="-2.06046">
        <ele>1.976</ele>
        <time>2019-11-09T08:13:39Z</time>
      </trkpt>
      <trkpt lat="46.8463" lon="-2.06067">
        <ele>0.606</ele>
        <time>2019-11-09T08:14:12Z</time>
      </trkpt>
      <trkpt lat="46.84814" lon="-2.06088">
        <ele>2.22</ele>
        <time>2019-11-09T08:14:45Z</time>
      </trkpt>
      <trkpt lat="46.85" lon="-2.0613">
        <ele>2.624</ele>
        <time>2019-11-09T08:15:18Z</time>
      </trkpt>
      <trkpt lat="46.85182" lon="-2.06102">
        <ele>1.189</ele>
        <time>2019-11-09T08:15:51Z</time>
      </trkpt>
      <trkpt lat="46.85322" lon="-2.05961">
        <ele>5.458</ele>
        <time>2019-11-09T08:16:24Z</time>
      </trkpt>
      <trkpt lat="46.85498" lon="-2.05958">
        <ele>3.238</ele>
        <time>2019-11-09T08:16:57Z</time>
      </trkpt>
      <trkpt lat="46.85672" lon="-2.06059">
        <ele>3.309</ele>
        <time>2019-11-09T08:17:30Z</time>
      </trkpt>
      <trkpt lat="46.85844" lon="-2.06075">
        <ele>11.555</ele>
        <time>2019-11-09T08:18:03Z</time>
      </trkpt>
      <trkpt lat="46.86037" lon="-2.06104">
        <ele>8.312</ele>
        <time>2019-11-09T08:18:36Z</time>
      </trkpt>
      <trkpt lat="46.86205" lon="-2.06041">
        <ele>5.356</ele>
        <time>2019-11-09T08:19:09Z</time>
      </trkpt>
      <trkpt lat="46.86384" lon="-2.05983">
        <ele>1.193</ele>
        <time>2019-11-09T08:19:42Z</time>
      </trkpt>
      <trkpt lat="46.86556" lon="-2.06014">
        <ele>2.001</ele>
        <time>2019-11-09T08:20:12Z</time>
      </trkpt>
      <trkpt lat="46.8674" lon="-2.06018">
        <ele>1.596</ele>
        <time>2019-11-09T08:20:45Z</time>
      </trkpt>
      <trkpt lat="46.86921" lon="-2.06">
        <ele>2.319</ele>
        <time>2019-11-09T08:21:18Z</time>
      </trkpt>
      <trkpt lat="46.87102" lon="-2.05979">
        <ele>0.59</ele>
        <time>2019-11-09T08:21:51Z</time>
      </trkpt>
      <trkpt lat="46.87281" lon="-2.05942">
        <ele>1</ele>
        <time>2019-11-09T08:22:24Z</time>
      </trkpt>
      <trkpt lat="46.87463" lon="-2.05902">
        <ele>2.742</ele>
        <time>2019-11-09T08:22:57Z</time>
      </trkpt>
      <trkpt lat="46.87647" lon="-2.05859">
        <ele>3.01</ele>
        <time>2019-11-09T08:23:30Z</time>
      </trkpt>
      <trkpt lat="46.8783" lon="-2.05852">
        <ele>0.649</ele>
        <time>2019-11-09T08:24:03Z</time>
      </trkpt>
      <trkpt lat="46.88012" lon="-2.0589">
        <ele>1.205</ele>
        <time>2019-11-09T08:24:36Z</time>
      </trkpt>
      <trkpt lat="46.88197" lon="-2.05961">
        <ele>1.088</ele>
        <time>2019-11-09T08:25:09Z</time>
      </trkpt>
      <trkpt lat="46.88383" lon="-2.06011">
        <ele>3.189</ele>
        <time>2019-11-09T08:25:42Z</time>
      </trkpt>
      <trkpt lat="46.88572" lon="-2.06057">
        <ele>1.796</ele>
        <time>2019-11-09T08:26:15Z</time>
      </trkpt>
      <trkpt lat="46.88756" lon="-2.06102">
        <ele>1</ele>
        <time>2019-11-09T08:26:48Z</time>
      </trkpt>
      <trkpt lat="46.88913" lon="-2.06189">
        <ele>2.485</ele>
        <time>2019-11-09T08:27:18Z</time>
      </trkpt>
      <trkpt lat="46.89068" lon="-2.06331">
        <ele>3.297</ele>
        <time>2019-11-09T08:27:51Z</time>
      </trkpt>
      <trkpt lat="46.89214" lon="-2.06512">
        <ele>3.2</ele>
        <time>2019-11-09T08:28:24Z</time>
      </trkpt>
      <trkpt lat="46.89386" lon="-2.06549">
        <ele>2.427</ele>
        <time>2019-11-09T08:28:57Z</time>
      </trkpt>
      <trkpt lat="46.8955" lon="-2.06448">
        <ele>4.598</ele>
        <time>2019-11-09T08:29:30Z</time>
      </trkpt>
      <trkpt lat="46.89731" lon="-2.06382">
        <ele>5.12</ele>
        <time>2019-11-09T08:30:03Z</time>
      </trkpt>
      <trkpt lat="46.89906" lon="-2.06322">
        <ele>1.888</ele>
        <time>2019-11-09T08:30:36Z</time>
      </trkpt>
      <trkpt lat="46.9005" lon="-2.06185">
        <ele>1.966</ele>
        <time>2019-11-09T08:31:09Z</time>
      </trkpt>
      <trkpt lat="46.90152" lon="-2.05994">
        <ele>2.365</ele>
        <time>2019-11-09T08:31:42Z</time>
      </trkpt>
      <trkpt lat="46.90272" lon="-2.05841">
        <ele>3.239</ele>
        <time>2019-11-09T08:32:15Z</time>
      </trkpt>
      <trkpt lat="46.9038" lon="-2.05666">
        <ele>3.765</ele>
        <time>2019-11-09T08:32:48Z</time>
      </trkpt>
      <trkpt lat="46.90415" lon="-2.05456">
        <ele>3.351</ele>
        <time>2019-11-09T08:33:21Z</time>
      </trkpt>
      <trkpt lat="46.90453" lon="-2.05246">
        <ele>2.385</ele>
        <time>2019-11-09T08:33:54Z</time>
      </trkpt>
      <trkpt lat="46.90524" lon="-2.05077">
        <ele>3.552</ele>
        <time>2019-11-09T08:34:24Z</time>
      </trkpt>
      <trkpt lat="46.90668" lon="-2.04964">
        <ele>3.34</ele>
        <time>2019-11-09T08:34:57Z</time>
      </trkpt>
      <trkpt lat="46.90822" lon="-2.0485">
        <ele>6.342</ele>
        <time>2019-11-09T08:35:30Z</time>
      </trkpt>
      <trkpt lat="46.90975" lon="-2.04755">
        <ele>8.301</ele>
        <time>2019-11-09T08:36:03Z</time>
      </trkpt>
      <trkpt lat="46.91116" lon="-2.04663">
        <ele>7.077</ele>
        <time>2019-11-09T08:36:36Z</time>
      </trkpt>
      <trkpt lat="46.91253" lon="-2.04573">
        <ele>9.407</ele>
        <time>2019-11-09T08:37:09Z</time>
      </trkpt>
      <trkpt lat="46.91413" lon="-2.04539">
        <ele>11.542</ele>
        <time>2019-11-09T08:37:42Z</time>
      </trkpt>
      <trkpt lat="46.91554" lon="-2.04673">
        <ele>4.602</ele>
        <time>2019-11-09T08:38:15Z</time>
      </trkpt>
      <trkpt lat="46.91548" lon="-2.04931">
        <ele>4.098</ele>
        <time>2019-11-09T08:38:48Z</time>
      </trkpt>
      <trkpt lat="46.91511" lon="-2.05174">
        <ele>7.767</ele>
        <time>2019-11-09T08:39:21Z</time>
      </trkpt>
      <trkpt lat="46.91568" lon="-2.0542">
        <ele>2.351</ele>
        <time>2019-11-09T08:39:54Z</time>
      </trkpt>
      <trkpt lat="46.91571" lon="-2.05684">
        <ele>2.785</ele>
        <time>2019-11-09T08:40:27Z</time>
      </trkpt>
      <trkpt lat="46.91554" lon="-2.0595">
        <ele>1.793</ele>
        <time>2019-11-09T08:41:00Z</time>
      </trkpt>
      <trkpt lat="46.91537" lon="-2.0619">
        <ele>3.605</ele>
        <time>2019-11-09T08:41:30Z</time>
      </trkpt>
      <trkpt lat="46.91537" lon="-2.0645">
        <ele>0.722</ele>
        <time>2019-11-09T08:42:03Z</time>
      </trkpt>
      <trkpt lat="46.91625" lon="-2.06692">
        <ele>2.042</ele>
        <time>2019-11-09T08:42:36Z</time>
      </trkpt>
      <trkpt lat="46.91619" lon="-2.06954">
        <ele>2.591</ele>
        <time>2019-11-09T08:43:09Z</time>
      </trkpt>
      <trkpt lat="46.91645" lon="-2.07214">
        <ele>1.628</ele>
        <time>2019-11-09T08:43:42Z</time>
      </trkpt>
      <trkpt lat="46.91679" lon="-2.07465">
        <ele>2.175</ele>
        <time>2019-11-09T08:44:15Z</time>
      </trkpt>
      <trkpt lat="46.91694" lon="-2.07727">
        <ele>1.559</ele>
        <time>2019-11-09T08:44:48Z</time>
      </trkpt>
      <trkpt lat="46.91772" lon="-2.07972">
        <ele>1.986</ele>
        <time>2019-11-09T08:45:21Z</time>
      </trkpt>
      <trkpt lat="46.91891" lon="-2.08165">
        <ele>1.426</ele>
        <time>2019-11-09T08:45:54Z</time>
      </trkpt>
      <trkpt lat="46.91994" lon="-2.07958">
        <ele>3.714</ele>
        <time>2019-11-09T08:46:27Z</time>
      </trkpt>
      <trkpt lat="46.92155" lon="-2.07865">
        <ele>3.217</ele>
        <time>2019-11-09T08:47:00Z</time>
      </trkpt>
      <trkpt lat="46.92297" lon="-2.0771">
        <ele>2.602</ele>
        <time>2019-11-09T08:47:33Z</time>
      </trkpt>
      <trkpt lat="46.92442" lon="-2.0757">
        <ele>2.896</ele>
        <time>2019-11-09T08:48:06Z</time>
      </trkpt>
      <trkpt lat="46.92603" lon="-2.07535">
        <ele>2.577</ele>
        <time>2019-11-09T08:48:36Z</time>
      </trkpt>
      <trkpt lat="46.92772" lon="-2.07454">
        <ele>3.018</ele>
        <time>2019-11-09T08:49:09Z</time>
      </trkpt>
      <trkpt lat="46.9294" lon="-2.07379">
        <ele>5.019</ele>
        <time>2019-11-09T08:49:42Z</time>
      </trkpt>
      <trkpt lat="46.93108" lon="-2.073">
        <ele>4.887</ele>
        <time>2019-11-09T08:50:15Z</time>
      </trkpt>
      <trkpt lat="46.93276" lon="-2.07223">
        <ele>3.157</ele>
        <time>2019-11-09T08:50:48Z</time>
      </trkpt>
      <trkpt lat="46.93449" lon="-2.0714">
        <ele>5.017</ele>
        <time>2019-11-09T08:51:21Z</time>
      </trkpt>
      <trkpt lat="46.9358" lon="-2.07093">
        <ele>4.881</ele>
        <time>2019-11-09T08:51:54Z</time>
      </trkpt>
      <trkpt lat="46.93625" lon="-2.07022">
        <ele>4.125</ele>
        <time>2019-11-09T08:52:27Z</time>
      </trkpt>
      <trkpt lat="46.93644" lon="-2.06782">
        <ele>1.373</ele>
        <time>2019-11-09T08:53:00Z</time>
      </trkpt>
      <trkpt lat="46.93709" lon="-2.0658">
        <ele>1.095</ele>
        <time>2019-11-09T08:53:33Z</time>
      </trkpt>
      <trkpt lat="46.93762" lon="-2.06372">
        <ele>0.15</ele>
        <time>2019-11-09T08:54:06Z</time>
      </trkpt>
      <trkpt lat="46.93791" lon="-2.06164">
        <ele>2.961</ele>
        <time>2019-11-09T08:54:39Z</time>
      </trkpt>
      <trkpt lat="46.93852" lon="-2.05979">
        <ele>3.505</ele>
        <time>2019-11-09T08:55:12Z</time>
      </trkpt>
      <trkpt lat="46.93953" lon="-2.05827">
        <ele>1.388</ele>
        <time>2019-11-09T08:55:42Z</time>
      </trkpt>
      <trkpt lat="46.94013" lon="-2.05628">
        <ele>0.811</ele>
        <time>2019-11-09T08:56:15Z</time>
      </trkpt>
      <trkpt lat="46.94036" lon="-2.05416">
        <ele>0.312</ele>
        <time>2019-11-09T08:56:48Z</time>
      </trkpt>
      <trkpt lat="46.94092" lon="-2.05222">
        <ele>1.925</ele>
        <time>2019-11-09T08:57:21Z</time>
      </trkpt>
      <trkpt lat="46.942" lon="-2.05136">
        <ele>2.861</ele>
        <time>2019-11-09T08:57:54Z</time>
      </trkpt>
      <trkpt lat="46.94323" lon="-2.0499">
        <ele>2.522</ele>
        <time>2019-11-09T08:58:27Z</time>
      </trkpt>
      <trkpt lat="46.94426" lon="-2.0484">
        <ele>0.884</ele>
        <time>2019-11-09T08:59:00Z</time>
      </trkpt>
      <trkpt lat="46.94518" lon="-2.04686">
        <ele>1.333</ele>
        <time>2019-11-09T08:59:33Z</time>
      </trkpt>
      <trkpt lat="46.94583" lon="-2.04517">
        <ele>2.195</ele>
        <time>2019-11-09T09:00:06Z</time>
      </trkpt>
      <trkpt lat="46.94708" lon="-2.04408">
        <ele>1.1</ele>
        <time>2019-11-09T09:00:39Z</time>
      </trkpt>
      <trkpt lat="46.94838" lon="-2.04376">
        <ele>1.729</ele>
        <time>2019-11-09T09:01:12Z</time>
      </trkpt>
      <trkpt lat="46.9491" lon="-2.04598">
        <ele>0.538</ele>
        <time>2019-11-09T09:01:45Z</time>
      </trkpt>
      <trkpt lat="46.94979" lon="-2.04741">
        <ele>2.967</ele>
        <time>2019-11-09T09:02:18Z</time>
      </trkpt>
      <trkpt lat="46.9512" lon="-2.04645">
        <ele>0.572</ele>
        <time>2019-11-09T09:02:51Z</time>
      </trkpt>
      <trkpt lat="46.95235" lon="-2.04564">
        <ele>0.32</ele>
        <time>2019-11-09T09:03:21Z</time>
      </trkpt>
      <trkpt lat="46.95375" lon="-2.04466">
        <ele>3</ele>
        <time>2019-11-09T09:03:54Z</time>
      </trkpt>
      <trkpt lat="46.9551" lon="-2.04371">
        <ele>0.637</ele>
        <time>2019-11-09T09:04:27Z</time>
      </trkpt>
      <trkpt lat="46.95643" lon="-2.04289">
        <ele>2.253</ele>
        <time>2019-11-09T09:05:00Z</time>
      </trkpt>
      <trkpt lat="46.95801" lon="-2.0426">
        <ele>1.824</ele>
        <time>2019-11-09T09:05:33Z</time>
      </trkpt>
      <trkpt lat="46.95978" lon="-2.04292">
        <ele>1.924</ele>
        <time>2019-11-09T09:06:06Z</time>
      </trkpt>
      <trkpt lat="46.96169" lon="-2.04326">
        <ele>0.697</ele>
        <time>2019-11-09T09:06:39Z</time>
      </trkpt>
      <trkpt lat="46.96347" lon="-2.04355">
        <ele>3.415</ele>
        <time>2019-11-09T09:07:12Z</time>
      </trkpt>
      <trkpt lat="46.96531" lon="-2.04389">
        <ele>1.589</ele>
        <time>2019-11-09T09:07:45Z</time>
      </trkpt>
      <trkpt lat="46.96722" lon="-2.04379">
        <ele>1.838</ele>
        <time>2019-11-09T09:08:18Z</time>
      </trkpt>
      <trkpt lat="46.968" lon="-2.04333">
        <ele>1.97</ele>
        <time>2019-11-09T09:09:36Z</time>
      </trkpt>
      <trkpt lat="46.96804" lon="-2.04214">
        <ele>2.683</ele>
        <time>2019-11-09T09:10:12Z</time>
      </trkpt>
      <trkpt lat="46.96824" lon="-2.0409">
        <ele>4.168</ele>
        <time>2019-11-09T09:10:45Z</time>
      </trkpt>
      <trkpt lat="46.96836" lon="-2.03939">
        <ele>2.64</ele>
        <time>2019-11-09T09:11:15Z</time>
      </trkpt>
      <trkpt lat="46.96862" lon="-2.03793">
        <ele>4.814</ele>
        <time>2019-11-09T09:11:48Z</time>
      </trkpt>
      <trkpt lat="46.96877" lon="-2.03616">
        <ele>4.988</ele>
        <time>2019-11-09T09:12:21Z</time>
      </trkpt>
      <trkpt lat="46.96885" lon="-2.03418">
        <ele>2.973</ele>
        <time>2019-11-09T09:12:54Z</time>
      </trkpt>
      <trkpt lat="46.96955" lon="-2.03341">
        <ele>3.77</ele>
        <time>2019-11-09T09:13:27Z</time>
      </trkpt>
      <trkpt lat="46.97112" lon="-2.03373">
        <ele>2.011</ele>
        <time>2019-11-09T09:14:00Z</time>
      </trkpt>
      <trkpt lat="46.97298" lon="-2.03387">
        <ele>2.596</ele>
        <time>2019-11-09T09:14:33Z</time>
      </trkpt>
      <trkpt lat="46.97483" lon="-2.03396">
        <ele>0.68</ele>
        <time>2019-11-09T09:15:06Z</time>
      </trkpt>
      <trkpt lat="46.97655" lon="-2.03486">
        <ele>0.515</ele>
        <time>2019-11-09T09:15:39Z</time>
      </trkpt>
      <trkpt lat="46.97826" lon="-2.03464">
        <ele>2.344</ele>
        <time>2019-11-09T09:16:12Z</time>
      </trkpt>
      <trkpt lat="46.97958" lon="-2.03344">
        <ele>2.927</ele>
        <time>2019-11-09T09:16:45Z</time>
      </trkpt>
      <trkpt lat="46.98061" lon="-2.03255">
        <ele>1.914</ele>
        <time>2019-11-09T09:17:18Z</time>
      </trkpt>
      <trkpt lat="46.98161" lon="-2.0312">
        <ele>0.524</ele>
        <time>2019-11-09T09:17:51Z</time>
      </trkpt>
      <trkpt lat="46.98254" lon="-2.03092">
        <ele>2.322</ele>
        <time>2019-11-09T09:18:21Z</time>
      </trkpt>
      <trkpt lat="46.98412" lon="-2.03129">
        <ele>1.523</ele>
        <time>2019-11-09T09:18:54Z</time>
      </trkpt>
      <trkpt lat="46.9853" lon="-2.03037">
        <ele>2.998</ele>
        <time>2019-11-09T09:19:27Z</time>
      </trkpt>
      <trkpt lat="46.98632" lon="-2.02926">
        <ele>2.205</ele>
        <time>2019-11-09T09:20:00Z</time>
      </trkpt>
      <trkpt lat="46.98754" lon="-2.03064">
        <ele>1.094</ele>
        <time>2019-11-09T09:20:33Z</time>
      </trkpt>
      <trkpt lat="46.98906" lon="-2.03128">
        <ele>0.388</ele>
        <time>2019-11-09T09:21:06Z</time>
      </trkpt>
      <trkpt lat="46.99015" lon="-2.03012">
        <ele>4.968</ele>
        <time>2019-11-09T09:21:39Z</time>
      </trkpt>
      <trkpt lat="46.99149" lon="-2.02918">
        <ele>2.909</ele>
        <time>2019-11-09T09:22:12Z</time>
      </trkpt>
      <trkpt lat="46.99323" lon="-2.0283">
        <ele>1.68</ele>
        <time>2019-11-09T09:22:45Z</time>
      </trkpt>
      <trkpt lat="46.99496" lon="-2.02742">
        <ele>2.925</ele>
        <time>2019-11-09T09:23:18Z</time>
      </trkpt>
      <trkpt lat="46.99671" lon="-2.02678">
        <ele>1.526</ele>
        <time>2019-11-09T09:23:51Z</time>
      </trkpt>
      <trkpt lat="46.99773" lon="-2.02782">
        <ele>2.776</ele>
        <time>2019-11-09T09:24:24Z</time>
      </trkpt>
      <trkpt lat="46.998" lon="-2.02926">
        <ele>7.793</ele>
        <time>2019-11-09T09:25:00Z</time>
      </trkpt>
      <trkpt lat="46.99876" lon="-2.02881">
        <ele>2.014</ele>
        <time>2019-11-09T09:26:18Z</time>
      </trkpt>
      <trkpt lat="47.00026" lon="-2.02818">
        <ele>0.794</ele>
        <time>2019-11-09T09:26:51Z</time>
      </trkpt>
      <trkpt lat="47.00203" lon="-2.02777">
        <ele>1.863</ele>
        <time>2019-11-09T09:27:24Z</time>
      </trkpt>
      <trkpt lat="47.00368" lon="-2.02695">
        <ele>2.139</ele>
        <time>2019-11-09T09:27:57Z</time>
      </trkpt>
      <trkpt lat="47.00533" lon="-2.02621">
        <ele>2.456</ele>
        <time>2019-11-09T09:28:30Z</time>
      </trkpt>
      <trkpt lat="47.00696" lon="-2.02588">
        <ele>0.438</ele>
        <time>2019-11-09T09:29:03Z</time>
      </trkpt>
      <trkpt lat="47.00809" lon="-2.02724">
        <ele>1</ele>
        <time>2019-11-09T09:29:36Z</time>
      </trkpt>
      <trkpt lat="47.00911" lon="-2.0263">
        <ele>0.544</ele>
        <time>2019-11-09T09:30:09Z</time>
      </trkpt>
      <trkpt lat="47.00969" lon="-2.02419">
        <ele>4.435</ele>
        <time>2019-11-09T09:30:42Z</time>
      </trkpt>
      <trkpt lat="47.01035" lon="-2.02223">
        <ele>6.695</ele>
        <time>2019-11-09T09:31:15Z</time>
      </trkpt>
      <trkpt lat="47.01109" lon="-2.02008">
        <ele>3.528</ele>
        <time>2019-11-09T09:31:48Z</time>
      </trkpt>
      <trkpt lat="47.01182" lon="-2.01873">
        <ele>4.501</ele>
        <time>2019-11-09T09:32:21Z</time>
      </trkpt>
      <trkpt lat="47.0122" lon="-2.017">
        <ele>3.221</ele>
        <time>2019-11-09T09:32:54Z</time>
      </trkpt>
      <trkpt lat="47.01296" lon="-2.01533">
        <ele>3.732</ele>
        <time>2019-11-09T09:33:24Z</time>
      </trkpt>
      <trkpt lat="47.01387" lon="-2.01342">
        <ele>2.689</ele>
        <time>2019-11-09T09:33:57Z</time>
      </trkpt>
      <trkpt lat="47.01516" lon="-2.01222">
        <ele>3.439</ele>
        <time>2019-11-09T09:34:30Z</time>
      </trkpt>
      <trkpt lat="47.01622" lon="-2.01059">
        <ele>2.237</ele>
        <time>2019-11-09T09:35:03Z</time>
      </trkpt>
      <trkpt lat="47.0159" lon="-2.00904">
        <ele>2.197</ele>
        <time>2019-11-09T09:35:36Z</time>
      </trkpt>
      <trkpt lat="47.01533" lon="-2.00695">
        <ele>2.212</ele>
        <time>2019-11-09T09:36:09Z</time>
      </trkpt>
      <trkpt lat="47.01455" lon="-2.0051">
        <ele>3.064</ele>
        <time>2019-11-09T09:36:42Z</time>
      </trkpt>
      <trkpt lat="47.01392" lon="-2.00308">
        <ele>3.668</ele>
        <time>2019-11-09T09:37:15Z</time>
      </trkpt>
      <trkpt lat="47.01433" lon="-2.0013">
        <ele>3.617</ele>
        <time>2019-11-09T09:37:48Z</time>
      </trkpt>
      <trkpt lat="47.01422" lon="-1.99955">
        <ele>1.395</ele>
        <time>2019-11-09T09:38:21Z</time>
      </trkpt>
      <trkpt lat="47.01399" lon="-1.99796">
        <ele>1.804</ele>
        <time>2019-11-09T09:38:54Z</time>
      </trkpt>
      <trkpt lat="47.01381" lon="-1.99636">
        <ele>1.49</ele>
        <time>2019-11-09T09:39:27Z</time>
      </trkpt>
      <trkpt lat="47.01374" lon="-1.99467">
        <ele>1.139</ele>
        <time>2019-11-09T09:40:00Z</time>
      </trkpt>
      <trkpt lat="47.01369" lon="-1.99315">
        <ele>2.737</ele>
        <time>2019-11-09T09:40:30Z</time>
      </trkpt>
      <trkpt lat="47.01362" lon="-1.99147">
        <ele>0.503</ele>
        <time>2019-11-09T09:41:03Z</time>
      </trkpt>
      <trkpt lat="47.01358" lon="-1.98981">
        <ele>1.696</ele>
        <time>2019-11-09T09:41:36Z</time>
      </trkpt>
      <trkpt lat="47.01351" lon="-1.98816">
        <ele>3.104</ele>
        <time>2019-11-09T09:42:09Z</time>
      </trkpt>
      <trkpt lat="47.01384" lon="-1.98691">
        <ele>2.118</ele>
        <time>2019-11-09T09:42:42Z</time>
      </trkpt>
      <trkpt lat="47.01561" lon="-1.9869">
        <ele>0.668</ele>
        <time>2019-11-09T09:43:15Z</time>
      </trkpt>
      <trkpt lat="47.01682" lon="-1.98529">
        <ele>2.04</ele>
        <time>2019-11-09T09:43:48Z</time>
      </trkpt>
      <trkpt lat="47.0178" lon="-1.98344">
        <ele>2.355</ele>
        <time>2019-11-09T09:44:21Z</time>
      </trkpt>
      <trkpt lat="47.01875" lon="-1.98165">
        <ele>0.671</ele>
        <time>2019-11-09T09:44:54Z</time>
      </trkpt>
      <trkpt lat="47.01968" lon="-1.9799">
        <ele>1.946</ele>
        <time>2019-11-09T09:45:27Z</time>
      </trkpt>
      <trkpt lat="47.02061" lon="-1.97816">
        <ele>1.979</ele>
        <time>2019-11-09T09:46:00Z</time>
      </trkpt>
      <trkpt lat="47.02153" lon="-1.97641">
        <ele>1.003</ele>
        <time>2019-11-09T09:46:33Z</time>
      </trkpt>
      <trkpt lat="47.02307" lon="-1.97595">
        <ele>0.155</ele>
        <time>2019-11-09T09:47:06Z</time>
      </trkpt>
      <trkpt lat="47.02478" lon="-1.9758">
        <ele>0.805</ele>
        <time>2019-11-09T09:47:39Z</time>
      </trkpt>
      <trkpt lat="47.02635" lon="-1.97568">
        <ele>0.751</ele>
        <time>2019-11-09T09:48:09Z</time>
      </trkpt>
      <trkpt lat="47.02709" lon="-1.97426">
        <ele>3.689</ele>
        <time>2019-11-09T09:48:42Z</time>
      </trkpt>
      <trkpt lat="47.02732" lon="-1.97226">
        <ele>4.647</ele>
        <time>2019-11-09T09:49:15Z</time>
      </trkpt>
      <trkpt lat="47.02841" lon="-1.97093">
        <ele>4.384</ele>
        <time>2019-11-09T09:49:48Z</time>
      </trkpt>
      <trkpt lat="47.02995" lon="-1.9709">
        <ele>4.219</ele>
        <time>2019-11-09T09:50:21Z</time>
      </trkpt>
      <trkpt lat="47.03163" lon="-1.97107">
        <ele>2.023</ele>
        <time>2019-11-09T09:50:54Z</time>
      </trkpt>
      <trkpt lat="47.03325" lon="-1.97073">
        <ele>3.378</ele>
        <time>2019-11-09T09:51:27Z</time>
      </trkpt>
      <trkpt lat="47.03422" lon="-1.97036">
        <ele>5.463</ele>
        <time>2019-11-09T09:58:45Z</time>
      </trkpt>
      <trkpt lat="47.03422" lon="-1.97037">
        <ele>5.463</ele>
        <time>2019-11-09T10:00:27Z</time>
      </trkpt>
      <trkpt lat="47.03422" lon="-1.97037">
        <ele>5.463</ele>
        <time>2019-11-09T10:04:57Z</time>
      </trkpt>
      <trkpt lat="47.03427" lon="-1.9701">
        <ele>4.752</ele>
        <time>2019-11-09T10:11:39Z</time>
      </trkpt>
      <trkpt lat="47.03443" lon="-1.9681">
        <ele>9.294</ele>
        <time>2019-11-09T10:12:12Z</time>
      </trkpt>
      <trkpt lat="47.0346" lon="-1.96597">
        <ele>7.041</ele>
        <time>2019-11-09T10:12:45Z</time>
      </trkpt>
      <trkpt lat="47.03534" lon="-1.9644">
        <ele>5.976</ele>
        <time>2019-11-09T10:13:15Z</time>
      </trkpt>
      <trkpt lat="47.03661" lon="-1.96293">
        <ele>4.181</ele>
        <time>2019-11-09T10:13:48Z</time>
      </trkpt>
      <trkpt lat="47.03753" lon="-1.96108">
        <ele>4.178</ele>
        <time>2019-11-09T10:14:21Z</time>
      </trkpt>
      <trkpt lat="47.03862" lon="-1.95953">
        <ele>3.634</ele>
        <time>2019-11-09T10:14:54Z</time>
      </trkpt>
      <trkpt lat="47.03971" lon="-1.95801">
        <ele>4.789</ele>
        <time>2019-11-09T10:15:27Z</time>
      </trkpt>
      <trkpt lat="47.04045" lon="-1.95672">
        <ele>7.222</ele>
        <time>2019-11-09T10:16:00Z</time>
      </trkpt>
      <trkpt lat="47.04133" lon="-1.95618">
        <ele>5.881</ele>
        <time>2019-11-09T10:16:33Z</time>
      </trkpt>
      <trkpt lat="47.04123" lon="-1.95644">
        <ele>5.843</ele>
        <time>2019-11-09T10:18:45Z</time>
      </trkpt>
      <trkpt lat="47.04153" lon="-1.95533">
        <ele>7.235</ele>
        <time>2019-11-09T10:19:18Z</time>
      </trkpt>
      <trkpt lat="47.04255" lon="-1.95388">
        <ele>10.198</ele>
        <time>2019-11-09T10:19:51Z</time>
      </trkpt>
      <trkpt lat="47.04392" lon="-1.95323">
        <ele>10.986</ele>
        <time>2019-11-09T10:20:24Z</time>
      </trkpt>
      <trkpt lat="47.04529" lon="-1.95373">
        <ele>8.278</ele>
        <time>2019-11-09T10:20:57Z</time>
      </trkpt>
      <trkpt lat="47.04643" lon="-1.95563">
        <ele>10.286</ele>
        <time>2019-11-09T10:21:30Z</time>
      </trkpt>
      <trkpt lat="47.04729" lon="-1.95705">
        <ele>12.266</ele>
        <time>2019-11-09T10:22:00Z</time>
      </trkpt>
      <trkpt lat="47.04793" lon="-1.95811">
        <ele>14.513</ele>
        <time>2019-11-09T10:22:33Z</time>
      </trkpt>
      <trkpt lat="47.04815" lon="-1.95878">
        <ele>14.535</ele>
        <time>2019-11-09T10:26:00Z</time>
      </trkpt>
      <trkpt lat="47.04748" lon="-1.95744">
        <ele>13.732</ele>
        <time>2019-11-09T10:26:33Z</time>
      </trkpt>
      <trkpt lat="47.04623" lon="-1.95531">
        <ele>11.351</ele>
        <time>2019-11-09T10:27:06Z</time>
      </trkpt>
      <trkpt lat="47.04509" lon="-1.95343">
        <ele>5.672</ele>
        <time>2019-11-09T10:27:39Z</time>
      </trkpt>
      <trkpt lat="47.04384" lon="-1.95333">
        <ele>7.343</ele>
        <time>2019-11-09T10:28:12Z</time>
      </trkpt>
      <trkpt lat="47.04253" lon="-1.95398">
        <ele>8.12</ele>
        <time>2019-11-09T10:28:45Z</time>
      </trkpt>
      <trkpt lat="47.04157" lon="-1.95496">
        <ele>1.395</ele>
        <time>2019-11-09T10:29:18Z</time>
      </trkpt>
      <trkpt lat="47.04087" lon="-1.95306">
        <ele>2.948</ele>
        <time>2019-11-09T10:29:51Z</time>
      </trkpt>
      <trkpt lat="47.04204" lon="-1.95251">
        <ele>8.678</ele>
        <time>2019-11-09T10:30:24Z</time>
      </trkpt>
      <trkpt lat="47.04281" lon="-1.95135">
        <ele>12.141</ele>
        <time>2019-11-09T10:30:57Z</time>
      </trkpt>
      <trkpt lat="47.04352" lon="-1.95045">
        <ele>12.321</ele>
        <time>2019-11-09T10:31:30Z</time>
      </trkpt>
      <trkpt lat="47.0445" lon="-1.94903">
        <ele>14.052</ele>
        <time>2019-11-09T10:32:00Z</time>
      </trkpt>
      <trkpt lat="47.04615" lon="-1.94729">
        <ele>6.196</ele>
        <time>2019-11-09T10:32:33Z</time>
      </trkpt>
      <trkpt lat="47.04751" lon="-1.94743">
        <ele>10.891</ele>
        <time>2019-11-09T10:33:06Z</time>
      </trkpt>
      <trkpt lat="47.04846" lon="-1.94739">
        <ele>18.184</ele>
        <time>2019-11-09T10:33:39Z</time>
      </trkpt>
      <trkpt lat="47.0493" lon="-1.94719">
        <ele>18.46</ele>
        <time>2019-11-09T10:34:12Z</time>
      </trkpt>
      <trkpt lat="47.05013" lon="-1.94661">
        <ele>20.956</ele>
        <time>2019-11-09T10:34:45Z</time>
      </trkpt>
      <trkpt lat="47.05108" lon="-1.94591">
        <ele>23.011</ele>
        <time>2019-11-09T10:35:18Z</time>
      </trkpt>
      <trkpt lat="47.05208" lon="-1.94474">
        <ele>24.567</ele>
        <time>2019-11-09T10:35:51Z</time>
      </trkpt>
      <trkpt lat="47.05315" lon="-1.94322">
        <ele>24.13</ele>
        <time>2019-11-09T10:36:24Z</time>
      </trkpt>
      <trkpt lat="47.05432" lon="-1.94153">
        <ele>23.463</ele>
        <time>2019-11-09T10:36:57Z</time>
      </trkpt>
      <trkpt lat="47.05547" lon="-1.9399">
        <ele>23.518</ele>
        <time>2019-11-09T10:37:30Z</time>
      </trkpt>
      <trkpt lat="47.05661" lon="-1.93825">
        <ele>24.312</ele>
        <time>2019-11-09T10:38:03Z</time>
      </trkpt>
      <trkpt lat="47.05777" lon="-1.9366">
        <ele>24.618</ele>
        <time>2019-11-09T10:38:36Z</time>
      </trkpt>
      <trkpt lat="47.05892" lon="-1.93541">
        <ele>26.501</ele>
        <time>2019-11-09T10:39:06Z</time>
      </trkpt>
      <trkpt lat="47.0606" lon="-1.93542">
        <ele>28.501</ele>
        <time>2019-11-09T10:39:39Z</time>
      </trkpt>
      <trkpt lat="47.06227" lon="-1.93549">
        <ele>30.36</ele>
        <time>2019-11-09T10:40:12Z</time>
      </trkpt>
      <trkpt lat="47.06404" lon="-1.93553">
        <ele>26.344</ele>
        <time>2019-11-09T10:40:45Z</time>
      </trkpt>
      <trkpt lat="47.06613" lon="-1.93559">
        <ele>24.616</ele>
        <time>2019-11-09T10:41:18Z</time>
      </trkpt>
      <trkpt lat="47.06831" lon="-1.93564">
        <ele>22.428</ele>
        <time>2019-11-09T10:41:51Z</time>
      </trkpt>
      <trkpt lat="47.07004" lon="-1.93567">
        <ele>24.5</ele>
        <time>2019-11-09T10:42:24Z</time>
      </trkpt>
      <trkpt lat="47.07187" lon="-1.93574">
        <ele>24.573</ele>
        <time>2019-11-09T10:42:57Z</time>
      </trkpt>
      <trkpt lat="47.07364" lon="-1.93578">
        <ele>25.409</ele>
        <time>2019-11-09T10:43:30Z</time>
      </trkpt>
      <trkpt lat="47.07542" lon="-1.93584">
        <ele>25.52</ele>
        <time>2019-11-09T10:44:03Z</time>
      </trkpt>
      <trkpt lat="47.0775" lon="-1.9359">
        <ele>24.622</ele>
        <time>2019-11-09T10:44:36Z</time>
      </trkpt>
      <trkpt lat="47.07951" lon="-1.93594">
        <ele>22.018</ele>
        <time>2019-11-09T10:45:09Z</time>
      </trkpt>
      <trkpt lat="47.08149" lon="-1.93601">
        <ele>22.847</ele>
        <time>2019-11-09T10:45:42Z</time>
      </trkpt>
      <trkpt lat="47.08318" lon="-1.93606">
        <ele>28.154</ele>
        <time>2019-11-09T10:46:12Z</time>
      </trkpt>
      <trkpt lat="47.0851" lon="-1.93609">
        <ele>25.368</ele>
        <time>2019-11-09T10:46:45Z</time>
      </trkpt>
      <trkpt lat="47.08666" lon="-1.93614">
        <ele>34.555</ele>
        <time>2019-11-09T10:47:18Z</time>
      </trkpt>
      <trkpt lat="47.08828" lon="-1.9361">
        <ele>31.928</ele>
        <time>2019-11-09T10:47:51Z</time>
      </trkpt>
      <trkpt lat="47.08918" lon="-1.93624">
        <ele>28.987</ele>
        <time>2019-11-09T10:55:54Z</time>
      </trkpt>
      <trkpt lat="47.09093" lon="-1.93628">
        <ele>26.334</ele>
        <time>2019-11-09T10:56:27Z</time>
      </trkpt>
      <trkpt lat="47.09269" lon="-1.93634">
        <ele>25.747</ele>
        <time>2019-11-09T10:57:00Z</time>
      </trkpt>
      <trkpt lat="47.09441" lon="-1.93638">
        <ele>27.38</ele>
        <time>2019-11-09T10:57:33Z</time>
      </trkpt>
      <trkpt lat="47.09613" lon="-1.93644">
        <ele>24.326</ele>
        <time>2019-11-09T10:58:06Z</time>
      </trkpt>
      <trkpt lat="47.09795" lon="-1.93787">
        <ele>24.101</ele>
        <time>2019-11-09T10:58:39Z</time>
      </trkpt>
      <trkpt lat="47.10025" lon="-1.93856">
        <ele>21.845</ele>
        <time>2019-11-09T10:59:12Z</time>
      </trkpt>
      <trkpt lat="47.10262" lon="-1.93911">
        <ele>23.012</ele>
        <time>2019-11-09T10:59:45Z</time>
      </trkpt>
      <trkpt lat="47.10469" lon="-1.93875">
        <ele>24.209</ele>
        <time>2019-11-09T11:00:18Z</time>
      </trkpt>
      <trkpt lat="47.10659" lon="-1.93847">
        <ele>20.954</ele>
        <time>2019-11-09T11:00:48Z</time>
      </trkpt>
      <trkpt lat="47.10843" lon="-1.9381">
        <ele>22.474</ele>
        <time>2019-11-09T11:01:21Z</time>
      </trkpt>
      <trkpt lat="47.11065" lon="-1.93761">
        <ele>24.131</ele>
        <time>2019-11-09T11:01:54Z</time>
      </trkpt>
      <trkpt lat="47.11285" lon="-1.93777">
        <ele>18.763</ele>
        <time>2019-11-09T11:02:27Z</time>
      </trkpt>
      <trkpt lat="47.11461" lon="-1.93746">
        <ele>18.015</ele>
        <time>2019-11-09T11:03:00Z</time>
      </trkpt>
      <trkpt lat="47.11561" lon="-1.93564">
        <ele>20.287</ele>
        <time>2019-11-09T11:03:33Z</time>
      </trkpt>
      <trkpt lat="47.11637" lon="-1.93321">
        <ele>15.774</ele>
        <time>2019-11-09T11:04:06Z</time>
      </trkpt>
      <trkpt lat="47.11711" lon="-1.93074">
        <ele>12.937</ele>
        <time>2019-11-09T11:04:39Z</time>
      </trkpt>
      <trkpt lat="47.11785" lon="-1.92833">
        <ele>15.309</ele>
        <time>2019-11-09T11:05:12Z</time>
      </trkpt>
      <trkpt lat="47.11859" lon="-1.92592">
        <ele>14.487</ele>
        <time>2019-11-09T11:05:45Z</time>
      </trkpt>
      <trkpt lat="47.1193" lon="-1.92367">
        <ele>16.315</ele>
        <time>2019-11-09T11:06:18Z</time>
      </trkpt>
      <trkpt lat="47.11987" lon="-1.92171">
        <ele>17.457</ele>
        <time>2019-11-09T11:06:51Z</time>
      </trkpt>
      <trkpt lat="47.1205" lon="-1.91981">
        <ele>18.414</ele>
        <time>2019-11-09T11:07:24Z</time>
      </trkpt>
      <trkpt lat="47.12136" lon="-1.91744">
        <ele>13.946</ele>
        <time>2019-11-09T11:07:57Z</time>
      </trkpt>
      <trkpt lat="47.12217" lon="-1.91522">
        <ele>21.567</ele>
        <time>2019-11-09T11:08:27Z</time>
      </trkpt>
      <trkpt lat="47.1229" lon="-1.91311">
        <ele>20.895</ele>
        <time>2019-11-09T11:09:00Z</time>
      </trkpt>
      <trkpt lat="47.12399" lon="-1.91101">
        <ele>16.777</ele>
        <time>2019-11-09T11:09:33Z</time>
      </trkpt>
      <trkpt lat="47.12571" lon="-1.91048">
        <ele>14.22</ele>
        <time>2019-11-09T11:10:06Z</time>
      </trkpt>
      <trkpt lat="47.12728" lon="-1.91058">
        <ele>20.624</ele>
        <time>2019-11-09T11:10:39Z</time>
      </trkpt>
      <trkpt lat="47.12884" lon="-1.91051">
        <ele>15.002</ele>
        <time>2019-11-09T11:11:12Z</time>
      </trkpt>
      <trkpt lat="47.13043" lon="-1.91052">
        <ele>16.499</ele>
        <time>2019-11-09T11:11:45Z</time>
      </trkpt>
      <trkpt lat="47.1323" lon="-1.91017">
        <ele>12.594</ele>
        <time>2019-11-09T11:12:18Z</time>
      </trkpt>
      <trkpt lat="47.134" lon="-1.91043">
        <ele>14.423</ele>
        <time>2019-11-09T11:12:51Z</time>
      </trkpt>
      <trkpt lat="47.1357" lon="-1.91044">
        <ele>15.402</ele>
        <time>2019-11-09T11:13:24Z</time>
      </trkpt>
      <trkpt lat="47.13668" lon="-1.90882">
        <ele>14.933</ele>
        <time>2019-11-09T11:13:57Z</time>
      </trkpt>
      <trkpt lat="47.13741" lon="-1.90714">
        <ele>17.049</ele>
        <time>2019-11-09T11:14:30Z</time>
      </trkpt>
      <trkpt lat="47.13839" lon="-1.90667">
        <ele>24.315</ele>
        <time>2019-11-09T11:15:03Z</time>
      </trkpt>
      <trkpt lat="47.1394" lon="-1.90642">
        <ele>25.773</ele>
        <time>2019-11-09T11:15:33Z</time>
      </trkpt>
      <trkpt lat="47.14061" lon="-1.90616">
        <ele>28.589</ele>
        <time>2019-11-09T11:16:06Z</time>
      </trkpt>
      <trkpt lat="47.14189" lon="-1.90548">
        <ele>23.222</ele>
        <time>2019-11-09T11:16:39Z</time>
      </trkpt>
      <trkpt lat="47.14263" lon="-1.90369">
        <ele>25.456</ele>
        <time>2019-11-09T11:17:12Z</time>
      </trkpt>
      <trkpt lat="47.14338" lon="-1.90193">
        <ele>28.307</ele>
        <time>2019-11-09T11:17:45Z</time>
      </trkpt>
      <trkpt lat="47.14417" lon="-1.90002">
        <ele>23.536</ele>
        <time>2019-11-09T11:18:18Z</time>
      </trkpt>
      <trkpt lat="47.14494" lon="-1.89816">
        <ele>27.406</ele>
        <time>2019-11-09T11:18:51Z</time>
      </trkpt>
      <trkpt lat="47.14582" lon="-1.89598">
        <ele>25.733</ele>
        <time>2019-11-09T11:19:24Z</time>
      </trkpt>
      <trkpt lat="47.14664" lon="-1.89398">
        <ele>26.219</ele>
        <time>2019-11-09T11:19:57Z</time>
      </trkpt>
      <trkpt lat="47.14738" lon="-1.89235">
        <ele>26.787</ele>
        <time>2019-11-09T11:20:30Z</time>
      </trkpt>
      <trkpt lat="47.14807" lon="-1.89091">
        <ele>28.378</ele>
        <time>2019-11-09T11:21:03Z</time>
      </trkpt>
      <trkpt lat="47.14873" lon="-1.8895">
        <ele>31.049</ele>
        <time>2019-11-09T11:21:36Z</time>
      </trkpt>
      <trkpt lat="47.14946" lon="-1.88795">
        <ele>43.355</ele>
        <time>2019-11-09T11:22:09Z</time>
      </trkpt>
      <trkpt lat="47.15032" lon="-1.88615">
        <ele>33.61</ele>
        <time>2019-11-09T11:22:39Z</time>
      </trkpt>
      <trkpt lat="47.15125" lon="-1.88417">
        <ele>30.744</ele>
        <time>2019-11-09T11:23:12Z</time>
      </trkpt>
      <trkpt lat="47.15211" lon="-1.88229">
        <ele>33.154</ele>
        <time>2019-11-09T11:23:45Z</time>
      </trkpt>
      <trkpt lat="47.15278" lon="-1.88085">
        <ele>36.555</ele>
        <time>2019-11-09T11:24:18Z</time>
      </trkpt>
      <trkpt lat="47.15362" lon="-1.87969">
        <ele>35.207</ele>
        <time>2019-11-09T11:24:51Z</time>
      </trkpt>
      <trkpt lat="47.15454" lon="-1.87862">
        <ele>39.11</ele>
        <time>2019-11-09T11:25:24Z</time>
      </trkpt>
      <trkpt lat="47.15556" lon="-1.87772">
        <ele>36.122</ele>
        <time>2019-11-09T11:25:57Z</time>
      </trkpt>
      <trkpt lat="47.15677" lon="-1.87727">
        <ele>41.512</ele>
        <time>2019-11-09T11:26:30Z</time>
      </trkpt>
      <trkpt lat="47.15796" lon="-1.87681">
        <ele>46.376</ele>
        <time>2019-11-09T11:27:03Z</time>
      </trkpt>
      <trkpt lat="47.15912" lon="-1.87638">
        <ele>47.337</ele>
        <time>2019-11-09T11:27:36Z</time>
      </trkpt>
      <trkpt lat="47.16026" lon="-1.87577">
        <ele>47.394</ele>
        <time>2019-11-09T11:28:09Z</time>
      </trkpt>
      <trkpt lat="47.16165" lon="-1.87556">
        <ele>46.973</ele>
        <time>2019-11-09T11:28:42Z</time>
      </trkpt>
      <trkpt lat="47.16301" lon="-1.87541">
        <ele>50.563</ele>
        <time>2019-11-09T11:29:15Z</time>
      </trkpt>
      <trkpt lat="47.16447" lon="-1.87469">
        <ele>49.107</ele>
        <time>2019-11-09T11:29:45Z</time>
      </trkpt>
      <trkpt lat="47.16619" lon="-1.87336">
        <ele>48.526</ele>
        <time>2019-11-09T11:30:18Z</time>
      </trkpt>
      <trkpt lat="47.16732" lon="-1.8733">
        <ele>49.215</ele>
        <time>2019-11-09T11:30:51Z</time>
      </trkpt>
      <trkpt lat="47.16843" lon="-1.87325">
        <ele>50.221</ele>
        <time>2019-11-09T11:31:24Z</time>
      </trkpt>
      <trkpt lat="47.16965" lon="-1.87319">
        <ele>53.264</ele>
        <time>2019-11-09T11:31:57Z</time>
      </trkpt>
      <trkpt lat="47.17081" lon="-1.87273">
        <ele>56.955</ele>
        <time>2019-11-09T11:32:30Z</time>
      </trkpt>
      <trkpt lat="47.1719" lon="-1.87124">
        <ele>52.832</ele>
        <time>2019-11-09T11:33:03Z</time>
      </trkpt>
      <trkpt lat="47.17383" lon="-1.87046">
        <ele>47.196</ele>
        <time>2019-11-09T11:33:36Z</time>
      </trkpt>
      <trkpt lat="47.17592" lon="-1.868">
        <ele>40.442</ele>
        <time>2019-11-09T11:34:09Z</time>
      </trkpt>
      <trkpt lat="47.17833" lon="-1.86509">
        <ele>28.225</ele>
        <time>2019-11-09T11:34:42Z</time>
      </trkpt>
      <trkpt lat="47.1798" lon="-1.86331">
        <ele>24.638</ele>
        <time>2019-11-09T11:35:15Z</time>
      </trkpt>
      <trkpt lat="47.18165" lon="-1.86268">
        <ele>27.891</ele>
        <time>2019-11-09T11:35:48Z</time>
      </trkpt>
      <trkpt lat="47.18353" lon="-1.86178">
        <ele>32.107</ele>
        <time>2019-11-09T11:36:21Z</time>
      </trkpt>
      <trkpt lat="47.18524" lon="-1.86085">
        <ele>28.957</ele>
        <time>2019-11-09T11:36:51Z</time>
      </trkpt>
      <trkpt lat="47.18661" lon="-1.85866">
        <ele>20.749</ele>
        <time>2019-11-09T11:37:24Z</time>
      </trkpt>
      <trkpt lat="47.18825" lon="-1.85742">
        <ele>10.705</ele>
        <time>2019-11-09T11:37:57Z</time>
      </trkpt>
      <trkpt lat="47.18963" lon="-1.85642">
        <ele>10.345</ele>
        <time>2019-11-09T11:38:30Z</time>
      </trkpt>
      <trkpt lat="47.19085" lon="-1.85542">
        <ele>15.361</ele>
        <time>2019-11-09T11:39:03Z</time>
      </trkpt>
      <trkpt lat="47.19219" lon="-1.85386">
        <ele>14.641</ele>
        <time>2019-11-09T11:39:36Z</time>
      </trkpt>
      <trkpt lat="47.19271" lon="-1.85216">
        <ele>7.416</ele>
        <time>2019-11-09T11:40:09Z</time>
      </trkpt>
      <trkpt lat="47.1926" lon="-1.8508">
        <ele>14.176</ele>
        <time>2019-11-09T11:40:42Z</time>
      </trkpt>
      <trkpt lat="47.19292" lon="-1.84922">
        <ele>10.87</ele>
        <time>2019-11-09T11:41:15Z</time>
      </trkpt>
      <trkpt lat="47.19314" lon="-1.84751">
        <ele>13.837</ele>
        <time>2019-11-09T11:41:48Z</time>
      </trkpt>
      <trkpt lat="47.1926" lon="-1.84559">
        <ele>14.289</ele>
        <time>2019-11-09T11:42:21Z</time>
      </trkpt>
      <trkpt lat="47.19233" lon="-1.84382">
        <ele>11.411</ele>
        <time>2019-11-09T11:42:54Z</time>
      </trkpt>
      <trkpt lat="47.192" lon="-1.84182">
        <ele>9.348</ele>
        <time>2019-11-09T11:43:27Z</time>
      </trkpt>
      <trkpt lat="47.19201" lon="-1.84116">
        <ele>7.412</ele>
        <time>2019-11-09T11:45:42Z</time>
      </trkpt>
      <trkpt lat="47.19286" lon="-1.84127">
        <ele>10.989</ele>
        <time>2019-11-09T11:46:18Z</time>
      </trkpt>
      <trkpt lat="47.19387" lon="-1.84124">
        <ele>10.482</ele>
        <time>2019-11-09T11:46:51Z</time>
      </trkpt>
      <trkpt lat="47.19389" lon="-1.83936">
        <ele>11.064</ele>
        <time>2019-11-09T11:47:24Z</time>
      </trkpt>
      <trkpt lat="47.19466" lon="-1.8384">
        <ele>12.559</ele>
        <time>2019-11-09T11:47:57Z</time>
      </trkpt>
      <trkpt lat="47.1957" lon="-1.8382">
        <ele>19.014</ele>
        <time>2019-11-09T11:48:30Z</time>
      </trkpt>
      <trkpt lat="47.19602" lon="-1.83719">
        <ele>21.901</ele>
        <time>2019-11-09T11:49:03Z</time>
      </trkpt>
      <trkpt lat="47.19628" lon="-1.83561">
        <ele>15.845</ele>
        <time>2019-11-09T11:49:36Z</time>
      </trkpt>
      <trkpt lat="47.1962" lon="-1.83385">
        <ele>18.399</ele>
        <time>2019-11-09T11:50:09Z</time>
      </trkpt>
      <trkpt lat="47.19615" lon="-1.83187">
        <ele>16.419</ele>
        <time>2019-11-09T11:50:42Z</time>
      </trkpt>
      <trkpt lat="47.19646" lon="-1.82989">
        <ele>18.325</ele>
        <time>2019-11-09T11:51:15Z</time>
      </trkpt>
      <trkpt lat="47.19684" lon="-1.82794">
        <ele>19.834</ele>
        <time>2019-11-09T11:51:48Z</time>
      </trkpt>
      <trkpt lat="47.19733" lon="-1.82606">
        <ele>23.203</ele>
        <time>2019-11-09T11:52:21Z</time>
      </trkpt>
      <trkpt lat="47.19827" lon="-1.82447">
        <ele>22.278</ele>
        <time>2019-11-09T11:52:54Z</time>
      </trkpt>
      <trkpt lat="47.19902" lon="-1.82265">
        <ele>20.809</ele>
        <time>2019-11-09T11:53:24Z</time>
      </trkpt>
      <trkpt lat="47.19936" lon="-1.82012">
        <ele>17.406</ele>
        <time>2019-11-09T11:53:57Z</time>
      </trkpt>
      <trkpt lat="47.19881" lon="-1.81742">
        <ele>18.485</ele>
        <time>2019-11-09T11:54:30Z</time>
      </trkpt>
      <trkpt lat="47.19819" lon="-1.81466">
        <ele>14.885</ele>
        <time>2019-11-09T11:55:03Z</time>
      </trkpt>
      <trkpt lat="47.19713" lon="-1.81196">
        <ele>12.193</ele>
        <time>2019-11-09T11:55:36Z</time>
      </trkpt>
      <trkpt lat="47.19718" lon="-1.81006">
        <ele>9.372</ele>
        <time>2019-11-09T11:56:09Z</time>
      </trkpt>
      <trkpt lat="47.19788" lon="-1.80857">
        <ele>10.508</ele>
        <time>2019-11-09T11:56:42Z</time>
      </trkpt>
      <trkpt lat="47.19827" lon="-1.80733">
        <ele>18.032</ele>
        <time>2019-11-09T11:57:15Z</time>
      </trkpt>
      <trkpt lat="47.19847" lon="-1.80603">
        <ele>21.426</ele>
        <time>2019-11-09T11:57:48Z</time>
      </trkpt>
      <trkpt lat="47.199" lon="-1.8044">
        <ele>21.175</ele>
        <time>2019-11-09T11:58:21Z</time>
      </trkpt>
      <trkpt lat="47.19902" lon="-1.80267">
        <ele>21.304</ele>
        <time>2019-11-09T11:58:54Z</time>
      </trkpt>
      <trkpt lat="47.19873" lon="-1.80084">
        <ele>24.249</ele>
        <time>2019-11-09T11:59:27Z</time>
      </trkpt>
      <trkpt lat="47.1983" lon="-1.79867">
        <ele>21.677</ele>
        <time>2019-11-09T12:00:00Z</time>
      </trkpt>
      <trkpt lat="47.19823" lon="-1.79599">
        <ele>17.015</ele>
        <time>2019-11-09T12:00:30Z</time>
      </trkpt>
      <trkpt lat="47.19759" lon="-1.79219">
        <ele>9.196</ele>
        <time>2019-11-09T12:01:03Z</time>
      </trkpt>
      <trkpt lat="47.19656" lon="-1.7896">
        <ele>8.952</ele>
        <time>2019-11-09T12:01:36Z</time>
      </trkpt>
      <trkpt lat="47.19679" lon="-1.78714">
        <ele>8.615</ele>
        <time>2019-11-09T12:02:09Z</time>
      </trkpt>
      <trkpt lat="47.19698" lon="-1.78573">
        <ele>12.402</ele>
        <time>2019-11-09T12:02:42Z</time>
      </trkpt>
      <trkpt lat="47.19718" lon="-1.78455">
        <ele>16.754</ele>
        <time>2019-11-09T12:03:15Z</time>
      </trkpt>
      <trkpt lat="47.19722" lon="-1.78316">
        <ele>21.872</ele>
        <time>2019-11-09T12:03:48Z</time>
      </trkpt>
      <trkpt lat="47.19751" lon="-1.78118">
        <ele>20.117</ele>
        <time>2019-11-09T12:04:21Z</time>
      </trkpt>
      <trkpt lat="47.19906" lon="-1.77862">
        <ele>13.105</ele>
        <time>2019-11-09T12:04:54Z</time>
      </trkpt>
      <trkpt lat="47.20013" lon="-1.7773">
        <ele>14.951</ele>
        <time>2019-11-09T12:05:30Z</time>
      </trkpt>
      <trkpt lat="47.20015" lon="-1.77669">
        <ele>21.118</ele>
        <time>2019-11-09T12:09:48Z</time>
      </trkpt>
      <trkpt lat="47.20007" lon="-1.77563">
        <ele>27.216</ele>
        <time>2019-11-09T12:10:21Z</time>
      </trkpt>
      <trkpt lat="47.20015" lon="-1.7738">
        <ele>17.323</ele>
        <time>2019-11-09T12:10:54Z</time>
      </trkpt>
      <trkpt lat="47.20018" lon="-1.77169">
        <ele>14.427</ele>
        <time>2019-11-09T12:11:24Z</time>
      </trkpt>
      <trkpt lat="47.20019" lon="-1.76975">
        <ele>17.554</ele>
        <time>2019-11-09T12:11:57Z</time>
      </trkpt>
      <trkpt lat="47.20026" lon="-1.76785">
        <ele>17.374</ele>
        <time>2019-11-09T12:12:30Z</time>
      </trkpt>
      <trkpt lat="47.20034" lon="-1.76564">
        <ele>17.475</ele>
        <time>2019-11-09T12:13:03Z</time>
      </trkpt>
      <trkpt lat="47.20048" lon="-1.76332">
        <ele>17.992</ele>
        <time>2019-11-09T12:13:36Z</time>
      </trkpt>
      <trkpt lat="47.20051" lon="-1.76081">
        <ele>16.054</ele>
        <time>2019-11-09T12:14:09Z</time>
      </trkpt>
      <trkpt lat="47.20114" lon="-1.75903">
        <ele>18.091</ele>
        <time>2019-11-09T12:14:42Z</time>
      </trkpt>
      <trkpt lat="47.2025" lon="-1.75663">
        <ele>11.061</ele>
        <time>2019-11-09T12:15:15Z</time>
      </trkpt>
      <trkpt lat="47.20319" lon="-1.75597">
        <ele>10.696</ele>
        <time>2019-11-09T12:15:57Z</time>
      </trkpt>
      <trkpt lat="47.20301" lon="-1.75527">
        <ele>10.42</ele>
        <time>2019-11-09T12:16:30Z</time>
      </trkpt>
      <trkpt lat="47.20317" lon="-1.75457">
        <ele>6.445</ele>
        <time>2019-11-09T12:17:06Z</time>
      </trkpt>
      <trkpt lat="47.20324" lon="-1.75422">
        <ele>8.28</ele>
        <time>2019-11-09T12:20:42Z</time>
      </trkpt>
      <trkpt lat="47.20365" lon="-1.75327">
        <ele>10.345</ele>
        <time>2019-11-09T12:21:21Z</time>
      </trkpt>
      <trkpt lat="47.20415" lon="-1.75205">
        <ele>4.958</ele>
        <time>2019-11-09T12:21:51Z</time>
      </trkpt>
      <trkpt lat="47.20483" lon="-1.75106">
        <ele>3.596</ele>
        <time>2019-11-09T12:22:24Z</time>
      </trkpt>
      <trkpt lat="47.20541" lon="-1.75113">
        <ele>9.327</ele>
        <time>2019-11-09T12:23:09Z</time>
      </trkpt>
      <trkpt lat="47.20563" lon="-1.75151">
        <ele>7.487</ele>
        <time>2019-11-09T12:24:09Z</time>
      </trkpt>
      <trkpt lat="47.20609" lon="-1.75146">
        <ele>4.474</ele>
        <time>2019-11-09T12:24:54Z</time>
      </trkpt>
      <trkpt lat="47.20681" lon="-1.74969">
        <ele>5.694</ele>
        <time>2019-11-09T12:25:27Z</time>
      </trkpt>
      <trkpt lat="47.20832" lon="-1.74905">
        <ele>7.202</ele>
        <time>2019-11-09T12:26:00Z</time>
      </trkpt>
      <trkpt lat="47.20946" lon="-1.74796">
        <ele>10.369</ele>
        <time>2019-11-09T12:26:33Z</time>
      </trkpt>
      <trkpt lat="47.20985" lon="-1.74537">
        <ele>15.607</ele>
        <time>2019-11-09T12:27:06Z</time>
      </trkpt>
      <trkpt lat="47.21034" lon="-1.74262">
        <ele>7.384</ele>
        <time>2019-11-09T12:27:39Z</time>
      </trkpt>
      <trkpt lat="47.21156" lon="-1.74068">
        <ele>6.7</ele>
        <time>2019-11-09T12:28:12Z</time>
      </trkpt>
      <trkpt lat="47.21176" lon="-1.74046">
        <ele>6.677</ele>
        <time>2019-11-09T12:28:48Z</time>
      </trkpt>
      <trkpt lat="47.21136" lon="-1.7386">
        <ele>10.188</ele>
        <time>2019-11-09T12:29:21Z</time>
      </trkpt>
      <trkpt lat="47.21106" lon="-1.73665">
        <ele>19.077</ele>
        <time>2019-11-09T12:29:51Z</time>
      </trkpt>
      <trkpt lat="47.21109" lon="-1.73421">
        <ele>16.103</ele>
        <time>2019-11-09T12:30:24Z</time>
      </trkpt>
      <trkpt lat="47.21125" lon="-1.73176">
        <ele>12.434</ele>
        <time>2019-11-09T12:30:57Z</time>
      </trkpt>
      <trkpt lat="47.21004" lon="-1.73066">
        <ele>11.825</ele>
        <time>2019-11-09T12:31:30Z</time>
      </trkpt>
      <trkpt lat="47.20934" lon="-1.72883">
        <ele>11.761</ele>
        <time>2019-11-09T12:32:03Z</time>
      </trkpt>
      <trkpt lat="47.20956" lon="-1.72774">
        <ele>10.61</ele>
        <time>2019-11-09T12:32:36Z</time>
      </trkpt>
      <trkpt lat="47.2103" lon="-1.72747">
        <ele>19.683</ele>
        <time>2019-11-09T12:33:09Z</time>
      </trkpt>
      <trkpt lat="47.21097" lon="-1.72698">
        <ele>39.479</ele>
        <time>2019-11-09T12:33:45Z</time>
      </trkpt>
      <trkpt lat="47.21145" lon="-1.72602">
        <ele>35.054</ele>
        <time>2019-11-09T12:34:21Z</time>
      </trkpt>
      <trkpt lat="47.21183" lon="-1.72476">
        <ele>33.603</ele>
        <time>2019-11-09T12:34:54Z</time>
      </trkpt>
      <trkpt lat="47.21202" lon="-1.72341">
        <ele>35.73</ele>
        <time>2019-11-09T12:35:27Z</time>
      </trkpt>
      <trkpt lat="47.21226" lon="-1.72199">
        <ele>36.51</ele>
        <time>2019-11-09T12:36:00Z</time>
      </trkpt>
      <trkpt lat="47.21262" lon="-1.72052">
        <ele>51.669</ele>
        <time>2019-11-09T12:36:33Z</time>
      </trkpt>
      <trkpt lat="47.21286" lon="-1.71919">
        <ele>52.855</ele>
        <time>2019-11-09T12:37:03Z</time>
      </trkpt>
      <trkpt lat="47.21278" lon="-1.71702">
        <ele>49.107</ele>
        <time>2019-11-09T12:37:36Z</time>
      </trkpt>
      <trkpt lat="47.21261" lon="-1.71485">
        <ele>42.954</ele>
        <time>2019-11-09T12:38:09Z</time>
      </trkpt>
      <trkpt lat="47.2124" lon="-1.71238">
        <ele>45.094</ele>
        <time>2019-11-09T12:38:42Z</time>
      </trkpt>
      <trkpt lat="47.21263" lon="-1.71041">
        <ele>44.968</ele>
        <time>2019-11-09T12:39:15Z</time>
      </trkpt>
      <trkpt lat="47.21285" lon="-1.70774">
        <ele>39.817</ele>
        <time>2019-11-09T12:39:48Z</time>
      </trkpt>
      <trkpt lat="47.21336" lon="-1.70407">
        <ele>25.633</ele>
        <time>2019-11-09T12:40:21Z</time>
      </trkpt>
      <trkpt lat="47.21369" lon="-1.70176">
        <ele>19.953</ele>
        <time>2019-11-09T12:40:54Z</time>
      </trkpt>
      <trkpt lat="47.21382" lon="-1.70046">
        <ele>23.802</ele>
        <time>2019-11-09T12:41:27Z</time>
      </trkpt>
      <trkpt lat="47.21385" lon="-1.69922">
        <ele>29.692</ele>
        <time>2019-11-09T12:42:00Z</time>
      </trkpt>
      <trkpt lat="47.21366" lon="-1.69767">
        <ele>36.659</ele>
        <time>2019-11-09T12:42:33Z</time>
      </trkpt>
      <trkpt lat="47.21333" lon="-1.69513">
        <ele>37.632</ele>
        <time>2019-11-09T12:43:06Z</time>
      </trkpt>
      <trkpt lat="47.21327" lon="-1.69393">
        <ele>31.387</ele>
        <time>2019-11-09T12:43:39Z</time>
      </trkpt>
      <trkpt lat="47.21344" lon="-1.69224">
        <ele>32.703</ele>
        <time>2019-11-09T12:44:12Z</time>
      </trkpt>
      <trkpt lat="47.21389" lon="-1.69041">
        <ele>38.338</ele>
        <time>2019-11-09T12:44:42Z</time>
      </trkpt>
      <trkpt lat="47.21439" lon="-1.6884">
        <ele>38.964</ele>
        <time>2019-11-09T12:45:15Z</time>
      </trkpt>
      <trkpt lat="47.21486" lon="-1.68611">
        <ele>42.167</ele>
        <time>2019-11-09T12:45:48Z</time>
      </trkpt>
      <trkpt lat="47.21525" lon="-1.68389">
        <ele>43.689</ele>
        <time>2019-11-09T12:46:21Z</time>
      </trkpt>
      <trkpt lat="47.21555" lon="-1.68444">
        <ele>36.843</ele>
        <time>2019-11-09T12:47:21Z</time>
      </trkpt>
      <trkpt lat="47.21554" lon="-1.68438">
        <ele>32.422</ele>
        <time>2019-11-09T12:52:15Z</time>
      </trkpt>
      <trkpt lat="47.21503" lon="-1.68503">
        <ele>27.239</ele>
        <time>2019-11-09T13:22:48Z</time>
      </trkpt>
      <trkpt lat="47.21533" lon="-1.68354">
        <ele>28.539</ele>
        <time>2019-11-09T13:23:21Z</time>
      </trkpt>
      <trkpt lat="47.21548" lon="-1.6817">
        <ele>30.681</ele>
        <time>2019-11-09T13:23:54Z</time>
      </trkpt>
      <trkpt lat="47.2168" lon="-1.68191">
        <ele>43.914</ele>
        <time>2019-11-09T13:24:27Z</time>
      </trkpt>
      <trkpt lat="47.21867" lon="-1.68217">
        <ele>27.367</ele>
        <time>2019-11-09T13:25:00Z</time>
      </trkpt>
      <trkpt lat="47.22021" lon="-1.68117">
        <ele>13.245</ele>
        <time>2019-11-09T13:25:33Z</time>
      </trkpt>
      <trkpt lat="47.22141" lon="-1.67972">
        <ele>19.651</ele>
        <time>2019-11-09T13:26:06Z</time>
      </trkpt>
      <trkpt lat="47.22307" lon="-1.6786">
        <ele>12.414</ele>
        <time>2019-11-09T13:26:36Z</time>
      </trkpt>
      <trkpt lat="47.22458" lon="-1.67814">
        <ele>17.995</ele>
        <time>2019-11-09T13:27:09Z</time>
      </trkpt>
      <trkpt lat="47.22565" lon="-1.6782">
        <ele>28.336</ele>
        <time>2019-11-09T13:27:42Z</time>
      </trkpt>
      <trkpt lat="47.2267" lon="-1.67815">
        <ele>33.716</ele>
        <time>2019-11-09T13:28:15Z</time>
      </trkpt>
      <trkpt lat="47.22772" lon="-1.6779">
        <ele>32.782</ele>
        <time>2019-11-09T13:28:48Z</time>
      </trkpt>
      <trkpt lat="47.22856" lon="-1.67759">
        <ele>30.15</ele>
        <time>2019-11-09T13:29:21Z</time>
      </trkpt>
      <trkpt lat="47.22942" lon="-1.67698">
        <ele>32.212</ele>
        <time>2019-11-09T13:29:54Z</time>
      </trkpt>
      <trkpt lat="47.23053" lon="-1.67592">
        <ele>31.645</ele>
        <time>2019-11-09T13:30:27Z</time>
      </trkpt>
      <trkpt lat="47.23147" lon="-1.67477">
        <ele>29.369</ele>
        <time>2019-11-09T13:31:00Z</time>
      </trkpt>
      <trkpt lat="47.23224" lon="-1.67396">
        <ele>33.276</ele>
        <time>2019-11-09T13:31:33Z</time>
      </trkpt>
      <trkpt lat="47.23294" lon="-1.67346">
        <ele>38.476</ele>
        <time>2019-11-09T13:32:06Z</time>
      </trkpt>
      <trkpt lat="47.23379" lon="-1.67286">
        <ele>43.984</ele>
        <time>2019-11-09T13:32:39Z</time>
      </trkpt>
      <trkpt lat="47.23496" lon="-1.67206">
        <ele>48.273</ele>
        <time>2019-11-09T13:33:12Z</time>
      </trkpt>
      <trkpt lat="47.23643" lon="-1.6715">
        <ele>50.586</ele>
        <time>2019-11-09T13:33:42Z</time>
      </trkpt>
      <trkpt lat="47.23806" lon="-1.67126">
        <ele>53.636</ele>
        <time>2019-11-09T13:34:15Z</time>
      </trkpt>
      <trkpt lat="47.23937" lon="-1.67169">
        <ele>59.767</ele>
        <time>2019-11-09T13:34:48Z</time>
      </trkpt>
      <trkpt lat="47.24096" lon="-1.67276">
        <ele>63.589</ele>
        <time>2019-11-09T13:35:21Z</time>
      </trkpt>
      <trkpt lat="47.24241" lon="-1.67185">
        <ele>45.977</ele>
        <time>2019-11-09T13:35:54Z</time>
      </trkpt>
      <trkpt lat="47.24329" lon="-1.67222">
        <ele>43.899</ele>
        <time>2019-11-09T13:36:27Z</time>
      </trkpt>
      <trkpt lat="47.24333" lon="-1.67193">
        <ele>45.185</ele>
        <time>2019-11-09T13:39:33Z</time>
      </trkpt>
      <trkpt lat="47.2434" lon="-1.67194">
        <ele>47.935</ele>
        <time>2019-11-09T13:51:39Z</time>
      </trkpt>
      <trkpt lat="47.24301" lon="-1.67186">
        <ele>47.708</ele>
        <time>2019-11-09T13:53:43Z</time>
      </trkpt>
      <trkpt lat="47.24309" lon="-1.67181">
        <ele>53.526</ele>
        <time>2019-11-09T13:55:16Z</time>
      </trkpt>
      <trkpt lat="47.24355" lon="-1.67188">
        <ele>67.173</ele>
        <time>2019-11-09T13:59:41Z</time>
      </trkpt>
      <trkpt lat="47.24346" lon="-1.67184">
        <ele>62.863</ele>
        <time>2019-11-09T14:02:26Z</time>
      </trkpt>
      <trkpt lat="47.24315" lon="-1.67186">
        <ele>54.107</ele>
        <time>2019-11-09T14:04:02Z</time>
      </trkpt>
    </trkseg>
  </trk>
  <trk>
    <name><![CDATA[Tracé 20191110-082411]]></name>
    <trkseg>
      <trkpt lat="47.24335" lon="-1.6721">
        <ele>72.611</ele>
        <time>2019-11-10T07:26:05Z</time>
      </trkpt>
      <trkpt lat="47.24299" lon="-1.67239">
        <ele>63.547</ele>
        <time>2019-11-10T07:26:47Z</time>
      </trkpt>
      <trkpt lat="47.24243" lon="-1.67122">
        <ele>50.865</ele>
        <time>2019-11-10T07:27:20Z</time>
      </trkpt>
      <trkpt lat="47.24262" lon="-1.66944">
        <ele>50.729</ele>
        <time>2019-11-10T07:27:53Z</time>
      </trkpt>
      <trkpt lat="47.24358" lon="-1.66865">
        <ele>52.41</ele>
        <time>2019-11-10T07:28:26Z</time>
      </trkpt>
      <trkpt lat="47.24531" lon="-1.67034">
        <ele>49.411</ele>
        <time>2019-11-10T07:28:59Z</time>
      </trkpt>
      <trkpt lat="47.24685" lon="-1.6697">
        <ele>49.799</ele>
        <time>2019-11-10T07:29:32Z</time>
      </trkpt>
      <trkpt lat="47.24864" lon="-1.66838">
        <ele>48.008</ele>
        <time>2019-11-10T07:30:05Z</time>
      </trkpt>
      <trkpt lat="47.25064" lon="-1.66793">
        <ele>47.729</ele>
        <time>2019-11-10T07:30:38Z</time>
      </trkpt>
      <trkpt lat="47.25295" lon="-1.66849">
        <ele>45.504</ele>
        <time>2019-11-10T07:31:11Z</time>
      </trkpt>
      <trkpt lat="47.25401" lon="-1.66863">
        <ele>51.214</ele>
        <time>2019-11-10T07:31:44Z</time>
      </trkpt>
      <trkpt lat="47.2551" lon="-1.6688">
        <ele>54.915</ele>
        <time>2019-11-10T07:32:17Z</time>
      </trkpt>
      <trkpt lat="47.25625" lon="-1.66894">
        <ele>57.808</ele>
        <time>2019-11-10T07:32:50Z</time>
      </trkpt>
      <trkpt lat="47.2574" lon="-1.669">
        <ele>57.301</ele>
        <time>2019-11-10T07:33:23Z</time>
      </trkpt>
      <trkpt lat="47.2584" lon="-1.66916">
        <ele>57.938</ele>
        <time>2019-11-10T07:33:56Z</time>
      </trkpt>
      <trkpt lat="47.2594" lon="-1.66954">
        <ele>62.785</ele>
        <time>2019-11-10T07:34:29Z</time>
      </trkpt>
      <trkpt lat="47.26037" lon="-1.66997">
        <ele>62.85</ele>
        <time>2019-11-10T07:35:02Z</time>
      </trkpt>
      <trkpt lat="47.26132" lon="-1.6704">
        <ele>68.14</ele>
        <time>2019-11-10T07:35:35Z</time>
      </trkpt>
      <trkpt lat="47.2621" lon="-1.67113">
        <ele>73.705</ele>
        <time>2019-11-10T07:36:08Z</time>
      </trkpt>
      <trkpt lat="47.26247" lon="-1.67292">
        <ele>70.298</ele>
        <time>2019-11-10T07:36:41Z</time>
      </trkpt>
      <trkpt lat="47.26292" lon="-1.67525">
        <ele>67.536</ele>
        <time>2019-11-10T07:37:14Z</time>
      </trkpt>
      <trkpt lat="47.26336" lon="-1.67733">
        <ele>69.713</ele>
        <time>2019-11-10T07:37:47Z</time>
      </trkpt>
      <trkpt lat="47.26389" lon="-1.679">
        <ele>68.504</ele>
        <time>2019-11-10T07:38:20Z</time>
      </trkpt>
      <trkpt lat="47.26485" lon="-1.67968">
        <ele>71.183</ele>
        <time>2019-11-10T07:38:53Z</time>
      </trkpt>
      <trkpt lat="47.26584" lon="-1.67968">
        <ele>72.026</ele>
        <time>2019-11-10T07:39:26Z</time>
      </trkpt>
      <trkpt lat="47.26646" lon="-1.68149">
        <ele>70.728</ele>
        <time>2019-11-10T07:39:59Z</time>
      </trkpt>
      <trkpt lat="47.26712" lon="-1.68347">
        <ele>68.888</ele>
        <time>2019-11-10T07:40:32Z</time>
      </trkpt>
      <trkpt lat="47.26805" lon="-1.68525">
        <ele>66.331</ele>
        <time>2019-11-10T07:41:05Z</time>
      </trkpt>
      <trkpt lat="47.26942" lon="-1.68673">
        <ele>62.552</ele>
        <time>2019-11-10T07:41:38Z</time>
      </trkpt>
      <trkpt lat="47.27071" lon="-1.6876">
        <ele>66.586</ele>
        <time>2019-11-10T07:42:11Z</time>
      </trkpt>
      <trkpt lat="47.27106" lon="-1.68931">
        <ele>72.024</ele>
        <time>2019-11-10T07:42:44Z</time>
      </trkpt>
      <trkpt lat="47.27139" lon="-1.69056">
        <ele>73.702</ele>
        <time>2019-11-10T07:47:14Z</time>
      </trkpt>
      <trkpt lat="47.27192" lon="-1.69245">
        <ele>64.619</ele>
        <time>2019-11-10T07:47:47Z</time>
      </trkpt>
      <trkpt lat="47.27259" lon="-1.6946">
        <ele>67.396</ele>
        <time>2019-11-10T07:48:20Z</time>
      </trkpt>
      <trkpt lat="47.27378" lon="-1.69694">
        <ele>67.881</ele>
        <time>2019-11-10T07:48:53Z</time>
      </trkpt>
      <trkpt lat="47.27497" lon="-1.69848">
        <ele>57.566</ele>
        <time>2019-11-10T07:49:26Z</time>
      </trkpt>
      <trkpt lat="47.27704" lon="-1.69754">
        <ele>57.897</ele>
        <time>2019-11-10T07:49:59Z</time>
      </trkpt>
      <trkpt lat="47.27801" lon="-1.69762">
        <ele>68.61</ele>
        <time>2019-11-10T07:50:35Z</time>
      </trkpt>
      <trkpt lat="47.27835" lon="-1.6991">
        <ele>70.568</ele>
        <time>2019-11-10T07:51:08Z</time>
      </trkpt>
      <trkpt lat="47.27864" lon="-1.7007">
        <ele>69.805</ele>
        <time>2019-11-10T07:51:41Z</time>
      </trkpt>
      <trkpt lat="47.27939" lon="-1.70217">
        <ele>72.93</ele>
        <time>2019-11-10T07:52:14Z</time>
      </trkpt>
      <trkpt lat="47.28013" lon="-1.70329">
        <ele>75.158</ele>
        <time>2019-11-10T07:52:47Z</time>
      </trkpt>
      <trkpt lat="47.28085" lon="-1.70444">
        <ele>77.043</ele>
        <time>2019-11-10T07:53:20Z</time>
      </trkpt>
      <trkpt lat="47.28164" lon="-1.7057">
        <ele>79.34</ele>
        <time>2019-11-10T07:53:53Z</time>
      </trkpt>
      <trkpt lat="47.28279" lon="-1.70577">
        <ele>73.726</ele>
        <time>2019-11-10T07:54:26Z</time>
      </trkpt>
      <trkpt lat="47.28443" lon="-1.70524">
        <ele>71.975</ele>
        <time>2019-11-10T07:54:59Z</time>
      </trkpt>
      <trkpt lat="47.28588" lon="-1.70542">
        <ele>78.829</ele>
        <time>2019-11-10T07:55:32Z</time>
      </trkpt>
      <trkpt lat="47.28803" lon="-1.70519">
        <ele>72.147</ele>
        <time>2019-11-10T07:56:05Z</time>
      </trkpt>
      <trkpt lat="47.28994" lon="-1.70463">
        <ele>66.999</ele>
        <time>2019-11-10T07:56:38Z</time>
      </trkpt>
      <trkpt lat="47.29241" lon="-1.70373">
        <ele>62.446</ele>
        <time>2019-11-10T07:57:11Z</time>
      </trkpt>
      <trkpt lat="47.29472" lon="-1.70365">
        <ele>56.179</ele>
        <time>2019-11-10T07:57:44Z</time>
      </trkpt>
      <trkpt lat="47.29562" lon="-1.70562">
        <ele>61.352</ele>
        <time>2019-11-10T07:58:17Z</time>
      </trkpt>
      <trkpt lat="47.29599" lon="-1.70665">
        <ele>64.202</ele>
        <time>2019-11-10T07:58:50Z</time>
      </trkpt>
      <trkpt lat="47.29629" lon="-1.70766">
        <ele>73.956</ele>
        <time>2019-11-10T07:59:23Z</time>
      </trkpt>
      <trkpt lat="47.29709" lon="-1.70852">
        <ele>78.786</ele>
        <time>2019-11-10T07:59:56Z</time>
      </trkpt>
      <trkpt lat="47.29815" lon="-1.70909">
        <ele>75.201</ele>
        <time>2019-11-10T08:00:29Z</time>
      </trkpt>
      <trkpt lat="47.29888" lon="-1.70952">
        <ele>76.519</ele>
        <time>2019-11-10T08:01:02Z</time>
      </trkpt>
      <trkpt lat="47.29984" lon="-1.71001">
        <ele>75.165</ele>
        <time>2019-11-10T08:01:35Z</time>
      </trkpt>
      <trkpt lat="47.30081" lon="-1.71058">
        <ele>76.455</ele>
        <time>2019-11-10T08:02:08Z</time>
      </trkpt>
      <trkpt lat="47.30185" lon="-1.71114">
        <ele>80.296</ele>
        <time>2019-11-10T08:02:41Z</time>
      </trkpt>
      <trkpt lat="47.30301" lon="-1.71152">
        <ele>79.74</ele>
        <time>2019-11-10T08:03:14Z</time>
      </trkpt>
      <trkpt lat="47.30459" lon="-1.71051">
        <ele>76.85</ele>
        <time>2019-11-10T08:03:47Z</time>
      </trkpt>
      <trkpt lat="47.30655" lon="-1.71002">
        <ele>72.017</ele>
        <time>2019-11-10T08:04:20Z</time>
      </trkpt>
      <trkpt lat="47.30862" lon="-1.70955">
        <ele>64.742</ele>
        <time>2019-11-10T08:04:53Z</time>
      </trkpt>
      <trkpt lat="47.31046" lon="-1.70887">
        <ele>62.365</ele>
        <time>2019-11-10T08:05:26Z</time>
      </trkpt>
      <trkpt lat="47.31146" lon="-1.70755">
        <ele>68.687</ele>
        <time>2019-11-10T08:05:59Z</time>
      </trkpt>
      <trkpt lat="47.3123" lon="-1.70663">
        <ele>72.468</ele>
        <time>2019-11-10T08:06:32Z</time>
      </trkpt>
      <trkpt lat="47.31321" lon="-1.70571">
        <ele>71.225</ele>
        <time>2019-11-10T08:07:05Z</time>
      </trkpt>
      <trkpt lat="47.31405" lon="-1.70455">
        <ele>73.365</ele>
        <time>2019-11-10T08:07:38Z</time>
      </trkpt>
      <trkpt lat="47.31494" lon="-1.70297">
        <ele>77.49</ele>
        <time>2019-11-10T08:08:11Z</time>
      </trkpt>
      <trkpt lat="47.31592" lon="-1.70154">
        <ele>77.604</ele>
        <time>2019-11-10T08:08:44Z</time>
      </trkpt>
      <trkpt lat="47.31695" lon="-1.70032">
        <ele>76.88</ele>
        <time>2019-11-10T08:09:17Z</time>
      </trkpt>
      <trkpt lat="47.31845" lon="-1.69889">
        <ele>76.7</ele>
        <time>2019-11-10T08:09:50Z</time>
      </trkpt>
      <trkpt lat="47.31999" lon="-1.69722">
        <ele>76.91</ele>
        <time>2019-11-10T08:10:23Z</time>
      </trkpt>
      <trkpt lat="47.32145" lon="-1.69609">
        <ele>74.183</ele>
        <time>2019-11-10T08:10:59Z</time>
      </trkpt>
      <trkpt lat="47.32381" lon="-1.69801">
        <ele>65.359</ele>
        <time>2019-11-10T08:11:32Z</time>
      </trkpt>
      <trkpt lat="47.32737" lon="-1.69834">
        <ele>44.111</ele>
        <time>2019-11-10T08:12:05Z</time>
      </trkpt>
      <trkpt lat="47.32844" lon="-1.69774">
        <ele>46.877</ele>
        <time>2019-11-10T08:12:38Z</time>
      </trkpt>
      <trkpt lat="47.32924" lon="-1.69723">
        <ele>54.114</ele>
        <time>2019-11-10T08:13:11Z</time>
      </trkpt>
      <trkpt lat="47.32998" lon="-1.6969">
        <ele>58.603</ele>
        <time>2019-11-10T08:13:44Z</time>
      </trkpt>
      <trkpt lat="47.33075" lon="-1.69687">
        <ele>61.711</ele>
        <time>2019-11-10T08:14:17Z</time>
      </trkpt>
      <trkpt lat="47.33158" lon="-1.69671">
        <ele>65.454</ele>
        <time>2019-11-10T08:14:50Z</time>
      </trkpt>
      <trkpt lat="47.33256" lon="-1.69658">
        <ele>70.333</ele>
        <time>2019-11-10T08:15:23Z</time>
      </trkpt>
      <trkpt lat="47.33354" lon="-1.69657">
        <ele>76.107</ele>
        <time>2019-11-10T08:15:56Z</time>
      </trkpt>
      <trkpt lat="47.33448" lon="-1.69748">
        <ele>72.822</ele>
        <time>2019-11-10T08:16:29Z</time>
      </trkpt>
      <trkpt lat="47.33552" lon="-1.69858">
        <ele>71.116</ele>
        <time>2019-11-10T08:17:02Z</time>
      </trkpt>
      <trkpt lat="47.33682" lon="-1.69967">
        <ele>69.251</ele>
        <time>2019-11-10T08:17:35Z</time>
      </trkpt>
      <trkpt lat="47.33796" lon="-1.70067">
        <ele>73.201</ele>
        <time>2019-11-10T08:18:08Z</time>
      </trkpt>
      <trkpt lat="47.33914" lon="-1.70077">
        <ele>72.373</ele>
        <time>2019-11-10T08:18:41Z</time>
      </trkpt>
      <trkpt lat="47.34141" lon="-1.69951">
        <ele>65.962</ele>
        <time>2019-11-10T08:19:14Z</time>
      </trkpt>
      <trkpt lat="47.34332" lon="-1.6984">
        <ele>63.697</ele>
        <time>2019-11-10T08:19:47Z</time>
      </trkpt>
      <trkpt lat="47.34421" lon="-1.69783">
        <ele>71.36</ele>
        <time>2019-11-10T08:20:20Z</time>
      </trkpt>
      <trkpt lat="47.34503" lon="-1.69737">
        <ele>77.834</ele>
        <time>2019-11-10T08:20:53Z</time>
      </trkpt>
      <trkpt lat="47.34585" lon="-1.69686">
        <ele>76.73</ele>
        <time>2019-11-10T08:21:26Z</time>
      </trkpt>
      <trkpt lat="47.34674" lon="-1.69636">
        <ele>75.83</ele>
        <time>2019-11-10T08:21:59Z</time>
      </trkpt>
      <trkpt lat="47.34797" lon="-1.69637">
        <ele>75.467</ele>
        <time>2019-11-10T08:22:32Z</time>
      </trkpt>
      <trkpt lat="47.34938" lon="-1.69649">
        <ele>79.46</ele>
        <time>2019-11-10T08:23:05Z</time>
      </trkpt>
      <trkpt lat="47.35083" lon="-1.69667">
        <ele>75.666</ele>
        <time>2019-11-10T08:23:38Z</time>
      </trkpt>
      <trkpt lat="47.35235" lon="-1.69679">
        <ele>73.808</ele>
        <time>2019-11-10T08:24:11Z</time>
      </trkpt>
      <trkpt lat="47.35387" lon="-1.69695">
        <ele>77.35</ele>
        <time>2019-11-10T08:24:44Z</time>
      </trkpt>
      <trkpt lat="47.35547" lon="-1.69705">
        <ele>73.918</ele>
        <time>2019-11-10T08:25:17Z</time>
      </trkpt>
      <trkpt lat="47.35755" lon="-1.6979">
        <ele>67.24</ele>
        <time>2019-11-10T08:25:50Z</time>
      </trkpt>
      <trkpt lat="47.35943" lon="-1.69873">
        <ele>65.648</ele>
        <time>2019-11-10T08:26:23Z</time>
      </trkpt>
      <trkpt lat="47.36101" lon="-1.69943">
        <ele>66.377</ele>
        <time>2019-11-10T08:26:56Z</time>
      </trkpt>
      <trkpt lat="47.3625" lon="-1.7">
        <ele>66.984</ele>
        <time>2019-11-10T08:27:29Z</time>
      </trkpt>
      <trkpt lat="47.36415" lon="-1.7007">
        <ele>68.203</ele>
        <time>2019-11-10T08:28:02Z</time>
      </trkpt>
      <trkpt lat="47.36585" lon="-1.70155">
        <ele>67.318</ele>
        <time>2019-11-10T08:28:35Z</time>
      </trkpt>
      <trkpt lat="47.36759" lon="-1.7022">
        <ele>66.332</ele>
        <time>2019-11-10T08:29:08Z</time>
      </trkpt>
      <trkpt lat="47.36917" lon="-1.70379">
        <ele>60.927</ele>
        <time>2019-11-10T08:29:41Z</time>
      </trkpt>
      <trkpt lat="47.37095" lon="-1.70441">
        <ele>60.075</ele>
        <time>2019-11-10T08:30:14Z</time>
      </trkpt>
      <trkpt lat="47.37319" lon="-1.70506">
        <ele>54.9</ele>
        <time>2019-11-10T08:30:47Z</time>
      </trkpt>
      <trkpt lat="47.37515" lon="-1.70604">
        <ele>51.388</ele>
        <time>2019-11-10T08:31:23Z</time>
      </trkpt>
      <trkpt lat="47.37599" lon="-1.7065">
        <ele>58.817</ele>
        <time>2019-11-10T08:31:56Z</time>
      </trkpt>
      <trkpt lat="47.3768" lon="-1.70687">
        <ele>62.727</ele>
        <time>2019-11-10T08:32:29Z</time>
      </trkpt>
      <trkpt lat="47.37769" lon="-1.70732">
        <ele>64.415</ele>
        <time>2019-11-10T08:33:02Z</time>
      </trkpt>
      <trkpt lat="47.37882" lon="-1.70791">
        <ele>63.666</ele>
        <time>2019-11-10T08:33:35Z</time>
      </trkpt>
      <trkpt lat="47.38017" lon="-1.70881">
        <ele>65.189</ele>
        <time>2019-11-10T08:34:08Z</time>
      </trkpt>
      <trkpt lat="47.38164" lon="-1.70991">
        <ele>63.281</ele>
        <time>2019-11-10T08:34:41Z</time>
      </trkpt>
      <trkpt lat="47.38326" lon="-1.71109">
        <ele>61.309</ele>
        <time>2019-11-10T08:35:14Z</time>
      </trkpt>
      <trkpt lat="47.38493" lon="-1.71234">
        <ele>57.28</ele>
        <time>2019-11-10T08:35:47Z</time>
      </trkpt>
      <trkpt lat="47.38667" lon="-1.71363">
        <ele>53.447</ele>
        <time>2019-11-10T08:36:20Z</time>
      </trkpt>
      <trkpt lat="47.38831" lon="-1.71476">
        <ele>51.176</ele>
        <time>2019-11-10T08:36:53Z</time>
      </trkpt>
      <trkpt lat="47.38999" lon="-1.71579">
        <ele>53.068</ele>
        <time>2019-11-10T08:37:26Z</time>
      </trkpt>
      <trkpt lat="47.39162" lon="-1.71667">
        <ele>53.62</ele>
        <time>2019-11-10T08:37:59Z</time>
      </trkpt>
      <trkpt lat="47.39317" lon="-1.71762">
        <ele>54.801</ele>
        <time>2019-11-10T08:38:32Z</time>
      </trkpt>
      <trkpt lat="47.39461" lon="-1.71867">
        <ele>53.857</ele>
        <time>2019-11-10T08:39:05Z</time>
      </trkpt>
      <trkpt lat="47.39587" lon="-1.72019">
        <ele>54.122</ele>
        <time>2019-11-10T08:39:38Z</time>
      </trkpt>
      <trkpt lat="47.397" lon="-1.72196">
        <ele>53.773</ele>
        <time>2019-11-10T08:40:11Z</time>
      </trkpt>
      <trkpt lat="47.39825" lon="-1.72354">
        <ele>55.456</ele>
        <time>2019-11-10T08:40:44Z</time>
      </trkpt>
      <trkpt lat="47.39969" lon="-1.72496">
        <ele>52.238</ele>
        <time>2019-11-10T08:41:17Z</time>
      </trkpt>
      <trkpt lat="47.40115" lon="-1.7263">
        <ele>50.351</ele>
        <time>2019-11-10T08:41:50Z</time>
      </trkpt>
      <trkpt lat="47.40286" lon="-1.7278">
        <ele>47.814</ele>
        <time>2019-11-10T08:42:23Z</time>
      </trkpt>
      <trkpt lat="47.40482" lon="-1.7296">
        <ele>40.523</ele>
        <time>2019-11-10T08:42:56Z</time>
      </trkpt>
      <trkpt lat="47.40653" lon="-1.73123">
        <ele>38.265</ele>
        <time>2019-11-10T08:43:29Z</time>
      </trkpt>
      <trkpt lat="47.40777" lon="-1.73303">
        <ele>37.834</ele>
        <time>2019-11-10T08:44:02Z</time>
      </trkpt>
      <trkpt lat="47.40874" lon="-1.73467">
        <ele>39.392</ele>
        <time>2019-11-10T08:44:35Z</time>
      </trkpt>
      <trkpt lat="47.40993" lon="-1.73545">
        <ele>47.48</ele>
        <time>2019-11-10T08:45:08Z</time>
      </trkpt>
      <trkpt lat="47.41124" lon="-1.73627">
        <ele>45.92</ele>
        <time>2019-11-10T08:45:41Z</time>
      </trkpt>
      <trkpt lat="47.41245" lon="-1.73702">
        <ele>45.373</ele>
        <time>2019-11-10T08:46:14Z</time>
      </trkpt>
      <trkpt lat="47.41369" lon="-1.73756">
        <ele>47.932</ele>
        <time>2019-11-10T08:46:47Z</time>
      </trkpt>
      <trkpt lat="47.41509" lon="-1.73772">
        <ele>50.319</ele>
        <time>2019-11-10T08:47:20Z</time>
      </trkpt>
      <trkpt lat="47.41646" lon="-1.73783">
        <ele>49.654</ele>
        <time>2019-11-10T08:47:53Z</time>
      </trkpt>
      <trkpt lat="47.41793" lon="-1.7393">
        <ele>41.691</ele>
        <time>2019-11-10T08:48:26Z</time>
      </trkpt>
      <trkpt lat="47.41966" lon="-1.74124">
        <ele>35.345</ele>
        <time>2019-11-10T08:48:59Z</time>
      </trkpt>
      <trkpt lat="47.42178" lon="-1.74274">
        <ele>29.868</ele>
        <time>2019-11-10T08:49:32Z</time>
      </trkpt>
      <trkpt lat="47.42344" lon="-1.74386">
        <ele>30.944</ele>
        <time>2019-11-10T08:50:05Z</time>
      </trkpt>
      <trkpt lat="47.42472" lon="-1.74469">
        <ele>34.38</ele>
        <time>2019-11-10T08:50:38Z</time>
      </trkpt>
      <trkpt lat="47.42609" lon="-1.74544">
        <ele>34.582</ele>
        <time>2019-11-10T08:51:14Z</time>
      </trkpt>
      <trkpt lat="47.42739" lon="-1.74577">
        <ele>36.22</ele>
        <time>2019-11-10T08:51:47Z</time>
      </trkpt>
      <trkpt lat="47.4287" lon="-1.74643">
        <ele>38.683</ele>
        <time>2019-11-10T08:52:20Z</time>
      </trkpt>
      <trkpt lat="47.42991" lon="-1.74749">
        <ele>37.151</ele>
        <time>2019-11-10T08:52:53Z</time>
      </trkpt>
      <trkpt lat="47.43101" lon="-1.7488">
        <ele>34.979</ele>
        <time>2019-11-10T08:53:26Z</time>
      </trkpt>
      <trkpt lat="47.43215" lon="-1.75023">
        <ele>36.278</ele>
        <time>2019-11-10T08:53:59Z</time>
      </trkpt>
      <trkpt lat="47.43339" lon="-1.75216">
        <ele>32.896</ele>
        <time>2019-11-10T08:54:32Z</time>
      </trkpt>
      <trkpt lat="47.43469" lon="-1.75381">
        <ele>33.831</ele>
        <time>2019-11-10T08:55:05Z</time>
      </trkpt>
      <trkpt lat="47.43582" lon="-1.75523">
        <ele>40.027</ele>
        <time>2019-11-10T08:55:38Z</time>
      </trkpt>
      <trkpt lat="47.43707" lon="-1.75703">
        <ele>33.03</ele>
        <time>2019-11-10T08:56:11Z</time>
      </trkpt>
      <trkpt lat="47.43831" lon="-1.7588">
        <ele>29.372</ele>
        <time>2019-11-10T08:56:44Z</time>
      </trkpt>
      <trkpt lat="47.43962" lon="-1.76014">
        <ele>32.243</ele>
        <time>2019-11-10T08:57:17Z</time>
      </trkpt>
      <trkpt lat="47.44105" lon="-1.76158">
        <ele>35.827</ele>
        <time>2019-11-10T08:57:50Z</time>
      </trkpt>
      <trkpt lat="47.44236" lon="-1.76288">
        <ele>34.065</ele>
        <time>2019-11-10T08:58:23Z</time>
      </trkpt>
      <trkpt lat="47.44369" lon="-1.76422">
        <ele>30.084</ele>
        <time>2019-11-10T08:58:56Z</time>
      </trkpt>
      <trkpt lat="47.4451" lon="-1.76563">
        <ele>25.757</ele>
        <time>2019-11-10T08:59:29Z</time>
      </trkpt>
      <trkpt lat="47.44654" lon="-1.76642">
        <ele>24.848</ele>
        <time>2019-11-10T09:00:02Z</time>
      </trkpt>
      <trkpt lat="47.44807" lon="-1.76657">
        <ele>24.428</ele>
        <time>2019-11-10T09:00:35Z</time>
      </trkpt>
      <trkpt lat="47.44966" lon="-1.76687">
        <ele>27.042</ele>
        <time>2019-11-10T09:01:08Z</time>
      </trkpt>
      <trkpt lat="47.45111" lon="-1.76742">
        <ele>27.713</ele>
        <time>2019-11-10T09:01:41Z</time>
      </trkpt>
      <trkpt lat="47.45215" lon="-1.76803">
        <ele>33.772</ele>
        <time>2019-11-10T09:02:14Z</time>
      </trkpt>
      <trkpt lat="47.45301" lon="-1.76853">
        <ele>35.779</ele>
        <time>2019-11-10T09:02:47Z</time>
      </trkpt>
      <trkpt lat="47.4538" lon="-1.76896">
        <ele>39.866</ele>
        <time>2019-11-10T09:03:20Z</time>
      </trkpt>
      <trkpt lat="47.45474" lon="-1.76919">
        <ele>42.303</ele>
        <time>2019-11-10T09:03:53Z</time>
      </trkpt>
      <trkpt lat="47.45642" lon="-1.76951">
        <ele>36.836</ele>
        <time>2019-11-10T09:04:26Z</time>
      </trkpt>
      <trkpt lat="47.45821" lon="-1.76983">
        <ele>31.908</ele>
        <time>2019-11-10T09:04:59Z</time>
      </trkpt>
      <trkpt lat="47.45986" lon="-1.77005">
        <ele>35.601</ele>
        <time>2019-11-10T09:05:32Z</time>
      </trkpt>
      <trkpt lat="47.46145" lon="-1.77041">
        <ele>36.822</ele>
        <time>2019-11-10T09:06:05Z</time>
      </trkpt>
      <trkpt lat="47.46312" lon="-1.77046">
        <ele>37.017</ele>
        <time>2019-11-10T09:06:38Z</time>
      </trkpt>
      <trkpt lat="47.46511" lon="-1.77018">
        <ele>38.385</ele>
        <time>2019-11-10T09:07:11Z</time>
      </trkpt>
      <trkpt lat="47.46751" lon="-1.76891">
        <ele>20.665</ele>
        <time>2019-11-10T09:07:44Z</time>
      </trkpt>
      <trkpt lat="47.46964" lon="-1.76801">
        <ele>12.592</ele>
        <time>2019-11-10T09:08:17Z</time>
      </trkpt>
      <trkpt lat="47.47081" lon="-1.76701">
        <ele>22.497</ele>
        <time>2019-11-10T09:08:50Z</time>
      </trkpt>
      <trkpt lat="47.47267" lon="-1.76593">
        <ele>19.234</ele>
        <time>2019-11-10T09:09:26Z</time>
      </trkpt>
      <trkpt lat="47.4739" lon="-1.76523">
        <ele>24.833</ele>
        <time>2019-11-10T09:09:59Z</time>
      </trkpt>
      <trkpt lat="47.47417" lon="-1.76666">
        <ele>26.709</ele>
        <time>2019-11-10T09:10:32Z</time>
      </trkpt>
      <trkpt lat="47.47405" lon="-1.76743">
        <ele>22.312</ele>
        <time>2019-11-10T09:12:32.001Z</time>
      </trkpt>
      <trkpt lat="47.474" lon="-1.76737">
        <ele>23.298</ele>
        <time>2019-11-10T09:22:32.001Z</time>
      </trkpt>
      <trkpt lat="47.474" lon="-1.76737">
        <ele>23.298</ele>
        <time>2019-11-10T09:27:44.001Z</time>
      </trkpt>
      <trkpt lat="47.47479" lon="-1.76748">
        <ele>26.437</ele>
        <time>2019-11-10T09:29:41.001Z</time>
      </trkpt>
      <trkpt lat="47.4755" lon="-1.76727">
        <ele>32.112</ele>
        <time>2019-11-10T09:30:14.001Z</time>
      </trkpt>
      <trkpt lat="47.47539" lon="-1.76539">
        <ele>35.735</ele>
        <time>2019-11-10T09:30:47.001Z</time>
      </trkpt>
      <trkpt lat="47.47584" lon="-1.76474">
        <ele>41.392</ele>
        <time>2019-11-10T09:31:23.001Z</time>
      </trkpt>
      <trkpt lat="47.47707" lon="-1.765">
        <ele>46.337</ele>
        <time>2019-11-10T09:31:56.001Z</time>
      </trkpt>
      <trkpt lat="47.47842" lon="-1.76518">
        <ele>41.356</ele>
        <time>2019-11-10T09:32:29.001Z</time>
      </trkpt>
      <trkpt lat="47.4794" lon="-1.76537">
        <ele>46.81</ele>
        <time>2019-11-10T09:33:02Z</time>
      </trkpt>
      <trkpt lat="47.48021" lon="-1.76545">
        <ele>50.23</ele>
        <time>2019-11-10T09:33:35.001Z</time>
      </trkpt>
      <trkpt lat="47.48124" lon="-1.76557">
        <ele>50.831</ele>
        <time>2019-11-10T09:34:08.001Z</time>
      </trkpt>
      <trkpt lat="47.48265" lon="-1.76569">
        <ele>42.771</ele>
        <time>2019-11-10T09:34:41.001Z</time>
      </trkpt>
      <trkpt lat="47.48386" lon="-1.76601">
        <ele>43.066</ele>
        <time>2019-11-10T09:35:14.001Z</time>
      </trkpt>
      <trkpt lat="47.48516" lon="-1.76641">
        <ele>47.319</ele>
        <time>2019-11-10T09:35:47.001Z</time>
      </trkpt>
      <trkpt lat="47.48655" lon="-1.76722">
        <ele>45.742</ele>
        <time>2019-11-10T09:36:20.001Z</time>
      </trkpt>
      <trkpt lat="47.48803" lon="-1.76828">
        <ele>36.443</ele>
        <time>2019-11-10T09:36:53.001Z</time>
      </trkpt>
      <trkpt lat="47.48908" lon="-1.7694">
        <ele>36.041</ele>
        <time>2019-11-10T09:37:26.001Z</time>
      </trkpt>
      <trkpt lat="47.49004" lon="-1.77038">
        <ele>39.712</ele>
        <time>2019-11-10T09:37:59.001Z</time>
      </trkpt>
      <trkpt lat="47.49099" lon="-1.77135">
        <ele>42.238</ele>
        <time>2019-11-10T09:38:32.001Z</time>
      </trkpt>
      <trkpt lat="47.49209" lon="-1.77224">
        <ele>40.661</ele>
        <time>2019-11-10T09:39:05.001Z</time>
      </trkpt>
      <trkpt lat="47.49335" lon="-1.7732">
        <ele>43.585</ele>
        <time>2019-11-10T09:39:38.001Z</time>
      </trkpt>
      <trkpt lat="47.49507" lon="-1.77424">
        <ele>41.14</ele>
        <time>2019-11-10T09:40:11.001Z</time>
      </trkpt>
      <trkpt lat="47.49646" lon="-1.77553">
        <ele>35.212</ele>
        <time>2019-11-10T09:40:44.001Z</time>
      </trkpt>
      <trkpt lat="47.49807" lon="-1.77702">
        <ele>33.402</ele>
        <time>2019-11-10T09:41:17.001Z</time>
      </trkpt>
      <trkpt lat="47.49962" lon="-1.77849">
        <ele>32.516</ele>
        <time>2019-11-10T09:41:50.001Z</time>
      </trkpt>
      <trkpt lat="47.50058" lon="-1.77983">
        <ele>35.474</ele>
        <time>2019-11-10T09:42:23.001Z</time>
      </trkpt>
      <trkpt lat="47.50158" lon="-1.78134">
        <ele>41.586</ele>
        <time>2019-11-10T09:42:56.001Z</time>
      </trkpt>
      <trkpt lat="47.50268" lon="-1.78286">
        <ele>39.204</ele>
        <time>2019-11-10T09:43:29.001Z</time>
      </trkpt>
      <trkpt lat="47.50394" lon="-1.78472">
        <ele>42.02</ele>
        <time>2019-11-10T09:44:02Z</time>
      </trkpt>
      <trkpt lat="47.50504" lon="-1.78642">
        <ele>50.628</ele>
        <time>2019-11-10T09:44:35.001Z</time>
      </trkpt>
      <trkpt lat="47.50598" lon="-1.78777">
        <ele>54.676</ele>
        <time>2019-11-10T09:45:08.001Z</time>
      </trkpt>
      <trkpt lat="47.50689" lon="-1.78905">
        <ele>48.406</ele>
        <time>2019-11-10T09:45:41.001Z</time>
      </trkpt>
      <trkpt lat="47.5077" lon="-1.79021">
        <ele>48.935</ele>
        <time>2019-11-10T09:46:14.001Z</time>
      </trkpt>
      <trkpt lat="47.50853" lon="-1.79151">
        <ele>51.267</ele>
        <time>2019-11-10T09:46:47.001Z</time>
      </trkpt>
      <trkpt lat="47.50933" lon="-1.79262">
        <ele>51.306</ele>
        <time>2019-11-10T09:47:20.001Z</time>
      </trkpt>
      <trkpt lat="47.51023" lon="-1.79389">
        <ele>50.357</ele>
        <time>2019-11-10T09:47:53.002Z</time>
      </trkpt>
      <trkpt lat="47.51141" lon="-1.79566">
        <ele>45.862</ele>
        <time>2019-11-10T09:48:26.001Z</time>
      </trkpt>
      <trkpt lat="47.51292" lon="-1.79784">
        <ele>36.971</ele>
        <time>2019-11-10T09:49:02Z</time>
      </trkpt>
      <trkpt lat="47.51426" lon="-1.79985">
        <ele>40.1</ele>
        <time>2019-11-10T09:49:35.001Z</time>
      </trkpt>
      <trkpt lat="47.51532" lon="-1.80137">
        <ele>44.57</ele>
        <time>2019-11-10T09:50:08.001Z</time>
      </trkpt>
      <trkpt lat="47.51643" lon="-1.80262">
        <ele>50.782</ele>
        <time>2019-11-10T09:50:41.001Z</time>
      </trkpt>
      <trkpt lat="47.51787" lon="-1.803">
        <ele>56.905</ele>
        <time>2019-11-10T09:51:14.001Z</time>
      </trkpt>
      <trkpt lat="47.51973" lon="-1.80316">
        <ele>62.295</ele>
        <time>2019-11-10T09:51:47.001Z</time>
      </trkpt>
      <trkpt lat="47.52203" lon="-1.8033">
        <ele>57.022</ele>
        <time>2019-11-10T09:52:20.001Z</time>
      </trkpt>
      <trkpt lat="47.52375" lon="-1.80347">
        <ele>45.28</ele>
        <time>2019-11-10T09:52:53.001Z</time>
      </trkpt>
      <trkpt lat="47.52481" lon="-1.80359">
        <ele>52.528</ele>
        <time>2019-11-10T09:53:26.001Z</time>
      </trkpt>
      <trkpt lat="47.52594" lon="-1.80368">
        <ele>58.206</ele>
        <time>2019-11-10T09:53:59.001Z</time>
      </trkpt>
      <trkpt lat="47.52708" lon="-1.80382">
        <ele>62.05</ele>
        <time>2019-11-10T09:54:32.001Z</time>
      </trkpt>
      <trkpt lat="47.52844" lon="-1.80387">
        <ele>50.635</ele>
        <time>2019-11-10T09:55:05.001Z</time>
      </trkpt>
      <trkpt lat="47.52989" lon="-1.80405">
        <ele>63.73</ele>
        <time>2019-11-10T09:55:38.001Z</time>
      </trkpt>
      <trkpt lat="47.53179" lon="-1.80422">
        <ele>55.9</ele>
        <time>2019-11-10T09:56:11.001Z</time>
      </trkpt>
      <trkpt lat="47.53338" lon="-1.80437">
        <ele>54.67</ele>
        <time>2019-11-10T09:56:44.001Z</time>
      </trkpt>
      <trkpt lat="47.53512" lon="-1.80453">
        <ele>46.543</ele>
        <time>2019-11-10T09:57:17.001Z</time>
      </trkpt>
      <trkpt lat="47.53679" lon="-1.80467">
        <ele>37.501</ele>
        <time>2019-11-10T09:57:50.001Z</time>
      </trkpt>
      <trkpt lat="47.53828" lon="-1.80483">
        <ele>42.616</ele>
        <time>2019-11-10T09:58:23.001Z</time>
      </trkpt>
      <trkpt lat="47.53962" lon="-1.80495">
        <ele>44.793</ele>
        <time>2019-11-10T09:58:56.001Z</time>
      </trkpt>
      <trkpt lat="47.54101" lon="-1.80511">
        <ele>53.698</ele>
        <time>2019-11-10T09:59:29.001Z</time>
      </trkpt>
      <trkpt lat="47.54247" lon="-1.80529">
        <ele>61.183</ele>
        <time>2019-11-10T10:00:02Z</time>
      </trkpt>
      <trkpt lat="47.54394" lon="-1.80541">
        <ele>63.442</ele>
        <time>2019-11-10T10:00:35.001Z</time>
      </trkpt>
      <trkpt lat="47.54526" lon="-1.80555">
        <ele>59.922</ele>
        <time>2019-11-10T10:01:08.001Z</time>
      </trkpt>
      <trkpt lat="47.5466" lon="-1.8056">
        <ele>53.846</ele>
        <time>2019-11-10T10:01:41.001Z</time>
      </trkpt>
      <trkpt lat="47.54822" lon="-1.80576">
        <ele>52.309</ele>
        <time>2019-11-10T10:02:14.001Z</time>
      </trkpt>
      <trkpt lat="47.55015" lon="-1.80594">
        <ele>44.599</ele>
        <time>2019-11-10T10:02:47.001Z</time>
      </trkpt>
      <trkpt lat="47.55214" lon="-1.8061">
        <ele>39.236</ele>
        <time>2019-11-10T10:03:20.001Z</time>
      </trkpt>
      <trkpt lat="47.55421" lon="-1.80633">
        <ele>33.773</ele>
        <time>2019-11-10T10:03:53.001Z</time>
      </trkpt>
      <trkpt lat="47.55548" lon="-1.80649">
        <ele>39.592</ele>
        <time>2019-11-10T10:04:26.001Z</time>
      </trkpt>
      <trkpt lat="47.55689" lon="-1.80661">
        <ele>39.491</ele>
        <time>2019-11-10T10:04:59.001Z</time>
      </trkpt>
      <trkpt lat="47.55824" lon="-1.80674">
        <ele>38.979</ele>
        <time>2019-11-10T10:05:32.001Z</time>
      </trkpt>
      <trkpt lat="47.55938" lon="-1.80719">
        <ele>46.124</ele>
        <time>2019-11-10T10:06:05.001Z</time>
      </trkpt>
      <trkpt lat="47.56047" lon="-1.80758">
        <ele>48.919</ele>
        <time>2019-11-10T10:06:38.001Z</time>
      </trkpt>
      <trkpt lat="47.56175" lon="-1.80808">
        <ele>50.823</ele>
        <time>2019-11-10T10:07:11.001Z</time>
      </trkpt>
      <trkpt lat="47.56353" lon="-1.80878">
        <ele>51.234</ele>
        <time>2019-11-10T10:07:44.001Z</time>
      </trkpt>
      <trkpt lat="47.56518" lon="-1.80944">
        <ele>47.003</ele>
        <time>2019-11-10T10:08:17.001Z</time>
      </trkpt>
      <trkpt lat="47.56669" lon="-1.80997">
        <ele>48.918</ele>
        <time>2019-11-10T10:08:50.001Z</time>
      </trkpt>
      <trkpt lat="47.56892" lon="-1.81057">
        <ele>44.569</ele>
        <time>2019-11-10T10:09:26.001Z</time>
      </trkpt>
      <trkpt lat="47.57062" lon="-1.81104">
        <ele>42.229</ele>
        <time>2019-11-10T10:09:59.001Z</time>
      </trkpt>
      <trkpt lat="47.57146" lon="-1.8113">
        <ele>39.55</ele>
        <time>2019-11-10T10:10:32.001Z</time>
      </trkpt>
      <trkpt lat="47.57261" lon="-1.81151">
        <ele>45.523</ele>
        <time>2019-11-10T10:11:05.001Z</time>
      </trkpt>
      <trkpt lat="47.57391" lon="-1.81165">
        <ele>45.756</ele>
        <time>2019-11-10T10:11:38.001Z</time>
      </trkpt>
      <trkpt lat="47.57537" lon="-1.81179">
        <ele>46.671</ele>
        <time>2019-11-10T10:12:11.001Z</time>
      </trkpt>
      <trkpt lat="47.57694" lon="-1.81196">
        <ele>46.445</ele>
        <time>2019-11-10T10:12:44.001Z</time>
      </trkpt>
      <trkpt lat="47.57813" lon="-1.8121">
        <ele>50.413</ele>
        <time>2019-11-10T10:13:17.001Z</time>
      </trkpt>
      <trkpt lat="47.57923" lon="-1.8122">
        <ele>58.294</ele>
        <time>2019-11-10T10:13:50.001Z</time>
      </trkpt>
      <trkpt lat="47.58028" lon="-1.8123">
        <ele>62.486</ele>
        <time>2019-11-10T10:14:23.001Z</time>
      </trkpt>
      <trkpt lat="47.58137" lon="-1.81244">
        <ele>59.581</ele>
        <time>2019-11-10T10:14:56.001Z</time>
      </trkpt>
      <trkpt lat="47.58249" lon="-1.81256">
        <ele>55.839</ele>
        <time>2019-11-10T10:15:29.001Z</time>
      </trkpt>
      <trkpt lat="47.58359" lon="-1.8127">
        <ele>57.561</ele>
        <time>2019-11-10T10:16:02Z</time>
      </trkpt>
      <trkpt lat="47.58502" lon="-1.81248">
        <ele>59.098</ele>
        <time>2019-11-10T10:16:35.001Z</time>
      </trkpt>
      <trkpt lat="47.58667" lon="-1.8122">
        <ele>54.191</ele>
        <time>2019-11-10T10:17:08.001Z</time>
      </trkpt>
      <trkpt lat="47.58836" lon="-1.81192">
        <ele>60.159</ele>
        <time>2019-11-10T10:17:41.001Z</time>
      </trkpt>
      <trkpt lat="47.59028" lon="-1.8116">
        <ele>54.44</ele>
        <time>2019-11-10T10:18:14.001Z</time>
      </trkpt>
      <trkpt lat="47.59223" lon="-1.81127">
        <ele>37.225</ele>
        <time>2019-11-10T10:18:47.001Z</time>
      </trkpt>
      <trkpt lat="47.59399" lon="-1.81096">
        <ele>38.9</ele>
        <time>2019-11-10T10:19:20.001Z</time>
      </trkpt>
      <trkpt lat="47.59528" lon="-1.81103">
        <ele>44.44</ele>
        <time>2019-11-10T10:19:53.001Z</time>
      </trkpt>
      <trkpt lat="47.59641" lon="-1.81128">
        <ele>44.858</ele>
        <time>2019-11-10T10:20:26.001Z</time>
      </trkpt>
      <trkpt lat="47.59747" lon="-1.81148">
        <ele>48.515</ele>
        <time>2019-11-10T10:20:59.001Z</time>
      </trkpt>
      <trkpt lat="47.59847" lon="-1.81173">
        <ele>50.087</ele>
        <time>2019-11-10T10:21:32.001Z</time>
      </trkpt>
      <trkpt lat="47.5994" lon="-1.81193">
        <ele>51.989</ele>
        <time>2019-11-10T10:22:05.001Z</time>
      </trkpt>
      <trkpt lat="47.60035" lon="-1.81227">
        <ele>49.603</ele>
        <time>2019-11-10T10:22:38.001Z</time>
      </trkpt>
      <trkpt lat="47.60162" lon="-1.81287">
        <ele>45.526</ele>
        <time>2019-11-10T10:23:11.001Z</time>
      </trkpt>
      <trkpt lat="47.60364" lon="-1.81379">
        <ele>42.897</ele>
        <time>2019-11-10T10:23:44.001Z</time>
      </trkpt>
      <trkpt lat="47.60583" lon="-1.81485">
        <ele>25.473</ele>
        <time>2019-11-10T10:24:17.001Z</time>
      </trkpt>
      <trkpt lat="47.60676" lon="-1.81532">
        <ele>23.188</ele>
        <time>2019-11-10T10:28:47.001Z</time>
      </trkpt>
      <trkpt lat="47.60831" lon="-1.8162">
        <ele>26.549</ele>
        <time>2019-11-10T10:29:20.001Z</time>
      </trkpt>
      <trkpt lat="47.60997" lon="-1.81741">
        <ele>21.477</ele>
        <time>2019-11-10T10:29:53.001Z</time>
      </trkpt>
      <trkpt lat="47.61183" lon="-1.8188">
        <ele>11.79</ele>
        <time>2019-11-10T10:30:26.001Z</time>
      </trkpt>
      <trkpt lat="47.61366" lon="-1.82012">
        <ele>9.385</ele>
        <time>2019-11-10T10:30:59.001Z</time>
      </trkpt>
      <trkpt lat="47.61509" lon="-1.82116">
        <ele>5.592</ele>
        <time>2019-11-10T10:31:32.001Z</time>
      </trkpt>
      <trkpt lat="47.61624" lon="-1.82206">
        <ele>12.807</ele>
        <time>2019-11-10T10:32:05.001Z</time>
      </trkpt>
      <trkpt lat="47.61708" lon="-1.82355">
        <ele>19.384</ele>
        <time>2019-11-10T10:32:38.001Z</time>
      </trkpt>
      <trkpt lat="47.61826" lon="-1.82522">
        <ele>10.289</ele>
        <time>2019-11-10T10:33:11.001Z</time>
      </trkpt>
      <trkpt lat="47.61967" lon="-1.8263">
        <ele>3.455</ele>
        <time>2019-11-10T10:33:47.001Z</time>
      </trkpt>
      <trkpt lat="47.62083" lon="-1.82713">
        <ele>4.446</ele>
        <time>2019-11-10T10:34:20.001Z</time>
      </trkpt>
      <trkpt lat="47.62199" lon="-1.82814">
        <ele>10.343</ele>
        <time>2019-11-10T10:34:53.001Z</time>
      </trkpt>
      <trkpt lat="47.62341" lon="-1.8296">
        <ele>8.449</ele>
        <time>2019-11-10T10:35:26.001Z</time>
      </trkpt>
      <trkpt lat="47.62559" lon="-1.83132">
        <ele>9</ele>
        <time>2019-11-10T10:35:59.001Z</time>
      </trkpt>
      <trkpt lat="47.62684" lon="-1.83232">
        <ele>8.3</ele>
        <time>2019-11-10T10:36:32.001Z</time>
      </trkpt>
      <trkpt lat="47.62805" lon="-1.83323">
        <ele>11.8</ele>
        <time>2019-11-10T10:37:05.001Z</time>
      </trkpt>
      <trkpt lat="47.62873" lon="-1.83391">
        <ele>10.31</ele>
        <time>2019-11-10T10:37:38.001Z</time>
      </trkpt>
      <trkpt lat="47.62967" lon="-1.8344">
        <ele>12.04</ele>
        <time>2019-11-10T10:38:11.001Z</time>
      </trkpt>
      <trkpt lat="47.63053" lon="-1.8349">
        <ele>11.551</ele>
        <time>2019-11-10T10:38:44.001Z</time>
      </trkpt>
      <trkpt lat="47.63106" lon="-1.83598">
        <ele>21.274</ele>
        <time>2019-11-10T10:39:17.001Z</time>
      </trkpt>
      <trkpt lat="47.63167" lon="-1.83749">
        <ele>24.833</ele>
        <time>2019-11-10T10:39:50.001Z</time>
      </trkpt>
      <trkpt lat="47.63241" lon="-1.83884">
        <ele>22.676</ele>
        <time>2019-11-10T10:40:23.001Z</time>
      </trkpt>
      <trkpt lat="47.63309" lon="-1.83979">
        <ele>23.655</ele>
        <time>2019-11-10T10:40:56.001Z</time>
      </trkpt>
      <trkpt lat="47.63387" lon="-1.84073">
        <ele>27.185</ele>
        <time>2019-11-10T10:41:29.001Z</time>
      </trkpt>
      <trkpt lat="47.63466" lon="-1.84176">
        <ele>25.597</ele>
        <time>2019-11-10T10:42:02Z</time>
      </trkpt>
      <trkpt lat="47.63581" lon="-1.84403">
        <ele>28.141</ele>
        <time>2019-11-10T10:42:35.001Z</time>
      </trkpt>
      <trkpt lat="47.63696" lon="-1.84679">
        <ele>22.418</ele>
        <time>2019-11-10T10:43:08.001Z</time>
      </trkpt>
      <trkpt lat="47.63737" lon="-1.84775">
        <ele>23.485</ele>
        <time>2019-11-10T10:43:41.001Z</time>
      </trkpt>
      <trkpt lat="47.63763" lon="-1.8489">
        <ele>27.631</ele>
        <time>2019-11-10T10:44:14.001Z</time>
      </trkpt>
      <trkpt lat="47.63789" lon="-1.8502">
        <ele>32.222</ele>
        <time>2019-11-10T10:44:47.001Z</time>
      </trkpt>
      <trkpt lat="47.63861" lon="-1.85107">
        <ele>36.571</ele>
        <time>2019-11-10T10:45:20.001Z</time>
      </trkpt>
      <trkpt lat="47.6398" lon="-1.85158">
        <ele>28.725</ele>
        <time>2019-11-10T10:45:53.001Z</time>
      </trkpt>
      <trkpt lat="47.64102" lon="-1.85214">
        <ele>35.085</ele>
        <time>2019-11-10T10:46:26.001Z</time>
      </trkpt>
      <trkpt lat="47.64226" lon="-1.85273">
        <ele>35.759</ele>
        <time>2019-11-10T10:46:59.001Z</time>
      </trkpt>
      <trkpt lat="47.64351" lon="-1.85326">
        <ele>39.258</ele>
        <time>2019-11-10T10:47:32.001Z</time>
      </trkpt>
      <trkpt lat="47.64474" lon="-1.85382">
        <ele>36.486</ele>
        <time>2019-11-10T10:48:05.001Z</time>
      </trkpt>
      <trkpt lat="47.64607" lon="-1.85444">
        <ele>36.848</ele>
        <time>2019-11-10T10:48:38.001Z</time>
      </trkpt>
      <trkpt lat="47.64753" lon="-1.85513">
        <ele>28.078</ele>
        <time>2019-11-10T10:49:11.001Z</time>
      </trkpt>
      <trkpt lat="47.64875" lon="-1.85569">
        <ele>32.678</ele>
        <time>2019-11-10T10:49:44.001Z</time>
      </trkpt>
      <trkpt lat="47.65" lon="-1.85626">
        <ele>35.407</ele>
        <time>2019-11-10T10:50:17.001Z</time>
      </trkpt>
      <trkpt lat="47.6512" lon="-1.8568">
        <ele>34.563</ele>
        <time>2019-11-10T10:50:50.001Z</time>
      </trkpt>
      <trkpt lat="47.65239" lon="-1.85736">
        <ele>37.058</ele>
        <time>2019-11-10T10:51:23.001Z</time>
      </trkpt>
      <trkpt lat="47.65353" lon="-1.85791">
        <ele>36.602</ele>
        <time>2019-11-10T10:51:56.001Z</time>
      </trkpt>
      <trkpt lat="47.65478" lon="-1.85848">
        <ele>41.075</ele>
        <time>2019-11-10T10:52:29.001Z</time>
      </trkpt>
      <trkpt lat="47.6559" lon="-1.85898">
        <ele>38.146</ele>
        <time>2019-11-10T10:53:02Z</time>
      </trkpt>
      <trkpt lat="47.65712" lon="-1.85954">
        <ele>37.781</ele>
        <time>2019-11-10T10:53:35.001Z</time>
      </trkpt>
      <trkpt lat="47.65832" lon="-1.86008">
        <ele>40.551</ele>
        <time>2019-11-10T10:54:11.001Z</time>
      </trkpt>
      <trkpt lat="47.65948" lon="-1.86063">
        <ele>43.142</ele>
        <time>2019-11-10T10:54:44.001Z</time>
      </trkpt>
      <trkpt lat="47.66061" lon="-1.86112">
        <ele>43.192</ele>
        <time>2019-11-10T10:55:17.001Z</time>
      </trkpt>
      <trkpt lat="47.66178" lon="-1.86166">
        <ele>42.187</ele>
        <time>2019-11-10T10:55:50.001Z</time>
      </trkpt>
      <trkpt lat="47.66301" lon="-1.86225">
        <ele>46.367</ele>
        <time>2019-11-10T10:56:23.001Z</time>
      </trkpt>
      <trkpt lat="47.66468" lon="-1.86301">
        <ele>51.293</ele>
        <time>2019-11-10T10:56:56.001Z</time>
      </trkpt>
      <trkpt lat="47.66664" lon="-1.86392">
        <ele>42.329</ele>
        <time>2019-11-10T10:57:29.001Z</time>
      </trkpt>
      <trkpt lat="47.66852" lon="-1.86478">
        <ele>35.187</ele>
        <time>2019-11-10T10:58:02Z</time>
      </trkpt>
      <trkpt lat="47.6708" lon="-1.86518">
        <ele>31.355</ele>
        <time>2019-11-10T10:58:35.001Z</time>
      </trkpt>
      <trkpt lat="47.67282" lon="-1.86475">
        <ele>26.157</ele>
        <time>2019-11-10T10:59:08.001Z</time>
      </trkpt>
      <trkpt lat="47.67506" lon="-1.86527">
        <ele>19.508</ele>
        <time>2019-11-10T10:59:41.001Z</time>
      </trkpt>
      <trkpt lat="47.67721" lon="-1.86624">
        <ele>17.809</ele>
        <time>2019-11-10T11:00:14.001Z</time>
      </trkpt>
      <trkpt lat="47.67899" lon="-1.8671">
        <ele>18.999</ele>
        <time>2019-11-10T11:00:47.001Z</time>
      </trkpt>
      <trkpt lat="47.68111" lon="-1.86751">
        <ele>13.824</ele>
        <time>2019-11-10T11:01:20.001Z</time>
      </trkpt>
      <trkpt lat="47.68321" lon="-1.86793">
        <ele>9.45</ele>
        <time>2019-11-10T11:01:53.001Z</time>
      </trkpt>
      <trkpt lat="47.68545" lon="-1.86838">
        <ele>4.745</ele>
        <time>2019-11-10T11:02:26.001Z</time>
      </trkpt>
      <trkpt lat="47.68764" lon="-1.86882">
        <ele>3.323</ele>
        <time>2019-11-10T11:02:59.001Z</time>
      </trkpt>
      <trkpt lat="47.68959" lon="-1.86932">
        <ele>0.24</ele>
        <time>2019-11-10T11:03:32.001Z</time>
      </trkpt>
      <trkpt lat="47.6915" lon="-1.86973">
        <ele>2.614</ele>
        <time>2019-11-10T11:04:05.001Z</time>
      </trkpt>
      <trkpt lat="47.69247" lon="-1.8687">
        <ele>6.793</ele>
        <time>2019-11-10T11:04:38.001Z</time>
      </trkpt>
      <trkpt lat="47.6935" lon="-1.8682">
        <ele>11.287</ele>
        <time>2019-11-10T11:05:11.001Z</time>
      </trkpt>
      <trkpt lat="47.69466" lon="-1.86753">
        <ele>8.986</ele>
        <time>2019-11-10T11:05:44.001Z</time>
      </trkpt>
      <trkpt lat="47.69565" lon="-1.86718">
        <ele>14.544</ele>
        <time>2019-11-10T11:06:17.001Z</time>
      </trkpt>
      <trkpt lat="47.69641" lon="-1.8676">
        <ele>17.676</ele>
        <time>2019-11-10T11:06:50.001Z</time>
      </trkpt>
      <trkpt lat="47.69729" lon="-1.8683">
        <ele>26.916</ele>
        <time>2019-11-10T11:07:23.001Z</time>
      </trkpt>
      <trkpt lat="47.69888" lon="-1.86904">
        <ele>21.903</ele>
        <time>2019-11-10T11:07:56.001Z</time>
      </trkpt>
      <trkpt lat="47.70069" lon="-1.86766">
        <ele>3.649</ele>
        <time>2019-11-10T11:08:29.001Z</time>
      </trkpt>
      <trkpt lat="47.70177" lon="-1.86835">
        <ele>0.402</ele>
        <time>2019-11-10T11:09:02Z</time>
      </trkpt>
      <trkpt lat="47.70283" lon="-1.86636">
        <ele>4.7</ele>
        <time>2019-11-10T11:09:35.001Z</time>
      </trkpt>
      <trkpt lat="47.70431" lon="-1.86619">
        <ele>0.734</ele>
        <time>2019-11-10T11:10:08.001Z</time>
      </trkpt>
      <trkpt lat="47.70563" lon="-1.86605">
        <ele>4.183</ele>
        <time>2019-11-10T11:10:41.001Z</time>
      </trkpt>
      <trkpt lat="47.70678" lon="-1.86508">
        <ele>5.055</ele>
        <time>2019-11-10T11:11:14.001Z</time>
      </trkpt>
      <trkpt lat="47.70763" lon="-1.86366">
        <ele>3.355</ele>
        <time>2019-11-10T11:11:47.001Z</time>
      </trkpt>
      <trkpt lat="47.70809" lon="-1.86182">
        <ele>7.6</ele>
        <time>2019-11-10T11:12:20.001Z</time>
      </trkpt>
      <trkpt lat="47.70839" lon="-1.85994">
        <ele>8.1</ele>
        <time>2019-11-10T11:12:53.001Z</time>
      </trkpt>
      <trkpt lat="47.70859" lon="-1.85827">
        <ele>1.421</ele>
        <time>2019-11-10T11:13:26.001Z</time>
      </trkpt>
      <trkpt lat="47.70871" lon="-1.85637">
        <ele>7.178</ele>
        <time>2019-11-10T11:14:02Z</time>
      </trkpt>
      <trkpt lat="47.70882" lon="-1.85456">
        <ele>1.6</ele>
        <time>2019-11-10T11:14:35.001Z</time>
      </trkpt>
      <trkpt lat="47.70878" lon="-1.85403">
        <ele>2.358</ele>
        <time>2019-11-10T11:18:17.001Z</time>
      </trkpt>
      <trkpt lat="47.70833" lon="-1.85235">
        <ele>0.445</ele>
        <time>2019-11-10T11:18:50.001Z</time>
      </trkpt>
      <trkpt lat="47.70804" lon="-1.85036">
        <ele>4</ele>
        <time>2019-11-10T11:19:23.001Z</time>
      </trkpt>
      <trkpt lat="47.70756" lon="-1.8481">
        <ele>0.087</ele>
        <time>2019-11-10T11:19:56.001Z</time>
      </trkpt>
      <trkpt lat="47.70703" lon="-1.84597">
        <ele>0.749</ele>
        <time>2019-11-10T11:20:29.001Z</time>
      </trkpt>
      <trkpt lat="47.70656" lon="-1.84386">
        <ele>1.731</ele>
        <time>2019-11-10T11:21:02Z</time>
      </trkpt>
      <trkpt lat="47.70601" lon="-1.84163">
        <ele>0.825</ele>
        <time>2019-11-10T11:21:35.001Z</time>
      </trkpt>
      <trkpt lat="47.70615" lon="-1.83955">
        <ele>4.1</ele>
        <time>2019-11-10T11:22:08.001Z</time>
      </trkpt>
      <trkpt lat="47.7073" lon="-1.83833">
        <ele>0.845</ele>
        <time>2019-11-10T11:22:41.001Z</time>
      </trkpt>
      <trkpt lat="47.70868" lon="-1.83788">
        <ele>2.865</ele>
        <time>2019-11-10T11:23:14.001Z</time>
      </trkpt>
      <trkpt lat="47.71006" lon="-1.83727">
        <ele>3.628</ele>
        <time>2019-11-10T11:23:47.001Z</time>
      </trkpt>
      <trkpt lat="47.71155" lon="-1.83687">
        <ele>2.881</ele>
        <time>2019-11-10T11:24:20.001Z</time>
      </trkpt>
      <trkpt lat="47.713" lon="-1.83732">
        <ele>3.104</ele>
        <time>2019-11-10T11:24:53.001Z</time>
      </trkpt>
      <trkpt lat="47.71445" lon="-1.83784">
        <ele>6.307</ele>
        <time>2019-11-10T11:25:26.001Z</time>
      </trkpt>
      <trkpt lat="47.71592" lon="-1.83776">
        <ele>4.155</ele>
        <time>2019-11-10T11:25:59.001Z</time>
      </trkpt>
      <trkpt lat="47.71714" lon="-1.8366">
        <ele>2.203</ele>
        <time>2019-11-10T11:26:32.001Z</time>
      </trkpt>
      <trkpt lat="47.71839" lon="-1.83542">
        <ele>2.123</ele>
        <time>2019-11-10T11:27:05.001Z</time>
      </trkpt>
      <trkpt lat="47.71975" lon="-1.83505">
        <ele>6.748</ele>
        <time>2019-11-10T11:27:38.001Z</time>
      </trkpt>
      <trkpt lat="47.72104" lon="-1.83553">
        <ele>7.008</ele>
        <time>2019-11-10T11:28:11.001Z</time>
      </trkpt>
      <trkpt lat="47.72204" lon="-1.83703">
        <ele>6.69</ele>
        <time>2019-11-10T11:28:44.001Z</time>
      </trkpt>
      <trkpt lat="47.72314" lon="-1.83829">
        <ele>4.752</ele>
        <time>2019-11-10T11:29:17.001Z</time>
      </trkpt>
      <trkpt lat="47.72472" lon="-1.83799">
        <ele>5.582</ele>
        <time>2019-11-10T11:29:50.001Z</time>
      </trkpt>
      <trkpt lat="47.72616" lon="-1.83788">
        <ele>3.292</ele>
        <time>2019-11-10T11:30:23.001Z</time>
      </trkpt>
      <trkpt lat="47.72729" lon="-1.83899">
        <ele>6.724</ele>
        <time>2019-11-10T11:30:56.001Z</time>
      </trkpt>
      <trkpt lat="47.72862" lon="-1.83914">
        <ele>8.982</ele>
        <time>2019-11-10T11:31:29.001Z</time>
      </trkpt>
      <trkpt lat="47.7299" lon="-1.8382">
        <ele>5.606</ele>
        <time>2019-11-10T11:32:02Z</time>
      </trkpt>
      <trkpt lat="47.7312" lon="-1.83793">
        <ele>3.973</ele>
        <time>2019-11-10T11:32:35.001Z</time>
      </trkpt>
      <trkpt lat="47.73193" lon="-1.83958">
        <ele>5.106</ele>
        <time>2019-11-10T11:33:08.001Z</time>
      </trkpt>
      <trkpt lat="47.73233" lon="-1.84159">
        <ele>5.903</ele>
        <time>2019-11-10T11:33:41.001Z</time>
      </trkpt>
      <trkpt lat="47.73298" lon="-1.84346">
        <ele>6.599</ele>
        <time>2019-11-10T11:34:14.001Z</time>
      </trkpt>
      <trkpt lat="47.73417" lon="-1.84465">
        <ele>6.117</ele>
        <time>2019-11-10T11:34:47.001Z</time>
      </trkpt>
      <trkpt lat="47.73562" lon="-1.845">
        <ele>6.955</ele>
        <time>2019-11-10T11:35:20.001Z</time>
      </trkpt>
      <trkpt lat="47.73705" lon="-1.84468">
        <ele>7.426</ele>
        <time>2019-11-10T11:35:53.001Z</time>
      </trkpt>
      <trkpt lat="47.73846" lon="-1.84412">
        <ele>4.149</ele>
        <time>2019-11-10T11:36:26.001Z</time>
      </trkpt>
      <trkpt lat="47.73981" lon="-1.84349">
        <ele>7.123</ele>
        <time>2019-11-10T11:36:59.001Z</time>
      </trkpt>
      <trkpt lat="47.74128" lon="-1.84251">
        <ele>3.111</ele>
        <time>2019-11-10T11:37:35.001Z</time>
      </trkpt>
      <trkpt lat="47.74227" lon="-1.841">
        <ele>1.971</ele>
        <time>2019-11-10T11:38:08.001Z</time>
      </trkpt>
      <trkpt lat="47.74319" lon="-1.83937">
        <ele>1.336</ele>
        <time>2019-11-10T11:38:41.001Z</time>
      </trkpt>
      <trkpt lat="47.74422" lon="-1.83783">
        <ele>1.521</ele>
        <time>2019-11-10T11:39:14.001Z</time>
      </trkpt>
      <trkpt lat="47.74537" lon="-1.83668">
        <ele>3.665</ele>
        <time>2019-11-10T11:39:47.001Z</time>
      </trkpt>
      <trkpt lat="47.74634" lon="-1.83501">
        <ele>0.476</ele>
        <time>2019-11-10T11:40:20.001Z</time>
      </trkpt>
      <trkpt lat="47.74709" lon="-1.83332">
        <ele>3.839</ele>
        <time>2019-11-10T11:40:53.001Z</time>
      </trkpt>
      <trkpt lat="47.74793" lon="-1.83139">
        <ele>6.3</ele>
        <time>2019-11-10T11:41:26.001Z</time>
      </trkpt>
      <trkpt lat="47.74861" lon="-1.82929">
        <ele>5.5</ele>
        <time>2019-11-10T11:41:59.001Z</time>
      </trkpt>
      <trkpt lat="47.74972" lon="-1.82786">
        <ele>2.886</ele>
        <time>2019-11-10T11:42:32.001Z</time>
      </trkpt>
      <trkpt lat="47.75099" lon="-1.82676">
        <ele>4.26</ele>
        <time>2019-11-10T11:43:05.001Z</time>
      </trkpt>
      <trkpt lat="47.75226" lon="-1.82579">
        <ele>6.104</ele>
        <time>2019-11-10T11:43:38.001Z</time>
      </trkpt>
      <trkpt lat="47.75359" lon="-1.82521">
        <ele>4.807</ele>
        <time>2019-11-10T11:44:11.001Z</time>
      </trkpt>
      <trkpt lat="47.7545" lon="-1.82505">
        <ele>11.993</ele>
        <time>2019-11-10T11:44:44.001Z</time>
      </trkpt>
      <trkpt lat="47.75513" lon="-1.82487">
        <ele>16.291</ele>
        <time>2019-11-10T11:45:17.001Z</time>
      </trkpt>
      <trkpt lat="47.75585" lon="-1.82469">
        <ele>19.991</ele>
        <time>2019-11-10T11:45:50.001Z</time>
      </trkpt>
      <trkpt lat="47.75666" lon="-1.82446">
        <ele>23.69</ele>
        <time>2019-11-10T11:46:23.001Z</time>
      </trkpt>
      <trkpt lat="47.75786" lon="-1.82418">
        <ele>20.924</ele>
        <time>2019-11-10T11:46:56.001Z</time>
      </trkpt>
      <trkpt lat="47.75974" lon="-1.82371">
        <ele>16.149</ele>
        <time>2019-11-10T11:47:29.001Z</time>
      </trkpt>
      <trkpt lat="47.76073" lon="-1.81997">
        <ele>0.769</ele>
        <time>2019-11-10T11:48:02Z</time>
      </trkpt>
      <trkpt lat="47.76256" lon="-1.81844">
        <ele>5.5</ele>
        <time>2019-11-10T11:48:35.001Z</time>
      </trkpt>
      <trkpt lat="47.76391" lon="-1.81946">
        <ele>5.133</ele>
        <time>2019-11-10T11:49:08.001Z</time>
      </trkpt>
      <trkpt lat="47.76486" lon="-1.82127">
        <ele>6.412</ele>
        <time>2019-11-10T11:49:41.001Z</time>
      </trkpt>
      <trkpt lat="47.76573" lon="-1.82295">
        <ele>12.384</ele>
        <time>2019-11-10T11:50:14.001Z</time>
      </trkpt>
      <trkpt lat="47.76645" lon="-1.8241">
        <ele>8.699</ele>
        <time>2019-11-10T11:50:50.001Z</time>
      </trkpt>
      <trkpt lat="47.76664" lon="-1.82606">
        <ele>4.573</ele>
        <time>2019-11-10T11:51:23.001Z</time>
      </trkpt>
      <trkpt lat="47.76606" lon="-1.82817">
        <ele>2.462</ele>
        <time>2019-11-10T11:51:56.001Z</time>
      </trkpt>
      <trkpt lat="47.76537" lon="-1.83006">
        <ele>5.562</ele>
        <time>2019-11-10T11:52:29.001Z</time>
      </trkpt>
      <trkpt lat="47.76489" lon="-1.83181">
        <ele>6.987</ele>
        <time>2019-11-10T11:53:02Z</time>
      </trkpt>
      <trkpt lat="47.76466" lon="-1.83313">
        <ele>4.295</ele>
        <time>2019-11-10T11:53:35.001Z</time>
      </trkpt>
      <trkpt lat="47.76439" lon="-1.83471">
        <ele>4.841</ele>
        <time>2019-11-10T11:54:08.001Z</time>
      </trkpt>
      <trkpt lat="47.76418" lon="-1.83579">
        <ele>1.567</ele>
        <time>2019-11-10T11:54:41.001Z</time>
      </trkpt>
      <trkpt lat="47.76396" lon="-1.83739">
        <ele>0.611</ele>
        <time>2019-11-10T11:55:14.001Z</time>
      </trkpt>
      <trkpt lat="47.76343" lon="-1.83914">
        <ele>23.1</ele>
        <time>2019-11-10T11:55:47.001Z</time>
      </trkpt>
      <trkpt lat="47.76305" lon="-1.84099">
        <ele>33.1</ele>
        <time>2019-11-10T11:56:20.001Z</time>
      </trkpt>
      <trkpt lat="47.76323" lon="-1.84273">
        <ele>35</ele>
        <time>2019-11-10T11:56:53.001Z</time>
      </trkpt>
      <trkpt lat="47.76361" lon="-1.84412">
        <ele>0.527</ele>
        <time>2019-11-10T11:57:26.001Z</time>
      </trkpt>
      <trkpt lat="47.7639" lon="-1.84618">
        <ele>35.7</ele>
        <time>2019-11-10T11:58:02Z</time>
      </trkpt>
      <trkpt lat="47.76464" lon="-1.84739">
        <ele>7.756</ele>
        <time>2019-11-10T11:58:35.001Z</time>
      </trkpt>
      <trkpt lat="47.76591" lon="-1.84795">
        <ele>7.185</ele>
        <time>2019-11-10T11:59:08.001Z</time>
      </trkpt>
      <trkpt lat="47.76715" lon="-1.84782">
        <ele>16.073</ele>
        <time>2019-11-10T11:59:41.001Z</time>
      </trkpt>
      <trkpt lat="47.76839" lon="-1.84722">
        <ele>8.454</ele>
        <time>2019-11-10T12:00:14.001Z</time>
      </trkpt>
      <trkpt lat="47.76947" lon="-1.84616">
        <ele>3.638</ele>
        <time>2019-11-10T12:00:47.001Z</time>
      </trkpt>
      <trkpt lat="47.77034" lon="-1.84496">
        <ele>7.9</ele>
        <time>2019-11-10T12:01:20.001Z</time>
      </trkpt>
      <trkpt lat="47.77114" lon="-1.84347">
        <ele>1.396</ele>
        <time>2019-11-10T12:01:53.001Z</time>
      </trkpt>
      <trkpt lat="47.7718" lon="-1.84203">
        <ele>5.469</ele>
        <time>2019-11-10T12:02:26.001Z</time>
      </trkpt>
      <trkpt lat="47.77254" lon="-1.84069">
        <ele>2.429</ele>
        <time>2019-11-10T12:02:59.001Z</time>
      </trkpt>
      <trkpt lat="47.77336" lon="-1.83955">
        <ele>4.648</ele>
        <time>2019-11-10T12:03:32.001Z</time>
      </trkpt>
      <trkpt lat="47.77457" lon="-1.83956">
        <ele>6.582</ele>
        <time>2019-11-10T12:04:05.001Z</time>
      </trkpt>
      <trkpt lat="47.77564" lon="-1.84018">
        <ele>7.4</ele>
        <time>2019-11-10T12:04:38.001Z</time>
      </trkpt>
      <trkpt lat="47.77662" lon="-1.84118">
        <ele>1.792</ele>
        <time>2019-11-10T12:05:11.001Z</time>
      </trkpt>
      <trkpt lat="47.77769" lon="-1.84216">
        <ele>3.551</ele>
        <time>2019-11-10T12:05:44.001Z</time>
      </trkpt>
      <trkpt lat="47.77882" lon="-1.84297">
        <ele>4.547</ele>
        <time>2019-11-10T12:06:17.001Z</time>
      </trkpt>
      <trkpt lat="47.7799" lon="-1.84399">
        <ele>5.259</ele>
        <time>2019-11-10T12:06:50.001Z</time>
      </trkpt>
      <trkpt lat="47.78094" lon="-1.84487">
        <ele>2.084</ele>
        <time>2019-11-10T12:07:23.001Z</time>
      </trkpt>
      <trkpt lat="47.78199" lon="-1.8458">
        <ele>8.3</ele>
        <time>2019-11-10T12:07:56.001Z</time>
      </trkpt>
      <trkpt lat="47.78307" lon="-1.84669">
        <ele>3.302</ele>
        <time>2019-11-10T12:08:29.001Z</time>
      </trkpt>
      <trkpt lat="47.7842" lon="-1.8474">
        <ele>4.401</ele>
        <time>2019-11-10T12:09:02Z</time>
      </trkpt>
      <trkpt lat="47.78552" lon="-1.8478">
        <ele>3.533</ele>
        <time>2019-11-10T12:09:35.001Z</time>
      </trkpt>
      <trkpt lat="47.78654" lon="-1.8471">
        <ele>1.502</ele>
        <time>2019-11-10T12:10:08.001Z</time>
      </trkpt>
      <trkpt lat="47.7875" lon="-1.84577">
        <ele>7</ele>
        <time>2019-11-10T12:10:41.001Z</time>
      </trkpt>
      <trkpt lat="47.78829" lon="-1.84442">
        <ele>8.1</ele>
        <time>2019-11-10T12:11:14.001Z</time>
      </trkpt>
      <trkpt lat="47.78934" lon="-1.84338">
        <ele>1.586</ele>
        <time>2019-11-10T12:11:47.001Z</time>
      </trkpt>
      <trkpt lat="47.7904" lon="-1.84249">
        <ele>3.309</ele>
        <time>2019-11-10T12:12:20.001Z</time>
      </trkpt>
      <trkpt lat="47.79137" lon="-1.84138">
        <ele>4.244</ele>
        <time>2019-11-10T12:12:53.001Z</time>
      </trkpt>
      <trkpt lat="47.79255" lon="-1.84077">
        <ele>8.035</ele>
        <time>2019-11-10T12:13:26.001Z</time>
      </trkpt>
      <trkpt lat="47.79373" lon="-1.84018">
        <ele>5.93</ele>
        <time>2019-11-10T12:13:59.001Z</time>
      </trkpt>
      <trkpt lat="47.79507" lon="-1.8403">
        <ele>2.225</ele>
        <time>2019-11-10T12:14:32.001Z</time>
      </trkpt>
      <trkpt lat="47.79628" lon="-1.84087">
        <ele>0.881</ele>
        <time>2019-11-10T12:15:05.001Z</time>
      </trkpt>
      <trkpt lat="47.79736" lon="-1.84193">
        <ele>6.9</ele>
        <time>2019-11-10T12:15:38.001Z</time>
      </trkpt>
      <trkpt lat="47.7985" lon="-1.84295">
        <ele>6.6</ele>
        <time>2019-11-10T12:16:11.001Z</time>
      </trkpt>
      <trkpt lat="47.79975" lon="-1.84349">
        <ele>8.7</ele>
        <time>2019-11-10T12:16:44.001Z</time>
      </trkpt>
      <trkpt lat="47.80118" lon="-1.84398">
        <ele>7.6</ele>
        <time>2019-11-10T12:17:17.001Z</time>
      </trkpt>
      <trkpt lat="47.80255" lon="-1.8451">
        <ele>8</ele>
        <time>2019-11-10T12:17:50.001Z</time>
      </trkpt>
      <trkpt lat="47.80386" lon="-1.84609">
        <ele>8.1</ele>
        <time>2019-11-10T12:18:26.001Z</time>
      </trkpt>
      <trkpt lat="47.80509" lon="-1.84632">
        <ele>1.785</ele>
        <time>2019-11-10T12:18:59.001Z</time>
      </trkpt>
      <trkpt lat="47.80633" lon="-1.84652">
        <ele>6</ele>
        <time>2019-11-10T12:19:32.001Z</time>
      </trkpt>
      <trkpt lat="47.80754" lon="-1.84683">
        <ele>7</ele>
        <time>2019-11-10T12:20:05.001Z</time>
      </trkpt>
      <trkpt lat="47.8088" lon="-1.8471">
        <ele>0.934</ele>
        <time>2019-11-10T12:20:38.001Z</time>
      </trkpt>
      <trkpt lat="47.80998" lon="-1.84698">
        <ele>2.52</ele>
        <time>2019-11-10T12:21:11.001Z</time>
      </trkpt>
      <trkpt lat="47.81115" lon="-1.84645">
        <ele>3.224</ele>
        <time>2019-11-10T12:21:44.001Z</time>
      </trkpt>
      <trkpt lat="47.81227" lon="-1.84552">
        <ele>4.9</ele>
        <time>2019-11-10T12:22:17.001Z</time>
      </trkpt>
      <trkpt lat="47.81328" lon="-1.84431">
        <ele>4.247</ele>
        <time>2019-11-10T12:22:50.001Z</time>
      </trkpt>
      <trkpt lat="47.81432" lon="-1.8433">
        <ele>2.304</ele>
        <time>2019-11-10T12:23:23.001Z</time>
      </trkpt>
      <trkpt lat="47.81515" lon="-1.84201">
        <ele>4.587</ele>
        <time>2019-11-10T12:23:56.001Z</time>
      </trkpt>
      <trkpt lat="47.81554" lon="-1.84018">
        <ele>3.828</ele>
        <time>2019-11-10T12:24:29.001Z</time>
      </trkpt>
      <trkpt lat="47.8151" lon="-1.83834">
        <ele>5.1</ele>
        <time>2019-11-10T12:25:02Z</time>
      </trkpt>
      <trkpt lat="47.81433" lon="-1.83691">
        <ele>4.042</ele>
        <time>2019-11-10T12:25:35.001Z</time>
      </trkpt>
      <trkpt lat="47.81461" lon="-1.83504">
        <ele>5.201</ele>
        <time>2019-11-10T12:26:08.001Z</time>
      </trkpt>
      <trkpt lat="47.81527" lon="-1.83351">
        <ele>5.462</ele>
        <time>2019-11-10T12:26:41.001Z</time>
      </trkpt>
      <trkpt lat="47.81595" lon="-1.83217">
        <ele>0.557</ele>
        <time>2019-11-10T12:27:14.001Z</time>
      </trkpt>
      <trkpt lat="47.81621" lon="-1.83099">
        <ele>2.662</ele>
        <time>2019-11-10T12:45:23.001Z</time>
      </trkpt>
      <trkpt lat="47.81688" lon="-1.82952">
        <ele>4.012</ele>
        <time>2019-11-10T12:45:56.001Z</time>
      </trkpt>
      <trkpt lat="47.81799" lon="-1.829">
        <ele>6.197</ele>
        <time>2019-11-10T12:46:29.001Z</time>
      </trkpt>
      <trkpt lat="47.81913" lon="-1.82882">
        <ele>3.38</ele>
        <time>2019-11-10T12:47:02Z</time>
      </trkpt>
      <trkpt lat="47.82003" lon="-1.82748">
        <ele>5.14</ele>
        <time>2019-11-10T12:47:35.001Z</time>
      </trkpt>
      <trkpt lat="47.82036" lon="-1.82709">
        <ele>6.198</ele>
        <time>2019-11-10T12:50:14.001Z</time>
      </trkpt>
      <trkpt lat="47.81963" lon="-1.82812">
        <ele>6.654</ele>
        <time>2019-11-10T12:50:47.001Z</time>
      </trkpt>
      <trkpt lat="47.81939" lon="-1.82897">
        <ele>2.634</ele>
        <time>2019-11-10T12:51:59.001Z</time>
      </trkpt>
      <trkpt lat="47.82001" lon="-1.83009">
        <ele>5.257</ele>
        <time>2019-11-10T12:52:44.001Z</time>
      </trkpt>
      <trkpt lat="47.82078" lon="-1.83153">
        <ele>3.018</ele>
        <time>2019-11-10T12:53:17.001Z</time>
      </trkpt>
      <trkpt lat="47.82185" lon="-1.83221">
        <ele>12.881</ele>
        <time>2019-11-10T12:53:50.001Z</time>
      </trkpt>
      <trkpt lat="47.82179" lon="-1.83039">
        <ele>8.145</ele>
        <time>2019-11-10T12:54:23.001Z</time>
      </trkpt>
      <trkpt lat="47.8214" lon="-1.82795">
        <ele>0.453</ele>
        <time>2019-11-10T12:54:56.001Z</time>
      </trkpt>
      <trkpt lat="47.82138" lon="-1.82569">
        <ele>6.412</ele>
        <time>2019-11-10T12:55:29.001Z</time>
      </trkpt>
      <trkpt lat="47.82211" lon="-1.82379">
        <ele>9.341</ele>
        <time>2019-11-10T12:56:02Z</time>
      </trkpt>
      <trkpt lat="47.82233" lon="-1.82292">
        <ele>10.314</ele>
        <time>2019-11-10T13:01:35.001Z</time>
      </trkpt>
      <trkpt lat="47.82159" lon="-1.82215">
        <ele>6.488</ele>
        <time>2019-11-10T13:02:08.001Z</time>
      </trkpt>
      <trkpt lat="47.82149" lon="-1.82038">
        <ele>8.956</ele>
        <time>2019-11-10T13:02:41.001Z</time>
      </trkpt>
      <trkpt lat="47.82264" lon="-1.8188">
        <ele>9.805</ele>
        <time>2019-11-10T13:03:14.001Z</time>
      </trkpt>
      <trkpt lat="47.82366" lon="-1.81712">
        <ele>8.429</ele>
        <time>2019-11-10T13:03:47.001Z</time>
      </trkpt>
      <trkpt lat="47.82469" lon="-1.81528">
        <ele>11.101</ele>
        <time>2019-11-10T13:04:23.001Z</time>
      </trkpt>
      <trkpt lat="47.82563" lon="-1.81346">
        <ele>9.257</ele>
        <time>2019-11-10T13:04:56.001Z</time>
      </trkpt>
      <trkpt lat="47.82668" lon="-1.81182">
        <ele>7.836</ele>
        <time>2019-11-10T13:05:29.001Z</time>
      </trkpt>
      <trkpt lat="47.82772" lon="-1.8102">
        <ele>6.209</ele>
        <time>2019-11-10T13:06:02Z</time>
      </trkpt>
      <trkpt lat="47.82859" lon="-1.80883">
        <ele>8.535</ele>
        <time>2019-11-10T13:06:35.001Z</time>
      </trkpt>
      <trkpt lat="47.82931" lon="-1.80769">
        <ele>10.966</ele>
        <time>2019-11-10T13:07:08.001Z</time>
      </trkpt>
      <trkpt lat="47.83011" lon="-1.80643">
        <ele>11.408</ele>
        <time>2019-11-10T13:07:41.001Z</time>
      </trkpt>
      <trkpt lat="47.83121" lon="-1.80509">
        <ele>10.408</ele>
        <time>2019-11-10T13:08:14.001Z</time>
      </trkpt>
      <trkpt lat="47.8323" lon="-1.80302">
        <ele>8.3</ele>
        <time>2019-11-10T13:08:47.001Z</time>
      </trkpt>
      <trkpt lat="47.83344" lon="-1.80103">
        <ele>8.917</ele>
        <time>2019-11-10T13:09:20.001Z</time>
      </trkpt>
      <trkpt lat="47.83402" lon="-1.7992">
        <ele>14.225</ele>
        <time>2019-11-10T13:09:53.001Z</time>
      </trkpt>
      <trkpt lat="47.83336" lon="-1.79831">
        <ele>16.707</ele>
        <time>2019-11-10T13:10:26.001Z</time>
      </trkpt>
      <trkpt lat="47.83262" lon="-1.79757">
        <ele>20.59</ele>
        <time>2019-11-10T13:10:59.001Z</time>
      </trkpt>
      <trkpt lat="47.8321" lon="-1.7969">
        <ele>24.112</ele>
        <time>2019-11-10T13:11:32.001Z</time>
      </trkpt>
      <trkpt lat="47.83149" lon="-1.7963">
        <ele>29.643</ele>
        <time>2019-11-10T13:12:05.001Z</time>
      </trkpt>
      <trkpt lat="47.83127" lon="-1.79564">
        <ele>30.826</ele>
        <time>2019-11-10T13:12:38.001Z</time>
      </trkpt>
      <trkpt lat="47.83222" lon="-1.79431">
        <ele>27.327</ele>
        <time>2019-11-10T13:13:11.001Z</time>
      </trkpt>
      <trkpt lat="47.83338" lon="-1.79272">
        <ele>24.323</ele>
        <time>2019-11-10T13:13:44.001Z</time>
      </trkpt>
      <trkpt lat="47.83452" lon="-1.78905">
        <ele>10.379</ele>
        <time>2019-11-10T13:14:17.001Z</time>
      </trkpt>
      <trkpt lat="47.83561" lon="-1.78585">
        <ele>6.584</ele>
        <time>2019-11-10T13:14:50.001Z</time>
      </trkpt>
      <trkpt lat="47.83663" lon="-1.78368">
        <ele>7.828</ele>
        <time>2019-11-10T13:15:23.001Z</time>
      </trkpt>
      <trkpt lat="47.83794" lon="-1.78233">
        <ele>8.987</ele>
        <time>2019-11-10T13:15:56.001Z</time>
      </trkpt>
      <trkpt lat="47.83955" lon="-1.78096">
        <ele>9.912</ele>
        <time>2019-11-10T13:16:29.001Z</time>
      </trkpt>
      <trkpt lat="47.84056" lon="-1.77997">
        <ele>15.337</ele>
        <time>2019-11-10T13:17:02Z</time>
      </trkpt>
      <trkpt lat="47.84118" lon="-1.77933">
        <ele>17.374</ele>
        <time>2019-11-10T13:17:35.001Z</time>
      </trkpt>
      <trkpt lat="47.84184" lon="-1.77867">
        <ele>21.667</ele>
        <time>2019-11-10T13:18:08.001Z</time>
      </trkpt>
      <trkpt lat="47.84247" lon="-1.77736">
        <ele>22.251</ele>
        <time>2019-11-10T13:18:41.001Z</time>
      </trkpt>
      <trkpt lat="47.84323" lon="-1.77564">
        <ele>19</ele>
        <time>2019-11-10T13:19:14.001Z</time>
      </trkpt>
      <trkpt lat="47.84437" lon="-1.77493">
        <ele>24.491</ele>
        <time>2019-11-10T13:19:47.001Z</time>
      </trkpt>
      <trkpt lat="47.84593" lon="-1.77318">
        <ele>22.271</ele>
        <time>2019-11-10T13:20:20.001Z</time>
      </trkpt>
      <trkpt lat="47.84674" lon="-1.77336">
        <ele>28.448</ele>
        <time>2019-11-10T13:20:53.001Z</time>
      </trkpt>
      <trkpt lat="47.84752" lon="-1.77353">
        <ele>37.97</ele>
        <time>2019-11-10T13:21:26.001Z</time>
      </trkpt>
      <trkpt lat="47.84861" lon="-1.77355">
        <ele>32.117</ele>
        <time>2019-11-10T13:21:59.001Z</time>
      </trkpt>
      <trkpt lat="47.85051" lon="-1.77314">
        <ele>29.357</ele>
        <time>2019-11-10T13:22:32.001Z</time>
      </trkpt>
      <trkpt lat="47.85112" lon="-1.77301">
        <ele>27.527</ele>
        <time>2019-11-10T13:23:08.001Z</time>
      </trkpt>
      <trkpt lat="47.85177" lon="-1.77298">
        <ele>42.59</ele>
        <time>2019-11-10T13:23:47.001Z</time>
      </trkpt>
      <trkpt lat="47.85244" lon="-1.77308">
        <ele>46.926</ele>
        <time>2019-11-10T13:24:20.001Z</time>
      </trkpt>
      <trkpt lat="47.85525" lon="-1.77377">
        <ele>34.171</ele>
        <time>2019-11-10T13:24:56.001Z</time>
      </trkpt>
      <trkpt lat="47.85734" lon="-1.7744">
        <ele>22.303</ele>
        <time>2019-11-10T13:25:29.001Z</time>
      </trkpt>
      <trkpt lat="47.85941" lon="-1.77463">
        <ele>20.064</ele>
        <time>2019-11-10T13:26:02Z</time>
      </trkpt>
      <trkpt lat="47.86177" lon="-1.7749">
        <ele>25.34</ele>
        <time>2019-11-10T13:26:35.001Z</time>
      </trkpt>
      <trkpt lat="47.86296" lon="-1.7736">
        <ele>20.861</ele>
        <time>2019-11-10T13:27:08.001Z</time>
      </trkpt>
      <trkpt lat="47.86353" lon="-1.7724">
        <ele>17.306</ele>
        <time>2019-11-10T13:27:41.001Z</time>
      </trkpt>
      <trkpt lat="47.8644" lon="-1.77143">
        <ele>18.71</ele>
        <time>2019-11-10T13:28:14.001Z</time>
      </trkpt>
      <trkpt lat="47.86565" lon="-1.77071">
        <ele>19.18</ele>
        <time>2019-11-10T13:28:47.001Z</time>
      </trkpt>
      <trkpt lat="47.86719" lon="-1.77121">
        <ele>19.738</ele>
        <time>2019-11-10T13:29:20.001Z</time>
      </trkpt>
      <trkpt lat="47.86828" lon="-1.77193">
        <ele>24.079</ele>
        <time>2019-11-10T13:29:53.001Z</time>
      </trkpt>
      <trkpt lat="47.86955" lon="-1.77365">
        <ele>25.953</ele>
        <time>2019-11-10T13:30:26.001Z</time>
      </trkpt>
      <trkpt lat="47.87116" lon="-1.77525">
        <ele>22.103</ele>
        <time>2019-11-10T13:30:59.001Z</time>
      </trkpt>
      <trkpt lat="47.87283" lon="-1.77622">
        <ele>15.569</ele>
        <time>2019-11-10T13:31:32.001Z</time>
      </trkpt>
      <trkpt lat="47.87342" lon="-1.77795">
        <ele>19.082</ele>
        <time>2019-11-10T13:32:05.001Z</time>
      </trkpt>
      <trkpt lat="47.87512" lon="-1.77811">
        <ele>16.555</ele>
        <time>2019-11-10T13:32:38.001Z</time>
      </trkpt>
      <trkpt lat="47.87674" lon="-1.77856">
        <ele>14.038</ele>
        <time>2019-11-10T13:33:11.001Z</time>
      </trkpt>
      <trkpt lat="47.87816" lon="-1.77975">
        <ele>15.062</ele>
        <time>2019-11-10T13:33:44.001Z</time>
      </trkpt>
      <trkpt lat="47.87935" lon="-1.78088">
        <ele>13.355</ele>
        <time>2019-11-10T13:34:17.001Z</time>
      </trkpt>
      <trkpt lat="47.88074" lon="-1.78225">
        <ele>16.427</ele>
        <time>2019-11-10T13:34:50.001Z</time>
      </trkpt>
      <trkpt lat="47.88187" lon="-1.78383">
        <ele>19.232</ele>
        <time>2019-11-10T13:35:23.001Z</time>
      </trkpt>
      <trkpt lat="47.88341" lon="-1.78537">
        <ele>12.644</ele>
        <time>2019-11-10T13:35:56.001Z</time>
      </trkpt>
      <trkpt lat="47.88497" lon="-1.78601">
        <ele>13.785</ele>
        <time>2019-11-10T13:36:29.001Z</time>
      </trkpt>
      <trkpt lat="47.88652" lon="-1.78638">
        <ele>12.355</ele>
        <time>2019-11-10T13:37:02Z</time>
      </trkpt>
      <trkpt lat="47.88811" lon="-1.78633">
        <ele>12.616</ele>
        <time>2019-11-10T13:37:35.001Z</time>
      </trkpt>
      <trkpt lat="47.88971" lon="-1.7868">
        <ele>11.751</ele>
        <time>2019-11-10T13:38:08.001Z</time>
      </trkpt>
      <trkpt lat="47.89112" lon="-1.78625">
        <ele>12.557</ele>
        <time>2019-11-10T13:38:41.001Z</time>
      </trkpt>
      <trkpt lat="47.89169" lon="-1.78607">
        <ele>21.79</ele>
        <time>2019-11-10T13:45:14.001Z</time>
      </trkpt>
      <trkpt lat="47.89286" lon="-1.78493">
        <ele>29.268</ele>
        <time>2019-11-10T13:45:47.001Z</time>
      </trkpt>
      <trkpt lat="47.8938" lon="-1.7831">
        <ele>37.757</ele>
        <time>2019-11-10T13:46:20.001Z</time>
      </trkpt>
      <trkpt lat="47.89433" lon="-1.7819">
        <ele>21.742</ele>
        <time>2019-11-10T13:50:05.001Z</time>
      </trkpt>
      <trkpt lat="47.89474" lon="-1.78152">
        <ele>22.42</ele>
        <time>2019-11-10T13:51:29.001Z</time>
      </trkpt>
      <trkpt lat="47.89547" lon="-1.78113">
        <ele>26.154</ele>
        <time>2019-11-10T13:52:02Z</time>
      </trkpt>
      <trkpt lat="47.89665" lon="-1.7797">
        <ele>23.144</ele>
        <time>2019-11-10T13:52:35.001Z</time>
      </trkpt>
      <trkpt lat="47.89762" lon="-1.77954">
        <ele>27.299</ele>
        <time>2019-11-10T13:53:08.001Z</time>
      </trkpt>
      <trkpt lat="47.89854" lon="-1.77962">
        <ele>32.559</ele>
        <time>2019-11-10T13:53:41.001Z</time>
      </trkpt>
      <trkpt lat="47.89933" lon="-1.77956">
        <ele>31.217</ele>
        <time>2019-11-10T13:54:20.001Z</time>
      </trkpt>
      <trkpt lat="47.90014" lon="-1.77935">
        <ele>35.819</ele>
        <time>2019-11-10T13:54:56.001Z</time>
      </trkpt>
      <trkpt lat="47.90085" lon="-1.77906">
        <ele>41.696</ele>
        <time>2019-11-10T13:55:29.001Z</time>
      </trkpt>
      <trkpt lat="47.90156" lon="-1.77853">
        <ele>47.47</ele>
        <time>2019-11-10T13:56:02Z</time>
      </trkpt>
      <trkpt lat="47.90214" lon="-1.77786">
        <ele>52.555</ele>
        <time>2019-11-10T13:56:47.001Z</time>
      </trkpt>
      <trkpt lat="47.90274" lon="-1.77789">
        <ele>53.891</ele>
        <time>2019-11-10T13:57:26.001Z</time>
      </trkpt>
      <trkpt lat="47.90331" lon="-1.77823">
        <ele>57.02</ele>
        <time>2019-11-10T13:58:02Z</time>
      </trkpt>
      <trkpt lat="47.9039" lon="-1.77826">
        <ele>59.75</ele>
        <time>2019-11-10T13:58:38.001Z</time>
      </trkpt>
      <trkpt lat="47.90502" lon="-1.77816">
        <ele>58.788</ele>
        <time>2019-11-10T13:59:11.001Z</time>
      </trkpt>
      <trkpt lat="47.90577" lon="-1.77862">
        <ele>66.953</ele>
        <time>2019-11-10T13:59:44.001Z</time>
      </trkpt>
      <trkpt lat="47.90637" lon="-1.77886">
        <ele>75.892</ele>
        <time>2019-11-10T14:00:23.001Z</time>
      </trkpt>
      <trkpt lat="47.90703" lon="-1.77901">
        <ele>83.816</ele>
        <time>2019-11-10T14:00:59.001Z</time>
      </trkpt>
      <trkpt lat="47.90765" lon="-1.77934">
        <ele>92.867</ele>
        <time>2019-11-10T14:01:41.001Z</time>
      </trkpt>
      <trkpt lat="47.90814" lon="-1.77941">
        <ele>92.912</ele>
        <time>2019-11-10T14:02:14.001Z</time>
      </trkpt>
      <trkpt lat="47.90871" lon="-1.7795">
        <ele>99.66</ele>
        <time>2019-11-10T14:02:47.001Z</time>
      </trkpt>
      <trkpt lat="47.90935" lon="-1.7796">
        <ele>100.634</ele>
        <time>2019-11-10T14:03:23.001Z</time>
      </trkpt>
      <trkpt lat="47.91001" lon="-1.77968">
        <ele>105.094</ele>
        <time>2019-11-10T14:03:56.001Z</time>
      </trkpt>
      <trkpt lat="47.9108" lon="-1.77977">
        <ele>113.28</ele>
        <time>2019-11-10T14:04:32.001Z</time>
      </trkpt>
      <trkpt lat="47.91243" lon="-1.77998">
        <ele>110.109</ele>
        <time>2019-11-10T14:05:05.001Z</time>
      </trkpt>
      <trkpt lat="47.91317" lon="-1.77879">
        <ele>117.586</ele>
        <time>2019-11-10T14:05:38.001Z</time>
      </trkpt>
      <trkpt lat="47.91455" lon="-1.77765">
        <ele>105.097</ele>
        <time>2019-11-10T14:06:11.001Z</time>
      </trkpt>
      <trkpt lat="47.91702" lon="-1.77706">
        <ele>83.812</ele>
        <time>2019-11-10T14:06:44.001Z</time>
      </trkpt>
      <trkpt lat="47.91745" lon="-1.77978">
        <ele>80.698</ele>
        <time>2019-11-10T14:07:17.001Z</time>
      </trkpt>
      <trkpt lat="47.9194" lon="-1.78279">
        <ele>72.228</ele>
        <time>2019-11-10T14:07:50.001Z</time>
      </trkpt>
      <trkpt lat="47.92282" lon="-1.78298">
        <ele>49.169</ele>
        <time>2019-11-10T14:08:23.001Z</time>
      </trkpt>
      <trkpt lat="47.92398" lon="-1.78296">
        <ele>51.725</ele>
        <time>2019-11-10T14:08:56.001Z</time>
      </trkpt>
      <trkpt lat="47.92478" lon="-1.78314">
        <ele>57.974</ele>
        <time>2019-11-10T14:09:29.001Z</time>
      </trkpt>
      <trkpt lat="47.9253" lon="-1.78212">
        <ele>64.807</ele>
        <time>2019-11-10T14:10:02Z</time>
      </trkpt>
      <trkpt lat="47.92586" lon="-1.78084">
        <ele>62.291</ele>
        <time>2019-11-10T14:10:35.001Z</time>
      </trkpt>
      <trkpt lat="47.92632" lon="-1.77954">
        <ele>62.292</ele>
        <time>2019-11-10T14:11:08.001Z</time>
      </trkpt>
      <trkpt lat="47.92671" lon="-1.77661">
        <ele>52.731</ele>
        <time>2019-11-10T14:11:41.001Z</time>
      </trkpt>
      <trkpt lat="47.92834" lon="-1.77177">
        <ele>37.797</ele>
        <time>2019-11-10T14:12:14.001Z</time>
      </trkpt>
      <trkpt lat="47.93003" lon="-1.76693">
        <ele>10.104</ele>
        <time>2019-11-10T14:12:47.001Z</time>
      </trkpt>
      <trkpt lat="47.93112" lon="-1.76606">
        <ele>20.041</ele>
        <time>2019-11-10T14:13:20.001Z</time>
      </trkpt>
      <trkpt lat="47.93196" lon="-1.76583">
        <ele>34.307</ele>
        <time>2019-11-10T14:13:56.001Z</time>
      </trkpt>
      <trkpt lat="47.93268" lon="-1.76569">
        <ele>39.34</ele>
        <time>2019-11-10T14:14:29.001Z</time>
      </trkpt>
      <trkpt lat="47.9335" lon="-1.76585">
        <ele>41.811</ele>
        <time>2019-11-10T14:15:02Z</time>
      </trkpt>
      <trkpt lat="47.93441" lon="-1.76604">
        <ele>40.713</ele>
        <time>2019-11-10T14:15:35.001Z</time>
      </trkpt>
      <trkpt lat="47.93528" lon="-1.76565">
        <ele>44.614</ele>
        <time>2019-11-10T14:16:11.001Z</time>
      </trkpt>
      <trkpt lat="47.93591" lon="-1.76402">
        <ele>46.507</ele>
        <time>2019-11-10T14:16:44.001Z</time>
      </trkpt>
      <trkpt lat="47.93587" lon="-1.76027">
        <ele>29.913</ele>
        <time>2019-11-10T14:17:17.001Z</time>
      </trkpt>
      <trkpt lat="47.93711" lon="-1.75865">
        <ele>23.28</ele>
        <time>2019-11-10T14:17:50.001Z</time>
      </trkpt>
      <trkpt lat="47.93799" lon="-1.75666">
        <ele>21.298</ele>
        <time>2019-11-10T14:18:23.001Z</time>
      </trkpt>
      <trkpt lat="47.9393" lon="-1.75564">
        <ele>27.779</ele>
        <time>2019-11-10T14:18:56.001Z</time>
      </trkpt>
      <trkpt lat="47.94062" lon="-1.75527">
        <ele>30.524</ele>
        <time>2019-11-10T14:19:29.001Z</time>
      </trkpt>
      <trkpt lat="47.94127" lon="-1.75439">
        <ele>32.173</ele>
        <time>2019-11-10T14:20:02Z</time>
      </trkpt>
      <trkpt lat="47.94159" lon="-1.75248">
        <ele>23.655</ele>
        <time>2019-11-10T14:20:35.001Z</time>
      </trkpt>
      <trkpt lat="47.94364" lon="-1.75213">
        <ele>20.062</ele>
        <time>2019-11-10T14:21:08.001Z</time>
      </trkpt>
      <trkpt lat="47.94522" lon="-1.75192">
        <ele>18.607</ele>
        <time>2019-11-10T14:21:44.001Z</time>
      </trkpt>
      <trkpt lat="47.946" lon="-1.75174">
        <ele>19.77</ele>
        <time>2019-11-10T14:22:47.001Z</time>
      </trkpt>
      <trkpt lat="47.94677" lon="-1.75133">
        <ele>22.711</ele>
        <time>2019-11-10T14:23:35.001Z</time>
      </trkpt>
      <trkpt lat="47.948" lon="-1.75088">
        <ele>22.185</ele>
        <time>2019-11-10T14:24:08.001Z</time>
      </trkpt>
      <trkpt lat="47.94946" lon="-1.75019">
        <ele>22.724</ele>
        <time>2019-11-10T14:24:41.001Z</time>
      </trkpt>
      <trkpt lat="47.95089" lon="-1.74976">
        <ele>27.348</ele>
        <time>2019-11-10T14:25:14.001Z</time>
      </trkpt>
      <trkpt lat="47.9519" lon="-1.74962">
        <ele>23.427</ele>
        <time>2019-11-10T14:25:50.001Z</time>
      </trkpt>
      <trkpt lat="47.95197" lon="-1.74963">
        <ele>27.823</ele>
        <time>2019-11-10T14:27:35.001Z</time>
      </trkpt>
      <trkpt lat="47.95275" lon="-1.74883">
        <ele>17.324</ele>
        <time>2019-11-10T14:28:11.001Z</time>
      </trkpt>
      <trkpt lat="47.95337" lon="-1.74799">
        <ele>21.141</ele>
        <time>2019-11-10T14:28:47.001Z</time>
      </trkpt>
      <trkpt lat="47.95428" lon="-1.74726">
        <ele>21.754</ele>
        <time>2019-11-10T14:29:20.001Z</time>
      </trkpt>
      <trkpt lat="47.95478" lon="-1.74704">
        <ele>22.741</ele>
        <time>2019-11-10T14:30:08.001Z</time>
      </trkpt>
      <trkpt lat="47.95588" lon="-1.74686">
        <ele>23.377</ele>
        <time>2019-11-10T14:30:44.001Z</time>
      </trkpt>
      <trkpt lat="47.95699" lon="-1.74694">
        <ele>24.663</ele>
        <time>2019-11-10T14:31:17.001Z</time>
      </trkpt>
      <trkpt lat="47.95827" lon="-1.74711">
        <ele>27.711</ele>
        <time>2019-11-10T14:31:50.001Z</time>
      </trkpt>
      <trkpt lat="47.95929" lon="-1.74719">
        <ele>31.669</ele>
        <time>2019-11-10T14:32:23.001Z</time>
      </trkpt>
      <trkpt lat="47.96064" lon="-1.74721">
        <ele>30.926</ele>
        <time>2019-11-10T14:32:56.001Z</time>
      </trkpt>
      <trkpt lat="47.96186" lon="-1.74629">
        <ele>19.523</ele>
        <time>2019-11-10T14:33:29.001Z</time>
      </trkpt>
      <trkpt lat="47.96297" lon="-1.74533">
        <ele>15.099</ele>
        <time>2019-11-10T14:34:02Z</time>
      </trkpt>
      <trkpt lat="47.96419" lon="-1.74477">
        <ele>14.024</ele>
        <time>2019-11-10T14:34:35.001Z</time>
      </trkpt>
      <trkpt lat="47.96527" lon="-1.74491">
        <ele>17.284</ele>
        <time>2019-11-10T14:35:08.001Z</time>
      </trkpt>
      <trkpt lat="47.96637" lon="-1.74589">
        <ele>17.807</ele>
        <time>2019-11-10T14:35:41.001Z</time>
      </trkpt>
      <trkpt lat="47.96746" lon="-1.74701">
        <ele>13.072</ele>
        <time>2019-11-10T14:36:14.001Z</time>
      </trkpt>
      <trkpt lat="47.96856" lon="-1.74791">
        <ele>14.176</ele>
        <time>2019-11-10T14:36:47.001Z</time>
      </trkpt>
      <trkpt lat="47.96976" lon="-1.74852">
        <ele>21.49</ele>
        <time>2019-11-10T14:37:20.001Z</time>
      </trkpt>
      <trkpt lat="47.9711" lon="-1.74876">
        <ele>24.368</ele>
        <time>2019-11-10T14:37:53.001Z</time>
      </trkpt>
      <trkpt lat="47.97235" lon="-1.74904">
        <ele>18.18</ele>
        <time>2019-11-10T14:38:26.001Z</time>
      </trkpt>
      <trkpt lat="47.97376" lon="-1.74985">
        <ele>21.711</ele>
        <time>2019-11-10T14:39:02Z</time>
      </trkpt>
      <trkpt lat="47.97525" lon="-1.75013">
        <ele>21.444</ele>
        <time>2019-11-10T14:39:35.001Z</time>
      </trkpt>
      <trkpt lat="47.97656" lon="-1.75093">
        <ele>14.476</ele>
        <time>2019-11-10T14:40:08.001Z</time>
      </trkpt>
      <trkpt lat="47.97777" lon="-1.7522">
        <ele>11.284</ele>
        <time>2019-11-10T14:40:41.001Z</time>
      </trkpt>
      <trkpt lat="47.97906" lon="-1.75311">
        <ele>15.76</ele>
        <time>2019-11-10T14:41:14.001Z</time>
      </trkpt>
      <trkpt lat="47.97993" lon="-1.7538">
        <ele>24.179</ele>
        <time>2019-11-10T14:41:47.001Z</time>
      </trkpt>
      <trkpt lat="47.98137" lon="-1.75477">
        <ele>20.575</ele>
        <time>2019-11-10T14:42:23.001Z</time>
      </trkpt>
      <trkpt lat="47.98259" lon="-1.75567">
        <ele>17.683</ele>
        <time>2019-11-10T14:42:56.001Z</time>
      </trkpt>
      <trkpt lat="47.98377" lon="-1.75654">
        <ele>19.72</ele>
        <time>2019-11-10T14:43:32.001Z</time>
      </trkpt>
      <trkpt lat="47.98481" lon="-1.75737">
        <ele>29.486</ele>
        <time>2019-11-10T14:44:11.001Z</time>
      </trkpt>
      <trkpt lat="47.98628" lon="-1.75819">
        <ele>25.836</ele>
        <time>2019-11-10T14:44:44.001Z</time>
      </trkpt>
      <trkpt lat="47.98751" lon="-1.75862">
        <ele>20.882</ele>
        <time>2019-11-10T14:45:17.001Z</time>
      </trkpt>
      <trkpt lat="47.98904" lon="-1.75751">
        <ele>17.518</ele>
        <time>2019-11-10T14:45:50.001Z</time>
      </trkpt>
      <trkpt lat="47.99049" lon="-1.75685">
        <ele>15.179</ele>
        <time>2019-11-10T14:46:23.001Z</time>
      </trkpt>
      <trkpt lat="47.99164" lon="-1.75614">
        <ele>17.008</ele>
        <time>2019-11-10T14:46:56.001Z</time>
      </trkpt>
      <trkpt lat="47.99251" lon="-1.7556">
        <ele>14.933</ele>
        <time>2019-11-10T14:47:32.001Z</time>
      </trkpt>
      <trkpt lat="47.99359" lon="-1.75452">
        <ele>14.881</ele>
        <time>2019-11-10T14:48:05.001Z</time>
      </trkpt>
      <trkpt lat="47.99437" lon="-1.75303">
        <ele>12.649</ele>
        <time>2019-11-10T14:48:41.001Z</time>
      </trkpt>
      <trkpt lat="47.99523" lon="-1.75189">
        <ele>13.677</ele>
        <time>2019-11-10T14:49:14.001Z</time>
      </trkpt>
      <trkpt lat="47.99627" lon="-1.75241">
        <ele>16.205</ele>
        <time>2019-11-10T14:49:50.001Z</time>
      </trkpt>
      <trkpt lat="47.99683" lon="-1.75402">
        <ele>23.05</ele>
        <time>2019-11-10T14:50:23.001Z</time>
      </trkpt>
      <trkpt lat="47.99704" lon="-1.75591">
        <ele>26.157</ele>
        <time>2019-11-10T14:50:59.001Z</time>
      </trkpt>
      <trkpt lat="47.99712" lon="-1.75792">
        <ele>30.698</ele>
        <time>2019-11-10T14:51:32.001Z</time>
      </trkpt>
      <trkpt lat="47.9972" lon="-1.75995">
        <ele>32.824</ele>
        <time>2019-11-10T14:52:05.001Z</time>
      </trkpt>
      <trkpt lat="47.9974" lon="-1.762">
        <ele>30.719</ele>
        <time>2019-11-10T14:52:38.001Z</time>
      </trkpt>
      <trkpt lat="47.99792" lon="-1.76399">
        <ele>27.352</ele>
        <time>2019-11-10T14:53:11.001Z</time>
      </trkpt>
      <trkpt lat="47.99916" lon="-1.76497">
        <ele>15.255</ele>
        <time>2019-11-10T14:53:44.001Z</time>
      </trkpt>
      <trkpt lat="47.99982" lon="-1.76315">
        <ele>13.331</ele>
        <time>2019-11-10T14:54:17.001Z</time>
      </trkpt>
      <trkpt lat="48.00104" lon="-1.76221">
        <ele>13.97</ele>
        <time>2019-11-10T14:54:50.001Z</time>
      </trkpt>
      <trkpt lat="48.00186" lon="-1.76364">
        <ele>14.712</ele>
        <time>2019-11-10T14:55:23.001Z</time>
      </trkpt>
      <trkpt lat="48.00203" lon="-1.76585">
        <ele>10.987</ele>
        <time>2019-11-10T14:55:56.001Z</time>
      </trkpt>
      <trkpt lat="48.00231" lon="-1.76784">
        <ele>14.982</ele>
        <time>2019-11-10T14:56:29.001Z</time>
      </trkpt>
      <trkpt lat="48.00211" lon="-1.77">
        <ele>15.78</ele>
        <time>2019-11-10T14:57:02Z</time>
      </trkpt>
      <trkpt lat="48.00221" lon="-1.77186">
        <ele>20.128</ele>
        <time>2019-11-10T14:57:35.001Z</time>
      </trkpt>
      <trkpt lat="48.00225" lon="-1.77316">
        <ele>23.678</ele>
        <time>2019-11-10T14:58:11.001Z</time>
      </trkpt>
      <trkpt lat="48.00224" lon="-1.77419">
        <ele>19.342</ele>
        <time>2019-11-10T15:01:50.001Z</time>
      </trkpt>
      <trkpt lat="48.00219" lon="-1.77502">
        <ele>19.644</ele>
        <time>2019-11-10T15:02:29.001Z</time>
      </trkpt>
    </trkseg>
  </trk>
  <trk>
    <name><![CDATA[Tracé 20191111-082508]]></name>
    <trkseg>
      <trkpt lat="48.00237" lon="-1.77523">
        <ele>24.576</ele>
        <time>2019-11-11T07:35:56Z</time>
      </trkpt>
      <trkpt lat="48.00304" lon="-1.77555">
        <ele>23.747</ele>
        <time>2019-11-11T07:36:26Z</time>
      </trkpt>
      <trkpt lat="48.00321" lon="-1.77736">
        <ele>19.571</ele>
        <time>2019-11-11T07:36:59Z</time>
      </trkpt>
      <trkpt lat="48.00345" lon="-1.77879">
        <ele>19.55</ele>
        <time>2019-11-11T07:37:29Z</time>
      </trkpt>
      <trkpt lat="48.00405" lon="-1.77989">
        <ele>16.524</ele>
        <time>2019-11-11T07:37:59Z</time>
      </trkpt>
      <trkpt lat="48.0038" lon="-1.78152">
        <ele>20.536</ele>
        <time>2019-11-11T07:38:32Z</time>
      </trkpt>
      <trkpt lat="48.0035" lon="-1.78324">
        <ele>23.058</ele>
        <time>2019-11-11T07:39:02Z</time>
      </trkpt>
      <trkpt lat="48.00411" lon="-1.78463">
        <ele>21.475</ele>
        <time>2019-11-11T07:39:32Z</time>
      </trkpt>
      <trkpt lat="48.00535" lon="-1.78501">
        <ele>23.105</ele>
        <time>2019-11-11T07:40:02Z</time>
      </trkpt>
      <trkpt lat="48.00675" lon="-1.7851">
        <ele>17.447</ele>
        <time>2019-11-11T07:40:35Z</time>
      </trkpt>
      <trkpt lat="48.00802" lon="-1.78434">
        <ele>15.152</ele>
        <time>2019-11-11T07:41:05Z</time>
      </trkpt>
      <trkpt lat="48.00921" lon="-1.78355">
        <ele>19.593</ele>
        <time>2019-11-11T07:41:35Z</time>
      </trkpt>
      <trkpt lat="48.01048" lon="-1.78305">
        <ele>23.416</ele>
        <time>2019-11-11T07:42:08Z</time>
      </trkpt>
      <trkpt lat="48.01172" lon="-1.78274">
        <ele>21.671</ele>
        <time>2019-11-11T07:42:38Z</time>
      </trkpt>
      <trkpt lat="48.01303" lon="-1.78193">
        <ele>21.299</ele>
        <time>2019-11-11T07:43:08Z</time>
      </trkpt>
      <trkpt lat="48.01449" lon="-1.782">
        <ele>18.623</ele>
        <time>2019-11-11T07:43:41Z</time>
      </trkpt>
      <trkpt lat="48.01587" lon="-1.78195">
        <ele>15.391</ele>
        <time>2019-11-11T07:44:11Z</time>
      </trkpt>
      <trkpt lat="48.01684" lon="-1.78071">
        <ele>19.516</ele>
        <time>2019-11-11T07:44:41Z</time>
      </trkpt>
      <trkpt lat="48.01769" lon="-1.7792">
        <ele>19.875</ele>
        <time>2019-11-11T07:45:11Z</time>
      </trkpt>
      <trkpt lat="48.01898" lon="-1.77787">
        <ele>21.035</ele>
        <time>2019-11-11T07:45:44Z</time>
      </trkpt>
      <trkpt lat="48.02007" lon="-1.77669">
        <ele>20.826</ele>
        <time>2019-11-11T07:46:14Z</time>
      </trkpt>
      <trkpt lat="48.02105" lon="-1.77537">
        <ele>22.819</ele>
        <time>2019-11-11T07:46:44Z</time>
      </trkpt>
      <trkpt lat="48.02235" lon="-1.77463">
        <ele>21.915</ele>
        <time>2019-11-11T07:47:17Z</time>
      </trkpt>
      <trkpt lat="48.0224" lon="-1.77461">
        <ele>22.691</ele>
        <time>2019-11-11T07:48:23Z</time>
      </trkpt>
      <trkpt lat="48.02177" lon="-1.77476">
        <ele>21.185</ele>
        <time>2019-11-11T07:48:53Z</time>
      </trkpt>
      <trkpt lat="48.02223" lon="-1.77371">
        <ele>27.266</ele>
        <time>2019-11-11T07:49:26Z</time>
      </trkpt>
      <trkpt lat="48.02238" lon="-1.7734">
        <ele>24.648</ele>
        <time>2019-11-11T07:58:26Z</time>
      </trkpt>
      <trkpt lat="48.02328" lon="-1.77323">
        <ele>23.833</ele>
        <time>2019-11-11T07:59:02Z</time>
      </trkpt>
      <trkpt lat="48.02443" lon="-1.77242">
        <ele>17.684</ele>
        <time>2019-11-11T07:59:32Z</time>
      </trkpt>
      <trkpt lat="48.0252" lon="-1.77096">
        <ele>12.64</ele>
        <time>2019-11-11T08:00:05.001Z</time>
      </trkpt>
      <trkpt lat="48.02485" lon="-1.76947">
        <ele>17.246</ele>
        <time>2019-11-11T08:00:35Z</time>
      </trkpt>
      <trkpt lat="48.02517" lon="-1.76861">
        <ele>28.897</ele>
        <time>2019-11-11T08:01:05Z</time>
      </trkpt>
      <trkpt lat="48.02586" lon="-1.76811">
        <ele>35.86</ele>
        <time>2019-11-11T08:01:35Z</time>
      </trkpt>
      <trkpt lat="48.02629" lon="-1.76725">
        <ele>33.062</ele>
        <time>2019-11-11T08:02:08Z</time>
      </trkpt>
      <trkpt lat="48.02604" lon="-1.76572">
        <ele>37.062</ele>
        <time>2019-11-11T08:02:38Z</time>
      </trkpt>
      <trkpt lat="48.02673" lon="-1.76446">
        <ele>38.065</ele>
        <time>2019-11-11T08:03:08Z</time>
      </trkpt>
      <trkpt lat="48.02817" lon="-1.76274">
        <ele>36.992</ele>
        <time>2019-11-11T08:03:41Z</time>
      </trkpt>
      <trkpt lat="48.0293" lon="-1.76159">
        <ele>38.025</ele>
        <time>2019-11-11T08:04:11Z</time>
      </trkpt>
      <trkpt lat="48.03017" lon="-1.76082">
        <ele>40.602</ele>
        <time>2019-11-11T08:04:41Z</time>
      </trkpt>
      <trkpt lat="48.03105" lon="-1.7598">
        <ele>37.476</ele>
        <time>2019-11-11T08:05:14Z</time>
      </trkpt>
      <trkpt lat="48.03148" lon="-1.75942">
        <ele>33.45</ele>
        <time>2019-11-11T08:05:44Z</time>
      </trkpt>
      <trkpt lat="48.03325" lon="-1.75896">
        <ele>30.055</ele>
        <time>2019-11-11T08:06:14Z</time>
      </trkpt>
      <trkpt lat="48.03497" lon="-1.75816">
        <ele>27.035</ele>
        <time>2019-11-11T08:06:44Z</time>
      </trkpt>
      <trkpt lat="48.03571" lon="-1.75738">
        <ele>29.331</ele>
        <time>2019-11-11T08:07:17Z</time>
      </trkpt>
      <trkpt lat="48.03732" lon="-1.75674">
        <ele>25.837</ele>
        <time>2019-11-11T08:07:47Z</time>
      </trkpt>
      <trkpt lat="48.0386" lon="-1.75595">
        <ele>30.697</ele>
        <time>2019-11-11T08:08:17Z</time>
      </trkpt>
      <trkpt lat="48.03999" lon="-1.75529">
        <ele>34.025</ele>
        <time>2019-11-11T08:08:50Z</time>
      </trkpt>
      <trkpt lat="48.04127" lon="-1.75458">
        <ele>33.189</ele>
        <time>2019-11-11T08:09:20Z</time>
      </trkpt>
      <trkpt lat="48.04223" lon="-1.75367">
        <ele>34.174</ele>
        <time>2019-11-11T08:09:50Z</time>
      </trkpt>
      <trkpt lat="48.04317" lon="-1.75359">
        <ele>36.745</ele>
        <time>2019-11-11T08:10:20Z</time>
      </trkpt>
      <trkpt lat="48.04443" lon="-1.7544">
        <ele>39.184</ele>
        <time>2019-11-11T08:10:53Z</time>
      </trkpt>
      <trkpt lat="48.04588" lon="-1.75518">
        <ele>35.042</ele>
        <time>2019-11-11T08:11:23Z</time>
      </trkpt>
      <trkpt lat="48.04792" lon="-1.75514">
        <ele>32.268</ele>
        <time>2019-11-11T08:11:53Z</time>
      </trkpt>
      <trkpt lat="48.04995" lon="-1.75532">
        <ele>23.82</ele>
        <time>2019-11-11T08:12:26Z</time>
      </trkpt>
      <trkpt lat="48.05172" lon="-1.755">
        <ele>27.229</ele>
        <time>2019-11-11T08:12:56Z</time>
      </trkpt>
      <trkpt lat="48.05355" lon="-1.75498">
        <ele>27.373</ele>
        <time>2019-11-11T08:13:26Z</time>
      </trkpt>
      <trkpt lat="48.05493" lon="-1.75432">
        <ele>28.018</ele>
        <time>2019-11-11T08:13:56Z</time>
      </trkpt>
      <trkpt lat="48.05652" lon="-1.75449">
        <ele>20.334</ele>
        <time>2019-11-11T08:14:29Z</time>
      </trkpt>
      <trkpt lat="48.05795" lon="-1.75444">
        <ele>23.356</ele>
        <time>2019-11-11T08:14:59Z</time>
      </trkpt>
      <trkpt lat="48.05928" lon="-1.75545">
        <ele>25.375</ele>
        <time>2019-11-11T08:15:29Z</time>
      </trkpt>
      <trkpt lat="48.06104" lon="-1.75557">
        <ele>25.292</ele>
        <time>2019-11-11T08:16:02Z</time>
      </trkpt>
      <trkpt lat="48.06221" lon="-1.75504">
        <ele>30.656</ele>
        <time>2019-11-11T08:16:32Z</time>
      </trkpt>
      <trkpt lat="48.06243" lon="-1.75439">
        <ele>29.722</ele>
        <time>2019-11-11T08:17:02Z</time>
      </trkpt>
      <trkpt lat="48.06191" lon="-1.75323">
        <ele>27.346</ele>
        <time>2019-11-11T08:17:35Z</time>
      </trkpt>
      <trkpt lat="48.06192" lon="-1.75249">
        <ele>27.804</ele>
        <time>2019-11-11T08:20:02Z</time>
      </trkpt>
      <trkpt lat="48.06248" lon="-1.75193">
        <ele>32.41</ele>
        <time>2019-11-11T08:20:35Z</time>
      </trkpt>
      <trkpt lat="48.06335" lon="-1.75127">
        <ele>30.469</ele>
        <time>2019-11-11T08:21:05Z</time>
      </trkpt>
      <trkpt lat="48.06415" lon="-1.75012">
        <ele>29.343</ele>
        <time>2019-11-11T08:21:38Z</time>
      </trkpt>
      <trkpt lat="48.06495" lon="-1.74972">
        <ele>28.533</ele>
        <time>2019-11-11T08:22:08Z</time>
      </trkpt>
      <trkpt lat="48.06553" lon="-1.74957">
        <ele>29.134</ele>
        <time>2019-11-11T08:23:17Z</time>
      </trkpt>
      <trkpt lat="48.06633" lon="-1.74978">
        <ele>29.727</ele>
        <time>2019-11-11T08:23:50Z</time>
      </trkpt>
      <trkpt lat="48.06764" lon="-1.74978">
        <ele>29.808</ele>
        <time>2019-11-11T08:24:20Z</time>
      </trkpt>
      <trkpt lat="48.06896" lon="-1.74976">
        <ele>26.747</ele>
        <time>2019-11-11T08:24:50Z</time>
      </trkpt>
      <trkpt lat="48.07036" lon="-1.74972">
        <ele>27.252</ele>
        <time>2019-11-11T08:25:20Z</time>
      </trkpt>
      <trkpt lat="48.07212" lon="-1.74972">
        <ele>24.789</ele>
        <time>2019-11-11T08:25:53Z</time>
      </trkpt>
      <trkpt lat="48.07369" lon="-1.74911">
        <ele>22.507</ele>
        <time>2019-11-11T08:26:23Z</time>
      </trkpt>
      <trkpt lat="48.07477" lon="-1.74759">
        <ele>24.327</ele>
        <time>2019-11-11T08:26:53Z</time>
      </trkpt>
      <trkpt lat="48.07585" lon="-1.74558">
        <ele>23.417</ele>
        <time>2019-11-11T08:27:26Z</time>
      </trkpt>
      <trkpt lat="48.07672" lon="-1.74385">
        <ele>24.56</ele>
        <time>2019-11-11T08:27:56Z</time>
      </trkpt>
      <trkpt lat="48.07759" lon="-1.74219">
        <ele>25.325</ele>
        <time>2019-11-11T08:28:26Z</time>
      </trkpt>
      <trkpt lat="48.0785" lon="-1.74044">
        <ele>26.385</ele>
        <time>2019-11-11T08:28:56Z</time>
      </trkpt>
      <trkpt lat="48.07954" lon="-1.73843">
        <ele>29.674</ele>
        <time>2019-11-11T08:29:29Z</time>
      </trkpt>
      <trkpt lat="48.0805" lon="-1.73659">
        <ele>34.7</ele>
        <time>2019-11-11T08:29:59Z</time>
      </trkpt>
      <trkpt lat="48.08141" lon="-1.73487">
        <ele>29.114</ele>
        <time>2019-11-11T08:30:29Z</time>
      </trkpt>
      <trkpt lat="48.08235" lon="-1.73289">
        <ele>28.662</ele>
        <time>2019-11-11T08:31:02Z</time>
      </trkpt>
      <trkpt lat="48.08315" lon="-1.73118">
        <ele>27.99</ele>
        <time>2019-11-11T08:31:32Z</time>
      </trkpt>
      <trkpt lat="48.08394" lon="-1.72977">
        <ele>28.455</ele>
        <time>2019-11-11T08:32:02Z</time>
      </trkpt>
      <trkpt lat="48.0849" lon="-1.72807">
        <ele>26.702</ele>
        <time>2019-11-11T08:32:35Z</time>
      </trkpt>
      <trkpt lat="48.08564" lon="-1.72624">
        <ele>26.159</ele>
        <time>2019-11-11T08:33:05Z</time>
      </trkpt>
      <trkpt lat="48.08687" lon="-1.72535">
        <ele>27.218</ele>
        <time>2019-11-11T08:33:35Z</time>
      </trkpt>
      <trkpt lat="48.08798" lon="-1.72447">
        <ele>27.233</ele>
        <time>2019-11-11T08:34:05Z</time>
      </trkpt>
      <trkpt lat="48.08903" lon="-1.7229">
        <ele>32.496</ele>
        <time>2019-11-11T08:34:38Z</time>
      </trkpt>
      <trkpt lat="48.0899" lon="-1.72158">
        <ele>30.06</ele>
        <time>2019-11-11T08:35:08Z</time>
      </trkpt>
      <trkpt lat="48.09066" lon="-1.72044">
        <ele>32.51</ele>
        <time>2019-11-11T08:35:38Z</time>
      </trkpt>
      <trkpt lat="48.09137" lon="-1.71914">
        <ele>38.721</ele>
        <time>2019-11-11T08:36:11Z</time>
      </trkpt>
      <trkpt lat="48.09174" lon="-1.718">
        <ele>45.073</ele>
        <time>2019-11-11T08:36:41Z</time>
      </trkpt>
      <trkpt lat="48.09211" lon="-1.71686">
        <ele>42.278</ele>
        <time>2019-11-11T08:37:11Z</time>
      </trkpt>
      <trkpt lat="48.09249" lon="-1.71567">
        <ele>43.871</ele>
        <time>2019-11-11T08:37:41Z</time>
      </trkpt>
      <trkpt lat="48.0931" lon="-1.71455">
        <ele>46.664</ele>
        <time>2019-11-11T08:38:14Z</time>
      </trkpt>
      <trkpt lat="48.09406" lon="-1.71391">
        <ele>47.295</ele>
        <time>2019-11-11T08:38:44Z</time>
      </trkpt>
      <trkpt lat="48.09509" lon="-1.71322">
        <ele>43.605</ele>
        <time>2019-11-11T08:39:14Z</time>
      </trkpt>
      <trkpt lat="48.09611" lon="-1.71254">
        <ele>39.875</ele>
        <time>2019-11-11T08:39:47Z</time>
      </trkpt>
      <trkpt lat="48.09725" lon="-1.71335">
        <ele>33.565</ele>
        <time>2019-11-11T08:40:17Z</time>
      </trkpt>
      <trkpt lat="48.09839" lon="-1.71439">
        <ele>36.534</ele>
        <time>2019-11-11T08:40:47Z</time>
      </trkpt>
      <trkpt lat="48.0986" lon="-1.71354">
        <ele>37.306</ele>
        <time>2019-11-11T08:41:20Z</time>
      </trkpt>
      <trkpt lat="48.09959" lon="-1.71374">
        <ele>37.582</ele>
        <time>2019-11-11T08:41:53Z</time>
      </trkpt>
      <trkpt lat="48.10078" lon="-1.71387">
        <ele>34.472</ele>
        <time>2019-11-11T08:42:23Z</time>
      </trkpt>
      <trkpt lat="48.10143" lon="-1.71259">
        <ele>35.992</ele>
        <time>2019-11-11T08:42:53Z</time>
      </trkpt>
      <trkpt lat="48.10229" lon="-1.71206">
        <ele>37.297</ele>
        <time>2019-11-11T08:43:26Z</time>
      </trkpt>
      <trkpt lat="48.10253" lon="-1.71319">
        <ele>30.711</ele>
        <time>2019-11-11T08:43:59Z</time>
      </trkpt>
      <trkpt lat="48.10302" lon="-1.71351">
        <ele>26.08</ele>
        <time>2019-11-11T08:44:29Z</time>
      </trkpt>
      <trkpt lat="48.10357" lon="-1.71208">
        <ele>27.223</ele>
        <time>2019-11-11T08:45:02Z</time>
      </trkpt>
      <trkpt lat="48.10413" lon="-1.713">
        <ele>24.945</ele>
        <time>2019-11-11T08:45:32Z</time>
      </trkpt>
      <trkpt lat="48.10423" lon="-1.71435">
        <ele>27.392</ele>
        <time>2019-11-11T08:46:02Z</time>
      </trkpt>
      <trkpt lat="48.10412" lon="-1.71462">
        <ele>29.685</ele>
        <time>2019-11-11T08:47:53Z</time>
      </trkpt>
      <trkpt lat="48.10407" lon="-1.71461">
        <ele>27.149</ele>
        <time>2019-11-11T09:15:26Z</time>
      </trkpt>
      <trkpt lat="48.104" lon="-1.71465">
        <ele>29.765</ele>
        <time>2019-11-11T09:23:59Z</time>
      </trkpt>
      <trkpt lat="48.10403" lon="-1.71433">
        <ele>34.656</ele>
        <time>2019-11-11T09:26:53Z</time>
      </trkpt>
      <trkpt lat="48.10385" lon="-1.71247">
        <ele>33.805</ele>
        <time>2019-11-11T09:27:26Z</time>
      </trkpt>
      <trkpt lat="48.10393" lon="-1.71133">
        <ele>24.507</ele>
        <time>2019-11-11T09:27:59Z</time>
      </trkpt>
      <trkpt lat="48.10464" lon="-1.70963">
        <ele>29.054</ele>
        <time>2019-11-11T09:28:29Z</time>
      </trkpt>
      <trkpt lat="48.10522" lon="-1.70801">
        <ele>30.444</ele>
        <time>2019-11-11T09:28:59Z</time>
      </trkpt>
      <trkpt lat="48.10635" lon="-1.70846">
        <ele>25.886</ele>
        <time>2019-11-11T09:29:32Z</time>
      </trkpt>
      <trkpt lat="48.10636" lon="-1.70672">
        <ele>22.989</ele>
        <time>2019-11-11T09:30:02Z</time>
      </trkpt>
      <trkpt lat="48.10642" lon="-1.70491">
        <ele>24.448</ele>
        <time>2019-11-11T09:30:32Z</time>
      </trkpt>
      <trkpt lat="48.10654" lon="-1.70342">
        <ele>25.092</ele>
        <time>2019-11-11T09:31:05Z</time>
      </trkpt>
      <trkpt lat="48.10668" lon="-1.7018">
        <ele>30.24</ele>
        <time>2019-11-11T09:31:35Z</time>
      </trkpt>
      <trkpt lat="48.10702" lon="-1.69998">
        <ele>27.058</ele>
        <time>2019-11-11T09:32:05Z</time>
      </trkpt>
      <trkpt lat="48.10732" lon="-1.69832">
        <ele>25.151</ele>
        <time>2019-11-11T09:32:35Z</time>
      </trkpt>
      <trkpt lat="48.10672" lon="-1.69728">
        <ele>26.356</ele>
        <time>2019-11-11T09:33:11Z</time>
      </trkpt>
      <trkpt lat="48.10603" lon="-1.69655">
        <ele>27.742</ele>
        <time>2019-11-11T09:33:41Z</time>
      </trkpt>
      <trkpt lat="48.10634" lon="-1.69496">
        <ele>32.423</ele>
        <time>2019-11-11T09:34:11Z</time>
      </trkpt>
      <trkpt lat="48.10645" lon="-1.69338">
        <ele>48.625</ele>
        <time>2019-11-11T09:34:44Z</time>
      </trkpt>
      <trkpt lat="48.10701" lon="-1.69315">
        <ele>46.46</ele>
        <time>2019-11-11T09:35:14Z</time>
      </trkpt>
      <trkpt lat="48.10799" lon="-1.693">
        <ele>36.506</ele>
        <time>2019-11-11T09:35:44Z</time>
      </trkpt>
      <trkpt lat="48.1096" lon="-1.69288">
        <ele>46.034</ele>
        <time>2019-11-11T09:36:17Z</time>
      </trkpt>
      <trkpt lat="48.11082" lon="-1.69253">
        <ele>49.963</ele>
        <time>2019-11-11T09:36:47Z</time>
      </trkpt>
      <trkpt lat="48.11136" lon="-1.6905">
        <ele>39.788</ele>
        <time>2019-11-11T09:37:17Z</time>
      </trkpt>
      <trkpt lat="48.11184" lon="-1.68898">
        <ele>33.11</ele>
        <time>2019-11-11T09:37:50Z</time>
      </trkpt>
      <trkpt lat="48.11225" lon="-1.68712">
        <ele>41.972</ele>
        <time>2019-11-11T09:38:23Z</time>
      </trkpt>
      <trkpt lat="48.11332" lon="-1.68725">
        <ele>47.37</ele>
        <time>2019-11-11T09:38:53Z</time>
      </trkpt>
      <trkpt lat="48.1143" lon="-1.68762">
        <ele>51.023</ele>
        <time>2019-11-11T09:39:23Z</time>
      </trkpt>
      <trkpt lat="48.11585" lon="-1.68682">
        <ele>34.853</ele>
        <time>2019-11-11T09:39:56Z</time>
      </trkpt>
      <trkpt lat="48.11712" lon="-1.68602">
        <ele>30.678</ele>
        <time>2019-11-11T09:40:26Z</time>
      </trkpt>
      <trkpt lat="48.11802" lon="-1.68547">
        <ele>34.543</ele>
        <time>2019-11-11T09:40:56Z</time>
      </trkpt>
      <trkpt lat="48.11919" lon="-1.68427">
        <ele>40.223</ele>
        <time>2019-11-11T09:41:26Z</time>
      </trkpt>
      <trkpt lat="48.12043" lon="-1.68255">
        <ele>36.006</ele>
        <time>2019-11-11T09:41:59Z</time>
      </trkpt>
      <trkpt lat="48.12085" lon="-1.68161">
        <ele>31.477</ele>
        <time>2019-11-11T09:42:32Z</time>
      </trkpt>
      <trkpt lat="48.12208" lon="-1.68028">
        <ele>32.06</ele>
        <time>2019-11-11T09:43:02Z</time>
      </trkpt>
      <trkpt lat="48.12305" lon="-1.67837">
        <ele>31.303</ele>
        <time>2019-11-11T09:43:35Z</time>
      </trkpt>
      <trkpt lat="48.12346" lon="-1.67643">
        <ele>30.223</ele>
        <time>2019-11-11T09:44:05Z</time>
      </trkpt>
      <trkpt lat="48.12433" lon="-1.67476">
        <ele>25.909</ele>
        <time>2019-11-11T09:44:35Z</time>
      </trkpt>
      <trkpt lat="48.12507" lon="-1.6746">
        <ele>26.571</ele>
        <time>2019-11-11T09:45:05Z</time>
      </trkpt>
      <trkpt lat="48.1261" lon="-1.67568">
        <ele>28.719</ele>
        <time>2019-11-11T09:45:38Z</time>
      </trkpt>
      <trkpt lat="48.1264" lon="-1.67753">
        <ele>22.789</ele>
        <time>2019-11-11T09:46:08Z</time>
      </trkpt>
      <trkpt lat="48.12713" lon="-1.67889">
        <ele>24.291</ele>
        <time>2019-11-11T09:46:38Z</time>
      </trkpt>
      <trkpt lat="48.12849" lon="-1.67929">
        <ele>26.465</ele>
        <time>2019-11-11T09:47:11Z</time>
      </trkpt>
      <trkpt lat="48.12976" lon="-1.67977">
        <ele>26.457</ele>
        <time>2019-11-11T09:47:41Z</time>
      </trkpt>
      <trkpt lat="48.13077" lon="-1.67953">
        <ele>29.602</ele>
        <time>2019-11-11T09:48:11Z</time>
      </trkpt>
      <trkpt lat="48.13092" lon="-1.67809">
        <ele>24.456</ele>
        <time>2019-11-11T09:48:44Z</time>
      </trkpt>
      <trkpt lat="48.13116" lon="-1.67677">
        <ele>27.29</ele>
        <time>2019-11-11T09:49:14Z</time>
      </trkpt>
      <trkpt lat="48.13135" lon="-1.67601">
        <ele>27.402</ele>
        <time>2019-11-11T10:02:17Z</time>
      </trkpt>
      <trkpt lat="48.13186" lon="-1.67446">
        <ele>30.302</ele>
        <time>2019-11-11T10:02:47Z</time>
      </trkpt>
      <trkpt lat="48.13254" lon="-1.67289">
        <ele>34.227</ele>
        <time>2019-11-11T10:03:20Z</time>
      </trkpt>
      <trkpt lat="48.13263" lon="-1.67105">
        <ele>24.607</ele>
        <time>2019-11-11T10:03:50Z</time>
      </trkpt>
      <trkpt lat="48.13258" lon="-1.66919">
        <ele>32.152</ele>
        <time>2019-11-11T10:04:20Z</time>
      </trkpt>
      <trkpt lat="48.1327" lon="-1.66767">
        <ele>41.293</ele>
        <time>2019-11-11T10:04:53Z</time>
      </trkpt>
      <trkpt lat="48.13201" lon="-1.66664">
        <ele>46.679</ele>
        <time>2019-11-11T10:05:23Z</time>
      </trkpt>
      <trkpt lat="48.13126" lon="-1.66523">
        <ele>41.401</ele>
        <time>2019-11-11T10:05:53Z</time>
      </trkpt>
      <trkpt lat="48.13084" lon="-1.66394">
        <ele>49.222</ele>
        <time>2019-11-11T10:06:23Z</time>
      </trkpt>
      <trkpt lat="48.13045" lon="-1.66296">
        <ele>54.05</ele>
        <time>2019-11-11T10:06:56Z</time>
      </trkpt>
      <trkpt lat="48.13125" lon="-1.66227">
        <ele>52.294</ele>
        <time>2019-11-11T10:07:26Z</time>
      </trkpt>
      <trkpt lat="48.13252" lon="-1.66144">
        <ele>45.167</ele>
        <time>2019-11-11T10:07:56Z</time>
      </trkpt>
      <trkpt lat="48.13392" lon="-1.66007">
        <ele>50.048</ele>
        <time>2019-11-11T10:08:29Z</time>
      </trkpt>
      <trkpt lat="48.13544" lon="-1.65938">
        <ele>49.634</ele>
        <time>2019-11-11T10:08:59Z</time>
      </trkpt>
      <trkpt lat="48.13645" lon="-1.65899">
        <ele>47.87</ele>
        <time>2019-11-11T10:09:29Z</time>
      </trkpt>
      <trkpt lat="48.13714" lon="-1.65871">
        <ele>52.251</ele>
        <time>2019-11-11T10:09:59Z</time>
      </trkpt>
      <trkpt lat="48.13784" lon="-1.65859">
        <ele>60.508</ele>
        <time>2019-11-11T10:10:32Z</time>
      </trkpt>
      <trkpt lat="48.13861" lon="-1.65847">
        <ele>63.693</ele>
        <time>2019-11-11T10:11:02Z</time>
      </trkpt>
      <trkpt lat="48.13935" lon="-1.65813">
        <ele>76.005</ele>
        <time>2019-11-11T10:11:32Z</time>
      </trkpt>
      <trkpt lat="48.14039" lon="-1.65768">
        <ele>62.69</ele>
        <time>2019-11-11T10:12:05Z</time>
      </trkpt>
      <trkpt lat="48.14219" lon="-1.65733">
        <ele>55.174</ele>
        <time>2019-11-11T10:12:35Z</time>
      </trkpt>
      <trkpt lat="48.14413" lon="-1.65675">
        <ele>47.441</ele>
        <time>2019-11-11T10:13:05Z</time>
      </trkpt>
      <trkpt lat="48.1458" lon="-1.65684">
        <ele>44.264</ele>
        <time>2019-11-11T10:13:38Z</time>
      </trkpt>
      <trkpt lat="48.14757" lon="-1.65683">
        <ele>45.337</ele>
        <time>2019-11-11T10:14:08Z</time>
      </trkpt>
      <trkpt lat="48.14953" lon="-1.65641">
        <ele>44.038</ele>
        <time>2019-11-11T10:14:38Z</time>
      </trkpt>
      <trkpt lat="48.15116" lon="-1.65513">
        <ele>41.694</ele>
        <time>2019-11-11T10:15:08Z</time>
      </trkpt>
      <trkpt lat="48.15304" lon="-1.65332">
        <ele>29.182</ele>
        <time>2019-11-11T10:15:41Z</time>
      </trkpt>
      <trkpt lat="48.15438" lon="-1.65197">
        <ele>32.999</ele>
        <time>2019-11-11T10:16:11Z</time>
      </trkpt>
      <trkpt lat="48.15577" lon="-1.65089">
        <ele>37.982</ele>
        <time>2019-11-11T10:16:41Z</time>
      </trkpt>
      <trkpt lat="48.15705" lon="-1.65021">
        <ele>38.158</ele>
        <time>2019-11-11T10:17:14.001Z</time>
      </trkpt>
      <trkpt lat="48.15814" lon="-1.64955">
        <ele>42.1</ele>
        <time>2019-11-11T10:17:44Z</time>
      </trkpt>
      <trkpt lat="48.1594" lon="-1.6489">
        <ele>40.999</ele>
        <time>2019-11-11T10:18:14Z</time>
      </trkpt>
      <trkpt lat="48.16088" lon="-1.64808">
        <ele>38.682</ele>
        <time>2019-11-11T10:18:44Z</time>
      </trkpt>
      <trkpt lat="48.1624" lon="-1.64727">
        <ele>38.493</ele>
        <time>2019-11-11T10:19:17Z</time>
      </trkpt>
      <trkpt lat="48.16374" lon="-1.64657">
        <ele>41.393</ele>
        <time>2019-11-11T10:19:47Z</time>
      </trkpt>
      <trkpt lat="48.16499" lon="-1.64587">
        <ele>41.859</ele>
        <time>2019-11-11T10:20:17Z</time>
      </trkpt>
      <trkpt lat="48.16678" lon="-1.64492">
        <ele>34.857</ele>
        <time>2019-11-11T10:20:50Z</time>
      </trkpt>
      <trkpt lat="48.16874" lon="-1.64376">
        <ele>30.445</ele>
        <time>2019-11-11T10:21:20Z</time>
      </trkpt>
      <trkpt lat="48.17014" lon="-1.64265">
        <ele>36.347</ele>
        <time>2019-11-11T10:21:50Z</time>
      </trkpt>
      <trkpt lat="48.17148" lon="-1.64156">
        <ele>35.045</ele>
        <time>2019-11-11T10:22:20Z</time>
      </trkpt>
      <trkpt lat="48.17285" lon="-1.64057">
        <ele>36.656</ele>
        <time>2019-11-11T10:22:53Z</time>
      </trkpt>
      <trkpt lat="48.1742" lon="-1.64008">
        <ele>38.321</ele>
        <time>2019-11-11T10:23:23Z</time>
      </trkpt>
      <trkpt lat="48.17555" lon="-1.63958">
        <ele>36.389</ele>
        <time>2019-11-11T10:23:53Z</time>
      </trkpt>
      <trkpt lat="48.17698" lon="-1.63927">
        <ele>38.501</ele>
        <time>2019-11-11T10:24:26Z</time>
      </trkpt>
      <trkpt lat="48.17823" lon="-1.63893">
        <ele>40.438</ele>
        <time>2019-11-11T10:24:56Z</time>
      </trkpt>
      <trkpt lat="48.17914" lon="-1.63802">
        <ele>39.292</ele>
        <time>2019-11-11T10:25:26Z</time>
      </trkpt>
      <trkpt lat="48.17989" lon="-1.63711">
        <ele>43.776</ele>
        <time>2019-11-11T10:25:59Z</time>
      </trkpt>
      <trkpt lat="48.18076" lon="-1.63602">
        <ele>48.315</ele>
        <time>2019-11-11T10:26:29Z</time>
      </trkpt>
      <trkpt lat="48.18139" lon="-1.63853">
        <ele>47.169</ele>
        <time>2019-11-11T10:26:59Z</time>
      </trkpt>
      <trkpt lat="48.18169" lon="-1.63992">
        <ele>35.082</ele>
        <time>2019-11-11T10:27:29Z</time>
      </trkpt>
      <trkpt lat="48.18183" lon="-1.64067">
        <ele>34.356</ele>
        <time>2019-11-11T10:28:08Z</time>
      </trkpt>
      <trkpt lat="48.18174" lon="-1.64009">
        <ele>34.81</ele>
        <time>2019-11-11T10:28:56Z</time>
      </trkpt>
      <trkpt lat="48.18275" lon="-1.63965">
        <ele>34.326</ele>
        <time>2019-11-11T10:29:29Z</time>
      </trkpt>
      <trkpt lat="48.18389" lon="-1.63887">
        <ele>35.08</ele>
        <time>2019-11-11T10:30:02Z</time>
      </trkpt>
      <trkpt lat="48.18471" lon="-1.63829">
        <ele>33.271</ele>
        <time>2019-11-11T10:30:32Z</time>
      </trkpt>
      <trkpt lat="48.18531" lon="-1.63927">
        <ele>34.254</ele>
        <time>2019-11-11T10:31:02Z</time>
      </trkpt>
      <trkpt lat="48.18542" lon="-1.64079">
        <ele>35.213</ele>
        <time>2019-11-11T10:31:32Z</time>
      </trkpt>
      <trkpt lat="48.1854" lon="-1.64137">
        <ele>35.509</ele>
        <time>2019-11-11T10:32:11Z</time>
      </trkpt>
      <trkpt lat="48.18554" lon="-1.64217">
        <ele>44.776</ele>
        <time>2019-11-11T10:32:44Z</time>
      </trkpt>
      <trkpt lat="48.18588" lon="-1.64278">
        <ele>49.991</ele>
        <time>2019-11-11T10:33:14Z</time>
      </trkpt>
      <trkpt lat="48.18669" lon="-1.64279">
        <ele>51.507</ele>
        <time>2019-11-11T10:33:47Z</time>
      </trkpt>
      <trkpt lat="48.18741" lon="-1.64279">
        <ele>58.516</ele>
        <time>2019-11-11T10:34:17Z</time>
      </trkpt>
      <trkpt lat="48.18821" lon="-1.64278">
        <ele>54.25</ele>
        <time>2019-11-11T10:34:47Z</time>
      </trkpt>
      <trkpt lat="48.18935" lon="-1.64277">
        <ele>54.957</ele>
        <time>2019-11-11T10:35:17Z</time>
      </trkpt>
      <trkpt lat="48.19069" lon="-1.64299">
        <ele>59.053</ele>
        <time>2019-11-11T10:35:50Z</time>
      </trkpt>
      <trkpt lat="48.19153" lon="-1.6431">
        <ele>57.184</ele>
        <time>2019-11-11T10:36:20Z</time>
      </trkpt>
      <trkpt lat="48.19238" lon="-1.64344">
        <ele>56.069</ele>
        <time>2019-11-11T10:36:50Z</time>
      </trkpt>
      <trkpt lat="48.19249" lon="-1.64472">
        <ele>57.42</ele>
        <time>2019-11-11T10:37:23Z</time>
      </trkpt>
      <trkpt lat="48.1924" lon="-1.64621">
        <ele>61.126</ele>
        <time>2019-11-11T10:37:53Z</time>
      </trkpt>
      <trkpt lat="48.19217" lon="-1.64826">
        <ele>58.592</ele>
        <time>2019-11-11T10:38:23Z</time>
      </trkpt>
      <trkpt lat="48.1939" lon="-1.65019">
        <ele>49.643</ele>
        <time>2019-11-11T10:38:56Z</time>
      </trkpt>
      <trkpt lat="48.19478" lon="-1.65064">
        <ele>40.625</ele>
        <time>2019-11-11T10:39:26Z</time>
      </trkpt>
      <trkpt lat="48.19535" lon="-1.65079">
        <ele>45.948</ele>
        <time>2019-11-11T10:39:56Z</time>
      </trkpt>
      <trkpt lat="48.19608" lon="-1.65103">
        <ele>52.121</ele>
        <time>2019-11-11T10:40:26Z</time>
      </trkpt>
      <trkpt lat="48.19675" lon="-1.65071">
        <ele>54.232</ele>
        <time>2019-11-11T10:40:59Z</time>
      </trkpt>
      <trkpt lat="48.19705" lon="-1.64754">
        <ele>49.438</ele>
        <time>2019-11-11T10:41:29Z</time>
      </trkpt>
      <trkpt lat="48.19833" lon="-1.64761">
        <ele>46.885</ele>
        <time>2019-11-11T10:41:59Z</time>
      </trkpt>
      <trkpt lat="48.1998" lon="-1.64728">
        <ele>46.389</ele>
        <time>2019-11-11T10:42:32Z</time>
      </trkpt>
      <trkpt lat="48.20091" lon="-1.64821">
        <ele>47.218</ele>
        <time>2019-11-11T10:43:02Z</time>
      </trkpt>
      <trkpt lat="48.20167" lon="-1.64816">
        <ele>52.13</ele>
        <time>2019-11-11T10:43:32Z</time>
      </trkpt>
      <trkpt lat="48.20237" lon="-1.64808">
        <ele>52.953</ele>
        <time>2019-11-11T10:44:02Z</time>
      </trkpt>
      <trkpt lat="48.20324" lon="-1.64811">
        <ele>56.34</ele>
        <time>2019-11-11T10:44:35Z</time>
      </trkpt>
      <trkpt lat="48.20419" lon="-1.64829">
        <ele>59.428</ele>
        <time>2019-11-11T10:45:05Z</time>
      </trkpt>
      <trkpt lat="48.20527" lon="-1.64802">
        <ele>62.34</ele>
        <time>2019-11-11T10:45:35Z</time>
      </trkpt>
      <trkpt lat="48.20661" lon="-1.64692">
        <ele>65.251</ele>
        <time>2019-11-11T10:46:08Z</time>
      </trkpt>
      <trkpt lat="48.20727" lon="-1.64656">
        <ele>63.053</ele>
        <time>2019-11-11T10:46:38Z</time>
      </trkpt>
      <trkpt lat="48.20775" lon="-1.64639">
        <ele>63.909</ele>
        <time>2019-11-11T10:50:20Z</time>
      </trkpt>
      <trkpt lat="48.20942" lon="-1.64579">
        <ele>59.58</ele>
        <time>2019-11-11T10:50:50Z</time>
      </trkpt>
      <trkpt lat="48.21006" lon="-1.6439">
        <ele>45.049</ele>
        <time>2019-11-11T10:51:23Z</time>
      </trkpt>
      <trkpt lat="48.20964" lon="-1.64071">
        <ele>40.058</ele>
        <time>2019-11-11T10:51:53Z</time>
      </trkpt>
      <trkpt lat="48.20988" lon="-1.63723">
        <ele>33.282</ele>
        <time>2019-11-11T10:52:23Z</time>
      </trkpt>
      <trkpt lat="48.2098" lon="-1.63462">
        <ele>36.398</ele>
        <time>2019-11-11T10:52:56Z</time>
      </trkpt>
      <trkpt lat="48.20872" lon="-1.63386">
        <ele>39.715</ele>
        <time>2019-11-11T10:53:26Z</time>
      </trkpt>
      <trkpt lat="48.20796" lon="-1.63379">
        <ele>49.196</ele>
        <time>2019-11-11T10:53:56Z</time>
      </trkpt>
      <trkpt lat="48.20793" lon="-1.63254">
        <ele>51.273</ele>
        <time>2019-11-11T10:54:29Z</time>
      </trkpt>
      <trkpt lat="48.20807" lon="-1.63152">
        <ele>55.738</ele>
        <time>2019-11-11T10:54:59Z</time>
      </trkpt>
      <trkpt lat="48.20849" lon="-1.63078">
        <ele>56.77</ele>
        <time>2019-11-11T10:55:29Z</time>
      </trkpt>
      <trkpt lat="48.20902" lon="-1.6301">
        <ele>62.477</ele>
        <time>2019-11-11T10:55:59Z</time>
      </trkpt>
      <trkpt lat="48.20987" lon="-1.63026">
        <ele>74.192</ele>
        <time>2019-11-11T10:56:32Z</time>
      </trkpt>
      <trkpt lat="48.21087" lon="-1.63082">
        <ele>71.82</ele>
        <time>2019-11-11T10:57:02Z</time>
      </trkpt>
      <trkpt lat="48.21157" lon="-1.63069">
        <ele>71.243</ele>
        <time>2019-11-11T10:57:32Z</time>
      </trkpt>
      <trkpt lat="48.21216" lon="-1.63001">
        <ele>75.48</ele>
        <time>2019-11-11T10:58:05Z</time>
      </trkpt>
      <trkpt lat="48.21295" lon="-1.62973">
        <ele>84.337</ele>
        <time>2019-11-11T10:58:35Z</time>
      </trkpt>
      <trkpt lat="48.21374" lon="-1.62965">
        <ele>80.955</ele>
        <time>2019-11-11T10:59:05Z</time>
      </trkpt>
      <trkpt lat="48.21399" lon="-1.63159">
        <ele>78.261</ele>
        <time>2019-11-11T10:59:35Z</time>
      </trkpt>
      <trkpt lat="48.21432" lon="-1.63423">
        <ele>70.219</ele>
        <time>2019-11-11T11:00:08Z</time>
      </trkpt>
      <trkpt lat="48.21476" lon="-1.63741">
        <ele>54.29</ele>
        <time>2019-11-11T11:00:38Z</time>
      </trkpt>
      <trkpt lat="48.21496" lon="-1.64069">
        <ele>46.328</ele>
        <time>2019-11-11T11:01:08Z</time>
      </trkpt>
      <trkpt lat="48.21629" lon="-1.64254">
        <ele>35.713</ele>
        <time>2019-11-11T11:01:41Z</time>
      </trkpt>
      <trkpt lat="48.2169" lon="-1.64109">
        <ele>31.034</ele>
        <time>2019-11-11T11:02:11Z</time>
      </trkpt>
      <trkpt lat="48.21758" lon="-1.63988">
        <ele>33.953</ele>
        <time>2019-11-11T11:02:41Z</time>
      </trkpt>
      <trkpt lat="48.21853" lon="-1.63951">
        <ele>41.137</ele>
        <time>2019-11-11T11:03:11Z</time>
      </trkpt>
      <trkpt lat="48.21978" lon="-1.63973">
        <ele>55.558</ele>
        <time>2019-11-11T11:03:44Z</time>
      </trkpt>
      <trkpt lat="48.22102" lon="-1.63976">
        <ele>52.119</ele>
        <time>2019-11-11T11:04:14Z</time>
      </trkpt>
      <trkpt lat="48.22208" lon="-1.6398">
        <ele>51.31</ele>
        <time>2019-11-11T11:04:44Z</time>
      </trkpt>
      <trkpt lat="48.22319" lon="-1.6399">
        <ele>48.786</ele>
        <time>2019-11-11T11:05:17Z</time>
      </trkpt>
      <trkpt lat="48.22417" lon="-1.63998">
        <ele>55.947</ele>
        <time>2019-11-11T11:05:47Z</time>
      </trkpt>
      <trkpt lat="48.22527" lon="-1.64007">
        <ele>45.049</ele>
        <time>2019-11-11T11:06:17Z</time>
      </trkpt>
      <trkpt lat="48.22638" lon="-1.64031">
        <ele>41.289</ele>
        <time>2019-11-11T11:06:50Z</time>
      </trkpt>
      <trkpt lat="48.22741" lon="-1.64057">
        <ele>43.682</ele>
        <time>2019-11-11T11:07:20Z</time>
      </trkpt>
      <trkpt lat="48.22856" lon="-1.6411">
        <ele>46.052</ele>
        <time>2019-11-11T11:07:50Z</time>
      </trkpt>
      <trkpt lat="48.22956" lon="-1.64154">
        <ele>49.572</ele>
        <time>2019-11-11T11:08:20Z</time>
      </trkpt>
      <trkpt lat="48.23069" lon="-1.642">
        <ele>48.565</ele>
        <time>2019-11-11T11:08:53Z</time>
      </trkpt>
      <trkpt lat="48.23164" lon="-1.64243">
        <ele>45.218</ele>
        <time>2019-11-11T11:09:23Z</time>
      </trkpt>
      <trkpt lat="48.2325" lon="-1.64327">
        <ele>42.578</ele>
        <time>2019-11-11T11:09:53Z</time>
      </trkpt>
      <trkpt lat="48.23343" lon="-1.6444">
        <ele>39.075</ele>
        <time>2019-11-11T11:10:26Z</time>
      </trkpt>
      <trkpt lat="48.23418" lon="-1.64531">
        <ele>37.938</ele>
        <time>2019-11-11T11:10:56Z</time>
      </trkpt>
      <trkpt lat="48.23502" lon="-1.6463">
        <ele>33.913</ele>
        <time>2019-11-11T11:11:26Z</time>
      </trkpt>
      <trkpt lat="48.23586" lon="-1.64739">
        <ele>37.517</ele>
        <time>2019-11-11T11:11:56Z</time>
      </trkpt>
      <trkpt lat="48.23645" lon="-1.64854">
        <ele>39.373</ele>
        <time>2019-11-11T11:12:29Z</time>
      </trkpt>
      <trkpt lat="48.23737" lon="-1.6489">
        <ele>43.672</ele>
        <time>2019-11-11T11:12:59Z</time>
      </trkpt>
      <trkpt lat="48.23813" lon="-1.65034">
        <ele>51.144</ele>
        <time>2019-11-11T11:13:29Z</time>
      </trkpt>
      <trkpt lat="48.239" lon="-1.65207">
        <ele>55.16</ele>
        <time>2019-11-11T11:14:02Z</time>
      </trkpt>
      <trkpt lat="48.23963" lon="-1.65343">
        <ele>49.244</ele>
        <time>2019-11-11T11:14:32Z</time>
      </trkpt>
      <trkpt lat="48.2404" lon="-1.65458">
        <ele>49.222</ele>
        <time>2019-11-11T11:15:02Z</time>
      </trkpt>
      <trkpt lat="48.24189" lon="-1.65471">
        <ele>53.841</ele>
        <time>2019-11-11T11:15:32Z</time>
      </trkpt>
      <trkpt lat="48.24335" lon="-1.65478">
        <ele>54.395</ele>
        <time>2019-11-11T11:16:05Z</time>
      </trkpt>
      <trkpt lat="48.24465" lon="-1.65487">
        <ele>54.827</ele>
        <time>2019-11-11T11:16:35Z</time>
      </trkpt>
      <trkpt lat="48.24564" lon="-1.65494">
        <ele>55.149</ele>
        <time>2019-11-11T11:17:05Z</time>
      </trkpt>
      <trkpt lat="48.24631" lon="-1.65496">
        <ele>57.157</ele>
        <time>2019-11-11T11:17:38Z</time>
      </trkpt>
      <trkpt lat="48.24662" lon="-1.65531">
        <ele>54.826</ele>
        <time>2019-11-11T11:18:35Z</time>
      </trkpt>
      <trkpt lat="48.24701" lon="-1.65604">
        <ele>56.917</ele>
        <time>2019-11-11T11:19:05Z</time>
      </trkpt>
      <trkpt lat="48.24752" lon="-1.65641">
        <ele>59.826</ele>
        <time>2019-11-11T11:19:38Z</time>
      </trkpt>
      <trkpt lat="48.24763" lon="-1.65556">
        <ele>67.124</ele>
        <time>2019-11-11T11:20:08Z</time>
      </trkpt>
      <trkpt lat="48.24767" lon="-1.65466">
        <ele>76.541</ele>
        <time>2019-11-11T11:20:38Z</time>
      </trkpt>
      <trkpt lat="48.24798" lon="-1.65404">
        <ele>84.558</ele>
        <time>2019-11-11T11:21:08Z</time>
      </trkpt>
      <trkpt lat="48.24802" lon="-1.65513">
        <ele>85.371</ele>
        <time>2019-11-11T11:21:50Z</time>
      </trkpt>
      <trkpt lat="48.24813" lon="-1.65613">
        <ele>85.225</ele>
        <time>2019-11-11T11:22:20Z</time>
      </trkpt>
      <trkpt lat="48.24839" lon="-1.65699">
        <ele>87.11</ele>
        <time>2019-11-11T11:22:53Z</time>
      </trkpt>
      <trkpt lat="48.24878" lon="-1.65761">
        <ele>88.784</ele>
        <time>2019-11-11T11:23:26Z</time>
      </trkpt>
      <trkpt lat="48.24878" lon="-1.65703">
        <ele>91.035</ele>
        <time>2019-11-11T11:23:56Z</time>
      </trkpt>
      <trkpt lat="48.2487" lon="-1.65594">
        <ele>97.823</ele>
        <time>2019-11-11T11:24:26Z</time>
      </trkpt>
      <trkpt lat="48.24858" lon="-1.6543">
        <ele>100.181</ele>
        <time>2019-11-11T11:24:56Z</time>
      </trkpt>
      <trkpt lat="48.24942" lon="-1.65341">
        <ele>95.33</ele>
        <time>2019-11-11T11:25:29Z</time>
      </trkpt>
      <trkpt lat="48.25012" lon="-1.65335">
        <ele>92.61</ele>
        <time>2019-11-11T11:25:59Z</time>
      </trkpt>
      <trkpt lat="48.25087" lon="-1.65321">
        <ele>94.859</ele>
        <time>2019-11-11T11:26:29Z</time>
      </trkpt>
      <trkpt lat="48.25176" lon="-1.65295">
        <ele>98.045</ele>
        <time>2019-11-11T11:27:02Z</time>
      </trkpt>
      <trkpt lat="48.25322" lon="-1.65201">
        <ele>92.012</ele>
        <time>2019-11-11T11:27:32Z</time>
      </trkpt>
      <trkpt lat="48.25477" lon="-1.6515">
        <ele>87.674</ele>
        <time>2019-11-11T11:28:02Z</time>
      </trkpt>
      <trkpt lat="48.25565" lon="-1.65174">
        <ele>90.672</ele>
        <time>2019-11-11T11:28:32Z</time>
      </trkpt>
      <trkpt lat="48.25676" lon="-1.65182">
        <ele>95.734</ele>
        <time>2019-11-11T11:29:05Z</time>
      </trkpt>
      <trkpt lat="48.25838" lon="-1.65169">
        <ele>92.264</ele>
        <time>2019-11-11T11:29:35Z</time>
      </trkpt>
      <trkpt lat="48.2602" lon="-1.65218">
        <ele>89.11</ele>
        <time>2019-11-11T11:30:05Z</time>
      </trkpt>
      <trkpt lat="48.26199" lon="-1.65147">
        <ele>81.566</ele>
        <time>2019-11-11T11:30:38Z</time>
      </trkpt>
      <trkpt lat="48.26271" lon="-1.65116">
        <ele>81.727</ele>
        <time>2019-11-11T11:31:08Z</time>
      </trkpt>
      <trkpt lat="48.26331" lon="-1.65111">
        <ele>91.209</ele>
        <time>2019-11-11T11:31:38Z</time>
      </trkpt>
      <trkpt lat="48.26397" lon="-1.65105">
        <ele>94.57</ele>
        <time>2019-11-11T11:32:11Z</time>
      </trkpt>
      <trkpt lat="48.26463" lon="-1.65098">
        <ele>94.908</ele>
        <time>2019-11-11T11:32:41Z</time>
      </trkpt>
      <trkpt lat="48.26527" lon="-1.65072">
        <ele>97.583</ele>
        <time>2019-11-11T11:33:11Z</time>
      </trkpt>
      <trkpt lat="48.26598" lon="-1.65015">
        <ele>99.026</ele>
        <time>2019-11-11T11:33:41Z</time>
      </trkpt>
      <trkpt lat="48.26663" lon="-1.64974">
        <ele>106.436</ele>
        <time>2019-11-11T11:34:14Z</time>
      </trkpt>
      <trkpt lat="48.26735" lon="-1.64923">
        <ele>110.65</ele>
        <time>2019-11-11T11:34:44Z</time>
      </trkpt>
      <trkpt lat="48.26813" lon="-1.64879">
        <ele>110.041</ele>
        <time>2019-11-11T11:35:14Z</time>
      </trkpt>
      <trkpt lat="48.27024" lon="-1.64784">
        <ele>96.406</ele>
        <time>2019-11-11T11:35:47Z</time>
      </trkpt>
      <trkpt lat="48.27287" lon="-1.64663">
        <ele>76.038</ele>
        <time>2019-11-11T11:36:17Z</time>
      </trkpt>
      <trkpt lat="48.27446" lon="-1.64536">
        <ele>70.386</ele>
        <time>2019-11-11T11:36:47Z</time>
      </trkpt>
      <trkpt lat="48.27646" lon="-1.64378">
        <ele>63.372</ele>
        <time>2019-11-11T11:37:17Z</time>
      </trkpt>
      <trkpt lat="48.27885" lon="-1.64339">
        <ele>59.52</ele>
        <time>2019-11-11T11:37:50Z</time>
      </trkpt>
      <trkpt lat="48.27951" lon="-1.64306">
        <ele>60.46</ele>
        <time>2019-11-11T11:43:20Z</time>
      </trkpt>
      <trkpt lat="48.28047" lon="-1.64147">
        <ele>59.299</ele>
        <time>2019-11-11T11:43:50Z</time>
      </trkpt>
      <trkpt lat="48.28169" lon="-1.64023">
        <ele>56.969</ele>
        <time>2019-11-11T11:44:23Z</time>
      </trkpt>
      <trkpt lat="48.2825" lon="-1.63974">
        <ele>58.444</ele>
        <time>2019-11-11T11:44:53Z</time>
      </trkpt>
      <trkpt lat="48.28297" lon="-1.63918">
        <ele>60.948</ele>
        <time>2019-11-11T11:45:23Z</time>
      </trkpt>
      <trkpt lat="48.28333" lon="-1.63856">
        <ele>70.783</ele>
        <time>2019-11-11T11:45:53Z</time>
      </trkpt>
      <trkpt lat="48.28392" lon="-1.63827">
        <ele>75.664</ele>
        <time>2019-11-11T11:46:26Z</time>
      </trkpt>
      <trkpt lat="48.28451" lon="-1.63824">
        <ele>79.677</ele>
        <time>2019-11-11T11:46:56Z</time>
      </trkpt>
      <trkpt lat="48.28506" lon="-1.63813">
        <ele>83.391</ele>
        <time>2019-11-11T11:47:26Z</time>
      </trkpt>
      <trkpt lat="48.28573" lon="-1.63795">
        <ele>92.957</ele>
        <time>2019-11-11T11:48:02Z</time>
      </trkpt>
      <trkpt lat="48.28645" lon="-1.63773">
        <ele>95.138</ele>
        <time>2019-11-11T11:48:32Z</time>
      </trkpt>
      <trkpt lat="48.28776" lon="-1.63742">
        <ele>91.16</ele>
        <time>2019-11-11T11:49:02Z</time>
      </trkpt>
      <trkpt lat="48.28954" lon="-1.63577">
        <ele>79.503</ele>
        <time>2019-11-11T11:49:35Z</time>
      </trkpt>
      <trkpt lat="48.29149" lon="-1.63499">
        <ele>74.964</ele>
        <time>2019-11-11T11:50:05Z</time>
      </trkpt>
      <trkpt lat="48.29219" lon="-1.63463">
        <ele>73.82</ele>
        <time>2019-11-11T11:50:35Z</time>
      </trkpt>
      <trkpt lat="48.29286" lon="-1.63465">
        <ele>80.815</ele>
        <time>2019-11-11T11:51:05Z</time>
      </trkpt>
      <trkpt lat="48.29353" lon="-1.63503">
        <ele>83.34</ele>
        <time>2019-11-11T11:51:38Z</time>
      </trkpt>
      <trkpt lat="48.29412" lon="-1.63533">
        <ele>88.739</ele>
        <time>2019-11-11T11:52:08Z</time>
      </trkpt>
      <trkpt lat="48.29475" lon="-1.63539">
        <ele>98.476</ele>
        <time>2019-11-11T11:52:38Z</time>
      </trkpt>
      <trkpt lat="48.29599" lon="-1.63547">
        <ele>104.881</ele>
        <time>2019-11-11T11:53:11Z</time>
      </trkpt>
      <trkpt lat="48.29763" lon="-1.63549">
        <ele>94.176</ele>
        <time>2019-11-11T11:53:41Z</time>
      </trkpt>
      <trkpt lat="48.29908" lon="-1.63554">
        <ele>87.319</ele>
        <time>2019-11-11T11:54:11Z</time>
      </trkpt>
      <trkpt lat="48.30038" lon="-1.63557">
        <ele>83.007</ele>
        <time>2019-11-11T11:54:41Z</time>
      </trkpt>
      <trkpt lat="48.30231" lon="-1.63563">
        <ele>78.406</ele>
        <time>2019-11-11T11:55:14Z</time>
      </trkpt>
      <trkpt lat="48.30361" lon="-1.63566">
        <ele>77.678</ele>
        <time>2019-11-11T11:55:44Z</time>
      </trkpt>
      <trkpt lat="48.30401" lon="-1.63567">
        <ele>78.812</ele>
        <time>2019-11-11T12:11:50Z</time>
      </trkpt>
      <trkpt lat="48.30478" lon="-1.63567">
        <ele>81.365</ele>
        <time>2019-11-11T12:12:26Z</time>
      </trkpt>
      <trkpt lat="48.30574" lon="-1.63571">
        <ele>83.945</ele>
        <time>2019-11-11T12:12:56Z</time>
      </trkpt>
      <trkpt lat="48.30672" lon="-1.63574">
        <ele>87.629</ele>
        <time>2019-11-11T12:13:26Z</time>
      </trkpt>
      <trkpt lat="48.30771" lon="-1.63574">
        <ele>87.562</ele>
        <time>2019-11-11T12:13:56Z</time>
      </trkpt>
      <trkpt lat="48.3088" lon="-1.6358">
        <ele>84.54</ele>
        <time>2019-11-11T12:14:29Z</time>
      </trkpt>
      <trkpt lat="48.3098" lon="-1.63577">
        <ele>84.861</ele>
        <time>2019-11-11T12:14:59Z</time>
      </trkpt>
      <trkpt lat="48.31093" lon="-1.63573">
        <ele>84.503</ele>
        <time>2019-11-11T12:15:29Z</time>
      </trkpt>
      <trkpt lat="48.31188" lon="-1.63565">
        <ele>85.456</ele>
        <time>2019-11-11T12:16:02Z</time>
      </trkpt>
      <trkpt lat="48.31277" lon="-1.63561">
        <ele>87.506</ele>
        <time>2019-11-11T12:16:32Z</time>
      </trkpt>
      <trkpt lat="48.31386" lon="-1.63554">
        <ele>89.854</ele>
        <time>2019-11-11T12:17:02Z</time>
      </trkpt>
      <trkpt lat="48.31528" lon="-1.63567">
        <ele>91.567</ele>
        <time>2019-11-11T12:17:35Z</time>
      </trkpt>
      <trkpt lat="48.31664" lon="-1.63582">
        <ele>89.591</ele>
        <time>2019-11-11T12:18:05Z</time>
      </trkpt>
      <trkpt lat="48.31772" lon="-1.63605">
        <ele>89.082</ele>
        <time>2019-11-11T12:18:35Z</time>
      </trkpt>
      <trkpt lat="48.31872" lon="-1.63634">
        <ele>93.212</ele>
        <time>2019-11-11T12:19:05Z</time>
      </trkpt>
      <trkpt lat="48.31982" lon="-1.63642">
        <ele>91.932</ele>
        <time>2019-11-11T12:19:38Z</time>
      </trkpt>
      <trkpt lat="48.3209" lon="-1.63644">
        <ele>93.094</ele>
        <time>2019-11-11T12:20:08Z</time>
      </trkpt>
      <trkpt lat="48.3219" lon="-1.63643">
        <ele>98.368</ele>
        <time>2019-11-11T12:20:38Z</time>
      </trkpt>
      <trkpt lat="48.32309" lon="-1.63649">
        <ele>96.007</ele>
        <time>2019-11-11T12:21:11Z</time>
      </trkpt>
      <trkpt lat="48.32412" lon="-1.63666">
        <ele>95.769</ele>
        <time>2019-11-11T12:21:41Z</time>
      </trkpt>
      <trkpt lat="48.32485" lon="-1.63772">
        <ele>98.073</ele>
        <time>2019-11-11T12:22:11Z</time>
      </trkpt>
      <trkpt lat="48.32564" lon="-1.63856">
        <ele>101.505</ele>
        <time>2019-11-11T12:22:41Z</time>
      </trkpt>
      <trkpt lat="48.32677" lon="-1.63907">
        <ele>104.849</ele>
        <time>2019-11-11T12:23:14Z</time>
      </trkpt>
      <trkpt lat="48.32776" lon="-1.6394">
        <ele>102.636</ele>
        <time>2019-11-11T12:23:44Z</time>
      </trkpt>
      <trkpt lat="48.32829" lon="-1.64053">
        <ele>105.252</ele>
        <time>2019-11-11T12:24:14Z</time>
      </trkpt>
      <trkpt lat="48.32976" lon="-1.64096">
        <ele>107.268</ele>
        <time>2019-11-11T12:24:47Z</time>
      </trkpt>
      <trkpt lat="48.33092" lon="-1.63883">
        <ele>99.746</ele>
        <time>2019-11-11T12:25:17Z</time>
      </trkpt>
      <trkpt lat="48.33234" lon="-1.63758">
        <ele>95.384</ele>
        <time>2019-11-11T12:25:47Z</time>
      </trkpt>
      <trkpt lat="48.33426" lon="-1.63617">
        <ele>93.337</ele>
        <time>2019-11-11T12:26:17Z</time>
      </trkpt>
      <trkpt lat="48.33646" lon="-1.63446">
        <ele>85.657</ele>
        <time>2019-11-11T12:26:50Z</time>
      </trkpt>
      <trkpt lat="48.33769" lon="-1.63348">
        <ele>81.101</ele>
        <time>2019-11-11T12:27:20Z</time>
      </trkpt>
      <trkpt lat="48.33913" lon="-1.63282">
        <ele>79.823</ele>
        <time>2019-11-11T12:27:50Z</time>
      </trkpt>
      <trkpt lat="48.34103" lon="-1.63248">
        <ele>78.137</ele>
        <time>2019-11-11T12:28:23Z</time>
      </trkpt>
      <trkpt lat="48.3427" lon="-1.63231">
        <ele>74.461</ele>
        <time>2019-11-11T12:28:53Z</time>
      </trkpt>
      <trkpt lat="48.34429" lon="-1.63227">
        <ele>75.682</ele>
        <time>2019-11-11T12:29:23Z</time>
      </trkpt>
      <trkpt lat="48.34609" lon="-1.63221">
        <ele>72.751</ele>
        <time>2019-11-11T12:29:56Z</time>
      </trkpt>
      <trkpt lat="48.34723" lon="-1.63195">
        <ele>73.037</ele>
        <time>2019-11-11T12:30:26Z</time>
      </trkpt>
      <trkpt lat="48.34815" lon="-1.63148">
        <ele>85.145</ele>
        <time>2019-11-11T12:30:56Z</time>
      </trkpt>
      <trkpt lat="48.34899" lon="-1.63111">
        <ele>91.677</ele>
        <time>2019-11-11T12:31:26Z</time>
      </trkpt>
      <trkpt lat="48.34978" lon="-1.6307">
        <ele>99.026</ele>
        <time>2019-11-11T12:31:59Z</time>
      </trkpt>
      <trkpt lat="48.35068" lon="-1.63015">
        <ele>105.235</ele>
        <time>2019-11-11T12:32:29Z</time>
      </trkpt>
      <trkpt lat="48.35161" lon="-1.62963">
        <ele>106.018</ele>
        <time>2019-11-11T12:32:59Z</time>
      </trkpt>
      <trkpt lat="48.35286" lon="-1.62902">
        <ele>108.951</ele>
        <time>2019-11-11T12:33:32Z</time>
      </trkpt>
      <trkpt lat="48.3542" lon="-1.62833">
        <ele>109.944</ele>
        <time>2019-11-11T12:34:02Z</time>
      </trkpt>
      <trkpt lat="48.35538" lon="-1.62763">
        <ele>90.878</ele>
        <time>2019-11-11T12:34:32Z</time>
      </trkpt>
      <trkpt lat="48.35632" lon="-1.62695">
        <ele>89.534</ele>
        <time>2019-11-11T12:35:02Z</time>
      </trkpt>
      <trkpt lat="48.35768" lon="-1.62604">
        <ele>86.259</ele>
        <time>2019-11-11T12:35:35Z</time>
      </trkpt>
      <trkpt lat="48.35896" lon="-1.62512">
        <ele>85.556</ele>
        <time>2019-11-11T12:36:05Z</time>
      </trkpt>
      <trkpt lat="48.36035" lon="-1.62407">
        <ele>81.309</ele>
        <time>2019-11-11T12:36:35Z</time>
      </trkpt>
      <trkpt lat="48.36177" lon="-1.62301">
        <ele>78.219</ele>
        <time>2019-11-11T12:37:08Z</time>
      </trkpt>
      <trkpt lat="48.36301" lon="-1.62208">
        <ele>78.3</ele>
        <time>2019-11-11T12:37:38Z</time>
      </trkpt>
      <trkpt lat="48.36415" lon="-1.62103">
        <ele>78.337</ele>
        <time>2019-11-11T12:38:08Z</time>
      </trkpt>
      <trkpt lat="48.36524" lon="-1.6196">
        <ele>78.091</ele>
        <time>2019-11-11T12:38:38Z</time>
      </trkpt>
      <trkpt lat="48.36623" lon="-1.61831">
        <ele>80.131</ele>
        <time>2019-11-11T12:39:11Z</time>
      </trkpt>
      <trkpt lat="48.36722" lon="-1.61774">
        <ele>87.164</ele>
        <time>2019-11-11T12:39:41Z</time>
      </trkpt>
      <trkpt lat="48.36858" lon="-1.61696">
        <ele>84.312</ele>
        <time>2019-11-11T12:40:11Z</time>
      </trkpt>
      <trkpt lat="48.37016" lon="-1.61514">
        <ele>76.584</ele>
        <time>2019-11-11T12:40:44Z</time>
      </trkpt>
      <trkpt lat="48.37169" lon="-1.6134">
        <ele>72.225</ele>
        <time>2019-11-11T12:41:14Z</time>
      </trkpt>
      <trkpt lat="48.37338" lon="-1.61212">
        <ele>67.249</ele>
        <time>2019-11-11T12:41:44Z</time>
      </trkpt>
      <trkpt lat="48.37456" lon="-1.60935">
        <ele>63.029</ele>
        <time>2019-11-11T12:42:17Z</time>
      </trkpt>
      <trkpt lat="48.37549" lon="-1.60798">
        <ele>61.741</ele>
        <time>2019-11-11T12:42:47Z</time>
      </trkpt>
      <trkpt lat="48.37644" lon="-1.60737">
        <ele>63.661</ele>
        <time>2019-11-11T12:43:17Z</time>
      </trkpt>
      <trkpt lat="48.3776" lon="-1.6073">
        <ele>67.359</ele>
        <time>2019-11-11T12:43:47Z</time>
      </trkpt>
      <trkpt lat="48.37915" lon="-1.60679">
        <ele>62.404</ele>
        <time>2019-11-11T12:44:20Z</time>
      </trkpt>
      <trkpt lat="48.38055" lon="-1.60625">
        <ele>65.595</ele>
        <time>2019-11-11T12:44:50Z</time>
      </trkpt>
      <trkpt lat="48.3818" lon="-1.60558">
        <ele>64.366</ele>
        <time>2019-11-11T12:45:20Z</time>
      </trkpt>
      <trkpt lat="48.38314" lon="-1.60509">
        <ele>60.529</ele>
        <time>2019-11-11T12:45:53Z</time>
      </trkpt>
      <trkpt lat="48.38359" lon="-1.60427">
        <ele>56.758</ele>
        <time>2019-11-11T12:46:23Z</time>
      </trkpt>
      <trkpt lat="48.38482" lon="-1.60439">
        <ele>59.911</ele>
        <time>2019-11-11T12:46:53Z</time>
      </trkpt>
      <trkpt lat="48.3856" lon="-1.60402">
        <ele>51.011</ele>
        <time>2019-11-11T12:47:23Z</time>
      </trkpt>
      <trkpt lat="48.38619" lon="-1.60466">
        <ele>53.608</ele>
        <time>2019-11-11T12:47:56Z</time>
      </trkpt>
      <trkpt lat="48.38722" lon="-1.60569">
        <ele>56.019</ele>
        <time>2019-11-11T12:48:26Z</time>
      </trkpt>
      <trkpt lat="48.38893" lon="-1.6047">
        <ele>41.907</ele>
        <time>2019-11-11T12:48:56Z</time>
      </trkpt>
      <trkpt lat="48.391" lon="-1.60491">
        <ele>39.371</ele>
        <time>2019-11-11T12:49:29Z</time>
      </trkpt>
      <trkpt lat="48.39215" lon="-1.60529">
        <ele>38.165</ele>
        <time>2019-11-11T12:49:59Z</time>
      </trkpt>
      <trkpt lat="48.3929" lon="-1.60537">
        <ele>41.337</ele>
        <time>2019-11-11T12:50:29Z</time>
      </trkpt>
      <trkpt lat="48.39356" lon="-1.60543">
        <ele>45.914</ele>
        <time>2019-11-11T12:50:59Z</time>
      </trkpt>
      <trkpt lat="48.39428" lon="-1.60548">
        <ele>48.211</ele>
        <time>2019-11-11T12:51:32Z</time>
      </trkpt>
      <trkpt lat="48.39506" lon="-1.60554">
        <ele>49.6</ele>
        <time>2019-11-11T12:52:02Z</time>
      </trkpt>
      <trkpt lat="48.396" lon="-1.60561">
        <ele>51.19</ele>
        <time>2019-11-11T12:52:32Z</time>
      </trkpt>
      <trkpt lat="48.39725" lon="-1.60532">
        <ele>48.596</ele>
        <time>2019-11-11T12:53:05Z</time>
      </trkpt>
      <trkpt lat="48.39847" lon="-1.60406">
        <ele>45.1</ele>
        <time>2019-11-11T12:53:35Z</time>
      </trkpt>
      <trkpt lat="48.3995" lon="-1.60233">
        <ele>46.263</ele>
        <time>2019-11-11T12:54:05Z</time>
      </trkpt>
      <trkpt lat="48.40024" lon="-1.60143">
        <ele>51.24</ele>
        <time>2019-11-11T12:54:38Z</time>
      </trkpt>
      <trkpt lat="48.40078" lon="-1.60077">
        <ele>56.077</ele>
        <time>2019-11-11T12:55:08Z</time>
      </trkpt>
      <trkpt lat="48.40146" lon="-1.59993">
        <ele>57.146</ele>
        <time>2019-11-11T12:55:38Z</time>
      </trkpt>
      <trkpt lat="48.40242" lon="-1.59888">
        <ele>54.634</ele>
        <time>2019-11-11T12:56:08Z</time>
      </trkpt>
      <trkpt lat="48.40412" lon="-1.59761">
        <ele>50.596</ele>
        <time>2019-11-11T12:56:41Z</time>
      </trkpt>
      <trkpt lat="48.40488" lon="-1.59481">
        <ele>46.67</ele>
        <time>2019-11-11T12:57:11Z</time>
      </trkpt>
      <trkpt lat="48.40605" lon="-1.59204">
        <ele>42.26</ele>
        <time>2019-11-11T12:57:41Z</time>
      </trkpt>
      <trkpt lat="48.40767" lon="-1.58904">
        <ele>33.13</ele>
        <time>2019-11-11T12:58:14.001Z</time>
      </trkpt>
      <trkpt lat="48.40924" lon="-1.58611">
        <ele>22.338</ele>
        <time>2019-11-11T12:58:44.001Z</time>
      </trkpt>
      <trkpt lat="48.41046" lon="-1.58443">
        <ele>23.036</ele>
        <time>2019-11-11T12:59:14.001Z</time>
      </trkpt>
      <trkpt lat="48.41102" lon="-1.58384">
        <ele>36.985</ele>
        <time>2019-11-11T12:59:44.001Z</time>
      </trkpt>
      <trkpt lat="48.41153" lon="-1.58311">
        <ele>39.864</ele>
        <time>2019-11-11T13:00:17.001Z</time>
      </trkpt>
      <trkpt lat="48.412" lon="-1.58252">
        <ele>43.149</ele>
        <time>2019-11-11T13:00:47.001Z</time>
      </trkpt>
      <trkpt lat="48.41271" lon="-1.58237">
        <ele>47.011</ele>
        <time>2019-11-11T13:01:17.001Z</time>
      </trkpt>
      <trkpt lat="48.41387" lon="-1.58234">
        <ele>43.892</ele>
        <time>2019-11-11T13:01:50.001Z</time>
      </trkpt>
      <trkpt lat="48.41489" lon="-1.58231">
        <ele>42.423</ele>
        <time>2019-11-11T13:02:20.001Z</time>
      </trkpt>
      <trkpt lat="48.41577" lon="-1.58185">
        <ele>44.801</ele>
        <time>2019-11-11T13:02:50.001Z</time>
      </trkpt>
      <trkpt lat="48.4164" lon="-1.58085">
        <ele>46.463</ele>
        <time>2019-11-11T13:03:20.001Z</time>
      </trkpt>
      <trkpt lat="48.41734" lon="-1.58016">
        <ele>50.006</ele>
        <time>2019-11-11T13:03:53.001Z</time>
      </trkpt>
      <trkpt lat="48.4182" lon="-1.57993">
        <ele>48.646</ele>
        <time>2019-11-11T13:04:23.001Z</time>
      </trkpt>
      <trkpt lat="48.41889" lon="-1.57974">
        <ele>52.763</ele>
        <time>2019-11-11T13:04:53.001Z</time>
      </trkpt>
      <trkpt lat="48.41948" lon="-1.57924">
        <ele>59.913</ele>
        <time>2019-11-11T13:05:26.001Z</time>
      </trkpt>
      <trkpt lat="48.42003" lon="-1.57869">
        <ele>73.077</ele>
        <time>2019-11-11T13:05:59.001Z</time>
      </trkpt>
      <trkpt lat="48.42052" lon="-1.57808">
        <ele>81.008</ele>
        <time>2019-11-11T13:06:29.001Z</time>
      </trkpt>
      <trkpt lat="48.42091" lon="-1.57736">
        <ele>76.954</ele>
        <time>2019-11-11T13:07:02Z</time>
      </trkpt>
      <trkpt lat="48.42134" lon="-1.57686">
        <ele>76.172</ele>
        <time>2019-11-11T13:07:32.001Z</time>
      </trkpt>
      <trkpt lat="48.42171" lon="-1.57622">
        <ele>79.511</ele>
        <time>2019-11-11T13:08:02Z</time>
      </trkpt>
      <trkpt lat="48.42186" lon="-1.57443">
        <ele>83.227</ele>
        <time>2019-11-11T13:08:32.001Z</time>
      </trkpt>
      <trkpt lat="48.42235" lon="-1.57363">
        <ele>84.757</ele>
        <time>2019-11-11T13:09:05.001Z</time>
      </trkpt>
      <trkpt lat="48.42276" lon="-1.57291">
        <ele>85.162</ele>
        <time>2019-11-11T13:09:35.001Z</time>
      </trkpt>
      <trkpt lat="48.42321" lon="-1.57218">
        <ele>87.226</ele>
        <time>2019-11-11T13:10:05.001Z</time>
      </trkpt>
      <trkpt lat="48.42375" lon="-1.57159">
        <ele>89.716</ele>
        <time>2019-11-11T13:10:38.001Z</time>
      </trkpt>
      <trkpt lat="48.42433" lon="-1.57148">
        <ele>91.531</ele>
        <time>2019-11-11T13:11:08.001Z</time>
      </trkpt>
      <trkpt lat="48.425" lon="-1.57156">
        <ele>98.279</ele>
        <time>2019-11-11T13:11:38.001Z</time>
      </trkpt>
      <trkpt lat="48.42566" lon="-1.57167">
        <ele>104.632</ele>
        <time>2019-11-11T13:12:08.001Z</time>
      </trkpt>
      <trkpt lat="48.42644" lon="-1.57178">
        <ele>108.49</ele>
        <time>2019-11-11T13:12:41.001Z</time>
      </trkpt>
      <trkpt lat="48.42742" lon="-1.57214">
        <ele>111.675</ele>
        <time>2019-11-11T13:13:11.001Z</time>
      </trkpt>
      <trkpt lat="48.42835" lon="-1.57487">
        <ele>98.866</ele>
        <time>2019-11-11T13:13:41.001Z</time>
      </trkpt>
      <trkpt lat="48.4293" lon="-1.57311">
        <ele>79.786</ele>
        <time>2019-11-11T13:14:14.001Z</time>
      </trkpt>
      <trkpt lat="48.42959" lon="-1.5707">
        <ele>75.06</ele>
        <time>2019-11-11T13:14:44.001Z</time>
      </trkpt>
      <trkpt lat="48.4301" lon="-1.57008">
        <ele>78.897</ele>
        <time>2019-11-11T13:15:14.001Z</time>
      </trkpt>
      <trkpt lat="48.43051" lon="-1.56957">
        <ele>85.179</ele>
        <time>2019-11-11T13:15:44.001Z</time>
      </trkpt>
      <trkpt lat="48.43111" lon="-1.56857">
        <ele>88.786</ele>
        <time>2019-11-11T13:16:17.001Z</time>
      </trkpt>
      <trkpt lat="48.43171" lon="-1.5673">
        <ele>88.969</ele>
        <time>2019-11-11T13:16:47.001Z</time>
      </trkpt>
      <trkpt lat="48.43225" lon="-1.56617">
        <ele>91.533</ele>
        <time>2019-11-11T13:17:17.001Z</time>
      </trkpt>
      <trkpt lat="48.4328" lon="-1.56508">
        <ele>93.652</ele>
        <time>2019-11-11T13:17:50.001Z</time>
      </trkpt>
      <trkpt lat="48.43359" lon="-1.56392">
        <ele>93.395</ele>
        <time>2019-11-11T13:18:20.001Z</time>
      </trkpt>
      <trkpt lat="48.4346" lon="-1.56268">
        <ele>90.071</ele>
        <time>2019-11-11T13:18:50.001Z</time>
      </trkpt>
      <trkpt lat="48.43606" lon="-1.56122">
        <ele>90.34</ele>
        <time>2019-11-11T13:19:23.001Z</time>
      </trkpt>
      <trkpt lat="48.43718" lon="-1.56014">
        <ele>91.902</ele>
        <time>2019-11-11T13:19:53.001Z</time>
      </trkpt>
      <trkpt lat="48.43828" lon="-1.55939">
        <ele>92.123</ele>
        <time>2019-11-11T13:20:23.001Z</time>
      </trkpt>
      <trkpt lat="48.4395" lon="-1.55923">
        <ele>93.327</ele>
        <time>2019-11-11T13:20:53.001Z</time>
      </trkpt>
      <trkpt lat="48.44056" lon="-1.55911">
        <ele>94.636</ele>
        <time>2019-11-11T13:21:26.001Z</time>
      </trkpt>
      <trkpt lat="48.44143" lon="-1.55896">
        <ele>94.661</ele>
        <time>2019-11-11T13:21:56.001Z</time>
      </trkpt>
      <trkpt lat="48.44292" lon="-1.55847">
        <ele>92.059</ele>
        <time>2019-11-11T13:22:26.001Z</time>
      </trkpt>
      <trkpt lat="48.44465" lon="-1.55968">
        <ele>87.734</ele>
        <time>2019-11-11T13:22:59.001Z</time>
      </trkpt>
      <trkpt lat="48.44613" lon="-1.55849">
        <ele>80.417</ele>
        <time>2019-11-11T13:23:29.001Z</time>
      </trkpt>
      <trkpt lat="48.44687" lon="-1.55797">
        <ele>82.123</ele>
        <time>2019-11-11T13:23:59.001Z</time>
      </trkpt>
      <trkpt lat="48.44743" lon="-1.55785">
        <ele>91.382</ele>
        <time>2019-11-11T13:24:29.001Z</time>
      </trkpt>
      <trkpt lat="48.44807" lon="-1.5577">
        <ele>95.358</ele>
        <time>2019-11-11T13:25:02Z</time>
      </trkpt>
      <trkpt lat="48.44868" lon="-1.55798">
        <ele>100.127</ele>
        <time>2019-11-11T13:25:32.001Z</time>
      </trkpt>
      <trkpt lat="48.44934" lon="-1.5583">
        <ele>100.021</ele>
        <time>2019-11-11T13:26:02Z</time>
      </trkpt>
      <trkpt lat="48.45015" lon="-1.55827">
        <ele>105.38</ele>
        <time>2019-11-11T13:26:35.001Z</time>
      </trkpt>
      <trkpt lat="48.45101" lon="-1.55828">
        <ele>105.836</ele>
        <time>2019-11-11T13:27:05.001Z</time>
      </trkpt>
      <trkpt lat="48.45159" lon="-1.55827">
        <ele>108.289</ele>
        <time>2019-11-11T13:27:35.001Z</time>
      </trkpt>
      <trkpt lat="48.45256" lon="-1.55824">
        <ele>109.204</ele>
        <time>2019-11-11T13:28:05.001Z</time>
      </trkpt>
      <trkpt lat="48.45383" lon="-1.55858">
        <ele>107.154</ele>
        <time>2019-11-11T13:28:38.001Z</time>
      </trkpt>
      <trkpt lat="48.45499" lon="-1.55834">
        <ele>106.381</ele>
        <time>2019-11-11T13:29:08.001Z</time>
      </trkpt>
      <trkpt lat="48.45626" lon="-1.55812">
        <ele>103.905</ele>
        <time>2019-11-11T13:29:38.001Z</time>
      </trkpt>
      <trkpt lat="48.45745" lon="-1.55794">
        <ele>106.03</ele>
        <time>2019-11-11T13:30:11.001Z</time>
      </trkpt>
      <trkpt lat="48.4586" lon="-1.55774">
        <ele>102.889</ele>
        <time>2019-11-11T13:30:41.001Z</time>
      </trkpt>
      <trkpt lat="48.45989" lon="-1.55757">
        <ele>98.87</ele>
        <time>2019-11-11T13:31:11.001Z</time>
      </trkpt>
      <trkpt lat="48.46117" lon="-1.55735">
        <ele>101.31</ele>
        <time>2019-11-11T13:31:44.001Z</time>
      </trkpt>
      <trkpt lat="48.46219" lon="-1.55718">
        <ele>101.138</ele>
        <time>2019-11-11T13:32:14.001Z</time>
      </trkpt>
      <trkpt lat="48.46311" lon="-1.55702">
        <ele>105.905</ele>
        <time>2019-11-11T13:32:44.001Z</time>
      </trkpt>
      <trkpt lat="48.46443" lon="-1.55666">
        <ele>110.426</ele>
        <time>2019-11-11T13:33:14.001Z</time>
      </trkpt>
      <trkpt lat="48.46595" lon="-1.5563">
        <ele>103.61</ele>
        <time>2019-11-11T13:33:47.001Z</time>
      </trkpt>
      <trkpt lat="48.46725" lon="-1.55599">
        <ele>100.36</ele>
        <time>2019-11-11T13:34:17.001Z</time>
      </trkpt>
      <trkpt lat="48.46825" lon="-1.55574">
        <ele>100.342</ele>
        <time>2019-11-11T13:34:47.001Z</time>
      </trkpt>
      <trkpt lat="48.46914" lon="-1.55552">
        <ele>107.466</ele>
        <time>2019-11-11T13:35:20.001Z</time>
      </trkpt>
      <trkpt lat="48.47102" lon="-1.55506">
        <ele>102.158</ele>
        <time>2019-11-11T13:35:50.001Z</time>
      </trkpt>
      <trkpt lat="48.47298" lon="-1.55452">
        <ele>98.116</ele>
        <time>2019-11-11T13:36:20.001Z</time>
      </trkpt>
      <trkpt lat="48.4741" lon="-1.55427">
        <ele>95.952</ele>
        <time>2019-11-11T13:36:50.001Z</time>
      </trkpt>
      <trkpt lat="48.47488" lon="-1.55416">
        <ele>99.401</ele>
        <time>2019-11-11T13:37:23.001Z</time>
      </trkpt>
      <trkpt lat="48.47558" lon="-1.55392">
        <ele>105.134</ele>
        <time>2019-11-11T13:37:53.001Z</time>
      </trkpt>
      <trkpt lat="48.47632" lon="-1.55375">
        <ele>108.008</ele>
        <time>2019-11-11T13:38:23.001Z</time>
      </trkpt>
      <trkpt lat="48.47703" lon="-1.55357">
        <ele>109.103</ele>
        <time>2019-11-11T13:38:56.001Z</time>
      </trkpt>
      <trkpt lat="48.47788" lon="-1.55337">
        <ele>113.449</ele>
        <time>2019-11-11T13:39:26.001Z</time>
      </trkpt>
      <trkpt lat="48.4793" lon="-1.553">
        <ele>116.15</ele>
        <time>2019-11-11T13:39:56.001Z</time>
      </trkpt>
      <trkpt lat="48.47984" lon="-1.55284">
        <ele>116.443</ele>
        <time>2019-11-11T13:41:26.001Z</time>
      </trkpt>
      <trkpt lat="48.4817" lon="-1.55239">
        <ele>115.14</ele>
        <time>2019-11-11T13:41:59.001Z</time>
      </trkpt>
      <trkpt lat="48.48319" lon="-1.55205">
        <ele>117.976</ele>
        <time>2019-11-11T13:42:29.001Z</time>
      </trkpt>
      <trkpt lat="48.48459" lon="-1.55166">
        <ele>122.047</ele>
        <time>2019-11-11T13:42:59.001Z</time>
      </trkpt>
      <trkpt lat="48.48537" lon="-1.55069">
        <ele>112.62</ele>
        <time>2019-11-11T13:43:32.001Z</time>
      </trkpt>
      <trkpt lat="48.48489" lon="-1.54828">
        <ele>100.77</ele>
        <time>2019-11-11T13:44:02Z</time>
      </trkpt>
      <trkpt lat="48.48491" lon="-1.54578">
        <ele>97.992</ele>
        <time>2019-11-11T13:44:32.001Z</time>
      </trkpt>
      <trkpt lat="48.48617" lon="-1.54503">
        <ele>98.655</ele>
        <time>2019-11-11T13:45:05.001Z</time>
      </trkpt>
      <trkpt lat="48.48729" lon="-1.54448">
        <ele>101.789</ele>
        <time>2019-11-11T13:45:35.001Z</time>
      </trkpt>
      <trkpt lat="48.48916" lon="-1.54386">
        <ele>93.884</ele>
        <time>2019-11-11T13:46:05.001Z</time>
      </trkpt>
      <trkpt lat="48.49073" lon="-1.54256">
        <ele>88.755</ele>
        <time>2019-11-11T13:46:35.001Z</time>
      </trkpt>
      <trkpt lat="48.49254" lon="-1.54214">
        <ele>85.568</ele>
        <time>2019-11-11T13:47:08.001Z</time>
      </trkpt>
      <trkpt lat="48.49441" lon="-1.54222">
        <ele>78.011</ele>
        <time>2019-11-11T13:47:38.001Z</time>
      </trkpt>
      <trkpt lat="48.49543" lon="-1.54284">
        <ele>85.327</ele>
        <time>2019-11-11T13:48:08.001Z</time>
      </trkpt>
      <trkpt lat="48.49622" lon="-1.54335">
        <ele>90.202</ele>
        <time>2019-11-11T13:48:41.001Z</time>
      </trkpt>
      <trkpt lat="48.49684" lon="-1.54375">
        <ele>91.559</ele>
        <time>2019-11-11T13:49:11.001Z</time>
      </trkpt>
      <trkpt lat="48.49752" lon="-1.5441">
        <ele>90.235</ele>
        <time>2019-11-11T13:49:41.001Z</time>
      </trkpt>
      <trkpt lat="48.49827" lon="-1.54409">
        <ele>90.646</ele>
        <time>2019-11-11T13:50:11.001Z</time>
      </trkpt>
      <trkpt lat="48.49944" lon="-1.54424">
        <ele>93.45</ele>
        <time>2019-11-11T13:50:44.001Z</time>
      </trkpt>
      <trkpt lat="48.50062" lon="-1.54467">
        <ele>92.29</ele>
        <time>2019-11-11T13:51:14.001Z</time>
      </trkpt>
      <trkpt lat="48.50236" lon="-1.5449">
        <ele>83.902</ele>
        <time>2019-11-11T13:51:44.001Z</time>
      </trkpt>
      <trkpt lat="48.50624" lon="-1.54421">
        <ele>42.342</ele>
        <time>2019-11-11T13:52:17.001Z</time>
      </trkpt>
      <trkpt lat="48.50911" lon="-1.54464">
        <ele>28.323</ele>
        <time>2019-11-11T13:52:47.001Z</time>
      </trkpt>
      <trkpt lat="48.51056" lon="-1.54531">
        <ele>25.051</ele>
        <time>2019-11-11T13:53:17.001Z</time>
      </trkpt>
      <trkpt lat="48.51168" lon="-1.54404">
        <ele>25.977</ele>
        <time>2019-11-11T13:53:47.001Z</time>
      </trkpt>
      <trkpt lat="48.51263" lon="-1.54137">
        <ele>21.527</ele>
        <time>2019-11-11T13:54:20.001Z</time>
      </trkpt>
      <trkpt lat="48.51389" lon="-1.54063">
        <ele>24.566</ele>
        <time>2019-11-11T13:54:50.001Z</time>
      </trkpt>
      <trkpt lat="48.51522" lon="-1.54028">
        <ele>23.747</ele>
        <time>2019-11-11T13:55:20.001Z</time>
      </trkpt>
      <trkpt lat="48.51686" lon="-1.53986">
        <ele>17.825</ele>
        <time>2019-11-11T13:55:53.001Z</time>
      </trkpt>
      <trkpt lat="48.51827" lon="-1.53951">
        <ele>16.421</ele>
        <time>2019-11-11T13:56:23.001Z</time>
      </trkpt>
      <trkpt lat="48.51979" lon="-1.53922">
        <ele>22.034</ele>
        <time>2019-11-11T13:56:53.001Z</time>
      </trkpt>
      <trkpt lat="48.52137" lon="-1.53839">
        <ele>23.598</ele>
        <time>2019-11-11T13:57:26.001Z</time>
      </trkpt>
      <trkpt lat="48.523" lon="-1.5373">
        <ele>16.657</ele>
        <time>2019-11-11T13:57:56.001Z</time>
      </trkpt>
      <trkpt lat="48.52391" lon="-1.53607">
        <ele>14.643</ele>
        <time>2019-11-11T13:58:26.001Z</time>
      </trkpt>
      <trkpt lat="48.52494" lon="-1.53471">
        <ele>15.838</ele>
        <time>2019-11-11T13:58:56.001Z</time>
      </trkpt>
      <trkpt lat="48.52649" lon="-1.53319">
        <ele>13.951</ele>
        <time>2019-11-11T13:59:29.001Z</time>
      </trkpt>
      <trkpt lat="48.52743" lon="-1.53164">
        <ele>16.748</ele>
        <time>2019-11-11T13:59:59.001Z</time>
      </trkpt>
      <trkpt lat="48.52836" lon="-1.52994">
        <ele>17.769</ele>
        <time>2019-11-11T14:00:29.001Z</time>
      </trkpt>
      <trkpt lat="48.53024" lon="-1.52905">
        <ele>13.142</ele>
        <time>2019-11-11T14:01:02Z</time>
      </trkpt>
      <trkpt lat="48.53017" lon="-1.52674">
        <ele>10.162</ele>
        <time>2019-11-11T14:01:32.001Z</time>
      </trkpt>
      <trkpt lat="48.52996" lon="-1.5251">
        <ele>12.901</ele>
        <time>2019-11-11T14:02:02Z</time>
      </trkpt>
      <trkpt lat="48.53077" lon="-1.52405">
        <ele>13.368</ele>
        <time>2019-11-11T14:02:32.001Z</time>
      </trkpt>
      <trkpt lat="48.53177" lon="-1.52327">
        <ele>17.395</ele>
        <time>2019-11-11T14:03:05.001Z</time>
      </trkpt>
      <trkpt lat="48.53281" lon="-1.5227">
        <ele>19.803</ele>
        <time>2019-11-11T14:03:35.001Z</time>
      </trkpt>
      <trkpt lat="48.53443" lon="-1.52184">
        <ele>17.938</ele>
        <time>2019-11-11T14:04:05.001Z</time>
      </trkpt>
      <trkpt lat="48.53588" lon="-1.52028">
        <ele>11.223</ele>
        <time>2019-11-11T14:04:38.001Z</time>
      </trkpt>
      <trkpt lat="48.53646" lon="-1.51767">
        <ele>6.744</ele>
        <time>2019-11-11T14:05:08.001Z</time>
      </trkpt>
      <trkpt lat="48.53757" lon="-1.51701">
        <ele>9.03</ele>
        <time>2019-11-11T14:05:38.001Z</time>
      </trkpt>
      <trkpt lat="48.53853" lon="-1.51539">
        <ele>8.116</ele>
        <time>2019-11-11T14:06:08.001Z</time>
      </trkpt>
      <trkpt lat="48.53969" lon="-1.51517">
        <ele>5.315</ele>
        <time>2019-11-11T14:06:41.001Z</time>
      </trkpt>
      <trkpt lat="48.54078" lon="-1.515">
        <ele>8.391</ele>
        <time>2019-11-11T14:07:11.001Z</time>
      </trkpt>
      <trkpt lat="48.5418" lon="-1.51434">
        <ele>9.544</ele>
        <time>2019-11-11T14:07:41.001Z</time>
      </trkpt>
      <trkpt lat="48.54288" lon="-1.51315">
        <ele>6.569</ele>
        <time>2019-11-11T14:08:14.001Z</time>
      </trkpt>
      <trkpt lat="48.54399" lon="-1.51318">
        <ele>9.778</ele>
        <time>2019-11-11T14:08:44.001Z</time>
      </trkpt>
      <trkpt lat="48.54495" lon="-1.5135">
        <ele>5.195</ele>
        <time>2019-11-11T14:09:14.001Z</time>
      </trkpt>
      <trkpt lat="48.5458" lon="-1.51482">
        <ele>10.052</ele>
        <time>2019-11-11T14:09:47.001Z</time>
      </trkpt>
      <trkpt lat="48.54603" lon="-1.51671">
        <ele>6.971</ele>
        <time>2019-11-11T14:10:17.001Z</time>
      </trkpt>
      <trkpt lat="48.54652" lon="-1.51798">
        <ele>5.909</ele>
        <time>2019-11-11T14:10:47.001Z</time>
      </trkpt>
      <trkpt lat="48.54772" lon="-1.5175">
        <ele>8.107</ele>
        <time>2019-11-11T14:11:17.001Z</time>
      </trkpt>
      <trkpt lat="48.54891" lon="-1.51631">
        <ele>7.685</ele>
        <time>2019-11-11T14:11:50.001Z</time>
      </trkpt>
      <trkpt lat="48.55002" lon="-1.51543">
        <ele>8.066</ele>
        <time>2019-11-11T14:12:20.001Z</time>
      </trkpt>
      <trkpt lat="48.55111" lon="-1.51427">
        <ele>9.716</ele>
        <time>2019-11-11T14:12:50.001Z</time>
      </trkpt>
      <trkpt lat="48.55238" lon="-1.5139">
        <ele>8.535</ele>
        <time>2019-11-11T14:13:23.001Z</time>
      </trkpt>
      <trkpt lat="48.55266" lon="-1.51293">
        <ele>13.174</ele>
        <time>2019-11-11T14:13:53.001Z</time>
      </trkpt>
    </trkseg>
  </trk>
  <trk>
    <name><![CDATA[Tracé 20191112-082108]]></name>
    <trkseg>
      <trkpt lat="48.55252" lon="-1.51282">
        <ele>18.676</ele>
        <time>2019-11-12T07:23:50Z</time>
      </trkpt>
      <trkpt lat="48.55271" lon="-1.51225">
        <ele>17.389</ele>
        <time>2019-11-12T07:29:38Z</time>
      </trkpt>
      <trkpt lat="48.55295" lon="-1.51081">
        <ele>10.159</ele>
        <time>2019-11-12T07:31:29Z</time>
      </trkpt>
      <trkpt lat="48.55315" lon="-1.5093">
        <ele>18.865</ele>
        <time>2019-11-12T07:31:59Z</time>
      </trkpt>
      <trkpt lat="48.55421" lon="-1.50949">
        <ele>30.95</ele>
        <time>2019-11-12T07:32:32Z</time>
      </trkpt>
      <trkpt lat="48.55594" lon="-1.50942">
        <ele>30.051</ele>
        <time>2019-11-12T07:33:05Z</time>
      </trkpt>
      <trkpt lat="48.55749" lon="-1.50919">
        <ele>16.891</ele>
        <time>2019-11-12T07:33:35Z</time>
      </trkpt>
      <trkpt lat="48.55911" lon="-1.50924">
        <ele>5.93</ele>
        <time>2019-11-12T07:34:08Z</time>
      </trkpt>
      <trkpt lat="48.56069" lon="-1.50934">
        <ele>6.293</ele>
        <time>2019-11-12T07:34:41Z</time>
      </trkpt>
      <trkpt lat="48.56161" lon="-1.5095">
        <ele>6.342</ele>
        <time>2019-11-12T07:35:11Z</time>
      </trkpt>
      <trkpt lat="48.5626" lon="-1.50999">
        <ele>11.878</ele>
        <time>2019-11-12T07:35:44Z</time>
      </trkpt>
      <trkpt lat="48.56371" lon="-1.51108">
        <ele>12.473</ele>
        <time>2019-11-12T07:36:17Z</time>
      </trkpt>
      <trkpt lat="48.56353" lon="-1.5088">
        <ele>7.705</ele>
        <time>2019-11-12T07:36:47Z</time>
      </trkpt>
      <trkpt lat="48.56359" lon="-1.50654">
        <ele>7.427</ele>
        <time>2019-11-12T07:37:20Z</time>
      </trkpt>
      <trkpt lat="48.56423" lon="-1.50512">
        <ele>13.133</ele>
        <time>2019-11-12T07:37:53Z</time>
      </trkpt>
      <trkpt lat="48.56481" lon="-1.50403">
        <ele>18.477</ele>
        <time>2019-11-12T07:38:23Z</time>
      </trkpt>
      <trkpt lat="48.56588" lon="-1.50296">
        <ele>18.682</ele>
        <time>2019-11-12T07:38:56Z</time>
      </trkpt>
      <trkpt lat="48.56706" lon="-1.50225">
        <ele>15.852</ele>
        <time>2019-11-12T07:39:29Z</time>
      </trkpt>
      <trkpt lat="48.56825" lon="-1.50154">
        <ele>15.78</ele>
        <time>2019-11-12T07:39:59Z</time>
      </trkpt>
      <trkpt lat="48.56948" lon="-1.50058">
        <ele>18.613</ele>
        <time>2019-11-12T07:40:32Z</time>
      </trkpt>
      <trkpt lat="48.57049" lon="-1.49938">
        <ele>18.066</ele>
        <time>2019-11-12T07:41:02Z</time>
      </trkpt>
      <trkpt lat="48.57148" lon="-1.49763">
        <ele>19.528</ele>
        <time>2019-11-12T07:41:35Z</time>
      </trkpt>
      <trkpt lat="48.57249" lon="-1.49617">
        <ele>13.997</ele>
        <time>2019-11-12T07:42:08Z</time>
      </trkpt>
      <trkpt lat="48.57335" lon="-1.49498">
        <ele>15.965</ele>
        <time>2019-11-12T07:42:38Z</time>
      </trkpt>
      <trkpt lat="48.57411" lon="-1.49346">
        <ele>16.43</ele>
        <time>2019-11-12T07:43:11Z</time>
      </trkpt>
      <trkpt lat="48.57518" lon="-1.49211">
        <ele>17.102</ele>
        <time>2019-11-12T07:43:44Z</time>
      </trkpt>
      <trkpt lat="48.57618" lon="-1.49143">
        <ele>22.659</ele>
        <time>2019-11-12T07:44:14Z</time>
      </trkpt>
      <trkpt lat="48.57714" lon="-1.49057">
        <ele>26.275</ele>
        <time>2019-11-12T07:44:47Z</time>
      </trkpt>
      <trkpt lat="48.57775" lon="-1.48898">
        <ele>24.661</ele>
        <time>2019-11-12T07:45:20Z</time>
      </trkpt>
      <trkpt lat="48.57871" lon="-1.48862">
        <ele>26.111</ele>
        <time>2019-11-12T07:45:50Z</time>
      </trkpt>
      <trkpt lat="48.57998" lon="-1.48825">
        <ele>24.587</ele>
        <time>2019-11-12T07:46:23Z</time>
      </trkpt>
      <trkpt lat="48.58107" lon="-1.48732">
        <ele>27.921</ele>
        <time>2019-11-12T07:46:56Z</time>
      </trkpt>
      <trkpt lat="48.58206" lon="-1.48629">
        <ele>29.91</ele>
        <time>2019-11-12T07:47:26Z</time>
      </trkpt>
      <trkpt lat="48.58322" lon="-1.48497">
        <ele>30.792</ele>
        <time>2019-11-12T07:47:59Z</time>
      </trkpt>
      <trkpt lat="48.58454" lon="-1.48365">
        <ele>28.982</ele>
        <time>2019-11-12T07:48:32Z</time>
      </trkpt>
      <trkpt lat="48.58544" lon="-1.48229">
        <ele>29.795</ele>
        <time>2019-11-12T07:49:02Z</time>
      </trkpt>
      <trkpt lat="48.58598" lon="-1.48105">
        <ele>33.772</ele>
        <time>2019-11-12T07:49:35Z</time>
      </trkpt>
      <trkpt lat="48.58614" lon="-1.48007">
        <ele>40.734</ele>
        <time>2019-11-12T07:50:08Z</time>
      </trkpt>
      <trkpt lat="48.58651" lon="-1.47955">
        <ele>43.503</ele>
        <time>2019-11-12T07:50:38Z</time>
      </trkpt>
      <trkpt lat="48.58743" lon="-1.47917">
        <ele>47.947</ele>
        <time>2019-11-12T07:51:11Z</time>
      </trkpt>
      <trkpt lat="48.58825" lon="-1.47874">
        <ele>55.286</ele>
        <time>2019-11-12T07:51:44Z</time>
      </trkpt>
      <trkpt lat="48.58895" lon="-1.47823">
        <ele>48.924</ele>
        <time>2019-11-12T07:52:14Z</time>
      </trkpt>
      <trkpt lat="48.59038" lon="-1.47802">
        <ele>49.119</ele>
        <time>2019-11-12T07:52:47Z</time>
      </trkpt>
      <trkpt lat="48.59303" lon="-1.47691">
        <ele>33.426</ele>
        <time>2019-11-12T07:53:20Z</time>
      </trkpt>
      <trkpt lat="48.59522" lon="-1.47656">
        <ele>26.263</ele>
        <time>2019-11-12T07:53:50Z</time>
      </trkpt>
      <trkpt lat="48.59805" lon="-1.47576">
        <ele>17.95</ele>
        <time>2019-11-12T07:54:23Z</time>
      </trkpt>
      <trkpt lat="48.60001" lon="-1.47457">
        <ele>11.686</ele>
        <time>2019-11-12T07:54:56Z</time>
      </trkpt>
      <trkpt lat="48.60083" lon="-1.47286">
        <ele>10.603</ele>
        <time>2019-11-12T07:55:26Z</time>
      </trkpt>
      <trkpt lat="48.6016" lon="-1.47233">
        <ele>9.657</ele>
        <time>2019-11-12T07:57:41.001Z</time>
      </trkpt>
      <trkpt lat="48.60262" lon="-1.47138">
        <ele>14.001</ele>
        <time>2019-11-12T07:58:14.001Z</time>
      </trkpt>
      <trkpt lat="48.60381" lon="-1.47019">
        <ele>11.346</ele>
        <time>2019-11-12T07:58:44.001Z</time>
      </trkpt>
      <trkpt lat="48.60476" lon="-1.4685">
        <ele>12.562</ele>
        <time>2019-11-12T07:59:17.001Z</time>
      </trkpt>
      <trkpt lat="48.60571" lon="-1.46642">
        <ele>10.842</ele>
        <time>2019-11-12T07:59:50.001Z</time>
      </trkpt>
      <trkpt lat="48.60674" lon="-1.46484">
        <ele>11.311</ele>
        <time>2019-11-12T08:00:20.001Z</time>
      </trkpt>
      <trkpt lat="48.60765" lon="-1.46286">
        <ele>10.181</ele>
        <time>2019-11-12T08:00:53.001Z</time>
      </trkpt>
      <trkpt lat="48.60865" lon="-1.46115">
        <ele>9.169</ele>
        <time>2019-11-12T08:01:23.001Z</time>
      </trkpt>
      <trkpt lat="48.6094" lon="-1.4593">
        <ele>11.129</ele>
        <time>2019-11-12T08:01:56.001Z</time>
      </trkpt>
      <trkpt lat="48.6103" lon="-1.45785">
        <ele>12.597</ele>
        <time>2019-11-12T08:02:29.001Z</time>
      </trkpt>
      <trkpt lat="48.6113" lon="-1.45756">
        <ele>11.763</ele>
        <time>2019-11-12T08:02:59.001Z</time>
      </trkpt>
      <trkpt lat="48.61244" lon="-1.45689">
        <ele>13.727</ele>
        <time>2019-11-12T08:03:32.001Z</time>
      </trkpt>
      <trkpt lat="48.61333" lon="-1.45566">
        <ele>12.322</ele>
        <time>2019-11-12T08:04:05.001Z</time>
      </trkpt>
      <trkpt lat="48.61414" lon="-1.45424">
        <ele>12.737</ele>
        <time>2019-11-12T08:04:35.001Z</time>
      </trkpt>
      <trkpt lat="48.61483" lon="-1.45257">
        <ele>14.301</ele>
        <time>2019-11-12T08:05:08.001Z</time>
      </trkpt>
      <trkpt lat="48.61579" lon="-1.45113">
        <ele>14.259</ele>
        <time>2019-11-12T08:05:41.001Z</time>
      </trkpt>
      <trkpt lat="48.61687" lon="-1.44991">
        <ele>15.489</ele>
        <time>2019-11-12T08:06:11.001Z</time>
      </trkpt>
      <trkpt lat="48.61835" lon="-1.44895">
        <ele>13.605</ele>
        <time>2019-11-12T08:06:44.001Z</time>
      </trkpt>
      <trkpt lat="48.61989" lon="-1.44815">
        <ele>12.989</ele>
        <time>2019-11-12T08:07:17.001Z</time>
      </trkpt>
      <trkpt lat="48.62123" lon="-1.44704">
        <ele>7.647</ele>
        <time>2019-11-12T08:07:47.001Z</time>
      </trkpt>
      <trkpt lat="48.6226" lon="-1.4465">
        <ele>8.448</ele>
        <time>2019-11-12T08:08:20.001Z</time>
      </trkpt>
      <trkpt lat="48.62358" lon="-1.44637">
        <ele>10.584</ele>
        <time>2019-11-12T08:08:56.001Z</time>
      </trkpt>
      <trkpt lat="48.62477" lon="-1.44548">
        <ele>7.631</ele>
        <time>2019-11-12T08:09:26.001Z</time>
      </trkpt>
      <trkpt lat="48.62582" lon="-1.44383">
        <ele>8.573</ele>
        <time>2019-11-12T08:09:59.001Z</time>
      </trkpt>
      <trkpt lat="48.62694" lon="-1.44224">
        <ele>8.362</ele>
        <time>2019-11-12T08:10:32.001Z</time>
      </trkpt>
      <trkpt lat="48.62771" lon="-1.44043">
        <ele>14.042</ele>
        <time>2019-11-12T08:11:02Z</time>
      </trkpt>
      <trkpt lat="48.62827" lon="-1.43801">
        <ele>14.631</ele>
        <time>2019-11-12T08:11:35.001Z</time>
      </trkpt>
      <trkpt lat="48.62944" lon="-1.43621">
        <ele>10.688</ele>
        <time>2019-11-12T08:12:08.001Z</time>
      </trkpt>
      <trkpt lat="48.63045" lon="-1.43479">
        <ele>12.565</ele>
        <time>2019-11-12T08:12:38.001Z</time>
      </trkpt>
      <trkpt lat="48.63124" lon="-1.4328">
        <ele>15.283</ele>
        <time>2019-11-12T08:13:11.001Z</time>
      </trkpt>
      <trkpt lat="48.63231" lon="-1.43095">
        <ele>12.814</ele>
        <time>2019-11-12T08:13:44.001Z</time>
      </trkpt>
      <trkpt lat="48.63328" lon="-1.4293">
        <ele>11.935</ele>
        <time>2019-11-12T08:14:14.001Z</time>
      </trkpt>
      <trkpt lat="48.63441" lon="-1.42776">
        <ele>11.54</ele>
        <time>2019-11-12T08:14:47.001Z</time>
      </trkpt>
      <trkpt lat="48.6357" lon="-1.42645">
        <ele>9.758</ele>
        <time>2019-11-12T08:15:20.001Z</time>
      </trkpt>
      <trkpt lat="48.63708" lon="-1.42611">
        <ele>8.939</ele>
        <time>2019-11-12T08:15:50.001Z</time>
      </trkpt>
      <trkpt lat="48.63802" lon="-1.42526">
        <ele>10.535</ele>
        <time>2019-11-12T08:17:32.001Z</time>
      </trkpt>
      <trkpt lat="48.63855" lon="-1.42472">
        <ele>8.959</ele>
        <time>2019-11-12T08:18:23.001Z</time>
      </trkpt>
      <trkpt lat="48.63905" lon="-1.42327">
        <ele>10.449</ele>
        <time>2019-11-12T08:18:53.001Z</time>
      </trkpt>
      <trkpt lat="48.64003" lon="-1.422">
        <ele>9.125</ele>
        <time>2019-11-12T08:19:26.001Z</time>
      </trkpt>
      <trkpt lat="48.63875" lon="-1.42105">
        <ele>6.04</ele>
        <time>2019-11-12T08:19:59.001Z</time>
      </trkpt>
      <trkpt lat="48.63782" lon="-1.41952">
        <ele>5.896</ele>
        <time>2019-11-12T08:20:29.001Z</time>
      </trkpt>
      <trkpt lat="48.63763" lon="-1.41731">
        <ele>6.488</ele>
        <time>2019-11-12T08:21:02Z</time>
      </trkpt>
      <trkpt lat="48.6378" lon="-1.41523">
        <ele>7.011</ele>
        <time>2019-11-12T08:21:32.001Z</time>
      </trkpt>
      <trkpt lat="48.63827" lon="-1.41295">
        <ele>8.071</ele>
        <time>2019-11-12T08:22:05.001Z</time>
      </trkpt>
      <trkpt lat="48.63878" lon="-1.41038">
        <ele>9.066</ele>
        <time>2019-11-12T08:22:38.001Z</time>
      </trkpt>
      <trkpt lat="48.63916" lon="-1.40798">
        <ele>6.265</ele>
        <time>2019-11-12T08:23:08.001Z</time>
      </trkpt>
      <trkpt lat="48.63945" lon="-1.40547">
        <ele>8.142</ele>
        <time>2019-11-12T08:23:41.001Z</time>
      </trkpt>
      <trkpt lat="48.63983" lon="-1.40304">
        <ele>7.581</ele>
        <time>2019-11-12T08:24:14.001Z</time>
      </trkpt>
      <trkpt lat="48.64027" lon="-1.40086">
        <ele>9.47</ele>
        <time>2019-11-12T08:24:44.001Z</time>
      </trkpt>
      <trkpt lat="48.64108" lon="-1.3986">
        <ele>8.277</ele>
        <time>2019-11-12T08:25:17.001Z</time>
      </trkpt>
      <trkpt lat="48.64237" lon="-1.39711">
        <ele>7.921</ele>
        <time>2019-11-12T08:25:50.001Z</time>
      </trkpt>
      <trkpt lat="48.64366" lon="-1.39594">
        <ele>7.542</ele>
        <time>2019-11-12T08:26:20.001Z</time>
      </trkpt>
      <trkpt lat="48.64445" lon="-1.39378">
        <ele>7.748</ele>
        <time>2019-11-12T08:26:53.001Z</time>
      </trkpt>
      <trkpt lat="48.64465" lon="-1.39218">
        <ele>12.69</ele>
        <time>2019-11-12T08:27:26.001Z</time>
      </trkpt>
      <trkpt lat="48.64449" lon="-1.3908">
        <ele>15.109</ele>
        <time>2019-11-12T08:27:56.001Z</time>
      </trkpt>
      <trkpt lat="48.6442" lon="-1.38907">
        <ele>12.063</ele>
        <time>2019-11-12T08:28:29.001Z</time>
      </trkpt>
      <trkpt lat="48.64336" lon="-1.38816">
        <ele>17.377</ele>
        <time>2019-11-12T08:29:02Z</time>
      </trkpt>
      <trkpt lat="48.64227" lon="-1.38665">
        <ele>12.044</ele>
        <time>2019-11-12T08:29:32.001Z</time>
      </trkpt>
      <trkpt lat="48.64092" lon="-1.38499">
        <ele>7.155</ele>
        <time>2019-11-12T08:30:05.001Z</time>
      </trkpt>
      <trkpt lat="48.64012" lon="-1.3831">
        <ele>8.951</ele>
        <time>2019-11-12T08:30:38.001Z</time>
      </trkpt>
      <trkpt lat="48.63988" lon="-1.38108">
        <ele>12.917</ele>
        <time>2019-11-12T08:31:08.001Z</time>
      </trkpt>
      <trkpt lat="48.63939" lon="-1.37982">
        <ele>11.894</ele>
        <time>2019-11-12T08:31:41.001Z</time>
      </trkpt>
      <trkpt lat="48.63884" lon="-1.37858">
        <ele>14.369</ele>
        <time>2019-11-12T08:32:14.001Z</time>
      </trkpt>
      <trkpt lat="48.6381" lon="-1.3775">
        <ele>17.133</ele>
        <time>2019-11-12T08:32:44.001Z</time>
      </trkpt>
      <trkpt lat="48.63747" lon="-1.37622">
        <ele>18.44</ele>
        <time>2019-11-12T08:33:17.001Z</time>
      </trkpt>
      <trkpt lat="48.63732" lon="-1.3747">
        <ele>20.63</ele>
        <time>2019-11-12T08:33:50.001Z</time>
      </trkpt>
      <trkpt lat="48.63667" lon="-1.37362">
        <ele>20.385</ele>
        <time>2019-11-12T08:34:20.001Z</time>
      </trkpt>
      <trkpt lat="48.63588" lon="-1.3724">
        <ele>22.444</ele>
        <time>2019-11-12T08:34:53.001Z</time>
      </trkpt>
      <trkpt lat="48.63528" lon="-1.37122">
        <ele>25.793</ele>
        <time>2019-11-12T08:35:26.001Z</time>
      </trkpt>
      <trkpt lat="48.63462" lon="-1.37007">
        <ele>26.897</ele>
        <time>2019-11-12T08:35:56.001Z</time>
      </trkpt>
      <trkpt lat="48.63401" lon="-1.36884">
        <ele>27.864</ele>
        <time>2019-11-12T08:36:29.001Z</time>
      </trkpt>
      <trkpt lat="48.63358" lon="-1.36747">
        <ele>33.004</ele>
        <time>2019-11-12T08:37:02Z</time>
      </trkpt>
      <trkpt lat="48.63338" lon="-1.3663">
        <ele>35.68</ele>
        <time>2019-11-12T08:37:32.001Z</time>
      </trkpt>
      <trkpt lat="48.6328" lon="-1.36474">
        <ele>34.858</ele>
        <time>2019-11-12T08:38:05.001Z</time>
      </trkpt>
      <trkpt lat="48.63267" lon="-1.36355">
        <ele>37.713</ele>
        <time>2019-11-12T08:38:38.001Z</time>
      </trkpt>
      <trkpt lat="48.63255" lon="-1.36187">
        <ele>38.033</ele>
        <time>2019-11-12T08:39:08.001Z</time>
      </trkpt>
      <trkpt lat="48.63193" lon="-1.35857">
        <ele>29.775</ele>
        <time>2019-11-12T08:39:41.001Z</time>
      </trkpt>
      <trkpt lat="48.63187" lon="-1.35411">
        <ele>15.218</ele>
        <time>2019-11-12T08:40:11.001Z</time>
      </trkpt>
      <trkpt lat="48.63122" lon="-1.35179">
        <ele>5.247</ele>
        <time>2019-11-12T08:40:44.001Z</time>
      </trkpt>
      <trkpt lat="48.63123" lon="-1.3505">
        <ele>12.996</ele>
        <time>2019-11-12T08:41:23.001Z</time>
      </trkpt>
      <trkpt lat="48.63118" lon="-1.34932">
        <ele>9.419</ele>
        <time>2019-11-12T08:41:53.001Z</time>
      </trkpt>
      <trkpt lat="48.63128" lon="-1.34765">
        <ele>9.616</ele>
        <time>2019-11-12T08:42:26.001Z</time>
      </trkpt>
      <trkpt lat="48.63187" lon="-1.34586">
        <ele>9.017</ele>
        <time>2019-11-12T08:42:59.001Z</time>
      </trkpt>
      <trkpt lat="48.63275" lon="-1.34512">
        <ele>10.295</ele>
        <time>2019-11-12T08:43:29.001Z</time>
      </trkpt>
      <trkpt lat="48.63256" lon="-1.34414">
        <ele>17.517</ele>
        <time>2019-11-12T08:44:11.001Z</time>
      </trkpt>
      <trkpt lat="48.63221" lon="-1.34277">
        <ele>14.695</ele>
        <time>2019-11-12T08:44:44.001Z</time>
      </trkpt>
      <trkpt lat="48.63205" lon="-1.34132">
        <ele>16.938</ele>
        <time>2019-11-12T08:45:14.001Z</time>
      </trkpt>
      <trkpt lat="48.63216" lon="-1.3397">
        <ele>22.532</ele>
        <time>2019-11-12T08:45:47.001Z</time>
      </trkpt>
      <trkpt lat="48.63233" lon="-1.33807">
        <ele>23.094</ele>
        <time>2019-11-12T08:46:20.001Z</time>
      </trkpt>
      <trkpt lat="48.63245" lon="-1.33653">
        <ele>26.741</ele>
        <time>2019-11-12T08:46:50.001Z</time>
      </trkpt>
      <trkpt lat="48.63236" lon="-1.33471">
        <ele>19.727</ele>
        <time>2019-11-12T08:47:23.001Z</time>
      </trkpt>
      <trkpt lat="48.63202" lon="-1.33284">
        <ele>21.438</ele>
        <time>2019-11-12T08:47:59.001Z</time>
      </trkpt>
      <trkpt lat="48.63168" lon="-1.33133">
        <ele>20.678</ele>
        <time>2019-11-12T08:48:32.001Z</time>
      </trkpt>
      <trkpt lat="48.6313" lon="-1.32957">
        <ele>20.415</ele>
        <time>2019-11-12T08:49:05.001Z</time>
      </trkpt>
      <trkpt lat="48.6309" lon="-1.32764">
        <ele>21.995</ele>
        <time>2019-11-12T08:49:38.001Z</time>
      </trkpt>
      <trkpt lat="48.63049" lon="-1.32579">
        <ele>18.75</ele>
        <time>2019-11-12T08:50:08.001Z</time>
      </trkpt>
      <trkpt lat="48.6301" lon="-1.32391">
        <ele>22.352</ele>
        <time>2019-11-12T08:50:41.001Z</time>
      </trkpt>
      <trkpt lat="48.62974" lon="-1.32234">
        <ele>22.035</ele>
        <time>2019-11-12T08:51:17.001Z</time>
      </trkpt>
      <trkpt lat="48.6294" lon="-1.32066">
        <ele>19.109</ele>
        <time>2019-11-12T08:51:47.001Z</time>
      </trkpt>
      <trkpt lat="48.62902" lon="-1.3189">
        <ele>21.308</ele>
        <time>2019-11-12T08:52:20.001Z</time>
      </trkpt>
      <trkpt lat="48.62858" lon="-1.31687">
        <ele>20.935</ele>
        <time>2019-11-12T08:52:53.001Z</time>
      </trkpt>
      <trkpt lat="48.62811" lon="-1.31468">
        <ele>18.408</ele>
        <time>2019-11-12T08:53:23.001Z</time>
      </trkpt>
      <trkpt lat="48.62767" lon="-1.31247">
        <ele>20.474</ele>
        <time>2019-11-12T08:53:56.001Z</time>
      </trkpt>
      <trkpt lat="48.62719" lon="-1.31038">
        <ele>17.26</ele>
        <time>2019-11-12T08:54:32.001Z</time>
      </trkpt>
      <trkpt lat="48.62672" lon="-1.30826">
        <ele>16.075</ele>
        <time>2019-11-12T08:55:02Z</time>
      </trkpt>
      <trkpt lat="48.62621" lon="-1.30595">
        <ele>12.328</ele>
        <time>2019-11-12T08:55:35.001Z</time>
      </trkpt>
      <trkpt lat="48.62579" lon="-1.30391">
        <ele>11.198</ele>
        <time>2019-11-12T08:56:08.001Z</time>
      </trkpt>
      <trkpt lat="48.6254" lon="-1.3021">
        <ele>15.619</ele>
        <time>2019-11-12T08:56:38.001Z</time>
      </trkpt>
      <trkpt lat="48.62505" lon="-1.30044">
        <ele>18.484</ele>
        <time>2019-11-12T08:57:11.001Z</time>
      </trkpt>
      <trkpt lat="48.6247" lon="-1.29881">
        <ele>20.089</ele>
        <time>2019-11-12T08:57:44.001Z</time>
      </trkpt>
      <trkpt lat="48.62437" lon="-1.29732">
        <ele>23.955</ele>
        <time>2019-11-12T08:58:14.001Z</time>
      </trkpt>
      <trkpt lat="48.62395" lon="-1.29556">
        <ele>16.775</ele>
        <time>2019-11-12T08:58:47.001Z</time>
      </trkpt>
      <trkpt lat="48.62361" lon="-1.29373">
        <ele>18.164</ele>
        <time>2019-11-12T08:59:23.001Z</time>
      </trkpt>
      <trkpt lat="48.62341" lon="-1.29186">
        <ele>24.714</ele>
        <time>2019-11-12T08:59:53.001Z</time>
      </trkpt>
      <trkpt lat="48.62354" lon="-1.28969">
        <ele>26.218</ele>
        <time>2019-11-12T09:00:26.001Z</time>
      </trkpt>
      <trkpt lat="48.62385" lon="-1.28767">
        <ele>22.888</ele>
        <time>2019-11-12T09:00:56.001Z</time>
      </trkpt>
      <trkpt lat="48.62417" lon="-1.2853">
        <ele>19.464</ele>
        <time>2019-11-12T09:01:29.001Z</time>
      </trkpt>
      <trkpt lat="48.62469" lon="-1.28305">
        <ele>15.382</ele>
        <time>2019-11-12T09:02:02Z</time>
      </trkpt>
      <trkpt lat="48.62519" lon="-1.28186">
        <ele>20.283</ele>
        <time>2019-11-12T09:02:35.001Z</time>
      </trkpt>
      <trkpt lat="48.62613" lon="-1.28023">
        <ele>21.871</ele>
        <time>2019-11-12T09:03:08.001Z</time>
      </trkpt>
      <trkpt lat="48.62696" lon="-1.27886">
        <ele>19.298</ele>
        <time>2019-11-12T09:03:41.001Z</time>
      </trkpt>
      <trkpt lat="48.62763" lon="-1.27736">
        <ele>23.864</ele>
        <time>2019-11-12T09:04:11.001Z</time>
      </trkpt>
      <trkpt lat="48.62835" lon="-1.27538">
        <ele>16.502</ele>
        <time>2019-11-12T09:04:44.001Z</time>
      </trkpt>
      <trkpt lat="48.62879" lon="-1.27405">
        <ele>15.471</ele>
        <time>2019-11-12T09:05:20.001Z</time>
      </trkpt>
      <trkpt lat="48.62894" lon="-1.27354">
        <ele>18.526</ele>
        <time>2019-11-12T09:07:50.001Z</time>
      </trkpt>
      <trkpt lat="48.62954" lon="-1.27209">
        <ele>20.399</ele>
        <time>2019-11-12T09:08:23.001Z</time>
      </trkpt>
      <trkpt lat="48.63032" lon="-1.27065">
        <ele>26.643</ele>
        <time>2019-11-12T09:08:56.001Z</time>
      </trkpt>
      <trkpt lat="48.63109" lon="-1.26919">
        <ele>25.794</ele>
        <time>2019-11-12T09:09:26.001Z</time>
      </trkpt>
      <trkpt lat="48.63211" lon="-1.26782">
        <ele>23.612</ele>
        <time>2019-11-12T09:09:59.001Z</time>
      </trkpt>
      <trkpt lat="48.63341" lon="-1.26704">
        <ele>17.174</ele>
        <time>2019-11-12T09:10:32.001Z</time>
      </trkpt>
      <trkpt lat="48.63457" lon="-1.26654">
        <ele>16.332</ele>
        <time>2019-11-12T09:11:02Z</time>
      </trkpt>
      <trkpt lat="48.63586" lon="-1.26573">
        <ele>16.488</ele>
        <time>2019-11-12T09:11:35.001Z</time>
      </trkpt>
      <trkpt lat="48.63693" lon="-1.26474">
        <ele>19.966</ele>
        <time>2019-11-12T09:12:08.001Z</time>
      </trkpt>
      <trkpt lat="48.63807" lon="-1.26362">
        <ele>19.614</ele>
        <time>2019-11-12T09:12:38.001Z</time>
      </trkpt>
      <trkpt lat="48.63913" lon="-1.26259">
        <ele>19.106</ele>
        <time>2019-11-12T09:13:11.001Z</time>
      </trkpt>
      <trkpt lat="48.64015" lon="-1.26161">
        <ele>22.087</ele>
        <time>2019-11-12T09:13:44.001Z</time>
      </trkpt>
      <trkpt lat="48.64102" lon="-1.26081">
        <ele>23.686</ele>
        <time>2019-11-12T09:14:14.001Z</time>
      </trkpt>
      <trkpt lat="48.6419" lon="-1.25961">
        <ele>28.983</ele>
        <time>2019-11-12T09:14:47.001Z</time>
      </trkpt>
      <trkpt lat="48.6426" lon="-1.25785">
        <ele>32.288</ele>
        <time>2019-11-12T09:15:20.001Z</time>
      </trkpt>
      <trkpt lat="48.64301" lon="-1.25626">
        <ele>37.728</ele>
        <time>2019-11-12T09:15:50.001Z</time>
      </trkpt>
      <trkpt lat="48.6436" lon="-1.25397">
        <ele>33.977</ele>
        <time>2019-11-12T09:16:23.001Z</time>
      </trkpt>
      <trkpt lat="48.64418" lon="-1.2517">
        <ele>28.595</ele>
        <time>2019-11-12T09:16:56.001Z</time>
      </trkpt>
      <trkpt lat="48.64462" lon="-1.24987">
        <ele>25.879</ele>
        <time>2019-11-12T09:17:26.001Z</time>
      </trkpt>
      <trkpt lat="48.64502" lon="-1.24766">
        <ele>19.486</ele>
        <time>2019-11-12T09:17:59.001Z</time>
      </trkpt>
      <trkpt lat="48.64512" lon="-1.24739">
        <ele>22.44</ele>
        <time>2019-11-12T09:21:05.001Z</time>
      </trkpt>
      <trkpt lat="48.6451" lon="-1.24736">
        <ele>21.739</ele>
        <time>2019-11-12T09:25:02Z</time>
      </trkpt>
      <trkpt lat="48.6451" lon="-1.24736">
        <ele>21.739</ele>
        <time>2019-11-12T09:27:26.001Z</time>
      </trkpt>
      <trkpt lat="48.64509" lon="-1.24739">
        <ele>21.722</ele>
        <time>2019-11-12T09:32:47.001Z</time>
      </trkpt>
      <trkpt lat="48.64517" lon="-1.24701">
        <ele>23.637</ele>
        <time>2019-11-12T09:35:02Z</time>
      </trkpt>
      <trkpt lat="48.64531" lon="-1.24529">
        <ele>25.032</ele>
        <time>2019-11-12T09:35:35.001Z</time>
      </trkpt>
      <trkpt lat="48.64531" lon="-1.2437">
        <ele>25.694</ele>
        <time>2019-11-12T09:36:05.001Z</time>
      </trkpt>
      <trkpt lat="48.64514" lon="-1.24171">
        <ele>30.75</ele>
        <time>2019-11-12T09:36:38.001Z</time>
      </trkpt>
      <trkpt lat="48.64503" lon="-1.23984">
        <ele>29.231</ele>
        <time>2019-11-12T09:37:11.001Z</time>
      </trkpt>
      <trkpt lat="48.64489" lon="-1.23805">
        <ele>31.402</ele>
        <time>2019-11-12T09:37:41.001Z</time>
      </trkpt>
      <trkpt lat="48.64477" lon="-1.23615">
        <ele>27.101</ele>
        <time>2019-11-12T09:38:14.001Z</time>
      </trkpt>
      <trkpt lat="48.64466" lon="-1.23426">
        <ele>27.356</ele>
        <time>2019-11-12T09:38:47.001Z</time>
      </trkpt>
      <trkpt lat="48.64431" lon="-1.23266">
        <ele>27.175</ele>
        <time>2019-11-12T09:39:17.001Z</time>
      </trkpt>
      <trkpt lat="48.6436" lon="-1.23085">
        <ele>30.331</ele>
        <time>2019-11-12T09:39:50.001Z</time>
      </trkpt>
      <trkpt lat="48.64286" lon="-1.2295">
        <ele>30.388</ele>
        <time>2019-11-12T09:40:23.001Z</time>
      </trkpt>
      <trkpt lat="48.64216" lon="-1.22821">
        <ele>28.609</ele>
        <time>2019-11-12T09:40:53.001Z</time>
      </trkpt>
      <trkpt lat="48.64133" lon="-1.22672">
        <ele>33.286</ele>
        <time>2019-11-12T09:41:26.001Z</time>
      </trkpt>
      <trkpt lat="48.64084" lon="-1.22583">
        <ele>27.522</ele>
        <time>2019-11-12T09:44:08.001Z</time>
      </trkpt>
      <trkpt lat="48.64023" lon="-1.22469">
        <ele>23.722</ele>
        <time>2019-11-12T09:44:38.001Z</time>
      </trkpt>
      <trkpt lat="48.63949" lon="-1.223">
        <ele>29.157</ele>
        <time>2019-11-12T09:45:11.001Z</time>
      </trkpt>
      <trkpt lat="48.63899" lon="-1.22136">
        <ele>34.943</ele>
        <time>2019-11-12T09:45:44.001Z</time>
      </trkpt>
      <trkpt lat="48.6385" lon="-1.21977">
        <ele>37.989</ele>
        <time>2019-11-12T09:46:14.001Z</time>
      </trkpt>
      <trkpt lat="48.63781" lon="-1.2178">
        <ele>41.859</ele>
        <time>2019-11-12T09:46:47.001Z</time>
      </trkpt>
      <trkpt lat="48.63723" lon="-1.21591">
        <ele>38.905</ele>
        <time>2019-11-12T09:47:20.001Z</time>
      </trkpt>
      <trkpt lat="48.63684" lon="-1.21481">
        <ele>35.85</ele>
        <time>2019-11-12T09:47:50.001Z</time>
      </trkpt>
      <trkpt lat="48.63643" lon="-1.21347">
        <ele>40.562</ele>
        <time>2019-11-12T09:48:23.001Z</time>
      </trkpt>
      <trkpt lat="48.63614" lon="-1.21152">
        <ele>43.555</ele>
        <time>2019-11-12T09:48:56.001Z</time>
      </trkpt>
      <trkpt lat="48.63608" lon="-1.20988">
        <ele>38.927</ele>
        <time>2019-11-12T09:49:26.001Z</time>
      </trkpt>
      <trkpt lat="48.63612" lon="-1.2082">
        <ele>37.567</ele>
        <time>2019-11-12T09:49:59.001Z</time>
      </trkpt>
      <trkpt lat="48.63621" lon="-1.20687">
        <ele>42.047</ele>
        <time>2019-11-12T09:50:32.001Z</time>
      </trkpt>
      <trkpt lat="48.6364" lon="-1.20548">
        <ele>47.046</ele>
        <time>2019-11-12T09:51:02Z</time>
      </trkpt>
      <trkpt lat="48.6366" lon="-1.20366">
        <ele>47.324</ele>
        <time>2019-11-12T09:51:35.001Z</time>
      </trkpt>
      <trkpt lat="48.63671" lon="-1.20211">
        <ele>43.314</ele>
        <time>2019-11-12T09:52:11.001Z</time>
      </trkpt>
      <trkpt lat="48.63694" lon="-1.20057">
        <ele>48.452</ele>
        <time>2019-11-12T09:52:41.001Z</time>
      </trkpt>
      <trkpt lat="48.63714" lon="-1.19881">
        <ele>48.197</ele>
        <time>2019-11-12T09:53:14.001Z</time>
      </trkpt>
      <trkpt lat="48.63732" lon="-1.19711">
        <ele>50.001</ele>
        <time>2019-11-12T09:53:47.001Z</time>
      </trkpt>
      <trkpt lat="48.63736" lon="-1.19562">
        <ele>52.972</ele>
        <time>2019-11-12T09:54:17.001Z</time>
      </trkpt>
      <trkpt lat="48.63724" lon="-1.19395">
        <ele>56.865</ele>
        <time>2019-11-12T09:54:50.001Z</time>
      </trkpt>
      <trkpt lat="48.63711" lon="-1.19259">
        <ele>50.743</ele>
        <time>2019-11-12T09:55:23.001Z</time>
      </trkpt>
      <trkpt lat="48.63694" lon="-1.19171">
        <ele>53.73</ele>
        <time>2019-11-12T09:55:56.001Z</time>
      </trkpt>
      <trkpt lat="48.63668" lon="-1.19031">
        <ele>56.295</ele>
        <time>2019-11-12T09:56:29.001Z</time>
      </trkpt>
      <trkpt lat="48.63637" lon="-1.18893">
        <ele>55.666</ele>
        <time>2019-11-12T09:56:59.001Z</time>
      </trkpt>
      <trkpt lat="48.63593" lon="-1.1875">
        <ele>56.079</ele>
        <time>2019-11-12T09:57:32.001Z</time>
      </trkpt>
      <trkpt lat="48.63537" lon="-1.18624">
        <ele>50.596</ele>
        <time>2019-11-12T09:58:05.001Z</time>
      </trkpt>
      <trkpt lat="48.63487" lon="-1.18517">
        <ele>54.742</ele>
        <time>2019-11-12T09:58:35.001Z</time>
      </trkpt>
      <trkpt lat="48.63416" lon="-1.18402">
        <ele>61.778</ele>
        <time>2019-11-12T09:59:08.001Z</time>
      </trkpt>
      <trkpt lat="48.63343" lon="-1.18282">
        <ele>63.715</ele>
        <time>2019-11-12T09:59:41.001Z</time>
      </trkpt>
      <trkpt lat="48.63274" lon="-1.18177">
        <ele>66.856</ele>
        <time>2019-11-12T10:00:11.001Z</time>
      </trkpt>
      <trkpt lat="48.63199" lon="-1.18062">
        <ele>66.484</ele>
        <time>2019-11-12T10:00:44.001Z</time>
      </trkpt>
      <trkpt lat="48.63121" lon="-1.17964">
        <ele>68.997</ele>
        <time>2019-11-12T10:01:17.001Z</time>
      </trkpt>
      <trkpt lat="48.63048" lon="-1.17888">
        <ele>69.661</ele>
        <time>2019-11-12T10:01:47.001Z</time>
      </trkpt>
      <trkpt lat="48.62967" lon="-1.17826">
        <ele>73.149</ele>
        <time>2019-11-12T10:02:20.001Z</time>
      </trkpt>
      <trkpt lat="48.62873" lon="-1.17765">
        <ele>77.046</ele>
        <time>2019-11-12T10:02:53.001Z</time>
      </trkpt>
      <trkpt lat="48.6278" lon="-1.17708">
        <ele>76.97</ele>
        <time>2019-11-12T10:03:23.001Z</time>
      </trkpt>
      <trkpt lat="48.62689" lon="-1.17654">
        <ele>79.054</ele>
        <time>2019-11-12T10:03:56.001Z</time>
      </trkpt>
      <trkpt lat="48.62603" lon="-1.17603">
        <ele>83.086</ele>
        <time>2019-11-12T10:04:29.001Z</time>
      </trkpt>
      <trkpt lat="48.62518" lon="-1.1755">
        <ele>84.29</ele>
        <time>2019-11-12T10:04:59.001Z</time>
      </trkpt>
      <trkpt lat="48.62426" lon="-1.17478">
        <ele>82.188</ele>
        <time>2019-11-12T10:05:32.001Z</time>
      </trkpt>
      <trkpt lat="48.62347" lon="-1.17386">
        <ele>83.436</ele>
        <time>2019-11-12T10:06:05.001Z</time>
      </trkpt>
      <trkpt lat="48.62274" lon="-1.17274">
        <ele>80.798</ele>
        <time>2019-11-12T10:06:35.001Z</time>
      </trkpt>
      <trkpt lat="48.62215" lon="-1.17156">
        <ele>80.886</ele>
        <time>2019-11-12T10:07:08.001Z</time>
      </trkpt>
      <trkpt lat="48.62166" lon="-1.17028">
        <ele>87.961</ele>
        <time>2019-11-12T10:07:41.001Z</time>
      </trkpt>
      <trkpt lat="48.62134" lon="-1.16897">
        <ele>88.95</ele>
        <time>2019-11-12T10:08:11.001Z</time>
      </trkpt>
      <trkpt lat="48.62107" lon="-1.16747">
        <ele>91.95</ele>
        <time>2019-11-12T10:08:44.001Z</time>
      </trkpt>
      <trkpt lat="48.62084" lon="-1.16578">
        <ele>95.264</ele>
        <time>2019-11-12T10:09:17.001Z</time>
      </trkpt>
      <trkpt lat="48.62062" lon="-1.16445">
        <ele>99.922</ele>
        <time>2019-11-12T10:09:47.001Z</time>
      </trkpt>
      <trkpt lat="48.62046" lon="-1.16294">
        <ele>99.894</ele>
        <time>2019-11-12T10:10:20.001Z</time>
      </trkpt>
      <trkpt lat="48.62028" lon="-1.16149">
        <ele>100.136</ele>
        <time>2019-11-12T10:10:53.001Z</time>
      </trkpt>
      <trkpt lat="48.62008" lon="-1.16021">
        <ele>97.614</ele>
        <time>2019-11-12T10:11:23.001Z</time>
      </trkpt>
      <trkpt lat="48.61979" lon="-1.15872">
        <ele>99.753</ele>
        <time>2019-11-12T10:11:56.001Z</time>
      </trkpt>
      <trkpt lat="48.61939" lon="-1.15721">
        <ele>100.006</ele>
        <time>2019-11-12T10:12:29.001Z</time>
      </trkpt>
      <trkpt lat="48.61895" lon="-1.15609">
        <ele>107.97</ele>
        <time>2019-11-12T10:12:59.001Z</time>
      </trkpt>
      <trkpt lat="48.61838" lon="-1.15486">
        <ele>117.888</ele>
        <time>2019-11-12T10:13:32.001Z</time>
      </trkpt>
      <trkpt lat="48.61771" lon="-1.15374">
        <ele>119.14</ele>
        <time>2019-11-12T10:14:05.001Z</time>
      </trkpt>
      <trkpt lat="48.61708" lon="-1.15287">
        <ele>122.5</ele>
        <time>2019-11-12T10:14:35.001Z</time>
      </trkpt>
      <trkpt lat="48.61639" lon="-1.15197">
        <ele>128.237</ele>
        <time>2019-11-12T10:15:08.001Z</time>
      </trkpt>
      <trkpt lat="48.61563" lon="-1.15095">
        <ele>123.878</ele>
        <time>2019-11-12T10:15:38.001Z</time>
      </trkpt>
      <trkpt lat="48.61487" lon="-1.14993">
        <ele>117.092</ele>
        <time>2019-11-12T10:16:11.001Z</time>
      </trkpt>
      <trkpt lat="48.61394" lon="-1.14917">
        <ele>114.945</ele>
        <time>2019-11-12T10:16:44.001Z</time>
      </trkpt>
      <trkpt lat="48.61323" lon="-1.14793">
        <ele>116.32</ele>
        <time>2019-11-12T10:17:14.001Z</time>
      </trkpt>
      <trkpt lat="48.61216" lon="-1.14644">
        <ele>119.738</ele>
        <time>2019-11-12T10:17:47.001Z</time>
      </trkpt>
      <trkpt lat="48.61127" lon="-1.14527">
        <ele>118.67</ele>
        <time>2019-11-12T10:18:20.001Z</time>
      </trkpt>
      <trkpt lat="48.61021" lon="-1.14387">
        <ele>114.756</ele>
        <time>2019-11-12T10:18:50.001Z</time>
      </trkpt>
      <trkpt lat="48.60954" lon="-1.14261">
        <ele>113.384</ele>
        <time>2019-11-12T10:19:23.001Z</time>
      </trkpt>
      <trkpt lat="48.60874" lon="-1.14097">
        <ele>107.508</ele>
        <time>2019-11-12T10:19:56.001Z</time>
      </trkpt>
      <trkpt lat="48.6081" lon="-1.13887">
        <ele>107.993</ele>
        <time>2019-11-12T10:20:26.001Z</time>
      </trkpt>
      <trkpt lat="48.6075" lon="-1.13667">
        <ele>106.348</ele>
        <time>2019-11-12T10:20:59.001Z</time>
      </trkpt>
      <trkpt lat="48.60682" lon="-1.13441">
        <ele>106.573</ele>
        <time>2019-11-12T10:21:32.001Z</time>
      </trkpt>
      <trkpt lat="48.60643" lon="-1.13279">
        <ele>105.958</ele>
        <time>2019-11-12T10:22:05.001Z</time>
      </trkpt>
      <trkpt lat="48.60581" lon="-1.13107">
        <ele>107.195</ele>
        <time>2019-11-12T10:22:38.001Z</time>
      </trkpt>
      <trkpt lat="48.6051" lon="-1.1295">
        <ele>109.362</ele>
        <time>2019-11-12T10:23:11.001Z</time>
      </trkpt>
      <trkpt lat="48.60441" lon="-1.12838">
        <ele>115.761</ele>
        <time>2019-11-12T10:23:41.001Z</time>
      </trkpt>
      <trkpt lat="48.60369" lon="-1.12742">
        <ele>120.652</ele>
        <time>2019-11-12T10:24:14.001Z</time>
      </trkpt>
      <trkpt lat="48.60335" lon="-1.127">
        <ele>118.184</ele>
        <time>2019-11-12T10:29:02Z</time>
      </trkpt>
      <trkpt lat="48.60336" lon="-1.12705">
        <ele>119.979</ele>
        <time>2019-11-12T10:30:44.001Z</time>
      </trkpt>
      <trkpt lat="48.60339" lon="-1.12705">
        <ele>118.537</ele>
        <time>2019-11-12T10:32:20.001Z</time>
      </trkpt>
      <trkpt lat="48.60338" lon="-1.12698">
        <ele>116.547</ele>
        <time>2019-11-12T10:33:44.001Z</time>
      </trkpt>
      <trkpt lat="48.60343" lon="-1.12711">
        <ele>112.842</ele>
        <time>2019-11-12T10:35:02Z</time>
      </trkpt>
      <trkpt lat="48.60344" lon="-1.12708">
        <ele>108.955</ele>
        <time>2019-11-12T10:37:08.001Z</time>
      </trkpt>
      <trkpt lat="48.60283" lon="-1.12648">
        <ele>113.605</ele>
        <time>2019-11-12T10:38:02Z</time>
      </trkpt>
      <trkpt lat="48.60212" lon="-1.12577">
        <ele>115.09</ele>
        <time>2019-11-12T10:38:32.001Z</time>
      </trkpt>
      <trkpt lat="48.60134" lon="-1.12496">
        <ele>118.094</ele>
        <time>2019-11-12T10:39:05.001Z</time>
      </trkpt>
      <trkpt lat="48.60052" lon="-1.1241">
        <ele>121.549</ele>
        <time>2019-11-12T10:39:38.001Z</time>
      </trkpt>
      <trkpt lat="48.59966" lon="-1.12321">
        <ele>111.465</ele>
        <time>2019-11-12T10:40:08.001Z</time>
      </trkpt>
      <trkpt lat="48.59849" lon="-1.12203">
        <ele>109.376</ele>
        <time>2019-11-12T10:40:41.001Z</time>
      </trkpt>
      <trkpt lat="48.59721" lon="-1.12067">
        <ele>108.997</ele>
        <time>2019-11-12T10:41:14.001Z</time>
      </trkpt>
      <trkpt lat="48.59578" lon="-1.11924">
        <ele>115.693</ele>
        <time>2019-11-12T10:41:44.001Z</time>
      </trkpt>
      <trkpt lat="48.5943" lon="-1.11768">
        <ele>105.912</ele>
        <time>2019-11-12T10:42:17.001Z</time>
      </trkpt>
      <trkpt lat="48.59295" lon="-1.11629">
        <ele>99.528</ele>
        <time>2019-11-12T10:42:50.001Z</time>
      </trkpt>
      <trkpt lat="48.59171" lon="-1.115">
        <ele>98.202</ele>
        <time>2019-11-12T10:43:20.001Z</time>
      </trkpt>
      <trkpt lat="48.5902" lon="-1.11345">
        <ele>100.341</ele>
        <time>2019-11-12T10:43:53.001Z</time>
      </trkpt>
      <trkpt lat="48.5885" lon="-1.11168">
        <ele>94.487</ele>
        <time>2019-11-12T10:44:26.001Z</time>
      </trkpt>
      <trkpt lat="48.58746" lon="-1.11057">
        <ele>92.197</ele>
        <time>2019-11-12T10:44:56.001Z</time>
      </trkpt>
      <trkpt lat="48.58664" lon="-1.10929">
        <ele>95.378</ele>
        <time>2019-11-12T10:45:29.001Z</time>
      </trkpt>
      <trkpt lat="48.58597" lon="-1.1074">
        <ele>95.814</ele>
        <time>2019-11-12T10:45:59.001Z</time>
      </trkpt>
      <trkpt lat="48.58575" lon="-1.1046">
        <ele>92.053</ele>
        <time>2019-11-12T10:46:32.001Z</time>
      </trkpt>
      <trkpt lat="48.58589" lon="-1.10155">
        <ele>85.421</ele>
        <time>2019-11-12T10:47:05.001Z</time>
      </trkpt>
      <trkpt lat="48.58594" lon="-1.09987">
        <ele>84.536</ele>
        <time>2019-11-12T10:47:35.001Z</time>
      </trkpt>
      <trkpt lat="48.58598" lon="-1.09921">
        <ele>81.716</ele>
        <time>2019-11-12T10:55:26.001Z</time>
      </trkpt>
      <trkpt lat="48.58601" lon="-1.09699">
        <ele>85.403</ele>
        <time>2019-11-12T10:55:59.001Z</time>
      </trkpt>
      <trkpt lat="48.58612" lon="-1.09447">
        <ele>79.437</ele>
        <time>2019-11-12T10:56:29.001Z</time>
      </trkpt>
      <trkpt lat="48.58618" lon="-1.09165">
        <ele>74.316</ele>
        <time>2019-11-12T10:57:02Z</time>
      </trkpt>
      <trkpt lat="48.58609" lon="-1.09006">
        <ele>74.976</ele>
        <time>2019-11-12T10:57:35.001Z</time>
      </trkpt>
      <trkpt lat="48.58597" lon="-1.08946">
        <ele>78.015</ele>
        <time>2019-11-12T11:02:41.001Z</time>
      </trkpt>
      <trkpt lat="48.58567" lon="-1.08741">
        <ele>79.988</ele>
        <time>2019-11-12T11:03:14.001Z</time>
      </trkpt>
      <trkpt lat="48.58556" lon="-1.08551">
        <ele>87.324</ele>
        <time>2019-11-12T11:03:47.001Z</time>
      </trkpt>
      <trkpt lat="48.58521" lon="-1.08401">
        <ele>77.028</ele>
        <time>2019-11-12T11:04:17.001Z</time>
      </trkpt>
      <trkpt lat="48.58525" lon="-1.0821">
        <ele>76.191</ele>
        <time>2019-11-12T11:04:50.001Z</time>
      </trkpt>
      <trkpt lat="48.58555" lon="-1.08036">
        <ele>75.329</ele>
        <time>2019-11-12T11:05:23.001Z</time>
      </trkpt>
      <trkpt lat="48.58612" lon="-1.07888">
        <ele>74.585</ele>
        <time>2019-11-12T11:05:53.001Z</time>
      </trkpt>
      <trkpt lat="48.5869" lon="-1.0775">
        <ele>83.525</ele>
        <time>2019-11-12T11:06:26.001Z</time>
      </trkpt>
      <trkpt lat="48.58755" lon="-1.07631">
        <ele>85.481</ele>
        <time>2019-11-12T11:06:59.001Z</time>
      </trkpt>
      <trkpt lat="48.58821" lon="-1.07508">
        <ele>81.701</ele>
        <time>2019-11-12T11:07:29.001Z</time>
      </trkpt>
      <trkpt lat="48.58881" lon="-1.07388">
        <ele>86.16</ele>
        <time>2019-11-12T11:08:02Z</time>
      </trkpt>
      <trkpt lat="48.58954" lon="-1.07262">
        <ele>97.583</ele>
        <time>2019-11-12T11:08:35.001Z</time>
      </trkpt>
      <trkpt lat="48.59018" lon="-1.07143">
        <ele>106.197</ele>
        <time>2019-11-12T11:09:05.001Z</time>
      </trkpt>
      <trkpt lat="48.59084" lon="-1.07014">
        <ele>105.762</ele>
        <time>2019-11-12T11:09:38.001Z</time>
      </trkpt>
      <trkpt lat="48.59154" lon="-1.06888">
        <ele>104.252</ele>
        <time>2019-11-12T11:10:11.001Z</time>
      </trkpt>
      <trkpt lat="48.59203" lon="-1.06774">
        <ele>92.275</ele>
        <time>2019-11-12T11:10:41.001Z</time>
      </trkpt>
      <trkpt lat="48.59263" lon="-1.06656">
        <ele>92.845</ele>
        <time>2019-11-12T11:11:14.001Z</time>
      </trkpt>
      <trkpt lat="48.5933" lon="-1.06531">
        <ele>95.04</ele>
        <time>2019-11-12T11:11:47.001Z</time>
      </trkpt>
      <trkpt lat="48.59406" lon="-1.06395">
        <ele>97.43</ele>
        <time>2019-11-12T11:12:17.001Z</time>
      </trkpt>
      <trkpt lat="48.595" lon="-1.06212">
        <ele>102.321</ele>
        <time>2019-11-12T11:12:50.001Z</time>
      </trkpt>
      <trkpt lat="48.59621" lon="-1.05987">
        <ele>92.304</ele>
        <time>2019-11-12T11:13:23.001Z</time>
      </trkpt>
      <trkpt lat="48.59699" lon="-1.0583">
        <ele>90.607</ele>
        <time>2019-11-12T11:13:53.001Z</time>
      </trkpt>
      <trkpt lat="48.59774" lon="-1.05688">
        <ele>93.294</ele>
        <time>2019-11-12T11:14:26.001Z</time>
      </trkpt>
      <trkpt lat="48.59831" lon="-1.05578">
        <ele>95.801</ele>
        <time>2019-11-12T11:14:59.001Z</time>
      </trkpt>
      <trkpt lat="48.59899" lon="-1.05449">
        <ele>101.06</ele>
        <time>2019-11-12T11:15:29.001Z</time>
      </trkpt>
      <trkpt lat="48.59988" lon="-1.05283">
        <ele>109.804</ele>
        <time>2019-11-12T11:16:02Z</time>
      </trkpt>
      <trkpt lat="48.60087" lon="-1.05099">
        <ele>97.963</ele>
        <time>2019-11-12T11:16:32.001Z</time>
      </trkpt>
      <trkpt lat="48.60203" lon="-1.04871">
        <ele>92.801</ele>
        <time>2019-11-12T11:17:05.001Z</time>
      </trkpt>
      <trkpt lat="48.60285" lon="-1.04715">
        <ele>90.55</ele>
        <time>2019-11-12T11:17:38.001Z</time>
      </trkpt>
      <trkpt lat="48.60354" lon="-1.04579">
        <ele>89.256</ele>
        <time>2019-11-12T11:18:08.001Z</time>
      </trkpt>
      <trkpt lat="48.60422" lon="-1.0439">
        <ele>92.432</ele>
        <time>2019-11-12T11:18:41.001Z</time>
      </trkpt>
      <trkpt lat="48.60474" lon="-1.04192">
        <ele>92.198</ele>
        <time>2019-11-12T11:19:14.001Z</time>
      </trkpt>
      <trkpt lat="48.60494" lon="-1.04039">
        <ele>97.481</ele>
        <time>2019-11-12T11:19:44.001Z</time>
      </trkpt>
      <trkpt lat="48.60513" lon="-1.03854">
        <ele>100.069</ele>
        <time>2019-11-12T11:20:17.001Z</time>
      </trkpt>
      <trkpt lat="48.6054" lon="-1.03698">
        <ele>108.075</ele>
        <time>2019-11-12T11:20:50.001Z</time>
      </trkpt>
      <trkpt lat="48.60572" lon="-1.03553">
        <ele>112.405</ele>
        <time>2019-11-12T11:21:20.001Z</time>
      </trkpt>
      <trkpt lat="48.60624" lon="-1.03407">
        <ele>108.966</ele>
        <time>2019-11-12T11:21:53.001Z</time>
      </trkpt>
      <trkpt lat="48.60681" lon="-1.03268">
        <ele>111.884</ele>
        <time>2019-11-12T11:22:26.001Z</time>
      </trkpt>
      <trkpt lat="48.60735" lon="-1.03146">
        <ele>114.453</ele>
        <time>2019-11-12T11:22:56.001Z</time>
      </trkpt>
      <trkpt lat="48.60795" lon="-1.02998">
        <ele>117.455</ele>
        <time>2019-11-12T11:23:29.001Z</time>
      </trkpt>
      <trkpt lat="48.60862" lon="-1.02852">
        <ele>125.715</ele>
        <time>2019-11-12T11:24:02Z</time>
      </trkpt>
      <trkpt lat="48.60931" lon="-1.02692">
        <ele>127.12</ele>
        <time>2019-11-12T11:24:32.001Z</time>
      </trkpt>
      <trkpt lat="48.61018" lon="-1.02462">
        <ele>115.079</ele>
        <time>2019-11-12T11:25:05.001Z</time>
      </trkpt>
      <trkpt lat="48.6112" lon="-1.0222">
        <ele>102.824</ele>
        <time>2019-11-12T11:25:38.001Z</time>
      </trkpt>
      <trkpt lat="48.61187" lon="-1.0198">
        <ele>99.847</ele>
        <time>2019-11-12T11:26:08.001Z</time>
      </trkpt>
      <trkpt lat="48.61216" lon="-1.0182">
        <ele>102.999</ele>
        <time>2019-11-12T11:26:44.001Z</time>
      </trkpt>
      <trkpt lat="48.6122" lon="-1.01655">
        <ele>108.401</ele>
        <time>2019-11-12T11:27:17.001Z</time>
      </trkpt>
      <trkpt lat="48.61229" lon="-1.0145">
        <ele>104.805</ele>
        <time>2019-11-12T11:27:47.001Z</time>
      </trkpt>
      <trkpt lat="48.61281" lon="-1.01159">
        <ele>109.091</ele>
        <time>2019-11-12T11:28:20.001Z</time>
      </trkpt>
      <trkpt lat="48.61372" lon="-1.00892">
        <ele>94.456</ele>
        <time>2019-11-12T11:28:53.001Z</time>
      </trkpt>
      <trkpt lat="48.61502" lon="-1.00694">
        <ele>91.593</ele>
        <time>2019-11-12T11:29:23.001Z</time>
      </trkpt>
      <trkpt lat="48.61631" lon="-1.00507">
        <ele>92.011</ele>
        <time>2019-11-12T11:29:56.001Z</time>
      </trkpt>
      <trkpt lat="48.61727" lon="-1.00365">
        <ele>90.941</ele>
        <time>2019-11-12T11:30:32.001Z</time>
      </trkpt>
      <trkpt lat="48.61801" lon="-1.00254">
        <ele>93.33</ele>
        <time>2019-11-12T11:31:02Z</time>
      </trkpt>
      <trkpt lat="48.61885" lon="-1.00085">
        <ele>95.172</ele>
        <time>2019-11-12T11:31:35.001Z</time>
      </trkpt>
      <trkpt lat="48.61928" lon="-0.99911">
        <ele>92.496</ele>
        <time>2019-11-12T11:32:08.001Z</time>
      </trkpt>
      <trkpt lat="48.61958" lon="-0.99757">
        <ele>95.114</ele>
        <time>2019-11-12T11:32:38.001Z</time>
      </trkpt>
      <trkpt lat="48.6198" lon="-0.99604">
        <ele>104.108</ele>
        <time>2019-11-12T11:33:11.001Z</time>
      </trkpt>
      <trkpt lat="48.62006" lon="-0.99442">
        <ele>107.597</ele>
        <time>2019-11-12T11:33:44.001Z</time>
      </trkpt>
      <trkpt lat="48.62017" lon="-0.99368">
        <ele>113.607</ele>
        <time>2019-11-12T11:37:14.001Z</time>
      </trkpt>
      <trkpt lat="48.62032" lon="-0.99225">
        <ele>103.547</ele>
        <time>2019-11-12T11:37:47.001Z</time>
      </trkpt>
      <trkpt lat="48.62051" lon="-0.99091">
        <ele>97.635</ele>
        <time>2019-11-12T11:38:17.001Z</time>
      </trkpt>
      <trkpt lat="48.62075" lon="-0.98926">
        <ele>99.736</ele>
        <time>2019-11-12T11:38:50.001Z</time>
      </trkpt>
      <trkpt lat="48.62098" lon="-0.98766">
        <ele>100.359</ele>
        <time>2019-11-12T11:39:23.001Z</time>
      </trkpt>
      <trkpt lat="48.62118" lon="-0.98626">
        <ele>104.284</ele>
        <time>2019-11-12T11:39:56.001Z</time>
      </trkpt>
      <trkpt lat="48.62136" lon="-0.98497">
        <ele>105.249</ele>
        <time>2019-11-12T11:40:29.001Z</time>
      </trkpt>
      <trkpt lat="48.62157" lon="-0.98352">
        <ele>108.803</ele>
        <time>2019-11-12T11:41:02Z</time>
      </trkpt>
      <trkpt lat="48.62183" lon="-0.98222">
        <ele>110.929</ele>
        <time>2019-11-12T11:41:32.001Z</time>
      </trkpt>
      <trkpt lat="48.62224" lon="-0.98077">
        <ele>109.354</ele>
        <time>2019-11-12T11:42:05.001Z</time>
      </trkpt>
      <trkpt lat="48.62281" lon="-0.97935">
        <ele>108.737</ele>
        <time>2019-11-12T11:42:38.001Z</time>
      </trkpt>
      <trkpt lat="48.62333" lon="-0.97806">
        <ele>109.893</ele>
        <time>2019-11-12T11:43:08.001Z</time>
      </trkpt>
      <trkpt lat="48.62386" lon="-0.97678">
        <ele>114.378</ele>
        <time>2019-11-12T11:43:41.001Z</time>
      </trkpt>
      <trkpt lat="48.62437" lon="-0.97552">
        <ele>122.492</ele>
        <time>2019-11-12T11:44:14.001Z</time>
      </trkpt>
      <trkpt lat="48.62472" lon="-0.97426">
        <ele>121.575</ele>
        <time>2019-11-12T11:44:44.001Z</time>
      </trkpt>
      <trkpt lat="48.62501" lon="-0.97281">
        <ele>123.501</ele>
        <time>2019-11-12T11:45:17.001Z</time>
      </trkpt>
      <trkpt lat="48.62527" lon="-0.97122">
        <ele>124.77</ele>
        <time>2019-11-12T11:45:50.001Z</time>
      </trkpt>
      <trkpt lat="48.62535" lon="-0.96986">
        <ele>125.041</ele>
        <time>2019-11-12T11:46:20.001Z</time>
      </trkpt>
      <trkpt lat="48.6255" lon="-0.96834">
        <ele>129.245</ele>
        <time>2019-11-12T11:46:53.001Z</time>
      </trkpt>
      <trkpt lat="48.62569" lon="-0.96664">
        <ele>128.898</ele>
        <time>2019-11-12T11:47:26.001Z</time>
      </trkpt>
      <trkpt lat="48.62581" lon="-0.96508">
        <ele>129.524</ele>
        <time>2019-11-12T11:47:56.001Z</time>
      </trkpt>
      <trkpt lat="48.62602" lon="-0.96301">
        <ele>129.187</ele>
        <time>2019-11-12T11:48:29.001Z</time>
      </trkpt>
      <trkpt lat="48.62624" lon="-0.96093">
        <ele>128.394</ele>
        <time>2019-11-12T11:49:02Z</time>
      </trkpt>
      <trkpt lat="48.62662" lon="-0.96034">
        <ele>129.449</ele>
        <time>2019-11-12T11:49:32.001Z</time>
      </trkpt>
      <trkpt lat="48.62753" lon="-0.96043">
        <ele>130.454</ele>
        <time>2019-11-12T11:50:05.001Z</time>
      </trkpt>
      <trkpt lat="48.62844" lon="-0.95976">
        <ele>134.949</ele>
        <time>2019-11-12T11:50:38.001Z</time>
      </trkpt>
      <trkpt lat="48.62929" lon="-0.95948">
        <ele>136.746</ele>
        <time>2019-11-12T11:51:08.001Z</time>
      </trkpt>
      <trkpt lat="48.63026" lon="-0.95952">
        <ele>135.513</ele>
        <time>2019-11-12T11:51:41.001Z</time>
      </trkpt>
      <trkpt lat="48.63112" lon="-0.95993">
        <ele>141.158</ele>
        <time>2019-11-12T11:52:14.001Z</time>
      </trkpt>
      <trkpt lat="48.63188" lon="-0.96047">
        <ele>142.946</ele>
        <time>2019-11-12T11:52:44.001Z</time>
      </trkpt>
      <trkpt lat="48.6327" lon="-0.96107">
        <ele>146.926</ele>
        <time>2019-11-12T11:53:17.001Z</time>
      </trkpt>
      <trkpt lat="48.63348" lon="-0.96181">
        <ele>146.259</ele>
        <time>2019-11-12T11:53:50.001Z</time>
      </trkpt>
      <trkpt lat="48.63378" lon="-0.96254">
        <ele>151.172</ele>
        <time>2019-11-12T11:54:20.001Z</time>
      </trkpt>
      <trkpt lat="48.63336" lon="-0.96371">
        <ele>151.223</ele>
        <time>2019-11-12T11:54:53.001Z</time>
      </trkpt>
      <trkpt lat="48.6341" lon="-0.96375">
        <ele>151.009</ele>
        <time>2019-11-12T11:55:26.001Z</time>
      </trkpt>
      <trkpt lat="48.63483" lon="-0.96321">
        <ele>150.903</ele>
        <time>2019-11-12T11:55:56.001Z</time>
      </trkpt>
      <trkpt lat="48.63579" lon="-0.96293">
        <ele>152.388</ele>
        <time>2019-11-12T11:56:29.001Z</time>
      </trkpt>
      <trkpt lat="48.63667" lon="-0.96285">
        <ele>155.908</ele>
        <time>2019-11-12T11:56:59.001Z</time>
      </trkpt>
      <trkpt lat="48.63764" lon="-0.96274">
        <ele>155.737</ele>
        <time>2019-11-12T11:57:32.001Z</time>
      </trkpt>
      <trkpt lat="48.6383" lon="-0.96227">
        <ele>161.922</ele>
        <time>2019-11-12T11:58:05.001Z</time>
      </trkpt>
      <trkpt lat="48.63852" lon="-0.96089">
        <ele>163.357</ele>
        <time>2019-11-12T11:58:35.001Z</time>
      </trkpt>
      <trkpt lat="48.63938" lon="-0.96007">
        <ele>164.63</ele>
        <time>2019-11-12T11:59:08.001Z</time>
      </trkpt>
      <trkpt lat="48.64005" lon="-0.95911">
        <ele>167.805</ele>
        <time>2019-11-12T11:59:41.001Z</time>
      </trkpt>
      <trkpt lat="48.64061" lon="-0.95816">
        <ele>168.916</ele>
        <time>2019-11-12T12:00:11.001Z</time>
      </trkpt>
      <trkpt lat="48.64121" lon="-0.95706">
        <ele>174.093</ele>
        <time>2019-11-12T12:00:44.001Z</time>
      </trkpt>
      <trkpt lat="48.64177" lon="-0.95601">
        <ele>177.47</ele>
        <time>2019-11-12T12:01:17.001Z</time>
      </trkpt>
      <trkpt lat="48.64237" lon="-0.9553">
        <ele>178.612</ele>
        <time>2019-11-12T12:01:47.001Z</time>
      </trkpt>
      <trkpt lat="48.64304" lon="-0.9545">
        <ele>178.82</ele>
        <time>2019-11-12T12:02:20.001Z</time>
      </trkpt>
      <trkpt lat="48.64358" lon="-0.95408">
        <ele>178.734</ele>
        <time>2019-11-12T12:09:38.001Z</time>
      </trkpt>
      <trkpt lat="48.64393" lon="-0.95368">
        <ele>181.208</ele>
        <time>2019-11-12T12:10:32.001Z</time>
      </trkpt>
      <trkpt lat="48.64451" lon="-0.95299">
        <ele>186.165</ele>
        <time>2019-11-12T12:11:11.001Z</time>
      </trkpt>
      <trkpt lat="48.64507" lon="-0.95224">
        <ele>186.052</ele>
        <time>2019-11-12T12:12:20.001Z</time>
      </trkpt>
      <trkpt lat="48.64574" lon="-0.9515">
        <ele>190.165</ele>
        <time>2019-11-12T12:12:50.001Z</time>
      </trkpt>
      <trkpt lat="48.64654" lon="-0.95066">
        <ele>198.43</ele>
        <time>2019-11-12T12:13:23.001Z</time>
      </trkpt>
      <trkpt lat="48.6473" lon="-0.94997">
        <ele>211.278</ele>
        <time>2019-11-12T12:13:56.001Z</time>
      </trkpt>
      <trkpt lat="48.64806" lon="-0.94993">
        <ele>208.973</ele>
        <time>2019-11-12T12:14:26.001Z</time>
      </trkpt>
      <trkpt lat="48.64879" lon="-0.94988">
        <ele>207.719</ele>
        <time>2019-11-12T12:15:02Z</time>
      </trkpt>
      <trkpt lat="48.64881" lon="-0.94986">
        <ele>207.782</ele>
        <time>2019-11-12T12:18:56.001Z</time>
      </trkpt>
      <trkpt lat="48.64808" lon="-0.94996">
        <ele>203.359</ele>
        <time>2019-11-12T12:19:32.001Z</time>
      </trkpt>
      <trkpt lat="48.64782" lon="-0.94985">
        <ele>204.152</ele>
        <time>2019-11-12T12:21:26.001Z</time>
      </trkpt>
      <trkpt lat="48.64854" lon="-0.94938">
        <ele>203.804</ele>
        <time>2019-11-12T12:21:59.001Z</time>
      </trkpt>
      <trkpt lat="48.64939" lon="-0.94891">
        <ele>202.509</ele>
        <time>2019-11-12T12:22:29.001Z</time>
      </trkpt>
      <trkpt lat="48.65032" lon="-0.94871">
        <ele>200.844</ele>
        <time>2019-11-12T12:23:02Z</time>
      </trkpt>
      <trkpt lat="48.65103" lon="-0.9487">
        <ele>206.451</ele>
        <time>2019-11-12T12:23:35.001Z</time>
      </trkpt>
      <trkpt lat="48.65178" lon="-0.9489">
        <ele>207.043</ele>
        <time>2019-11-12T12:24:05.001Z</time>
      </trkpt>
      <trkpt lat="48.65243" lon="-0.94928">
        <ele>210.477</ele>
        <time>2019-11-12T12:24:38.001Z</time>
      </trkpt>
      <trkpt lat="48.65316" lon="-0.94994">
        <ele>215.7</ele>
        <time>2019-11-12T12:25:11.001Z</time>
      </trkpt>
      <trkpt lat="48.65391" lon="-0.95057">
        <ele>214.055</ele>
        <time>2019-11-12T12:25:41.001Z</time>
      </trkpt>
      <trkpt lat="48.6547" lon="-0.95112">
        <ele>213.208</ele>
        <time>2019-11-12T12:26:14.001Z</time>
      </trkpt>
      <trkpt lat="48.65557" lon="-0.95147">
        <ele>217.987</ele>
        <time>2019-11-12T12:26:47.001Z</time>
      </trkpt>
      <trkpt lat="48.65638" lon="-0.95165">
        <ele>223.176</ele>
        <time>2019-11-12T12:27:17.001Z</time>
      </trkpt>
      <trkpt lat="48.65716" lon="-0.95147">
        <ele>221.896</ele>
        <time>2019-11-12T12:27:50.001Z</time>
      </trkpt>
      <trkpt lat="48.65776" lon="-0.95114">
        <ele>223.438</ele>
        <time>2019-11-12T12:28:20.001Z</time>
      </trkpt>
      <trkpt lat="48.65847" lon="-0.95061">
        <ele>223.392</ele>
        <time>2019-11-12T12:28:53.001Z</time>
      </trkpt>
      <trkpt lat="48.65912" lon="-0.94994">
        <ele>226.111</ele>
        <time>2019-11-12T12:29:26.001Z</time>
      </trkpt>
      <trkpt lat="48.65958" lon="-0.94924">
        <ele>237.189</ele>
        <time>2019-11-12T12:29:56.001Z</time>
      </trkpt>
      <trkpt lat="48.66015" lon="-0.94829">
        <ele>253.36</ele>
        <time>2019-11-12T12:30:29.001Z</time>
      </trkpt>
      <trkpt lat="48.6607" lon="-0.94742">
        <ele>255.375</ele>
        <time>2019-11-12T12:31:02Z</time>
      </trkpt>
      <trkpt lat="48.66119" lon="-0.94653">
        <ele>260.28</ele>
        <time>2019-11-12T12:31:32.001Z</time>
      </trkpt>
      <trkpt lat="48.66198" lon="-0.94568">
        <ele>243.801</ele>
        <time>2019-11-12T12:32:05.001Z</time>
      </trkpt>
      <trkpt lat="48.66285" lon="-0.94471">
        <ele>242.411</ele>
        <time>2019-11-12T12:32:38.001Z</time>
      </trkpt>
      <trkpt lat="48.66374" lon="-0.94337">
        <ele>235.223</ele>
        <time>2019-11-12T12:33:08.001Z</time>
      </trkpt>
      <trkpt lat="48.66418" lon="-0.94167">
        <ele>228.403</ele>
        <time>2019-11-12T12:33:41.001Z</time>
      </trkpt>
      <trkpt lat="48.66466" lon="-0.94023">
        <ele>234.909</ele>
        <time>2019-11-12T12:34:14.001Z</time>
      </trkpt>
      <trkpt lat="48.66516" lon="-0.93889">
        <ele>241.626</ele>
        <time>2019-11-12T12:34:44.001Z</time>
      </trkpt>
      <trkpt lat="48.66565" lon="-0.93712">
        <ele>240.924</ele>
        <time>2019-11-12T12:35:17.001Z</time>
      </trkpt>
      <trkpt lat="48.66609" lon="-0.93542">
        <ele>238.31</ele>
        <time>2019-11-12T12:35:50.001Z</time>
      </trkpt>
      <trkpt lat="48.6665" lon="-0.93406">
        <ele>238.096</ele>
        <time>2019-11-12T12:36:20.001Z</time>
      </trkpt>
      <trkpt lat="48.66693" lon="-0.93241">
        <ele>239.995</ele>
        <time>2019-11-12T12:36:53.001Z</time>
      </trkpt>
      <trkpt lat="48.66746" lon="-0.93082">
        <ele>239.653</ele>
        <time>2019-11-12T12:37:26.001Z</time>
      </trkpt>
      <trkpt lat="48.66787" lon="-0.9293">
        <ele>243.245</ele>
        <time>2019-11-12T12:37:56.001Z</time>
      </trkpt>
      <trkpt lat="48.66815" lon="-0.92768">
        <ele>244.092</ele>
        <time>2019-11-12T12:38:29.001Z</time>
      </trkpt>
      <trkpt lat="48.66824" lon="-0.92599">
        <ele>243.868</ele>
        <time>2019-11-12T12:39:02Z</time>
      </trkpt>
      <trkpt lat="48.66817" lon="-0.92471">
        <ele>248.556</ele>
        <time>2019-11-12T12:39:32.001Z</time>
      </trkpt>
      <trkpt lat="48.66792" lon="-0.9232">
        <ele>255.989</ele>
        <time>2019-11-12T12:40:05.001Z</time>
      </trkpt>
      <trkpt lat="48.66752" lon="-0.9217">
        <ele>257.759</ele>
        <time>2019-11-12T12:40:38.001Z</time>
      </trkpt>
      <trkpt lat="48.66731" lon="-0.92048">
        <ele>256.3</ele>
        <time>2019-11-12T12:41:08.001Z</time>
      </trkpt>
      <trkpt lat="48.66721" lon="-0.91889">
        <ele>255.956</ele>
        <time>2019-11-12T12:41:41.001Z</time>
      </trkpt>
      <trkpt lat="48.66733" lon="-0.91735">
        <ele>257.533</ele>
        <time>2019-11-12T12:42:14.001Z</time>
      </trkpt>
      <trkpt lat="48.66763" lon="-0.91588">
        <ele>256.947</ele>
        <time>2019-11-12T12:42:44.001Z</time>
      </trkpt>
      <trkpt lat="48.66799" lon="-0.91464">
        <ele>266.465</ele>
        <time>2019-11-12T12:43:17.001Z</time>
      </trkpt>
      <trkpt lat="48.66829" lon="-0.91326">
        <ele>265.819</ele>
        <time>2019-11-12T12:43:53.001Z</time>
      </trkpt>
      <trkpt lat="48.66876" lon="-0.91175">
        <ele>266.883</ele>
        <time>2019-11-12T12:44:23.001Z</time>
      </trkpt>
      <trkpt lat="48.66954" lon="-0.91043">
        <ele>265.945</ele>
        <time>2019-11-12T12:44:56.001Z</time>
      </trkpt>
      <trkpt lat="48.67061" lon="-0.90953">
        <ele>261.969</ele>
        <time>2019-11-12T12:45:29.001Z</time>
      </trkpt>
      <trkpt lat="48.67169" lon="-0.90918">
        <ele>263.268</ele>
        <time>2019-11-12T12:45:59.001Z</time>
      </trkpt>
      <trkpt lat="48.67289" lon="-0.90924">
        <ele>266.13</ele>
        <time>2019-11-12T12:46:32.001Z</time>
      </trkpt>
      <trkpt lat="48.67409" lon="-0.90936">
        <ele>268.762</ele>
        <time>2019-11-12T12:47:05.001Z</time>
      </trkpt>
      <trkpt lat="48.67514" lon="-0.90954">
        <ele>268.014</ele>
        <time>2019-11-12T12:47:35.001Z</time>
      </trkpt>
      <trkpt lat="48.6761" lon="-0.91012">
        <ele>262.579</ele>
        <time>2019-11-12T12:48:08.001Z</time>
      </trkpt>
      <trkpt lat="48.67694" lon="-0.91108">
        <ele>260.666</ele>
        <time>2019-11-12T12:48:38.001Z</time>
      </trkpt>
      <trkpt lat="48.67768" lon="-0.91211">
        <ele>268.187</ele>
        <time>2019-11-12T12:49:11.001Z</time>
      </trkpt>
      <trkpt lat="48.67856" lon="-0.91316">
        <ele>274.552</ele>
        <time>2019-11-12T12:49:44.001Z</time>
      </trkpt>
      <trkpt lat="48.67961" lon="-0.91365">
        <ele>279.402</ele>
        <time>2019-11-12T12:50:14.001Z</time>
      </trkpt>
      <trkpt lat="48.6806" lon="-0.91341">
        <ele>268.265</ele>
        <time>2019-11-12T12:50:47.001Z</time>
      </trkpt>
      <trkpt lat="48.68156" lon="-0.91263">
        <ele>269.371</ele>
        <time>2019-11-12T12:51:20.001Z</time>
      </trkpt>
      <trkpt lat="48.68233" lon="-0.91115">
        <ele>273.509</ele>
        <time>2019-11-12T12:51:50.001Z</time>
      </trkpt>
      <trkpt lat="48.68268" lon="-0.90938">
        <ele>274.874</ele>
        <time>2019-11-12T12:52:23.001Z</time>
      </trkpt>
      <trkpt lat="48.68284" lon="-0.90849">
        <ele>277.124</ele>
        <time>2019-11-12T13:12:05.001Z</time>
      </trkpt>
      <trkpt lat="48.68299" lon="-0.90765">
        <ele>284.24</ele>
        <time>2019-11-12T13:12:38.001Z</time>
      </trkpt>
      <trkpt lat="48.6833" lon="-0.90626">
        <ele>287.706</ele>
        <time>2019-11-12T13:13:11.001Z</time>
      </trkpt>
      <trkpt lat="48.68358" lon="-0.90481">
        <ele>290.896</ele>
        <time>2019-11-12T13:13:44.001Z</time>
      </trkpt>
      <trkpt lat="48.68383" lon="-0.90362">
        <ele>279.361</ele>
        <time>2019-11-12T13:14:14.001Z</time>
      </trkpt>
      <trkpt lat="48.68427" lon="-0.90208">
        <ele>279.874</ele>
        <time>2019-11-12T13:14:47.001Z</time>
      </trkpt>
      <trkpt lat="48.68542" lon="-0.90017">
        <ele>275.861</ele>
        <time>2019-11-12T13:15:20.001Z</time>
      </trkpt>
      <trkpt lat="48.68646" lon="-0.89933">
        <ele>271.217</ele>
        <time>2019-11-12T13:17:20.001Z</time>
      </trkpt>
      <trkpt lat="48.68763" lon="-0.899">
        <ele>273.27</ele>
        <time>2019-11-12T13:17:53.001Z</time>
      </trkpt>
      <trkpt lat="48.68959" lon="-0.89895">
        <ele>276.23</ele>
        <time>2019-11-12T13:18:26.001Z</time>
      </trkpt>
      <trkpt lat="48.69143" lon="-0.89892">
        <ele>271.773</ele>
        <time>2019-11-12T13:18:56.001Z</time>
      </trkpt>
      <trkpt lat="48.69308" lon="-0.89943">
        <ele>272.292</ele>
        <time>2019-11-12T13:19:29.001Z</time>
      </trkpt>
      <trkpt lat="48.69438" lon="-0.90115">
        <ele>265.905</ele>
        <time>2019-11-12T13:20:02Z</time>
      </trkpt>
      <trkpt lat="48.69506" lon="-0.90343">
        <ele>247.13</ele>
        <time>2019-11-12T13:20:32.001Z</time>
      </trkpt>
      <trkpt lat="48.69575" lon="-0.90569">
        <ele>245.144</ele>
        <time>2019-11-12T13:21:05.001Z</time>
      </trkpt>
      <trkpt lat="48.69644" lon="-0.90778">
        <ele>245.57</ele>
        <time>2019-11-12T13:21:38.001Z</time>
      </trkpt>
      <trkpt lat="48.69697" lon="-0.90942">
        <ele>239.106</ele>
        <time>2019-11-12T13:22:11.001Z</time>
      </trkpt>
      <trkpt lat="48.69744" lon="-0.91092">
        <ele>240.156</ele>
        <time>2019-11-12T13:22:44.001Z</time>
      </trkpt>
      <trkpt lat="48.69807" lon="-0.91295">
        <ele>235.626</ele>
        <time>2019-11-12T13:23:17.001Z</time>
      </trkpt>
      <trkpt lat="48.69875" lon="-0.91512">
        <ele>232.43</ele>
        <time>2019-11-12T13:23:47.001Z</time>
      </trkpt>
      <trkpt lat="48.69898" lon="-0.91604">
        <ele>229.103</ele>
        <time>2019-11-12T13:24:53.001Z</time>
      </trkpt>
      <trkpt lat="48.69942" lon="-0.91843">
        <ele>224.168</ele>
        <time>2019-11-12T13:25:26.001Z</time>
      </trkpt>
      <trkpt lat="48.69975" lon="-0.92089">
        <ele>215.257</ele>
        <time>2019-11-12T13:25:56.001Z</time>
      </trkpt>
      <trkpt lat="48.70006" lon="-0.92332">
        <ele>218.202</ele>
        <time>2019-11-12T13:26:29.001Z</time>
      </trkpt>
      <trkpt lat="48.70037" lon="-0.92521">
        <ele>212.397</ele>
        <time>2019-11-12T13:27:02Z</time>
      </trkpt>
      <trkpt lat="48.70068" lon="-0.92724">
        <ele>207.109</ele>
        <time>2019-11-12T13:27:32.001Z</time>
      </trkpt>
      <trkpt lat="48.70127" lon="-0.92818">
        <ele>207.086</ele>
        <time>2019-11-12T13:28:05.001Z</time>
      </trkpt>
      <trkpt lat="48.70177" lon="-0.92801">
        <ele>198.692</ele>
        <time>2019-11-12T13:28:35.001Z</time>
      </trkpt>
      <trkpt lat="48.70122" lon="-0.92863">
        <ele>199.506</ele>
        <time>2019-11-12T13:29:23.001Z</time>
      </trkpt>
      <trkpt lat="48.70098" lon="-0.92947">
        <ele>206.422</ele>
        <time>2019-11-12T13:29:56.001Z</time>
      </trkpt>
      <trkpt lat="48.70119" lon="-0.93092">
        <ele>206.832</ele>
        <time>2019-11-12T13:30:26.001Z</time>
      </trkpt>
      <trkpt lat="48.70157" lon="-0.93312">
        <ele>199.361</ele>
        <time>2019-11-12T13:30:59.001Z</time>
      </trkpt>
      <trkpt lat="48.7021" lon="-0.93528">
        <ele>202.979</ele>
        <time>2019-11-12T13:31:32.001Z</time>
      </trkpt>
      <trkpt lat="48.70286" lon="-0.93724">
        <ele>195.087</ele>
        <time>2019-11-12T13:32:02Z</time>
      </trkpt>
      <trkpt lat="48.70355" lon="-0.93909">
        <ele>193.915</ele>
        <time>2019-11-12T13:32:35.001Z</time>
      </trkpt>
      <trkpt lat="48.70417" lon="-0.94094">
        <ele>189.321</ele>
        <time>2019-11-12T13:33:08.001Z</time>
      </trkpt>
      <trkpt lat="48.70468" lon="-0.94226">
        <ele>184.695</ele>
        <time>2019-11-12T13:33:41.001Z</time>
      </trkpt>
      <trkpt lat="48.70583" lon="-0.9441">
        <ele>188.61</ele>
        <time>2019-11-12T13:34:14.001Z</time>
      </trkpt>
      <trkpt lat="48.70726" lon="-0.9449">
        <ele>185.082</ele>
        <time>2019-11-12T13:34:47.001Z</time>
      </trkpt>
      <trkpt lat="48.70814" lon="-0.94489">
        <ele>180.188</ele>
        <time>2019-11-12T13:35:20.001Z</time>
      </trkpt>
      <trkpt lat="48.70977" lon="-0.9443">
        <ele>177.4</ele>
        <time>2019-11-12T13:35:53.001Z</time>
      </trkpt>
      <trkpt lat="48.71122" lon="-0.94368">
        <ele>174.973</ele>
        <time>2019-11-12T13:36:26.001Z</time>
      </trkpt>
      <trkpt lat="48.71254" lon="-0.94312">
        <ele>179.29</ele>
        <time>2019-11-12T13:36:56.001Z</time>
      </trkpt>
      <trkpt lat="48.71359" lon="-0.94265">
        <ele>177.469</ele>
        <time>2019-11-12T13:37:29.001Z</time>
      </trkpt>
      <trkpt lat="48.71457" lon="-0.94222">
        <ele>178.422</ele>
        <time>2019-11-12T13:38:02Z</time>
      </trkpt>
      <trkpt lat="48.71546" lon="-0.94197">
        <ele>183.174</ele>
        <time>2019-11-12T13:38:32.001Z</time>
      </trkpt>
      <trkpt lat="48.71658" lon="-0.94208">
        <ele>188.798</ele>
        <time>2019-11-12T13:39:05.001Z</time>
      </trkpt>
      <trkpt lat="48.71741" lon="-0.94257">
        <ele>193.751</ele>
        <time>2019-11-12T13:39:38.001Z</time>
      </trkpt>
      <trkpt lat="48.71832" lon="-0.9433">
        <ele>195.508</ele>
        <time>2019-11-12T13:40:08.001Z</time>
      </trkpt>
      <trkpt lat="48.71922" lon="-0.94385">
        <ele>194.5</ele>
        <time>2019-11-12T13:40:41.001Z</time>
      </trkpt>
      <trkpt lat="48.72004" lon="-0.9439">
        <ele>195.344</ele>
        <time>2019-11-12T13:41:14.001Z</time>
      </trkpt>
      <trkpt lat="48.72079" lon="-0.94368">
        <ele>201.4</ele>
        <time>2019-11-12T13:41:44.001Z</time>
      </trkpt>
      <trkpt lat="48.72167" lon="-0.94283">
        <ele>212.009</ele>
        <time>2019-11-12T13:42:17.001Z</time>
      </trkpt>
      <trkpt lat="48.72235" lon="-0.94164">
        <ele>220.179</ele>
        <time>2019-11-12T13:42:50.001Z</time>
      </trkpt>
      <trkpt lat="48.72297" lon="-0.94051">
        <ele>205.769</ele>
        <time>2019-11-12T13:43:20.001Z</time>
      </trkpt>
      <trkpt lat="48.72374" lon="-0.93945">
        <ele>203.89</ele>
        <time>2019-11-12T13:43:53.001Z</time>
      </trkpt>
      <trkpt lat="48.72445" lon="-0.93859">
        <ele>205.27</ele>
        <time>2019-11-12T13:44:26.001Z</time>
      </trkpt>
      <trkpt lat="48.7252" lon="-0.93754">
        <ele>210.456</ele>
        <time>2019-11-12T13:44:56.001Z</time>
      </trkpt>
      <trkpt lat="48.7257" lon="-0.93599">
        <ele>213.71</ele>
        <time>2019-11-12T13:45:29.001Z</time>
      </trkpt>
      <trkpt lat="48.72575" lon="-0.93488">
        <ele>215.468</ele>
        <time>2019-11-12T13:46:02Z</time>
      </trkpt>
      <trkpt lat="48.72554" lon="-0.93344">
        <ele>219.739</ele>
        <time>2019-11-12T13:46:32.001Z</time>
      </trkpt>
      <trkpt lat="48.7252" lon="-0.93155">
        <ele>219.914</ele>
        <time>2019-11-12T13:47:05.001Z</time>
      </trkpt>
      <trkpt lat="48.72515" lon="-0.92976">
        <ele>219.176</ele>
        <time>2019-11-12T13:47:35.001Z</time>
      </trkpt>
      <trkpt lat="48.72512" lon="-0.92756">
        <ele>223.682</ele>
        <time>2019-11-12T13:48:08.001Z</time>
      </trkpt>
      <trkpt lat="48.72566" lon="-0.92552">
        <ele>216.213</ele>
        <time>2019-11-12T13:48:41.001Z</time>
      </trkpt>
      <trkpt lat="48.72658" lon="-0.92435">
        <ele>212.373</ele>
        <time>2019-11-12T13:49:11.001Z</time>
      </trkpt>
      <trkpt lat="48.72781" lon="-0.92399">
        <ele>214.197</ele>
        <time>2019-11-12T13:49:44.001Z</time>
      </trkpt>
      <trkpt lat="48.72878" lon="-0.92438">
        <ele>214.946</ele>
        <time>2019-11-12T13:50:17.001Z</time>
      </trkpt>
      <trkpt lat="48.72964" lon="-0.92498">
        <ele>224.574</ele>
        <time>2019-11-12T13:50:47.001Z</time>
      </trkpt>
      <trkpt lat="48.73059" lon="-0.92549">
        <ele>228.863</ele>
        <time>2019-11-12T13:51:20.001Z</time>
      </trkpt>
      <trkpt lat="48.73173" lon="-0.92547">
        <ele>238.148</ele>
        <time>2019-11-12T13:51:53.001Z</time>
      </trkpt>
      <trkpt lat="48.73259" lon="-0.92487">
        <ele>232.469</ele>
        <time>2019-11-12T13:52:23.001Z</time>
      </trkpt>
      <trkpt lat="48.73327" lon="-0.92393">
        <ele>233.704</ele>
        <time>2019-11-12T13:52:56.001Z</time>
      </trkpt>
      <trkpt lat="48.73381" lon="-0.92292">
        <ele>232.299</ele>
        <time>2019-11-12T13:53:29.001Z</time>
      </trkpt>
      <trkpt lat="48.73437" lon="-0.92189">
        <ele>237.84</ele>
        <time>2019-11-12T13:53:59.001Z</time>
      </trkpt>
      <trkpt lat="48.73504" lon="-0.92075">
        <ele>240.381</ele>
        <time>2019-11-12T13:54:32.001Z</time>
      </trkpt>
      <trkpt lat="48.73562" lon="-0.91971">
        <ele>241.592</ele>
        <time>2019-11-12T13:55:05.001Z</time>
      </trkpt>
      <trkpt lat="48.7362" lon="-0.91868">
        <ele>241.446</ele>
        <time>2019-11-12T13:55:35.001Z</time>
      </trkpt>
      <trkpt lat="48.73674" lon="-0.91776">
        <ele>244.075</ele>
        <time>2019-11-12T13:56:08.001Z</time>
      </trkpt>
      <trkpt lat="48.73702" lon="-0.91715">
        <ele>241.258</ele>
        <time>2019-11-12T13:57:29.001Z</time>
      </trkpt>
      <trkpt lat="48.73756" lon="-0.91601">
        <ele>241.576</ele>
        <time>2019-11-12T13:57:59.001Z</time>
      </trkpt>
      <trkpt lat="48.73718" lon="-0.91591">
        <ele>245.141</ele>
        <time>2019-11-12T13:58:41.001Z</time>
      </trkpt>
      <trkpt lat="48.7366" lon="-0.91629">
        <ele>245.864</ele>
        <time>2019-11-12T13:59:20.001Z</time>
      </trkpt>
      <trkpt lat="48.73609" lon="-0.91657">
        <ele>248.353</ele>
        <time>2019-11-12T13:59:50.001Z</time>
      </trkpt>
      <trkpt lat="48.73511" lon="-0.917">
        <ele>247.69</ele>
        <time>2019-11-12T14:00:23.001Z</time>
      </trkpt>
      <trkpt lat="48.7342" lon="-0.91669">
        <ele>240.338</ele>
        <time>2019-11-12T14:00:56.001Z</time>
      </trkpt>
      <trkpt lat="48.73446" lon="-0.91694">
        <ele>240.903</ele>
        <time>2019-11-12T14:02:44.001Z</time>
      </trkpt>
      <trkpt lat="48.73433" lon="-0.91681">
        <ele>241.61</ele>
        <time>2019-11-12T14:03:26.001Z</time>
      </trkpt>
      <trkpt lat="48.73417" lon="-0.91666">
        <ele>241.908</ele>
        <time>2019-11-12T14:04:14.001Z</time>
      </trkpt>
      <trkpt lat="48.73421" lon="-0.91669">
        <ele>243.209</ele>
        <time>2019-11-12T14:04:59.001Z</time>
      </trkpt>
      <trkpt lat="48.73496" lon="-0.91652">
        <ele>245.605</ele>
        <time>2019-11-12T14:05:32.001Z</time>
      </trkpt>
      <trkpt lat="48.73554" lon="-0.91628">
        <ele>252.93</ele>
        <time>2019-11-12T14:06:05.001Z</time>
      </trkpt>
      <trkpt lat="48.73605" lon="-0.916">
        <ele>257.604</ele>
        <time>2019-11-12T14:06:41.001Z</time>
      </trkpt>
      <trkpt lat="48.73719" lon="-0.91532">
        <ele>257.512</ele>
        <time>2019-11-12T14:07:14.001Z</time>
      </trkpt>
      <trkpt lat="48.73807" lon="-0.9134">
        <ele>249.461</ele>
        <time>2019-11-12T14:07:47.001Z</time>
      </trkpt>
      <trkpt lat="48.73803" lon="-0.91168">
        <ele>245.591</ele>
        <time>2019-11-12T14:08:17.001Z</time>
      </trkpt>
      <trkpt lat="48.73797" lon="-0.91026">
        <ele>243.332</ele>
        <time>2019-11-12T14:08:50.001Z</time>
      </trkpt>
      <trkpt lat="48.73805" lon="-0.90875">
        <ele>251.654</ele>
        <time>2019-11-12T14:09:20.001Z</time>
      </trkpt>
      <trkpt lat="48.73849" lon="-0.90732">
        <ele>260.14</ele>
        <time>2019-11-12T14:09:53.001Z</time>
      </trkpt>
      <trkpt lat="48.73909" lon="-0.90601">
        <ele>262.476</ele>
        <time>2019-11-12T14:10:26.001Z</time>
      </trkpt>
      <trkpt lat="48.73949" lon="-0.90482">
        <ele>254.92</ele>
        <time>2019-11-12T14:10:56.001Z</time>
      </trkpt>
      <trkpt lat="48.73991" lon="-0.90356">
        <ele>258.014</ele>
        <time>2019-11-12T14:11:29.001Z</time>
      </trkpt>
      <trkpt lat="48.7403" lon="-0.90236">
        <ele>260.539</ele>
        <time>2019-11-12T14:12:02Z</time>
      </trkpt>
      <trkpt lat="48.74052" lon="-0.90109">
        <ele>264.004</ele>
        <time>2019-11-12T14:12:32.001Z</time>
      </trkpt>
      <trkpt lat="48.74066" lon="-0.89981">
        <ele>262.499</ele>
        <time>2019-11-12T14:13:05.001Z</time>
      </trkpt>
      <trkpt lat="48.74064" lon="-0.89859">
        <ele>264.414</ele>
        <time>2019-11-12T14:13:38.001Z</time>
      </trkpt>
      <trkpt lat="48.74054" lon="-0.89745">
        <ele>265.908</ele>
        <time>2019-11-12T14:14:08.001Z</time>
      </trkpt>
      <trkpt lat="48.74042" lon="-0.89622">
        <ele>267.988</ele>
        <time>2019-11-12T14:14:41.001Z</time>
      </trkpt>
      <trkpt lat="48.74034" lon="-0.89487">
        <ele>265.418</ele>
        <time>2019-11-12T14:15:14.001Z</time>
      </trkpt>
      <trkpt lat="48.74023" lon="-0.894">
        <ele>270.455</ele>
        <time>2019-11-12T14:15:44.001Z</time>
      </trkpt>
      <trkpt lat="48.74005" lon="-0.89265">
        <ele>270.859</ele>
        <time>2019-11-12T14:16:17.001Z</time>
      </trkpt>
      <trkpt lat="48.73997" lon="-0.89146">
        <ele>260.464</ele>
        <time>2019-11-12T14:16:50.001Z</time>
      </trkpt>
      <trkpt lat="48.73988" lon="-0.8904">
        <ele>266.966</ele>
        <time>2019-11-12T14:17:20.001Z</time>
      </trkpt>
      <trkpt lat="48.7398" lon="-0.88927">
        <ele>276.506</ele>
        <time>2019-11-12T14:17:53.001Z</time>
      </trkpt>
      <trkpt lat="48.73976" lon="-0.88805">
        <ele>284.801</ele>
        <time>2019-11-12T14:18:26.001Z</time>
      </trkpt>
      <trkpt lat="48.73979" lon="-0.88691">
        <ele>286.579</ele>
        <time>2019-11-12T14:18:56.001Z</time>
      </trkpt>
      <trkpt lat="48.7398" lon="-0.88569">
        <ele>284.955</ele>
        <time>2019-11-12T14:19:29.001Z</time>
      </trkpt>
      <trkpt lat="48.73998" lon="-0.8843">
        <ele>295.236</ele>
        <time>2019-11-12T14:20:02Z</time>
      </trkpt>
      <trkpt lat="48.7403" lon="-0.88327">
        <ele>297.452</ele>
        <time>2019-11-12T14:20:32.001Z</time>
      </trkpt>
      <trkpt lat="48.74082" lon="-0.88228">
        <ele>301.683</ele>
        <time>2019-11-12T14:21:05.001Z</time>
      </trkpt>
      <trkpt lat="48.74151" lon="-0.88152">
        <ele>296.229</ele>
        <time>2019-11-12T14:21:38.001Z</time>
      </trkpt>
      <trkpt lat="48.74219" lon="-0.88104">
        <ele>296.297</ele>
        <time>2019-11-12T14:22:08.001Z</time>
      </trkpt>
      <trkpt lat="48.74292" lon="-0.88059">
        <ele>300.646</ele>
        <time>2019-11-12T14:22:41.001Z</time>
      </trkpt>
      <trkpt lat="48.74367" lon="-0.88006">
        <ele>300.722</ele>
        <time>2019-11-12T14:23:14.001Z</time>
      </trkpt>
      <trkpt lat="48.74442" lon="-0.87964">
        <ele>301.748</ele>
        <time>2019-11-12T14:23:44.001Z</time>
      </trkpt>
      <trkpt lat="48.7454" lon="-0.87903">
        <ele>298.551</ele>
        <time>2019-11-12T14:24:17.001Z</time>
      </trkpt>
      <trkpt lat="48.74617" lon="-0.87849">
        <ele>295.226</ele>
        <time>2019-11-12T14:24:50.001Z</time>
      </trkpt>
      <trkpt lat="48.74706" lon="-0.87799">
        <ele>295.342</ele>
        <time>2019-11-12T14:25:20.001Z</time>
      </trkpt>
      <trkpt lat="48.7478" lon="-0.87731">
        <ele>301.242</ele>
        <time>2019-11-12T14:25:56.001Z</time>
      </trkpt>
      <trkpt lat="48.74872" lon="-0.87646">
        <ele>302.377</ele>
        <time>2019-11-12T14:26:29.001Z</time>
      </trkpt>
      <trkpt lat="48.74952" lon="-0.87547">
        <ele>301.359</ele>
        <time>2019-11-12T14:26:59.001Z</time>
      </trkpt>
      <trkpt lat="48.75071" lon="-0.87443">
        <ele>297.326</ele>
        <time>2019-11-12T14:27:32.001Z</time>
      </trkpt>
      <trkpt lat="48.75193" lon="-0.87357">
        <ele>300.749</ele>
        <time>2019-11-12T14:28:05.001Z</time>
      </trkpt>
      <trkpt lat="48.75281" lon="-0.87318">
        <ele>299.899</ele>
        <time>2019-11-12T14:28:35.001Z</time>
      </trkpt>
      <trkpt lat="48.75414" lon="-0.87316">
        <ele>303.199</ele>
        <time>2019-11-12T14:29:08.001Z</time>
      </trkpt>
      <trkpt lat="48.75531" lon="-0.87347">
        <ele>302.634</ele>
        <time>2019-11-12T14:29:38.001Z</time>
      </trkpt>
      <trkpt lat="48.75657" lon="-0.87386">
        <ele>302.031</ele>
        <time>2019-11-12T14:30:11.001Z</time>
      </trkpt>
      <trkpt lat="48.75829" lon="-0.87433">
        <ele>290.152</ele>
        <time>2019-11-12T14:30:44.001Z</time>
      </trkpt>
      <trkpt lat="48.76011" lon="-0.87428">
        <ele>284.487</ele>
        <time>2019-11-12T14:31:14.001Z</time>
      </trkpt>
      <trkpt lat="48.76177" lon="-0.87462">
        <ele>281.711</ele>
        <time>2019-11-12T14:31:47.001Z</time>
      </trkpt>
      <trkpt lat="48.76349" lon="-0.876">
        <ele>271.323</ele>
        <time>2019-11-12T14:32:20.001Z</time>
      </trkpt>
      <trkpt lat="48.76478" lon="-0.8774">
        <ele>269.186</ele>
        <time>2019-11-12T14:32:50.001Z</time>
      </trkpt>
      <trkpt lat="48.7664" lon="-0.87844">
        <ele>278.558</ele>
        <time>2019-11-12T14:33:23.001Z</time>
      </trkpt>
      <trkpt lat="48.76794" lon="-0.87882">
        <ele>270.364</ele>
        <time>2019-11-12T14:33:56.001Z</time>
      </trkpt>
      <trkpt lat="48.76936" lon="-0.87907">
        <ele>266.801</ele>
        <time>2019-11-12T14:34:26.001Z</time>
      </trkpt>
      <trkpt lat="48.77116" lon="-0.87951">
        <ele>264.265</ele>
        <time>2019-11-12T14:34:59.001Z</time>
      </trkpt>
      <trkpt lat="48.77268" lon="-0.88063">
        <ele>244.494</ele>
        <time>2019-11-12T14:35:32.001Z</time>
      </trkpt>
      <trkpt lat="48.7737" lon="-0.88237">
        <ele>244.653</ele>
        <time>2019-11-12T14:36:02Z</time>
      </trkpt>
      <trkpt lat="48.77434" lon="-0.88485">
        <ele>248.129</ele>
        <time>2019-11-12T14:36:35.001Z</time>
      </trkpt>
      <trkpt lat="48.77468" lon="-0.88757">
        <ele>244.274</ele>
        <time>2019-11-12T14:37:08.001Z</time>
      </trkpt>
      <trkpt lat="48.77506" lon="-0.88992">
        <ele>236.45</ele>
        <time>2019-11-12T14:37:38.001Z</time>
      </trkpt>
      <trkpt lat="48.77541" lon="-0.8922">
        <ele>232.588</ele>
        <time>2019-11-12T14:38:11.001Z</time>
      </trkpt>
      <trkpt lat="48.77546" lon="-0.89496">
        <ele>225.548</ele>
        <time>2019-11-12T14:38:44.001Z</time>
      </trkpt>
      <trkpt lat="48.77506" lon="-0.89729">
        <ele>222.698</ele>
        <time>2019-11-12T14:39:14.001Z</time>
      </trkpt>
      <trkpt lat="48.77438" lon="-0.89908">
        <ele>225.514</ele>
        <time>2019-11-12T14:39:53.001Z</time>
      </trkpt>
      <trkpt lat="48.77373" lon="-0.90065">
        <ele>228.096</ele>
        <time>2019-11-12T14:40:29.001Z</time>
      </trkpt>
      <trkpt lat="48.77342" lon="-0.90278">
        <ele>231.624</ele>
        <time>2019-11-12T14:40:59.001Z</time>
      </trkpt>
      <trkpt lat="48.77358" lon="-0.9052">
        <ele>227.133</ele>
        <time>2019-11-12T14:41:32.001Z</time>
      </trkpt>
      <trkpt lat="48.77447" lon="-0.90751">
        <ele>226.105</ele>
        <time>2019-11-12T14:42:05.001Z</time>
      </trkpt>
      <trkpt lat="48.77578" lon="-0.90891">
        <ele>221.224</ele>
        <time>2019-11-12T14:42:35.001Z</time>
      </trkpt>
      <trkpt lat="48.77746" lon="-0.90946">
        <ele>215.862</ele>
        <time>2019-11-12T14:43:08.001Z</time>
      </trkpt>
      <trkpt lat="48.7793" lon="-0.90917">
        <ele>212.879</ele>
        <time>2019-11-12T14:43:41.001Z</time>
      </trkpt>
      <trkpt lat="48.78113" lon="-0.90808">
        <ele>198.857</ele>
        <time>2019-11-12T14:44:11.001Z</time>
      </trkpt>
      <trkpt lat="48.78233" lon="-0.90707">
        <ele>194.472</ele>
        <time>2019-11-12T14:44:44.001Z</time>
      </trkpt>
      <trkpt lat="48.78398" lon="-0.90574">
        <ele>191.751</ele>
        <time>2019-11-12T14:45:17.001Z</time>
      </trkpt>
      <trkpt lat="48.78558" lon="-0.90507">
        <ele>190.273</ele>
        <time>2019-11-12T14:45:47.001Z</time>
      </trkpt>
      <trkpt lat="48.78746" lon="-0.90524">
        <ele>190.579</ele>
        <time>2019-11-12T14:46:20.001Z</time>
      </trkpt>
      <trkpt lat="48.78905" lon="-0.90623">
        <ele>180.02</ele>
        <time>2019-11-12T14:46:53.001Z</time>
      </trkpt>
      <trkpt lat="48.79008" lon="-0.90694">
        <ele>180.65</ele>
        <time>2019-11-12T14:47:23.001Z</time>
      </trkpt>
      <trkpt lat="48.79159" lon="-0.90757">
        <ele>178.788</ele>
        <time>2019-11-12T14:47:56.001Z</time>
      </trkpt>
      <trkpt lat="48.79289" lon="-0.90804">
        <ele>183.239</ele>
        <time>2019-11-12T14:48:26.001Z</time>
      </trkpt>
      <trkpt lat="48.79464" lon="-0.90859">
        <ele>180.372</ele>
        <time>2019-11-12T14:48:59.001Z</time>
      </trkpt>
      <trkpt lat="48.79586" lon="-0.90901">
        <ele>183.768</ele>
        <time>2019-11-12T14:49:32.001Z</time>
      </trkpt>
      <trkpt lat="48.79709" lon="-0.90943">
        <ele>187.364</ele>
        <time>2019-11-12T14:50:02Z</time>
      </trkpt>
      <trkpt lat="48.79838" lon="-0.90988">
        <ele>186.446</ele>
        <time>2019-11-12T14:50:35.001Z</time>
      </trkpt>
      <trkpt lat="48.8" lon="-0.91042">
        <ele>182.159</ele>
        <time>2019-11-12T14:51:08.001Z</time>
      </trkpt>
      <trkpt lat="48.80166" lon="-0.91097">
        <ele>174.983</ele>
        <time>2019-11-12T14:51:38.001Z</time>
      </trkpt>
      <trkpt lat="48.80352" lon="-0.91141">
        <ele>167.467</ele>
        <time>2019-11-12T14:52:11.001Z</time>
      </trkpt>
      <trkpt lat="48.80521" lon="-0.91186">
        <ele>166.859</ele>
        <time>2019-11-12T14:52:44.001Z</time>
      </trkpt>
      <trkpt lat="48.80669" lon="-0.91285">
        <ele>169.263</ele>
        <time>2019-11-12T14:53:14.001Z</time>
      </trkpt>
      <trkpt lat="48.80802" lon="-0.91452">
        <ele>161.585</ele>
        <time>2019-11-12T14:53:47.001Z</time>
      </trkpt>
      <trkpt lat="48.8093" lon="-0.9167">
        <ele>153.003</ele>
        <time>2019-11-12T14:54:20.001Z</time>
      </trkpt>
      <trkpt lat="48.81021" lon="-0.91824">
        <ele>155.628</ele>
        <time>2019-11-12T14:54:50.001Z</time>
      </trkpt>
      <trkpt lat="48.81121" lon="-0.91988">
        <ele>154.785</ele>
        <time>2019-11-12T14:55:23.001Z</time>
      </trkpt>
      <trkpt lat="48.81219" lon="-0.92141">
        <ele>157.672</ele>
        <time>2019-11-12T14:55:56.001Z</time>
      </trkpt>
      <trkpt lat="48.81301" lon="-0.92278">
        <ele>160.665</ele>
        <time>2019-11-12T14:56:26.001Z</time>
      </trkpt>
      <trkpt lat="48.81398" lon="-0.92428">
        <ele>162.633</ele>
        <time>2019-11-12T14:56:59.001Z</time>
      </trkpt>
      <trkpt lat="48.81486" lon="-0.92589">
        <ele>171.092</ele>
        <time>2019-11-12T14:57:32.001Z</time>
      </trkpt>
      <trkpt lat="48.81578" lon="-0.92731">
        <ele>155.436</ele>
        <time>2019-11-12T14:58:02Z</time>
      </trkpt>
      <trkpt lat="48.81667" lon="-0.92882">
        <ele>153.26</ele>
        <time>2019-11-12T14:58:35.001Z</time>
      </trkpt>
      <trkpt lat="48.81756" lon="-0.93027">
        <ele>152.369</ele>
        <time>2019-11-12T14:59:08.001Z</time>
      </trkpt>
      <trkpt lat="48.81826" lon="-0.93143">
        <ele>155.635</ele>
        <time>2019-11-12T14:59:38.001Z</time>
      </trkpt>
      <trkpt lat="48.81907" lon="-0.93267">
        <ele>153.567</ele>
        <time>2019-11-12T15:00:11.001Z</time>
      </trkpt>
      <trkpt lat="48.81964" lon="-0.93366">
        <ele>160.169</ele>
        <time>2019-11-12T15:00:44.001Z</time>
      </trkpt>
      <trkpt lat="48.82033" lon="-0.93467">
        <ele>168.27</ele>
        <time>2019-11-12T15:01:14.001Z</time>
      </trkpt>
      <trkpt lat="48.82131" lon="-0.93554">
        <ele>169.563</ele>
        <time>2019-11-12T15:01:47.001Z</time>
      </trkpt>
      <trkpt lat="48.82226" lon="-0.93606">
        <ele>161.86</ele>
        <time>2019-11-12T15:02:20.001Z</time>
      </trkpt>
      <trkpt lat="48.82296" lon="-0.93626">
        <ele>160.918</ele>
        <time>2019-11-12T15:02:50.001Z</time>
      </trkpt>
      <trkpt lat="48.82386" lon="-0.93649">
        <ele>169.84</ele>
        <time>2019-11-12T15:03:23.001Z</time>
      </trkpt>
      <trkpt lat="48.82502" lon="-0.93679">
        <ele>166.877</ele>
        <time>2019-11-12T15:03:56.001Z</time>
      </trkpt>
      <trkpt lat="48.82591" lon="-0.93702">
        <ele>167.339</ele>
        <time>2019-11-12T15:04:26.001Z</time>
      </trkpt>
      <trkpt lat="48.82684" lon="-0.93726">
        <ele>169.763</ele>
        <time>2019-11-12T15:04:59.001Z</time>
      </trkpt>
      <trkpt lat="48.82772" lon="-0.93749">
        <ele>168.212</ele>
        <time>2019-11-12T15:05:32.001Z</time>
      </trkpt>
      <trkpt lat="48.82841" lon="-0.93765">
        <ele>171.772</ele>
        <time>2019-11-12T15:06:02Z</time>
      </trkpt>
      <trkpt lat="48.82925" lon="-0.93788">
        <ele>166.981</ele>
        <time>2019-11-12T15:06:35.001Z</time>
      </trkpt>
      <trkpt lat="48.82987" lon="-0.93802">
        <ele>170.998</ele>
        <time>2019-11-12T15:07:05.001Z</time>
      </trkpt>
      <trkpt lat="48.83081" lon="-0.93824">
        <ele>173.92</ele>
        <time>2019-11-12T15:07:38.001Z</time>
      </trkpt>
      <trkpt lat="48.83165" lon="-0.9384">
        <ele>176.805</ele>
        <time>2019-11-12T15:08:11.001Z</time>
      </trkpt>
      <trkpt lat="48.83246" lon="-0.93855">
        <ele>180.055</ele>
        <time>2019-11-12T15:08:41.001Z</time>
      </trkpt>
      <trkpt lat="48.83337" lon="-0.93865">
        <ele>178.73</ele>
        <time>2019-11-12T15:09:14.001Z</time>
      </trkpt>
      <trkpt lat="48.83372" lon="-0.93871">
        <ele>179.375</ele>
        <time>2019-11-12T15:13:08.001Z</time>
      </trkpt>
      <trkpt lat="48.83442" lon="-0.93882">
        <ele>185.117</ele>
        <time>2019-11-12T15:13:38.001Z</time>
      </trkpt>
      <trkpt lat="48.83539" lon="-0.93902">
        <ele>188.5</ele>
        <time>2019-11-12T15:14:11.001Z</time>
      </trkpt>
      <trkpt lat="48.83675" lon="-0.93926">
        <ele>190.747</ele>
        <time>2019-11-12T15:14:44.001Z</time>
      </trkpt>
      <trkpt lat="48.83831" lon="-0.93938">
        <ele>181.708</ele>
        <time>2019-11-12T15:15:14.001Z</time>
      </trkpt>
      <trkpt lat="48.84008" lon="-0.93896">
        <ele>172.455</ele>
        <time>2019-11-12T15:15:47.001Z</time>
      </trkpt>
      <trkpt lat="48.84159" lon="-0.93775">
        <ele>168.404</ele>
        <time>2019-11-12T15:16:20.001Z</time>
      </trkpt>
      <trkpt lat="48.84248" lon="-0.93677">
        <ele>159.447</ele>
        <time>2019-11-12T15:16:50.001Z</time>
      </trkpt>
      <trkpt lat="48.84352" lon="-0.93471">
        <ele>156.534</ele>
        <time>2019-11-12T15:17:23.001Z</time>
      </trkpt>
      <trkpt lat="48.84433" lon="-0.93263">
        <ele>155.318</ele>
        <time>2019-11-12T15:17:56.001Z</time>
      </trkpt>
      <trkpt lat="48.8453" lon="-0.93024">
        <ele>153.13</ele>
        <time>2019-11-12T15:18:26.001Z</time>
      </trkpt>
      <trkpt lat="48.84612" lon="-0.92813">
        <ele>148.582</ele>
        <time>2019-11-12T15:18:59.001Z</time>
      </trkpt>
      <trkpt lat="48.84701" lon="-0.9258">
        <ele>139.686</ele>
        <time>2019-11-12T15:19:32.001Z</time>
      </trkpt>
      <trkpt lat="48.84767" lon="-0.92337">
        <ele>142.426</ele>
        <time>2019-11-12T15:20:02Z</time>
      </trkpt>
      <trkpt lat="48.84854" lon="-0.92215">
        <ele>139.771</ele>
        <time>2019-11-12T15:20:35.001Z</time>
      </trkpt>
      <trkpt lat="48.85003" lon="-0.92048">
        <ele>135.113</ele>
        <time>2019-11-12T15:21:08.001Z</time>
      </trkpt>
      <trkpt lat="48.85022" lon="-0.91911">
        <ele>132.43</ele>
        <time>2019-11-12T15:21:38.001Z</time>
      </trkpt>
      <trkpt lat="48.84914" lon="-0.9166">
        <ele>126.214</ele>
        <time>2019-11-12T15:22:11.001Z</time>
      </trkpt>
      <trkpt lat="48.84834" lon="-0.91439">
        <ele>124.93</ele>
        <time>2019-11-12T15:22:44.001Z</time>
      </trkpt>
      <trkpt lat="48.84733" lon="-0.91157">
        <ele>122.318</ele>
        <time>2019-11-12T15:23:14.001Z</time>
      </trkpt>
      <trkpt lat="48.84832" lon="-0.90963">
        <ele>116.809</ele>
        <time>2019-11-12T15:23:47.001Z</time>
      </trkpt>
      <trkpt lat="48.85016" lon="-0.90792">
        <ele>111.763</ele>
        <time>2019-11-12T15:24:20.001Z</time>
      </trkpt>
      <trkpt lat="48.84996" lon="-0.90676">
        <ele>112.075</ele>
        <time>2019-11-12T15:24:50.001Z</time>
      </trkpt>
      <trkpt lat="48.85027" lon="-0.90587">
        <ele>111.544</ele>
        <time>2019-11-12T15:25:23.001Z</time>
      </trkpt>
      <trkpt lat="48.84956" lon="-0.90464">
        <ele>111.221</ele>
        <time>2019-11-12T15:25:56.001Z</time>
      </trkpt>
      <trkpt lat="48.8487" lon="-0.90306">
        <ele>104.843</ele>
        <time>2019-11-12T15:26:26.001Z</time>
      </trkpt>
      <trkpt lat="48.84799" lon="-0.90107">
        <ele>107.14</ele>
        <time>2019-11-12T15:26:59.001Z</time>
      </trkpt>
      <trkpt lat="48.84718" lon="-0.89943">
        <ele>105.656</ele>
        <time>2019-11-12T15:27:32.001Z</time>
      </trkpt>
      <trkpt lat="48.84624" lon="-0.89837">
        <ele>108.635</ele>
        <time>2019-11-12T15:28:02Z</time>
      </trkpt>
      <trkpt lat="48.84542" lon="-0.89729">
        <ele>116.506</ele>
        <time>2019-11-12T15:28:35.001Z</time>
      </trkpt>
      <trkpt lat="48.84553" lon="-0.89612">
        <ele>107.124</ele>
        <time>2019-11-12T15:29:05.001Z</time>
      </trkpt>
      <trkpt lat="48.8452" lon="-0.89515">
        <ele>113.545</ele>
        <time>2019-11-12T15:29:38.001Z</time>
      </trkpt>
      <trkpt lat="48.84461" lon="-0.89582">
        <ele>123.384</ele>
        <time>2019-11-12T15:30:11.001Z</time>
      </trkpt>
      <trkpt lat="48.84436" lon="-0.89674">
        <ele>126.76</ele>
        <time>2019-11-12T15:30:41.001Z</time>
      </trkpt>
      <trkpt lat="48.84412" lon="-0.89767">
        <ele>133.514</ele>
        <time>2019-11-12T15:31:14.001Z</time>
      </trkpt>
      <trkpt lat="48.84375" lon="-0.89848">
        <ele>141.043</ele>
        <time>2019-11-12T15:31:47.001Z</time>
      </trkpt>
      <trkpt lat="48.84328" lon="-0.89915">
        <ele>145.864</ele>
        <time>2019-11-12T15:32:17.001Z</time>
      </trkpt>
      <trkpt lat="48.84267" lon="-0.89953">
        <ele>147.48</ele>
        <time>2019-11-12T15:32:50.001Z</time>
      </trkpt>
      <trkpt lat="48.84243" lon="-0.89867">
        <ele>147.319</ele>
        <time>2019-11-12T15:33:23.001Z</time>
      </trkpt>
      <trkpt lat="48.84244" lon="-0.89774">
        <ele>151.419</ele>
        <time>2019-11-12T15:33:53.001Z</time>
      </trkpt>
      <trkpt lat="48.84211" lon="-0.89687">
        <ele>155.397</ele>
        <time>2019-11-12T15:34:26.001Z</time>
      </trkpt>
      <trkpt lat="48.84148" lon="-0.89643">
        <ele>165.56</ele>
        <time>2019-11-12T15:34:59.001Z</time>
      </trkpt>
      <trkpt lat="48.8409" lon="-0.89604">
        <ele>166.528</ele>
        <time>2019-11-12T15:35:29.001Z</time>
      </trkpt>
      <trkpt lat="48.84033" lon="-0.89553">
        <ele>171.532</ele>
        <time>2019-11-12T15:36:02Z</time>
      </trkpt>
      <trkpt lat="48.84017" lon="-0.89444">
        <ele>175.968</ele>
        <time>2019-11-12T15:36:35.001Z</time>
      </trkpt>
      <trkpt lat="48.84" lon="-0.89334">
        <ele>177.002</ele>
        <time>2019-11-12T15:37:05.001Z</time>
      </trkpt>
      <trkpt lat="48.83994" lon="-0.89175">
        <ele>185.409</ele>
        <time>2019-11-12T15:37:38.001Z</time>
      </trkpt>
      <trkpt lat="48.83982" lon="-0.89066">
        <ele>186.118</ele>
        <time>2019-11-12T15:38:56.001Z</time>
      </trkpt>
    </trkseg>
  </trk>
  <trk>
    <name><![CDATA[Tracé 20191113-083803]]></name>
    <trkseg>
      <trkpt lat="48.83958" lon="-0.89028">
        <ele>168.993</ele>
        <time>2019-11-13T07:41:51Z</time>
      </trkpt>
      <trkpt lat="48.84033" lon="-0.89071">
        <ele>180.421</ele>
        <time>2019-11-13T07:45:24Z</time>
      </trkpt>
      <trkpt lat="48.8439" lon="-0.8877">
        <ele>150.43</ele>
        <time>2019-11-13T07:45:58Z</time>
      </trkpt>
      <trkpt lat="48.84666" lon="-0.88525">
        <ele>125.073</ele>
        <time>2019-11-13T07:46:31Z</time>
      </trkpt>
      <trkpt lat="48.84746" lon="-0.88382">
        <ele>124.054</ele>
        <time>2019-11-13T07:47:01Z</time>
      </trkpt>
      <trkpt lat="48.84851" lon="-0.88419">
        <ele>128.473</ele>
        <time>2019-11-13T07:47:52Z</time>
      </trkpt>
      <trkpt lat="48.84872" lon="-0.88392">
        <ele>120.741</ele>
        <time>2019-11-13T07:48:25Z</time>
      </trkpt>
      <trkpt lat="48.84857" lon="-0.88318">
        <ele>126.642</ele>
        <time>2019-11-13T07:49:49Z</time>
      </trkpt>
      <trkpt lat="48.84871" lon="-0.88388">
        <ele>127.707</ele>
        <time>2019-11-13T07:50:22Z</time>
      </trkpt>
      <trkpt lat="48.85024" lon="-0.88515">
        <ele>120.886</ele>
        <time>2019-11-13T07:50:55Z</time>
      </trkpt>
      <trkpt lat="48.85204" lon="-0.88516">
        <ele>123.336</ele>
        <time>2019-11-13T07:51:28Z</time>
      </trkpt>
      <trkpt lat="48.85339" lon="-0.88572">
        <ele>118.098</ele>
        <time>2019-11-13T07:52:01Z</time>
      </trkpt>
      <trkpt lat="48.85442" lon="-0.88594">
        <ele>120.635</ele>
        <time>2019-11-13T07:52:34Z</time>
      </trkpt>
      <trkpt lat="48.85635" lon="-0.88641">
        <ele>116.637</ele>
        <time>2019-11-13T07:53:04Z</time>
      </trkpt>
      <trkpt lat="48.85885" lon="-0.8871">
        <ele>109.352</ele>
        <time>2019-11-13T07:53:37Z</time>
      </trkpt>
      <trkpt lat="48.86127" lon="-0.88701">
        <ele>106.52</ele>
        <time>2019-11-13T07:54:10Z</time>
      </trkpt>
      <trkpt lat="48.86342" lon="-0.88595">
        <ele>94.221</ele>
        <time>2019-11-13T07:54:43Z</time>
      </trkpt>
      <trkpt lat="48.86398" lon="-0.88603">
        <ele>97.074</ele>
        <time>2019-11-13T07:55:43Z</time>
      </trkpt>
      <trkpt lat="48.86525" lon="-0.88607">
        <ele>97.678</ele>
        <time>2019-11-13T07:56:16Z</time>
      </trkpt>
      <trkpt lat="48.86662" lon="-0.88589">
        <ele>97.498</ele>
        <time>2019-11-13T07:56:49Z</time>
      </trkpt>
      <trkpt lat="48.86804" lon="-0.88529">
        <ele>96.037</ele>
        <time>2019-11-13T07:57:22Z</time>
      </trkpt>
      <trkpt lat="48.8694" lon="-0.88416">
        <ele>97.472</ele>
        <time>2019-11-13T07:57:52Z</time>
      </trkpt>
      <trkpt lat="48.87061" lon="-0.88281">
        <ele>93.36</ele>
        <time>2019-11-13T07:58:25Z</time>
      </trkpt>
      <trkpt lat="48.87206" lon="-0.88167">
        <ele>87.947</ele>
        <time>2019-11-13T07:58:58Z</time>
      </trkpt>
      <trkpt lat="48.87365" lon="-0.88121">
        <ele>90.936</ele>
        <time>2019-11-13T07:59:31Z</time>
      </trkpt>
      <trkpt lat="48.87472" lon="-0.88124">
        <ele>91.225</ele>
        <time>2019-11-13T08:00:16Z</time>
      </trkpt>
      <trkpt lat="48.87513" lon="-0.88131">
        <ele>89.724</ele>
        <time>2019-11-13T08:00:58Z</time>
      </trkpt>
      <trkpt lat="48.87639" lon="-0.88159">
        <ele>88.968</ele>
        <time>2019-11-13T08:01:31Z</time>
      </trkpt>
      <trkpt lat="48.87784" lon="-0.88191">
        <ele>89.367</ele>
        <time>2019-11-13T08:02:04Z</time>
      </trkpt>
      <trkpt lat="48.87908" lon="-0.88214">
        <ele>90.35</ele>
        <time>2019-11-13T08:02:34Z</time>
      </trkpt>
      <trkpt lat="48.88051" lon="-0.88243">
        <ele>90.586</ele>
        <time>2019-11-13T08:03:07Z</time>
      </trkpt>
      <trkpt lat="48.88197" lon="-0.88273">
        <ele>89.221</ele>
        <time>2019-11-13T08:03:40Z</time>
      </trkpt>
      <trkpt lat="48.88328" lon="-0.883">
        <ele>90.59</ele>
        <time>2019-11-13T08:04:13Z</time>
      </trkpt>
      <trkpt lat="48.88481" lon="-0.88332">
        <ele>89.335</ele>
        <time>2019-11-13T08:04:46Z</time>
      </trkpt>
      <trkpt lat="48.886" lon="-0.88359">
        <ele>88.275</ele>
        <time>2019-11-13T08:05:16Z</time>
      </trkpt>
      <trkpt lat="48.88659" lon="-0.88365">
        <ele>88.902</ele>
        <time>2019-11-13T08:06:13Z</time>
      </trkpt>
      <trkpt lat="48.88766" lon="-0.88391">
        <ele>88.448</ele>
        <time>2019-11-13T08:06:46Z</time>
      </trkpt>
      <trkpt lat="48.88822" lon="-0.88407">
        <ele>86.082</ele>
        <time>2019-11-13T08:07:22.001Z</time>
      </trkpt>
      <trkpt lat="48.88915" lon="-0.88419">
        <ele>86.896</ele>
        <time>2019-11-13T08:07:52.001Z</time>
      </trkpt>
      <trkpt lat="48.8906" lon="-0.88403">
        <ele>93.693</ele>
        <time>2019-11-13T08:08:25.001Z</time>
      </trkpt>
      <trkpt lat="48.89198" lon="-0.88388">
        <ele>92.952</ele>
        <time>2019-11-13T08:08:58.001Z</time>
      </trkpt>
      <trkpt lat="48.89344" lon="-0.88379">
        <ele>91.414</ele>
        <time>2019-11-13T08:09:31.001Z</time>
      </trkpt>
      <trkpt lat="48.89382" lon="-0.88502">
        <ele>89.276</ele>
        <time>2019-11-13T08:10:01.001Z</time>
      </trkpt>
      <trkpt lat="48.89381" lon="-0.88717">
        <ele>92.572</ele>
        <time>2019-11-13T08:10:34.001Z</time>
      </trkpt>
      <trkpt lat="48.89381" lon="-0.88812">
        <ele>93.071</ele>
        <time>2019-11-13T08:11:07.001Z</time>
      </trkpt>
      <trkpt lat="48.89442" lon="-0.88861">
        <ele>99.723</ele>
        <time>2019-11-13T08:11:43.001Z</time>
      </trkpt>
      <trkpt lat="48.89552" lon="-0.88884">
        <ele>101.075</ele>
        <time>2019-11-13T08:12:13.001Z</time>
      </trkpt>
      <trkpt lat="48.89669" lon="-0.88909">
        <ele>101.999</ele>
        <time>2019-11-13T08:12:46.001Z</time>
      </trkpt>
      <trkpt lat="48.89792" lon="-0.88955">
        <ele>98.932</ele>
        <time>2019-11-13T08:13:19.001Z</time>
      </trkpt>
      <trkpt lat="48.89996" lon="-0.88967">
        <ele>90.552</ele>
        <time>2019-11-13T08:13:52.001Z</time>
      </trkpt>
      <trkpt lat="48.90155" lon="-0.89082">
        <ele>90.667</ele>
        <time>2019-11-13T08:14:22.001Z</time>
      </trkpt>
      <trkpt lat="48.90315" lon="-0.89033">
        <ele>87.124</ele>
        <time>2019-11-13T08:14:55.001Z</time>
      </trkpt>
      <trkpt lat="48.90516" lon="-0.89118">
        <ele>83.62</ele>
        <time>2019-11-13T08:15:28.001Z</time>
      </trkpt>
      <trkpt lat="48.90696" lon="-0.89161">
        <ele>81.852</ele>
        <time>2019-11-13T08:16:01.001Z</time>
      </trkpt>
      <trkpt lat="48.90793" lon="-0.89186">
        <ele>85.075</ele>
        <time>2019-11-13T08:16:34.001Z</time>
      </trkpt>
      <trkpt lat="48.90845" lon="-0.89217">
        <ele>89.3</ele>
        <time>2019-11-13T08:17:04.001Z</time>
      </trkpt>
      <trkpt lat="48.90896" lon="-0.89246">
        <ele>96.597</ele>
        <time>2019-11-13T08:17:37.001Z</time>
      </trkpt>
      <trkpt lat="48.9095" lon="-0.89279">
        <ele>101.968</ele>
        <time>2019-11-13T08:18:13.001Z</time>
      </trkpt>
      <trkpt lat="48.9101" lon="-0.89317">
        <ele>107.22</ele>
        <time>2019-11-13T08:18:46.001Z</time>
      </trkpt>
      <trkpt lat="48.91079" lon="-0.8936">
        <ele>110.603</ele>
        <time>2019-11-13T08:19:16Z</time>
      </trkpt>
      <trkpt lat="48.91166" lon="-0.89408">
        <ele>109.799</ele>
        <time>2019-11-13T08:19:49.001Z</time>
      </trkpt>
      <trkpt lat="48.91257" lon="-0.89399">
        <ele>112.339</ele>
        <time>2019-11-13T08:20:22.001Z</time>
      </trkpt>
      <trkpt lat="48.91334" lon="-0.89337">
        <ele>113.534</ele>
        <time>2019-11-13T08:20:55.001Z</time>
      </trkpt>
      <trkpt lat="48.91396" lon="-0.89248">
        <ele>116.363</ele>
        <time>2019-11-13T08:21:25.001Z</time>
      </trkpt>
      <trkpt lat="48.9147" lon="-0.89141">
        <ele>117.102</ele>
        <time>2019-11-13T08:21:58.001Z</time>
      </trkpt>
      <trkpt lat="48.91595" lon="-0.88972">
        <ele>114.488</ele>
        <time>2019-11-13T08:22:31.001Z</time>
      </trkpt>
      <trkpt lat="48.91696" lon="-0.88865">
        <ele>108.499</ele>
        <time>2019-11-13T08:29:40.001Z</time>
      </trkpt>
      <trkpt lat="48.91862" lon="-0.88765">
        <ele>99.24</ele>
        <time>2019-11-13T08:30:10.001Z</time>
      </trkpt>
      <trkpt lat="48.9208" lon="-0.88778">
        <ele>90.738</ele>
        <time>2019-11-13T08:30:43.001Z</time>
      </trkpt>
      <trkpt lat="48.9223" lon="-0.88717">
        <ele>90.181</ele>
        <time>2019-11-13T08:31:16Z</time>
      </trkpt>
      <trkpt lat="48.92434" lon="-0.88735">
        <ele>79.808</ele>
        <time>2019-11-13T08:31:52.001Z</time>
      </trkpt>
      <trkpt lat="48.92548" lon="-0.8878">
        <ele>79.257</ele>
        <time>2019-11-13T08:32:22.001Z</time>
      </trkpt>
      <trkpt lat="48.92671" lon="-0.88951">
        <ele>80.565</ele>
        <time>2019-11-13T08:32:55.001Z</time>
      </trkpt>
      <trkpt lat="48.92784" lon="-0.8913">
        <ele>80.602</ele>
        <time>2019-11-13T08:33:28.001Z</time>
      </trkpt>
      <trkpt lat="48.9289" lon="-0.89271">
        <ele>80.403</ele>
        <time>2019-11-13T08:34:01.001Z</time>
      </trkpt>
      <trkpt lat="48.93029" lon="-0.89324">
        <ele>81.68</ele>
        <time>2019-11-13T08:34:34.001Z</time>
      </trkpt>
      <trkpt lat="48.93186" lon="-0.89355">
        <ele>81.38</ele>
        <time>2019-11-13T08:35:04.001Z</time>
      </trkpt>
      <trkpt lat="48.93326" lon="-0.89399">
        <ele>80.345</ele>
        <time>2019-11-13T08:35:37.001Z</time>
      </trkpt>
      <trkpt lat="48.93484" lon="-0.89469">
        <ele>81.907</ele>
        <time>2019-11-13T08:36:10.001Z</time>
      </trkpt>
      <trkpt lat="48.93592" lon="-0.89583">
        <ele>86.053</ele>
        <time>2019-11-13T08:36:43.001Z</time>
      </trkpt>
      <trkpt lat="48.9371" lon="-0.89657">
        <ele>90.865</ele>
        <time>2019-11-13T08:37:13.001Z</time>
      </trkpt>
      <trkpt lat="48.93746" lon="-0.89697">
        <ele>90.334</ele>
        <time>2019-11-13T08:37:52.001Z</time>
      </trkpt>
      <trkpt lat="48.93801" lon="-0.89754">
        <ele>95.826</ele>
        <time>2019-11-13T08:38:31.001Z</time>
      </trkpt>
      <trkpt lat="48.93859" lon="-0.898">
        <ele>100.108</ele>
        <time>2019-11-13T08:39:10.001Z</time>
      </trkpt>
      <trkpt lat="48.93917" lon="-0.89808">
        <ele>105.153</ele>
        <time>2019-11-13T08:39:46.001Z</time>
      </trkpt>
      <trkpt lat="48.93987" lon="-0.89822">
        <ele>108.168</ele>
        <time>2019-11-13T08:40:25.001Z</time>
      </trkpt>
      <trkpt lat="48.94051" lon="-0.89804">
        <ele>112.618</ele>
        <time>2019-11-13T08:41:07.001Z</time>
      </trkpt>
      <trkpt lat="48.94117" lon="-0.8986">
        <ele>118.747</ele>
        <time>2019-11-13T08:42:01.001Z</time>
      </trkpt>
      <trkpt lat="48.94139" lon="-0.89877">
        <ele>121.108</ele>
        <time>2019-11-13T08:43:25.001Z</time>
      </trkpt>
      <trkpt lat="48.94199" lon="-0.89869">
        <ele>118.659</ele>
        <time>2019-11-13T08:44:04.001Z</time>
      </trkpt>
      <trkpt lat="48.94255" lon="-0.89946">
        <ele>122.618</ele>
        <time>2019-11-13T08:44:40.001Z</time>
      </trkpt>
      <trkpt lat="48.94319" lon="-0.89988">
        <ele>131.771</ele>
        <time>2019-11-13T08:45:16Z</time>
      </trkpt>
      <trkpt lat="48.94391" lon="-0.89993">
        <ele>133.296</ele>
        <time>2019-11-13T08:45:46.001Z</time>
      </trkpt>
      <trkpt lat="48.94457" lon="-0.89982">
        <ele>137.347</ele>
        <time>2019-11-13T08:46:22.001Z</time>
      </trkpt>
      <trkpt lat="48.94575" lon="-0.89941">
        <ele>129.823</ele>
        <time>2019-11-13T08:46:55.001Z</time>
      </trkpt>
      <trkpt lat="48.94733" lon="-0.8986">
        <ele>115.255</ele>
        <time>2019-11-13T08:47:28.001Z</time>
      </trkpt>
      <trkpt lat="48.94868" lon="-0.89612">
        <ele>86.235</ele>
        <time>2019-11-13T08:48:01.001Z</time>
      </trkpt>
      <trkpt lat="48.94944" lon="-0.89429">
        <ele>65.965</ele>
        <time>2019-11-13T08:48:31.001Z</time>
      </trkpt>
      <trkpt lat="48.94963" lon="-0.89324">
        <ele>63.277</ele>
        <time>2019-11-13T08:49:04.001Z</time>
      </trkpt>
      <trkpt lat="48.94923" lon="-0.89226">
        <ele>67.262</ele>
        <time>2019-11-13T08:49:37.001Z</time>
      </trkpt>
      <trkpt lat="48.94876" lon="-0.89047">
        <ele>70.451</ele>
        <time>2019-11-13T08:50:10.001Z</time>
      </trkpt>
      <trkpt lat="48.9488" lon="-0.88947">
        <ele>79.673</ele>
        <time>2019-11-13T08:50:40.001Z</time>
      </trkpt>
      <trkpt lat="48.94948" lon="-0.88961">
        <ele>89.747</ele>
        <time>2019-11-13T08:51:16Z</time>
      </trkpt>
      <trkpt lat="48.9501" lon="-0.88941">
        <ele>101.346</ele>
        <time>2019-11-13T08:51:52.001Z</time>
      </trkpt>
      <trkpt lat="48.95076" lon="-0.8892">
        <ele>106.245</ele>
        <time>2019-11-13T08:52:25.001Z</time>
      </trkpt>
      <trkpt lat="48.95129" lon="-0.88898">
        <ele>112.762</ele>
        <time>2019-11-13T08:52:55.001Z</time>
      </trkpt>
      <trkpt lat="48.95195" lon="-0.8887">
        <ele>117.512</ele>
        <time>2019-11-13T08:53:28.001Z</time>
      </trkpt>
      <trkpt lat="48.9527" lon="-0.88836">
        <ele>117.178</ele>
        <time>2019-11-13T08:54:01.001Z</time>
      </trkpt>
      <trkpt lat="48.95336" lon="-0.88808">
        <ele>116.448</ele>
        <time>2019-11-13T08:54:34.001Z</time>
      </trkpt>
      <trkpt lat="48.95396" lon="-0.88776">
        <ele>121.813</ele>
        <time>2019-11-13T08:55:07.001Z</time>
      </trkpt>
      <trkpt lat="48.95471" lon="-0.88733">
        <ele>117.252</ele>
        <time>2019-11-13T08:55:40.001Z</time>
      </trkpt>
      <trkpt lat="48.95548" lon="-0.88666">
        <ele>118.329</ele>
        <time>2019-11-13T08:56:13.001Z</time>
      </trkpt>
      <trkpt lat="48.95623" lon="-0.88645">
        <ele>126.044</ele>
        <time>2019-11-13T08:56:46.001Z</time>
      </trkpt>
      <trkpt lat="48.95724" lon="-0.88696">
        <ele>126.698</ele>
        <time>2019-11-13T08:57:16Z</time>
      </trkpt>
      <trkpt lat="48.95786" lon="-0.88782">
        <ele>141.562</ele>
        <time>2019-11-13T08:57:49.001Z</time>
      </trkpt>
      <trkpt lat="48.95847" lon="-0.88835">
        <ele>140.771</ele>
        <time>2019-11-13T08:58:25.001Z</time>
      </trkpt>
      <trkpt lat="48.95913" lon="-0.88813">
        <ele>137.35</ele>
        <time>2019-11-13T08:58:58.001Z</time>
      </trkpt>
      <trkpt lat="48.95981" lon="-0.88789">
        <ele>140.483</ele>
        <time>2019-11-13T08:59:31.001Z</time>
      </trkpt>
      <trkpt lat="48.9604" lon="-0.88776">
        <ele>145.504</ele>
        <time>2019-11-13T09:00:04.001Z</time>
      </trkpt>
      <trkpt lat="48.9613" lon="-0.88746">
        <ele>155.675</ele>
        <time>2019-11-13T09:00:37.001Z</time>
      </trkpt>
      <trkpt lat="48.9625" lon="-0.88779">
        <ele>147.446</ele>
        <time>2019-11-13T09:01:10.001Z</time>
      </trkpt>
      <trkpt lat="48.96269" lon="-0.88918">
        <ele>140.359</ele>
        <time>2019-11-13T09:01:43.001Z</time>
      </trkpt>
      <trkpt lat="48.96299" lon="-0.89002">
        <ele>147.032</ele>
        <time>2019-11-13T09:02:13.001Z</time>
      </trkpt>
      <trkpt lat="48.96335" lon="-0.89093">
        <ele>149.903</ele>
        <time>2019-11-13T09:02:46.001Z</time>
      </trkpt>
      <trkpt lat="48.96375" lon="-0.89195">
        <ele>153.652</ele>
        <time>2019-11-13T09:03:19.001Z</time>
      </trkpt>
      <trkpt lat="48.9642" lon="-0.89309">
        <ele>154.73</ele>
        <time>2019-11-13T09:03:52.001Z</time>
      </trkpt>
      <trkpt lat="48.96462" lon="-0.89418">
        <ele>154.996</ele>
        <time>2019-11-13T09:04:22.001Z</time>
      </trkpt>
      <trkpt lat="48.9651" lon="-0.89538">
        <ele>156.574</ele>
        <time>2019-11-13T09:04:55.001Z</time>
      </trkpt>
      <trkpt lat="48.96577" lon="-0.89651">
        <ele>157.379</ele>
        <time>2019-11-13T09:05:28.001Z</time>
      </trkpt>
      <trkpt lat="48.9665" lon="-0.89762">
        <ele>158.609</ele>
        <time>2019-11-13T09:06:01.001Z</time>
      </trkpt>
      <trkpt lat="48.96704" lon="-0.89801">
        <ele>164.029</ele>
        <time>2019-11-13T09:06:31.001Z</time>
      </trkpt>
      <trkpt lat="48.96786" lon="-0.89732">
        <ele>166.139</ele>
        <time>2019-11-13T09:07:04.001Z</time>
      </trkpt>
      <trkpt lat="48.96888" lon="-0.89673">
        <ele>164.433</ele>
        <time>2019-11-13T09:07:37.001Z</time>
      </trkpt>
      <trkpt lat="48.96972" lon="-0.896">
        <ele>166.342</ele>
        <time>2019-11-13T09:08:10.001Z</time>
      </trkpt>
      <trkpt lat="48.97055" lon="-0.89546">
        <ele>169.771</ele>
        <time>2019-11-13T09:08:40.001Z</time>
      </trkpt>
      <trkpt lat="48.97191" lon="-0.89432">
        <ele>169.073</ele>
        <time>2019-11-13T09:09:13.001Z</time>
      </trkpt>
      <trkpt lat="48.97305" lon="-0.89322">
        <ele>168.43</ele>
        <time>2019-11-13T09:09:46.001Z</time>
      </trkpt>
      <trkpt lat="48.97369" lon="-0.89273">
        <ele>172.581</ele>
        <time>2019-11-13T09:10:19.001Z</time>
      </trkpt>
      <trkpt lat="48.97456" lon="-0.89216">
        <ele>176.916</ele>
        <time>2019-11-13T09:10:52.001Z</time>
      </trkpt>
      <trkpt lat="48.97512" lon="-0.89147">
        <ele>177.827</ele>
        <time>2019-11-13T09:11:22.001Z</time>
      </trkpt>
      <trkpt lat="48.97558" lon="-0.89051">
        <ele>182.649</ele>
        <time>2019-11-13T09:11:55.001Z</time>
      </trkpt>
      <trkpt lat="48.97642" lon="-0.89074">
        <ele>184.101</ele>
        <time>2019-11-13T09:12:28.001Z</time>
      </trkpt>
      <trkpt lat="48.97728" lon="-0.89083">
        <ele>187.577</ele>
        <time>2019-11-13T09:13:01.001Z</time>
      </trkpt>
      <trkpt lat="48.97851" lon="-0.89074">
        <ele>190.678</ele>
        <time>2019-11-13T09:13:31.001Z</time>
      </trkpt>
      <trkpt lat="48.98089" lon="-0.88906">
        <ele>174.802</ele>
        <time>2019-11-13T09:14:04.001Z</time>
      </trkpt>
      <trkpt lat="48.98367" lon="-0.88615">
        <ele>144.893</ele>
        <time>2019-11-13T09:14:37.001Z</time>
      </trkpt>
      <trkpt lat="48.98572" lon="-0.88467">
        <ele>129.115</ele>
        <time>2019-11-13T09:15:13.001Z</time>
      </trkpt>
      <trkpt lat="48.98634" lon="-0.88474">
        <ele>151.128</ele>
        <time>2019-11-13T09:16:01.001Z</time>
      </trkpt>
      <trkpt lat="48.9869" lon="-0.88419">
        <ele>159.722</ele>
        <time>2019-11-13T09:16:55.001Z</time>
      </trkpt>
      <trkpt lat="48.98729" lon="-0.8835">
        <ele>165.891</ele>
        <time>2019-11-13T09:17:37.001Z</time>
      </trkpt>
      <trkpt lat="48.98778" lon="-0.88293">
        <ele>176.537</ele>
        <time>2019-11-13T09:18:22.001Z</time>
      </trkpt>
      <trkpt lat="48.98841" lon="-0.88248">
        <ele>180.995</ele>
        <time>2019-11-13T09:19:07.001Z</time>
      </trkpt>
      <trkpt lat="48.98897" lon="-0.88216">
        <ele>189.069</ele>
        <time>2019-11-13T09:19:43.001Z</time>
      </trkpt>
      <trkpt lat="48.98961" lon="-0.88181">
        <ele>192.592</ele>
        <time>2019-11-13T09:20:16Z</time>
      </trkpt>
      <trkpt lat="48.99091" lon="-0.88105">
        <ele>193.945</ele>
        <time>2019-11-13T09:20:49.001Z</time>
      </trkpt>
      <trkpt lat="48.9931" lon="-0.87964">
        <ele>178.447</ele>
        <time>2019-11-13T09:21:19.001Z</time>
      </trkpt>
      <trkpt lat="48.99452" lon="-0.8788">
        <ele>175.514</ele>
        <time>2019-11-13T09:21:52.001Z</time>
      </trkpt>
      <trkpt lat="48.99631" lon="-0.87773">
        <ele>174.284</ele>
        <time>2019-11-13T09:22:25.001Z</time>
      </trkpt>
      <trkpt lat="48.99731" lon="-0.87712">
        <ele>171.345</ele>
        <time>2019-11-13T09:22:58.001Z</time>
      </trkpt>
      <trkpt lat="48.99785" lon="-0.87657">
        <ele>174.63</ele>
        <time>2019-11-13T09:23:37.001Z</time>
      </trkpt>
      <trkpt lat="48.99825" lon="-0.87599">
        <ele>184.52</ele>
        <time>2019-11-13T09:24:13.001Z</time>
      </trkpt>
      <trkpt lat="48.99872" lon="-0.87538">
        <ele>185.299</ele>
        <time>2019-11-13T09:24:46.001Z</time>
      </trkpt>
      <trkpt lat="48.99926" lon="-0.87463">
        <ele>186.322</ele>
        <time>2019-11-13T09:25:19.001Z</time>
      </trkpt>
      <trkpt lat="48.99999" lon="-0.87364">
        <ele>184.795</ele>
        <time>2019-11-13T09:25:52.001Z</time>
      </trkpt>
      <trkpt lat="49.00123" lon="-0.8715">
        <ele>179.042</ele>
        <time>2019-11-13T09:26:22.001Z</time>
      </trkpt>
      <trkpt lat="49.00079" lon="-0.87043">
        <ele>181.161</ele>
        <time>2019-11-13T09:26:55.001Z</time>
      </trkpt>
      <trkpt lat="49.00053" lon="-0.86898">
        <ele>182.325</ele>
        <time>2019-11-13T09:27:28.001Z</time>
      </trkpt>
      <trkpt lat="49.00102" lon="-0.86684">
        <ele>183.552</ele>
        <time>2019-11-13T09:28:01.001Z</time>
      </trkpt>
      <trkpt lat="49.00138" lon="-0.86582">
        <ele>188.309</ele>
        <time>2019-11-13T09:28:31.001Z</time>
      </trkpt>
      <trkpt lat="49.00163" lon="-0.86489">
        <ele>194.399</ele>
        <time>2019-11-13T09:29:07.001Z</time>
      </trkpt>
      <trkpt lat="49.00198" lon="-0.86382">
        <ele>193.089</ele>
        <time>2019-11-13T09:29:40.001Z</time>
      </trkpt>
      <trkpt lat="49.00252" lon="-0.86292">
        <ele>199.132</ele>
        <time>2019-11-13T09:30:13.001Z</time>
      </trkpt>
      <trkpt lat="49.00298" lon="-0.86175">
        <ele>202.067</ele>
        <time>2019-11-13T09:30:43.001Z</time>
      </trkpt>
      <trkpt lat="49.00418" lon="-0.85935">
        <ele>190.535</ele>
        <time>2019-11-13T09:31:16Z</time>
      </trkpt>
      <trkpt lat="49.00532" lon="-0.85524">
        <ele>169.542</ele>
        <time>2019-11-13T09:31:49.001Z</time>
      </trkpt>
      <trkpt lat="49.0056" lon="-0.85431">
        <ele>172.653</ele>
        <time>2019-11-13T09:32:31.001Z</time>
      </trkpt>
      <trkpt lat="49.00604" lon="-0.85348">
        <ele>183.637</ele>
        <time>2019-11-13T09:33:22.001Z</time>
      </trkpt>
      <trkpt lat="49.00676" lon="-0.85312">
        <ele>187.474</ele>
        <time>2019-11-13T09:34:04.001Z</time>
      </trkpt>
      <trkpt lat="49.00747" lon="-0.85285">
        <ele>193.141</ele>
        <time>2019-11-13T09:34:37.001Z</time>
      </trkpt>
      <trkpt lat="49.0082" lon="-0.85233">
        <ele>196.525</ele>
        <time>2019-11-13T09:35:10.001Z</time>
      </trkpt>
      <trkpt lat="49.00855" lon="-0.85106">
        <ele>198.272</ele>
        <time>2019-11-13T09:35:43.001Z</time>
      </trkpt>
      <trkpt lat="49.00874" lon="-0.84972">
        <ele>199.99</ele>
        <time>2019-11-13T09:36:13.001Z</time>
      </trkpt>
      <trkpt lat="49.0089" lon="-0.84829">
        <ele>200.24</ele>
        <time>2019-11-13T09:36:46.001Z</time>
      </trkpt>
      <trkpt lat="49.00899" lon="-0.84794">
        <ele>202.22</ele>
        <time>2019-11-13T09:41:04.001Z</time>
      </trkpt>
      <trkpt lat="49.00958" lon="-0.84755">
        <ele>205.897</ele>
        <time>2019-11-13T09:41:37.001Z</time>
      </trkpt>
      <trkpt lat="49.01043" lon="-0.84808">
        <ele>215.221</ele>
        <time>2019-11-13T09:42:07.001Z</time>
      </trkpt>
      <trkpt lat="49.01125" lon="-0.8479">
        <ele>213.851</ele>
        <time>2019-11-13T09:42:40.001Z</time>
      </trkpt>
      <trkpt lat="49.01146" lon="-0.84624">
        <ele>216.017</ele>
        <time>2019-11-13T09:43:13.001Z</time>
      </trkpt>
      <trkpt lat="49.01175" lon="-0.84485">
        <ele>216.491</ele>
        <time>2019-11-13T09:43:58.001Z</time>
      </trkpt>
      <trkpt lat="49.0129" lon="-0.84381">
        <ele>219.164</ele>
        <time>2019-11-13T09:44:31.001Z</time>
      </trkpt>
      <trkpt lat="49.0148" lon="-0.84189">
        <ele>204.289</ele>
        <time>2019-11-13T09:45:04.001Z</time>
      </trkpt>
      <trkpt lat="49.01707" lon="-0.83967">
        <ele>194.273</ele>
        <time>2019-11-13T09:45:37.001Z</time>
      </trkpt>
      <trkpt lat="49.02001" lon="-0.83678">
        <ele>178.504</ele>
        <time>2019-11-13T09:46:10.001Z</time>
      </trkpt>
      <trkpt lat="49.02271" lon="-0.8343">
        <ele>164.161</ele>
        <time>2019-11-13T09:46:40.001Z</time>
      </trkpt>
      <trkpt lat="49.02473" lon="-0.83274">
        <ele>164.404</ele>
        <time>2019-11-13T09:47:13.001Z</time>
      </trkpt>
      <trkpt lat="49.02615" lon="-0.83398">
        <ele>165.261</ele>
        <time>2019-11-13T09:47:46.001Z</time>
      </trkpt>
      <trkpt lat="49.02699" lon="-0.8333">
        <ele>169.248</ele>
        <time>2019-11-13T09:48:19.001Z</time>
      </trkpt>
      <trkpt lat="49.02808" lon="-0.8339">
        <ele>167.398</ele>
        <time>2019-11-13T09:48:49.001Z</time>
      </trkpt>
      <trkpt lat="49.03037" lon="-0.83475">
        <ele>161.133</ele>
        <time>2019-11-13T09:49:22.001Z</time>
      </trkpt>
      <trkpt lat="49.03286" lon="-0.83191">
        <ele>147.14</ele>
        <time>2019-11-13T09:49:55.001Z</time>
      </trkpt>
      <trkpt lat="49.03382" lon="-0.83072">
        <ele>150.846</ele>
        <time>2019-11-13T09:50:28.001Z</time>
      </trkpt>
      <trkpt lat="49.03467" lon="-0.83007">
        <ele>163.436</ele>
        <time>2019-11-13T09:51:01.001Z</time>
      </trkpt>
      <trkpt lat="49.03545" lon="-0.82957">
        <ele>167.635</ele>
        <time>2019-11-13T09:51:31.001Z</time>
      </trkpt>
      <trkpt lat="49.03614" lon="-0.8291">
        <ele>159.826</ele>
        <time>2019-11-13T09:55:28.001Z</time>
      </trkpt>
      <trkpt lat="49.03751" lon="-0.82832">
        <ele>157.716</ele>
        <time>2019-11-13T09:56:04.001Z</time>
      </trkpt>
      <trkpt lat="49.03928" lon="-0.82727">
        <ele>155.702</ele>
        <time>2019-11-13T09:56:37.002Z</time>
      </trkpt>
      <trkpt lat="49.04103" lon="-0.82622">
        <ele>148.712</ele>
        <time>2019-11-13T09:57:07.001Z</time>
      </trkpt>
      <trkpt lat="49.04344" lon="-0.82481">
        <ele>142.166</ele>
        <time>2019-11-13T09:57:40.001Z</time>
      </trkpt>
      <trkpt lat="49.04614" lon="-0.82459">
        <ele>131.968</ele>
        <time>2019-11-13T09:58:13.001Z</time>
      </trkpt>
      <trkpt lat="49.04829" lon="-0.82475">
        <ele>131.78</ele>
        <time>2019-11-13T09:58:46.001Z</time>
      </trkpt>
      <trkpt lat="49.04974" lon="-0.82478">
        <ele>136.744</ele>
        <time>2019-11-13T09:59:16Z</time>
      </trkpt>
      <trkpt lat="49.0511" lon="-0.82432">
        <ele>138.561</ele>
        <time>2019-11-13T09:59:49.001Z</time>
      </trkpt>
      <trkpt lat="49.05265" lon="-0.8238">
        <ele>136.444</ele>
        <time>2019-11-13T10:00:22.001Z</time>
      </trkpt>
      <trkpt lat="49.05454" lon="-0.82312">
        <ele>135.44</ele>
        <time>2019-11-13T10:00:55.001Z</time>
      </trkpt>
      <trkpt lat="49.05673" lon="-0.82236">
        <ele>129.991</ele>
        <time>2019-11-13T10:01:25.001Z</time>
      </trkpt>
      <trkpt lat="49.05895" lon="-0.82156">
        <ele>131.035</ele>
        <time>2019-11-13T10:01:58.001Z</time>
      </trkpt>
      <trkpt lat="49.06059" lon="-0.82099">
        <ele>125.367</ele>
        <time>2019-11-13T10:02:31.001Z</time>
      </trkpt>
      <trkpt lat="49.06152" lon="-0.82067">
        <ele>129.8</ele>
        <time>2019-11-13T10:03:04.001Z</time>
      </trkpt>
      <trkpt lat="49.06226" lon="-0.82011">
        <ele>133.375</ele>
        <time>2019-11-13T10:03:34.001Z</time>
      </trkpt>
      <trkpt lat="49.06317" lon="-0.81982">
        <ele>136.829</ele>
        <time>2019-11-13T10:04:07.001Z</time>
      </trkpt>
      <trkpt lat="49.06402" lon="-0.81981">
        <ele>139.321</ele>
        <time>2019-11-13T10:04:40.001Z</time>
      </trkpt>
      <trkpt lat="49.06499" lon="-0.8203">
        <ele>142.016</ele>
        <time>2019-11-13T10:05:13.001Z</time>
      </trkpt>
      <trkpt lat="49.06606" lon="-0.8208">
        <ele>143.258</ele>
        <time>2019-11-13T10:05:46.001Z</time>
      </trkpt>
      <trkpt lat="49.06712" lon="-0.82142">
        <ele>144.877</ele>
        <time>2019-11-13T10:06:16Z</time>
      </trkpt>
      <trkpt lat="49.06807" lon="-0.82209">
        <ele>144.743</ele>
        <time>2019-11-13T10:06:49.001Z</time>
      </trkpt>
      <trkpt lat="49.06882" lon="-0.82205">
        <ele>151.457</ele>
        <time>2019-11-13T10:07:22.001Z</time>
      </trkpt>
      <trkpt lat="49.06949" lon="-0.8219">
        <ele>155.059</ele>
        <time>2019-11-13T10:07:55.001Z</time>
      </trkpt>
      <trkpt lat="49.07005" lon="-0.82174">
        <ele>157.348</ele>
        <time>2019-11-13T10:08:25.001Z</time>
      </trkpt>
      <trkpt lat="49.07067" lon="-0.82159">
        <ele>162.501</ele>
        <time>2019-11-13T10:08:58.001Z</time>
      </trkpt>
      <trkpt lat="49.07126" lon="-0.82145">
        <ele>164.324</ele>
        <time>2019-11-13T10:09:31.001Z</time>
      </trkpt>
      <trkpt lat="49.07186" lon="-0.82131">
        <ele>168.555</ele>
        <time>2019-11-13T10:10:04.001Z</time>
      </trkpt>
      <trkpt lat="49.07243" lon="-0.82115">
        <ele>173.529</ele>
        <time>2019-11-13T10:10:34.001Z</time>
      </trkpt>
      <trkpt lat="49.07306" lon="-0.82101">
        <ele>177.01</ele>
        <time>2019-11-13T10:11:07.001Z</time>
      </trkpt>
      <trkpt lat="49.07372" lon="-0.82083">
        <ele>178.876</ele>
        <time>2019-11-13T10:11:40.001Z</time>
      </trkpt>
      <trkpt lat="49.07438" lon="-0.82072">
        <ele>187.212</ele>
        <time>2019-11-13T10:12:13.001Z</time>
      </trkpt>
      <trkpt lat="49.07515" lon="-0.82057">
        <ele>191.387</ele>
        <time>2019-11-13T10:12:43.001Z</time>
      </trkpt>
      <trkpt lat="49.07615" lon="-0.81983">
        <ele>196.816</ele>
        <time>2019-11-13T10:13:16Z</time>
      </trkpt>
      <trkpt lat="49.07717" lon="-0.81873">
        <ele>197.587</ele>
        <time>2019-11-13T10:13:49.001Z</time>
      </trkpt>
      <trkpt lat="49.07831" lon="-0.81781">
        <ele>192.956</ele>
        <time>2019-11-13T10:14:22.001Z</time>
      </trkpt>
      <trkpt lat="49.07937" lon="-0.81664">
        <ele>192.374</ele>
        <time>2019-11-13T10:14:52.001Z</time>
      </trkpt>
      <trkpt lat="49.0806" lon="-0.81497">
        <ele>194.745</ele>
        <time>2019-11-13T10:15:25.001Z</time>
      </trkpt>
      <trkpt lat="49.08177" lon="-0.81329">
        <ele>197.018</ele>
        <time>2019-11-13T10:15:58.001Z</time>
      </trkpt>
      <trkpt lat="49.08303" lon="-0.81225">
        <ele>194.604</ele>
        <time>2019-11-13T10:16:31.001Z</time>
      </trkpt>
      <trkpt lat="49.08373" lon="-0.81112">
        <ele>197.352</ele>
        <time>2019-11-13T10:17:04.001Z</time>
      </trkpt>
      <trkpt lat="49.08433" lon="-0.8106">
        <ele>202.239</ele>
        <time>2019-11-13T10:17:34.001Z</time>
      </trkpt>
      <trkpt lat="49.08487" lon="-0.8101">
        <ele>207.539</ele>
        <time>2019-11-13T10:18:07.001Z</time>
      </trkpt>
      <trkpt lat="49.08541" lon="-0.80959">
        <ele>216.664</ele>
        <time>2019-11-13T10:18:43.001Z</time>
      </trkpt>
      <trkpt lat="49.08591" lon="-0.80905">
        <ele>220.555</ele>
        <time>2019-11-13T10:19:16Z</time>
      </trkpt>
      <trkpt lat="49.08639" lon="-0.80857">
        <ele>224.506</ele>
        <time>2019-11-13T10:19:46.001Z</time>
      </trkpt>
      <trkpt lat="49.08693" lon="-0.808">
        <ele>227.692</ele>
        <time>2019-11-13T10:20:19.001Z</time>
      </trkpt>
      <trkpt lat="49.08745" lon="-0.80745">
        <ele>233.731</ele>
        <time>2019-11-13T10:20:52.001Z</time>
      </trkpt>
      <trkpt lat="49.08796" lon="-0.80693">
        <ele>237.554</ele>
        <time>2019-11-13T10:21:25.001Z</time>
      </trkpt>
      <trkpt lat="49.08841" lon="-0.80645">
        <ele>242.676</ele>
        <time>2019-11-13T10:21:55.001Z</time>
      </trkpt>
      <trkpt lat="49.08901" lon="-0.80602">
        <ele>242.979</ele>
        <time>2019-11-13T10:22:31.001Z</time>
      </trkpt>
      <trkpt lat="49.08967" lon="-0.80586">
        <ele>252.852</ele>
        <time>2019-11-13T10:23:07.001Z</time>
      </trkpt>
      <trkpt lat="49.09047" lon="-0.80594">
        <ele>252.779</ele>
        <time>2019-11-13T10:23:40.001Z</time>
      </trkpt>
      <trkpt lat="49.0906" lon="-0.80513">
        <ele>254.156</ele>
        <time>2019-11-13T10:24:10.001Z</time>
      </trkpt>
      <trkpt lat="49.09056" lon="-0.80521">
        <ele>248.629</ele>
        <time>2019-11-13T10:25:01.001Z</time>
      </trkpt>
      <trkpt lat="49.09052" lon="-0.80532">
        <ele>241.053</ele>
        <time>2019-11-13T10:27:19.001Z</time>
      </trkpt>
      <trkpt lat="49.09052" lon="-0.80526">
        <ele>241.815</ele>
        <time>2019-11-13T10:36:10.001Z</time>
      </trkpt>
      <trkpt lat="49.09053" lon="-0.80535">
        <ele>241.405</ele>
        <time>2019-11-13T10:36:55.001Z</time>
      </trkpt>
      <trkpt lat="49.09065" lon="-0.80531">
        <ele>241.156</ele>
        <time>2019-11-13T10:42:10.001Z</time>
      </trkpt>
      <trkpt lat="49.09068" lon="-0.80472">
        <ele>245.877</ele>
        <time>2019-11-13T10:43:19.001Z</time>
      </trkpt>
      <trkpt lat="49.09125" lon="-0.80334">
        <ele>255.47</ele>
        <time>2019-11-13T10:43:52.001Z</time>
      </trkpt>
      <trkpt lat="49.09347" lon="-0.80009">
        <ele>236.349</ele>
        <time>2019-11-13T10:44:25.001Z</time>
      </trkpt>
      <trkpt lat="49.09581" lon="-0.7963">
        <ele>212.811</ele>
        <time>2019-11-13T10:44:55.001Z</time>
      </trkpt>
      <trkpt lat="49.09841" lon="-0.79206">
        <ele>193.063</ele>
        <time>2019-11-13T10:45:28.001Z</time>
      </trkpt>
      <trkpt lat="49.10106" lon="-0.78768">
        <ele>173.354</ele>
        <time>2019-11-13T10:46:01.001Z</time>
      </trkpt>
      <trkpt lat="49.10376" lon="-0.78324">
        <ele>153.975</ele>
        <time>2019-11-13T10:46:34.001Z</time>
      </trkpt>
      <trkpt lat="49.10546" lon="-0.78036">
        <ele>151.134</ele>
        <time>2019-11-13T10:47:04.001Z</time>
      </trkpt>
      <trkpt lat="49.10609" lon="-0.77947">
        <ele>162.334</ele>
        <time>2019-11-13T10:47:37.001Z</time>
      </trkpt>
      <trkpt lat="49.10663" lon="-0.77852">
        <ele>163.495</ele>
        <time>2019-11-13T10:48:10.001Z</time>
      </trkpt>
      <trkpt lat="49.10741" lon="-0.7772">
        <ele>165.823</ele>
        <time>2019-11-13T10:48:43.001Z</time>
      </trkpt>
      <trkpt lat="49.10841" lon="-0.77558">
        <ele>162.202</ele>
        <time>2019-11-13T10:49:13.001Z</time>
      </trkpt>
      <trkpt lat="49.10971" lon="-0.77344">
        <ele>159.987</ele>
        <time>2019-11-13T10:49:46.001Z</time>
      </trkpt>
      <trkpt lat="49.11125" lon="-0.77091">
        <ele>155.961</ele>
        <time>2019-11-13T10:50:19.001Z</time>
      </trkpt>
      <trkpt lat="49.11305" lon="-0.768">
        <ele>151.295</ele>
        <time>2019-11-13T10:50:52.001Z</time>
      </trkpt>
      <trkpt lat="49.11475" lon="-0.76524">
        <ele>142.548</ele>
        <time>2019-11-13T10:51:22.001Z</time>
      </trkpt>
      <trkpt lat="49.1163" lon="-0.76264">
        <ele>134.481</ele>
        <time>2019-11-13T10:51:55.001Z</time>
      </trkpt>
      <trkpt lat="49.11847" lon="-0.75904">
        <ele>120.903</ele>
        <time>2019-11-13T10:52:28.001Z</time>
      </trkpt>
      <trkpt lat="49.12039" lon="-0.75594">
        <ele>118.809</ele>
        <time>2019-11-13T10:53:01.001Z</time>
      </trkpt>
      <trkpt lat="49.12176" lon="-0.7536">
        <ele>114.991</ele>
        <time>2019-11-13T10:53:31.001Z</time>
      </trkpt>
      <trkpt lat="49.12265" lon="-0.75212">
        <ele>120.831</ele>
        <time>2019-11-13T10:54:04.001Z</time>
      </trkpt>
      <trkpt lat="49.12332" lon="-0.75105">
        <ele>127.414</ele>
        <time>2019-11-13T10:54:37.001Z</time>
      </trkpt>
      <trkpt lat="49.12398" lon="-0.74996">
        <ele>128.882</ele>
        <time>2019-11-13T10:55:10.001Z</time>
      </trkpt>
      <trkpt lat="49.12454" lon="-0.74905">
        <ele>127.545</ele>
        <time>2019-11-13T10:55:40.001Z</time>
      </trkpt>
      <trkpt lat="49.12522" lon="-0.74792">
        <ele>130.656</ele>
        <time>2019-11-13T10:56:13.001Z</time>
      </trkpt>
      <trkpt lat="49.12596" lon="-0.7467">
        <ele>131.629</ele>
        <time>2019-11-13T10:56:46.001Z</time>
      </trkpt>
      <trkpt lat="49.12682" lon="-0.74527">
        <ele>132.731</ele>
        <time>2019-11-13T10:57:19.001Z</time>
      </trkpt>
      <trkpt lat="49.12831" lon="-0.7428">
        <ele>124.124</ele>
        <time>2019-11-13T10:57:52.001Z</time>
      </trkpt>
      <trkpt lat="49.13005" lon="-0.73998">
        <ele>114.683</ele>
        <time>2019-11-13T10:58:22.001Z</time>
      </trkpt>
      <trkpt lat="49.13148" lon="-0.73717">
        <ele>109.347</ele>
        <time>2019-11-13T10:58:55.001Z</time>
      </trkpt>
      <trkpt lat="49.13381" lon="-0.73666">
        <ele>104.29</ele>
        <time>2019-11-13T10:59:28.001Z</time>
      </trkpt>
      <trkpt lat="49.13489" lon="-0.73494">
        <ele>105.196</ele>
        <time>2019-11-13T11:00:01.001Z</time>
      </trkpt>
      <trkpt lat="49.13551" lon="-0.73331">
        <ele>109.308</ele>
        <time>2019-11-13T11:00:31.001Z</time>
      </trkpt>
      <trkpt lat="49.1362" lon="-0.73182">
        <ele>112.452</ele>
        <time>2019-11-13T11:01:04.001Z</time>
      </trkpt>
      <trkpt lat="49.13678" lon="-0.73081">
        <ele>114.459</ele>
        <time>2019-11-13T11:01:37.001Z</time>
      </trkpt>
      <trkpt lat="49.13741" lon="-0.73138">
        <ele>117.523</ele>
        <time>2019-11-13T11:02:10.001Z</time>
      </trkpt>
      <trkpt lat="49.13795" lon="-0.73218">
        <ele>118.245</ele>
        <time>2019-11-13T11:02:40.001Z</time>
      </trkpt>
      <trkpt lat="49.13852" lon="-0.73285">
        <ele>124.77</ele>
        <time>2019-11-13T11:03:13.001Z</time>
      </trkpt>
      <trkpt lat="49.13929" lon="-0.73363">
        <ele>130.476</ele>
        <time>2019-11-13T11:03:46.001Z</time>
      </trkpt>
      <trkpt lat="49.14062" lon="-0.73472">
        <ele>126.386</ele>
        <time>2019-11-13T11:04:19.001Z</time>
      </trkpt>
      <trkpt lat="49.14256" lon="-0.73555">
        <ele>122.647</ele>
        <time>2019-11-13T11:04:49.001Z</time>
      </trkpt>
      <trkpt lat="49.14419" lon="-0.73765">
        <ele>113.402</ele>
        <time>2019-11-13T11:05:22.001Z</time>
      </trkpt>
      <trkpt lat="49.14578" lon="-0.73863">
        <ele>112.774</ele>
        <time>2019-11-13T11:05:55.001Z</time>
      </trkpt>
      <trkpt lat="49.14799" lon="-0.73736">
        <ele>109.709</ele>
        <time>2019-11-13T11:06:28.001Z</time>
      </trkpt>
      <trkpt lat="49.14978" lon="-0.73632">
        <ele>109.706</ele>
        <time>2019-11-13T11:06:58.001Z</time>
      </trkpt>
      <trkpt lat="49.15168" lon="-0.73524">
        <ele>104.632</ele>
        <time>2019-11-13T11:07:31.001Z</time>
      </trkpt>
      <trkpt lat="49.15416" lon="-0.73386">
        <ele>98.746</ele>
        <time>2019-11-13T11:08:04.001Z</time>
      </trkpt>
      <trkpt lat="49.1566" lon="-0.73172">
        <ele>85.353</ele>
        <time>2019-11-13T11:08:37.001Z</time>
      </trkpt>
      <trkpt lat="49.1588" lon="-0.72912">
        <ele>76.809</ele>
        <time>2019-11-13T11:09:10.001Z</time>
      </trkpt>
      <trkpt lat="49.16093" lon="-0.72785">
        <ele>74.505</ele>
        <time>2019-11-13T11:09:40.001Z</time>
      </trkpt>
      <trkpt lat="49.16289" lon="-0.72768">
        <ele>75.478</ele>
        <time>2019-11-13T11:10:13.001Z</time>
      </trkpt>
      <trkpt lat="49.16439" lon="-0.72761">
        <ele>76.524</ele>
        <time>2019-11-13T11:10:46.001Z</time>
      </trkpt>
      <trkpt lat="49.16533" lon="-0.72755">
        <ele>81.795</ele>
        <time>2019-11-13T11:11:19.001Z</time>
      </trkpt>
      <trkpt lat="49.1662" lon="-0.72752">
        <ele>84.815</ele>
        <time>2019-11-13T11:11:49.001Z</time>
      </trkpt>
      <trkpt lat="49.16725" lon="-0.72744">
        <ele>84.2</ele>
        <time>2019-11-13T11:12:22.001Z</time>
      </trkpt>
      <trkpt lat="49.16831" lon="-0.72737">
        <ele>85.204</ele>
        <time>2019-11-13T11:12:55.001Z</time>
      </trkpt>
      <trkpt lat="49.1693" lon="-0.72726">
        <ele>85.165</ele>
        <time>2019-11-13T11:13:28.001Z</time>
      </trkpt>
      <trkpt lat="49.17022" lon="-0.72704">
        <ele>88.071</ele>
        <time>2019-11-13T11:13:58.001Z</time>
      </trkpt>
      <trkpt lat="49.17123" lon="-0.72675">
        <ele>96.257</ele>
        <time>2019-11-13T11:14:31.001Z</time>
      </trkpt>
      <trkpt lat="49.17226" lon="-0.7265">
        <ele>95.435</ele>
        <time>2019-11-13T11:15:04.001Z</time>
      </trkpt>
      <trkpt lat="49.17327" lon="-0.7262">
        <ele>96.107</ele>
        <time>2019-11-13T11:15:37.001Z</time>
      </trkpt>
      <trkpt lat="49.17431" lon="-0.72541">
        <ele>100.99</ele>
        <time>2019-11-13T11:16:07.001Z</time>
      </trkpt>
      <trkpt lat="49.17598" lon="-0.72418">
        <ele>101.684</ele>
        <time>2019-11-13T11:16:40.001Z</time>
      </trkpt>
      <trkpt lat="49.17872" lon="-0.72364">
        <ele>88.818</ele>
        <time>2019-11-13T11:17:13.001Z</time>
      </trkpt>
      <trkpt lat="49.18087" lon="-0.72327">
        <ele>85.317</ele>
        <time>2019-11-13T11:17:46.001Z</time>
      </trkpt>
      <trkpt lat="49.18167" lon="-0.72344">
        <ele>89.765</ele>
        <time>2019-11-13T11:18:16Z</time>
      </trkpt>
      <trkpt lat="49.18236" lon="-0.72344">
        <ele>94.878</ele>
        <time>2019-11-13T11:18:49.001Z</time>
      </trkpt>
      <trkpt lat="49.18364" lon="-0.72335">
        <ele>97.845</ele>
        <time>2019-11-13T11:19:22.001Z</time>
      </trkpt>
      <trkpt lat="49.18521" lon="-0.72293">
        <ele>91.087</ele>
        <time>2019-11-13T11:19:55.001Z</time>
      </trkpt>
      <trkpt lat="49.18739" lon="-0.72317">
        <ele>87.952</ele>
        <time>2019-11-13T11:20:28.001Z</time>
      </trkpt>
      <trkpt lat="49.18927" lon="-0.72288">
        <ele>85.994</ele>
        <time>2019-11-13T11:20:58.001Z</time>
      </trkpt>
      <trkpt lat="49.19147" lon="-0.72124">
        <ele>81.88</ele>
        <time>2019-11-13T11:21:31.001Z</time>
      </trkpt>
      <trkpt lat="49.19398" lon="-0.72036">
        <ele>77.179</ele>
        <time>2019-11-13T11:22:04.001Z</time>
      </trkpt>
      <trkpt lat="49.19712" lon="-0.72076">
        <ele>61.577</ele>
        <time>2019-11-13T11:22:37.001Z</time>
      </trkpt>
      <trkpt lat="49.19867" lon="-0.72084">
        <ele>68.982</ele>
        <time>2019-11-13T11:23:07.001Z</time>
      </trkpt>
      <trkpt lat="49.19985" lon="-0.72127">
        <ele>74.411</ele>
        <time>2019-11-13T11:23:40.001Z</time>
      </trkpt>
      <trkpt lat="49.20076" lon="-0.72125">
        <ele>75.124</ele>
        <time>2019-11-13T11:24:13.001Z</time>
      </trkpt>
      <trkpt lat="49.20183" lon="-0.72101">
        <ele>77.662</ele>
        <time>2019-11-13T11:24:46.001Z</time>
      </trkpt>
      <trkpt lat="49.20337" lon="-0.72009">
        <ele>73.879</ele>
        <time>2019-11-13T11:25:16Z</time>
      </trkpt>
      <trkpt lat="49.20491" lon="-0.72039">
        <ele>73.316</ele>
        <time>2019-11-13T11:25:49.001Z</time>
      </trkpt>
      <trkpt lat="49.2063" lon="-0.71919">
        <ele>74.732</ele>
        <time>2019-11-13T11:26:22.001Z</time>
      </trkpt>
      <trkpt lat="49.20788" lon="-0.7179">
        <ele>76.985</ele>
        <time>2019-11-13T11:26:55.001Z</time>
      </trkpt>
      <trkpt lat="49.20947" lon="-0.71697">
        <ele>75.297</ele>
        <time>2019-11-13T11:27:25.001Z</time>
      </trkpt>
      <trkpt lat="49.21141" lon="-0.71544">
        <ele>73.862</ele>
        <time>2019-11-13T11:27:58.001Z</time>
      </trkpt>
      <trkpt lat="49.21384" lon="-0.71352">
        <ele>74.672</ele>
        <time>2019-11-13T11:28:31.001Z</time>
      </trkpt>
      <trkpt lat="49.21611" lon="-0.71167">
        <ele>65.374</ele>
        <time>2019-11-13T11:29:04.001Z</time>
      </trkpt>
      <trkpt lat="49.21784" lon="-0.71033">
        <ele>66.241</ele>
        <time>2019-11-13T11:29:34.001Z</time>
      </trkpt>
      <trkpt lat="49.21977" lon="-0.71048">
        <ele>65.811</ele>
        <time>2019-11-13T11:30:07.001Z</time>
      </trkpt>
      <trkpt lat="49.22157" lon="-0.70989">
        <ele>69.805</ele>
        <time>2019-11-13T11:30:40.001Z</time>
      </trkpt>
      <trkpt lat="49.22343" lon="-0.70769">
        <ele>64.362</ele>
        <time>2019-11-13T11:31:13.001Z</time>
      </trkpt>
      <trkpt lat="49.22499" lon="-0.70634">
        <ele>54.286</ele>
        <time>2019-11-13T11:31:46.001Z</time>
      </trkpt>
      <trkpt lat="49.22676" lon="-0.70653">
        <ele>55.962</ele>
        <time>2019-11-13T11:32:16Z</time>
      </trkpt>
      <trkpt lat="49.22855" lon="-0.70605">
        <ele>58.686</ele>
        <time>2019-11-13T11:32:49.001Z</time>
      </trkpt>
      <trkpt lat="49.23055" lon="-0.70528">
        <ele>53.569</ele>
        <time>2019-11-13T11:33:22.001Z</time>
      </trkpt>
      <trkpt lat="49.23238" lon="-0.7044">
        <ele>51.513</ele>
        <time>2019-11-13T11:33:55.001Z</time>
      </trkpt>
      <trkpt lat="49.23389" lon="-0.70318">
        <ele>52.679</ele>
        <time>2019-11-13T11:34:25.001Z</time>
      </trkpt>
      <trkpt lat="49.23556" lon="-0.70299">
        <ele>52.987</ele>
        <time>2019-11-13T11:34:58.001Z</time>
      </trkpt>
      <trkpt lat="49.23664" lon="-0.70302">
        <ele>58.945</ele>
        <time>2019-11-13T11:35:31.001Z</time>
      </trkpt>
      <trkpt lat="49.23738" lon="-0.7031">
        <ele>66.547</ele>
        <time>2019-11-13T11:36:04.001Z</time>
      </trkpt>
      <trkpt lat="49.2382" lon="-0.70317">
        <ele>65.301</ele>
        <time>2019-11-13T11:36:34.001Z</time>
      </trkpt>
      <trkpt lat="49.23931" lon="-0.70347">
        <ele>64.096</ele>
        <time>2019-11-13T11:37:07.001Z</time>
      </trkpt>
      <trkpt lat="49.24068" lon="-0.7041">
        <ele>61.549</ele>
        <time>2019-11-13T11:37:40.001Z</time>
      </trkpt>
      <trkpt lat="49.24253" lon="-0.70506">
        <ele>60.38</ele>
        <time>2019-11-13T11:38:13.001Z</time>
      </trkpt>
      <trkpt lat="49.2447" lon="-0.70653">
        <ele>58.52</ele>
        <time>2019-11-13T11:38:43.001Z</time>
      </trkpt>
      <trkpt lat="49.24701" lon="-0.70808">
        <ele>50.888</ele>
        <time>2019-11-13T11:39:16Z</time>
      </trkpt>
      <trkpt lat="49.24886" lon="-0.70882">
        <ele>53.347</ele>
        <time>2019-11-13T11:39:49.001Z</time>
      </trkpt>
      <trkpt lat="49.25004" lon="-0.70877">
        <ele>53.283</ele>
        <time>2019-11-13T11:40:22.001Z</time>
      </trkpt>
      <trkpt lat="49.25094" lon="-0.70872">
        <ele>53.136</ele>
        <time>2019-11-13T11:40:52.001Z</time>
      </trkpt>
      <trkpt lat="49.25183" lon="-0.70888">
        <ele>59.774</ele>
        <time>2019-11-13T11:41:25.001Z</time>
      </trkpt>
      <trkpt lat="49.25252" lon="-0.7092">
        <ele>60.96</ele>
        <time>2019-11-13T11:42:16Z</time>
      </trkpt>
      <trkpt lat="49.25256" lon="-0.7093">
        <ele>60.466</ele>
        <time>2019-11-13T11:46:43.001Z</time>
      </trkpt>
      <trkpt lat="49.25421" lon="-0.70957">
        <ele>59.841</ele>
        <time>2019-11-13T11:47:16Z</time>
      </trkpt>
      <trkpt lat="49.25499" lon="-0.7093">
        <ele>53.805</ele>
        <time>2019-11-13T11:47:46.001Z</time>
      </trkpt>
      <trkpt lat="49.25592" lon="-0.70905">
        <ele>60.855</ele>
        <time>2019-11-13T11:48:19.001Z</time>
      </trkpt>
      <trkpt lat="49.25721" lon="-0.70859">
        <ele>61.01</ele>
        <time>2019-11-13T11:48:52.001Z</time>
      </trkpt>
      <trkpt lat="49.25835" lon="-0.70869">
        <ele>64.63</ele>
        <time>2019-11-13T11:49:25.001Z</time>
      </trkpt>
      <trkpt lat="49.25924" lon="-0.70888">
        <ele>66.721</ele>
        <time>2019-11-13T11:49:55.001Z</time>
      </trkpt>
      <trkpt lat="49.26043" lon="-0.70916">
        <ele>70.058</ele>
        <time>2019-11-13T11:50:28.001Z</time>
      </trkpt>
      <trkpt lat="49.26231" lon="-0.70937">
        <ele>64.32</ele>
        <time>2019-11-13T11:51:01.001Z</time>
      </trkpt>
      <trkpt lat="49.26422" lon="-0.70999">
        <ele>61.829</ele>
        <time>2019-11-13T11:51:34.001Z</time>
      </trkpt>
      <trkpt lat="49.26593" lon="-0.70941">
        <ele>62.404</ele>
        <time>2019-11-13T11:52:04.001Z</time>
      </trkpt>
      <trkpt lat="49.26729" lon="-0.70943">
        <ele>60.827</ele>
        <time>2019-11-13T11:52:37.001Z</time>
      </trkpt>
      <trkpt lat="49.2692" lon="-0.70822">
        <ele>61.972</ele>
        <time>2019-11-13T11:53:10.001Z</time>
      </trkpt>
      <trkpt lat="49.27101" lon="-0.70778">
        <ele>51.243</ele>
        <time>2019-11-13T11:53:43.001Z</time>
      </trkpt>
      <trkpt lat="49.2717" lon="-0.70826">
        <ele>51.257</ele>
        <time>2019-11-13T11:54:13.001Z</time>
      </trkpt>
      <trkpt lat="49.27322" lon="-0.70725">
        <ele>62.406</ele>
        <time>2019-11-13T11:54:46.001Z</time>
      </trkpt>
      <trkpt lat="49.27451" lon="-0.70692">
        <ele>61.441</ele>
        <time>2019-11-13T11:55:19.001Z</time>
      </trkpt>
      <trkpt lat="49.27505" lon="-0.70832">
        <ele>60.986</ele>
        <time>2019-11-13T11:55:52.001Z</time>
      </trkpt>
      <trkpt lat="49.27572" lon="-0.70883">
        <ele>61.569</ele>
        <time>2019-11-13T11:56:25.001Z</time>
      </trkpt>
      <trkpt lat="49.27676" lon="-0.70937">
        <ele>72.329</ele>
        <time>2019-11-13T11:56:58.001Z</time>
      </trkpt>
      <trkpt lat="49.27713" lon="-0.71132">
        <ele>63.802</ele>
        <time>2019-11-13T11:57:31.001Z</time>
      </trkpt>
      <trkpt lat="49.27784" lon="-0.71235">
        <ele>63.507</ele>
        <time>2019-11-13T11:58:04.001Z</time>
      </trkpt>
      <trkpt lat="49.27919" lon="-0.71161">
        <ele>63.656</ele>
        <time>2019-11-13T11:58:37.001Z</time>
      </trkpt>
      <trkpt lat="49.28028" lon="-0.71232">
        <ele>61.158</ele>
        <time>2019-11-13T11:59:07.001Z</time>
      </trkpt>
      <trkpt lat="49.28096" lon="-0.713">
        <ele>66.369</ele>
        <time>2019-11-13T11:59:40.001Z</time>
      </trkpt>
      <trkpt lat="49.28087" lon="-0.71263">
        <ele>62.905</ele>
        <time>2019-11-13T12:01:40.001Z</time>
      </trkpt>
      <trkpt lat="49.28086" lon="-0.7126">
        <ele>54.222</ele>
        <time>2019-11-13T12:04:34.001Z</time>
      </trkpt>
      <trkpt lat="49.28053" lon="-0.71283">
        <ele>59.172</ele>
        <time>2019-11-13T12:37:07.001Z</time>
      </trkpt>
      <trkpt lat="49.28004" lon="-0.71174">
        <ele>61.571</ele>
        <time>2019-11-13T12:38:01.001Z</time>
      </trkpt>
      <trkpt lat="49.27969" lon="-0.71027">
        <ele>57.893</ele>
        <time>2019-11-13T12:38:46.001Z</time>
      </trkpt>
      <trkpt lat="49.27901" lon="-0.70824">
        <ele>58.778</ele>
        <time>2019-11-13T12:39:19.001Z</time>
      </trkpt>
      <trkpt lat="49.27878" lon="-0.70733">
        <ele>58.738</ele>
        <time>2019-11-13T12:39:49.001Z</time>
      </trkpt>
      <trkpt lat="49.27822" lon="-0.7058">
        <ele>61.639</ele>
        <time>2019-11-13T12:40:28.001Z</time>
      </trkpt>
      <trkpt lat="49.27761" lon="-0.70371">
        <ele>53.735</ele>
        <time>2019-11-13T12:41:01.001Z</time>
      </trkpt>
      <trkpt lat="49.2771" lon="-0.70188">
        <ele>49.562</ele>
        <time>2019-11-13T12:41:37.001Z</time>
      </trkpt>
      <trkpt lat="49.27668" lon="-0.70059">
        <ele>44.992</ele>
        <time>2019-11-13T12:42:07.001Z</time>
      </trkpt>
      <trkpt lat="49.2762" lon="-0.69902">
        <ele>48.523</ele>
        <time>2019-11-13T12:42:40.001Z</time>
      </trkpt>
      <trkpt lat="49.276" lon="-0.69803">
        <ele>54.069</ele>
        <time>2019-11-13T12:43:16Z</time>
      </trkpt>
      <trkpt lat="49.27702" lon="-0.69715">
        <ele>57.393</ele>
        <time>2019-11-13T12:43:49.001Z</time>
      </trkpt>
      <trkpt lat="49.27748" lon="-0.6967">
        <ele>53.739</ele>
        <time>2019-11-13T12:44:22.001Z</time>
      </trkpt>
      <trkpt lat="49.27821" lon="-0.69593">
        <ele>57.806</ele>
        <time>2019-11-13T12:44:55.001Z</time>
      </trkpt>
      <trkpt lat="49.27893" lon="-0.69498">
        <ele>53.748</ele>
        <time>2019-11-13T12:45:28.001Z</time>
      </trkpt>
      <trkpt lat="49.27955" lon="-0.69415">
        <ele>54.46</ele>
        <time>2019-11-13T12:46:01.001Z</time>
      </trkpt>
      <trkpt lat="49.28046" lon="-0.69292">
        <ele>56.537</ele>
        <time>2019-11-13T12:46:34.001Z</time>
      </trkpt>
      <trkpt lat="49.28149" lon="-0.69262">
        <ele>58.702</ele>
        <time>2019-11-13T12:47:04.001Z</time>
      </trkpt>
      <trkpt lat="49.2832" lon="-0.69184">
        <ele>47.745</ele>
        <time>2019-11-13T12:47:37.001Z</time>
      </trkpt>
      <trkpt lat="49.2844" lon="-0.69235">
        <ele>44.417</ele>
        <time>2019-11-13T12:48:13.001Z</time>
      </trkpt>
      <trkpt lat="49.28667" lon="-0.69185">
        <ele>43.621</ele>
        <time>2019-11-13T12:48:46.001Z</time>
      </trkpt>
      <trkpt lat="49.28818" lon="-0.69131">
        <ele>41.518</ele>
        <time>2019-11-13T12:49:16Z</time>
      </trkpt>
      <trkpt lat="49.28977" lon="-0.69051">
        <ele>42.247</ele>
        <time>2019-11-13T12:49:49.001Z</time>
      </trkpt>
      <trkpt lat="49.29138" lon="-0.68999">
        <ele>43.15</ele>
        <time>2019-11-13T12:50:22.001Z</time>
      </trkpt>
      <trkpt lat="49.29312" lon="-0.68995">
        <ele>42.728</ele>
        <time>2019-11-13T12:50:55.001Z</time>
      </trkpt>
      <trkpt lat="49.29485" lon="-0.6897">
        <ele>41.727</ele>
        <time>2019-11-13T12:51:25.001Z</time>
      </trkpt>
      <trkpt lat="49.2966" lon="-0.6885">
        <ele>38.401</ele>
        <time>2019-11-13T12:51:58.001Z</time>
      </trkpt>
      <trkpt lat="49.29773" lon="-0.68723">
        <ele>42.183</ele>
        <time>2019-11-13T12:52:31.001Z</time>
      </trkpt>
      <trkpt lat="49.29876" lon="-0.6862">
        <ele>47.383</ele>
        <time>2019-11-13T12:53:04.001Z</time>
      </trkpt>
      <trkpt lat="49.29953" lon="-0.6856">
        <ele>51.183</ele>
        <time>2019-11-13T12:53:34.001Z</time>
      </trkpt>
      <trkpt lat="49.30031" lon="-0.68508">
        <ele>59.957</ele>
        <time>2019-11-13T12:54:07.001Z</time>
      </trkpt>
      <trkpt lat="49.30165" lon="-0.68376">
        <ele>53.175</ele>
        <time>2019-11-13T12:54:40.001Z</time>
      </trkpt>
      <trkpt lat="49.30312" lon="-0.68182">
        <ele>49.426</ele>
        <time>2019-11-13T12:55:13.001Z</time>
      </trkpt>
      <trkpt lat="49.30469" lon="-0.68023">
        <ele>47.631</ele>
        <time>2019-11-13T12:55:43.001Z</time>
      </trkpt>
      <trkpt lat="49.30604" lon="-0.67789">
        <ele>45.922</ele>
        <time>2019-11-13T12:56:16Z</time>
      </trkpt>
      <trkpt lat="49.30712" lon="-0.67631">
        <ele>49.597</ele>
        <time>2019-11-13T12:56:49.001Z</time>
      </trkpt>
      <trkpt lat="49.30874" lon="-0.67468">
        <ele>44.817</ele>
        <time>2019-11-13T12:57:22.001Z</time>
      </trkpt>
      <trkpt lat="49.31019" lon="-0.67289">
        <ele>46.485</ele>
        <time>2019-11-13T12:57:55.001Z</time>
      </trkpt>
      <trkpt lat="49.31125" lon="-0.67131">
        <ele>50.311</ele>
        <time>2019-11-13T12:58:25.001Z</time>
      </trkpt>
      <trkpt lat="49.31236" lon="-0.66983">
        <ele>52.407</ele>
        <time>2019-11-13T12:58:58.001Z</time>
      </trkpt>
      <trkpt lat="49.31348" lon="-0.66896">
        <ele>55.703</ele>
        <time>2019-11-13T12:59:31.001Z</time>
      </trkpt>
      <trkpt lat="49.31451" lon="-0.66732">
        <ele>53.635</ele>
        <time>2019-11-13T13:00:04.001Z</time>
      </trkpt>
      <trkpt lat="49.31556" lon="-0.66574">
        <ele>55.247</ele>
        <time>2019-11-13T13:00:34.001Z</time>
      </trkpt>
      <trkpt lat="49.31664" lon="-0.66411">
        <ele>57.647</ele>
        <time>2019-11-13T13:01:07.001Z</time>
      </trkpt>
      <trkpt lat="49.31779" lon="-0.66243">
        <ele>58.172</ele>
        <time>2019-11-13T13:01:40.001Z</time>
      </trkpt>
      <trkpt lat="49.31881" lon="-0.66096">
        <ele>62.991</ele>
        <time>2019-11-13T13:02:13.001Z</time>
      </trkpt>
      <trkpt lat="49.31964" lon="-0.6598">
        <ele>67</ele>
        <time>2019-11-13T13:02:43.001Z</time>
      </trkpt>
      <trkpt lat="49.32069" lon="-0.65895">
        <ele>70.088</ele>
        <time>2019-11-13T13:03:16Z</time>
      </trkpt>
      <trkpt lat="49.3214" lon="-0.65749">
        <ele>66.578</ele>
        <time>2019-11-13T13:03:49.001Z</time>
      </trkpt>
      <trkpt lat="49.32207" lon="-0.65446">
        <ele>60.907</ele>
        <time>2019-11-13T13:04:22.001Z</time>
      </trkpt>
      <trkpt lat="49.32302" lon="-0.65147">
        <ele>56.573</ele>
        <time>2019-11-13T13:04:52.001Z</time>
      </trkpt>
      <trkpt lat="49.3245" lon="-0.64948">
        <ele>59.343</ele>
        <time>2019-11-13T13:05:25.001Z</time>
      </trkpt>
      <trkpt lat="49.32609" lon="-0.64794">
        <ele>61.69</ele>
        <time>2019-11-13T13:05:58.001Z</time>
      </trkpt>
      <trkpt lat="49.32742" lon="-0.6458">
        <ele>57.688</ele>
        <time>2019-11-13T13:06:31.001Z</time>
      </trkpt>
      <trkpt lat="49.32862" lon="-0.64389">
        <ele>58.029</ele>
        <time>2019-11-13T13:07:01.001Z</time>
      </trkpt>
      <trkpt lat="49.32979" lon="-0.64183">
        <ele>61.059</ele>
        <time>2019-11-13T13:07:34.001Z</time>
      </trkpt>
      <trkpt lat="49.33121" lon="-0.63933">
        <ele>58.609</ele>
        <time>2019-11-13T13:08:07.001Z</time>
      </trkpt>
      <trkpt lat="49.33261" lon="-0.63729">
        <ele>56.672</ele>
        <time>2019-11-13T13:08:40.001Z</time>
      </trkpt>
      <trkpt lat="49.33455" lon="-0.63555">
        <ele>56.183</ele>
        <time>2019-11-13T13:09:13.001Z</time>
      </trkpt>
      <trkpt lat="49.33629" lon="-0.63327">
        <ele>45.962</ele>
        <time>2019-11-13T13:09:43.001Z</time>
      </trkpt>
      <trkpt lat="49.33824" lon="-0.63075">
        <ele>21.503</ele>
        <time>2019-11-13T13:10:16Z</time>
      </trkpt>
      <trkpt lat="49.33976" lon="-0.62837">
        <ele>1.919</ele>
        <time>2019-11-13T13:10:49.001Z</time>
      </trkpt>
      <trkpt lat="49.33975" lon="-0.62656">
        <ele>0.346</ele>
        <time>2019-11-13T13:11:22.001Z</time>
      </trkpt>
      <trkpt lat="49.33974" lon="-0.62452">
        <ele>7</ele>
        <time>2019-11-13T13:11:52.001Z</time>
      </trkpt>
      <trkpt lat="49.33919" lon="-0.62367">
        <ele>4.949</ele>
        <time>2019-11-13T13:12:25.001Z</time>
      </trkpt>
      <trkpt lat="49.33842" lon="-0.62397">
        <ele>14.544</ele>
        <time>2019-11-13T13:12:58.001Z</time>
      </trkpt>
      <trkpt lat="49.33784" lon="-0.62413">
        <ele>17.371</ele>
        <time>2019-11-13T13:13:31.001Z</time>
      </trkpt>
      <trkpt lat="49.33755" lon="-0.62298">
        <ele>23.571</ele>
        <time>2019-11-13T13:14:07.001Z</time>
      </trkpt>
      <trkpt lat="49.33751" lon="-0.62102">
        <ele>16.239</ele>
        <time>2019-11-13T13:14:40.001Z</time>
      </trkpt>
      <trkpt lat="49.33697" lon="-0.62102">
        <ele>19.708</ele>
        <time>2019-11-13T13:15:13.001Z</time>
      </trkpt>
      <trkpt lat="49.33629" lon="-0.62089">
        <ele>29.086</ele>
        <time>2019-11-13T13:15:58.001Z</time>
      </trkpt>
      <trkpt lat="49.33579" lon="-0.62035">
        <ele>36.071</ele>
        <time>2019-11-13T13:16:37.001Z</time>
      </trkpt>
      <trkpt lat="49.33545" lon="-0.61936">
        <ele>40.727</ele>
        <time>2019-11-13T13:17:25.001Z</time>
      </trkpt>
      <trkpt lat="49.33574" lon="-0.61859">
        <ele>52.67</ele>
        <time>2019-11-13T13:18:01.001Z</time>
      </trkpt>
      <trkpt lat="49.33635" lon="-0.61816">
        <ele>48.071</ele>
        <time>2019-11-13T13:18:40.001Z</time>
      </trkpt>
      <trkpt lat="49.33705" lon="-0.618">
        <ele>47.414</ele>
        <time>2019-11-13T13:19:10.001Z</time>
      </trkpt>
      <trkpt lat="49.3381" lon="-0.61772">
        <ele>48.283</ele>
        <time>2019-11-13T13:19:43.001Z</time>
      </trkpt>
      <trkpt lat="49.33897" lon="-0.61624">
        <ele>46.699</ele>
        <time>2019-11-13T13:20:16Z</time>
      </trkpt>
      <trkpt lat="49.33924" lon="-0.61534">
        <ele>48.947</ele>
        <time>2019-11-13T13:21:01.001Z</time>
      </trkpt>
      <trkpt lat="49.33891" lon="-0.61478">
        <ele>48.344</ele>
        <time>2019-11-13T13:34:55.001Z</time>
      </trkpt>
      <trkpt lat="49.33879" lon="-0.61292">
        <ele>44.397</ele>
        <time>2019-11-13T13:35:25.001Z</time>
      </trkpt>
      <trkpt lat="49.33876" lon="-0.61017">
        <ele>38.875</ele>
        <time>2019-11-13T13:35:58.001Z</time>
      </trkpt>
      <trkpt lat="49.33835" lon="-0.60577">
        <ele>22.115</ele>
        <time>2019-11-13T13:36:31.001Z</time>
      </trkpt>
      <trkpt lat="49.33766" lon="-0.60174">
        <ele>4.7</ele>
        <time>2019-11-13T13:37:04.001Z</time>
      </trkpt>
      <trkpt lat="49.33833" lon="-0.59836">
        <ele>4</ele>
        <time>2019-11-13T13:37:34.001Z</time>
      </trkpt>
      <trkpt lat="49.33949" lon="-0.59594">
        <ele>4.4</ele>
        <time>2019-11-13T13:38:07.001Z</time>
      </trkpt>
      <trkpt lat="49.33983" lon="-0.59311">
        <ele>4.7</ele>
        <time>2019-11-13T13:38:40.001Z</time>
      </trkpt>
      <trkpt lat="49.33979" lon="-0.59039">
        <ele>5.7</ele>
        <time>2019-11-13T13:39:13.001Z</time>
      </trkpt>
      <trkpt lat="49.33973" lon="-0.58812">
        <ele>5.8</ele>
        <time>2019-11-13T13:39:43.001Z</time>
      </trkpt>
      <trkpt lat="49.33966" lon="-0.58556">
        <ele>3.8</ele>
        <time>2019-11-13T13:40:16Z</time>
      </trkpt>
      <trkpt lat="49.33939" lon="-0.58287">
        <ele>3.1</ele>
        <time>2019-11-13T13:40:49.001Z</time>
      </trkpt>
      <trkpt lat="49.33916" lon="-0.58043">
        <ele>4.6</ele>
        <time>2019-11-13T13:41:22.001Z</time>
      </trkpt>
      <trkpt lat="49.33898" lon="-0.5784">
        <ele>0.497</ele>
        <time>2019-11-13T13:41:52.001Z</time>
      </trkpt>
      <trkpt lat="49.33879" lon="-0.57627">
        <ele>8.188</ele>
        <time>2019-11-13T13:42:25.001Z</time>
      </trkpt>
      <trkpt lat="49.33857" lon="-0.57399">
        <ele>12.501</ele>
        <time>2019-11-13T13:42:58.001Z</time>
      </trkpt>
      <trkpt lat="49.3383" lon="-0.57131">
        <ele>5.2</ele>
        <time>2019-11-13T13:43:31.001Z</time>
      </trkpt>
      <trkpt lat="49.33809" lon="-0.56903">
        <ele>5.3</ele>
        <time>2019-11-13T13:44:01.001Z</time>
      </trkpt>
      <trkpt lat="49.33788" lon="-0.56656">
        <ele>3.3</ele>
        <time>2019-11-13T13:44:34.001Z</time>
      </trkpt>
      <trkpt lat="49.33777" lon="-0.56416">
        <ele>4.4</ele>
        <time>2019-11-13T13:45:07.001Z</time>
      </trkpt>
      <trkpt lat="49.33782" lon="-0.562">
        <ele>7.267</ele>
        <time>2019-11-13T13:45:40.001Z</time>
      </trkpt>
      <trkpt lat="49.33789" lon="-0.55988">
        <ele>2.954</ele>
        <time>2019-11-13T13:46:13.001Z</time>
      </trkpt>
      <trkpt lat="49.33803" lon="-0.55812">
        <ele>2.069</ele>
        <time>2019-11-13T13:46:43.001Z</time>
      </trkpt>
      <trkpt lat="49.33823" lon="-0.55624">
        <ele>4.594</ele>
        <time>2019-11-13T13:47:16Z</time>
      </trkpt>
      <trkpt lat="49.33844" lon="-0.55433">
        <ele>4.847</ele>
        <time>2019-11-13T13:47:49.001Z</time>
      </trkpt>
      <trkpt lat="49.33868" lon="-0.55226">
        <ele>7.318</ele>
        <time>2019-11-13T13:48:22.001Z</time>
      </trkpt>
      <trkpt lat="49.33888" lon="-0.55044">
        <ele>8.797</ele>
        <time>2019-11-13T13:48:52.001Z</time>
      </trkpt>
      <trkpt lat="49.33911" lon="-0.54847">
        <ele>12.306</ele>
        <time>2019-11-13T13:49:25.001Z</time>
      </trkpt>
      <trkpt lat="49.33932" lon="-0.54644">
        <ele>10.795</ele>
        <time>2019-11-13T13:49:58.001Z</time>
      </trkpt>
      <trkpt lat="49.33955" lon="-0.54431">
        <ele>12.397</ele>
        <time>2019-11-13T13:50:31.001Z</time>
      </trkpt>
      <trkpt lat="49.33977" lon="-0.5424">
        <ele>13.267</ele>
        <time>2019-11-13T13:51:01.001Z</time>
      </trkpt>
      <trkpt lat="49.33999" lon="-0.54037">
        <ele>12.999</ele>
        <time>2019-11-13T13:51:34.001Z</time>
      </trkpt>
      <trkpt lat="49.3402" lon="-0.53837">
        <ele>14.983</ele>
        <time>2019-11-13T13:52:07.001Z</time>
      </trkpt>
      <trkpt lat="49.34043" lon="-0.53639">
        <ele>16.462</ele>
        <time>2019-11-13T13:52:40.001Z</time>
      </trkpt>
      <trkpt lat="49.34064" lon="-0.53448">
        <ele>17.654</ele>
        <time>2019-11-13T13:53:10.001Z</time>
      </trkpt>
      <trkpt lat="49.34091" lon="-0.5321">
        <ele>18.779</ele>
        <time>2019-11-13T13:53:43.001Z</time>
      </trkpt>
      <trkpt lat="49.34131" lon="-0.52935">
        <ele>16.789</ele>
        <time>2019-11-13T13:54:16Z</time>
      </trkpt>
      <trkpt lat="49.34182" lon="-0.52642">
        <ele>13.614</ele>
        <time>2019-11-13T13:54:49.001Z</time>
      </trkpt>
      <trkpt lat="49.34244" lon="-0.52295">
        <ele>6.529</ele>
        <time>2019-11-13T13:55:19.001Z</time>
      </trkpt>
      <trkpt lat="49.34299" lon="-0.51972">
        <ele>7.5</ele>
        <time>2019-11-13T13:55:52.001Z</time>
      </trkpt>
      <trkpt lat="49.34342" lon="-0.51718">
        <ele>1.38</ele>
        <time>2019-11-13T13:56:25.001Z</time>
      </trkpt>
      <trkpt lat="49.34322" lon="-0.51497">
        <ele>6.8</ele>
        <time>2019-11-13T13:56:58.001Z</time>
      </trkpt>
      <trkpt lat="49.34299" lon="-0.51226">
        <ele>0.608</ele>
        <time>2019-11-13T13:57:31.001Z</time>
      </trkpt>
      <trkpt lat="49.34276" lon="-0.50983">
        <ele>5.9</ele>
        <time>2019-11-13T13:58:01.001Z</time>
      </trkpt>
      <trkpt lat="49.34259" lon="-0.5073">
        <ele>5</ele>
        <time>2019-11-13T13:58:34.001Z</time>
      </trkpt>
      <trkpt lat="49.34234" lon="-0.50468">
        <ele>3.6</ele>
        <time>2019-11-13T13:59:07.001Z</time>
      </trkpt>
      <trkpt lat="49.3421" lon="-0.50201">
        <ele>0.452</ele>
        <time>2019-11-13T13:59:40.001Z</time>
      </trkpt>
      <trkpt lat="49.34177" lon="-0.49965">
        <ele>1</ele>
        <time>2019-11-13T14:00:10.001Z</time>
      </trkpt>
      <trkpt lat="49.34139" lon="-0.49714">
        <ele>0.134</ele>
        <time>2019-11-13T14:00:43.001Z</time>
      </trkpt>
      <trkpt lat="49.34099" lon="-0.49461">
        <ele>3.2</ele>
        <time>2019-11-13T14:01:16Z</time>
      </trkpt>
      <trkpt lat="49.34052" lon="-0.49215">
        <ele>3.1</ele>
        <time>2019-11-13T14:01:49.001Z</time>
      </trkpt>
      <trkpt lat="49.34006" lon="-0.48996">
        <ele>1.1</ele>
        <time>2019-11-13T14:02:19.001Z</time>
      </trkpt>
      <trkpt lat="49.33957" lon="-0.48758">
        <ele>1.8</ele>
        <time>2019-11-13T14:02:52.001Z</time>
      </trkpt>
      <trkpt lat="49.33901" lon="-0.48509">
        <ele>1.7</ele>
        <time>2019-11-13T14:03:25.001Z</time>
      </trkpt>
      <trkpt lat="49.33837" lon="-0.48275">
        <ele>1.4</ele>
        <time>2019-11-13T14:03:58.001Z</time>
      </trkpt>
      <trkpt lat="49.33781" lon="-0.48076">
        <ele>1.6</ele>
        <time>2019-11-13T14:04:28.001Z</time>
      </trkpt>
      <trkpt lat="49.33719" lon="-0.47854">
        <ele>1</ele>
        <time>2019-11-13T14:05:01.001Z</time>
      </trkpt>
      <trkpt lat="49.33658" lon="-0.47639">
        <ele>1.5</ele>
        <time>2019-11-13T14:05:34.001Z</time>
      </trkpt>
      <trkpt lat="49.33596" lon="-0.47428">
        <ele>2.1</ele>
        <time>2019-11-13T14:06:07.001Z</time>
      </trkpt>
      <trkpt lat="49.33541" lon="-0.47239">
        <ele>2</ele>
        <time>2019-11-13T14:06:37.001Z</time>
      </trkpt>
      <trkpt lat="49.33489" lon="-0.47046">
        <ele>1.919</ele>
        <time>2019-11-13T14:07:10.002Z</time>
      </trkpt>
      <trkpt lat="49.33482" lon="-0.46839">
        <ele>2.975</ele>
        <time>2019-11-13T14:07:43.001Z</time>
      </trkpt>
      <trkpt lat="49.33473" lon="-0.46609">
        <ele>2.4</ele>
        <time>2019-11-13T14:08:16Z</time>
      </trkpt>
      <trkpt lat="49.33473" lon="-0.46368">
        <ele>3.414</ele>
        <time>2019-11-13T14:08:49.001Z</time>
      </trkpt>
      <trkpt lat="49.33407" lon="-0.46227">
        <ele>6.303</ele>
        <time>2019-11-13T14:09:19.001Z</time>
      </trkpt>
      <trkpt lat="49.3339" lon="-0.46092">
        <ele>3.8</ele>
        <time>2019-11-13T14:09:52.001Z</time>
      </trkpt>
      <trkpt lat="49.33519" lon="-0.45909">
        <ele>1.3</ele>
        <time>2019-11-13T14:10:25.001Z</time>
      </trkpt>
      <trkpt lat="49.33556" lon="-0.45673">
        <ele>4.9</ele>
        <time>2019-11-13T14:10:58.001Z</time>
      </trkpt>
      <trkpt lat="49.33557" lon="-0.45527">
        <ele>4.2</ele>
        <time>2019-11-13T14:11:28.001Z</time>
      </trkpt>
      <trkpt lat="49.33574" lon="-0.45531">
        <ele>4.313</ele>
        <time>2019-11-13T14:17:46.001Z</time>
      </trkpt>
      <trkpt lat="49.33559" lon="-0.45579">
        <ele>7.757</ele>
        <time>2019-11-13T14:18:43.001Z</time>
      </trkpt>
      <trkpt lat="49.33565" lon="-0.45575">
        <ele>10.099</ele>
        <time>2019-11-13T14:33:58.001Z</time>
      </trkpt>
    </trkseg>
  </trk>
  <trk>
    <name><![CDATA[Tracé 20191114-082818]]></name>
    <trkseg>
      <trkpt lat="49.33553" lon="-0.45591">
        <ele>11.886</ele>
        <time>2019-11-14T07:28:27Z</time>
      </trkpt>
      <trkpt lat="49.33501" lon="-0.45536">
        <ele>8.988</ele>
        <time>2019-11-14T07:29:00Z</time>
      </trkpt>
      <trkpt lat="49.33359" lon="-0.45575">
        <ele>8.243</ele>
        <time>2019-11-14T07:29:33Z</time>
      </trkpt>
      <trkpt lat="49.33229" lon="-0.4562">
        <ele>14.393</ele>
        <time>2019-11-14T07:30:06Z</time>
      </trkpt>
      <trkpt lat="49.33115" lon="-0.45582">
        <ele>12.037</ele>
        <time>2019-11-14T07:30:39Z</time>
      </trkpt>
      <trkpt lat="49.33012" lon="-0.4551">
        <ele>12.415</ele>
        <time>2019-11-14T07:31:12.001Z</time>
      </trkpt>
      <trkpt lat="49.33002" lon="-0.45352">
        <ele>15.173</ele>
        <time>2019-11-14T07:31:42.001Z</time>
      </trkpt>
      <trkpt lat="49.32994" lon="-0.45162">
        <ele>11.513</ele>
        <time>2019-11-14T07:32:15.001Z</time>
      </trkpt>
      <trkpt lat="49.33032" lon="-0.44966">
        <ele>9.823</ele>
        <time>2019-11-14T07:32:48.001Z</time>
      </trkpt>
      <trkpt lat="49.3302" lon="-0.44764">
        <ele>6.057</ele>
        <time>2019-11-14T07:33:21.001Z</time>
      </trkpt>
      <trkpt lat="49.33009" lon="-0.44558">
        <ele>5.376</ele>
        <time>2019-11-14T07:33:54.001Z</time>
      </trkpt>
      <trkpt lat="49.32997" lon="-0.44351">
        <ele>7.347</ele>
        <time>2019-11-14T07:34:27.001Z</time>
      </trkpt>
      <trkpt lat="49.32983" lon="-0.44143">
        <ele>10.624</ele>
        <time>2019-11-14T07:34:57.001Z</time>
      </trkpt>
      <trkpt lat="49.3297" lon="-0.43935">
        <ele>11.766</ele>
        <time>2019-11-14T07:35:30.001Z</time>
      </trkpt>
      <trkpt lat="49.32956" lon="-0.43724">
        <ele>9.814</ele>
        <time>2019-11-14T07:36:03.001Z</time>
      </trkpt>
      <trkpt lat="49.32943" lon="-0.43515">
        <ele>6.539</ele>
        <time>2019-11-14T07:36:36.001Z</time>
      </trkpt>
      <trkpt lat="49.32972" lon="-0.43313">
        <ele>8.289</ele>
        <time>2019-11-14T07:37:09.001Z</time>
      </trkpt>
      <trkpt lat="49.33134" lon="-0.43142">
        <ele>6.065</ele>
        <time>2019-11-14T07:37:42.001Z</time>
      </trkpt>
      <trkpt lat="49.33219" lon="-0.42911">
        <ele>4.794</ele>
        <time>2019-11-14T07:38:12.001Z</time>
      </trkpt>
      <trkpt lat="49.33345" lon="-0.42735">
        <ele>3.544</ele>
        <time>2019-11-14T07:38:45.001Z</time>
      </trkpt>
      <trkpt lat="49.33476" lon="-0.42584">
        <ele>4.228</ele>
        <time>2019-11-14T07:39:18.001Z</time>
      </trkpt>
      <trkpt lat="49.33481" lon="-0.42347">
        <ele>3.251</ele>
        <time>2019-11-14T07:39:51.001Z</time>
      </trkpt>
      <trkpt lat="49.3347" lon="-0.42093">
        <ele>2.75</ele>
        <time>2019-11-14T07:40:24.001Z</time>
      </trkpt>
      <trkpt lat="49.33467" lon="-0.41848">
        <ele>7.645</ele>
        <time>2019-11-14T07:40:57.001Z</time>
      </trkpt>
      <trkpt lat="49.33469" lon="-0.41622">
        <ele>4.563</ele>
        <time>2019-11-14T07:41:27.001Z</time>
      </trkpt>
      <trkpt lat="49.33456" lon="-0.4138">
        <ele>1.769</ele>
        <time>2019-11-14T07:42:00Z</time>
      </trkpt>
      <trkpt lat="49.33442" lon="-0.41137">
        <ele>2.126</ele>
        <time>2019-11-14T07:42:33.001Z</time>
      </trkpt>
      <trkpt lat="49.33405" lon="-0.40901">
        <ele>6.477</ele>
        <time>2019-11-14T07:43:06.001Z</time>
      </trkpt>
      <trkpt lat="49.3334" lon="-0.40708">
        <ele>2.75</ele>
        <time>2019-11-14T07:43:39.001Z</time>
      </trkpt>
      <trkpt lat="49.3333" lon="-0.40489">
        <ele>5.619</ele>
        <time>2019-11-14T07:44:12.001Z</time>
      </trkpt>
      <trkpt lat="49.33316" lon="-0.40324">
        <ele>6.468</ele>
        <time>2019-11-14T07:44:42.001Z</time>
      </trkpt>
      <trkpt lat="49.33305" lon="-0.40153">
        <ele>10.524</ele>
        <time>2019-11-14T07:45:15.001Z</time>
      </trkpt>
      <trkpt lat="49.33289" lon="-0.39975">
        <ele>9.557</ele>
        <time>2019-11-14T07:45:48.001Z</time>
      </trkpt>
      <trkpt lat="49.33267" lon="-0.39758">
        <ele>10.483</ele>
        <time>2019-11-14T07:46:21.001Z</time>
      </trkpt>
      <trkpt lat="49.33242" lon="-0.39544">
        <ele>10.817</ele>
        <time>2019-11-14T07:46:54.001Z</time>
      </trkpt>
      <trkpt lat="49.33197" lon="-0.39336">
        <ele>10.256</ele>
        <time>2019-11-14T07:47:27.001Z</time>
      </trkpt>
      <trkpt lat="49.3315" lon="-0.39156">
        <ele>9.905</ele>
        <time>2019-11-14T07:47:57.001Z</time>
      </trkpt>
      <trkpt lat="49.33097" lon="-0.38949">
        <ele>6.855</ele>
        <time>2019-11-14T07:48:30.001Z</time>
      </trkpt>
      <trkpt lat="49.33049" lon="-0.38736">
        <ele>4.848</ele>
        <time>2019-11-14T07:49:03.001Z</time>
      </trkpt>
      <trkpt lat="49.33001" lon="-0.38525">
        <ele>3.487</ele>
        <time>2019-11-14T07:49:36.001Z</time>
      </trkpt>
      <trkpt lat="49.32964" lon="-0.38336">
        <ele>8.649</ele>
        <time>2019-11-14T07:50:09.001Z</time>
      </trkpt>
      <trkpt lat="49.32909" lon="-0.38133">
        <ele>8.089</ele>
        <time>2019-11-14T07:50:42.001Z</time>
      </trkpt>
      <trkpt lat="49.32855" lon="-0.37957">
        <ele>8.94</ele>
        <time>2019-11-14T07:51:12.001Z</time>
      </trkpt>
      <trkpt lat="49.32801" lon="-0.37756">
        <ele>6.92</ele>
        <time>2019-11-14T07:51:45.001Z</time>
      </trkpt>
      <trkpt lat="49.32736" lon="-0.3758">
        <ele>5.951</ele>
        <time>2019-11-14T07:52:18.001Z</time>
      </trkpt>
      <trkpt lat="49.32721" lon="-0.37583">
        <ele>5.259</ele>
        <time>2019-11-14T07:52:54.001Z</time>
      </trkpt>
      <trkpt lat="49.32686" lon="-0.37553">
        <ele>5.585</ele>
        <time>2019-11-14T07:53:33.001Z</time>
      </trkpt>
      <trkpt lat="49.32593" lon="-0.37386">
        <ele>6.227</ele>
        <time>2019-11-14T07:54:06.001Z</time>
      </trkpt>
      <trkpt lat="49.3256" lon="-0.37165">
        <ele>5.618</ele>
        <time>2019-11-14T07:54:36.001Z</time>
      </trkpt>
      <trkpt lat="49.32523" lon="-0.3699">
        <ele>9.854</ele>
        <time>2019-11-14T07:55:09.001Z</time>
      </trkpt>
      <trkpt lat="49.3248" lon="-0.36816">
        <ele>10.213</ele>
        <time>2019-11-14T07:55:42.001Z</time>
      </trkpt>
      <trkpt lat="49.3244" lon="-0.3665">
        <ele>11.967</ele>
        <time>2019-11-14T07:56:15.001Z</time>
      </trkpt>
      <trkpt lat="49.32412" lon="-0.36559">
        <ele>13.076</ele>
        <time>2019-11-14T07:57:24.001Z</time>
      </trkpt>
      <trkpt lat="49.3236" lon="-0.36368">
        <ele>13.782</ele>
        <time>2019-11-14T07:57:57.001Z</time>
      </trkpt>
      <trkpt lat="49.32301" lon="-0.3616">
        <ele>10.513</ele>
        <time>2019-11-14T07:58:27.001Z</time>
      </trkpt>
      <trkpt lat="49.32194" lon="-0.35944">
        <ele>5.906</ele>
        <time>2019-11-14T07:59:00Z</time>
      </trkpt>
      <trkpt lat="49.32132" lon="-0.35793">
        <ele>5.304</ele>
        <time>2019-11-14T07:59:33.001Z</time>
      </trkpt>
      <trkpt lat="49.32074" lon="-0.35656">
        <ele>8.869</ele>
        <time>2019-11-14T08:00:06.001Z</time>
      </trkpt>
      <trkpt lat="49.32021" lon="-0.35537">
        <ele>8.734</ele>
        <time>2019-11-14T08:00:42.001Z</time>
      </trkpt>
      <trkpt lat="49.31973" lon="-0.35409">
        <ele>13.917</ele>
        <time>2019-11-14T08:01:15.001Z</time>
      </trkpt>
      <trkpt lat="49.31939" lon="-0.35319">
        <ele>14.039</ele>
        <time>2019-11-14T08:01:45.001Z</time>
      </trkpt>
      <trkpt lat="49.31884" lon="-0.35189">
        <ele>17.318</ele>
        <time>2019-11-14T08:02:18.001Z</time>
      </trkpt>
      <trkpt lat="49.31815" lon="-0.35053">
        <ele>11.834</ele>
        <time>2019-11-14T08:02:51.001Z</time>
      </trkpt>
      <trkpt lat="49.31732" lon="-0.35067">
        <ele>10.677</ele>
        <time>2019-11-14T08:03:24.001Z</time>
      </trkpt>
      <trkpt lat="49.31656" lon="-0.35089">
        <ele>14.647</ele>
        <time>2019-11-14T08:03:57.001Z</time>
      </trkpt>
      <trkpt lat="49.31679" lon="-0.34912">
        <ele>14.871</ele>
        <time>2019-11-14T08:04:27.001Z</time>
      </trkpt>
      <trkpt lat="49.31607" lon="-0.34748">
        <ele>10.658</ele>
        <time>2019-11-14T08:05:00Z</time>
      </trkpt>
      <trkpt lat="49.31534" lon="-0.34583">
        <ele>11.123</ele>
        <time>2019-11-14T08:05:33.001Z</time>
      </trkpt>
      <trkpt lat="49.31454" lon="-0.34406">
        <ele>10.281</ele>
        <time>2019-11-14T08:06:06.001Z</time>
      </trkpt>
      <trkpt lat="49.31379" lon="-0.34212">
        <ele>11.615</ele>
        <time>2019-11-14T08:06:39.001Z</time>
      </trkpt>
      <trkpt lat="49.31305" lon="-0.34028">
        <ele>12.511</ele>
        <time>2019-11-14T08:07:12.001Z</time>
      </trkpt>
      <trkpt lat="49.31252" lon="-0.33895">
        <ele>11.154</ele>
        <time>2019-11-14T08:07:42.001Z</time>
      </trkpt>
      <trkpt lat="49.31194" lon="-0.33757">
        <ele>11.657</ele>
        <time>2019-11-14T08:08:15.001Z</time>
      </trkpt>
      <trkpt lat="49.31137" lon="-0.33615">
        <ele>10.961</ele>
        <time>2019-11-14T08:08:48.001Z</time>
      </trkpt>
      <trkpt lat="49.31076" lon="-0.33467">
        <ele>10.714</ele>
        <time>2019-11-14T08:09:21.001Z</time>
      </trkpt>
      <trkpt lat="49.31015" lon="-0.33323">
        <ele>10.718</ele>
        <time>2019-11-14T08:09:54.001Z</time>
      </trkpt>
      <trkpt lat="49.30946" lon="-0.33167">
        <ele>12.277</ele>
        <time>2019-11-14T08:10:27.001Z</time>
      </trkpt>
      <trkpt lat="49.3088" lon="-0.32999">
        <ele>9.293</ele>
        <time>2019-11-14T08:10:57.001Z</time>
      </trkpt>
      <trkpt lat="49.30795" lon="-0.32829">
        <ele>10.954</ele>
        <time>2019-11-14T08:11:30.001Z</time>
      </trkpt>
      <trkpt lat="49.30712" lon="-0.32665">
        <ele>10.99</ele>
        <time>2019-11-14T08:12:03.001Z</time>
      </trkpt>
      <trkpt lat="49.30627" lon="-0.32497">
        <ele>7.738</ele>
        <time>2019-11-14T08:12:36.001Z</time>
      </trkpt>
      <trkpt lat="49.30598" lon="-0.32353">
        <ele>7.939</ele>
        <time>2019-11-14T08:13:09.001Z</time>
      </trkpt>
      <trkpt lat="49.30612" lon="-0.32198">
        <ele>8.597</ele>
        <time>2019-11-14T08:13:42.001Z</time>
      </trkpt>
      <trkpt lat="49.3055" lon="-0.32072">
        <ele>10.555</ele>
        <time>2019-11-14T08:14:12.001Z</time>
      </trkpt>
      <trkpt lat="49.30494" lon="-0.31921">
        <ele>10.234</ele>
        <time>2019-11-14T08:14:45.001Z</time>
      </trkpt>
      <trkpt lat="49.30409" lon="-0.31788">
        <ele>11.349</ele>
        <time>2019-11-14T08:15:18.001Z</time>
      </trkpt>
      <trkpt lat="49.30336" lon="-0.3163">
        <ele>11.378</ele>
        <time>2019-11-14T08:15:51.001Z</time>
      </trkpt>
      <trkpt lat="49.30271" lon="-0.31446">
        <ele>11.274</ele>
        <time>2019-11-14T08:16:24.001Z</time>
      </trkpt>
      <trkpt lat="49.30196" lon="-0.31271">
        <ele>10.804</ele>
        <time>2019-11-14T08:16:57.001Z</time>
      </trkpt>
      <trkpt lat="49.30139" lon="-0.31117">
        <ele>11.825</ele>
        <time>2019-11-14T08:17:27.001Z</time>
      </trkpt>
      <trkpt lat="49.30073" lon="-0.30954">
        <ele>7.735</ele>
        <time>2019-11-14T08:18:00Z</time>
      </trkpt>
      <trkpt lat="49.30006" lon="-0.30784">
        <ele>8.411</ele>
        <time>2019-11-14T08:18:33.001Z</time>
      </trkpt>
      <trkpt lat="49.29943" lon="-0.30605">
        <ele>6.763</ele>
        <time>2019-11-14T08:19:06.001Z</time>
      </trkpt>
      <trkpt lat="49.29885" lon="-0.30421">
        <ele>5.732</ele>
        <time>2019-11-14T08:19:39.001Z</time>
      </trkpt>
      <trkpt lat="49.29833" lon="-0.30253">
        <ele>5.883</ele>
        <time>2019-11-14T08:20:12.001Z</time>
      </trkpt>
      <trkpt lat="49.29797" lon="-0.30097">
        <ele>6.849</ele>
        <time>2019-11-14T08:20:42.001Z</time>
      </trkpt>
      <trkpt lat="49.29748" lon="-0.29915">
        <ele>4.352</ele>
        <time>2019-11-14T08:21:15.001Z</time>
      </trkpt>
      <trkpt lat="49.29702" lon="-0.29759">
        <ele>6.406</ele>
        <time>2019-11-14T08:21:48.001Z</time>
      </trkpt>
      <trkpt lat="49.29652" lon="-0.2959">
        <ele>4.773</ele>
        <time>2019-11-14T08:22:21.001Z</time>
      </trkpt>
      <trkpt lat="49.29604" lon="-0.2941">
        <ele>3.994</ele>
        <time>2019-11-14T08:22:54.001Z</time>
      </trkpt>
      <trkpt lat="49.29557" lon="-0.29236">
        <ele>4.834</ele>
        <time>2019-11-14T08:23:27.001Z</time>
      </trkpt>
      <trkpt lat="49.29501" lon="-0.29074">
        <ele>5.44</ele>
        <time>2019-11-14T08:23:57.001Z</time>
      </trkpt>
      <trkpt lat="49.2947" lon="-0.28913">
        <ele>5.118</ele>
        <time>2019-11-14T08:24:30.001Z</time>
      </trkpt>
      <trkpt lat="49.29448" lon="-0.28779">
        <ele>6.666</ele>
        <time>2019-11-14T08:25:03.001Z</time>
      </trkpt>
      <trkpt lat="49.29415" lon="-0.28619">
        <ele>5.307</ele>
        <time>2019-11-14T08:25:36.001Z</time>
      </trkpt>
      <trkpt lat="49.29368" lon="-0.2842">
        <ele>5.148</ele>
        <time>2019-11-14T08:26:09.001Z</time>
      </trkpt>
      <trkpt lat="49.29328" lon="-0.28235">
        <ele>7.616</ele>
        <time>2019-11-14T08:26:42.001Z</time>
      </trkpt>
      <trkpt lat="49.29295" lon="-0.28054">
        <ele>8.89</ele>
        <time>2019-11-14T08:27:12.001Z</time>
      </trkpt>
      <trkpt lat="49.29273" lon="-0.27849">
        <ele>8.03</ele>
        <time>2019-11-14T08:27:45.001Z</time>
      </trkpt>
      <trkpt lat="49.29251" lon="-0.2765">
        <ele>7.682</ele>
        <time>2019-11-14T08:28:18.001Z</time>
      </trkpt>
      <trkpt lat="49.29223" lon="-0.27459">
        <ele>7.574</ele>
        <time>2019-11-14T08:28:51.001Z</time>
      </trkpt>
      <trkpt lat="49.29183" lon="-0.27271">
        <ele>9.176</ele>
        <time>2019-11-14T08:29:24.001Z</time>
      </trkpt>
      <trkpt lat="49.29163" lon="-0.27062">
        <ele>7.189</ele>
        <time>2019-11-14T08:29:57.001Z</time>
      </trkpt>
      <trkpt lat="49.29149" lon="-0.26863">
        <ele>5.727</ele>
        <time>2019-11-14T08:30:27.001Z</time>
      </trkpt>
      <trkpt lat="49.29127" lon="-0.26651">
        <ele>5.849</ele>
        <time>2019-11-14T08:31:00Z</time>
      </trkpt>
      <trkpt lat="49.29062" lon="-0.26466">
        <ele>7.206</ele>
        <time>2019-11-14T08:31:33.001Z</time>
      </trkpt>
      <trkpt lat="49.29018" lon="-0.26248">
        <ele>10.106</ele>
        <time>2019-11-14T08:32:06.001Z</time>
      </trkpt>
      <trkpt lat="49.28997" lon="-0.26039">
        <ele>6.817</ele>
        <time>2019-11-14T08:32:39.001Z</time>
      </trkpt>
      <trkpt lat="49.28948" lon="-0.25857">
        <ele>8.411</ele>
        <time>2019-11-14T08:33:12.001Z</time>
      </trkpt>
      <trkpt lat="49.28907" lon="-0.25693">
        <ele>10.627</ele>
        <time>2019-11-14T08:33:42.001Z</time>
      </trkpt>
      <trkpt lat="49.28876" lon="-0.25512">
        <ele>11.413</ele>
        <time>2019-11-14T08:34:15.001Z</time>
      </trkpt>
      <trkpt lat="49.28871" lon="-0.25331">
        <ele>4.386</ele>
        <time>2019-11-14T08:34:48.001Z</time>
      </trkpt>
      <trkpt lat="49.28837" lon="-0.25157">
        <ele>6.468</ele>
        <time>2019-11-14T08:35:21.001Z</time>
      </trkpt>
      <trkpt lat="49.28758" lon="-0.25033">
        <ele>8.401</ele>
        <time>2019-11-14T08:35:54.001Z</time>
      </trkpt>
      <trkpt lat="49.28669" lon="-0.24941">
        <ele>11.278</ele>
        <time>2019-11-14T08:36:27.001Z</time>
      </trkpt>
      <trkpt lat="49.28555" lon="-0.24994">
        <ele>8.55</ele>
        <time>2019-11-14T08:36:57.001Z</time>
      </trkpt>
      <trkpt lat="49.28441" lon="-0.25023">
        <ele>7.529</ele>
        <time>2019-11-14T08:37:30.001Z</time>
      </trkpt>
      <trkpt lat="49.28328" lon="-0.25054">
        <ele>9.424</ele>
        <time>2019-11-14T08:38:03.001Z</time>
      </trkpt>
      <trkpt lat="49.28253" lon="-0.24967">
        <ele>8.954</ele>
        <time>2019-11-14T08:38:36.001Z</time>
      </trkpt>
      <trkpt lat="49.28219" lon="-0.2497">
        <ele>7.083</ele>
        <time>2019-11-14T08:39:54.001Z</time>
      </trkpt>
      <trkpt lat="49.28118" lon="-0.25029">
        <ele>7.693</ele>
        <time>2019-11-14T08:40:27.001Z</time>
      </trkpt>
      <trkpt lat="49.28015" lon="-0.25073">
        <ele>11.396</ele>
        <time>2019-11-14T08:40:57.001Z</time>
      </trkpt>
      <trkpt lat="49.27922" lon="-0.2502">
        <ele>7.516</ele>
        <time>2019-11-14T08:41:30.001Z</time>
      </trkpt>
      <trkpt lat="49.27841" lon="-0.25014">
        <ele>5.808</ele>
        <time>2019-11-14T08:42:03.001Z</time>
      </trkpt>
      <trkpt lat="49.27781" lon="-0.25041">
        <ele>7.539</ele>
        <time>2019-11-14T08:45:01.001Z</time>
      </trkpt>
      <trkpt lat="49.2768" lon="-0.25065">
        <ele>6.844</ele>
        <time>2019-11-14T08:45:34.001Z</time>
      </trkpt>
      <trkpt lat="49.27571" lon="-0.25097">
        <ele>3.866</ele>
        <time>2019-11-14T08:46:07.001Z</time>
      </trkpt>
      <trkpt lat="49.27479" lon="-0.25124">
        <ele>6.635</ele>
        <time>2019-11-14T08:46:37.001Z</time>
      </trkpt>
      <trkpt lat="49.27375" lon="-0.25163">
        <ele>8.765</ele>
        <time>2019-11-14T08:47:10.001Z</time>
      </trkpt>
      <trkpt lat="49.2727" lon="-0.25194">
        <ele>5.458</ele>
        <time>2019-11-14T08:47:43.001Z</time>
      </trkpt>
      <trkpt lat="49.27169" lon="-0.25219">
        <ele>9.734</ele>
        <time>2019-11-14T08:48:16Z</time>
      </trkpt>
      <trkpt lat="49.27066" lon="-0.25217">
        <ele>9.534</ele>
        <time>2019-11-14T08:48:49.001Z</time>
      </trkpt>
      <trkpt lat="49.26965" lon="-0.25244">
        <ele>6.819</ele>
        <time>2019-11-14T08:49:22.001Z</time>
      </trkpt>
      <trkpt lat="49.26855" lon="-0.25274">
        <ele>4.378</ele>
        <time>2019-11-14T08:49:52.001Z</time>
      </trkpt>
      <trkpt lat="49.26733" lon="-0.2531">
        <ele>4.281</ele>
        <time>2019-11-14T08:50:25.001Z</time>
      </trkpt>
      <trkpt lat="49.26611" lon="-0.25342">
        <ele>6.052</ele>
        <time>2019-11-14T08:50:58.001Z</time>
      </trkpt>
      <trkpt lat="49.26492" lon="-0.25377">
        <ele>5.247</ele>
        <time>2019-11-14T08:51:31.001Z</time>
      </trkpt>
      <trkpt lat="49.26382" lon="-0.25418">
        <ele>5.74</ele>
        <time>2019-11-14T08:52:04.001Z</time>
      </trkpt>
      <trkpt lat="49.2628" lon="-0.25471">
        <ele>6.359</ele>
        <time>2019-11-14T08:52:37.001Z</time>
      </trkpt>
      <trkpt lat="49.26191" lon="-0.25527">
        <ele>4.996</ele>
        <time>2019-11-14T08:53:07.001Z</time>
      </trkpt>
      <trkpt lat="49.26094" lon="-0.256">
        <ele>4.929</ele>
        <time>2019-11-14T08:53:40.001Z</time>
      </trkpt>
      <trkpt lat="49.25989" lon="-0.2569">
        <ele>4.122</ele>
        <time>2019-11-14T08:54:13.001Z</time>
      </trkpt>
      <trkpt lat="49.25891" lon="-0.25789">
        <ele>2.617</ele>
        <time>2019-11-14T08:54:46.001Z</time>
      </trkpt>
      <trkpt lat="49.25805" lon="-0.25908">
        <ele>4.084</ele>
        <time>2019-11-14T08:55:19.001Z</time>
      </trkpt>
      <trkpt lat="49.25741" lon="-0.26061">
        <ele>6.087</ele>
        <time>2019-11-14T08:55:52.001Z</time>
      </trkpt>
      <trkpt lat="49.25689" lon="-0.26211">
        <ele>4.44</ele>
        <time>2019-11-14T08:56:22.001Z</time>
      </trkpt>
      <trkpt lat="49.25622" lon="-0.2637">
        <ele>4.125</ele>
        <time>2019-11-14T08:56:55.001Z</time>
      </trkpt>
      <trkpt lat="49.25541" lon="-0.26505">
        <ele>4.008</ele>
        <time>2019-11-14T08:57:28.001Z</time>
      </trkpt>
      <trkpt lat="49.25451" lon="-0.26613">
        <ele>4.286</ele>
        <time>2019-11-14T08:58:01.001Z</time>
      </trkpt>
      <trkpt lat="49.25348" lon="-0.26703">
        <ele>5.646</ele>
        <time>2019-11-14T08:58:34.001Z</time>
      </trkpt>
      <trkpt lat="49.25242" lon="-0.26783">
        <ele>4.12</ele>
        <time>2019-11-14T08:59:07.001Z</time>
      </trkpt>
      <trkpt lat="49.25148" lon="-0.26854">
        <ele>4.232</ele>
        <time>2019-11-14T08:59:37.001Z</time>
      </trkpt>
      <trkpt lat="49.25042" lon="-0.26936">
        <ele>4.2</ele>
        <time>2019-11-14T09:00:10.001Z</time>
      </trkpt>
      <trkpt lat="49.24938" lon="-0.27016">
        <ele>5.059</ele>
        <time>2019-11-14T09:00:43.001Z</time>
      </trkpt>
      <trkpt lat="49.24835" lon="-0.27096">
        <ele>4.824</ele>
        <time>2019-11-14T09:01:16Z</time>
      </trkpt>
      <trkpt lat="49.24726" lon="-0.27177">
        <ele>4.526</ele>
        <time>2019-11-14T09:01:49.001Z</time>
      </trkpt>
      <trkpt lat="49.24615" lon="-0.27247">
        <ele>4.854</ele>
        <time>2019-11-14T09:02:22.001Z</time>
      </trkpt>
      <trkpt lat="49.24527" lon="-0.27314">
        <ele>4.647</ele>
        <time>2019-11-14T09:02:52.001Z</time>
      </trkpt>
      <trkpt lat="49.24429" lon="-0.27388">
        <ele>4.726</ele>
        <time>2019-11-14T09:03:25.001Z</time>
      </trkpt>
      <trkpt lat="49.24326" lon="-0.27449">
        <ele>5.93</ele>
        <time>2019-11-14T09:03:58.001Z</time>
      </trkpt>
      <trkpt lat="49.24259" lon="-0.27477">
        <ele>7.69</ele>
        <time>2019-11-14T09:17:22.001Z</time>
      </trkpt>
      <trkpt lat="49.24236" lon="-0.27412">
        <ele>7.94</ele>
        <time>2019-11-14T09:17:58.001Z</time>
      </trkpt>
      <trkpt lat="49.24186" lon="-0.273">
        <ele>7.752</ele>
        <time>2019-11-14T09:18:31.001Z</time>
      </trkpt>
      <trkpt lat="49.24134" lon="-0.2713">
        <ele>6.306</ele>
        <time>2019-11-14T09:19:01.001Z</time>
      </trkpt>
      <trkpt lat="49.24088" lon="-0.26947">
        <ele>3.859</ele>
        <time>2019-11-14T09:19:34.001Z</time>
      </trkpt>
      <trkpt lat="49.24058" lon="-0.26809">
        <ele>4.844</ele>
        <time>2019-11-14T09:20:07.001Z</time>
      </trkpt>
      <trkpt lat="49.24034" lon="-0.26696">
        <ele>5.424</ele>
        <time>2019-11-14T09:20:40.001Z</time>
      </trkpt>
      <trkpt lat="49.23993" lon="-0.26525">
        <ele>10.257</ele>
        <time>2019-11-14T09:21:13.001Z</time>
      </trkpt>
      <trkpt lat="49.23918" lon="-0.26388">
        <ele>10.102</ele>
        <time>2019-11-14T09:21:46.001Z</time>
      </trkpt>
      <trkpt lat="49.23869" lon="-0.26403">
        <ele>7.327</ele>
        <time>2019-11-14T09:22:16Z</time>
      </trkpt>
      <trkpt lat="49.23886" lon="-0.26353">
        <ele>8.119</ele>
        <time>2019-11-14T09:24:52.001Z</time>
      </trkpt>
      <trkpt lat="49.2393" lon="-0.26249">
        <ele>9.256</ele>
        <time>2019-11-14T09:25:25.001Z</time>
      </trkpt>
      <trkpt lat="49.23913" lon="-0.26125">
        <ele>10.741</ele>
        <time>2019-11-14T09:25:58.001Z</time>
      </trkpt>
      <trkpt lat="49.23907" lon="-0.26025">
        <ele>14.532</ele>
        <time>2019-11-14T09:26:31.001Z</time>
      </trkpt>
      <trkpt lat="49.23912" lon="-0.25923">
        <ele>19.95</ele>
        <time>2019-11-14T09:27:04.001Z</time>
      </trkpt>
      <trkpt lat="49.23921" lon="-0.25828">
        <ele>24.326</ele>
        <time>2019-11-14T09:27:34.001Z</time>
      </trkpt>
      <trkpt lat="49.23947" lon="-0.25694">
        <ele>28.028</ele>
        <time>2019-11-14T09:28:07.001Z</time>
      </trkpt>
      <trkpt lat="49.24004" lon="-0.25546">
        <ele>25.803</ele>
        <time>2019-11-14T09:28:40.001Z</time>
      </trkpt>
      <trkpt lat="49.24131" lon="-0.25405">
        <ele>24.98</ele>
        <time>2019-11-14T09:29:13.001Z</time>
      </trkpt>
      <trkpt lat="49.243" lon="-0.25288">
        <ele>22.897</ele>
        <time>2019-11-14T09:29:46.001Z</time>
      </trkpt>
      <trkpt lat="49.24427" lon="-0.25201">
        <ele>24.238</ele>
        <time>2019-11-14T09:30:16Z</time>
      </trkpt>
      <trkpt lat="49.24564" lon="-0.25088">
        <ele>28.886</ele>
        <time>2019-11-14T09:30:49.001Z</time>
      </trkpt>
      <trkpt lat="49.24673" lon="-0.24925">
        <ele>30.775</ele>
        <time>2019-11-14T09:31:22.001Z</time>
      </trkpt>
      <trkpt lat="49.24793" lon="-0.24742">
        <ele>30.115</ele>
        <time>2019-11-14T09:31:55.001Z</time>
      </trkpt>
      <trkpt lat="49.24931" lon="-0.24545">
        <ele>25.4</ele>
        <time>2019-11-14T09:32:28.001Z</time>
      </trkpt>
      <trkpt lat="49.25106" lon="-0.24376">
        <ele>21.307</ele>
        <time>2019-11-14T09:33:01.001Z</time>
      </trkpt>
      <trkpt lat="49.25238" lon="-0.24286">
        <ele>22.183</ele>
        <time>2019-11-14T09:33:31.001Z</time>
      </trkpt>
      <trkpt lat="49.25386" lon="-0.24221">
        <ele>24.332</ele>
        <time>2019-11-14T09:34:04.001Z</time>
      </trkpt>
      <trkpt lat="49.25586" lon="-0.24042">
        <ele>21.514</ele>
        <time>2019-11-14T09:34:37.001Z</time>
      </trkpt>
      <trkpt lat="49.25781" lon="-0.23837">
        <ele>16.438</ele>
        <time>2019-11-14T09:35:10.001Z</time>
      </trkpt>
      <trkpt lat="49.26023" lon="-0.23632">
        <ele>7.567</ele>
        <time>2019-11-14T09:35:43.001Z</time>
      </trkpt>
      <trkpt lat="49.26183" lon="-0.23389">
        <ele>8.297</ele>
        <time>2019-11-14T09:36:16Z</time>
      </trkpt>
      <trkpt lat="49.26288" lon="-0.23151">
        <ele>9.795</ele>
        <time>2019-11-14T09:36:46.001Z</time>
      </trkpt>
      <trkpt lat="49.26368" lon="-0.22936">
        <ele>12.297</ele>
        <time>2019-11-14T09:37:19.001Z</time>
      </trkpt>
      <trkpt lat="49.26444" lon="-0.22705">
        <ele>13.968</ele>
        <time>2019-11-14T09:37:52.001Z</time>
      </trkpt>
      <trkpt lat="49.26511" lon="-0.22546">
        <ele>7.564</ele>
        <time>2019-11-14T09:38:25.001Z</time>
      </trkpt>
      <trkpt lat="49.26551" lon="-0.22347">
        <ele>3.945</ele>
        <time>2019-11-14T09:38:58.001Z</time>
      </trkpt>
      <trkpt lat="49.26654" lon="-0.22157">
        <ele>7.782</ele>
        <time>2019-11-14T09:39:31.001Z</time>
      </trkpt>
      <trkpt lat="49.26795" lon="-0.22074">
        <ele>10.587</ele>
        <time>2019-11-14T09:40:01.001Z</time>
      </trkpt>
      <trkpt lat="49.26967" lon="-0.22018">
        <ele>15.952</ele>
        <time>2019-11-14T09:40:34.001Z</time>
      </trkpt>
      <trkpt lat="49.2712" lon="-0.21869">
        <ele>5.845</ele>
        <time>2019-11-14T09:41:07.001Z</time>
      </trkpt>
      <trkpt lat="49.27247" lon="-0.21688">
        <ele>8.252</ele>
        <time>2019-11-14T09:41:40.001Z</time>
      </trkpt>
      <trkpt lat="49.27363" lon="-0.21515">
        <ele>7.405</ele>
        <time>2019-11-14T09:42:13.001Z</time>
      </trkpt>
      <trkpt lat="49.27444" lon="-0.21309">
        <ele>9.866</ele>
        <time>2019-11-14T09:42:46.001Z</time>
      </trkpt>
      <trkpt lat="49.27507" lon="-0.21099">
        <ele>6.782</ele>
        <time>2019-11-14T09:43:16Z</time>
      </trkpt>
      <trkpt lat="49.27589" lon="-0.20873">
        <ele>5.766</ele>
        <time>2019-11-14T09:43:49.001Z</time>
      </trkpt>
      <trkpt lat="49.27696" lon="-0.20676">
        <ele>6.407</ele>
        <time>2019-11-14T09:44:22.001Z</time>
      </trkpt>
      <trkpt lat="49.27829" lon="-0.20485">
        <ele>4.618</ele>
        <time>2019-11-14T09:44:55.001Z</time>
      </trkpt>
      <trkpt lat="49.2791" lon="-0.20271">
        <ele>8.177</ele>
        <time>2019-11-14T09:45:28.001Z</time>
      </trkpt>
      <trkpt lat="49.27995" lon="-0.20052">
        <ele>6.995</ele>
        <time>2019-11-14T09:46:01.001Z</time>
      </trkpt>
      <trkpt lat="49.28063" lon="-0.19845">
        <ele>8.956</ele>
        <time>2019-11-14T09:46:31.001Z</time>
      </trkpt>
      <trkpt lat="49.28128" lon="-0.19613">
        <ele>8.372</ele>
        <time>2019-11-14T09:47:04.001Z</time>
      </trkpt>
      <trkpt lat="49.28204" lon="-0.19396">
        <ele>9.053</ele>
        <time>2019-11-14T09:47:37.001Z</time>
      </trkpt>
      <trkpt lat="49.28286" lon="-0.19169">
        <ele>7.268</ele>
        <time>2019-11-14T09:48:10.001Z</time>
      </trkpt>
      <trkpt lat="49.28337" lon="-0.18932">
        <ele>6.937</ele>
        <time>2019-11-14T09:48:43.001Z</time>
      </trkpt>
      <trkpt lat="49.28394" lon="-0.18714">
        <ele>11.046</ele>
        <time>2019-11-14T09:49:16Z</time>
      </trkpt>
      <trkpt lat="49.28458" lon="-0.18511">
        <ele>11.559</ele>
        <time>2019-11-14T09:49:46.001Z</time>
      </trkpt>
      <trkpt lat="49.2847" lon="-0.18282">
        <ele>9.092</ele>
        <time>2019-11-14T09:50:19.001Z</time>
      </trkpt>
      <trkpt lat="49.28456" lon="-0.18057">
        <ele>10.112</ele>
        <time>2019-11-14T09:50:52.001Z</time>
      </trkpt>
      <trkpt lat="49.28467" lon="-0.17838">
        <ele>14.991</ele>
        <time>2019-11-14T09:51:25.001Z</time>
      </trkpt>
      <trkpt lat="49.28492" lon="-0.17617">
        <ele>6.664</ele>
        <time>2019-11-14T09:51:58.001Z</time>
      </trkpt>
      <trkpt lat="49.28467" lon="-0.17394">
        <ele>6.479</ele>
        <time>2019-11-14T09:52:31.001Z</time>
      </trkpt>
      <trkpt lat="49.28441" lon="-0.17187">
        <ele>6.243</ele>
        <time>2019-11-14T09:53:01.001Z</time>
      </trkpt>
      <trkpt lat="49.28428" lon="-0.16959">
        <ele>6.563</ele>
        <time>2019-11-14T09:53:34.001Z</time>
      </trkpt>
      <trkpt lat="49.28448" lon="-0.16727">
        <ele>14.303</ele>
        <time>2019-11-14T09:54:07.001Z</time>
      </trkpt>
      <trkpt lat="49.28446" lon="-0.16496">
        <ele>17.147</ele>
        <time>2019-11-14T09:54:40.001Z</time>
      </trkpt>
      <trkpt lat="49.28468" lon="-0.1625">
        <ele>16.502</ele>
        <time>2019-11-14T09:55:13.001Z</time>
      </trkpt>
      <trkpt lat="49.2846" lon="-0.15998">
        <ele>15.919</ele>
        <time>2019-11-14T09:55:46.001Z</time>
      </trkpt>
      <trkpt lat="49.28449" lon="-0.15798">
        <ele>15.205</ele>
        <time>2019-11-14T09:56:16Z</time>
      </trkpt>
      <trkpt lat="49.28441" lon="-0.15557">
        <ele>13.675</ele>
        <time>2019-11-14T09:56:49.001Z</time>
      </trkpt>
      <trkpt lat="49.28435" lon="-0.15325">
        <ele>10.848</ele>
        <time>2019-11-14T09:57:22.001Z</time>
      </trkpt>
      <trkpt lat="49.28434" lon="-0.15101">
        <ele>13.647</ele>
        <time>2019-11-14T09:57:55.001Z</time>
      </trkpt>
      <trkpt lat="49.28444" lon="-0.14869">
        <ele>10.663</ele>
        <time>2019-11-14T09:58:28.001Z</time>
      </trkpt>
      <trkpt lat="49.28458" lon="-0.14632">
        <ele>7.941</ele>
        <time>2019-11-14T09:59:01.001Z</time>
      </trkpt>
      <trkpt lat="49.28489" lon="-0.14436">
        <ele>10.151</ele>
        <time>2019-11-14T09:59:31.001Z</time>
      </trkpt>
      <trkpt lat="49.28524" lon="-0.14211">
        <ele>9.913</ele>
        <time>2019-11-14T10:00:04.001Z</time>
      </trkpt>
      <trkpt lat="49.28541" lon="-0.13979">
        <ele>9.351</ele>
        <time>2019-11-14T10:00:37.001Z</time>
      </trkpt>
      <trkpt lat="49.28568" lon="-0.13748">
        <ele>5.072</ele>
        <time>2019-11-14T10:01:10.001Z</time>
      </trkpt>
      <trkpt lat="49.28596" lon="-0.13534">
        <ele>6.005</ele>
        <time>2019-11-14T10:01:43.001Z</time>
      </trkpt>
      <trkpt lat="49.28625" lon="-0.13316">
        <ele>8.92</ele>
        <time>2019-11-14T10:02:16Z</time>
      </trkpt>
      <trkpt lat="49.28653" lon="-0.13107">
        <ele>8.295</ele>
        <time>2019-11-14T10:02:46.001Z</time>
      </trkpt>
      <trkpt lat="49.28682" lon="-0.1288">
        <ele>6.348</ele>
        <time>2019-11-14T10:03:19.001Z</time>
      </trkpt>
      <trkpt lat="49.2871" lon="-0.12663">
        <ele>6.321</ele>
        <time>2019-11-14T10:03:52.001Z</time>
      </trkpt>
      <trkpt lat="49.28738" lon="-0.12446">
        <ele>6.589</ele>
        <time>2019-11-14T10:04:25.001Z</time>
      </trkpt>
      <trkpt lat="49.28704" lon="-0.12294">
        <ele>7.846</ele>
        <time>2019-11-14T10:04:58.001Z</time>
      </trkpt>
      <trkpt lat="49.28598" lon="-0.12216">
        <ele>5.83</ele>
        <time>2019-11-14T10:05:31.001Z</time>
      </trkpt>
      <trkpt lat="49.28635" lon="-0.12026">
        <ele>9.914</ele>
        <time>2019-11-14T10:06:01.001Z</time>
      </trkpt>
      <trkpt lat="49.28676" lon="-0.11811">
        <ele>7.814</ele>
        <time>2019-11-14T10:06:34.001Z</time>
      </trkpt>
      <trkpt lat="49.28681" lon="-0.11596">
        <ele>9.353</ele>
        <time>2019-11-14T10:07:07.001Z</time>
      </trkpt>
      <trkpt lat="49.28634" lon="-0.11387">
        <ele>7.977</ele>
        <time>2019-11-14T10:07:40.001Z</time>
      </trkpt>
      <trkpt lat="49.28588" lon="-0.1123">
        <ele>12.254</ele>
        <time>2019-11-14T10:08:13.001Z</time>
      </trkpt>
      <trkpt lat="49.28542" lon="-0.11045">
        <ele>7.797</ele>
        <time>2019-11-14T10:08:46.001Z</time>
      </trkpt>
      <trkpt lat="49.28518" lon="-0.10819">
        <ele>5.677</ele>
        <time>2019-11-14T10:09:16Z</time>
      </trkpt>
      <trkpt lat="49.28516" lon="-0.1059">
        <ele>8.51</ele>
        <time>2019-11-14T10:09:49.001Z</time>
      </trkpt>
      <trkpt lat="49.28533" lon="-0.10369">
        <ele>8.662</ele>
        <time>2019-11-14T10:10:22.001Z</time>
      </trkpt>
      <trkpt lat="49.28562" lon="-0.10216">
        <ele>16.435</ele>
        <time>2019-11-14T10:11:01.001Z</time>
      </trkpt>
      <trkpt lat="49.2868" lon="-0.10079">
        <ele>14.11</ele>
        <time>2019-11-14T10:11:34.001Z</time>
      </trkpt>
      <trkpt lat="49.28738" lon="-0.10017">
        <ele>13.62</ele>
        <time>2019-11-14T10:12:10.001Z</time>
      </trkpt>
      <trkpt lat="49.28833" lon="-0.09903">
        <ele>9.116</ele>
        <time>2019-11-14T10:12:40.001Z</time>
      </trkpt>
      <trkpt lat="49.28955" lon="-0.09769">
        <ele>9.022</ele>
        <time>2019-11-14T10:13:13.001Z</time>
      </trkpt>
      <trkpt lat="49.29065" lon="-0.0964">
        <ele>11.729</ele>
        <time>2019-11-14T10:13:46.001Z</time>
      </trkpt>
      <trkpt lat="49.29138" lon="-0.09557">
        <ele>15.056</ele>
        <time>2019-11-14T10:14:25.001Z</time>
      </trkpt>
      <trkpt lat="49.29266" lon="-0.09414">
        <ele>13.224</ele>
        <time>2019-11-14T10:14:58.001Z</time>
      </trkpt>
      <trkpt lat="49.29248" lon="-0.09232">
        <ele>5.703</ele>
        <time>2019-11-14T10:15:31.001Z</time>
      </trkpt>
      <trkpt lat="49.29332" lon="-0.09137">
        <ele>11.22</ele>
        <time>2019-11-14T10:16:04.001Z</time>
      </trkpt>
      <trkpt lat="49.29455" lon="-0.09007">
        <ele>18.934</ele>
        <time>2019-11-14T10:16:37.001Z</time>
      </trkpt>
      <trkpt lat="49.29546" lon="-0.08814">
        <ele>15.583</ele>
        <time>2019-11-14T10:17:10.001Z</time>
      </trkpt>
      <trkpt lat="49.29674" lon="-0.08692">
        <ele>13.072</ele>
        <time>2019-11-14T10:17:43.001Z</time>
      </trkpt>
      <trkpt lat="49.298" lon="-0.08566">
        <ele>14.081</ele>
        <time>2019-11-14T10:18:16Z</time>
      </trkpt>
      <trkpt lat="49.29923" lon="-0.08445">
        <ele>14.069</ele>
        <time>2019-11-14T10:18:49.001Z</time>
      </trkpt>
      <trkpt lat="49.30013" lon="-0.08344">
        <ele>14.425</ele>
        <time>2019-11-14T10:19:19.001Z</time>
      </trkpt>
      <trkpt lat="49.30143" lon="-0.08219">
        <ele>12.37</ele>
        <time>2019-11-14T10:19:52.001Z</time>
      </trkpt>
      <trkpt lat="49.30228" lon="-0.0805">
        <ele>13.524</ele>
        <time>2019-11-14T10:20:25.001Z</time>
      </trkpt>
      <trkpt lat="49.3027" lon="-0.07909">
        <ele>20.236</ele>
        <time>2019-11-14T10:20:58.001Z</time>
      </trkpt>
      <trkpt lat="49.30305" lon="-0.07821">
        <ele>19.585</ele>
        <time>2019-11-14T10:24:58.001Z</time>
      </trkpt>
      <trkpt lat="49.30351" lon="-0.07684">
        <ele>23.862</ele>
        <time>2019-11-14T10:25:31.001Z</time>
      </trkpt>
      <trkpt lat="49.30398" lon="-0.07541">
        <ele>28.003</ele>
        <time>2019-11-14T10:26:01.001Z</time>
      </trkpt>
      <trkpt lat="49.30383" lon="-0.0743">
        <ele>20.03</ele>
        <time>2019-11-14T10:26:34.001Z</time>
      </trkpt>
      <trkpt lat="49.30314" lon="-0.07358">
        <ele>22.562</ele>
        <time>2019-11-14T10:27:07.001Z</time>
      </trkpt>
      <trkpt lat="49.30237" lon="-0.07287">
        <ele>27.764</ele>
        <time>2019-11-14T10:27:40.001Z</time>
      </trkpt>
      <trkpt lat="49.30179" lon="-0.07231">
        <ele>29.227</ele>
        <time>2019-11-14T10:28:13.001Z</time>
      </trkpt>
      <trkpt lat="49.30123" lon="-0.07187">
        <ele>36.486</ele>
        <time>2019-11-14T10:28:49.001Z</time>
      </trkpt>
      <trkpt lat="49.30098" lon="-0.07114">
        <ele>39.03</ele>
        <time>2019-11-14T10:29:19.001Z</time>
      </trkpt>
      <trkpt lat="49.30124" lon="-0.07035">
        <ele>40.041</ele>
        <time>2019-11-14T10:29:52.001Z</time>
      </trkpt>
      <trkpt lat="49.30181" lon="-0.0699">
        <ele>48.11</ele>
        <time>2019-11-14T10:30:34.001Z</time>
      </trkpt>
      <trkpt lat="49.30253" lon="-0.06993">
        <ele>52.35</ele>
        <time>2019-11-14T10:31:16Z</time>
      </trkpt>
      <trkpt lat="49.30321" lon="-0.06973">
        <ele>56.125</ele>
        <time>2019-11-14T10:31:49.001Z</time>
      </trkpt>
      <trkpt lat="49.30384" lon="-0.06934">
        <ele>60.195</ele>
        <time>2019-11-14T10:32:22.001Z</time>
      </trkpt>
      <trkpt lat="49.3043" lon="-0.06898">
        <ele>64.262</ele>
        <time>2019-11-14T10:32:52.001Z</time>
      </trkpt>
      <trkpt lat="49.30462" lon="-0.06837">
        <ele>69.353</ele>
        <time>2019-11-14T10:33:55.001Z</time>
      </trkpt>
      <trkpt lat="49.30421" lon="-0.06815">
        <ele>65.58</ele>
        <time>2019-11-14T10:34:49.001Z</time>
      </trkpt>
      <trkpt lat="49.30378" lon="-0.06824">
        <ele>74.602</ele>
        <time>2019-11-14T10:35:49.001Z</time>
      </trkpt>
      <trkpt lat="49.30313" lon="-0.06817">
        <ele>84.09</ele>
        <time>2019-11-14T10:36:25.001Z</time>
      </trkpt>
      <trkpt lat="49.30254" lon="-0.06776">
        <ele>91.692</ele>
        <time>2019-11-14T10:36:58.001Z</time>
      </trkpt>
      <trkpt lat="49.30218" lon="-0.06703">
        <ele>95.785</ele>
        <time>2019-11-14T10:37:28.001Z</time>
      </trkpt>
      <trkpt lat="49.30182" lon="-0.06607">
        <ele>97.588</ele>
        <time>2019-11-14T10:38:01.001Z</time>
      </trkpt>
      <trkpt lat="49.30153" lon="-0.06487">
        <ele>101.568</ele>
        <time>2019-11-14T10:38:34.001Z</time>
      </trkpt>
      <trkpt lat="49.30139" lon="-0.0638">
        <ele>104.931</ele>
        <time>2019-11-14T10:39:07.001Z</time>
      </trkpt>
      <trkpt lat="49.30138" lon="-0.06288">
        <ele>103.538</ele>
        <time>2019-11-14T10:39:40.001Z</time>
      </trkpt>
      <trkpt lat="49.30143" lon="-0.0619">
        <ele>105.184</ele>
        <time>2019-11-14T10:40:13.001Z</time>
      </trkpt>
      <trkpt lat="49.30145" lon="-0.06098">
        <ele>110.836</ele>
        <time>2019-11-14T10:40:43.001Z</time>
      </trkpt>
      <trkpt lat="49.30148" lon="-0.06">
        <ele>116.813</ele>
        <time>2019-11-14T10:41:16Z</time>
      </trkpt>
      <trkpt lat="49.30149" lon="-0.059">
        <ele>124.505</ele>
        <time>2019-11-14T10:41:49.001Z</time>
      </trkpt>
      <trkpt lat="49.30199" lon="-0.05752">
        <ele>113.631</ele>
        <time>2019-11-14T10:42:22.001Z</time>
      </trkpt>
      <trkpt lat="49.30331" lon="-0.05713">
        <ele>114.386</ele>
        <time>2019-11-14T10:42:55.001Z</time>
      </trkpt>
      <trkpt lat="49.30425" lon="-0.05756">
        <ele>110.911</ele>
        <time>2019-11-14T10:43:25.001Z</time>
      </trkpt>
      <trkpt lat="49.30536" lon="-0.05583">
        <ele>111.367</ele>
        <time>2019-11-14T10:43:58.001Z</time>
      </trkpt>
      <trkpt lat="49.30576" lon="-0.05422">
        <ele>108.845</ele>
        <time>2019-11-14T10:44:31.001Z</time>
      </trkpt>
      <trkpt lat="49.30592" lon="-0.05272">
        <ele>111.198</ele>
        <time>2019-11-14T10:45:04.001Z</time>
      </trkpt>
      <trkpt lat="49.30611" lon="-0.05081">
        <ele>116.131</ele>
        <time>2019-11-14T10:45:37.001Z</time>
      </trkpt>
      <trkpt lat="49.30628" lon="-0.04854">
        <ele>115.671</ele>
        <time>2019-11-14T10:46:10.001Z</time>
      </trkpt>
      <trkpt lat="49.30657" lon="-0.04709">
        <ele>113.754</ele>
        <time>2019-11-14T10:46:40.001Z</time>
      </trkpt>
      <trkpt lat="49.30683" lon="-0.0454">
        <ele>119.3</ele>
        <time>2019-11-14T10:47:13.001Z</time>
      </trkpt>
      <trkpt lat="49.30729" lon="-0.04376">
        <ele>122.771</ele>
        <time>2019-11-14T10:47:46.001Z</time>
      </trkpt>
      <trkpt lat="49.30762" lon="-0.04197">
        <ele>120.744</ele>
        <time>2019-11-14T10:48:19.001Z</time>
      </trkpt>
      <trkpt lat="49.30772" lon="-0.04015">
        <ele>119.507</ele>
        <time>2019-11-14T10:48:52.001Z</time>
      </trkpt>
      <trkpt lat="49.30791" lon="-0.03831">
        <ele>120.994</ele>
        <time>2019-11-14T10:49:25.001Z</time>
      </trkpt>
      <trkpt lat="49.30759" lon="-0.0368">
        <ele>122.954</ele>
        <time>2019-11-14T10:49:55.001Z</time>
      </trkpt>
      <trkpt lat="49.30739" lon="-0.03507">
        <ele>125.194</ele>
        <time>2019-11-14T10:50:28.001Z</time>
      </trkpt>
      <trkpt lat="49.30734" lon="-0.03316">
        <ele>128.291</ele>
        <time>2019-11-14T10:51:01.001Z</time>
      </trkpt>
      <trkpt lat="49.30727" lon="-0.0313">
        <ele>130.126</ele>
        <time>2019-11-14T10:51:34.001Z</time>
      </trkpt>
      <trkpt lat="49.30634" lon="-0.03044">
        <ele>131.146</ele>
        <time>2019-11-14T10:52:07.001Z</time>
      </trkpt>
      <trkpt lat="49.30638" lon="-0.02912">
        <ele>130.668</ele>
        <time>2019-11-14T10:52:40.001Z</time>
      </trkpt>
      <trkpt lat="49.30676" lon="-0.02764">
        <ele>132.709</ele>
        <time>2019-11-14T10:53:10.001Z</time>
      </trkpt>
      <trkpt lat="49.30719" lon="-0.02582">
        <ele>128.329</ele>
        <time>2019-11-14T10:53:43.001Z</time>
      </trkpt>
      <trkpt lat="49.30772" lon="-0.02367">
        <ele>127.164</ele>
        <time>2019-11-14T10:54:16Z</time>
      </trkpt>
      <trkpt lat="49.30835" lon="-0.02122">
        <ele>126.527</ele>
        <time>2019-11-14T10:54:49.001Z</time>
      </trkpt>
      <trkpt lat="49.30885" lon="-0.01792">
        <ele>123.874</ele>
        <time>2019-11-14T10:55:22.001Z</time>
      </trkpt>
      <trkpt lat="49.3117" lon="-0.01405">
        <ele>97.896</ele>
        <time>2019-11-14T10:55:55.001Z</time>
      </trkpt>
      <trkpt lat="49.31381" lon="-0.01144">
        <ele>73.282</ele>
        <time>2019-11-14T10:56:25.001Z</time>
      </trkpt>
      <trkpt lat="49.31632" lon="-0.00913">
        <ele>57.791</ele>
        <time>2019-11-14T10:56:58.001Z</time>
      </trkpt>
      <trkpt lat="49.31942" lon="-0.00647">
        <ele>31.595</ele>
        <time>2019-11-14T10:57:31.001Z</time>
      </trkpt>
      <trkpt lat="49.32134" lon="-0.00567">
        <ele>20.671</ele>
        <time>2019-11-14T10:58:04.001Z</time>
      </trkpt>
      <trkpt lat="49.32345" lon="-0.00515">
        <ele>14.694</ele>
        <time>2019-11-14T10:58:37.001Z</time>
      </trkpt>
      <trkpt lat="49.32447" lon="-0.00336">
        <ele>10</ele>
        <time>2019-11-14T10:59:10.001Z</time>
      </trkpt>
      <trkpt lat="49.32511" lon="-0.0014">
        <ele>3.046</ele>
        <time>2019-11-14T10:59:40.001Z</time>
      </trkpt>
      <trkpt lat="49.32586" lon="0.00066">
        <ele>5.703</ele>
        <time>2019-11-14T11:00:13.001Z</time>
      </trkpt>
      <trkpt lat="49.3267" lon="0.00273">
        <ele>12.354</ele>
        <time>2019-11-14T11:00:46.001Z</time>
      </trkpt>
      <trkpt lat="49.32752" lon="0.00469">
        <ele>6.607</ele>
        <time>2019-11-14T11:01:19.001Z</time>
      </trkpt>
      <trkpt lat="49.32841" lon="0.0068">
        <ele>5.824</ele>
        <time>2019-11-14T11:01:52.001Z</time>
      </trkpt>
      <trkpt lat="49.32936" lon="0.00864">
        <ele>9.847</ele>
        <time>2019-11-14T11:02:25.001Z</time>
      </trkpt>
      <trkpt lat="49.33007" lon="0.01036">
        <ele>5.753</ele>
        <time>2019-11-14T11:02:55.001Z</time>
      </trkpt>
      <trkpt lat="49.33097" lon="0.01191">
        <ele>7.362</ele>
        <time>2019-11-14T11:03:28.001Z</time>
      </trkpt>
      <trkpt lat="49.33195" lon="0.01384">
        <ele>3.06</ele>
        <time>2019-11-14T11:04:01.001Z</time>
      </trkpt>
      <trkpt lat="49.33296" lon="0.01583">
        <ele>2.753</ele>
        <time>2019-11-14T11:04:34.001Z</time>
      </trkpt>
      <trkpt lat="49.33392" lon="0.01776">
        <ele>3.76</ele>
        <time>2019-11-14T11:05:07.001Z</time>
      </trkpt>
      <trkpt lat="49.33488" lon="0.0197">
        <ele>7.576</ele>
        <time>2019-11-14T11:05:40.001Z</time>
      </trkpt>
      <trkpt lat="49.33576" lon="0.02147">
        <ele>6.198</ele>
        <time>2019-11-14T11:06:10.001Z</time>
      </trkpt>
      <trkpt lat="49.33673" lon="0.02338">
        <ele>7.449</ele>
        <time>2019-11-14T11:06:43.001Z</time>
      </trkpt>
      <trkpt lat="49.33765" lon="0.02523">
        <ele>3.513</ele>
        <time>2019-11-14T11:07:16Z</time>
      </trkpt>
      <trkpt lat="49.3383" lon="0.02716">
        <ele>1.228</ele>
        <time>2019-11-14T11:07:49.001Z</time>
      </trkpt>
      <trkpt lat="49.33895" lon="0.02928">
        <ele>7.385</ele>
        <time>2019-11-14T11:08:22.001Z</time>
      </trkpt>
      <trkpt lat="49.33942" lon="0.03045">
        <ele>19.345</ele>
        <time>2019-11-14T11:08:55.001Z</time>
      </trkpt>
      <trkpt lat="49.33986" lon="0.0312">
        <ele>21.357</ele>
        <time>2019-11-14T11:09:25.001Z</time>
      </trkpt>
      <trkpt lat="49.34031" lon="0.03194">
        <ele>23.426</ele>
        <time>2019-11-14T11:09:58.001Z</time>
      </trkpt>
      <trkpt lat="49.34076" lon="0.03271">
        <ele>23.716</ele>
        <time>2019-11-14T11:10:31.001Z</time>
      </trkpt>
      <trkpt lat="49.34118" lon="0.03342">
        <ele>32.396</ele>
        <time>2019-11-14T11:11:04.001Z</time>
      </trkpt>
      <trkpt lat="49.34163" lon="0.03414">
        <ele>39.278</ele>
        <time>2019-11-14T11:11:37.001Z</time>
      </trkpt>
      <trkpt lat="49.34205" lon="0.03485">
        <ele>40.37</ele>
        <time>2019-11-14T11:12:10.001Z</time>
      </trkpt>
      <trkpt lat="49.34262" lon="0.03584">
        <ele>40.528</ele>
        <time>2019-11-14T11:12:40.001Z</time>
      </trkpt>
      <trkpt lat="49.34347" lon="0.03728">
        <ele>41.996</ele>
        <time>2019-11-14T11:13:13.001Z</time>
      </trkpt>
      <trkpt lat="49.34412" lon="0.03931">
        <ele>37.4</ele>
        <time>2019-11-14T11:13:46.001Z</time>
      </trkpt>
      <trkpt lat="49.34482" lon="0.04188">
        <ele>36.149</ele>
        <time>2019-11-14T11:14:19.001Z</time>
      </trkpt>
      <trkpt lat="49.34676" lon="0.04536">
        <ele>22.662</ele>
        <time>2019-11-14T11:14:52.001Z</time>
      </trkpt>
      <trkpt lat="49.3484" lon="0.04974">
        <ele>4.063</ele>
        <time>2019-11-14T11:15:25.001Z</time>
      </trkpt>
      <trkpt lat="49.34901" lon="0.05136">
        <ele>3.769</ele>
        <time>2019-11-14T11:15:55.001Z</time>
      </trkpt>
      <trkpt lat="49.34977" lon="0.05348">
        <ele>5.25</ele>
        <time>2019-11-14T11:16:28.001Z</time>
      </trkpt>
      <trkpt lat="49.35058" lon="0.05574">
        <ele>3.004</ele>
        <time>2019-11-14T11:17:01.001Z</time>
      </trkpt>
      <trkpt lat="49.3514" lon="0.05787">
        <ele>6.944</ele>
        <time>2019-11-14T11:17:34.001Z</time>
      </trkpt>
      <trkpt lat="49.35211" lon="0.05996">
        <ele>7.497</ele>
        <time>2019-11-14T11:18:07.001Z</time>
      </trkpt>
      <trkpt lat="49.35287" lon="0.06204">
        <ele>3.958</ele>
        <time>2019-11-14T11:18:40.001Z</time>
      </trkpt>
      <trkpt lat="49.35363" lon="0.0639">
        <ele>4.47</ele>
        <time>2019-11-14T11:19:10.001Z</time>
      </trkpt>
      <trkpt lat="49.35432" lon="0.06588">
        <ele>4.589</ele>
        <time>2019-11-14T11:19:43.001Z</time>
      </trkpt>
      <trkpt lat="49.35508" lon="0.06802">
        <ele>10.502</ele>
        <time>2019-11-14T11:20:16Z</time>
      </trkpt>
      <trkpt lat="49.35584" lon="0.07014">
        <ele>10.89</ele>
        <time>2019-11-14T11:20:49.001Z</time>
      </trkpt>
      <trkpt lat="49.35659" lon="0.07227">
        <ele>13.615</ele>
        <time>2019-11-14T11:21:22.001Z</time>
      </trkpt>
      <trkpt lat="49.35741" lon="0.07445">
        <ele>11.015</ele>
        <time>2019-11-14T11:21:55.001Z</time>
      </trkpt>
      <trkpt lat="49.358" lon="0.07605">
        <ele>7.654</ele>
        <time>2019-11-14T11:22:25.001Z</time>
      </trkpt>
      <trkpt lat="49.35882" lon="0.07824">
        <ele>11.886</ele>
        <time>2019-11-14T11:22:58.001Z</time>
      </trkpt>
      <trkpt lat="49.35958" lon="0.08026">
        <ele>18.528</ele>
        <time>2019-11-14T11:23:31.001Z</time>
      </trkpt>
      <trkpt lat="49.35998" lon="0.08231">
        <ele>13.343</ele>
        <time>2019-11-14T11:24:04.001Z</time>
      </trkpt>
      <trkpt lat="49.36049" lon="0.08398">
        <ele>6.516</ele>
        <time>2019-11-14T11:24:37.001Z</time>
      </trkpt>
      <trkpt lat="49.36104" lon="0.08528">
        <ele>9.136</ele>
        <time>2019-11-14T11:25:10.001Z</time>
      </trkpt>
      <trkpt lat="49.36128" lon="0.08592">
        <ele>5.799</ele>
        <time>2019-11-14T11:28:37.001Z</time>
      </trkpt>
      <trkpt lat="49.36214" lon="0.08644">
        <ele>10.564</ele>
        <time>2019-11-14T11:29:10.001Z</time>
      </trkpt>
      <trkpt lat="49.36276" lon="0.08591">
        <ele>20.737</ele>
        <time>2019-11-14T11:29:43.001Z</time>
      </trkpt>
      <trkpt lat="49.36352" lon="0.08518">
        <ele>26.06</ele>
        <time>2019-11-14T11:30:16Z</time>
      </trkpt>
      <trkpt lat="49.36437" lon="0.08437">
        <ele>27.268</ele>
        <time>2019-11-14T11:30:49.001Z</time>
      </trkpt>
      <trkpt lat="49.36533" lon="0.08413">
        <ele>26.405</ele>
        <time>2019-11-14T11:31:22.001Z</time>
      </trkpt>
      <trkpt lat="49.36593" lon="0.084">
        <ele>37.265</ele>
        <time>2019-11-14T11:31:55.001Z</time>
      </trkpt>
      <trkpt lat="49.36666" lon="0.08372">
        <ele>36.826</ele>
        <time>2019-11-14T11:32:28.001Z</time>
      </trkpt>
      <trkpt lat="49.36731" lon="0.08367">
        <ele>45.805</ele>
        <time>2019-11-14T11:33:04.001Z</time>
      </trkpt>
      <trkpt lat="49.36795" lon="0.08388">
        <ele>49.576</ele>
        <time>2019-11-14T11:33:43.001Z</time>
      </trkpt>
      <trkpt lat="49.36855" lon="0.08424">
        <ele>47.571</ele>
        <time>2019-11-14T11:34:16Z</time>
      </trkpt>
      <trkpt lat="49.36929" lon="0.08451">
        <ele>54.152</ele>
        <time>2019-11-14T11:34:58.001Z</time>
      </trkpt>
      <trkpt lat="49.37032" lon="0.08495">
        <ele>54.479</ele>
        <time>2019-11-14T11:35:28.001Z</time>
      </trkpt>
      <trkpt lat="49.37119" lon="0.0856">
        <ele>59.14</ele>
        <time>2019-11-14T11:36:01.001Z</time>
      </trkpt>
      <trkpt lat="49.37226" lon="0.08651">
        <ele>53.664</ele>
        <time>2019-11-14T11:36:34.001Z</time>
      </trkpt>
      <trkpt lat="49.37323" lon="0.08723">
        <ele>57.98</ele>
        <time>2019-11-14T11:37:07.001Z</time>
      </trkpt>
      <trkpt lat="49.37422" lon="0.08798">
        <ele>59.623</ele>
        <time>2019-11-14T11:37:40.001Z</time>
      </trkpt>
      <trkpt lat="49.37523" lon="0.08919">
        <ele>61.639</ele>
        <time>2019-11-14T11:38:13.001Z</time>
      </trkpt>
      <trkpt lat="49.37568" lon="0.09014">
        <ele>66.262</ele>
        <time>2019-11-14T11:38:43.001Z</time>
      </trkpt>
      <trkpt lat="49.37602" lon="0.09106">
        <ele>68.89</ele>
        <time>2019-11-14T11:39:16Z</time>
      </trkpt>
      <trkpt lat="49.37635" lon="0.0919">
        <ele>80.984</ele>
        <time>2019-11-14T11:39:49.001Z</time>
      </trkpt>
      <trkpt lat="49.37667" lon="0.09291">
        <ele>75.006</ele>
        <time>2019-11-14T11:40:22.001Z</time>
      </trkpt>
      <trkpt lat="49.37709" lon="0.09432">
        <ele>75.87</ele>
        <time>2019-11-14T11:40:55.001Z</time>
      </trkpt>
      <trkpt lat="49.37749" lon="0.09578">
        <ele>81.968</ele>
        <time>2019-11-14T11:41:28.001Z</time>
      </trkpt>
      <trkpt lat="49.37769" lon="0.09673">
        <ele>89.278</ele>
        <time>2019-11-14T11:41:58.001Z</time>
      </trkpt>
      <trkpt lat="49.37854" lon="0.09854">
        <ele>82.969</ele>
        <time>2019-11-14T11:42:31.001Z</time>
      </trkpt>
      <trkpt lat="49.38111" lon="0.10095">
        <ele>73.038</ele>
        <time>2019-11-14T11:43:04.001Z</time>
      </trkpt>
      <trkpt lat="49.38234" lon="0.10161">
        <ele>74.286</ele>
        <time>2019-11-14T11:43:37.001Z</time>
      </trkpt>
      <trkpt lat="49.38308" lon="0.10224">
        <ele>80.276</ele>
        <time>2019-11-14T11:44:10.001Z</time>
      </trkpt>
      <trkpt lat="49.38351" lon="0.1031">
        <ele>86.627</ele>
        <time>2019-11-14T11:44:43.001Z</time>
      </trkpt>
      <trkpt lat="49.38406" lon="0.10408">
        <ele>96.875</ele>
        <time>2019-11-14T11:45:13.001Z</time>
      </trkpt>
      <trkpt lat="49.38479" lon="0.1056">
        <ele>91.198</ele>
        <time>2019-11-14T11:45:46.001Z</time>
      </trkpt>
      <trkpt lat="49.38588" lon="0.1071">
        <ele>92.375</ele>
        <time>2019-11-14T11:46:19.001Z</time>
      </trkpt>
      <trkpt lat="49.38723" lon="0.10822">
        <ele>88.95</ele>
        <time>2019-11-14T11:46:52.001Z</time>
      </trkpt>
      <trkpt lat="49.38838" lon="0.1116">
        <ele>69.206</ele>
        <time>2019-11-14T11:47:25.001Z</time>
      </trkpt>
      <trkpt lat="49.38956" lon="0.11225">
        <ele>67.619</ele>
        <time>2019-11-14T11:47:58.001Z</time>
      </trkpt>
      <trkpt lat="49.39017" lon="0.11284">
        <ele>76.152</ele>
        <time>2019-11-14T11:48:28.001Z</time>
      </trkpt>
      <trkpt lat="49.39071" lon="0.11334">
        <ele>78.987</ele>
        <time>2019-11-14T11:51:01.001Z</time>
      </trkpt>
      <trkpt lat="49.39096" lon="0.1138">
        <ele>78.683</ele>
        <time>2019-11-14T11:51:55.001Z</time>
      </trkpt>
      <trkpt lat="49.39188" lon="0.11558">
        <ele>77.88</ele>
        <time>2019-11-14T11:52:28.001Z</time>
      </trkpt>
      <trkpt lat="49.39316" lon="0.11831">
        <ele>71.526</ele>
        <time>2019-11-14T11:53:01.001Z</time>
      </trkpt>
      <trkpt lat="49.39446" lon="0.12091">
        <ele>65.465</ele>
        <time>2019-11-14T11:53:34.001Z</time>
      </trkpt>
      <trkpt lat="49.39586" lon="0.12345">
        <ele>61.867</ele>
        <time>2019-11-14T11:54:04.001Z</time>
      </trkpt>
      <trkpt lat="49.39727" lon="0.12604">
        <ele>48.36</ele>
        <time>2019-11-14T11:54:37.001Z</time>
      </trkpt>
      <trkpt lat="49.39964" lon="0.12831">
        <ele>31.126</ele>
        <time>2019-11-14T11:55:10.001Z</time>
      </trkpt>
      <trkpt lat="49.40043" lon="0.12992">
        <ele>30.954</ele>
        <time>2019-11-14T11:55:43.001Z</time>
      </trkpt>
      <trkpt lat="49.40061" lon="0.13111">
        <ele>33.919</ele>
        <time>2019-11-14T11:56:16Z</time>
      </trkpt>
      <trkpt lat="49.40059" lon="0.13205">
        <ele>49.05</ele>
        <time>2019-11-14T11:56:52.001Z</time>
      </trkpt>
      <trkpt lat="49.40054" lon="0.13293">
        <ele>55.935</ele>
        <time>2019-11-14T11:57:25.001Z</time>
      </trkpt>
      <trkpt lat="49.4006" lon="0.13404">
        <ele>56.6</ele>
        <time>2019-11-14T11:57:58.001Z</time>
      </trkpt>
      <trkpt lat="49.40107" lon="0.13572">
        <ele>62.949</ele>
        <time>2019-11-14T11:58:31.001Z</time>
      </trkpt>
      <trkpt lat="49.40221" lon="0.13912">
        <ele>55.247</ele>
        <time>2019-11-14T11:59:04.001Z</time>
      </trkpt>
      <trkpt lat="49.40187" lon="0.14261">
        <ele>40.462</ele>
        <time>2019-11-14T11:59:37.001Z</time>
      </trkpt>
      <trkpt lat="49.4015" lon="0.14448">
        <ele>38.65</ele>
        <time>2019-11-14T12:00:07.001Z</time>
      </trkpt>
      <trkpt lat="49.40202" lon="0.14658">
        <ele>36.136</ele>
        <time>2019-11-14T12:00:40.001Z</time>
      </trkpt>
      <trkpt lat="49.40189" lon="0.15004">
        <ele>27.389</ele>
        <time>2019-11-14T12:01:13.001Z</time>
      </trkpt>
      <trkpt lat="49.40136" lon="0.15278">
        <ele>19.967</ele>
        <time>2019-11-14T12:01:46.001Z</time>
      </trkpt>
      <trkpt lat="49.40164" lon="0.15647">
        <ele>14.923</ele>
        <time>2019-11-14T12:02:19.001Z</time>
      </trkpt>
      <trkpt lat="49.40201" lon="0.15842">
        <ele>19.121</ele>
        <time>2019-11-14T12:02:52.001Z</time>
      </trkpt>
      <trkpt lat="49.40278" lon="0.16091">
        <ele>18.393</ele>
        <time>2019-11-14T12:03:22.001Z</time>
      </trkpt>
      <trkpt lat="49.40373" lon="0.16312">
        <ele>19.015</ele>
        <time>2019-11-14T12:03:55.001Z</time>
      </trkpt>
      <trkpt lat="49.40456" lon="0.16562">
        <ele>18.097</ele>
        <time>2019-11-14T12:04:28.001Z</time>
      </trkpt>
      <trkpt lat="49.4055" lon="0.1686">
        <ele>13.549</ele>
        <time>2019-11-14T12:05:01.001Z</time>
      </trkpt>
      <trkpt lat="49.4061" lon="0.1716">
        <ele>6.981</ele>
        <time>2019-11-14T12:05:34.001Z</time>
      </trkpt>
      <trkpt lat="49.40645" lon="0.17371">
        <ele>4.193</ele>
        <time>2019-11-14T12:06:07.001Z</time>
      </trkpt>
      <trkpt lat="49.40686" lon="0.17481">
        <ele>11.802</ele>
        <time>2019-11-14T12:06:37.001Z</time>
      </trkpt>
      <trkpt lat="49.40724" lon="0.17565">
        <ele>16.38</ele>
        <time>2019-11-14T12:07:10.001Z</time>
      </trkpt>
      <trkpt lat="49.40774" lon="0.17669">
        <ele>25.332</ele>
        <time>2019-11-14T12:07:43.001Z</time>
      </trkpt>
      <trkpt lat="49.4083" lon="0.1778">
        <ele>23.956</ele>
        <time>2019-11-14T12:08:16Z</time>
      </trkpt>
      <trkpt lat="49.40896" lon="0.17908">
        <ele>22.293</ele>
        <time>2019-11-14T12:08:49.001Z</time>
      </trkpt>
      <trkpt lat="49.40964" lon="0.18023">
        <ele>21.743</ele>
        <time>2019-11-14T12:09:22.001Z</time>
      </trkpt>
      <trkpt lat="49.41021" lon="0.18149">
        <ele>23.668</ele>
        <time>2019-11-14T12:09:52.001Z</time>
      </trkpt>
      <trkpt lat="49.41156" lon="0.18388">
        <ele>19.307</ele>
        <time>2019-11-14T12:10:25.001Z</time>
      </trkpt>
      <trkpt lat="49.41307" lon="0.18627">
        <ele>17.613</ele>
        <time>2019-11-14T12:10:58.001Z</time>
      </trkpt>
      <trkpt lat="49.41476" lon="0.18841">
        <ele>20.12</ele>
        <time>2019-11-14T12:11:31.001Z</time>
      </trkpt>
      <trkpt lat="49.4162" lon="0.19087">
        <ele>13.682</ele>
        <time>2019-11-14T12:12:04.001Z</time>
      </trkpt>
      <trkpt lat="49.41749" lon="0.1933">
        <ele>10.095</ele>
        <time>2019-11-14T12:12:37.001Z</time>
      </trkpt>
      <trkpt lat="49.41816" lon="0.1951">
        <ele>9.565</ele>
        <time>2019-11-14T12:13:07.001Z</time>
      </trkpt>
      <trkpt lat="49.41888" lon="0.19673">
        <ele>12.992</ele>
        <time>2019-11-14T12:13:40.001Z</time>
      </trkpt>
      <trkpt lat="49.41897" lon="0.19788">
        <ele>24.954</ele>
        <time>2019-11-14T12:14:13.001Z</time>
      </trkpt>
      <trkpt lat="49.41868" lon="0.19891">
        <ele>32.871</ele>
        <time>2019-11-14T12:14:46.001Z</time>
      </trkpt>
      <trkpt lat="49.41821" lon="0.19975">
        <ele>45.41</ele>
        <time>2019-11-14T12:15:31.001Z</time>
      </trkpt>
      <trkpt lat="49.41814" lon="0.20105">
        <ele>53.061</ele>
        <time>2019-11-14T12:16:13.001Z</time>
      </trkpt>
      <trkpt lat="49.41906" lon="0.2037">
        <ele>39.044</ele>
        <time>2019-11-14T12:16:43.001Z</time>
      </trkpt>
      <trkpt lat="49.41999" lon="0.2047">
        <ele>24.825</ele>
        <time>2019-11-14T12:17:16Z</time>
      </trkpt>
      <trkpt lat="49.42119" lon="0.20677">
        <ele>23.27</ele>
        <time>2019-11-14T12:17:49.001Z</time>
      </trkpt>
      <trkpt lat="49.42278" lon="0.20954">
        <ele>16.677</ele>
        <time>2019-11-14T12:18:22.001Z</time>
      </trkpt>
      <trkpt lat="49.42415" lon="0.2127">
        <ele>16.873</ele>
        <time>2019-11-14T12:18:55.001Z</time>
      </trkpt>
      <trkpt lat="49.42487" lon="0.21671">
        <ele>6.778</ele>
        <time>2019-11-14T12:19:28.001Z</time>
      </trkpt>
      <trkpt lat="49.42504" lon="0.21929">
        <ele>1.488</ele>
        <time>2019-11-14T12:19:58.001Z</time>
      </trkpt>
      <trkpt lat="49.42515" lon="0.2219">
        <ele>8.639</ele>
        <time>2019-11-14T12:20:31.001Z</time>
      </trkpt>
      <trkpt lat="49.42526" lon="0.22456">
        <ele>11.438</ele>
        <time>2019-11-14T12:21:04.001Z</time>
      </trkpt>
      <trkpt lat="49.42523" lon="0.22707">
        <ele>20.837</ele>
        <time>2019-11-14T12:21:37.001Z</time>
      </trkpt>
      <trkpt lat="49.42449" lon="0.22908">
        <ele>5.251</ele>
        <time>2019-11-14T12:22:10.001Z</time>
      </trkpt>
      <trkpt lat="49.4236" lon="0.23091">
        <ele>9.561</ele>
        <time>2019-11-14T12:22:43.001Z</time>
      </trkpt>
      <trkpt lat="49.42274" lon="0.23248">
        <ele>11.881</ele>
        <time>2019-11-14T12:23:13.001Z</time>
      </trkpt>
      <trkpt lat="49.42173" lon="0.23397">
        <ele>11.814</ele>
        <time>2019-11-14T12:23:46.001Z</time>
      </trkpt>
      <trkpt lat="49.42082" lon="0.23291">
        <ele>6.812</ele>
        <time>2019-11-14T12:24:19.001Z</time>
      </trkpt>
      <trkpt lat="49.42014" lon="0.23242">
        <ele>5.332</ele>
        <time>2019-11-14T12:27:01.001Z</time>
      </trkpt>
      <trkpt lat="49.41945" lon="0.23234">
        <ele>14.209</ele>
        <time>2019-11-14T12:27:37.001Z</time>
      </trkpt>
      <trkpt lat="49.41884" lon="0.23205">
        <ele>18.925</ele>
        <time>2019-11-14T12:28:19.001Z</time>
      </trkpt>
      <trkpt lat="49.41879" lon="0.23192">
        <ele>20.378</ele>
        <time>2019-11-14T12:29:16Z</time>
      </trkpt>
      <trkpt lat="49.4189" lon="0.23167">
        <ele>30.64</ele>
        <time>2019-11-14T12:34:13.001Z</time>
      </trkpt>
      <trkpt lat="49.41903" lon="0.23174">
        <ele>26.531</ele>
        <time>2019-11-14T12:37:04.001Z</time>
      </trkpt>
      <trkpt lat="49.41883" lon="0.23189">
        <ele>19.038</ele>
        <time>2019-11-14T12:39:34.001Z</time>
      </trkpt>
      <trkpt lat="49.41896" lon="0.23198">
        <ele>27.264</ele>
        <time>2019-11-14T12:41:08.001Z</time>
      </trkpt>
      <trkpt lat="49.41895" lon="0.2315">
        <ele>57.991</ele>
        <time>2019-11-14T12:42:56.001Z</time>
      </trkpt>
    </trkseg>
  </trk>
  <trk>
    <name><![CDATA[Tracé 20191115-075959]]></name>
    <trkseg>
      <trkpt lat="49.41893" lon="0.23181">
        <ele>40.557</ele>
        <time>2019-11-15T07:00:11Z</time>
      </trkpt>
      <trkpt lat="49.41895" lon="0.23144">
        <ele>31.439</ele>
        <time>2019-11-15T07:00:53Z</time>
      </trkpt>
      <trkpt lat="49.41898" lon="0.23174">
        <ele>26.217</ele>
        <time>2019-11-15T07:01:32Z</time>
      </trkpt>
      <trkpt lat="49.419" lon="0.23177">
        <ele>35.375</ele>
        <time>2019-11-15T07:12:50Z</time>
      </trkpt>
      <trkpt lat="49.41887" lon="0.23183">
        <ele>30.203</ele>
        <time>2019-11-15T07:15:27Z</time>
      </trkpt>
      <trkpt lat="49.41947" lon="0.2325">
        <ele>29.245</ele>
        <time>2019-11-15T07:18:03Z</time>
      </trkpt>
      <trkpt lat="49.41894" lon="0.23366">
        <ele>24.635</ele>
        <time>2019-11-15T07:18:33Z</time>
      </trkpt>
      <trkpt lat="49.41845" lon="0.23567">
        <ele>15.291</ele>
        <time>2019-11-15T07:19:06Z</time>
      </trkpt>
      <trkpt lat="49.41851" lon="0.23808">
        <ele>5.989</ele>
        <time>2019-11-15T07:19:39Z</time>
      </trkpt>
      <trkpt lat="49.41777" lon="0.24007">
        <ele>8</ele>
        <time>2019-11-15T07:20:09Z</time>
      </trkpt>
      <trkpt lat="49.41883" lon="0.24069">
        <ele>7.179</ele>
        <time>2019-11-15T07:20:42Z</time>
      </trkpt>
      <trkpt lat="49.41934" lon="0.24231">
        <ele>12.275</ele>
        <time>2019-11-15T07:21:15Z</time>
      </trkpt>
      <trkpt lat="49.4187" lon="0.24399">
        <ele>6.328</ele>
        <time>2019-11-15T07:21:45Z</time>
      </trkpt>
      <trkpt lat="49.41821" lon="0.24603">
        <ele>4.549</ele>
        <time>2019-11-15T07:22:18Z</time>
      </trkpt>
      <trkpt lat="49.41796" lon="0.24845">
        <ele>6.136</ele>
        <time>2019-11-15T07:22:51Z</time>
      </trkpt>
      <trkpt lat="49.41771" lon="0.25049">
        <ele>5.016</ele>
        <time>2019-11-15T07:23:21Z</time>
      </trkpt>
      <trkpt lat="49.41821" lon="0.25202">
        <ele>15.061</ele>
        <time>2019-11-15T07:23:54Z</time>
      </trkpt>
      <trkpt lat="49.4198" lon="0.25236">
        <ele>15.731</ele>
        <time>2019-11-15T07:24:27Z</time>
      </trkpt>
      <trkpt lat="49.42119" lon="0.25267">
        <ele>6.162</ele>
        <time>2019-11-15T07:24:57Z</time>
      </trkpt>
      <trkpt lat="49.4226" lon="0.25287">
        <ele>2.722</ele>
        <time>2019-11-15T07:25:30Z</time>
      </trkpt>
      <trkpt lat="49.4226" lon="0.25529">
        <ele>2.976</ele>
        <time>2019-11-15T07:26:03Z</time>
      </trkpt>
      <trkpt lat="49.42263" lon="0.2574">
        <ele>4.719</ele>
        <time>2019-11-15T07:26:33Z</time>
      </trkpt>
      <trkpt lat="49.42269" lon="0.25974">
        <ele>5.682</ele>
        <time>2019-11-15T07:27:06Z</time>
      </trkpt>
      <trkpt lat="49.42133" lon="0.25998">
        <ele>10.213</ele>
        <time>2019-11-15T07:27:39Z</time>
      </trkpt>
      <trkpt lat="49.42008" lon="0.26038">
        <ele>3.53</ele>
        <time>2019-11-15T07:28:09Z</time>
      </trkpt>
      <trkpt lat="49.41988" lon="0.26292">
        <ele>4.137</ele>
        <time>2019-11-15T07:28:42Z</time>
      </trkpt>
      <trkpt lat="49.41976" lon="0.26534">
        <ele>5.003</ele>
        <time>2019-11-15T07:29:15Z</time>
      </trkpt>
      <trkpt lat="49.41962" lon="0.26755">
        <ele>4.691</ele>
        <time>2019-11-15T07:29:45Z</time>
      </trkpt>
      <trkpt lat="49.41946" lon="0.26999">
        <ele>4.765</ele>
        <time>2019-11-15T07:30:18Z</time>
      </trkpt>
      <trkpt lat="49.41933" lon="0.2724">
        <ele>8.436</ele>
        <time>2019-11-15T07:30:51Z</time>
      </trkpt>
      <trkpt lat="49.41942" lon="0.2744">
        <ele>6.2</ele>
        <time>2019-11-15T07:31:21Z</time>
      </trkpt>
      <trkpt lat="49.41924" lon="0.27454">
        <ele>2.646</ele>
        <time>2019-11-15T07:31:54Z</time>
      </trkpt>
      <trkpt lat="49.41966" lon="0.27593">
        <ele>3.875</ele>
        <time>2019-11-15T07:32:27Z</time>
      </trkpt>
      <trkpt lat="49.41939" lon="0.27567">
        <ele>5.357</ele>
        <time>2019-11-15T07:32:57Z</time>
      </trkpt>
      <trkpt lat="49.42013" lon="0.27568">
        <ele>6.173</ele>
        <time>2019-11-15T07:33:33Z</time>
      </trkpt>
      <trkpt lat="49.42112" lon="0.27564">
        <ele>13.164</ele>
        <time>2019-11-15T07:34:06Z</time>
      </trkpt>
      <trkpt lat="49.42204" lon="0.27554">
        <ele>16.043</ele>
        <time>2019-11-15T07:34:36Z</time>
      </trkpt>
      <trkpt lat="49.42302" lon="0.27529">
        <ele>20.278</ele>
        <time>2019-11-15T07:35:09Z</time>
      </trkpt>
      <trkpt lat="49.42406" lon="0.27513">
        <ele>26.633</ele>
        <time>2019-11-15T07:35:42Z</time>
      </trkpt>
      <trkpt lat="49.4249" lon="0.275">
        <ele>28.61</ele>
        <time>2019-11-15T07:36:12.001Z</time>
      </trkpt>
      <trkpt lat="49.42573" lon="0.27489">
        <ele>37.086</ele>
        <time>2019-11-15T07:36:45.001Z</time>
      </trkpt>
      <trkpt lat="49.42655" lon="0.27479">
        <ele>46.714</ele>
        <time>2019-11-15T07:37:18.001Z</time>
      </trkpt>
      <trkpt lat="49.42723" lon="0.27471">
        <ele>53.773</ele>
        <time>2019-11-15T07:37:48.001Z</time>
      </trkpt>
      <trkpt lat="49.42796" lon="0.27461">
        <ele>61.113</ele>
        <time>2019-11-15T07:38:21.001Z</time>
      </trkpt>
      <trkpt lat="49.42868" lon="0.27452">
        <ele>61.591</ele>
        <time>2019-11-15T07:38:54.001Z</time>
      </trkpt>
      <trkpt lat="49.42942" lon="0.27439">
        <ele>58.686</ele>
        <time>2019-11-15T07:39:24.001Z</time>
      </trkpt>
      <trkpt lat="49.43027" lon="0.27428">
        <ele>65.877</ele>
        <time>2019-11-15T07:39:57.001Z</time>
      </trkpt>
      <trkpt lat="49.43127" lon="0.27414">
        <ele>67.369</ele>
        <time>2019-11-15T07:40:30.001Z</time>
      </trkpt>
      <trkpt lat="49.43238" lon="0.27399">
        <ele>69.607</ele>
        <time>2019-11-15T07:41:00Z</time>
      </trkpt>
      <trkpt lat="49.43414" lon="0.27375">
        <ele>67.007</ele>
        <time>2019-11-15T07:41:33.001Z</time>
      </trkpt>
      <trkpt lat="49.43689" lon="0.27337">
        <ele>57.885</ele>
        <time>2019-11-15T07:42:06.001Z</time>
      </trkpt>
      <trkpt lat="49.4402" lon="0.27289">
        <ele>28.878</ele>
        <time>2019-11-15T07:42:36.001Z</time>
      </trkpt>
      <trkpt lat="49.44396" lon="0.27235">
        <ele>3.7</ele>
        <time>2019-11-15T07:43:09.001Z</time>
      </trkpt>
      <trkpt lat="49.44634" lon="0.27206">
        <ele>4.5</ele>
        <time>2019-11-15T07:43:42.001Z</time>
      </trkpt>
      <trkpt lat="49.44822" lon="0.2718">
        <ele>2.468</ele>
        <time>2019-11-15T07:44:12.001Z</time>
      </trkpt>
      <trkpt lat="49.4501" lon="0.27191">
        <ele>8.681</ele>
        <time>2019-11-15T07:44:45.001Z</time>
      </trkpt>
      <trkpt lat="49.45187" lon="0.27164">
        <ele>4.272</ele>
        <time>2019-11-15T07:45:18.001Z</time>
      </trkpt>
      <trkpt lat="49.45283" lon="0.27252">
        <ele>9.666</ele>
        <time>2019-11-15T07:45:48.001Z</time>
      </trkpt>
      <trkpt lat="49.45371" lon="0.2716">
        <ele>5.18</ele>
        <time>2019-11-15T07:46:21.001Z</time>
      </trkpt>
      <trkpt lat="49.4537" lon="0.27116">
        <ele>8.534</ele>
        <time>2019-11-15T07:48:39.001Z</time>
      </trkpt>
      <trkpt lat="49.45391" lon="0.26905">
        <ele>4.48</ele>
        <time>2019-11-15T07:49:09.001Z</time>
      </trkpt>
      <trkpt lat="49.45413" lon="0.26632">
        <ele>4.212</ele>
        <time>2019-11-15T07:49:42.001Z</time>
      </trkpt>
      <trkpt lat="49.45431" lon="0.26354">
        <ele>3.95</ele>
        <time>2019-11-15T07:50:15.001Z</time>
      </trkpt>
      <trkpt lat="49.4545" lon="0.26101">
        <ele>5.304</ele>
        <time>2019-11-15T07:50:45.001Z</time>
      </trkpt>
      <trkpt lat="49.45468" lon="0.25833">
        <ele>7.248</ele>
        <time>2019-11-15T07:51:18.001Z</time>
      </trkpt>
      <trkpt lat="49.45495" lon="0.25544">
        <ele>5.209</ele>
        <time>2019-11-15T07:51:51.001Z</time>
      </trkpt>
      <trkpt lat="49.45504" lon="0.25279">
        <ele>3.953</ele>
        <time>2019-11-15T07:52:21.001Z</time>
      </trkpt>
      <trkpt lat="49.45521" lon="0.25018">
        <ele>4.187</ele>
        <time>2019-11-15T07:52:54.001Z</time>
      </trkpt>
      <trkpt lat="49.45528" lon="0.24768">
        <ele>8.764</ele>
        <time>2019-11-15T07:53:27.001Z</time>
      </trkpt>
      <trkpt lat="49.45532" lon="0.24547">
        <ele>7.852</ele>
        <time>2019-11-15T07:53:57.001Z</time>
      </trkpt>
      <trkpt lat="49.45541" lon="0.24328">
        <ele>5.551</ele>
        <time>2019-11-15T07:54:30.001Z</time>
      </trkpt>
      <trkpt lat="49.45544" lon="0.24159">
        <ele>8.464</ele>
        <time>2019-11-15T07:55:03.001Z</time>
      </trkpt>
      <trkpt lat="49.4555" lon="0.2401">
        <ele>11.018</ele>
        <time>2019-11-15T07:55:33.001Z</time>
      </trkpt>
      <trkpt lat="49.45556" lon="0.23803">
        <ele>12.178</ele>
        <time>2019-11-15T07:56:06.001Z</time>
      </trkpt>
      <trkpt lat="49.4559" lon="0.23469">
        <ele>5.32</ele>
        <time>2019-11-15T07:56:39.001Z</time>
      </trkpt>
      <trkpt lat="49.45643" lon="0.23157">
        <ele>3.677</ele>
        <time>2019-11-15T07:57:09.001Z</time>
      </trkpt>
      <trkpt lat="49.45664" lon="0.2284">
        <ele>3.839</ele>
        <time>2019-11-15T07:57:42.001Z</time>
      </trkpt>
      <trkpt lat="49.45688" lon="0.22544">
        <ele>2.795</ele>
        <time>2019-11-15T07:58:15.001Z</time>
      </trkpt>
      <trkpt lat="49.45705" lon="0.22298">
        <ele>4.797</ele>
        <time>2019-11-15T07:58:45.001Z</time>
      </trkpt>
      <trkpt lat="49.45723" lon="0.22031">
        <ele>4.693</ele>
        <time>2019-11-15T07:59:18.001Z</time>
      </trkpt>
      <trkpt lat="49.45739" lon="0.21782">
        <ele>5.544</ele>
        <time>2019-11-15T07:59:51.001Z</time>
      </trkpt>
      <trkpt lat="49.45754" lon="0.21551">
        <ele>7.164</ele>
        <time>2019-11-15T08:00:21.001Z</time>
      </trkpt>
      <trkpt lat="49.45771" lon="0.21281">
        <ele>6.115</ele>
        <time>2019-11-15T08:00:54.001Z</time>
      </trkpt>
      <trkpt lat="49.45791" lon="0.21017">
        <ele>5.909</ele>
        <time>2019-11-15T08:01:27.001Z</time>
      </trkpt>
      <trkpt lat="49.45774" lon="0.20788">
        <ele>5.049</ele>
        <time>2019-11-15T08:01:57.001Z</time>
      </trkpt>
      <trkpt lat="49.45801" lon="0.20568">
        <ele>4.042</ele>
        <time>2019-11-15T08:02:30.001Z</time>
      </trkpt>
      <trkpt lat="49.45804" lon="0.20317">
        <ele>2.819</ele>
        <time>2019-11-15T08:03:03.001Z</time>
      </trkpt>
      <trkpt lat="49.45855" lon="0.20103">
        <ele>4.708</ele>
        <time>2019-11-15T08:03:33.001Z</time>
      </trkpt>
      <trkpt lat="49.45883" lon="0.19842">
        <ele>7.061</ele>
        <time>2019-11-15T08:04:06.001Z</time>
      </trkpt>
      <trkpt lat="49.45918" lon="0.19587">
        <ele>5.092</ele>
        <time>2019-11-15T08:04:39.001Z</time>
      </trkpt>
      <trkpt lat="49.45948" lon="0.19353">
        <ele>3.311</ele>
        <time>2019-11-15T08:05:09.001Z</time>
      </trkpt>
      <trkpt lat="49.45983" lon="0.19099">
        <ele>3.718</ele>
        <time>2019-11-15T08:05:42.001Z</time>
      </trkpt>
      <trkpt lat="49.46019" lon="0.18854">
        <ele>4.173</ele>
        <time>2019-11-15T08:06:15.001Z</time>
      </trkpt>
      <trkpt lat="49.46107" lon="0.18703">
        <ele>4.444</ele>
        <time>2019-11-15T08:06:45.001Z</time>
      </trkpt>
      <trkpt lat="49.46248" lon="0.18608">
        <ele>7.306</ele>
        <time>2019-11-15T08:07:18.001Z</time>
      </trkpt>
      <trkpt lat="49.4639" lon="0.18521">
        <ele>5.692</ele>
        <time>2019-11-15T08:07:51.001Z</time>
      </trkpt>
      <trkpt lat="49.46517" lon="0.18439">
        <ele>5.664</ele>
        <time>2019-11-15T08:08:21.001Z</time>
      </trkpt>
      <trkpt lat="49.4665" lon="0.18319">
        <ele>7.124</ele>
        <time>2019-11-15T08:08:54.001Z</time>
      </trkpt>
      <trkpt lat="49.46809" lon="0.18275">
        <ele>4.066</ele>
        <time>2019-11-15T08:09:27.001Z</time>
      </trkpt>
      <trkpt lat="49.46941" lon="0.18205">
        <ele>3.926</ele>
        <time>2019-11-15T08:09:57.001Z</time>
      </trkpt>
      <trkpt lat="49.47073" lon="0.18129">
        <ele>4.036</ele>
        <time>2019-11-15T08:10:30.001Z</time>
      </trkpt>
      <trkpt lat="49.47203" lon="0.18047">
        <ele>6.461</ele>
        <time>2019-11-15T08:11:03.001Z</time>
      </trkpt>
      <trkpt lat="49.47328" lon="0.17942">
        <ele>6.24</ele>
        <time>2019-11-15T08:11:36.001Z</time>
      </trkpt>
      <trkpt lat="49.47347" lon="0.17784">
        <ele>5.588</ele>
        <time>2019-11-15T08:12:06.001Z</time>
      </trkpt>
      <trkpt lat="49.47444" lon="0.17652">
        <ele>4.095</ele>
        <time>2019-11-15T08:12:39.001Z</time>
      </trkpt>
      <trkpt lat="49.47495" lon="0.17514">
        <ele>6.345</ele>
        <time>2019-11-15T08:13:12.001Z</time>
      </trkpt>
      <trkpt lat="49.47471" lon="0.17417">
        <ele>6.497</ele>
        <time>2019-11-15T08:17:18.001Z</time>
      </trkpt>
      <trkpt lat="49.47421" lon="0.17221">
        <ele>10.139</ele>
        <time>2019-11-15T08:17:51.001Z</time>
      </trkpt>
      <trkpt lat="49.47444" lon="0.17041">
        <ele>9.775</ele>
        <time>2019-11-15T08:18:24.001Z</time>
      </trkpt>
      <trkpt lat="49.47546" lon="0.16978">
        <ele>9.638</ele>
        <time>2019-11-15T08:18:54.001Z</time>
      </trkpt>
      <trkpt lat="49.47647" lon="0.17099">
        <ele>12.488</ele>
        <time>2019-11-15T08:19:27.001Z</time>
      </trkpt>
      <trkpt lat="49.47753" lon="0.17145">
        <ele>7.52</ele>
        <time>2019-11-15T08:20:00Z</time>
      </trkpt>
      <trkpt lat="49.47887" lon="0.16973">
        <ele>7.888</ele>
        <time>2019-11-15T08:20:30.001Z</time>
      </trkpt>
      <trkpt lat="49.48068" lon="0.16781">
        <ele>9.175</ele>
        <time>2019-11-15T08:21:03.001Z</time>
      </trkpt>
      <trkpt lat="49.482" lon="0.16642">
        <ele>6.686</ele>
        <time>2019-11-15T08:21:36.001Z</time>
      </trkpt>
      <trkpt lat="49.48333" lon="0.16558">
        <ele>4.592</ele>
        <time>2019-11-15T08:22:06.001Z</time>
      </trkpt>
      <trkpt lat="49.48313" lon="0.1631">
        <ele>3.964</ele>
        <time>2019-11-15T08:22:39.001Z</time>
      </trkpt>
      <trkpt lat="49.48238" lon="0.16068">
        <ele>4.28</ele>
        <time>2019-11-15T08:23:12.001Z</time>
      </trkpt>
      <trkpt lat="49.48181" lon="0.15854">
        <ele>5.227</ele>
        <time>2019-11-15T08:23:42.001Z</time>
      </trkpt>
      <trkpt lat="49.48179" lon="0.156">
        <ele>6.526</ele>
        <time>2019-11-15T08:24:15.001Z</time>
      </trkpt>
      <trkpt lat="49.48184" lon="0.15427">
        <ele>8.051</ele>
        <time>2019-11-15T08:24:48.001Z</time>
      </trkpt>
      <trkpt lat="49.4825" lon="0.15304">
        <ele>9.393</ele>
        <time>2019-11-15T08:25:21.001Z</time>
      </trkpt>
      <trkpt lat="49.48283" lon="0.1521">
        <ele>11.056</ele>
        <time>2019-11-15T08:25:54.001Z</time>
      </trkpt>
      <trkpt lat="49.48188" lon="0.15036">
        <ele>8.131</ele>
        <time>2019-11-15T08:26:30.001Z</time>
      </trkpt>
      <trkpt lat="49.48125" lon="0.14843">
        <ele>5.261</ele>
        <time>2019-11-15T08:27:00Z</time>
      </trkpt>
      <trkpt lat="49.48075" lon="0.14644">
        <ele>13.443</ele>
        <time>2019-11-15T08:27:33.001Z</time>
      </trkpt>
      <trkpt lat="49.48008" lon="0.1445">
        <ele>39.441</ele>
        <time>2019-11-15T08:28:06.001Z</time>
      </trkpt>
      <trkpt lat="49.4797" lon="0.14242">
        <ele>18.259</ele>
        <time>2019-11-15T08:28:36.001Z</time>
      </trkpt>
      <trkpt lat="49.47986" lon="0.14139">
        <ele>6.391</ele>
        <time>2019-11-15T08:29:12.001Z</time>
      </trkpt>
      <trkpt lat="49.48118" lon="0.14085">
        <ele>10.709</ele>
        <time>2019-11-15T08:29:45.001Z</time>
      </trkpt>
      <trkpt lat="49.48159" lon="0.13931">
        <ele>6.449</ele>
        <time>2019-11-15T08:30:15.001Z</time>
      </trkpt>
      <trkpt lat="49.48251" lon="0.13852">
        <ele>7.926</ele>
        <time>2019-11-15T08:30:54.001Z</time>
      </trkpt>
      <trkpt lat="49.4829" lon="0.13645">
        <ele>3.455</ele>
        <time>2019-11-15T08:31:27.001Z</time>
      </trkpt>
      <trkpt lat="49.48324" lon="0.13477">
        <ele>5.6</ele>
        <time>2019-11-15T08:31:57.001Z</time>
      </trkpt>
      <trkpt lat="49.48358" lon="0.13296">
        <ele>4.674</ele>
        <time>2019-11-15T08:32:30.001Z</time>
      </trkpt>
      <trkpt lat="49.4838" lon="0.13143">
        <ele>6.111</ele>
        <time>2019-11-15T08:33:03.001Z</time>
      </trkpt>
      <trkpt lat="49.48393" lon="0.12979">
        <ele>4.059</ele>
        <time>2019-11-15T08:33:33.001Z</time>
      </trkpt>
      <trkpt lat="49.48403" lon="0.12785">
        <ele>7.262</ele>
        <time>2019-11-15T08:34:06.001Z</time>
      </trkpt>
      <trkpt lat="49.48506" lon="0.1273">
        <ele>10.069</ele>
        <time>2019-11-15T08:34:45.001Z</time>
      </trkpt>
      <trkpt lat="49.48608" lon="0.12662">
        <ele>9.227</ele>
        <time>2019-11-15T08:35:15.001Z</time>
      </trkpt>
      <trkpt lat="49.48706" lon="0.12598">
        <ele>11.528</ele>
        <time>2019-11-15T08:35:48.001Z</time>
      </trkpt>
      <trkpt lat="49.48798" lon="0.12548">
        <ele>13.579</ele>
        <time>2019-11-15T08:36:21.001Z</time>
      </trkpt>
      <trkpt lat="49.48904" lon="0.12481">
        <ele>6.621</ele>
        <time>2019-11-15T08:36:51.001Z</time>
      </trkpt>
      <trkpt lat="49.48933" lon="0.12372">
        <ele>9.491</ele>
        <time>2019-11-15T08:37:24.001Z</time>
      </trkpt>
      <trkpt lat="49.48914" lon="0.12256">
        <ele>9.586</ele>
        <time>2019-11-15T08:38:21.001Z</time>
      </trkpt>
      <trkpt lat="49.48901" lon="0.12066">
        <ele>6.589</ele>
        <time>2019-11-15T08:38:51.001Z</time>
      </trkpt>
      <trkpt lat="49.48968" lon="0.11964">
        <ele>7.1</ele>
        <time>2019-11-15T08:39:24.001Z</time>
      </trkpt>
      <trkpt lat="49.49042" lon="0.11922">
        <ele>6.36</ele>
        <time>2019-11-15T08:40:24.001Z</time>
      </trkpt>
      <trkpt lat="49.49076" lon="0.11862">
        <ele>7.674</ele>
        <time>2019-11-15T08:41:18.001Z</time>
      </trkpt>
      <trkpt lat="49.49082" lon="0.11694">
        <ele>13.044</ele>
        <time>2019-11-15T08:41:51.001Z</time>
      </trkpt>
      <trkpt lat="49.49087" lon="0.11511">
        <ele>10.291</ele>
        <time>2019-11-15T08:42:24.001Z</time>
      </trkpt>
      <trkpt lat="49.49093" lon="0.11415">
        <ele>11.584</ele>
        <time>2019-11-15T08:42:57.001Z</time>
      </trkpt>
      <trkpt lat="49.49093" lon="0.11468">
        <ele>8.342</ele>
        <time>2019-11-15T08:45:18.001Z</time>
      </trkpt>
      <trkpt lat="49.49084" lon="0.11645">
        <ele>9.831</ele>
        <time>2019-11-15T08:45:51.001Z</time>
      </trkpt>
      <trkpt lat="49.48987" lon="0.11648">
        <ele>15.756</ele>
        <time>2019-11-15T08:46:21.001Z</time>
      </trkpt>
      <trkpt lat="49.4886" lon="0.11551">
        <ele>9.431</ele>
        <time>2019-11-15T08:46:54.001Z</time>
      </trkpt>
      <trkpt lat="49.48804" lon="0.11504">
        <ele>7.505</ele>
        <time>2019-11-15T08:47:30.001Z</time>
      </trkpt>
      <trkpt lat="49.48727" lon="0.1142">
        <ele>3.435</ele>
        <time>2019-11-15T08:48:00Z</time>
      </trkpt>
      <trkpt lat="49.48733" lon="0.11347">
        <ele>12.144</ele>
        <time>2019-11-15T08:49:12.001Z</time>
      </trkpt>
      <trkpt lat="49.48744" lon="0.11345">
        <ele>22.139</ele>
        <time>2019-11-15T08:50:54.001Z</time>
      </trkpt>
      <trkpt lat="49.48726" lon="0.11364">
        <ele>17.283</ele>
        <time>2019-11-15T08:51:45.001Z</time>
      </trkpt>
      <trkpt lat="49.48709" lon="0.11341">
        <ele>16.77</ele>
        <time>2019-11-15T08:53:45.001Z</time>
      </trkpt>
      <trkpt lat="49.48363" lon="0.11896">
        <ele>6</ele>
        <time>2019-11-15T09:06:36.001Z</time>
      </trkpt>
      <trkpt lat="49.48723" lon="0.11353">
        <ele>10.714</ele>
        <time>2019-11-15T09:07:33.001Z</time>
      </trkpt>
      <trkpt lat="49.48741" lon="0.11394">
        <ele>10.656</ele>
        <time>2019-11-15T09:08:36.001Z</time>
      </trkpt>
      <trkpt lat="49.48737" lon="0.11411">
        <ele>7.233</ele>
        <time>2019-11-15T09:11:27.001Z</time>
      </trkpt>
      <trkpt lat="49.48699" lon="0.11595">
        <ele>9.149</ele>
        <time>2019-11-15T09:12:45.001Z</time>
      </trkpt>
      <trkpt lat="49.48738" lon="0.11459">
        <ele>9.144</ele>
        <time>2019-11-15T09:13:18.001Z</time>
      </trkpt>
      <trkpt lat="49.48702" lon="0.11628">
        <ele>15.239</ele>
        <time>2019-11-15T09:13:57.001Z</time>
      </trkpt>
      <trkpt lat="49.48723" lon="0.11433">
        <ele>6.5</ele>
        <time>2019-11-15T09:26:07.001Z</time>
      </trkpt>
      <trkpt lat="49.48743" lon="0.11477">
        <ele>1.705</ele>
        <time>2019-11-15T09:33:16Z</time>
      </trkpt>
      <trkpt lat="49.48826" lon="0.11532">
        <ele>5.79</ele>
        <time>2019-11-15T09:33:55.001Z</time>
      </trkpt>
      <trkpt lat="49.48934" lon="0.11647">
        <ele>11.194</ele>
        <time>2019-11-15T09:34:25.001Z</time>
      </trkpt>
      <trkpt lat="49.48958" lon="0.11847">
        <ele>12.816</ele>
        <time>2019-11-15T09:34:58.001Z</time>
      </trkpt>
      <trkpt lat="49.48901" lon="0.11985">
        <ele>8.936</ele>
        <time>2019-11-15T09:35:31.001Z</time>
      </trkpt>
      <trkpt lat="49.48886" lon="0.12111">
        <ele>6.408</ele>
        <time>2019-11-15T09:36:01.001Z</time>
      </trkpt>
      <trkpt lat="49.48924" lon="0.12324">
        <ele>14.09</ele>
        <time>2019-11-15T09:36:34.001Z</time>
      </trkpt>
      <trkpt lat="49.48958" lon="0.12449">
        <ele>10.123</ele>
        <time>2019-11-15T09:37:13.001Z</time>
      </trkpt>
      <trkpt lat="49.49011" lon="0.12649">
        <ele>15.368</ele>
        <time>2019-11-15T09:37:43.001Z</time>
      </trkpt>
      <trkpt lat="49.49072" lon="0.12899">
        <ele>17.752</ele>
        <time>2019-11-15T09:38:16Z</time>
      </trkpt>
      <trkpt lat="49.49128" lon="0.13147">
        <ele>16.238</ele>
        <time>2019-11-15T09:38:49.001Z</time>
      </trkpt>
      <trkpt lat="49.49114" lon="0.13296">
        <ele>12.225</ele>
        <time>2019-11-15T09:39:19.001Z</time>
      </trkpt>
      <trkpt lat="49.4902" lon="0.13324">
        <ele>10.019</ele>
        <time>2019-11-15T09:39:52.001Z</time>
      </trkpt>
      <trkpt lat="49.48923" lon="0.13317">
        <ele>9.631</ele>
        <time>2019-11-15T09:40:25.001Z</time>
      </trkpt>
      <trkpt lat="49.48893" lon="0.13306">
        <ele>13.802</ele>
        <time>2019-11-15T09:52:46.001Z</time>
      </trkpt>
      <trkpt lat="49.48938" lon="0.134">
        <ele>15.784</ele>
        <time>2019-11-15T10:03:52.001Z</time>
      </trkpt>
      <trkpt lat="49.49039" lon="0.13384">
        <ele>6.397</ele>
        <time>2019-11-15T10:04:25.001Z</time>
      </trkpt>
      <trkpt lat="49.49149" lon="0.13307">
        <ele>11.061</ele>
        <time>2019-11-15T10:04:55.001Z</time>
      </trkpt>
      <trkpt lat="49.49257" lon="0.13248">
        <ele>13.52</ele>
        <time>2019-11-15T10:05:28.001Z</time>
      </trkpt>
      <trkpt lat="49.49369" lon="0.13187">
        <ele>9.217</ele>
        <time>2019-11-15T10:06:01.001Z</time>
      </trkpt>
      <trkpt lat="49.49514" lon="0.13161">
        <ele>3.811</ele>
        <time>2019-11-15T10:06:31.001Z</time>
      </trkpt>
      <trkpt lat="49.49704" lon="0.13139">
        <ele>2.217</ele>
        <time>2019-11-15T10:07:04.001Z</time>
      </trkpt>
      <trkpt lat="49.49723" lon="0.12958">
        <ele>15.275</ele>
        <time>2019-11-15T10:07:37.001Z</time>
      </trkpt>
      <trkpt lat="49.49719" lon="0.12826">
        <ele>15.409</ele>
        <time>2019-11-15T10:08:07.001Z</time>
      </trkpt>
      <trkpt lat="49.49808" lon="0.12836">
        <ele>15.674</ele>
        <time>2019-11-15T10:08:40.001Z</time>
      </trkpt>
      <trkpt lat="49.49933" lon="0.12931">
        <ele>25.661</ele>
        <time>2019-11-15T10:09:13.001Z</time>
      </trkpt>
      <trkpt lat="49.49995" lon="0.1298">
        <ele>27.697</ele>
        <time>2019-11-15T10:10:31.001Z</time>
      </trkpt>
      <trkpt lat="49.50087" lon="0.13052">
        <ele>22.391</ele>
        <time>2019-11-15T10:11:04.001Z</time>
      </trkpt>
      <trkpt lat="49.50157" lon="0.13105">
        <ele>16.299</ele>
        <time>2019-11-15T10:11:46.001Z</time>
      </trkpt>
      <trkpt lat="49.50212" lon="0.13148">
        <ele>25.847</ele>
        <time>2019-11-15T10:12:25.001Z</time>
      </trkpt>
      <trkpt lat="49.50273" lon="0.13211">
        <ele>38.665</ele>
        <time>2019-11-15T10:12:58.001Z</time>
      </trkpt>
      <trkpt lat="49.50821" lon="0.1364">
        <ele>48.026</ele>
        <time>2019-11-15T10:17:15.001Z</time>
      </trkpt>
      <trkpt lat="49.50886" lon="0.13597">
        <ele>51.985</ele>
        <time>2019-11-15T10:17:45.001Z</time>
      </trkpt>
      <trkpt lat="49.50907" lon="0.13516">
        <ele>54.289</ele>
        <time>2019-11-15T10:18:21.001Z</time>
      </trkpt>
      <trkpt lat="49.50945" lon="0.13412">
        <ele>58.757</ele>
        <time>2019-11-15T10:18:54.001Z</time>
      </trkpt>
      <trkpt lat="49.50976" lon="0.1333">
        <ele>60.869</ele>
        <time>2019-11-15T10:19:24.001Z</time>
      </trkpt>
      <trkpt lat="49.51004" lon="0.1325">
        <ele>68.649</ele>
        <time>2019-11-15T10:19:57.001Z</time>
      </trkpt>
      <trkpt lat="49.51027" lon="0.13162">
        <ele>75.419</ele>
        <time>2019-11-15T10:20:30.001Z</time>
      </trkpt>
      <trkpt lat="49.51052" lon="0.13077">
        <ele>82.934</ele>
        <time>2019-11-15T10:21:00Z</time>
      </trkpt>
      <trkpt lat="49.51085" lon="0.12953">
        <ele>86.108</ele>
        <time>2019-11-15T10:21:33.001Z</time>
      </trkpt>
      <trkpt lat="49.51131" lon="0.12834">
        <ele>87.387</ele>
        <time>2019-11-15T10:22:06.001Z</time>
      </trkpt>
      <trkpt lat="49.51185" lon="0.12705">
        <ele>91.424</ele>
        <time>2019-11-15T10:22:36.001Z</time>
      </trkpt>
      <trkpt lat="49.5127" lon="0.12586">
        <ele>94.054</ele>
        <time>2019-11-15T10:23:09.001Z</time>
      </trkpt>
      <trkpt lat="49.51348" lon="0.12471">
        <ele>94.323</ele>
        <time>2019-11-15T10:23:42.001Z</time>
      </trkpt>
      <trkpt lat="49.51429" lon="0.12347">
        <ele>80.392</ele>
        <time>2019-11-15T10:24:12.001Z</time>
      </trkpt>
      <trkpt lat="49.51513" lon="0.12212">
        <ele>81.875</ele>
        <time>2019-11-15T10:24:45.001Z</time>
      </trkpt>
      <trkpt lat="49.51602" lon="0.12072">
        <ele>81.305</ele>
        <time>2019-11-15T10:25:18.001Z</time>
      </trkpt>
      <trkpt lat="49.51682" lon="0.11939">
        <ele>88.838</ele>
        <time>2019-11-15T10:25:48.001Z</time>
      </trkpt>
      <trkpt lat="49.51782" lon="0.118">
        <ele>98.206</ele>
        <time>2019-11-15T10:26:21.001Z</time>
      </trkpt>
      <trkpt lat="49.51891" lon="0.11651">
        <ele>94.915</ele>
        <time>2019-11-15T10:26:54.001Z</time>
      </trkpt>
      <trkpt lat="49.5199" lon="0.11518">
        <ele>97.636</ele>
        <time>2019-11-15T10:27:24.001Z</time>
      </trkpt>
      <trkpt lat="49.52075" lon="0.11406">
        <ele>92.716</ele>
        <time>2019-11-15T10:28:00Z</time>
      </trkpt>
      <trkpt lat="49.52047" lon="0.11261">
        <ele>86.987</ele>
        <time>2019-11-15T10:28:33.001Z</time>
      </trkpt>
      <trkpt lat="49.52075" lon="0.11029">
        <ele>88.042</ele>
        <time>2019-11-15T10:29:03.001Z</time>
      </trkpt>
      <trkpt lat="49.52204" lon="0.10937">
        <ele>90.014</ele>
        <time>2019-11-15T10:29:36.001Z</time>
      </trkpt>
      <trkpt lat="49.52365" lon="0.1088">
        <ele>80.969</ele>
        <time>2019-11-15T10:30:09.001Z</time>
      </trkpt>
      <trkpt lat="49.52503" lon="0.10704">
        <ele>75.795</ele>
        <time>2019-11-15T10:30:39.001Z</time>
      </trkpt>
      <trkpt lat="49.525" lon="0.10612">
        <ele>75.336</ele>
        <time>2019-11-15T10:31:12.001Z</time>
      </trkpt>
      <trkpt lat="49.52447" lon="0.10807">
        <ele>77.468</ele>
        <time>2019-11-15T10:31:45.001Z</time>
      </trkpt>
      <trkpt lat="49.52358" lon="0.10865">
        <ele>79.673</ele>
        <time>2019-11-15T10:32:15.001Z</time>
      </trkpt>
      <trkpt lat="49.52256" lon="0.10858">
        <ele>84.334</ele>
        <time>2019-11-15T10:32:48.001Z</time>
      </trkpt>
      <trkpt lat="49.52258" lon="0.1073">
        <ele>91.793</ele>
        <time>2019-11-15T10:33:21.001Z</time>
      </trkpt>
      <trkpt lat="49.52251" lon="0.10559">
        <ele>90.32</ele>
        <time>2019-11-15T10:33:54.001Z</time>
      </trkpt>
      <trkpt lat="49.52376" lon="0.10438">
        <ele>84.445</ele>
        <time>2019-11-15T10:34:27.001Z</time>
      </trkpt>
      <trkpt lat="49.52511" lon="0.10427">
        <ele>85.136</ele>
        <time>2019-11-15T10:35:00Z</time>
      </trkpt>
      <trkpt lat="49.52644" lon="0.10412">
        <ele>81.399</ele>
        <time>2019-11-15T10:35:30.001Z</time>
      </trkpt>
      <trkpt lat="49.52766" lon="0.10383">
        <ele>85.82</ele>
        <time>2019-11-15T10:36:03.001Z</time>
      </trkpt>
      <trkpt lat="49.52902" lon="0.10345">
        <ele>85.669</ele>
        <time>2019-11-15T10:36:36.001Z</time>
      </trkpt>
      <trkpt lat="49.53007" lon="0.10352">
        <ele>85.453</ele>
        <time>2019-11-15T10:37:06.001Z</time>
      </trkpt>
      <trkpt lat="49.53199" lon="0.10357">
        <ele>83.624</ele>
        <time>2019-11-15T10:37:39.001Z</time>
      </trkpt>
      <trkpt lat="49.53322" lon="0.10385">
        <ele>84.976</ele>
        <time>2019-11-15T10:38:12.001Z</time>
      </trkpt>
      <trkpt lat="49.53415" lon="0.10431">
        <ele>88.219</ele>
        <time>2019-11-15T10:38:42.001Z</time>
      </trkpt>
      <trkpt lat="49.5349" lon="0.10511">
        <ele>91.312</ele>
        <time>2019-11-15T10:39:15.001Z</time>
      </trkpt>
      <trkpt lat="49.53589" lon="0.10667">
        <ele>92.992</ele>
        <time>2019-11-15T10:39:48.001Z</time>
      </trkpt>
      <trkpt lat="49.53636" lon="0.10818">
        <ele>85.617</ele>
        <time>2019-11-15T10:40:18.001Z</time>
      </trkpt>
      <trkpt lat="49.53689" lon="0.10984">
        <ele>87.107</ele>
        <time>2019-11-15T10:40:51.001Z</time>
      </trkpt>
      <trkpt lat="49.53729" lon="0.11228">
        <ele>85.259</ele>
        <time>2019-11-15T10:41:24.001Z</time>
      </trkpt>
      <trkpt lat="49.53797" lon="0.11421">
        <ele>81.95</ele>
        <time>2019-11-15T10:41:54.001Z</time>
      </trkpt>
      <trkpt lat="49.53945" lon="0.11485">
        <ele>81.782</ele>
        <time>2019-11-15T10:42:27.001Z</time>
      </trkpt>
      <trkpt lat="49.54051" lon="0.11581">
        <ele>82.319</ele>
        <time>2019-11-15T10:43:00Z</time>
      </trkpt>
      <trkpt lat="49.54141" lon="0.11726">
        <ele>83.903</ele>
        <time>2019-11-15T10:43:30.001Z</time>
      </trkpt>
      <trkpt lat="49.54198" lon="0.11827">
        <ele>86.775</ele>
        <time>2019-11-15T10:44:03.001Z</time>
      </trkpt>
      <trkpt lat="49.54255" lon="0.11908">
        <ele>92.235</ele>
        <time>2019-11-15T10:44:36.001Z</time>
      </trkpt>
      <trkpt lat="49.54309" lon="0.12009">
        <ele>94.993</ele>
        <time>2019-11-15T10:45:06.001Z</time>
      </trkpt>
      <trkpt lat="49.54437" lon="0.1219">
        <ele>80.826</ele>
        <time>2019-11-15T10:45:39.001Z</time>
      </trkpt>
      <trkpt lat="49.54522" lon="0.12399">
        <ele>77.418</ele>
        <time>2019-11-15T10:46:12.001Z</time>
      </trkpt>
      <trkpt lat="49.54592" lon="0.12553">
        <ele>78.711</ele>
        <time>2019-11-15T10:46:42.001Z</time>
      </trkpt>
      <trkpt lat="49.54717" lon="0.1274">
        <ele>69.029</ele>
        <time>2019-11-15T10:47:15.001Z</time>
      </trkpt>
      <trkpt lat="49.5494" lon="0.12978">
        <ele>58.298</ele>
        <time>2019-11-15T10:47:48.001Z</time>
      </trkpt>
      <trkpt lat="49.55043" lon="0.13062">
        <ele>63.301</ele>
        <time>2019-11-15T10:48:18.001Z</time>
      </trkpt>
      <trkpt lat="49.55105" lon="0.13112">
        <ele>67.988</ele>
        <time>2019-11-15T10:48:51.001Z</time>
      </trkpt>
      <trkpt lat="49.55165" lon="0.1317">
        <ele>76.292</ele>
        <time>2019-11-15T10:49:27.001Z</time>
      </trkpt>
      <trkpt lat="49.55209" lon="0.13245">
        <ele>79.068</ele>
        <time>2019-11-15T10:49:57.001Z</time>
      </trkpt>
      <trkpt lat="49.55278" lon="0.13306">
        <ele>80.218</ele>
        <time>2019-11-15T10:50:30.001Z</time>
      </trkpt>
      <trkpt lat="49.55372" lon="0.1336">
        <ele>80.028</ele>
        <time>2019-11-15T10:51:03.001Z</time>
      </trkpt>
      <trkpt lat="49.55459" lon="0.1342">
        <ele>80.555</ele>
        <time>2019-11-15T10:51:33.001Z</time>
      </trkpt>
      <trkpt lat="49.55557" lon="0.13404">
        <ele>78.377</ele>
        <time>2019-11-15T10:52:06.001Z</time>
      </trkpt>
      <trkpt lat="49.55642" lon="0.13363">
        <ele>80.873</ele>
        <time>2019-11-15T10:52:39.001Z</time>
      </trkpt>
      <trkpt lat="49.55728" lon="0.13373">
        <ele>82.774</ele>
        <time>2019-11-15T10:53:09.001Z</time>
      </trkpt>
      <trkpt lat="49.55784" lon="0.13485">
        <ele>84.985</ele>
        <time>2019-11-15T10:53:42.001Z</time>
      </trkpt>
      <trkpt lat="49.55815" lon="0.13634">
        <ele>81.578</ele>
        <time>2019-11-15T10:54:15.001Z</time>
      </trkpt>
      <trkpt lat="49.55846" lon="0.13769">
        <ele>83.662</ele>
        <time>2019-11-15T10:54:45.001Z</time>
      </trkpt>
      <trkpt lat="49.55871" lon="0.13923">
        <ele>84.838</ele>
        <time>2019-11-15T10:55:18.001Z</time>
      </trkpt>
      <trkpt lat="49.55885" lon="0.14072">
        <ele>85.874</ele>
        <time>2019-11-15T10:55:51.001Z</time>
      </trkpt>
      <trkpt lat="49.5592" lon="0.14205">
        <ele>87.781</ele>
        <time>2019-11-15T10:56:21.001Z</time>
      </trkpt>
      <trkpt lat="49.56021" lon="0.14343">
        <ele>85.414</ele>
        <time>2019-11-15T10:56:54.001Z</time>
      </trkpt>
      <trkpt lat="49.56129" lon="0.14517">
        <ele>84.717</ele>
        <time>2019-11-15T10:57:27.001Z</time>
      </trkpt>
      <trkpt lat="49.5622" lon="0.14723">
        <ele>85.818</ele>
        <time>2019-11-15T10:57:57.001Z</time>
      </trkpt>
      <trkpt lat="49.56253" lon="0.14864">
        <ele>82.708</ele>
        <time>2019-11-15T10:58:30.001Z</time>
      </trkpt>
      <trkpt lat="49.56478" lon="0.14808">
        <ele>86.79</ele>
        <time>2019-11-15T10:59:03.001Z</time>
      </trkpt>
      <trkpt lat="49.56609" lon="0.14767">
        <ele>83.613</ele>
        <time>2019-11-15T10:59:33.001Z</time>
      </trkpt>
      <trkpt lat="49.56678" lon="0.14772">
        <ele>84.928</ele>
        <time>2019-11-15T11:00:06.001Z</time>
      </trkpt>
      <trkpt lat="49.56759" lon="0.14778">
        <ele>84.954</ele>
        <time>2019-11-15T11:00:39.001Z</time>
      </trkpt>
      <trkpt lat="49.56855" lon="0.14793">
        <ele>83.872</ele>
        <time>2019-11-15T11:01:09.001Z</time>
      </trkpt>
      <trkpt lat="49.56949" lon="0.14842">
        <ele>88.612</ele>
        <time>2019-11-15T11:01:42.001Z</time>
      </trkpt>
      <trkpt lat="49.57019" lon="0.14945">
        <ele>92.072</ele>
        <time>2019-11-15T11:02:15.001Z</time>
      </trkpt>
      <trkpt lat="49.57056" lon="0.15088">
        <ele>86.777</ele>
        <time>2019-11-15T11:02:45.001Z</time>
      </trkpt>
      <trkpt lat="49.57112" lon="0.15234">
        <ele>87.305</ele>
        <time>2019-11-15T11:03:18.001Z</time>
      </trkpt>
      <trkpt lat="49.57188" lon="0.15413">
        <ele>86.388</ele>
        <time>2019-11-15T11:03:51.001Z</time>
      </trkpt>
      <trkpt lat="49.57284" lon="0.15537">
        <ele>84.228</ele>
        <time>2019-11-15T11:04:21.001Z</time>
      </trkpt>
      <trkpt lat="49.57397" lon="0.15608">
        <ele>85.284</ele>
        <time>2019-11-15T11:04:54.001Z</time>
      </trkpt>
      <trkpt lat="49.57485" lon="0.15696">
        <ele>86.431</ele>
        <time>2019-11-15T11:05:27.001Z</time>
      </trkpt>
      <trkpt lat="49.57552" lon="0.15777">
        <ele>89.649</ele>
        <time>2019-11-15T11:05:57.001Z</time>
      </trkpt>
      <trkpt lat="49.57622" lon="0.15873">
        <ele>91.1</ele>
        <time>2019-11-15T11:06:30.001Z</time>
      </trkpt>
      <trkpt lat="49.57688" lon="0.15966">
        <ele>92.301</ele>
        <time>2019-11-15T11:07:03.001Z</time>
      </trkpt>
      <trkpt lat="49.5775" lon="0.16041">
        <ele>95.427</ele>
        <time>2019-11-15T11:07:33.001Z</time>
      </trkpt>
      <trkpt lat="49.57808" lon="0.16117">
        <ele>100.567</ele>
        <time>2019-11-15T11:08:06.001Z</time>
      </trkpt>
      <trkpt lat="49.57876" lon="0.1618">
        <ele>102.396</ele>
        <time>2019-11-15T11:08:39.001Z</time>
      </trkpt>
      <trkpt lat="49.57958" lon="0.16251">
        <ele>102.066</ele>
        <time>2019-11-15T11:09:09.001Z</time>
      </trkpt>
      <trkpt lat="49.58047" lon="0.16359">
        <ele>101.14</ele>
        <time>2019-11-15T11:09:42.001Z</time>
      </trkpt>
      <trkpt lat="49.58126" lon="0.1646">
        <ele>102.085</ele>
        <time>2019-11-15T11:10:15.001Z</time>
      </trkpt>
      <trkpt lat="49.58215" lon="0.16575">
        <ele>101.894</ele>
        <time>2019-11-15T11:10:48.001Z</time>
      </trkpt>
      <trkpt lat="49.583" lon="0.167">
        <ele>101.397</ele>
        <time>2019-11-15T11:11:18.001Z</time>
      </trkpt>
      <trkpt lat="49.58393" lon="0.16857">
        <ele>99.826</ele>
        <time>2019-11-15T11:11:51.001Z</time>
      </trkpt>
      <trkpt lat="49.5847" lon="0.17028">
        <ele>101.379</ele>
        <time>2019-11-15T11:12:24.001Z</time>
      </trkpt>
      <trkpt lat="49.58532" lon="0.17172">
        <ele>102.481</ele>
        <time>2019-11-15T11:12:54.001Z</time>
      </trkpt>
      <trkpt lat="49.58614" lon="0.17332">
        <ele>104.03</ele>
        <time>2019-11-15T11:13:27.001Z</time>
      </trkpt>
      <trkpt lat="49.58696" lon="0.17488">
        <ele>102.213</ele>
        <time>2019-11-15T11:14:00Z</time>
      </trkpt>
      <trkpt lat="49.58759" lon="0.17598">
        <ele>100.708</ele>
        <time>2019-11-15T11:14:30.001Z</time>
      </trkpt>
      <trkpt lat="49.58911" lon="0.17557">
        <ele>105.505</ele>
        <time>2019-11-15T11:15:03.001Z</time>
      </trkpt>
      <trkpt lat="49.59081" lon="0.17488">
        <ele>105.833</ele>
        <time>2019-11-15T11:15:36.001Z</time>
      </trkpt>
      <trkpt lat="49.59232" lon="0.17515">
        <ele>98.357</ele>
        <time>2019-11-15T11:16:06.001Z</time>
      </trkpt>
      <trkpt lat="49.59375" lon="0.17622">
        <ele>94.722</ele>
        <time>2019-11-15T11:16:39.001Z</time>
      </trkpt>
      <trkpt lat="49.59464" lon="0.17668">
        <ele>95.419</ele>
        <time>2019-11-15T11:17:12.001Z</time>
      </trkpt>
      <trkpt lat="49.59558" lon="0.17631">
        <ele>100.773</ele>
        <time>2019-11-15T11:17:42.001Z</time>
      </trkpt>
      <trkpt lat="49.59718" lon="0.17599">
        <ele>100.395</ele>
        <time>2019-11-15T11:18:15.001Z</time>
      </trkpt>
      <trkpt lat="49.59787" lon="0.17586">
        <ele>96.037</ele>
        <time>2019-11-15T11:19:12.001Z</time>
      </trkpt>
      <trkpt lat="49.59808" lon="0.17682">
        <ele>98.929</ele>
        <time>2019-11-15T11:19:45.001Z</time>
      </trkpt>
      <trkpt lat="49.59899" lon="0.17857">
        <ele>90.036</ele>
        <time>2019-11-15T11:20:18.001Z</time>
      </trkpt>
      <trkpt lat="49.60098" lon="0.17995">
        <ele>81.324</ele>
        <time>2019-11-15T11:20:51.001Z</time>
      </trkpt>
      <trkpt lat="49.60221" lon="0.18164">
        <ele>78.865</ele>
        <time>2019-11-15T11:21:21.001Z</time>
      </trkpt>
      <trkpt lat="49.60318" lon="0.18294">
        <ele>71.972</ele>
        <time>2019-11-15T11:21:54.001Z</time>
      </trkpt>
      <trkpt lat="49.60492" lon="0.18384">
        <ele>68.736</ele>
        <time>2019-11-15T11:22:30.001Z</time>
      </trkpt>
      <trkpt lat="49.60617" lon="0.18413">
        <ele>63.833</ele>
        <time>2019-11-15T11:23:00Z</time>
      </trkpt>
      <trkpt lat="49.60666" lon="0.1843">
        <ele>68.532</ele>
        <time>2019-11-15T11:23:39.001Z</time>
      </trkpt>
      <trkpt lat="49.60714" lon="0.18431">
        <ele>75.505</ele>
        <time>2019-11-15T11:24:30.001Z</time>
      </trkpt>
      <trkpt lat="49.60775" lon="0.1845">
        <ele>79.747</ele>
        <time>2019-11-15T11:25:00Z</time>
      </trkpt>
      <trkpt lat="49.60838" lon="0.18486">
        <ele>80.911</ele>
        <time>2019-11-15T11:25:33.001Z</time>
      </trkpt>
      <trkpt lat="49.6091" lon="0.18535">
        <ele>83.674</ele>
        <time>2019-11-15T11:26:06.001Z</time>
      </trkpt>
      <trkpt lat="49.60975" lon="0.18577">
        <ele>86.262</ele>
        <time>2019-11-15T11:26:36.001Z</time>
      </trkpt>
      <trkpt lat="49.61058" lon="0.18627">
        <ele>88.562</ele>
        <time>2019-11-15T11:27:09.001Z</time>
      </trkpt>
      <trkpt lat="49.61152" lon="0.18632">
        <ele>93.254</ele>
        <time>2019-11-15T11:27:42.001Z</time>
      </trkpt>
      <trkpt lat="49.61244" lon="0.1861">
        <ele>93.662</ele>
        <time>2019-11-15T11:28:12.001Z</time>
      </trkpt>
      <trkpt lat="49.6135" lon="0.18592">
        <ele>93.793</ele>
        <time>2019-11-15T11:28:45.001Z</time>
      </trkpt>
      <trkpt lat="49.61399" lon="0.18868">
        <ele>85.396</ele>
        <time>2019-11-15T11:29:18.001Z</time>
      </trkpt>
      <trkpt lat="49.61405" lon="0.19013">
        <ele>85.24</ele>
        <time>2019-11-15T11:29:48.001Z</time>
      </trkpt>
      <trkpt lat="49.61459" lon="0.19106">
        <ele>89.652</ele>
        <time>2019-11-15T11:30:21.001Z</time>
      </trkpt>
      <trkpt lat="49.61526" lon="0.1921">
        <ele>91.36</ele>
        <time>2019-11-15T11:30:54.001Z</time>
      </trkpt>
      <trkpt lat="49.61606" lon="0.19285">
        <ele>87.405</ele>
        <time>2019-11-15T11:31:24.001Z</time>
      </trkpt>
      <trkpt lat="49.61661" lon="0.19387">
        <ele>90.919</ele>
        <time>2019-11-15T11:31:57.001Z</time>
      </trkpt>
      <trkpt lat="49.61728" lon="0.19474">
        <ele>94.498</ele>
        <time>2019-11-15T11:32:30.001Z</time>
      </trkpt>
      <trkpt lat="49.61792" lon="0.19561">
        <ele>97.011</ele>
        <time>2019-11-15T11:33:00Z</time>
      </trkpt>
      <trkpt lat="49.61858" lon="0.19655">
        <ele>95.741</ele>
        <time>2019-11-15T11:33:33.001Z</time>
      </trkpt>
      <trkpt lat="49.61911" lon="0.19732">
        <ele>101.77</ele>
        <time>2019-11-15T11:34:06.001Z</time>
      </trkpt>
      <trkpt lat="49.61938" lon="0.19836">
        <ele>100.535</ele>
        <time>2019-11-15T11:34:36.001Z</time>
      </trkpt>
      <trkpt lat="49.62018" lon="0.1985">
        <ele>102.031</ele>
        <time>2019-11-15T11:35:09.001Z</time>
      </trkpt>
      <trkpt lat="49.62115" lon="0.19802">
        <ele>105.615</ele>
        <time>2019-11-15T11:35:42.001Z</time>
      </trkpt>
      <trkpt lat="49.62206" lon="0.19757">
        <ele>103.506</ele>
        <time>2019-11-15T11:36:12.001Z</time>
      </trkpt>
      <trkpt lat="49.62296" lon="0.19716">
        <ele>105.108</ele>
        <time>2019-11-15T11:36:45.001Z</time>
      </trkpt>
      <trkpt lat="49.62398" lon="0.19678">
        <ele>104.206</ele>
        <time>2019-11-15T11:37:18.001Z</time>
      </trkpt>
      <trkpt lat="49.62485" lon="0.19605">
        <ele>105.208</ele>
        <time>2019-11-15T11:37:48.001Z</time>
      </trkpt>
      <trkpt lat="49.62633" lon="0.19566">
        <ele>102.522</ele>
        <time>2019-11-15T11:38:21.001Z</time>
      </trkpt>
      <trkpt lat="49.62743" lon="0.19511">
        <ele>104.287</ele>
        <time>2019-11-15T11:38:54.001Z</time>
      </trkpt>
      <trkpt lat="49.62839" lon="0.19457">
        <ele>106.493</ele>
        <time>2019-11-15T11:39:24.001Z</time>
      </trkpt>
      <trkpt lat="49.62923" lon="0.19401">
        <ele>104.45</ele>
        <time>2019-11-15T11:39:57.001Z</time>
      </trkpt>
      <trkpt lat="49.62986" lon="0.19383">
        <ele>113.083</ele>
        <time>2019-11-15T11:40:30.001Z</time>
      </trkpt>
      <trkpt lat="49.63061" lon="0.19389">
        <ele>110.245</ele>
        <time>2019-11-15T11:41:00Z</time>
      </trkpt>
      <trkpt lat="49.6313" lon="0.19422">
        <ele>115.505</ele>
        <time>2019-11-15T11:41:33.001Z</time>
      </trkpt>
      <trkpt lat="49.63206" lon="0.19431">
        <ele>116.326</ele>
        <time>2019-11-15T11:42:06.001Z</time>
      </trkpt>
      <trkpt lat="49.63284" lon="0.19379">
        <ele>116.014</ele>
        <time>2019-11-15T11:42:36.001Z</time>
      </trkpt>
      <trkpt lat="49.63354" lon="0.19283">
        <ele>116.029</ele>
        <time>2019-11-15T11:43:09.001Z</time>
      </trkpt>
      <trkpt lat="49.63409" lon="0.19204">
        <ele>120.026</ele>
        <time>2019-11-15T11:43:42.001Z</time>
      </trkpt>
      <trkpt lat="49.63461" lon="0.19132">
        <ele>124.061</ele>
        <time>2019-11-15T11:44:12.001Z</time>
      </trkpt>
      <trkpt lat="49.63527" lon="0.1904">
        <ele>126.818</ele>
        <time>2019-11-15T11:44:45.001Z</time>
      </trkpt>
      <trkpt lat="49.63546" lon="0.19148">
        <ele>126.946</ele>
        <time>2019-11-15T11:45:18.001Z</time>
      </trkpt>
      <trkpt lat="49.63556" lon="0.19353">
        <ele>122.273</ele>
        <time>2019-11-15T11:45:48.001Z</time>
      </trkpt>
      <trkpt lat="49.63655" lon="0.1943">
        <ele>117.299</ele>
        <time>2019-11-15T11:46:21.001Z</time>
      </trkpt>
      <trkpt lat="49.63767" lon="0.19417">
        <ele>120.041</ele>
        <time>2019-11-15T11:46:54.001Z</time>
      </trkpt>
      <trkpt lat="49.63848" lon="0.19425">
        <ele>120.4</ele>
        <time>2019-11-15T11:47:24.001Z</time>
      </trkpt>
      <trkpt lat="49.63932" lon="0.19427">
        <ele>124.487</ele>
        <time>2019-11-15T11:47:57.001Z</time>
      </trkpt>
      <trkpt lat="49.64017" lon="0.1945">
        <ele>125.893</ele>
        <time>2019-11-15T11:48:30.001Z</time>
      </trkpt>
      <trkpt lat="49.64087" lon="0.19473">
        <ele>127.905</ele>
        <time>2019-11-15T11:49:00Z</time>
      </trkpt>
      <trkpt lat="49.64195" lon="0.19493">
        <ele>127.102</ele>
        <time>2019-11-15T11:49:33.001Z</time>
      </trkpt>
      <trkpt lat="49.6431" lon="0.19497">
        <ele>125.221</ele>
        <time>2019-11-15T11:50:06.001Z</time>
      </trkpt>
      <trkpt lat="49.64397" lon="0.19527">
        <ele>133.659</ele>
        <time>2019-11-15T11:50:36.001Z</time>
      </trkpt>
      <trkpt lat="49.64483" lon="0.19573">
        <ele>138.427</ele>
        <time>2019-11-15T11:51:09.001Z</time>
      </trkpt>
      <trkpt lat="49.64549" lon="0.19649">
        <ele>132.258</ele>
        <time>2019-11-15T11:51:42.001Z</time>
      </trkpt>
      <trkpt lat="49.64608" lon="0.19735">
        <ele>132.711</ele>
        <time>2019-11-15T11:52:12.001Z</time>
      </trkpt>
      <trkpt lat="49.647" lon="0.19864">
        <ele>133.249</ele>
        <time>2019-11-15T11:52:45.001Z</time>
      </trkpt>
      <trkpt lat="49.64825" lon="0.20011">
        <ele>130.919</ele>
        <time>2019-11-15T11:53:18.001Z</time>
      </trkpt>
      <trkpt lat="49.64922" lon="0.20125">
        <ele>126.934</ele>
        <time>2019-11-15T11:53:48.001Z</time>
      </trkpt>
      <trkpt lat="49.65042" lon="0.20279">
        <ele>124.674</ele>
        <time>2019-11-15T11:54:21.001Z</time>
      </trkpt>
      <trkpt lat="49.65195" lon="0.20379">
        <ele>124.118</ele>
        <time>2019-11-15T11:54:54.001Z</time>
      </trkpt>
      <trkpt lat="49.65373" lon="0.20402">
        <ele>126.011</ele>
        <time>2019-11-15T11:55:24.001Z</time>
      </trkpt>
      <trkpt lat="49.65454" lon="0.20465">
        <ele>122.775</ele>
        <time>2019-11-15T11:55:57.001Z</time>
      </trkpt>
      <trkpt lat="49.65539" lon="0.20612">
        <ele>123.95</ele>
        <time>2019-11-15T11:56:30.001Z</time>
      </trkpt>
      <trkpt lat="49.65651" lon="0.20804">
        <ele>117.71</ele>
        <time>2019-11-15T11:57:00Z</time>
      </trkpt>
      <trkpt lat="49.6575" lon="0.20938">
        <ele>114.796</ele>
        <time>2019-11-15T11:57:33.001Z</time>
      </trkpt>
      <trkpt lat="49.6581" lon="0.2096">
        <ele>118.511</ele>
        <time>2019-11-15T11:58:06.001Z</time>
      </trkpt>
      <trkpt lat="49.65871" lon="0.21098">
        <ele>116.394</ele>
        <time>2019-11-15T11:58:36.001Z</time>
      </trkpt>
      <trkpt lat="49.66045" lon="0.21328">
        <ele>111.331</ele>
        <time>2019-11-15T11:59:09.001Z</time>
      </trkpt>
      <trkpt lat="49.66244" lon="0.21551">
        <ele>102.589</ele>
        <time>2019-11-15T11:59:42.001Z</time>
      </trkpt>
      <trkpt lat="49.66305" lon="0.21605">
        <ele>105.061</ele>
        <time>2019-11-15T12:00:12.001Z</time>
      </trkpt>
      <trkpt lat="49.66371" lon="0.21663">
        <ele>110.04</ele>
        <time>2019-11-15T12:00:45.001Z</time>
      </trkpt>
      <trkpt lat="49.6654" lon="0.21803">
        <ele>103.614</ele>
        <time>2019-11-15T12:01:18.001Z</time>
      </trkpt>
      <trkpt lat="49.66698" lon="0.21963">
        <ele>91.935</ele>
        <time>2019-11-15T12:01:48.001Z</time>
      </trkpt>
      <trkpt lat="49.66859" lon="0.22033">
        <ele>89.152</ele>
        <time>2019-11-15T12:02:21.001Z</time>
      </trkpt>
      <trkpt lat="49.6706" lon="0.22149">
        <ele>69.803</ele>
        <time>2019-11-15T12:02:54.001Z</time>
      </trkpt>
      <trkpt lat="49.67161" lon="0.22296">
        <ele>49.377</ele>
        <time>2019-11-15T12:03:24.001Z</time>
      </trkpt>
      <trkpt lat="49.67269" lon="0.22265">
        <ele>36.154</ele>
        <time>2019-11-15T12:03:57.001Z</time>
      </trkpt>
      <trkpt lat="49.67321" lon="0.22114">
        <ele>33.367</ele>
        <time>2019-11-15T12:04:30.001Z</time>
      </trkpt>
      <trkpt lat="49.67407" lon="0.2205">
        <ele>30.25</ele>
        <time>2019-11-15T12:05:00Z</time>
      </trkpt>
      <trkpt lat="49.67498" lon="0.22088">
        <ele>34.596</ele>
        <time>2019-11-15T12:05:36.001Z</time>
      </trkpt>
      <trkpt lat="49.6757" lon="0.22174">
        <ele>39.838</ele>
        <time>2019-11-15T12:06:18.001Z</time>
      </trkpt>
      <trkpt lat="49.67613" lon="0.22262">
        <ele>31.022</ele>
        <time>2019-11-15T12:06:48.001Z</time>
      </trkpt>
      <trkpt lat="49.67652" lon="0.22355">
        <ele>30.1</ele>
        <time>2019-11-15T12:07:21.001Z</time>
      </trkpt>
      <trkpt lat="49.67724" lon="0.22446">
        <ele>28.491</ele>
        <time>2019-11-15T12:07:54.001Z</time>
      </trkpt>
      <trkpt lat="49.67789" lon="0.22528">
        <ele>28.548</ele>
        <time>2019-11-15T12:08:24.001Z</time>
      </trkpt>
      <trkpt lat="49.67848" lon="0.22599">
        <ele>27.129</ele>
        <time>2019-11-15T12:08:57.001Z</time>
      </trkpt>
      <trkpt lat="49.67901" lon="0.22653">
        <ele>26.852</ele>
        <time>2019-11-15T12:09:30.001Z</time>
      </trkpt>
      <trkpt lat="49.67958" lon="0.22737">
        <ele>28.387</ele>
        <time>2019-11-15T12:10:00Z</time>
      </trkpt>
      <trkpt lat="49.68018" lon="0.22788">
        <ele>24.647</ele>
        <time>2019-11-15T12:10:36.001Z</time>
      </trkpt>
      <trkpt lat="49.68086" lon="0.22773">
        <ele>26.55</ele>
        <time>2019-11-15T12:11:09.001Z</time>
      </trkpt>
      <trkpt lat="49.68151" lon="0.22756">
        <ele>25.592</ele>
        <time>2019-11-15T12:11:39.001Z</time>
      </trkpt>
      <trkpt lat="49.68235" lon="0.22739">
        <ele>22.531</ele>
        <time>2019-11-15T12:12:12.001Z</time>
      </trkpt>
      <trkpt lat="49.6831" lon="0.22717">
        <ele>24.066</ele>
        <time>2019-11-15T12:12:45.001Z</time>
      </trkpt>
      <trkpt lat="49.68375" lon="0.22715">
        <ele>27.89</ele>
        <time>2019-11-15T12:13:15.001Z</time>
      </trkpt>
      <trkpt lat="49.68456" lon="0.22706">
        <ele>24.789</ele>
        <time>2019-11-15T12:13:48.001Z</time>
      </trkpt>
      <trkpt lat="49.6862" lon="0.22639">
        <ele>18.986</ele>
        <time>2019-11-15T12:14:21.001Z</time>
      </trkpt>
      <trkpt lat="49.68755" lon="0.22575">
        <ele>17.058</ele>
        <time>2019-11-15T12:14:51.001Z</time>
      </trkpt>
      <trkpt lat="49.68838" lon="0.22349">
        <ele>16.632</ele>
        <time>2019-11-15T12:15:24.001Z</time>
      </trkpt>
      <trkpt lat="49.6893" lon="0.22138">
        <ele>11.812</ele>
        <time>2019-11-15T12:15:57.001Z</time>
      </trkpt>
      <trkpt lat="49.69089" lon="0.222">
        <ele>12.152</ele>
        <time>2019-11-15T12:16:27.001Z</time>
      </trkpt>
      <trkpt lat="49.69259" lon="0.22255">
        <ele>15.067</ele>
        <time>2019-11-15T12:17:00Z</time>
      </trkpt>
      <trkpt lat="49.69416" lon="0.22217">
        <ele>15.352</ele>
        <time>2019-11-15T12:17:33.001Z</time>
      </trkpt>
      <trkpt lat="49.6955" lon="0.22081">
        <ele>7.956</ele>
        <time>2019-11-15T12:18:03.001Z</time>
      </trkpt>
      <trkpt lat="49.69703" lon="0.2194">
        <ele>10.133</ele>
        <time>2019-11-15T12:18:36.001Z</time>
      </trkpt>
      <trkpt lat="49.69855" lon="0.21758">
        <ele>11.392</ele>
        <time>2019-11-15T12:19:09.001Z</time>
      </trkpt>
      <trkpt lat="49.69987" lon="0.21614">
        <ele>6.408</ele>
        <time>2019-11-15T12:19:39.001Z</time>
      </trkpt>
      <trkpt lat="49.70133" lon="0.21423">
        <ele>7.7</ele>
        <time>2019-11-15T12:20:12.001Z</time>
      </trkpt>
      <trkpt lat="49.70273" lon="0.21222">
        <ele>9.011</ele>
        <time>2019-11-15T12:20:45.001Z</time>
      </trkpt>
      <trkpt lat="49.70401" lon="0.21035">
        <ele>7.821</ele>
        <time>2019-11-15T12:21:15.001Z</time>
      </trkpt>
      <trkpt lat="49.70531" lon="0.20794">
        <ele>4.519</ele>
        <time>2019-11-15T12:21:48.001Z</time>
      </trkpt>
      <trkpt lat="49.70652" lon="0.20611">
        <ele>8.054</ele>
        <time>2019-11-15T12:22:21.001Z</time>
      </trkpt>
      <trkpt lat="49.70723" lon="0.20533">
        <ele>17.983</ele>
        <time>2019-11-15T12:22:51.001Z</time>
      </trkpt>
      <trkpt lat="49.70786" lon="0.20439">
        <ele>18.962</ele>
        <time>2019-11-15T12:23:24.001Z</time>
      </trkpt>
      <trkpt lat="49.70787" lon="0.20435">
        <ele>19.046</ele>
        <time>2019-11-15T12:25:48.001Z</time>
      </trkpt>
      <trkpt lat="49.7079" lon="0.20423">
        <ele>14.561</ele>
        <time>2019-11-15T13:07:09.001Z</time>
      </trkpt>
      <trkpt lat="49.70774" lon="0.20465">
        <ele>13.551</ele>
        <time>2019-11-15T13:10:36.001Z</time>
      </trkpt>
      <trkpt lat="49.70719" lon="0.20597">
        <ele>21.149</ele>
        <time>2019-11-15T13:11:09.001Z</time>
      </trkpt>
      <trkpt lat="49.70764" lon="0.20729">
        <ele>19.861</ele>
        <time>2019-11-15T13:11:39.001Z</time>
      </trkpt>
      <trkpt lat="49.70729" lon="0.20861">
        <ele>20.843</ele>
        <time>2019-11-15T13:12:12.001Z</time>
      </trkpt>
      <trkpt lat="49.70796" lon="0.21043">
        <ele>23.398</ele>
        <time>2019-11-15T13:12:45.001Z</time>
      </trkpt>
      <trkpt lat="49.7083" lon="0.21165">
        <ele>20.346</ele>
        <time>2019-11-15T13:13:15.001Z</time>
      </trkpt>
      <trkpt lat="49.70862" lon="0.21294">
        <ele>22.593</ele>
        <time>2019-11-15T13:13:48.001Z</time>
      </trkpt>
      <trkpt lat="49.70899" lon="0.21401">
        <ele>24.94</ele>
        <time>2019-11-15T13:14:21.001Z</time>
      </trkpt>
      <trkpt lat="49.70928" lon="0.215">
        <ele>25.258</ele>
        <time>2019-11-15T13:14:51.001Z</time>
      </trkpt>
      <trkpt lat="49.70957" lon="0.21609">
        <ele>30.27</ele>
        <time>2019-11-15T13:15:24.001Z</time>
      </trkpt>
      <trkpt lat="49.70963" lon="0.21731">
        <ele>31.751</ele>
        <time>2019-11-15T13:15:57.001Z</time>
      </trkpt>
      <trkpt lat="49.70971" lon="0.21842">
        <ele>35.87</ele>
        <time>2019-11-15T13:16:27.001Z</time>
      </trkpt>
      <trkpt lat="49.7099" lon="0.21949">
        <ele>40.31</ele>
        <time>2019-11-15T13:17:00Z</time>
      </trkpt>
      <trkpt lat="49.71019" lon="0.22058">
        <ele>42.85</ele>
        <time>2019-11-15T13:17:33.001Z</time>
      </trkpt>
      <trkpt lat="49.71052" lon="0.22147">
        <ele>45.822</ele>
        <time>2019-11-15T13:18:03.001Z</time>
      </trkpt>
      <trkpt lat="49.71088" lon="0.22247">
        <ele>49.243</ele>
        <time>2019-11-15T13:18:36.001Z</time>
      </trkpt>
      <trkpt lat="49.71129" lon="0.22353">
        <ele>51.149</ele>
        <time>2019-11-15T13:19:09.001Z</time>
      </trkpt>
      <trkpt lat="49.7119" lon="0.22417">
        <ele>49.55</ele>
        <time>2019-11-15T13:19:39.001Z</time>
      </trkpt>
      <trkpt lat="49.71192" lon="0.22497">
        <ele>50.17</ele>
        <time>2019-11-15T13:20:12.001Z</time>
      </trkpt>
      <trkpt lat="49.71187" lon="0.22605">
        <ele>54.353</ele>
        <time>2019-11-15T13:20:45.001Z</time>
      </trkpt>
      <trkpt lat="49.71188" lon="0.22706">
        <ele>55.113</ele>
        <time>2019-11-15T13:21:15.001Z</time>
      </trkpt>
      <trkpt lat="49.7119" lon="0.22813">
        <ele>59.273</ele>
        <time>2019-11-15T13:21:48.001Z</time>
      </trkpt>
      <trkpt lat="49.71231" lon="0.22896">
        <ele>63.086</ele>
        <time>2019-11-15T13:22:21.001Z</time>
      </trkpt>
      <trkpt lat="49.71281" lon="0.22955">
        <ele>63.12</ele>
        <time>2019-11-15T13:22:51.001Z</time>
      </trkpt>
      <trkpt lat="49.71272" lon="0.23043">
        <ele>68.083</ele>
        <time>2019-11-15T13:23:24.001Z</time>
      </trkpt>
      <trkpt lat="49.71197" lon="0.23059">
        <ele>64.593</ele>
        <time>2019-11-15T13:23:57.001Z</time>
      </trkpt>
      <trkpt lat="49.71174" lon="0.23159">
        <ele>72.444</ele>
        <time>2019-11-15T13:24:27.001Z</time>
      </trkpt>
      <trkpt lat="49.71181" lon="0.23281">
        <ele>71.904</ele>
        <time>2019-11-15T13:25:00Z</time>
      </trkpt>
      <trkpt lat="49.71209" lon="0.23389">
        <ele>75.566</ele>
        <time>2019-11-15T13:25:33.001Z</time>
      </trkpt>
      <trkpt lat="49.71237" lon="0.23482">
        <ele>80.808</ele>
        <time>2019-11-15T13:26:03.001Z</time>
      </trkpt>
      <trkpt lat="49.71257" lon="0.23591">
        <ele>86.925</ele>
        <time>2019-11-15T13:26:36.001Z</time>
      </trkpt>
      <trkpt lat="49.71268" lon="0.23699">
        <ele>86.9</ele>
        <time>2019-11-15T13:27:09.001Z</time>
      </trkpt>
      <trkpt lat="49.71289" lon="0.23793">
        <ele>84.177</ele>
        <time>2019-11-15T13:27:39.001Z</time>
      </trkpt>
      <trkpt lat="49.71356" lon="0.23816">
        <ele>86.749</ele>
        <time>2019-11-15T13:28:12.001Z</time>
      </trkpt>
      <trkpt lat="49.71425" lon="0.23839">
        <ele>89.033</ele>
        <time>2019-11-15T13:28:45.001Z</time>
      </trkpt>
      <trkpt lat="49.71461" lon="0.23921">
        <ele>93.591</ele>
        <time>2019-11-15T13:29:15.001Z</time>
      </trkpt>
      <trkpt lat="49.71502" lon="0.24034">
        <ele>96.684</ele>
        <time>2019-11-15T13:29:48.001Z</time>
      </trkpt>
      <trkpt lat="49.71534" lon="0.24161">
        <ele>91.099</ele>
        <time>2019-11-15T13:30:21.001Z</time>
      </trkpt>
      <trkpt lat="49.71554" lon="0.24278">
        <ele>94.465</ele>
        <time>2019-11-15T13:30:51.001Z</time>
      </trkpt>
      <trkpt lat="49.71565" lon="0.24414">
        <ele>104.358</ele>
        <time>2019-11-15T13:31:24.001Z</time>
      </trkpt>
      <trkpt lat="49.71583" lon="0.24558">
        <ele>106.834</ele>
        <time>2019-11-15T13:31:57.001Z</time>
      </trkpt>
      <trkpt lat="49.71626" lon="0.24679">
        <ele>115.588</ele>
        <time>2019-11-15T13:32:27.001Z</time>
      </trkpt>
      <trkpt lat="49.71662" lon="0.24861">
        <ele>108.086</ele>
        <time>2019-11-15T13:33:00Z</time>
      </trkpt>
      <trkpt lat="49.71699" lon="0.25028">
        <ele>107.368</ele>
        <time>2019-11-15T13:33:33.001Z</time>
      </trkpt>
      <trkpt lat="49.71738" lon="0.25183">
        <ele>108.169</ele>
        <time>2019-11-15T13:34:03.001Z</time>
      </trkpt>
      <trkpt lat="49.71741" lon="0.2538">
        <ele>103.317</ele>
        <time>2019-11-15T13:34:36.001Z</time>
      </trkpt>
      <trkpt lat="49.71821" lon="0.25533">
        <ele>94.235</ele>
        <time>2019-11-15T13:35:09.001Z</time>
      </trkpt>
      <trkpt lat="49.7183" lon="0.25719">
        <ele>95.494</ele>
        <time>2019-11-15T13:35:39.001Z</time>
      </trkpt>
      <trkpt lat="49.71837" lon="0.25923">
        <ele>96.282</ele>
        <time>2019-11-15T13:36:12.001Z</time>
      </trkpt>
      <trkpt lat="49.71836" lon="0.26156">
        <ele>96.816</ele>
        <time>2019-11-15T13:36:45.001Z</time>
      </trkpt>
      <trkpt lat="49.71854" lon="0.26347">
        <ele>97.895</ele>
        <time>2019-11-15T13:37:15.001Z</time>
      </trkpt>
      <trkpt lat="49.71861" lon="0.2662">
        <ele>92.386</ele>
        <time>2019-11-15T13:37:48.001Z</time>
      </trkpt>
      <trkpt lat="49.71864" lon="0.26844">
        <ele>89.986</ele>
        <time>2019-11-15T13:38:21.001Z</time>
      </trkpt>
      <trkpt lat="49.71853" lon="0.26998">
        <ele>91.864</ele>
        <time>2019-11-15T13:38:51.001Z</time>
      </trkpt>
      <trkpt lat="49.71836" lon="0.27283">
        <ele>96.811</ele>
        <time>2019-11-15T13:39:24.001Z</time>
      </trkpt>
      <trkpt lat="49.71886" lon="0.276">
        <ele>87.773</ele>
        <time>2019-11-15T13:39:57.001Z</time>
      </trkpt>
      <trkpt lat="49.71885" lon="0.27734">
        <ele>86.247</ele>
        <time>2019-11-15T13:40:27.001Z</time>
      </trkpt>
      <trkpt lat="49.71943" lon="0.27818">
        <ele>89.404</ele>
        <time>2019-11-15T13:41:00Z</time>
      </trkpt>
      <trkpt lat="49.7202" lon="0.2788">
        <ele>92.212</ele>
        <time>2019-11-15T13:41:33.001Z</time>
      </trkpt>
      <trkpt lat="49.72095" lon="0.27945">
        <ele>93.13</ele>
        <time>2019-11-15T13:42:03.001Z</time>
      </trkpt>
      <trkpt lat="49.72164" lon="0.28049">
        <ele>92</ele>
        <time>2019-11-15T13:42:36.001Z</time>
      </trkpt>
      <trkpt lat="49.72116" lon="0.28139">
        <ele>97.627</ele>
        <time>2019-11-15T13:43:09.001Z</time>
      </trkpt>
      <trkpt lat="49.72063" lon="0.28194">
        <ele>94.437</ele>
        <time>2019-11-15T13:44:24.001Z</time>
      </trkpt>
      <trkpt lat="49.7198" lon="0.28267">
        <ele>97.543</ele>
        <time>2019-11-15T13:44:54.001Z</time>
      </trkpt>
      <trkpt lat="49.71892" lon="0.2834">
        <ele>101.464</ele>
        <time>2019-11-15T13:45:27.001Z</time>
      </trkpt>
      <trkpt lat="49.71784" lon="0.28478">
        <ele>98.043</ele>
        <time>2019-11-15T13:46:00Z</time>
      </trkpt>
      <trkpt lat="49.71689" lon="0.28707">
        <ele>98.679</ele>
        <time>2019-11-15T13:46:30.001Z</time>
      </trkpt>
      <trkpt lat="49.71595" lon="0.28983">
        <ele>85.504</ele>
        <time>2019-11-15T13:47:03.001Z</time>
      </trkpt>
      <trkpt lat="49.71539" lon="0.29116">
        <ele>86.114</ele>
        <time>2019-11-15T13:47:36.001Z</time>
      </trkpt>
      <trkpt lat="49.71493" lon="0.29298">
        <ele>80.854</ele>
        <time>2019-11-15T13:48:06.001Z</time>
      </trkpt>
      <trkpt lat="49.71448" lon="0.29418">
        <ele>86.901</ele>
        <time>2019-11-15T13:48:39.001Z</time>
      </trkpt>
      <trkpt lat="49.71419" lon="0.2952">
        <ele>93.159</ele>
        <time>2019-11-15T13:49:12.001Z</time>
      </trkpt>
      <trkpt lat="49.71391" lon="0.29619">
        <ele>95.458</ele>
        <time>2019-11-15T13:49:42.001Z</time>
      </trkpt>
      <trkpt lat="49.71353" lon="0.29726">
        <ele>96.349</ele>
        <time>2019-11-15T13:50:15.001Z</time>
      </trkpt>
      <trkpt lat="49.71275" lon="0.29877">
        <ele>96.128</ele>
        <time>2019-11-15T13:50:48.001Z</time>
      </trkpt>
      <trkpt lat="49.71198" lon="0.30013">
        <ele>95.818</ele>
        <time>2019-11-15T13:51:18.001Z</time>
      </trkpt>
      <trkpt lat="49.71151" lon="0.30155">
        <ele>95.758</ele>
        <time>2019-11-15T13:51:51.001Z</time>
      </trkpt>
      <trkpt lat="49.71129" lon="0.30294">
        <ele>96.154</ele>
        <time>2019-11-15T13:52:24.001Z</time>
      </trkpt>
      <trkpt lat="49.71068" lon="0.30425">
        <ele>98.92</ele>
        <time>2019-11-15T13:52:54.001Z</time>
      </trkpt>
      <trkpt lat="49.70933" lon="0.30655">
        <ele>94.121</ele>
        <time>2019-11-15T13:53:27.001Z</time>
      </trkpt>
      <trkpt lat="49.70927" lon="0.30796">
        <ele>89.694</ele>
        <time>2019-11-15T13:54:03.001Z</time>
      </trkpt>
      <trkpt lat="49.70937" lon="0.30896">
        <ele>94.433</ele>
        <time>2019-11-15T13:54:33.001Z</time>
      </trkpt>
      <trkpt lat="49.7095" lon="0.31001">
        <ele>102.608</ele>
        <time>2019-11-15T13:55:06.001Z</time>
      </trkpt>
      <trkpt lat="49.70965" lon="0.31127">
        <ele>109.709</ele>
        <time>2019-11-15T13:55:39.001Z</time>
      </trkpt>
      <trkpt lat="49.70975" lon="0.3123">
        <ele>106.542</ele>
        <time>2019-11-15T13:56:09.001Z</time>
      </trkpt>
      <trkpt lat="49.70913" lon="0.3133">
        <ele>105.605</ele>
        <time>2019-11-15T13:56:42.001Z</time>
      </trkpt>
      <trkpt lat="49.70997" lon="0.31477">
        <ele>102.065</ele>
        <time>2019-11-15T13:57:15.001Z</time>
      </trkpt>
      <trkpt lat="49.71071" lon="0.3161">
        <ele>101.782</ele>
        <time>2019-11-15T13:57:45.001Z</time>
      </trkpt>
      <trkpt lat="49.71149" lon="0.31798">
        <ele>99.13</ele>
        <time>2019-11-15T13:58:18.001Z</time>
      </trkpt>
      <trkpt lat="49.7124" lon="0.32035">
        <ele>97.712</ele>
        <time>2019-11-15T13:58:51.001Z</time>
      </trkpt>
      <trkpt lat="49.71384" lon="0.32307">
        <ele>94.303</ele>
        <time>2019-11-15T13:59:21.001Z</time>
      </trkpt>
      <trkpt lat="49.71472" lon="0.32463">
        <ele>94.973</ele>
        <time>2019-11-15T13:59:54.001Z</time>
      </trkpt>
      <trkpt lat="49.71526" lon="0.32547">
        <ele>90.736</ele>
        <time>2019-11-15T14:00:27.001Z</time>
      </trkpt>
      <trkpt lat="49.71584" lon="0.3261">
        <ele>91.977</ele>
        <time>2019-11-15T14:00:57.001Z</time>
      </trkpt>
      <trkpt lat="49.71659" lon="0.3268">
        <ele>95.586</ele>
        <time>2019-11-15T14:01:30.001Z</time>
      </trkpt>
      <trkpt lat="49.71661" lon="0.32846">
        <ele>95.656</ele>
        <time>2019-11-15T14:02:03.001Z</time>
      </trkpt>
      <trkpt lat="49.71696" lon="0.33012">
        <ele>98.046</ele>
        <time>2019-11-15T14:02:33.001Z</time>
      </trkpt>
      <trkpt lat="49.71723" lon="0.3315">
        <ele>102.796</ele>
        <time>2019-11-15T14:03:06.001Z</time>
      </trkpt>
      <trkpt lat="49.71727" lon="0.33306">
        <ele>102.214</ele>
        <time>2019-11-15T14:03:39.001Z</time>
      </trkpt>
      <trkpt lat="49.71715" lon="0.33427">
        <ele>99.912</ele>
        <time>2019-11-15T14:04:09.001Z</time>
      </trkpt>
      <trkpt lat="49.7175" lon="0.33581">
        <ele>99.898</ele>
        <time>2019-11-15T14:04:42.001Z</time>
      </trkpt>
      <trkpt lat="49.71816" lon="0.33802">
        <ele>99.625</ele>
        <time>2019-11-15T14:05:15.001Z</time>
      </trkpt>
      <trkpt lat="49.71806" lon="0.34019">
        <ele>97.031</ele>
        <time>2019-11-15T14:05:45.001Z</time>
      </trkpt>
      <trkpt lat="49.71801" lon="0.34376">
        <ele>84.318</ele>
        <time>2019-11-15T14:06:18.001Z</time>
      </trkpt>
      <trkpt lat="49.71889" lon="0.34385">
        <ele>78.265</ele>
        <time>2019-11-15T14:06:51.001Z</time>
      </trkpt>
      <trkpt lat="49.71954" lon="0.34423">
        <ele>81.793</ele>
        <time>2019-11-15T14:07:21.001Z</time>
      </trkpt>
      <trkpt lat="49.72014" lon="0.34477">
        <ele>83.769</ele>
        <time>2019-11-15T14:07:54.001Z</time>
      </trkpt>
      <trkpt lat="49.72077" lon="0.3452">
        <ele>83.216</ele>
        <time>2019-11-15T14:08:27.001Z</time>
      </trkpt>
      <trkpt lat="49.72127" lon="0.3457">
        <ele>90.188</ele>
        <time>2019-11-15T14:08:57.001Z</time>
      </trkpt>
      <trkpt lat="49.72176" lon="0.34632">
        <ele>92.577</ele>
        <time>2019-11-15T14:09:30.001Z</time>
      </trkpt>
      <trkpt lat="49.72214" lon="0.34722">
        <ele>95.525</ele>
        <time>2019-11-15T14:10:03.001Z</time>
      </trkpt>
      <trkpt lat="49.72268" lon="0.34811">
        <ele>98.649</ele>
        <time>2019-11-15T14:10:33.001Z</time>
      </trkpt>
      <trkpt lat="49.72334" lon="0.34881">
        <ele>98.108</ele>
        <time>2019-11-15T14:11:09.001Z</time>
      </trkpt>
      <trkpt lat="49.72417" lon="0.34968">
        <ele>98.636</ele>
        <time>2019-11-15T14:11:42.001Z</time>
      </trkpt>
      <trkpt lat="49.72471" lon="0.3505">
        <ele>98.494</ele>
        <time>2019-11-15T14:12:12.001Z</time>
      </trkpt>
      <trkpt lat="49.72518" lon="0.35146">
        <ele>101.135</ele>
        <time>2019-11-15T14:12:45.001Z</time>
      </trkpt>
      <trkpt lat="49.72615" lon="0.35213">
        <ele>108.719</ele>
        <time>2019-11-15T14:13:18.001Z</time>
      </trkpt>
      <trkpt lat="49.72681" lon="0.35246">
        <ele>109.047</ele>
        <time>2019-11-15T14:13:48.001Z</time>
      </trkpt>
      <trkpt lat="49.72655" lon="0.35308">
        <ele>104.463</ele>
        <time>2019-11-15T14:14:21.001Z</time>
      </trkpt>
      <trkpt lat="49.72589" lon="0.35322">
        <ele>98.411</ele>
        <time>2019-11-15T14:14:54.001Z</time>
      </trkpt>
      <trkpt lat="49.72572" lon="0.35439">
        <ele>103.457</ele>
        <time>2019-11-15T14:15:27.001Z</time>
      </trkpt>
      <trkpt lat="49.72577" lon="0.35561">
        <ele>102.513</ele>
        <time>2019-11-15T14:16:00Z</time>
      </trkpt>
      <trkpt lat="49.72606" lon="0.35678">
        <ele>106.948</ele>
        <time>2019-11-15T14:16:33.001Z</time>
      </trkpt>
      <trkpt lat="49.72603" lon="0.35787">
        <ele>104.927</ele>
        <time>2019-11-15T14:17:03.001Z</time>
      </trkpt>
      <trkpt lat="49.72638" lon="0.35864">
        <ele>104.122</ele>
        <time>2019-11-15T14:17:39.001Z</time>
      </trkpt>
      <trkpt lat="49.72708" lon="0.3589">
        <ele>107.313</ele>
        <time>2019-11-15T14:18:15.001Z</time>
      </trkpt>
      <trkpt lat="49.72765" lon="0.35906">
        <ele>113.711</ele>
        <time>2019-11-15T14:18:51.001Z</time>
      </trkpt>
      <trkpt lat="49.72769" lon="0.35983">
        <ele>117.445</ele>
        <time>2019-11-15T14:19:30.001Z</time>
      </trkpt>
      <trkpt lat="49.72806" lon="0.36067">
        <ele>114.327</ele>
        <time>2019-11-15T14:20:09.001Z</time>
      </trkpt>
      <trkpt lat="49.7288" lon="0.36138">
        <ele>111.814</ele>
        <time>2019-11-15T14:20:39.001Z</time>
      </trkpt>
      <trkpt lat="49.7296" lon="0.36244">
        <ele>111.735</ele>
        <time>2019-11-15T14:21:12.001Z</time>
      </trkpt>
      <trkpt lat="49.73074" lon="0.36307">
        <ele>111.661</ele>
        <time>2019-11-15T14:21:45.001Z</time>
      </trkpt>
      <trkpt lat="49.73191" lon="0.36383">
        <ele>110.771</ele>
        <time>2019-11-15T14:22:15.001Z</time>
      </trkpt>
      <trkpt lat="49.7328" lon="0.36505">
        <ele>111.447</ele>
        <time>2019-11-15T14:22:48.001Z</time>
      </trkpt>
      <trkpt lat="49.73382" lon="0.36642">
        <ele>108.215</ele>
        <time>2019-11-15T14:23:21.001Z</time>
      </trkpt>
      <trkpt lat="49.73486" lon="0.3678">
        <ele>101.524</ele>
        <time>2019-11-15T14:23:51.001Z</time>
      </trkpt>
      <trkpt lat="49.73557" lon="0.36929">
        <ele>98.151</ele>
        <time>2019-11-15T14:24:24.001Z</time>
      </trkpt>
      <trkpt lat="49.73652" lon="0.36962">
        <ele>99.137</ele>
        <time>2019-11-15T14:25:00Z</time>
      </trkpt>
      <trkpt lat="49.73857" lon="0.36966">
        <ele>91.578</ele>
        <time>2019-11-15T14:25:30.001Z</time>
      </trkpt>
      <trkpt lat="49.74054" lon="0.36975">
        <ele>90.858</ele>
        <time>2019-11-15T14:26:03.001Z</time>
      </trkpt>
      <trkpt lat="49.74158" lon="0.36984">
        <ele>88.241</ele>
        <time>2019-11-15T14:26:36.001Z</time>
      </trkpt>
      <trkpt lat="49.74252" lon="0.36997">
        <ele>93.665</ele>
        <time>2019-11-15T14:27:06.001Z</time>
      </trkpt>
      <trkpt lat="49.74355" lon="0.37019">
        <ele>92.61</ele>
        <time>2019-11-15T14:27:39.001Z</time>
      </trkpt>
      <trkpt lat="49.74518" lon="0.37144">
        <ele>91.618</ele>
        <time>2019-11-15T14:28:12.001Z</time>
      </trkpt>
      <trkpt lat="49.74739" lon="0.37233">
        <ele>79.008</ele>
        <time>2019-11-15T14:28:42.001Z</time>
      </trkpt>
      <trkpt lat="49.75039" lon="0.3708">
        <ele>64.813</ele>
        <time>2019-11-15T14:29:15.001Z</time>
      </trkpt>
      <trkpt lat="49.75303" lon="0.37175">
        <ele>38.945</ele>
        <time>2019-11-15T14:29:48.001Z</time>
      </trkpt>
      <trkpt lat="49.75428" lon="0.37318">
        <ele>31.811</ele>
        <time>2019-11-15T14:30:18.001Z</time>
      </trkpt>
      <trkpt lat="49.7557" lon="0.37473">
        <ele>31.194</ele>
        <time>2019-11-15T14:30:51.001Z</time>
      </trkpt>
      <trkpt lat="49.75706" lon="0.37633">
        <ele>32.087</ele>
        <time>2019-11-15T14:31:24.001Z</time>
      </trkpt>
      <trkpt lat="49.7583" lon="0.37683">
        <ele>30.588</ele>
        <time>2019-11-15T14:31:54.001Z</time>
      </trkpt>
      <trkpt lat="49.75839" lon="0.37653">
        <ele>23.246</ele>
        <time>2019-11-15T14:32:42.001Z</time>
      </trkpt>
      <trkpt lat="49.75858" lon="0.37663">
        <ele>25.986</ele>
        <time>2019-11-15T14:39:06.001Z</time>
      </trkpt>
      <trkpt lat="49.7585" lon="0.3768">
        <ele>27.237</ele>
        <time>2019-11-15T14:40:33.001Z</time>
      </trkpt>
      <trkpt lat="49.75858" lon="0.3768">
        <ele>25.639</ele>
        <time>2019-11-15T14:41:39.001Z</time>
      </trkpt>
      <trkpt lat="49.75856" lon="0.37674">
        <ele>26.489</ele>
        <time>2019-11-15T14:42:27.001Z</time>
      </trkpt>
      <trkpt lat="49.75846" lon="0.37674">
        <ele>24.494</ele>
        <time>2019-11-15T14:43:12.001Z</time>
      </trkpt>
      <trkpt lat="49.75818" lon="0.37676">
        <ele>29.883</ele>
        <time>2019-11-15T14:53:35Z</time>
      </trkpt>
      <trkpt lat="49.7582" lon="0.37706">
        <ele>30.312</ele>
        <time>2019-11-15T14:54:44Z</time>
      </trkpt>
      <trkpt lat="49.75831" lon="0.37645">
        <ele>20.971</ele>
        <time>2019-11-15T14:56:23Z</time>
      </trkpt>
      <trkpt lat="49.75788" lon="0.3767">
        <ele>2.167</ele>
        <time>2019-11-15T15:02:33Z</time>
      </trkpt>
      <trkpt lat="49.7584" lon="0.37619">
        <ele>36.7</ele>
        <time>2019-11-15T15:03:21Z</time>
      </trkpt>
    </trkseg>
  </trk>
  <trk>
    <name><![CDATA[Tracé 20191116-084016]]></name>
    <trkseg>
      <trkpt lat="49.75819" lon="0.37691">
        <ele>19.058</ele>
        <time>2019-11-16T07:43:43Z</time>
      </trkpt>
      <trkpt lat="49.75762" lon="0.3775">
        <ele>25.722</ele>
        <time>2019-11-16T07:44:19Z</time>
      </trkpt>
      <trkpt lat="49.7572" lon="0.37811">
        <ele>28.236</ele>
        <time>2019-11-16T07:44:49Z</time>
      </trkpt>
      <trkpt lat="49.75686" lon="0.37863">
        <ele>28.778</ele>
        <time>2019-11-16T07:45:22Z</time>
      </trkpt>
      <trkpt lat="49.75607" lon="0.37953">
        <ele>25.577</ele>
        <time>2019-11-16T07:46:25Z</time>
      </trkpt>
      <trkpt lat="49.75531" lon="0.37989">
        <ele>20.871</ele>
        <time>2019-11-16T07:46:55Z</time>
      </trkpt>
      <trkpt lat="49.75519" lon="0.38149">
        <ele>25.211</ele>
        <time>2019-11-16T07:47:28Z</time>
      </trkpt>
      <trkpt lat="49.75432" lon="0.38399">
        <ele>27.141</ele>
        <time>2019-11-16T07:47:58Z</time>
      </trkpt>
      <trkpt lat="49.75377" lon="0.38575">
        <ele>27.379</ele>
        <time>2019-11-16T07:48:31Z</time>
      </trkpt>
      <trkpt lat="49.75341" lon="0.38727">
        <ele>16.892</ele>
        <time>2019-11-16T07:49:01Z</time>
      </trkpt>
      <trkpt lat="49.75317" lon="0.3889">
        <ele>18.054</ele>
        <time>2019-11-16T07:49:31Z</time>
      </trkpt>
      <trkpt lat="49.75285" lon="0.39087">
        <ele>16.583</ele>
        <time>2019-11-16T07:50:04Z</time>
      </trkpt>
      <trkpt lat="49.75255" lon="0.39289">
        <ele>18.881</ele>
        <time>2019-11-16T07:50:34Z</time>
      </trkpt>
      <trkpt lat="49.75222" lon="0.39511">
        <ele>19.112</ele>
        <time>2019-11-16T07:51:07Z</time>
      </trkpt>
      <trkpt lat="49.75194" lon="0.39717">
        <ele>25.124</ele>
        <time>2019-11-16T07:51:37Z</time>
      </trkpt>
      <trkpt lat="49.75162" lon="0.39925">
        <ele>31.058</ele>
        <time>2019-11-16T07:52:07Z</time>
      </trkpt>
      <trkpt lat="49.75123" lon="0.40168">
        <ele>24.783</ele>
        <time>2019-11-16T07:52:40Z</time>
      </trkpt>
      <trkpt lat="49.75077" lon="0.40363">
        <ele>17.412</ele>
        <time>2019-11-16T07:53:10Z</time>
      </trkpt>
      <trkpt lat="49.75" lon="0.40546">
        <ele>13.146</ele>
        <time>2019-11-16T07:53:43Z</time>
      </trkpt>
      <trkpt lat="49.74919" lon="0.40721">
        <ele>15.668</ele>
        <time>2019-11-16T07:54:13Z</time>
      </trkpt>
      <trkpt lat="49.74835" lon="0.40892">
        <ele>19.603</ele>
        <time>2019-11-16T07:54:43Z</time>
      </trkpt>
      <trkpt lat="49.74799" lon="0.40971">
        <ele>23.783</ele>
        <time>2019-11-16T07:55:58Z</time>
      </trkpt>
      <trkpt lat="49.74916" lon="0.41131">
        <ele>22.328</ele>
        <time>2019-11-16T07:56:28Z</time>
      </trkpt>
      <trkpt lat="49.74968" lon="0.41323">
        <ele>21.397</ele>
        <time>2019-11-16T07:57:01Z</time>
      </trkpt>
      <trkpt lat="49.74939" lon="0.41524">
        <ele>19.892</ele>
        <time>2019-11-16T07:57:31Z</time>
      </trkpt>
      <trkpt lat="49.75034" lon="0.41648">
        <ele>16.08</ele>
        <time>2019-11-16T07:58:04Z</time>
      </trkpt>
      <trkpt lat="49.75057" lon="0.41869">
        <ele>18.352</ele>
        <time>2019-11-16T07:58:34Z</time>
      </trkpt>
      <trkpt lat="49.75039" lon="0.42077">
        <ele>17.846</ele>
        <time>2019-11-16T07:59:04Z</time>
      </trkpt>
      <trkpt lat="49.75012" lon="0.4227">
        <ele>20.842</ele>
        <time>2019-11-16T07:59:37Z</time>
      </trkpt>
      <trkpt lat="49.75013" lon="0.42454">
        <ele>16.41</ele>
        <time>2019-11-16T08:00:07Z</time>
      </trkpt>
      <trkpt lat="49.74997" lon="0.42625">
        <ele>21.935</ele>
        <time>2019-11-16T08:00:40Z</time>
      </trkpt>
      <trkpt lat="49.74975" lon="0.42759">
        <ele>28.023</ele>
        <time>2019-11-16T08:01:10Z</time>
      </trkpt>
      <trkpt lat="49.74948" lon="0.42971">
        <ele>22.486</ele>
        <time>2019-11-16T08:01:40Z</time>
      </trkpt>
      <trkpt lat="49.74925" lon="0.4323">
        <ele>21.12</ele>
        <time>2019-11-16T08:02:13Z</time>
      </trkpt>
      <trkpt lat="49.74927" lon="0.43437">
        <ele>20.549</ele>
        <time>2019-11-16T08:02:43Z</time>
      </trkpt>
      <trkpt lat="49.7498" lon="0.43658">
        <ele>22.609</ele>
        <time>2019-11-16T08:03:16Z</time>
      </trkpt>
      <trkpt lat="49.74981" lon="0.43836">
        <ele>21.579</ele>
        <time>2019-11-16T08:03:46Z</time>
      </trkpt>
      <trkpt lat="49.74969" lon="0.44038">
        <ele>19.79</ele>
        <time>2019-11-16T08:04:16Z</time>
      </trkpt>
      <trkpt lat="49.74958" lon="0.44198">
        <ele>28.85</ele>
        <time>2019-11-16T08:04:49Z</time>
      </trkpt>
      <trkpt lat="49.74977" lon="0.44322">
        <ele>32.424</ele>
        <time>2019-11-16T08:05:19Z</time>
      </trkpt>
      <trkpt lat="49.7499" lon="0.44451">
        <ele>37.35</ele>
        <time>2019-11-16T08:05:52Z</time>
      </trkpt>
      <trkpt lat="49.74981" lon="0.44571">
        <ele>37.368</ele>
        <time>2019-11-16T08:06:22Z</time>
      </trkpt>
      <trkpt lat="49.74955" lon="0.44688">
        <ele>41.856</ele>
        <time>2019-11-16T08:06:55Z</time>
      </trkpt>
      <trkpt lat="49.7487" lon="0.44879">
        <ele>34.735</ele>
        <time>2019-11-16T08:07:25Z</time>
      </trkpt>
      <trkpt lat="49.74805" lon="0.45097">
        <ele>31.58</ele>
        <time>2019-11-16T08:07:55Z</time>
      </trkpt>
      <trkpt lat="49.74811" lon="0.45391">
        <ele>28.369</ele>
        <time>2019-11-16T08:08:28Z</time>
      </trkpt>
      <trkpt lat="49.74883" lon="0.45576">
        <ele>35.512</ele>
        <time>2019-11-16T08:08:58Z</time>
      </trkpt>
      <trkpt lat="49.74928" lon="0.45732">
        <ele>36.907</ele>
        <time>2019-11-16T08:09:31Z</time>
      </trkpt>
      <trkpt lat="49.7497" lon="0.459">
        <ele>41.446</ele>
        <time>2019-11-16T08:10:01Z</time>
      </trkpt>
      <trkpt lat="49.74963" lon="0.46088">
        <ele>40.263</ele>
        <time>2019-11-16T08:10:31Z</time>
      </trkpt>
      <trkpt lat="49.74879" lon="0.46299">
        <ele>33.296</ele>
        <time>2019-11-16T08:11:04Z</time>
      </trkpt>
      <trkpt lat="49.7478" lon="0.46464">
        <ele>43.011</ele>
        <time>2019-11-16T08:11:34Z</time>
      </trkpt>
      <trkpt lat="49.74676" lon="0.46653">
        <ele>32.745</ele>
        <time>2019-11-16T08:12:07Z</time>
      </trkpt>
      <trkpt lat="49.74629" lon="0.46798">
        <ele>37.778</ele>
        <time>2019-11-16T08:12:37Z</time>
      </trkpt>
      <trkpt lat="49.74599" lon="0.46929">
        <ele>44.796</ele>
        <time>2019-11-16T08:13:07Z</time>
      </trkpt>
      <trkpt lat="49.74558" lon="0.4708">
        <ele>50.049</ele>
        <time>2019-11-16T08:13:40Z</time>
      </trkpt>
      <trkpt lat="49.74465" lon="0.47273">
        <ele>37.337</ele>
        <time>2019-11-16T08:14:10Z</time>
      </trkpt>
      <trkpt lat="49.74484" lon="0.47524">
        <ele>36.498</ele>
        <time>2019-11-16T08:14:43Z</time>
      </trkpt>
      <trkpt lat="49.74479" lon="0.47722">
        <ele>35.895</ele>
        <time>2019-11-16T08:15:13Z</time>
      </trkpt>
      <trkpt lat="49.74488" lon="0.47915">
        <ele>41.457</ele>
        <time>2019-11-16T08:15:46Z</time>
      </trkpt>
      <trkpt lat="49.74488" lon="0.47949">
        <ele>42.845</ele>
        <time>2019-11-16T08:23:55Z</time>
      </trkpt>
      <trkpt lat="49.74539" lon="0.47992">
        <ele>39.919</ele>
        <time>2019-11-16T08:24:25Z</time>
      </trkpt>
      <trkpt lat="49.74627" lon="0.48141">
        <ele>37.873</ele>
        <time>2019-11-16T08:24:58Z</time>
      </trkpt>
      <trkpt lat="49.74699" lon="0.48282">
        <ele>39.659</ele>
        <time>2019-11-16T08:25:28Z</time>
      </trkpt>
      <trkpt lat="49.74756" lon="0.48448">
        <ele>48.385</ele>
        <time>2019-11-16T08:26:01Z</time>
      </trkpt>
      <trkpt lat="49.74783" lon="0.48638">
        <ele>54.446</ele>
        <time>2019-11-16T08:26:31Z</time>
      </trkpt>
      <trkpt lat="49.7479" lon="0.48829">
        <ele>55.321</ele>
        <time>2019-11-16T08:27:01Z</time>
      </trkpt>
      <trkpt lat="49.74768" lon="0.49055">
        <ele>48.555</ele>
        <time>2019-11-16T08:27:34Z</time>
      </trkpt>
      <trkpt lat="49.7473" lon="0.49247">
        <ele>43.357</ele>
        <time>2019-11-16T08:28:04Z</time>
      </trkpt>
      <trkpt lat="49.74694" lon="0.49449">
        <ele>44.439</ele>
        <time>2019-11-16T08:28:37Z</time>
      </trkpt>
      <trkpt lat="49.7469" lon="0.49633">
        <ele>49.864</ele>
        <time>2019-11-16T08:29:07Z</time>
      </trkpt>
      <trkpt lat="49.74714" lon="0.49837">
        <ele>51.635</ele>
        <time>2019-11-16T08:29:37Z</time>
      </trkpt>
      <trkpt lat="49.74772" lon="0.50028">
        <ele>52.112</ele>
        <time>2019-11-16T08:30:10Z</time>
      </trkpt>
      <trkpt lat="49.74832" lon="0.50197">
        <ele>53.372</ele>
        <time>2019-11-16T08:30:40Z</time>
      </trkpt>
      <trkpt lat="49.74862" lon="0.50408">
        <ele>49.961</ele>
        <time>2019-11-16T08:31:13Z</time>
      </trkpt>
      <trkpt lat="49.74846" lon="0.50591">
        <ele>51.657</ele>
        <time>2019-11-16T08:31:43Z</time>
      </trkpt>
      <trkpt lat="49.7479" lon="0.50763">
        <ele>52.939</ele>
        <time>2019-11-16T08:32:16Z</time>
      </trkpt>
      <trkpt lat="49.74713" lon="0.50895">
        <ele>49.142</ele>
        <time>2019-11-16T08:32:46Z</time>
      </trkpt>
      <trkpt lat="49.74623" lon="0.51008">
        <ele>52.703</ele>
        <time>2019-11-16T08:33:16Z</time>
      </trkpt>
      <trkpt lat="49.74511" lon="0.51154">
        <ele>52.189</ele>
        <time>2019-11-16T08:33:49Z</time>
      </trkpt>
      <trkpt lat="49.74457" lon="0.51227">
        <ele>51.124</ele>
        <time>2019-11-16T08:43:01Z</time>
      </trkpt>
      <trkpt lat="49.74398" lon="0.51313">
        <ele>56.145</ele>
        <time>2019-11-16T08:43:34Z</time>
      </trkpt>
      <trkpt lat="49.74328" lon="0.51445">
        <ele>55.089</ele>
        <time>2019-11-16T08:44:04Z</time>
      </trkpt>
      <trkpt lat="49.74277" lon="0.5158">
        <ele>61.157</ele>
        <time>2019-11-16T08:44:34Z</time>
      </trkpt>
      <trkpt lat="49.74209" lon="0.51773">
        <ele>65.786</ele>
        <time>2019-11-16T08:45:07Z</time>
      </trkpt>
      <trkpt lat="49.74136" lon="0.51976">
        <ele>70.898</ele>
        <time>2019-11-16T08:45:37Z</time>
      </trkpt>
      <trkpt lat="49.74065" lon="0.52182">
        <ele>73.55</ele>
        <time>2019-11-16T08:46:10Z</time>
      </trkpt>
      <trkpt lat="49.73993" lon="0.52372">
        <ele>65.751</ele>
        <time>2019-11-16T08:46:40Z</time>
      </trkpt>
      <trkpt lat="49.73962" lon="0.52598">
        <ele>61.608</ele>
        <time>2019-11-16T08:47:13Z</time>
      </trkpt>
      <trkpt lat="49.73984" lon="0.52776">
        <ele>65.009</ele>
        <time>2019-11-16T08:47:43Z</time>
      </trkpt>
      <trkpt lat="49.74019" lon="0.52947">
        <ele>73.172</ele>
        <time>2019-11-16T08:48:13Z</time>
      </trkpt>
      <trkpt lat="49.74024" lon="0.53159">
        <ele>69.16</ele>
        <time>2019-11-16T08:48:46Z</time>
      </trkpt>
      <trkpt lat="49.74004" lon="0.53323">
        <ele>71.995</ele>
        <time>2019-11-16T08:49:16Z</time>
      </trkpt>
      <trkpt lat="49.73951" lon="0.53494">
        <ele>76.515</ele>
        <time>2019-11-16T08:49:49Z</time>
      </trkpt>
      <trkpt lat="49.73885" lon="0.53602">
        <ele>80.359</ele>
        <time>2019-11-16T08:50:19Z</time>
      </trkpt>
      <trkpt lat="49.738" lon="0.53676">
        <ele>81.065</ele>
        <time>2019-11-16T08:50:49Z</time>
      </trkpt>
      <trkpt lat="49.73693" lon="0.53718">
        <ele>84.405</ele>
        <time>2019-11-16T08:51:22Z</time>
      </trkpt>
      <trkpt lat="49.73587" lon="0.5375">
        <ele>76.84</ele>
        <time>2019-11-16T08:51:52Z</time>
      </trkpt>
      <trkpt lat="49.7349" lon="0.53799">
        <ele>77.289</ele>
        <time>2019-11-16T08:52:25Z</time>
      </trkpt>
      <trkpt lat="49.73406" lon="0.53871">
        <ele>86.055</ele>
        <time>2019-11-16T08:52:55Z</time>
      </trkpt>
      <trkpt lat="49.73332" lon="0.53975">
        <ele>91.544</ele>
        <time>2019-11-16T08:53:25Z</time>
      </trkpt>
      <trkpt lat="49.73264" lon="0.54083">
        <ele>93.306</ele>
        <time>2019-11-16T08:53:58Z</time>
      </trkpt>
      <trkpt lat="49.7321" lon="0.54191">
        <ele>99.979</ele>
        <time>2019-11-16T08:54:28Z</time>
      </trkpt>
      <trkpt lat="49.73172" lon="0.54324">
        <ele>107.297</ele>
        <time>2019-11-16T08:55:01Z</time>
      </trkpt>
      <trkpt lat="49.73148" lon="0.54461">
        <ele>112.842</ele>
        <time>2019-11-16T08:55:31Z</time>
      </trkpt>
      <trkpt lat="49.73138" lon="0.54625">
        <ele>116.758</ele>
        <time>2019-11-16T08:56:04Z</time>
      </trkpt>
      <trkpt lat="49.73131" lon="0.54761">
        <ele>117.317</ele>
        <time>2019-11-16T08:56:34Z</time>
      </trkpt>
      <trkpt lat="49.73124" lon="0.54891">
        <ele>119.891</ele>
        <time>2019-11-16T08:57:04Z</time>
      </trkpt>
      <trkpt lat="49.73115" lon="0.5504">
        <ele>121.401</ele>
        <time>2019-11-16T08:57:37Z</time>
      </trkpt>
      <trkpt lat="49.73099" lon="0.55192">
        <ele>111.283</ele>
        <time>2019-11-16T08:58:07Z</time>
      </trkpt>
      <trkpt lat="49.73058" lon="0.55324">
        <ele>114.731</ele>
        <time>2019-11-16T08:58:40Z</time>
      </trkpt>
      <trkpt lat="49.73014" lon="0.55447">
        <ele>119.141</ele>
        <time>2019-11-16T08:59:10Z</time>
      </trkpt>
      <trkpt lat="49.72974" lon="0.55579">
        <ele>116.685</ele>
        <time>2019-11-16T08:59:40Z</time>
      </trkpt>
      <trkpt lat="49.7295" lon="0.55724">
        <ele>113.545</ele>
        <time>2019-11-16T09:00:13Z</time>
      </trkpt>
      <trkpt lat="49.72946" lon="0.55862">
        <ele>118.915</ele>
        <time>2019-11-16T09:00:43Z</time>
      </trkpt>
      <trkpt lat="49.72947" lon="0.5602">
        <ele>126.506</ele>
        <time>2019-11-16T09:01:16Z</time>
      </trkpt>
      <trkpt lat="49.72948" lon="0.56153">
        <ele>121.252</ele>
        <time>2019-11-16T09:01:46Z</time>
      </trkpt>
      <trkpt lat="49.72947" lon="0.56288">
        <ele>122.006</ele>
        <time>2019-11-16T09:02:16Z</time>
      </trkpt>
      <trkpt lat="49.72949" lon="0.56429">
        <ele>125.917</ele>
        <time>2019-11-16T09:02:49Z</time>
      </trkpt>
      <trkpt lat="49.72949" lon="0.5657">
        <ele>128.538</ele>
        <time>2019-11-16T09:03:19Z</time>
      </trkpt>
      <trkpt lat="49.72951" lon="0.56727">
        <ele>130.157</ele>
        <time>2019-11-16T09:03:52Z</time>
      </trkpt>
      <trkpt lat="49.72961" lon="0.56866">
        <ele>125.375</ele>
        <time>2019-11-16T09:04:22Z</time>
      </trkpt>
      <trkpt lat="49.72986" lon="0.57017">
        <ele>128.362</ele>
        <time>2019-11-16T09:04:55Z</time>
      </trkpt>
      <trkpt lat="49.73036" lon="0.57158">
        <ele>140.691</ele>
        <time>2019-11-16T09:05:25Z</time>
      </trkpt>
      <trkpt lat="49.73085" lon="0.57258">
        <ele>148.459</ele>
        <time>2019-11-16T09:09:13Z</time>
      </trkpt>
      <trkpt lat="49.73212" lon="0.57458">
        <ele>144.243</ele>
        <time>2019-11-16T09:09:46Z</time>
      </trkpt>
      <trkpt lat="49.73397" lon="0.5762">
        <ele>132.415</ele>
        <time>2019-11-16T09:10:16Z</time>
      </trkpt>
      <trkpt lat="49.73569" lon="0.57747">
        <ele>120.828</ele>
        <time>2019-11-16T09:11:22Z</time>
      </trkpt>
      <trkpt lat="49.73605" lon="0.57772">
        <ele>118.379</ele>
        <time>2019-11-16T09:13:25Z</time>
      </trkpt>
      <trkpt lat="49.73682" lon="0.57835">
        <ele>127.578</ele>
        <time>2019-11-16T09:13:55Z</time>
      </trkpt>
      <trkpt lat="49.73794" lon="0.57922">
        <ele>126.456</ele>
        <time>2019-11-16T09:14:28Z</time>
      </trkpt>
      <trkpt lat="49.73921" lon="0.58016">
        <ele>124.169</ele>
        <time>2019-11-16T09:14:58Z</time>
      </trkpt>
      <trkpt lat="49.74074" lon="0.58162">
        <ele>117.321</ele>
        <time>2019-11-16T09:15:31Z</time>
      </trkpt>
      <trkpt lat="49.74239" lon="0.58326">
        <ele>116.418</ele>
        <time>2019-11-16T09:16:01Z</time>
      </trkpt>
      <trkpt lat="49.74414" lon="0.58497">
        <ele>111.353</ele>
        <time>2019-11-16T09:16:31Z</time>
      </trkpt>
      <trkpt lat="49.74595" lon="0.58689">
        <ele>108.772</ele>
        <time>2019-11-16T09:17:04Z</time>
      </trkpt>
      <trkpt lat="49.74766" lon="0.58879">
        <ele>109.166</ele>
        <time>2019-11-16T09:17:34Z</time>
      </trkpt>
      <trkpt lat="49.74962" lon="0.59103">
        <ele>113.276</ele>
        <time>2019-11-16T09:18:07Z</time>
      </trkpt>
      <trkpt lat="49.75078" lon="0.59338">
        <ele>113.58</ele>
        <time>2019-11-16T09:18:37Z</time>
      </trkpt>
      <trkpt lat="49.75153" lon="0.59692">
        <ele>92.63</ele>
        <time>2019-11-16T09:19:10Z</time>
      </trkpt>
      <trkpt lat="49.75234" lon="0.59975">
        <ele>84.035</ele>
        <time>2019-11-16T09:19:40Z</time>
      </trkpt>
      <trkpt lat="49.75403" lon="0.60196">
        <ele>76.194</ele>
        <time>2019-11-16T09:20:10Z</time>
      </trkpt>
      <trkpt lat="49.75553" lon="0.60481">
        <ele>75.671</ele>
        <time>2019-11-16T09:20:43Z</time>
      </trkpt>
      <trkpt lat="49.7562" lon="0.6081">
        <ele>74.723</ele>
        <time>2019-11-16T09:21:13Z</time>
      </trkpt>
      <trkpt lat="49.75719" lon="0.61137">
        <ele>67.239</ele>
        <time>2019-11-16T09:21:46Z</time>
      </trkpt>
      <trkpt lat="49.75807" lon="0.61437">
        <ele>66.402</ele>
        <time>2019-11-16T09:22:16Z</time>
      </trkpt>
      <trkpt lat="49.75879" lon="0.61648">
        <ele>51.498</ele>
        <time>2019-11-16T09:22:46Z</time>
      </trkpt>
      <trkpt lat="49.75934" lon="0.6176">
        <ele>52.14</ele>
        <time>2019-11-16T09:26:13Z</time>
      </trkpt>
      <trkpt lat="49.76082" lon="0.61947">
        <ele>44.13</ele>
        <time>2019-11-16T09:26:43Z</time>
      </trkpt>
      <trkpt lat="49.76245" lon="0.62062">
        <ele>39.75</ele>
        <time>2019-11-16T09:27:16Z</time>
      </trkpt>
      <trkpt lat="49.76374" lon="0.62147">
        <ele>40.611</ele>
        <time>2019-11-16T09:27:46Z</time>
      </trkpt>
      <trkpt lat="49.76503" lon="0.62229">
        <ele>49.884</ele>
        <time>2019-11-16T09:28:16Z</time>
      </trkpt>
      <trkpt lat="49.76636" lon="0.62348">
        <ele>68.663</ele>
        <time>2019-11-16T09:28:49Z</time>
      </trkpt>
      <trkpt lat="49.76747" lon="0.625">
        <ele>70.573</ele>
        <time>2019-11-16T09:29:19Z</time>
      </trkpt>
      <trkpt lat="49.76868" lon="0.62697">
        <ele>62.054</ele>
        <time>2019-11-16T09:29:52Z</time>
      </trkpt>
      <trkpt lat="49.76981" lon="0.62865">
        <ele>57.142</ele>
        <time>2019-11-16T09:30:22Z</time>
      </trkpt>
      <trkpt lat="49.7712" lon="0.6302">
        <ele>50.774</ele>
        <time>2019-11-16T09:30:55Z</time>
      </trkpt>
      <trkpt lat="49.77267" lon="0.63167">
        <ele>57.174</ele>
        <time>2019-11-16T09:31:25Z</time>
      </trkpt>
      <trkpt lat="49.77419" lon="0.63399">
        <ele>52.548</ele>
        <time>2019-11-16T09:31:55Z</time>
      </trkpt>
      <trkpt lat="49.77547" lon="0.63505">
        <ele>29.652</ele>
        <time>2019-11-16T09:32:31Z</time>
      </trkpt>
      <trkpt lat="49.77717" lon="0.63595">
        <ele>27.157</ele>
        <time>2019-11-16T09:33:01Z</time>
      </trkpt>
      <trkpt lat="49.779" lon="0.63693">
        <ele>32.33</ele>
        <time>2019-11-16T09:33:34Z</time>
      </trkpt>
      <trkpt lat="49.78073" lon="0.6374">
        <ele>26.132</ele>
        <time>2019-11-16T09:34:04Z</time>
      </trkpt>
      <trkpt lat="49.78235" lon="0.63691">
        <ele>23.532</ele>
        <time>2019-11-16T09:34:34Z</time>
      </trkpt>
      <trkpt lat="49.78386" lon="0.63652">
        <ele>25.726</ele>
        <time>2019-11-16T09:35:07Z</time>
      </trkpt>
      <trkpt lat="49.78512" lon="0.63696">
        <ele>36.518</ele>
        <time>2019-11-16T09:35:37Z</time>
      </trkpt>
      <trkpt lat="49.78616" lon="0.63829">
        <ele>36.194</ele>
        <time>2019-11-16T09:36:10Z</time>
      </trkpt>
      <trkpt lat="49.78663" lon="0.64008">
        <ele>33.899</ele>
        <time>2019-11-16T09:36:40Z</time>
      </trkpt>
      <trkpt lat="49.78678" lon="0.64135">
        <ele>36.797</ele>
        <time>2019-11-16T09:37:25Z</time>
      </trkpt>
      <trkpt lat="49.78688" lon="0.64276">
        <ele>34.96</ele>
        <time>2019-11-16T09:37:55Z</time>
      </trkpt>
      <trkpt lat="49.7866" lon="0.64481">
        <ele>28.237</ele>
        <time>2019-11-16T09:38:25Z</time>
      </trkpt>
      <trkpt lat="49.78573" lon="0.64633">
        <ele>37</ele>
        <time>2019-11-16T09:38:58Z</time>
      </trkpt>
      <trkpt lat="49.78485" lon="0.64705">
        <ele>39.38</ele>
        <time>2019-11-16T09:39:28Z</time>
      </trkpt>
      <trkpt lat="49.78405" lon="0.64773">
        <ele>36.987</ele>
        <time>2019-11-16T09:40:01Z</time>
      </trkpt>
      <trkpt lat="49.78301" lon="0.6488">
        <ele>44.088</ele>
        <time>2019-11-16T09:40:31Z</time>
      </trkpt>
      <trkpt lat="49.78237" lon="0.65025">
        <ele>50.796</ele>
        <time>2019-11-16T09:41:01Z</time>
      </trkpt>
      <trkpt lat="49.78186" lon="0.65159">
        <ele>48.116</ele>
        <time>2019-11-16T09:41:34Z</time>
      </trkpt>
      <trkpt lat="49.78137" lon="0.65234">
        <ele>57.45</ele>
        <time>2019-11-16T09:42:04Z</time>
      </trkpt>
      <trkpt lat="49.78082" lon="0.65329">
        <ele>61.149</ele>
        <time>2019-11-16T09:42:37Z</time>
      </trkpt>
      <trkpt lat="49.78026" lon="0.65414">
        <ele>63.869</ele>
        <time>2019-11-16T09:43:07Z</time>
      </trkpt>
      <trkpt lat="49.77936" lon="0.65539">
        <ele>55.15</ele>
        <time>2019-11-16T09:43:37Z</time>
      </trkpt>
      <trkpt lat="49.779" lon="0.65635">
        <ele>61.252</ele>
        <time>2019-11-16T09:44:10Z</time>
      </trkpt>
      <trkpt lat="49.7789" lon="0.65736">
        <ele>74.063</ele>
        <time>2019-11-16T09:44:40Z</time>
      </trkpt>
      <trkpt lat="49.77849" lon="0.65838">
        <ele>76.399</ele>
        <time>2019-11-16T09:45:13Z</time>
      </trkpt>
      <trkpt lat="49.778" lon="0.65897">
        <ele>82.833</ele>
        <time>2019-11-16T09:45:43Z</time>
      </trkpt>
      <trkpt lat="49.77747" lon="0.65971">
        <ele>79.762</ele>
        <time>2019-11-16T09:46:16Z</time>
      </trkpt>
      <trkpt lat="49.77726" lon="0.6606">
        <ele>77.251</ele>
        <time>2019-11-16T09:46:46Z</time>
      </trkpt>
      <trkpt lat="49.77683" lon="0.66146">
        <ele>78.528</ele>
        <time>2019-11-16T09:47:16Z</time>
      </trkpt>
      <trkpt lat="49.77629" lon="0.66195">
        <ele>85.692</ele>
        <time>2019-11-16T09:47:49Z</time>
      </trkpt>
      <trkpt lat="49.77596" lon="0.66264">
        <ele>82.187</ele>
        <time>2019-11-16T09:48:19Z</time>
      </trkpt>
      <trkpt lat="49.77576" lon="0.66352">
        <ele>83.523</ele>
        <time>2019-11-16T09:48:52Z</time>
      </trkpt>
      <trkpt lat="49.77546" lon="0.66427">
        <ele>84.279</ele>
        <time>2019-11-16T09:49:22Z</time>
      </trkpt>
      <trkpt lat="49.77541" lon="0.66514">
        <ele>88.021</ele>
        <time>2019-11-16T09:49:52Z</time>
      </trkpt>
      <trkpt lat="49.77525" lon="0.66603">
        <ele>89.82</ele>
        <time>2019-11-16T09:50:25Z</time>
      </trkpt>
      <trkpt lat="49.77534" lon="0.66689">
        <ele>92.813</ele>
        <time>2019-11-16T09:50:55Z</time>
      </trkpt>
      <trkpt lat="49.77545" lon="0.66779">
        <ele>98.135</ele>
        <time>2019-11-16T09:51:28Z</time>
      </trkpt>
      <trkpt lat="49.77507" lon="0.66855">
        <ele>99.333</ele>
        <time>2019-11-16T09:51:58Z</time>
      </trkpt>
      <trkpt lat="49.77461" lon="0.66896">
        <ele>105.615</ele>
        <time>2019-11-16T09:52:28Z</time>
      </trkpt>
      <trkpt lat="49.77428" lon="0.66969">
        <ele>105.018</ele>
        <time>2019-11-16T09:53:01Z</time>
      </trkpt>
      <trkpt lat="49.77426" lon="0.67095">
        <ele>102.533</ele>
        <time>2019-11-16T09:53:31Z</time>
      </trkpt>
      <trkpt lat="49.774" lon="0.67218">
        <ele>103.465</ele>
        <time>2019-11-16T09:54:04Z</time>
      </trkpt>
      <trkpt lat="49.77336" lon="0.67236">
        <ele>110.406</ele>
        <time>2019-11-16T09:54:34Z</time>
      </trkpt>
      <trkpt lat="49.77311" lon="0.67353">
        <ele>107.786</ele>
        <time>2019-11-16T09:55:07Z</time>
      </trkpt>
      <trkpt lat="49.77288" lon="0.67489">
        <ele>108.205</ele>
        <time>2019-11-16T09:55:37Z</time>
      </trkpt>
      <trkpt lat="49.77259" lon="0.67661">
        <ele>108.79</ele>
        <time>2019-11-16T09:56:07Z</time>
      </trkpt>
      <trkpt lat="49.77215" lon="0.67857">
        <ele>104.718</ele>
        <time>2019-11-16T09:56:40Z</time>
      </trkpt>
      <trkpt lat="49.77171" lon="0.68018">
        <ele>106.823</ele>
        <time>2019-11-16T09:57:10Z</time>
      </trkpt>
      <trkpt lat="49.77116" lon="0.68165">
        <ele>109.257</ele>
        <time>2019-11-16T09:57:43Z</time>
      </trkpt>
      <trkpt lat="49.77063" lon="0.68298">
        <ele>109.015</ele>
        <time>2019-11-16T09:58:13Z</time>
      </trkpt>
      <trkpt lat="49.76944" lon="0.68385">
        <ele>108.543</ele>
        <time>2019-11-16T09:58:43Z</time>
      </trkpt>
      <trkpt lat="49.7675" lon="0.68435">
        <ele>104.975</ele>
        <time>2019-11-16T09:59:16Z</time>
      </trkpt>
      <trkpt lat="49.76571" lon="0.68432">
        <ele>100.578</ele>
        <time>2019-11-16T09:59:46Z</time>
      </trkpt>
      <trkpt lat="49.76576" lon="0.68607">
        <ele>91.755</ele>
        <time>2019-11-16T10:00:19Z</time>
      </trkpt>
      <trkpt lat="49.7661" lon="0.68758">
        <ele>96.405</ele>
        <time>2019-11-16T10:00:49Z</time>
      </trkpt>
      <trkpt lat="49.7665" lon="0.68909">
        <ele>97.91</ele>
        <time>2019-11-16T10:01:19Z</time>
      </trkpt>
      <trkpt lat="49.76695" lon="0.69071">
        <ele>102.174</ele>
        <time>2019-11-16T10:01:52Z</time>
      </trkpt>
      <trkpt lat="49.76735" lon="0.69217">
        <ele>103.296</ele>
        <time>2019-11-16T10:02:22Z</time>
      </trkpt>
      <trkpt lat="49.76777" lon="0.69373">
        <ele>106.227</ele>
        <time>2019-11-16T10:02:55Z</time>
      </trkpt>
      <trkpt lat="49.76818" lon="0.69519">
        <ele>106.762</ele>
        <time>2019-11-16T10:03:25Z</time>
      </trkpt>
      <trkpt lat="49.7686" lon="0.69666">
        <ele>113.677</ele>
        <time>2019-11-16T10:03:58Z</time>
      </trkpt>
      <trkpt lat="49.76898" lon="0.6981">
        <ele>111.808</ele>
        <time>2019-11-16T10:04:28Z</time>
      </trkpt>
      <trkpt lat="49.76906" lon="0.69961">
        <ele>103.967</ele>
        <time>2019-11-16T10:04:58Z</time>
      </trkpt>
      <trkpt lat="49.76874" lon="0.70124">
        <ele>103.728</ele>
        <time>2019-11-16T10:05:31Z</time>
      </trkpt>
      <trkpt lat="49.76814" lon="0.70241">
        <ele>108.663</ele>
        <time>2019-11-16T10:06:01Z</time>
      </trkpt>
      <trkpt lat="49.76784" lon="0.70275">
        <ele>109.523</ele>
        <time>2019-11-16T10:11:04Z</time>
      </trkpt>
      <trkpt lat="49.76765" lon="0.70303">
        <ele>108.136</ele>
        <time>2019-11-16T10:22:49Z</time>
      </trkpt>
      <trkpt lat="49.76743" lon="0.70404">
        <ele>113.857</ele>
        <time>2019-11-16T10:23:19Z</time>
      </trkpt>
      <trkpt lat="49.76771" lon="0.70568">
        <ele>112.814</ele>
        <time>2019-11-16T10:23:52Z</time>
      </trkpt>
      <trkpt lat="49.76673" lon="0.70642">
        <ele>115.875</ele>
        <time>2019-11-16T10:24:22Z</time>
      </trkpt>
      <trkpt lat="49.76575" lon="0.70761">
        <ele>119.112</ele>
        <time>2019-11-16T10:24:55Z</time>
      </trkpt>
      <trkpt lat="49.76525" lon="0.70895">
        <ele>119.419</ele>
        <time>2019-11-16T10:25:25Z</time>
      </trkpt>
      <trkpt lat="49.76459" lon="0.71029">
        <ele>119.142</ele>
        <time>2019-11-16T10:25:55Z</time>
      </trkpt>
      <trkpt lat="49.76422" lon="0.71155">
        <ele>127.658</ele>
        <time>2019-11-16T10:26:28Z</time>
      </trkpt>
      <trkpt lat="49.76342" lon="0.71254">
        <ele>124.059</ele>
        <time>2019-11-16T10:26:58Z</time>
      </trkpt>
      <trkpt lat="49.7622" lon="0.71351">
        <ele>120.154</ele>
        <time>2019-11-16T10:27:31Z</time>
      </trkpt>
      <trkpt lat="49.76128" lon="0.71433">
        <ele>125.358</ele>
        <time>2019-11-16T10:28:01Z</time>
      </trkpt>
      <trkpt lat="49.76159" lon="0.71596">
        <ele>125.645</ele>
        <time>2019-11-16T10:28:34Z</time>
      </trkpt>
      <trkpt lat="49.76222" lon="0.7174">
        <ele>122.703</ele>
        <time>2019-11-16T10:29:04Z</time>
      </trkpt>
      <trkpt lat="49.76279" lon="0.71897">
        <ele>122.643</ele>
        <time>2019-11-16T10:29:34Z</time>
      </trkpt>
      <trkpt lat="49.76354" lon="0.7207">
        <ele>122.395</ele>
        <time>2019-11-16T10:30:07Z</time>
      </trkpt>
      <trkpt lat="49.76408" lon="0.72252">
        <ele>120.084</ele>
        <time>2019-11-16T10:30:37Z</time>
      </trkpt>
      <trkpt lat="49.76439" lon="0.72412">
        <ele>121.129</ele>
        <time>2019-11-16T10:31:10Z</time>
      </trkpt>
      <trkpt lat="49.7645" lon="0.72564">
        <ele>122.281</ele>
        <time>2019-11-16T10:31:40Z</time>
      </trkpt>
      <trkpt lat="49.7646" lon="0.72717">
        <ele>121.914</ele>
        <time>2019-11-16T10:32:10Z</time>
      </trkpt>
      <trkpt lat="49.76481" lon="0.72887">
        <ele>121.761</ele>
        <time>2019-11-16T10:32:43Z</time>
      </trkpt>
      <trkpt lat="49.765" lon="0.73031">
        <ele>124.854</ele>
        <time>2019-11-16T10:33:13Z</time>
      </trkpt>
      <trkpt lat="49.76524" lon="0.73195">
        <ele>125.461</ele>
        <time>2019-11-16T10:33:46Z</time>
      </trkpt>
      <trkpt lat="49.76564" lon="0.73322">
        <ele>126.583</ele>
        <time>2019-11-16T10:34:16Z</time>
      </trkpt>
      <trkpt lat="49.76535" lon="0.73484">
        <ele>128.832</ele>
        <time>2019-11-16T10:34:49Z</time>
      </trkpt>
      <trkpt lat="49.76528" lon="0.73642">
        <ele>126.793</ele>
        <time>2019-11-16T10:35:19Z</time>
      </trkpt>
      <trkpt lat="49.76521" lon="0.73843">
        <ele>124.275</ele>
        <time>2019-11-16T10:35:49Z</time>
      </trkpt>
      <trkpt lat="49.76514" lon="0.74121">
        <ele>119.012</ele>
        <time>2019-11-16T10:36:22Z</time>
      </trkpt>
      <trkpt lat="49.7658" lon="0.74312">
        <ele>120.044</ele>
        <time>2019-11-16T10:36:52Z</time>
      </trkpt>
      <trkpt lat="49.76715" lon="0.74396">
        <ele>122.43</ele>
        <time>2019-11-16T10:37:25Z</time>
      </trkpt>
      <trkpt lat="49.76813" lon="0.74442">
        <ele>126.094</ele>
        <time>2019-11-16T10:37:58Z</time>
      </trkpt>
      <trkpt lat="49.76911" lon="0.74511">
        <ele>125.732</ele>
        <time>2019-11-16T10:38:28Z</time>
      </trkpt>
      <trkpt lat="49.77003" lon="0.74578">
        <ele>126.272</ele>
        <time>2019-11-16T10:39:01Z</time>
      </trkpt>
      <trkpt lat="49.77088" lon="0.74528">
        <ele>129.882</ele>
        <time>2019-11-16T10:39:31Z</time>
      </trkpt>
      <trkpt lat="49.7718" lon="0.74471">
        <ele>130.763</ele>
        <time>2019-11-16T10:40:04Z</time>
      </trkpt>
      <trkpt lat="49.77319" lon="0.744">
        <ele>128.315</ele>
        <time>2019-11-16T10:40:34Z</time>
      </trkpt>
      <trkpt lat="49.77533" lon="0.7436">
        <ele>120.955</ele>
        <time>2019-11-16T10:41:04Z</time>
      </trkpt>
      <trkpt lat="49.7773" lon="0.74336">
        <ele>117.046</ele>
        <time>2019-11-16T10:41:37Z</time>
      </trkpt>
      <trkpt lat="49.77873" lon="0.74336">
        <ele>117.226</ele>
        <time>2019-11-16T10:42:07Z</time>
      </trkpt>
      <trkpt lat="49.7804" lon="0.74336">
        <ele>119.034</ele>
        <time>2019-11-16T10:42:40Z</time>
      </trkpt>
      <trkpt lat="49.78216" lon="0.7436">
        <ele>114.105</ele>
        <time>2019-11-16T10:43:10Z</time>
      </trkpt>
      <trkpt lat="49.78412" lon="0.74366">
        <ele>110.458</ele>
        <time>2019-11-16T10:43:43Z</time>
      </trkpt>
      <trkpt lat="49.78596" lon="0.74415">
        <ele>110.488</ele>
        <time>2019-11-16T10:44:13Z</time>
      </trkpt>
      <trkpt lat="49.78771" lon="0.74403">
        <ele>110.458</ele>
        <time>2019-11-16T10:44:43Z</time>
      </trkpt>
      <trkpt lat="49.78964" lon="0.74369">
        <ele>101.152</ele>
        <time>2019-11-16T10:45:16Z</time>
      </trkpt>
      <trkpt lat="49.79126" lon="0.74391">
        <ele>99.76</ele>
        <time>2019-11-16T10:45:46Z</time>
      </trkpt>
      <trkpt lat="49.79255" lon="0.74449">
        <ele>100.659</ele>
        <time>2019-11-16T10:46:19Z</time>
      </trkpt>
      <trkpt lat="49.7921" lon="0.74602">
        <ele>100.217</ele>
        <time>2019-11-16T10:46:49Z</time>
      </trkpt>
      <trkpt lat="49.7923" lon="0.74762">
        <ele>99.526</ele>
        <time>2019-11-16T10:47:19Z</time>
      </trkpt>
      <trkpt lat="49.79311" lon="0.74922">
        <ele>98.006</ele>
        <time>2019-11-16T10:47:52Z</time>
      </trkpt>
      <trkpt lat="49.79375" lon="0.75051">
        <ele>99.563</ele>
        <time>2019-11-16T10:48:22Z</time>
      </trkpt>
      <trkpt lat="49.79457" lon="0.7521">
        <ele>101.574</ele>
        <time>2019-11-16T10:48:55Z</time>
      </trkpt>
      <trkpt lat="49.79548" lon="0.75381">
        <ele>96.198</ele>
        <time>2019-11-16T10:49:25Z</time>
      </trkpt>
      <trkpt lat="49.79661" lon="0.75597">
        <ele>91.898</ele>
        <time>2019-11-16T10:49:55Z</time>
      </trkpt>
      <trkpt lat="49.79646" lon="0.75731">
        <ele>97.125</ele>
        <time>2019-11-16T10:50:28Z</time>
      </trkpt>
      <trkpt lat="49.79639" lon="0.75857">
        <ele>103.162</ele>
        <time>2019-11-16T10:50:58Z</time>
      </trkpt>
      <trkpt lat="49.7966" lon="0.75998">
        <ele>107.847</ele>
        <time>2019-11-16T10:51:31Z</time>
      </trkpt>
      <trkpt lat="49.79664" lon="0.76137">
        <ele>110.183</ele>
        <time>2019-11-16T10:52:01Z</time>
      </trkpt>
      <trkpt lat="49.79662" lon="0.76349">
        <ele>103.868</ele>
        <time>2019-11-16T10:52:34Z</time>
      </trkpt>
      <trkpt lat="49.79613" lon="0.76564">
        <ele>101.973</ele>
        <time>2019-11-16T10:53:04Z</time>
      </trkpt>
      <trkpt lat="49.79594" lon="0.76799">
        <ele>97.363</ele>
        <time>2019-11-16T10:53:34Z</time>
      </trkpt>
      <trkpt lat="49.7958" lon="0.77111">
        <ele>91.29</ele>
        <time>2019-11-16T10:54:07Z</time>
      </trkpt>
      <trkpt lat="49.79594" lon="0.77418">
        <ele>86.894</ele>
        <time>2019-11-16T10:54:37Z</time>
      </trkpt>
      <trkpt lat="49.79638" lon="0.77597">
        <ele>89.525</ele>
        <time>2019-11-16T10:55:10Z</time>
      </trkpt>
      <trkpt lat="49.79679" lon="0.77724">
        <ele>91.517</ele>
        <time>2019-11-16T10:55:40Z</time>
      </trkpt>
      <trkpt lat="49.79731" lon="0.77881">
        <ele>93.768</ele>
        <time>2019-11-16T10:56:10Z</time>
      </trkpt>
      <trkpt lat="49.79687" lon="0.78071">
        <ele>95.83</ele>
        <time>2019-11-16T10:56:43Z</time>
      </trkpt>
      <trkpt lat="49.79677" lon="0.78213">
        <ele>97.209</ele>
        <time>2019-11-16T10:57:13Z</time>
      </trkpt>
      <trkpt lat="49.7972" lon="0.78365">
        <ele>102.415</ele>
        <time>2019-11-16T10:57:46Z</time>
      </trkpt>
      <trkpt lat="49.79779" lon="0.78508">
        <ele>103.845</ele>
        <time>2019-11-16T10:58:16Z</time>
      </trkpt>
      <trkpt lat="49.7982" lon="0.78654">
        <ele>109</ele>
        <time>2019-11-16T10:58:46Z</time>
      </trkpt>
      <trkpt lat="49.79879" lon="0.78842">
        <ele>103.181</ele>
        <time>2019-11-16T10:59:19Z</time>
      </trkpt>
      <trkpt lat="49.79935" lon="0.78997">
        <ele>105.891</ele>
        <time>2019-11-16T10:59:49Z</time>
      </trkpt>
      <trkpt lat="49.79989" lon="0.79201">
        <ele>110.06</ele>
        <time>2019-11-16T11:00:22Z</time>
      </trkpt>
      <trkpt lat="49.80021" lon="0.79408">
        <ele>106.308</ele>
        <time>2019-11-16T11:00:52Z</time>
      </trkpt>
      <trkpt lat="49.80015" lon="0.79636">
        <ele>96.592</ele>
        <time>2019-11-16T11:01:25Z</time>
      </trkpt>
      <trkpt lat="49.80014" lon="0.79822">
        <ele>97.841</ele>
        <time>2019-11-16T11:01:55Z</time>
      </trkpt>
      <trkpt lat="49.80036" lon="0.80006">
        <ele>98.097</ele>
        <time>2019-11-16T11:02:25Z</time>
      </trkpt>
      <trkpt lat="49.80072" lon="0.80234">
        <ele>97.108</ele>
        <time>2019-11-16T11:02:58Z</time>
      </trkpt>
      <trkpt lat="49.80087" lon="0.80432">
        <ele>98.234</ele>
        <time>2019-11-16T11:03:28Z</time>
      </trkpt>
      <trkpt lat="49.80084" lon="0.80649">
        <ele>98.143</ele>
        <time>2019-11-16T11:04:01Z</time>
      </trkpt>
      <trkpt lat="49.80126" lon="0.80812">
        <ele>97.577</ele>
        <time>2019-11-16T11:04:31Z</time>
      </trkpt>
      <trkpt lat="49.80223" lon="0.80924">
        <ele>97.924</ele>
        <time>2019-11-16T11:05:01Z</time>
      </trkpt>
      <trkpt lat="49.80359" lon="0.80905">
        <ele>93.692</ele>
        <time>2019-11-16T11:05:34Z</time>
      </trkpt>
      <trkpt lat="49.8052" lon="0.80765">
        <ele>92.07</ele>
        <time>2019-11-16T11:06:04Z</time>
      </trkpt>
      <trkpt lat="49.8069" lon="0.80734">
        <ele>91.549</ele>
        <time>2019-11-16T11:06:37Z</time>
      </trkpt>
      <trkpt lat="49.80758" lon="0.8053">
        <ele>92.954</ele>
        <time>2019-11-16T11:07:07Z</time>
      </trkpt>
      <trkpt lat="49.80891" lon="0.80267">
        <ele>89.212</ele>
        <time>2019-11-16T11:07:37Z</time>
      </trkpt>
      <trkpt lat="49.81086" lon="0.80275">
        <ele>86.655</ele>
        <time>2019-11-16T11:08:10Z</time>
      </trkpt>
      <trkpt lat="49.81247" lon="0.80322">
        <ele>85.85</ele>
        <time>2019-11-16T11:08:40Z</time>
      </trkpt>
      <trkpt lat="49.81423" lon="0.80353">
        <ele>85.741</ele>
        <time>2019-11-16T11:09:13Z</time>
      </trkpt>
      <trkpt lat="49.81396" lon="0.8057">
        <ele>89.997</ele>
        <time>2019-11-16T11:09:43Z</time>
      </trkpt>
      <trkpt lat="49.8149" lon="0.80707">
        <ele>85.912</ele>
        <time>2019-11-16T11:10:16Z</time>
      </trkpt>
      <trkpt lat="49.81608" lon="0.80753">
        <ele>85.563</ele>
        <time>2019-11-16T11:10:46Z</time>
      </trkpt>
      <trkpt lat="49.81659" lon="0.80847">
        <ele>92.82</ele>
        <time>2019-11-16T11:11:16Z</time>
      </trkpt>
      <trkpt lat="49.8172" lon="0.81024">
        <ele>101.199</ele>
        <time>2019-11-16T11:11:49Z</time>
      </trkpt>
      <trkpt lat="49.81787" lon="0.81182">
        <ele>88.008</ele>
        <time>2019-11-16T11:12:19Z</time>
      </trkpt>
      <trkpt lat="49.81854" lon="0.81335">
        <ele>89.321</ele>
        <time>2019-11-16T11:12:52Z</time>
      </trkpt>
      <trkpt lat="49.81909" lon="0.81498">
        <ele>88.403</ele>
        <time>2019-11-16T11:13:22Z</time>
      </trkpt>
      <trkpt lat="49.81948" lon="0.81676">
        <ele>89.085</ele>
        <time>2019-11-16T11:13:52Z</time>
      </trkpt>
      <trkpt lat="49.81959" lon="0.81886">
        <ele>88.353</ele>
        <time>2019-11-16T11:14:25Z</time>
      </trkpt>
      <trkpt lat="49.82" lon="0.82081">
        <ele>85.843</ele>
        <time>2019-11-16T11:14:55Z</time>
      </trkpt>
      <trkpt lat="49.82078" lon="0.82303">
        <ele>82.9</ele>
        <time>2019-11-16T11:15:28Z</time>
      </trkpt>
      <trkpt lat="49.82164" lon="0.82548">
        <ele>78.821</ele>
        <time>2019-11-16T11:15:58Z</time>
      </trkpt>
      <trkpt lat="49.82247" lon="0.82831">
        <ele>75.09</ele>
        <time>2019-11-16T11:16:31Z</time>
      </trkpt>
      <trkpt lat="49.8229" lon="0.83">
        <ele>78.347</ele>
        <time>2019-11-16T11:17:01Z</time>
      </trkpt>
      <trkpt lat="49.82336" lon="0.83162">
        <ele>77.228</ele>
        <time>2019-11-16T11:17:31Z</time>
      </trkpt>
      <trkpt lat="49.82371" lon="0.8335">
        <ele>79.139</ele>
        <time>2019-11-16T11:18:04Z</time>
      </trkpt>
      <trkpt lat="49.82377" lon="0.83571">
        <ele>80.484</ele>
        <time>2019-11-16T11:18:34Z</time>
      </trkpt>
      <trkpt lat="49.82341" lon="0.83857">
        <ele>78.249</ele>
        <time>2019-11-16T11:19:07Z</time>
      </trkpt>
      <trkpt lat="49.82331" lon="0.8418">
        <ele>70.868</ele>
        <time>2019-11-16T11:19:37Z</time>
      </trkpt>
      <trkpt lat="49.82424" lon="0.84463">
        <ele>51.774</ele>
        <time>2019-11-16T11:20:07Z</time>
      </trkpt>
      <trkpt lat="49.8252" lon="0.84565">
        <ele>42.214</ele>
        <time>2019-11-16T11:20:40Z</time>
      </trkpt>
      <trkpt lat="49.82637" lon="0.8465">
        <ele>49.086</ele>
        <time>2019-11-16T11:21:10Z</time>
      </trkpt>
      <trkpt lat="49.8278" lon="0.84786">
        <ele>48.349</ele>
        <time>2019-11-16T11:21:43Z</time>
      </trkpt>
      <trkpt lat="49.82877" lon="0.84992">
        <ele>51.424</ele>
        <time>2019-11-16T11:22:13Z</time>
      </trkpt>
      <trkpt lat="49.82907" lon="0.8519">
        <ele>54.233</ele>
        <time>2019-11-16T11:22:43Z</time>
      </trkpt>
      <trkpt lat="49.82917" lon="0.85399">
        <ele>55.177</ele>
        <time>2019-11-16T11:23:16Z</time>
      </trkpt>
      <trkpt lat="49.82912" lon="0.85536">
        <ele>60.81</ele>
        <time>2019-11-16T11:23:46Z</time>
      </trkpt>
      <trkpt lat="49.82875" lon="0.85683">
        <ele>71.226</ele>
        <time>2019-11-16T11:24:19Z</time>
      </trkpt>
      <trkpt lat="49.82821" lon="0.8579">
        <ele>69.613</ele>
        <time>2019-11-16T11:24:49Z</time>
      </trkpt>
      <trkpt lat="49.82754" lon="0.8589">
        <ele>65.875</ele>
        <time>2019-11-16T11:25:22Z</time>
      </trkpt>
      <trkpt lat="49.8268" lon="0.85984">
        <ele>68.745</ele>
        <time>2019-11-16T11:25:52Z</time>
      </trkpt>
      <trkpt lat="49.8262" lon="0.86073">
        <ele>66.89</ele>
        <time>2019-11-16T11:26:22Z</time>
      </trkpt>
      <trkpt lat="49.82548" lon="0.86171">
        <ele>71.318</ele>
        <time>2019-11-16T11:26:55Z</time>
      </trkpt>
      <trkpt lat="49.82486" lon="0.86274">
        <ele>73.236</ele>
        <time>2019-11-16T11:27:25Z</time>
      </trkpt>
      <trkpt lat="49.82445" lon="0.86403">
        <ele>75.395</ele>
        <time>2019-11-16T11:27:58Z</time>
      </trkpt>
      <trkpt lat="49.82431" lon="0.86527">
        <ele>79.162</ele>
        <time>2019-11-16T11:28:28Z</time>
      </trkpt>
      <trkpt lat="49.82436" lon="0.86669">
        <ele>82.884</ele>
        <time>2019-11-16T11:28:58Z</time>
      </trkpt>
      <trkpt lat="49.82453" lon="0.86816">
        <ele>74.398</ele>
        <time>2019-11-16T11:29:31Z</time>
      </trkpt>
      <trkpt lat="49.82469" lon="0.86943">
        <ele>81.607</ele>
        <time>2019-11-16T11:30:01Z</time>
      </trkpt>
      <trkpt lat="49.8248" lon="0.87078">
        <ele>87.677</ele>
        <time>2019-11-16T11:30:34Z</time>
      </trkpt>
      <trkpt lat="49.8249" lon="0.87207">
        <ele>86.49</ele>
        <time>2019-11-16T11:31:04Z</time>
      </trkpt>
      <trkpt lat="49.82501" lon="0.87335">
        <ele>86.517</ele>
        <time>2019-11-16T11:31:34Z</time>
      </trkpt>
      <trkpt lat="49.82514" lon="0.87488">
        <ele>82.234</ele>
        <time>2019-11-16T11:32:07Z</time>
      </trkpt>
      <trkpt lat="49.82523" lon="0.87655">
        <ele>78.075</ele>
        <time>2019-11-16T11:32:37Z</time>
      </trkpt>
      <trkpt lat="49.82508" lon="0.87834">
        <ele>79.655</ele>
        <time>2019-11-16T11:33:10Z</time>
      </trkpt>
      <trkpt lat="49.82484" lon="0.87997">
        <ele>82.009</ele>
        <time>2019-11-16T11:33:40Z</time>
      </trkpt>
      <trkpt lat="49.82459" lon="0.88183">
        <ele>82.259</ele>
        <time>2019-11-16T11:34:13Z</time>
      </trkpt>
      <trkpt lat="49.82436" lon="0.8835">
        <ele>85.116</ele>
        <time>2019-11-16T11:34:43Z</time>
      </trkpt>
      <trkpt lat="49.82413" lon="0.88524">
        <ele>81.285</ele>
        <time>2019-11-16T11:35:13Z</time>
      </trkpt>
      <trkpt lat="49.82386" lon="0.88707">
        <ele>84.719</ele>
        <time>2019-11-16T11:35:46Z</time>
      </trkpt>
      <trkpt lat="49.82367" lon="0.88852">
        <ele>81.59</ele>
        <time>2019-11-16T11:36:16Z</time>
      </trkpt>
      <trkpt lat="49.82345" lon="0.89011">
        <ele>84.091</ele>
        <time>2019-11-16T11:36:49Z</time>
      </trkpt>
      <trkpt lat="49.82326" lon="0.89142">
        <ele>86.897</ele>
        <time>2019-11-16T11:37:19Z</time>
      </trkpt>
      <trkpt lat="49.82306" lon="0.89286">
        <ele>87.686</ele>
        <time>2019-11-16T11:37:49Z</time>
      </trkpt>
      <trkpt lat="49.82288" lon="0.89444">
        <ele>85.532</ele>
        <time>2019-11-16T11:38:22Z</time>
      </trkpt>
      <trkpt lat="49.82268" lon="0.8958">
        <ele>94.163</ele>
        <time>2019-11-16T11:38:52Z</time>
      </trkpt>
      <trkpt lat="49.82249" lon="0.89764">
        <ele>94.442</ele>
        <time>2019-11-16T11:39:25Z</time>
      </trkpt>
      <trkpt lat="49.82236" lon="0.89998">
        <ele>94.045</ele>
        <time>2019-11-16T11:39:55Z</time>
      </trkpt>
      <trkpt lat="49.82241" lon="0.90228">
        <ele>83.565</ele>
        <time>2019-11-16T11:40:25Z</time>
      </trkpt>
      <trkpt lat="49.82251" lon="0.90449">
        <ele>79.589</ele>
        <time>2019-11-16T11:40:58Z</time>
      </trkpt>
      <trkpt lat="49.82254" lon="0.90613">
        <ele>85.567</ele>
        <time>2019-11-16T11:41:28Z</time>
      </trkpt>
      <trkpt lat="49.82284" lon="0.90764">
        <ele>85.754</ele>
        <time>2019-11-16T11:42:01Z</time>
      </trkpt>
      <trkpt lat="49.82326" lon="0.90881">
        <ele>84.491</ele>
        <time>2019-11-16T11:42:31Z</time>
      </trkpt>
      <trkpt lat="49.82417" lon="0.9099">
        <ele>81.856</ele>
        <time>2019-11-16T11:43:04Z</time>
      </trkpt>
      <trkpt lat="49.82378" lon="0.91127">
        <ele>89.384</ele>
        <time>2019-11-16T11:43:34Z</time>
      </trkpt>
      <trkpt lat="49.82346" lon="0.91256">
        <ele>94.975</ele>
        <time>2019-11-16T11:44:04Z</time>
      </trkpt>
      <trkpt lat="49.82312" lon="0.9146">
        <ele>88.074</ele>
        <time>2019-11-16T11:44:37Z</time>
      </trkpt>
      <trkpt lat="49.82299" lon="0.91652">
        <ele>93.801</ele>
        <time>2019-11-16T11:45:07Z</time>
      </trkpt>
      <trkpt lat="49.82301" lon="0.91855">
        <ele>94.736</ele>
        <time>2019-11-16T11:45:40Z</time>
      </trkpt>
      <trkpt lat="49.82299" lon="0.92014">
        <ele>91.311</ele>
        <time>2019-11-16T11:46:10Z</time>
      </trkpt>
      <trkpt lat="49.82309" lon="0.92231">
        <ele>87.265</ele>
        <time>2019-11-16T11:46:40Z</time>
      </trkpt>
      <trkpt lat="49.8232" lon="0.9247">
        <ele>83.817</ele>
        <time>2019-11-16T11:47:13Z</time>
      </trkpt>
      <trkpt lat="49.82352" lon="0.92739">
        <ele>78.481</ele>
        <time>2019-11-16T11:47:43Z</time>
      </trkpt>
      <trkpt lat="49.82395" lon="0.92964">
        <ele>77.25</ele>
        <time>2019-11-16T11:48:16Z</time>
      </trkpt>
      <trkpt lat="49.82438" lon="0.93149">
        <ele>77.043</ele>
        <time>2019-11-16T11:48:46Z</time>
      </trkpt>
      <trkpt lat="49.8247" lon="0.93304">
        <ele>82.738</ele>
        <time>2019-11-16T11:49:16Z</time>
      </trkpt>
      <trkpt lat="49.82508" lon="0.93471">
        <ele>81.885</ele>
        <time>2019-11-16T11:49:49Z</time>
      </trkpt>
      <trkpt lat="49.82541" lon="0.93618">
        <ele>80.09</ele>
        <time>2019-11-16T11:50:19Z</time>
      </trkpt>
      <trkpt lat="49.82576" lon="0.9378">
        <ele>82.816</ele>
        <time>2019-11-16T11:50:52Z</time>
      </trkpt>
      <trkpt lat="49.82608" lon="0.93927">
        <ele>83.04</ele>
        <time>2019-11-16T11:51:22Z</time>
      </trkpt>
      <trkpt lat="49.82643" lon="0.94092">
        <ele>81.819</ele>
        <time>2019-11-16T11:51:55Z</time>
      </trkpt>
      <trkpt lat="49.82678" lon="0.94248">
        <ele>82.564</ele>
        <time>2019-11-16T11:52:25Z</time>
      </trkpt>
      <trkpt lat="49.82715" lon="0.94412">
        <ele>91.868</ele>
        <time>2019-11-16T11:52:55.001Z</time>
      </trkpt>
      <trkpt lat="49.82789" lon="0.94675">
        <ele>93.211</ele>
        <time>2019-11-16T11:53:28Z</time>
      </trkpt>
      <trkpt lat="49.82925" lon="0.94916">
        <ele>76.85</ele>
        <time>2019-11-16T11:53:58Z</time>
      </trkpt>
      <trkpt lat="49.8308" lon="0.95153">
        <ele>74.78</ele>
        <time>2019-11-16T11:54:31Z</time>
      </trkpt>
      <trkpt lat="49.83235" lon="0.9539">
        <ele>69.044</ele>
        <time>2019-11-16T11:55:01Z</time>
      </trkpt>
      <trkpt lat="49.83381" lon="0.95618">
        <ele>64.69</ele>
        <time>2019-11-16T11:55:31Z</time>
      </trkpt>
      <trkpt lat="49.83561" lon="0.9582">
        <ele>58.519</ele>
        <time>2019-11-16T11:56:04Z</time>
      </trkpt>
      <trkpt lat="49.83738" lon="0.95843">
        <ele>56.017</ele>
        <time>2019-11-16T11:56:34Z</time>
      </trkpt>
      <trkpt lat="49.83863" lon="0.95838">
        <ele>57.618</ele>
        <time>2019-11-16T11:59:37Z</time>
      </trkpt>
      <trkpt lat="49.83962" lon="0.95838">
        <ele>57.961</ele>
        <time>2019-11-16T12:00:10Z</time>
      </trkpt>
      <trkpt lat="49.84093" lon="0.95824">
        <ele>65.278</ele>
        <time>2019-11-16T12:00:43Z</time>
      </trkpt>
      <trkpt lat="49.84241" lon="0.95707">
        <ele>65.768</ele>
        <time>2019-11-16T12:01:13Z</time>
      </trkpt>
      <trkpt lat="49.84366" lon="0.95545">
        <ele>61.632</ele>
        <time>2019-11-16T12:01:43Z</time>
      </trkpt>
      <trkpt lat="49.84527" lon="0.95377">
        <ele>49.325</ele>
        <time>2019-11-16T12:02:16Z</time>
      </trkpt>
      <trkpt lat="49.8469" lon="0.9528">
        <ele>43.558</ele>
        <time>2019-11-16T12:02:46Z</time>
      </trkpt>
      <trkpt lat="49.84892" lon="0.95239">
        <ele>36.635</ele>
        <time>2019-11-16T12:03:19Z</time>
      </trkpt>
      <trkpt lat="49.85046" lon="0.95264">
        <ele>32.337</ele>
        <time>2019-11-16T12:03:49Z</time>
      </trkpt>
      <trkpt lat="49.85235" lon="0.95358">
        <ele>31.847</ele>
        <time>2019-11-16T12:04:19Z</time>
      </trkpt>
      <trkpt lat="49.85417" lon="0.95491">
        <ele>27.687</ele>
        <time>2019-11-16T12:04:52Z</time>
      </trkpt>
      <trkpt lat="49.85588" lon="0.95613">
        <ele>23.833</ele>
        <time>2019-11-16T12:05:22Z</time>
      </trkpt>
      <trkpt lat="49.85759" lon="0.95736">
        <ele>16.214</ele>
        <time>2019-11-16T12:05:55Z</time>
      </trkpt>
      <trkpt lat="49.85894" lon="0.95836">
        <ele>15.749</ele>
        <time>2019-11-16T12:06:25Z</time>
      </trkpt>
      <trkpt lat="49.86043" lon="0.9589">
        <ele>15.812</ele>
        <time>2019-11-16T12:06:55Z</time>
      </trkpt>
      <trkpt lat="49.8622" lon="0.95899">
        <ele>17.748</ele>
        <time>2019-11-16T12:07:28Z</time>
      </trkpt>
      <trkpt lat="49.86382" lon="0.95903">
        <ele>16.034</ele>
        <time>2019-11-16T12:07:58Z</time>
      </trkpt>
      <trkpt lat="49.86501" lon="0.95988">
        <ele>16.1</ele>
        <time>2019-11-16T12:08:31Z</time>
      </trkpt>
      <trkpt lat="49.86637" lon="0.95969">
        <ele>18.916</ele>
        <time>2019-11-16T12:09:01Z</time>
      </trkpt>
      <trkpt lat="49.86743" lon="0.96019">
        <ele>18.032</ele>
        <time>2019-11-16T12:09:34Z</time>
      </trkpt>
      <trkpt lat="49.86828" lon="0.96114">
        <ele>17.89</ele>
        <time>2019-11-16T12:10:04Z</time>
      </trkpt>
      <trkpt lat="49.86886" lon="0.96207">
        <ele>23.391</ele>
        <time>2019-11-16T12:10:34Z</time>
      </trkpt>
      <trkpt lat="49.86937" lon="0.96324">
        <ele>37.968</ele>
        <time>2019-11-16T12:11:07Z</time>
      </trkpt>
      <trkpt lat="49.86978" lon="0.96452">
        <ele>44.832</ele>
        <time>2019-11-16T12:11:37Z</time>
      </trkpt>
      <trkpt lat="49.87003" lon="0.96597">
        <ele>43.96</ele>
        <time>2019-11-16T12:12:10Z</time>
      </trkpt>
      <trkpt lat="49.87" lon="0.96735">
        <ele>30.811</ele>
        <time>2019-11-16T12:12:40Z</time>
      </trkpt>
      <trkpt lat="49.86978" lon="0.96855">
        <ele>33.208</ele>
        <time>2019-11-16T12:13:10Z</time>
      </trkpt>
      <trkpt lat="49.86931" lon="0.97033">
        <ele>32.053</ele>
        <time>2019-11-16T12:13:43Z</time>
      </trkpt>
      <trkpt lat="49.86893" lon="0.97171">
        <ele>32.336</ele>
        <time>2019-11-16T12:14:13Z</time>
      </trkpt>
      <trkpt lat="49.86845" lon="0.9734">
        <ele>32.648</ele>
        <time>2019-11-16T12:14:46Z</time>
      </trkpt>
      <trkpt lat="49.86814" lon="0.97478">
        <ele>37.596</ele>
        <time>2019-11-16T12:15:16Z</time>
      </trkpt>
      <trkpt lat="49.86792" lon="0.9767">
        <ele>32.745</ele>
        <time>2019-11-16T12:15:46Z</time>
      </trkpt>
      <trkpt lat="49.86783" lon="0.97843">
        <ele>32.176</ele>
        <time>2019-11-16T12:16:19Z</time>
      </trkpt>
      <trkpt lat="49.86775" lon="0.98001">
        <ele>32.704</ele>
        <time>2019-11-16T12:16:49Z</time>
      </trkpt>
      <trkpt lat="49.86766" lon="0.98168">
        <ele>35.607</ele>
        <time>2019-11-16T12:17:22Z</time>
      </trkpt>
      <trkpt lat="49.86757" lon="0.98335">
        <ele>33.943</ele>
        <time>2019-11-16T12:17:52Z</time>
      </trkpt>
      <trkpt lat="49.86749" lon="0.98499">
        <ele>37.548</ele>
        <time>2019-11-16T12:18:25Z</time>
      </trkpt>
      <trkpt lat="49.8674" lon="0.98663">
        <ele>37.386</ele>
        <time>2019-11-16T12:18:55Z</time>
      </trkpt>
      <trkpt lat="49.8673" lon="0.98837">
        <ele>36.876</ele>
        <time>2019-11-16T12:19:25Z</time>
      </trkpt>
      <trkpt lat="49.86722" lon="0.99027">
        <ele>39.758</ele>
        <time>2019-11-16T12:19:58Z</time>
      </trkpt>
      <trkpt lat="49.86726" lon="0.99169">
        <ele>40.14</ele>
        <time>2019-11-16T12:20:28Z</time>
      </trkpt>
      <trkpt lat="49.86743" lon="0.99316">
        <ele>42.686</ele>
        <time>2019-11-16T12:21:01Z</time>
      </trkpt>
      <trkpt lat="49.86762" lon="0.99441">
        <ele>43.657</ele>
        <time>2019-11-16T12:21:31Z</time>
      </trkpt>
      <trkpt lat="49.86781" lon="0.9957">
        <ele>45.312</ele>
        <time>2019-11-16T12:22:01Z</time>
      </trkpt>
      <trkpt lat="49.86787" lon="0.99706">
        <ele>47.958</ele>
        <time>2019-11-16T12:22:34Z</time>
      </trkpt>
      <trkpt lat="49.86773" lon="0.99836">
        <ele>49.262</ele>
        <time>2019-11-16T12:23:04Z</time>
      </trkpt>
      <trkpt lat="49.86743" lon="0.99987">
        <ele>52.783</ele>
        <time>2019-11-16T12:23:37Z</time>
      </trkpt>
      <trkpt lat="49.86716" lon="1.00112">
        <ele>54.361</ele>
        <time>2019-11-16T12:24:07Z</time>
      </trkpt>
      <trkpt lat="49.8669" lon="1.00241">
        <ele>51.37</ele>
        <time>2019-11-16T12:24:37Z</time>
      </trkpt>
      <trkpt lat="49.86674" lon="1.00388">
        <ele>52.521</ele>
        <time>2019-11-16T12:25:10Z</time>
      </trkpt>
      <trkpt lat="49.86661" lon="1.00518">
        <ele>56.527</ele>
        <time>2019-11-16T12:25:40Z</time>
      </trkpt>
      <trkpt lat="49.86641" lon="1.00657">
        <ele>64.595</ele>
        <time>2019-11-16T12:26:13Z</time>
      </trkpt>
      <trkpt lat="49.86625" lon="1.00788">
        <ele>66.258</ele>
        <time>2019-11-16T12:26:43Z</time>
      </trkpt>
      <trkpt lat="49.86607" lon="1.00937">
        <ele>68.946</ele>
        <time>2019-11-16T12:27:16Z</time>
      </trkpt>
      <trkpt lat="49.86593" lon="1.01045">
        <ele>65.798</ele>
        <time>2019-11-16T12:27:46Z</time>
      </trkpt>
      <trkpt lat="49.86578" lon="1.01156">
        <ele>62.7</ele>
        <time>2019-11-16T12:28:16Z</time>
      </trkpt>
      <trkpt lat="49.86557" lon="1.01283">
        <ele>64.273</ele>
        <time>2019-11-16T12:28:49Z</time>
      </trkpt>
      <trkpt lat="49.86536" lon="1.01402">
        <ele>65.673</ele>
        <time>2019-11-16T12:29:19Z</time>
      </trkpt>
      <trkpt lat="49.86525" lon="1.01475">
        <ele>64.368</ele>
        <time>2019-11-16T12:31:22Z</time>
      </trkpt>
      <trkpt lat="49.86526" lon="1.01476">
        <ele>64.723</ele>
        <time>2019-11-16T12:46:28Z</time>
      </trkpt>
      <trkpt lat="49.86496" lon="1.01603">
        <ele>73.074</ele>
        <time>2019-11-16T12:49:34Z</time>
      </trkpt>
      <trkpt lat="49.8646" lon="1.01721">
        <ele>76.367</ele>
        <time>2019-11-16T12:50:07Z</time>
      </trkpt>
      <trkpt lat="49.86422" lon="1.01841">
        <ele>74.839</ele>
        <time>2019-11-16T12:50:37Z</time>
      </trkpt>
      <trkpt lat="49.86378" lon="1.01976">
        <ele>74.178</ele>
        <time>2019-11-16T12:51:10Z</time>
      </trkpt>
      <trkpt lat="49.86337" lon="1.02108">
        <ele>75.424</ele>
        <time>2019-11-16T12:51:40Z</time>
      </trkpt>
      <trkpt lat="49.86305" lon="1.02247">
        <ele>74.805</ele>
        <time>2019-11-16T12:52:10Z</time>
      </trkpt>
      <trkpt lat="49.86281" lon="1.02412">
        <ele>75.333</ele>
        <time>2019-11-16T12:52:43Z</time>
      </trkpt>
      <trkpt lat="49.86275" lon="1.02552">
        <ele>73.482</ele>
        <time>2019-11-16T12:53:13Z</time>
      </trkpt>
      <trkpt lat="49.86282" lon="1.02721">
        <ele>75.613</ele>
        <time>2019-11-16T12:53:46Z</time>
      </trkpt>
      <trkpt lat="49.86305" lon="1.02873">
        <ele>79.673</ele>
        <time>2019-11-16T12:54:16Z</time>
      </trkpt>
      <trkpt lat="49.86331" lon="1.03043">
        <ele>81.603</ele>
        <time>2019-11-16T12:54:49Z</time>
      </trkpt>
      <trkpt lat="49.86351" lon="1.03133">
        <ele>81.615</ele>
        <time>2019-11-16T12:55:19Z</time>
      </trkpt>
      <trkpt lat="49.86364" lon="1.03281">
        <ele>81.35</ele>
        <time>2019-11-16T12:55:49Z</time>
      </trkpt>
      <trkpt lat="49.8639" lon="1.0345">
        <ele>83.057</ele>
        <time>2019-11-16T12:56:22Z</time>
      </trkpt>
      <trkpt lat="49.86414" lon="1.03609">
        <ele>82.468</ele>
        <time>2019-11-16T12:56:52Z</time>
      </trkpt>
      <trkpt lat="49.86439" lon="1.03782">
        <ele>81.857</ele>
        <time>2019-11-16T12:57:25Z</time>
      </trkpt>
      <trkpt lat="49.86461" lon="1.03941">
        <ele>82.836</ele>
        <time>2019-11-16T12:57:55Z</time>
      </trkpt>
      <trkpt lat="49.86487" lon="1.04101">
        <ele>83.851</ele>
        <time>2019-11-16T12:58:25Z</time>
      </trkpt>
      <trkpt lat="49.86517" lon="1.0431">
        <ele>83.473</ele>
        <time>2019-11-16T12:58:58Z</time>
      </trkpt>
      <trkpt lat="49.8655" lon="1.04512">
        <ele>91.282</ele>
        <time>2019-11-16T12:59:28Z</time>
      </trkpt>
      <trkpt lat="49.86599" lon="1.04731">
        <ele>96.533</ele>
        <time>2019-11-16T13:00:01Z</time>
      </trkpt>
      <trkpt lat="49.86631" lon="1.0488">
        <ele>91.553</ele>
        <time>2019-11-16T13:00:31Z</time>
      </trkpt>
      <trkpt lat="49.86696" lon="1.05079">
        <ele>91.054</ele>
        <time>2019-11-16T13:01:04Z</time>
      </trkpt>
      <trkpt lat="49.86778" lon="1.05346">
        <ele>87.834</ele>
        <time>2019-11-16T13:01:34Z</time>
      </trkpt>
      <trkpt lat="49.86871" lon="1.05639">
        <ele>82.875</ele>
        <time>2019-11-16T13:02:04Z</time>
      </trkpt>
      <trkpt lat="49.86966" lon="1.05945">
        <ele>75.402</ele>
        <time>2019-11-16T13:02:37Z</time>
      </trkpt>
      <trkpt lat="49.8707" lon="1.0616">
        <ele>76.613</ele>
        <time>2019-11-16T13:03:07Z</time>
      </trkpt>
      <trkpt lat="49.87258" lon="1.06258">
        <ele>87.552</ele>
        <time>2019-11-16T13:03:40Z</time>
      </trkpt>
      <trkpt lat="49.87448" lon="1.06213">
        <ele>74.798</ele>
        <time>2019-11-16T13:04:10Z</time>
      </trkpt>
      <trkpt lat="49.87631" lon="1.06149">
        <ele>58.536</ele>
        <time>2019-11-16T13:04:40Z</time>
      </trkpt>
      <trkpt lat="49.87824" lon="1.06085">
        <ele>50.172</ele>
        <time>2019-11-16T13:05:13Z</time>
      </trkpt>
      <trkpt lat="49.88024" lon="1.06045">
        <ele>52.617</ele>
        <time>2019-11-16T13:05:43Z</time>
      </trkpt>
      <trkpt lat="49.88229" lon="1.06009">
        <ele>57.549</ele>
        <time>2019-11-16T13:06:16Z</time>
      </trkpt>
      <trkpt lat="49.88427" lon="1.05952">
        <ele>48.4</ele>
        <time>2019-11-16T13:06:46Z</time>
      </trkpt>
      <trkpt lat="49.88636" lon="1.05896">
        <ele>42.905</ele>
        <time>2019-11-16T13:07:16Z</time>
      </trkpt>
      <trkpt lat="49.8884" lon="1.05826">
        <ele>30.29</ele>
        <time>2019-11-16T13:07:49Z</time>
      </trkpt>
      <trkpt lat="49.89029" lon="1.05662">
        <ele>24.44</ele>
        <time>2019-11-16T13:08:19Z</time>
      </trkpt>
      <trkpt lat="49.89215" lon="1.05519">
        <ele>17.864</ele>
        <time>2019-11-16T13:08:52Z</time>
      </trkpt>
      <trkpt lat="49.89418" lon="1.05451">
        <ele>21.534</ele>
        <time>2019-11-16T13:09:22Z</time>
      </trkpt>
      <trkpt lat="49.89627" lon="1.05432">
        <ele>14.362</ele>
        <time>2019-11-16T13:09:55Z</time>
      </trkpt>
      <trkpt lat="49.89653" lon="1.05413">
        <ele>14.801</ele>
        <time>2019-11-16T13:13:31Z</time>
      </trkpt>
      <trkpt lat="49.89669" lon="1.05417">
        <ele>12.185</ele>
        <time>2019-11-16T13:17:37Z</time>
      </trkpt>
      <trkpt lat="49.89828" lon="1.05348">
        <ele>12.925</ele>
        <time>2019-11-16T13:18:10Z</time>
      </trkpt>
      <trkpt lat="49.89998" lon="1.05258">
        <ele>3.782</ele>
        <time>2019-11-16T13:18:40Z</time>
      </trkpt>
      <trkpt lat="49.90135" lon="1.0519">
        <ele>9.212</ele>
        <time>2019-11-16T13:19:13Z</time>
      </trkpt>
      <trkpt lat="49.90243" lon="1.0531">
        <ele>14.795</ele>
        <time>2019-11-16T13:19:46Z</time>
      </trkpt>
      <trkpt lat="49.90344" lon="1.05446">
        <ele>13.134</ele>
        <time>2019-11-16T13:20:16Z</time>
      </trkpt>
      <trkpt lat="49.90406" lon="1.05529">
        <ele>15.468</ele>
        <time>2019-11-16T13:20:49Z</time>
      </trkpt>
      <trkpt lat="49.90455" lon="1.05594">
        <ele>18.961</ele>
        <time>2019-11-16T13:21:19Z</time>
      </trkpt>
      <trkpt lat="49.90507" lon="1.05657">
        <ele>27.555</ele>
        <time>2019-11-16T13:21:52Z</time>
      </trkpt>
      <trkpt lat="49.9057" lon="1.05667">
        <ele>31.227</ele>
        <time>2019-11-16T13:22:22Z</time>
      </trkpt>
      <trkpt lat="49.90631" lon="1.05664">
        <ele>38.371</ele>
        <time>2019-11-16T13:22:52Z</time>
      </trkpt>
      <trkpt lat="49.90706" lon="1.05658">
        <ele>50.701</ele>
        <time>2019-11-16T13:23:25Z</time>
      </trkpt>
      <trkpt lat="49.9077" lon="1.05655">
        <ele>53.843</ele>
        <time>2019-11-16T13:23:55Z</time>
      </trkpt>
      <trkpt lat="49.90841" lon="1.05689">
        <ele>50.409</ele>
        <time>2019-11-16T13:24:28Z</time>
      </trkpt>
      <trkpt lat="49.90888" lon="1.05758">
        <ele>51.516</ele>
        <time>2019-11-16T13:24:58Z</time>
      </trkpt>
      <trkpt lat="49.90914" lon="1.0585">
        <ele>50.25</ele>
        <time>2019-11-16T13:25:31Z</time>
      </trkpt>
      <trkpt lat="49.90937" lon="1.0593">
        <ele>51.458</ele>
        <time>2019-11-16T13:26:01Z</time>
      </trkpt>
      <trkpt lat="49.90956" lon="1.06011">
        <ele>54.646</ele>
        <time>2019-11-16T13:26:31Z</time>
      </trkpt>
      <trkpt lat="49.90955" lon="1.06101">
        <ele>70.157</ele>
        <time>2019-11-16T13:27:04Z</time>
      </trkpt>
      <trkpt lat="49.90931" lon="1.06172">
        <ele>82.307</ele>
        <time>2019-11-16T13:27:34Z</time>
      </trkpt>
      <trkpt lat="49.90884" lon="1.06248">
        <ele>83.067</ele>
        <time>2019-11-16T13:28:07Z</time>
      </trkpt>
      <trkpt lat="49.90849" lon="1.0632">
        <ele>83.909</ele>
        <time>2019-11-16T13:28:37Z</time>
      </trkpt>
      <trkpt lat="49.90823" lon="1.06405">
        <ele>87.037</ele>
        <time>2019-11-16T13:29:07Z</time>
      </trkpt>
      <trkpt lat="49.90914" lon="1.0656">
        <ele>85.106</ele>
        <time>2019-11-16T13:29:40Z</time>
      </trkpt>
      <trkpt lat="49.91035" lon="1.06742">
        <ele>81.016</ele>
        <time>2019-11-16T13:30:10Z</time>
      </trkpt>
      <trkpt lat="49.91161" lon="1.0694">
        <ele>76.548</ele>
        <time>2019-11-16T13:30:43Z</time>
      </trkpt>
      <trkpt lat="49.91285" lon="1.07131">
        <ele>67.001</ele>
        <time>2019-11-16T13:31:13Z</time>
      </trkpt>
      <trkpt lat="49.91404" lon="1.07317">
        <ele>70.828</ele>
        <time>2019-11-16T13:31:43Z</time>
      </trkpt>
      <trkpt lat="49.91556" lon="1.07472">
        <ele>67.44</ele>
        <time>2019-11-16T13:32:16Z</time>
      </trkpt>
      <trkpt lat="49.91747" lon="1.07425">
        <ele>65.143</ele>
        <time>2019-11-16T13:32:46Z</time>
      </trkpt>
      <trkpt lat="49.92144" lon="1.07344">
        <ele>52.612</ele>
        <time>2019-11-16T13:33:19Z</time>
      </trkpt>
      <trkpt lat="49.92284" lon="1.07306">
        <ele>42.26</ele>
        <time>2019-11-16T13:34:01Z</time>
      </trkpt>
      <trkpt lat="49.9234" lon="1.07293">
        <ele>33.717</ele>
        <time>2019-11-16T13:34:37Z</time>
      </trkpt>
      <trkpt lat="49.92383" lon="1.07277">
        <ele>30.664</ele>
        <time>2019-11-16T13:35:10Z</time>
      </trkpt>
      <trkpt lat="49.9244" lon="1.07383">
        <ele>21.951</ele>
        <time>2019-11-16T13:35:40Z</time>
      </trkpt>
      <trkpt lat="49.92482" lon="1.0748">
        <ele>12.08</ele>
        <time>2019-11-16T13:36:13Z</time>
      </trkpt>
      <trkpt lat="49.92532" lon="1.07554">
        <ele>9.886</ele>
        <time>2019-11-16T13:36:43Z</time>
      </trkpt>
      <trkpt lat="49.92596" lon="1.07667">
        <ele>5.34</ele>
        <time>2019-11-16T13:37:16Z</time>
      </trkpt>
      <trkpt lat="49.92647" lon="1.07741">
        <ele>18.512</ele>
        <time>2019-11-16T13:37:46Z</time>
      </trkpt>
      <trkpt lat="49.92674" lon="1.07782">
        <ele>20.1</ele>
        <time>2019-11-16T13:38:34Z</time>
      </trkpt>
      <trkpt lat="49.92663" lon="1.07827">
        <ele>28.109</ele>
        <time>2019-11-16T13:39:31Z</time>
      </trkpt>
      <trkpt lat="49.92647" lon="1.07871">
        <ele>20.135</ele>
        <time>2019-11-16T13:40:52Z</time>
      </trkpt>
      <trkpt lat="49.9264" lon="1.07996">
        <ele>12.52</ele>
        <time>2019-11-16T13:41:25Z</time>
      </trkpt>
      <trkpt lat="49.92641" lon="1.08127">
        <ele>17.524</ele>
        <time>2019-11-16T13:41:55Z</time>
      </trkpt>
      <trkpt lat="49.9269" lon="1.08279">
        <ele>13.343</ele>
        <time>2019-11-16T13:42:25Z</time>
      </trkpt>
      <trkpt lat="49.92731" lon="1.08463">
        <ele>6.773</ele>
        <time>2019-11-16T13:42:58Z</time>
      </trkpt>
      <trkpt lat="49.92721" lon="1.08583">
        <ele>10.825</ele>
        <time>2019-11-16T13:43:28Z</time>
      </trkpt>
      <trkpt lat="49.92748" lon="1.08788">
        <ele>13.905</ele>
        <time>2019-11-16T13:44:01Z</time>
      </trkpt>
      <trkpt lat="49.92762" lon="1.08908">
        <ele>17.394</ele>
        <time>2019-11-16T13:44:31Z</time>
      </trkpt>
      <trkpt lat="49.92776" lon="1.09027">
        <ele>24.777</ele>
        <time>2019-11-16T13:45:04Z</time>
      </trkpt>
      <trkpt lat="49.9277" lon="1.09134">
        <ele>33.371</ele>
        <time>2019-11-16T13:45:34Z</time>
      </trkpt>
      <trkpt lat="49.92758" lon="1.09233">
        <ele>45.96</ele>
        <time>2019-11-16T13:46:04Z</time>
      </trkpt>
      <trkpt lat="49.92728" lon="1.09338">
        <ele>44.035</ele>
        <time>2019-11-16T13:46:37Z</time>
      </trkpt>
      <trkpt lat="49.92704" lon="1.09431">
        <ele>46.203</ele>
        <time>2019-11-16T13:47:07Z</time>
      </trkpt>
      <trkpt lat="49.92678" lon="1.09532">
        <ele>48.452</ele>
        <time>2019-11-16T13:47:40Z</time>
      </trkpt>
      <trkpt lat="49.92659" lon="1.09618">
        <ele>50.426</ele>
        <time>2019-11-16T13:48:10Z</time>
      </trkpt>
      <trkpt lat="49.92636" lon="1.09704">
        <ele>60.468</ele>
        <time>2019-11-16T13:48:40Z</time>
      </trkpt>
      <trkpt lat="49.92608" lon="1.09798">
        <ele>57.2</ele>
        <time>2019-11-16T13:49:13Z</time>
      </trkpt>
      <trkpt lat="49.92588" lon="1.09887">
        <ele>56.004</ele>
        <time>2019-11-16T13:49:43Z</time>
      </trkpt>
      <trkpt lat="49.92629" lon="1.09842">
        <ele>54.541</ele>
        <time>2019-11-16T13:50:16Z</time>
      </trkpt>
      <trkpt lat="49.92681" lon="1.09756">
        <ele>53.243</ele>
        <time>2019-11-16T13:50:46Z</time>
      </trkpt>
      <trkpt lat="49.92771" lon="1.0961">
        <ele>52.958</ele>
        <time>2019-11-16T13:51:19Z</time>
      </trkpt>
      <trkpt lat="49.92883" lon="1.09501">
        <ele>55.03</ele>
        <time>2019-11-16T13:51:49Z</time>
      </trkpt>
      <trkpt lat="49.93002" lon="1.09425">
        <ele>49.977</ele>
        <time>2019-11-16T13:52:19Z</time>
      </trkpt>
      <trkpt lat="49.93126" lon="1.09345">
        <ele>50.779</ele>
        <time>2019-11-16T13:52:52Z</time>
      </trkpt>
      <trkpt lat="49.93181" lon="1.09432">
        <ele>44.673</ele>
        <time>2019-11-16T13:53:22Z</time>
      </trkpt>
      <trkpt lat="49.93216" lon="1.09566">
        <ele>50.562</ele>
        <time>2019-11-16T13:53:55Z</time>
      </trkpt>
      <trkpt lat="49.93263" lon="1.09705">
        <ele>56.201</ele>
        <time>2019-11-16T13:54:25Z</time>
      </trkpt>
      <trkpt lat="49.9332" lon="1.09849">
        <ele>53.927</ele>
        <time>2019-11-16T13:54:55Z</time>
      </trkpt>
      <trkpt lat="49.93384" lon="1.10018">
        <ele>53.731</ele>
        <time>2019-11-16T13:55:28Z</time>
      </trkpt>
      <trkpt lat="49.9344" lon="1.10148">
        <ele>55.356</ele>
        <time>2019-11-16T13:55:58Z</time>
      </trkpt>
      <trkpt lat="49.93515" lon="1.10267">
        <ele>55.583</ele>
        <time>2019-11-16T13:56:31Z</time>
      </trkpt>
      <trkpt lat="49.93517" lon="1.1052">
        <ele>55.013</ele>
        <time>2019-11-16T13:57:01Z</time>
      </trkpt>
      <trkpt lat="49.93517" lon="1.10729">
        <ele>57.771</ele>
        <time>2019-11-16T13:57:31Z</time>
      </trkpt>
      <trkpt lat="49.93522" lon="1.10975">
        <ele>54.106</ele>
        <time>2019-11-16T13:58:04Z</time>
      </trkpt>
      <trkpt lat="49.93531" lon="1.11327">
        <ele>47.325</ele>
        <time>2019-11-16T13:58:34Z</time>
      </trkpt>
      <trkpt lat="49.93575" lon="1.11718">
        <ele>36.996</ele>
        <time>2019-11-16T13:59:07Z</time>
      </trkpt>
      <trkpt lat="49.93733" lon="1.11876">
        <ele>22.78</ele>
        <time>2019-11-16T13:59:37Z</time>
      </trkpt>
      <trkpt lat="49.93751" lon="1.12086">
        <ele>25.848</ele>
        <time>2019-11-16T14:00:10Z</time>
      </trkpt>
      <trkpt lat="49.9374" lon="1.12235">
        <ele>28.512</ele>
        <time>2019-11-16T14:00:40Z</time>
      </trkpt>
      <trkpt lat="49.93737" lon="1.12386">
        <ele>37.451</ele>
        <time>2019-11-16T14:01:10Z</time>
      </trkpt>
      <trkpt lat="49.93761" lon="1.12552">
        <ele>36.785</ele>
        <time>2019-11-16T14:01:43Z</time>
      </trkpt>
      <trkpt lat="49.938" lon="1.12693">
        <ele>38.759</ele>
        <time>2019-11-16T14:02:13Z</time>
      </trkpt>
      <trkpt lat="49.93874" lon="1.12749">
        <ele>54.768</ele>
        <time>2019-11-16T14:02:49Z</time>
      </trkpt>
      <trkpt lat="49.93892" lon="1.12864">
        <ele>50.993</ele>
        <time>2019-11-16T14:03:19Z</time>
      </trkpt>
      <trkpt lat="49.93894" lon="1.12967">
        <ele>48.047</ele>
        <time>2019-11-16T14:03:49Z</time>
      </trkpt>
      <trkpt lat="49.93898" lon="1.13068">
        <ele>56.51</ele>
        <time>2019-11-16T14:04:22Z</time>
      </trkpt>
      <trkpt lat="49.93917" lon="1.13167">
        <ele>59.524</ele>
        <time>2019-11-16T14:04:52Z</time>
      </trkpt>
      <trkpt lat="49.93945" lon="1.13282">
        <ele>68.491</ele>
        <time>2019-11-16T14:05:31Z</time>
      </trkpt>
      <trkpt lat="49.9396" lon="1.13367">
        <ele>69.744</ele>
        <time>2019-11-16T14:06:01Z</time>
      </trkpt>
      <trkpt lat="49.93963" lon="1.13466">
        <ele>69.295</ele>
        <time>2019-11-16T14:06:31Z</time>
      </trkpt>
      <trkpt lat="49.93967" lon="1.13564">
        <ele>74.646</ele>
        <time>2019-11-16T14:07:04Z</time>
      </trkpt>
      <trkpt lat="49.93968" lon="1.13664">
        <ele>80.821</ele>
        <time>2019-11-16T14:07:37Z</time>
      </trkpt>
      <trkpt lat="49.93949" lon="1.13792">
        <ele>72.608</ele>
        <time>2019-11-16T14:08:10Z</time>
      </trkpt>
      <trkpt lat="49.93947" lon="1.13895">
        <ele>74.672</ele>
        <time>2019-11-16T14:08:40Z</time>
      </trkpt>
      <trkpt lat="49.93983" lon="1.1397">
        <ele>79.448</ele>
        <time>2019-11-16T14:09:13Z</time>
      </trkpt>
      <trkpt lat="49.94021" lon="1.14048">
        <ele>82.968</ele>
        <time>2019-11-16T14:09:46Z</time>
      </trkpt>
      <trkpt lat="49.94034" lon="1.1416">
        <ele>83.081</ele>
        <time>2019-11-16T14:10:16Z</time>
      </trkpt>
      <trkpt lat="49.94036" lon="1.14297">
        <ele>85.649</ele>
        <time>2019-11-16T14:10:49Z</time>
      </trkpt>
      <trkpt lat="49.94056" lon="1.1442">
        <ele>86.289</ele>
        <time>2019-11-16T14:11:19Z</time>
      </trkpt>
      <trkpt lat="49.94106" lon="1.14519">
        <ele>86.272</ele>
        <time>2019-11-16T14:11:52Z</time>
      </trkpt>
      <trkpt lat="49.94176" lon="1.14594">
        <ele>86.916</ele>
        <time>2019-11-16T14:12:22Z</time>
      </trkpt>
      <trkpt lat="49.94235" lon="1.14704">
        <ele>87.841</ele>
        <time>2019-11-16T14:12:52Z</time>
      </trkpt>
      <trkpt lat="49.94286" lon="1.14829">
        <ele>89.643</ele>
        <time>2019-11-16T14:13:25Z</time>
      </trkpt>
      <trkpt lat="49.94351" lon="1.14932">
        <ele>91.601</ele>
        <time>2019-11-16T14:13:55Z</time>
      </trkpt>
      <trkpt lat="49.94437" lon="1.15052">
        <ele>86.233</ele>
        <time>2019-11-16T14:14:28Z</time>
      </trkpt>
      <trkpt lat="49.94503" lon="1.15178">
        <ele>86.81</ele>
        <time>2019-11-16T14:14:58Z</time>
      </trkpt>
      <trkpt lat="49.94574" lon="1.15288">
        <ele>88.029</ele>
        <time>2019-11-16T14:15:28Z</time>
      </trkpt>
      <trkpt lat="49.94642" lon="1.15409">
        <ele>91.383</ele>
        <time>2019-11-16T14:16:01Z</time>
      </trkpt>
      <trkpt lat="49.94694" lon="1.15518">
        <ele>92.217</ele>
        <time>2019-11-16T14:16:31Z</time>
      </trkpt>
      <trkpt lat="49.94755" lon="1.15669">
        <ele>96.716</ele>
        <time>2019-11-16T14:17:04Z</time>
      </trkpt>
      <trkpt lat="49.94788" lon="1.15827">
        <ele>99.348</ele>
        <time>2019-11-16T14:17:34Z</time>
      </trkpt>
      <trkpt lat="49.9483" lon="1.15994">
        <ele>98.668</ele>
        <time>2019-11-16T14:18:07Z</time>
      </trkpt>
      <trkpt lat="49.94861" lon="1.16127">
        <ele>103.242</ele>
        <time>2019-11-16T14:18:37Z</time>
      </trkpt>
      <trkpt lat="49.94884" lon="1.16268">
        <ele>104.319</ele>
        <time>2019-11-16T14:19:07Z</time>
      </trkpt>
      <trkpt lat="49.94914" lon="1.16435">
        <ele>106.245</ele>
        <time>2019-11-16T14:19:40Z</time>
      </trkpt>
      <trkpt lat="49.9493" lon="1.16587">
        <ele>105.325</ele>
        <time>2019-11-16T14:20:10Z</time>
      </trkpt>
      <trkpt lat="49.94964" lon="1.16787">
        <ele>107.705</ele>
        <time>2019-11-16T14:20:43Z</time>
      </trkpt>
      <trkpt lat="49.95054" lon="1.17023">
        <ele>99.585</ele>
        <time>2019-11-16T14:21:13Z</time>
      </trkpt>
      <trkpt lat="49.95134" lon="1.17206">
        <ele>86.764</ele>
        <time>2019-11-16T14:21:43Z</time>
      </trkpt>
      <trkpt lat="49.95237" lon="1.17465">
        <ele>85.793</ele>
        <time>2019-11-16T14:22:16Z</time>
      </trkpt>
      <trkpt lat="49.95271" lon="1.17622">
        <ele>87.082</ele>
        <time>2019-11-16T14:22:46Z</time>
      </trkpt>
      <trkpt lat="49.9531" lon="1.17736">
        <ele>92.102</ele>
        <time>2019-11-16T14:23:19Z</time>
      </trkpt>
      <trkpt lat="49.95355" lon="1.17851">
        <ele>97.844</ele>
        <time>2019-11-16T14:23:49Z</time>
      </trkpt>
      <trkpt lat="49.95393" lon="1.17997">
        <ele>96.039</ele>
        <time>2019-11-16T14:24:19Z</time>
      </trkpt>
      <trkpt lat="49.95424" lon="1.18155">
        <ele>98.037</ele>
        <time>2019-11-16T14:24:52Z</time>
      </trkpt>
      <trkpt lat="49.95452" lon="1.18291">
        <ele>100.82</ele>
        <time>2019-11-16T14:25:22Z</time>
      </trkpt>
      <trkpt lat="49.95472" lon="1.18445">
        <ele>105.612</ele>
        <time>2019-11-16T14:25:55Z</time>
      </trkpt>
      <trkpt lat="49.95486" lon="1.18594">
        <ele>107.743</ele>
        <time>2019-11-16T14:26:25Z</time>
      </trkpt>
      <trkpt lat="49.95515" lon="1.18749">
        <ele>108.15</ele>
        <time>2019-11-16T14:26:58Z</time>
      </trkpt>
      <trkpt lat="49.95526" lon="1.18913">
        <ele>104.368</ele>
        <time>2019-11-16T14:27:28Z</time>
      </trkpt>
      <trkpt lat="49.95546" lon="1.19101">
        <ele>103.48</ele>
        <time>2019-11-16T14:27:58Z</time>
      </trkpt>
      <trkpt lat="49.95569" lon="1.19306">
        <ele>103.092</ele>
        <time>2019-11-16T14:28:31Z</time>
      </trkpt>
      <trkpt lat="49.95569" lon="1.19466">
        <ele>104.961</ele>
        <time>2019-11-16T14:29:01Z</time>
      </trkpt>
      <trkpt lat="49.95579" lon="1.19632">
        <ele>105.635</ele>
        <time>2019-11-16T14:29:34Z</time>
      </trkpt>
      <trkpt lat="49.95599" lon="1.19794">
        <ele>108.186</ele>
        <time>2019-11-16T14:30:04Z</time>
      </trkpt>
      <trkpt lat="49.95619" lon="1.19955">
        <ele>107.776</ele>
        <time>2019-11-16T14:30:34Z</time>
      </trkpt>
      <trkpt lat="49.95642" lon="1.20149">
        <ele>109.533</ele>
        <time>2019-11-16T14:31:07Z</time>
      </trkpt>
      <trkpt lat="49.95655" lon="1.20334">
        <ele>108.711</ele>
        <time>2019-11-16T14:31:37Z</time>
      </trkpt>
      <trkpt lat="49.95685" lon="1.2053">
        <ele>109.574</ele>
        <time>2019-11-16T14:32:10Z</time>
      </trkpt>
      <trkpt lat="49.95759" lon="1.20681">
        <ele>107.677</ele>
        <time>2019-11-16T14:32:40Z</time>
      </trkpt>
      <trkpt lat="49.95798" lon="1.20869">
        <ele>108.051</ele>
        <time>2019-11-16T14:33:13Z</time>
      </trkpt>
      <trkpt lat="49.95776" lon="1.21056">
        <ele>109.717</ele>
        <time>2019-11-16T14:33:43Z</time>
      </trkpt>
      <trkpt lat="49.95763" lon="1.21246">
        <ele>108.453</ele>
        <time>2019-11-16T14:34:13Z</time>
      </trkpt>
      <trkpt lat="49.95748" lon="1.21445">
        <ele>110.762</ele>
        <time>2019-11-16T14:34:46Z</time>
      </trkpt>
      <trkpt lat="49.95735" lon="1.21615">
        <ele>113.37</ele>
        <time>2019-11-16T14:35:16Z</time>
      </trkpt>
      <trkpt lat="49.95736" lon="1.21788">
        <ele>122.175</ele>
        <time>2019-11-16T14:35:49Z</time>
      </trkpt>
      <trkpt lat="49.95736" lon="1.21956">
        <ele>127.782</ele>
        <time>2019-11-16T14:36:19Z</time>
      </trkpt>
      <trkpt lat="49.95737" lon="1.22114">
        <ele>123.278</ele>
        <time>2019-11-16T14:36:49Z</time>
      </trkpt>
      <trkpt lat="49.957" lon="1.22255">
        <ele>122.047</ele>
        <time>2019-11-16T14:37:25Z</time>
      </trkpt>
      <trkpt lat="49.95811" lon="1.22314">
        <ele>116.94</ele>
        <time>2019-11-16T14:37:55Z</time>
      </trkpt>
      <trkpt lat="49.95928" lon="1.22377">
        <ele>116.107</ele>
        <time>2019-11-16T14:38:28Z</time>
      </trkpt>
      <trkpt lat="49.96054" lon="1.2241">
        <ele>116.855</ele>
        <time>2019-11-16T14:38:58Z</time>
      </trkpt>
      <trkpt lat="49.96189" lon="1.22468">
        <ele>116.59</ele>
        <time>2019-11-16T14:39:28Z</time>
      </trkpt>
      <trkpt lat="49.96321" lon="1.22546">
        <ele>113.292</ele>
        <time>2019-11-16T14:40:01Z</time>
      </trkpt>
      <trkpt lat="49.96417" lon="1.22658">
        <ele>114.908</ele>
        <time>2019-11-16T14:40:31Z</time>
      </trkpt>
      <trkpt lat="49.96521" lon="1.22795">
        <ele>115.299</ele>
        <time>2019-11-16T14:41:04Z</time>
      </trkpt>
      <trkpt lat="49.96564" lon="1.2298">
        <ele>115.769</ele>
        <time>2019-11-16T14:41:34Z</time>
      </trkpt>
      <trkpt lat="49.96717" lon="1.23066">
        <ele>111.135</ele>
        <time>2019-11-16T14:42:07Z</time>
      </trkpt>
      <trkpt lat="49.96829" lon="1.23215">
        <ele>109.379</ele>
        <time>2019-11-16T14:42:37Z</time>
      </trkpt>
      <trkpt lat="49.96914" lon="1.23321">
        <ele>112.698</ele>
        <time>2019-11-16T14:43:07Z</time>
      </trkpt>
      <trkpt lat="49.97021" lon="1.23284">
        <ele>114.927</ele>
        <time>2019-11-16T14:43:40Z</time>
      </trkpt>
      <trkpt lat="49.97133" lon="1.23223">
        <ele>115.175</ele>
        <time>2019-11-16T14:44:10Z</time>
      </trkpt>
      <trkpt lat="49.9729" lon="1.23176">
        <ele>118.147</ele>
        <time>2019-11-16T14:44:43Z</time>
      </trkpt>
      <trkpt lat="49.97441" lon="1.2315">
        <ele>116.832</ele>
        <time>2019-11-16T14:45:13Z</time>
      </trkpt>
      <trkpt lat="49.97589" lon="1.23102">
        <ele>110.731</ele>
        <time>2019-11-16T14:45:43Z</time>
      </trkpt>
      <trkpt lat="49.97751" lon="1.23041">
        <ele>111.435</ele>
        <time>2019-11-16T14:46:16Z</time>
      </trkpt>
      <trkpt lat="49.97855" lon="1.2308">
        <ele>118.46</ele>
        <time>2019-11-16T14:46:46Z</time>
      </trkpt>
      <trkpt lat="49.9796" lon="1.23172">
        <ele>114.297</ele>
        <time>2019-11-16T14:47:19Z</time>
      </trkpt>
      <trkpt lat="49.97996" lon="1.23346">
        <ele>117.962</ele>
        <time>2019-11-16T14:47:49Z</time>
      </trkpt>
      <trkpt lat="49.98031" lon="1.23495">
        <ele>117.77</ele>
        <time>2019-11-16T14:48:19Z</time>
      </trkpt>
      <trkpt lat="49.98048" lon="1.23666">
        <ele>117.703</ele>
        <time>2019-11-16T14:48:52Z</time>
      </trkpt>
      <trkpt lat="49.9805" lon="1.23838">
        <ele>121.001</ele>
        <time>2019-11-16T14:49:22Z</time>
      </trkpt>
      <trkpt lat="49.98063" lon="1.24056">
        <ele>120.032</ele>
        <time>2019-11-16T14:49:55Z</time>
      </trkpt>
      <trkpt lat="49.98083" lon="1.24284">
        <ele>114.851</ele>
        <time>2019-11-16T14:50:25Z</time>
      </trkpt>
      <trkpt lat="49.98087" lon="1.24536">
        <ele>115.193</ele>
        <time>2019-11-16T14:50:58Z</time>
      </trkpt>
      <trkpt lat="49.98069" lon="1.2471">
        <ele>116.609</ele>
        <time>2019-11-16T14:51:28Z</time>
      </trkpt>
      <trkpt lat="49.98197" lon="1.24863">
        <ele>113.482</ele>
        <time>2019-11-16T14:51:58Z</time>
      </trkpt>
      <trkpt lat="49.98326" lon="1.25024">
        <ele>110.027</ele>
        <time>2019-11-16T14:52:31Z</time>
      </trkpt>
      <trkpt lat="49.98422" lon="1.25187">
        <ele>110.899</ele>
        <time>2019-11-16T14:53:01Z</time>
      </trkpt>
      <trkpt lat="49.98547" lon="1.25394">
        <ele>106.417</ele>
        <time>2019-11-16T14:53:34Z</time>
      </trkpt>
      <trkpt lat="49.9865" lon="1.2554">
        <ele>102.02</ele>
        <time>2019-11-16T14:54:04Z</time>
      </trkpt>
      <trkpt lat="49.98774" lon="1.25741">
        <ele>98.283</ele>
        <time>2019-11-16T14:54:34Z</time>
      </trkpt>
      <trkpt lat="49.98904" lon="1.25983">
        <ele>97.728</ele>
        <time>2019-11-16T14:55:07Z</time>
      </trkpt>
      <trkpt lat="49.99013" lon="1.26162">
        <ele>95.185</ele>
        <time>2019-11-16T14:55:37Z</time>
      </trkpt>
      <trkpt lat="49.99117" lon="1.26382">
        <ele>94.82</ele>
        <time>2019-11-16T14:56:10Z</time>
      </trkpt>
      <trkpt lat="49.99209" lon="1.26582">
        <ele>92.711</ele>
        <time>2019-11-16T14:56:40Z</time>
      </trkpt>
      <trkpt lat="49.99303" lon="1.2678">
        <ele>91.751</ele>
        <time>2019-11-16T14:57:10Z</time>
      </trkpt>
      <trkpt lat="49.99403" lon="1.26992">
        <ele>91.889</ele>
        <time>2019-11-16T14:57:43Z</time>
      </trkpt>
      <trkpt lat="49.99511" lon="1.27158">
        <ele>89.757</ele>
        <time>2019-11-16T14:58:13Z</time>
      </trkpt>
      <trkpt lat="49.99649" lon="1.2733">
        <ele>89.078</ele>
        <time>2019-11-16T14:58:46Z</time>
      </trkpt>
      <trkpt lat="49.99784" lon="1.275">
        <ele>88.175</ele>
        <time>2019-11-16T14:59:16Z</time>
      </trkpt>
      <trkpt lat="49.99939" lon="1.27692">
        <ele>86.756</ele>
        <time>2019-11-16T14:59:49Z</time>
      </trkpt>
      <trkpt lat="50.00057" lon="1.27847">
        <ele>87.126</ele>
        <time>2019-11-16T15:00:19Z</time>
      </trkpt>
      <trkpt lat="50.00079" lon="1.28048">
        <ele>87.113</ele>
        <time>2019-11-16T15:00:49Z</time>
      </trkpt>
      <trkpt lat="50.0009" lon="1.28274">
        <ele>83.689</ele>
        <time>2019-11-16T15:01:22Z</time>
      </trkpt>
      <trkpt lat="50.00221" lon="1.28301">
        <ele>81.338</ele>
        <time>2019-11-16T15:01:52Z</time>
      </trkpt>
      <trkpt lat="50.00384" lon="1.28357">
        <ele>79.801</ele>
        <time>2019-11-16T15:02:25Z</time>
      </trkpt>
      <trkpt lat="50.00515" lon="1.2832">
        <ele>76.937</ele>
        <time>2019-11-16T15:02:55Z</time>
      </trkpt>
      <trkpt lat="50.00677" lon="1.28309">
        <ele>70.783</ele>
        <time>2019-11-16T15:03:25Z</time>
      </trkpt>
      <trkpt lat="50.00838" lon="1.28411">
        <ele>71.28</ele>
        <time>2019-11-16T15:03:58Z</time>
      </trkpt>
      <trkpt lat="50.00982" lon="1.28529">
        <ele>69.739</ele>
        <time>2019-11-16T15:04:28Z</time>
      </trkpt>
      <trkpt lat="50.01142" lon="1.28773">
        <ele>66.476</ele>
        <time>2019-11-16T15:05:01Z</time>
      </trkpt>
      <trkpt lat="50.01214" lon="1.29056">
        <ele>55.665</ele>
        <time>2019-11-16T15:05:31Z</time>
      </trkpt>
      <trkpt lat="50.01226" lon="1.29106">
        <ele>53.832</ele>
        <time>2019-11-16T15:17:10Z</time>
      </trkpt>
      <trkpt lat="50.01317" lon="1.2944">
        <ele>45.033</ele>
        <time>2019-11-16T15:17:43Z</time>
      </trkpt>
      <trkpt lat="50.01329" lon="1.29844">
        <ele>32.5</ele>
        <time>2019-11-16T15:18:13Z</time>
      </trkpt>
      <trkpt lat="50.01306" lon="1.30215">
        <ele>24.407</ele>
        <time>2019-11-16T15:18:46Z</time>
      </trkpt>
      <trkpt lat="50.01274" lon="1.3047">
        <ele>21.715</ele>
        <time>2019-11-16T15:19:16Z</time>
      </trkpt>
      <trkpt lat="50.01288" lon="1.30656">
        <ele>17.743</ele>
        <time>2019-11-16T15:19:49Z</time>
      </trkpt>
      <trkpt lat="50.01376" lon="1.30927">
        <ele>14.292</ele>
        <time>2019-11-16T15:20:19Z</time>
      </trkpt>
      <trkpt lat="50.01456" lon="1.31129">
        <ele>10.791</ele>
        <time>2019-11-16T15:20:49Z</time>
      </trkpt>
      <trkpt lat="50.01518" lon="1.31376">
        <ele>15.293</ele>
        <time>2019-11-16T15:21:22Z</time>
      </trkpt>
      <trkpt lat="50.01575" lon="1.31581">
        <ele>16.413</ele>
        <time>2019-11-16T15:21:52Z</time>
      </trkpt>
      <trkpt lat="50.01652" lon="1.31795">
        <ele>13.508</ele>
        <time>2019-11-16T15:22:25Z</time>
      </trkpt>
      <trkpt lat="50.01686" lon="1.31963">
        <ele>16.341</ele>
        <time>2019-11-16T15:22:55Z</time>
      </trkpt>
      <trkpt lat="50.01754" lon="1.32014">
        <ele>23.352</ele>
        <time>2019-11-16T15:23:25Z</time>
      </trkpt>
      <trkpt lat="50.01839" lon="1.32048">
        <ele>26.167</ele>
        <time>2019-11-16T15:23:58Z</time>
      </trkpt>
      <trkpt lat="50.01916" lon="1.32048">
        <ele>29.592</ele>
        <time>2019-11-16T15:24:28Z</time>
      </trkpt>
      <trkpt lat="50.02011" lon="1.32068">
        <ele>28.181</ele>
        <time>2019-11-16T15:25:01Z</time>
      </trkpt>
      <trkpt lat="50.02087" lon="1.32179">
        <ele>26.653</ele>
        <time>2019-11-16T15:25:31Z</time>
      </trkpt>
      <trkpt lat="50.0213" lon="1.32391">
        <ele>22.889</ele>
        <time>2019-11-16T15:26:04Z</time>
      </trkpt>
      <trkpt lat="50.02214" lon="1.3254">
        <ele>23.142</ele>
        <time>2019-11-16T15:26:34Z</time>
      </trkpt>
      <trkpt lat="50.02291" lon="1.32724">
        <ele>27.947</ele>
        <time>2019-11-16T15:27:04Z</time>
      </trkpt>
      <trkpt lat="50.02366" lon="1.32915">
        <ele>27.375</ele>
        <time>2019-11-16T15:27:37Z</time>
      </trkpt>
      <trkpt lat="50.02392" lon="1.33096">
        <ele>29.024</ele>
        <time>2019-11-16T15:28:07Z</time>
      </trkpt>
      <trkpt lat="50.02395" lon="1.33313">
        <ele>27.494</ele>
        <time>2019-11-16T15:28:40Z</time>
      </trkpt>
      <trkpt lat="50.02397" lon="1.33492">
        <ele>29.749</ele>
        <time>2019-11-16T15:29:10Z</time>
      </trkpt>
      <trkpt lat="50.024" lon="1.33659">
        <ele>33.71</ele>
        <time>2019-11-16T15:29:40Z</time>
      </trkpt>
      <trkpt lat="50.02395" lon="1.33837">
        <ele>33.843</ele>
        <time>2019-11-16T15:30:13Z</time>
      </trkpt>
      <trkpt lat="50.02387" lon="1.34001">
        <ele>33.616</ele>
        <time>2019-11-16T15:30:43Z</time>
      </trkpt>
      <trkpt lat="50.02382" lon="1.34172">
        <ele>35.703</ele>
        <time>2019-11-16T15:31:16Z</time>
      </trkpt>
      <trkpt lat="50.02372" lon="1.34327">
        <ele>38.734</ele>
        <time>2019-11-16T15:31:46Z</time>
      </trkpt>
      <trkpt lat="50.02355" lon="1.34471">
        <ele>40.8</ele>
        <time>2019-11-16T15:32:16Z</time>
      </trkpt>
      <trkpt lat="50.02423" lon="1.34543">
        <ele>52.282</ele>
        <time>2019-11-16T15:32:49Z</time>
      </trkpt>
      <trkpt lat="50.02472" lon="1.34621">
        <ele>55.105</ele>
        <time>2019-11-16T15:33:19Z</time>
      </trkpt>
      <trkpt lat="50.02526" lon="1.3473">
        <ele>54.177</ele>
        <time>2019-11-16T15:33:52Z</time>
      </trkpt>
      <trkpt lat="50.02589" lon="1.34794">
        <ele>56.45</ele>
        <time>2019-11-16T15:34:22Z</time>
      </trkpt>
      <trkpt lat="50.02665" lon="1.34838">
        <ele>63.317</ele>
        <time>2019-11-16T15:34:55Z</time>
      </trkpt>
      <trkpt lat="50.02733" lon="1.34875">
        <ele>71.119</ele>
        <time>2019-11-16T15:35:25Z</time>
      </trkpt>
      <trkpt lat="50.02815" lon="1.34919">
        <ele>74.354</ele>
        <time>2019-11-16T15:35:55Z</time>
      </trkpt>
      <trkpt lat="50.02892" lon="1.34996">
        <ele>73.051</ele>
        <time>2019-11-16T15:36:28Z</time>
      </trkpt>
      <trkpt lat="50.02951" lon="1.351">
        <ele>76.162</ele>
        <time>2019-11-16T15:36:58Z</time>
      </trkpt>
      <trkpt lat="50.02994" lon="1.35229">
        <ele>80.247</ele>
        <time>2019-11-16T15:37:31Z</time>
      </trkpt>
      <trkpt lat="50.03034" lon="1.35355">
        <ele>71.828</ele>
        <time>2019-11-16T15:38:01Z</time>
      </trkpt>
      <trkpt lat="50.03104" lon="1.35461">
        <ele>74.781</ele>
        <time>2019-11-16T15:38:31Z</time>
      </trkpt>
      <trkpt lat="50.03204" lon="1.35597">
        <ele>74.957</ele>
        <time>2019-11-16T15:39:04Z</time>
      </trkpt>
      <trkpt lat="50.03309" lon="1.35736">
        <ele>72.346</ele>
        <time>2019-11-16T15:39:34Z</time>
      </trkpt>
      <trkpt lat="50.03427" lon="1.35898">
        <ele>71.324</ele>
        <time>2019-11-16T15:40:07Z</time>
      </trkpt>
      <trkpt lat="50.03514" lon="1.36016">
        <ele>71.224</ele>
        <time>2019-11-16T15:40:37Z</time>
      </trkpt>
      <trkpt lat="50.03591" lon="1.36127">
        <ele>76.911</ele>
        <time>2019-11-16T15:41:07Z</time>
      </trkpt>
      <trkpt lat="50.03661" lon="1.36271">
        <ele>78.12</ele>
        <time>2019-11-16T15:41:40Z</time>
      </trkpt>
      <trkpt lat="50.03749" lon="1.3635">
        <ele>87.371</ele>
        <time>2019-11-16T15:42:10Z</time>
      </trkpt>
      <trkpt lat="50.03853" lon="1.36389">
        <ele>92.453</ele>
        <time>2019-11-16T15:42:43Z</time>
      </trkpt>
      <trkpt lat="50.0396" lon="1.36438">
        <ele>93.36</ele>
        <time>2019-11-16T15:43:13Z</time>
      </trkpt>
      <trkpt lat="50.04069" lon="1.36464">
        <ele>92.366</ele>
        <time>2019-11-16T15:43:46Z</time>
      </trkpt>
      <trkpt lat="50.04163" lon="1.36484">
        <ele>94.401</ele>
        <time>2019-11-16T15:44:16Z</time>
      </trkpt>
      <trkpt lat="50.04257" lon="1.36506">
        <ele>97.053</ele>
        <time>2019-11-16T15:44:46Z</time>
      </trkpt>
      <trkpt lat="50.0436" lon="1.3653">
        <ele>98.486</ele>
        <time>2019-11-16T15:45:19Z</time>
      </trkpt>
      <trkpt lat="50.04457" lon="1.36551">
        <ele>95.381</ele>
        <time>2019-11-16T15:45:49Z</time>
      </trkpt>
      <trkpt lat="50.0456" lon="1.36574">
        <ele>96.02</ele>
        <time>2019-11-16T15:46:22Z</time>
      </trkpt>
      <trkpt lat="50.04647" lon="1.36597">
        <ele>97.954</ele>
        <time>2019-11-16T15:46:52Z</time>
      </trkpt>
      <trkpt lat="50.0473" lon="1.36622">
        <ele>101.149</ele>
        <time>2019-11-16T15:47:22Z</time>
      </trkpt>
      <trkpt lat="50.04831" lon="1.36653">
        <ele>103.567</ele>
        <time>2019-11-16T15:47:55Z</time>
      </trkpt>
      <trkpt lat="50.04927" lon="1.3668">
        <ele>106.23</ele>
        <time>2019-11-16T15:48:25Z</time>
      </trkpt>
      <trkpt lat="50.05022" lon="1.36715">
        <ele>103.565</ele>
        <time>2019-11-16T15:48:58Z</time>
      </trkpt>
      <trkpt lat="50.05127" lon="1.36749">
        <ele>103.6</ele>
        <time>2019-11-16T15:49:28Z</time>
      </trkpt>
      <trkpt lat="50.05255" lon="1.36857">
        <ele>99.059</ele>
        <time>2019-11-16T15:49:58Z</time>
      </trkpt>
      <trkpt lat="50.05405" lon="1.37039">
        <ele>86.174</ele>
        <time>2019-11-16T15:50:31Z</time>
      </trkpt>
      <trkpt lat="50.05503" lon="1.37241">
        <ele>73.099</ele>
        <time>2019-11-16T15:51:01Z</time>
      </trkpt>
      <trkpt lat="50.05499" lon="1.37225">
        <ele>71.591</ele>
        <time>2019-11-16T15:51:52Z</time>
      </trkpt>
      <trkpt lat="50.05515" lon="1.37134">
        <ele>71.402</ele>
        <time>2019-11-16T15:52:22Z</time>
      </trkpt>
      <trkpt lat="50.05715" lon="1.37174">
        <ele>66.949</ele>
        <time>2019-11-16T15:52:55Z</time>
      </trkpt>
      <trkpt lat="50.0589" lon="1.37211">
        <ele>37.957</ele>
        <time>2019-11-16T15:53:25Z</time>
      </trkpt>
      <trkpt lat="50.06034" lon="1.37255">
        <ele>30.923</ele>
        <time>2019-11-16T15:53:55Z</time>
      </trkpt>
      <trkpt lat="50.06019" lon="1.3747">
        <ele>9.596</ele>
        <time>2019-11-16T15:54:28Z</time>
      </trkpt>
      <trkpt lat="50.05986" lon="1.37663">
        <ele>6.719</ele>
        <time>2019-11-16T15:54:58Z</time>
      </trkpt>
      <trkpt lat="50.06019" lon="1.37733">
        <ele>15.639</ele>
        <time>2019-11-16T15:55:40Z</time>
      </trkpt>
      <trkpt lat="50.06039" lon="1.37704">
        <ele>11.325</ele>
        <time>2019-11-16T15:56:52Z</time>
      </trkpt>
      <trkpt lat="50.0605" lon="1.37557">
        <ele>8.444</ele>
        <time>2019-11-16T15:57:22Z</time>
      </trkpt>
      <trkpt lat="50.06134" lon="1.37599">
        <ele>19.12</ele>
        <time>2019-11-16T15:57:55Z</time>
      </trkpt>
      <trkpt lat="50.06167" lon="1.37744">
        <ele>11.394</ele>
        <time>2019-11-16T15:58:25Z</time>
      </trkpt>
      <trkpt lat="50.06225" lon="1.37733">
        <ele>14.456</ele>
        <time>2019-11-16T15:58:58Z</time>
      </trkpt>
      <trkpt lat="50.06235" lon="1.37593">
        <ele>14.682</ele>
        <time>2019-11-16T15:59:28Z</time>
      </trkpt>
      <trkpt lat="50.06323" lon="1.37604">
        <ele>14.464</ele>
        <time>2019-11-16T15:59:58Z</time>
      </trkpt>
      <trkpt lat="50.06388" lon="1.37803">
        <ele>11.534</ele>
        <time>2019-11-16T16:00:31Z</time>
      </trkpt>
      <trkpt lat="50.06455" lon="1.37964">
        <ele>10.996</ele>
        <time>2019-11-16T16:01:01Z</time>
      </trkpt>
      <trkpt lat="50.06541" lon="1.38114">
        <ele>11.016</ele>
        <time>2019-11-16T16:01:34Z</time>
      </trkpt>
      <trkpt lat="50.06612" lon="1.38244">
        <ele>8.044</ele>
        <time>2019-11-16T16:02:04Z</time>
      </trkpt>
      <trkpt lat="50.06705" lon="1.38384">
        <ele>11.127</ele>
        <time>2019-11-16T16:02:37Z</time>
      </trkpt>
      <trkpt lat="50.06802" lon="1.38494">
        <ele>13.654</ele>
        <time>2019-11-16T16:03:07Z</time>
      </trkpt>
      <trkpt lat="50.06846" lon="1.38548">
        <ele>13.588</ele>
        <time>2019-11-16T16:04:19Z</time>
      </trkpt>
      <trkpt lat="50.06833" lon="1.38562">
        <ele>5.049</ele>
        <time>2019-11-16T16:05:04Z</time>
      </trkpt>
    </trkseg>
  </trk>
  <trk>
    <name><![CDATA[Tracé 20191015-091825]]></name>
    <trkseg>
      <trkpt lat="42.96569" lon="9.34882">
        <ele>16.2</ele>
        <time>2019-10-15T07:18:37Z</time>
      </trkpt>
      <trkpt lat="42.9657" lon="9.34882">
        <ele>15.717</ele>
        <time>2019-10-15T07:20:52Z</time>
      </trkpt>
      <trkpt lat="42.96494" lon="9.34857">
        <ele>9.641</ele>
        <time>2019-10-15T07:29:58Z</time>
      </trkpt>
      <trkpt lat="42.96393" lon="9.34794">
        <ele>9.759</ele>
        <time>2019-10-15T07:30:31Z</time>
      </trkpt>
      <trkpt lat="42.96323" lon="9.34934">
        <ele>7.181</ele>
        <time>2019-10-15T07:31:04Z</time>
      </trkpt>
      <trkpt lat="42.96208" lon="9.34971">
        <ele>3.472</ele>
        <time>2019-10-15T07:31:37Z</time>
      </trkpt>
      <trkpt lat="42.96127" lon="9.35105">
        <ele>9.273</ele>
        <time>2019-10-15T07:32:10Z</time>
      </trkpt>
      <trkpt lat="42.96067" lon="9.35214">
        <ele>11.064</ele>
        <time>2019-10-15T07:32:43Z</time>
      </trkpt>
      <trkpt lat="42.96018" lon="9.35285">
        <ele>18.654</ele>
        <time>2019-10-15T07:33:16Z</time>
      </trkpt>
      <trkpt lat="42.96018" lon="9.35381">
        <ele>21.846</ele>
        <time>2019-10-15T07:33:49Z</time>
      </trkpt>
      <trkpt lat="42.95967" lon="9.35448">
        <ele>25.785</ele>
        <time>2019-10-15T07:34:22Z</time>
      </trkpt>
      <trkpt lat="42.9591" lon="9.35445">
        <ele>28.797</ele>
        <time>2019-10-15T07:34:55Z</time>
      </trkpt>
      <trkpt lat="42.95865" lon="9.35376">
        <ele>36.338</ele>
        <time>2019-10-15T07:35:28Z</time>
      </trkpt>
      <trkpt lat="42.95806" lon="9.35387">
        <ele>42.418</ele>
        <time>2019-10-15T07:36:01Z</time>
      </trkpt>
      <trkpt lat="42.95762" lon="9.3536">
        <ele>44.178</ele>
        <time>2019-10-15T07:36:34Z</time>
      </trkpt>
      <trkpt lat="42.95717" lon="9.35254">
        <ele>47.823</ele>
        <time>2019-10-15T07:37:07Z</time>
      </trkpt>
      <trkpt lat="42.95694" lon="9.35157">
        <ele>45.962</ele>
        <time>2019-10-15T07:37:40Z</time>
      </trkpt>
      <trkpt lat="42.95625" lon="9.35102">
        <ele>53.452</ele>
        <time>2019-10-15T07:38:16Z</time>
      </trkpt>
      <trkpt lat="42.95552" lon="9.35067">
        <ele>62.554</ele>
        <time>2019-10-15T07:38:49Z</time>
      </trkpt>
      <trkpt lat="42.95491" lon="9.35135">
        <ele>68.564</ele>
        <time>2019-10-15T07:39:22Z</time>
      </trkpt>
      <trkpt lat="42.95487" lon="9.35235">
        <ele>66.535</ele>
        <time>2019-10-15T07:39:55Z</time>
      </trkpt>
      <trkpt lat="42.95463" lon="9.35333">
        <ele>63.761</ele>
        <time>2019-10-15T07:40:28Z</time>
      </trkpt>
      <trkpt lat="42.95511" lon="9.3541">
        <ele>67.901</ele>
        <time>2019-10-15T07:41:01Z</time>
      </trkpt>
      <trkpt lat="42.9558" lon="9.35396">
        <ele>75.268</ele>
        <time>2019-10-15T07:41:34Z</time>
      </trkpt>
      <trkpt lat="42.95629" lon="9.35419">
        <ele>75.247</ele>
        <time>2019-10-15T07:42:07Z</time>
      </trkpt>
      <trkpt lat="42.95563" lon="9.35465">
        <ele>82.288</ele>
        <time>2019-10-15T07:42:40Z</time>
      </trkpt>
      <trkpt lat="42.955" lon="9.35491">
        <ele>87.983</ele>
        <time>2019-10-15T07:43:13Z</time>
      </trkpt>
      <trkpt lat="42.95448" lon="9.35432">
        <ele>91.934</ele>
        <time>2019-10-15T07:43:46Z</time>
      </trkpt>
      <trkpt lat="42.95391" lon="9.35456">
        <ele>96.462</ele>
        <time>2019-10-15T07:44:19Z</time>
      </trkpt>
      <trkpt lat="42.95375" lon="9.35488">
        <ele>102.127</ele>
        <time>2019-10-15T07:44:55Z</time>
      </trkpt>
      <trkpt lat="42.95367" lon="9.35573">
        <ele>105.325</ele>
        <time>2019-10-15T07:45:31Z</time>
      </trkpt>
      <trkpt lat="42.95325" lon="9.35623">
        <ele>106.786</ele>
        <time>2019-10-15T07:46:04Z</time>
      </trkpt>
      <trkpt lat="42.95272" lon="9.35647">
        <ele>110.094</ele>
        <time>2019-10-15T07:46:37Z</time>
      </trkpt>
      <trkpt lat="42.95229" lon="9.35724">
        <ele>122.991</ele>
        <time>2019-10-15T07:47:22Z</time>
      </trkpt>
      <trkpt lat="42.95218" lon="9.35804">
        <ele>127.266</ele>
        <time>2019-10-15T07:47:58Z</time>
      </trkpt>
      <trkpt lat="42.95171" lon="9.35831">
        <ele>130.478</ele>
        <time>2019-10-15T07:48:34.001Z</time>
      </trkpt>
      <trkpt lat="42.95145" lon="9.35822">
        <ele>134.532</ele>
        <time>2019-10-15T07:49:13.001Z</time>
      </trkpt>
      <trkpt lat="42.95115" lon="9.35894">
        <ele>140.892</ele>
        <time>2019-10-15T07:49:52.001Z</time>
      </trkpt>
      <trkpt lat="42.95077" lon="9.35951">
        <ele>146.382</ele>
        <time>2019-10-15T07:50:25.001Z</time>
      </trkpt>
      <trkpt lat="42.95009" lon="9.35988">
        <ele>148.663</ele>
        <time>2019-10-15T07:51:04.001Z</time>
      </trkpt>
      <trkpt lat="42.94981" lon="9.36077">
        <ele>146.668</ele>
        <time>2019-10-15T07:51:37.001Z</time>
      </trkpt>
      <trkpt lat="42.94983" lon="9.3616">
        <ele>153.919</ele>
        <time>2019-10-15T07:52:13.001Z</time>
      </trkpt>
      <trkpt lat="42.94974" lon="9.362">
        <ele>163.494</ele>
        <time>2019-10-15T07:52:46.001Z</time>
      </trkpt>
      <trkpt lat="42.94935" lon="9.36134">
        <ele>164.644</ele>
        <time>2019-10-15T07:53:22.001Z</time>
      </trkpt>
      <trkpt lat="42.94885" lon="9.36184">
        <ele>164.409</ele>
        <time>2019-10-15T07:53:55.001Z</time>
      </trkpt>
      <trkpt lat="42.94865" lon="9.36262">
        <ele>170.798</ele>
        <time>2019-10-15T07:54:28.001Z</time>
      </trkpt>
      <trkpt lat="42.94833" lon="9.36338">
        <ele>174.104</ele>
        <time>2019-10-15T07:55:01.001Z</time>
      </trkpt>
      <trkpt lat="42.9481" lon="9.36418">
        <ele>175.501</ele>
        <time>2019-10-15T07:55:34.001Z</time>
      </trkpt>
      <trkpt lat="42.94754" lon="9.36477">
        <ele>182.625</ele>
        <time>2019-10-15T07:56:07.001Z</time>
      </trkpt>
      <trkpt lat="42.9461" lon="9.36443">
        <ele>186.489</ele>
        <time>2019-10-15T07:56:40.001Z</time>
      </trkpt>
      <trkpt lat="42.94537" lon="9.36391">
        <ele>185.688</ele>
        <time>2019-10-15T07:57:16Z</time>
      </trkpt>
      <trkpt lat="42.94484" lon="9.36464">
        <ele>185.423</ele>
        <time>2019-10-15T07:57:49.001Z</time>
      </trkpt>
      <trkpt lat="42.9445" lon="9.36542">
        <ele>188.664</ele>
        <time>2019-10-15T07:58:22.001Z</time>
      </trkpt>
      <trkpt lat="42.94464" lon="9.36618">
        <ele>189.915</ele>
        <time>2019-10-15T07:58:55.001Z</time>
      </trkpt>
      <trkpt lat="42.94402" lon="9.36706">
        <ele>195.041</ele>
        <time>2019-10-15T07:59:28.001Z</time>
      </trkpt>
      <trkpt lat="42.94341" lon="9.36792">
        <ele>192.787</ele>
        <time>2019-10-15T08:00:01.001Z</time>
      </trkpt>
      <trkpt lat="42.94308" lon="9.36921">
        <ele>192.89</ele>
        <time>2019-10-15T08:01:31.001Z</time>
      </trkpt>
      <trkpt lat="42.94204" lon="9.37072">
        <ele>193.228</ele>
        <time>2019-10-15T08:02:04.001Z</time>
      </trkpt>
      <trkpt lat="42.94188" lon="9.36923">
        <ele>180.986</ele>
        <time>2019-10-15T08:02:37.001Z</time>
      </trkpt>
      <trkpt lat="42.94144" lon="9.36707">
        <ele>177.883</ele>
        <time>2019-10-15T08:03:10.001Z</time>
      </trkpt>
      <trkpt lat="42.94102" lon="9.36516">
        <ele>186.017</ele>
        <time>2019-10-15T08:03:43.001Z</time>
      </trkpt>
      <trkpt lat="42.94038" lon="9.36429">
        <ele>186.203</ele>
        <time>2019-10-15T08:06:19.001Z</time>
      </trkpt>
      <trkpt lat="42.93923" lon="9.36227">
        <ele>179.644</ele>
        <time>2019-10-15T08:06:52.001Z</time>
      </trkpt>
      <trkpt lat="42.93801" lon="9.36061">
        <ele>167.754</ele>
        <time>2019-10-15T08:07:25.001Z</time>
      </trkpt>
      <trkpt lat="42.93719" lon="9.3577">
        <ele>147.535</ele>
        <time>2019-10-15T08:07:58.001Z</time>
      </trkpt>
      <trkpt lat="42.93511" lon="9.35456">
        <ele>131.273</ele>
        <time>2019-10-15T08:08:31.001Z</time>
      </trkpt>
      <trkpt lat="42.93297" lon="9.35209">
        <ele>117.109</ele>
        <time>2019-10-15T08:09:04.001Z</time>
      </trkpt>
      <trkpt lat="42.93103" lon="9.35246">
        <ele>102.692</ele>
        <time>2019-10-15T08:09:40.001Z</time>
      </trkpt>
      <trkpt lat="42.93082" lon="9.35385">
        <ele>100.568</ele>
        <time>2019-10-15T08:10:40.001Z</time>
      </trkpt>
      <trkpt lat="42.92978" lon="9.35616">
        <ele>89.69</ele>
        <time>2019-10-15T08:11:13.001Z</time>
      </trkpt>
      <trkpt lat="42.92836" lon="9.3579">
        <ele>71.699</ele>
        <time>2019-10-15T08:11:46.001Z</time>
      </trkpt>
      <trkpt lat="42.9294" lon="9.35954">
        <ele>62.264</ele>
        <time>2019-10-15T08:12:19.001Z</time>
      </trkpt>
      <trkpt lat="42.92918" lon="9.36238">
        <ele>49.256</ele>
        <time>2019-10-15T08:12:52.001Z</time>
      </trkpt>
      <trkpt lat="42.92706" lon="9.36081">
        <ele>31.998</ele>
        <time>2019-10-15T08:13:25.001Z</time>
      </trkpt>
      <trkpt lat="42.92573" lon="9.36295">
        <ele>21.411</ele>
        <time>2019-10-15T08:13:58.001Z</time>
      </trkpt>
      <trkpt lat="42.9249" lon="9.36534">
        <ele>8.479</ele>
        <time>2019-10-15T08:14:31.001Z</time>
      </trkpt>
      <trkpt lat="42.92463" lon="9.36344">
        <ele>12.154</ele>
        <time>2019-10-15T08:15:04.001Z</time>
      </trkpt>
      <trkpt lat="42.92377" lon="9.36368">
        <ele>14.751</ele>
        <time>2019-10-15T08:15:37.001Z</time>
      </trkpt>
      <trkpt lat="42.92309" lon="9.36364">
        <ele>21.081</ele>
        <time>2019-10-15T08:16:10.001Z</time>
      </trkpt>
      <trkpt lat="42.92368" lon="9.36286">
        <ele>27.262</ele>
        <time>2019-10-15T08:16:43.001Z</time>
      </trkpt>
      <trkpt lat="42.92348" lon="9.36176">
        <ele>30.566</ele>
        <time>2019-10-15T08:17:16Z</time>
      </trkpt>
      <trkpt lat="42.92303" lon="9.36081">
        <ele>33.396</ele>
        <time>2019-10-15T08:17:49.001Z</time>
      </trkpt>
      <trkpt lat="42.92216" lon="9.36097">
        <ele>31.718</ele>
        <time>2019-10-15T08:18:22.001Z</time>
      </trkpt>
      <trkpt lat="42.92129" lon="9.36132">
        <ele>36.307</ele>
        <time>2019-10-15T08:18:58.001Z</time>
      </trkpt>
      <trkpt lat="42.92137" lon="9.36024">
        <ele>41.634</ele>
        <time>2019-10-15T08:19:31.001Z</time>
      </trkpt>
      <trkpt lat="42.92056" lon="9.36013">
        <ele>44.215</ele>
        <time>2019-10-15T08:20:04.001Z</time>
      </trkpt>
      <trkpt lat="42.9203" lon="9.35966">
        <ele>48.781</ele>
        <time>2019-10-15T08:20:37.001Z</time>
      </trkpt>
      <trkpt lat="42.92114" lon="9.35882">
        <ele>49.275</ele>
        <time>2019-10-15T08:21:10.001Z</time>
      </trkpt>
      <trkpt lat="42.92192" lon="9.35799">
        <ele>48.813</ele>
        <time>2019-10-15T08:21:43.001Z</time>
      </trkpt>
      <trkpt lat="42.92086" lon="9.3577">
        <ele>50.056</ele>
        <time>2019-10-15T08:22:16Z</time>
      </trkpt>
      <trkpt lat="42.92017" lon="9.35677">
        <ele>52.355</ele>
        <time>2019-10-15T08:22:49.001Z</time>
      </trkpt>
      <trkpt lat="42.91923" lon="9.35651">
        <ele>52.844</ele>
        <time>2019-10-15T08:23:22.001Z</time>
      </trkpt>
      <trkpt lat="42.91832" lon="9.3567">
        <ele>56.408</ele>
        <time>2019-10-15T08:23:55.001Z</time>
      </trkpt>
      <trkpt lat="42.91769" lon="9.35758">
        <ele>57.654</ele>
        <time>2019-10-15T08:24:28.001Z</time>
      </trkpt>
      <trkpt lat="42.91717" lon="9.35855">
        <ele>57.064</ele>
        <time>2019-10-15T08:25:01.001Z</time>
      </trkpt>
      <trkpt lat="42.91659" lon="9.35946">
        <ele>58.423</ele>
        <time>2019-10-15T08:25:34.001Z</time>
      </trkpt>
      <trkpt lat="42.91625" lon="9.35913">
        <ele>68.132</ele>
        <time>2019-10-15T08:26:07.001Z</time>
      </trkpt>
      <trkpt lat="42.91641" lon="9.3581">
        <ele>74.936</ele>
        <time>2019-10-15T08:26:40.001Z</time>
      </trkpt>
      <trkpt lat="42.91588" lon="9.35829">
        <ele>76.504</ele>
        <time>2019-10-15T08:27:13.001Z</time>
      </trkpt>
      <trkpt lat="42.91529" lon="9.35906">
        <ele>80.102</ele>
        <time>2019-10-15T08:27:49.001Z</time>
      </trkpt>
      <trkpt lat="42.91454" lon="9.35974">
        <ele>83.343</ele>
        <time>2019-10-15T08:28:31.001Z</time>
      </trkpt>
      <trkpt lat="42.91392" lon="9.3603">
        <ele>89.904</ele>
        <time>2019-10-15T08:29:07.001Z</time>
      </trkpt>
      <trkpt lat="42.91395" lon="9.35962">
        <ele>102.502</ele>
        <time>2019-10-15T08:30:01.001Z</time>
      </trkpt>
      <trkpt lat="42.91436" lon="9.35871">
        <ele>106.439</ele>
        <time>2019-10-15T08:30:40.001Z</time>
      </trkpt>
      <trkpt lat="42.91449" lon="9.35758">
        <ele>109.052</ele>
        <time>2019-10-15T08:31:13.001Z</time>
      </trkpt>
      <trkpt lat="42.91467" lon="9.35655">
        <ele>115.566</ele>
        <time>2019-10-15T08:31:46.001Z</time>
      </trkpt>
      <trkpt lat="42.91432" lon="9.35581">
        <ele>119.839</ele>
        <time>2019-10-15T08:32:19.001Z</time>
      </trkpt>
      <trkpt lat="42.91427" lon="9.355">
        <ele>121.033</ele>
        <time>2019-10-15T08:32:58.001Z</time>
      </trkpt>
      <trkpt lat="42.91474" lon="9.35417">
        <ele>121.518</ele>
        <time>2019-10-15T08:33:31.001Z</time>
      </trkpt>
      <trkpt lat="42.91507" lon="9.35328">
        <ele>123.564</ele>
        <time>2019-10-15T08:34:04.001Z</time>
      </trkpt>
      <trkpt lat="42.9147" lon="9.35262">
        <ele>125.147</ele>
        <time>2019-10-15T08:34:40.001Z</time>
      </trkpt>
      <trkpt lat="42.9139" lon="9.35215">
        <ele>131.387</ele>
        <time>2019-10-15T08:35:13.001Z</time>
      </trkpt>
      <trkpt lat="42.91305" lon="9.35211">
        <ele>129.309</ele>
        <time>2019-10-15T08:35:46.001Z</time>
      </trkpt>
      <trkpt lat="42.91234" lon="9.35272">
        <ele>131.239</ele>
        <time>2019-10-15T08:36:19.001Z</time>
      </trkpt>
      <trkpt lat="42.91156" lon="9.35319">
        <ele>135.605</ele>
        <time>2019-10-15T08:36:55.001Z</time>
      </trkpt>
      <trkpt lat="42.91085" lon="9.35314">
        <ele>144.653</ele>
        <time>2019-10-15T08:37:28.001Z</time>
      </trkpt>
      <trkpt lat="42.91003" lon="9.3531">
        <ele>152.395</ele>
        <time>2019-10-15T08:38:07.001Z</time>
      </trkpt>
      <trkpt lat="42.90908" lon="9.35341">
        <ele>150.734</ele>
        <time>2019-10-15T08:38:43.001Z</time>
      </trkpt>
      <trkpt lat="42.90882" lon="9.35268">
        <ele>158.885</ele>
        <time>2019-10-15T08:39:25.001Z</time>
      </trkpt>
      <trkpt lat="42.90846" lon="9.35155">
        <ele>155.093</ele>
        <time>2019-10-15T08:39:58.001Z</time>
      </trkpt>
      <trkpt lat="42.90774" lon="9.35122">
        <ele>153.072</ele>
        <time>2019-10-15T08:40:34.001Z</time>
      </trkpt>
      <trkpt lat="42.90756" lon="9.35116">
        <ele>150.669</ele>
        <time>2019-10-15T09:02:34.001Z</time>
      </trkpt>
      <trkpt lat="42.90754" lon="9.35112">
        <ele>149.218</ele>
        <time>2019-10-15T09:13:46.001Z</time>
      </trkpt>
      <trkpt lat="42.90747" lon="9.34982">
        <ele>145.031</ele>
        <time>2019-10-15T09:15:10.001Z</time>
      </trkpt>
      <trkpt lat="42.90642" lon="9.34893">
        <ele>143.39</ele>
        <time>2019-10-15T09:15:43.001Z</time>
      </trkpt>
      <trkpt lat="42.90627" lon="9.34807">
        <ele>142.863</ele>
        <time>2019-10-15T09:16:16Z</time>
      </trkpt>
      <trkpt lat="42.90697" lon="9.34601">
        <ele>141.204</ele>
        <time>2019-10-15T09:16:49.001Z</time>
      </trkpt>
      <trkpt lat="42.90778" lon="9.34396">
        <ele>139.825</ele>
        <time>2019-10-15T09:17:22.001Z</time>
      </trkpt>
      <trkpt lat="42.90656" lon="9.34323">
        <ele>141.931</ele>
        <time>2019-10-15T09:17:55.001Z</time>
      </trkpt>
      <trkpt lat="42.90612" lon="9.34165">
        <ele>149.249</ele>
        <time>2019-10-15T09:18:28.001Z</time>
      </trkpt>
      <trkpt lat="42.90591" lon="9.33972">
        <ele>138.139</ele>
        <time>2019-10-15T09:19:01.001Z</time>
      </trkpt>
      <trkpt lat="42.90444" lon="9.33914">
        <ele>139.514</ele>
        <time>2019-10-15T09:19:34.001Z</time>
      </trkpt>
      <trkpt lat="42.90399" lon="9.3385">
        <ele>140.722</ele>
        <time>2019-10-15T09:20:07.001Z</time>
      </trkpt>
      <trkpt lat="42.90378" lon="9.33623">
        <ele>137.575</ele>
        <time>2019-10-15T09:20:43.001Z</time>
      </trkpt>
      <trkpt lat="42.90339" lon="9.3342">
        <ele>135.263</ele>
        <time>2019-10-15T09:21:16Z</time>
      </trkpt>
      <trkpt lat="42.90293" lon="9.33215">
        <ele>136.094</ele>
        <time>2019-10-15T09:21:49.001Z</time>
      </trkpt>
      <trkpt lat="42.90188" lon="9.33032">
        <ele>138.145</ele>
        <time>2019-10-15T09:22:22.001Z</time>
      </trkpt>
      <trkpt lat="42.9004" lon="9.32954">
        <ele>134.749</ele>
        <time>2019-10-15T09:22:55.001Z</time>
      </trkpt>
      <trkpt lat="42.89908" lon="9.32978">
        <ele>130.374</ele>
        <time>2019-10-15T09:23:28.001Z</time>
      </trkpt>
      <trkpt lat="42.89867" lon="9.32767">
        <ele>129.886</ele>
        <time>2019-10-15T09:24:01.001Z</time>
      </trkpt>
      <trkpt lat="42.89865" lon="9.3256">
        <ele>132.656</ele>
        <time>2019-10-15T09:24:34.001Z</time>
      </trkpt>
      <trkpt lat="42.89851" lon="9.32447">
        <ele>130.053</ele>
        <time>2019-10-15T09:26:43.001Z</time>
      </trkpt>
      <trkpt lat="42.89754" lon="9.32438">
        <ele>134.244</ele>
        <time>2019-10-15T09:27:16Z</time>
      </trkpt>
      <trkpt lat="42.89654" lon="9.32388">
        <ele>142.664</ele>
        <time>2019-10-15T09:27:49.001Z</time>
      </trkpt>
      <trkpt lat="42.89543" lon="9.32332">
        <ele>149.688</ele>
        <time>2019-10-15T09:28:22.001Z</time>
      </trkpt>
      <trkpt lat="42.89436" lon="9.32307">
        <ele>148.323</ele>
        <time>2019-10-15T09:28:55.001Z</time>
      </trkpt>
      <trkpt lat="42.89368" lon="9.32421">
        <ele>145.322</ele>
        <time>2019-10-15T09:29:28.001Z</time>
      </trkpt>
      <trkpt lat="42.89331" lon="9.32554">
        <ele>145.336</ele>
        <time>2019-10-15T09:30:01.001Z</time>
      </trkpt>
      <trkpt lat="42.89314" lon="9.32689">
        <ele>143.075</ele>
        <time>2019-10-15T09:30:34.001Z</time>
      </trkpt>
      <trkpt lat="42.89276" lon="9.32786">
        <ele>155.472</ele>
        <time>2019-10-15T09:31:07.001Z</time>
      </trkpt>
      <trkpt lat="42.89213" lon="9.32865">
        <ele>156.088</ele>
        <time>2019-10-15T09:31:43.001Z</time>
      </trkpt>
      <trkpt lat="42.89185" lon="9.32966">
        <ele>155.225</ele>
        <time>2019-10-15T09:32:16Z</time>
      </trkpt>
      <trkpt lat="42.89157" lon="9.33057">
        <ele>157.498</ele>
        <time>2019-10-15T09:32:49.001Z</time>
      </trkpt>
      <trkpt lat="42.89124" lon="9.33138">
        <ele>166.191</ele>
        <time>2019-10-15T09:33:22.001Z</time>
      </trkpt>
      <trkpt lat="42.8913" lon="9.33229">
        <ele>166.302</ele>
        <time>2019-10-15T09:33:55.001Z</time>
      </trkpt>
      <trkpt lat="42.89073" lon="9.33298">
        <ele>171.88</ele>
        <time>2019-10-15T09:34:28.001Z</time>
      </trkpt>
      <trkpt lat="42.89053" lon="9.33399">
        <ele>178.651</ele>
        <time>2019-10-15T09:35:01.001Z</time>
      </trkpt>
      <trkpt lat="42.88983" lon="9.33411">
        <ele>191.815</ele>
        <time>2019-10-15T09:35:34.001Z</time>
      </trkpt>
      <trkpt lat="42.88914" lon="9.33453">
        <ele>195.668</ele>
        <time>2019-10-15T09:36:07.001Z</time>
      </trkpt>
      <trkpt lat="42.88842" lon="9.33444">
        <ele>199.899</ele>
        <time>2019-10-15T09:36:40.001Z</time>
      </trkpt>
      <trkpt lat="42.88767" lon="9.33458">
        <ele>201.321</ele>
        <time>2019-10-15T09:37:13.001Z</time>
      </trkpt>
      <trkpt lat="42.88673" lon="9.33532">
        <ele>198.314</ele>
        <time>2019-10-15T09:37:46.001Z</time>
      </trkpt>
      <trkpt lat="42.88521" lon="9.33347">
        <ele>197.789</ele>
        <time>2019-10-15T09:38:19.001Z</time>
      </trkpt>
      <trkpt lat="42.88401" lon="9.33447">
        <ele>191.115</ele>
        <time>2019-10-15T09:38:52.001Z</time>
      </trkpt>
      <trkpt lat="42.88323" lon="9.33313">
        <ele>190.874</ele>
        <time>2019-10-15T09:39:25.001Z</time>
      </trkpt>
      <trkpt lat="42.88227" lon="9.33173">
        <ele>190.837</ele>
        <time>2019-10-15T09:39:58.001Z</time>
      </trkpt>
      <trkpt lat="42.88146" lon="9.33146">
        <ele>191.46</ele>
        <time>2019-10-15T09:40:58.001Z</time>
      </trkpt>
      <trkpt lat="42.87994" lon="9.33074">
        <ele>187.256</ele>
        <time>2019-10-15T09:41:34.001Z</time>
      </trkpt>
      <trkpt lat="42.87843" lon="9.33058">
        <ele>183.691</ele>
        <time>2019-10-15T09:42:07.001Z</time>
      </trkpt>
      <trkpt lat="42.87707" lon="9.33063">
        <ele>182.313</ele>
        <time>2019-10-15T09:42:40.001Z</time>
      </trkpt>
      <trkpt lat="42.87573" lon="9.33233">
        <ele>171.15</ele>
        <time>2019-10-15T09:43:13.001Z</time>
      </trkpt>
      <trkpt lat="42.87396" lon="9.33198">
        <ele>157.234</ele>
        <time>2019-10-15T09:43:46.001Z</time>
      </trkpt>
      <trkpt lat="42.87271" lon="9.33334">
        <ele>140.45</ele>
        <time>2019-10-15T09:44:19.001Z</time>
      </trkpt>
      <trkpt lat="42.87221" lon="9.3356">
        <ele>125.546</ele>
        <time>2019-10-15T09:44:52.001Z</time>
      </trkpt>
      <trkpt lat="42.87059" lon="9.33801">
        <ele>111.219</ele>
        <time>2019-10-15T09:45:25.001Z</time>
      </trkpt>
      <trkpt lat="42.87053" lon="9.34088">
        <ele>99.967</ele>
        <time>2019-10-15T09:45:58.001Z</time>
      </trkpt>
      <trkpt lat="42.86984" lon="9.34358">
        <ele>82.571</ele>
        <time>2019-10-15T09:46:31.001Z</time>
      </trkpt>
      <trkpt lat="42.86967" lon="9.34574">
        <ele>70.14</ele>
        <time>2019-10-15T09:47:04.001Z</time>
      </trkpt>
      <trkpt lat="42.86952" lon="9.34762">
        <ele>55.383</ele>
        <time>2019-10-15T09:47:37.001Z</time>
      </trkpt>
      <trkpt lat="42.86785" lon="9.34908">
        <ele>41.987</ele>
        <time>2019-10-15T09:48:10.001Z</time>
      </trkpt>
      <trkpt lat="42.8673" lon="9.34874">
        <ele>34.517</ele>
        <time>2019-10-15T09:48:43.001Z</time>
      </trkpt>
      <trkpt lat="42.86562" lon="9.34839">
        <ele>24.297</ele>
        <time>2019-10-15T09:49:16Z</time>
      </trkpt>
      <trkpt lat="42.8652" lon="9.34679">
        <ele>26.284</ele>
        <time>2019-10-15T09:49:49.001Z</time>
      </trkpt>
      <trkpt lat="42.86497" lon="9.34551">
        <ele>36.171</ele>
        <time>2019-10-15T09:50:25.001Z</time>
      </trkpt>
      <trkpt lat="42.86492" lon="9.34444">
        <ele>46.678</ele>
        <time>2019-10-15T09:50:58.001Z</time>
      </trkpt>
      <trkpt lat="42.86472" lon="9.34336">
        <ele>48.258</ele>
        <time>2019-10-15T09:51:31.001Z</time>
      </trkpt>
      <trkpt lat="42.86408" lon="9.34297">
        <ele>45.524</ele>
        <time>2019-10-15T09:52:04.001Z</time>
      </trkpt>
      <trkpt lat="42.86382" lon="9.3421">
        <ele>50.613</ele>
        <time>2019-10-15T09:52:37.001Z</time>
      </trkpt>
      <trkpt lat="42.86424" lon="9.34136">
        <ele>54.035</ele>
        <time>2019-10-15T09:53:10.001Z</time>
      </trkpt>
      <trkpt lat="42.86444" lon="9.34038">
        <ele>54.571</ele>
        <time>2019-10-15T09:53:43.001Z</time>
      </trkpt>
      <trkpt lat="42.86438" lon="9.33933">
        <ele>60.802</ele>
        <time>2019-10-15T09:54:16Z</time>
      </trkpt>
      <trkpt lat="42.86422" lon="9.33841">
        <ele>63.915</ele>
        <time>2019-10-15T09:54:49.001Z</time>
      </trkpt>
      <trkpt lat="42.86349" lon="9.3385">
        <ele>67.421</ele>
        <time>2019-10-15T09:55:22.001Z</time>
      </trkpt>
      <trkpt lat="42.86346" lon="9.3375">
        <ele>72.98</ele>
        <time>2019-10-15T09:55:55.001Z</time>
      </trkpt>
      <trkpt lat="42.86365" lon="9.33699">
        <ele>72.834</ele>
        <time>2019-10-15T09:59:13.001Z</time>
      </trkpt>
      <trkpt lat="42.86343" lon="9.33614">
        <ele>73.627</ele>
        <time>2019-10-15T09:59:46.001Z</time>
      </trkpt>
      <trkpt lat="42.86299" lon="9.33534">
        <ele>78.546</ele>
        <time>2019-10-15T10:00:19.001Z</time>
      </trkpt>
      <trkpt lat="42.86236" lon="9.3348">
        <ele>79.912</ele>
        <time>2019-10-15T10:00:52.001Z</time>
      </trkpt>
      <trkpt lat="42.86169" lon="9.33537">
        <ele>80.632</ele>
        <time>2019-10-15T10:01:25.001Z</time>
      </trkpt>
      <trkpt lat="42.8612" lon="9.33632">
        <ele>81.455</ele>
        <time>2019-10-15T10:01:58.001Z</time>
      </trkpt>
      <trkpt lat="42.86055" lon="9.33627">
        <ele>80.746</ele>
        <time>2019-10-15T10:02:34.001Z</time>
      </trkpt>
      <trkpt lat="42.85977" lon="9.33576">
        <ele>82.866</ele>
        <time>2019-10-15T10:03:07.001Z</time>
      </trkpt>
      <trkpt lat="42.85916" lon="9.335">
        <ele>87.139</ele>
        <time>2019-10-15T10:03:40.001Z</time>
      </trkpt>
      <trkpt lat="42.85849" lon="9.33499">
        <ele>92.02</ele>
        <time>2019-10-15T10:04:13.001Z</time>
      </trkpt>
      <trkpt lat="42.8577" lon="9.33507">
        <ele>97.52</ele>
        <time>2019-10-15T10:04:46.001Z</time>
      </trkpt>
      <trkpt lat="42.85712" lon="9.33436">
        <ele>99.892</ele>
        <time>2019-10-15T10:05:19.001Z</time>
      </trkpt>
      <trkpt lat="42.85693" lon="9.33332">
        <ele>91.673</ele>
        <time>2019-10-15T10:05:52.001Z</time>
      </trkpt>
      <trkpt lat="42.8562" lon="9.33272">
        <ele>97.867</ele>
        <time>2019-10-15T10:06:25.001Z</time>
      </trkpt>
      <trkpt lat="42.85544" lon="9.33274">
        <ele>107.047</ele>
        <time>2019-10-15T10:06:58.001Z</time>
      </trkpt>
      <trkpt lat="42.85464" lon="9.33295">
        <ele>110.067</ele>
        <time>2019-10-15T10:07:31.001Z</time>
      </trkpt>
      <trkpt lat="42.85384" lon="9.33255">
        <ele>113.704</ele>
        <time>2019-10-15T10:08:04.001Z</time>
      </trkpt>
      <trkpt lat="42.85308" lon="9.33217">
        <ele>120.888</ele>
        <time>2019-10-15T10:08:37.001Z</time>
      </trkpt>
      <trkpt lat="42.85234" lon="9.33144">
        <ele>118.579</ele>
        <time>2019-10-15T10:09:10.001Z</time>
      </trkpt>
      <trkpt lat="42.85152" lon="9.33066">
        <ele>117.18</ele>
        <time>2019-10-15T10:09:43.001Z</time>
      </trkpt>
      <trkpt lat="42.85095" lon="9.32976">
        <ele>111.379</ele>
        <time>2019-10-15T10:10:16Z</time>
      </trkpt>
      <trkpt lat="42.85072" lon="9.32884">
        <ele>107.665</ele>
        <time>2019-10-15T10:10:49.001Z</time>
      </trkpt>
      <trkpt lat="42.84997" lon="9.32821">
        <ele>114.842</ele>
        <time>2019-10-15T10:11:22.001Z</time>
      </trkpt>
      <trkpt lat="42.84909" lon="9.32742">
        <ele>119.909</ele>
        <time>2019-10-15T10:11:58.001Z</time>
      </trkpt>
      <trkpt lat="42.84855" lon="9.32652">
        <ele>124.934</ele>
        <time>2019-10-15T10:12:31.001Z</time>
      </trkpt>
      <trkpt lat="42.8474" lon="9.32569">
        <ele>128.228</ele>
        <time>2019-10-15T10:13:04.001Z</time>
      </trkpt>
      <trkpt lat="42.84564" lon="9.32489">
        <ele>122.317</ele>
        <time>2019-10-15T10:13:37.001Z</time>
      </trkpt>
      <trkpt lat="42.84419" lon="9.32333">
        <ele>113.097</ele>
        <time>2019-10-15T10:14:10.001Z</time>
      </trkpt>
      <trkpt lat="42.84273" lon="9.32042">
        <ele>97.906</ele>
        <time>2019-10-15T10:14:43.001Z</time>
      </trkpt>
      <trkpt lat="42.84228" lon="9.31988">
        <ele>95.85</ele>
        <time>2019-10-15T10:16:22.001Z</time>
      </trkpt>
      <trkpt lat="42.84131" lon="9.32109">
        <ele>99.498</ele>
        <time>2019-10-15T10:16:55.001Z</time>
      </trkpt>
      <trkpt lat="42.84038" lon="9.31942">
        <ele>83.247</ele>
        <time>2019-10-15T10:17:28.001Z</time>
      </trkpt>
      <trkpt lat="42.83956" lon="9.31746">
        <ele>82.506</ele>
        <time>2019-10-15T10:18:01.001Z</time>
      </trkpt>
      <trkpt lat="42.83804" lon="9.31788">
        <ele>92.059</ele>
        <time>2019-10-15T10:18:34.001Z</time>
      </trkpt>
      <trkpt lat="42.83643" lon="9.31714">
        <ele>97.41</ele>
        <time>2019-10-15T10:19:07.001Z</time>
      </trkpt>
      <trkpt lat="42.83504" lon="9.3158">
        <ele>92.142</ele>
        <time>2019-10-15T10:19:40.001Z</time>
      </trkpt>
      <trkpt lat="42.8335" lon="9.31498">
        <ele>93.405</ele>
        <time>2019-10-15T10:20:13.001Z</time>
      </trkpt>
      <trkpt lat="42.83208" lon="9.31433">
        <ele>92.364</ele>
        <time>2019-10-15T10:20:46.001Z</time>
      </trkpt>
      <trkpt lat="42.83105" lon="9.31546">
        <ele>88.729</ele>
        <time>2019-10-15T10:21:19.001Z</time>
      </trkpt>
      <trkpt lat="42.82974" lon="9.3169">
        <ele>90.109</ele>
        <time>2019-10-15T10:21:55.001Z</time>
      </trkpt>
      <trkpt lat="42.82932" lon="9.3187">
        <ele>91.104</ele>
        <time>2019-10-15T10:22:28.001Z</time>
      </trkpt>
      <trkpt lat="42.82781" lon="9.31939">
        <ele>89.483</ele>
        <time>2019-10-15T10:23:01.001Z</time>
      </trkpt>
      <trkpt lat="42.82662" lon="9.32104">
        <ele>84.999</ele>
        <time>2019-10-15T10:23:34.001Z</time>
      </trkpt>
      <trkpt lat="42.82492" lon="9.32255">
        <ele>78.866</ele>
        <time>2019-10-15T10:24:07.001Z</time>
      </trkpt>
      <trkpt lat="42.82295" lon="9.32293">
        <ele>67.963</ele>
        <time>2019-10-15T10:24:40.001Z</time>
      </trkpt>
      <trkpt lat="42.8204" lon="9.32366">
        <ele>59.467</ele>
        <time>2019-10-15T10:25:13.001Z</time>
      </trkpt>
      <trkpt lat="42.81864" lon="9.32425">
        <ele>59.18</ele>
        <time>2019-10-15T10:25:46.001Z</time>
      </trkpt>
      <trkpt lat="42.81718" lon="9.32497">
        <ele>62.968</ele>
        <time>2019-10-15T10:26:19.001Z</time>
      </trkpt>
      <trkpt lat="42.81564" lon="9.32581">
        <ele>67.97</ele>
        <time>2019-10-15T10:26:52.001Z</time>
      </trkpt>
      <trkpt lat="42.81391" lon="9.32624">
        <ele>60.492</ele>
        <time>2019-10-15T10:27:25.001Z</time>
      </trkpt>
      <trkpt lat="42.81235" lon="9.32715">
        <ele>53.81</ele>
        <time>2019-10-15T10:27:58.001Z</time>
      </trkpt>
      <trkpt lat="42.81221" lon="9.33022">
        <ele>41.291</ele>
        <time>2019-10-15T10:28:31.001Z</time>
      </trkpt>
      <trkpt lat="42.81227" lon="9.33375">
        <ele>19.226</ele>
        <time>2019-10-15T10:29:04.001Z</time>
      </trkpt>
      <trkpt lat="42.81284" lon="9.33771">
        <ele>9</ele>
        <time>2019-10-15T10:29:37.001Z</time>
      </trkpt>
      <trkpt lat="42.81116" lon="9.33762">
        <ele>3.028</ele>
        <time>2019-10-15T10:30:10.001Z</time>
      </trkpt>
      <trkpt lat="42.81022" lon="9.33729">
        <ele>12.071</ele>
        <time>2019-10-15T10:30:43.001Z</time>
      </trkpt>
      <trkpt lat="42.80941" lon="9.33777">
        <ele>15.989</ele>
        <time>2019-10-15T10:31:19.001Z</time>
      </trkpt>
      <trkpt lat="42.8093" lon="9.3367">
        <ele>16.098</ele>
        <time>2019-10-15T10:31:52.001Z</time>
      </trkpt>
      <trkpt lat="42.80897" lon="9.33562">
        <ele>20.78</ele>
        <time>2019-10-15T10:32:25.001Z</time>
      </trkpt>
      <trkpt lat="42.80818" lon="9.33489">
        <ele>26.258</ele>
        <time>2019-10-15T10:32:58.001Z</time>
      </trkpt>
      <trkpt lat="42.80756" lon="9.33508">
        <ele>25.981</ele>
        <time>2019-10-15T10:33:31.001Z</time>
      </trkpt>
      <trkpt lat="42.80699" lon="9.33598">
        <ele>27.461</ele>
        <time>2019-10-15T10:34:04.001Z</time>
      </trkpt>
      <trkpt lat="42.80655" lon="9.33697">
        <ele>34.338</ele>
        <time>2019-10-15T10:34:37.001Z</time>
      </trkpt>
      <trkpt lat="42.80632" lon="9.33788">
        <ele>38.126</ele>
        <time>2019-10-15T10:35:10.001Z</time>
      </trkpt>
      <trkpt lat="42.80638" lon="9.33894">
        <ele>44.287</ele>
        <time>2019-10-15T10:35:43.001Z</time>
      </trkpt>
      <trkpt lat="42.8057" lon="9.33913">
        <ele>44.025</ele>
        <time>2019-10-15T10:36:16Z</time>
      </trkpt>
      <trkpt lat="42.80482" lon="9.33967">
        <ele>41.923</ele>
        <time>2019-10-15T10:36:49.001Z</time>
      </trkpt>
      <trkpt lat="42.80398" lon="9.34">
        <ele>41.924</ele>
        <time>2019-10-15T10:37:22.001Z</time>
      </trkpt>
      <trkpt lat="42.80323" lon="9.34062">
        <ele>44.972</ele>
        <time>2019-10-15T10:37:55.001Z</time>
      </trkpt>
      <trkpt lat="42.80309" lon="9.3417">
        <ele>47.996</ele>
        <time>2019-10-15T10:38:28.001Z</time>
      </trkpt>
      <trkpt lat="42.80275" lon="9.3426">
        <ele>57.396</ele>
        <time>2019-10-15T10:39:01.001Z</time>
      </trkpt>
      <trkpt lat="42.80199" lon="9.34277">
        <ele>58.693</ele>
        <time>2019-10-15T10:39:34.001Z</time>
      </trkpt>
      <trkpt lat="42.8016" lon="9.34354">
        <ele>62.868</ele>
        <time>2019-10-15T10:40:07.001Z</time>
      </trkpt>
      <trkpt lat="42.80071" lon="9.34379">
        <ele>64.488</ele>
        <time>2019-10-15T10:40:43.001Z</time>
      </trkpt>
      <trkpt lat="42.80037" lon="9.34478">
        <ele>65.38</ele>
        <time>2019-10-15T10:41:16Z</time>
      </trkpt>
      <trkpt lat="42.8" lon="9.34576">
        <ele>69.1</ele>
        <time>2019-10-15T10:41:49.001Z</time>
      </trkpt>
      <trkpt lat="42.8002" lon="9.3468">
        <ele>68.844</ele>
        <time>2019-10-15T10:42:22.001Z</time>
      </trkpt>
      <trkpt lat="42.79985" lon="9.34789">
        <ele>76.291</ele>
        <time>2019-10-15T10:42:55.001Z</time>
      </trkpt>
      <trkpt lat="42.79997" lon="9.34922">
        <ele>77.518</ele>
        <time>2019-10-15T10:43:28.001Z</time>
      </trkpt>
      <trkpt lat="42.79927" lon="9.34848">
        <ele>78.452</ele>
        <time>2019-10-15T10:44:01.001Z</time>
      </trkpt>
      <trkpt lat="42.79845" lon="9.34814">
        <ele>81.407</ele>
        <time>2019-10-15T10:44:34.001Z</time>
      </trkpt>
      <trkpt lat="42.7978" lon="9.34712">
        <ele>88.988</ele>
        <time>2019-10-15T10:45:07.001Z</time>
      </trkpt>
      <trkpt lat="42.79737" lon="9.34588">
        <ele>87.861</ele>
        <time>2019-10-15T10:45:40.001Z</time>
      </trkpt>
      <trkpt lat="42.79668" lon="9.34627">
        <ele>88.786</ele>
        <time>2019-10-15T10:46:13.001Z</time>
      </trkpt>
      <trkpt lat="42.79579" lon="9.3468">
        <ele>87.738</ele>
        <time>2019-10-15T10:46:46.001Z</time>
      </trkpt>
      <trkpt lat="42.79488" lon="9.34726">
        <ele>86.94</ele>
        <time>2019-10-15T10:47:19.001Z</time>
      </trkpt>
      <trkpt lat="42.79404" lon="9.34686">
        <ele>96.013</ele>
        <time>2019-10-15T10:47:52.001Z</time>
      </trkpt>
      <trkpt lat="42.79317" lon="9.34717">
        <ele>99.39</ele>
        <time>2019-10-15T10:48:25.001Z</time>
      </trkpt>
      <trkpt lat="42.79241" lon="9.3479">
        <ele>102.2</ele>
        <time>2019-10-15T10:48:58.001Z</time>
      </trkpt>
      <trkpt lat="42.79186" lon="9.34905">
        <ele>107.756</ele>
        <time>2019-10-15T10:49:34.001Z</time>
      </trkpt>
      <trkpt lat="42.79162" lon="9.35008">
        <ele>108.005</ele>
        <time>2019-10-15T10:56:49.001Z</time>
      </trkpt>
      <trkpt lat="42.79103" lon="9.35044">
        <ele>110.747</ele>
        <time>2019-10-15T10:57:28.001Z</time>
      </trkpt>
      <trkpt lat="42.79023" lon="9.35095">
        <ele>112.539</ele>
        <time>2019-10-15T10:58:01.001Z</time>
      </trkpt>
      <trkpt lat="42.78977" lon="9.35012">
        <ele>117.663</ele>
        <time>2019-10-15T10:58:34.001Z</time>
      </trkpt>
      <trkpt lat="42.78909" lon="9.34923">
        <ele>119.493</ele>
        <time>2019-10-15T10:59:07.001Z</time>
      </trkpt>
      <trkpt lat="42.7881" lon="9.34869">
        <ele>125.338</ele>
        <time>2019-10-15T10:59:40.001Z</time>
      </trkpt>
      <trkpt lat="42.7873" lon="9.34815">
        <ele>127.603</ele>
        <time>2019-10-15T11:00:13.001Z</time>
      </trkpt>
      <trkpt lat="42.78635" lon="9.34794">
        <ele>131.301</ele>
        <time>2019-10-15T11:00:46.001Z</time>
      </trkpt>
      <trkpt lat="42.78552" lon="9.34745">
        <ele>138.627</ele>
        <time>2019-10-15T11:01:19.001Z</time>
      </trkpt>
      <trkpt lat="42.78527" lon="9.34634">
        <ele>136.997</ele>
        <time>2019-10-15T11:01:52.001Z</time>
      </trkpt>
      <trkpt lat="42.78507" lon="9.34519">
        <ele>138.025</ele>
        <time>2019-10-15T11:02:25.001Z</time>
      </trkpt>
      <trkpt lat="42.78476" lon="9.3448">
        <ele>138.688</ele>
        <time>2019-10-15T11:03:22.001Z</time>
      </trkpt>
      <trkpt lat="42.78469" lon="9.34475">
        <ele>140.121</ele>
        <time>2019-10-15T11:13:01.001Z</time>
      </trkpt>
      <trkpt lat="42.78477" lon="9.3448">
        <ele>137.683</ele>
        <time>2019-10-15T11:15:22.001Z</time>
      </trkpt>
      <trkpt lat="42.78485" lon="9.34468">
        <ele>132.088</ele>
        <time>2019-10-15T11:17:19.001Z</time>
      </trkpt>
      <trkpt lat="42.78466" lon="9.3447">
        <ele>131.403</ele>
        <time>2019-10-15T11:20:01.001Z</time>
      </trkpt>
      <trkpt lat="42.78463" lon="9.34468">
        <ele>129.666</ele>
        <time>2019-10-15T11:25:49.001Z</time>
      </trkpt>
      <trkpt lat="42.78468" lon="9.34483">
        <ele>120.701</ele>
        <time>2019-10-15T12:11:34.001Z</time>
      </trkpt>
      <trkpt lat="42.78476" lon="9.34483">
        <ele>123.048</ele>
        <time>2019-10-15T12:16:01.001Z</time>
      </trkpt>
      <trkpt lat="42.78481" lon="9.3449">
        <ele>128.252</ele>
        <time>2019-10-15T12:17:40.001Z</time>
      </trkpt>
      <trkpt lat="42.78482" lon="9.3449">
        <ele>129.062</ele>
        <time>2019-10-15T12:18:43.001Z</time>
      </trkpt>
      <trkpt lat="42.78505" lon="9.34499">
        <ele>128.295</ele>
        <time>2019-10-15T12:20:28.001Z</time>
      </trkpt>
      <trkpt lat="42.78506" lon="9.34476">
        <ele>130.488</ele>
        <time>2019-10-15T12:21:46.001Z</time>
      </trkpt>
      <trkpt lat="42.78509" lon="9.34426">
        <ele>136.844</ele>
        <time>2019-10-15T12:23:07.001Z</time>
      </trkpt>
      <trkpt lat="42.78499" lon="9.34405">
        <ele>142.666</ele>
        <time>2019-10-15T12:24:13.001Z</time>
      </trkpt>
      <trkpt lat="42.78505" lon="9.3435">
        <ele>152.886</ele>
        <time>2019-10-15T12:26:58.001Z</time>
      </trkpt>
      <trkpt lat="42.78506" lon="9.34349">
        <ele>152.886</ele>
        <time>2019-10-15T12:28:34.001Z</time>
      </trkpt>
      <trkpt lat="42.78516" lon="9.34358">
        <ele>157.811</ele>
        <time>2019-10-15T12:29:28.001Z</time>
      </trkpt>
      <trkpt lat="42.78512" lon="9.34382">
        <ele>158.239</ele>
        <time>2019-10-15T12:31:01.001Z</time>
      </trkpt>
      <trkpt lat="42.78493" lon="9.3437">
        <ele>154.348</ele>
        <time>2019-10-15T12:33:13.001Z</time>
      </trkpt>
      <trkpt lat="42.78501" lon="9.34427">
        <ele>150.991</ele>
        <time>2019-10-15T12:35:49.001Z</time>
      </trkpt>
      <trkpt lat="42.78492" lon="9.34487">
        <ele>144.708</ele>
        <time>2019-10-15T12:37:01.001Z</time>
      </trkpt>
      <trkpt lat="42.78508" lon="9.3447">
        <ele>137.514</ele>
        <time>2019-10-15T12:38:10.001Z</time>
      </trkpt>
      <trkpt lat="42.7849" lon="9.34422">
        <ele>149.6</ele>
        <time>2019-10-15T12:44:29.001Z</time>
      </trkpt>
      <trkpt lat="42.78529" lon="9.34453">
        <ele>157.81</ele>
        <time>2019-10-15T12:45:36.001Z</time>
      </trkpt>
      <trkpt lat="42.78525" lon="9.3446">
        <ele>167.404</ele>
        <time>2019-10-15T12:50:25.001Z</time>
      </trkpt>
      <trkpt lat="42.78512" lon="9.34447">
        <ele>169.345</ele>
        <time>2019-10-15T12:51:04.001Z</time>
      </trkpt>
      <trkpt lat="42.78514" lon="9.34444">
        <ele>168.446</ele>
        <time>2019-10-15T12:52:30.001Z</time>
      </trkpt>
      <trkpt lat="42.78517" lon="9.34425">
        <ele>209.115</ele>
        <time>2019-10-15T12:53:09.001Z</time>
      </trkpt>
      <trkpt lat="42.78503" lon="9.34443">
        <ele>206.946</ele>
        <time>2019-10-15T12:53:51.001Z</time>
      </trkpt>
      <trkpt lat="42.78511" lon="9.34436">
        <ele>201.252</ele>
        <time>2019-10-15T12:54:33.001Z</time>
      </trkpt>
      <trkpt lat="42.78487" lon="9.34433">
        <ele>152.584</ele>
        <time>2019-10-15T12:55:36.001Z</time>
      </trkpt>
      <trkpt lat="42.78498" lon="9.34452">
        <ele>144.695</ele>
        <time>2019-10-15T12:58:05.001Z</time>
      </trkpt>
      <trkpt lat="42.78499" lon="9.34475">
        <ele>172.42</ele>
        <time>2019-10-15T13:09:23.001Z</time>
      </trkpt>
      <trkpt lat="42.78503" lon="9.34457">
        <ele>138.519</ele>
        <time>2019-10-15T13:29:03.001Z</time>
      </trkpt>
      <trkpt lat="42.78508" lon="9.3445">
        <ele>132.152</ele>
        <time>2019-10-15T13:35:41Z</time>
      </trkpt>
      <trkpt lat="42.78496" lon="9.34461">
        <ele>137.63</ele>
        <time>2019-10-15T13:39:38Z</time>
      </trkpt>
      <trkpt lat="42.78503" lon="9.34445">
        <ele>119.495</ele>
        <time>2019-10-15T14:19:43Z</time>
      </trkpt>
      <trkpt lat="42.78495" lon="9.34445">
        <ele>133.735</ele>
        <time>2019-10-15T14:45:36Z</time>
      </trkpt>
      <trkpt lat="42.78504" lon="9.34452">
        <ele>126.819</ele>
        <time>2019-10-15T14:52:11Z</time>
      </trkpt>
      <trkpt lat="42.78502" lon="9.34445">
        <ele>131.186</ele>
        <time>2019-10-15T15:03:11Z</time>
      </trkpt>
      <trkpt lat="42.78512" lon="9.34445">
        <ele>111.6</ele>
        <time>2019-10-15T15:04:59Z</time>
      </trkpt>
      <trkpt lat="42.78516" lon="9.34456">
        <ele>123.499</ele>
        <time>2019-10-15T15:07:35Z</time>
      </trkpt>
      <trkpt lat="42.78511" lon="9.34453">
        <ele>120.383</ele>
        <time>2019-10-15T15:09:56Z</time>
      </trkpt>
      <trkpt lat="42.78506" lon="9.3446">
        <ele>116.052</ele>
        <time>2019-10-15T15:11:44Z</time>
      </trkpt>
      <trkpt lat="42.78508" lon="9.34463">
        <ele>121.004</ele>
        <time>2019-10-15T15:13:05.001Z</time>
      </trkpt>
      <trkpt lat="42.78507" lon="9.34452">
        <ele>134.627</ele>
        <time>2019-10-15T15:15:14.001Z</time>
      </trkpt>
      <trkpt lat="42.78499" lon="9.34482">
        <ele>154.459</ele>
        <time>2019-10-15T15:19:59.001Z</time>
      </trkpt>
      <trkpt lat="42.78481" lon="9.34485">
        <ele>151.619</ele>
        <time>2019-10-15T15:21:23.001Z</time>
      </trkpt>
      <trkpt lat="42.78348" lon="9.34431">
        <ele>134.515</ele>
        <time>2019-10-15T15:21:56.001Z</time>
      </trkpt>
      <trkpt lat="42.78285" lon="9.34248">
        <ele>123.893</ele>
        <time>2019-10-15T15:22:29.001Z</time>
      </trkpt>
      <trkpt lat="42.78129" lon="9.3424">
        <ele>120.609</ele>
        <time>2019-10-15T15:23:02Z</time>
      </trkpt>
      <trkpt lat="42.77916" lon="9.34312">
        <ele>112.627</ele>
        <time>2019-10-15T15:23:35.001Z</time>
      </trkpt>
      <trkpt lat="42.77704" lon="9.34309">
        <ele>101.441</ele>
        <time>2019-10-15T15:24:08.001Z</time>
      </trkpt>
      <trkpt lat="42.77613" lon="9.34489">
        <ele>93.692</ele>
        <time>2019-10-15T15:24:41.001Z</time>
      </trkpt>
      <trkpt lat="42.7746" lon="9.34341">
        <ele>85.228</ele>
        <time>2019-10-15T15:25:14.001Z</time>
      </trkpt>
      <trkpt lat="42.77373" lon="9.34117">
        <ele>87.28</ele>
        <time>2019-10-15T15:25:50.001Z</time>
      </trkpt>
      <trkpt lat="42.77222" lon="9.34169">
        <ele>85.222</ele>
        <time>2019-10-15T15:26:23.001Z</time>
      </trkpt>
      <trkpt lat="42.77099" lon="9.34302">
        <ele>74.341</ele>
        <time>2019-10-15T15:26:56.001Z</time>
      </trkpt>
      <trkpt lat="42.77015" lon="9.34337">
        <ele>79.844</ele>
        <time>2019-10-15T15:27:29.001Z</time>
      </trkpt>
      <trkpt lat="42.7685" lon="9.34213">
        <ele>65.032</ele>
        <time>2019-10-15T15:28:02Z</time>
      </trkpt>
      <trkpt lat="42.76715" lon="9.34029">
        <ele>56.276</ele>
        <time>2019-10-15T15:28:35.001Z</time>
      </trkpt>
      <trkpt lat="42.76528" lon="9.33873">
        <ele>43.828</ele>
        <time>2019-10-15T15:29:08.001Z</time>
      </trkpt>
      <trkpt lat="42.76357" lon="9.33813">
        <ele>34.059</ele>
        <time>2019-10-15T15:29:41.001Z</time>
      </trkpt>
      <trkpt lat="42.76303" lon="9.3392">
        <ele>36.276</ele>
        <time>2019-10-15T15:33:53.001Z</time>
      </trkpt>
      <trkpt lat="42.76201" lon="9.33957">
        <ele>34.569</ele>
        <time>2019-10-15T15:34:26.001Z</time>
      </trkpt>
      <trkpt lat="42.76126" lon="9.34115">
        <ele>33.173</ele>
        <time>2019-10-15T15:34:59.001Z</time>
      </trkpt>
      <trkpt lat="42.76131" lon="9.34318">
        <ele>29.369</ele>
        <time>2019-10-15T15:35:32.001Z</time>
      </trkpt>
      <trkpt lat="42.76128" lon="9.34549">
        <ele>27.392</ele>
        <time>2019-10-15T15:36:05.001Z</time>
      </trkpt>
      <trkpt lat="42.76024" lon="9.34606">
        <ele>25.534</ele>
        <time>2019-10-15T15:36:38.001Z</time>
      </trkpt>
      <trkpt lat="42.76034" lon="9.34452">
        <ele>26.731</ele>
        <time>2019-10-15T15:37:11.001Z</time>
      </trkpt>
      <trkpt lat="42.76011" lon="9.3434">
        <ele>35.602</ele>
        <time>2019-10-15T15:37:44.001Z</time>
      </trkpt>
      <trkpt lat="42.75997" lon="9.34229">
        <ele>33.179</ele>
        <time>2019-10-15T15:38:17.001Z</time>
      </trkpt>
      <trkpt lat="42.75975" lon="9.34095">
        <ele>43.322</ele>
        <time>2019-10-15T15:38:53.001Z</time>
      </trkpt>
      <trkpt lat="42.75927" lon="9.34002">
        <ele>45.447</ele>
        <time>2019-10-15T15:39:26.001Z</time>
      </trkpt>
      <trkpt lat="42.75846" lon="9.3394">
        <ele>51.964</ele>
        <time>2019-10-15T15:39:59.001Z</time>
      </trkpt>
      <trkpt lat="42.75712" lon="9.34007">
        <ele>53.232</ele>
        <time>2019-10-15T15:40:32.001Z</time>
      </trkpt>
      <trkpt lat="42.75638" lon="9.3415">
        <ele>49.769</ele>
        <time>2019-10-15T15:41:05.001Z</time>
      </trkpt>
      <trkpt lat="42.75542" lon="9.3413">
        <ele>56.613</ele>
        <time>2019-10-15T15:41:38.001Z</time>
      </trkpt>
      <trkpt lat="42.75455" lon="9.34151">
        <ele>61.846</ele>
        <time>2019-10-15T15:42:11.001Z</time>
      </trkpt>
      <trkpt lat="42.7539" lon="9.34227">
        <ele>69.992</ele>
        <time>2019-10-15T15:42:44.001Z</time>
      </trkpt>
      <trkpt lat="42.7531" lon="9.34286">
        <ele>72.927</ele>
        <time>2019-10-15T15:43:17.001Z</time>
      </trkpt>
      <trkpt lat="42.75252" lon="9.34353">
        <ele>78.313</ele>
        <time>2019-10-15T15:43:50.001Z</time>
      </trkpt>
      <trkpt lat="42.7517" lon="9.34282">
        <ele>75.659</ele>
        <time>2019-10-15T15:44:23.001Z</time>
      </trkpt>
      <trkpt lat="42.75075" lon="9.3432">
        <ele>76.947</ele>
        <time>2019-10-15T15:44:56.001Z</time>
      </trkpt>
      <trkpt lat="42.74977" lon="9.3438">
        <ele>84.109</ele>
        <time>2019-10-15T15:45:29.001Z</time>
      </trkpt>
      <trkpt lat="42.74744" lon="9.34484">
        <ele>69.861</ele>
        <time>2019-10-15T15:46:02Z</time>
      </trkpt>
      <trkpt lat="42.74577" lon="9.3456">
        <ele>54.894</ele>
        <time>2019-10-15T15:46:35.001Z</time>
      </trkpt>
      <trkpt lat="42.74407" lon="9.34583">
        <ele>47.526</ele>
        <time>2019-10-15T15:47:08.001Z</time>
      </trkpt>
      <trkpt lat="42.74278" lon="9.34676">
        <ele>50.834</ele>
        <time>2019-10-15T15:47:44.001Z</time>
      </trkpt>
      <trkpt lat="42.74059" lon="9.34724">
        <ele>38.547</ele>
        <time>2019-10-15T15:48:17.001Z</time>
      </trkpt>
      <trkpt lat="42.73884" lon="9.34877">
        <ele>34.6</ele>
        <time>2019-10-15T15:48:50.001Z</time>
      </trkpt>
      <trkpt lat="42.73868" lon="9.34551">
        <ele>26.91</ele>
        <time>2019-10-15T15:49:23.001Z</time>
      </trkpt>
      <trkpt lat="42.73683" lon="9.34548">
        <ele>6.001</ele>
        <time>2019-10-15T15:49:56.001Z</time>
      </trkpt>
      <trkpt lat="42.73546" lon="9.34679">
        <ele>2.888</ele>
        <time>2019-10-15T15:50:29.001Z</time>
      </trkpt>
      <trkpt lat="42.7348" lon="9.34609">
        <ele>0.814</ele>
        <time>2019-10-15T15:51:02Z</time>
      </trkpt>
      <trkpt lat="42.73459" lon="9.34491">
        <ele>3.1</ele>
        <time>2019-10-15T15:51:35.001Z</time>
      </trkpt>
      <trkpt lat="42.73372" lon="9.34437">
        <ele>16.78</ele>
        <time>2019-10-15T15:52:08.001Z</time>
      </trkpt>
      <trkpt lat="42.73287" lon="9.34449">
        <ele>17.485</ele>
        <time>2019-10-15T15:52:41.001Z</time>
      </trkpt>
      <trkpt lat="42.73199" lon="9.34499">
        <ele>21.866</ele>
        <time>2019-10-15T15:53:14.001Z</time>
      </trkpt>
      <trkpt lat="42.73096" lon="9.34502">
        <ele>26.215</ele>
        <time>2019-10-15T15:53:47.001Z</time>
      </trkpt>
      <trkpt lat="42.72924" lon="9.34529">
        <ele>21.499</ele>
        <time>2019-10-15T15:54:20.001Z</time>
      </trkpt>
      <trkpt lat="42.72925" lon="9.34362">
        <ele>13.329</ele>
        <time>2019-10-15T15:54:53.001Z</time>
      </trkpt>
      <trkpt lat="42.7293" lon="9.34227">
        <ele>16.991</ele>
        <time>2019-10-15T15:55:29.001Z</time>
      </trkpt>
      <trkpt lat="42.72952" lon="9.3423">
        <ele>11.262</ele>
        <time>2019-10-15T15:59:56.001Z</time>
      </trkpt>
      <trkpt lat="42.72972" lon="9.34187">
        <ele>13.154</ele>
        <time>2019-10-15T16:01:02Z</time>
      </trkpt>
    </trkseg>
  </trk>
  <trk>
    <name><![CDATA[Tracé 20191016-103440]]></name>
    <trkseg>
      <trkpt lat="42.72937" lon="9.34222">
        <ele>12.277</ele>
        <time>2019-10-16T08:43:04Z</time>
      </trkpt>
      <trkpt lat="42.72889" lon="9.34183">
        <ele>21.145</ele>
        <time>2019-10-16T08:46:04Z</time>
      </trkpt>
      <trkpt lat="42.72854" lon="9.34059">
        <ele>27.696</ele>
        <time>2019-10-16T08:46:37Z</time>
      </trkpt>
      <trkpt lat="42.72784" lon="9.34033">
        <ele>26.937</ele>
        <time>2019-10-16T08:47:10Z</time>
      </trkpt>
      <trkpt lat="42.72776" lon="9.33876">
        <ele>31.809</ele>
        <time>2019-10-16T08:47:43Z</time>
      </trkpt>
      <trkpt lat="42.72734" lon="9.33743">
        <ele>22.76</ele>
        <time>2019-10-16T08:48:16Z</time>
      </trkpt>
      <trkpt lat="42.72677" lon="9.33672">
        <ele>29.377</ele>
        <time>2019-10-16T08:48:49Z</time>
      </trkpt>
      <trkpt lat="42.72597" lon="9.33499">
        <ele>26.897</ele>
        <time>2019-10-16T08:49:22Z</time>
      </trkpt>
      <trkpt lat="42.72457" lon="9.33517">
        <ele>24.88</ele>
        <time>2019-10-16T08:49:52Z</time>
      </trkpt>
      <trkpt lat="42.72287" lon="9.33787">
        <ele>17.016</ele>
        <time>2019-10-16T08:50:25Z</time>
      </trkpt>
      <trkpt lat="42.72029" lon="9.33819">
        <ele>9.01</ele>
        <time>2019-10-16T08:50:58Z</time>
      </trkpt>
      <trkpt lat="42.7202" lon="9.33639">
        <ele>9.055</ele>
        <time>2019-10-16T08:51:31Z</time>
      </trkpt>
      <trkpt lat="42.71925" lon="9.33553">
        <ele>8.512</ele>
        <time>2019-10-16T08:52:04Z</time>
      </trkpt>
      <trkpt lat="42.71796" lon="9.33507">
        <ele>8.66</ele>
        <time>2019-10-16T08:52:37Z</time>
      </trkpt>
      <trkpt lat="42.71665" lon="9.33543">
        <ele>16.95</ele>
        <time>2019-10-16T08:53:10Z</time>
      </trkpt>
      <trkpt lat="42.71533" lon="9.33618">
        <ele>22.46</ele>
        <time>2019-10-16T08:53:43Z</time>
      </trkpt>
      <trkpt lat="42.7142" lon="9.33695">
        <ele>20.505</ele>
        <time>2019-10-16T08:54:13Z</time>
      </trkpt>
      <trkpt lat="42.71299" lon="9.33784">
        <ele>22.477</ele>
        <time>2019-10-16T08:54:46Z</time>
      </trkpt>
      <trkpt lat="42.71179" lon="9.33873">
        <ele>24.648</ele>
        <time>2019-10-16T08:55:19Z</time>
      </trkpt>
      <trkpt lat="42.71071" lon="9.33957">
        <ele>27.014</ele>
        <time>2019-10-16T08:55:52Z</time>
      </trkpt>
      <trkpt lat="42.70972" lon="9.34028">
        <ele>30.666</ele>
        <time>2019-10-16T08:56:25Z</time>
      </trkpt>
      <trkpt lat="42.70899" lon="9.34121">
        <ele>34.569</ele>
        <time>2019-10-16T08:56:58Z</time>
      </trkpt>
      <trkpt lat="42.70807" lon="9.34186">
        <ele>35.342</ele>
        <time>2019-10-16T08:57:31Z</time>
      </trkpt>
      <trkpt lat="42.70688" lon="9.34232">
        <ele>35.911</ele>
        <time>2019-10-16T08:58:04Z</time>
      </trkpt>
      <trkpt lat="42.7061" lon="9.34276">
        <ele>42.238</ele>
        <time>2019-10-16T08:58:34Z</time>
      </trkpt>
      <trkpt lat="42.70535" lon="9.34338">
        <ele>51.653</ele>
        <time>2019-10-16T08:59:07Z</time>
      </trkpt>
      <trkpt lat="42.70468" lon="9.34413">
        <ele>54.485</ele>
        <time>2019-10-16T08:59:40Z</time>
      </trkpt>
      <trkpt lat="42.70426" lon="9.34507">
        <ele>54.433</ele>
        <time>2019-10-16T09:00:13Z</time>
      </trkpt>
      <trkpt lat="42.70384" lon="9.34617">
        <ele>60.236</ele>
        <time>2019-10-16T09:00:46Z</time>
      </trkpt>
      <trkpt lat="42.70332" lon="9.3474">
        <ele>56.354</ele>
        <time>2019-10-16T09:01:19Z</time>
      </trkpt>
      <trkpt lat="42.70283" lon="9.34857">
        <ele>58.465</ele>
        <time>2019-10-16T09:01:52Z</time>
      </trkpt>
      <trkpt lat="42.70241" lon="9.3496">
        <ele>62.703</ele>
        <time>2019-10-16T09:02:22Z</time>
      </trkpt>
      <trkpt lat="42.70179" lon="9.35043">
        <ele>68.316</ele>
        <time>2019-10-16T09:02:55Z</time>
      </trkpt>
      <trkpt lat="42.70068" lon="9.35091">
        <ele>70.116</ele>
        <time>2019-10-16T09:03:28Z</time>
      </trkpt>
      <trkpt lat="42.69796" lon="9.35128">
        <ele>59.571</ele>
        <time>2019-10-16T09:04:01Z</time>
      </trkpt>
      <trkpt lat="42.69601" lon="9.34988">
        <ele>43.929</ele>
        <time>2019-10-16T09:04:34Z</time>
      </trkpt>
      <trkpt lat="42.69489" lon="9.34692">
        <ele>41.658</ele>
        <time>2019-10-16T09:05:07Z</time>
      </trkpt>
      <trkpt lat="42.69465" lon="9.34244">
        <ele>30.189</ele>
        <time>2019-10-16T09:05:40.001Z</time>
      </trkpt>
      <trkpt lat="42.69449" lon="9.33778">
        <ele>16.625</ele>
        <time>2019-10-16T09:06:13.001Z</time>
      </trkpt>
      <trkpt lat="42.69478" lon="9.33453">
        <ele>11.959</ele>
        <time>2019-10-16T09:06:43.001Z</time>
      </trkpt>
      <trkpt lat="42.69567" lon="9.33282">
        <ele>8.848</ele>
        <time>2019-10-16T09:07:16Z</time>
      </trkpt>
      <trkpt lat="42.69466" lon="9.33096">
        <ele>12.218</ele>
        <time>2019-10-16T09:07:49.001Z</time>
      </trkpt>
      <trkpt lat="42.6934" lon="9.32887">
        <ele>10.26</ele>
        <time>2019-10-16T09:08:22.001Z</time>
      </trkpt>
      <trkpt lat="42.69311" lon="9.32608">
        <ele>6.556</ele>
        <time>2019-10-16T09:08:55.001Z</time>
      </trkpt>
      <trkpt lat="42.69298" lon="9.32343">
        <ele>4.961</ele>
        <time>2019-10-16T09:09:28.001Z</time>
      </trkpt>
      <trkpt lat="42.69221" lon="9.32174">
        <ele>5.004</ele>
        <time>2019-10-16T09:10:01.001Z</time>
      </trkpt>
      <trkpt lat="42.69151" lon="9.32034">
        <ele>9.148</ele>
        <time>2019-10-16T09:10:34.001Z</time>
      </trkpt>
      <trkpt lat="42.69065" lon="9.3185">
        <ele>9.251</ele>
        <time>2019-10-16T09:11:04.001Z</time>
      </trkpt>
      <trkpt lat="42.68908" lon="9.31535">
        <ele>1.683</ele>
        <time>2019-10-16T09:11:37.001Z</time>
      </trkpt>
      <trkpt lat="42.68797" lon="9.31305">
        <ele>3</ele>
        <time>2019-10-16T09:12:10.001Z</time>
      </trkpt>
      <trkpt lat="42.68702" lon="9.31108">
        <ele>1</ele>
        <time>2019-10-16T09:12:43.001Z</time>
      </trkpt>
      <trkpt lat="42.68602" lon="9.30904">
        <ele>4</ele>
        <time>2019-10-16T09:13:16Z</time>
      </trkpt>
      <trkpt lat="42.68526" lon="9.30746">
        <ele>9.6</ele>
        <time>2019-10-16T09:13:49.001Z</time>
      </trkpt>
      <trkpt lat="42.68444" lon="9.30645">
        <ele>3.983</ele>
        <time>2019-10-16T09:14:22.001Z</time>
      </trkpt>
      <trkpt lat="42.68366" lon="9.30558">
        <ele>9.188</ele>
        <time>2019-10-16T09:14:55.001Z</time>
      </trkpt>
      <trkpt lat="42.68259" lon="9.30526">
        <ele>15.979</ele>
        <time>2019-10-16T09:15:25.001Z</time>
      </trkpt>
      <trkpt lat="42.68177" lon="9.3041">
        <ele>14.86</ele>
        <time>2019-10-16T09:17:37.001Z</time>
      </trkpt>
      <trkpt lat="42.68058" lon="9.30246">
        <ele>8.52</ele>
        <time>2019-10-16T09:18:10.001Z</time>
      </trkpt>
      <trkpt lat="42.67926" lon="9.30243">
        <ele>1.6</ele>
        <time>2019-10-16T09:18:43.001Z</time>
      </trkpt>
      <trkpt lat="42.67762" lon="9.30273">
        <ele>1.5</ele>
        <time>2019-10-16T09:19:16Z</time>
      </trkpt>
      <trkpt lat="42.67588" lon="9.30302">
        <ele>1.1</ele>
        <time>2019-10-16T09:19:49.001Z</time>
      </trkpt>
      <trkpt lat="42.67413" lon="9.30224">
        <ele>1</ele>
        <time>2019-10-16T09:20:22.001Z</time>
      </trkpt>
      <trkpt lat="42.67246" lon="9.30142">
        <ele>1.1</ele>
        <time>2019-10-16T09:20:55.001Z</time>
      </trkpt>
      <trkpt lat="42.67186" lon="9.30109">
        <ele>2.8</ele>
        <time>2019-10-16T09:21:25.001Z</time>
      </trkpt>
      <trkpt lat="42.67179" lon="9.29999">
        <ele>2.597</ele>
        <time>2019-10-16T09:23:10.001Z</time>
      </trkpt>
      <trkpt lat="42.6722" lon="9.29893">
        <ele>3.464</ele>
        <time>2019-10-16T09:23:46.001Z</time>
      </trkpt>
      <trkpt lat="42.67244" lon="9.29764">
        <ele>7.276</ele>
        <time>2019-10-16T09:24:19.001Z</time>
      </trkpt>
      <trkpt lat="42.67235" lon="9.29644">
        <ele>12.488</ele>
        <time>2019-10-16T09:24:52.001Z</time>
      </trkpt>
      <trkpt lat="42.6722" lon="9.29535">
        <ele>14.567</ele>
        <time>2019-10-16T09:25:25.001Z</time>
      </trkpt>
      <trkpt lat="42.67269" lon="9.2948">
        <ele>17.836</ele>
        <time>2019-10-16T09:25:58.001Z</time>
      </trkpt>
      <trkpt lat="42.67309" lon="9.29407">
        <ele>25.277</ele>
        <time>2019-10-16T09:26:31.001Z</time>
      </trkpt>
      <trkpt lat="42.67288" lon="9.29314">
        <ele>27.308</ele>
        <time>2019-10-16T09:27:01.001Z</time>
      </trkpt>
      <trkpt lat="42.67226" lon="9.29237">
        <ele>32.956</ele>
        <time>2019-10-16T09:27:34.001Z</time>
      </trkpt>
      <trkpt lat="42.6718" lon="9.29139">
        <ele>36.081</ele>
        <time>2019-10-16T09:28:07.001Z</time>
      </trkpt>
      <trkpt lat="42.67163" lon="9.29031">
        <ele>39.807</ele>
        <time>2019-10-16T09:28:40.001Z</time>
      </trkpt>
      <trkpt lat="42.6713" lon="9.28929">
        <ele>44.945</ele>
        <time>2019-10-16T09:29:13.001Z</time>
      </trkpt>
      <trkpt lat="42.67056" lon="9.2887">
        <ele>52.571</ele>
        <time>2019-10-16T09:29:46.001Z</time>
      </trkpt>
      <trkpt lat="42.66992" lon="9.28797">
        <ele>56.841</ele>
        <time>2019-10-16T09:30:19.001Z</time>
      </trkpt>
      <trkpt lat="42.66921" lon="9.28752">
        <ele>56.935</ele>
        <time>2019-10-16T09:30:49.001Z</time>
      </trkpt>
      <trkpt lat="42.66864" lon="9.28675">
        <ele>61.892</ele>
        <time>2019-10-16T09:31:22.001Z</time>
      </trkpt>
      <trkpt lat="42.6679" lon="9.28621">
        <ele>61.57</ele>
        <time>2019-10-16T09:31:55.001Z</time>
      </trkpt>
      <trkpt lat="42.66724" lon="9.28555">
        <ele>68.364</ele>
        <time>2019-10-16T09:32:28.001Z</time>
      </trkpt>
      <trkpt lat="42.66654" lon="9.28496">
        <ele>71.686</ele>
        <time>2019-10-16T09:33:01.001Z</time>
      </trkpt>
      <trkpt lat="42.66608" lon="9.28409">
        <ele>77.175</ele>
        <time>2019-10-16T09:33:34.001Z</time>
      </trkpt>
      <trkpt lat="42.66531" lon="9.2837">
        <ele>76.959</ele>
        <time>2019-10-16T09:34:07.001Z</time>
      </trkpt>
      <trkpt lat="42.66489" lon="9.28276">
        <ele>79.086</ele>
        <time>2019-10-16T09:34:40.001Z</time>
      </trkpt>
      <trkpt lat="42.66432" lon="9.28217">
        <ele>82.622</ele>
        <time>2019-10-16T09:35:10.001Z</time>
      </trkpt>
      <trkpt lat="42.66392" lon="9.28122">
        <ele>89.519</ele>
        <time>2019-10-16T09:35:43.001Z</time>
      </trkpt>
      <trkpt lat="42.6633" lon="9.28048">
        <ele>90.499</ele>
        <time>2019-10-16T09:36:16Z</time>
      </trkpt>
      <trkpt lat="42.66278" lon="9.27949">
        <ele>97.105</ele>
        <time>2019-10-16T09:36:49.001Z</time>
      </trkpt>
      <trkpt lat="42.6629" lon="9.27841">
        <ele>98.518</ele>
        <time>2019-10-16T09:37:22.001Z</time>
      </trkpt>
      <trkpt lat="42.66258" lon="9.27736">
        <ele>100.239</ele>
        <time>2019-10-16T09:37:55.001Z</time>
      </trkpt>
      <trkpt lat="42.6622" lon="9.27636">
        <ele>104.726</ele>
        <time>2019-10-16T09:38:28.001Z</time>
      </trkpt>
      <trkpt lat="42.66159" lon="9.27586">
        <ele>108.878</ele>
        <time>2019-10-16T09:39:01.001Z</time>
      </trkpt>
      <trkpt lat="42.66091" lon="9.27591">
        <ele>110.927</ele>
        <time>2019-10-16T09:39:31.001Z</time>
      </trkpt>
      <trkpt lat="42.66056" lon="9.27496">
        <ele>116.916</ele>
        <time>2019-10-16T09:40:04.001Z</time>
      </trkpt>
      <trkpt lat="42.66062" lon="9.2739">
        <ele>121.015</ele>
        <time>2019-10-16T09:40:37.001Z</time>
      </trkpt>
      <trkpt lat="42.66023" lon="9.27325">
        <ele>124.646</ele>
        <time>2019-10-16T09:41:10.001Z</time>
      </trkpt>
      <trkpt lat="42.65943" lon="9.27328">
        <ele>127.813</ele>
        <time>2019-10-16T09:41:43.001Z</time>
      </trkpt>
      <trkpt lat="42.65871" lon="9.27283">
        <ele>126.722</ele>
        <time>2019-10-16T09:42:16Z</time>
      </trkpt>
      <trkpt lat="42.65838" lon="9.27196">
        <ele>134.593</ele>
        <time>2019-10-16T09:42:49.001Z</time>
      </trkpt>
      <trkpt lat="42.65778" lon="9.27248">
        <ele>135.431</ele>
        <time>2019-10-16T09:43:22.001Z</time>
      </trkpt>
      <trkpt lat="42.65724" lon="9.27241">
        <ele>140.967</ele>
        <time>2019-10-16T09:43:52.001Z</time>
      </trkpt>
      <trkpt lat="42.65662" lon="9.27262">
        <ele>145.509</ele>
        <time>2019-10-16T09:44:25.001Z</time>
      </trkpt>
      <trkpt lat="42.65607" lon="9.27219">
        <ele>148.59</ele>
        <time>2019-10-16T09:54:19.001Z</time>
      </trkpt>
      <trkpt lat="42.65548" lon="9.27148">
        <ele>153.6</ele>
        <time>2019-10-16T09:54:52.001Z</time>
      </trkpt>
      <trkpt lat="42.65514" lon="9.2705">
        <ele>157.206</ele>
        <time>2019-10-16T09:55:25.001Z</time>
      </trkpt>
      <trkpt lat="42.65493" lon="9.26943">
        <ele>161.035</ele>
        <time>2019-10-16T09:55:58.001Z</time>
      </trkpt>
      <trkpt lat="42.655" lon="9.26834">
        <ele>164.34</ele>
        <time>2019-10-16T09:56:31.001Z</time>
      </trkpt>
      <trkpt lat="42.65472" lon="9.26747">
        <ele>166.433</ele>
        <time>2019-10-16T09:57:04.001Z</time>
      </trkpt>
      <trkpt lat="42.654" lon="9.26748">
        <ele>172.362</ele>
        <time>2019-10-16T09:57:34.001Z</time>
      </trkpt>
      <trkpt lat="42.65323" lon="9.26744">
        <ele>174.936</ele>
        <time>2019-10-16T09:58:07.001Z</time>
      </trkpt>
      <trkpt lat="42.6524" lon="9.2675">
        <ele>180.234</ele>
        <time>2019-10-16T09:58:40.001Z</time>
      </trkpt>
      <trkpt lat="42.65162" lon="9.26735">
        <ele>181.254</ele>
        <time>2019-10-16T09:59:13.001Z</time>
      </trkpt>
      <trkpt lat="42.65089" lon="9.26701">
        <ele>184.401</ele>
        <time>2019-10-16T09:59:46.001Z</time>
      </trkpt>
      <trkpt lat="42.65022" lon="9.26673">
        <ele>189.08</ele>
        <time>2019-10-16T10:00:19.001Z</time>
      </trkpt>
      <trkpt lat="42.64994" lon="9.26612">
        <ele>196.454</ele>
        <time>2019-10-16T10:00:52.001Z</time>
      </trkpt>
      <trkpt lat="42.65011" lon="9.26517">
        <ele>200.886</ele>
        <time>2019-10-16T10:01:25.001Z</time>
      </trkpt>
      <trkpt lat="42.65019" lon="9.26429">
        <ele>207.032</ele>
        <time>2019-10-16T10:01:55.001Z</time>
      </trkpt>
      <trkpt lat="42.65048" lon="9.26336">
        <ele>208.613</ele>
        <time>2019-10-16T10:02:28.001Z</time>
      </trkpt>
      <trkpt lat="42.6509" lon="9.26236">
        <ele>211.286</ele>
        <time>2019-10-16T10:03:01.001Z</time>
      </trkpt>
      <trkpt lat="42.65161" lon="9.26179">
        <ele>212.97</ele>
        <time>2019-10-16T10:03:34.001Z</time>
      </trkpt>
      <trkpt lat="42.65229" lon="9.26085">
        <ele>217.074</ele>
        <time>2019-10-16T10:04:07.001Z</time>
      </trkpt>
      <trkpt lat="42.65303" lon="9.25984">
        <ele>220.412</ele>
        <time>2019-10-16T10:04:40.001Z</time>
      </trkpt>
      <trkpt lat="42.65407" lon="9.2585">
        <ele>219.554</ele>
        <time>2019-10-16T10:05:13.001Z</time>
      </trkpt>
      <trkpt lat="42.65493" lon="9.25713">
        <ele>220.311</ele>
        <time>2019-10-16T10:05:43.001Z</time>
      </trkpt>
      <trkpt lat="42.65508" lon="9.25518">
        <ele>221.508</ele>
        <time>2019-10-16T10:06:16Z</time>
      </trkpt>
      <trkpt lat="42.65594" lon="9.25369">
        <ele>223.701</ele>
        <time>2019-10-16T10:06:49.001Z</time>
      </trkpt>
      <trkpt lat="42.65666" lon="9.25197">
        <ele>224.037</ele>
        <time>2019-10-16T10:07:22.001Z</time>
      </trkpt>
      <trkpt lat="42.6566" lon="9.25006">
        <ele>224.724</ele>
        <time>2019-10-16T10:07:55.001Z</time>
      </trkpt>
      <trkpt lat="42.65672" lon="9.24804">
        <ele>223.069</ele>
        <time>2019-10-16T10:08:28.001Z</time>
      </trkpt>
      <trkpt lat="42.65625" lon="9.24623">
        <ele>225.476</ele>
        <time>2019-10-16T10:09:01.001Z</time>
      </trkpt>
      <trkpt lat="42.65761" lon="9.24568">
        <ele>226.731</ele>
        <time>2019-10-16T10:09:34.001Z</time>
      </trkpt>
      <trkpt lat="42.65867" lon="9.24463">
        <ele>227.965</ele>
        <time>2019-10-16T10:10:04.001Z</time>
      </trkpt>
      <trkpt lat="42.65943" lon="9.24308">
        <ele>229.381</ele>
        <time>2019-10-16T10:10:37.001Z</time>
      </trkpt>
      <trkpt lat="42.66074" lon="9.24236">
        <ele>230.964</ele>
        <time>2019-10-16T10:11:10.001Z</time>
      </trkpt>
      <trkpt lat="42.66085" lon="9.24039">
        <ele>233.778</ele>
        <time>2019-10-16T10:11:43.001Z</time>
      </trkpt>
      <trkpt lat="42.66082" lon="9.2389">
        <ele>235.076</ele>
        <time>2019-10-16T10:12:16Z</time>
      </trkpt>
      <trkpt lat="42.6618" lon="9.23775">
        <ele>236.774</ele>
        <time>2019-10-16T10:12:49.001Z</time>
      </trkpt>
      <trkpt lat="42.6609" lon="9.23636">
        <ele>238.305</ele>
        <time>2019-10-16T10:13:22.001Z</time>
      </trkpt>
      <trkpt lat="42.65988" lon="9.23517">
        <ele>240.988</ele>
        <time>2019-10-16T10:13:55.001Z</time>
      </trkpt>
      <trkpt lat="42.65899" lon="9.23387">
        <ele>241.876</ele>
        <time>2019-10-16T10:14:25.001Z</time>
      </trkpt>
      <trkpt lat="42.65885" lon="9.23227">
        <ele>245.456</ele>
        <time>2019-10-16T10:14:58.001Z</time>
      </trkpt>
      <trkpt lat="42.66013" lon="9.2319">
        <ele>245.614</ele>
        <time>2019-10-16T10:15:31.001Z</time>
      </trkpt>
      <trkpt lat="42.66063" lon="9.23069">
        <ele>249.224</ele>
        <time>2019-10-16T10:16:04.001Z</time>
      </trkpt>
      <trkpt lat="42.66121" lon="9.22982">
        <ele>253.424</ele>
        <time>2019-10-16T10:16:37.001Z</time>
      </trkpt>
      <trkpt lat="42.66202" lon="9.23051">
        <ele>260.597</ele>
        <time>2019-10-16T10:17:10.001Z</time>
      </trkpt>
      <trkpt lat="42.66303" lon="9.23049">
        <ele>260.754</ele>
        <time>2019-10-16T10:17:43.001Z</time>
      </trkpt>
      <trkpt lat="42.66384" lon="9.22981">
        <ele>265.957</ele>
        <time>2019-10-16T10:18:16Z</time>
      </trkpt>
      <trkpt lat="42.66436" lon="9.22897">
        <ele>268.857</ele>
        <time>2019-10-16T10:18:46.001Z</time>
      </trkpt>
      <trkpt lat="42.66476" lon="9.22765">
        <ele>271.566</ele>
        <time>2019-10-16T10:19:19.001Z</time>
      </trkpt>
      <trkpt lat="42.66491" lon="9.22626">
        <ele>274.73</ele>
        <time>2019-10-16T10:19:52.001Z</time>
      </trkpt>
      <trkpt lat="42.66442" lon="9.22506">
        <ele>277.3</ele>
        <time>2019-10-16T10:20:25.001Z</time>
      </trkpt>
      <trkpt lat="42.66382" lon="9.22379">
        <ele>279.243</ele>
        <time>2019-10-16T10:20:58.001Z</time>
      </trkpt>
      <trkpt lat="42.66332" lon="9.22247">
        <ele>283.713</ele>
        <time>2019-10-16T10:21:31.001Z</time>
      </trkpt>
      <trkpt lat="42.66272" lon="9.22117">
        <ele>282.642</ele>
        <time>2019-10-16T10:22:04.001Z</time>
      </trkpt>
      <trkpt lat="42.6625" lon="9.21982">
        <ele>284.212</ele>
        <time>2019-10-16T10:22:37.001Z</time>
      </trkpt>
      <trkpt lat="42.6636" lon="9.21962">
        <ele>285.035</ele>
        <time>2019-10-16T10:23:07.001Z</time>
      </trkpt>
      <trkpt lat="42.6648" lon="9.21813">
        <ele>285.849</ele>
        <time>2019-10-16T10:23:40.001Z</time>
      </trkpt>
      <trkpt lat="42.66575" lon="9.21626">
        <ele>286.429</ele>
        <time>2019-10-16T10:24:13.001Z</time>
      </trkpt>
      <trkpt lat="42.66457" lon="9.21483">
        <ele>282.645</ele>
        <time>2019-10-16T10:24:46.001Z</time>
      </trkpt>
      <trkpt lat="42.66424" lon="9.21281">
        <ele>283.807</ele>
        <time>2019-10-16T10:25:19.001Z</time>
      </trkpt>
      <trkpt lat="42.6646" lon="9.21081">
        <ele>289.532</ele>
        <time>2019-10-16T10:25:52.001Z</time>
      </trkpt>
      <trkpt lat="42.66413" lon="9.20925">
        <ele>291.753</ele>
        <time>2019-10-16T10:26:25.001Z</time>
      </trkpt>
      <trkpt lat="42.6632" lon="9.20866">
        <ele>292.08</ele>
        <time>2019-10-16T10:26:58.001Z</time>
      </trkpt>
      <trkpt lat="42.66245" lon="9.20828">
        <ele>297.347</ele>
        <time>2019-10-16T10:27:28.001Z</time>
      </trkpt>
      <trkpt lat="42.66153" lon="9.2078">
        <ele>301.072</ele>
        <time>2019-10-16T10:28:01.001Z</time>
      </trkpt>
      <trkpt lat="42.6609" lon="9.20711">
        <ele>304.063</ele>
        <time>2019-10-16T10:28:34.001Z</time>
      </trkpt>
      <trkpt lat="42.66027" lon="9.20667">
        <ele>307.043</ele>
        <time>2019-10-16T10:29:07.001Z</time>
      </trkpt>
      <trkpt lat="42.65945" lon="9.20687">
        <ele>309.096</ele>
        <time>2019-10-16T10:29:40.001Z</time>
      </trkpt>
      <trkpt lat="42.65921" lon="9.20602">
        <ele>315.431</ele>
        <time>2019-10-16T10:30:13.001Z</time>
      </trkpt>
      <trkpt lat="42.65943" lon="9.20491">
        <ele>318.354</ele>
        <time>2019-10-16T10:30:46.001Z</time>
      </trkpt>
      <trkpt lat="42.65896" lon="9.20419">
        <ele>321.078</ele>
        <time>2019-10-16T10:31:19.001Z</time>
      </trkpt>
      <trkpt lat="42.65827" lon="9.20382">
        <ele>323.492</ele>
        <time>2019-10-16T10:31:49.001Z</time>
      </trkpt>
      <trkpt lat="42.65823" lon="9.2035">
        <ele>323.049</ele>
        <time>2019-10-16T10:33:25.001Z</time>
      </trkpt>
      <trkpt lat="42.65816" lon="9.20358">
        <ele>319.877</ele>
        <time>2019-10-16T10:34:34.001Z</time>
      </trkpt>
      <trkpt lat="42.65813" lon="9.20364">
        <ele>319.117</ele>
        <time>2019-10-16T10:45:52.001Z</time>
      </trkpt>
      <trkpt lat="42.65819" lon="9.20357">
        <ele>320.351</ele>
        <time>2019-10-16T11:31:55.001Z</time>
      </trkpt>
      <trkpt lat="42.65756" lon="9.2034">
        <ele>324.739</ele>
        <time>2019-10-16T11:36:01.001Z</time>
      </trkpt>
      <trkpt lat="42.65667" lon="9.20354">
        <ele>328.856</ele>
        <time>2019-10-16T11:36:34.001Z</time>
      </trkpt>
      <trkpt lat="42.65563" lon="9.20318">
        <ele>329.034</ele>
        <time>2019-10-16T11:37:04.001Z</time>
      </trkpt>
      <trkpt lat="42.65431" lon="9.20324">
        <ele>327.071</ele>
        <time>2019-10-16T11:37:37.001Z</time>
      </trkpt>
      <trkpt lat="42.65246" lon="9.20235">
        <ele>320.364</ele>
        <time>2019-10-16T11:38:10.001Z</time>
      </trkpt>
      <trkpt lat="42.65311" lon="9.2004">
        <ele>322.503</ele>
        <time>2019-10-16T11:38:43.001Z</time>
      </trkpt>
      <trkpt lat="42.6537" lon="9.19912">
        <ele>326.752</ele>
        <time>2019-10-16T11:39:16Z</time>
      </trkpt>
      <trkpt lat="42.65381" lon="9.19782">
        <ele>329.604</ele>
        <time>2019-10-16T11:39:49.001Z</time>
      </trkpt>
      <trkpt lat="42.65406" lon="9.19648">
        <ele>331.998</ele>
        <time>2019-10-16T11:40:22.001Z</time>
      </trkpt>
      <trkpt lat="42.65388" lon="9.19511">
        <ele>333.773</ele>
        <time>2019-10-16T11:40:55.001Z</time>
      </trkpt>
      <trkpt lat="42.65485" lon="9.19405">
        <ele>333.77</ele>
        <time>2019-10-16T11:41:25.001Z</time>
      </trkpt>
      <trkpt lat="42.65491" lon="9.19077">
        <ele>322.881</ele>
        <time>2019-10-16T11:41:58.001Z</time>
      </trkpt>
      <trkpt lat="42.65591" lon="9.19231">
        <ele>318.307</ele>
        <time>2019-10-16T11:42:31.001Z</time>
      </trkpt>
      <trkpt lat="42.65712" lon="9.19338">
        <ele>314.59</ele>
        <time>2019-10-16T11:43:04.001Z</time>
      </trkpt>
      <trkpt lat="42.65846" lon="9.19318">
        <ele>317.046</ele>
        <time>2019-10-16T11:43:37.001Z</time>
      </trkpt>
      <trkpt lat="42.65935" lon="9.19151">
        <ele>316.145</ele>
        <time>2019-10-16T11:44:10.001Z</time>
      </trkpt>
      <trkpt lat="42.65976" lon="9.18972">
        <ele>317.54</ele>
        <time>2019-10-16T11:44:43.001Z</time>
      </trkpt>
      <trkpt lat="42.65974" lon="9.18785">
        <ele>319.448</ele>
        <time>2019-10-16T11:45:16Z</time>
      </trkpt>
      <trkpt lat="42.66049" lon="9.18747">
        <ele>320.793</ele>
        <time>2019-10-16T11:47:16Z</time>
      </trkpt>
      <trkpt lat="42.6607" lon="9.18593">
        <ele>318.145</ele>
        <time>2019-10-16T11:47:49.001Z</time>
      </trkpt>
      <trkpt lat="42.66035" lon="9.18435">
        <ele>319.108</ele>
        <time>2019-10-16T11:48:22.001Z</time>
      </trkpt>
      <trkpt lat="42.65919" lon="9.18379">
        <ele>322.667</ele>
        <time>2019-10-16T11:48:55.001Z</time>
      </trkpt>
      <trkpt lat="42.65867" lon="9.18264">
        <ele>320.856</ele>
        <time>2019-10-16T11:49:28.001Z</time>
      </trkpt>
      <trkpt lat="42.65817" lon="9.18117">
        <ele>322.485</ele>
        <time>2019-10-16T11:50:01.001Z</time>
      </trkpt>
      <trkpt lat="42.65721" lon="9.18057">
        <ele>326.701</ele>
        <time>2019-10-16T11:50:34.001Z</time>
      </trkpt>
      <trkpt lat="42.65654" lon="9.17956">
        <ele>327.548</ele>
        <time>2019-10-16T11:51:07.001Z</time>
      </trkpt>
      <trkpt lat="42.65558" lon="9.17993">
        <ele>330.41</ele>
        <time>2019-10-16T11:51:37.001Z</time>
      </trkpt>
      <trkpt lat="42.65459" lon="9.18042">
        <ele>335.186</ele>
        <time>2019-10-16T11:52:10.001Z</time>
      </trkpt>
      <trkpt lat="42.65448" lon="9.17926">
        <ele>342.264</ele>
        <time>2019-10-16T11:52:43.001Z</time>
      </trkpt>
      <trkpt lat="42.65513" lon="9.17794">
        <ele>338.897</ele>
        <time>2019-10-16T11:53:16Z</time>
      </trkpt>
      <trkpt lat="42.6555" lon="9.17648">
        <ele>341.15</ele>
        <time>2019-10-16T11:53:49.001Z</time>
      </trkpt>
      <trkpt lat="42.65595" lon="9.17513">
        <ele>345.698</ele>
        <time>2019-10-16T11:54:22.001Z</time>
      </trkpt>
      <trkpt lat="42.65557" lon="9.17384">
        <ele>346.83</ele>
        <time>2019-10-16T11:54:55.001Z</time>
      </trkpt>
      <trkpt lat="42.65488" lon="9.17272">
        <ele>346.766</ele>
        <time>2019-10-16T11:55:28.001Z</time>
      </trkpt>
      <trkpt lat="42.6553" lon="9.17111">
        <ele>344.446</ele>
        <time>2019-10-16T11:55:58.001Z</time>
      </trkpt>
      <trkpt lat="42.65449" lon="9.16895">
        <ele>336.807</ele>
        <time>2019-10-16T11:56:31.001Z</time>
      </trkpt>
      <trkpt lat="42.65368" lon="9.167">
        <ele>330.497</ele>
        <time>2019-10-16T11:57:04.001Z</time>
      </trkpt>
      <trkpt lat="42.65342" lon="9.16419">
        <ele>325.461</ele>
        <time>2019-10-16T11:57:37.001Z</time>
      </trkpt>
      <trkpt lat="42.6539" lon="9.16178">
        <ele>321.426</ele>
        <time>2019-10-16T11:58:10.001Z</time>
      </trkpt>
      <trkpt lat="42.65453" lon="9.16286">
        <ele>326.226</ele>
        <time>2019-10-16T11:58:43.001Z</time>
      </trkpt>
      <trkpt lat="42.65527" lon="9.16344">
        <ele>333.029</ele>
        <time>2019-10-16T11:59:16Z</time>
      </trkpt>
      <trkpt lat="42.65601" lon="9.16297">
        <ele>335.45</ele>
        <time>2019-10-16T11:59:49.001Z</time>
      </trkpt>
      <trkpt lat="42.65648" lon="9.16223">
        <ele>340.909</ele>
        <time>2019-10-16T12:00:19.001Z</time>
      </trkpt>
      <trkpt lat="42.65661" lon="9.16125">
        <ele>342.188</ele>
        <time>2019-10-16T12:00:52.001Z</time>
      </trkpt>
      <trkpt lat="42.65726" lon="9.16112">
        <ele>346.969</ele>
        <time>2019-10-16T12:01:25.001Z</time>
      </trkpt>
      <trkpt lat="42.65783" lon="9.16036">
        <ele>349.784</ele>
        <time>2019-10-16T12:01:58.001Z</time>
      </trkpt>
      <trkpt lat="42.65812" lon="9.15937">
        <ele>352.405</ele>
        <time>2019-10-16T12:02:31.001Z</time>
      </trkpt>
      <trkpt lat="42.65881" lon="9.15896">
        <ele>356.324</ele>
        <time>2019-10-16T12:03:04.001Z</time>
      </trkpt>
      <trkpt lat="42.6593" lon="9.15802">
        <ele>361.055</ele>
        <time>2019-10-16T12:03:37.001Z</time>
      </trkpt>
      <trkpt lat="42.65962" lon="9.15683">
        <ele>360.993</ele>
        <time>2019-10-16T12:04:07.001Z</time>
      </trkpt>
      <trkpt lat="42.66059" lon="9.15676">
        <ele>360.291</ele>
        <time>2019-10-16T12:04:40.001Z</time>
      </trkpt>
      <trkpt lat="42.66145" lon="9.15732">
        <ele>362.142</ele>
        <time>2019-10-16T12:05:13.001Z</time>
      </trkpt>
      <trkpt lat="42.66305" lon="9.15578">
        <ele>354.624</ele>
        <time>2019-10-16T12:05:46.001Z</time>
      </trkpt>
      <trkpt lat="42.66527" lon="9.15407">
        <ele>338.133</ele>
        <time>2019-10-16T12:06:19.001Z</time>
      </trkpt>
      <trkpt lat="42.66605" lon="9.15105">
        <ele>321.136</ele>
        <time>2019-10-16T12:06:52.001Z</time>
      </trkpt>
      <trkpt lat="42.66646" lon="9.14936">
        <ele>322.009</ele>
        <time>2019-10-16T12:07:25.001Z</time>
      </trkpt>
      <trkpt lat="42.66719" lon="9.14845">
        <ele>320.383</ele>
        <time>2019-10-16T12:07:58.001Z</time>
      </trkpt>
      <trkpt lat="42.66662" lon="9.14687">
        <ele>319.153</ele>
        <time>2019-10-16T12:08:28.001Z</time>
      </trkpt>
      <trkpt lat="42.66666" lon="9.14469">
        <ele>315.895</ele>
        <time>2019-10-16T12:09:01.001Z</time>
      </trkpt>
      <trkpt lat="42.66626" lon="9.14279">
        <ele>311.995</ele>
        <time>2019-10-16T12:09:34.001Z</time>
      </trkpt>
      <trkpt lat="42.66589" lon="9.14086">
        <ele>309.102</ele>
        <time>2019-10-16T12:10:07.001Z</time>
      </trkpt>
      <trkpt lat="42.66476" lon="9.13826">
        <ele>305.988</ele>
        <time>2019-10-16T12:10:40.001Z</time>
      </trkpt>
      <trkpt lat="42.66307" lon="9.13558">
        <ele>285.859</ele>
        <time>2019-10-16T12:11:13.001Z</time>
      </trkpt>
      <trkpt lat="42.66202" lon="9.13298">
        <ele>264.026</ele>
        <time>2019-10-16T12:11:46.001Z</time>
      </trkpt>
      <trkpt lat="42.66162" lon="9.13022">
        <ele>252.208</ele>
        <time>2019-10-16T12:12:19.001Z</time>
      </trkpt>
      <trkpt lat="42.66129" lon="9.12755">
        <ele>240.814</ele>
        <time>2019-10-16T12:12:49.001Z</time>
      </trkpt>
      <trkpt lat="42.66004" lon="9.12366">
        <ele>225.667</ele>
        <time>2019-10-16T12:13:22.001Z</time>
      </trkpt>
      <trkpt lat="42.65819" lon="9.12131">
        <ele>208.547</ele>
        <time>2019-10-16T12:13:55.001Z</time>
      </trkpt>
      <trkpt lat="42.65829" lon="9.11765">
        <ele>188.588</ele>
        <time>2019-10-16T12:14:28.001Z</time>
      </trkpt>
      <trkpt lat="42.65842" lon="9.11466">
        <ele>169.16</ele>
        <time>2019-10-16T12:15:01.001Z</time>
      </trkpt>
      <trkpt lat="42.6553" lon="9.11577">
        <ele>156.033</ele>
        <time>2019-10-16T12:15:34.001Z</time>
      </trkpt>
      <trkpt lat="42.65249" lon="9.11297">
        <ele>133.168</ele>
        <time>2019-10-16T12:16:07.001Z</time>
      </trkpt>
      <trkpt lat="42.65404" lon="9.11019">
        <ele>119.662</ele>
        <time>2019-10-16T12:16:40.001Z</time>
      </trkpt>
      <trkpt lat="42.65264" lon="9.10798">
        <ele>105.324</ele>
        <time>2019-10-16T12:17:10.001Z</time>
      </trkpt>
      <trkpt lat="42.65141" lon="9.10699">
        <ele>89.138</ele>
        <time>2019-10-16T12:17:43.001Z</time>
      </trkpt>
      <trkpt lat="42.64893" lon="9.10696">
        <ele>70.269</ele>
        <time>2019-10-16T12:18:16Z</time>
      </trkpt>
      <trkpt lat="42.64836" lon="9.10463">
        <ele>67.813</ele>
        <time>2019-10-16T12:18:49.001Z</time>
      </trkpt>
      <trkpt lat="42.64676" lon="9.10413">
        <ele>63.613</ele>
        <time>2019-10-16T12:19:22.001Z</time>
      </trkpt>
      <trkpt lat="42.64616" lon="9.10191">
        <ele>62.875</ele>
        <time>2019-10-16T12:19:55.001Z</time>
      </trkpt>
      <trkpt lat="42.64728" lon="9.09995">
        <ele>55.696</ele>
        <time>2019-10-16T12:20:28.001Z</time>
      </trkpt>
      <trkpt lat="42.64705" lon="9.09817">
        <ele>46.529</ele>
        <time>2019-10-16T12:21:01.001Z</time>
      </trkpt>
      <trkpt lat="42.64656" lon="9.09598">
        <ele>46.026</ele>
        <time>2019-10-16T12:21:31.001Z</time>
      </trkpt>
      <trkpt lat="42.64662" lon="9.09329">
        <ele>41.659</ele>
        <time>2019-10-16T12:22:04.001Z</time>
      </trkpt>
      <trkpt lat="42.6478" lon="9.09121">
        <ele>40.661</ele>
        <time>2019-10-16T12:22:37.001Z</time>
      </trkpt>
      <trkpt lat="42.64971" lon="9.08989">
        <ele>37.652</ele>
        <time>2019-10-16T12:23:10.001Z</time>
      </trkpt>
      <trkpt lat="42.65023" lon="9.0865">
        <ele>29.655</ele>
        <time>2019-10-16T12:23:43.001Z</time>
      </trkpt>
      <trkpt lat="42.65089" lon="9.08275">
        <ele>16.005</ele>
        <time>2019-10-16T12:24:16Z</time>
      </trkpt>
      <trkpt lat="42.65142" lon="9.07971">
        <ele>9.282</ele>
        <time>2019-10-16T12:24:49.001Z</time>
      </trkpt>
      <trkpt lat="42.65186" lon="9.07721">
        <ele>5.803</ele>
        <time>2019-10-16T12:25:22.001Z</time>
      </trkpt>
      <trkpt lat="42.65217" lon="9.07535">
        <ele>9.985</ele>
        <time>2019-10-16T12:25:52.001Z</time>
      </trkpt>
      <trkpt lat="42.6525" lon="9.07357">
        <ele>13.053</ele>
        <time>2019-10-16T12:26:25.001Z</time>
      </trkpt>
      <trkpt lat="42.65281" lon="9.07174">
        <ele>13.642</ele>
        <time>2019-10-16T12:26:58.001Z</time>
      </trkpt>
      <trkpt lat="42.65313" lon="9.06998">
        <ele>13.065</ele>
        <time>2019-10-16T12:27:31.001Z</time>
      </trkpt>
      <trkpt lat="42.65332" lon="9.06858">
        <ele>16.614</ele>
        <time>2019-10-16T12:28:04.001Z</time>
      </trkpt>
      <trkpt lat="42.65338" lon="9.06734">
        <ele>17.95</ele>
        <time>2019-10-16T12:28:37.001Z</time>
      </trkpt>
      <trkpt lat="42.65337" lon="9.06612">
        <ele>19.594</ele>
        <time>2019-10-16T12:29:10.001Z</time>
      </trkpt>
      <trkpt lat="42.65335" lon="9.06503">
        <ele>21.858</ele>
        <time>2019-10-16T12:29:43.001Z</time>
      </trkpt>
      <trkpt lat="42.65334" lon="9.0641">
        <ele>26.744</ele>
        <time>2019-10-16T12:30:13.001Z</time>
      </trkpt>
      <trkpt lat="42.65333" lon="9.06314">
        <ele>31.518</ele>
        <time>2019-10-16T12:30:46.001Z</time>
      </trkpt>
      <trkpt lat="42.65335" lon="9.06211">
        <ele>33.719</ele>
        <time>2019-10-16T12:31:19.001Z</time>
      </trkpt>
      <trkpt lat="42.65337" lon="9.06124">
        <ele>38.356</ele>
        <time>2019-10-16T12:31:52.001Z</time>
      </trkpt>
      <trkpt lat="42.65352" lon="9.06047">
        <ele>44.495</ele>
        <time>2019-10-16T12:32:25.001Z</time>
      </trkpt>
      <trkpt lat="42.65376" lon="9.05972">
        <ele>47.675</ele>
        <time>2019-10-16T12:32:58.001Z</time>
      </trkpt>
      <trkpt lat="42.65416" lon="9.05904">
        <ele>53.008</ele>
        <time>2019-10-16T12:33:31.001Z</time>
      </trkpt>
      <trkpt lat="42.6546" lon="9.05841">
        <ele>55.032</ele>
        <time>2019-10-16T12:34:01.001Z</time>
      </trkpt>
      <trkpt lat="42.65512" lon="9.05756">
        <ele>58.257</ele>
        <time>2019-10-16T12:34:34.001Z</time>
      </trkpt>
      <trkpt lat="42.65599" lon="9.05627">
        <ele>54.145</ele>
        <time>2019-10-16T12:35:07.001Z</time>
      </trkpt>
      <trkpt lat="42.65701" lon="9.05304">
        <ele>45.032</ele>
        <time>2019-10-16T12:35:40.001Z</time>
      </trkpt>
      <trkpt lat="42.65611" lon="9.05034">
        <ele>34.932</ele>
        <time>2019-10-16T12:36:13.001Z</time>
      </trkpt>
      <trkpt lat="42.65571" lon="9.04846">
        <ele>34.966</ele>
        <time>2019-10-16T12:36:46.001Z</time>
      </trkpt>
      <trkpt lat="42.65513" lon="9.04725">
        <ele>39.937</ele>
        <time>2019-10-16T12:37:19.001Z</time>
      </trkpt>
      <trkpt lat="42.65426" lon="9.0461">
        <ele>41.165</ele>
        <time>2019-10-16T12:37:52.001Z</time>
      </trkpt>
      <trkpt lat="42.65361" lon="9.0449">
        <ele>38.753</ele>
        <time>2019-10-16T12:38:22.001Z</time>
      </trkpt>
      <trkpt lat="42.65313" lon="9.04362">
        <ele>41.176</ele>
        <time>2019-10-16T12:38:55.001Z</time>
      </trkpt>
      <trkpt lat="42.65287" lon="9.0428">
        <ele>40.148</ele>
        <time>2019-10-16T12:46:13.001Z</time>
      </trkpt>
      <trkpt lat="42.65247" lon="9.04152">
        <ele>43.283</ele>
        <time>2019-10-16T12:46:46.001Z</time>
      </trkpt>
      <trkpt lat="42.65226" lon="9.04004">
        <ele>48.369</ele>
        <time>2019-10-16T12:47:19.001Z</time>
      </trkpt>
      <trkpt lat="42.65244" lon="9.03854">
        <ele>51.851</ele>
        <time>2019-10-16T12:47:52.001Z</time>
      </trkpt>
      <trkpt lat="42.65301" lon="9.03698">
        <ele>47.485</ele>
        <time>2019-10-16T12:48:25.001Z</time>
      </trkpt>
      <trkpt lat="42.65335" lon="9.03536">
        <ele>51.014</ele>
        <time>2019-10-16T12:48:58.001Z</time>
      </trkpt>
      <trkpt lat="42.65286" lon="9.03396">
        <ele>57.414</ele>
        <time>2019-10-16T12:49:28.001Z</time>
      </trkpt>
      <trkpt lat="42.65228" lon="9.03222">
        <ele>53.648</ele>
        <time>2019-10-16T12:50:01.001Z</time>
      </trkpt>
      <trkpt lat="42.65237" lon="9.03046">
        <ele>51.328</ele>
        <time>2019-10-16T12:50:34.001Z</time>
      </trkpt>
      <trkpt lat="42.65211" lon="9.02919">
        <ele>56.374</ele>
        <time>2019-10-16T12:51:07.001Z</time>
      </trkpt>
      <trkpt lat="42.6516" lon="9.0284">
        <ele>58.899</ele>
        <time>2019-10-16T12:51:40.001Z</time>
      </trkpt>
      <trkpt lat="42.65097" lon="9.02791">
        <ele>65.294</ele>
        <time>2019-10-16T12:52:13.001Z</time>
      </trkpt>
      <trkpt lat="42.65041" lon="9.0274">
        <ele>72.047</ele>
        <time>2019-10-16T12:52:46.001Z</time>
      </trkpt>
      <trkpt lat="42.64967" lon="9.027">
        <ele>71.742</ele>
        <time>2019-10-16T12:53:19.001Z</time>
      </trkpt>
      <trkpt lat="42.6489" lon="9.02663">
        <ele>72.799</ele>
        <time>2019-10-16T12:53:49.001Z</time>
      </trkpt>
      <trkpt lat="42.64812" lon="9.02586">
        <ele>77.768</ele>
        <time>2019-10-16T12:54:22.001Z</time>
      </trkpt>
      <trkpt lat="42.64774" lon="9.02548">
        <ele>75.762</ele>
        <time>2019-10-16T12:57:01.001Z</time>
      </trkpt>
      <trkpt lat="42.6453" lon="9.02371">
        <ele>61.025</ele>
        <time>2019-10-16T12:57:34.001Z</time>
      </trkpt>
      <trkpt lat="42.64181" lon="9.02302">
        <ele>30.126</ele>
        <time>2019-10-16T12:58:07.001Z</time>
      </trkpt>
      <trkpt lat="42.63921" lon="9.02166">
        <ele>17.715</ele>
        <time>2019-10-16T12:58:40.001Z</time>
      </trkpt>
      <trkpt lat="42.63811" lon="9.01919">
        <ele>13.434</ele>
        <time>2019-10-16T12:59:13.001Z</time>
      </trkpt>
      <trkpt lat="42.63814" lon="9.01653">
        <ele>8.096</ele>
        <time>2019-10-16T12:59:46.001Z</time>
      </trkpt>
      <trkpt lat="42.63722" lon="9.01419">
        <ele>0.772</ele>
        <time>2019-10-16T13:00:16Z</time>
      </trkpt>
      <trkpt lat="42.63637" lon="9.01201">
        <ele>1.4</ele>
        <time>2019-10-16T13:00:49.001Z</time>
      </trkpt>
      <trkpt lat="42.6359" lon="9.0103">
        <ele>2.968</ele>
        <time>2019-10-16T13:01:22.001Z</time>
      </trkpt>
      <trkpt lat="42.6355" lon="9.00865">
        <ele>3.996</ele>
        <time>2019-10-16T13:01:55.001Z</time>
      </trkpt>
      <trkpt lat="42.63609" lon="9.00697">
        <ele>6.786</ele>
        <time>2019-10-16T13:02:28.001Z</time>
      </trkpt>
      <trkpt lat="42.63653" lon="9.00599">
        <ele>14.247</ele>
        <time>2019-10-16T13:03:01.001Z</time>
      </trkpt>
      <trkpt lat="42.63698" lon="9.00509">
        <ele>19.173</ele>
        <time>2019-10-16T13:03:34.001Z</time>
      </trkpt>
      <trkpt lat="42.63765" lon="9.00451">
        <ele>21.183</ele>
        <time>2019-10-16T13:04:07.001Z</time>
      </trkpt>
      <trkpt lat="42.63834" lon="9.00453">
        <ele>24.427</ele>
        <time>2019-10-16T13:04:37.001Z</time>
      </trkpt>
      <trkpt lat="42.6391" lon="9.00433">
        <ele>28.154</ele>
        <time>2019-10-16T13:05:10.001Z</time>
      </trkpt>
      <trkpt lat="42.63985" lon="9.00385">
        <ele>29.974</ele>
        <time>2019-10-16T13:05:43.001Z</time>
      </trkpt>
      <trkpt lat="42.64055" lon="9.00329">
        <ele>35.636</ele>
        <time>2019-10-16T13:06:16Z</time>
      </trkpt>
      <trkpt lat="42.64088" lon="9.00221">
        <ele>36.797</ele>
        <time>2019-10-16T13:06:49.001Z</time>
      </trkpt>
      <trkpt lat="42.6407" lon="9.00082">
        <ele>37.42</ele>
        <time>2019-10-16T13:07:22.001Z</time>
      </trkpt>
      <trkpt lat="42.64019" lon="8.99935">
        <ele>39.122</ele>
        <time>2019-10-16T13:07:55.001Z</time>
      </trkpt>
      <trkpt lat="42.63969" lon="8.99797">
        <ele>41.975</ele>
        <time>2019-10-16T13:08:25.001Z</time>
      </trkpt>
      <trkpt lat="42.63928" lon="8.99588">
        <ele>39.833</ele>
        <time>2019-10-16T13:08:58.001Z</time>
      </trkpt>
      <trkpt lat="42.63883" lon="8.99339">
        <ele>32.888</ele>
        <time>2019-10-16T13:09:31.001Z</time>
      </trkpt>
      <trkpt lat="42.63814" lon="8.99082">
        <ele>28.859</ele>
        <time>2019-10-16T13:10:04.001Z</time>
      </trkpt>
      <trkpt lat="42.63802" lon="8.98869">
        <ele>26.846</ele>
        <time>2019-10-16T13:10:37.001Z</time>
      </trkpt>
      <trkpt lat="42.63794" lon="8.98612">
        <ele>21.277</ele>
        <time>2019-10-16T13:11:10.001Z</time>
      </trkpt>
      <trkpt lat="42.63827" lon="8.98299">
        <ele>15.901</ele>
        <time>2019-10-16T13:11:43.001Z</time>
      </trkpt>
      <trkpt lat="42.63906" lon="8.98061">
        <ele>13.563</ele>
        <time>2019-10-16T13:12:16Z</time>
      </trkpt>
      <trkpt lat="42.63834" lon="8.97835">
        <ele>8.893</ele>
        <time>2019-10-16T13:12:46.001Z</time>
      </trkpt>
      <trkpt lat="42.63716" lon="8.97678">
        <ele>9.685</ele>
        <time>2019-10-16T13:13:19.001Z</time>
      </trkpt>
      <trkpt lat="42.63729" lon="8.97585">
        <ele>16.761</ele>
        <time>2019-10-16T13:13:52.001Z</time>
      </trkpt>
      <trkpt lat="42.63785" lon="8.97539">
        <ele>20.903</ele>
        <time>2019-10-16T13:14:25.001Z</time>
      </trkpt>
      <trkpt lat="42.63843" lon="8.97492">
        <ele>24.077</ele>
        <time>2019-10-16T13:14:58.001Z</time>
      </trkpt>
      <trkpt lat="42.63877" lon="8.97422">
        <ele>29.7</ele>
        <time>2019-10-16T13:15:31.001Z</time>
      </trkpt>
      <trkpt lat="42.63885" lon="8.97333">
        <ele>34.505</ele>
        <time>2019-10-16T13:16:04.001Z</time>
      </trkpt>
      <trkpt lat="42.63861" lon="8.97231">
        <ele>35.029</ele>
        <time>2019-10-16T13:16:37.001Z</time>
      </trkpt>
      <trkpt lat="42.63781" lon="8.97112">
        <ele>34.981</ele>
        <time>2019-10-16T13:17:07.001Z</time>
      </trkpt>
      <trkpt lat="42.63702" lon="8.96932">
        <ele>36.018</ele>
        <time>2019-10-16T13:17:40.001Z</time>
      </trkpt>
      <trkpt lat="42.63581" lon="8.96692">
        <ele>28.552</ele>
        <time>2019-10-16T13:18:13.001Z</time>
      </trkpt>
      <trkpt lat="42.63424" lon="8.9645">
        <ele>17.031</ele>
        <time>2019-10-16T13:18:46.001Z</time>
      </trkpt>
      <trkpt lat="42.63259" lon="8.9622">
        <ele>11.546</ele>
        <time>2019-10-16T13:19:19.001Z</time>
      </trkpt>
      <trkpt lat="42.63181" lon="8.9608">
        <ele>17.172</ele>
        <time>2019-10-16T13:19:52.001Z</time>
      </trkpt>
      <trkpt lat="42.6314" lon="8.95989">
        <ele>25.151</ele>
        <time>2019-10-16T13:20:25.001Z</time>
      </trkpt>
      <trkpt lat="42.63136" lon="8.95889">
        <ele>28.544</ele>
        <time>2019-10-16T13:20:58.001Z</time>
      </trkpt>
      <trkpt lat="42.63138" lon="8.95798">
        <ele>32.293</ele>
        <time>2019-10-16T13:21:28.001Z</time>
      </trkpt>
      <trkpt lat="42.63139" lon="8.95698">
        <ele>39.53</ele>
        <time>2019-10-16T13:22:01.001Z</time>
      </trkpt>
      <trkpt lat="42.63143" lon="8.95598">
        <ele>43.675</ele>
        <time>2019-10-16T13:22:34.001Z</time>
      </trkpt>
      <trkpt lat="42.63131" lon="8.95491">
        <ele>47.847</ele>
        <time>2019-10-16T13:23:07.001Z</time>
      </trkpt>
      <trkpt lat="42.63115" lon="8.95348">
        <ele>43.796</ele>
        <time>2019-10-16T13:23:40.001Z</time>
      </trkpt>
      <trkpt lat="42.63099" lon="8.95094">
        <ele>38.918</ele>
        <time>2019-10-16T13:24:13.001Z</time>
      </trkpt>
      <trkpt lat="42.63172" lon="8.94729">
        <ele>17.711</ele>
        <time>2019-10-16T13:24:46.001Z</time>
      </trkpt>
      <trkpt lat="42.63219" lon="8.94345">
        <ele>3.327</ele>
        <time>2019-10-16T13:25:19.001Z</time>
      </trkpt>
      <trkpt lat="42.63236" lon="8.94176">
        <ele>6.872</ele>
        <time>2019-10-16T13:25:49.001Z</time>
      </trkpt>
      <trkpt lat="42.63252" lon="8.94094">
        <ele>21.186</ele>
        <time>2019-10-16T13:26:49.001Z</time>
      </trkpt>
      <trkpt lat="42.63267" lon="8.93933">
        <ele>22.672</ele>
        <time>2019-10-16T13:27:25.001Z</time>
      </trkpt>
      <trkpt lat="42.63266" lon="8.93789">
        <ele>22.293</ele>
        <time>2019-10-16T13:32:52.001Z</time>
      </trkpt>
      <trkpt lat="42.63258" lon="8.93774">
        <ele>25.529</ele>
        <time>2019-10-16T13:34:16Z</time>
      </trkpt>
      <trkpt lat="42.63169" lon="8.93771">
        <ele>26.962</ele>
        <time>2019-10-16T13:34:49.001Z</time>
      </trkpt>
      <trkpt lat="42.63166" lon="8.93914">
        <ele>12.744</ele>
        <time>2019-10-16T13:35:22.001Z</time>
      </trkpt>
      <trkpt lat="42.6316" lon="8.94028">
        <ele>12.596</ele>
        <time>2019-10-16T13:35:55.001Z</time>
      </trkpt>
      <trkpt lat="42.63082" lon="8.9406">
        <ele>18.941</ele>
        <time>2019-10-16T13:36:25.001Z</time>
      </trkpt>
      <trkpt lat="42.63" lon="8.94099">
        <ele>21.953</ele>
        <time>2019-10-16T13:36:58.001Z</time>
      </trkpt>
      <trkpt lat="42.62927" lon="8.94157">
        <ele>25.812</ele>
        <time>2019-10-16T13:37:31.001Z</time>
      </trkpt>
      <trkpt lat="42.62934" lon="8.94275">
        <ele>25.185</ele>
        <time>2019-10-16T13:38:04.001Z</time>
      </trkpt>
      <trkpt lat="42.62885" lon="8.94334">
        <ele>41.06</ele>
        <time>2019-10-16T13:38:49.001Z</time>
      </trkpt>
      <trkpt lat="42.62821" lon="8.94321">
        <ele>45.488</ele>
        <time>2019-10-16T13:39:25.001Z</time>
      </trkpt>
      <trkpt lat="42.62793" lon="8.94357">
        <ele>48.232</ele>
        <time>2019-10-16T13:40:40.001Z</time>
      </trkpt>
      <trkpt lat="42.62781" lon="8.94399">
        <ele>50.584</ele>
        <time>2019-10-16T13:41:25.001Z</time>
      </trkpt>
      <trkpt lat="42.62737" lon="8.94376">
        <ele>60.172</ele>
        <time>2019-10-16T13:42:28.001Z</time>
      </trkpt>
      <trkpt lat="42.62704" lon="8.94288">
        <ele>58.177</ele>
        <time>2019-10-16T13:43:31.001Z</time>
      </trkpt>
      <trkpt lat="42.62671" lon="8.94343">
        <ele>63.781</ele>
        <time>2019-10-16T13:44:28.001Z</time>
      </trkpt>
      <trkpt lat="42.62665" lon="8.94421">
        <ele>64.571</ele>
        <time>2019-10-16T13:45:10.001Z</time>
      </trkpt>
      <trkpt lat="42.62631" lon="8.94432">
        <ele>75.752</ele>
        <time>2019-10-16T13:46:01.001Z</time>
      </trkpt>
      <trkpt lat="42.62627" lon="8.94453">
        <ele>74.297</ele>
        <time>2019-10-16T13:46:55.001Z</time>
      </trkpt>
      <trkpt lat="42.6267" lon="8.9461">
        <ele>70.483</ele>
        <time>2019-10-16T13:47:28.001Z</time>
      </trkpt>
      <trkpt lat="42.62708" lon="8.94655">
        <ele>71.488</ele>
        <time>2019-10-16T13:48:37.001Z</time>
      </trkpt>
      <trkpt lat="42.62797" lon="8.94688">
        <ele>76.047</ele>
        <time>2019-10-16T13:49:10.001Z</time>
      </trkpt>
      <trkpt lat="42.62811" lon="8.94779">
        <ele>78.043</ele>
        <time>2019-10-16T13:49:43.001Z</time>
      </trkpt>
      <trkpt lat="42.62778" lon="8.94804">
        <ele>87.377</ele>
        <time>2019-10-16T14:00:44.001Z</time>
      </trkpt>
      <trkpt lat="42.62648" lon="8.94774">
        <ele>86.215</ele>
        <time>2019-10-16T14:01:17.001Z</time>
      </trkpt>
      <trkpt lat="42.62648" lon="8.94879">
        <ele>88.096</ele>
        <time>2019-10-16T14:01:50.001Z</time>
      </trkpt>
      <trkpt lat="42.62634" lon="8.94959">
        <ele>93.28</ele>
        <time>2019-10-16T14:02:23.001Z</time>
      </trkpt>
      <trkpt lat="42.62564" lon="8.95029">
        <ele>93.879</ele>
        <time>2019-10-16T14:02:56.001Z</time>
      </trkpt>
      <trkpt lat="42.6249" lon="8.9505">
        <ele>94.295</ele>
        <time>2019-10-16T14:03:26.001Z</time>
      </trkpt>
      <trkpt lat="42.62414" lon="8.95099">
        <ele>99.116</ele>
        <time>2019-10-16T14:03:59.001Z</time>
      </trkpt>
      <trkpt lat="42.62368" lon="8.95191">
        <ele>102.424</ele>
        <time>2019-10-16T14:04:32.001Z</time>
      </trkpt>
      <trkpt lat="42.62305" lon="8.95195">
        <ele>110.679</ele>
        <time>2019-10-16T14:05:05.001Z</time>
      </trkpt>
      <trkpt lat="42.62267" lon="8.95131">
        <ele>116.244</ele>
        <time>2019-10-16T14:05:38.001Z</time>
      </trkpt>
      <trkpt lat="42.62231" lon="8.95065">
        <ele>120.075</ele>
        <time>2019-10-16T14:06:11.001Z</time>
      </trkpt>
      <trkpt lat="42.62197" lon="8.95002">
        <ele>121.555</ele>
        <time>2019-10-16T14:06:44.001Z</time>
      </trkpt>
      <trkpt lat="42.6231" lon="8.94885">
        <ele>118.622</ele>
        <time>2019-10-16T14:07:20.001Z</time>
      </trkpt>
    </trkseg>
  </trk>
  <trk>
    <name><![CDATA[Tracé 20191017-100811]]></name>
    <trkseg>
      <trkpt lat="42.62402" lon="8.94897">
        <ele>105.912</ele>
        <time>2019-10-17T08:22:17Z</time>
      </trkpt>
      <trkpt lat="42.62224" lon="8.9497">
        <ele>115.348</ele>
        <time>2019-10-17T08:26:29Z</time>
      </trkpt>
      <trkpt lat="42.62294" lon="8.95185">
        <ele>114.558</ele>
        <time>2019-10-17T08:29:20Z</time>
      </trkpt>
      <trkpt lat="42.6254" lon="8.95037">
        <ele>96.385</ele>
        <time>2019-10-17T08:29:59Z</time>
      </trkpt>
      <trkpt lat="42.62758" lon="8.95206">
        <ele>82.986</ele>
        <time>2019-10-17T08:30:35Z</time>
      </trkpt>
      <trkpt lat="42.62946" lon="8.94933">
        <ele>64.24</ele>
        <time>2019-10-17T08:31:11Z</time>
      </trkpt>
      <trkpt lat="42.63012" lon="8.94619">
        <ele>48.737</ele>
        <time>2019-10-17T08:31:47Z</time>
      </trkpt>
      <trkpt lat="42.6296" lon="8.94314">
        <ele>22.531</ele>
        <time>2019-10-17T08:32:23Z</time>
      </trkpt>
      <trkpt lat="42.63018" lon="8.94091">
        <ele>13.285</ele>
        <time>2019-10-17T08:33:02Z</time>
      </trkpt>
      <trkpt lat="42.63173" lon="8.93895">
        <ele>7.402</ele>
        <time>2019-10-17T08:33:38Z</time>
      </trkpt>
      <trkpt lat="42.63253" lon="8.93748">
        <ele>11.393</ele>
        <time>2019-10-17T08:34:14Z</time>
      </trkpt>
      <trkpt lat="42.63217" lon="8.93609">
        <ele>21.887</ele>
        <time>2019-10-17T08:34:50Z</time>
      </trkpt>
      <trkpt lat="42.63184" lon="8.93497">
        <ele>27.656</ele>
        <time>2019-10-17T08:35:26.001Z</time>
      </trkpt>
      <trkpt lat="42.63142" lon="8.93388">
        <ele>37.27</ele>
        <time>2019-10-17T08:36:05.001Z</time>
      </trkpt>
      <trkpt lat="42.63086" lon="8.93304">
        <ele>42.447</ele>
        <time>2019-10-17T08:36:41.001Z</time>
      </trkpt>
      <trkpt lat="42.63035" lon="8.93215">
        <ele>35.364</ele>
        <time>2019-10-17T08:37:17.001Z</time>
      </trkpt>
      <trkpt lat="42.6298" lon="8.93136">
        <ele>40.945</ele>
        <time>2019-10-17T08:37:53.001Z</time>
      </trkpt>
      <trkpt lat="42.62927" lon="8.93055">
        <ele>42.096</ele>
        <time>2019-10-17T08:38:29.001Z</time>
      </trkpt>
      <trkpt lat="42.62871" lon="8.92967">
        <ele>48.528</ele>
        <time>2019-10-17T08:39:08.001Z</time>
      </trkpt>
      <trkpt lat="42.62815" lon="8.9289">
        <ele>47.353</ele>
        <time>2019-10-17T08:39:44.001Z</time>
      </trkpt>
      <trkpt lat="42.6276" lon="8.92805">
        <ele>53.544</ele>
        <time>2019-10-17T08:40:20.001Z</time>
      </trkpt>
      <trkpt lat="42.62711" lon="8.92722">
        <ele>59.716</ele>
        <time>2019-10-17T08:40:56.001Z</time>
      </trkpt>
      <trkpt lat="42.62716" lon="8.9262">
        <ele>78.423</ele>
        <time>2019-10-17T08:41:32.001Z</time>
      </trkpt>
      <trkpt lat="42.6274" lon="8.92513">
        <ele>83.177</ele>
        <time>2019-10-17T08:42:11.001Z</time>
      </trkpt>
      <trkpt lat="42.62746" lon="8.92411">
        <ele>88.419</ele>
        <time>2019-10-17T08:42:47.001Z</time>
      </trkpt>
      <trkpt lat="42.62751" lon="8.92284">
        <ele>96.961</ele>
        <time>2019-10-17T08:43:23.001Z</time>
      </trkpt>
      <trkpt lat="42.6265" lon="8.92154">
        <ele>80.013</ele>
        <time>2019-10-17T08:43:59.001Z</time>
      </trkpt>
      <trkpt lat="42.62492" lon="8.9207">
        <ele>79.577</ele>
        <time>2019-10-17T08:44:35.001Z</time>
      </trkpt>
      <trkpt lat="42.62411" lon="8.91782">
        <ele>74.333</ele>
        <time>2019-10-17T08:45:14.001Z</time>
      </trkpt>
      <trkpt lat="42.62377" lon="8.91477">
        <ele>67.176</ele>
        <time>2019-10-17T08:45:50.001Z</time>
      </trkpt>
      <trkpt lat="42.62351" lon="8.91153">
        <ele>64.559</ele>
        <time>2019-10-17T08:46:26.001Z</time>
      </trkpt>
      <trkpt lat="42.62357" lon="8.90822">
        <ele>62.685</ele>
        <time>2019-10-17T08:47:02Z</time>
      </trkpt>
      <trkpt lat="42.62353" lon="8.90501">
        <ele>57.593</ele>
        <time>2019-10-17T08:47:38.001Z</time>
      </trkpt>
      <trkpt lat="42.62321" lon="8.90248">
        <ele>62.42</ele>
        <time>2019-10-17T08:48:17.001Z</time>
      </trkpt>
      <trkpt lat="42.62288" lon="8.9008">
        <ele>63.595</ele>
        <time>2019-10-17T08:48:53.001Z</time>
      </trkpt>
      <trkpt lat="42.62248" lon="8.89956">
        <ele>66.281</ele>
        <time>2019-10-17T08:49:29.001Z</time>
      </trkpt>
      <trkpt lat="42.62175" lon="8.8985">
        <ele>68.871</ele>
        <time>2019-10-17T08:50:05.001Z</time>
      </trkpt>
      <trkpt lat="42.62085" lon="8.89768">
        <ele>73.546</ele>
        <time>2019-10-17T08:50:41.001Z</time>
      </trkpt>
      <trkpt lat="42.62081" lon="8.89621">
        <ele>81.773</ele>
        <time>2019-10-17T08:51:20.001Z</time>
      </trkpt>
      <trkpt lat="42.62036" lon="8.89482">
        <ele>87.864</ele>
        <time>2019-10-17T08:51:56.001Z</time>
      </trkpt>
      <trkpt lat="42.61993" lon="8.8935">
        <ele>83.74</ele>
        <time>2019-10-17T08:52:32.001Z</time>
      </trkpt>
      <trkpt lat="42.62008" lon="8.89197">
        <ele>88.184</ele>
        <time>2019-10-17T08:53:08.001Z</time>
      </trkpt>
      <trkpt lat="42.61965" lon="8.89095">
        <ele>81.606</ele>
        <time>2019-10-17T08:54:59.001Z</time>
      </trkpt>
      <trkpt lat="42.61725" lon="8.89178">
        <ele>69.548</ele>
        <time>2019-10-17T08:55:38.001Z</time>
      </trkpt>
      <trkpt lat="42.61285" lon="8.89254">
        <ele>46.675</ele>
        <time>2019-10-17T08:56:14.001Z</time>
      </trkpt>
      <trkpt lat="42.61022" lon="8.88851">
        <ele>23.11</ele>
        <time>2019-10-17T08:56:50.001Z</time>
      </trkpt>
      <trkpt lat="42.60959" lon="8.8836">
        <ele>11.961</ele>
        <time>2019-10-17T08:57:26.001Z</time>
      </trkpt>
      <trkpt lat="42.6091" lon="8.87949">
        <ele>10.425</ele>
        <time>2019-10-17T08:58:02Z</time>
      </trkpt>
      <trkpt lat="42.6087" lon="8.87602">
        <ele>9.732</ele>
        <time>2019-10-17T08:58:41.001Z</time>
      </trkpt>
      <trkpt lat="42.60827" lon="8.87256">
        <ele>8.429</ele>
        <time>2019-10-17T08:59:17.001Z</time>
      </trkpt>
      <trkpt lat="42.60781" lon="8.86958">
        <ele>3.142</ele>
        <time>2019-10-17T08:59:53.001Z</time>
      </trkpt>
      <trkpt lat="42.60695" lon="8.86688">
        <ele>6.724</ele>
        <time>2019-10-17T09:00:29.001Z</time>
      </trkpt>
      <trkpt lat="42.60676" lon="8.86574">
        <ele>14.234</ele>
        <time>2019-10-17T09:01:05.001Z</time>
      </trkpt>
      <trkpt lat="42.60657" lon="8.86478">
        <ele>21.906</ele>
        <time>2019-10-17T09:01:44.001Z</time>
      </trkpt>
      <trkpt lat="42.6064" lon="8.86387">
        <ele>31.839</ele>
        <time>2019-10-17T09:02:20.001Z</time>
      </trkpt>
      <trkpt lat="42.60628" lon="8.86297">
        <ele>42.321</ele>
        <time>2019-10-17T09:02:56.001Z</time>
      </trkpt>
      <trkpt lat="42.60626" lon="8.86203">
        <ele>40.54</ele>
        <time>2019-10-17T09:03:32.001Z</time>
      </trkpt>
      <trkpt lat="42.60637" lon="8.86111">
        <ele>48.288</ele>
        <time>2019-10-17T09:04:08.001Z</time>
      </trkpt>
      <trkpt lat="42.60677" lon="8.86001">
        <ele>46.37</ele>
        <time>2019-10-17T09:04:47.001Z</time>
      </trkpt>
      <trkpt lat="42.60743" lon="8.85863">
        <ele>49.205</ele>
        <time>2019-10-17T09:05:23.001Z</time>
      </trkpt>
      <trkpt lat="42.60752" lon="8.85542">
        <ele>31.702</ele>
        <time>2019-10-17T09:05:59.001Z</time>
      </trkpt>
      <trkpt lat="42.60583" lon="8.8531">
        <ele>30.537</ele>
        <time>2019-10-17T09:06:35.001Z</time>
      </trkpt>
      <trkpt lat="42.60537" lon="8.85169">
        <ele>37.141</ele>
        <time>2019-10-17T09:07:11.001Z</time>
      </trkpt>
      <trkpt lat="42.60558" lon="8.85018">
        <ele>51.561</ele>
        <time>2019-10-17T09:07:50.001Z</time>
      </trkpt>
      <trkpt lat="42.60583" lon="8.84866">
        <ele>48.448</ele>
        <time>2019-10-17T09:08:26.001Z</time>
      </trkpt>
      <trkpt lat="42.60606" lon="8.84717">
        <ele>47.893</ele>
        <time>2019-10-17T09:09:02Z</time>
      </trkpt>
      <trkpt lat="42.6061" lon="8.84573">
        <ele>48.829</ele>
        <time>2019-10-17T09:09:38.001Z</time>
      </trkpt>
      <trkpt lat="42.60563" lon="8.8444">
        <ele>49.131</ele>
        <time>2019-10-17T09:10:14.001Z</time>
      </trkpt>
      <trkpt lat="42.60469" lon="8.84338">
        <ele>53.466</ele>
        <time>2019-10-17T09:10:53.001Z</time>
      </trkpt>
      <trkpt lat="42.60409" lon="8.84208">
        <ele>55.947</ele>
        <time>2019-10-17T09:11:29.001Z</time>
      </trkpt>
      <trkpt lat="42.60332" lon="8.84115">
        <ele>58.068</ele>
        <time>2019-10-17T09:12:05.001Z</time>
      </trkpt>
      <trkpt lat="42.60207" lon="8.84144">
        <ele>61.516</ele>
        <time>2019-10-17T09:12:41.001Z</time>
      </trkpt>
      <trkpt lat="42.60087" lon="8.8412">
        <ele>61.595</ele>
        <time>2019-10-17T09:13:17.001Z</time>
      </trkpt>
      <trkpt lat="42.59986" lon="8.84003">
        <ele>67.857</ele>
        <time>2019-10-17T09:13:56.001Z</time>
      </trkpt>
      <trkpt lat="42.59885" lon="8.83925">
        <ele>71.304</ele>
        <time>2019-10-17T09:14:32.001Z</time>
      </trkpt>
      <trkpt lat="42.59772" lon="8.8388">
        <ele>71.383</ele>
        <time>2019-10-17T09:15:08.001Z</time>
      </trkpt>
      <trkpt lat="42.59662" lon="8.83825">
        <ele>76.22</ele>
        <time>2019-10-17T09:15:44.001Z</time>
      </trkpt>
      <trkpt lat="42.59548" lon="8.83808">
        <ele>77.012</ele>
        <time>2019-10-17T09:16:20.001Z</time>
      </trkpt>
      <trkpt lat="42.59495" lon="8.83684">
        <ele>85.96</ele>
        <time>2019-10-17T09:16:59.001Z</time>
      </trkpt>
      <trkpt lat="42.59437" lon="8.8363">
        <ele>88.246</ele>
        <time>2019-10-17T09:17:35.001Z</time>
      </trkpt>
      <trkpt lat="42.59364" lon="8.83645">
        <ele>93.738</ele>
        <time>2019-10-17T09:18:11.001Z</time>
      </trkpt>
      <trkpt lat="42.59312" lon="8.83723">
        <ele>99.781</ele>
        <time>2019-10-17T09:18:47.001Z</time>
      </trkpt>
      <trkpt lat="42.59261" lon="8.83799">
        <ele>104.818</ele>
        <time>2019-10-17T09:19:23.001Z</time>
      </trkpt>
      <trkpt lat="42.59194" lon="8.83802">
        <ele>106.942</ele>
        <time>2019-10-17T09:19:59.001Z</time>
      </trkpt>
      <trkpt lat="42.59124" lon="8.8375">
        <ele>112.745</ele>
        <time>2019-10-17T09:20:38.001Z</time>
      </trkpt>
      <trkpt lat="42.59067" lon="8.83693">
        <ele>118.08</ele>
        <time>2019-10-17T09:21:14.001Z</time>
      </trkpt>
      <trkpt lat="42.59004" lon="8.83634">
        <ele>123.143</ele>
        <time>2019-10-17T09:21:50.001Z</time>
      </trkpt>
      <trkpt lat="42.58948" lon="8.8358">
        <ele>127.881</ele>
        <time>2019-10-17T09:22:26.001Z</time>
      </trkpt>
      <trkpt lat="42.58897" lon="8.83506">
        <ele>127.883</ele>
        <time>2019-10-17T09:23:02Z</time>
      </trkpt>
      <trkpt lat="42.58879" lon="8.83398">
        <ele>131.064</ele>
        <time>2019-10-17T09:23:41.001Z</time>
      </trkpt>
      <trkpt lat="42.58866" lon="8.83306">
        <ele>135.786</ele>
        <time>2019-10-17T09:24:17.001Z</time>
      </trkpt>
      <trkpt lat="42.58855" lon="8.83216">
        <ele>141.008</ele>
        <time>2019-10-17T09:24:53.001Z</time>
      </trkpt>
      <trkpt lat="42.58842" lon="8.83129">
        <ele>152.029</ele>
        <time>2019-10-17T09:25:29.001Z</time>
      </trkpt>
      <trkpt lat="42.58863" lon="8.8304">
        <ele>158.965</ele>
        <time>2019-10-17T09:26:05.001Z</time>
      </trkpt>
      <trkpt lat="42.58869" lon="8.82941">
        <ele>156.319</ele>
        <time>2019-10-17T09:26:44.001Z</time>
      </trkpt>
      <trkpt lat="42.5884" lon="8.82858">
        <ele>162.192</ele>
        <time>2019-10-17T09:27:20.001Z</time>
      </trkpt>
      <trkpt lat="42.58788" lon="8.82803">
        <ele>160.92</ele>
        <time>2019-10-17T09:27:56.001Z</time>
      </trkpt>
      <trkpt lat="42.58723" lon="8.82782">
        <ele>162.5</ele>
        <time>2019-10-17T09:28:32.001Z</time>
      </trkpt>
      <trkpt lat="42.58658" lon="8.82754">
        <ele>169.676</ele>
        <time>2019-10-17T09:29:08.001Z</time>
      </trkpt>
      <trkpt lat="42.58593" lon="8.82728">
        <ele>177.299</ele>
        <time>2019-10-17T09:29:47.001Z</time>
      </trkpt>
      <trkpt lat="42.58529" lon="8.82746">
        <ele>177.041</ele>
        <time>2019-10-17T09:30:23.001Z</time>
      </trkpt>
      <trkpt lat="42.58507" lon="8.82834">
        <ele>180.543</ele>
        <time>2019-10-17T09:31:02Z</time>
      </trkpt>
      <trkpt lat="42.58492" lon="8.82926">
        <ele>186.497</ele>
        <time>2019-10-17T09:31:38.001Z</time>
      </trkpt>
      <trkpt lat="42.5848" lon="8.83013">
        <ele>191.429</ele>
        <time>2019-10-17T09:32:14.001Z</time>
      </trkpt>
      <trkpt lat="42.58455" lon="8.83107">
        <ele>198.907</ele>
        <time>2019-10-17T09:32:53.001Z</time>
      </trkpt>
      <trkpt lat="42.58399" lon="8.83145">
        <ele>203.35</ele>
        <time>2019-10-17T09:33:29.001Z</time>
      </trkpt>
      <trkpt lat="42.58338" lon="8.83162">
        <ele>200.24</ele>
        <time>2019-10-17T09:42:11.001Z</time>
      </trkpt>
      <trkpt lat="42.58193" lon="8.83162">
        <ele>198.184</ele>
        <time>2019-10-17T09:42:50.001Z</time>
      </trkpt>
      <trkpt lat="42.57945" lon="8.83145">
        <ele>181.999</ele>
        <time>2019-10-17T09:43:26.001Z</time>
      </trkpt>
      <trkpt lat="42.57681" lon="8.83374">
        <ele>157.581</ele>
        <time>2019-10-17T09:44:05.001Z</time>
      </trkpt>
      <trkpt lat="42.5738" lon="8.83079">
        <ele>132.016</ele>
        <time>2019-10-17T09:44:41.001Z</time>
      </trkpt>
      <trkpt lat="42.57014" lon="8.82905">
        <ele>97.721</ele>
        <time>2019-10-17T09:45:17.001Z</time>
      </trkpt>
      <trkpt lat="42.56765" lon="8.82315">
        <ele>64.943</ele>
        <time>2019-10-17T09:45:53.001Z</time>
      </trkpt>
      <trkpt lat="42.56539" lon="8.81659">
        <ele>33.021</ele>
        <time>2019-10-17T09:46:29.001Z</time>
      </trkpt>
      <trkpt lat="42.5641" lon="8.81007">
        <ele>14.075</ele>
        <time>2019-10-17T09:47:08.001Z</time>
      </trkpt>
      <trkpt lat="42.5632" lon="8.80549">
        <ele>8.121</ele>
        <time>2019-10-17T09:47:44.001Z</time>
      </trkpt>
      <trkpt lat="42.56203" lon="8.80325">
        <ele>11.471</ele>
        <time>2019-10-17T09:48:20.001Z</time>
      </trkpt>
      <trkpt lat="42.56088" lon="8.80124">
        <ele>14.886</ele>
        <time>2019-10-17T09:48:56.001Z</time>
      </trkpt>
      <trkpt lat="42.55966" lon="8.79918">
        <ele>18.711</ele>
        <time>2019-10-17T09:49:32.001Z</time>
      </trkpt>
      <trkpt lat="42.55837" lon="8.79694">
        <ele>21.071</ele>
        <time>2019-10-17T09:50:11.001Z</time>
      </trkpt>
      <trkpt lat="42.55706" lon="8.7947">
        <ele>12.766</ele>
        <time>2019-10-17T09:50:47.001Z</time>
      </trkpt>
      <trkpt lat="42.55552" lon="8.7921">
        <ele>3.94</ele>
        <time>2019-10-17T09:51:23.001Z</time>
      </trkpt>
      <trkpt lat="42.55422" lon="8.79023">
        <ele>6.567</ele>
        <time>2019-10-17T09:51:59.001Z</time>
      </trkpt>
      <trkpt lat="42.55255" lon="8.78928">
        <ele>8.282</ele>
        <time>2019-10-17T09:52:35.001Z</time>
      </trkpt>
      <trkpt lat="42.55049" lon="8.78805">
        <ele>4.645</ele>
        <time>2019-10-17T09:53:14.001Z</time>
      </trkpt>
      <trkpt lat="42.54926" lon="8.78621">
        <ele>6.304</ele>
        <time>2019-10-17T09:53:50.001Z</time>
      </trkpt>
      <trkpt lat="42.54954" lon="8.78425">
        <ele>10.282</ele>
        <time>2019-10-17T09:54:26.001Z</time>
      </trkpt>
      <trkpt lat="42.55014" lon="8.78247">
        <ele>13.57</ele>
        <time>2019-10-17T09:55:02Z</time>
      </trkpt>
      <trkpt lat="42.551" lon="8.77985">
        <ele>12.038</ele>
        <time>2019-10-17T09:55:38.001Z</time>
      </trkpt>
      <trkpt lat="42.55219" lon="8.77596">
        <ele>5.062</ele>
        <time>2019-10-17T09:56:17.001Z</time>
      </trkpt>
      <trkpt lat="42.55172" lon="8.77276">
        <ele>4.364</ele>
        <time>2019-10-17T09:56:53.001Z</time>
      </trkpt>
      <trkpt lat="42.5509" lon="8.76986">
        <ele>2.502</ele>
        <time>2019-10-17T09:57:29.001Z</time>
      </trkpt>
      <trkpt lat="42.55067" lon="8.76706">
        <ele>7.528</ele>
        <time>2019-10-17T09:58:05.001Z</time>
      </trkpt>
      <trkpt lat="42.55223" lon="8.7646">
        <ele>10.547</ele>
        <time>2019-10-17T09:58:41.001Z</time>
      </trkpt>
      <trkpt lat="42.55404" lon="8.76257">
        <ele>4.504</ele>
        <time>2019-10-17T09:59:20.001Z</time>
      </trkpt>
      <trkpt lat="42.55569" lon="8.76066">
        <ele>7.641</ele>
        <time>2019-10-17T09:59:56.001Z</time>
      </trkpt>
      <trkpt lat="42.55746" lon="8.75867">
        <ele>6.276</ele>
        <time>2019-10-17T10:00:32.001Z</time>
      </trkpt>
      <trkpt lat="42.55918" lon="8.75704">
        <ele>7.095</ele>
        <time>2019-10-17T10:01:08.001Z</time>
      </trkpt>
      <trkpt lat="42.5609" lon="8.75595">
        <ele>9.016</ele>
        <time>2019-10-17T10:01:44.001Z</time>
      </trkpt>
      <trkpt lat="42.56156" lon="8.75534">
        <ele>9.662</ele>
        <time>2019-10-17T10:02:53.001Z</time>
      </trkpt>
      <trkpt lat="42.56122" lon="8.75488">
        <ele>8.359</ele>
        <time>2019-10-17T10:06:29.001Z</time>
      </trkpt>
      <trkpt lat="42.56157" lon="8.75518">
        <ele>17.441</ele>
        <time>2019-10-17T10:24:50.001Z</time>
      </trkpt>
      <trkpt lat="42.56252" lon="8.75578">
        <ele>8.386</ele>
        <time>2019-10-17T10:25:26.001Z</time>
      </trkpt>
      <trkpt lat="42.56348" lon="8.75603">
        <ele>5.504</ele>
        <time>2019-10-17T10:26:02Z</time>
      </trkpt>
      <trkpt lat="42.56476" lon="8.75648">
        <ele>2.304</ele>
        <time>2019-10-17T10:26:41.001Z</time>
      </trkpt>
      <trkpt lat="42.56552" lon="8.75717">
        <ele>12.341</ele>
        <time>2019-10-17T10:27:17.001Z</time>
      </trkpt>
      <trkpt lat="42.56609" lon="8.75782">
        <ele>8.335</ele>
        <time>2019-10-17T10:27:53.001Z</time>
      </trkpt>
      <trkpt lat="42.56626" lon="8.75842">
        <ele>11.767</ele>
        <time>2019-10-17T10:29:47.001Z</time>
      </trkpt>
      <trkpt lat="42.56616" lon="8.75851">
        <ele>7.163</ele>
        <time>2019-10-17T10:34:23.001Z</time>
      </trkpt>
      <trkpt lat="42.56621" lon="8.75846">
        <ele>4.205</ele>
        <time>2019-10-17T10:38:38.001Z</time>
      </trkpt>
      <trkpt lat="42.56622" lon="8.75845">
        <ele>5.576</ele>
        <time>2019-10-17T10:46:44.001Z</time>
      </trkpt>
      <trkpt lat="42.56623" lon="8.75844">
        <ele>5.318</ele>
        <time>2019-10-17T11:35:59.001Z</time>
      </trkpt>
      <trkpt lat="42.56627" lon="8.75839">
        <ele>4.604</ele>
        <time>2019-10-17T11:52:05.001Z</time>
      </trkpt>
      <trkpt lat="42.56653" lon="8.75871">
        <ele>7.183</ele>
        <time>2019-10-17T12:14:47.001Z</time>
      </trkpt>
      <trkpt lat="42.56722" lon="8.75953">
        <ele>11.13</ele>
        <time>2019-10-17T12:15:26.001Z</time>
      </trkpt>
      <trkpt lat="42.56753" lon="8.75875">
        <ele>10.453</ele>
        <time>2019-10-17T12:16:11.001Z</time>
      </trkpt>
      <trkpt lat="42.56799" lon="8.75836">
        <ele>27.425</ele>
        <time>2019-10-17T12:17:44.001Z</time>
      </trkpt>
      <trkpt lat="42.56848" lon="8.75737">
        <ele>23.015</ele>
        <time>2019-10-17T12:18:20.001Z</time>
      </trkpt>
      <trkpt lat="42.56874" lon="8.75621">
        <ele>32.124</ele>
        <time>2019-10-17T12:18:56.001Z</time>
      </trkpt>
      <trkpt lat="42.56823" lon="8.75495">
        <ele>33.819</ele>
        <time>2019-10-17T12:19:35.001Z</time>
      </trkpt>
      <trkpt lat="42.56808" lon="8.7536">
        <ele>30.156</ele>
        <time>2019-10-17T12:20:11.001Z</time>
      </trkpt>
      <trkpt lat="42.56842" lon="8.75239">
        <ele>32.133</ele>
        <time>2019-10-17T12:20:47.001Z</time>
      </trkpt>
      <trkpt lat="42.56825" lon="8.751">
        <ele>30.663</ele>
        <time>2019-10-17T12:21:23.001Z</time>
      </trkpt>
      <trkpt lat="42.56748" lon="8.74995">
        <ele>32.444</ele>
        <time>2019-10-17T12:21:59.001Z</time>
      </trkpt>
      <trkpt lat="42.56633" lon="8.74915">
        <ele>36.057</ele>
        <time>2019-10-17T12:22:35.001Z</time>
      </trkpt>
      <trkpt lat="42.56574" lon="8.74736">
        <ele>38.014</ele>
        <time>2019-10-17T12:23:14.001Z</time>
      </trkpt>
      <trkpt lat="42.56481" lon="8.74619">
        <ele>42.738</ele>
        <time>2019-10-17T12:23:50.001Z</time>
      </trkpt>
      <trkpt lat="42.5643" lon="8.74466">
        <ele>45.525</ele>
        <time>2019-10-17T12:24:26.001Z</time>
      </trkpt>
      <trkpt lat="42.56401" lon="8.74321">
        <ele>48.895</ele>
        <time>2019-10-17T12:25:02Z</time>
      </trkpt>
      <trkpt lat="42.56362" lon="8.74189">
        <ele>47.091</ele>
        <time>2019-10-17T12:25:38.001Z</time>
      </trkpt>
      <trkpt lat="42.56301" lon="8.74056">
        <ele>48.659</ele>
        <time>2019-10-17T12:26:17.001Z</time>
      </trkpt>
      <trkpt lat="42.56271" lon="8.73921">
        <ele>53.088</ele>
        <time>2019-10-17T12:26:53.001Z</time>
      </trkpt>
      <trkpt lat="42.56266" lon="8.73775">
        <ele>60.759</ele>
        <time>2019-10-17T12:27:29.001Z</time>
      </trkpt>
      <trkpt lat="42.56219" lon="8.73641">
        <ele>62.307</ele>
        <time>2019-10-17T12:28:05.001Z</time>
      </trkpt>
      <trkpt lat="42.56186" lon="8.73503">
        <ele>63.423</ele>
        <time>2019-10-17T12:28:41.001Z</time>
      </trkpt>
      <trkpt lat="42.56116" lon="8.73387">
        <ele>66.084</ele>
        <time>2019-10-17T12:29:20.001Z</time>
      </trkpt>
      <trkpt lat="42.56081" lon="8.7326">
        <ele>67.126</ele>
        <time>2019-10-17T12:29:56.001Z</time>
      </trkpt>
      <trkpt lat="42.56016" lon="8.73154">
        <ele>67.904</ele>
        <time>2019-10-17T12:30:32.001Z</time>
      </trkpt>
      <trkpt lat="42.55942" lon="8.73083">
        <ele>77.158</ele>
        <time>2019-10-17T12:31:08.001Z</time>
      </trkpt>
      <trkpt lat="42.55863" lon="8.73009">
        <ele>84.134</ele>
        <time>2019-10-17T12:31:44.001Z</time>
      </trkpt>
      <trkpt lat="42.55797" lon="8.72889">
        <ele>85.028</ele>
        <time>2019-10-17T12:32:23.001Z</time>
      </trkpt>
      <trkpt lat="42.55708" lon="8.72833">
        <ele>91.919</ele>
        <time>2019-10-17T12:32:59.001Z</time>
      </trkpt>
      <trkpt lat="42.55652" lon="8.72726">
        <ele>92.155</ele>
        <time>2019-10-17T12:33:35.001Z</time>
      </trkpt>
      <trkpt lat="42.55586" lon="8.72638">
        <ele>98.025</ele>
        <time>2019-10-17T12:34:11.001Z</time>
      </trkpt>
      <trkpt lat="42.55593" lon="8.72527">
        <ele>99.769</ele>
        <time>2019-10-17T12:34:47.001Z</time>
      </trkpt>
      <trkpt lat="42.55487" lon="8.72436">
        <ele>101.144</ele>
        <time>2019-10-17T12:35:26.001Z</time>
      </trkpt>
      <trkpt lat="42.55333" lon="8.72392">
        <ele>103.616</ele>
        <time>2019-10-17T12:36:02Z</time>
      </trkpt>
      <trkpt lat="42.55244" lon="8.72251">
        <ele>98.992</ele>
        <time>2019-10-17T12:36:38.001Z</time>
      </trkpt>
      <trkpt lat="42.55121" lon="8.72094">
        <ele>95.703</ele>
        <time>2019-10-17T12:37:14.001Z</time>
      </trkpt>
      <trkpt lat="42.54903" lon="8.72037">
        <ele>89.97</ele>
        <time>2019-10-17T12:37:50.001Z</time>
      </trkpt>
      <trkpt lat="42.54766" lon="8.72321">
        <ele>85.959</ele>
        <time>2019-10-17T12:38:29.001Z</time>
      </trkpt>
      <trkpt lat="42.54802" lon="8.72536">
        <ele>71.787</ele>
        <time>2019-10-17T12:39:05.001Z</time>
      </trkpt>
      <trkpt lat="42.5473" lon="8.72773">
        <ele>60.145</ele>
        <time>2019-10-17T12:39:41.001Z</time>
      </trkpt>
      <trkpt lat="42.54491" lon="8.72878">
        <ele>43.762</ele>
        <time>2019-10-17T12:40:17.001Z</time>
      </trkpt>
      <trkpt lat="42.54454" lon="8.72761">
        <ele>43.23</ele>
        <time>2019-10-17T12:40:53.001Z</time>
      </trkpt>
      <trkpt lat="42.54505" lon="8.72665">
        <ele>53.72</ele>
        <time>2019-10-17T12:41:32.001Z</time>
      </trkpt>
      <trkpt lat="42.54496" lon="8.72561">
        <ele>55.71</ele>
        <time>2019-10-17T12:42:08.001Z</time>
      </trkpt>
      <trkpt lat="42.54416" lon="8.7249">
        <ele>57.682</ele>
        <time>2019-10-17T12:42:44.001Z</time>
      </trkpt>
      <trkpt lat="42.54372" lon="8.72403">
        <ele>61.009</ele>
        <time>2019-10-17T12:43:20.001Z</time>
      </trkpt>
      <trkpt lat="42.54401" lon="8.72289">
        <ele>67.245</ele>
        <time>2019-10-17T12:43:56.001Z</time>
      </trkpt>
      <trkpt lat="42.54412" lon="8.72158">
        <ele>68.48</ele>
        <time>2019-10-17T12:44:35.001Z</time>
      </trkpt>
      <trkpt lat="42.54408" lon="8.72036">
        <ele>68.162</ele>
        <time>2019-10-17T12:45:11.001Z</time>
      </trkpt>
      <trkpt lat="42.54362" lon="8.71964">
        <ele>71.866</ele>
        <time>2019-10-17T12:46:53.001Z</time>
      </trkpt>
      <trkpt lat="42.54254" lon="8.71995">
        <ele>78.016</ele>
        <time>2019-10-17T12:47:29.001Z</time>
      </trkpt>
      <trkpt lat="42.54174" lon="8.72109">
        <ele>78.542</ele>
        <time>2019-10-17T12:48:05.001Z</time>
      </trkpt>
      <trkpt lat="42.54088" lon="8.72296">
        <ele>76.042</ele>
        <time>2019-10-17T12:48:44.001Z</time>
      </trkpt>
      <trkpt lat="42.53983" lon="8.7245">
        <ele>79.322</ele>
        <time>2019-10-17T12:49:20.001Z</time>
      </trkpt>
      <trkpt lat="42.53848" lon="8.72514">
        <ele>81.882</ele>
        <time>2019-10-17T12:49:56.001Z</time>
      </trkpt>
      <trkpt lat="42.5373" lon="8.72399">
        <ele>78.12</ele>
        <time>2019-10-17T12:50:32.001Z</time>
      </trkpt>
      <trkpt lat="42.5367" lon="8.72211">
        <ele>74.577</ele>
        <time>2019-10-17T12:51:08.001Z</time>
      </trkpt>
      <trkpt lat="42.53554" lon="8.72112">
        <ele>76.498</ele>
        <time>2019-10-17T12:51:47.001Z</time>
      </trkpt>
      <trkpt lat="42.53356" lon="8.71937">
        <ele>72.51</ele>
        <time>2019-10-17T12:52:23.001Z</time>
      </trkpt>
      <trkpt lat="42.5315" lon="8.71979">
        <ele>67.812</ele>
        <time>2019-10-17T12:52:59.001Z</time>
      </trkpt>
      <trkpt lat="42.5295" lon="8.72066">
        <ele>71.587</ele>
        <time>2019-10-17T12:53:35.001Z</time>
      </trkpt>
      <trkpt lat="42.5298" lon="8.72314">
        <ele>60.987</ele>
        <time>2019-10-17T12:54:11.001Z</time>
      </trkpt>
      <trkpt lat="42.53024" lon="8.72585">
        <ele>61.094</ele>
        <time>2019-10-17T12:54:50.001Z</time>
      </trkpt>
      <trkpt lat="42.52915" lon="8.7276">
        <ele>65.123</ele>
        <time>2019-10-17T12:55:26.001Z</time>
      </trkpt>
      <trkpt lat="42.52768" lon="8.72847">
        <ele>65.315</ele>
        <time>2019-10-17T12:56:02Z</time>
      </trkpt>
      <trkpt lat="42.52646" lon="8.72884">
        <ele>70.773</ele>
        <time>2019-10-17T12:56:38.001Z</time>
      </trkpt>
      <trkpt lat="42.52544" lon="8.72879">
        <ele>75.899</ele>
        <time>2019-10-17T12:57:14.001Z</time>
      </trkpt>
      <trkpt lat="42.52468" lon="8.72816">
        <ele>80.484</ele>
        <time>2019-10-17T12:57:53.001Z</time>
      </trkpt>
      <trkpt lat="42.52421" lon="8.72657">
        <ele>78.611</ele>
        <time>2019-10-17T12:58:29.001Z</time>
      </trkpt>
      <trkpt lat="42.52326" lon="8.72279">
        <ele>63.171</ele>
        <time>2019-10-17T12:59:05.001Z</time>
      </trkpt>
      <trkpt lat="42.52071" lon="8.72088">
        <ele>46.954</ele>
        <time>2019-10-17T12:59:41.001Z</time>
      </trkpt>
      <trkpt lat="42.52017" lon="8.71928">
        <ele>45.585</ele>
        <time>2019-10-17T13:00:17.001Z</time>
      </trkpt>
      <trkpt lat="42.52069" lon="8.71798">
        <ele>50.577</ele>
        <time>2019-10-17T13:00:56.001Z</time>
      </trkpt>
      <trkpt lat="42.52124" lon="8.71705">
        <ele>53.751</ele>
        <time>2019-10-17T13:01:32.001Z</time>
      </trkpt>
      <trkpt lat="42.5215" lon="8.71601">
        <ele>58.807</ele>
        <time>2019-10-17T13:02:08.001Z</time>
      </trkpt>
      <trkpt lat="42.52192" lon="8.71509">
        <ele>66.429</ele>
        <time>2019-10-17T13:02:44.001Z</time>
      </trkpt>
      <trkpt lat="42.52269" lon="8.71468">
        <ele>70.633</ele>
        <time>2019-10-17T13:03:20.001Z</time>
      </trkpt>
      <trkpt lat="42.52323" lon="8.71378">
        <ele>76.261</ele>
        <time>2019-10-17T13:03:59.001Z</time>
      </trkpt>
      <trkpt lat="42.5232" lon="8.71259">
        <ele>79.864</ele>
        <time>2019-10-17T13:04:35.001Z</time>
      </trkpt>
      <trkpt lat="42.52249" lon="8.71217">
        <ele>82.009</ele>
        <time>2019-10-17T13:05:11.001Z</time>
      </trkpt>
      <trkpt lat="42.52163" lon="8.71237">
        <ele>83.086</ele>
        <time>2019-10-17T13:05:47.001Z</time>
      </trkpt>
      <trkpt lat="42.52095" lon="8.71164">
        <ele>89.409</ele>
        <time>2019-10-17T13:06:23.001Z</time>
      </trkpt>
      <trkpt lat="42.52006" lon="8.71057">
        <ele>89.84</ele>
        <time>2019-10-17T13:07:02Z</time>
      </trkpt>
      <trkpt lat="42.51925" lon="8.70889">
        <ele>85.634</ele>
        <time>2019-10-17T13:07:38.001Z</time>
      </trkpt>
      <trkpt lat="42.51858" lon="8.70713">
        <ele>84.771</ele>
        <time>2019-10-17T13:08:14.001Z</time>
      </trkpt>
      <trkpt lat="42.51886" lon="8.70592">
        <ele>83.418</ele>
        <time>2019-10-17T13:08:50.001Z</time>
      </trkpt>
      <trkpt lat="42.52058" lon="8.70563">
        <ele>86.384</ele>
        <time>2019-10-17T13:09:26.001Z</time>
      </trkpt>
      <trkpt lat="42.52161" lon="8.70427">
        <ele>92.932</ele>
        <time>2019-10-17T13:10:02Z</time>
      </trkpt>
      <trkpt lat="42.52267" lon="8.70304">
        <ele>96.292</ele>
        <time>2019-10-17T13:10:41.001Z</time>
      </trkpt>
      <trkpt lat="42.52248" lon="8.70155">
        <ele>94.523</ele>
        <time>2019-10-17T13:11:17.001Z</time>
      </trkpt>
      <trkpt lat="42.52139" lon="8.70082">
        <ele>99.067</ele>
        <time>2019-10-17T13:11:53.001Z</time>
      </trkpt>
      <trkpt lat="42.52044" lon="8.69981">
        <ele>99.388</ele>
        <time>2019-10-17T13:12:29.001Z</time>
      </trkpt>
      <trkpt lat="42.51958" lon="8.69868">
        <ele>101.492</ele>
        <time>2019-10-17T13:13:05.001Z</time>
      </trkpt>
      <trkpt lat="42.51895" lon="8.69722">
        <ele>107.645</ele>
        <time>2019-10-17T13:13:44.001Z</time>
      </trkpt>
      <trkpt lat="42.51842" lon="8.69597">
        <ele>108.385</ele>
        <time>2019-10-17T13:14:20.001Z</time>
      </trkpt>
      <trkpt lat="42.5184" lon="8.6943">
        <ele>110.974</ele>
        <time>2019-10-17T13:14:56.001Z</time>
      </trkpt>
      <trkpt lat="42.51796" lon="8.69273">
        <ele>110.917</ele>
        <time>2019-10-17T13:15:32.001Z</time>
      </trkpt>
      <trkpt lat="42.51737" lon="8.69127">
        <ele>113.529</ele>
        <time>2019-10-17T13:16:08.001Z</time>
      </trkpt>
      <trkpt lat="42.51613" lon="8.69111">
        <ele>111.992</ele>
        <time>2019-10-17T13:16:47.001Z</time>
      </trkpt>
      <trkpt lat="42.51533" lon="8.69036">
        <ele>118.863</ele>
        <time>2019-10-17T13:17:23.001Z</time>
      </trkpt>
      <trkpt lat="42.51495" lon="8.68909">
        <ele>118.015</ele>
        <time>2019-10-17T13:17:59.001Z</time>
      </trkpt>
      <trkpt lat="42.51447" lon="8.68772">
        <ele>120.646</ele>
        <time>2019-10-17T13:18:35.001Z</time>
      </trkpt>
      <trkpt lat="42.51386" lon="8.68663">
        <ele>121.726</ele>
        <time>2019-10-17T13:19:11.001Z</time>
      </trkpt>
      <trkpt lat="42.51325" lon="8.68569">
        <ele>130.267</ele>
        <time>2019-10-17T13:19:50.001Z</time>
      </trkpt>
      <trkpt lat="42.5124" lon="8.685">
        <ele>128.599</ele>
        <time>2019-10-17T13:20:26.001Z</time>
      </trkpt>
      <trkpt lat="42.51141" lon="8.68445">
        <ele>127.075</ele>
        <time>2019-10-17T13:21:02Z</time>
      </trkpt>
      <trkpt lat="42.51058" lon="8.6838">
        <ele>127.653</ele>
        <time>2019-10-17T13:21:38.001Z</time>
      </trkpt>
      <trkpt lat="42.50984" lon="8.68291">
        <ele>137.225</ele>
        <time>2019-10-17T13:22:14.001Z</time>
      </trkpt>
      <trkpt lat="42.50877" lon="8.68232">
        <ele>141.095</ele>
        <time>2019-10-17T13:22:53.001Z</time>
      </trkpt>
      <trkpt lat="42.5074" lon="8.68054">
        <ele>132.656</ele>
        <time>2019-10-17T13:23:29.001Z</time>
      </trkpt>
      <trkpt lat="42.50571" lon="8.68007">
        <ele>121.31</ele>
        <time>2019-10-17T13:24:05.001Z</time>
      </trkpt>
      <trkpt lat="42.50395" lon="8.67839">
        <ele>109.078</ele>
        <time>2019-10-17T13:24:41.001Z</time>
      </trkpt>
      <trkpt lat="42.50234" lon="8.67924">
        <ele>91.336</ele>
        <time>2019-10-17T13:25:17.001Z</time>
      </trkpt>
      <trkpt lat="42.50012" lon="8.68114">
        <ele>84.421</ele>
        <time>2019-10-17T13:25:56.001Z</time>
      </trkpt>
      <trkpt lat="42.49777" lon="8.68268">
        <ele>69.977</ele>
        <time>2019-10-17T13:26:32.001Z</time>
      </trkpt>
      <trkpt lat="42.49543" lon="8.68391">
        <ele>60.178</ele>
        <time>2019-10-17T13:27:08.001Z</time>
      </trkpt>
      <trkpt lat="42.49289" lon="8.68369">
        <ele>44.028</ele>
        <time>2019-10-17T13:27:44.001Z</time>
      </trkpt>
      <trkpt lat="42.49127" lon="8.68439">
        <ele>38.068</ele>
        <time>2019-10-17T13:28:20.001Z</time>
      </trkpt>
      <trkpt lat="42.48911" lon="8.68476">
        <ele>36.943</ele>
        <time>2019-10-17T13:28:59.001Z</time>
      </trkpt>
      <trkpt lat="42.48686" lon="8.68467">
        <ele>33.515</ele>
        <time>2019-10-17T13:29:35.001Z</time>
      </trkpt>
      <trkpt lat="42.4851" lon="8.68322">
        <ele>28.003</ele>
        <time>2019-10-17T13:30:11.001Z</time>
      </trkpt>
      <trkpt lat="42.48324" lon="8.68419">
        <ele>25.961</ele>
        <time>2019-10-17T13:30:47.001Z</time>
      </trkpt>
      <trkpt lat="42.48202" lon="8.68548">
        <ele>22.019</ele>
        <time>2019-10-17T13:31:23.001Z</time>
      </trkpt>
      <trkpt lat="42.48042" lon="8.68532">
        <ele>19.437</ele>
        <time>2019-10-17T13:32:02Z</time>
      </trkpt>
      <trkpt lat="42.47955" lon="8.68683">
        <ele>19.407</ele>
        <time>2019-10-17T13:32:38.001Z</time>
      </trkpt>
      <trkpt lat="42.47905" lon="8.68822">
        <ele>13.741</ele>
        <time>2019-10-17T13:33:14.001Z</time>
      </trkpt>
      <trkpt lat="42.47807" lon="8.68969">
        <ele>16.311</ele>
        <time>2019-10-17T13:33:50.001Z</time>
      </trkpt>
      <trkpt lat="42.47688" lon="8.6886">
        <ele>19.072</ele>
        <time>2019-10-17T13:34:26.001Z</time>
      </trkpt>
      <trkpt lat="42.47643" lon="8.68642">
        <ele>17.171</ele>
        <time>2019-10-17T13:35:05.001Z</time>
      </trkpt>
      <trkpt lat="42.47577" lon="8.68444">
        <ele>13.544</ele>
        <time>2019-10-17T13:35:41.001Z</time>
      </trkpt>
      <trkpt lat="42.47431" lon="8.68419">
        <ele>11.502</ele>
        <time>2019-10-17T13:36:17.001Z</time>
      </trkpt>
      <trkpt lat="42.47317" lon="8.68329">
        <ele>11.855</ele>
        <time>2019-10-17T13:36:53.001Z</time>
      </trkpt>
      <trkpt lat="42.47208" lon="8.6817">
        <ele>15.346</ele>
        <time>2019-10-17T13:37:29.001Z</time>
      </trkpt>
      <trkpt lat="42.47096" lon="8.68244">
        <ele>11.095</ele>
        <time>2019-10-17T13:38:08.001Z</time>
      </trkpt>
      <trkpt lat="42.47006" lon="8.68356">
        <ele>9.129</ele>
        <time>2019-10-17T13:38:44.001Z</time>
      </trkpt>
      <trkpt lat="42.46886" lon="8.6827">
        <ele>15.88</ele>
        <time>2019-10-17T13:39:20.001Z</time>
      </trkpt>
      <trkpt lat="42.46746" lon="8.68223">
        <ele>14.314</ele>
        <time>2019-10-17T13:39:56.001Z</time>
      </trkpt>
      <trkpt lat="42.46597" lon="8.68164">
        <ele>16.624</ele>
        <time>2019-10-17T13:40:32.001Z</time>
      </trkpt>
      <trkpt lat="42.46461" lon="8.68288">
        <ele>17.252</ele>
        <time>2019-10-17T13:41:11.001Z</time>
      </trkpt>
      <trkpt lat="42.46381" lon="8.68269">
        <ele>21.819</ele>
        <time>2019-10-17T13:41:47.001Z</time>
      </trkpt>
      <trkpt lat="42.46403" lon="8.68141">
        <ele>28.04</ele>
        <time>2019-10-17T13:42:23.001Z</time>
      </trkpt>
      <trkpt lat="42.46442" lon="8.68052">
        <ele>33.613</ele>
        <time>2019-10-17T13:42:59.001Z</time>
      </trkpt>
      <trkpt lat="42.46455" lon="8.67944">
        <ele>35.39</ele>
        <time>2019-10-17T13:43:35.001Z</time>
      </trkpt>
      <trkpt lat="42.46447" lon="8.67838">
        <ele>36.382</ele>
        <time>2019-10-17T13:44:14.001Z</time>
      </trkpt>
      <trkpt lat="42.46458" lon="8.67736">
        <ele>37.475</ele>
        <time>2019-10-17T13:44:50.001Z</time>
      </trkpt>
      <trkpt lat="42.46387" lon="8.67686">
        <ele>41.639</ele>
        <time>2019-10-17T13:45:26.001Z</time>
      </trkpt>
      <trkpt lat="42.46301" lon="8.67666">
        <ele>48.22</ele>
        <time>2019-10-17T13:46:02Z</time>
      </trkpt>
      <trkpt lat="42.46225" lon="8.67598">
        <ele>53.801</ele>
        <time>2019-10-17T13:46:38.001Z</time>
      </trkpt>
      <trkpt lat="42.4615" lon="8.67528">
        <ele>63.136</ele>
        <time>2019-10-17T13:47:17.001Z</time>
      </trkpt>
      <trkpt lat="42.46126" lon="8.67413">
        <ele>62.961</ele>
        <time>2019-10-17T13:47:53.001Z</time>
      </trkpt>
      <trkpt lat="42.46055" lon="8.67344">
        <ele>64.171</ele>
        <time>2019-10-17T13:48:29.001Z</time>
      </trkpt>
      <trkpt lat="42.45989" lon="8.67409">
        <ele>62.716</ele>
        <time>2019-10-17T13:49:05.001Z</time>
      </trkpt>
      <trkpt lat="42.45935" lon="8.67327">
        <ele>70.104</ele>
        <time>2019-10-17T13:49:41.001Z</time>
      </trkpt>
      <trkpt lat="42.45884" lon="8.6726">
        <ele>74.42</ele>
        <time>2019-10-17T13:50:20.001Z</time>
      </trkpt>
      <trkpt lat="42.45808" lon="8.67225">
        <ele>76.641</ele>
        <time>2019-10-17T13:50:56.001Z</time>
      </trkpt>
      <trkpt lat="42.4576" lon="8.67147">
        <ele>83.915</ele>
        <time>2019-10-17T13:51:32.001Z</time>
      </trkpt>
      <trkpt lat="42.45672" lon="8.67168">
        <ele>85.551</ele>
        <time>2019-10-17T13:52:08.001Z</time>
      </trkpt>
      <trkpt lat="42.45605" lon="8.6723">
        <ele>85.565</ele>
        <time>2019-10-17T13:52:44.001Z</time>
      </trkpt>
      <trkpt lat="42.45565" lon="8.67299">
        <ele>86.312</ele>
        <time>2019-10-17T13:53:23.001Z</time>
      </trkpt>
      <trkpt lat="42.45511" lon="8.67204">
        <ele>99.331</ele>
        <time>2019-10-17T13:53:59.001Z</time>
      </trkpt>
      <trkpt lat="42.45446" lon="8.67197">
        <ele>98.559</ele>
        <time>2019-10-17T13:54:35.001Z</time>
      </trkpt>
      <trkpt lat="42.45374" lon="8.67221">
        <ele>97.03</ele>
        <time>2019-10-17T13:55:11.001Z</time>
      </trkpt>
      <trkpt lat="42.45297" lon="8.67172">
        <ele>102.076</ele>
        <time>2019-10-17T13:55:47.001Z</time>
      </trkpt>
      <trkpt lat="42.45212" lon="8.67227">
        <ele>105.394</ele>
        <time>2019-10-17T13:56:26.001Z</time>
      </trkpt>
      <trkpt lat="42.45168" lon="8.6733">
        <ele>108.255</ele>
        <time>2019-10-17T13:57:02Z</time>
      </trkpt>
      <trkpt lat="42.45116" lon="8.67327">
        <ele>110.787</ele>
        <time>2019-10-17T13:57:38.001Z</time>
      </trkpt>
      <trkpt lat="42.45033" lon="8.6728">
        <ele>114.668</ele>
        <time>2019-10-17T13:58:14.001Z</time>
      </trkpt>
      <trkpt lat="42.44976" lon="8.67407">
        <ele>111.348</ele>
        <time>2019-10-17T13:58:50.001Z</time>
      </trkpt>
      <trkpt lat="42.44891" lon="8.67314">
        <ele>114.966</ele>
        <time>2019-10-17T13:59:26.001Z</time>
      </trkpt>
      <trkpt lat="42.44789" lon="8.67434">
        <ele>115.497</ele>
        <time>2019-10-17T14:00:05.001Z</time>
      </trkpt>
      <trkpt lat="42.44654" lon="8.67414">
        <ele>114.671</ele>
        <time>2019-10-17T14:00:41.001Z</time>
      </trkpt>
      <trkpt lat="42.4458" lon="8.67323">
        <ele>114.596</ele>
        <time>2019-10-17T14:01:17.001Z</time>
      </trkpt>
      <trkpt lat="42.44521" lon="8.67368">
        <ele>113.237</ele>
        <time>2019-10-17T14:06:17.001Z</time>
      </trkpt>
      <trkpt lat="42.44457" lon="8.67425">
        <ele>112.894</ele>
        <time>2019-10-17T14:06:53.001Z</time>
      </trkpt>
      <trkpt lat="42.44432" lon="8.67282">
        <ele>112.457</ele>
        <time>2019-10-17T14:08:05.001Z</time>
      </trkpt>
      <trkpt lat="42.44357" lon="8.67153">
        <ele>115.735</ele>
        <time>2019-10-17T14:08:41.001Z</time>
      </trkpt>
      <trkpt lat="42.44293" lon="8.67003">
        <ele>116.302</ele>
        <time>2019-10-17T14:09:17.001Z</time>
      </trkpt>
      <trkpt lat="42.4426" lon="8.66815">
        <ele>116.794</ele>
        <time>2019-10-17T14:09:53.001Z</time>
      </trkpt>
      <trkpt lat="42.44296" lon="8.66619">
        <ele>115.059</ele>
        <time>2019-10-17T14:10:29.001Z</time>
      </trkpt>
      <trkpt lat="42.44293" lon="8.66406">
        <ele>115.525</ele>
        <time>2019-10-17T14:11:08.001Z</time>
      </trkpt>
      <trkpt lat="42.44253" lon="8.6622">
        <ele>114.586</ele>
        <time>2019-10-17T14:11:44.001Z</time>
      </trkpt>
      <trkpt lat="42.44088" lon="8.66212">
        <ele>111.411</ele>
        <time>2019-10-17T14:12:20.001Z</time>
      </trkpt>
      <trkpt lat="42.43871" lon="8.66204">
        <ele>107.653</ele>
        <time>2019-10-17T14:12:56.001Z</time>
      </trkpt>
      <trkpt lat="42.43695" lon="8.66381">
        <ele>103.128</ele>
        <time>2019-10-17T14:13:32.001Z</time>
      </trkpt>
      <trkpt lat="42.43688" lon="8.66686">
        <ele>96.542</ele>
        <time>2019-10-17T14:14:11.001Z</time>
      </trkpt>
      <trkpt lat="42.43706" lon="8.67011">
        <ele>86.025</ele>
        <time>2019-10-17T14:14:47.001Z</time>
      </trkpt>
      <trkpt lat="42.43565" lon="8.67032">
        <ele>83.923</ele>
        <time>2019-10-17T14:15:23.001Z</time>
      </trkpt>
      <trkpt lat="42.43441" lon="8.6679">
        <ele>68.009</ele>
        <time>2019-10-17T14:15:59.001Z</time>
      </trkpt>
      <trkpt lat="42.43265" lon="8.66611">
        <ele>67.546</ele>
        <time>2019-10-17T14:16:35.001Z</time>
      </trkpt>
      <trkpt lat="42.43104" lon="8.66695">
        <ele>64.369</ele>
        <time>2019-10-17T14:17:14.001Z</time>
      </trkpt>
      <trkpt lat="42.42935" lon="8.66592">
        <ele>58.78</ele>
        <time>2019-10-17T14:17:50.001Z</time>
      </trkpt>
      <trkpt lat="42.42806" lon="8.66672">
        <ele>59.466</ele>
        <time>2019-10-17T14:18:26.001Z</time>
      </trkpt>
      <trkpt lat="42.4264" lon="8.66645">
        <ele>52.856</ele>
        <time>2019-10-17T14:19:02Z</time>
      </trkpt>
      <trkpt lat="42.42613" lon="8.66918">
        <ele>52.181</ele>
        <time>2019-10-17T14:19:38.001Z</time>
      </trkpt>
      <trkpt lat="42.42583" lon="8.6717">
        <ele>43.721</ele>
        <time>2019-10-17T14:20:17.001Z</time>
      </trkpt>
      <trkpt lat="42.42539" lon="8.67279">
        <ele>39.868</ele>
        <time>2019-10-17T14:20:53.001Z</time>
      </trkpt>
      <trkpt lat="42.42426" lon="8.67389">
        <ele>37.035</ele>
        <time>2019-10-17T14:21:29.001Z</time>
      </trkpt>
      <trkpt lat="42.42275" lon="8.67623">
        <ele>31.692</ele>
        <time>2019-10-17T14:22:05.001Z</time>
      </trkpt>
      <trkpt lat="42.42286" lon="8.67935">
        <ele>26.25</ele>
        <time>2019-10-17T14:22:41.001Z</time>
      </trkpt>
      <trkpt lat="42.42112" lon="8.67735">
        <ele>24.953</ele>
        <time>2019-10-17T14:23:20.001Z</time>
      </trkpt>
      <trkpt lat="42.41919" lon="8.67631">
        <ele>22.16</ele>
        <time>2019-10-17T14:23:56.001Z</time>
      </trkpt>
      <trkpt lat="42.41826" lon="8.67896">
        <ele>16.114</ele>
        <time>2019-10-17T14:24:32.001Z</time>
      </trkpt>
      <trkpt lat="42.41688" lon="8.68129">
        <ele>10.078</ele>
        <time>2019-10-17T14:25:08.001Z</time>
      </trkpt>
      <trkpt lat="42.41587" lon="8.68267">
        <ele>17.75</ele>
        <time>2019-10-17T14:25:44.001Z</time>
      </trkpt>
      <trkpt lat="42.41396" lon="8.68173">
        <ele>17.193</ele>
        <time>2019-10-17T14:26:23.001Z</time>
      </trkpt>
      <trkpt lat="42.41205" lon="8.68159">
        <ele>16.236</ele>
        <time>2019-10-17T14:26:59.001Z</time>
      </trkpt>
      <trkpt lat="42.41153" lon="8.68054">
        <ele>22.117</ele>
        <time>2019-10-17T14:27:35.001Z</time>
      </trkpt>
      <trkpt lat="42.41135" lon="8.67825">
        <ele>23.709</ele>
        <time>2019-10-17T14:28:11.001Z</time>
      </trkpt>
      <trkpt lat="42.4119" lon="8.67623">
        <ele>21.204</ele>
        <time>2019-10-17T14:28:47.001Z</time>
      </trkpt>
      <trkpt lat="42.41159" lon="8.67466">
        <ele>20.002</ele>
        <time>2019-10-17T14:29:26.001Z</time>
      </trkpt>
      <trkpt lat="42.41182" lon="8.67232">
        <ele>18.519</ele>
        <time>2019-10-17T14:30:02Z</time>
      </trkpt>
      <trkpt lat="42.4133" lon="8.67157">
        <ele>20.623</ele>
        <time>2019-10-17T14:30:38.001Z</time>
      </trkpt>
      <trkpt lat="42.41413" lon="8.66934">
        <ele>20.842</ele>
        <time>2019-10-17T14:31:14.001Z</time>
      </trkpt>
      <trkpt lat="42.41448" lon="8.66731">
        <ele>18.778</ele>
        <time>2019-10-17T14:31:50.001Z</time>
      </trkpt>
      <trkpt lat="42.41576" lon="8.66522">
        <ele>20.357</ele>
        <time>2019-10-17T14:32:29.001Z</time>
      </trkpt>
      <trkpt lat="42.41593" lon="8.66261">
        <ele>16.967</ele>
        <time>2019-10-17T14:33:05.001Z</time>
      </trkpt>
      <trkpt lat="42.41714" lon="8.661">
        <ele>18.977</ele>
        <time>2019-10-17T14:33:41.001Z</time>
      </trkpt>
      <trkpt lat="42.41701" lon="8.65832">
        <ele>10.941</ele>
        <time>2019-10-17T14:34:17.001Z</time>
      </trkpt>
      <trkpt lat="42.41602" lon="8.65648">
        <ele>16.296</ele>
        <time>2019-10-17T14:34:53.001Z</time>
      </trkpt>
      <trkpt lat="42.41494" lon="8.65518">
        <ele>20.969</ele>
        <time>2019-10-17T14:35:32.001Z</time>
      </trkpt>
      <trkpt lat="42.41416" lon="8.65356">
        <ele>25.333</ele>
        <time>2019-10-17T14:36:08.001Z</time>
      </trkpt>
      <trkpt lat="42.41369" lon="8.6515">
        <ele>23.315</ele>
        <time>2019-10-17T14:36:44.001Z</time>
      </trkpt>
      <trkpt lat="42.41265" lon="8.64943">
        <ele>18.886</ele>
        <time>2019-10-17T14:37:20.001Z</time>
      </trkpt>
      <trkpt lat="42.41269" lon="8.64705">
        <ele>11.713</ele>
        <time>2019-10-17T14:37:56.001Z</time>
      </trkpt>
      <trkpt lat="42.41184" lon="8.64549">
        <ele>12.778</ele>
        <time>2019-10-17T14:38:35.001Z</time>
      </trkpt>
      <trkpt lat="42.41093" lon="8.64475">
        <ele>7.436</ele>
        <time>2019-10-17T14:39:11.001Z</time>
      </trkpt>
      <trkpt lat="42.41054" lon="8.64422">
        <ele>11.559</ele>
        <time>2019-10-17T14:44:17.001Z</time>
      </trkpt>
      <trkpt lat="42.41047" lon="8.64405">
        <ele>14.931</ele>
        <time>2019-10-17T14:48:14.001Z</time>
      </trkpt>
      <trkpt lat="42.41048" lon="8.64392">
        <ele>16.761</ele>
        <time>2019-10-17T14:49:26.001Z</time>
      </trkpt>
      <trkpt lat="42.4105" lon="8.64393">
        <ele>17.085</ele>
        <time>2019-10-17T14:57:08.001Z</time>
      </trkpt>
      <trkpt lat="42.41045" lon="8.644">
        <ele>16.304</ele>
        <time>2019-10-17T14:59:20.001Z</time>
      </trkpt>
      <trkpt lat="42.4105" lon="8.64377">
        <ele>4.905</ele>
        <time>2019-10-17T15:00:59.001Z</time>
      </trkpt>
      <trkpt lat="42.41036" lon="8.64398">
        <ele>8.622</ele>
        <time>2019-10-17T15:02:29.001Z</time>
      </trkpt>
      <trkpt lat="42.41045" lon="8.64391">
        <ele>13</ele>
        <time>2019-10-17T15:05:32.001Z</time>
      </trkpt>
      <trkpt lat="42.41049" lon="8.64398">
        <ele>12.8</ele>
        <time>2019-10-17T15:07:32.001Z</time>
      </trkpt>
      <trkpt lat="42.41049" lon="8.64398">
        <ele>12.8</ele>
        <time>2019-10-17T15:09:44.001Z</time>
      </trkpt>
      <trkpt lat="42.41056" lon="8.64397">
        <ele>7.863</ele>
        <time>2019-10-17T15:11:47.001Z</time>
      </trkpt>
      <trkpt lat="42.41053" lon="8.64384">
        <ele>14.674</ele>
        <time>2019-10-17T15:15:19.001Z</time>
      </trkpt>
      <trkpt lat="42.41049" lon="8.64403">
        <ele>5.752</ele>
        <time>2019-10-17T15:19:15.001Z</time>
      </trkpt>
      <trkpt lat="42.41065" lon="8.64384">
        <ele>16.411</ele>
        <time>2019-10-17T15:24:13.001Z</time>
      </trkpt>
      <trkpt lat="42.41048" lon="8.64383">
        <ele>14.904</ele>
        <time>2019-10-17T15:25:31.001Z</time>
      </trkpt>
      <trkpt lat="42.41053" lon="8.6438">
        <ele>13.642</ele>
        <time>2019-10-17T15:27:07.001Z</time>
      </trkpt>
      <trkpt lat="42.41061" lon="8.64391">
        <ele>11.711</ele>
        <time>2019-10-17T15:46:19.001Z</time>
      </trkpt>
      <trkpt lat="42.4107" lon="8.64416">
        <ele>13.572</ele>
        <time>2019-10-17T15:48:25.001Z</time>
      </trkpt>
      <trkpt lat="42.41059" lon="8.64413">
        <ele>9.535</ele>
        <time>2019-10-17T15:51:16Z</time>
      </trkpt>
      <trkpt lat="42.4105" lon="8.644">
        <ele>12.261</ele>
        <time>2019-10-17T16:10:01.001Z</time>
      </trkpt>
      <trkpt lat="42.41049" lon="8.64384">
        <ele>10.909</ele>
        <time>2019-10-17T16:12:22.001Z</time>
      </trkpt>
    </trkseg>
  </trk>
  <trk>
    <name><![CDATA[Tracé 20191018-091111]]></name>
    <trkseg>
      <trkpt lat="42.41061" lon="8.64436">
        <ele>15.809</ele>
        <time>2019-10-18T07:18:44Z</time>
      </trkpt>
      <trkpt lat="42.41073" lon="8.6446">
        <ele>17.26</ele>
        <time>2019-10-18T07:21:20Z</time>
      </trkpt>
      <trkpt lat="42.41146" lon="8.64524">
        <ele>11.432</ele>
        <time>2019-10-18T07:25:41Z</time>
      </trkpt>
      <trkpt lat="42.41192" lon="8.64586">
        <ele>6.713</ele>
        <time>2019-10-18T07:26:11Z</time>
      </trkpt>
      <trkpt lat="42.41225" lon="8.64712">
        <ele>9.312</ele>
        <time>2019-10-18T07:26:41Z</time>
      </trkpt>
      <trkpt lat="42.41285" lon="8.64744">
        <ele>12.574</ele>
        <time>2019-10-18T07:27:11Z</time>
      </trkpt>
      <trkpt lat="42.41291" lon="8.64845">
        <ele>18.608</ele>
        <time>2019-10-18T07:27:41Z</time>
      </trkpt>
      <trkpt lat="42.41272" lon="8.64956">
        <ele>25.772</ele>
        <time>2019-10-18T07:28:11Z</time>
      </trkpt>
      <trkpt lat="42.41333" lon="8.65054">
        <ele>21.508</ele>
        <time>2019-10-18T07:28:41Z</time>
      </trkpt>
      <trkpt lat="42.41372" lon="8.65148">
        <ele>24.725</ele>
        <time>2019-10-18T07:29:11Z</time>
      </trkpt>
      <trkpt lat="42.41418" lon="8.65286">
        <ele>25.005</ele>
        <time>2019-10-18T07:29:41Z</time>
      </trkpt>
      <trkpt lat="42.41471" lon="8.65453">
        <ele>18.125</ele>
        <time>2019-10-18T07:30:11Z</time>
      </trkpt>
      <trkpt lat="42.41566" lon="8.65623">
        <ele>15.394</ele>
        <time>2019-10-18T07:30:41Z</time>
      </trkpt>
      <trkpt lat="42.41682" lon="8.6579">
        <ele>16.184</ele>
        <time>2019-10-18T07:31:11Z</time>
      </trkpt>
      <trkpt lat="42.41723" lon="8.65975">
        <ele>13.782</ele>
        <time>2019-10-18T07:31:41Z</time>
      </trkpt>
      <trkpt lat="42.41707" lon="8.66166">
        <ele>17.836</ele>
        <time>2019-10-18T07:32:11Z</time>
      </trkpt>
      <trkpt lat="42.41598" lon="8.66212">
        <ele>15.053</ele>
        <time>2019-10-18T07:32:41Z</time>
      </trkpt>
      <trkpt lat="42.41594" lon="8.66392">
        <ele>21.733</ele>
        <time>2019-10-18T07:33:11Z</time>
      </trkpt>
      <trkpt lat="42.41551" lon="8.66597">
        <ele>18.387</ele>
        <time>2019-10-18T07:33:44Z</time>
      </trkpt>
      <trkpt lat="42.41451" lon="8.66709">
        <ele>18.262</ele>
        <time>2019-10-18T07:34:14Z</time>
      </trkpt>
      <trkpt lat="42.41451" lon="8.66886">
        <ele>16.175</ele>
        <time>2019-10-18T07:34:44Z</time>
      </trkpt>
      <trkpt lat="42.41358" lon="8.67026">
        <ele>17.039</ele>
        <time>2019-10-18T07:35:14Z</time>
      </trkpt>
      <trkpt lat="42.41286" lon="8.67203">
        <ele>15.45</ele>
        <time>2019-10-18T07:35:44Z</time>
      </trkpt>
      <trkpt lat="42.4118" lon="8.6723">
        <ele>17.61</ele>
        <time>2019-10-18T07:36:14Z</time>
      </trkpt>
      <trkpt lat="42.41148" lon="8.67384">
        <ele>17.489</ele>
        <time>2019-10-18T07:36:44Z</time>
      </trkpt>
      <trkpt lat="42.41115" lon="8.67521">
        <ele>18.049</ele>
        <time>2019-10-18T07:37:14Z</time>
      </trkpt>
      <trkpt lat="42.41172" lon="8.67661">
        <ele>20.2</ele>
        <time>2019-10-18T07:37:44Z</time>
      </trkpt>
      <trkpt lat="42.41141" lon="8.67826">
        <ele>19.86</ele>
        <time>2019-10-18T07:38:14Z</time>
      </trkpt>
      <trkpt lat="42.41157" lon="8.68027">
        <ele>22.039</ele>
        <time>2019-10-18T07:38:44Z</time>
      </trkpt>
      <trkpt lat="42.41151" lon="8.68214">
        <ele>19.264</ele>
        <time>2019-10-18T07:39:14Z</time>
      </trkpt>
      <trkpt lat="42.41105" lon="8.68377">
        <ele>20.785</ele>
        <time>2019-10-18T07:39:44Z</time>
      </trkpt>
      <trkpt lat="42.4105" lon="8.68532">
        <ele>26.536</ele>
        <time>2019-10-18T07:40:14Z</time>
      </trkpt>
      <trkpt lat="42.40995" lon="8.68683">
        <ele>29.126</ele>
        <time>2019-10-18T07:40:44Z</time>
      </trkpt>
      <trkpt lat="42.40914" lon="8.68809">
        <ele>26.638</ele>
        <time>2019-10-18T07:41:14Z</time>
      </trkpt>
      <trkpt lat="42.40815" lon="8.68926">
        <ele>24.288</ele>
        <time>2019-10-18T07:41:44Z</time>
      </trkpt>
      <trkpt lat="42.40715" lon="8.69051">
        <ele>24.187</ele>
        <time>2019-10-18T07:42:14Z</time>
      </trkpt>
      <trkpt lat="42.40658" lon="8.69213">
        <ele>23.674</ele>
        <time>2019-10-18T07:42:44Z</time>
      </trkpt>
      <trkpt lat="42.40566" lon="8.69351">
        <ele>23.751</ele>
        <time>2019-10-18T07:43:14Z</time>
      </trkpt>
      <trkpt lat="42.40475" lon="8.69487">
        <ele>23.708</ele>
        <time>2019-10-18T07:43:44Z</time>
      </trkpt>
      <trkpt lat="42.40359" lon="8.69542">
        <ele>23.654</ele>
        <time>2019-10-18T07:44:14Z</time>
      </trkpt>
      <trkpt lat="42.40295" lon="8.69668">
        <ele>28.692</ele>
        <time>2019-10-18T07:44:44Z</time>
      </trkpt>
      <trkpt lat="42.40203" lon="8.69764">
        <ele>30.679</ele>
        <time>2019-10-18T07:45:14Z</time>
      </trkpt>
      <trkpt lat="42.40139" lon="8.69767">
        <ele>32.448</ele>
        <time>2019-10-18T07:47:38.001Z</time>
      </trkpt>
      <trkpt lat="42.4005" lon="8.69759">
        <ele>31.287</ele>
        <time>2019-10-18T07:48:08.001Z</time>
      </trkpt>
      <trkpt lat="42.39975" lon="8.69754">
        <ele>34.407</ele>
        <time>2019-10-18T07:48:38.001Z</time>
      </trkpt>
      <trkpt lat="42.39898" lon="8.69749">
        <ele>38.179</ele>
        <time>2019-10-18T07:49:08.001Z</time>
      </trkpt>
      <trkpt lat="42.39826" lon="8.69746">
        <ele>42.754</ele>
        <time>2019-10-18T07:49:38.001Z</time>
      </trkpt>
      <trkpt lat="42.39755" lon="8.69728">
        <ele>47.519</ele>
        <time>2019-10-18T07:50:08.001Z</time>
      </trkpt>
      <trkpt lat="42.39685" lon="8.69707">
        <ele>50.56</ele>
        <time>2019-10-18T07:50:38.001Z</time>
      </trkpt>
      <trkpt lat="42.39614" lon="8.69688">
        <ele>55.68</ele>
        <time>2019-10-18T07:51:08.001Z</time>
      </trkpt>
      <trkpt lat="42.39546" lon="8.69692">
        <ele>58.146</ele>
        <time>2019-10-18T07:51:38.001Z</time>
      </trkpt>
      <trkpt lat="42.39483" lon="8.69721">
        <ele>63.981</ele>
        <time>2019-10-18T07:52:08.001Z</time>
      </trkpt>
      <trkpt lat="42.39433" lon="8.6967">
        <ele>71.596</ele>
        <time>2019-10-18T07:52:38.001Z</time>
      </trkpt>
      <trkpt lat="42.39375" lon="8.69617">
        <ele>77.574</ele>
        <time>2019-10-18T07:53:11.001Z</time>
      </trkpt>
      <trkpt lat="42.3933" lon="8.69543">
        <ele>79.142</ele>
        <time>2019-10-18T07:53:41.001Z</time>
      </trkpt>
      <trkpt lat="42.39276" lon="8.69474">
        <ele>79.763</ele>
        <time>2019-10-18T07:54:11.001Z</time>
      </trkpt>
      <trkpt lat="42.3921" lon="8.6943">
        <ele>83.004</ele>
        <time>2019-10-18T07:54:41.001Z</time>
      </trkpt>
      <trkpt lat="42.39158" lon="8.69358">
        <ele>83.073</ele>
        <time>2019-10-18T07:55:11.001Z</time>
      </trkpt>
      <trkpt lat="42.39105" lon="8.69288">
        <ele>87.676</ele>
        <time>2019-10-18T07:55:41.001Z</time>
      </trkpt>
      <trkpt lat="42.39062" lon="8.69207">
        <ele>90.693</ele>
        <time>2019-10-18T07:56:11.001Z</time>
      </trkpt>
      <trkpt lat="42.39013" lon="8.69126">
        <ele>92.094</ele>
        <time>2019-10-18T07:56:41.001Z</time>
      </trkpt>
      <trkpt lat="42.38945" lon="8.69109">
        <ele>97.02</ele>
        <time>2019-10-18T07:57:11.001Z</time>
      </trkpt>
      <trkpt lat="42.38883" lon="8.6917">
        <ele>98.16</ele>
        <time>2019-10-18T07:57:41.001Z</time>
      </trkpt>
      <trkpt lat="42.3882" lon="8.69171">
        <ele>100.941</ele>
        <time>2019-10-18T07:58:11.001Z</time>
      </trkpt>
      <trkpt lat="42.38746" lon="8.69141">
        <ele>102.767</ele>
        <time>2019-10-18T07:58:41.001Z</time>
      </trkpt>
      <trkpt lat="42.38671" lon="8.69178">
        <ele>104.897</ele>
        <time>2019-10-18T07:59:11.001Z</time>
      </trkpt>
      <trkpt lat="42.38628" lon="8.69266">
        <ele>105.92</ele>
        <time>2019-10-18T07:59:41.001Z</time>
      </trkpt>
      <trkpt lat="42.38572" lon="8.69342">
        <ele>108.524</ele>
        <time>2019-10-18T08:00:11.001Z</time>
      </trkpt>
      <trkpt lat="42.38515" lon="8.69412">
        <ele>111.381</ele>
        <time>2019-10-18T08:00:41.001Z</time>
      </trkpt>
      <trkpt lat="42.38488" lon="8.69514">
        <ele>113.476</ele>
        <time>2019-10-18T08:01:11.001Z</time>
      </trkpt>
      <trkpt lat="42.38466" lon="8.6964">
        <ele>112.148</ele>
        <time>2019-10-18T08:01:41.001Z</time>
      </trkpt>
      <trkpt lat="42.38417" lon="8.69779">
        <ele>112.551</ele>
        <time>2019-10-18T08:02:11.001Z</time>
      </trkpt>
      <trkpt lat="42.38352" lon="8.69892">
        <ele>111.217</ele>
        <time>2019-10-18T08:02:41.001Z</time>
      </trkpt>
      <trkpt lat="42.38346" lon="8.69764">
        <ele>120.018</ele>
        <time>2019-10-18T08:03:11.001Z</time>
      </trkpt>
      <trkpt lat="42.38381" lon="8.69602">
        <ele>120.848</ele>
        <time>2019-10-18T08:03:41.001Z</time>
      </trkpt>
      <trkpt lat="42.38372" lon="8.69441">
        <ele>118.347</ele>
        <time>2019-10-18T08:04:11.001Z</time>
      </trkpt>
      <trkpt lat="42.38375" lon="8.69304">
        <ele>125.282</ele>
        <time>2019-10-18T08:04:41.001Z</time>
      </trkpt>
      <trkpt lat="42.384" lon="8.69214">
        <ele>132.149</ele>
        <time>2019-10-18T08:05:11.001Z</time>
      </trkpt>
      <trkpt lat="42.3842" lon="8.69137">
        <ele>140.97</ele>
        <time>2019-10-18T08:05:41.001Z</time>
      </trkpt>
      <trkpt lat="42.38441" lon="8.6906">
        <ele>140.466</ele>
        <time>2019-10-18T08:06:11.001Z</time>
      </trkpt>
      <trkpt lat="42.38453" lon="8.68972">
        <ele>143.735</ele>
        <time>2019-10-18T08:06:41.001Z</time>
      </trkpt>
      <trkpt lat="42.38472" lon="8.68898">
        <ele>147.078</ele>
        <time>2019-10-18T08:07:11.001Z</time>
      </trkpt>
      <trkpt lat="42.38521" lon="8.68866">
        <ele>144.878</ele>
        <time>2019-10-18T08:07:41.001Z</time>
      </trkpt>
      <trkpt lat="42.38586" lon="8.68851">
        <ele>144.677</ele>
        <time>2019-10-18T08:08:11.001Z</time>
      </trkpt>
      <trkpt lat="42.38625" lon="8.68772">
        <ele>150.219</ele>
        <time>2019-10-18T08:08:41.001Z</time>
      </trkpt>
      <trkpt lat="42.38657" lon="8.68691">
        <ele>152.389</ele>
        <time>2019-10-18T08:09:11.001Z</time>
      </trkpt>
      <trkpt lat="42.38612" lon="8.68637">
        <ele>158.194</ele>
        <time>2019-10-18T08:09:41.001Z</time>
      </trkpt>
      <trkpt lat="42.38563" lon="8.68593">
        <ele>163.241</ele>
        <time>2019-10-18T08:10:11.001Z</time>
      </trkpt>
      <trkpt lat="42.38516" lon="8.68544">
        <ele>167.322</ele>
        <time>2019-10-18T08:10:41.001Z</time>
      </trkpt>
      <trkpt lat="42.38454" lon="8.68524">
        <ele>172.839</ele>
        <time>2019-10-18T08:11:14.001Z</time>
      </trkpt>
      <trkpt lat="42.38409" lon="8.68471">
        <ele>175.879</ele>
        <time>2019-10-18T08:11:44.001Z</time>
      </trkpt>
      <trkpt lat="42.38386" lon="8.68395">
        <ele>176.767</ele>
        <time>2019-10-18T08:12:14.001Z</time>
      </trkpt>
      <trkpt lat="42.38332" lon="8.68368">
        <ele>176.552</ele>
        <time>2019-10-18T08:12:44.001Z</time>
      </trkpt>
      <trkpt lat="42.38287" lon="8.68436">
        <ele>178.14</ele>
        <time>2019-10-18T08:13:14.001Z</time>
      </trkpt>
      <trkpt lat="42.38217" lon="8.68425">
        <ele>183.058</ele>
        <time>2019-10-18T08:13:44.001Z</time>
      </trkpt>
      <trkpt lat="42.38149" lon="8.68456">
        <ele>185.508</ele>
        <time>2019-10-18T08:14:14.001Z</time>
      </trkpt>
      <trkpt lat="42.38079" lon="8.68485">
        <ele>186.688</ele>
        <time>2019-10-18T08:14:44.001Z</time>
      </trkpt>
      <trkpt lat="42.38104" lon="8.68373">
        <ele>185.945</ele>
        <time>2019-10-18T08:15:14.001Z</time>
      </trkpt>
      <trkpt lat="42.3808" lon="8.68287">
        <ele>186.948</ele>
        <time>2019-10-18T08:15:44.001Z</time>
      </trkpt>
      <trkpt lat="42.38008" lon="8.68295">
        <ele>190.923</ele>
        <time>2019-10-18T08:16:14.001Z</time>
      </trkpt>
      <trkpt lat="42.37946" lon="8.68229">
        <ele>196.467</ele>
        <time>2019-10-18T08:16:44.001Z</time>
      </trkpt>
      <trkpt lat="42.37924" lon="8.68159">
        <ele>191.583</ele>
        <time>2019-10-18T08:17:14.001Z</time>
      </trkpt>
      <trkpt lat="42.38001" lon="8.68091">
        <ele>193.839</ele>
        <time>2019-10-18T08:17:44.001Z</time>
      </trkpt>
      <trkpt lat="42.38059" lon="8.68017">
        <ele>195.146</ele>
        <time>2019-10-18T08:18:14.001Z</time>
      </trkpt>
      <trkpt lat="42.3803" lon="8.67921">
        <ele>200.657</ele>
        <time>2019-10-18T08:18:44.001Z</time>
      </trkpt>
      <trkpt lat="42.37957" lon="8.67904">
        <ele>203.324</ele>
        <time>2019-10-18T08:19:14.001Z</time>
      </trkpt>
      <trkpt lat="42.37879" lon="8.67907">
        <ele>205.506</ele>
        <time>2019-10-18T08:19:44.001Z</time>
      </trkpt>
      <trkpt lat="42.37826" lon="8.67868">
        <ele>210.313</ele>
        <time>2019-10-18T08:20:14.001Z</time>
      </trkpt>
      <trkpt lat="42.37844" lon="8.67779">
        <ele>213.171</ele>
        <time>2019-10-18T08:20:44.001Z</time>
      </trkpt>
      <trkpt lat="42.37845" lon="8.6768">
        <ele>210.608</ele>
        <time>2019-10-18T08:21:14.001Z</time>
      </trkpt>
      <trkpt lat="42.37782" lon="8.67693">
        <ele>212.8</ele>
        <time>2019-10-18T08:21:44.001Z</time>
      </trkpt>
      <trkpt lat="42.37717" lon="8.67706">
        <ele>217.035</ele>
        <time>2019-10-18T08:22:14.001Z</time>
      </trkpt>
      <trkpt lat="42.3764" lon="8.67719">
        <ele>217.559</ele>
        <time>2019-10-18T08:22:44.001Z</time>
      </trkpt>
      <trkpt lat="42.37583" lon="8.67783">
        <ele>222.744</ele>
        <time>2019-10-18T08:23:14.001Z</time>
      </trkpt>
      <trkpt lat="42.37516" lon="8.67829">
        <ele>226.712</ele>
        <time>2019-10-18T08:23:44.001Z</time>
      </trkpt>
      <trkpt lat="42.37503" lon="8.67729">
        <ele>229.227</ele>
        <time>2019-10-18T08:24:14.001Z</time>
      </trkpt>
      <trkpt lat="42.37466" lon="8.67648">
        <ele>234.721</ele>
        <time>2019-10-18T08:24:44.001Z</time>
      </trkpt>
      <trkpt lat="42.37395" lon="8.67617">
        <ele>237.172</ele>
        <time>2019-10-18T08:25:14.001Z</time>
      </trkpt>
      <trkpt lat="42.37324" lon="8.67594">
        <ele>234.844</ele>
        <time>2019-10-18T08:25:44.001Z</time>
      </trkpt>
      <trkpt lat="42.37353" lon="8.67525">
        <ele>238.802</ele>
        <time>2019-10-18T08:26:14.001Z</time>
      </trkpt>
      <trkpt lat="42.37393" lon="8.67438">
        <ele>241.49</ele>
        <time>2019-10-18T08:26:44.001Z</time>
      </trkpt>
      <trkpt lat="42.37464" lon="8.67414">
        <ele>241.602</ele>
        <time>2019-10-18T08:27:14.001Z</time>
      </trkpt>
      <trkpt lat="42.37524" lon="8.67374">
        <ele>243.922</ele>
        <time>2019-10-18T08:27:44.001Z</time>
      </trkpt>
      <trkpt lat="42.37556" lon="8.67307">
        <ele>251.32</ele>
        <time>2019-10-18T08:28:14.001Z</time>
      </trkpt>
      <trkpt lat="42.37555" lon="8.67234">
        <ele>255.43</ele>
        <time>2019-10-18T08:28:47.001Z</time>
      </trkpt>
      <trkpt lat="42.37509" lon="8.6719">
        <ele>260.066</ele>
        <time>2019-10-18T08:29:17.001Z</time>
      </trkpt>
      <trkpt lat="42.37455" lon="8.67161">
        <ele>268.169</ele>
        <time>2019-10-18T08:29:47.001Z</time>
      </trkpt>
      <trkpt lat="42.37398" lon="8.67129">
        <ele>268.581</ele>
        <time>2019-10-18T08:30:17.001Z</time>
      </trkpt>
      <trkpt lat="42.37373" lon="8.6706">
        <ele>273.155</ele>
        <time>2019-10-18T08:30:47.001Z</time>
      </trkpt>
      <trkpt lat="42.3734" lon="8.66994">
        <ele>273.992</ele>
        <time>2019-10-18T08:31:17.001Z</time>
      </trkpt>
      <trkpt lat="42.37288" lon="8.66961">
        <ele>276.572</ele>
        <time>2019-10-18T08:31:47.001Z</time>
      </trkpt>
      <trkpt lat="42.37242" lon="8.6691">
        <ele>275.456</ele>
        <time>2019-10-18T08:32:17.001Z</time>
      </trkpt>
      <trkpt lat="42.372" lon="8.66893">
        <ele>278.87</ele>
        <time>2019-10-18T08:41:38.001Z</time>
      </trkpt>
      <trkpt lat="42.37176" lon="8.66919">
        <ele>281.821</ele>
        <time>2019-10-18T08:43:35.001Z</time>
      </trkpt>
      <trkpt lat="42.3712" lon="8.66956">
        <ele>289.113</ele>
        <time>2019-10-18T08:44:05.001Z</time>
      </trkpt>
      <trkpt lat="42.37064" lon="8.67033">
        <ele>288.066</ele>
        <time>2019-10-18T08:44:35.001Z</time>
      </trkpt>
      <trkpt lat="42.36986" lon="8.6708">
        <ele>287.267</ele>
        <time>2019-10-18T08:45:05.001Z</time>
      </trkpt>
      <trkpt lat="42.36915" lon="8.6714">
        <ele>290.557</ele>
        <time>2019-10-18T08:45:35.001Z</time>
      </trkpt>
      <trkpt lat="42.36852" lon="8.6721">
        <ele>292.245</ele>
        <time>2019-10-18T08:46:05.001Z</time>
      </trkpt>
      <trkpt lat="42.3679" lon="8.67203">
        <ele>292.811</ele>
        <time>2019-10-18T08:46:35.001Z</time>
      </trkpt>
      <trkpt lat="42.36829" lon="8.67119">
        <ele>297.931</ele>
        <time>2019-10-18T08:47:05.001Z</time>
      </trkpt>
      <trkpt lat="42.3683" lon="8.6702">
        <ele>296.798</ele>
        <time>2019-10-18T08:47:35.001Z</time>
      </trkpt>
      <trkpt lat="42.36871" lon="8.66942">
        <ele>302.583</ele>
        <time>2019-10-18T08:48:05.001Z</time>
      </trkpt>
      <trkpt lat="42.36882" lon="8.66851">
        <ele>303.852</ele>
        <time>2019-10-18T08:48:35.001Z</time>
      </trkpt>
      <trkpt lat="42.36897" lon="8.66751">
        <ele>303.583</ele>
        <time>2019-10-18T08:49:05.001Z</time>
      </trkpt>
      <trkpt lat="42.36886" lon="8.66659">
        <ele>309.599</ele>
        <time>2019-10-18T08:49:35.001Z</time>
      </trkpt>
      <trkpt lat="42.36945" lon="8.66595">
        <ele>310.086</ele>
        <time>2019-10-18T08:50:05.001Z</time>
      </trkpt>
      <trkpt lat="42.36913" lon="8.66516">
        <ele>312.953</ele>
        <time>2019-10-18T08:50:35.001Z</time>
      </trkpt>
      <trkpt lat="42.36846" lon="8.66477">
        <ele>319.769</ele>
        <time>2019-10-18T08:51:05.001Z</time>
      </trkpt>
      <trkpt lat="42.36768" lon="8.66453">
        <ele>321.806</ele>
        <time>2019-10-18T08:51:35.001Z</time>
      </trkpt>
      <trkpt lat="42.36701" lon="8.6649">
        <ele>322.007</ele>
        <time>2019-10-18T08:52:05.001Z</time>
      </trkpt>
      <trkpt lat="42.36629" lon="8.66525">
        <ele>323.304</ele>
        <time>2019-10-18T08:52:35.001Z</time>
      </trkpt>
      <trkpt lat="42.36545" lon="8.66518">
        <ele>324.048</ele>
        <time>2019-10-18T08:53:05.001Z</time>
      </trkpt>
      <trkpt lat="42.36466" lon="8.66494">
        <ele>327.629</ele>
        <time>2019-10-18T08:53:35.001Z</time>
      </trkpt>
      <trkpt lat="42.36425" lon="8.66454">
        <ele>330.37</ele>
        <time>2019-10-18T08:54:05.001Z</time>
      </trkpt>
      <trkpt lat="42.36465" lon="8.66392">
        <ele>330.936</ele>
        <time>2019-10-18T08:54:35.001Z</time>
      </trkpt>
      <trkpt lat="42.36447" lon="8.66319">
        <ele>335.117</ele>
        <time>2019-10-18T08:55:05.001Z</time>
      </trkpt>
      <trkpt lat="42.36412" lon="8.66251">
        <ele>343.255</ele>
        <time>2019-10-18T08:55:35.001Z</time>
      </trkpt>
      <trkpt lat="42.36442" lon="8.66198">
        <ele>347.2</ele>
        <time>2019-10-18T08:56:05.001Z</time>
      </trkpt>
      <trkpt lat="42.36498" lon="8.66173">
        <ele>346.729</ele>
        <time>2019-10-18T08:56:35.001Z</time>
      </trkpt>
      <trkpt lat="42.36552" lon="8.66151">
        <ele>345.582</ele>
        <time>2019-10-18T08:57:08.001Z</time>
      </trkpt>
      <trkpt lat="42.36574" lon="8.66082">
        <ele>351.67</ele>
        <time>2019-10-18T08:57:38.001Z</time>
      </trkpt>
      <trkpt lat="42.36605" lon="8.66013">
        <ele>355.198</ele>
        <time>2019-10-18T08:58:08.001Z</time>
      </trkpt>
      <trkpt lat="42.3657" lon="8.65948">
        <ele>361.32</ele>
        <time>2019-10-18T08:58:38.001Z</time>
      </trkpt>
      <trkpt lat="42.36573" lon="8.65869">
        <ele>364.936</ele>
        <time>2019-10-18T08:59:08.001Z</time>
      </trkpt>
      <trkpt lat="42.36546" lon="8.65806">
        <ele>371.882</ele>
        <time>2019-10-18T08:59:38.001Z</time>
      </trkpt>
      <trkpt lat="42.36505" lon="8.65753">
        <ele>372.1</ele>
        <time>2019-10-18T09:00:08.001Z</time>
      </trkpt>
      <trkpt lat="42.36495" lon="8.65672">
        <ele>376.356</ele>
        <time>2019-10-18T09:00:38.001Z</time>
      </trkpt>
      <trkpt lat="42.36454" lon="8.65618">
        <ele>378.148</ele>
        <time>2019-10-18T09:01:08.001Z</time>
      </trkpt>
      <trkpt lat="42.36391" lon="8.65599">
        <ele>379.426</ele>
        <time>2019-10-18T09:01:38.001Z</time>
      </trkpt>
      <trkpt lat="42.36378" lon="8.65516">
        <ele>384.389</ele>
        <time>2019-10-18T09:02:08.001Z</time>
      </trkpt>
      <trkpt lat="42.36399" lon="8.65436">
        <ele>388.692</ele>
        <time>2019-10-18T09:02:38.001Z</time>
      </trkpt>
      <trkpt lat="42.36369" lon="8.65353">
        <ele>390.365</ele>
        <time>2019-10-18T09:03:08.001Z</time>
      </trkpt>
      <trkpt lat="42.3636" lon="8.65274">
        <ele>394.691</ele>
        <time>2019-10-18T09:03:38.001Z</time>
      </trkpt>
      <trkpt lat="42.36384" lon="8.65194">
        <ele>396.205</ele>
        <time>2019-10-18T09:04:11.001Z</time>
      </trkpt>
      <trkpt lat="42.36358" lon="8.65123">
        <ele>399.244</ele>
        <time>2019-10-18T09:04:41.001Z</time>
      </trkpt>
      <trkpt lat="42.36342" lon="8.65042">
        <ele>399.674</ele>
        <time>2019-10-18T09:05:11.001Z</time>
      </trkpt>
      <trkpt lat="42.36371" lon="8.64966">
        <ele>404.402</ele>
        <time>2019-10-18T09:05:41.001Z</time>
      </trkpt>
      <trkpt lat="42.36386" lon="8.64891">
        <ele>404.764</ele>
        <time>2019-10-18T09:06:11.001Z</time>
      </trkpt>
      <trkpt lat="42.36394" lon="8.64829">
        <ele>408.306</ele>
        <time>2019-10-18T09:07:44.001Z</time>
      </trkpt>
      <trkpt lat="42.36376" lon="8.64824">
        <ele>408.017</ele>
        <time>2019-10-18T09:10:11.001Z</time>
      </trkpt>
      <trkpt lat="42.36269" lon="8.64844">
        <ele>407.954</ele>
        <time>2019-10-18T09:10:41.001Z</time>
      </trkpt>
      <trkpt lat="42.36148" lon="8.64891">
        <ele>405.585</ele>
        <time>2019-10-18T09:11:11.001Z</time>
      </trkpt>
      <trkpt lat="42.3608" lon="8.65116">
        <ele>404.207</ele>
        <time>2019-10-18T09:11:41.001Z</time>
      </trkpt>
      <trkpt lat="42.35988" lon="8.65364">
        <ele>399.871</ele>
        <time>2019-10-18T09:12:11.001Z</time>
      </trkpt>
      <trkpt lat="42.35826" lon="8.652">
        <ele>385.989</ele>
        <time>2019-10-18T09:12:41.001Z</time>
      </trkpt>
      <trkpt lat="42.357" lon="8.64919">
        <ele>365.195</ele>
        <time>2019-10-18T09:13:11.001Z</time>
      </trkpt>
      <trkpt lat="42.35578" lon="8.64641">
        <ele>352.573</ele>
        <time>2019-10-18T09:13:41.001Z</time>
      </trkpt>
      <trkpt lat="42.3535" lon="8.64578">
        <ele>340.791</ele>
        <time>2019-10-18T09:14:11.001Z</time>
      </trkpt>
      <trkpt lat="42.35153" lon="8.64414">
        <ele>330.068</ele>
        <time>2019-10-18T09:14:41.001Z</time>
      </trkpt>
      <trkpt lat="42.35151" lon="8.64787">
        <ele>317.617</ele>
        <time>2019-10-18T09:15:11.001Z</time>
      </trkpt>
      <trkpt lat="42.34989" lon="8.64976">
        <ele>306.825</ele>
        <time>2019-10-18T09:15:41.001Z</time>
      </trkpt>
      <trkpt lat="42.35207" lon="8.65073">
        <ele>297.599</ele>
        <time>2019-10-18T09:16:11.001Z</time>
      </trkpt>
      <trkpt lat="42.35285" lon="8.65292">
        <ele>290.4</ele>
        <time>2019-10-18T09:16:41.001Z</time>
      </trkpt>
      <trkpt lat="42.35161" lon="8.65391">
        <ele>290.169</ele>
        <time>2019-10-18T09:17:11.001Z</time>
      </trkpt>
      <trkpt lat="42.35195" lon="8.65653">
        <ele>284.342</ele>
        <time>2019-10-18T09:17:44.001Z</time>
      </trkpt>
      <trkpt lat="42.35247" lon="8.65815">
        <ele>290.089</ele>
        <time>2019-10-18T09:18:14.001Z</time>
      </trkpt>
      <trkpt lat="42.35277" lon="8.65981">
        <ele>286.688</ele>
        <time>2019-10-18T09:18:44.001Z</time>
      </trkpt>
      <trkpt lat="42.35067" lon="8.65935">
        <ele>279.992</ele>
        <time>2019-10-18T09:19:14.001Z</time>
      </trkpt>
      <trkpt lat="42.3487" lon="8.65892">
        <ele>264.612</ele>
        <time>2019-10-18T09:19:44.001Z</time>
      </trkpt>
      <trkpt lat="42.34877" lon="8.66221">
        <ele>251.658</ele>
        <time>2019-10-18T09:20:14.001Z</time>
      </trkpt>
      <trkpt lat="42.34908" lon="8.66529">
        <ele>241.316</ele>
        <time>2019-10-18T09:20:44.001Z</time>
      </trkpt>
      <trkpt lat="42.34781" lon="8.66384">
        <ele>229.509</ele>
        <time>2019-10-18T09:21:14.001Z</time>
      </trkpt>
      <trkpt lat="42.34656" lon="8.66233">
        <ele>229.899</ele>
        <time>2019-10-18T09:21:44.002Z</time>
      </trkpt>
      <trkpt lat="42.34547" lon="8.66102">
        <ele>232.869</ele>
        <time>2019-10-18T09:22:14.001Z</time>
      </trkpt>
      <trkpt lat="42.34448" lon="8.66146">
        <ele>237.797</ele>
        <time>2019-10-18T09:22:44.001Z</time>
      </trkpt>
      <trkpt lat="42.34372" lon="8.66209">
        <ele>236.385</ele>
        <time>2019-10-18T09:23:14.001Z</time>
      </trkpt>
      <trkpt lat="42.34357" lon="8.66">
        <ele>235.518</ele>
        <time>2019-10-18T09:23:44.001Z</time>
      </trkpt>
      <trkpt lat="42.34289" lon="8.6595">
        <ele>232.79</ele>
        <time>2019-10-18T09:24:14.001Z</time>
      </trkpt>
      <trkpt lat="42.3414" lon="8.65986">
        <ele>233.698</ele>
        <time>2019-10-18T09:24:44.001Z</time>
      </trkpt>
      <trkpt lat="42.34061" lon="8.65928">
        <ele>232.221</ele>
        <time>2019-10-18T09:25:14.001Z</time>
      </trkpt>
      <trkpt lat="42.34088" lon="8.65726">
        <ele>226.98</ele>
        <time>2019-10-18T09:25:44.001Z</time>
      </trkpt>
      <trkpt lat="42.33971" lon="8.65623">
        <ele>228.082</ele>
        <time>2019-10-18T09:26:14.001Z</time>
      </trkpt>
      <trkpt lat="42.33902" lon="8.65465">
        <ele>235.648</ele>
        <time>2019-10-18T09:26:44.001Z</time>
      </trkpt>
      <trkpt lat="42.33806" lon="8.65365">
        <ele>240.26</ele>
        <time>2019-10-18T09:27:14.001Z</time>
      </trkpt>
      <trkpt lat="42.33769" lon="8.65206">
        <ele>241.154</ele>
        <time>2019-10-18T09:27:44.001Z</time>
      </trkpt>
      <trkpt lat="42.33654" lon="8.65144">
        <ele>242.984</ele>
        <time>2019-10-18T09:28:14.001Z</time>
      </trkpt>
      <trkpt lat="42.3354" lon="8.65095">
        <ele>245.443</ele>
        <time>2019-10-18T09:28:44.001Z</time>
      </trkpt>
      <trkpt lat="42.33545" lon="8.64935">
        <ele>243.603</ele>
        <time>2019-10-18T09:29:14.001Z</time>
      </trkpt>
      <trkpt lat="42.33624" lon="8.64811">
        <ele>243.708</ele>
        <time>2019-10-18T09:29:44.001Z</time>
      </trkpt>
      <trkpt lat="42.33588" lon="8.64646">
        <ele>245.319</ele>
        <time>2019-10-18T09:30:14.001Z</time>
      </trkpt>
      <trkpt lat="42.33542" lon="8.64503">
        <ele>249.638</ele>
        <time>2019-10-18T09:30:44.001Z</time>
      </trkpt>
      <trkpt lat="42.33443" lon="8.6439">
        <ele>252.389</ele>
        <time>2019-10-18T09:31:14.001Z</time>
      </trkpt>
      <trkpt lat="42.33442" lon="8.64253">
        <ele>257.333</ele>
        <time>2019-10-18T09:31:44.001Z</time>
      </trkpt>
      <trkpt lat="42.33503" lon="8.6412">
        <ele>253.168</ele>
        <time>2019-10-18T09:32:14.001Z</time>
      </trkpt>
      <trkpt lat="42.33427" lon="8.63985">
        <ele>249.672</ele>
        <time>2019-10-18T09:32:44.001Z</time>
      </trkpt>
      <trkpt lat="42.33457" lon="8.6382">
        <ele>253.179</ele>
        <time>2019-10-18T09:33:14.001Z</time>
      </trkpt>
      <trkpt lat="42.33514" lon="8.63671">
        <ele>255.063</ele>
        <time>2019-10-18T09:33:44.001Z</time>
      </trkpt>
      <trkpt lat="42.33487" lon="8.63618">
        <ele>258.326</ele>
        <time>2019-10-18T09:36:35.001Z</time>
      </trkpt>
      <trkpt lat="42.33415" lon="8.63681">
        <ele>254.699</ele>
        <time>2019-10-18T09:37:05.001Z</time>
      </trkpt>
      <trkpt lat="42.33294" lon="8.63751">
        <ele>252.056</ele>
        <time>2019-10-18T09:37:38.001Z</time>
      </trkpt>
      <trkpt lat="42.33185" lon="8.63784">
        <ele>256.785</ele>
        <time>2019-10-18T09:38:08.001Z</time>
      </trkpt>
      <trkpt lat="42.33102" lon="8.63652">
        <ele>260.229</ele>
        <time>2019-10-18T09:38:38.001Z</time>
      </trkpt>
      <trkpt lat="42.32979" lon="8.63702">
        <ele>261.371</ele>
        <time>2019-10-18T09:39:08.001Z</time>
      </trkpt>
      <trkpt lat="42.32878" lon="8.63627">
        <ele>263.306</ele>
        <time>2019-10-18T09:39:38.001Z</time>
      </trkpt>
      <trkpt lat="42.3279" lon="8.63521">
        <ele>265.918</ele>
        <time>2019-10-18T09:40:08.001Z</time>
      </trkpt>
      <trkpt lat="42.32725" lon="8.63375">
        <ele>265.424</ele>
        <time>2019-10-18T09:40:38.001Z</time>
      </trkpt>
      <trkpt lat="42.32671" lon="8.63236">
        <ele>266.15</ele>
        <time>2019-10-18T09:41:08.001Z</time>
      </trkpt>
      <trkpt lat="42.32607" lon="8.63415">
        <ele>264.014</ele>
        <time>2019-10-18T09:41:38.001Z</time>
      </trkpt>
      <trkpt lat="42.32492" lon="8.63561">
        <ele>264.115</ele>
        <time>2019-10-18T09:42:08.001Z</time>
      </trkpt>
      <trkpt lat="42.32459" lon="8.63776">
        <ele>266.139</ele>
        <time>2019-10-18T09:42:38.001Z</time>
      </trkpt>
      <trkpt lat="42.32341" lon="8.63924">
        <ele>264.589</ele>
        <time>2019-10-18T09:43:08.001Z</time>
      </trkpt>
      <trkpt lat="42.32387" lon="8.64074">
        <ele>265.639</ele>
        <time>2019-10-18T09:43:38.001Z</time>
      </trkpt>
      <trkpt lat="42.32306" lon="8.64182">
        <ele>265.027</ele>
        <time>2019-10-18T09:44:08.001Z</time>
      </trkpt>
      <trkpt lat="42.32198" lon="8.64271">
        <ele>263.427</ele>
        <time>2019-10-18T09:44:38.001Z</time>
      </trkpt>
      <trkpt lat="42.32307" lon="8.64438">
        <ele>265.897</ele>
        <time>2019-10-18T09:45:08.001Z</time>
      </trkpt>
      <trkpt lat="42.32409" lon="8.64611">
        <ele>263.847</ele>
        <time>2019-10-18T09:45:38.001Z</time>
      </trkpt>
      <trkpt lat="42.32286" lon="8.64741">
        <ele>263.31</ele>
        <time>2019-10-18T09:46:08.001Z</time>
      </trkpt>
      <trkpt lat="42.32136" lon="8.64765">
        <ele>265.23</ele>
        <time>2019-10-18T09:46:38.001Z</time>
      </trkpt>
      <trkpt lat="42.32091" lon="8.6494">
        <ele>266.606</ele>
        <time>2019-10-18T09:47:08.001Z</time>
      </trkpt>
      <trkpt lat="42.32121" lon="8.65119">
        <ele>267.471</ele>
        <time>2019-10-18T09:47:38.001Z</time>
      </trkpt>
      <trkpt lat="42.32046" lon="8.65257">
        <ele>270.449</ele>
        <time>2019-10-18T09:48:08.001Z</time>
      </trkpt>
      <trkpt lat="42.32135" lon="8.65358">
        <ele>272.886</ele>
        <time>2019-10-18T09:48:38.001Z</time>
      </trkpt>
      <trkpt lat="42.32283" lon="8.65372">
        <ele>273.469</ele>
        <time>2019-10-18T09:49:08.001Z</time>
      </trkpt>
      <trkpt lat="42.32427" lon="8.65399">
        <ele>268.704</ele>
        <time>2019-10-18T09:49:38.001Z</time>
      </trkpt>
      <trkpt lat="42.32543" lon="8.65402">
        <ele>271.62</ele>
        <time>2019-10-18T09:50:08.001Z</time>
      </trkpt>
      <trkpt lat="42.32625" lon="8.65528">
        <ele>272.146</ele>
        <time>2019-10-18T09:50:38.001Z</time>
      </trkpt>
      <trkpt lat="42.32702" lon="8.65653">
        <ele>275.693</ele>
        <time>2019-10-18T09:51:08.001Z</time>
      </trkpt>
      <trkpt lat="42.32732" lon="8.65765">
        <ele>275.49</ele>
        <time>2019-10-18T09:51:38.001Z</time>
      </trkpt>
      <trkpt lat="42.32614" lon="8.65754">
        <ele>278.532</ele>
        <time>2019-10-18T09:52:08.001Z</time>
      </trkpt>
      <trkpt lat="42.32498" lon="8.65729">
        <ele>279.892</ele>
        <time>2019-10-18T09:52:38.001Z</time>
      </trkpt>
      <trkpt lat="42.32436" lon="8.65853">
        <ele>278.617</ele>
        <time>2019-10-18T09:53:08.001Z</time>
      </trkpt>
      <trkpt lat="42.32437" lon="8.66041">
        <ele>279.343</ele>
        <time>2019-10-18T09:53:38.001Z</time>
      </trkpt>
      <trkpt lat="42.32296" lon="8.65994">
        <ele>279.746</ele>
        <time>2019-10-18T09:54:08.001Z</time>
      </trkpt>
      <trkpt lat="42.32156" lon="8.66018">
        <ele>277.509</ele>
        <time>2019-10-18T09:54:38.001Z</time>
      </trkpt>
      <trkpt lat="42.32082" lon="8.66184">
        <ele>278.83</ele>
        <time>2019-10-18T09:55:08.001Z</time>
      </trkpt>
      <trkpt lat="42.3193" lon="8.66223">
        <ele>279.86</ele>
        <time>2019-10-18T09:55:41.001Z</time>
      </trkpt>
      <trkpt lat="42.31813" lon="8.66177">
        <ele>280.486</ele>
        <time>2019-10-18T09:56:11.001Z</time>
      </trkpt>
      <trkpt lat="42.31694" lon="8.66086">
        <ele>282.354</ele>
        <time>2019-10-18T09:56:41.001Z</time>
      </trkpt>
      <trkpt lat="42.31632" lon="8.66146">
        <ele>281.835</ele>
        <time>2019-10-18T09:57:11.001Z</time>
      </trkpt>
      <trkpt lat="42.31711" lon="8.66465">
        <ele>272.827</ele>
        <time>2019-10-18T09:57:41.001Z</time>
      </trkpt>
      <trkpt lat="42.31806" lon="8.66747">
        <ele>262.23</ele>
        <time>2019-10-18T09:58:11.001Z</time>
      </trkpt>
      <trkpt lat="42.31995" lon="8.6673">
        <ele>248.394</ele>
        <time>2019-10-18T09:58:41.001Z</time>
      </trkpt>
      <trkpt lat="42.32121" lon="8.66838">
        <ele>243.008</ele>
        <time>2019-10-18T09:59:11.001Z</time>
      </trkpt>
      <trkpt lat="42.32035" lon="8.67043">
        <ele>240.976</ele>
        <time>2019-10-18T09:59:41.001Z</time>
      </trkpt>
      <trkpt lat="42.31886" lon="8.6716">
        <ele>235.648</ele>
        <time>2019-10-18T10:00:11.001Z</time>
      </trkpt>
      <trkpt lat="42.31679" lon="8.67265">
        <ele>227.521</ele>
        <time>2019-10-18T10:00:41.001Z</time>
      </trkpt>
      <trkpt lat="42.31836" lon="8.6755">
        <ele>215.375</ele>
        <time>2019-10-18T10:01:11.001Z</time>
      </trkpt>
      <trkpt lat="42.3188" lon="8.67799">
        <ele>205.992</ele>
        <time>2019-10-18T10:01:41.001Z</time>
      </trkpt>
      <trkpt lat="42.31729" lon="8.67702">
        <ele>210.829</ele>
        <time>2019-10-18T10:02:11.001Z</time>
      </trkpt>
      <trkpt lat="42.31582" lon="8.67645">
        <ele>214.416</ele>
        <time>2019-10-18T10:02:41.001Z</time>
      </trkpt>
      <trkpt lat="42.31527" lon="8.67728">
        <ele>211.622</ele>
        <time>2019-10-18T10:03:11.001Z</time>
      </trkpt>
      <trkpt lat="42.31591" lon="8.67916">
        <ele>209.538</ele>
        <time>2019-10-18T10:03:41.001Z</time>
      </trkpt>
      <trkpt lat="42.31667" lon="8.6809">
        <ele>208.734</ele>
        <time>2019-10-18T10:04:11.001Z</time>
      </trkpt>
      <trkpt lat="42.31502" lon="8.68122">
        <ele>211.211</ele>
        <time>2019-10-18T10:04:41.001Z</time>
      </trkpt>
      <trkpt lat="42.31405" lon="8.68294">
        <ele>210.077</ele>
        <time>2019-10-18T10:05:11.001Z</time>
      </trkpt>
      <trkpt lat="42.31274" lon="8.68239">
        <ele>217.221</ele>
        <time>2019-10-18T10:05:41.001Z</time>
      </trkpt>
      <trkpt lat="42.31169" lon="8.6814">
        <ele>217.553</ele>
        <time>2019-10-18T10:06:11.001Z</time>
      </trkpt>
      <trkpt lat="42.31088" lon="8.68244">
        <ele>212.475</ele>
        <time>2019-10-18T10:06:41.001Z</time>
      </trkpt>
      <trkpt lat="42.30941" lon="8.68295">
        <ele>209.819</ele>
        <time>2019-10-18T10:07:11.001Z</time>
      </trkpt>
      <trkpt lat="42.30827" lon="8.68148">
        <ele>209.27</ele>
        <time>2019-10-18T10:07:41.001Z</time>
      </trkpt>
      <trkpt lat="42.30682" lon="8.68134">
        <ele>206.498</ele>
        <time>2019-10-18T10:08:11.001Z</time>
      </trkpt>
      <trkpt lat="42.30548" lon="8.68166">
        <ele>205.476</ele>
        <time>2019-10-18T10:08:41.001Z</time>
      </trkpt>
      <trkpt lat="42.30523" lon="8.67957">
        <ele>208.993</ele>
        <time>2019-10-18T10:09:11.001Z</time>
      </trkpt>
      <trkpt lat="42.30377" lon="8.67879">
        <ele>205.988</ele>
        <time>2019-10-18T10:09:41.001Z</time>
      </trkpt>
      <trkpt lat="42.30327" lon="8.67667">
        <ele>206.068</ele>
        <time>2019-10-18T10:10:11.001Z</time>
      </trkpt>
      <trkpt lat="42.30284" lon="8.67418">
        <ele>205.763</ele>
        <time>2019-10-18T10:10:41.001Z</time>
      </trkpt>
      <trkpt lat="42.30183" lon="8.67414">
        <ele>197.937</ele>
        <time>2019-10-18T10:11:11.001Z</time>
      </trkpt>
      <trkpt lat="42.30068" lon="8.67603">
        <ele>197.176</ele>
        <time>2019-10-18T10:11:41.001Z</time>
      </trkpt>
      <trkpt lat="42.29888" lon="8.67603">
        <ele>190.795</ele>
        <time>2019-10-18T10:12:11.001Z</time>
      </trkpt>
      <trkpt lat="42.29716" lon="8.67687">
        <ele>184.211</ele>
        <time>2019-10-18T10:12:41.001Z</time>
      </trkpt>
      <trkpt lat="42.29537" lon="8.67753">
        <ele>176.169</ele>
        <time>2019-10-18T10:13:14.001Z</time>
      </trkpt>
      <trkpt lat="42.2958" lon="8.67985">
        <ele>171.832</ele>
        <time>2019-10-18T10:13:44.001Z</time>
      </trkpt>
      <trkpt lat="42.29454" lon="8.6801">
        <ele>171.521</ele>
        <time>2019-10-18T10:14:14.001Z</time>
      </trkpt>
      <trkpt lat="42.29343" lon="8.67939">
        <ele>174.8</ele>
        <time>2019-10-18T10:14:44.001Z</time>
      </trkpt>
      <trkpt lat="42.2922" lon="8.67877">
        <ele>179.593</ele>
        <time>2019-10-18T10:15:14.001Z</time>
      </trkpt>
      <trkpt lat="42.29138" lon="8.67873">
        <ele>183.465</ele>
        <time>2019-10-18T10:16:26.001Z</time>
      </trkpt>
      <trkpt lat="42.29097" lon="8.67906">
        <ele>180.912</ele>
        <time>2019-10-18T10:16:59.001Z</time>
      </trkpt>
      <trkpt lat="42.29067" lon="8.68022">
        <ele>176.79</ele>
        <time>2019-10-18T10:17:29.001Z</time>
      </trkpt>
      <trkpt lat="42.28975" lon="8.6806">
        <ele>179.05</ele>
        <time>2019-10-18T10:17:59.001Z</time>
      </trkpt>
      <trkpt lat="42.28894" lon="8.6814">
        <ele>181.176</ele>
        <time>2019-10-18T10:18:29.001Z</time>
      </trkpt>
      <trkpt lat="42.28957" lon="8.68285">
        <ele>182.238</ele>
        <time>2019-10-18T10:18:59.001Z</time>
      </trkpt>
      <trkpt lat="42.29039" lon="8.68592">
        <ele>168.89</ele>
        <time>2019-10-18T10:19:29.001Z</time>
      </trkpt>
      <trkpt lat="42.29193" lon="8.68637">
        <ele>148.673</ele>
        <time>2019-10-18T10:19:59.001Z</time>
      </trkpt>
      <trkpt lat="42.29398" lon="8.68561">
        <ele>136.318</ele>
        <time>2019-10-18T10:20:29.001Z</time>
      </trkpt>
      <trkpt lat="42.29469" lon="8.68665">
        <ele>118.328</ele>
        <time>2019-10-18T10:20:59.001Z</time>
      </trkpt>
      <trkpt lat="42.29366" lon="8.68934">
        <ele>102.694</ele>
        <time>2019-10-18T10:21:29.001Z</time>
      </trkpt>
      <trkpt lat="42.29271" lon="8.69159">
        <ele>91.577</ele>
        <time>2019-10-18T10:21:59.001Z</time>
      </trkpt>
      <trkpt lat="42.2909" lon="8.69422">
        <ele>76.739</ele>
        <time>2019-10-18T10:22:29.001Z</time>
      </trkpt>
      <trkpt lat="42.29181" lon="8.6977">
        <ele>52.795</ele>
        <time>2019-10-18T10:22:59.001Z</time>
      </trkpt>
      <trkpt lat="42.2949" lon="8.69785">
        <ele>33.621</ele>
        <time>2019-10-18T10:23:29.001Z</time>
      </trkpt>
      <trkpt lat="42.29706" lon="8.69883">
        <ele>23.687</ele>
        <time>2019-10-18T10:23:59.001Z</time>
      </trkpt>
      <trkpt lat="42.29583" lon="8.69985">
        <ele>20.477</ele>
        <time>2019-10-18T10:24:29.001Z</time>
      </trkpt>
      <trkpt lat="42.29477" lon="8.70093">
        <ele>25.409</ele>
        <time>2019-10-18T10:24:59.001Z</time>
      </trkpt>
      <trkpt lat="42.29382" lon="8.70113">
        <ele>31.339</ele>
        <time>2019-10-18T10:25:29.001Z</time>
      </trkpt>
      <trkpt lat="42.29279" lon="8.70061">
        <ele>31.573</ele>
        <time>2019-10-18T10:25:59.001Z</time>
      </trkpt>
      <trkpt lat="42.29167" lon="8.70021">
        <ele>34.107</ele>
        <time>2019-10-18T10:26:29.001Z</time>
      </trkpt>
      <trkpt lat="42.29075" lon="8.69982">
        <ele>37.285</ele>
        <time>2019-10-18T10:26:59.001Z</time>
      </trkpt>
      <trkpt lat="42.29018" lon="8.69948">
        <ele>38.302</ele>
        <time>2019-10-18T10:27:29.001Z</time>
      </trkpt>
      <trkpt lat="42.28971" lon="8.70021">
        <ele>42.64</ele>
        <time>2019-10-18T10:27:59.001Z</time>
      </trkpt>
      <trkpt lat="42.28912" lon="8.7">
        <ele>48.208</ele>
        <time>2019-10-18T10:28:29.001Z</time>
      </trkpt>
      <trkpt lat="42.28897" lon="8.69912">
        <ele>57.445</ele>
        <time>2019-10-18T10:28:59.001Z</time>
      </trkpt>
      <trkpt lat="42.28839" lon="8.69888">
        <ele>58.246</ele>
        <time>2019-10-18T10:29:29.001Z</time>
      </trkpt>
      <trkpt lat="42.28783" lon="8.6983">
        <ele>62.575</ele>
        <time>2019-10-18T10:29:59.001Z</time>
      </trkpt>
      <trkpt lat="42.28722" lon="8.69787">
        <ele>61.31</ele>
        <time>2019-10-18T10:30:29.001Z</time>
      </trkpt>
      <trkpt lat="42.28658" lon="8.69799">
        <ele>62.053</ele>
        <time>2019-10-18T10:30:59.001Z</time>
      </trkpt>
      <trkpt lat="42.28634" lon="8.69878">
        <ele>64.27</ele>
        <time>2019-10-18T10:31:29.001Z</time>
      </trkpt>
      <trkpt lat="42.286" lon="8.69968">
        <ele>70.395</ele>
        <time>2019-10-18T10:32:02Z</time>
      </trkpt>
      <trkpt lat="42.28541" lon="8.69964">
        <ele>79.667</ele>
        <time>2019-10-18T10:32:32.001Z</time>
      </trkpt>
      <trkpt lat="42.28479" lon="8.6995">
        <ele>84.435</ele>
        <time>2019-10-18T10:33:02Z</time>
      </trkpt>
      <trkpt lat="42.28459" lon="8.69893">
        <ele>95.662</ele>
        <time>2019-10-18T10:33:38.001Z</time>
      </trkpt>
      <trkpt lat="42.28473" lon="8.69818">
        <ele>103.46</ele>
        <time>2019-10-18T10:34:08.001Z</time>
      </trkpt>
      <trkpt lat="42.28481" lon="8.69722">
        <ele>101.745</ele>
        <time>2019-10-18T10:34:38.001Z</time>
      </trkpt>
      <trkpt lat="42.28456" lon="8.69623">
        <ele>101.259</ele>
        <time>2019-10-18T10:35:08.001Z</time>
      </trkpt>
      <trkpt lat="42.28398" lon="8.69543">
        <ele>94.803</ele>
        <time>2019-10-18T10:35:38.001Z</time>
      </trkpt>
      <trkpt lat="42.28336" lon="8.69612">
        <ele>89.803</ele>
        <time>2019-10-18T10:36:08.001Z</time>
      </trkpt>
      <trkpt lat="42.28281" lon="8.69667">
        <ele>96.025</ele>
        <time>2019-10-18T10:36:38.001Z</time>
      </trkpt>
      <trkpt lat="42.28222" lon="8.69706">
        <ele>100.362</ele>
        <time>2019-10-18T10:37:08.001Z</time>
      </trkpt>
      <trkpt lat="42.28166" lon="8.69694">
        <ele>109.99</ele>
        <time>2019-10-18T10:37:38.001Z</time>
      </trkpt>
      <trkpt lat="42.28136" lon="8.69614">
        <ele>123.702</ele>
        <time>2019-10-18T10:38:08.001Z</time>
      </trkpt>
      <trkpt lat="42.28095" lon="8.6955">
        <ele>128.492</ele>
        <time>2019-10-18T10:38:38.001Z</time>
      </trkpt>
      <trkpt lat="42.2805" lon="8.69489">
        <ele>129.283</ele>
        <time>2019-10-18T10:39:08.001Z</time>
      </trkpt>
      <trkpt lat="42.28003" lon="8.69428">
        <ele>129.395</ele>
        <time>2019-10-18T10:39:38.001Z</time>
      </trkpt>
      <trkpt lat="42.27953" lon="8.69391">
        <ele>130.062</ele>
        <time>2019-10-18T10:40:08.001Z</time>
      </trkpt>
      <trkpt lat="42.27933" lon="8.69316">
        <ele>136.97</ele>
        <time>2019-10-18T10:40:38.001Z</time>
      </trkpt>
      <trkpt lat="42.27917" lon="8.69231">
        <ele>138.984</ele>
        <time>2019-10-18T10:41:08.001Z</time>
      </trkpt>
      <trkpt lat="42.27863" lon="8.69231">
        <ele>134.877</ele>
        <time>2019-10-18T10:41:38.001Z</time>
      </trkpt>
      <trkpt lat="42.27811" lon="8.6931">
        <ele>139.122</ele>
        <time>2019-10-18T10:42:08.001Z</time>
      </trkpt>
      <trkpt lat="42.27732" lon="8.69332">
        <ele>146.986</ele>
        <time>2019-10-18T10:42:38.001Z</time>
      </trkpt>
      <trkpt lat="42.27652" lon="8.69241">
        <ele>146.703</ele>
        <time>2019-10-18T10:43:08.001Z</time>
      </trkpt>
      <trkpt lat="42.27568" lon="8.69208">
        <ele>143.434</ele>
        <time>2019-10-18T10:43:38.001Z</time>
      </trkpt>
      <trkpt lat="42.27491" lon="8.69164">
        <ele>145.093</ele>
        <time>2019-10-18T10:44:08.001Z</time>
      </trkpt>
      <trkpt lat="42.27425" lon="8.69164">
        <ele>145.985</ele>
        <time>2019-10-18T10:44:38.001Z</time>
      </trkpt>
      <trkpt lat="42.27333" lon="8.69189">
        <ele>145.41</ele>
        <time>2019-10-18T10:45:08.001Z</time>
      </trkpt>
      <trkpt lat="42.27224" lon="8.6929">
        <ele>144.685</ele>
        <time>2019-10-18T10:45:38.001Z</time>
      </trkpt>
      <trkpt lat="42.27187" lon="8.69369">
        <ele>143.811</ele>
        <time>2019-10-18T10:47:14.001Z</time>
      </trkpt>
      <trkpt lat="42.27014" lon="8.69474">
        <ele>132.553</ele>
        <time>2019-10-18T10:47:44.001Z</time>
      </trkpt>
      <trkpt lat="42.26868" lon="8.69821">
        <ele>114.196</ele>
        <time>2019-10-18T10:48:14.001Z</time>
      </trkpt>
      <trkpt lat="42.26791" lon="8.70204">
        <ele>84.748</ele>
        <time>2019-10-18T10:48:44.001Z</time>
      </trkpt>
      <trkpt lat="42.26663" lon="8.70508">
        <ele>64.293</ele>
        <time>2019-10-18T10:49:14.001Z</time>
      </trkpt>
      <trkpt lat="42.26622" lon="8.70579">
        <ele>58.201</ele>
        <time>2019-10-18T10:50:53.001Z</time>
      </trkpt>
      <trkpt lat="42.26488" lon="8.70748">
        <ele>59.69</ele>
        <time>2019-10-18T10:51:23.001Z</time>
      </trkpt>
      <trkpt lat="42.26404" lon="8.70888">
        <ele>43.383</ele>
        <time>2019-10-18T10:51:56.001Z</time>
      </trkpt>
      <trkpt lat="42.26432" lon="8.70715">
        <ele>39.382</ele>
        <time>2019-10-18T10:52:26.001Z</time>
      </trkpt>
      <trkpt lat="42.26529" lon="8.70585">
        <ele>39.879</ele>
        <time>2019-10-18T10:52:56.001Z</time>
      </trkpt>
      <trkpt lat="42.26601" lon="8.70439">
        <ele>39.419</ele>
        <time>2019-10-18T10:53:26.001Z</time>
      </trkpt>
      <trkpt lat="42.26604" lon="8.70428">
        <ele>41.532</ele>
        <time>2019-10-18T10:55:17.001Z</time>
      </trkpt>
      <trkpt lat="42.2663" lon="8.70267">
        <ele>43.722</ele>
        <time>2019-10-18T10:55:47.001Z</time>
      </trkpt>
      <trkpt lat="42.26657" lon="8.7007">
        <ele>41.553</ele>
        <time>2019-10-18T10:56:17.001Z</time>
      </trkpt>
      <trkpt lat="42.26711" lon="8.69863">
        <ele>35.241</ele>
        <time>2019-10-18T10:56:47.001Z</time>
      </trkpt>
      <trkpt lat="42.26742" lon="8.69689">
        <ele>26.577</ele>
        <time>2019-10-18T10:57:17.001Z</time>
      </trkpt>
      <trkpt lat="42.26755" lon="8.69451">
        <ele>19.165</ele>
        <time>2019-10-18T10:57:47.001Z</time>
      </trkpt>
      <trkpt lat="42.26782" lon="8.69392">
        <ele>16.198</ele>
        <time>2019-10-18T10:58:17.001Z</time>
      </trkpt>
      <trkpt lat="42.26743" lon="8.69333">
        <ele>19.852</ele>
        <time>2019-10-18T11:02:08.001Z</time>
      </trkpt>
      <trkpt lat="42.26723" lon="8.69351">
        <ele>21.531</ele>
        <time>2019-10-18T11:03:05.001Z</time>
      </trkpt>
      <trkpt lat="42.26722" lon="8.69354">
        <ele>33.449</ele>
        <time>2019-10-18T11:05:14.001Z</time>
      </trkpt>
      <trkpt lat="42.26725" lon="8.69347">
        <ele>35.77</ele>
        <time>2019-10-18T11:06:02Z</time>
      </trkpt>
      <trkpt lat="42.26699" lon="8.69381">
        <ele>84.24</ele>
        <time>2019-10-18T11:10:37.001Z</time>
      </trkpt>
      <trkpt lat="42.26705" lon="8.69358">
        <ele>53.076</ele>
        <time>2019-10-18T11:11:13.001Z</time>
      </trkpt>
      <trkpt lat="42.2673" lon="8.69369">
        <ele>17.882</ele>
        <time>2019-10-18T11:14:39.001Z</time>
      </trkpt>
    </trkseg>
  </trk>
  <trk>
    <name><![CDATA[Tracé 20191019-101349]]></name>
    <trkseg>
      <trkpt lat="42.26832" lon="8.69383">
        <ele>6.432</ele>
        <time>2019-10-19T08:15:16Z</time>
      </trkpt>
      <trkpt lat="42.26766" lon="8.69417">
        <ele>16.824</ele>
        <time>2019-10-19T08:25:19Z</time>
      </trkpt>
      <trkpt lat="42.26736" lon="8.69506">
        <ele>27.536</ele>
        <time>2019-10-19T08:25:49Z</time>
      </trkpt>
      <trkpt lat="42.26742" lon="8.6961">
        <ele>25.461</ele>
        <time>2019-10-19T08:26:19Z</time>
      </trkpt>
      <trkpt lat="42.26737" lon="8.69729">
        <ele>24.82</ele>
        <time>2019-10-19T08:26:49Z</time>
      </trkpt>
      <trkpt lat="42.2671" lon="8.69848">
        <ele>22.328</ele>
        <time>2019-10-19T08:27:19Z</time>
      </trkpt>
      <trkpt lat="42.26692" lon="8.69991">
        <ele>21.151</ele>
        <time>2019-10-19T08:27:52Z</time>
      </trkpt>
      <trkpt lat="42.26634" lon="8.70077">
        <ele>21.688</ele>
        <time>2019-10-19T08:28:22Z</time>
      </trkpt>
      <trkpt lat="42.26622" lon="8.70222">
        <ele>24.193</ele>
        <time>2019-10-19T08:28:52Z</time>
      </trkpt>
      <trkpt lat="42.26608" lon="8.70353">
        <ele>30.144</ele>
        <time>2019-10-19T08:29:22Z</time>
      </trkpt>
      <trkpt lat="42.2658" lon="8.70488">
        <ele>40.765</ele>
        <time>2019-10-19T08:29:52Z</time>
      </trkpt>
      <trkpt lat="42.26515" lon="8.70606">
        <ele>42.588</ele>
        <time>2019-10-19T08:30:22Z</time>
      </trkpt>
      <trkpt lat="42.2644" lon="8.70702">
        <ele>40.093</ele>
        <time>2019-10-19T08:30:52Z</time>
      </trkpt>
      <trkpt lat="42.26385" lon="8.70817">
        <ele>41.896</ele>
        <time>2019-10-19T08:31:22Z</time>
      </trkpt>
      <trkpt lat="42.26417" lon="8.70901">
        <ele>40.549</ele>
        <time>2019-10-19T08:36:40Z</time>
      </trkpt>
      <trkpt lat="42.26354" lon="8.70951">
        <ele>39.371</ele>
        <time>2019-10-19T08:37:10Z</time>
      </trkpt>
      <trkpt lat="42.26345" lon="8.7093">
        <ele>38.381</ele>
        <time>2019-10-19T08:49:43Z</time>
      </trkpt>
      <trkpt lat="42.26176" lon="8.70924">
        <ele>25.889</ele>
        <time>2019-10-19T08:50:13Z</time>
      </trkpt>
      <trkpt lat="42.26244" lon="8.70828">
        <ele>21.191</ele>
        <time>2019-10-19T08:50:43Z</time>
      </trkpt>
      <trkpt lat="42.26181" lon="8.70785">
        <ele>27.551</ele>
        <time>2019-10-19T08:51:16Z</time>
      </trkpt>
      <trkpt lat="42.26225" lon="8.70719">
        <ele>34.56</ele>
        <time>2019-10-19T08:51:46Z</time>
      </trkpt>
      <trkpt lat="42.2627" lon="8.70639">
        <ele>37.874</ele>
        <time>2019-10-19T08:52:16Z</time>
      </trkpt>
      <trkpt lat="42.26303" lon="8.7054">
        <ele>42.751</ele>
        <time>2019-10-19T08:52:46Z</time>
      </trkpt>
      <trkpt lat="42.26327" lon="8.70437">
        <ele>50.072</ele>
        <time>2019-10-19T08:53:16Z</time>
      </trkpt>
      <trkpt lat="42.26259" lon="8.70385">
        <ele>51.735</ele>
        <time>2019-10-19T08:53:46Z</time>
      </trkpt>
      <trkpt lat="42.26236" lon="8.70311">
        <ele>57.988</ele>
        <time>2019-10-19T08:54:16Z</time>
      </trkpt>
      <trkpt lat="42.26263" lon="8.70216">
        <ele>72.475</ele>
        <time>2019-10-19T08:54:46Z</time>
      </trkpt>
      <trkpt lat="42.26249" lon="8.70114">
        <ele>65.672</ele>
        <time>2019-10-19T08:55:16Z</time>
      </trkpt>
      <trkpt lat="42.26259" lon="8.70015">
        <ele>78.826</ele>
        <time>2019-10-19T08:55:46Z</time>
      </trkpt>
      <trkpt lat="42.26257" lon="8.69909">
        <ele>83.576</ele>
        <time>2019-10-19T08:56:16Z</time>
      </trkpt>
      <trkpt lat="42.26254" lon="8.69813">
        <ele>87.686</ele>
        <time>2019-10-19T08:56:46Z</time>
      </trkpt>
      <trkpt lat="42.26268" lon="8.69711">
        <ele>97.207</ele>
        <time>2019-10-19T08:57:16Z</time>
      </trkpt>
      <trkpt lat="42.2626" lon="8.696">
        <ele>85.843</ele>
        <time>2019-10-19T08:57:49Z</time>
      </trkpt>
      <trkpt lat="42.26221" lon="8.69521">
        <ele>84.875</ele>
        <time>2019-10-19T08:58:19Z</time>
      </trkpt>
      <trkpt lat="42.26251" lon="8.69454">
        <ele>90.116</ele>
        <time>2019-10-19T08:58:49Z</time>
      </trkpt>
      <trkpt lat="42.26265" lon="8.69361">
        <ele>75.766</ele>
        <time>2019-10-19T08:59:19Z</time>
      </trkpt>
      <trkpt lat="42.26269" lon="8.6927">
        <ele>93.783</ele>
        <time>2019-10-19T08:59:49Z</time>
      </trkpt>
      <trkpt lat="42.26297" lon="8.6917">
        <ele>97.688</ele>
        <time>2019-10-19T09:00:19Z</time>
      </trkpt>
      <trkpt lat="42.26283" lon="8.69071">
        <ele>100.771</ele>
        <time>2019-10-19T09:00:49Z</time>
      </trkpt>
      <trkpt lat="42.26208" lon="8.69038">
        <ele>97.019</ele>
        <time>2019-10-19T09:01:19Z</time>
      </trkpt>
      <trkpt lat="42.26131" lon="8.69062">
        <ele>99.278</ele>
        <time>2019-10-19T09:01:49Z</time>
      </trkpt>
      <trkpt lat="42.26079" lon="8.68985">
        <ele>106.972</ele>
        <time>2019-10-19T09:02:19Z</time>
      </trkpt>
      <trkpt lat="42.26022" lon="8.68908">
        <ele>107.798</ele>
        <time>2019-10-19T09:02:49Z</time>
      </trkpt>
      <trkpt lat="42.26037" lon="8.68833">
        <ele>108.194</ele>
        <time>2019-10-19T09:03:19Z</time>
      </trkpt>
      <trkpt lat="42.26085" lon="8.68773">
        <ele>109.823</ele>
        <time>2019-10-19T09:03:49Z</time>
      </trkpt>
      <trkpt lat="42.26093" lon="8.68686">
        <ele>120.821</ele>
        <time>2019-10-19T09:04:22Z</time>
      </trkpt>
      <trkpt lat="42.26108" lon="8.68577">
        <ele>126.203</ele>
        <time>2019-10-19T09:04:52Z</time>
      </trkpt>
      <trkpt lat="42.26118" lon="8.68462">
        <ele>129.279</ele>
        <time>2019-10-19T09:05:22Z</time>
      </trkpt>
      <trkpt lat="42.26106" lon="8.68345">
        <ele>125.305</ele>
        <time>2019-10-19T09:05:52Z</time>
      </trkpt>
      <trkpt lat="42.26094" lon="8.68233">
        <ele>130</ele>
        <time>2019-10-19T09:06:22Z</time>
      </trkpt>
      <trkpt lat="42.26048" lon="8.68167">
        <ele>132.966</ele>
        <time>2019-10-19T09:06:52Z</time>
      </trkpt>
      <trkpt lat="42.26029" lon="8.6807">
        <ele>137.234</ele>
        <time>2019-10-19T09:07:22Z</time>
      </trkpt>
      <trkpt lat="42.25988" lon="8.68004">
        <ele>141.914</ele>
        <time>2019-10-19T09:07:52Z</time>
      </trkpt>
      <trkpt lat="42.25954" lon="8.67929">
        <ele>143.738</ele>
        <time>2019-10-19T09:08:22Z</time>
      </trkpt>
      <trkpt lat="42.25927" lon="8.67848">
        <ele>153.391</ele>
        <time>2019-10-19T09:08:52Z</time>
      </trkpt>
      <trkpt lat="42.2591" lon="8.67759">
        <ele>157.386</ele>
        <time>2019-10-19T09:09:22Z</time>
      </trkpt>
      <trkpt lat="42.25881" lon="8.67684">
        <ele>156.482</ele>
        <time>2019-10-19T09:09:52Z</time>
      </trkpt>
      <trkpt lat="42.25812" lon="8.67691">
        <ele>158.815</ele>
        <time>2019-10-19T09:10:25Z</time>
      </trkpt>
      <trkpt lat="42.2575" lon="8.67693">
        <ele>157.825</ele>
        <time>2019-10-19T09:10:55Z</time>
      </trkpt>
      <trkpt lat="42.25752" lon="8.67619">
        <ele>170.972</ele>
        <time>2019-10-19T09:11:28Z</time>
      </trkpt>
      <trkpt lat="42.25793" lon="8.67561">
        <ele>176.882</ele>
        <time>2019-10-19T09:11:58Z</time>
      </trkpt>
      <trkpt lat="42.25822" lon="8.67488">
        <ele>175.857</ele>
        <time>2019-10-19T09:12:28Z</time>
      </trkpt>
      <trkpt lat="42.25826" lon="8.67405">
        <ele>180.454</ele>
        <time>2019-10-19T09:12:58Z</time>
      </trkpt>
      <trkpt lat="42.2578" lon="8.67354">
        <ele>180.639</ele>
        <time>2019-10-19T09:13:28Z</time>
      </trkpt>
      <trkpt lat="42.25725" lon="8.67307">
        <ele>182.171</ele>
        <time>2019-10-19T09:13:58Z</time>
      </trkpt>
      <trkpt lat="42.25691" lon="8.67251">
        <ele>188.468</ele>
        <time>2019-10-19T09:14:28Z</time>
      </trkpt>
      <trkpt lat="42.25631" lon="8.67219">
        <ele>193.017</ele>
        <time>2019-10-19T09:14:58Z</time>
      </trkpt>
      <trkpt lat="42.25574" lon="8.6718">
        <ele>192.753</ele>
        <time>2019-10-19T09:15:31Z</time>
      </trkpt>
      <trkpt lat="42.25519" lon="8.67225">
        <ele>193.477</ele>
        <time>2019-10-19T09:16:01Z</time>
      </trkpt>
      <trkpt lat="42.25491" lon="8.67192">
        <ele>204.698</ele>
        <time>2019-10-19T09:16:34Z</time>
      </trkpt>
      <trkpt lat="42.25481" lon="8.67141">
        <ele>205.003</ele>
        <time>2019-10-19T09:21:46Z</time>
      </trkpt>
      <trkpt lat="42.25513" lon="8.67071">
        <ele>205.366</ele>
        <time>2019-10-19T09:22:19Z</time>
      </trkpt>
      <trkpt lat="42.25554" lon="8.67014">
        <ele>204.63</ele>
        <time>2019-10-19T09:22:52Z</time>
      </trkpt>
      <trkpt lat="42.25604" lon="8.66984">
        <ele>209.933</ele>
        <time>2019-10-19T09:23:34Z</time>
      </trkpt>
      <trkpt lat="42.25658" lon="8.66986">
        <ele>220.065</ele>
        <time>2019-10-19T09:24:04Z</time>
      </trkpt>
      <trkpt lat="42.2571" lon="8.66964">
        <ele>220.717</ele>
        <time>2019-10-19T09:24:37Z</time>
      </trkpt>
      <trkpt lat="42.25752" lon="8.66909">
        <ele>234.599</ele>
        <time>2019-10-19T09:25:10Z</time>
      </trkpt>
      <trkpt lat="42.25714" lon="8.66869">
        <ele>238.109</ele>
        <time>2019-10-19T09:25:43Z</time>
      </trkpt>
      <trkpt lat="42.25669" lon="8.66835">
        <ele>244.714</ele>
        <time>2019-10-19T09:26:13Z</time>
      </trkpt>
      <trkpt lat="42.25628" lon="8.66784">
        <ele>254.339</ele>
        <time>2019-10-19T09:26:46Z</time>
      </trkpt>
      <trkpt lat="42.25606" lon="8.66723">
        <ele>259.174</ele>
        <time>2019-10-19T09:27:16Z</time>
      </trkpt>
      <trkpt lat="42.25581" lon="8.66661">
        <ele>265.555</ele>
        <time>2019-10-19T09:27:49Z</time>
      </trkpt>
      <trkpt lat="42.25545" lon="8.66602">
        <ele>262.645</ele>
        <time>2019-10-19T09:28:22Z</time>
      </trkpt>
      <trkpt lat="42.2548" lon="8.66596">
        <ele>266.435</ele>
        <time>2019-10-19T09:29:04Z</time>
      </trkpt>
      <trkpt lat="42.25452" lon="8.6653">
        <ele>275.494</ele>
        <time>2019-10-19T09:29:43Z</time>
      </trkpt>
      <trkpt lat="42.25452" lon="8.66452">
        <ele>283.828</ele>
        <time>2019-10-19T09:30:19Z</time>
      </trkpt>
      <trkpt lat="42.25448" lon="8.66374">
        <ele>286.117</ele>
        <time>2019-10-19T09:30:58Z</time>
      </trkpt>
      <trkpt lat="42.25442" lon="8.66324">
        <ele>289.834</ele>
        <time>2019-10-19T09:31:28Z</time>
      </trkpt>
      <trkpt lat="42.2543" lon="8.66394">
        <ele>290.532</ele>
        <time>2019-10-19T09:32:01Z</time>
      </trkpt>
      <trkpt lat="42.25422" lon="8.66472">
        <ele>294.573</ele>
        <time>2019-10-19T09:32:31Z</time>
      </trkpt>
      <trkpt lat="42.25422" lon="8.66558">
        <ele>295.869</ele>
        <time>2019-10-19T09:33:01Z</time>
      </trkpt>
      <trkpt lat="42.25432" lon="8.66632">
        <ele>299.252</ele>
        <time>2019-10-19T09:33:31Z</time>
      </trkpt>
      <trkpt lat="42.25425" lon="8.66721">
        <ele>298.601</ele>
        <time>2019-10-19T09:34:07Z</time>
      </trkpt>
      <trkpt lat="42.25376" lon="8.66783">
        <ele>304.091</ele>
        <time>2019-10-19T09:34:40Z</time>
      </trkpt>
      <trkpt lat="42.25359" lon="8.66849">
        <ele>307.688</ele>
        <time>2019-10-19T09:35:10Z</time>
      </trkpt>
      <trkpt lat="42.25376" lon="8.6692">
        <ele>312.069</ele>
        <time>2019-10-19T09:35:40Z</time>
      </trkpt>
      <trkpt lat="42.25334" lon="8.66895">
        <ele>315.832</ele>
        <time>2019-10-19T09:36:13Z</time>
      </trkpt>
      <trkpt lat="42.25323" lon="8.66805">
        <ele>330.306</ele>
        <time>2019-10-19T09:36:58Z</time>
      </trkpt>
      <trkpt lat="42.25342" lon="8.66726">
        <ele>337.584</ele>
        <time>2019-10-19T09:37:34Z</time>
      </trkpt>
      <trkpt lat="42.25354" lon="8.66655">
        <ele>335.672</ele>
        <time>2019-10-19T09:38:04Z</time>
      </trkpt>
      <trkpt lat="42.25357" lon="8.66564">
        <ele>345.538</ele>
        <time>2019-10-19T09:38:46Z</time>
      </trkpt>
      <trkpt lat="42.25353" lon="8.66485">
        <ele>353.069</ele>
        <time>2019-10-19T09:39:22Z</time>
      </trkpt>
      <trkpt lat="42.25342" lon="8.66419">
        <ele>355.75</ele>
        <time>2019-10-19T09:39:52Z</time>
      </trkpt>
      <trkpt lat="42.25308" lon="8.66357">
        <ele>355.811</ele>
        <time>2019-10-19T09:40:25Z</time>
      </trkpt>
      <trkpt lat="42.25278" lon="8.66288">
        <ele>359.173</ele>
        <time>2019-10-19T09:41:01Z</time>
      </trkpt>
      <trkpt lat="42.25258" lon="8.6622">
        <ele>366.45</ele>
        <time>2019-10-19T09:41:34Z</time>
      </trkpt>
      <trkpt lat="42.25244" lon="8.66143">
        <ele>371.692</ele>
        <time>2019-10-19T09:42:10Z</time>
      </trkpt>
      <trkpt lat="42.25257" lon="8.66077">
        <ele>378.388</ele>
        <time>2019-10-19T09:42:43Z</time>
      </trkpt>
      <trkpt lat="42.25281" lon="8.65988">
        <ele>383.381</ele>
        <time>2019-10-19T09:43:28Z</time>
      </trkpt>
      <trkpt lat="42.25276" lon="8.65911">
        <ele>389.561</ele>
        <time>2019-10-19T09:44:10Z</time>
      </trkpt>
      <trkpt lat="42.25277" lon="8.65837">
        <ele>396.793</ele>
        <time>2019-10-19T09:44:46Z</time>
      </trkpt>
      <trkpt lat="42.25283" lon="8.65775">
        <ele>399.638</ele>
        <time>2019-10-19T09:50:43Z</time>
      </trkpt>
      <trkpt lat="42.25256" lon="8.65752">
        <ele>399.482</ele>
        <time>2019-10-19T09:51:31Z</time>
      </trkpt>
      <trkpt lat="42.25227" lon="8.6582">
        <ele>395.472</ele>
        <time>2019-10-19T09:52:07Z</time>
      </trkpt>
      <trkpt lat="42.25174" lon="8.65881">
        <ele>402.792</ele>
        <time>2019-10-19T09:52:49Z</time>
      </trkpt>
      <trkpt lat="42.25119" lon="8.65894">
        <ele>406.695</ele>
        <time>2019-10-19T09:53:22Z</time>
      </trkpt>
      <trkpt lat="42.25063" lon="8.65873">
        <ele>409.486</ele>
        <time>2019-10-19T09:53:52Z</time>
      </trkpt>
      <trkpt lat="42.25017" lon="8.65883">
        <ele>413.328</ele>
        <time>2019-10-19T09:54:22Z</time>
      </trkpt>
      <trkpt lat="42.24972" lon="8.65938">
        <ele>422.055</ele>
        <time>2019-10-19T09:54:55Z</time>
      </trkpt>
      <trkpt lat="42.24946" lon="8.66007">
        <ele>426.858</ele>
        <time>2019-10-19T09:55:25Z</time>
      </trkpt>
      <trkpt lat="42.24895" lon="8.66063">
        <ele>435.332</ele>
        <time>2019-10-19T09:56:07Z</time>
      </trkpt>
      <trkpt lat="42.24846" lon="8.66007">
        <ele>436.866</ele>
        <time>2019-10-19T09:56:40Z</time>
      </trkpt>
      <trkpt lat="42.24817" lon="8.65951">
        <ele>432.586</ele>
        <time>2019-10-19T09:57:10Z</time>
      </trkpt>
      <trkpt lat="42.24799" lon="8.65884">
        <ele>434.899</ele>
        <time>2019-10-19T09:57:40Z</time>
      </trkpt>
      <trkpt lat="42.24775" lon="8.65813">
        <ele>439.161</ele>
        <time>2019-10-19T09:58:10Z</time>
      </trkpt>
      <trkpt lat="42.24782" lon="8.65726">
        <ele>440.376</ele>
        <time>2019-10-19T09:58:46Z</time>
      </trkpt>
      <trkpt lat="42.24741" lon="8.65676">
        <ele>441.876</ele>
        <time>2019-10-19T09:59:16Z</time>
      </trkpt>
      <trkpt lat="42.24761" lon="8.65609">
        <ele>437.871</ele>
        <time>2019-10-19T09:59:52Z</time>
      </trkpt>
      <trkpt lat="42.24771" lon="8.6554">
        <ele>438.413</ele>
        <time>2019-10-19T10:00:22Z</time>
      </trkpt>
      <trkpt lat="42.24751" lon="8.65462">
        <ele>451.089</ele>
        <time>2019-10-19T10:00:52Z</time>
      </trkpt>
      <trkpt lat="42.24712" lon="8.6546">
        <ele>452.704</ele>
        <time>2019-10-19T10:04:01Z</time>
      </trkpt>
      <trkpt lat="42.2457" lon="8.65407">
        <ele>448.129</ele>
        <time>2019-10-19T10:04:31Z</time>
      </trkpt>
      <trkpt lat="42.24455" lon="8.65364">
        <ele>448.014</ele>
        <time>2019-10-19T10:05:04Z</time>
      </trkpt>
      <trkpt lat="42.24394" lon="8.65369">
        <ele>452.161</ele>
        <time>2019-10-19T10:05:37Z</time>
      </trkpt>
      <trkpt lat="42.2433" lon="8.65405">
        <ele>456.063</ele>
        <time>2019-10-19T10:06:13Z</time>
      </trkpt>
      <trkpt lat="42.24284" lon="8.6542">
        <ele>457.04</ele>
        <time>2019-10-19T10:06:43Z</time>
      </trkpt>
      <trkpt lat="42.24274" lon="8.65341">
        <ele>462.544</ele>
        <time>2019-10-19T10:07:13Z</time>
      </trkpt>
      <trkpt lat="42.24248" lon="8.65289">
        <ele>461.222</ele>
        <time>2019-10-19T10:07:43Z</time>
      </trkpt>
      <trkpt lat="42.24209" lon="8.65342">
        <ele>466.317</ele>
        <time>2019-10-19T10:08:13Z</time>
      </trkpt>
      <trkpt lat="42.24164" lon="8.6529">
        <ele>469.565</ele>
        <time>2019-10-19T10:08:46Z</time>
      </trkpt>
      <trkpt lat="42.24118" lon="8.65247">
        <ele>470.83</ele>
        <time>2019-10-19T10:09:19Z</time>
      </trkpt>
      <trkpt lat="42.24012" lon="8.6524">
        <ele>467.204</ele>
        <time>2019-10-19T10:09:49Z</time>
      </trkpt>
      <trkpt lat="42.23918" lon="8.65213">
        <ele>467.238</ele>
        <time>2019-10-19T10:10:19Z</time>
      </trkpt>
      <trkpt lat="42.23994" lon="8.65052">
        <ele>464.509</ele>
        <time>2019-10-19T10:10:49Z</time>
      </trkpt>
      <trkpt lat="42.24021" lon="8.64831">
        <ele>459.861</ele>
        <time>2019-10-19T10:11:19Z</time>
      </trkpt>
      <trkpt lat="42.24049" lon="8.64615">
        <ele>458.437</ele>
        <time>2019-10-19T10:11:49Z</time>
      </trkpt>
      <trkpt lat="42.24045" lon="8.64368">
        <ele>453.626</ele>
        <time>2019-10-19T10:12:19Z</time>
      </trkpt>
      <trkpt lat="42.23963" lon="8.6413">
        <ele>448.311</ele>
        <time>2019-10-19T10:12:52Z</time>
      </trkpt>
      <trkpt lat="42.23847" lon="8.63962">
        <ele>442.493</ele>
        <time>2019-10-19T10:13:22Z</time>
      </trkpt>
      <trkpt lat="42.23788" lon="8.63816">
        <ele>440.495</ele>
        <time>2019-10-19T10:13:52Z</time>
      </trkpt>
      <trkpt lat="42.23828" lon="8.6368">
        <ele>443.73</ele>
        <time>2019-10-19T10:14:22Z</time>
      </trkpt>
      <trkpt lat="42.23835" lon="8.63666">
        <ele>441.384</ele>
        <time>2019-10-19T10:15:46Z</time>
      </trkpt>
      <trkpt lat="42.23773" lon="8.63656">
        <ele>444.504</ele>
        <time>2019-10-19T10:16:16Z</time>
      </trkpt>
      <trkpt lat="42.23773" lon="8.6367">
        <ele>448.955</ele>
        <time>2019-10-19T10:17:16Z</time>
      </trkpt>
      <trkpt lat="42.23748" lon="8.63643">
        <ele>453.519</ele>
        <time>2019-10-19T10:21:52Z</time>
      </trkpt>
      <trkpt lat="42.23722" lon="8.63566">
        <ele>455.126</ele>
        <time>2019-10-19T10:22:28Z</time>
      </trkpt>
      <trkpt lat="42.23735" lon="8.63489">
        <ele>460.623</ele>
        <time>2019-10-19T10:23:04Z</time>
      </trkpt>
      <trkpt lat="42.23783" lon="8.63442">
        <ele>465.489</ele>
        <time>2019-10-19T10:23:37Z</time>
      </trkpt>
      <trkpt lat="42.23808" lon="8.63372">
        <ele>462.609</ele>
        <time>2019-10-19T10:24:07Z</time>
      </trkpt>
      <trkpt lat="42.23781" lon="8.63302">
        <ele>470.08</ele>
        <time>2019-10-19T10:24:43Z</time>
      </trkpt>
      <trkpt lat="42.23738" lon="8.63252">
        <ele>474.799</ele>
        <time>2019-10-19T10:25:13Z</time>
      </trkpt>
      <trkpt lat="42.23723" lon="8.63186">
        <ele>475.155</ele>
        <time>2019-10-19T10:25:43Z</time>
      </trkpt>
      <trkpt lat="42.23702" lon="8.63116">
        <ele>478.68</ele>
        <time>2019-10-19T10:26:13Z</time>
      </trkpt>
      <trkpt lat="42.23662" lon="8.63065">
        <ele>484.426</ele>
        <time>2019-10-19T10:26:46Z</time>
      </trkpt>
      <trkpt lat="42.23616" lon="8.63013">
        <ele>492.699</ele>
        <time>2019-10-19T10:27:22Z</time>
      </trkpt>
      <trkpt lat="42.23562" lon="8.62951">
        <ele>499.338</ele>
        <time>2019-10-19T10:27:58Z</time>
      </trkpt>
      <trkpt lat="42.23373" lon="8.62812">
        <ele>480.93</ele>
        <time>2019-10-19T10:28:28Z</time>
      </trkpt>
      <trkpt lat="42.23088" lon="8.62819">
        <ele>462.458</ele>
        <time>2019-10-19T10:28:58Z</time>
      </trkpt>
      <trkpt lat="42.22943" lon="8.63045">
        <ele>455.29</ele>
        <time>2019-10-19T10:29:28Z</time>
      </trkpt>
      <trkpt lat="42.22781" lon="8.63069">
        <ele>454.515</ele>
        <time>2019-10-19T10:29:58Z</time>
      </trkpt>
      <trkpt lat="42.22599" lon="8.63074">
        <ele>454.193</ele>
        <time>2019-10-19T10:30:28Z</time>
      </trkpt>
      <trkpt lat="42.2243" lon="8.63096">
        <ele>450.094</ele>
        <time>2019-10-19T10:30:58Z</time>
      </trkpt>
      <trkpt lat="42.22282" lon="8.63247">
        <ele>449.053</ele>
        <time>2019-10-19T10:31:31Z</time>
      </trkpt>
      <trkpt lat="42.22181" lon="8.63417">
        <ele>442.277</ele>
        <time>2019-10-19T10:32:01Z</time>
      </trkpt>
      <trkpt lat="42.22215" lon="8.6362">
        <ele>442.365</ele>
        <time>2019-10-19T10:32:31Z</time>
      </trkpt>
      <trkpt lat="42.2227" lon="8.63832">
        <ele>441.568</ele>
        <time>2019-10-19T10:33:01Z</time>
      </trkpt>
      <trkpt lat="42.22138" lon="8.63962">
        <ele>435.636</ele>
        <time>2019-10-19T10:33:31Z</time>
      </trkpt>
      <trkpt lat="42.21979" lon="8.64116">
        <ele>430.978</ele>
        <time>2019-10-19T10:34:01Z</time>
      </trkpt>
      <trkpt lat="42.21853" lon="8.64277">
        <ele>427.889</ele>
        <time>2019-10-19T10:34:31Z</time>
      </trkpt>
      <trkpt lat="42.21712" lon="8.64282">
        <ele>426.581</ele>
        <time>2019-10-19T10:35:01Z</time>
      </trkpt>
      <trkpt lat="42.21518" lon="8.64357">
        <ele>422.011</ele>
        <time>2019-10-19T10:35:31Z</time>
      </trkpt>
      <trkpt lat="42.21419" lon="8.64707">
        <ele>405.765</ele>
        <time>2019-10-19T10:36:01Z</time>
      </trkpt>
      <trkpt lat="42.21282" lon="8.65021">
        <ele>381.58</ele>
        <time>2019-10-19T10:36:31Z</time>
      </trkpt>
      <trkpt lat="42.21224" lon="8.65479">
        <ele>360.862</ele>
        <time>2019-10-19T10:37:01Z</time>
      </trkpt>
      <trkpt lat="42.21065" lon="8.65594">
        <ele>337.815</ele>
        <time>2019-10-19T10:37:31Z</time>
      </trkpt>
      <trkpt lat="42.20873" lon="8.65248">
        <ele>313.943</ele>
        <time>2019-10-19T10:38:04Z</time>
      </trkpt>
      <trkpt lat="42.20745" lon="8.64825">
        <ele>291.107</ele>
        <time>2019-10-19T10:38:34Z</time>
      </trkpt>
      <trkpt lat="42.20684" lon="8.6452">
        <ele>272.068</ele>
        <time>2019-10-19T10:39:04Z</time>
      </trkpt>
      <trkpt lat="42.20431" lon="8.64316">
        <ele>256.418</ele>
        <time>2019-10-19T10:39:34Z</time>
      </trkpt>
      <trkpt lat="42.20279" lon="8.64119">
        <ele>239.884</ele>
        <time>2019-10-19T10:40:04Z</time>
      </trkpt>
      <trkpt lat="42.2" lon="8.63979">
        <ele>216.079</ele>
        <time>2019-10-19T10:40:34Z</time>
      </trkpt>
      <trkpt lat="42.19697" lon="8.63734">
        <ele>192.114</ele>
        <time>2019-10-19T10:41:04Z</time>
      </trkpt>
      <trkpt lat="42.19553" lon="8.63552">
        <ele>170.804</ele>
        <time>2019-10-19T10:41:34Z</time>
      </trkpt>
      <trkpt lat="42.19479" lon="8.63463">
        <ele>165.086</ele>
        <time>2019-10-19T10:48:52Z</time>
      </trkpt>
      <trkpt lat="42.19218" lon="8.63316">
        <ele>150.271</ele>
        <time>2019-10-19T10:49:22Z</time>
      </trkpt>
      <trkpt lat="42.19131" lon="8.63054">
        <ele>126.838</ele>
        <time>2019-10-19T10:49:52Z</time>
      </trkpt>
      <trkpt lat="42.19369" lon="8.62826">
        <ele>106.114</ele>
        <time>2019-10-19T10:50:22Z</time>
      </trkpt>
      <trkpt lat="42.1909" lon="8.62789">
        <ele>85.958</ele>
        <time>2019-10-19T10:50:52Z</time>
      </trkpt>
      <trkpt lat="42.188" lon="8.62575">
        <ele>59.844</ele>
        <time>2019-10-19T10:51:25Z</time>
      </trkpt>
      <trkpt lat="42.18672" lon="8.62162">
        <ele>42.989</ele>
        <time>2019-10-19T10:51:55Z</time>
      </trkpt>
      <trkpt lat="42.18482" lon="8.61767">
        <ele>22.419</ele>
        <time>2019-10-19T10:52:25Z</time>
      </trkpt>
      <trkpt lat="42.18232" lon="8.61653">
        <ele>12.446</ele>
        <time>2019-10-19T10:52:55Z</time>
      </trkpt>
      <trkpt lat="42.18077" lon="8.61516">
        <ele>11.297</ele>
        <time>2019-10-19T10:53:25Z</time>
      </trkpt>
      <trkpt lat="42.17901" lon="8.61399">
        <ele>10.654</ele>
        <time>2019-10-19T10:53:55Z</time>
      </trkpt>
      <trkpt lat="42.17731" lon="8.61302">
        <ele>5.062</ele>
        <time>2019-10-19T10:54:25Z</time>
      </trkpt>
      <trkpt lat="42.17585" lon="8.61216">
        <ele>3.415</ele>
        <time>2019-10-19T10:54:55Z</time>
      </trkpt>
      <trkpt lat="42.17443" lon="8.61141">
        <ele>8.398</ele>
        <time>2019-10-19T10:55:25Z</time>
      </trkpt>
      <trkpt lat="42.17328" lon="8.61052">
        <ele>9.143</ele>
        <time>2019-10-19T10:55:55Z</time>
      </trkpt>
      <trkpt lat="42.17281" lon="8.60937">
        <ele>13.658</ele>
        <time>2019-10-19T10:56:25Z</time>
      </trkpt>
      <trkpt lat="42.17248" lon="8.60847">
        <ele>19.389</ele>
        <time>2019-10-19T10:56:55Z</time>
      </trkpt>
      <trkpt lat="42.17179" lon="8.60832">
        <ele>22.337</ele>
        <time>2019-10-19T10:57:25Z</time>
      </trkpt>
      <trkpt lat="42.17111" lon="8.60879">
        <ele>25.722</ele>
        <time>2019-10-19T10:57:58Z</time>
      </trkpt>
      <trkpt lat="42.17045" lon="8.60906">
        <ele>27.622</ele>
        <time>2019-10-19T10:58:28Z</time>
      </trkpt>
      <trkpt lat="42.16983" lon="8.60902">
        <ele>31.117</ele>
        <time>2019-10-19T10:58:58Z</time>
      </trkpt>
      <trkpt lat="42.16935" lon="8.60858">
        <ele>34.853</ele>
        <time>2019-10-19T10:59:28Z</time>
      </trkpt>
      <trkpt lat="42.16894" lon="8.60807">
        <ele>41.873</ele>
        <time>2019-10-19T10:59:58Z</time>
      </trkpt>
      <trkpt lat="42.1686" lon="8.60744">
        <ele>43.913</ele>
        <time>2019-10-19T11:00:28Z</time>
      </trkpt>
      <trkpt lat="42.16836" lon="8.60679">
        <ele>45.536</ele>
        <time>2019-10-19T11:00:58Z</time>
      </trkpt>
      <trkpt lat="42.16815" lon="8.60611">
        <ele>53.856</ele>
        <time>2019-10-19T11:01:28Z</time>
      </trkpt>
      <trkpt lat="42.16794" lon="8.60543">
        <ele>58.912</ele>
        <time>2019-10-19T11:01:58Z</time>
      </trkpt>
      <trkpt lat="42.16759" lon="8.60475">
        <ele>53.776</ele>
        <time>2019-10-19T11:02:28Z</time>
      </trkpt>
      <trkpt lat="42.16715" lon="8.60425">
        <ele>56.83</ele>
        <time>2019-10-19T11:02:58Z</time>
      </trkpt>
      <trkpt lat="42.16671" lon="8.60382">
        <ele>59.413</ele>
        <time>2019-10-19T11:03:28Z</time>
      </trkpt>
      <trkpt lat="42.16623" lon="8.60331">
        <ele>64.778</ele>
        <time>2019-10-19T11:04:01Z</time>
      </trkpt>
      <trkpt lat="42.1658" lon="8.60283">
        <ele>68.646</ele>
        <time>2019-10-19T11:04:31Z</time>
      </trkpt>
      <trkpt lat="42.16535" lon="8.60239">
        <ele>70.629</ele>
        <time>2019-10-19T11:05:01Z</time>
      </trkpt>
      <trkpt lat="42.16486" lon="8.602">
        <ele>74.829</ele>
        <time>2019-10-19T11:05:31Z</time>
      </trkpt>
      <trkpt lat="42.16428" lon="8.60184">
        <ele>77.224</ele>
        <time>2019-10-19T11:06:01Z</time>
      </trkpt>
      <trkpt lat="42.16373" lon="8.60161">
        <ele>82.067</ele>
        <time>2019-10-19T11:06:34Z</time>
      </trkpt>
      <trkpt lat="42.16342" lon="8.60099">
        <ele>85.489</ele>
        <time>2019-10-19T11:07:04Z</time>
      </trkpt>
      <trkpt lat="42.16335" lon="8.60022">
        <ele>87.285</ele>
        <time>2019-10-19T11:07:34Z</time>
      </trkpt>
      <trkpt lat="42.16328" lon="8.59949">
        <ele>90.598</ele>
        <time>2019-10-19T11:08:04Z</time>
      </trkpt>
      <trkpt lat="42.16296" lon="8.59887">
        <ele>91.115</ele>
        <time>2019-10-19T11:08:34Z</time>
      </trkpt>
      <trkpt lat="42.16254" lon="8.59836">
        <ele>93.292</ele>
        <time>2019-10-19T11:09:04Z</time>
      </trkpt>
      <trkpt lat="42.16211" lon="8.59778">
        <ele>99.37</ele>
        <time>2019-10-19T11:09:37Z</time>
      </trkpt>
      <trkpt lat="42.16152" lon="8.59714">
        <ele>101.449</ele>
        <time>2019-10-19T11:10:07Z</time>
      </trkpt>
      <trkpt lat="42.15988" lon="8.59677">
        <ele>83.771</ele>
        <time>2019-10-19T11:10:40Z</time>
      </trkpt>
      <trkpt lat="42.15782" lon="8.59627">
        <ele>59.929</ele>
        <time>2019-10-19T11:11:10Z</time>
      </trkpt>
      <trkpt lat="42.15631" lon="8.59554">
        <ele>42.78</ele>
        <time>2019-10-19T11:11:40Z</time>
      </trkpt>
      <trkpt lat="42.15513" lon="8.5937">
        <ele>31.792</ele>
        <time>2019-10-19T11:12:10Z</time>
      </trkpt>
      <trkpt lat="42.15408" lon="8.59316">
        <ele>32.788</ele>
        <time>2019-10-19T11:12:40Z</time>
      </trkpt>
      <trkpt lat="42.15219" lon="8.59443">
        <ele>27.221</ele>
        <time>2019-10-19T11:13:10Z</time>
      </trkpt>
      <trkpt lat="42.15071" lon="8.5937">
        <ele>20.442</ele>
        <time>2019-10-19T11:13:40Z</time>
      </trkpt>
      <trkpt lat="42.14854" lon="8.59405">
        <ele>5.412</ele>
        <time>2019-10-19T11:14:10Z</time>
      </trkpt>
      <trkpt lat="42.1474" lon="8.59515">
        <ele>2.809</ele>
        <time>2019-10-19T11:14:40Z</time>
      </trkpt>
      <trkpt lat="42.14639" lon="8.59584">
        <ele>3.863</ele>
        <time>2019-10-19T11:15:10Z</time>
      </trkpt>
      <trkpt lat="42.14563" lon="8.59631">
        <ele>9.47</ele>
        <time>2019-10-19T11:15:43Z</time>
      </trkpt>
      <trkpt lat="42.14528" lon="8.59702">
        <ele>15.377</ele>
        <time>2019-10-19T11:16:13Z</time>
      </trkpt>
      <trkpt lat="42.14505" lon="8.5977">
        <ele>12.759</ele>
        <time>2019-10-19T11:16:43Z</time>
      </trkpt>
      <trkpt lat="42.14426" lon="8.59758">
        <ele>15.337</ele>
        <time>2019-10-19T11:17:16Z</time>
      </trkpt>
      <trkpt lat="42.14353" lon="8.59771">
        <ele>19.321</ele>
        <time>2019-10-19T11:17:46Z</time>
      </trkpt>
      <trkpt lat="42.14278" lon="8.59795">
        <ele>23.732</ele>
        <time>2019-10-19T11:18:16Z</time>
      </trkpt>
      <trkpt lat="42.14221" lon="8.59831">
        <ele>28.391</ele>
        <time>2019-10-19T11:18:49Z</time>
      </trkpt>
      <trkpt lat="42.14169" lon="8.59861">
        <ele>30.383</ele>
        <time>2019-10-19T11:19:19Z</time>
      </trkpt>
      <trkpt lat="42.14109" lon="8.59883">
        <ele>36.173</ele>
        <time>2019-10-19T11:20:01Z</time>
      </trkpt>
      <trkpt lat="42.14056" lon="8.59865">
        <ele>41.961</ele>
        <time>2019-10-19T11:20:34Z</time>
      </trkpt>
      <trkpt lat="42.14035" lon="8.59821">
        <ele>45.373</ele>
        <time>2019-10-19T11:24:13Z</time>
      </trkpt>
      <trkpt lat="42.14009" lon="8.5978">
        <ele>47.642</ele>
        <time>2019-10-19T11:25:01Z</time>
      </trkpt>
      <trkpt lat="42.13961" lon="8.59744">
        <ele>53.825</ele>
        <time>2019-10-19T11:25:55Z</time>
      </trkpt>
      <trkpt lat="42.1392" lon="8.59704">
        <ele>60.526</ele>
        <time>2019-10-19T11:26:49Z</time>
      </trkpt>
      <trkpt lat="42.1389" lon="8.59685">
        <ele>61.728</ele>
        <time>2019-10-19T11:27:58Z</time>
      </trkpt>
      <trkpt lat="42.13838" lon="8.5968">
        <ele>68.809</ele>
        <time>2019-10-19T11:29:01Z</time>
      </trkpt>
      <trkpt lat="42.13801" lon="8.59669">
        <ele>74.647</ele>
        <time>2019-10-19T11:30:10Z</time>
      </trkpt>
      <trkpt lat="42.13763" lon="8.59652">
        <ele>82.511</ele>
        <time>2019-10-19T11:31:43Z</time>
      </trkpt>
      <trkpt lat="42.13712" lon="8.59644">
        <ele>89.098</ele>
        <time>2019-10-19T11:32:43Z</time>
      </trkpt>
      <trkpt lat="42.13677" lon="8.59624">
        <ele>92.094</ele>
        <time>2019-10-19T11:33:46Z</time>
      </trkpt>
      <trkpt lat="42.13622" lon="8.59602">
        <ele>93.459</ele>
        <time>2019-10-19T11:53:22Z</time>
      </trkpt>
      <trkpt lat="42.13603" lon="8.59704">
        <ele>98.133</ele>
        <time>2019-10-19T11:55:31Z</time>
      </trkpt>
      <trkpt lat="42.13447" lon="8.5969">
        <ele>86.351</ele>
        <time>2019-10-19T11:56:01Z</time>
      </trkpt>
      <trkpt lat="42.13372" lon="8.59837">
        <ele>77.526</ele>
        <time>2019-10-19T11:56:31Z</time>
      </trkpt>
      <trkpt lat="42.134" lon="8.59992">
        <ele>76.989</ele>
        <time>2019-10-19T11:57:01Z</time>
      </trkpt>
      <trkpt lat="42.13481" lon="8.60146">
        <ele>78.17</ele>
        <time>2019-10-19T11:57:31Z</time>
      </trkpt>
      <trkpt lat="42.13548" lon="8.60325">
        <ele>75.526</ele>
        <time>2019-10-19T11:58:01Z</time>
      </trkpt>
      <trkpt lat="42.13671" lon="8.60445">
        <ele>75.505</ele>
        <time>2019-10-19T11:58:31Z</time>
      </trkpt>
      <trkpt lat="42.13626" lon="8.60623">
        <ele>77.839</ele>
        <time>2019-10-19T11:59:04Z</time>
      </trkpt>
      <trkpt lat="42.13582" lon="8.60749">
        <ele>77.274</ele>
        <time>2019-10-19T11:59:34Z</time>
      </trkpt>
      <trkpt lat="42.13693" lon="8.6093">
        <ele>68.302</ele>
        <time>2019-10-19T12:00:04Z</time>
      </trkpt>
      <trkpt lat="42.13655" lon="8.61309">
        <ele>58.125</ele>
        <time>2019-10-19T12:00:34Z</time>
      </trkpt>
      <trkpt lat="42.1371" lon="8.61691">
        <ele>40.736</ele>
        <time>2019-10-19T12:01:04Z</time>
      </trkpt>
      <trkpt lat="42.13678" lon="8.61973">
        <ele>28.919</ele>
        <time>2019-10-19T12:01:34Z</time>
      </trkpt>
      <trkpt lat="42.13601" lon="8.61972">
        <ele>35.582</ele>
        <time>2019-10-19T12:02:04Z</time>
      </trkpt>
      <trkpt lat="42.13535" lon="8.61985">
        <ele>40.988</ele>
        <time>2019-10-19T12:02:34Z</time>
      </trkpt>
      <trkpt lat="42.13469" lon="8.61986">
        <ele>46.541</ele>
        <time>2019-10-19T12:03:04Z</time>
      </trkpt>
      <trkpt lat="42.13401" lon="8.61978">
        <ele>53.983</ele>
        <time>2019-10-19T12:03:34Z</time>
      </trkpt>
      <trkpt lat="42.13337" lon="8.62007">
        <ele>55.884</ele>
        <time>2019-10-19T12:04:04Z</time>
      </trkpt>
      <trkpt lat="42.13272" lon="8.62035">
        <ele>59.406</ele>
        <time>2019-10-19T12:04:34Z</time>
      </trkpt>
      <trkpt lat="42.13207" lon="8.62034">
        <ele>59.422</ele>
        <time>2019-10-19T12:05:04Z</time>
      </trkpt>
      <trkpt lat="42.13136" lon="8.62024">
        <ele>65.049</ele>
        <time>2019-10-19T12:05:37Z</time>
      </trkpt>
      <trkpt lat="42.13071" lon="8.62034">
        <ele>67.883</ele>
        <time>2019-10-19T12:06:07Z</time>
      </trkpt>
      <trkpt lat="42.13004" lon="8.62026">
        <ele>74.64</ele>
        <time>2019-10-19T12:06:37Z</time>
      </trkpt>
      <trkpt lat="42.12942" lon="8.61997">
        <ele>81.049</ele>
        <time>2019-10-19T12:07:07Z</time>
      </trkpt>
      <trkpt lat="42.12894" lon="8.61944">
        <ele>80.303</ele>
        <time>2019-10-19T12:07:37Z</time>
      </trkpt>
      <trkpt lat="42.12826" lon="8.61938">
        <ele>81.061</ele>
        <time>2019-10-19T12:08:07Z</time>
      </trkpt>
      <trkpt lat="42.12757" lon="8.61928">
        <ele>83.676</ele>
        <time>2019-10-19T12:08:37Z</time>
      </trkpt>
      <trkpt lat="42.12693" lon="8.61953">
        <ele>86.189</ele>
        <time>2019-10-19T12:09:07Z</time>
      </trkpt>
      <trkpt lat="42.12614" lon="8.62167">
        <ele>86.113</ele>
        <time>2019-10-19T12:09:37Z</time>
      </trkpt>
      <trkpt lat="42.12598" lon="8.62558">
        <ele>74.894</ele>
        <time>2019-10-19T12:10:07Z</time>
      </trkpt>
      <trkpt lat="42.12395" lon="8.62734">
        <ele>54.905</ele>
        <time>2019-10-19T12:10:37Z</time>
      </trkpt>
      <trkpt lat="42.12426" lon="8.63189">
        <ele>34.014</ele>
        <time>2019-10-19T12:11:07Z</time>
      </trkpt>
      <trkpt lat="42.12465" lon="8.63496">
        <ele>16.286</ele>
        <time>2019-10-19T12:11:37Z</time>
      </trkpt>
      <trkpt lat="42.12455" lon="8.63749">
        <ele>16.416</ele>
        <time>2019-10-19T12:12:10Z</time>
      </trkpt>
      <trkpt lat="42.12488" lon="8.63946">
        <ele>17.641</ele>
        <time>2019-10-19T12:12:40Z</time>
      </trkpt>
      <trkpt lat="42.12473" lon="8.64145">
        <ele>17.518</ele>
        <time>2019-10-19T12:13:10Z</time>
      </trkpt>
      <trkpt lat="42.1237" lon="8.6438">
        <ele>15.084</ele>
        <time>2019-10-19T12:13:40Z</time>
      </trkpt>
      <trkpt lat="42.12256" lon="8.64731">
        <ele>5.108</ele>
        <time>2019-10-19T12:14:10Z</time>
      </trkpt>
      <trkpt lat="42.1209" lon="8.64823">
        <ele>3.028</ele>
        <time>2019-10-19T12:14:40Z</time>
      </trkpt>
      <trkpt lat="42.12011" lon="8.6496">
        <ele>4.184</ele>
        <time>2019-10-19T12:15:10Z</time>
      </trkpt>
      <trkpt lat="42.11946" lon="8.65107">
        <ele>2.195</ele>
        <time>2019-10-19T12:15:40Z</time>
      </trkpt>
      <trkpt lat="42.11865" lon="8.65259">
        <ele>7.033</ele>
        <time>2019-10-19T12:16:10Z</time>
      </trkpt>
      <trkpt lat="42.11747" lon="8.65257">
        <ele>4.539</ele>
        <time>2019-10-19T12:16:40Z</time>
      </trkpt>
      <trkpt lat="42.11662" lon="8.65192">
        <ele>7.623</ele>
        <time>2019-10-19T12:17:10Z</time>
      </trkpt>
      <trkpt lat="42.11563" lon="8.65168">
        <ele>10.377</ele>
        <time>2019-10-19T12:17:40Z</time>
      </trkpt>
      <trkpt lat="42.11455" lon="8.65243">
        <ele>12.22</ele>
        <time>2019-10-19T12:18:10Z</time>
      </trkpt>
      <trkpt lat="42.1131" lon="8.6543">
        <ele>6.61</ele>
        <time>2019-10-19T12:18:43Z</time>
      </trkpt>
      <trkpt lat="42.11192" lon="8.65573">
        <ele>7.067</ele>
        <time>2019-10-19T12:19:13Z</time>
      </trkpt>
      <trkpt lat="42.11124" lon="8.65619">
        <ele>9.442</ele>
        <time>2019-10-19T12:19:43Z</time>
      </trkpt>
      <trkpt lat="42.1108" lon="8.65702">
        <ele>10.393</ele>
        <time>2019-10-19T12:20:13Z</time>
      </trkpt>
      <trkpt lat="42.11008" lon="8.65759">
        <ele>14.282</ele>
        <time>2019-10-19T12:20:43Z</time>
      </trkpt>
      <trkpt lat="42.10942" lon="8.65871">
        <ele>16.347</ele>
        <time>2019-10-19T12:21:13Z</time>
      </trkpt>
      <trkpt lat="42.10868" lon="8.6593">
        <ele>20.24</ele>
        <time>2019-10-19T12:21:43Z</time>
      </trkpt>
      <trkpt lat="42.10799" lon="8.65985">
        <ele>23.385</ele>
        <time>2019-10-19T12:22:13Z</time>
      </trkpt>
      <trkpt lat="42.10753" lon="8.66039">
        <ele>27.084</ele>
        <time>2019-10-19T12:22:43Z</time>
      </trkpt>
      <trkpt lat="42.10728" lon="8.66122">
        <ele>26.521</ele>
        <time>2019-10-19T12:23:13Z</time>
      </trkpt>
      <trkpt lat="42.10668" lon="8.66171">
        <ele>32.633</ele>
        <time>2019-10-19T12:23:43Z</time>
      </trkpt>
      <trkpt lat="42.1064" lon="8.66237">
        <ele>35.763</ele>
        <time>2019-10-19T12:24:13Z</time>
      </trkpt>
      <trkpt lat="42.10679" lon="8.66335">
        <ele>34.17</ele>
        <time>2019-10-19T12:34:04Z</time>
      </trkpt>
      <trkpt lat="42.10738" lon="8.66572">
        <ele>28.896</ele>
        <time>2019-10-19T12:34:34Z</time>
      </trkpt>
      <trkpt lat="42.10775" lon="8.66907">
        <ele>25.35</ele>
        <time>2019-10-19T12:35:04Z</time>
      </trkpt>
      <trkpt lat="42.1081" lon="8.67278">
        <ele>7.897</ele>
        <time>2019-10-19T12:35:34Z</time>
      </trkpt>
      <trkpt lat="42.10709" lon="8.67567">
        <ele>3.065</ele>
        <time>2019-10-19T12:36:04Z</time>
      </trkpt>
      <trkpt lat="42.10621" lon="8.67742">
        <ele>8.139</ele>
        <time>2019-10-19T12:36:34Z</time>
      </trkpt>
      <trkpt lat="42.10554" lon="8.67869">
        <ele>11.754</ele>
        <time>2019-10-19T12:37:04Z</time>
      </trkpt>
      <trkpt lat="42.10595" lon="8.68061">
        <ele>10.695</ele>
        <time>2019-10-19T12:37:34Z</time>
      </trkpt>
      <trkpt lat="42.10778" lon="8.68168">
        <ele>9.504</ele>
        <time>2019-10-19T12:38:04Z</time>
      </trkpt>
      <trkpt lat="42.10888" lon="8.68346">
        <ele>10.441</ele>
        <time>2019-10-19T12:38:34Z</time>
      </trkpt>
      <trkpt lat="42.10981" lon="8.68501">
        <ele>8.275</ele>
        <time>2019-10-19T12:39:04Z</time>
      </trkpt>
      <trkpt lat="42.11066" lon="8.68719">
        <ele>5.688</ele>
        <time>2019-10-19T12:39:34Z</time>
      </trkpt>
      <trkpt lat="42.11246" lon="8.68754">
        <ele>3.696</ele>
        <time>2019-10-19T12:40:04Z</time>
      </trkpt>
      <trkpt lat="42.11422" lon="8.68858">
        <ele>8.279</ele>
        <time>2019-10-19T12:40:37Z</time>
      </trkpt>
      <trkpt lat="42.11576" lon="8.68966">
        <ele>7.569</ele>
        <time>2019-10-19T12:41:07Z</time>
      </trkpt>
      <trkpt lat="42.11632" lon="8.69146">
        <ele>5.302</ele>
        <time>2019-10-19T12:41:40Z</time>
      </trkpt>
      <trkpt lat="42.11586" lon="8.69361">
        <ele>7.108</ele>
        <time>2019-10-19T12:42:10Z</time>
      </trkpt>
      <trkpt lat="42.11531" lon="8.69522">
        <ele>0.662</ele>
        <time>2019-10-19T12:42:40Z</time>
      </trkpt>
      <trkpt lat="42.11525" lon="8.69495">
        <ele>3.341</ele>
        <time>2019-10-19T12:43:22Z</time>
      </trkpt>
      <trkpt lat="42.11473" lon="8.69657">
        <ele>1.661</ele>
        <time>2019-10-19T12:43:55Z</time>
      </trkpt>
      <trkpt lat="42.1147" lon="8.6965">
        <ele>6.526</ele>
        <time>2019-10-19T12:46:07Z</time>
      </trkpt>
      <trkpt lat="42.11455" lon="8.69646">
        <ele>5.286</ele>
        <time>2019-10-19T12:57:25Z</time>
      </trkpt>
      <trkpt lat="42.11456" lon="8.69646">
        <ele>5.286</ele>
        <time>2019-10-19T13:01:16Z</time>
      </trkpt>
      <trkpt lat="42.11453" lon="8.69647">
        <ele>4.281</ele>
        <time>2019-10-19T13:38:49Z</time>
      </trkpt>
      <trkpt lat="42.11453" lon="8.69643">
        <ele>3.577</ele>
        <time>2019-10-19T14:03:52Z</time>
      </trkpt>
      <trkpt lat="42.11453" lon="8.69644">
        <ele>3.888</ele>
        <time>2019-10-19T14:10:22Z</time>
      </trkpt>
      <trkpt lat="42.11455" lon="8.69646">
        <ele>3.122</ele>
        <time>2019-10-19T14:15:49Z</time>
      </trkpt>
      <trkpt lat="42.11467" lon="8.69659">
        <ele>3</ele>
        <time>2019-10-19T14:18:46Z</time>
      </trkpt>
      <trkpt lat="42.11452" lon="8.69707">
        <ele>4.679</ele>
        <time>2019-10-19T14:24:52Z</time>
      </trkpt>
      <trkpt lat="42.11419" lon="8.6983">
        <ele>8.802</ele>
        <time>2019-10-19T14:25:22Z</time>
      </trkpt>
      <trkpt lat="42.11371" lon="8.69989">
        <ele>12.181</ele>
        <time>2019-10-19T14:25:52Z</time>
      </trkpt>
      <trkpt lat="42.11311" lon="8.70168">
        <ele>14.039</ele>
        <time>2019-10-19T14:26:22Z</time>
      </trkpt>
      <trkpt lat="42.11439" lon="8.70162">
        <ele>20.615</ele>
        <time>2019-10-19T14:26:52Z</time>
      </trkpt>
      <trkpt lat="42.11583" lon="8.70131">
        <ele>21.94</ele>
        <time>2019-10-19T14:27:22Z</time>
      </trkpt>
      <trkpt lat="42.11748" lon="8.70125">
        <ele>2.684</ele>
        <time>2019-10-19T14:27:52Z</time>
      </trkpt>
      <trkpt lat="42.11896" lon="8.70124">
        <ele>2.266</ele>
        <time>2019-10-19T14:28:22Z</time>
      </trkpt>
      <trkpt lat="42.12024" lon="8.70175">
        <ele>7.115</ele>
        <time>2019-10-19T14:28:52Z</time>
      </trkpt>
      <trkpt lat="42.12141" lon="8.70289">
        <ele>10.268</ele>
        <time>2019-10-19T14:29:22Z</time>
      </trkpt>
      <trkpt lat="42.12289" lon="8.70333">
        <ele>8.468</ele>
        <time>2019-10-19T14:29:52Z</time>
      </trkpt>
      <trkpt lat="42.12438" lon="8.70382">
        <ele>8.982</ele>
        <time>2019-10-19T14:30:25Z</time>
      </trkpt>
      <trkpt lat="42.12577" lon="8.70439">
        <ele>8.684</ele>
        <time>2019-10-19T14:30:55Z</time>
      </trkpt>
      <trkpt lat="42.12711" lon="8.70488">
        <ele>11.662</ele>
        <time>2019-10-19T14:31:25Z</time>
      </trkpt>
      <trkpt lat="42.12849" lon="8.70512">
        <ele>12.618</ele>
        <time>2019-10-19T14:31:55Z</time>
      </trkpt>
      <trkpt lat="42.12988" lon="8.70556">
        <ele>12.779</ele>
        <time>2019-10-19T14:32:25Z</time>
      </trkpt>
      <trkpt lat="42.13068" lon="8.70513">
        <ele>16.922</ele>
        <time>2019-10-19T14:32:55Z</time>
      </trkpt>
    </trkseg>
  </trk>
  <trk>
    <name><![CDATA[Tracé 20191020-102107]]></name>
    <trkseg>
      <trkpt lat="42.13108" lon="8.703">
        <ele>11.97</ele>
        <time>2019-10-20T08:27:37Z</time>
      </trkpt>
      <trkpt lat="42.13073" lon="8.70491">
        <ele>10.755</ele>
        <time>2019-10-20T08:32:43Z</time>
      </trkpt>
      <trkpt lat="42.12985" lon="8.70545">
        <ele>8.981</ele>
        <time>2019-10-20T08:45:52Z</time>
      </trkpt>
      <trkpt lat="42.12852" lon="8.70506">
        <ele>8.676</ele>
        <time>2019-10-20T08:46:22Z</time>
      </trkpt>
      <trkpt lat="42.12708" lon="8.70482">
        <ele>10.892</ele>
        <time>2019-10-20T08:46:52Z</time>
      </trkpt>
      <trkpt lat="42.12559" lon="8.7042">
        <ele>8.113</ele>
        <time>2019-10-20T08:47:22Z</time>
      </trkpt>
      <trkpt lat="42.1241" lon="8.70368">
        <ele>5.931</ele>
        <time>2019-10-20T08:47:52Z</time>
      </trkpt>
      <trkpt lat="42.1226" lon="8.70315">
        <ele>4.313</ele>
        <time>2019-10-20T08:48:22Z</time>
      </trkpt>
      <trkpt lat="42.1212" lon="8.70273">
        <ele>3.077</ele>
        <time>2019-10-20T08:48:52Z</time>
      </trkpt>
      <trkpt lat="42.12016" lon="8.70149">
        <ele>2.736</ele>
        <time>2019-10-20T08:49:22Z</time>
      </trkpt>
      <trkpt lat="42.11863" lon="8.70119">
        <ele>0.834</ele>
        <time>2019-10-20T08:49:52Z</time>
      </trkpt>
      <trkpt lat="42.11707" lon="8.7012">
        <ele>9</ele>
        <time>2019-10-20T08:50:22Z</time>
      </trkpt>
      <trkpt lat="42.11562" lon="8.70131">
        <ele>7.2</ele>
        <time>2019-10-20T08:50:52Z</time>
      </trkpt>
      <trkpt lat="42.11418" lon="8.70163">
        <ele>7</ele>
        <time>2019-10-20T08:51:22Z</time>
      </trkpt>
      <trkpt lat="42.11291" lon="8.70189">
        <ele>5.151</ele>
        <time>2019-10-20T08:51:52Z</time>
      </trkpt>
      <trkpt lat="42.11148" lon="8.70168">
        <ele>4.598</ele>
        <time>2019-10-20T08:52:22Z</time>
      </trkpt>
      <trkpt lat="42.11053" lon="8.70199">
        <ele>5.334</ele>
        <time>2019-10-20T08:52:52Z</time>
      </trkpt>
      <trkpt lat="42.10985" lon="8.7021">
        <ele>16.233</ele>
        <time>2019-10-20T08:53:22Z</time>
      </trkpt>
      <trkpt lat="42.1091" lon="8.70219">
        <ele>18.966</ele>
        <time>2019-10-20T08:53:52Z</time>
      </trkpt>
      <trkpt lat="42.10786" lon="8.70195">
        <ele>15.78</ele>
        <time>2019-10-20T08:54:22Z</time>
      </trkpt>
      <trkpt lat="42.10628" lon="8.70198">
        <ele>10.803</ele>
        <time>2019-10-20T08:54:52Z</time>
      </trkpt>
      <trkpt lat="42.10524" lon="8.70327">
        <ele>12.893</ele>
        <time>2019-10-20T08:55:22Z</time>
      </trkpt>
      <trkpt lat="42.10456" lon="8.70467">
        <ele>14.658</ele>
        <time>2019-10-20T08:55:52Z</time>
      </trkpt>
      <trkpt lat="42.1041" lon="8.70709">
        <ele>10.806</ele>
        <time>2019-10-20T08:56:22Z</time>
      </trkpt>
      <trkpt lat="42.10236" lon="8.70725">
        <ele>8.903</ele>
        <time>2019-10-20T08:56:52Z</time>
      </trkpt>
      <trkpt lat="42.10097" lon="8.70797">
        <ele>5.845</ele>
        <time>2019-10-20T08:57:22Z</time>
      </trkpt>
      <trkpt lat="42.09966" lon="8.70879">
        <ele>8.437</ele>
        <time>2019-10-20T08:57:52Z</time>
      </trkpt>
      <trkpt lat="42.09842" lon="8.70982">
        <ele>8.017</ele>
        <time>2019-10-20T08:58:22Z</time>
      </trkpt>
      <trkpt lat="42.09706" lon="8.71037">
        <ele>8.148</ele>
        <time>2019-10-20T08:58:52Z</time>
      </trkpt>
      <trkpt lat="42.09579" lon="8.7108">
        <ele>8.849</ele>
        <time>2019-10-20T08:59:22Z</time>
      </trkpt>
      <trkpt lat="42.09455" lon="8.71065">
        <ele>9.571</ele>
        <time>2019-10-20T08:59:52Z</time>
      </trkpt>
      <trkpt lat="42.09362" lon="8.71017">
        <ele>12.272</ele>
        <time>2019-10-20T09:00:22Z</time>
      </trkpt>
      <trkpt lat="42.09285" lon="8.70962">
        <ele>17.497</ele>
        <time>2019-10-20T09:00:52Z</time>
      </trkpt>
      <trkpt lat="42.0922" lon="8.70877">
        <ele>21.969</ele>
        <time>2019-10-20T09:01:22Z</time>
      </trkpt>
      <trkpt lat="42.09086" lon="8.70812">
        <ele>18.826</ele>
        <time>2019-10-20T09:01:52Z</time>
      </trkpt>
      <trkpt lat="42.0894" lon="8.70906">
        <ele>19.809</ele>
        <time>2019-10-20T09:02:22Z</time>
      </trkpt>
      <trkpt lat="42.08845" lon="8.71081">
        <ele>16.106</ele>
        <time>2019-10-20T09:02:52Z</time>
      </trkpt>
      <trkpt lat="42.08761" lon="8.7126">
        <ele>7.301</ele>
        <time>2019-10-20T09:03:22Z</time>
      </trkpt>
      <trkpt lat="42.0867" lon="8.71459">
        <ele>4.064</ele>
        <time>2019-10-20T09:03:52Z</time>
      </trkpt>
      <trkpt lat="42.08575" lon="8.71662">
        <ele>2.658</ele>
        <time>2019-10-20T09:04:22Z</time>
      </trkpt>
      <trkpt lat="42.08434" lon="8.71769">
        <ele>1.144</ele>
        <time>2019-10-20T09:04:52Z</time>
      </trkpt>
      <trkpt lat="42.08299" lon="8.71822">
        <ele>1.5</ele>
        <time>2019-10-20T09:05:22Z</time>
      </trkpt>
      <trkpt lat="42.0816" lon="8.71878">
        <ele>0.816</ele>
        <time>2019-10-20T09:05:52Z</time>
      </trkpt>
      <trkpt lat="42.08025" lon="8.71933">
        <ele>1.784</ele>
        <time>2019-10-20T09:06:22Z</time>
      </trkpt>
      <trkpt lat="42.07886" lon="8.71987">
        <ele>1.197</ele>
        <time>2019-10-20T09:06:52Z</time>
      </trkpt>
      <trkpt lat="42.0775" lon="8.72041">
        <ele>2.076</ele>
        <time>2019-10-20T09:07:22Z</time>
      </trkpt>
      <trkpt lat="42.07607" lon="8.72097">
        <ele>0.805</ele>
        <time>2019-10-20T09:07:52Z</time>
      </trkpt>
      <trkpt lat="42.07462" lon="8.72153">
        <ele>3.7</ele>
        <time>2019-10-20T09:08:22Z</time>
      </trkpt>
      <trkpt lat="42.07312" lon="8.72212">
        <ele>1.41</ele>
        <time>2019-10-20T09:08:52Z</time>
      </trkpt>
      <trkpt lat="42.07159" lon="8.72265">
        <ele>2.124</ele>
        <time>2019-10-20T09:09:22Z</time>
      </trkpt>
      <trkpt lat="42.0701" lon="8.72232">
        <ele>4.326</ele>
        <time>2019-10-20T09:09:52Z</time>
      </trkpt>
      <trkpt lat="42.06868" lon="8.7219">
        <ele>3.985</ele>
        <time>2019-10-20T09:10:22Z</time>
      </trkpt>
      <trkpt lat="42.06726" lon="8.72178">
        <ele>3.874</ele>
        <time>2019-10-20T09:10:52Z</time>
      </trkpt>
      <trkpt lat="42.06609" lon="8.7212">
        <ele>8.973</ele>
        <time>2019-10-20T09:11:22Z</time>
      </trkpt>
      <trkpt lat="42.06514" lon="8.7211">
        <ele>9.965</ele>
        <time>2019-10-20T09:11:52Z</time>
      </trkpt>
      <trkpt lat="42.0643" lon="8.72158">
        <ele>13.949</ele>
        <time>2019-10-20T09:12:22Z</time>
      </trkpt>
      <trkpt lat="42.06405" lon="8.72287">
        <ele>15.655</ele>
        <time>2019-10-20T09:12:52Z</time>
      </trkpt>
      <trkpt lat="42.06411" lon="8.7245">
        <ele>16.512</ele>
        <time>2019-10-20T09:13:22Z</time>
      </trkpt>
      <trkpt lat="42.06432" lon="8.72638">
        <ele>15.914</ele>
        <time>2019-10-20T09:13:52Z</time>
      </trkpt>
      <trkpt lat="42.06452" lon="8.7283">
        <ele>15.339</ele>
        <time>2019-10-20T09:14:22Z</time>
      </trkpt>
      <trkpt lat="42.06476" lon="8.73028">
        <ele>13.36</ele>
        <time>2019-10-20T09:14:52Z</time>
      </trkpt>
      <trkpt lat="42.06514" lon="8.73231">
        <ele>14.004</ele>
        <time>2019-10-20T09:15:22Z</time>
      </trkpt>
      <trkpt lat="42.06618" lon="8.73406">
        <ele>14.477</ele>
        <time>2019-10-20T09:15:52.001Z</time>
      </trkpt>
      <trkpt lat="42.06619" lon="8.73623">
        <ele>13.764</ele>
        <time>2019-10-20T09:16:22.001Z</time>
      </trkpt>
      <trkpt lat="42.0658" lon="8.73842">
        <ele>10.732</ele>
        <time>2019-10-20T09:16:52.001Z</time>
      </trkpt>
      <trkpt lat="42.0646" lon="8.7395">
        <ele>12.424</ele>
        <time>2019-10-20T09:17:22.001Z</time>
      </trkpt>
      <trkpt lat="42.06348" lon="8.74009">
        <ele>11.285</ele>
        <time>2019-10-20T09:17:52.001Z</time>
      </trkpt>
      <trkpt lat="42.06246" lon="8.74079">
        <ele>15.457</ele>
        <time>2019-10-20T09:18:22.001Z</time>
      </trkpt>
      <trkpt lat="42.06185" lon="8.74208">
        <ele>17.6</ele>
        <time>2019-10-20T09:18:52.001Z</time>
      </trkpt>
      <trkpt lat="42.0611" lon="8.7432">
        <ele>17.59</ele>
        <time>2019-10-20T09:19:22.001Z</time>
      </trkpt>
      <trkpt lat="42.06015" lon="8.74408">
        <ele>17.854</ele>
        <time>2019-10-20T09:19:52.001Z</time>
      </trkpt>
      <trkpt lat="42.0594" lon="8.74524">
        <ele>19.998</ele>
        <time>2019-10-20T09:20:22.001Z</time>
      </trkpt>
      <trkpt lat="42.05863" lon="8.74606">
        <ele>23.743</ele>
        <time>2019-10-20T09:20:52.001Z</time>
      </trkpt>
      <trkpt lat="42.05776" lon="8.7449">
        <ele>25.911</ele>
        <time>2019-10-20T09:21:22.001Z</time>
      </trkpt>
      <trkpt lat="42.05634" lon="8.74505">
        <ele>23.585</ele>
        <time>2019-10-20T09:21:52.001Z</time>
      </trkpt>
      <trkpt lat="42.05477" lon="8.74531">
        <ele>21.775</ele>
        <time>2019-10-20T09:22:22.001Z</time>
      </trkpt>
      <trkpt lat="42.05337" lon="8.74559">
        <ele>18.886</ele>
        <time>2019-10-20T09:22:52.001Z</time>
      </trkpt>
      <trkpt lat="42.05191" lon="8.74649">
        <ele>17.571</ele>
        <time>2019-10-20T09:23:22.001Z</time>
      </trkpt>
      <trkpt lat="42.05106" lon="8.74838">
        <ele>15.97</ele>
        <time>2019-10-20T09:23:52.001Z</time>
      </trkpt>
      <trkpt lat="42.04971" lon="8.75008">
        <ele>12.665</ele>
        <time>2019-10-20T09:24:22.001Z</time>
      </trkpt>
      <trkpt lat="42.04861" lon="8.75305">
        <ele>5.246</ele>
        <time>2019-10-20T09:24:52.001Z</time>
      </trkpt>
      <trkpt lat="42.04723" lon="8.75437">
        <ele>3.945</ele>
        <time>2019-10-20T09:25:22.001Z</time>
      </trkpt>
      <trkpt lat="42.04627" lon="8.75371">
        <ele>11.197</ele>
        <time>2019-10-20T09:25:52.001Z</time>
      </trkpt>
      <trkpt lat="42.046" lon="8.75281">
        <ele>21.535</ele>
        <time>2019-10-20T09:26:22.001Z</time>
      </trkpt>
      <trkpt lat="42.04556" lon="8.75216">
        <ele>23.765</ele>
        <time>2019-10-20T09:26:52.001Z</time>
      </trkpt>
      <trkpt lat="42.04496" lon="8.75211">
        <ele>26.259</ele>
        <time>2019-10-20T09:27:22.001Z</time>
      </trkpt>
      <trkpt lat="42.04442" lon="8.75244">
        <ele>29.216</ele>
        <time>2019-10-20T09:27:52.001Z</time>
      </trkpt>
      <trkpt lat="42.04397" lon="8.75287">
        <ele>33.996</ele>
        <time>2019-10-20T09:28:22.001Z</time>
      </trkpt>
      <trkpt lat="42.04347" lon="8.75333">
        <ele>35.738</ele>
        <time>2019-10-20T09:28:52.001Z</time>
      </trkpt>
      <trkpt lat="42.04301" lon="8.75378">
        <ele>41.045</ele>
        <time>2019-10-20T09:29:22.001Z</time>
      </trkpt>
      <trkpt lat="42.04254" lon="8.7542">
        <ele>45.233</ele>
        <time>2019-10-20T09:29:52.001Z</time>
      </trkpt>
      <trkpt lat="42.042" lon="8.75447">
        <ele>52.376</ele>
        <time>2019-10-20T09:30:22.001Z</time>
      </trkpt>
      <trkpt lat="42.04148" lon="8.75459">
        <ele>56.06</ele>
        <time>2019-10-20T09:30:52.001Z</time>
      </trkpt>
      <trkpt lat="42.04092" lon="8.75473">
        <ele>60.546</ele>
        <time>2019-10-20T09:31:22.001Z</time>
      </trkpt>
      <trkpt lat="42.04038" lon="8.75491">
        <ele>67.75</ele>
        <time>2019-10-20T09:31:52.001Z</time>
      </trkpt>
      <trkpt lat="42.03989" lon="8.75529">
        <ele>68.106</ele>
        <time>2019-10-20T09:32:22.001Z</time>
      </trkpt>
      <trkpt lat="42.03942" lon="8.75578">
        <ele>67.156</ele>
        <time>2019-10-20T09:32:52.001Z</time>
      </trkpt>
      <trkpt lat="42.03895" lon="8.75626">
        <ele>71.352</ele>
        <time>2019-10-20T09:33:22.001Z</time>
      </trkpt>
      <trkpt lat="42.03844" lon="8.75648">
        <ele>76.134</ele>
        <time>2019-10-20T09:33:52.001Z</time>
      </trkpt>
      <trkpt lat="42.03803" lon="8.75608">
        <ele>83.912</ele>
        <time>2019-10-20T09:34:22.001Z</time>
      </trkpt>
      <trkpt lat="42.03806" lon="8.75542">
        <ele>88.5</ele>
        <time>2019-10-20T09:34:52.001Z</time>
      </trkpt>
      <trkpt lat="42.03828" lon="8.75476">
        <ele>92.412</ele>
        <time>2019-10-20T09:35:25.001Z</time>
      </trkpt>
      <trkpt lat="42.03819" lon="8.75409">
        <ele>97.08</ele>
        <time>2019-10-20T09:35:55.001Z</time>
      </trkpt>
      <trkpt lat="42.03797" lon="8.75345">
        <ele>100.547</ele>
        <time>2019-10-20T09:36:25.001Z</time>
      </trkpt>
      <trkpt lat="42.03758" lon="8.75293">
        <ele>104.354</ele>
        <time>2019-10-20T09:36:55.001Z</time>
      </trkpt>
      <trkpt lat="42.03713" lon="8.75252">
        <ele>108.175</ele>
        <time>2019-10-20T09:37:25.001Z</time>
      </trkpt>
      <trkpt lat="42.03654" lon="8.75242">
        <ele>112.906</ele>
        <time>2019-10-20T09:37:58.001Z</time>
      </trkpt>
      <trkpt lat="42.03601" lon="8.75282">
        <ele>115.33</ele>
        <time>2019-10-20T09:38:28.001Z</time>
      </trkpt>
      <trkpt lat="42.0358" lon="8.7535">
        <ele>117.069</ele>
        <time>2019-10-20T09:38:58.001Z</time>
      </trkpt>
      <trkpt lat="42.03565" lon="8.75428">
        <ele>121.138</ele>
        <time>2019-10-20T09:39:31.001Z</time>
      </trkpt>
      <trkpt lat="42.03544" lon="8.75501">
        <ele>125.187</ele>
        <time>2019-10-20T09:40:01.001Z</time>
      </trkpt>
      <trkpt lat="42.03497" lon="8.75551">
        <ele>128.28</ele>
        <time>2019-10-20T09:40:34.001Z</time>
      </trkpt>
      <trkpt lat="42.03446" lon="8.75586">
        <ele>131.18</ele>
        <time>2019-10-20T09:41:04.001Z</time>
      </trkpt>
      <trkpt lat="42.03399" lon="8.75619">
        <ele>137.919</ele>
        <time>2019-10-20T09:41:34.001Z</time>
      </trkpt>
      <trkpt lat="42.03371" lon="8.75673">
        <ele>139.117</ele>
        <time>2019-10-20T09:42:04.001Z</time>
      </trkpt>
      <trkpt lat="42.03373" lon="8.75745">
        <ele>142.32</ele>
        <time>2019-10-20T09:42:37.001Z</time>
      </trkpt>
      <trkpt lat="42.03408" lon="8.75799">
        <ele>148.283</ele>
        <time>2019-10-20T09:43:07.001Z</time>
      </trkpt>
      <trkpt lat="42.03438" lon="8.7586">
        <ele>153.32</ele>
        <time>2019-10-20T09:43:37.001Z</time>
      </trkpt>
      <trkpt lat="42.03449" lon="8.75931">
        <ele>154.383</ele>
        <time>2019-10-20T09:44:07.001Z</time>
      </trkpt>
      <trkpt lat="42.03458" lon="8.76">
        <ele>158.487</ele>
        <time>2019-10-20T09:44:37.001Z</time>
      </trkpt>
      <trkpt lat="42.03444" lon="8.76068">
        <ele>163.101</ele>
        <time>2019-10-20T09:45:07.001Z</time>
      </trkpt>
      <trkpt lat="42.03403" lon="8.76118">
        <ele>167.407</ele>
        <time>2019-10-20T09:45:37.001Z</time>
      </trkpt>
      <trkpt lat="42.03393" lon="8.76185">
        <ele>168.403</ele>
        <time>2019-10-20T09:46:07.001Z</time>
      </trkpt>
      <trkpt lat="42.03412" lon="8.76236">
        <ele>172.403</ele>
        <time>2019-10-20T09:53:01.001Z</time>
      </trkpt>
      <trkpt lat="42.03451" lon="8.76294">
        <ele>179.152</ele>
        <time>2019-10-20T09:53:31.001Z</time>
      </trkpt>
      <trkpt lat="42.03481" lon="8.76356">
        <ele>182.159</ele>
        <time>2019-10-20T09:54:01.001Z</time>
      </trkpt>
      <trkpt lat="42.03475" lon="8.76432">
        <ele>183.268</ele>
        <time>2019-10-20T09:54:31.001Z</time>
      </trkpt>
      <trkpt lat="42.03433" lon="8.76477">
        <ele>188.468</ele>
        <time>2019-10-20T09:55:01.001Z</time>
      </trkpt>
      <trkpt lat="42.03373" lon="8.76481">
        <ele>191.559</ele>
        <time>2019-10-20T09:55:34.001Z</time>
      </trkpt>
      <trkpt lat="42.03318" lon="8.7648">
        <ele>194.935</ele>
        <time>2019-10-20T09:56:04.001Z</time>
      </trkpt>
      <trkpt lat="42.0326" lon="8.76478">
        <ele>201.371</ele>
        <time>2019-10-20T09:56:34.001Z</time>
      </trkpt>
      <trkpt lat="42.03204" lon="8.76511">
        <ele>206.342</ele>
        <time>2019-10-20T09:57:04.001Z</time>
      </trkpt>
      <trkpt lat="42.03153" lon="8.76536">
        <ele>205.214</ele>
        <time>2019-10-20T09:57:34.001Z</time>
      </trkpt>
      <trkpt lat="42.03154" lon="8.76479">
        <ele>208.299</ele>
        <time>2019-10-20T09:58:04.001Z</time>
      </trkpt>
      <trkpt lat="42.03212" lon="8.76457">
        <ele>215.613</ele>
        <time>2019-10-20T09:58:34.001Z</time>
      </trkpt>
      <trkpt lat="42.03269" lon="8.76438">
        <ele>215.1</ele>
        <time>2019-10-20T09:59:04.001Z</time>
      </trkpt>
      <trkpt lat="42.03324" lon="8.7642">
        <ele>220.746</ele>
        <time>2019-10-20T09:59:34.001Z</time>
      </trkpt>
      <trkpt lat="42.03329" lon="8.76351">
        <ele>222.988</ele>
        <time>2019-10-20T10:00:04.001Z</time>
      </trkpt>
      <trkpt lat="42.03276" lon="8.76335">
        <ele>228.285</ele>
        <time>2019-10-20T10:00:34.001Z</time>
      </trkpt>
      <trkpt lat="42.03219" lon="8.7632">
        <ele>231.264</ele>
        <time>2019-10-20T10:01:04.001Z</time>
      </trkpt>
      <trkpt lat="42.03189" lon="8.76257">
        <ele>233.911</ele>
        <time>2019-10-20T10:01:34.001Z</time>
      </trkpt>
      <trkpt lat="42.03186" lon="8.76187">
        <ele>238.131</ele>
        <time>2019-10-20T10:02:04.001Z</time>
      </trkpt>
      <trkpt lat="42.03148" lon="8.76124">
        <ele>247.026</ele>
        <time>2019-10-20T10:02:40.001Z</time>
      </trkpt>
      <trkpt lat="42.03097" lon="8.76098">
        <ele>252.753</ele>
        <time>2019-10-20T10:03:10.001Z</time>
      </trkpt>
      <trkpt lat="42.03077" lon="8.7604">
        <ele>255.941</ele>
        <time>2019-10-20T10:03:40.001Z</time>
      </trkpt>
      <trkpt lat="42.03054" lon="8.75976">
        <ele>257.873</ele>
        <time>2019-10-20T10:04:10.001Z</time>
      </trkpt>
      <trkpt lat="42.02997" lon="8.75983">
        <ele>261.999</ele>
        <time>2019-10-20T10:04:43.001Z</time>
      </trkpt>
      <trkpt lat="42.02954" lon="8.75958">
        <ele>263.167</ele>
        <time>2019-10-20T10:05:13.001Z</time>
      </trkpt>
      <trkpt lat="42.02973" lon="8.75879">
        <ele>267.349</ele>
        <time>2019-10-20T10:05:52.001Z</time>
      </trkpt>
      <trkpt lat="42.0298" lon="8.75804">
        <ele>271.523</ele>
        <time>2019-10-20T10:06:22.001Z</time>
      </trkpt>
      <trkpt lat="42.02988" lon="8.75734">
        <ele>275.101</ele>
        <time>2019-10-20T10:06:52.001Z</time>
      </trkpt>
      <trkpt lat="42.03021" lon="8.75669">
        <ele>277.971</ele>
        <time>2019-10-20T10:07:25.001Z</time>
      </trkpt>
      <trkpt lat="42.03024" lon="8.75594">
        <ele>282.19</ele>
        <time>2019-10-20T10:07:55.001Z</time>
      </trkpt>
      <trkpt lat="42.02996" lon="8.75531">
        <ele>282.617</ele>
        <time>2019-10-20T10:08:25.001Z</time>
      </trkpt>
      <trkpt lat="42.02996" lon="8.75537">
        <ele>281.905</ele>
        <time>2019-10-20T10:14:07.001Z</time>
      </trkpt>
      <trkpt lat="42.02938" lon="8.75508">
        <ele>287.199</ele>
        <time>2019-10-20T10:14:40.001Z</time>
      </trkpt>
      <trkpt lat="42.02917" lon="8.7544">
        <ele>296.581</ele>
        <time>2019-10-20T10:15:10.001Z</time>
      </trkpt>
      <trkpt lat="42.02895" lon="8.75364">
        <ele>303.803</ele>
        <time>2019-10-20T10:15:43.001Z</time>
      </trkpt>
      <trkpt lat="42.0287" lon="8.75294">
        <ele>305.765</ele>
        <time>2019-10-20T10:16:13.001Z</time>
      </trkpt>
      <trkpt lat="42.02855" lon="8.75221">
        <ele>305.674</ele>
        <time>2019-10-20T10:16:43.001Z</time>
      </trkpt>
      <trkpt lat="42.02806" lon="8.75171">
        <ele>307.5</ele>
        <time>2019-10-20T10:17:13.001Z</time>
      </trkpt>
      <trkpt lat="42.02748" lon="8.75152">
        <ele>312.455</ele>
        <time>2019-10-20T10:17:43.001Z</time>
      </trkpt>
      <trkpt lat="42.02729" lon="8.75085">
        <ele>319.788</ele>
        <time>2019-10-20T10:18:13.001Z</time>
      </trkpt>
      <trkpt lat="42.02696" lon="8.75019">
        <ele>317.762</ele>
        <time>2019-10-20T10:18:43.001Z</time>
      </trkpt>
      <trkpt lat="42.02639" lon="8.74995">
        <ele>322.634</ele>
        <time>2019-10-20T10:19:13.001Z</time>
      </trkpt>
      <trkpt lat="42.02611" lon="8.74934">
        <ele>323.98</ele>
        <time>2019-10-20T10:19:43.001Z</time>
      </trkpt>
      <trkpt lat="42.02618" lon="8.74851">
        <ele>332.964</ele>
        <time>2019-10-20T10:20:19.001Z</time>
      </trkpt>
      <trkpt lat="42.02635" lon="8.74769">
        <ele>335.52</ele>
        <time>2019-10-20T10:20:49.001Z</time>
      </trkpt>
      <trkpt lat="42.02605" lon="8.74704">
        <ele>331.169</ele>
        <time>2019-10-20T10:21:19.001Z</time>
      </trkpt>
      <trkpt lat="42.02557" lon="8.74666">
        <ele>334.519</ele>
        <time>2019-10-20T10:21:49.001Z</time>
      </trkpt>
      <trkpt lat="42.02506" lon="8.74642">
        <ele>339.212</ele>
        <time>2019-10-20T10:22:19.001Z</time>
      </trkpt>
      <trkpt lat="42.02452" lon="8.74624">
        <ele>343.682</ele>
        <time>2019-10-20T10:22:49.001Z</time>
      </trkpt>
      <trkpt lat="42.02444" lon="8.7459">
        <ele>345.281</ele>
        <time>2019-10-20T10:25:19.001Z</time>
      </trkpt>
      <trkpt lat="42.02433" lon="8.74517">
        <ele>343.88</ele>
        <time>2019-10-20T10:25:55.001Z</time>
      </trkpt>
      <trkpt lat="42.02417" lon="8.74444">
        <ele>351.196</ele>
        <time>2019-10-20T10:26:25.001Z</time>
      </trkpt>
      <trkpt lat="42.02363" lon="8.74411">
        <ele>355.981</ele>
        <time>2019-10-20T10:26:55.001Z</time>
      </trkpt>
      <trkpt lat="42.02311" lon="8.74365">
        <ele>355.992</ele>
        <time>2019-10-20T10:27:25.001Z</time>
      </trkpt>
      <trkpt lat="42.0228" lon="8.74304">
        <ele>360.463</ele>
        <time>2019-10-20T10:27:55.001Z</time>
      </trkpt>
      <trkpt lat="42.02262" lon="8.74229">
        <ele>365.837</ele>
        <time>2019-10-20T10:28:25.001Z</time>
      </trkpt>
      <trkpt lat="42.0222" lon="8.74181">
        <ele>368.542</ele>
        <time>2019-10-20T10:28:55.001Z</time>
      </trkpt>
      <trkpt lat="42.02175" lon="8.74135">
        <ele>372.096</ele>
        <time>2019-10-20T10:29:25.001Z</time>
      </trkpt>
      <trkpt lat="42.02192" lon="8.74073">
        <ele>381.494</ele>
        <time>2019-10-20T10:29:55.001Z</time>
      </trkpt>
      <trkpt lat="42.02211" lon="8.73997">
        <ele>383.274</ele>
        <time>2019-10-20T10:30:25.001Z</time>
      </trkpt>
      <trkpt lat="42.02179" lon="8.73929">
        <ele>384.552</ele>
        <time>2019-10-20T10:30:55.001Z</time>
      </trkpt>
      <trkpt lat="42.02144" lon="8.73863">
        <ele>387.879</ele>
        <time>2019-10-20T10:31:25.001Z</time>
      </trkpt>
      <trkpt lat="42.02126" lon="8.73791">
        <ele>389.864</ele>
        <time>2019-10-20T10:31:55.001Z</time>
      </trkpt>
      <trkpt lat="42.02116" lon="8.73716">
        <ele>392.466</ele>
        <time>2019-10-20T10:32:25.001Z</time>
      </trkpt>
      <trkpt lat="42.02151" lon="8.73661">
        <ele>396.934</ele>
        <time>2019-10-20T10:32:55.001Z</time>
      </trkpt>
      <trkpt lat="42.02165" lon="8.73591">
        <ele>402.767</ele>
        <time>2019-10-20T10:33:25.001Z</time>
      </trkpt>
      <trkpt lat="42.02193" lon="8.73532">
        <ele>408.557</ele>
        <time>2019-10-20T10:33:55.001Z</time>
      </trkpt>
      <trkpt lat="42.02217" lon="8.73472">
        <ele>408.432</ele>
        <time>2019-10-20T10:34:25.001Z</time>
      </trkpt>
      <trkpt lat="42.02173" lon="8.73414">
        <ele>408.643</ele>
        <time>2019-10-20T10:34:58.001Z</time>
      </trkpt>
      <trkpt lat="42.0211" lon="8.7339">
        <ele>405.482</ele>
        <time>2019-10-20T10:40:37.001Z</time>
      </trkpt>
      <trkpt lat="42.01995" lon="8.7333">
        <ele>403.189</ele>
        <time>2019-10-20T10:41:07.001Z</time>
      </trkpt>
      <trkpt lat="42.01786" lon="8.73094">
        <ele>392.901</ele>
        <time>2019-10-20T10:41:37.001Z</time>
      </trkpt>
      <trkpt lat="42.01594" lon="8.72949">
        <ele>364.626</ele>
        <time>2019-10-20T10:42:07.001Z</time>
      </trkpt>
      <trkpt lat="42.01394" lon="8.73214">
        <ele>340.513</ele>
        <time>2019-10-20T10:42:37.001Z</time>
      </trkpt>
      <trkpt lat="42.01448" lon="8.73565">
        <ele>317.99</ele>
        <time>2019-10-20T10:43:07.001Z</time>
      </trkpt>
      <trkpt lat="42.01274" lon="8.73833">
        <ele>297.119</ele>
        <time>2019-10-20T10:43:37.001Z</time>
      </trkpt>
      <trkpt lat="42.01043" lon="8.73944">
        <ele>282.283</ele>
        <time>2019-10-20T10:44:07.001Z</time>
      </trkpt>
      <trkpt lat="42.0107" lon="8.74277">
        <ele>262.495</ele>
        <time>2019-10-20T10:44:37.001Z</time>
      </trkpt>
      <trkpt lat="42.01068" lon="8.74701">
        <ele>242.92</ele>
        <time>2019-10-20T10:45:07.001Z</time>
      </trkpt>
      <trkpt lat="42.0087" lon="8.74916">
        <ele>223.22</ele>
        <time>2019-10-20T10:45:37.001Z</time>
      </trkpt>
      <trkpt lat="42.00647" lon="8.74617">
        <ele>206.729</ele>
        <time>2019-10-20T10:46:07.001Z</time>
      </trkpt>
      <trkpt lat="42.00613" lon="8.74369">
        <ele>206.034</ele>
        <time>2019-10-20T10:46:37.001Z</time>
      </trkpt>
      <trkpt lat="42.00506" lon="8.74313">
        <ele>212.533</ele>
        <time>2019-10-20T10:47:07.001Z</time>
      </trkpt>
      <trkpt lat="42.00441" lon="8.74435">
        <ele>214.323</ele>
        <time>2019-10-20T10:47:37.001Z</time>
      </trkpt>
      <trkpt lat="42.00348" lon="8.74495">
        <ele>217.188</ele>
        <time>2019-10-20T10:48:07.001Z</time>
      </trkpt>
      <trkpt lat="42.00359" lon="8.74616">
        <ele>216.773</ele>
        <time>2019-10-20T10:48:37.001Z</time>
      </trkpt>
      <trkpt lat="42.00436" lon="8.74742">
        <ele>217.72</ele>
        <time>2019-10-20T10:49:07.001Z</time>
      </trkpt>
      <trkpt lat="42.00413" lon="8.74878">
        <ele>218.879</ele>
        <time>2019-10-20T10:49:37.001Z</time>
      </trkpt>
      <trkpt lat="42.00356" lon="8.75">
        <ele>222.817</ele>
        <time>2019-10-20T10:50:07.001Z</time>
      </trkpt>
      <trkpt lat="42.0035" lon="8.75123">
        <ele>226.268</ele>
        <time>2019-10-20T10:50:37.001Z</time>
      </trkpt>
      <trkpt lat="42.00378" lon="8.75258">
        <ele>229.104</ele>
        <time>2019-10-20T10:51:07.001Z</time>
      </trkpt>
      <trkpt lat="42.0037" lon="8.75401">
        <ele>226.704</ele>
        <time>2019-10-20T10:51:37.001Z</time>
      </trkpt>
      <trkpt lat="42.00339" lon="8.75527">
        <ele>225.749</ele>
        <time>2019-10-20T10:52:07.001Z</time>
      </trkpt>
      <trkpt lat="42.00259" lon="8.75592">
        <ele>228.385</ele>
        <time>2019-10-20T10:52:37.001Z</time>
      </trkpt>
      <trkpt lat="42.00169" lon="8.7559">
        <ele>229.526</ele>
        <time>2019-10-20T10:53:07.001Z</time>
      </trkpt>
      <trkpt lat="42.00054" lon="8.75643">
        <ele>227.066</ele>
        <time>2019-10-20T10:53:37.001Z</time>
      </trkpt>
      <trkpt lat="41.99782" lon="8.75658">
        <ele>211.732</ele>
        <time>2019-10-20T10:54:07.001Z</time>
      </trkpt>
      <trkpt lat="41.99469" lon="8.75851">
        <ele>184.801</ele>
        <time>2019-10-20T10:54:37.001Z</time>
      </trkpt>
      <trkpt lat="41.99284" lon="8.7631">
        <ele>159.024</ele>
        <time>2019-10-20T10:55:07.001Z</time>
      </trkpt>
      <trkpt lat="41.99117" lon="8.76798">
        <ele>128.276</ele>
        <time>2019-10-20T10:55:37.001Z</time>
      </trkpt>
      <trkpt lat="41.98877" lon="8.77067">
        <ele>114.269</ele>
        <time>2019-10-20T10:56:07.001Z</time>
      </trkpt>
      <trkpt lat="41.98689" lon="8.77281">
        <ele>108.326</ele>
        <time>2019-10-20T10:56:37.001Z</time>
      </trkpt>
      <trkpt lat="41.98521" lon="8.77432">
        <ele>105.881</ele>
        <time>2019-10-20T10:57:07.001Z</time>
      </trkpt>
      <trkpt lat="41.98366" lon="8.77567">
        <ele>102.979</ele>
        <time>2019-10-20T10:57:37.001Z</time>
      </trkpt>
      <trkpt lat="41.98237" lon="8.77672">
        <ele>102.692</ele>
        <time>2019-10-20T10:58:07.001Z</time>
      </trkpt>
      <trkpt lat="41.9816" lon="8.77739">
        <ele>99.594</ele>
        <time>2019-10-20T11:01:13.001Z</time>
      </trkpt>
      <trkpt lat="41.98018" lon="8.77823">
        <ele>94.736</ele>
        <time>2019-10-20T11:01:43.001Z</time>
      </trkpt>
      <trkpt lat="41.97869" lon="8.77904">
        <ele>93.258</ele>
        <time>2019-10-20T11:02:13.001Z</time>
      </trkpt>
      <trkpt lat="41.97721" lon="8.7798">
        <ele>95.314</ele>
        <time>2019-10-20T11:02:43.001Z</time>
      </trkpt>
      <trkpt lat="41.97578" lon="8.78066">
        <ele>94.482</ele>
        <time>2019-10-20T11:03:13.001Z</time>
      </trkpt>
      <trkpt lat="41.9743" lon="8.78086">
        <ele>95.424</ele>
        <time>2019-10-20T11:03:43.001Z</time>
      </trkpt>
      <trkpt lat="41.97303" lon="8.77993">
        <ele>92.545</ele>
        <time>2019-10-20T11:04:13.001Z</time>
      </trkpt>
      <trkpt lat="41.97227" lon="8.77951">
        <ele>98.608</ele>
        <time>2019-10-20T11:04:43.001Z</time>
      </trkpt>
      <trkpt lat="41.97159" lon="8.77925">
        <ele>105.699</ele>
        <time>2019-10-20T11:05:13.001Z</time>
      </trkpt>
      <trkpt lat="41.9703" lon="8.77869">
        <ele>101.22</ele>
        <time>2019-10-20T11:05:43.001Z</time>
      </trkpt>
      <trkpt lat="41.96799" lon="8.77925">
        <ele>88.756</ele>
        <time>2019-10-20T11:06:13.001Z</time>
      </trkpt>
      <trkpt lat="41.96566" lon="8.78018">
        <ele>82.323</ele>
        <time>2019-10-20T11:06:43.001Z</time>
      </trkpt>
      <trkpt lat="41.96342" lon="8.7815">
        <ele>74.632</ele>
        <time>2019-10-20T11:07:13.001Z</time>
      </trkpt>
      <trkpt lat="41.96075" lon="8.78023">
        <ele>56.707</ele>
        <time>2019-10-20T11:07:43.001Z</time>
      </trkpt>
      <trkpt lat="41.95814" lon="8.78093">
        <ele>52.077</ele>
        <time>2019-10-20T11:08:13.001Z</time>
      </trkpt>
      <trkpt lat="41.95643" lon="8.78206">
        <ele>48.502</ele>
        <time>2019-10-20T11:08:43.001Z</time>
      </trkpt>
      <trkpt lat="41.955" lon="8.78378">
        <ele>48.071</ele>
        <time>2019-10-20T11:09:13.001Z</time>
      </trkpt>
      <trkpt lat="41.9531" lon="8.78352">
        <ele>41.344</ele>
        <time>2019-10-20T11:09:43.001Z</time>
      </trkpt>
      <trkpt lat="41.95247" lon="8.78277">
        <ele>38.469</ele>
        <time>2019-10-20T11:10:13.001Z</time>
      </trkpt>
      <trkpt lat="41.95119" lon="8.78156">
        <ele>37.725</ele>
        <time>2019-10-20T11:10:43.001Z</time>
      </trkpt>
      <trkpt lat="41.95118" lon="8.78007">
        <ele>43.047</ele>
        <time>2019-10-20T11:11:13.001Z</time>
      </trkpt>
      <trkpt lat="41.95094" lon="8.77858">
        <ele>45.699</ele>
        <time>2019-10-20T11:11:43.001Z</time>
      </trkpt>
      <trkpt lat="41.95057" lon="8.77747">
        <ele>49.382</ele>
        <time>2019-10-20T11:12:13.001Z</time>
      </trkpt>
      <trkpt lat="41.95019" lon="8.77645">
        <ele>50.27</ele>
        <time>2019-10-20T11:12:43.001Z</time>
      </trkpt>
      <trkpt lat="41.9497" lon="8.77598">
        <ele>53.606</ele>
        <time>2019-10-20T11:13:13.001Z</time>
      </trkpt>
      <trkpt lat="41.94922" lon="8.7753">
        <ele>64.391</ele>
        <time>2019-10-20T11:13:43.001Z</time>
      </trkpt>
      <trkpt lat="41.94887" lon="8.77484">
        <ele>65.808</ele>
        <time>2019-10-20T11:14:13.001Z</time>
      </trkpt>
      <trkpt lat="41.94904" lon="8.77509">
        <ele>65.059</ele>
        <time>2019-10-20T11:20:13.001Z</time>
      </trkpt>
      <trkpt lat="41.94999" lon="8.77423">
        <ele>65.292</ele>
        <time>2019-10-20T11:20:43.001Z</time>
      </trkpt>
      <trkpt lat="41.95082" lon="8.77288">
        <ele>70</ele>
        <time>2019-10-20T11:21:13.001Z</time>
      </trkpt>
      <trkpt lat="41.95031" lon="8.772">
        <ele>66.256</ele>
        <time>2019-10-20T11:21:43.001Z</time>
      </trkpt>
      <trkpt lat="41.94998" lon="8.771">
        <ele>68.672</ele>
        <time>2019-10-20T11:22:13.001Z</time>
      </trkpt>
      <trkpt lat="41.94947" lon="8.7685">
        <ele>64.658</ele>
        <time>2019-10-20T11:22:43.001Z</time>
      </trkpt>
      <trkpt lat="41.94835" lon="8.7656">
        <ele>50.952</ele>
        <time>2019-10-20T11:23:13.001Z</time>
      </trkpt>
      <trkpt lat="41.94721" lon="8.76256">
        <ele>41.048</ele>
        <time>2019-10-20T11:23:43.001Z</time>
      </trkpt>
      <trkpt lat="41.94566" lon="8.75963">
        <ele>30.786</ele>
        <time>2019-10-20T11:24:13.001Z</time>
      </trkpt>
      <trkpt lat="41.94485" lon="8.75721">
        <ele>22.998</ele>
        <time>2019-10-20T11:24:43.001Z</time>
      </trkpt>
      <trkpt lat="41.94438" lon="8.75613">
        <ele>25.673</ele>
        <time>2019-10-20T11:25:13.001Z</time>
      </trkpt>
      <trkpt lat="41.944" lon="8.75515">
        <ele>28.474</ele>
        <time>2019-10-20T11:25:43.001Z</time>
      </trkpt>
      <trkpt lat="41.94351" lon="8.75396">
        <ele>30.157</ele>
        <time>2019-10-20T11:26:13.001Z</time>
      </trkpt>
      <trkpt lat="41.94271" lon="8.7519">
        <ele>28.015</ele>
        <time>2019-10-20T11:26:43.001Z</time>
      </trkpt>
      <trkpt lat="41.94227" lon="8.75028">
        <ele>30.122</ele>
        <time>2019-10-20T11:27:13.001Z</time>
      </trkpt>
      <trkpt lat="41.94192" lon="8.74874">
        <ele>32.671</ele>
        <time>2019-10-20T11:27:43.001Z</time>
      </trkpt>
      <trkpt lat="41.94128" lon="8.74659">
        <ele>27.705</ele>
        <time>2019-10-20T11:28:13.001Z</time>
      </trkpt>
      <trkpt lat="41.94007" lon="8.74592">
        <ele>23.192</ele>
        <time>2019-10-20T11:28:43.001Z</time>
      </trkpt>
      <trkpt lat="41.9384" lon="8.74517">
        <ele>19.627</ele>
        <time>2019-10-20T11:29:13.001Z</time>
      </trkpt>
      <trkpt lat="41.93702" lon="8.74466">
        <ele>17.211</ele>
        <time>2019-10-20T11:29:43.001Z</time>
      </trkpt>
      <trkpt lat="41.93581" lon="8.74442">
        <ele>19.055</ele>
        <time>2019-10-20T11:30:13.001Z</time>
      </trkpt>
      <trkpt lat="41.93468" lon="8.7453">
        <ele>14.182</ele>
        <time>2019-10-20T11:30:43.001Z</time>
      </trkpt>
      <trkpt lat="41.93404" lon="8.74495">
        <ele>0.98</ele>
        <time>2019-10-20T11:31:16Z</time>
      </trkpt>
      <trkpt lat="41.93343" lon="8.74351">
        <ele>2.7</ele>
        <time>2019-10-20T11:31:49.001Z</time>
      </trkpt>
      <trkpt lat="41.93285" lon="8.74194">
        <ele>1.066</ele>
        <time>2019-10-20T11:32:19.001Z</time>
      </trkpt>
      <trkpt lat="41.9322" lon="8.7405">
        <ele>3.17</ele>
        <time>2019-10-20T11:32:49.001Z</time>
      </trkpt>
      <trkpt lat="41.93109" lon="8.73974">
        <ele>4.709</ele>
        <time>2019-10-20T11:33:19.001Z</time>
      </trkpt>
      <trkpt lat="41.92998" lon="8.73933">
        <ele>6.887</ele>
        <time>2019-10-20T11:33:49.001Z</time>
      </trkpt>
      <trkpt lat="41.92903" lon="8.73892">
        <ele>5.015</ele>
        <time>2019-10-20T11:34:19.001Z</time>
      </trkpt>
      <trkpt lat="41.92812" lon="8.73871">
        <ele>7.298</ele>
        <time>2019-10-20T11:34:49.001Z</time>
      </trkpt>
      <trkpt lat="41.92718" lon="8.73849">
        <ele>8.923</ele>
        <time>2019-10-20T11:35:19.001Z</time>
      </trkpt>
      <trkpt lat="41.92642" lon="8.73834">
        <ele>10.511</ele>
        <time>2019-10-20T11:35:49.001Z</time>
      </trkpt>
      <trkpt lat="41.92643" lon="8.73825">
        <ele>9.945</ele>
        <time>2019-10-20T11:36:49.001Z</time>
      </trkpt>
      <trkpt lat="41.92598" lon="8.7382">
        <ele>9.321</ele>
        <time>2019-10-20T11:37:55.001Z</time>
      </trkpt>
      <trkpt lat="41.92526" lon="8.73824">
        <ele>11.186</ele>
        <time>2019-10-20T11:42:50.001Z</time>
      </trkpt>
    </trkseg>
  </trk>
  <trk>
    <name><![CDATA[Tracé 20191021-070715]]></name>
    <trkseg>
      <trkpt lat="43.11708" lon="5.93384">
        <ele>3</ele>
        <time>2019-10-21T05:07:27Z</time>
      </trkpt>
      <trkpt lat="43.11783" lon="5.93374">
        <ele>3</ele>
        <time>2019-10-21T05:09:25Z</time>
      </trkpt>
      <trkpt lat="43.11743" lon="5.93411">
        <ele>3</ele>
        <time>2019-10-21T05:10:01Z</time>
      </trkpt>
      <trkpt lat="43.11761" lon="5.93428">
        <ele>3.1</ele>
        <time>2019-10-21T05:10:40Z</time>
      </trkpt>
      <trkpt lat="43.11726" lon="5.93507">
        <ele>9.884</ele>
        <time>2019-10-21T05:11:10Z</time>
      </trkpt>
      <trkpt lat="43.11769" lon="5.93557">
        <ele>8.936</ele>
        <time>2019-10-21T05:11:43Z</time>
      </trkpt>
      <trkpt lat="43.11742" lon="5.93603">
        <ele>15.105</ele>
        <time>2019-10-21T05:15:13Z</time>
      </trkpt>
      <trkpt lat="43.11747" lon="5.93595">
        <ele>16.572</ele>
        <time>2019-10-21T05:17:34Z</time>
      </trkpt>
      <trkpt lat="43.1183" lon="5.93701">
        <ele>14.293</ele>
        <time>2019-10-21T05:18:10Z</time>
      </trkpt>
      <trkpt lat="43.11934" lon="5.93809">
        <ele>41.304</ele>
        <time>2019-10-21T05:18:40Z</time>
      </trkpt>
      <trkpt lat="43.11969" lon="5.93892">
        <ele>50.049</ele>
        <time>2019-10-21T05:19:19Z</time>
      </trkpt>
      <trkpt lat="43.12046" lon="5.93974">
        <ele>69.442</ele>
        <time>2019-10-21T05:19:52Z</time>
      </trkpt>
      <trkpt lat="43.12108" lon="5.94104">
        <ele>53.195</ele>
        <time>2019-10-21T05:20:25Z</time>
      </trkpt>
      <trkpt lat="43.12113" lon="5.94239">
        <ele>18.819</ele>
        <time>2019-10-21T05:21:01Z</time>
      </trkpt>
      <trkpt lat="43.12074" lon="5.94423">
        <ele>13.461</ele>
        <time>2019-10-21T05:21:34Z</time>
      </trkpt>
      <trkpt lat="43.12029" lon="5.94606">
        <ele>19.485</ele>
        <time>2019-10-21T05:22:07Z</time>
      </trkpt>
      <trkpt lat="43.11968" lon="5.94714">
        <ele>8.86</ele>
        <time>2019-10-21T05:22:40Z</time>
      </trkpt>
      <trkpt lat="43.11989" lon="5.94862">
        <ele>5.3</ele>
        <time>2019-10-21T05:23:13Z</time>
      </trkpt>
      <trkpt lat="43.12001" lon="5.95023">
        <ele>7.04</ele>
        <time>2019-10-21T05:23:43Z</time>
      </trkpt>
      <trkpt lat="43.12046" lon="5.95191">
        <ele>11.402</ele>
        <time>2019-10-21T05:24:16Z</time>
      </trkpt>
      <trkpt lat="43.12094" lon="5.95338">
        <ele>12.538</ele>
        <time>2019-10-21T05:24:46Z</time>
      </trkpt>
      <trkpt lat="43.12157" lon="5.9548">
        <ele>18.896</ele>
        <time>2019-10-21T05:25:19Z</time>
      </trkpt>
      <trkpt lat="43.122" lon="5.95617">
        <ele>16.629</ele>
        <time>2019-10-21T05:25:49Z</time>
      </trkpt>
      <trkpt lat="43.12255" lon="5.95777">
        <ele>14.482</ele>
        <time>2019-10-21T05:26:22Z</time>
      </trkpt>
      <trkpt lat="43.12313" lon="5.95943">
        <ele>16.972</ele>
        <time>2019-10-21T05:26:55Z</time>
      </trkpt>
      <trkpt lat="43.12332" lon="5.96078">
        <ele>21.206</ele>
        <time>2019-10-21T05:27:25Z</time>
      </trkpt>
      <trkpt lat="43.12296" lon="5.96241">
        <ele>27.564</ele>
        <time>2019-10-21T05:27:58Z</time>
      </trkpt>
      <trkpt lat="43.12215" lon="5.96393">
        <ele>36.467</ele>
        <time>2019-10-21T05:28:28Z</time>
      </trkpt>
      <trkpt lat="43.12275" lon="5.96607">
        <ele>28.852</ele>
        <time>2019-10-21T05:29:01Z</time>
      </trkpt>
      <trkpt lat="43.12192" lon="5.9674">
        <ele>26.583</ele>
        <time>2019-10-21T05:29:31Z</time>
      </trkpt>
      <trkpt lat="43.12047" lon="5.96837">
        <ele>27.351</ele>
        <time>2019-10-21T05:30:04Z</time>
      </trkpt>
      <trkpt lat="43.11926" lon="5.9695">
        <ele>31.442</ele>
        <time>2019-10-21T05:30:34Z</time>
      </trkpt>
      <trkpt lat="43.11801" lon="5.9707">
        <ele>29.263</ele>
        <time>2019-10-21T05:31:07Z</time>
      </trkpt>
      <trkpt lat="43.11715" lon="5.97235">
        <ele>30.185</ele>
        <time>2019-10-21T05:31:40Z</time>
      </trkpt>
      <trkpt lat="43.11673" lon="5.97433">
        <ele>29.983</ele>
        <time>2019-10-21T05:32:10Z</time>
      </trkpt>
      <trkpt lat="43.11608" lon="5.97643">
        <ele>18.797</ele>
        <time>2019-10-21T05:32:43Z</time>
      </trkpt>
      <trkpt lat="43.11584" lon="5.9783">
        <ele>25.645</ele>
        <time>2019-10-21T05:33:13Z</time>
      </trkpt>
      <trkpt lat="43.11542" lon="5.98045">
        <ele>27.193</ele>
        <time>2019-10-21T05:33:46Z</time>
      </trkpt>
      <trkpt lat="43.1155" lon="5.98153">
        <ele>31.919</ele>
        <time>2019-10-21T05:34:16Z</time>
      </trkpt>
      <trkpt lat="43.1152" lon="5.98316">
        <ele>28.928</ele>
        <time>2019-10-21T05:34:49Z</time>
      </trkpt>
      <trkpt lat="43.11441" lon="5.98442">
        <ele>26.03</ele>
        <time>2019-10-21T05:35:19Z</time>
      </trkpt>
      <trkpt lat="43.11352" lon="5.98568">
        <ele>28.41</ele>
        <time>2019-10-21T05:35:52Z</time>
      </trkpt>
      <trkpt lat="43.11271" lon="5.9871">
        <ele>29.252</ele>
        <time>2019-10-21T05:36:25Z</time>
      </trkpt>
      <trkpt lat="43.11207" lon="5.98914">
        <ele>31.696</ele>
        <time>2019-10-21T05:36:55Z</time>
      </trkpt>
      <trkpt lat="43.11175" lon="5.99146">
        <ele>29.966</ele>
        <time>2019-10-21T05:37:28Z</time>
      </trkpt>
      <trkpt lat="43.11165" lon="5.99346">
        <ele>25.293</ele>
        <time>2019-10-21T05:37:58Z</time>
      </trkpt>
      <trkpt lat="43.11124" lon="5.99489">
        <ele>32.254</ele>
        <time>2019-10-21T05:38:31Z</time>
      </trkpt>
      <trkpt lat="43.11084" lon="5.99599">
        <ele>36.525</ele>
        <time>2019-10-21T05:39:01Z</time>
      </trkpt>
      <trkpt lat="43.11032" lon="5.99737">
        <ele>39.03</ele>
        <time>2019-10-21T05:39:34Z</time>
      </trkpt>
      <trkpt lat="43.10975" lon="5.99887">
        <ele>41.306</ele>
        <time>2019-10-21T05:40:04Z</time>
      </trkpt>
      <trkpt lat="43.10937" lon="6.0005">
        <ele>43.151</ele>
        <time>2019-10-21T05:40:37Z</time>
      </trkpt>
      <trkpt lat="43.10916" lon="6.00268">
        <ele>37.391</ele>
        <time>2019-10-21T05:41:07Z</time>
      </trkpt>
      <trkpt lat="43.1088" lon="6.00462">
        <ele>29.927</ele>
        <time>2019-10-21T05:41:40Z</time>
      </trkpt>
      <trkpt lat="43.10861" lon="6.00674">
        <ele>32.667</ele>
        <time>2019-10-21T05:42:13Z</time>
      </trkpt>
      <trkpt lat="43.10854" lon="6.00859">
        <ele>34.983</ele>
        <time>2019-10-21T05:42:43Z</time>
      </trkpt>
      <trkpt lat="43.10855" lon="6.01064">
        <ele>45.733</ele>
        <time>2019-10-21T05:43:16Z</time>
      </trkpt>
      <trkpt lat="43.10877" lon="6.01241">
        <ele>44.016</ele>
        <time>2019-10-21T05:43:46Z</time>
      </trkpt>
      <trkpt lat="43.10984" lon="6.01451">
        <ele>29.848</ele>
        <time>2019-10-21T05:44:19Z</time>
      </trkpt>
      <trkpt lat="43.11062" lon="6.01631">
        <ele>27.086</ele>
        <time>2019-10-21T05:44:49Z</time>
      </trkpt>
      <trkpt lat="43.1094" lon="6.01654">
        <ele>26.588</ele>
        <time>2019-10-21T05:45:22Z</time>
      </trkpt>
      <trkpt lat="43.10805" lon="6.01646">
        <ele>33.858</ele>
        <time>2019-10-21T05:45:52Z</time>
      </trkpt>
      <trkpt lat="43.1075" lon="6.01776">
        <ele>35.752</ele>
        <time>2019-10-21T05:46:25Z</time>
      </trkpt>
      <trkpt lat="43.1088" lon="6.01933">
        <ele>38.925</ele>
        <time>2019-10-21T05:46:58Z</time>
      </trkpt>
      <trkpt lat="43.10876" lon="6.02146">
        <ele>30.793</ele>
        <time>2019-10-21T05:47:28Z</time>
      </trkpt>
      <trkpt lat="43.10803" lon="6.02311">
        <ele>30.117</ele>
        <time>2019-10-21T05:48:01Z</time>
      </trkpt>
      <trkpt lat="43.10721" lon="6.02426">
        <ele>34.677</ele>
        <time>2019-10-21T05:48:31Z</time>
      </trkpt>
      <trkpt lat="43.10687" lon="6.02541">
        <ele>35.886</ele>
        <time>2019-10-21T05:49:04Z</time>
      </trkpt>
      <trkpt lat="43.10694" lon="6.02665">
        <ele>35.817</ele>
        <time>2019-10-21T05:49:37Z</time>
      </trkpt>
      <trkpt lat="43.10719" lon="6.02836">
        <ele>39.204</ele>
        <time>2019-10-21T05:50:10Z</time>
      </trkpt>
      <trkpt lat="43.10765" lon="6.03017">
        <ele>38.158</ele>
        <time>2019-10-21T05:50:40Z</time>
      </trkpt>
      <trkpt lat="43.1079" lon="6.03175">
        <ele>42.079</ele>
        <time>2019-10-21T05:51:13Z</time>
      </trkpt>
      <trkpt lat="43.10808" lon="6.03352">
        <ele>40.001</ele>
        <time>2019-10-21T05:51:46Z</time>
      </trkpt>
      <trkpt lat="43.10864" lon="6.03506">
        <ele>38.177</ele>
        <time>2019-10-21T05:52:16Z</time>
      </trkpt>
      <trkpt lat="43.10906" lon="6.0373">
        <ele>35.218</ele>
        <time>2019-10-21T05:52:49Z</time>
      </trkpt>
      <trkpt lat="43.10876" lon="6.03887">
        <ele>37.807</ele>
        <time>2019-10-21T05:53:19Z</time>
      </trkpt>
      <trkpt lat="43.10875" lon="6.04104">
        <ele>41.755</ele>
        <time>2019-10-21T05:53:52Z</time>
      </trkpt>
      <trkpt lat="43.10897" lon="6.04298">
        <ele>43.958</ele>
        <time>2019-10-21T05:54:22Z</time>
      </trkpt>
      <trkpt lat="43.10888" lon="6.04524">
        <ele>38.824</ele>
        <time>2019-10-21T05:54:55Z</time>
      </trkpt>
      <trkpt lat="43.1084" lon="6.04703">
        <ele>39.69</ele>
        <time>2019-10-21T05:55:25Z</time>
      </trkpt>
      <trkpt lat="43.1077" lon="6.04904">
        <ele>34.566</ele>
        <time>2019-10-21T05:55:58Z</time>
      </trkpt>
      <trkpt lat="43.10684" lon="6.05075">
        <ele>36.328</ele>
        <time>2019-10-21T05:56:31Z</time>
      </trkpt>
      <trkpt lat="43.10584" lon="6.05203">
        <ele>42.634</ele>
        <time>2019-10-21T05:57:01Z</time>
      </trkpt>
      <trkpt lat="43.10465" lon="6.05349">
        <ele>42.519</ele>
        <time>2019-10-21T05:57:34Z</time>
      </trkpt>
      <trkpt lat="43.10365" lon="6.05475">
        <ele>42.953</ele>
        <time>2019-10-21T05:58:04Z</time>
      </trkpt>
      <trkpt lat="43.10263" lon="6.0562">
        <ele>43.014</ele>
        <time>2019-10-21T05:58:37Z</time>
      </trkpt>
      <trkpt lat="43.10177" lon="6.05748">
        <ele>42.752</ele>
        <time>2019-10-21T05:59:07Z</time>
      </trkpt>
      <trkpt lat="43.10115" lon="6.059">
        <ele>45.988</ele>
        <time>2019-10-21T05:59:40Z</time>
      </trkpt>
      <trkpt lat="43.10064" lon="6.06035">
        <ele>52.483</ele>
        <time>2019-10-21T06:00:10Z</time>
      </trkpt>
      <trkpt lat="43.09992" lon="6.06205">
        <ele>51.099</ele>
        <time>2019-10-21T06:00:43Z</time>
      </trkpt>
      <trkpt lat="43.09906" lon="6.06443">
        <ele>46.653</ele>
        <time>2019-10-21T06:01:16Z</time>
      </trkpt>
      <trkpt lat="43.09792" lon="6.06652">
        <ele>41.735</ele>
        <time>2019-10-21T06:01:46Z</time>
      </trkpt>
      <trkpt lat="43.09627" lon="6.06883">
        <ele>34.081</ele>
        <time>2019-10-21T06:02:19Z</time>
      </trkpt>
      <trkpt lat="43.09484" lon="6.07028">
        <ele>29.641</ele>
        <time>2019-10-21T06:02:49Z</time>
      </trkpt>
      <trkpt lat="43.09327" lon="6.07212">
        <ele>27.685</ele>
        <time>2019-10-21T06:03:22Z</time>
      </trkpt>
      <trkpt lat="43.09273" lon="6.07401">
        <ele>21.513</ele>
        <time>2019-10-21T06:03:52Z</time>
      </trkpt>
      <trkpt lat="43.09247" lon="6.07598">
        <ele>20.097</ele>
        <time>2019-10-21T06:04:25Z</time>
      </trkpt>
      <trkpt lat="43.09208" lon="6.07767">
        <ele>21.414</ele>
        <time>2019-10-21T06:04:55Z</time>
      </trkpt>
      <trkpt lat="43.0914" lon="6.07969">
        <ele>15.404</ele>
        <time>2019-10-21T06:05:28Z</time>
      </trkpt>
      <trkpt lat="43.09095" lon="6.08128">
        <ele>18.611</ele>
        <time>2019-10-21T06:06:01Z</time>
      </trkpt>
      <trkpt lat="43.09037" lon="6.08316">
        <ele>15.747</ele>
        <time>2019-10-21T06:06:31Z</time>
      </trkpt>
      <trkpt lat="43.09005" lon="6.08517">
        <ele>17.434</ele>
        <time>2019-10-21T06:07:04Z</time>
      </trkpt>
      <trkpt lat="43.08975" lon="6.08705">
        <ele>16.465</ele>
        <time>2019-10-21T06:07:34Z</time>
      </trkpt>
      <trkpt lat="43.08928" lon="6.0888">
        <ele>19.463</ele>
        <time>2019-10-21T06:08:07Z</time>
      </trkpt>
      <trkpt lat="43.08874" lon="6.09047">
        <ele>21.741</ele>
        <time>2019-10-21T06:08:37Z</time>
      </trkpt>
      <trkpt lat="43.08799" lon="6.0923">
        <ele>24.595</ele>
        <time>2019-10-21T06:09:10Z</time>
      </trkpt>
      <trkpt lat="43.08696" lon="6.09393">
        <ele>26.786</ele>
        <time>2019-10-21T06:09:40Z</time>
      </trkpt>
      <trkpt lat="43.08584" lon="6.09648">
        <ele>19.961</ele>
        <time>2019-10-21T06:10:13Z</time>
      </trkpt>
      <trkpt lat="43.08531" lon="6.09867">
        <ele>16.364</ele>
        <time>2019-10-21T06:10:43Z</time>
      </trkpt>
      <trkpt lat="43.08518" lon="6.1004">
        <ele>21.983</ele>
        <time>2019-10-21T06:11:16Z</time>
      </trkpt>
      <trkpt lat="43.08506" lon="6.10203">
        <ele>30.316</ele>
        <time>2019-10-21T06:11:49Z</time>
      </trkpt>
      <trkpt lat="43.08496" lon="6.10363">
        <ele>30.914</ele>
        <time>2019-10-21T06:12:19Z</time>
      </trkpt>
      <trkpt lat="43.08475" lon="6.10543">
        <ele>33.706</ele>
        <time>2019-10-21T06:12:52Z</time>
      </trkpt>
      <trkpt lat="43.08486" lon="6.10702">
        <ele>34.693</ele>
        <time>2019-10-21T06:13:22Z</time>
      </trkpt>
      <trkpt lat="43.08481" lon="6.10874">
        <ele>42.766</ele>
        <time>2019-10-21T06:13:55Z</time>
      </trkpt>
      <trkpt lat="43.0845" lon="6.11122">
        <ele>35.411</ele>
        <time>2019-10-21T06:14:25Z</time>
      </trkpt>
      <trkpt lat="43.08405" lon="6.11331">
        <ele>29.464</ele>
        <time>2019-10-21T06:14:58Z</time>
      </trkpt>
      <trkpt lat="43.08336" lon="6.11613">
        <ele>18.512</ele>
        <time>2019-10-21T06:15:28Z</time>
      </trkpt>
      <trkpt lat="43.08189" lon="6.11863">
        <ele>12.277</ele>
        <time>2019-10-21T06:16:01Z</time>
      </trkpt>
      <trkpt lat="43.0808" lon="6.12058">
        <ele>6.766</ele>
        <time>2019-10-21T06:16:34Z</time>
      </trkpt>
      <trkpt lat="43.08025" lon="6.12283">
        <ele>1.995</ele>
        <time>2019-10-21T06:17:04Z</time>
      </trkpt>
      <trkpt lat="43.07998" lon="6.12554">
        <ele>2.263</ele>
        <time>2019-10-21T06:17:37Z</time>
      </trkpt>
      <trkpt lat="43.08017" lon="6.12718">
        <ele>1.2</ele>
        <time>2019-10-21T06:18:07Z</time>
      </trkpt>
      <trkpt lat="43.08168" lon="6.12801">
        <ele>4.656</ele>
        <time>2019-10-21T06:18:40Z</time>
      </trkpt>
      <trkpt lat="43.08282" lon="6.12856">
        <ele>7.574</ele>
        <time>2019-10-21T06:19:10Z</time>
      </trkpt>
      <trkpt lat="43.08404" lon="6.12897">
        <ele>9.953</ele>
        <time>2019-10-21T06:19:43Z</time>
      </trkpt>
      <trkpt lat="43.08531" lon="6.12889">
        <ele>10.12</ele>
        <time>2019-10-21T06:20:13Z</time>
      </trkpt>
      <trkpt lat="43.08668" lon="6.12879">
        <ele>9.851</ele>
        <time>2019-10-21T06:20:46Z</time>
      </trkpt>
      <trkpt lat="43.08835" lon="6.1288">
        <ele>10.459</ele>
        <time>2019-10-21T06:21:19Z</time>
      </trkpt>
      <trkpt lat="43.08989" lon="6.12909">
        <ele>10.823</ele>
        <time>2019-10-21T06:21:49Z</time>
      </trkpt>
      <trkpt lat="43.09156" lon="6.12969">
        <ele>12.156</ele>
        <time>2019-10-21T06:22:22Z</time>
      </trkpt>
      <trkpt lat="43.09308" lon="6.13041">
        <ele>10.195</ele>
        <time>2019-10-21T06:22:52Z</time>
      </trkpt>
      <trkpt lat="43.09486" lon="6.13118">
        <ele>11.031</ele>
        <time>2019-10-21T06:23:25Z</time>
      </trkpt>
      <trkpt lat="43.09647" lon="6.13159">
        <ele>10.569</ele>
        <time>2019-10-21T06:23:55Z</time>
      </trkpt>
      <trkpt lat="43.09814" lon="6.13164">
        <ele>10.365</ele>
        <time>2019-10-21T06:24:28Z</time>
      </trkpt>
      <trkpt lat="43.09958" lon="6.13123">
        <ele>11.053</ele>
        <time>2019-10-21T06:24:58Z</time>
      </trkpt>
      <trkpt lat="43.10109" lon="6.13035">
        <ele>12.087</ele>
        <time>2019-10-21T06:25:31Z</time>
      </trkpt>
      <trkpt lat="43.1025" lon="6.12937">
        <ele>13.358</ele>
        <time>2019-10-21T06:26:04Z</time>
      </trkpt>
      <trkpt lat="43.10371" lon="6.12857">
        <ele>13.146</ele>
        <time>2019-10-21T06:26:34Z</time>
      </trkpt>
      <trkpt lat="43.10511" lon="6.12807">
        <ele>17.634</ele>
        <time>2019-10-21T06:27:07Z</time>
      </trkpt>
      <trkpt lat="43.10641" lon="6.12911">
        <ele>14.825</ele>
        <time>2019-10-21T06:27:37Z</time>
      </trkpt>
      <trkpt lat="43.1079" lon="6.13043">
        <ele>14.832</ele>
        <time>2019-10-21T06:28:10Z</time>
      </trkpt>
      <trkpt lat="43.10946" lon="6.13026">
        <ele>13.937</ele>
        <time>2019-10-21T06:28:40Z</time>
      </trkpt>
      <trkpt lat="43.11114" lon="6.13001">
        <ele>18.945</ele>
        <time>2019-10-21T06:29:13Z</time>
      </trkpt>
      <trkpt lat="43.11243" lon="6.12984">
        <ele>28.099</ele>
        <time>2019-10-21T06:29:43Z</time>
      </trkpt>
      <trkpt lat="43.11302" lon="6.12987">
        <ele>24.255</ele>
        <time>2019-10-21T06:30:58Z</time>
      </trkpt>
      <trkpt lat="43.11335" lon="6.13011">
        <ele>22.502</ele>
        <time>2019-10-21T06:31:34Z</time>
      </trkpt>
      <trkpt lat="43.11314" lon="6.12978">
        <ele>16.572</ele>
        <time>2019-10-21T06:35:52Z</time>
      </trkpt>
      <trkpt lat="43.11302" lon="6.13029">
        <ele>19.448</ele>
        <time>2019-10-21T06:36:25Z</time>
      </trkpt>
      <trkpt lat="43.11301" lon="6.13031">
        <ele>21.221</ele>
        <time>2019-10-21T06:38:13.001Z</time>
      </trkpt>
      <trkpt lat="43.11281" lon="6.13034">
        <ele>20.459</ele>
        <time>2019-10-21T06:41:40Z</time>
      </trkpt>
    </trkseg>
  </trk>
  <trk>
    <name><![CDATA[Tracé 20191023-085929]]></name>
    <trkseg>
      <trkpt lat="43.11284" lon="6.13056">
        <ele>58.544</ele>
        <time>2019-10-23T07:00:08Z</time>
      </trkpt>
      <trkpt lat="43.11276" lon="6.13035">
        <ele>28.14</ele>
        <time>2019-10-23T07:02:08Z</time>
      </trkpt>
      <trkpt lat="43.11305" lon="6.13002">
        <ele>20.087</ele>
        <time>2019-10-23T07:04:32Z</time>
      </trkpt>
      <trkpt lat="43.1133" lon="6.12977">
        <ele>21.822</ele>
        <time>2019-10-23T07:05:14Z</time>
      </trkpt>
      <trkpt lat="43.11355" lon="6.12981">
        <ele>19.434</ele>
        <time>2019-10-23T07:07:08Z</time>
      </trkpt>
      <trkpt lat="43.11367" lon="6.12907">
        <ele>17.346</ele>
        <time>2019-10-23T07:07:56Z</time>
      </trkpt>
      <trkpt lat="43.11476" lon="6.12871">
        <ele>24.759</ele>
        <time>2019-10-23T07:08:26Z</time>
      </trkpt>
      <trkpt lat="43.11606" lon="6.12863">
        <ele>47.456</ele>
        <time>2019-10-23T07:08:59Z</time>
      </trkpt>
      <trkpt lat="43.1171" lon="6.12866">
        <ele>61.559</ele>
        <time>2019-10-23T07:09:29Z</time>
      </trkpt>
      <trkpt lat="43.1176" lon="6.12809">
        <ele>55.312</ele>
        <time>2019-10-23T07:10:29Z</time>
      </trkpt>
      <trkpt lat="43.11768" lon="6.12601">
        <ele>40.036</ele>
        <time>2019-10-23T07:10:59Z</time>
      </trkpt>
      <trkpt lat="43.11772" lon="6.12344">
        <ele>29.068</ele>
        <time>2019-10-23T07:11:32Z</time>
      </trkpt>
      <trkpt lat="43.11762" lon="6.12154">
        <ele>27.448</ele>
        <time>2019-10-23T07:12:02Z</time>
      </trkpt>
      <trkpt lat="43.11792" lon="6.11962">
        <ele>32.801</ele>
        <time>2019-10-23T07:12:32Z</time>
      </trkpt>
      <trkpt lat="43.11863" lon="6.11789">
        <ele>32.454</ele>
        <time>2019-10-23T07:13:02Z</time>
      </trkpt>
      <trkpt lat="43.11908" lon="6.11626">
        <ele>34.942</ele>
        <time>2019-10-23T07:13:33Z</time>
      </trkpt>
      <trkpt lat="43.11965" lon="6.11478">
        <ele>35.481</ele>
        <time>2019-10-23T07:14:06Z</time>
      </trkpt>
      <trkpt lat="43.12034" lon="6.11333">
        <ele>34.63</ele>
        <time>2019-10-23T07:14:36Z</time>
      </trkpt>
      <trkpt lat="43.1211" lon="6.11138">
        <ele>37.025</ele>
        <time>2019-10-23T07:15:06Z</time>
      </trkpt>
      <trkpt lat="43.1218" lon="6.10965">
        <ele>40.739</ele>
        <time>2019-10-23T07:15:36Z</time>
      </trkpt>
      <trkpt lat="43.12243" lon="6.10768">
        <ele>40.244</ele>
        <time>2019-10-23T07:16:09Z</time>
      </trkpt>
      <trkpt lat="43.12306" lon="6.10602">
        <ele>40.244</ele>
        <time>2019-10-23T07:16:39Z</time>
      </trkpt>
      <trkpt lat="43.12363" lon="6.10447">
        <ele>43.498</ele>
        <time>2019-10-23T07:17:09Z</time>
      </trkpt>
      <trkpt lat="43.12447" lon="6.10324">
        <ele>45.308</ele>
        <time>2019-10-23T07:17:39Z</time>
      </trkpt>
      <trkpt lat="43.12503" lon="6.10188">
        <ele>48.498</ele>
        <time>2019-10-23T07:18:09Z</time>
      </trkpt>
      <trkpt lat="43.12555" lon="6.10005">
        <ele>55.12</ele>
        <time>2019-10-23T07:18:42Z</time>
      </trkpt>
      <trkpt lat="43.12616" lon="6.09891">
        <ele>50.806</ele>
        <time>2019-10-23T07:19:12Z</time>
      </trkpt>
      <trkpt lat="43.12689" lon="6.09838">
        <ele>52.315</ele>
        <time>2019-10-23T07:20:03Z</time>
      </trkpt>
      <trkpt lat="43.12762" lon="6.09681">
        <ele>45.919</ele>
        <time>2019-10-23T07:20:33Z</time>
      </trkpt>
      <trkpt lat="43.128" lon="6.09497">
        <ele>52.406</ele>
        <time>2019-10-23T07:21:06Z</time>
      </trkpt>
      <trkpt lat="43.1284" lon="6.09344">
        <ele>56.648</ele>
        <time>2019-10-23T07:21:36Z</time>
      </trkpt>
      <trkpt lat="43.12879" lon="6.0918">
        <ele>57.356</ele>
        <time>2019-10-23T07:22:06Z</time>
      </trkpt>
      <trkpt lat="43.12918" lon="6.0899">
        <ele>60.376</ele>
        <time>2019-10-23T07:22:36Z</time>
      </trkpt>
      <trkpt lat="43.13035" lon="6.08843">
        <ele>56.359</ele>
        <time>2019-10-23T07:23:06Z</time>
      </trkpt>
      <trkpt lat="43.13135" lon="6.08686">
        <ele>59.424</ele>
        <time>2019-10-23T07:23:39Z</time>
      </trkpt>
      <trkpt lat="43.13199" lon="6.08529">
        <ele>61.381</ele>
        <time>2019-10-23T07:24:09Z</time>
      </trkpt>
      <trkpt lat="43.13289" lon="6.08388">
        <ele>64.392</ele>
        <time>2019-10-23T07:24:39Z</time>
      </trkpt>
      <trkpt lat="43.13382" lon="6.08194">
        <ele>61.147</ele>
        <time>2019-10-23T07:25:09Z</time>
      </trkpt>
      <trkpt lat="43.13478" lon="6.08054">
        <ele>65.075</ele>
        <time>2019-10-23T07:25:42Z</time>
      </trkpt>
      <trkpt lat="43.13595" lon="6.07976">
        <ele>71.966</ele>
        <time>2019-10-23T07:26:12Z</time>
      </trkpt>
      <trkpt lat="43.13839" lon="6.07967">
        <ele>56.192</ele>
        <time>2019-10-23T07:26:42Z</time>
      </trkpt>
      <trkpt lat="43.14067" lon="6.08053">
        <ele>45.204</ele>
        <time>2019-10-23T07:27:12Z</time>
      </trkpt>
      <trkpt lat="43.14283" lon="6.07975">
        <ele>40.954</ele>
        <time>2019-10-23T07:27:42Z</time>
      </trkpt>
      <trkpt lat="43.1446" lon="6.07914">
        <ele>37.169</ele>
        <time>2019-10-23T07:28:15.001Z</time>
      </trkpt>
      <trkpt lat="43.14606" lon="6.07824">
        <ele>38.888</ele>
        <time>2019-10-23T07:28:45.001Z</time>
      </trkpt>
      <trkpt lat="43.14716" lon="6.07668">
        <ele>41.486</ele>
        <time>2019-10-23T07:29:15.001Z</time>
      </trkpt>
      <trkpt lat="43.14833" lon="6.0752">
        <ele>44.279</ele>
        <time>2019-10-23T07:29:45.001Z</time>
      </trkpt>
      <trkpt lat="43.14967" lon="6.07391">
        <ele>55.531</ele>
        <time>2019-10-23T07:30:18.001Z</time>
      </trkpt>
      <trkpt lat="43.15114" lon="6.07307">
        <ele>59.36</ele>
        <time>2019-10-23T07:30:48.001Z</time>
      </trkpt>
      <trkpt lat="43.15252" lon="6.07235">
        <ele>49.788</ele>
        <time>2019-10-23T07:31:18.001Z</time>
      </trkpt>
      <trkpt lat="43.15367" lon="6.07104">
        <ele>51.48</ele>
        <time>2019-10-23T07:31:48.001Z</time>
      </trkpt>
      <trkpt lat="43.15479" lon="6.07001">
        <ele>51.674</ele>
        <time>2019-10-23T07:32:18.001Z</time>
      </trkpt>
      <trkpt lat="43.15588" lon="6.06843">
        <ele>49.772</ele>
        <time>2019-10-23T07:32:51.001Z</time>
      </trkpt>
      <trkpt lat="43.15705" lon="6.06712">
        <ele>50.961</ele>
        <time>2019-10-23T07:33:21.001Z</time>
      </trkpt>
      <trkpt lat="43.1581" lon="6.06578">
        <ele>51.923</ele>
        <time>2019-10-23T07:33:51.001Z</time>
      </trkpt>
      <trkpt lat="43.1591" lon="6.06435">
        <ele>53.896</ele>
        <time>2019-10-23T07:34:21.001Z</time>
      </trkpt>
      <trkpt lat="43.16004" lon="6.06245">
        <ele>56.251</ele>
        <time>2019-10-23T07:34:54.001Z</time>
      </trkpt>
      <trkpt lat="43.16093" lon="6.06068">
        <ele>56.441</ele>
        <time>2019-10-23T07:35:24.001Z</time>
      </trkpt>
      <trkpt lat="43.16086" lon="6.05868">
        <ele>54.214</ele>
        <time>2019-10-23T07:35:54.001Z</time>
      </trkpt>
      <trkpt lat="43.16162" lon="6.05718">
        <ele>59.842</ele>
        <time>2019-10-23T07:36:24.001Z</time>
      </trkpt>
      <trkpt lat="43.1625" lon="6.05572">
        <ele>63.66</ele>
        <time>2019-10-23T07:36:54.001Z</time>
      </trkpt>
      <trkpt lat="43.16342" lon="6.05417">
        <ele>65.308</ele>
        <time>2019-10-23T07:37:27.001Z</time>
      </trkpt>
      <trkpt lat="43.16436" lon="6.05312">
        <ele>66.114</ele>
        <time>2019-10-23T07:37:57.001Z</time>
      </trkpt>
      <trkpt lat="43.16563" lon="6.05265">
        <ele>65.424</ele>
        <time>2019-10-23T07:38:27.001Z</time>
      </trkpt>
      <trkpt lat="43.16692" lon="6.05218">
        <ele>65.369</ele>
        <time>2019-10-23T07:38:57.001Z</time>
      </trkpt>
      <trkpt lat="43.16819" lon="6.05169">
        <ele>66.896</ele>
        <time>2019-10-23T07:39:30.001Z</time>
      </trkpt>
      <trkpt lat="43.16926" lon="6.05128">
        <ele>66.122</ele>
        <time>2019-10-23T07:40:00Z</time>
      </trkpt>
      <trkpt lat="43.16977" lon="6.0519">
        <ele>66.906</ele>
        <time>2019-10-23T07:40:30.001Z</time>
      </trkpt>
      <trkpt lat="43.17079" lon="6.05148">
        <ele>69.474</ele>
        <time>2019-10-23T07:41:00Z</time>
      </trkpt>
      <trkpt lat="43.17181" lon="6.05122">
        <ele>71.774</ele>
        <time>2019-10-23T07:41:30.001Z</time>
      </trkpt>
      <trkpt lat="43.17199" lon="6.04942">
        <ele>74.189</ele>
        <time>2019-10-23T07:42:06.001Z</time>
      </trkpt>
      <trkpt lat="43.17266" lon="6.0487">
        <ele>72.673</ele>
        <time>2019-10-23T07:42:36.001Z</time>
      </trkpt>
      <trkpt lat="43.17317" lon="6.04802">
        <ele>80.455</ele>
        <time>2019-10-23T07:43:06.001Z</time>
      </trkpt>
      <trkpt lat="43.1739" lon="6.04758">
        <ele>79.823</ele>
        <time>2019-10-23T07:43:36.001Z</time>
      </trkpt>
      <trkpt lat="43.17566" lon="6.04748">
        <ele>79.123</ele>
        <time>2019-10-23T07:44:09.001Z</time>
      </trkpt>
      <trkpt lat="43.17711" lon="6.04747">
        <ele>80.045</ele>
        <time>2019-10-23T07:44:39.001Z</time>
      </trkpt>
      <trkpt lat="43.17847" lon="6.04704">
        <ele>81.209</ele>
        <time>2019-10-23T07:45:09.001Z</time>
      </trkpt>
      <trkpt lat="43.17964" lon="6.04622">
        <ele>84.134</ele>
        <time>2019-10-23T07:45:39.001Z</time>
      </trkpt>
      <trkpt lat="43.18084" lon="6.04541">
        <ele>84.164</ele>
        <time>2019-10-23T07:46:09.001Z</time>
      </trkpt>
      <trkpt lat="43.18208" lon="6.04452">
        <ele>84.043</ele>
        <time>2019-10-23T07:46:42.001Z</time>
      </trkpt>
      <trkpt lat="43.18334" lon="6.04354">
        <ele>88.103</ele>
        <time>2019-10-23T07:47:12.001Z</time>
      </trkpt>
      <trkpt lat="43.18435" lon="6.04246">
        <ele>88.335</ele>
        <time>2019-10-23T07:47:42.001Z</time>
      </trkpt>
      <trkpt lat="43.18533" lon="6.04126">
        <ele>87.146</ele>
        <time>2019-10-23T07:48:12.001Z</time>
      </trkpt>
      <trkpt lat="43.18628" lon="6.04004">
        <ele>89.069</ele>
        <time>2019-10-23T07:48:45.001Z</time>
      </trkpt>
      <trkpt lat="43.18702" lon="6.03912">
        <ele>96.566</ele>
        <time>2019-10-23T07:49:15.001Z</time>
      </trkpt>
      <trkpt lat="43.18762" lon="6.03824">
        <ele>103.22</ele>
        <time>2019-10-23T07:49:45.001Z</time>
      </trkpt>
      <trkpt lat="43.18903" lon="6.037">
        <ele>95.559</ele>
        <time>2019-10-23T07:50:15.001Z</time>
      </trkpt>
      <trkpt lat="43.19149" lon="6.0371">
        <ele>87.19</ele>
        <time>2019-10-23T07:50:45.001Z</time>
      </trkpt>
      <trkpt lat="43.19318" lon="6.0382">
        <ele>85.993</ele>
        <time>2019-10-23T07:51:18.001Z</time>
      </trkpt>
      <trkpt lat="43.19426" lon="6.03761">
        <ele>90.127</ele>
        <time>2019-10-23T07:51:48.001Z</time>
      </trkpt>
      <trkpt lat="43.19541" lon="6.03743">
        <ele>94.191</ele>
        <time>2019-10-23T07:52:18.001Z</time>
      </trkpt>
      <trkpt lat="43.19649" lon="6.0374">
        <ele>93.234</ele>
        <time>2019-10-23T07:52:48.001Z</time>
      </trkpt>
      <trkpt lat="43.19718" lon="6.03586">
        <ele>94.577</ele>
        <time>2019-10-23T07:53:21.001Z</time>
      </trkpt>
      <trkpt lat="43.19802" lon="6.03592">
        <ele>89.781</ele>
        <time>2019-10-23T07:53:51.001Z</time>
      </trkpt>
      <trkpt lat="43.19831" lon="6.03445">
        <ele>95.384</ele>
        <time>2019-10-23T07:54:21.001Z</time>
      </trkpt>
      <trkpt lat="43.19895" lon="6.03329">
        <ele>101.658</ele>
        <time>2019-10-23T07:54:51.001Z</time>
      </trkpt>
      <trkpt lat="43.19978" lon="6.03213">
        <ele>101.227</ele>
        <time>2019-10-23T07:55:21.001Z</time>
      </trkpt>
      <trkpt lat="43.201" lon="6.03065">
        <ele>101.337</ele>
        <time>2019-10-23T07:55:54.001Z</time>
      </trkpt>
      <trkpt lat="43.20223" lon="6.02918">
        <ele>95.08</ele>
        <time>2019-10-23T07:56:24.001Z</time>
      </trkpt>
      <trkpt lat="43.20375" lon="6.02878">
        <ele>98.888</ele>
        <time>2019-10-23T07:56:54.001Z</time>
      </trkpt>
      <trkpt lat="43.2051" lon="6.02895">
        <ele>104.23</ele>
        <time>2019-10-23T07:57:24.001Z</time>
      </trkpt>
      <trkpt lat="43.20658" lon="6.02915">
        <ele>108.659</ele>
        <time>2019-10-23T07:57:57.001Z</time>
      </trkpt>
      <trkpt lat="43.20773" lon="6.02951">
        <ele>110.685</ele>
        <time>2019-10-23T07:58:27.001Z</time>
      </trkpt>
      <trkpt lat="43.2088" lon="6.02934">
        <ele>116.635</ele>
        <time>2019-10-23T07:58:57.001Z</time>
      </trkpt>
      <trkpt lat="43.21022" lon="6.0296">
        <ele>116.911</ele>
        <time>2019-10-23T07:59:27.001Z</time>
      </trkpt>
      <trkpt lat="43.21131" lon="6.02846">
        <ele>112.236</ele>
        <time>2019-10-23T07:59:57.001Z</time>
      </trkpt>
      <trkpt lat="43.21254" lon="6.02728">
        <ele>107.552</ele>
        <time>2019-10-23T08:00:30.001Z</time>
      </trkpt>
      <trkpt lat="43.21387" lon="6.02658">
        <ele>109.442</ele>
        <time>2019-10-23T08:01:00Z</time>
      </trkpt>
      <trkpt lat="43.21542" lon="6.02597">
        <ele>112.6</ele>
        <time>2019-10-23T08:01:30.001Z</time>
      </trkpt>
      <trkpt lat="43.21698" lon="6.02578">
        <ele>113.189</ele>
        <time>2019-10-23T08:02:00Z</time>
      </trkpt>
      <trkpt lat="43.21812" lon="6.02545">
        <ele>114.855</ele>
        <time>2019-10-23T08:02:33.001Z</time>
      </trkpt>
      <trkpt lat="43.21919" lon="6.02484">
        <ele>118.707</ele>
        <time>2019-10-23T08:03:03.001Z</time>
      </trkpt>
      <trkpt lat="43.22024" lon="6.02387">
        <ele>124.96</ele>
        <time>2019-10-23T08:03:33.001Z</time>
      </trkpt>
      <trkpt lat="43.22101" lon="6.02328">
        <ele>125.207</ele>
        <time>2019-10-23T08:04:03.001Z</time>
      </trkpt>
      <trkpt lat="43.22221" lon="6.02313">
        <ele>129.455</ele>
        <time>2019-10-23T08:04:33.001Z</time>
      </trkpt>
      <trkpt lat="43.22375" lon="6.02245">
        <ele>123.435</ele>
        <time>2019-10-23T08:05:06.001Z</time>
      </trkpt>
      <trkpt lat="43.22475" lon="6.02171">
        <ele>127.182</ele>
        <time>2019-10-23T08:05:36.001Z</time>
      </trkpt>
      <trkpt lat="43.22546" lon="6.02069">
        <ele>125.192</ele>
        <time>2019-10-23T08:06:06.001Z</time>
      </trkpt>
      <trkpt lat="43.22569" lon="6.01888">
        <ele>124.194</ele>
        <time>2019-10-23T08:06:36.001Z</time>
      </trkpt>
      <trkpt lat="43.22561" lon="6.01693">
        <ele>120.921</ele>
        <time>2019-10-23T08:07:09.001Z</time>
      </trkpt>
      <trkpt lat="43.22672" lon="6.01541">
        <ele>130.249</ele>
        <time>2019-10-23T08:07:39.001Z</time>
      </trkpt>
      <trkpt lat="43.22809" lon="6.01446">
        <ele>132.638</ele>
        <time>2019-10-23T08:08:09.001Z</time>
      </trkpt>
      <trkpt lat="43.22842" lon="6.01295">
        <ele>136.885</ele>
        <time>2019-10-23T08:08:39.001Z</time>
      </trkpt>
      <trkpt lat="43.22928" lon="6.01166">
        <ele>135.234</ele>
        <time>2019-10-23T08:09:09.001Z</time>
      </trkpt>
      <trkpt lat="43.23082" lon="6.01074">
        <ele>144.532</ele>
        <time>2019-10-23T08:09:42.001Z</time>
      </trkpt>
      <trkpt lat="43.23203" lon="6.00987">
        <ele>144.995</ele>
        <time>2019-10-23T08:10:12.001Z</time>
      </trkpt>
      <trkpt lat="43.23316" lon="6.0088">
        <ele>143.958</ele>
        <time>2019-10-23T08:10:42.001Z</time>
      </trkpt>
      <trkpt lat="43.23457" lon="6.0085">
        <ele>140.146</ele>
        <time>2019-10-23T08:11:12.001Z</time>
      </trkpt>
      <trkpt lat="43.23617" lon="6.00843">
        <ele>144.696</ele>
        <time>2019-10-23T08:11:45.001Z</time>
      </trkpt>
      <trkpt lat="43.23714" lon="6.00701">
        <ele>143.147</ele>
        <time>2019-10-23T08:12:15.001Z</time>
      </trkpt>
      <trkpt lat="43.23783" lon="6.00533">
        <ele>141.456</ele>
        <time>2019-10-23T08:12:45.001Z</time>
      </trkpt>
      <trkpt lat="43.23917" lon="6.00466">
        <ele>146.637</ele>
        <time>2019-10-23T08:13:15.001Z</time>
      </trkpt>
      <trkpt lat="43.24034" lon="6.00431">
        <ele>151.375</ele>
        <time>2019-10-23T08:13:45.001Z</time>
      </trkpt>
      <trkpt lat="43.2413" lon="6.0036">
        <ele>151.545</ele>
        <time>2019-10-23T08:14:18.001Z</time>
      </trkpt>
      <trkpt lat="43.24215" lon="6.00268">
        <ele>152.839</ele>
        <time>2019-10-23T08:14:48.001Z</time>
      </trkpt>
      <trkpt lat="43.24344" lon="6.00116">
        <ele>157.386</ele>
        <time>2019-10-23T08:15:18.001Z</time>
      </trkpt>
      <trkpt lat="43.24453" lon="6.0004">
        <ele>160.013</ele>
        <time>2019-10-23T08:15:48.001Z</time>
      </trkpt>
      <trkpt lat="43.24573" lon="6.00017">
        <ele>160.58</ele>
        <time>2019-10-23T08:16:21.001Z</time>
      </trkpt>
      <trkpt lat="43.24643" lon="5.9999">
        <ele>161.952</ele>
        <time>2019-10-23T08:16:51.001Z</time>
      </trkpt>
      <trkpt lat="43.24711" lon="5.99951">
        <ele>163.052</ele>
        <time>2019-10-23T08:17:21.001Z</time>
      </trkpt>
      <trkpt lat="43.24782" lon="5.99902">
        <ele>166.755</ele>
        <time>2019-10-23T08:17:51.001Z</time>
      </trkpt>
      <trkpt lat="43.2485" lon="5.99867">
        <ele>176.352</ele>
        <time>2019-10-23T08:18:21.001Z</time>
      </trkpt>
      <trkpt lat="43.24943" lon="5.99844">
        <ele>181.848</ele>
        <time>2019-10-23T08:18:54.001Z</time>
      </trkpt>
      <trkpt lat="43.25047" lon="5.99813">
        <ele>183.643</ele>
        <time>2019-10-23T08:19:24.001Z</time>
      </trkpt>
      <trkpt lat="43.25105" lon="5.9967">
        <ele>180.233</ele>
        <time>2019-10-23T08:19:54.001Z</time>
      </trkpt>
      <trkpt lat="43.25111" lon="5.99523">
        <ele>179.69</ele>
        <time>2019-10-23T08:20:24.001Z</time>
      </trkpt>
      <trkpt lat="43.25206" lon="5.99425">
        <ele>181.312</ele>
        <time>2019-10-23T08:20:57.001Z</time>
      </trkpt>
      <trkpt lat="43.25281" lon="5.99305">
        <ele>187.391</ele>
        <time>2019-10-23T08:21:27.001Z</time>
      </trkpt>
      <trkpt lat="43.25382" lon="5.99178">
        <ele>191.249</ele>
        <time>2019-10-23T08:21:57.001Z</time>
      </trkpt>
      <trkpt lat="43.25447" lon="5.99026">
        <ele>187.805</ele>
        <time>2019-10-23T08:22:27.001Z</time>
      </trkpt>
      <trkpt lat="43.25518" lon="5.98869">
        <ele>188.838</ele>
        <time>2019-10-23T08:22:57.001Z</time>
      </trkpt>
      <trkpt lat="43.25585" lon="5.98734">
        <ele>192.229</ele>
        <time>2019-10-23T08:23:30.001Z</time>
      </trkpt>
      <trkpt lat="43.25644" lon="5.98639">
        <ele>195.336</ele>
        <time>2019-10-23T08:24:00Z</time>
      </trkpt>
      <trkpt lat="43.25716" lon="5.98556">
        <ele>197.759</ele>
        <time>2019-10-23T08:24:30.001Z</time>
      </trkpt>
      <trkpt lat="43.2581" lon="5.9849">
        <ele>197.823</ele>
        <time>2019-10-23T08:25:00Z</time>
      </trkpt>
      <trkpt lat="43.25947" lon="5.98403">
        <ele>200.919</ele>
        <time>2019-10-23T08:25:33.001Z</time>
      </trkpt>
      <trkpt lat="43.26051" lon="5.98287">
        <ele>200.391</ele>
        <time>2019-10-23T08:26:03.001Z</time>
      </trkpt>
      <trkpt lat="43.26172" lon="5.98234">
        <ele>200.958</ele>
        <time>2019-10-23T08:26:33.001Z</time>
      </trkpt>
      <trkpt lat="43.26298" lon="5.98306">
        <ele>206.173</ele>
        <time>2019-10-23T08:27:03.001Z</time>
      </trkpt>
      <trkpt lat="43.26441" lon="5.98353">
        <ele>211.123</ele>
        <time>2019-10-23T08:27:33.001Z</time>
      </trkpt>
      <trkpt lat="43.266" lon="5.98297">
        <ele>206.663</ele>
        <time>2019-10-23T08:28:06.001Z</time>
      </trkpt>
      <trkpt lat="43.26699" lon="5.98182">
        <ele>207.696</ele>
        <time>2019-10-23T08:28:36.001Z</time>
      </trkpt>
      <trkpt lat="43.26784" lon="5.97996">
        <ele>202.837</ele>
        <time>2019-10-23T08:29:06.001Z</time>
      </trkpt>
      <trkpt lat="43.26748" lon="5.97834">
        <ele>205.114</ele>
        <time>2019-10-23T08:29:36.001Z</time>
      </trkpt>
      <trkpt lat="43.26721" lon="5.97697">
        <ele>209.305</ele>
        <time>2019-10-23T08:30:09.001Z</time>
      </trkpt>
      <trkpt lat="43.26687" lon="5.97589">
        <ele>211.014</ele>
        <time>2019-10-23T08:30:39.001Z</time>
      </trkpt>
      <trkpt lat="43.26684" lon="5.97496">
        <ele>217.526</ele>
        <time>2019-10-23T08:31:09.001Z</time>
      </trkpt>
      <trkpt lat="43.26724" lon="5.97425">
        <ele>222.886</ele>
        <time>2019-10-23T08:31:39.001Z</time>
      </trkpt>
      <trkpt lat="43.26697" lon="5.97294">
        <ele>226.444</ele>
        <time>2019-10-23T08:32:09.001Z</time>
      </trkpt>
      <trkpt lat="43.26636" lon="5.97127">
        <ele>224.748</ele>
        <time>2019-10-23T08:32:42.001Z</time>
      </trkpt>
      <trkpt lat="43.2657" lon="5.96977">
        <ele>224.018</ele>
        <time>2019-10-23T08:33:12.001Z</time>
      </trkpt>
      <trkpt lat="43.26602" lon="5.96836">
        <ele>223.264</ele>
        <time>2019-10-23T08:33:42.001Z</time>
      </trkpt>
      <trkpt lat="43.26525" lon="5.96718">
        <ele>226.91</ele>
        <time>2019-10-23T08:34:12.001Z</time>
      </trkpt>
      <trkpt lat="43.26491" lon="5.96553">
        <ele>228.653</ele>
        <time>2019-10-23T08:34:45.001Z</time>
      </trkpt>
      <trkpt lat="43.26438" lon="5.9642">
        <ele>231.234</ele>
        <time>2019-10-23T08:35:15.001Z</time>
      </trkpt>
      <trkpt lat="43.26375" lon="5.96366">
        <ele>226.248</ele>
        <time>2019-10-23T08:42:48.001Z</time>
      </trkpt>
      <trkpt lat="43.26354" lon="5.96253">
        <ele>233.304</ele>
        <time>2019-10-23T08:43:18.001Z</time>
      </trkpt>
      <trkpt lat="43.26385" lon="5.96112">
        <ele>235.674</ele>
        <time>2019-10-23T08:43:48.001Z</time>
      </trkpt>
      <trkpt lat="43.26433" lon="5.95953">
        <ele>238.91</ele>
        <time>2019-10-23T08:44:21.001Z</time>
      </trkpt>
      <trkpt lat="43.26476" lon="5.95815">
        <ele>243.349</ele>
        <time>2019-10-23T08:44:51.001Z</time>
      </trkpt>
      <trkpt lat="43.26545" lon="5.9568">
        <ele>241.249</ele>
        <time>2019-10-23T08:45:21.001Z</time>
      </trkpt>
      <trkpt lat="43.26596" lon="5.95571">
        <ele>241.79</ele>
        <time>2019-10-23T08:45:51.001Z</time>
      </trkpt>
      <trkpt lat="43.26653" lon="5.95456">
        <ele>243.803</ele>
        <time>2019-10-23T08:46:24.001Z</time>
      </trkpt>
      <trkpt lat="43.26625" lon="5.95329">
        <ele>258.715</ele>
        <time>2019-10-23T08:46:54.001Z</time>
      </trkpt>
      <trkpt lat="43.26547" lon="5.95225">
        <ele>260.277</ele>
        <time>2019-10-23T08:47:24.001Z</time>
      </trkpt>
      <trkpt lat="43.26452" lon="5.95134">
        <ele>262.756</ele>
        <time>2019-10-23T08:47:54.001Z</time>
      </trkpt>
      <trkpt lat="43.2642" lon="5.94975">
        <ele>252.895</ele>
        <time>2019-10-23T08:48:24.001Z</time>
      </trkpt>
      <trkpt lat="43.26476" lon="5.94881">
        <ele>255.062</ele>
        <time>2019-10-23T08:48:57.001Z</time>
      </trkpt>
      <trkpt lat="43.26534" lon="5.9479">
        <ele>262.128</ele>
        <time>2019-10-23T08:49:27.001Z</time>
      </trkpt>
      <trkpt lat="43.26581" lon="5.94698">
        <ele>258.917</ele>
        <time>2019-10-23T08:49:57.001Z</time>
      </trkpt>
      <trkpt lat="43.26648" lon="5.9466">
        <ele>263.823</ele>
        <time>2019-10-23T08:50:27.001Z</time>
      </trkpt>
      <trkpt lat="43.26729" lon="5.94605">
        <ele>267.941</ele>
        <time>2019-10-23T08:51:00Z</time>
      </trkpt>
      <trkpt lat="43.26803" lon="5.9453">
        <ele>270.196</ele>
        <time>2019-10-23T08:51:30.001Z</time>
      </trkpt>
      <trkpt lat="43.26844" lon="5.94403">
        <ele>266.939</ele>
        <time>2019-10-23T08:52:00Z</time>
      </trkpt>
      <trkpt lat="43.2691" lon="5.94315">
        <ele>265.372</ele>
        <time>2019-10-23T08:52:30.001Z</time>
      </trkpt>
      <trkpt lat="43.2697" lon="5.94239">
        <ele>273.487</ele>
        <time>2019-10-23T08:53:00Z</time>
      </trkpt>
      <trkpt lat="43.27061" lon="5.94186">
        <ele>277.5</ele>
        <time>2019-10-23T08:53:33.001Z</time>
      </trkpt>
      <trkpt lat="43.27167" lon="5.94236">
        <ele>284.221</ele>
        <time>2019-10-23T08:54:03.001Z</time>
      </trkpt>
      <trkpt lat="43.27258" lon="5.9419">
        <ele>292.123</ele>
        <time>2019-10-23T08:54:33.001Z</time>
      </trkpt>
      <trkpt lat="43.27242" lon="5.94008">
        <ele>286.683</ele>
        <time>2019-10-23T08:55:03.001Z</time>
      </trkpt>
      <trkpt lat="43.27277" lon="5.93822">
        <ele>285.238</ele>
        <time>2019-10-23T08:55:36.001Z</time>
      </trkpt>
      <trkpt lat="43.27297" lon="5.93675">
        <ele>289.251</ele>
        <time>2019-10-23T08:56:06.001Z</time>
      </trkpt>
      <trkpt lat="43.27349" lon="5.93545">
        <ele>286.505</ele>
        <time>2019-10-23T08:56:36.001Z</time>
      </trkpt>
      <trkpt lat="43.27396" lon="5.93396">
        <ele>283.893</ele>
        <time>2019-10-23T08:57:06.001Z</time>
      </trkpt>
      <trkpt lat="43.27454" lon="5.93262">
        <ele>292.466</ele>
        <time>2019-10-23T08:57:36.001Z</time>
      </trkpt>
      <trkpt lat="43.27518" lon="5.931">
        <ele>291.095</ele>
        <time>2019-10-23T08:58:09.001Z</time>
      </trkpt>
      <trkpt lat="43.27565" lon="5.92961">
        <ele>295.081</ele>
        <time>2019-10-23T08:58:39.001Z</time>
      </trkpt>
      <trkpt lat="43.27548" lon="5.92808">
        <ele>297.964</ele>
        <time>2019-10-23T08:59:09.001Z</time>
      </trkpt>
      <trkpt lat="43.27548" lon="5.92663">
        <ele>302.877</ele>
        <time>2019-10-23T08:59:39.001Z</time>
      </trkpt>
      <trkpt lat="43.27544" lon="5.9248">
        <ele>301.618</ele>
        <time>2019-10-23T09:00:12.001Z</time>
      </trkpt>
      <trkpt lat="43.2758" lon="5.92358">
        <ele>296.308</ele>
        <time>2019-10-23T09:00:42.001Z</time>
      </trkpt>
      <trkpt lat="43.27559" lon="5.92246">
        <ele>298.41</ele>
        <time>2019-10-23T09:01:12.001Z</time>
      </trkpt>
      <trkpt lat="43.27493" lon="5.92173">
        <ele>304.836</ele>
        <time>2019-10-23T09:01:42.001Z</time>
      </trkpt>
      <trkpt lat="43.27441" lon="5.92016">
        <ele>307.092</ele>
        <time>2019-10-23T09:02:12.001Z</time>
      </trkpt>
      <trkpt lat="43.2746" lon="5.91834">
        <ele>304.236</ele>
        <time>2019-10-23T09:02:45.001Z</time>
      </trkpt>
      <trkpt lat="43.27414" lon="5.91723">
        <ele>309.284</ele>
        <time>2019-10-23T09:03:15.001Z</time>
      </trkpt>
      <trkpt lat="43.27434" lon="5.91597">
        <ele>308.571</ele>
        <time>2019-10-23T09:03:45.001Z</time>
      </trkpt>
      <trkpt lat="43.2754" lon="5.91458">
        <ele>308.475</ele>
        <time>2019-10-23T09:04:15.001Z</time>
      </trkpt>
      <trkpt lat="43.2765" lon="5.91311">
        <ele>311.264</ele>
        <time>2019-10-23T09:04:48.001Z</time>
      </trkpt>
      <trkpt lat="43.27711" lon="5.91171">
        <ele>314.347</ele>
        <time>2019-10-23T09:05:18.001Z</time>
      </trkpt>
      <trkpt lat="43.27777" lon="5.91073">
        <ele>316.86</ele>
        <time>2019-10-23T09:05:48.001Z</time>
      </trkpt>
      <trkpt lat="43.27844" lon="5.91005">
        <ele>320.151</ele>
        <time>2019-10-23T09:06:18.001Z</time>
      </trkpt>
      <trkpt lat="43.27877" lon="5.90886">
        <ele>319.737</ele>
        <time>2019-10-23T09:06:48.001Z</time>
      </trkpt>
      <trkpt lat="43.27956" lon="5.9081">
        <ele>321.539</ele>
        <time>2019-10-23T09:07:21.001Z</time>
      </trkpt>
      <trkpt lat="43.27992" lon="5.90623">
        <ele>324.51</ele>
        <time>2019-10-23T09:07:51.001Z</time>
      </trkpt>
      <trkpt lat="43.28055" lon="5.90341">
        <ele>312.19</ele>
        <time>2019-10-23T09:08:21.001Z</time>
      </trkpt>
      <trkpt lat="43.2813" lon="5.90146">
        <ele>310.885</ele>
        <time>2019-10-23T09:08:51.001Z</time>
      </trkpt>
      <trkpt lat="43.28225" lon="5.89956">
        <ele>318.604</ele>
        <time>2019-10-23T09:09:24.001Z</time>
      </trkpt>
      <trkpt lat="43.28315" lon="5.89765">
        <ele>319.282</ele>
        <time>2019-10-23T09:09:54.001Z</time>
      </trkpt>
      <trkpt lat="43.28385" lon="5.89552">
        <ele>311.366</ele>
        <time>2019-10-23T09:10:24.001Z</time>
      </trkpt>
      <trkpt lat="43.28511" lon="5.89367">
        <ele>314.242</ele>
        <time>2019-10-23T09:10:54.001Z</time>
      </trkpt>
      <trkpt lat="43.28616" lon="5.89178">
        <ele>314.131</ele>
        <time>2019-10-23T09:11:24.001Z</time>
      </trkpt>
      <trkpt lat="43.28713" lon="5.88957">
        <ele>312.637</ele>
        <time>2019-10-23T09:11:57.001Z</time>
      </trkpt>
      <trkpt lat="43.28739" lon="5.88718">
        <ele>311.83</ele>
        <time>2019-10-23T09:12:27.001Z</time>
      </trkpt>
      <trkpt lat="43.28723" lon="5.8849">
        <ele>316.933</ele>
        <time>2019-10-23T09:12:57.001Z</time>
      </trkpt>
      <trkpt lat="43.28757" lon="5.88239">
        <ele>312.435</ele>
        <time>2019-10-23T09:13:27.001Z</time>
      </trkpt>
      <trkpt lat="43.28797" lon="5.88002">
        <ele>314.669</ele>
        <time>2019-10-23T09:14:00Z</time>
      </trkpt>
      <trkpt lat="43.28835" lon="5.87776">
        <ele>314.989</ele>
        <time>2019-10-23T09:14:30.001Z</time>
      </trkpt>
      <trkpt lat="43.28866" lon="5.87554">
        <ele>315.023</ele>
        <time>2019-10-23T09:15:00Z</time>
      </trkpt>
      <trkpt lat="43.28901" lon="5.87377">
        <ele>319.263</ele>
        <time>2019-10-23T09:15:30.001Z</time>
      </trkpt>
      <trkpt lat="43.28928" lon="5.87238">
        <ele>324.297</ele>
        <time>2019-10-23T09:16:00Z</time>
      </trkpt>
      <trkpt lat="43.28965" lon="5.87108">
        <ele>326.426</ele>
        <time>2019-10-23T09:16:33.001Z</time>
      </trkpt>
      <trkpt lat="43.29016" lon="5.87005">
        <ele>330.73</ele>
        <time>2019-10-23T09:17:03.001Z</time>
      </trkpt>
      <trkpt lat="43.29037" lon="5.86884">
        <ele>334.567</ele>
        <time>2019-10-23T09:17:33.001Z</time>
      </trkpt>
      <trkpt lat="43.29052" lon="5.86759">
        <ele>341.403</ele>
        <time>2019-10-23T09:18:03.001Z</time>
      </trkpt>
      <trkpt lat="43.29063" lon="5.86612">
        <ele>344.83</ele>
        <time>2019-10-23T09:18:36.001Z</time>
      </trkpt>
      <trkpt lat="43.29043" lon="5.86446">
        <ele>346.607</ele>
        <time>2019-10-23T09:19:06.001Z</time>
      </trkpt>
      <trkpt lat="43.29017" lon="5.86191">
        <ele>346.576</ele>
        <time>2019-10-23T09:19:36.001Z</time>
      </trkpt>
      <trkpt lat="43.29027" lon="5.86024">
        <ele>341.187</ele>
        <time>2019-10-23T09:20:06.001Z</time>
      </trkpt>
      <trkpt lat="43.29023" lon="5.85913">
        <ele>345.611</ele>
        <time>2019-10-23T09:20:36.001Z</time>
      </trkpt>
      <trkpt lat="43.29" lon="5.85811">
        <ele>352.596</ele>
        <time>2019-10-23T09:21:09.001Z</time>
      </trkpt>
      <trkpt lat="43.2899" lon="5.85716">
        <ele>359.009</ele>
        <time>2019-10-23T09:21:39.001Z</time>
      </trkpt>
      <trkpt lat="43.28969" lon="5.85631">
        <ele>364.606</ele>
        <time>2019-10-23T09:22:09.001Z</time>
      </trkpt>
      <trkpt lat="43.28933" lon="5.85554">
        <ele>368.639</ele>
        <time>2019-10-23T09:22:39.001Z</time>
      </trkpt>
      <trkpt lat="43.28891" lon="5.8549">
        <ele>374.118</ele>
        <time>2019-10-23T09:23:09.001Z</time>
      </trkpt>
      <trkpt lat="43.28858" lon="5.854">
        <ele>373.789</ele>
        <time>2019-10-23T09:23:42.001Z</time>
      </trkpt>
      <trkpt lat="43.28858" lon="5.85316">
        <ele>380.215</ele>
        <time>2019-10-23T09:24:12.001Z</time>
      </trkpt>
      <trkpt lat="43.28824" lon="5.85258">
        <ele>382.629</ele>
        <time>2019-10-23T09:24:42.001Z</time>
      </trkpt>
      <trkpt lat="43.288" lon="5.85196">
        <ele>391.446</ele>
        <time>2019-10-23T09:25:15.001Z</time>
      </trkpt>
      <trkpt lat="43.28799" lon="5.85114">
        <ele>399.389</ele>
        <time>2019-10-23T09:25:48.001Z</time>
      </trkpt>
      <trkpt lat="43.28775" lon="5.85041">
        <ele>400.643</ele>
        <time>2019-10-23T09:26:18.001Z</time>
      </trkpt>
      <trkpt lat="43.28741" lon="5.84958">
        <ele>400.866</ele>
        <time>2019-10-23T09:26:51.001Z</time>
      </trkpt>
      <trkpt lat="43.28705" lon="5.84814">
        <ele>404.169</ele>
        <time>2019-10-23T09:27:21.001Z</time>
      </trkpt>
      <trkpt lat="43.28611" lon="5.84751">
        <ele>397.346</ele>
        <time>2019-10-23T09:27:51.001Z</time>
      </trkpt>
      <trkpt lat="43.28554" lon="5.84674">
        <ele>403.89</ele>
        <time>2019-10-23T09:28:24.001Z</time>
      </trkpt>
      <trkpt lat="43.28537" lon="5.84576">
        <ele>407.567</ele>
        <time>2019-10-23T09:28:54.001Z</time>
      </trkpt>
      <trkpt lat="43.28528" lon="5.84452">
        <ele>409.953</ele>
        <time>2019-10-23T09:29:24.001Z</time>
      </trkpt>
      <trkpt lat="43.28499" lon="5.84209">
        <ele>406.24</ele>
        <time>2019-10-23T09:29:54.001Z</time>
      </trkpt>
      <trkpt lat="43.28476" lon="5.83982">
        <ele>405.092</ele>
        <time>2019-10-23T09:30:27.001Z</time>
      </trkpt>
      <trkpt lat="43.28455" lon="5.83794">
        <ele>407.56</ele>
        <time>2019-10-23T09:30:57.001Z</time>
      </trkpt>
      <trkpt lat="43.28421" lon="5.83598">
        <ele>409.997</ele>
        <time>2019-10-23T09:31:27.001Z</time>
      </trkpt>
      <trkpt lat="43.28382" lon="5.8341">
        <ele>409.495</ele>
        <time>2019-10-23T09:31:57.001Z</time>
      </trkpt>
      <trkpt lat="43.28373" lon="5.8321">
        <ele>407.613</ele>
        <time>2019-10-23T09:32:27.001Z</time>
      </trkpt>
      <trkpt lat="43.28362" lon="5.83001">
        <ele>415.555</ele>
        <time>2019-10-23T09:33:00Z</time>
      </trkpt>
      <trkpt lat="43.28307" lon="5.8282">
        <ele>417.849</ele>
        <time>2019-10-23T09:33:30.001Z</time>
      </trkpt>
      <trkpt lat="43.28228" lon="5.82683">
        <ele>418.346</ele>
        <time>2019-10-23T09:34:00Z</time>
      </trkpt>
      <trkpt lat="43.2815" lon="5.82547">
        <ele>420.639</ele>
        <time>2019-10-23T09:34:30.001Z</time>
      </trkpt>
      <trkpt lat="43.28107" lon="5.82361">
        <ele>425.482</ele>
        <time>2019-10-23T09:35:03.001Z</time>
      </trkpt>
      <trkpt lat="43.28057" lon="5.8221">
        <ele>425.442</ele>
        <time>2019-10-23T09:35:33.001Z</time>
      </trkpt>
      <trkpt lat="43.28007" lon="5.82066">
        <ele>427.497</ele>
        <time>2019-10-23T09:36:03.001Z</time>
      </trkpt>
      <trkpt lat="43.27936" lon="5.81955">
        <ele>433.105</ele>
        <time>2019-10-23T09:36:33.001Z</time>
      </trkpt>
      <trkpt lat="43.27888" lon="5.81828">
        <ele>435.695</ele>
        <time>2019-10-23T09:37:03.001Z</time>
      </trkpt>
      <trkpt lat="43.27847" lon="5.8168">
        <ele>438.822</ele>
        <time>2019-10-23T09:37:36.001Z</time>
      </trkpt>
      <trkpt lat="43.27809" lon="5.81542">
        <ele>439.372</ele>
        <time>2019-10-23T09:38:06.001Z</time>
      </trkpt>
      <trkpt lat="43.2778" lon="5.81404">
        <ele>440.268</ele>
        <time>2019-10-23T09:38:36.001Z</time>
      </trkpt>
      <trkpt lat="43.27739" lon="5.81259">
        <ele>441.275</ele>
        <time>2019-10-23T09:39:06.001Z</time>
      </trkpt>
      <trkpt lat="43.27706" lon="5.81095">
        <ele>441.979</ele>
        <time>2019-10-23T09:39:39.001Z</time>
      </trkpt>
      <trkpt lat="43.27707" lon="5.80938">
        <ele>445.269</ele>
        <time>2019-10-23T09:40:09.001Z</time>
      </trkpt>
      <trkpt lat="43.27688" lon="5.80743">
        <ele>447.492</ele>
        <time>2019-10-23T09:40:39.001Z</time>
      </trkpt>
      <trkpt lat="43.27632" lon="5.8056">
        <ele>448.279</ele>
        <time>2019-10-23T09:41:09.001Z</time>
      </trkpt>
      <trkpt lat="43.27542" lon="5.80447">
        <ele>451</ele>
        <time>2019-10-23T09:41:39.001Z</time>
      </trkpt>
      <trkpt lat="43.27533" lon="5.80226">
        <ele>449.561</ele>
        <time>2019-10-23T09:42:12.001Z</time>
      </trkpt>
      <trkpt lat="43.27533" lon="5.79947">
        <ele>445.407</ele>
        <time>2019-10-23T09:42:42.001Z</time>
      </trkpt>
      <trkpt lat="43.275" lon="5.79683">
        <ele>443.147</ele>
        <time>2019-10-23T09:43:12.001Z</time>
      </trkpt>
      <trkpt lat="43.27447" lon="5.79405">
        <ele>440.988</ele>
        <time>2019-10-23T09:43:42.001Z</time>
      </trkpt>
      <trkpt lat="43.27268" lon="5.79281">
        <ele>448.777</ele>
        <time>2019-10-23T09:44:15.001Z</time>
      </trkpt>
      <trkpt lat="43.27174" lon="5.79184">
        <ele>451.852</ele>
        <time>2019-10-23T09:44:45.001Z</time>
      </trkpt>
      <trkpt lat="43.27087" lon="5.79036">
        <ele>455.334</ele>
        <time>2019-10-23T09:45:15.001Z</time>
      </trkpt>
      <trkpt lat="43.27025" lon="5.7883">
        <ele>453.746</ele>
        <time>2019-10-23T09:45:45.001Z</time>
      </trkpt>
      <trkpt lat="43.26953" lon="5.78451">
        <ele>444.203</ele>
        <time>2019-10-23T09:46:15.001Z</time>
      </trkpt>
      <trkpt lat="43.26833" lon="5.77973">
        <ele>430.983</ele>
        <time>2019-10-23T09:46:48.001Z</time>
      </trkpt>
      <trkpt lat="43.26692" lon="5.77613">
        <ele>421.43</ele>
        <time>2019-10-23T09:47:18.001Z</time>
      </trkpt>
      <trkpt lat="43.26558" lon="5.77259">
        <ele>412.258</ele>
        <time>2019-10-23T09:47:48.001Z</time>
      </trkpt>
      <trkpt lat="43.2653" lon="5.76949">
        <ele>411.918</ele>
        <time>2019-10-23T09:48:18.001Z</time>
      </trkpt>
      <trkpt lat="43.26446" lon="5.76665">
        <ele>412.607</ele>
        <time>2019-10-23T09:48:51.001Z</time>
      </trkpt>
      <trkpt lat="43.26361" lon="5.76448">
        <ele>415.807</ele>
        <time>2019-10-23T09:49:21.001Z</time>
      </trkpt>
      <trkpt lat="43.26236" lon="5.76132">
        <ele>408.356</ele>
        <time>2019-10-23T09:49:51.001Z</time>
      </trkpt>
      <trkpt lat="43.26131" lon="5.75898">
        <ele>408.569</ele>
        <time>2019-10-23T09:50:21.001Z</time>
      </trkpt>
      <trkpt lat="43.25998" lon="5.75643">
        <ele>406.011</ele>
        <time>2019-10-23T09:50:51.001Z</time>
      </trkpt>
      <trkpt lat="43.2596" lon="5.75565">
        <ele>406.61</ele>
        <time>2019-10-23T10:01:00Z</time>
      </trkpt>
      <trkpt lat="43.25829" lon="5.7532">
        <ele>399.896</ele>
        <time>2019-10-23T10:01:30.001Z</time>
      </trkpt>
      <trkpt lat="43.25716" lon="5.75121">
        <ele>396.093</ele>
        <time>2019-10-23T10:02:00Z</time>
      </trkpt>
      <trkpt lat="43.25802" lon="5.75045">
        <ele>397.029</ele>
        <time>2019-10-23T10:02:33.001Z</time>
      </trkpt>
      <trkpt lat="43.25979" lon="5.74966">
        <ele>391.469</ele>
        <time>2019-10-23T10:03:06.001Z</time>
      </trkpt>
      <trkpt lat="43.26145" lon="5.74888">
        <ele>389.554</ele>
        <time>2019-10-23T10:03:36.001Z</time>
      </trkpt>
      <trkpt lat="43.26395" lon="5.74871">
        <ele>380.298</ele>
        <time>2019-10-23T10:04:06.001Z</time>
      </trkpt>
      <trkpt lat="43.2658" lon="5.74713">
        <ele>362.533</ele>
        <time>2019-10-23T10:04:36.001Z</time>
      </trkpt>
      <trkpt lat="43.26469" lon="5.74212">
        <ele>342.992</ele>
        <time>2019-10-23T10:05:06.001Z</time>
      </trkpt>
      <trkpt lat="43.26657" lon="5.73759">
        <ele>326.203</ele>
        <time>2019-10-23T10:05:39.001Z</time>
      </trkpt>
      <trkpt lat="43.26861" lon="5.73584">
        <ele>306.731</ele>
        <time>2019-10-23T10:06:09.001Z</time>
      </trkpt>
      <trkpt lat="43.26641" lon="5.73249">
        <ele>292.908</ele>
        <time>2019-10-23T10:06:39.001Z</time>
      </trkpt>
      <trkpt lat="43.26691" lon="5.72817">
        <ele>281.551</ele>
        <time>2019-10-23T10:07:09.001Z</time>
      </trkpt>
      <trkpt lat="43.26898" lon="5.72475">
        <ele>264.993</ele>
        <time>2019-10-23T10:07:42.001Z</time>
      </trkpt>
      <trkpt lat="43.26871" lon="5.7204">
        <ele>257.467</ele>
        <time>2019-10-23T10:08:12.001Z</time>
      </trkpt>
      <trkpt lat="43.27081" lon="5.71808">
        <ele>242.982</ele>
        <time>2019-10-23T10:08:42.001Z</time>
      </trkpt>
      <trkpt lat="43.27349" lon="5.71996">
        <ele>228.65</ele>
        <time>2019-10-23T10:09:12.001Z</time>
      </trkpt>
      <trkpt lat="43.27522" lon="5.71729">
        <ele>214.066</ele>
        <time>2019-10-23T10:09:42.001Z</time>
      </trkpt>
      <trkpt lat="43.27557" lon="5.7136">
        <ele>210.816</ele>
        <time>2019-10-23T10:10:15.001Z</time>
      </trkpt>
      <trkpt lat="43.27567" lon="5.70995">
        <ele>205.004</ele>
        <time>2019-10-23T10:10:45.001Z</time>
      </trkpt>
      <trkpt lat="43.27577" lon="5.70539">
        <ele>191.154</ele>
        <time>2019-10-23T10:11:15.001Z</time>
      </trkpt>
      <trkpt lat="43.27587" lon="5.7025">
        <ele>189.698</ele>
        <time>2019-10-23T10:11:45.001Z</time>
      </trkpt>
      <trkpt lat="43.276" lon="5.70026">
        <ele>197.197</ele>
        <time>2019-10-23T10:12:18.001Z</time>
      </trkpt>
      <trkpt lat="43.27515" lon="5.69707">
        <ele>197.776</ele>
        <time>2019-10-23T10:12:48.001Z</time>
      </trkpt>
      <trkpt lat="43.27393" lon="5.69266">
        <ele>172.888</ele>
        <time>2019-10-23T10:13:18.001Z</time>
      </trkpt>
      <trkpt lat="43.27278" lon="5.68853">
        <ele>162.129</ele>
        <time>2019-10-23T10:13:48.001Z</time>
      </trkpt>
      <trkpt lat="43.27187" lon="5.68535">
        <ele>156.532</ele>
        <time>2019-10-23T10:14:18.001Z</time>
      </trkpt>
      <trkpt lat="43.2711" lon="5.68258">
        <ele>159.153</ele>
        <time>2019-10-23T10:14:51.001Z</time>
      </trkpt>
      <trkpt lat="43.27132" lon="5.68081">
        <ele>162.158</ele>
        <time>2019-10-23T10:15:21.001Z</time>
      </trkpt>
      <trkpt lat="43.27172" lon="5.67991">
        <ele>168.585</ele>
        <time>2019-10-23T10:15:51.001Z</time>
      </trkpt>
      <trkpt lat="43.27155" lon="5.67895">
        <ele>174.334</ele>
        <time>2019-10-23T10:16:21.001Z</time>
      </trkpt>
      <trkpt lat="43.27077" lon="5.67858">
        <ele>178.339</ele>
        <time>2019-10-23T10:16:54.001Z</time>
      </trkpt>
      <trkpt lat="43.27007" lon="5.67825">
        <ele>184.056</ele>
        <time>2019-10-23T10:17:24.001Z</time>
      </trkpt>
      <trkpt lat="43.26956" lon="5.67749">
        <ele>187.781</ele>
        <time>2019-10-23T10:17:54.001Z</time>
      </trkpt>
      <trkpt lat="43.26909" lon="5.67664">
        <ele>191.449</ele>
        <time>2019-10-23T10:18:24.001Z</time>
      </trkpt>
      <trkpt lat="43.2687" lon="5.67581">
        <ele>197.569</ele>
        <time>2019-10-23T10:18:54.001Z</time>
      </trkpt>
      <trkpt lat="43.26821" lon="5.67491">
        <ele>204.484</ele>
        <time>2019-10-23T10:19:27.001Z</time>
      </trkpt>
      <trkpt lat="43.26749" lon="5.67456">
        <ele>202.906</ele>
        <time>2019-10-23T10:19:57.001Z</time>
      </trkpt>
      <trkpt lat="43.26681" lon="5.67421">
        <ele>200.343</ele>
        <time>2019-10-23T10:20:27.001Z</time>
      </trkpt>
      <trkpt lat="43.26614" lon="5.6738">
        <ele>206.108</ele>
        <time>2019-10-23T10:20:57.001Z</time>
      </trkpt>
      <trkpt lat="43.26568" lon="5.67291">
        <ele>213.398</ele>
        <time>2019-10-23T10:21:30.001Z</time>
      </trkpt>
      <trkpt lat="43.26567" lon="5.67191">
        <ele>216.956</ele>
        <time>2019-10-23T10:22:00Z</time>
      </trkpt>
      <trkpt lat="43.26575" lon="5.67097">
        <ele>220.278</ele>
        <time>2019-10-23T10:22:30.001Z</time>
      </trkpt>
      <trkpt lat="43.26586" lon="5.66987">
        <ele>223.852</ele>
        <time>2019-10-23T10:23:00Z</time>
      </trkpt>
      <trkpt lat="43.26604" lon="5.66702">
        <ele>220.02</ele>
        <time>2019-10-23T10:23:30.001Z</time>
      </trkpt>
      <trkpt lat="43.26478" lon="5.66593">
        <ele>197.501</ele>
        <time>2019-10-23T10:24:03.001Z</time>
      </trkpt>
      <trkpt lat="43.2656" lon="5.66341">
        <ele>187.626</ele>
        <time>2019-10-23T10:24:33.001Z</time>
      </trkpt>
      <trkpt lat="43.26739" lon="5.66153">
        <ele>175.212</ele>
        <time>2019-10-23T10:25:03.001Z</time>
      </trkpt>
      <trkpt lat="43.26698" lon="5.65849">
        <ele>171.306</ele>
        <time>2019-10-23T10:25:33.001Z</time>
      </trkpt>
      <trkpt lat="43.26684" lon="5.65417">
        <ele>168.517</ele>
        <time>2019-10-23T10:26:06.001Z</time>
      </trkpt>
      <trkpt lat="43.26731" lon="5.65078">
        <ele>152.644</ele>
        <time>2019-10-23T10:26:36.001Z</time>
      </trkpt>
      <trkpt lat="43.26846" lon="5.64806">
        <ele>141.632</ele>
        <time>2019-10-23T10:27:06.001Z</time>
      </trkpt>
      <trkpt lat="43.27021" lon="5.64599">
        <ele>136.162</ele>
        <time>2019-10-23T10:27:36.001Z</time>
      </trkpt>
      <trkpt lat="43.2719" lon="5.64383">
        <ele>128.964</ele>
        <time>2019-10-23T10:28:06.001Z</time>
      </trkpt>
      <trkpt lat="43.27275" lon="5.64056">
        <ele>130.202</ele>
        <time>2019-10-23T10:28:39.001Z</time>
      </trkpt>
      <trkpt lat="43.27386" lon="5.63774">
        <ele>122.308</ele>
        <time>2019-10-23T10:29:09.001Z</time>
      </trkpt>
      <trkpt lat="43.27461" lon="5.63445">
        <ele>117.039</ele>
        <time>2019-10-23T10:29:39.001Z</time>
      </trkpt>
      <trkpt lat="43.27585" lon="5.63178">
        <ele>112.187</ele>
        <time>2019-10-23T10:30:09.001Z</time>
      </trkpt>
      <trkpt lat="43.27688" lon="5.62862">
        <ele>108.466</ele>
        <time>2019-10-23T10:30:42.001Z</time>
      </trkpt>
      <trkpt lat="43.27705" lon="5.62556">
        <ele>107.031</ele>
        <time>2019-10-23T10:31:12.001Z</time>
      </trkpt>
      <trkpt lat="43.2772" lon="5.62244">
        <ele>104.225</ele>
        <time>2019-10-23T10:31:42.001Z</time>
      </trkpt>
      <trkpt lat="43.27785" lon="5.61992">
        <ele>103.188</ele>
        <time>2019-10-23T10:32:12.001Z</time>
      </trkpt>
      <trkpt lat="43.27789" lon="5.61741">
        <ele>106.416</ele>
        <time>2019-10-23T10:32:42.001Z</time>
      </trkpt>
      <trkpt lat="43.27853" lon="5.61474">
        <ele>109.48</ele>
        <time>2019-10-23T10:33:15.001Z</time>
      </trkpt>
      <trkpt lat="43.27882" lon="5.61361">
        <ele>111.705</ele>
        <time>2019-10-23T10:35:27.001Z</time>
      </trkpt>
      <trkpt lat="43.27949" lon="5.61182">
        <ele>111.731</ele>
        <time>2019-10-23T10:35:57.001Z</time>
      </trkpt>
      <trkpt lat="43.27989" lon="5.60965">
        <ele>108.906</ele>
        <time>2019-10-23T10:36:27.001Z</time>
      </trkpt>
      <trkpt lat="43.28073" lon="5.60705">
        <ele>104.468</ele>
        <time>2019-10-23T10:37:00Z</time>
      </trkpt>
      <trkpt lat="43.28149" lon="5.60499">
        <ele>105.179</ele>
        <time>2019-10-23T10:37:30.001Z</time>
      </trkpt>
      <trkpt lat="43.28225" lon="5.60301">
        <ele>107.92</ele>
        <time>2019-10-23T10:38:00Z</time>
      </trkpt>
      <trkpt lat="43.28267" lon="5.60055">
        <ele>106.101</ele>
        <time>2019-10-23T10:38:30.001Z</time>
      </trkpt>
      <trkpt lat="43.28291" lon="5.59795">
        <ele>106.669</ele>
        <time>2019-10-23T10:39:00Z</time>
      </trkpt>
      <trkpt lat="43.28349" lon="5.5958">
        <ele>111.486</ele>
        <time>2019-10-23T10:39:33.001Z</time>
      </trkpt>
      <trkpt lat="43.28434" lon="5.59438">
        <ele>113.979</ele>
        <time>2019-10-23T10:40:03.001Z</time>
      </trkpt>
      <trkpt lat="43.28465" lon="5.59251">
        <ele>117.2</ele>
        <time>2019-10-23T10:40:33.001Z</time>
      </trkpt>
      <trkpt lat="43.2853" lon="5.59085">
        <ele>122.317</ele>
        <time>2019-10-23T10:41:03.001Z</time>
      </trkpt>
      <trkpt lat="43.28573" lon="5.58933">
        <ele>123.815</ele>
        <time>2019-10-23T10:41:36.001Z</time>
      </trkpt>
      <trkpt lat="43.28616" lon="5.58784">
        <ele>123.841</ele>
        <time>2019-10-23T10:42:06.001Z</time>
      </trkpt>
      <trkpt lat="43.28672" lon="5.58577">
        <ele>121.506</ele>
        <time>2019-10-23T10:42:36.001Z</time>
      </trkpt>
      <trkpt lat="43.28736" lon="5.58305">
        <ele>118.257</ele>
        <time>2019-10-23T10:43:06.001Z</time>
      </trkpt>
      <trkpt lat="43.28779" lon="5.58077">
        <ele>120.114</ele>
        <time>2019-10-23T10:43:36.001Z</time>
      </trkpt>
      <trkpt lat="43.28797" lon="5.5776">
        <ele>110.089</ele>
        <time>2019-10-23T10:44:09.001Z</time>
      </trkpt>
      <trkpt lat="43.28819" lon="5.57478">
        <ele>113.042</ele>
        <time>2019-10-23T10:44:39.001Z</time>
      </trkpt>
      <trkpt lat="43.28917" lon="5.57254">
        <ele>119.573</ele>
        <time>2019-10-23T10:45:09.001Z</time>
      </trkpt>
      <trkpt lat="43.28834" lon="5.57194">
        <ele>114.876</ele>
        <time>2019-10-23T10:45:39.001Z</time>
      </trkpt>
      <trkpt lat="43.2885" lon="5.57074">
        <ele>125.194</ele>
        <time>2019-10-23T10:46:12.001Z</time>
      </trkpt>
      <trkpt lat="43.2891" lon="5.5693">
        <ele>133.598</ele>
        <time>2019-10-23T10:46:42.001Z</time>
      </trkpt>
      <trkpt lat="43.28934" lon="5.56829">
        <ele>124.316</ele>
        <time>2019-10-23T10:47:12.001Z</time>
      </trkpt>
      <trkpt lat="43.28945" lon="5.5674">
        <ele>126.888</ele>
        <time>2019-10-23T10:47:42.001Z</time>
      </trkpt>
      <trkpt lat="43.28938" lon="5.56655">
        <ele>128.922</ele>
        <time>2019-10-23T10:48:12.001Z</time>
      </trkpt>
      <trkpt lat="43.28837" lon="5.56468">
        <ele>126.449</ele>
        <time>2019-10-23T10:48:45.001Z</time>
      </trkpt>
      <trkpt lat="43.2871" lon="5.56129">
        <ele>111.325</ele>
        <time>2019-10-23T10:49:15.001Z</time>
      </trkpt>
      <trkpt lat="43.286" lon="5.55827">
        <ele>94.287</ele>
        <time>2019-10-23T10:49:45.001Z</time>
      </trkpt>
      <trkpt lat="43.28586" lon="5.55545">
        <ele>91.368</ele>
        <time>2019-10-23T10:50:15.001Z</time>
      </trkpt>
      <trkpt lat="43.28545" lon="5.55422">
        <ele>95.476</ele>
        <time>2019-10-23T10:50:57.001Z</time>
      </trkpt>
      <trkpt lat="43.28516" lon="5.55237">
        <ele>96.71</ele>
        <time>2019-10-23T10:51:27.001Z</time>
      </trkpt>
      <trkpt lat="43.28494" lon="5.55039">
        <ele>103.484</ele>
        <time>2019-10-23T10:51:57.001Z</time>
      </trkpt>
      <trkpt lat="43.28483" lon="5.54867">
        <ele>96.943</ele>
        <time>2019-10-23T10:52:27.001Z</time>
      </trkpt>
      <trkpt lat="43.28457" lon="5.54747">
        <ele>96.984</ele>
        <time>2019-10-23T10:53:00Z</time>
      </trkpt>
      <trkpt lat="43.28437" lon="5.54599">
        <ele>96.669</ele>
        <time>2019-10-23T10:53:33.001Z</time>
      </trkpt>
      <trkpt lat="43.28413" lon="5.54391">
        <ele>95.002</ele>
        <time>2019-10-23T10:54:03.001Z</time>
      </trkpt>
      <trkpt lat="43.28386" lon="5.54148">
        <ele>92.046</ele>
        <time>2019-10-23T10:54:33.001Z</time>
      </trkpt>
      <trkpt lat="43.28352" lon="5.53896">
        <ele>87.629</ele>
        <time>2019-10-23T10:55:03.001Z</time>
      </trkpt>
      <trkpt lat="43.2834" lon="5.53562">
        <ele>84.487</ele>
        <time>2019-10-23T10:55:36.001Z</time>
      </trkpt>
      <trkpt lat="43.28326" lon="5.53291">
        <ele>86.442</ele>
        <time>2019-10-23T10:56:06.001Z</time>
      </trkpt>
      <trkpt lat="43.28275" lon="5.53027">
        <ele>87.811</ele>
        <time>2019-10-23T10:56:36.001Z</time>
      </trkpt>
      <trkpt lat="43.2823" lon="5.52802">
        <ele>87.82</ele>
        <time>2019-10-23T10:57:06.001Z</time>
      </trkpt>
      <trkpt lat="43.28194" lon="5.52515">
        <ele>85.696</ele>
        <time>2019-10-23T10:57:36.001Z</time>
      </trkpt>
      <trkpt lat="43.2814" lon="5.52201">
        <ele>82.892</ele>
        <time>2019-10-23T10:58:09.001Z</time>
      </trkpt>
      <trkpt lat="43.28124" lon="5.51912">
        <ele>86.291</ele>
        <time>2019-10-23T10:58:39.001Z</time>
      </trkpt>
      <trkpt lat="43.28144" lon="5.51609">
        <ele>86.329</ele>
        <time>2019-10-23T10:59:09.001Z</time>
      </trkpt>
      <trkpt lat="43.28172" lon="5.51481">
        <ele>87.331</ele>
        <time>2019-10-23T10:59:45.001Z</time>
      </trkpt>
      <trkpt lat="43.28187" lon="5.51196">
        <ele>82.244</ele>
        <time>2019-10-23T11:00:18.001Z</time>
      </trkpt>
      <trkpt lat="43.28217" lon="5.50933">
        <ele>86.792</ele>
        <time>2019-10-23T11:00:48.001Z</time>
      </trkpt>
      <trkpt lat="43.28309" lon="5.50701">
        <ele>84.637</ele>
        <time>2019-10-23T11:01:18.001Z</time>
      </trkpt>
      <trkpt lat="43.28336" lon="5.50395">
        <ele>77.449</ele>
        <time>2019-10-23T11:01:48.001Z</time>
      </trkpt>
      <trkpt lat="43.28357" lon="5.5013">
        <ele>76.845</ele>
        <time>2019-10-23T11:02:18.001Z</time>
      </trkpt>
      <trkpt lat="43.28357" lon="5.49934">
        <ele>74.944</ele>
        <time>2019-10-23T11:02:54.001Z</time>
      </trkpt>
      <trkpt lat="43.28333" lon="5.49756">
        <ele>73.871</ele>
        <time>2019-10-23T11:03:27.001Z</time>
      </trkpt>
      <trkpt lat="43.28353" lon="5.49518">
        <ele>71.538</ele>
        <time>2019-10-23T11:03:57.001Z</time>
      </trkpt>
      <trkpt lat="43.28389" lon="5.49277">
        <ele>72.148</ele>
        <time>2019-10-23T11:04:27.001Z</time>
      </trkpt>
      <trkpt lat="43.28423" lon="5.49021">
        <ele>72.896</ele>
        <time>2019-10-23T11:05:00Z</time>
      </trkpt>
      <trkpt lat="43.28468" lon="5.48815">
        <ele>73.169</ele>
        <time>2019-10-23T11:05:30.001Z</time>
      </trkpt>
      <trkpt lat="43.28478" lon="5.48585">
        <ele>69.899</ele>
        <time>2019-10-23T11:06:00Z</time>
      </trkpt>
      <trkpt lat="43.28489" lon="5.48352">
        <ele>71.894</ele>
        <time>2019-10-23T11:06:30.001Z</time>
      </trkpt>
      <trkpt lat="43.28524" lon="5.48261">
        <ele>70.377</ele>
        <time>2019-10-23T11:07:21.001Z</time>
      </trkpt>
      <trkpt lat="43.28569" lon="5.48028">
        <ele>74.409</ele>
        <time>2019-10-23T11:07:54.001Z</time>
      </trkpt>
      <trkpt lat="43.28615" lon="5.4777">
        <ele>64.017</ele>
        <time>2019-10-23T11:08:24.001Z</time>
      </trkpt>
      <trkpt lat="43.2863" lon="5.47497">
        <ele>59.87</ele>
        <time>2019-10-23T11:08:54.001Z</time>
      </trkpt>
      <trkpt lat="43.28631" lon="5.47241">
        <ele>57.305</ele>
        <time>2019-10-23T11:09:24.001Z</time>
      </trkpt>
      <trkpt lat="43.28633" lon="5.46902">
        <ele>64.641</ele>
        <time>2019-10-23T11:09:57.001Z</time>
      </trkpt>
      <trkpt lat="43.28698" lon="5.4667">
        <ele>65.529</ele>
        <time>2019-10-23T11:10:27.001Z</time>
      </trkpt>
      <trkpt lat="43.2878" lon="5.46435">
        <ele>73.672</ele>
        <time>2019-10-23T11:10:57.001Z</time>
      </trkpt>
      <trkpt lat="43.28868" lon="5.46188">
        <ele>71.186</ele>
        <time>2019-10-23T11:11:27.001Z</time>
      </trkpt>
      <trkpt lat="43.28877" lon="5.4629">
        <ele>61.499</ele>
        <time>2019-10-23T11:11:57.001Z</time>
      </trkpt>
      <trkpt lat="43.28964" lon="5.46308">
        <ele>70.005</ele>
        <time>2019-10-23T11:12:45.001Z</time>
      </trkpt>
      <trkpt lat="43.29019" lon="5.46319">
        <ele>57.4</ele>
        <time>2019-10-23T11:13:15.001Z</time>
      </trkpt>
      <trkpt lat="43.29099" lon="5.46235">
        <ele>56.666</ele>
        <time>2019-10-23T11:13:45.001Z</time>
      </trkpt>
      <trkpt lat="43.29183" lon="5.46019">
        <ele>52.083</ele>
        <time>2019-10-23T11:14:15.001Z</time>
      </trkpt>
      <trkpt lat="43.29266" lon="5.45783">
        <ele>47.489</ele>
        <time>2019-10-23T11:14:48.001Z</time>
      </trkpt>
      <trkpt lat="43.29294" lon="5.45652">
        <ele>53.751</ele>
        <time>2019-10-23T11:15:18.001Z</time>
      </trkpt>
      <trkpt lat="43.29324" lon="5.45513">
        <ele>56.028</ele>
        <time>2019-10-23T11:15:48.001Z</time>
      </trkpt>
      <trkpt lat="43.29355" lon="5.45269">
        <ele>55.832</ele>
        <time>2019-10-23T11:16:18.001Z</time>
      </trkpt>
      <trkpt lat="43.29303" lon="5.45033">
        <ele>47.185</ele>
        <time>2019-10-23T11:16:48.001Z</time>
      </trkpt>
      <trkpt lat="43.29167" lon="5.44731">
        <ele>41.935</ele>
        <time>2019-10-23T11:17:21.001Z</time>
      </trkpt>
      <trkpt lat="43.29194" lon="5.44486">
        <ele>43.953</ele>
        <time>2019-10-23T11:17:51.001Z</time>
      </trkpt>
      <trkpt lat="43.2911" lon="5.44268">
        <ele>42.172</ele>
        <time>2019-10-23T11:18:21.001Z</time>
      </trkpt>
      <trkpt lat="43.29077" lon="5.44048">
        <ele>41.795</ele>
        <time>2019-10-23T11:18:51.001Z</time>
      </trkpt>
      <trkpt lat="43.29058" lon="5.43992">
        <ele>42.892</ele>
        <time>2019-10-23T11:22:21.001Z</time>
      </trkpt>
      <trkpt lat="43.29002" lon="5.43783">
        <ele>39.259</ele>
        <time>2019-10-23T11:22:51.001Z</time>
      </trkpt>
      <trkpt lat="43.28929" lon="5.43674">
        <ele>42.4</ele>
        <time>2019-10-23T11:23:21.001Z</time>
      </trkpt>
      <trkpt lat="43.28902" lon="5.43446">
        <ele>43.114</ele>
        <time>2019-10-23T11:23:51.001Z</time>
      </trkpt>
      <trkpt lat="43.28898" lon="5.43161">
        <ele>43.449</ele>
        <time>2019-10-23T11:24:21.001Z</time>
      </trkpt>
      <trkpt lat="43.28904" lon="5.42815">
        <ele>36.815</ele>
        <time>2019-10-23T11:24:54.001Z</time>
      </trkpt>
      <trkpt lat="43.28993" lon="5.42637">
        <ele>40.676</ele>
        <time>2019-10-23T11:25:57.001Z</time>
      </trkpt>
      <trkpt lat="43.29059" lon="5.42453">
        <ele>39.597</ele>
        <time>2019-10-23T11:26:27.001Z</time>
      </trkpt>
      <trkpt lat="43.29064" lon="5.42239">
        <ele>37.901</ele>
        <time>2019-10-23T11:26:57.001Z</time>
      </trkpt>
      <trkpt lat="43.29053" lon="5.42108">
        <ele>45.077</ele>
        <time>2019-10-23T11:27:30.001Z</time>
      </trkpt>
      <trkpt lat="43.29052" lon="5.42003">
        <ele>52.566</ele>
        <time>2019-10-23T11:28:00Z</time>
      </trkpt>
      <trkpt lat="43.29058" lon="5.41891">
        <ele>58.264</ele>
        <time>2019-10-23T11:28:30.001Z</time>
      </trkpt>
      <trkpt lat="43.29112" lon="5.41735">
        <ele>58.48</ele>
        <time>2019-10-23T11:29:00Z</time>
      </trkpt>
      <trkpt lat="43.29177" lon="5.41454">
        <ele>47.45</ele>
        <time>2019-10-23T11:29:30.001Z</time>
      </trkpt>
      <trkpt lat="43.29167" lon="5.41189">
        <ele>36.085</ele>
        <time>2019-10-23T11:30:03.001Z</time>
      </trkpt>
      <trkpt lat="43.29161" lon="5.40976">
        <ele>40.922</ele>
        <time>2019-10-23T11:30:33.001Z</time>
      </trkpt>
      <trkpt lat="43.29168" lon="5.40877">
        <ele>46.463</ele>
        <time>2019-10-23T11:31:15.001Z</time>
      </trkpt>
      <trkpt lat="43.29163" lon="5.40691">
        <ele>54.287</ele>
        <time>2019-10-23T11:31:45.001Z</time>
      </trkpt>
      <trkpt lat="43.2915" lon="5.40522">
        <ele>50.183</ele>
        <time>2019-10-23T11:32:18.001Z</time>
      </trkpt>
      <trkpt lat="43.29165" lon="5.40394">
        <ele>56.357</ele>
        <time>2019-10-23T11:33:24.001Z</time>
      </trkpt>
      <trkpt lat="43.29198" lon="5.40274">
        <ele>40.132</ele>
        <time>2019-10-23T11:33:57.001Z</time>
      </trkpt>
      <trkpt lat="43.2922" lon="5.40193">
        <ele>36.968</ele>
        <time>2019-10-23T11:34:33.001Z</time>
      </trkpt>
      <trkpt lat="43.29231" lon="5.40113">
        <ele>37.05</ele>
        <time>2019-10-23T11:35:06.001Z</time>
      </trkpt>
      <trkpt lat="43.29166" lon="5.40037">
        <ele>29.992</ele>
        <time>2019-10-23T11:35:42.001Z</time>
      </trkpt>
      <trkpt lat="43.29076" lon="5.39989">
        <ele>33.906</ele>
        <time>2019-10-23T11:36:15.001Z</time>
      </trkpt>
      <trkpt lat="43.28995" lon="5.3999">
        <ele>34.518</ele>
        <time>2019-10-23T11:36:51.001Z</time>
      </trkpt>
      <trkpt lat="43.28895" lon="5.39994">
        <ele>38.154</ele>
        <time>2019-10-23T11:37:24.001Z</time>
      </trkpt>
      <trkpt lat="43.28788" lon="5.39936">
        <ele>44.219</ele>
        <time>2019-10-23T11:37:57.001Z</time>
      </trkpt>
      <trkpt lat="43.28772" lon="5.39811">
        <ele>52.16</ele>
        <time>2019-10-23T11:38:27.001Z</time>
      </trkpt>
      <trkpt lat="43.28766" lon="5.397">
        <ele>39.555</ele>
        <time>2019-10-23T11:38:57.001Z</time>
      </trkpt>
      <trkpt lat="43.2882" lon="5.39655">
        <ele>41.71</ele>
        <time>2019-10-23T11:39:54.001Z</time>
      </trkpt>
      <trkpt lat="43.28877" lon="5.39752">
        <ele>44.597</ele>
        <time>2019-10-23T11:40:24.001Z</time>
      </trkpt>
      <trkpt lat="43.28903" lon="5.39906">
        <ele>43.53</ele>
        <time>2019-10-23T11:40:57.001Z</time>
      </trkpt>
      <trkpt lat="43.2893" lon="5.39989">
        <ele>40.998</ele>
        <time>2019-10-23T11:41:36.001Z</time>
      </trkpt>
      <trkpt lat="43.28999" lon="5.39968">
        <ele>32.699</ele>
        <time>2019-10-23T11:42:06.001Z</time>
      </trkpt>
      <trkpt lat="43.29005" lon="5.39905">
        <ele>34.598</ele>
        <time>2019-10-23T11:45:39.001Z</time>
      </trkpt>
      <trkpt lat="43.28988" lon="5.39866">
        <ele>41.532</ele>
        <time>2019-10-23T11:46:24.001Z</time>
      </trkpt>
      <trkpt lat="43.28982" lon="5.39818">
        <ele>39.871</ele>
        <time>2019-10-23T11:48:15.001Z</time>
      </trkpt>
      <trkpt lat="43.28975" lon="5.39797">
        <ele>43.118</ele>
        <time>2019-10-23T11:49:36.001Z</time>
      </trkpt>
      <trkpt lat="43.28972" lon="5.39774">
        <ele>39.887</ele>
        <time>2019-10-23T11:54:27.001Z</time>
      </trkpt>
      <trkpt lat="43.28967" lon="5.39739">
        <ele>40.943</ele>
        <time>2019-10-23T11:59:30.001Z</time>
      </trkpt>
      <trkpt lat="43.28987" lon="5.39799">
        <ele>31.529</ele>
        <time>2019-10-23T12:01:00Z</time>
      </trkpt>
      <trkpt lat="43.28981" lon="5.39804">
        <ele>31.222</ele>
        <time>2019-10-23T12:03:27.001Z</time>
      </trkpt>
    </trkseg>
  </trk>
  <trk>
    <name><![CDATA[Tracé 20191024-092239]]></name>
    <trkseg>
      <trkpt lat="43.28787" lon="5.3968">
        <ele>45.58</ele>
        <time>2019-10-24T07:23:30Z</time>
      </trkpt>
      <trkpt lat="43.28786" lon="5.39675">
        <ele>45.451</ele>
        <time>2019-10-24T07:26:18Z</time>
      </trkpt>
      <trkpt lat="43.28845" lon="5.39656">
        <ele>49.537</ele>
        <time>2019-10-24T07:27:33Z</time>
      </trkpt>
      <trkpt lat="43.28918" lon="5.39742">
        <ele>48.09</ele>
        <time>2019-10-24T07:28:09Z</time>
      </trkpt>
      <trkpt lat="43.28945" lon="5.39648">
        <ele>49.395</ele>
        <time>2019-10-24T07:28:42Z</time>
      </trkpt>
      <trkpt lat="43.28886" lon="5.39463">
        <ele>47.999</ele>
        <time>2019-10-24T07:29:12Z</time>
      </trkpt>
      <trkpt lat="43.28836" lon="5.3928">
        <ele>55.736</ele>
        <time>2019-10-24T07:29:42Z</time>
      </trkpt>
      <trkpt lat="43.28786" lon="5.39102">
        <ele>66.207</ele>
        <time>2019-10-24T07:30:12Z</time>
      </trkpt>
      <trkpt lat="43.28742" lon="5.38952">
        <ele>67.155</ele>
        <time>2019-10-24T07:30:42Z</time>
      </trkpt>
      <trkpt lat="43.28801" lon="5.38845">
        <ele>50.533</ele>
        <time>2019-10-24T07:31:12Z</time>
      </trkpt>
      <trkpt lat="43.28918" lon="5.38731">
        <ele>54.081</ele>
        <time>2019-10-24T07:31:45Z</time>
      </trkpt>
      <trkpt lat="43.29032" lon="5.38632">
        <ele>55.617</ele>
        <time>2019-10-24T07:32:15Z</time>
      </trkpt>
      <trkpt lat="43.29131" lon="5.38519">
        <ele>56.339</ele>
        <time>2019-10-24T07:32:45Z</time>
      </trkpt>
      <trkpt lat="43.29207" lon="5.38398">
        <ele>59.099</ele>
        <time>2019-10-24T07:33:15Z</time>
      </trkpt>
      <trkpt lat="43.29252" lon="5.38326">
        <ele>58.184</ele>
        <time>2019-10-24T07:33:51Z</time>
      </trkpt>
      <trkpt lat="43.29338" lon="5.38213">
        <ele>52.975</ele>
        <time>2019-10-24T07:34:21Z</time>
      </trkpt>
      <trkpt lat="43.29426" lon="5.38201">
        <ele>55.889</ele>
        <time>2019-10-24T07:35:06Z</time>
      </trkpt>
      <trkpt lat="43.29624" lon="5.38134">
        <ele>56.32</ele>
        <time>2019-10-24T07:35:36Z</time>
      </trkpt>
      <trkpt lat="43.29802" lon="5.38089">
        <ele>53.877</ele>
        <time>2019-10-24T07:36:06Z</time>
      </trkpt>
      <trkpt lat="43.29888" lon="5.38084">
        <ele>48.966</ele>
        <time>2019-10-24T07:37:06Z</time>
      </trkpt>
      <trkpt lat="43.29923" lon="5.38078">
        <ele>35.46</ele>
        <time>2019-10-24T07:37:39Z</time>
      </trkpt>
      <trkpt lat="43.29935" lon="5.37941">
        <ele>23.239</ele>
        <time>2019-10-24T07:38:09Z</time>
      </trkpt>
      <trkpt lat="43.2995" lon="5.37867">
        <ele>19.415</ele>
        <time>2019-10-24T07:38:48Z</time>
      </trkpt>
      <trkpt lat="43.29954" lon="5.37753">
        <ele>24.503</ele>
        <time>2019-10-24T07:39:21Z</time>
      </trkpt>
      <trkpt lat="43.29937" lon="5.37683">
        <ele>29.596</ele>
        <time>2019-10-24T07:40:03Z</time>
      </trkpt>
      <trkpt lat="43.29911" lon="5.37508">
        <ele>42.683</ele>
        <time>2019-10-24T07:40:39Z</time>
      </trkpt>
      <trkpt lat="43.2993" lon="5.37392">
        <ele>37.292</ele>
        <time>2019-10-24T07:41:24Z</time>
      </trkpt>
      <trkpt lat="43.29938" lon="5.37218">
        <ele>24.744</ele>
        <time>2019-10-24T07:41:54Z</time>
      </trkpt>
      <trkpt lat="43.29983" lon="5.37142">
        <ele>16.89</ele>
        <time>2019-10-24T07:42:24Z</time>
      </trkpt>
      <trkpt lat="43.30129" lon="5.36989">
        <ele>22.469</ele>
        <time>2019-10-24T07:42:57Z</time>
      </trkpt>
      <trkpt lat="43.30196" lon="5.36928">
        <ele>27.207</ele>
        <time>2019-10-24T07:43:30Z</time>
      </trkpt>
      <trkpt lat="43.3035" lon="5.36815">
        <ele>25.547</ele>
        <time>2019-10-24T07:44:00Z</time>
      </trkpt>
      <trkpt lat="43.30449" lon="5.36726">
        <ele>23.548</ele>
        <time>2019-10-24T07:45:06Z</time>
      </trkpt>
      <trkpt lat="43.30514" lon="5.36633">
        <ele>25.244</ele>
        <time>2019-10-24T07:45:39Z</time>
      </trkpt>
      <trkpt lat="43.30529" lon="5.36563">
        <ele>19.327</ele>
        <time>2019-10-24T07:46:12Z</time>
      </trkpt>
      <trkpt lat="43.30434" lon="5.36507">
        <ele>13.858</ele>
        <time>2019-10-24T07:46:42Z</time>
      </trkpt>
      <trkpt lat="43.30334" lon="5.36464">
        <ele>10.664</ele>
        <time>2019-10-24T07:47:15Z</time>
      </trkpt>
      <trkpt lat="43.30353" lon="5.36486">
        <ele>7.548</ele>
        <time>2019-10-24T07:49:18Z</time>
      </trkpt>
      <trkpt lat="43.30328" lon="5.36603">
        <ele>15.837</ele>
        <time>2019-10-24T07:49:51Z</time>
      </trkpt>
      <trkpt lat="43.303" lon="5.36761">
        <ele>33.761</ele>
        <time>2019-10-24T07:50:21Z</time>
      </trkpt>
      <trkpt lat="43.30265" lon="5.36885">
        <ele>33.29</ele>
        <time>2019-10-24T07:50:51Z</time>
      </trkpt>
      <trkpt lat="43.30156" lon="5.36968">
        <ele>40.466</ele>
        <time>2019-10-24T07:51:21Z</time>
      </trkpt>
      <trkpt lat="43.30031" lon="5.37075">
        <ele>45.799</ele>
        <time>2019-10-24T07:51:54Z</time>
      </trkpt>
      <trkpt lat="43.29929" lon="5.37149">
        <ele>42.334</ele>
        <time>2019-10-24T07:52:24.001Z</time>
      </trkpt>
      <trkpt lat="43.29793" lon="5.37269">
        <ele>33.797</ele>
        <time>2019-10-24T07:52:54.001Z</time>
      </trkpt>
      <trkpt lat="43.29642" lon="5.37388">
        <ele>31.735</ele>
        <time>2019-10-24T07:53:24.001Z</time>
      </trkpt>
      <trkpt lat="43.29626" lon="5.37328">
        <ele>25.291</ele>
        <time>2019-10-24T07:54:12.001Z</time>
      </trkpt>
      <trkpt lat="43.29629" lon="5.37199">
        <ele>16.293</ele>
        <time>2019-10-24T07:54:42.001Z</time>
      </trkpt>
      <trkpt lat="43.29625" lon="5.37238">
        <ele>11.623</ele>
        <time>2019-10-24T07:56:09.001Z</time>
      </trkpt>
      <trkpt lat="43.2962" lon="5.37338">
        <ele>10.863</ele>
        <time>2019-10-24T07:56:45.001Z</time>
      </trkpt>
      <trkpt lat="43.29613" lon="5.37328">
        <ele>13.117</ele>
        <time>2019-10-24T08:01:03.001Z</time>
      </trkpt>
      <trkpt lat="43.29619" lon="5.3719">
        <ele>2.965</ele>
        <time>2019-10-24T08:01:33.001Z</time>
      </trkpt>
      <trkpt lat="43.29607" lon="5.37052">
        <ele>4</ele>
        <time>2019-10-24T08:02:03.001Z</time>
      </trkpt>
      <trkpt lat="43.29598" lon="5.3694">
        <ele>2.8</ele>
        <time>2019-10-24T08:02:36.001Z</time>
      </trkpt>
      <trkpt lat="43.29599" lon="5.36851">
        <ele>4.4</ele>
        <time>2019-10-24T08:03:24.001Z</time>
      </trkpt>
      <trkpt lat="43.29577" lon="5.36681">
        <ele>0.234</ele>
        <time>2019-10-24T08:03:57.001Z</time>
      </trkpt>
      <trkpt lat="43.29548" lon="5.36518">
        <ele>5.1</ele>
        <time>2019-10-24T08:04:27.001Z</time>
      </trkpt>
      <trkpt lat="43.29532" lon="5.36336">
        <ele>9.8</ele>
        <time>2019-10-24T08:04:57.001Z</time>
      </trkpt>
      <trkpt lat="43.29649" lon="5.36268">
        <ele>7.763</ele>
        <time>2019-10-24T08:05:27.001Z</time>
      </trkpt>
      <trkpt lat="43.29759" lon="5.36308">
        <ele>5.825</ele>
        <time>2019-10-24T08:05:57.001Z</time>
      </trkpt>
      <trkpt lat="43.29826" lon="5.36343">
        <ele>3.353</ele>
        <time>2019-10-24T08:06:36.001Z</time>
      </trkpt>
      <trkpt lat="43.29828" lon="5.36343">
        <ele>3.898</ele>
        <time>2019-10-24T08:07:36.001Z</time>
      </trkpt>
      <trkpt lat="43.29914" lon="5.36361">
        <ele>7.63</ele>
        <time>2019-10-24T08:09:24.001Z</time>
      </trkpt>
      <trkpt lat="43.30061" lon="5.36409">
        <ele>10.324</ele>
        <time>2019-10-24T08:09:54.001Z</time>
      </trkpt>
      <trkpt lat="43.30203" lon="5.36444">
        <ele>14.541</ele>
        <time>2019-10-24T08:10:24.001Z</time>
      </trkpt>
      <trkpt lat="43.30316" lon="5.36481">
        <ele>23.161</ele>
        <time>2019-10-24T08:10:54.001Z</time>
      </trkpt>
      <trkpt lat="43.30391" lon="5.36506">
        <ele>23.547</ele>
        <time>2019-10-24T08:11:45.001Z</time>
      </trkpt>
      <trkpt lat="43.30499" lon="5.36529">
        <ele>22.017</ele>
        <time>2019-10-24T08:12:15.001Z</time>
      </trkpt>
      <trkpt lat="43.30643" lon="5.36553">
        <ele>34.732</ele>
        <time>2019-10-24T08:12:48.001Z</time>
      </trkpt>
      <trkpt lat="43.30763" lon="5.36596">
        <ele>48.209</ele>
        <time>2019-10-24T08:13:18.001Z</time>
      </trkpt>
      <trkpt lat="43.30837" lon="5.3663">
        <ele>38.126</ele>
        <time>2019-10-24T08:14:03.001Z</time>
      </trkpt>
      <trkpt lat="43.30962" lon="5.36708">
        <ele>23.82</ele>
        <time>2019-10-24T08:14:33.001Z</time>
      </trkpt>
      <trkpt lat="43.31099" lon="5.36713">
        <ele>35.994</ele>
        <time>2019-10-24T08:15:03.001Z</time>
      </trkpt>
      <trkpt lat="43.31234" lon="5.367">
        <ele>12.356</ele>
        <time>2019-10-24T08:15:33.001Z</time>
      </trkpt>
      <trkpt lat="43.31321" lon="5.36629">
        <ele>4.3</ele>
        <time>2019-10-24T08:16:06.001Z</time>
      </trkpt>
      <trkpt lat="43.31503" lon="5.36527">
        <ele>4</ele>
        <time>2019-10-24T08:16:39.001Z</time>
      </trkpt>
      <trkpt lat="43.31614" lon="5.3646">
        <ele>3.9</ele>
        <time>2019-10-24T08:17:09.001Z</time>
      </trkpt>
      <trkpt lat="43.31735" lon="5.36359">
        <ele>0.036</ele>
        <time>2019-10-24T08:17:39.001Z</time>
      </trkpt>
      <trkpt lat="43.31843" lon="5.36286">
        <ele>2.454</ele>
        <time>2019-10-24T08:18:09.001Z</time>
      </trkpt>
      <trkpt lat="43.32045" lon="5.36296">
        <ele>7.732</ele>
        <time>2019-10-24T08:18:39.001Z</time>
      </trkpt>
      <trkpt lat="43.32219" lon="5.36225">
        <ele>3.039</ele>
        <time>2019-10-24T08:19:09.001Z</time>
      </trkpt>
      <trkpt lat="43.32361" lon="5.36103">
        <ele>4.397</ele>
        <time>2019-10-24T08:19:42.001Z</time>
      </trkpt>
      <trkpt lat="43.32495" lon="5.35983">
        <ele>7.855</ele>
        <time>2019-10-24T08:20:12.001Z</time>
      </trkpt>
      <trkpt lat="43.32607" lon="5.35904">
        <ele>14.871</ele>
        <time>2019-10-24T08:20:42.001Z</time>
      </trkpt>
      <trkpt lat="43.32655" lon="5.35871">
        <ele>7.982</ele>
        <time>2019-10-24T08:22:00Z</time>
      </trkpt>
      <trkpt lat="43.32715" lon="5.35807">
        <ele>10.565</ele>
        <time>2019-10-24T08:24:24.001Z</time>
      </trkpt>
      <trkpt lat="43.32716" lon="5.35564">
        <ele>3.246</ele>
        <time>2019-10-24T08:24:54.001Z</time>
      </trkpt>
      <trkpt lat="43.3289" lon="5.35507">
        <ele>6.8</ele>
        <time>2019-10-24T08:25:24.001Z</time>
      </trkpt>
      <trkpt lat="43.33044" lon="5.35521">
        <ele>12.7</ele>
        <time>2019-10-24T08:25:57.001Z</time>
      </trkpt>
      <trkpt lat="43.33207" lon="5.35481">
        <ele>11.2</ele>
        <time>2019-10-24T08:26:27.001Z</time>
      </trkpt>
      <trkpt lat="43.33347" lon="5.35462">
        <ele>13.007</ele>
        <time>2019-10-24T08:26:57.001Z</time>
      </trkpt>
      <trkpt lat="43.33494" lon="5.35466">
        <ele>13.847</ele>
        <time>2019-10-24T08:27:27.001Z</time>
      </trkpt>
      <trkpt lat="43.33592" lon="5.35422">
        <ele>12.551</ele>
        <time>2019-10-24T08:27:57.001Z</time>
      </trkpt>
      <trkpt lat="43.33651" lon="5.3526">
        <ele>6.749</ele>
        <time>2019-10-24T08:28:27.001Z</time>
      </trkpt>
      <trkpt lat="43.33709" lon="5.35055">
        <ele>0.249</ele>
        <time>2019-10-24T08:29:00Z</time>
      </trkpt>
      <trkpt lat="43.33829" lon="5.34914">
        <ele>10.4</ele>
        <time>2019-10-24T08:29:30.001Z</time>
      </trkpt>
      <trkpt lat="43.33978" lon="5.34887">
        <ele>1.823</ele>
        <time>2019-10-24T08:30:00Z</time>
      </trkpt>
      <trkpt lat="43.33987" lon="5.3489">
        <ele>3.475</ele>
        <time>2019-10-24T08:33:09.001Z</time>
      </trkpt>
      <trkpt lat="43.34098" lon="5.34869">
        <ele>2.667</ele>
        <time>2019-10-24T08:33:39.001Z</time>
      </trkpt>
      <trkpt lat="43.34265" lon="5.34808">
        <ele>8.7</ele>
        <time>2019-10-24T08:34:09.001Z</time>
      </trkpt>
      <trkpt lat="43.34451" lon="5.34702">
        <ele>15.3</ele>
        <time>2019-10-24T08:34:39.001Z</time>
      </trkpt>
      <trkpt lat="43.34599" lon="5.34604">
        <ele>13.7</ele>
        <time>2019-10-24T08:35:12.001Z</time>
      </trkpt>
      <trkpt lat="43.34725" lon="5.34454">
        <ele>3.687</ele>
        <time>2019-10-24T08:35:42.001Z</time>
      </trkpt>
      <trkpt lat="43.34863" lon="5.34329">
        <ele>1.518</ele>
        <time>2019-10-24T08:36:12.001Z</time>
      </trkpt>
      <trkpt lat="43.3501" lon="5.34201">
        <ele>5.258</ele>
        <time>2019-10-24T08:36:42.001Z</time>
      </trkpt>
      <trkpt lat="43.3513" lon="5.34022">
        <ele>6.067</ele>
        <time>2019-10-24T08:37:12.001Z</time>
      </trkpt>
      <trkpt lat="43.35227" lon="5.33856">
        <ele>9.449</ele>
        <time>2019-10-24T08:37:42.001Z</time>
      </trkpt>
      <trkpt lat="43.35328" lon="5.33697">
        <ele>6.428</ele>
        <time>2019-10-24T08:38:15.001Z</time>
      </trkpt>
      <trkpt lat="43.35309" lon="5.33681">
        <ele>6.764</ele>
        <time>2019-10-24T08:58:03.001Z</time>
      </trkpt>
      <trkpt lat="43.35348" lon="5.33692">
        <ele>2.541</ele>
        <time>2019-10-24T08:58:33.001Z</time>
      </trkpt>
      <trkpt lat="43.35444" lon="5.33501">
        <ele>5.773</ele>
        <time>2019-10-24T08:59:03.001Z</time>
      </trkpt>
      <trkpt lat="43.35435" lon="5.33305">
        <ele>12.657</ele>
        <time>2019-10-24T08:59:33.001Z</time>
      </trkpt>
      <trkpt lat="43.35375" lon="5.33077">
        <ele>3.197</ele>
        <time>2019-10-24T09:00:03.001Z</time>
      </trkpt>
      <trkpt lat="43.35392" lon="5.32848">
        <ele>3.202</ele>
        <time>2019-10-24T09:00:33.001Z</time>
      </trkpt>
      <trkpt lat="43.35575" lon="5.32769">
        <ele>1.434</ele>
        <time>2019-10-24T09:01:06.001Z</time>
      </trkpt>
      <trkpt lat="43.35692" lon="5.32737">
        <ele>9.581</ele>
        <time>2019-10-24T09:01:36.001Z</time>
      </trkpt>
      <trkpt lat="43.35766" lon="5.327">
        <ele>9.653</ele>
        <time>2019-10-24T09:02:06.001Z</time>
      </trkpt>
      <trkpt lat="43.35845" lon="5.32628">
        <ele>12.534</ele>
        <time>2019-10-24T09:02:36.001Z</time>
      </trkpt>
      <trkpt lat="43.35907" lon="5.3238">
        <ele>9.368</ele>
        <time>2019-10-24T09:03:06.001Z</time>
      </trkpt>
      <trkpt lat="43.35786" lon="5.32116">
        <ele>5.057</ele>
        <time>2019-10-24T09:03:36.001Z</time>
      </trkpt>
      <trkpt lat="43.35818" lon="5.31898">
        <ele>4.9</ele>
        <time>2019-10-24T09:04:09.001Z</time>
      </trkpt>
      <trkpt lat="43.35942" lon="5.31743">
        <ele>7.7</ele>
        <time>2019-10-24T09:04:39.001Z</time>
      </trkpt>
      <trkpt lat="43.35985" lon="5.31568">
        <ele>4.742</ele>
        <time>2019-10-24T09:05:09.001Z</time>
      </trkpt>
      <trkpt lat="43.36051" lon="5.31385">
        <ele>4.717</ele>
        <time>2019-10-24T09:05:39.001Z</time>
      </trkpt>
      <trkpt lat="43.36095" lon="5.31264">
        <ele>3.972</ele>
        <time>2019-10-24T09:06:21.001Z</time>
      </trkpt>
      <trkpt lat="43.36193" lon="5.311">
        <ele>7.687</ele>
        <time>2019-10-24T09:06:51.001Z</time>
      </trkpt>
      <trkpt lat="43.36204" lon="5.30905">
        <ele>7.715</ele>
        <time>2019-10-24T09:07:21.001Z</time>
      </trkpt>
      <trkpt lat="43.36165" lon="5.30677">
        <ele>13.475</ele>
        <time>2019-10-24T09:07:54.001Z</time>
      </trkpt>
      <trkpt lat="43.36181" lon="5.30457">
        <ele>4.913</ele>
        <time>2019-10-24T09:08:24.001Z</time>
      </trkpt>
      <trkpt lat="43.36188" lon="5.30255">
        <ele>4.935</ele>
        <time>2019-10-24T09:08:54.001Z</time>
      </trkpt>
      <trkpt lat="43.3612" lon="5.30056">
        <ele>11.116</ele>
        <time>2019-10-24T09:09:24.001Z</time>
      </trkpt>
      <trkpt lat="43.36043" lon="5.29858">
        <ele>12.318</ele>
        <time>2019-10-24T09:09:54.001Z</time>
      </trkpt>
      <trkpt lat="43.36046" lon="5.29652">
        <ele>8.709</ele>
        <time>2019-10-24T09:10:24.001Z</time>
      </trkpt>
      <trkpt lat="43.36034" lon="5.29478">
        <ele>15.496</ele>
        <time>2019-10-24T09:10:57.001Z</time>
      </trkpt>
      <trkpt lat="43.35975" lon="5.29353">
        <ele>15.323</ele>
        <time>2019-10-24T09:11:27.001Z</time>
      </trkpt>
      <trkpt lat="43.35888" lon="5.2923">
        <ele>10.054</ele>
        <time>2019-10-24T09:11:57.001Z</time>
      </trkpt>
      <trkpt lat="43.35846" lon="5.29121">
        <ele>18.843</ele>
        <time>2019-10-24T09:12:27.001Z</time>
      </trkpt>
      <trkpt lat="43.35814" lon="5.29022">
        <ele>30.183</ele>
        <time>2019-10-24T09:12:57.001Z</time>
      </trkpt>
      <trkpt lat="43.35796" lon="5.28952">
        <ele>31.111</ele>
        <time>2019-10-24T09:18:22.001Z</time>
      </trkpt>
      <trkpt lat="43.35815" lon="5.28863">
        <ele>37.3</ele>
        <time>2019-10-24T09:18:55.001Z</time>
      </trkpt>
      <trkpt lat="43.35789" lon="5.28739">
        <ele>31.619</ele>
        <time>2019-10-24T09:19:28.001Z</time>
      </trkpt>
      <trkpt lat="43.3572" lon="5.28667">
        <ele>35.791</ele>
        <time>2019-10-24T09:19:58.001Z</time>
      </trkpt>
      <trkpt lat="43.35618" lon="5.28585">
        <ele>39.39</ele>
        <time>2019-10-24T09:20:28.001Z</time>
      </trkpt>
      <trkpt lat="43.35501" lon="5.28412">
        <ele>37.913</ele>
        <time>2019-10-24T09:20:58.001Z</time>
      </trkpt>
      <trkpt lat="43.35429" lon="5.28186">
        <ele>35.915</ele>
        <time>2019-10-24T09:21:28.001Z</time>
      </trkpt>
      <trkpt lat="43.35706" lon="5.27779">
        <ele>68.06</ele>
        <time>2019-10-24T09:23:21.001Z</time>
      </trkpt>
      <trkpt lat="43.35766" lon="5.27686">
        <ele>63.163</ele>
        <time>2019-10-24T09:23:54.001Z</time>
      </trkpt>
      <trkpt lat="43.35823" lon="5.276">
        <ele>59.418</ele>
        <time>2019-10-24T09:24:24.001Z</time>
      </trkpt>
      <trkpt lat="43.35871" lon="5.27516">
        <ele>71.461</ele>
        <time>2019-10-24T09:24:54.001Z</time>
      </trkpt>
      <trkpt lat="43.35915" lon="5.27436">
        <ele>75.126</ele>
        <time>2019-10-24T09:25:24.001Z</time>
      </trkpt>
      <trkpt lat="43.35946" lon="5.2734">
        <ele>80.963</ele>
        <time>2019-10-24T09:25:54.001Z</time>
      </trkpt>
      <trkpt lat="43.35996" lon="5.2726">
        <ele>78.318</ele>
        <time>2019-10-24T09:26:24.001Z</time>
      </trkpt>
      <trkpt lat="43.36056" lon="5.27202">
        <ele>78.273</ele>
        <time>2019-10-24T09:26:54.001Z</time>
      </trkpt>
      <trkpt lat="43.36121" lon="5.27136">
        <ele>81.074</ele>
        <time>2019-10-24T09:27:27.001Z</time>
      </trkpt>
      <trkpt lat="43.36195" lon="5.2709">
        <ele>79.45</ele>
        <time>2019-10-24T09:27:57.001Z</time>
      </trkpt>
      <trkpt lat="43.36259" lon="5.27033">
        <ele>83.924</ele>
        <time>2019-10-24T09:28:27.001Z</time>
      </trkpt>
      <trkpt lat="43.36312" lon="5.26947">
        <ele>92.41</ele>
        <time>2019-10-24T09:28:57.001Z</time>
      </trkpt>
      <trkpt lat="43.36345" lon="5.26844">
        <ele>98.62</ele>
        <time>2019-10-24T09:29:27.001Z</time>
      </trkpt>
      <trkpt lat="43.36368" lon="5.26731">
        <ele>108.687</ele>
        <time>2019-10-24T09:29:57.001Z</time>
      </trkpt>
      <trkpt lat="43.36392" lon="5.26604">
        <ele>114.093</ele>
        <time>2019-10-24T09:30:30.001Z</time>
      </trkpt>
      <trkpt lat="43.36418" lon="5.26499">
        <ele>111.666</ele>
        <time>2019-10-24T09:31:00Z</time>
      </trkpt>
      <trkpt lat="43.36457" lon="5.26411">
        <ele>119.421</ele>
        <time>2019-10-24T09:31:30.001Z</time>
      </trkpt>
      <trkpt lat="43.36525" lon="5.26378">
        <ele>122.203</ele>
        <time>2019-10-24T09:32:00Z</time>
      </trkpt>
      <trkpt lat="43.36611" lon="5.26351">
        <ele>109.043</ele>
        <time>2019-10-24T09:32:30.001Z</time>
      </trkpt>
      <trkpt lat="43.36689" lon="5.26321">
        <ele>111.996</ele>
        <time>2019-10-24T09:33:00Z</time>
      </trkpt>
      <trkpt lat="43.36757" lon="5.26256">
        <ele>115.514</ele>
        <time>2019-10-24T09:33:30.001Z</time>
      </trkpt>
      <trkpt lat="43.36805" lon="5.26152">
        <ele>124.148</ele>
        <time>2019-10-24T09:34:03.001Z</time>
      </trkpt>
      <trkpt lat="43.36844" lon="5.26051">
        <ele>132.332</ele>
        <time>2019-10-24T09:34:33.001Z</time>
      </trkpt>
      <trkpt lat="43.36897" lon="5.25965">
        <ele>133.102</ele>
        <time>2019-10-24T09:35:03.001Z</time>
      </trkpt>
      <trkpt lat="43.36938" lon="5.2588">
        <ele>128.372</ele>
        <time>2019-10-24T09:35:33.001Z</time>
      </trkpt>
      <trkpt lat="43.36948" lon="5.25766">
        <ele>125.083</ele>
        <time>2019-10-24T09:36:03.001Z</time>
      </trkpt>
      <trkpt lat="43.36925" lon="5.25639">
        <ele>126.986</ele>
        <time>2019-10-24T09:36:33.001Z</time>
      </trkpt>
      <trkpt lat="43.36898" lon="5.25513">
        <ele>129.374</ele>
        <time>2019-10-24T09:37:06.001Z</time>
      </trkpt>
      <trkpt lat="43.36874" lon="5.25403">
        <ele>131.966</ele>
        <time>2019-10-24T09:37:36.001Z</time>
      </trkpt>
      <trkpt lat="43.3685" lon="5.25289">
        <ele>135.198</ele>
        <time>2019-10-24T09:38:06.001Z</time>
      </trkpt>
      <trkpt lat="43.36827" lon="5.25175">
        <ele>136.819</ele>
        <time>2019-10-24T09:38:36.001Z</time>
      </trkpt>
      <trkpt lat="43.36804" lon="5.2506">
        <ele>139.307</ele>
        <time>2019-10-24T09:39:06.001Z</time>
      </trkpt>
      <trkpt lat="43.36782" lon="5.24955">
        <ele>143.137</ele>
        <time>2019-10-24T09:39:36.001Z</time>
      </trkpt>
      <trkpt lat="43.36759" lon="5.24858">
        <ele>146.985</ele>
        <time>2019-10-24T09:40:06.001Z</time>
      </trkpt>
      <trkpt lat="43.36738" lon="5.24748">
        <ele>151.764</ele>
        <time>2019-10-24T09:40:39.001Z</time>
      </trkpt>
      <trkpt lat="43.36718" lon="5.24648">
        <ele>153.593</ele>
        <time>2019-10-24T09:41:09.001Z</time>
      </trkpt>
      <trkpt lat="43.36697" lon="5.24549">
        <ele>157.128</ele>
        <time>2019-10-24T09:41:39.001Z</time>
      </trkpt>
      <trkpt lat="43.36674" lon="5.24452">
        <ele>160.625</ele>
        <time>2019-10-24T09:42:09.001Z</time>
      </trkpt>
      <trkpt lat="43.36656" lon="5.24351">
        <ele>164.741</ele>
        <time>2019-10-24T09:42:39.001Z</time>
      </trkpt>
      <trkpt lat="43.36635" lon="5.24251">
        <ele>165.766</ele>
        <time>2019-10-24T09:43:09.001Z</time>
      </trkpt>
      <trkpt lat="43.36612" lon="5.24099">
        <ele>166.619</ele>
        <time>2019-10-24T09:43:42.001Z</time>
      </trkpt>
      <trkpt lat="43.36622" lon="5.23851">
        <ele>164.954</ele>
        <time>2019-10-24T09:44:12.001Z</time>
      </trkpt>
      <trkpt lat="43.36647" lon="5.23527">
        <ele>155.497</ele>
        <time>2019-10-24T09:44:42.001Z</time>
      </trkpt>
      <trkpt lat="43.36952" lon="5.2334">
        <ele>139.891</ele>
        <time>2019-10-24T09:45:12.001Z</time>
      </trkpt>
      <trkpt lat="43.37273" lon="5.22959">
        <ele>113.811</ele>
        <time>2019-10-24T09:45:42.001Z</time>
      </trkpt>
      <trkpt lat="43.37671" lon="5.22671">
        <ele>82.458</ele>
        <time>2019-10-24T09:46:12.001Z</time>
      </trkpt>
      <trkpt lat="43.37962" lon="5.22385">
        <ele>71.484</ele>
        <time>2019-10-24T09:46:42.001Z</time>
      </trkpt>
      <trkpt lat="43.38222" lon="5.22127">
        <ele>61.647</ele>
        <time>2019-10-24T09:47:15.001Z</time>
      </trkpt>
      <trkpt lat="43.38504" lon="5.21853">
        <ele>47.039</ele>
        <time>2019-10-24T09:47:45.001Z</time>
      </trkpt>
      <trkpt lat="43.38652" lon="5.2163">
        <ele>39.897</ele>
        <time>2019-10-24T09:48:15.001Z</time>
      </trkpt>
      <trkpt lat="43.3881" lon="5.21364">
        <ele>32.237</ele>
        <time>2019-10-24T09:48:45.001Z</time>
      </trkpt>
      <trkpt lat="43.38964" lon="5.21095">
        <ele>27.185</ele>
        <time>2019-10-24T09:49:15.001Z</time>
      </trkpt>
      <trkpt lat="43.39098" lon="5.20865">
        <ele>23.48</ele>
        <time>2019-10-24T09:49:45.001Z</time>
      </trkpt>
      <trkpt lat="43.3925" lon="5.20581">
        <ele>18.638</ele>
        <time>2019-10-24T09:50:18.001Z</time>
      </trkpt>
      <trkpt lat="43.39335" lon="5.20321">
        <ele>17.044</ele>
        <time>2019-10-24T09:50:48.001Z</time>
      </trkpt>
      <trkpt lat="43.39376" lon="5.20093">
        <ele>16.728</ele>
        <time>2019-10-24T09:51:18.001Z</time>
      </trkpt>
      <trkpt lat="43.39381" lon="5.19804">
        <ele>14.212</ele>
        <time>2019-10-24T09:51:48.001Z</time>
      </trkpt>
      <trkpt lat="43.39375" lon="5.19491">
        <ele>7.815</ele>
        <time>2019-10-24T09:52:18.001Z</time>
      </trkpt>
      <trkpt lat="43.39338" lon="5.19243">
        <ele>7.805</ele>
        <time>2019-10-24T09:52:48.001Z</time>
      </trkpt>
      <trkpt lat="43.39328" lon="5.1898">
        <ele>9.442</ele>
        <time>2019-10-24T09:53:18.001Z</time>
      </trkpt>
      <trkpt lat="43.39297" lon="5.18696">
        <ele>11.838</ele>
        <time>2019-10-24T09:53:51.001Z</time>
      </trkpt>
      <trkpt lat="43.39293" lon="5.18447">
        <ele>13.743</ele>
        <time>2019-10-24T09:54:21.001Z</time>
      </trkpt>
      <trkpt lat="43.39273" lon="5.18207">
        <ele>13.737</ele>
        <time>2019-10-24T09:54:51.001Z</time>
      </trkpt>
      <trkpt lat="43.39234" lon="5.17967">
        <ele>12.541</ele>
        <time>2019-10-24T09:55:21.001Z</time>
      </trkpt>
      <trkpt lat="43.39158" lon="5.17739">
        <ele>13.15</ele>
        <time>2019-10-24T09:55:51.001Z</time>
      </trkpt>
      <trkpt lat="43.39091" lon="5.17497">
        <ele>13.295</ele>
        <time>2019-10-24T09:56:21.001Z</time>
      </trkpt>
      <trkpt lat="43.39076" lon="5.17212">
        <ele>11.681</ele>
        <time>2019-10-24T09:56:54.001Z</time>
      </trkpt>
      <trkpt lat="43.39035" lon="5.16976">
        <ele>10.761</ele>
        <time>2019-10-24T09:57:24.001Z</time>
      </trkpt>
      <trkpt lat="43.39009" lon="5.16776">
        <ele>16.235</ele>
        <time>2019-10-24T09:57:54.001Z</time>
      </trkpt>
      <trkpt lat="43.39013" lon="5.16601">
        <ele>21.616</ele>
        <time>2019-10-24T09:58:24.001Z</time>
      </trkpt>
      <trkpt lat="43.39009" lon="5.16412">
        <ele>17.031</ele>
        <time>2019-10-24T09:58:54.001Z</time>
      </trkpt>
      <trkpt lat="43.39045" lon="5.16234">
        <ele>18.44</ele>
        <time>2019-10-24T09:59:24.001Z</time>
      </trkpt>
      <trkpt lat="43.39105" lon="5.16029">
        <ele>18.55</ele>
        <time>2019-10-24T09:59:54.001Z</time>
      </trkpt>
      <trkpt lat="43.39173" lon="5.15774">
        <ele>15.94</ele>
        <time>2019-10-24T10:00:27.001Z</time>
      </trkpt>
      <trkpt lat="43.39231" lon="5.15571">
        <ele>15.731</ele>
        <time>2019-10-24T10:00:57.001Z</time>
      </trkpt>
      <trkpt lat="43.39286" lon="5.15377">
        <ele>15.486</ele>
        <time>2019-10-24T10:01:27.001Z</time>
      </trkpt>
      <trkpt lat="43.39294" lon="5.15185">
        <ele>19.599</ele>
        <time>2019-10-24T10:01:57.001Z</time>
      </trkpt>
      <trkpt lat="43.3931" lon="5.15006">
        <ele>17.045</ele>
        <time>2019-10-24T10:02:27.001Z</time>
      </trkpt>
      <trkpt lat="43.39312" lon="5.15013">
        <ele>18.049</ele>
        <time>2019-10-24T10:05:33.001Z</time>
      </trkpt>
      <trkpt lat="43.39311" lon="5.15008">
        <ele>19.777</ele>
        <time>2019-10-24T10:08:30.001Z</time>
      </trkpt>
      <trkpt lat="43.39325" lon="5.14884">
        <ele>20.881</ele>
        <time>2019-10-24T10:14:06.001Z</time>
      </trkpt>
      <trkpt lat="43.39342" lon="5.14661">
        <ele>19.018</ele>
        <time>2019-10-24T10:14:36.001Z</time>
      </trkpt>
      <trkpt lat="43.39351" lon="5.14436">
        <ele>19.054</ele>
        <time>2019-10-24T10:15:06.001Z</time>
      </trkpt>
      <trkpt lat="43.39363" lon="5.14204">
        <ele>18.691</ele>
        <time>2019-10-24T10:15:36.001Z</time>
      </trkpt>
      <trkpt lat="43.39392" lon="5.14006">
        <ele>19.129</ele>
        <time>2019-10-24T10:16:06.001Z</time>
      </trkpt>
      <trkpt lat="43.39388" lon="5.13984">
        <ele>21.311</ele>
        <time>2019-10-24T10:25:27.001Z</time>
      </trkpt>
      <trkpt lat="43.39384" lon="5.13984">
        <ele>24.83</ele>
        <time>2019-10-24T10:34:06.001Z</time>
      </trkpt>
      <trkpt lat="43.39385" lon="5.13981">
        <ele>24.48</ele>
        <time>2019-10-24T10:36:54.001Z</time>
      </trkpt>
      <trkpt lat="43.39383" lon="5.13988">
        <ele>21.489</ele>
        <time>2019-10-24T10:38:21.001Z</time>
      </trkpt>
      <trkpt lat="43.39382" lon="5.13987">
        <ele>24.51</ele>
        <time>2019-10-24T10:45:33.001Z</time>
      </trkpt>
      <trkpt lat="43.39378" lon="5.13992">
        <ele>22.513</ele>
        <time>2019-10-24T10:53:09.001Z</time>
      </trkpt>
      <trkpt lat="43.39387" lon="5.13945">
        <ele>21.79</ele>
        <time>2019-10-24T10:53:42.001Z</time>
      </trkpt>
      <trkpt lat="43.39426" lon="5.13766">
        <ele>20.765</ele>
        <time>2019-10-24T10:54:15.001Z</time>
      </trkpt>
      <trkpt lat="43.39441" lon="5.136">
        <ele>19.775</ele>
        <time>2019-10-24T10:54:45.001Z</time>
      </trkpt>
      <trkpt lat="43.39442" lon="5.1342">
        <ele>20.242</ele>
        <time>2019-10-24T10:55:15.001Z</time>
      </trkpt>
      <trkpt lat="43.39441" lon="5.13239">
        <ele>23.887</ele>
        <time>2019-10-24T10:55:45.001Z</time>
      </trkpt>
      <trkpt lat="43.39451" lon="5.13029">
        <ele>19.766</ele>
        <time>2019-10-24T10:56:15.001Z</time>
      </trkpt>
      <trkpt lat="43.39476" lon="5.12821">
        <ele>19.551</ele>
        <time>2019-10-24T10:56:45.001Z</time>
      </trkpt>
      <trkpt lat="43.3946" lon="5.12647">
        <ele>23.101</ele>
        <time>2019-10-24T10:57:15.001Z</time>
      </trkpt>
      <trkpt lat="43.39444" lon="5.12499">
        <ele>28.921</ele>
        <time>2019-10-24T10:57:48.001Z</time>
      </trkpt>
      <trkpt lat="43.39462" lon="5.12358">
        <ele>32.422</ele>
        <time>2019-10-24T10:58:18.001Z</time>
      </trkpt>
      <trkpt lat="43.39538" lon="5.12136">
        <ele>35.126</ele>
        <time>2019-10-24T10:58:48.001Z</time>
      </trkpt>
      <trkpt lat="43.39614" lon="5.11849">
        <ele>23.784</ele>
        <time>2019-10-24T10:59:18.001Z</time>
      </trkpt>
      <trkpt lat="43.39677" lon="5.11601">
        <ele>19.021</ele>
        <time>2019-10-24T10:59:48.001Z</time>
      </trkpt>
      <trkpt lat="43.39727" lon="5.11399">
        <ele>20.508</ele>
        <time>2019-10-24T11:00:18.001Z</time>
      </trkpt>
      <trkpt lat="43.39773" lon="5.11143">
        <ele>20.527</ele>
        <time>2019-10-24T11:00:51.001Z</time>
      </trkpt>
      <trkpt lat="43.39824" lon="5.10898">
        <ele>17.581</ele>
        <time>2019-10-24T11:01:21.001Z</time>
      </trkpt>
      <trkpt lat="43.39882" lon="5.10632">
        <ele>20.376</ele>
        <time>2019-10-24T11:01:51.001Z</time>
      </trkpt>
      <trkpt lat="43.39959" lon="5.1039">
        <ele>18.725</ele>
        <time>2019-10-24T11:02:21.001Z</time>
      </trkpt>
      <trkpt lat="43.40017" lon="5.10149">
        <ele>9.968</ele>
        <time>2019-10-24T11:02:51.001Z</time>
      </trkpt>
      <trkpt lat="43.39997" lon="5.09909">
        <ele>11.391</ele>
        <time>2019-10-24T11:03:21.001Z</time>
      </trkpt>
      <trkpt lat="43.39974" lon="5.097">
        <ele>16.288</ele>
        <time>2019-10-24T11:03:51.001Z</time>
      </trkpt>
      <trkpt lat="43.3994" lon="5.09433">
        <ele>13.091</ele>
        <time>2019-10-24T11:04:24.001Z</time>
      </trkpt>
      <trkpt lat="43.3989" lon="5.09232">
        <ele>12.403</ele>
        <time>2019-10-24T11:04:54.001Z</time>
      </trkpt>
      <trkpt lat="43.39852" lon="5.09089">
        <ele>19.716</ele>
        <time>2019-10-24T11:05:24.001Z</time>
      </trkpt>
      <trkpt lat="43.39832" lon="5.08904">
        <ele>23.316</ele>
        <time>2019-10-24T11:05:54.001Z</time>
      </trkpt>
      <trkpt lat="43.39818" lon="5.08752">
        <ele>26.313</ele>
        <time>2019-10-24T11:06:24.001Z</time>
      </trkpt>
      <trkpt lat="43.39782" lon="5.08602">
        <ele>26.85</ele>
        <time>2019-10-24T11:06:54.001Z</time>
      </trkpt>
      <trkpt lat="43.39793" lon="5.08401">
        <ele>27.907</ele>
        <time>2019-10-24T11:07:27.001Z</time>
      </trkpt>
      <trkpt lat="43.39778" lon="5.08242">
        <ele>25.42</ele>
        <time>2019-10-24T11:07:57.001Z</time>
      </trkpt>
      <trkpt lat="43.39767" lon="5.08043">
        <ele>26.069</ele>
        <time>2019-10-24T11:08:27.001Z</time>
      </trkpt>
      <trkpt lat="43.39766" lon="5.07839">
        <ele>27.251</ele>
        <time>2019-10-24T11:08:57.001Z</time>
      </trkpt>
      <trkpt lat="43.39779" lon="5.07665">
        <ele>30.607</ele>
        <time>2019-10-24T11:09:27.001Z</time>
      </trkpt>
      <trkpt lat="43.39763" lon="5.07479">
        <ele>28.102</ele>
        <time>2019-10-24T11:09:57.001Z</time>
      </trkpt>
      <trkpt lat="43.39773" lon="5.07176">
        <ele>26.215</ele>
        <time>2019-10-24T11:10:27.001Z</time>
      </trkpt>
      <trkpt lat="43.39846" lon="5.07085">
        <ele>21.392</ele>
        <time>2019-10-24T11:11:15.001Z</time>
      </trkpt>
      <trkpt lat="43.39869" lon="5.06884">
        <ele>20.006</ele>
        <time>2019-10-24T11:11:45.001Z</time>
      </trkpt>
      <trkpt lat="43.39919" lon="5.0663">
        <ele>16.783</ele>
        <time>2019-10-24T11:12:15.001Z</time>
      </trkpt>
      <trkpt lat="43.39935" lon="5.06395">
        <ele>17.718</ele>
        <time>2019-10-24T11:12:45.001Z</time>
      </trkpt>
      <trkpt lat="43.39995" lon="5.06167">
        <ele>14.173</ele>
        <time>2019-10-24T11:13:15.001Z</time>
      </trkpt>
      <trkpt lat="43.40148" lon="5.05934">
        <ele>9.345</ele>
        <time>2019-10-24T11:13:45.001Z</time>
      </trkpt>
      <trkpt lat="43.40315" lon="5.05733">
        <ele>4.788</ele>
        <time>2019-10-24T11:14:15.001Z</time>
      </trkpt>
      <trkpt lat="43.40441" lon="5.0569">
        <ele>8.857</ele>
        <time>2019-10-24T11:14:48.001Z</time>
      </trkpt>
      <trkpt lat="43.40599" lon="5.05615">
        <ele>6.824</ele>
        <time>2019-10-24T11:15:18.001Z</time>
      </trkpt>
      <trkpt lat="43.40746" lon="5.05651">
        <ele>5.867</ele>
        <time>2019-10-24T11:15:48.001Z</time>
      </trkpt>
      <trkpt lat="43.40874" lon="5.05612">
        <ele>9.436</ele>
        <time>2019-10-24T11:16:18.001Z</time>
      </trkpt>
      <trkpt lat="43.40859" lon="5.05444">
        <ele>14.919</ele>
        <time>2019-10-24T11:16:48.001Z</time>
      </trkpt>
      <trkpt lat="43.40798" lon="5.05273">
        <ele>16.29</ele>
        <time>2019-10-24T11:17:18.001Z</time>
      </trkpt>
      <trkpt lat="43.40808" lon="5.05057">
        <ele>12.888</ele>
        <time>2019-10-24T11:17:51.001Z</time>
      </trkpt>
      <trkpt lat="43.40764" lon="5.04845">
        <ele>10.408</ele>
        <time>2019-10-24T11:18:21.001Z</time>
      </trkpt>
      <trkpt lat="43.40721" lon="5.04666">
        <ele>4.525</ele>
        <time>2019-10-24T11:18:51.001Z</time>
      </trkpt>
      <trkpt lat="43.40605" lon="5.0454">
        <ele>6.036</ele>
        <time>2019-10-24T11:19:21.001Z</time>
      </trkpt>
      <trkpt lat="43.40539" lon="5.04354">
        <ele>6.548</ele>
        <time>2019-10-24T11:19:51.001Z</time>
      </trkpt>
      <trkpt lat="43.40431" lon="5.04224">
        <ele>8.52</ele>
        <time>2019-10-24T11:20:21.001Z</time>
      </trkpt>
      <trkpt lat="43.40353" lon="5.04097">
        <ele>10.608</ele>
        <time>2019-10-24T11:20:51.001Z</time>
      </trkpt>
      <trkpt lat="43.40294" lon="5.03855">
        <ele>1.51</ele>
        <time>2019-10-24T11:21:24.001Z</time>
      </trkpt>
      <trkpt lat="43.40341" lon="5.03664">
        <ele>5.926</ele>
        <time>2019-10-24T11:21:54.001Z</time>
      </trkpt>
      <trkpt lat="43.40387" lon="5.03487">
        <ele>5.436</ele>
        <time>2019-10-24T11:22:24.001Z</time>
      </trkpt>
      <trkpt lat="43.40392" lon="5.03267">
        <ele>5.074</ele>
        <time>2019-10-24T11:22:54.001Z</time>
      </trkpt>
      <trkpt lat="43.40389" lon="5.0308">
        <ele>4.753</ele>
        <time>2019-10-24T11:23:24.001Z</time>
      </trkpt>
      <trkpt lat="43.40394" lon="5.02897">
        <ele>5.786</ele>
        <time>2019-10-24T11:23:54.001Z</time>
      </trkpt>
      <trkpt lat="43.40359" lon="5.02697">
        <ele>5.065</ele>
        <time>2019-10-24T11:24:27.001Z</time>
      </trkpt>
      <trkpt lat="43.40337" lon="5.02472">
        <ele>2.913</ele>
        <time>2019-10-24T11:24:57.001Z</time>
      </trkpt>
      <trkpt lat="43.40432" lon="5.02366">
        <ele>0.813</ele>
        <time>2019-10-24T11:25:27.001Z</time>
      </trkpt>
      <trkpt lat="43.40472" lon="5.02137">
        <ele>0.46</ele>
        <time>2019-10-24T11:25:57.001Z</time>
      </trkpt>
      <trkpt lat="43.40474" lon="5.01903">
        <ele>1</ele>
        <time>2019-10-24T11:26:27.001Z</time>
      </trkpt>
      <trkpt lat="43.40483" lon="5.01701">
        <ele>1.626</ele>
        <time>2019-10-24T11:26:57.001Z</time>
      </trkpt>
      <trkpt lat="43.40488" lon="5.01498">
        <ele>4.303</ele>
        <time>2019-10-24T11:27:27.001Z</time>
      </trkpt>
      <trkpt lat="43.40496" lon="5.01261">
        <ele>2.61</ele>
        <time>2019-10-24T11:28:00Z</time>
      </trkpt>
      <trkpt lat="43.40505" lon="5.01039">
        <ele>2.868</ele>
        <time>2019-10-24T11:28:30.001Z</time>
      </trkpt>
      <trkpt lat="43.40509" lon="5.00811">
        <ele>7.999</ele>
        <time>2019-10-24T11:29:00Z</time>
      </trkpt>
      <trkpt lat="43.40553" lon="5.00591">
        <ele>7.569</ele>
        <time>2019-10-24T11:29:30.001Z</time>
      </trkpt>
      <trkpt lat="43.40657" lon="5.00419">
        <ele>3.25</ele>
        <time>2019-10-24T11:30:00Z</time>
      </trkpt>
      <trkpt lat="43.40824" lon="5.00342">
        <ele>1.376</ele>
        <time>2019-10-24T11:30:30.001Z</time>
      </trkpt>
      <trkpt lat="43.40876" lon="5.00163">
        <ele>7.805</ele>
        <time>2019-10-24T11:31:03.001Z</time>
      </trkpt>
      <trkpt lat="43.40892" lon="4.99992">
        <ele>9</ele>
        <time>2019-10-24T11:31:33.001Z</time>
      </trkpt>
      <trkpt lat="43.4086" lon="4.99853">
        <ele>10.29</ele>
        <time>2019-10-24T11:32:03.001Z</time>
      </trkpt>
      <trkpt lat="43.40815" lon="4.99707">
        <ele>15.549</ele>
        <time>2019-10-24T11:32:33.001Z</time>
      </trkpt>
      <trkpt lat="43.40736" lon="4.9958">
        <ele>14.455</ele>
        <time>2019-10-24T11:33:03.001Z</time>
      </trkpt>
      <trkpt lat="43.40671" lon="4.9938">
        <ele>13.077</ele>
        <time>2019-10-24T11:33:33.001Z</time>
      </trkpt>
      <trkpt lat="43.40664" lon="4.99075">
        <ele>8.213</ele>
        <time>2019-10-24T11:34:03.001Z</time>
      </trkpt>
      <trkpt lat="43.40679" lon="4.98771">
        <ele>3.608</ele>
        <time>2019-10-24T11:34:36.001Z</time>
      </trkpt>
      <trkpt lat="43.40735" lon="4.98625">
        <ele>6.03</ele>
        <time>2019-10-24T11:35:06.001Z</time>
      </trkpt>
      <trkpt lat="43.40812" lon="4.98626">
        <ele>18.547</ele>
        <time>2019-10-24T11:35:36.001Z</time>
      </trkpt>
      <trkpt lat="43.4088" lon="4.98633">
        <ele>33.866</ele>
        <time>2019-10-24T11:36:06.001Z</time>
      </trkpt>
      <trkpt lat="43.40986" lon="4.98623">
        <ele>44.156</ele>
        <time>2019-10-24T11:36:36.001Z</time>
      </trkpt>
      <trkpt lat="43.41073" lon="4.98534">
        <ele>34.876</ele>
        <time>2019-10-24T11:37:06.001Z</time>
      </trkpt>
      <trkpt lat="43.41105" lon="4.98389">
        <ele>37.458</ele>
        <time>2019-10-24T11:37:39.001Z</time>
      </trkpt>
      <trkpt lat="43.41145" lon="4.9827">
        <ele>31.054</ele>
        <time>2019-10-24T11:38:09.001Z</time>
      </trkpt>
      <trkpt lat="43.41241" lon="4.98144">
        <ele>21.966</ele>
        <time>2019-10-24T11:38:39.001Z</time>
      </trkpt>
      <trkpt lat="43.41339" lon="4.97864">
        <ele>18.562</ele>
        <time>2019-10-24T11:39:09.001Z</time>
      </trkpt>
      <trkpt lat="43.41406" lon="4.97768">
        <ele>10.263</ele>
        <time>2019-10-24T11:39:39.001Z</time>
      </trkpt>
      <trkpt lat="43.41474" lon="4.97701">
        <ele>7.827</ele>
        <time>2019-10-24T11:40:09.001Z</time>
      </trkpt>
      <trkpt lat="43.41503" lon="4.97681">
        <ele>8.211</ele>
        <time>2019-10-24T11:41:48.001Z</time>
      </trkpt>
      <trkpt lat="43.41541" lon="4.97678">
        <ele>8.087</ele>
        <time>2019-10-24T11:43:18.001Z</time>
      </trkpt>
      <trkpt lat="43.41596" lon="4.97624">
        <ele>8.166</ele>
        <time>2019-10-24T11:43:51.001Z</time>
      </trkpt>
      <trkpt lat="43.41649" lon="4.97582">
        <ele>6.338</ele>
        <time>2019-10-24T11:44:21.001Z</time>
      </trkpt>
      <trkpt lat="43.41736" lon="4.97541">
        <ele>7.918</ele>
        <time>2019-10-24T11:44:51.001Z</time>
      </trkpt>
      <trkpt lat="43.41841" lon="4.9749">
        <ele>11.026</ele>
        <time>2019-10-24T11:45:21.001Z</time>
      </trkpt>
      <trkpt lat="43.41954" lon="4.97436">
        <ele>10.189</ele>
        <time>2019-10-24T11:45:51.001Z</time>
      </trkpt>
      <trkpt lat="43.42086" lon="4.97355">
        <ele>2.385</ele>
        <time>2019-10-24T11:46:24.001Z</time>
      </trkpt>
      <trkpt lat="43.42166" lon="4.97304">
        <ele>2.286</ele>
        <time>2019-10-24T11:46:54.001Z</time>
      </trkpt>
      <trkpt lat="43.42256" lon="4.97244">
        <ele>5.12</ele>
        <time>2019-10-24T11:47:24.001Z</time>
      </trkpt>
      <trkpt lat="43.42308" lon="4.97203">
        <ele>7.077</ele>
        <time>2019-10-24T11:50:12.001Z</time>
      </trkpt>
      <trkpt lat="43.42368" lon="4.97152">
        <ele>6.756</ele>
        <time>2019-10-24T11:50:42.001Z</time>
      </trkpt>
      <trkpt lat="43.4243" lon="4.97084">
        <ele>5.926</ele>
        <time>2019-10-24T11:51:12.001Z</time>
      </trkpt>
      <trkpt lat="43.42486" lon="4.9702">
        <ele>5.088</ele>
        <time>2019-10-24T11:51:42.001Z</time>
      </trkpt>
      <trkpt lat="43.4255" lon="4.96965">
        <ele>4.056</ele>
        <time>2019-10-24T11:52:15.001Z</time>
      </trkpt>
      <trkpt lat="43.42614" lon="4.96867">
        <ele>3.565</ele>
        <time>2019-10-24T11:52:45.001Z</time>
      </trkpt>
      <trkpt lat="43.42654" lon="4.96731">
        <ele>2.865</ele>
        <time>2019-10-24T11:53:15.001Z</time>
      </trkpt>
      <trkpt lat="43.42685" lon="4.96586">
        <ele>0.985</ele>
        <time>2019-10-24T11:53:45.001Z</time>
      </trkpt>
      <trkpt lat="43.42712" lon="4.96432">
        <ele>0.189</ele>
        <time>2019-10-24T11:54:15.001Z</time>
      </trkpt>
      <trkpt lat="43.42736" lon="4.96288">
        <ele>0.595</ele>
        <time>2019-10-24T11:54:45.001Z</time>
      </trkpt>
      <trkpt lat="43.42759" lon="4.96146">
        <ele>1.5</ele>
        <time>2019-10-24T11:55:18.001Z</time>
      </trkpt>
      <trkpt lat="43.42778" lon="4.9605">
        <ele>1.232</ele>
        <time>2019-10-24T11:55:48.001Z</time>
      </trkpt>
      <trkpt lat="43.42793" lon="4.95954">
        <ele>1.678</ele>
        <time>2019-10-24T11:56:18.001Z</time>
      </trkpt>
      <trkpt lat="43.42813" lon="4.9584">
        <ele>2.475</ele>
        <time>2019-10-24T11:56:48.001Z</time>
      </trkpt>
      <trkpt lat="43.42828" lon="4.95738">
        <ele>0.592</ele>
        <time>2019-10-24T11:57:18.001Z</time>
      </trkpt>
      <trkpt lat="43.42838" lon="4.95652">
        <ele>1.789</ele>
        <time>2019-10-24T11:57:48.001Z</time>
      </trkpt>
      <trkpt lat="43.42851" lon="4.95569">
        <ele>0.593</ele>
        <time>2019-10-24T11:58:18.001Z</time>
      </trkpt>
      <trkpt lat="43.42868" lon="4.95468">
        <ele>1.5</ele>
        <time>2019-10-24T11:58:51.001Z</time>
      </trkpt>
      <trkpt lat="43.42887" lon="4.95363">
        <ele>2.2</ele>
        <time>2019-10-24T11:59:21.001Z</time>
      </trkpt>
      <trkpt lat="43.42899" lon="4.9525">
        <ele>1.998</ele>
        <time>2019-10-24T11:59:54.001Z</time>
      </trkpt>
      <trkpt lat="43.42913" lon="4.95161">
        <ele>3.04</ele>
        <time>2019-10-24T12:00:24.001Z</time>
      </trkpt>
      <trkpt lat="43.42923" lon="4.95099">
        <ele>2.865</ele>
        <time>2019-10-24T12:01:21.001Z</time>
      </trkpt>
      <trkpt lat="43.42945" lon="4.95013">
        <ele>5.226</ele>
        <time>2019-10-24T12:01:54.001Z</time>
      </trkpt>
      <trkpt lat="43.42971" lon="4.94895">
        <ele>3.07</ele>
        <time>2019-10-24T12:02:27.001Z</time>
      </trkpt>
      <trkpt lat="43.42984" lon="4.94785">
        <ele>3.444</ele>
        <time>2019-10-24T12:02:57.001Z</time>
      </trkpt>
      <trkpt lat="43.43013" lon="4.94662">
        <ele>3.376</ele>
        <time>2019-10-24T12:03:27.001Z</time>
      </trkpt>
      <trkpt lat="43.43046" lon="4.94508">
        <ele>3.493</ele>
        <time>2019-10-24T12:03:57.001Z</time>
      </trkpt>
      <trkpt lat="43.43084" lon="4.94339">
        <ele>3.141</ele>
        <time>2019-10-24T12:04:27.001Z</time>
      </trkpt>
      <trkpt lat="43.43103" lon="4.94195">
        <ele>2.8</ele>
        <time>2019-10-24T12:04:57.001Z</time>
      </trkpt>
      <trkpt lat="43.43044" lon="4.94282">
        <ele>5.564</ele>
        <time>2019-10-24T12:05:27.001Z</time>
      </trkpt>
      <trkpt lat="43.43062" lon="4.94394">
        <ele>10.624</ele>
        <time>2019-10-24T12:06:00Z</time>
      </trkpt>
      <trkpt lat="43.43161" lon="4.94449">
        <ele>17.056</ele>
        <time>2019-10-24T12:06:30.001Z</time>
      </trkpt>
      <trkpt lat="43.43216" lon="4.94628">
        <ele>7.432</ele>
        <time>2019-10-24T12:07:00Z</time>
      </trkpt>
      <trkpt lat="43.43205" lon="4.94643">
        <ele>8.144</ele>
        <time>2019-10-24T12:13:48.001Z</time>
      </trkpt>
      <trkpt lat="43.43151" lon="4.94684">
        <ele>8.446</ele>
        <time>2019-10-24T12:17:39.001Z</time>
      </trkpt>
      <trkpt lat="43.43096" lon="4.94608">
        <ele>2.477</ele>
        <time>2019-10-24T12:18:09.001Z</time>
      </trkpt>
      <trkpt lat="43.43178" lon="4.94398">
        <ele>4.1</ele>
        <time>2019-10-24T12:18:42.001Z</time>
      </trkpt>
      <trkpt lat="43.43277" lon="4.94229">
        <ele>0.264</ele>
        <time>2019-10-24T12:19:12.001Z</time>
      </trkpt>
      <trkpt lat="43.43371" lon="4.94098">
        <ele>3.702</ele>
        <time>2019-10-24T12:19:42.001Z</time>
      </trkpt>
      <trkpt lat="43.4327" lon="4.93954">
        <ele>5.004</ele>
        <time>2019-10-24T12:20:12.001Z</time>
      </trkpt>
      <trkpt lat="43.43306" lon="4.93751">
        <ele>2.507</ele>
        <time>2019-10-24T12:20:42.001Z</time>
      </trkpt>
      <trkpt lat="43.43355" lon="4.93544">
        <ele>1.964</ele>
        <time>2019-10-24T12:21:12.001Z</time>
      </trkpt>
      <trkpt lat="43.43406" lon="4.93323">
        <ele>1.293</ele>
        <time>2019-10-24T12:21:42.001Z</time>
      </trkpt>
      <trkpt lat="43.43463" lon="4.93079">
        <ele>0.417</ele>
        <time>2019-10-24T12:22:15.001Z</time>
      </trkpt>
      <trkpt lat="43.43517" lon="4.92854">
        <ele>2.4</ele>
        <time>2019-10-24T12:22:45.001Z</time>
      </trkpt>
      <trkpt lat="43.43571" lon="4.92625">
        <ele>5.1</ele>
        <time>2019-10-24T12:23:15.001Z</time>
      </trkpt>
      <trkpt lat="43.43624" lon="4.92398">
        <ele>0.203</ele>
        <time>2019-10-24T12:23:45.001Z</time>
      </trkpt>
      <trkpt lat="43.43676" lon="4.92173">
        <ele>0.186</ele>
        <time>2019-10-24T12:24:15.001Z</time>
      </trkpt>
      <trkpt lat="43.43728" lon="4.91952">
        <ele>1.874</ele>
        <time>2019-10-24T12:24:45.001Z</time>
      </trkpt>
      <trkpt lat="43.43776" lon="4.91739">
        <ele>6.012</ele>
        <time>2019-10-24T12:25:18.001Z</time>
      </trkpt>
      <trkpt lat="43.43804" lon="4.91624">
        <ele>10.719</ele>
        <time>2019-10-24T12:25:48.001Z</time>
      </trkpt>
      <trkpt lat="43.43833" lon="4.91502">
        <ele>11.74</ele>
        <time>2019-10-24T12:26:18.001Z</time>
      </trkpt>
      <trkpt lat="43.43903" lon="4.91343">
        <ele>15.062</ele>
        <time>2019-10-24T12:26:48.001Z</time>
      </trkpt>
      <trkpt lat="43.44069" lon="4.9121">
        <ele>6.076</ele>
        <time>2019-10-24T12:27:18.001Z</time>
      </trkpt>
      <trkpt lat="43.44248" lon="4.91386">
        <ele>3.581</ele>
        <time>2019-10-24T12:27:48.001Z</time>
      </trkpt>
      <trkpt lat="43.44404" lon="4.91535">
        <ele>4.558</ele>
        <time>2019-10-24T12:28:18.001Z</time>
      </trkpt>
      <trkpt lat="43.44595" lon="4.9162">
        <ele>3.558</ele>
        <time>2019-10-24T12:28:51.001Z</time>
      </trkpt>
      <trkpt lat="43.44765" lon="4.91694">
        <ele>5.941</ele>
        <time>2019-10-24T12:29:21.001Z</time>
      </trkpt>
      <trkpt lat="43.44939" lon="4.91771">
        <ele>9.165</ele>
        <time>2019-10-24T12:29:51.001Z</time>
      </trkpt>
      <trkpt lat="43.45117" lon="4.91828">
        <ele>10.435</ele>
        <time>2019-10-24T12:30:21.001Z</time>
      </trkpt>
      <trkpt lat="43.45291" lon="4.91716">
        <ele>8.607</ele>
        <time>2019-10-24T12:30:51.001Z</time>
      </trkpt>
      <trkpt lat="43.45408" lon="4.91496">
        <ele>5.012</ele>
        <time>2019-10-24T12:31:21.001Z</time>
      </trkpt>
      <trkpt lat="43.45508" lon="4.91237">
        <ele>5.038</ele>
        <time>2019-10-24T12:31:54.001Z</time>
      </trkpt>
      <trkpt lat="43.45587" lon="4.91007">
        <ele>5.127</ele>
        <time>2019-10-24T12:32:24.001Z</time>
      </trkpt>
      <trkpt lat="43.45676" lon="4.90789">
        <ele>3.737</ele>
        <time>2019-10-24T12:32:54.001Z</time>
      </trkpt>
      <trkpt lat="43.45776" lon="4.90578">
        <ele>3.678</ele>
        <time>2019-10-24T12:33:24.001Z</time>
      </trkpt>
      <trkpt lat="43.45878" lon="4.90367">
        <ele>2.962</ele>
        <time>2019-10-24T12:33:54.001Z</time>
      </trkpt>
      <trkpt lat="43.4598" lon="4.90164">
        <ele>5.693</ele>
        <time>2019-10-24T12:34:24.001Z</time>
      </trkpt>
      <trkpt lat="43.46102" lon="4.90004">
        <ele>8.136</ele>
        <time>2019-10-24T12:34:54.001Z</time>
      </trkpt>
      <trkpt lat="43.46262" lon="4.89886">
        <ele>7.894</ele>
        <time>2019-10-24T12:35:27.001Z</time>
      </trkpt>
      <trkpt lat="43.46423" lon="4.8984">
        <ele>8.829</ele>
        <time>2019-10-24T12:35:57.001Z</time>
      </trkpt>
      <trkpt lat="43.46586" lon="4.89818">
        <ele>9.351</ele>
        <time>2019-10-24T12:36:27.001Z</time>
      </trkpt>
      <trkpt lat="43.46752" lon="4.898">
        <ele>8.924</ele>
        <time>2019-10-24T12:36:57.001Z</time>
      </trkpt>
      <trkpt lat="43.46917" lon="4.89781">
        <ele>9.04</ele>
        <time>2019-10-24T12:37:27.001Z</time>
      </trkpt>
      <trkpt lat="43.47056" lon="4.89764">
        <ele>11.231</ele>
        <time>2019-10-24T12:37:57.001Z</time>
      </trkpt>
      <trkpt lat="43.47161" lon="4.89744">
        <ele>17.833</ele>
        <time>2019-10-24T12:38:30.001Z</time>
      </trkpt>
      <trkpt lat="43.47285" lon="4.89716">
        <ele>18.918</ele>
        <time>2019-10-24T12:39:00Z</time>
      </trkpt>
      <trkpt lat="43.47439" lon="4.8968">
        <ele>17.314</ele>
        <time>2019-10-24T12:39:30.001Z</time>
      </trkpt>
      <trkpt lat="43.47643" lon="4.89642">
        <ele>15.91</ele>
        <time>2019-10-24T12:40:00Z</time>
      </trkpt>
      <trkpt lat="43.47894" lon="4.89573">
        <ele>8.397</ele>
        <time>2019-10-24T12:40:30.001Z</time>
      </trkpt>
      <trkpt lat="43.48064" lon="4.89428">
        <ele>7.625</ele>
        <time>2019-10-24T12:41:00Z</time>
      </trkpt>
      <trkpt lat="43.48206" lon="4.8925">
        <ele>9.3</ele>
        <time>2019-10-24T12:41:30.001Z</time>
      </trkpt>
      <trkpt lat="43.48359" lon="4.89048">
        <ele>10.156</ele>
        <time>2019-10-24T12:42:03.001Z</time>
      </trkpt>
      <trkpt lat="43.48494" lon="4.88867">
        <ele>8.773</ele>
        <time>2019-10-24T12:42:33.001Z</time>
      </trkpt>
      <trkpt lat="43.48614" lon="4.88679">
        <ele>8.369</ele>
        <time>2019-10-24T12:43:03.001Z</time>
      </trkpt>
      <trkpt lat="43.48627" lon="4.88483">
        <ele>8.248</ele>
        <time>2019-10-24T12:43:33.001Z</time>
      </trkpt>
      <trkpt lat="43.48546" lon="4.88246">
        <ele>4.089</ele>
        <time>2019-10-24T12:44:03.001Z</time>
      </trkpt>
      <trkpt lat="43.48483" lon="4.87996">
        <ele>2.93</ele>
        <time>2019-10-24T12:44:33.001Z</time>
      </trkpt>
      <trkpt lat="43.48409" lon="4.87726">
        <ele>3.051</ele>
        <time>2019-10-24T12:45:06.001Z</time>
      </trkpt>
      <trkpt lat="43.48335" lon="4.87486">
        <ele>3.802</ele>
        <time>2019-10-24T12:45:36.001Z</time>
      </trkpt>
      <trkpt lat="43.48257" lon="4.87257">
        <ele>3.066</ele>
        <time>2019-10-24T12:46:06.001Z</time>
      </trkpt>
      <trkpt lat="43.48184" lon="4.87038">
        <ele>2.166</ele>
        <time>2019-10-24T12:46:36.001Z</time>
      </trkpt>
      <trkpt lat="43.48115" lon="4.86836">
        <ele>2.718</ele>
        <time>2019-10-24T12:47:06.001Z</time>
      </trkpt>
      <trkpt lat="43.48012" lon="4.86639">
        <ele>2.456</ele>
        <time>2019-10-24T12:47:36.001Z</time>
      </trkpt>
      <trkpt lat="43.47934" lon="4.86426">
        <ele>3.349</ele>
        <time>2019-10-24T12:48:06.001Z</time>
      </trkpt>
      <trkpt lat="43.47857" lon="4.86194">
        <ele>4.781</ele>
        <time>2019-10-24T12:48:39.001Z</time>
      </trkpt>
      <trkpt lat="43.47787" lon="4.85981">
        <ele>5.401</ele>
        <time>2019-10-24T12:49:09.001Z</time>
      </trkpt>
      <trkpt lat="43.47723" lon="4.85772">
        <ele>5.024</ele>
        <time>2019-10-24T12:49:39.001Z</time>
      </trkpt>
      <trkpt lat="43.47652" lon="4.85558">
        <ele>4.122</ele>
        <time>2019-10-24T12:50:09.001Z</time>
      </trkpt>
      <trkpt lat="43.47586" lon="4.85349">
        <ele>2.74</ele>
        <time>2019-10-24T12:50:39.001Z</time>
      </trkpt>
      <trkpt lat="43.47515" lon="4.85136">
        <ele>4.215</ele>
        <time>2019-10-24T12:51:09.001Z</time>
      </trkpt>
      <trkpt lat="43.47444" lon="4.84912">
        <ele>4.917</ele>
        <time>2019-10-24T12:51:42.001Z</time>
      </trkpt>
      <trkpt lat="43.47376" lon="4.84717">
        <ele>3.345</ele>
        <time>2019-10-24T12:52:12.001Z</time>
      </trkpt>
      <trkpt lat="43.4729" lon="4.84532">
        <ele>5.826</ele>
        <time>2019-10-24T12:52:42.001Z</time>
      </trkpt>
      <trkpt lat="43.47182" lon="4.8437">
        <ele>4.921</ele>
        <time>2019-10-24T12:53:12.001Z</time>
      </trkpt>
      <trkpt lat="43.4705" lon="4.84235">
        <ele>3.986</ele>
        <time>2019-10-24T12:53:42.001Z</time>
      </trkpt>
      <trkpt lat="43.46898" lon="4.84138">
        <ele>9.424</ele>
        <time>2019-10-24T12:54:12.001Z</time>
      </trkpt>
      <trkpt lat="43.46743" lon="4.84062">
        <ele>8.757</ele>
        <time>2019-10-24T12:54:42.001Z</time>
      </trkpt>
      <trkpt lat="43.4659" lon="4.83986">
        <ele>8.636</ele>
        <time>2019-10-24T12:55:15.001Z</time>
      </trkpt>
      <trkpt lat="43.46482" lon="4.83937">
        <ele>13.393</ele>
        <time>2019-10-24T12:55:45.001Z</time>
      </trkpt>
      <trkpt lat="43.46374" lon="4.83888">
        <ele>14.567</ele>
        <time>2019-10-24T12:56:15.001Z</time>
      </trkpt>
      <trkpt lat="43.46251" lon="4.8383">
        <ele>12.345</ele>
        <time>2019-10-24T12:56:45.001Z</time>
      </trkpt>
      <trkpt lat="43.46109" lon="4.83763">
        <ele>12.192</ele>
        <time>2019-10-24T12:57:15.001Z</time>
      </trkpt>
      <trkpt lat="43.45925" lon="4.83675">
        <ele>9.547</ele>
        <time>2019-10-24T12:57:45.001Z</time>
      </trkpt>
      <trkpt lat="43.45694" lon="4.83632">
        <ele>3.672</ele>
        <time>2019-10-24T12:58:18.001Z</time>
      </trkpt>
      <trkpt lat="43.4553" lon="4.83662">
        <ele>6.111</ele>
        <time>2019-10-24T12:58:48.001Z</time>
      </trkpt>
      <trkpt lat="43.45362" lon="4.83694">
        <ele>8.519</ele>
        <time>2019-10-24T12:59:18.001Z</time>
      </trkpt>
      <trkpt lat="43.45203" lon="4.83725">
        <ele>10.444</ele>
        <time>2019-10-24T12:59:48.001Z</time>
      </trkpt>
      <trkpt lat="43.45042" lon="4.83736">
        <ele>8.723</ele>
        <time>2019-10-24T13:00:18.001Z</time>
      </trkpt>
      <trkpt lat="43.44887" lon="4.83779">
        <ele>8.907</ele>
        <time>2019-10-24T13:00:48.001Z</time>
      </trkpt>
      <trkpt lat="43.44729" lon="4.83801">
        <ele>8</ele>
        <time>2019-10-24T13:01:18.001Z</time>
      </trkpt>
      <trkpt lat="43.44554" lon="4.83809">
        <ele>6.676</ele>
        <time>2019-10-24T13:01:51.001Z</time>
      </trkpt>
      <trkpt lat="43.444" lon="4.83767">
        <ele>4.602</ele>
        <time>2019-10-24T13:02:21.001Z</time>
      </trkpt>
      <trkpt lat="43.44247" lon="4.83679">
        <ele>3.814</ele>
        <time>2019-10-24T13:02:51.001Z</time>
      </trkpt>
      <trkpt lat="43.44103" lon="4.83551">
        <ele>2.613</ele>
        <time>2019-10-24T13:03:21.001Z</time>
      </trkpt>
      <trkpt lat="43.43969" lon="4.83409">
        <ele>3.355</ele>
        <time>2019-10-24T13:03:51.001Z</time>
      </trkpt>
      <trkpt lat="43.43836" lon="4.83265">
        <ele>3.123</ele>
        <time>2019-10-24T13:04:21.001Z</time>
      </trkpt>
      <trkpt lat="43.43688" lon="4.83106">
        <ele>3.737</ele>
        <time>2019-10-24T13:04:54.001Z</time>
      </trkpt>
      <trkpt lat="43.43559" lon="4.82962">
        <ele>7.502</ele>
        <time>2019-10-24T13:05:24.001Z</time>
      </trkpt>
      <trkpt lat="43.43428" lon="4.82823">
        <ele>5.469</ele>
        <time>2019-10-24T13:05:54.001Z</time>
      </trkpt>
      <trkpt lat="43.43304" lon="4.82688">
        <ele>2.465</ele>
        <time>2019-10-24T13:06:24.001Z</time>
      </trkpt>
      <trkpt lat="43.43175" lon="4.8255">
        <ele>3.439</ele>
        <time>2019-10-24T13:06:54.001Z</time>
      </trkpt>
      <trkpt lat="43.43053" lon="4.82411">
        <ele>3.683</ele>
        <time>2019-10-24T13:07:24.001Z</time>
      </trkpt>
      <trkpt lat="43.42936" lon="4.82266">
        <ele>6.734</ele>
        <time>2019-10-24T13:07:54.001Z</time>
      </trkpt>
      <trkpt lat="43.42815" lon="4.82108">
        <ele>4.546</ele>
        <time>2019-10-24T13:08:27.001Z</time>
      </trkpt>
      <trkpt lat="43.42708" lon="4.8196">
        <ele>4.594</ele>
        <time>2019-10-24T13:08:57.001Z</time>
      </trkpt>
      <trkpt lat="43.42603" lon="4.81807">
        <ele>3.772</ele>
        <time>2019-10-24T13:09:27.001Z</time>
      </trkpt>
      <trkpt lat="43.42498" lon="4.81652">
        <ele>4.804</ele>
        <time>2019-10-24T13:09:57.001Z</time>
      </trkpt>
      <trkpt lat="43.42392" lon="4.81501">
        <ele>4.929</ele>
        <time>2019-10-24T13:10:27.001Z</time>
      </trkpt>
      <trkpt lat="43.42279" lon="4.81364">
        <ele>2.513</ele>
        <time>2019-10-24T13:10:57.001Z</time>
      </trkpt>
      <trkpt lat="43.42176" lon="4.812">
        <ele>2.466</ele>
        <time>2019-10-24T13:11:30.001Z</time>
      </trkpt>
      <trkpt lat="43.42084" lon="4.81038">
        <ele>3.594</ele>
        <time>2019-10-24T13:12:00Z</time>
      </trkpt>
      <trkpt lat="43.41981" lon="4.8089">
        <ele>3.102</ele>
        <time>2019-10-24T13:12:30.001Z</time>
      </trkpt>
      <trkpt lat="43.41878" lon="4.80744">
        <ele>3.796</ele>
        <time>2019-10-24T13:13:00Z</time>
      </trkpt>
      <trkpt lat="43.41776" lon="4.80593">
        <ele>2.812</ele>
        <time>2019-10-24T13:13:30.001Z</time>
      </trkpt>
      <trkpt lat="43.4167" lon="4.8044">
        <ele>4.45</ele>
        <time>2019-10-24T13:14:00Z</time>
      </trkpt>
      <trkpt lat="43.41569" lon="4.80292">
        <ele>3.471</ele>
        <time>2019-10-24T13:14:30.001Z</time>
      </trkpt>
      <trkpt lat="43.41455" lon="4.80123">
        <ele>4.534</ele>
        <time>2019-10-24T13:15:03.001Z</time>
      </trkpt>
      <trkpt lat="43.41357" lon="4.79972">
        <ele>5.308</ele>
        <time>2019-10-24T13:15:33.001Z</time>
      </trkpt>
      <trkpt lat="43.41267" lon="4.79808">
        <ele>6.632</ele>
        <time>2019-10-24T13:16:03.001Z</time>
      </trkpt>
      <trkpt lat="43.41192" lon="4.79637">
        <ele>3.862</ele>
        <time>2019-10-24T13:16:33.001Z</time>
      </trkpt>
      <trkpt lat="43.41132" lon="4.79491">
        <ele>5.629</ele>
        <time>2019-10-24T13:17:03.001Z</time>
      </trkpt>
      <trkpt lat="43.41072" lon="4.79368">
        <ele>9.287</ele>
        <time>2019-10-24T13:17:33.001Z</time>
      </trkpt>
      <trkpt lat="43.40985" lon="4.79234">
        <ele>9.149</ele>
        <time>2019-10-24T13:18:06.001Z</time>
      </trkpt>
      <trkpt lat="43.40888" lon="4.79121">
        <ele>8.587</ele>
        <time>2019-10-24T13:18:36.001Z</time>
      </trkpt>
      <trkpt lat="43.40775" lon="4.79026">
        <ele>9.334</ele>
        <time>2019-10-24T13:19:06.001Z</time>
      </trkpt>
      <trkpt lat="43.40634" lon="4.78944">
        <ele>10.666</ele>
        <time>2019-10-24T13:19:36.001Z</time>
      </trkpt>
      <trkpt lat="43.40467" lon="4.78854">
        <ele>4.369</ele>
        <time>2019-10-24T13:20:06.001Z</time>
      </trkpt>
      <trkpt lat="43.40381" lon="4.78702">
        <ele>3.693</ele>
        <time>2019-10-24T13:20:36.001Z</time>
      </trkpt>
      <trkpt lat="43.40511" lon="4.78569">
        <ele>2.016</ele>
        <time>2019-10-24T13:21:06.001Z</time>
      </trkpt>
      <trkpt lat="43.40653" lon="4.78432">
        <ele>1.266</ele>
        <time>2019-10-24T13:21:39.001Z</time>
      </trkpt>
      <trkpt lat="43.40781" lon="4.78306">
        <ele>2.95</ele>
        <time>2019-10-24T13:22:09.001Z</time>
      </trkpt>
      <trkpt lat="43.4091" lon="4.78181">
        <ele>1.74</ele>
        <time>2019-10-24T13:22:39.001Z</time>
      </trkpt>
      <trkpt lat="43.41035" lon="4.78058">
        <ele>0.577</ele>
        <time>2019-10-24T13:23:09.001Z</time>
      </trkpt>
      <trkpt lat="43.41161" lon="4.77937">
        <ele>0.75</ele>
        <time>2019-10-24T13:23:39.001Z</time>
      </trkpt>
      <trkpt lat="43.41289" lon="4.77812">
        <ele>1.667</ele>
        <time>2019-10-24T13:24:09.001Z</time>
      </trkpt>
      <trkpt lat="43.41433" lon="4.7767">
        <ele>2.599</ele>
        <time>2019-10-24T13:24:42.001Z</time>
      </trkpt>
      <trkpt lat="43.4157" lon="4.7754">
        <ele>1</ele>
        <time>2019-10-24T13:25:12.001Z</time>
      </trkpt>
      <trkpt lat="43.41697" lon="4.77414">
        <ele>0.43</ele>
        <time>2019-10-24T13:25:42.001Z</time>
      </trkpt>
      <trkpt lat="43.41819" lon="4.77292">
        <ele>0.946</ele>
        <time>2019-10-24T13:26:12.001Z</time>
      </trkpt>
      <trkpt lat="43.41943" lon="4.77172">
        <ele>2</ele>
        <time>2019-10-24T13:26:42.001Z</time>
      </trkpt>
      <trkpt lat="43.42067" lon="4.77051">
        <ele>1.016</ele>
        <time>2019-10-24T13:27:12.001Z</time>
      </trkpt>
      <trkpt lat="43.42193" lon="4.76931">
        <ele>1</ele>
        <time>2019-10-24T13:27:42.001Z</time>
      </trkpt>
      <trkpt lat="43.4231" lon="4.76811">
        <ele>3.166</ele>
        <time>2019-10-24T13:28:15.001Z</time>
      </trkpt>
      <trkpt lat="43.42395" lon="4.7673">
        <ele>5.334</ele>
        <time>2019-10-24T13:28:45.001Z</time>
      </trkpt>
      <trkpt lat="43.42497" lon="4.76639">
        <ele>5.584</ele>
        <time>2019-10-24T13:29:15.001Z</time>
      </trkpt>
      <trkpt lat="43.42539" lon="4.76531">
        <ele>5.159</ele>
        <time>2019-10-24T13:29:45.001Z</time>
      </trkpt>
      <trkpt lat="43.42508" lon="4.76288">
        <ele>2.874</ele>
        <time>2019-10-24T13:30:15.001Z</time>
      </trkpt>
      <trkpt lat="43.42435" lon="4.76051">
        <ele>0.672</ele>
        <time>2019-10-24T13:30:45.001Z</time>
      </trkpt>
      <trkpt lat="43.42333" lon="4.75846">
        <ele>0.403</ele>
        <time>2019-10-24T13:31:18.001Z</time>
      </trkpt>
      <trkpt lat="43.42246" lon="4.75665">
        <ele>2.472</ele>
        <time>2019-10-24T13:31:48.001Z</time>
      </trkpt>
      <trkpt lat="43.42174" lon="4.75471">
        <ele>1.196</ele>
        <time>2019-10-24T13:32:18.001Z</time>
      </trkpt>
      <trkpt lat="43.42125" lon="4.75258">
        <ele>0.749</ele>
        <time>2019-10-24T13:32:48.001Z</time>
      </trkpt>
      <trkpt lat="43.42103" lon="4.75045">
        <ele>0.023</ele>
        <time>2019-10-24T13:33:18.001Z</time>
      </trkpt>
      <trkpt lat="43.42077" lon="4.74889">
        <ele>2.186</ele>
        <time>2019-10-24T13:33:48.001Z</time>
      </trkpt>
      <trkpt lat="43.42012" lon="4.74818">
        <ele>3.895</ele>
        <time>2019-10-24T13:34:18.001Z</time>
      </trkpt>
      <trkpt lat="43.41989" lon="4.74811">
        <ele>4.336</ele>
        <time>2019-10-24T13:36:30.001Z</time>
      </trkpt>
      <trkpt lat="43.41998" lon="4.7481">
        <ele>4.327</ele>
        <time>2019-10-24T13:37:33.001Z</time>
      </trkpt>
      <trkpt lat="43.41961" lon="4.74793">
        <ele>3.793</ele>
        <time>2019-10-24T13:42:42.001Z</time>
      </trkpt>
      <trkpt lat="43.41948" lon="4.74784">
        <ele>3.727</ele>
        <time>2019-10-24T13:43:36.001Z</time>
      </trkpt>
      <trkpt lat="43.4187" lon="4.74742">
        <ele>3.732</ele>
        <time>2019-10-24T13:45:09.001Z</time>
      </trkpt>
      <trkpt lat="43.4181" lon="4.74694">
        <ele>6.561</ele>
        <time>2019-10-24T13:45:39.001Z</time>
      </trkpt>
      <trkpt lat="43.41776" lon="4.74591">
        <ele>5.579</ele>
        <time>2019-10-24T13:46:12.001Z</time>
      </trkpt>
      <trkpt lat="43.41787" lon="4.74501">
        <ele>4.064</ele>
        <time>2019-10-24T13:46:45.001Z</time>
      </trkpt>
      <trkpt lat="43.41799" lon="4.74433">
        <ele>10.556</ele>
        <time>2019-10-24T13:49:03.001Z</time>
      </trkpt>
      <trkpt lat="43.41812" lon="4.74307">
        <ele>7.943</ele>
        <time>2019-10-24T13:49:33.001Z</time>
      </trkpt>
      <trkpt lat="43.41755" lon="4.74119">
        <ele>3.687</ele>
        <time>2019-10-24T13:50:03.001Z</time>
      </trkpt>
      <trkpt lat="43.41673" lon="4.7395">
        <ele>0.842</ele>
        <time>2019-10-24T13:50:33.001Z</time>
      </trkpt>
      <trkpt lat="43.41597" lon="4.73789">
        <ele>0.266</ele>
        <time>2019-10-24T13:51:03.001Z</time>
      </trkpt>
      <trkpt lat="43.41492" lon="4.73818">
        <ele>0.947</ele>
        <time>2019-10-24T13:51:36.001Z</time>
      </trkpt>
      <trkpt lat="43.41388" lon="4.73916">
        <ele>4.177</ele>
        <time>2019-10-24T13:52:06.001Z</time>
      </trkpt>
      <trkpt lat="43.41284" lon="4.74009">
        <ele>0.48</ele>
        <time>2019-10-24T13:52:36.001Z</time>
      </trkpt>
    </trkseg>
  </trk>
  <trk>
    <name><![CDATA[Tracé 20191025-101338]]></name>
    <trkseg>
      <trkpt lat="43.41279" lon="4.73922">
        <ele>2.7</ele>
        <time>2019-10-25T08:16:05Z</time>
      </trkpt>
      <trkpt lat="43.41273" lon="4.74012">
        <ele>1.002</ele>
        <time>2019-10-25T08:16:35Z</time>
      </trkpt>
      <trkpt lat="43.41344" lon="4.73958">
        <ele>0.758</ele>
        <time>2019-10-25T08:17:05Z</time>
      </trkpt>
      <trkpt lat="43.41453" lon="4.73862">
        <ele>2.03</ele>
        <time>2019-10-25T08:17:38Z</time>
      </trkpt>
      <trkpt lat="43.41548" lon="4.73772">
        <ele>3.382</ele>
        <time>2019-10-25T08:18:08Z</time>
      </trkpt>
      <trkpt lat="43.41632" lon="4.73687">
        <ele>3.936</ele>
        <time>2019-10-25T08:18:38Z</time>
      </trkpt>
      <trkpt lat="43.41574" lon="4.73545">
        <ele>2.3</ele>
        <time>2019-10-25T08:19:08Z</time>
      </trkpt>
      <trkpt lat="43.41502" lon="4.73399">
        <ele>4.35</ele>
        <time>2019-10-25T08:19:38Z</time>
      </trkpt>
      <trkpt lat="43.41432" lon="4.73296">
        <ele>6.181</ele>
        <time>2019-10-25T08:20:08Z</time>
      </trkpt>
      <trkpt lat="43.41462" lon="4.73326">
        <ele>3.854</ele>
        <time>2019-10-25T08:27:20Z</time>
      </trkpt>
      <trkpt lat="43.4153" lon="4.73467">
        <ele>2.973</ele>
        <time>2019-10-25T08:27:50Z</time>
      </trkpt>
      <trkpt lat="43.41601" lon="4.73607">
        <ele>5.544</ele>
        <time>2019-10-25T08:28:20Z</time>
      </trkpt>
      <trkpt lat="43.41675" lon="4.73671">
        <ele>5.048</ele>
        <time>2019-10-25T08:28:50Z</time>
      </trkpt>
      <trkpt lat="43.41785" lon="4.73569">
        <ele>12.176</ele>
        <time>2019-10-25T08:29:20Z</time>
      </trkpt>
      <trkpt lat="43.41889" lon="4.73468">
        <ele>11.167</ele>
        <time>2019-10-25T08:29:50Z</time>
      </trkpt>
      <trkpt lat="43.41994" lon="4.73317">
        <ele>7.162</ele>
        <time>2019-10-25T08:30:23Z</time>
      </trkpt>
      <trkpt lat="43.4208" lon="4.73144">
        <ele>2</ele>
        <time>2019-10-25T08:30:53Z</time>
      </trkpt>
      <trkpt lat="43.42183" lon="4.72981">
        <ele>1</ele>
        <time>2019-10-25T08:31:23Z</time>
      </trkpt>
      <trkpt lat="43.42261" lon="4.72808">
        <ele>0.202</ele>
        <time>2019-10-25T08:31:53Z</time>
      </trkpt>
      <trkpt lat="43.42299" lon="4.72611">
        <ele>0.692</ele>
        <time>2019-10-25T08:32:23Z</time>
      </trkpt>
      <trkpt lat="43.42388" lon="4.72436">
        <ele>1.761</ele>
        <time>2019-10-25T08:32:56Z</time>
      </trkpt>
      <trkpt lat="43.42488" lon="4.72299">
        <ele>1.379</ele>
        <time>2019-10-25T08:33:26Z</time>
      </trkpt>
      <trkpt lat="43.4259" lon="4.72158">
        <ele>1.992</ele>
        <time>2019-10-25T08:33:56Z</time>
      </trkpt>
      <trkpt lat="43.4269" lon="4.72017">
        <ele>3.318</ele>
        <time>2019-10-25T08:34:26Z</time>
      </trkpt>
      <trkpt lat="43.42759" lon="4.71857">
        <ele>1</ele>
        <time>2019-10-25T08:34:56Z</time>
      </trkpt>
      <trkpt lat="43.4274" lon="4.71663">
        <ele>2.079</ele>
        <time>2019-10-25T08:35:26Z</time>
      </trkpt>
      <trkpt lat="43.42718" lon="4.7144">
        <ele>1.182</ele>
        <time>2019-10-25T08:35:59Z</time>
      </trkpt>
      <trkpt lat="43.42699" lon="4.71239">
        <ele>0.172</ele>
        <time>2019-10-25T08:36:29.001Z</time>
      </trkpt>
      <trkpt lat="43.4268" lon="4.71043">
        <ele>1.342</ele>
        <time>2019-10-25T08:36:59.001Z</time>
      </trkpt>
      <trkpt lat="43.42663" lon="4.7085">
        <ele>2.032</ele>
        <time>2019-10-25T08:37:29.001Z</time>
      </trkpt>
      <trkpt lat="43.42708" lon="4.7066">
        <ele>2.408</ele>
        <time>2019-10-25T08:37:59.001Z</time>
      </trkpt>
      <trkpt lat="43.42732" lon="4.70464">
        <ele>1.5</ele>
        <time>2019-10-25T08:38:29.001Z</time>
      </trkpt>
      <trkpt lat="43.42758" lon="4.70251">
        <ele>1.748</ele>
        <time>2019-10-25T08:39:02Z</time>
      </trkpt>
      <trkpt lat="43.42811" lon="4.70066">
        <ele>2.573</ele>
        <time>2019-10-25T08:39:32.001Z</time>
      </trkpt>
      <trkpt lat="43.4286" lon="4.69873">
        <ele>2.505</ele>
        <time>2019-10-25T08:40:02Z</time>
      </trkpt>
      <trkpt lat="43.42909" lon="4.69689">
        <ele>0.143</ele>
        <time>2019-10-25T08:40:32.001Z</time>
      </trkpt>
      <trkpt lat="43.42905" lon="4.69499">
        <ele>0.806</ele>
        <time>2019-10-25T08:41:02Z</time>
      </trkpt>
      <trkpt lat="43.4293" lon="4.69329">
        <ele>2.054</ele>
        <time>2019-10-25T08:41:32.001Z</time>
      </trkpt>
      <trkpt lat="43.43029" lon="4.6919">
        <ele>1.26</ele>
        <time>2019-10-25T08:42:05.001Z</time>
      </trkpt>
      <trkpt lat="43.43123" lon="4.69058">
        <ele>3.914</ele>
        <time>2019-10-25T08:42:35.001Z</time>
      </trkpt>
      <trkpt lat="43.4321" lon="4.68898">
        <ele>3.526</ele>
        <time>2019-10-25T08:43:05.001Z</time>
      </trkpt>
      <trkpt lat="43.43306" lon="4.68762">
        <ele>0.941</ele>
        <time>2019-10-25T08:43:35.001Z</time>
      </trkpt>
      <trkpt lat="43.43404" lon="4.68627">
        <ele>0.947</ele>
        <time>2019-10-25T08:44:05.001Z</time>
      </trkpt>
      <trkpt lat="43.43498" lon="4.68493">
        <ele>1.781</ele>
        <time>2019-10-25T08:44:35.001Z</time>
      </trkpt>
      <trkpt lat="43.43602" lon="4.68347">
        <ele>2.874</ele>
        <time>2019-10-25T08:45:08.001Z</time>
      </trkpt>
      <trkpt lat="43.43703" lon="4.68209">
        <ele>2.487</ele>
        <time>2019-10-25T08:45:38.001Z</time>
      </trkpt>
      <trkpt lat="43.43826" lon="4.68133">
        <ele>3.5</ele>
        <time>2019-10-25T08:46:08.001Z</time>
      </trkpt>
      <trkpt lat="43.43953" lon="4.6811">
        <ele>1.75</ele>
        <time>2019-10-25T08:46:38.001Z</time>
      </trkpt>
      <trkpt lat="43.44053" lon="4.6797">
        <ele>3.296</ele>
        <time>2019-10-25T08:47:08.001Z</time>
      </trkpt>
      <trkpt lat="43.44155" lon="4.67832">
        <ele>3.076</ele>
        <time>2019-10-25T08:47:38.001Z</time>
      </trkpt>
      <trkpt lat="43.44274" lon="4.67697">
        <ele>1.832</ele>
        <time>2019-10-25T08:48:11.001Z</time>
      </trkpt>
      <trkpt lat="43.44371" lon="4.67562">
        <ele>2.394</ele>
        <time>2019-10-25T08:48:41.001Z</time>
      </trkpt>
      <trkpt lat="43.44436" lon="4.67409">
        <ele>4.75</ele>
        <time>2019-10-25T08:49:11.001Z</time>
      </trkpt>
      <trkpt lat="43.44437" lon="4.67214">
        <ele>1.421</ele>
        <time>2019-10-25T08:49:41.001Z</time>
      </trkpt>
      <trkpt lat="43.44439" lon="4.67013">
        <ele>0.494</ele>
        <time>2019-10-25T08:50:11.001Z</time>
      </trkpt>
      <trkpt lat="43.44443" lon="4.668">
        <ele>1.391</ele>
        <time>2019-10-25T08:50:44.001Z</time>
      </trkpt>
      <trkpt lat="43.44518" lon="4.66625">
        <ele>0.366</ele>
        <time>2019-10-25T08:51:14.001Z</time>
      </trkpt>
      <trkpt lat="43.44606" lon="4.66452">
        <ele>1.027</ele>
        <time>2019-10-25T08:51:44.001Z</time>
      </trkpt>
      <trkpt lat="43.44692" lon="4.66283">
        <ele>1.5</ele>
        <time>2019-10-25T08:52:14.001Z</time>
      </trkpt>
      <trkpt lat="43.44786" lon="4.66155">
        <ele>7.134</ele>
        <time>2019-10-25T08:52:44.001Z</time>
      </trkpt>
      <trkpt lat="43.44921" lon="4.66061">
        <ele>6.357</ele>
        <time>2019-10-25T08:53:14.001Z</time>
      </trkpt>
      <trkpt lat="43.45073" lon="4.65978">
        <ele>5.801</ele>
        <time>2019-10-25T08:53:47.001Z</time>
      </trkpt>
      <trkpt lat="43.45219" lon="4.65937">
        <ele>2.195</ele>
        <time>2019-10-25T08:54:17.001Z</time>
      </trkpt>
      <trkpt lat="43.45359" lon="4.65905">
        <ele>1.9</ele>
        <time>2019-10-25T08:54:47.001Z</time>
      </trkpt>
      <trkpt lat="43.45501" lon="4.65872">
        <ele>0.48</ele>
        <time>2019-10-25T08:55:17.001Z</time>
      </trkpt>
      <trkpt lat="43.45621" lon="4.65807">
        <ele>2.221</ele>
        <time>2019-10-25T08:55:47.001Z</time>
      </trkpt>
      <trkpt lat="43.45569" lon="4.65631">
        <ele>3.015</ele>
        <time>2019-10-25T08:56:17.001Z</time>
      </trkpt>
      <trkpt lat="43.45517" lon="4.6543">
        <ele>1</ele>
        <time>2019-10-25T08:56:50.001Z</time>
      </trkpt>
      <trkpt lat="43.45443" lon="4.65244">
        <ele>2.413</ele>
        <time>2019-10-25T08:57:20.001Z</time>
      </trkpt>
      <trkpt lat="43.45367" lon="4.65069">
        <ele>0.813</ele>
        <time>2019-10-25T08:57:50.001Z</time>
      </trkpt>
      <trkpt lat="43.45275" lon="4.649">
        <ele>1.177</ele>
        <time>2019-10-25T08:58:20.001Z</time>
      </trkpt>
      <trkpt lat="43.45176" lon="4.6474">
        <ele>1.277</ele>
        <time>2019-10-25T08:58:50.001Z</time>
      </trkpt>
      <trkpt lat="43.45067" lon="4.64604">
        <ele>1.296</ele>
        <time>2019-10-25T08:59:20.001Z</time>
      </trkpt>
      <trkpt lat="43.44912" lon="4.64519">
        <ele>1.7</ele>
        <time>2019-10-25T08:59:53.001Z</time>
      </trkpt>
      <trkpt lat="43.44767" lon="4.64464">
        <ele>0.156</ele>
        <time>2019-10-25T09:00:23.001Z</time>
      </trkpt>
      <trkpt lat="43.44615" lon="4.64415">
        <ele>0.305</ele>
        <time>2019-10-25T09:00:53.001Z</time>
      </trkpt>
      <trkpt lat="43.44463" lon="4.64366">
        <ele>1.6</ele>
        <time>2019-10-25T09:01:23.001Z</time>
      </trkpt>
      <trkpt lat="43.44335" lon="4.64293">
        <ele>0.195</ele>
        <time>2019-10-25T09:01:53.001Z</time>
      </trkpt>
      <trkpt lat="43.44268" lon="4.64107">
        <ele>0.46</ele>
        <time>2019-10-25T09:02:23.001Z</time>
      </trkpt>
      <trkpt lat="43.44293" lon="4.63894">
        <ele>1.362</ele>
        <time>2019-10-25T09:02:56.001Z</time>
      </trkpt>
      <trkpt lat="43.44365" lon="4.63736">
        <ele>0.604</ele>
        <time>2019-10-25T09:03:26.001Z</time>
      </trkpt>
      <trkpt lat="43.44434" lon="4.63588">
        <ele>2.002</ele>
        <time>2019-10-25T09:03:56.001Z</time>
      </trkpt>
      <trkpt lat="43.44507" lon="4.63435">
        <ele>1.835</ele>
        <time>2019-10-25T09:04:26.001Z</time>
      </trkpt>
      <trkpt lat="43.4456" lon="4.6326">
        <ele>1.237</ele>
        <time>2019-10-25T09:04:56.001Z</time>
      </trkpt>
      <trkpt lat="43.44599" lon="4.63072">
        <ele>1.207</ele>
        <time>2019-10-25T09:05:26.001Z</time>
      </trkpt>
      <trkpt lat="43.4464" lon="4.62874">
        <ele>1.354</ele>
        <time>2019-10-25T09:05:59.001Z</time>
      </trkpt>
      <trkpt lat="43.44676" lon="4.62696">
        <ele>0.603</ele>
        <time>2019-10-25T09:06:29.001Z</time>
      </trkpt>
      <trkpt lat="43.44711" lon="4.6253">
        <ele>0.452</ele>
        <time>2019-10-25T09:06:59.001Z</time>
      </trkpt>
      <trkpt lat="43.44747" lon="4.62355">
        <ele>1.319</ele>
        <time>2019-10-25T09:07:29.001Z</time>
      </trkpt>
      <trkpt lat="43.44783" lon="4.62176">
        <ele>1.052</ele>
        <time>2019-10-25T09:07:59.001Z</time>
      </trkpt>
      <trkpt lat="43.44772" lon="4.62057">
        <ele>1.758</ele>
        <time>2019-10-25T09:16:41.001Z</time>
      </trkpt>
      <trkpt lat="43.44729" lon="4.61919">
        <ele>2.997</ele>
        <time>2019-10-25T09:17:11.001Z</time>
      </trkpt>
      <trkpt lat="43.44678" lon="4.61768">
        <ele>1.493</ele>
        <time>2019-10-25T09:17:41.001Z</time>
      </trkpt>
      <trkpt lat="43.44631" lon="4.61609">
        <ele>1.148</ele>
        <time>2019-10-25T09:18:11.001Z</time>
      </trkpt>
      <trkpt lat="43.44537" lon="4.61545">
        <ele>1.565</ele>
        <time>2019-10-25T09:18:41.001Z</time>
      </trkpt>
      <trkpt lat="43.44403" lon="4.6153">
        <ele>1.167</ele>
        <time>2019-10-25T09:19:11.001Z</time>
      </trkpt>
      <trkpt lat="43.44251" lon="4.61513">
        <ele>0.43</ele>
        <time>2019-10-25T09:19:44.001Z</time>
      </trkpt>
      <trkpt lat="43.44142" lon="4.61501">
        <ele>1</ele>
        <time>2019-10-25T09:20:14.001Z</time>
      </trkpt>
      <trkpt lat="43.44017" lon="4.61492">
        <ele>0.527</ele>
        <time>2019-10-25T09:20:44.001Z</time>
      </trkpt>
      <trkpt lat="43.43975" lon="4.61384">
        <ele>2.673</ele>
        <time>2019-10-25T09:21:14.001Z</time>
      </trkpt>
      <trkpt lat="43.4404" lon="4.61274">
        <ele>3.18</ele>
        <time>2019-10-25T09:21:44.001Z</time>
      </trkpt>
      <trkpt lat="43.44136" lon="4.612">
        <ele>2.767</ele>
        <time>2019-10-25T09:22:14.001Z</time>
      </trkpt>
      <trkpt lat="43.44234" lon="4.61104">
        <ele>3.855</ele>
        <time>2019-10-25T09:22:47.001Z</time>
      </trkpt>
      <trkpt lat="43.44305" lon="4.60987">
        <ele>4.528</ele>
        <time>2019-10-25T09:23:17.001Z</time>
      </trkpt>
      <trkpt lat="43.44363" lon="4.60857">
        <ele>3.902</ele>
        <time>2019-10-25T09:23:47.001Z</time>
      </trkpt>
      <trkpt lat="43.44426" lon="4.60719">
        <ele>3.123</ele>
        <time>2019-10-25T09:24:17.001Z</time>
      </trkpt>
      <trkpt lat="43.44485" lon="4.60583">
        <ele>2.249</ele>
        <time>2019-10-25T09:24:47.001Z</time>
      </trkpt>
      <trkpt lat="43.44549" lon="4.60444">
        <ele>3.418</ele>
        <time>2019-10-25T09:25:17.001Z</time>
      </trkpt>
      <trkpt lat="43.44617" lon="4.60292">
        <ele>4.202</ele>
        <time>2019-10-25T09:25:50.001Z</time>
      </trkpt>
      <trkpt lat="43.44677" lon="4.60158">
        <ele>5.014</ele>
        <time>2019-10-25T09:26:20.001Z</time>
      </trkpt>
      <trkpt lat="43.44733" lon="4.6003">
        <ele>2.927</ele>
        <time>2019-10-25T09:26:50.001Z</time>
      </trkpt>
      <trkpt lat="43.44792" lon="4.59899">
        <ele>3.081</ele>
        <time>2019-10-25T09:27:20.001Z</time>
      </trkpt>
      <trkpt lat="43.44837" lon="4.59797">
        <ele>3.009</ele>
        <time>2019-10-25T09:27:50.001Z</time>
      </trkpt>
      <trkpt lat="43.44873" lon="4.59724">
        <ele>2.038</ele>
        <time>2019-10-25T09:29:53.001Z</time>
      </trkpt>
      <trkpt lat="43.44932" lon="4.59592">
        <ele>2.057</ele>
        <time>2019-10-25T09:30:26.001Z</time>
      </trkpt>
      <trkpt lat="43.44984" lon="4.59468">
        <ele>5.077</ele>
        <time>2019-10-25T09:30:56.001Z</time>
      </trkpt>
      <trkpt lat="43.4504" lon="4.59349">
        <ele>3.797</ele>
        <time>2019-10-25T09:31:26.001Z</time>
      </trkpt>
      <trkpt lat="43.45093" lon="4.59231">
        <ele>3.857</ele>
        <time>2019-10-25T09:31:56.001Z</time>
      </trkpt>
      <trkpt lat="43.45146" lon="4.59112">
        <ele>2.847</ele>
        <time>2019-10-25T09:32:26.001Z</time>
      </trkpt>
      <trkpt lat="43.452" lon="4.58993">
        <ele>4.177</ele>
        <time>2019-10-25T09:32:56.001Z</time>
      </trkpt>
      <trkpt lat="43.45261" lon="4.58858">
        <ele>4.363</ele>
        <time>2019-10-25T09:33:29.001Z</time>
      </trkpt>
      <trkpt lat="43.45315" lon="4.58736">
        <ele>5.493</ele>
        <time>2019-10-25T09:33:59.001Z</time>
      </trkpt>
      <trkpt lat="43.45371" lon="4.58612">
        <ele>4.552</ele>
        <time>2019-10-25T09:34:29.001Z</time>
      </trkpt>
      <trkpt lat="43.45403" lon="4.58465">
        <ele>2.459</ele>
        <time>2019-10-25T09:34:59.001Z</time>
      </trkpt>
      <trkpt lat="43.45409" lon="4.58357">
        <ele>2.233</ele>
        <time>2019-10-25T09:35:29.001Z</time>
      </trkpt>
      <trkpt lat="43.45411" lon="4.58266">
        <ele>1.532</ele>
        <time>2019-10-25T09:37:17.001Z</time>
      </trkpt>
      <trkpt lat="43.45417" lon="4.58121">
        <ele>1.652</ele>
        <time>2019-10-25T09:37:47.001Z</time>
      </trkpt>
      <trkpt lat="43.45423" lon="4.5798">
        <ele>3.409</ele>
        <time>2019-10-25T09:38:17.001Z</time>
      </trkpt>
      <trkpt lat="43.4543" lon="4.5784">
        <ele>2.839</ele>
        <time>2019-10-25T09:38:47.001Z</time>
      </trkpt>
      <trkpt lat="43.45437" lon="4.57707">
        <ele>0.22</ele>
        <time>2019-10-25T09:39:17.001Z</time>
      </trkpt>
      <trkpt lat="43.45442" lon="4.57568">
        <ele>0.413</ele>
        <time>2019-10-25T09:39:47.001Z</time>
      </trkpt>
      <trkpt lat="43.45448" lon="4.57407">
        <ele>0.277</ele>
        <time>2019-10-25T09:40:20.001Z</time>
      </trkpt>
      <trkpt lat="43.45455" lon="4.57251">
        <ele>2.695</ele>
        <time>2019-10-25T09:40:50.001Z</time>
      </trkpt>
      <trkpt lat="43.45461" lon="4.57086">
        <ele>3.142</ele>
        <time>2019-10-25T09:41:20.001Z</time>
      </trkpt>
      <trkpt lat="43.45468" lon="4.56924">
        <ele>3.242</ele>
        <time>2019-10-25T09:41:50.001Z</time>
      </trkpt>
      <trkpt lat="43.45475" lon="4.56768">
        <ele>2.818</ele>
        <time>2019-10-25T09:42:20.001Z</time>
      </trkpt>
      <trkpt lat="43.45481" lon="4.56603">
        <ele>2.01</ele>
        <time>2019-10-25T09:42:50.001Z</time>
      </trkpt>
      <trkpt lat="43.4549" lon="4.56426">
        <ele>1.384</ele>
        <time>2019-10-25T09:43:23.001Z</time>
      </trkpt>
      <trkpt lat="43.45518" lon="4.56275">
        <ele>2.26</ele>
        <time>2019-10-25T09:43:53.001Z</time>
      </trkpt>
      <trkpt lat="43.45557" lon="4.56133">
        <ele>3.086</ele>
        <time>2019-10-25T09:44:23.001Z</time>
      </trkpt>
      <trkpt lat="43.45599" lon="4.55988">
        <ele>0.811</ele>
        <time>2019-10-25T09:44:53.001Z</time>
      </trkpt>
      <trkpt lat="43.45639" lon="4.55844">
        <ele>2.79</ele>
        <time>2019-10-25T09:45:23.001Z</time>
      </trkpt>
      <trkpt lat="43.45678" lon="4.55701">
        <ele>2.135</ele>
        <time>2019-10-25T09:45:53.001Z</time>
      </trkpt>
      <trkpt lat="43.45725" lon="4.5554">
        <ele>3.213</ele>
        <time>2019-10-25T09:46:26.001Z</time>
      </trkpt>
      <trkpt lat="43.45765" lon="4.55395">
        <ele>2.246</ele>
        <time>2019-10-25T09:46:56.001Z</time>
      </trkpt>
      <trkpt lat="43.45796" lon="4.55242">
        <ele>2.646</ele>
        <time>2019-10-25T09:47:26.001Z</time>
      </trkpt>
      <trkpt lat="43.45799" lon="4.55083">
        <ele>1.255</ele>
        <time>2019-10-25T09:47:56.001Z</time>
      </trkpt>
      <trkpt lat="43.45798" lon="4.54929">
        <ele>1.059</ele>
        <time>2019-10-25T09:48:26.001Z</time>
      </trkpt>
      <trkpt lat="43.45801" lon="4.54782">
        <ele>0.681</ele>
        <time>2019-10-25T09:48:56.001Z</time>
      </trkpt>
      <trkpt lat="43.45828" lon="4.54627">
        <ele>1.728</ele>
        <time>2019-10-25T09:49:29.001Z</time>
      </trkpt>
      <trkpt lat="43.45878" lon="4.545">
        <ele>2.192</ele>
        <time>2019-10-25T09:49:59.001Z</time>
      </trkpt>
      <trkpt lat="43.45945" lon="4.54381">
        <ele>0.754</ele>
        <time>2019-10-25T09:50:29.001Z</time>
      </trkpt>
      <trkpt lat="43.46012" lon="4.54261">
        <ele>3.41</ele>
        <time>2019-10-25T09:50:59.001Z</time>
      </trkpt>
      <trkpt lat="43.46084" lon="4.54136">
        <ele>1.988</ele>
        <time>2019-10-25T09:51:29.001Z</time>
      </trkpt>
      <trkpt lat="43.4615" lon="4.54018">
        <ele>2.516</ele>
        <time>2019-10-25T09:51:59.001Z</time>
      </trkpt>
      <trkpt lat="43.46224" lon="4.53886">
        <ele>2.707</ele>
        <time>2019-10-25T09:52:32.001Z</time>
      </trkpt>
      <trkpt lat="43.46273" lon="4.53756">
        <ele>1.492</ele>
        <time>2019-10-25T09:53:02Z</time>
      </trkpt>
      <trkpt lat="43.46313" lon="4.53615">
        <ele>2.146</ele>
        <time>2019-10-25T09:53:32.001Z</time>
      </trkpt>
      <trkpt lat="43.46355" lon="4.5347">
        <ele>1.277</ele>
        <time>2019-10-25T09:54:02Z</time>
      </trkpt>
      <trkpt lat="43.46396" lon="4.53331">
        <ele>1.712</ele>
        <time>2019-10-25T09:54:32.001Z</time>
      </trkpt>
      <trkpt lat="43.46428" lon="4.53166">
        <ele>2.074</ele>
        <time>2019-10-25T09:55:05.001Z</time>
      </trkpt>
      <trkpt lat="43.46439" lon="4.53015">
        <ele>3.291</ele>
        <time>2019-10-25T09:55:35.001Z</time>
      </trkpt>
      <trkpt lat="43.46447" lon="4.52869">
        <ele>3.348</ele>
        <time>2019-10-25T09:56:05.001Z</time>
      </trkpt>
      <trkpt lat="43.46456" lon="4.52719">
        <ele>1.959</ele>
        <time>2019-10-25T09:56:35.001Z</time>
      </trkpt>
      <trkpt lat="43.46466" lon="4.52566">
        <ele>0.554</ele>
        <time>2019-10-25T09:57:05.001Z</time>
      </trkpt>
      <trkpt lat="43.46475" lon="4.52409">
        <ele>0.31</ele>
        <time>2019-10-25T09:57:35.001Z</time>
      </trkpt>
      <trkpt lat="43.46486" lon="4.52242">
        <ele>1.24</ele>
        <time>2019-10-25T09:58:08.001Z</time>
      </trkpt>
      <trkpt lat="43.46488" lon="4.52091">
        <ele>0.664</ele>
        <time>2019-10-25T09:58:38.001Z</time>
      </trkpt>
      <trkpt lat="43.46465" lon="4.51937">
        <ele>1.25</ele>
        <time>2019-10-25T09:59:08.001Z</time>
      </trkpt>
      <trkpt lat="43.46415" lon="4.51798">
        <ele>1.02</ele>
        <time>2019-10-25T09:59:38.001Z</time>
      </trkpt>
      <trkpt lat="43.46361" lon="4.51658">
        <ele>3.036</ele>
        <time>2019-10-25T10:00:08.001Z</time>
      </trkpt>
      <trkpt lat="43.46306" lon="4.51514">
        <ele>4.338</ele>
        <time>2019-10-25T10:00:38.001Z</time>
      </trkpt>
      <trkpt lat="43.46238" lon="4.51344">
        <ele>2.065</ele>
        <time>2019-10-25T10:01:11.001Z</time>
      </trkpt>
      <trkpt lat="43.46202" lon="4.51184">
        <ele>1.805</ele>
        <time>2019-10-25T10:01:41.001Z</time>
      </trkpt>
      <trkpt lat="43.46184" lon="4.51026">
        <ele>0.71</ele>
        <time>2019-10-25T10:02:11.001Z</time>
      </trkpt>
      <trkpt lat="43.46164" lon="4.50867">
        <ele>1.799</ele>
        <time>2019-10-25T10:02:41.001Z</time>
      </trkpt>
      <trkpt lat="43.4615" lon="4.50764">
        <ele>2.136</ele>
        <time>2019-10-25T10:03:14.001Z</time>
      </trkpt>
      <trkpt lat="43.46148" lon="4.50733">
        <ele>2.413</ele>
        <time>2019-10-25T10:03:47.001Z</time>
      </trkpt>
      <trkpt lat="43.46136" lon="4.50643">
        <ele>1.774</ele>
        <time>2019-10-25T10:04:32.001Z</time>
      </trkpt>
      <trkpt lat="43.4613" lon="4.50601">
        <ele>3.26</ele>
        <time>2019-10-25T10:05:08.001Z</time>
      </trkpt>
      <trkpt lat="43.46115" lon="4.50453">
        <ele>1.977</ele>
        <time>2019-10-25T10:05:38.001Z</time>
      </trkpt>
      <trkpt lat="43.46102" lon="4.50285">
        <ele>1.651</ele>
        <time>2019-10-25T10:06:08.001Z</time>
      </trkpt>
      <trkpt lat="43.4612" lon="4.5012">
        <ele>0.515</ele>
        <time>2019-10-25T10:06:38.001Z</time>
      </trkpt>
      <trkpt lat="43.46158" lon="4.49952">
        <ele>1.634</ele>
        <time>2019-10-25T10:07:08.001Z</time>
      </trkpt>
      <trkpt lat="43.46118" lon="4.49759">
        <ele>2.487</ele>
        <time>2019-10-25T10:07:41.001Z</time>
      </trkpt>
      <trkpt lat="43.46003" lon="4.49638">
        <ele>2.606</ele>
        <time>2019-10-25T10:08:11.001Z</time>
      </trkpt>
      <trkpt lat="43.45965" lon="4.49588">
        <ele>3.208</ele>
        <time>2019-10-25T10:08:41.001Z</time>
      </trkpt>
      <trkpt lat="43.45966" lon="4.4954">
        <ele>0.972</ele>
        <time>2019-10-25T10:09:56.001Z</time>
      </trkpt>
      <trkpt lat="43.45969" lon="4.49478">
        <ele>2.202</ele>
        <time>2019-10-25T10:10:50.001Z</time>
      </trkpt>
      <trkpt lat="43.45955" lon="4.4934">
        <ele>3.297</ele>
        <time>2019-10-25T10:11:20.001Z</time>
      </trkpt>
      <trkpt lat="43.4596" lon="4.49176">
        <ele>3.836</ele>
        <time>2019-10-25T10:11:53.001Z</time>
      </trkpt>
      <trkpt lat="43.45991" lon="4.49025">
        <ele>2.063</ele>
        <time>2019-10-25T10:12:23.001Z</time>
      </trkpt>
      <trkpt lat="43.46025" lon="4.48881">
        <ele>0.848</ele>
        <time>2019-10-25T10:12:53.001Z</time>
      </trkpt>
      <trkpt lat="43.46063" lon="4.48729">
        <ele>2.062</ele>
        <time>2019-10-25T10:13:23.001Z</time>
      </trkpt>
      <trkpt lat="43.46104" lon="4.48571">
        <ele>1.791</ele>
        <time>2019-10-25T10:13:53.001Z</time>
      </trkpt>
      <trkpt lat="43.46149" lon="4.48391">
        <ele>1.881</ele>
        <time>2019-10-25T10:14:26.001Z</time>
      </trkpt>
      <trkpt lat="43.46188" lon="4.48242">
        <ele>3.074</ele>
        <time>2019-10-25T10:14:56.001Z</time>
      </trkpt>
      <trkpt lat="43.46227" lon="4.48085">
        <ele>1.458</ele>
        <time>2019-10-25T10:15:26.001Z</time>
      </trkpt>
      <trkpt lat="43.46267" lon="4.47921">
        <ele>1.3</ele>
        <time>2019-10-25T10:15:56.001Z</time>
      </trkpt>
      <trkpt lat="43.46309" lon="4.47754">
        <ele>1.293</ele>
        <time>2019-10-25T10:16:26.001Z</time>
      </trkpt>
      <trkpt lat="43.46351" lon="4.4759">
        <ele>1.625</ele>
        <time>2019-10-25T10:16:56.001Z</time>
      </trkpt>
      <trkpt lat="43.46397" lon="4.4741">
        <ele>0.75</ele>
        <time>2019-10-25T10:17:29.001Z</time>
      </trkpt>
      <trkpt lat="43.46437" lon="4.47247">
        <ele>2.441</ele>
        <time>2019-10-25T10:17:59.001Z</time>
      </trkpt>
      <trkpt lat="43.46474" lon="4.47075">
        <ele>0.979</ele>
        <time>2019-10-25T10:18:29.001Z</time>
      </trkpt>
      <trkpt lat="43.46481" lon="4.46897">
        <ele>0.85</ele>
        <time>2019-10-25T10:18:59.001Z</time>
      </trkpt>
      <trkpt lat="43.46445" lon="4.46721">
        <ele>2</ele>
        <time>2019-10-25T10:19:29.001Z</time>
      </trkpt>
      <trkpt lat="43.46373" lon="4.46561">
        <ele>1.111</ele>
        <time>2019-10-25T10:19:59.001Z</time>
      </trkpt>
      <trkpt lat="43.46322" lon="4.46475">
        <ele>1.47</ele>
        <time>2019-10-25T10:26:41.001Z</time>
      </trkpt>
      <trkpt lat="43.46255" lon="4.46354">
        <ele>0.742</ele>
        <time>2019-10-25T10:27:11.001Z</time>
      </trkpt>
      <trkpt lat="43.46176" lon="4.46216">
        <ele>1.2</ele>
        <time>2019-10-25T10:27:41.001Z</time>
      </trkpt>
      <trkpt lat="43.46107" lon="4.46094">
        <ele>1.3</ele>
        <time>2019-10-25T10:28:11.001Z</time>
      </trkpt>
      <trkpt lat="43.46085" lon="4.46059">
        <ele>1.739</ele>
        <time>2019-10-25T10:28:56.001Z</time>
      </trkpt>
      <trkpt lat="43.4602" lon="4.45938">
        <ele>0.912</ele>
        <time>2019-10-25T10:29:26.001Z</time>
      </trkpt>
      <trkpt lat="43.45956" lon="4.45787">
        <ele>2.679</ele>
        <time>2019-10-25T10:29:59.001Z</time>
      </trkpt>
      <trkpt lat="43.45931" lon="4.45684">
        <ele>2.101</ele>
        <time>2019-10-25T10:30:35.001Z</time>
      </trkpt>
      <trkpt lat="43.45899" lon="4.45539">
        <ele>2.698</ele>
        <time>2019-10-25T10:31:05.001Z</time>
      </trkpt>
      <trkpt lat="43.45863" lon="4.45379">
        <ele>1.817</ele>
        <time>2019-10-25T10:31:35.001Z</time>
      </trkpt>
      <trkpt lat="43.45825" lon="4.45215">
        <ele>2.198</ele>
        <time>2019-10-25T10:32:05.001Z</time>
      </trkpt>
      <trkpt lat="43.45786" lon="4.45052">
        <ele>1.568</ele>
        <time>2019-10-25T10:32:35.001Z</time>
      </trkpt>
      <trkpt lat="43.4575" lon="4.44888">
        <ele>1.061</ele>
        <time>2019-10-25T10:33:08.001Z</time>
      </trkpt>
      <trkpt lat="43.45718" lon="4.44742">
        <ele>0.615</ele>
        <time>2019-10-25T10:33:38.001Z</time>
      </trkpt>
      <trkpt lat="43.4568" lon="4.44586">
        <ele>1.858</ele>
        <time>2019-10-25T10:34:08.001Z</time>
      </trkpt>
      <trkpt lat="43.45647" lon="4.44422">
        <ele>2.098</ele>
        <time>2019-10-25T10:34:38.001Z</time>
      </trkpt>
      <trkpt lat="43.45609" lon="4.44264">
        <ele>4.245</ele>
        <time>2019-10-25T10:35:08.002Z</time>
      </trkpt>
      <trkpt lat="43.45546" lon="4.4412">
        <ele>2.506</ele>
        <time>2019-10-25T10:35:38.001Z</time>
      </trkpt>
      <trkpt lat="43.45484" lon="4.43964">
        <ele>1.507</ele>
        <time>2019-10-25T10:36:11.001Z</time>
      </trkpt>
      <trkpt lat="43.45421" lon="4.43796">
        <ele>1.472</ele>
        <time>2019-10-25T10:36:41.001Z</time>
      </trkpt>
      <trkpt lat="43.45364" lon="4.43658">
        <ele>1.6</ele>
        <time>2019-10-25T10:37:11.001Z</time>
      </trkpt>
      <trkpt lat="43.45356" lon="4.43496">
        <ele>1.179</ele>
        <time>2019-10-25T10:37:41.001Z</time>
      </trkpt>
      <trkpt lat="43.45338" lon="4.43369">
        <ele>0.02</ele>
        <time>2019-10-25T10:38:11.001Z</time>
      </trkpt>
      <trkpt lat="43.45204" lon="4.43305">
        <ele>2.412</ele>
        <time>2019-10-25T10:38:44.001Z</time>
      </trkpt>
      <trkpt lat="43.45118" lon="4.43131">
        <ele>1.144</ele>
        <time>2019-10-25T10:39:14.001Z</time>
      </trkpt>
      <trkpt lat="43.4504" lon="4.42976">
        <ele>1.362</ele>
        <time>2019-10-25T10:39:44.001Z</time>
      </trkpt>
      <trkpt lat="43.45033" lon="4.42781">
        <ele>4.975</ele>
        <time>2019-10-25T10:40:14.001Z</time>
      </trkpt>
      <trkpt lat="43.45027" lon="4.42569">
        <ele>1.457</ele>
        <time>2019-10-25T10:40:44.001Z</time>
      </trkpt>
      <trkpt lat="43.45005" lon="4.42351">
        <ele>1.1</ele>
        <time>2019-10-25T10:41:14.001Z</time>
      </trkpt>
      <trkpt lat="43.44953" lon="4.4213">
        <ele>0.03</ele>
        <time>2019-10-25T10:41:47.001Z</time>
      </trkpt>
      <trkpt lat="43.44971" lon="4.41924">
        <ele>1.8</ele>
        <time>2019-10-25T10:42:17.001Z</time>
      </trkpt>
      <trkpt lat="43.44991" lon="4.41718">
        <ele>2.6</ele>
        <time>2019-10-25T10:42:47.001Z</time>
      </trkpt>
      <trkpt lat="43.45044" lon="4.4156">
        <ele>1.26</ele>
        <time>2019-10-25T10:43:17.001Z</time>
      </trkpt>
      <trkpt lat="43.45047" lon="4.41411">
        <ele>0.021</ele>
        <time>2019-10-25T10:43:47.001Z</time>
      </trkpt>
      <trkpt lat="43.45048" lon="4.4123">
        <ele>0.625</ele>
        <time>2019-10-25T10:44:17.001Z</time>
      </trkpt>
      <trkpt lat="43.45023" lon="4.4104">
        <ele>1</ele>
        <time>2019-10-25T10:44:50.001Z</time>
      </trkpt>
      <trkpt lat="43.45018" lon="4.40934">
        <ele>1</ele>
        <time>2019-10-25T10:45:20.001Z</time>
      </trkpt>
      <trkpt lat="43.45039" lon="4.40841">
        <ele>1.6</ele>
        <time>2019-10-25T10:45:50.001Z</time>
      </trkpt>
      <trkpt lat="43.45047" lon="4.40658">
        <ele>1.2</ele>
        <time>2019-10-25T10:46:20.001Z</time>
      </trkpt>
      <trkpt lat="43.45092" lon="4.40479">
        <ele>1.012</ele>
        <time>2019-10-25T10:46:50.001Z</time>
      </trkpt>
      <trkpt lat="43.45162" lon="4.40326">
        <ele>2.19</ele>
        <time>2019-10-25T10:47:20.001Z</time>
      </trkpt>
      <trkpt lat="43.45248" lon="4.40171">
        <ele>2.62</ele>
        <time>2019-10-25T10:47:53.001Z</time>
      </trkpt>
      <trkpt lat="43.45338" lon="4.40049">
        <ele>0.145</ele>
        <time>2019-10-25T10:48:23.001Z</time>
      </trkpt>
      <trkpt lat="43.45448" lon="4.39963">
        <ele>0.292</ele>
        <time>2019-10-25T10:48:53.001Z</time>
      </trkpt>
      <trkpt lat="43.4555" lon="4.39892">
        <ele>0.165</ele>
        <time>2019-10-25T10:49:23.001Z</time>
      </trkpt>
      <trkpt lat="43.45643" lon="4.39833">
        <ele>3.106</ele>
        <time>2019-10-25T10:49:53.001Z</time>
      </trkpt>
      <trkpt lat="43.45739" lon="4.39772">
        <ele>4.959</ele>
        <time>2019-10-25T10:50:23.001Z</time>
      </trkpt>
      <trkpt lat="43.45855" lon="4.39729">
        <ele>3.41</ele>
        <time>2019-10-25T10:50:56.001Z</time>
      </trkpt>
      <trkpt lat="43.45968" lon="4.39712">
        <ele>1.339</ele>
        <time>2019-10-25T10:51:26.001Z</time>
      </trkpt>
      <trkpt lat="43.46095" lon="4.3968">
        <ele>1</ele>
        <time>2019-10-25T10:51:56.001Z</time>
      </trkpt>
      <trkpt lat="43.46227" lon="4.3965">
        <ele>1</ele>
        <time>2019-10-25T10:52:26.001Z</time>
      </trkpt>
      <trkpt lat="43.46356" lon="4.39619">
        <ele>1.522</ele>
        <time>2019-10-25T10:52:56.001Z</time>
      </trkpt>
      <trkpt lat="43.4648" lon="4.3959">
        <ele>2.34</ele>
        <time>2019-10-25T10:53:26.001Z</time>
      </trkpt>
      <trkpt lat="43.46617" lon="4.39557">
        <ele>1.822</ele>
        <time>2019-10-25T10:53:59.001Z</time>
      </trkpt>
      <trkpt lat="43.46741" lon="4.3953">
        <ele>1.596</ele>
        <time>2019-10-25T10:54:29.001Z</time>
      </trkpt>
      <trkpt lat="43.46865" lon="4.39519">
        <ele>2.167</ele>
        <time>2019-10-25T10:54:59.001Z</time>
      </trkpt>
      <trkpt lat="43.4699" lon="4.39519">
        <ele>1.801</ele>
        <time>2019-10-25T10:55:29.001Z</time>
      </trkpt>
      <trkpt lat="43.4711" lon="4.39487">
        <ele>2.428</ele>
        <time>2019-10-25T10:55:59.001Z</time>
      </trkpt>
      <trkpt lat="43.47252" lon="4.39423">
        <ele>3.883</ele>
        <time>2019-10-25T10:56:32.001Z</time>
      </trkpt>
      <trkpt lat="43.47375" lon="4.39367">
        <ele>6.892</ele>
        <time>2019-10-25T10:57:02Z</time>
      </trkpt>
      <trkpt lat="43.47504" lon="4.39305">
        <ele>2.69</ele>
        <time>2019-10-25T10:57:32.001Z</time>
      </trkpt>
      <trkpt lat="43.47628" lon="4.3921">
        <ele>3.802</ele>
        <time>2019-10-25T10:58:02Z</time>
      </trkpt>
      <trkpt lat="43.47742" lon="4.39118">
        <ele>4.786</ele>
        <time>2019-10-25T10:58:32.001Z</time>
      </trkpt>
      <trkpt lat="43.47851" lon="4.39029">
        <ele>4.005</ele>
        <time>2019-10-25T10:59:02Z</time>
      </trkpt>
      <trkpt lat="43.47985" lon="4.38956">
        <ele>3.35</ele>
        <time>2019-10-25T10:59:35.001Z</time>
      </trkpt>
      <trkpt lat="43.48113" lon="4.38922">
        <ele>3.667</ele>
        <time>2019-10-25T11:00:05.001Z</time>
      </trkpt>
      <trkpt lat="43.48236" lon="4.38886">
        <ele>2.953</ele>
        <time>2019-10-25T11:00:35.001Z</time>
      </trkpt>
      <trkpt lat="43.48346" lon="4.38816">
        <ele>2.599</ele>
        <time>2019-10-25T11:01:05.001Z</time>
      </trkpt>
      <trkpt lat="43.48439" lon="4.3868">
        <ele>1.677</ele>
        <time>2019-10-25T11:01:35.001Z</time>
      </trkpt>
      <trkpt lat="43.4855" lon="4.38622">
        <ele>3.734</ele>
        <time>2019-10-25T11:02:05.001Z</time>
      </trkpt>
      <trkpt lat="43.48666" lon="4.38616">
        <ele>2.192</ele>
        <time>2019-10-25T11:02:38.001Z</time>
      </trkpt>
      <trkpt lat="43.48732" lon="4.38633">
        <ele>2.523</ele>
        <time>2019-10-25T11:11:08.001Z</time>
      </trkpt>
      <trkpt lat="43.48822" lon="4.38691">
        <ele>1</ele>
        <time>2019-10-25T11:11:38.001Z</time>
      </trkpt>
      <trkpt lat="43.48912" lon="4.38777">
        <ele>1.475</ele>
        <time>2019-10-25T11:12:08.001Z</time>
      </trkpt>
      <trkpt lat="43.49011" lon="4.38837">
        <ele>1.1</ele>
        <time>2019-10-25T11:12:38.001Z</time>
      </trkpt>
      <trkpt lat="43.49132" lon="4.38833">
        <ele>0.555</ele>
        <time>2019-10-25T11:13:08.001Z</time>
      </trkpt>
      <trkpt lat="43.49262" lon="4.3879">
        <ele>1.664</ele>
        <time>2019-10-25T11:13:41.001Z</time>
      </trkpt>
      <trkpt lat="43.49374" lon="4.38751">
        <ele>3.263</ele>
        <time>2019-10-25T11:14:11.001Z</time>
      </trkpt>
      <trkpt lat="43.49482" lon="4.38675">
        <ele>2.11</ele>
        <time>2019-10-25T11:14:41.001Z</time>
      </trkpt>
      <trkpt lat="43.49583" lon="4.3857">
        <ele>0.748</ele>
        <time>2019-10-25T11:15:11.001Z</time>
      </trkpt>
      <trkpt lat="43.49676" lon="4.38439">
        <ele>2</ele>
        <time>2019-10-25T11:15:41.001Z</time>
      </trkpt>
      <trkpt lat="43.49781" lon="4.38315">
        <ele>1.3</ele>
        <time>2019-10-25T11:16:11.001Z</time>
      </trkpt>
      <trkpt lat="43.49886" lon="4.38201">
        <ele>1</ele>
        <time>2019-10-25T11:16:44.001Z</time>
      </trkpt>
      <trkpt lat="43.49989" lon="4.38102">
        <ele>1</ele>
        <time>2019-10-25T11:17:14.001Z</time>
      </trkpt>
      <trkpt lat="43.50104" lon="4.38032">
        <ele>1</ele>
        <time>2019-10-25T11:17:44.001Z</time>
      </trkpt>
      <trkpt lat="43.5022" lon="4.37958">
        <ele>0.44</ele>
        <time>2019-10-25T11:18:14.001Z</time>
      </trkpt>
      <trkpt lat="43.5034" lon="4.37885">
        <ele>1</ele>
        <time>2019-10-25T11:18:44.001Z</time>
      </trkpt>
      <trkpt lat="43.50463" lon="4.37812">
        <ele>2.256</ele>
        <time>2019-10-25T11:19:14.001Z</time>
      </trkpt>
      <trkpt lat="43.50608" lon="4.37778">
        <ele>0.739</ele>
        <time>2019-10-25T11:19:47.001Z</time>
      </trkpt>
      <trkpt lat="43.50731" lon="4.37749">
        <ele>2.305</ele>
        <time>2019-10-25T11:20:17.001Z</time>
      </trkpt>
      <trkpt lat="43.50849" lon="4.37699">
        <ele>1.3</ele>
        <time>2019-10-25T11:20:47.001Z</time>
      </trkpt>
      <trkpt lat="43.50963" lon="4.37613">
        <ele>2</ele>
        <time>2019-10-25T11:21:17.001Z</time>
      </trkpt>
      <trkpt lat="43.51069" lon="4.37528">
        <ele>1</ele>
        <time>2019-10-25T11:21:47.001Z</time>
      </trkpt>
      <trkpt lat="43.51186" lon="4.37429">
        <ele>1.5</ele>
        <time>2019-10-25T11:22:20.001Z</time>
      </trkpt>
      <trkpt lat="43.51297" lon="4.37351">
        <ele>1.3</ele>
        <time>2019-10-25T11:22:50.001Z</time>
      </trkpt>
      <trkpt lat="43.51418" lon="4.37299">
        <ele>1.4</ele>
        <time>2019-10-25T11:23:20.001Z</time>
      </trkpt>
      <trkpt lat="43.51543" lon="4.37259">
        <ele>1</ele>
        <time>2019-10-25T11:23:50.001Z</time>
      </trkpt>
      <trkpt lat="43.51671" lon="4.37279">
        <ele>1</ele>
        <time>2019-10-25T11:24:20.001Z</time>
      </trkpt>
      <trkpt lat="43.5179" lon="4.37352">
        <ele>1.2</ele>
        <time>2019-10-25T11:24:50.001Z</time>
      </trkpt>
      <trkpt lat="43.51908" lon="4.37428">
        <ele>1.2</ele>
        <time>2019-10-25T11:25:23.001Z</time>
      </trkpt>
      <trkpt lat="43.52033" lon="4.37469">
        <ele>1.6</ele>
        <time>2019-10-25T11:25:53.001Z</time>
      </trkpt>
      <trkpt lat="43.52157" lon="4.37499">
        <ele>1.8</ele>
        <time>2019-10-25T11:26:23.001Z</time>
      </trkpt>
      <trkpt lat="43.52283" lon="4.37529">
        <ele>2.3</ele>
        <time>2019-10-25T11:26:53.001Z</time>
      </trkpt>
      <trkpt lat="43.52399" lon="4.37561">
        <ele>2.1</ele>
        <time>2019-10-25T11:27:23.001Z</time>
      </trkpt>
      <trkpt lat="43.52518" lon="4.37592">
        <ele>1</ele>
        <time>2019-10-25T11:27:53.001Z</time>
      </trkpt>
      <trkpt lat="43.52665" lon="4.37628">
        <ele>2.39</ele>
        <time>2019-10-25T11:28:26.001Z</time>
      </trkpt>
      <trkpt lat="43.52784" lon="4.37644">
        <ele>0.191</ele>
        <time>2019-10-25T11:28:56.001Z</time>
      </trkpt>
      <trkpt lat="43.52904" lon="4.37618">
        <ele>1.3</ele>
        <time>2019-10-25T11:29:26.001Z</time>
      </trkpt>
      <trkpt lat="43.53023" lon="4.3757">
        <ele>1</ele>
        <time>2019-10-25T11:29:56.001Z</time>
      </trkpt>
      <trkpt lat="43.53148" lon="4.37523">
        <ele>1</ele>
        <time>2019-10-25T11:30:26.001Z</time>
      </trkpt>
      <trkpt lat="43.53267" lon="4.37477">
        <ele>1.8</ele>
        <time>2019-10-25T11:30:56.001Z</time>
      </trkpt>
      <trkpt lat="43.53398" lon="4.37423">
        <ele>2.748</ele>
        <time>2019-10-25T11:31:29.001Z</time>
      </trkpt>
      <trkpt lat="43.53514" lon="4.3737">
        <ele>2.182</ele>
        <time>2019-10-25T11:31:59.001Z</time>
      </trkpt>
      <trkpt lat="43.53619" lon="4.37302">
        <ele>1.545</ele>
        <time>2019-10-25T11:32:29.001Z</time>
      </trkpt>
      <trkpt lat="43.53718" lon="4.37216">
        <ele>0.756</ele>
        <time>2019-10-25T11:32:59.001Z</time>
      </trkpt>
      <trkpt lat="43.53808" lon="4.37109">
        <ele>1</ele>
        <time>2019-10-25T11:33:29.001Z</time>
      </trkpt>
      <trkpt lat="43.53893" lon="4.3698">
        <ele>0.016</ele>
        <time>2019-10-25T11:33:59.001Z</time>
      </trkpt>
      <trkpt lat="43.53979" lon="4.3682">
        <ele>1</ele>
        <time>2019-10-25T11:34:32.001Z</time>
      </trkpt>
      <trkpt lat="43.54053" lon="4.36684">
        <ele>1</ele>
        <time>2019-10-25T11:35:02Z</time>
      </trkpt>
      <trkpt lat="43.5414" lon="4.36558">
        <ele>1.3</ele>
        <time>2019-10-25T11:35:32.001Z</time>
      </trkpt>
      <trkpt lat="43.54242" lon="4.36455">
        <ele>0.027</ele>
        <time>2019-10-25T11:36:02Z</time>
      </trkpt>
      <trkpt lat="43.54358" lon="4.36375">
        <ele>1.141</ele>
        <time>2019-10-25T11:36:32.001Z</time>
      </trkpt>
      <trkpt lat="43.54475" lon="4.36299">
        <ele>0.619</ele>
        <time>2019-10-25T11:37:02Z</time>
      </trkpt>
      <trkpt lat="43.54524" lon="4.36184">
        <ele>0.021</ele>
        <time>2019-10-25T11:37:35.001Z</time>
      </trkpt>
      <trkpt lat="43.54498" lon="4.35999">
        <ele>1</ele>
        <time>2019-10-25T11:38:05.001Z</time>
      </trkpt>
      <trkpt lat="43.54475" lon="4.35826">
        <ele>1</ele>
        <time>2019-10-25T11:38:35.001Z</time>
      </trkpt>
      <trkpt lat="43.5445" lon="4.35647">
        <ele>1</ele>
        <time>2019-10-25T11:39:05.001Z</time>
      </trkpt>
      <trkpt lat="43.54433" lon="4.35465">
        <ele>2</ele>
        <time>2019-10-25T11:39:35.001Z</time>
      </trkpt>
      <trkpt lat="43.54476" lon="4.35281">
        <ele>1.3</ele>
        <time>2019-10-25T11:40:08.001Z</time>
      </trkpt>
      <trkpt lat="43.54535" lon="4.3518">
        <ele>2.4</ele>
        <time>2019-10-25T11:40:38.001Z</time>
      </trkpt>
      <trkpt lat="43.54586" lon="4.35099">
        <ele>3.991</ele>
        <time>2019-10-25T11:41:08.001Z</time>
      </trkpt>
      <trkpt lat="43.54643" lon="4.35008">
        <ele>11.458</ele>
        <time>2019-10-25T11:41:38.001Z</time>
      </trkpt>
      <trkpt lat="43.54738" lon="4.34856">
        <ele>10.343</ele>
        <time>2019-10-25T11:42:08.001Z</time>
      </trkpt>
      <trkpt lat="43.5481" lon="4.34595">
        <ele>3.512</ele>
        <time>2019-10-25T11:42:38.001Z</time>
      </trkpt>
      <trkpt lat="43.54861" lon="4.34375">
        <ele>2.808</ele>
        <time>2019-10-25T11:43:11.001Z</time>
      </trkpt>
      <trkpt lat="43.54907" lon="4.34199">
        <ele>1.3</ele>
        <time>2019-10-25T11:43:41.001Z</time>
      </trkpt>
      <trkpt lat="43.54972" lon="4.34023">
        <ele>1</ele>
        <time>2019-10-25T11:44:11.001Z</time>
      </trkpt>
      <trkpt lat="43.55041" lon="4.33842">
        <ele>3</ele>
        <time>2019-10-25T11:44:41.001Z</time>
      </trkpt>
      <trkpt lat="43.55104" lon="4.33671">
        <ele>2.444</ele>
        <time>2019-10-25T11:45:11.001Z</time>
      </trkpt>
      <trkpt lat="43.55167" lon="4.33498">
        <ele>0.671</ele>
        <time>2019-10-25T11:45:41.001Z</time>
      </trkpt>
      <trkpt lat="43.55227" lon="4.33306">
        <ele>0.419</ele>
        <time>2019-10-25T11:46:14.001Z</time>
      </trkpt>
      <trkpt lat="43.55281" lon="4.33125">
        <ele>1.074</ele>
        <time>2019-10-25T11:46:44.001Z</time>
      </trkpt>
      <trkpt lat="43.55337" lon="4.32937">
        <ele>0.025</ele>
        <time>2019-10-25T11:47:14.001Z</time>
      </trkpt>
      <trkpt lat="43.55391" lon="4.32756">
        <ele>1</ele>
        <time>2019-10-25T11:47:44.001Z</time>
      </trkpt>
      <trkpt lat="43.55448" lon="4.32566">
        <ele>1</ele>
        <time>2019-10-25T11:48:14.001Z</time>
      </trkpt>
      <trkpt lat="43.55507" lon="4.32375">
        <ele>0.151</ele>
        <time>2019-10-25T11:48:44.001Z</time>
      </trkpt>
      <trkpt lat="43.55588" lon="4.32176">
        <ele>1.798</ele>
        <time>2019-10-25T11:49:17.001Z</time>
      </trkpt>
      <trkpt lat="43.55699" lon="4.32051">
        <ele>1.055</ele>
        <time>2019-10-25T11:49:47.001Z</time>
      </trkpt>
      <trkpt lat="43.55804" lon="4.31939">
        <ele>0.412</ele>
        <time>2019-10-25T11:50:17.001Z</time>
      </trkpt>
      <trkpt lat="43.55903" lon="4.31836">
        <ele>1</ele>
        <time>2019-10-25T11:50:47.001Z</time>
      </trkpt>
      <trkpt lat="43.56022" lon="4.31745">
        <ele>1.4</ele>
        <time>2019-10-25T11:51:17.001Z</time>
      </trkpt>
      <trkpt lat="43.56141" lon="4.31669">
        <ele>2.1</ele>
        <time>2019-10-25T11:51:47.001Z</time>
      </trkpt>
      <trkpt lat="43.56275" lon="4.31585">
        <ele>1</ele>
        <time>2019-10-25T11:52:20.001Z</time>
      </trkpt>
      <trkpt lat="43.56382" lon="4.31517">
        <ele>1</ele>
        <time>2019-10-25T11:52:50.001Z</time>
      </trkpt>
      <trkpt lat="43.56481" lon="4.31443">
        <ele>0.032</ele>
        <time>2019-10-25T11:53:20.001Z</time>
      </trkpt>
      <trkpt lat="43.5658" lon="4.31347">
        <ele>1.2</ele>
        <time>2019-10-25T11:53:50.001Z</time>
      </trkpt>
      <trkpt lat="43.5668" lon="4.31249">
        <ele>0.438</ele>
        <time>2019-10-25T11:54:20.001Z</time>
      </trkpt>
      <trkpt lat="43.56776" lon="4.31156">
        <ele>1</ele>
        <time>2019-10-25T11:54:50.001Z</time>
      </trkpt>
      <trkpt lat="43.56894" lon="4.31042">
        <ele>1</ele>
        <time>2019-10-25T11:55:23.001Z</time>
      </trkpt>
      <trkpt lat="43.56998" lon="4.30938">
        <ele>1</ele>
        <time>2019-10-25T11:55:53.001Z</time>
      </trkpt>
      <trkpt lat="43.57105" lon="4.30848">
        <ele>1</ele>
        <time>2019-10-25T11:56:23.001Z</time>
      </trkpt>
      <trkpt lat="43.57212" lon="4.30818">
        <ele>0.496</ele>
        <time>2019-10-25T11:56:53.001Z</time>
      </trkpt>
      <trkpt lat="43.57227" lon="4.30903">
        <ele>2.001</ele>
        <time>2019-10-25T12:00:11.001Z</time>
      </trkpt>
      <trkpt lat="43.57185" lon="4.31065">
        <ele>0.424</ele>
        <time>2019-10-25T12:00:44.001Z</time>
      </trkpt>
      <trkpt lat="43.57137" lon="4.31241">
        <ele>1</ele>
        <time>2019-10-25T12:01:14.001Z</time>
      </trkpt>
      <trkpt lat="43.57092" lon="4.31414">
        <ele>0.054</ele>
        <time>2019-10-25T12:01:44.001Z</time>
      </trkpt>
      <trkpt lat="43.57046" lon="4.31586">
        <ele>1</ele>
        <time>2019-10-25T12:02:14.001Z</time>
      </trkpt>
      <trkpt lat="43.57002" lon="4.31751">
        <ele>1.179</ele>
        <time>2019-10-25T12:02:44.001Z</time>
      </trkpt>
      <trkpt lat="43.56959" lon="4.31915">
        <ele>1.46</ele>
        <time>2019-10-25T12:03:14.001Z</time>
      </trkpt>
      <trkpt lat="43.56907" lon="4.32101">
        <ele>0.671</ele>
        <time>2019-10-25T12:03:47.001Z</time>
      </trkpt>
      <trkpt lat="43.56861" lon="4.32269">
        <ele>1.695</ele>
        <time>2019-10-25T12:04:17.001Z</time>
      </trkpt>
      <trkpt lat="43.56816" lon="4.3244">
        <ele>0.05</ele>
        <time>2019-10-25T12:04:47.001Z</time>
      </trkpt>
      <trkpt lat="43.56765" lon="4.32625">
        <ele>1.159</ele>
        <time>2019-10-25T12:05:17.001Z</time>
      </trkpt>
      <trkpt lat="43.56791" lon="4.32762">
        <ele>0.734</ele>
        <time>2019-10-25T12:05:47.001Z</time>
      </trkpt>
      <trkpt lat="43.56906" lon="4.32828">
        <ele>1.9</ele>
        <time>2019-10-25T12:06:17.001Z</time>
      </trkpt>
      <trkpt lat="43.5703" lon="4.32895">
        <ele>1</ele>
        <time>2019-10-25T12:06:50.001Z</time>
      </trkpt>
      <trkpt lat="43.57144" lon="4.3296">
        <ele>1</ele>
        <time>2019-10-25T12:07:20.001Z</time>
      </trkpt>
      <trkpt lat="43.57256" lon="4.33021">
        <ele>2.4</ele>
        <time>2019-10-25T12:07:50.001Z</time>
      </trkpt>
      <trkpt lat="43.57368" lon="4.33084">
        <ele>1.7</ele>
        <time>2019-10-25T12:08:20.001Z</time>
      </trkpt>
      <trkpt lat="43.57483" lon="4.33149">
        <ele>3.5</ele>
        <time>2019-10-25T12:08:50.001Z</time>
      </trkpt>
      <trkpt lat="43.576" lon="4.33214">
        <ele>0.04</ele>
        <time>2019-10-25T12:09:20.001Z</time>
      </trkpt>
      <trkpt lat="43.57723" lon="4.33285">
        <ele>0.618</ele>
        <time>2019-10-25T12:09:53.001Z</time>
      </trkpt>
      <trkpt lat="43.57844" lon="4.33351">
        <ele>1.7</ele>
        <time>2019-10-25T12:10:23.001Z</time>
      </trkpt>
      <trkpt lat="43.57957" lon="4.33413">
        <ele>1.6</ele>
        <time>2019-10-25T12:10:53.001Z</time>
      </trkpt>
      <trkpt lat="43.58079" lon="4.33481">
        <ele>2</ele>
        <time>2019-10-25T12:11:23.001Z</time>
      </trkpt>
      <trkpt lat="43.58198" lon="4.33547">
        <ele>0.552</ele>
        <time>2019-10-25T12:11:53.001Z</time>
      </trkpt>
      <trkpt lat="43.58312" lon="4.33617">
        <ele>1.2</ele>
        <time>2019-10-25T12:12:23.001Z</time>
      </trkpt>
      <trkpt lat="43.58349" lon="4.33821">
        <ele>0.694</ele>
        <time>2019-10-25T12:12:56.001Z</time>
      </trkpt>
      <trkpt lat="43.58388" lon="4.34001">
        <ele>0.967</ele>
        <time>2019-10-25T12:13:26.001Z</time>
      </trkpt>
      <trkpt lat="43.58379" lon="4.34183">
        <ele>1.467</ele>
        <time>2019-10-25T12:13:56.001Z</time>
      </trkpt>
      <trkpt lat="43.58371" lon="4.34361">
        <ele>1.772</ele>
        <time>2019-10-25T12:14:26.001Z</time>
      </trkpt>
      <trkpt lat="43.58361" lon="4.34537">
        <ele>1.566</ele>
        <time>2019-10-25T12:14:56.001Z</time>
      </trkpt>
      <trkpt lat="43.58347" lon="4.34717">
        <ele>0.95</ele>
        <time>2019-10-25T12:15:26.001Z</time>
      </trkpt>
      <trkpt lat="43.58463" lon="4.34706">
        <ele>5.774</ele>
        <time>2019-10-25T12:15:59.001Z</time>
      </trkpt>
      <trkpt lat="43.58591" lon="4.34643">
        <ele>2.434</ele>
        <time>2019-10-25T12:16:29.001Z</time>
      </trkpt>
      <trkpt lat="43.58709" lon="4.34583">
        <ele>2.754</ele>
        <time>2019-10-25T12:16:59.001Z</time>
      </trkpt>
      <trkpt lat="43.58836" lon="4.34519">
        <ele>2.793</ele>
        <time>2019-10-25T12:17:29.001Z</time>
      </trkpt>
      <trkpt lat="43.5896" lon="4.34454">
        <ele>4.477</ele>
        <time>2019-10-25T12:17:59.001Z</time>
      </trkpt>
      <trkpt lat="43.59094" lon="4.34388">
        <ele>1.897</ele>
        <time>2019-10-25T12:18:32.001Z</time>
      </trkpt>
      <trkpt lat="43.59219" lon="4.34326">
        <ele>0.157</ele>
        <time>2019-10-25T12:19:02Z</time>
      </trkpt>
      <trkpt lat="43.59342" lon="4.34264">
        <ele>1.364</ele>
        <time>2019-10-25T12:19:32.001Z</time>
      </trkpt>
      <trkpt lat="43.59458" lon="4.34204">
        <ele>2.082</ele>
        <time>2019-10-25T12:20:02Z</time>
      </trkpt>
      <trkpt lat="43.59578" lon="4.34145">
        <ele>1.97</ele>
        <time>2019-10-25T12:20:32.001Z</time>
      </trkpt>
      <trkpt lat="43.59694" lon="4.34086">
        <ele>1.484</ele>
        <time>2019-10-25T12:21:02Z</time>
      </trkpt>
      <trkpt lat="43.59825" lon="4.34021">
        <ele>0.468</ele>
        <time>2019-10-25T12:21:35.001Z</time>
      </trkpt>
      <trkpt lat="43.59942" lon="4.3396">
        <ele>0.777</ele>
        <time>2019-10-25T12:22:05.001Z</time>
      </trkpt>
      <trkpt lat="43.60054" lon="4.33905">
        <ele>1.146</ele>
        <time>2019-10-25T12:22:35.001Z</time>
      </trkpt>
      <trkpt lat="43.60164" lon="4.33849">
        <ele>1.552</ele>
        <time>2019-10-25T12:23:05.001Z</time>
      </trkpt>
      <trkpt lat="43.6027" lon="4.33796">
        <ele>1.217</ele>
        <time>2019-10-25T12:23:35.001Z</time>
      </trkpt>
      <trkpt lat="43.60376" lon="4.33742">
        <ele>1.007</ele>
        <time>2019-10-25T12:24:05.001Z</time>
      </trkpt>
      <trkpt lat="43.60496" lon="4.3367">
        <ele>1.062</ele>
        <time>2019-10-25T12:24:38.001Z</time>
      </trkpt>
      <trkpt lat="43.60612" lon="4.33608">
        <ele>0.691</ele>
        <time>2019-10-25T12:25:08.001Z</time>
      </trkpt>
      <trkpt lat="43.6071" lon="4.33493">
        <ele>1.489</ele>
        <time>2019-10-25T12:25:38.001Z</time>
      </trkpt>
      <trkpt lat="43.60805" lon="4.33376">
        <ele>4.981</ele>
        <time>2019-10-25T12:26:08.001Z</time>
      </trkpt>
      <trkpt lat="43.60897" lon="4.33267">
        <ele>3.578</ele>
        <time>2019-10-25T12:26:38.001Z</time>
      </trkpt>
      <trkpt lat="43.60989" lon="4.33158">
        <ele>2.842</ele>
        <time>2019-10-25T12:27:08.001Z</time>
      </trkpt>
      <trkpt lat="43.61095" lon="4.33032">
        <ele>2.995</ele>
        <time>2019-10-25T12:27:41.001Z</time>
      </trkpt>
      <trkpt lat="43.61196" lon="4.32914">
        <ele>1</ele>
        <time>2019-10-25T12:28:11.001Z</time>
      </trkpt>
      <trkpt lat="43.61292" lon="4.32798">
        <ele>2.113</ele>
        <time>2019-10-25T12:28:41.001Z</time>
      </trkpt>
      <trkpt lat="43.6139" lon="4.3268">
        <ele>2.836</ele>
        <time>2019-10-25T12:29:11.001Z</time>
      </trkpt>
      <trkpt lat="43.61487" lon="4.32564">
        <ele>1.224</ele>
        <time>2019-10-25T12:29:41.001Z</time>
      </trkpt>
      <trkpt lat="43.61583" lon="4.32451">
        <ele>3.623</ele>
        <time>2019-10-25T12:30:11.001Z</time>
      </trkpt>
      <trkpt lat="43.6169" lon="4.32322">
        <ele>5.523</ele>
        <time>2019-10-25T12:30:44.001Z</time>
      </trkpt>
      <trkpt lat="43.61783" lon="4.32211">
        <ele>5.878</ele>
        <time>2019-10-25T12:31:14.001Z</time>
      </trkpt>
      <trkpt lat="43.6188" lon="4.32097">
        <ele>4.431</ele>
        <time>2019-10-25T12:31:44.001Z</time>
      </trkpt>
      <trkpt lat="43.61976" lon="4.31983">
        <ele>2.317</ele>
        <time>2019-10-25T12:32:14.001Z</time>
      </trkpt>
      <trkpt lat="43.62076" lon="4.31866">
        <ele>2.023</ele>
        <time>2019-10-25T12:32:44.001Z</time>
      </trkpt>
      <trkpt lat="43.62171" lon="4.31751">
        <ele>1.932</ele>
        <time>2019-10-25T12:33:14.001Z</time>
      </trkpt>
      <trkpt lat="43.62278" lon="4.31624">
        <ele>3.906</ele>
        <time>2019-10-25T12:33:47.001Z</time>
      </trkpt>
      <trkpt lat="43.62372" lon="4.31509">
        <ele>5.384</ele>
        <time>2019-10-25T12:34:17.001Z</time>
      </trkpt>
      <trkpt lat="43.6247" lon="4.31391">
        <ele>3.223</ele>
        <time>2019-10-25T12:34:47.001Z</time>
      </trkpt>
      <trkpt lat="43.62565" lon="4.31279">
        <ele>2.237</ele>
        <time>2019-10-25T12:35:17.001Z</time>
      </trkpt>
      <trkpt lat="43.62665" lon="4.31159">
        <ele>3.825</ele>
        <time>2019-10-25T12:35:47.001Z</time>
      </trkpt>
      <trkpt lat="43.6278" lon="4.31026">
        <ele>1.872</ele>
        <time>2019-10-25T12:36:20.001Z</time>
      </trkpt>
      <trkpt lat="43.62879" lon="4.30907">
        <ele>1.194</ele>
        <time>2019-10-25T12:36:50.001Z</time>
      </trkpt>
      <trkpt lat="43.62977" lon="4.30789">
        <ele>1.443</ele>
        <time>2019-10-25T12:37:20.001Z</time>
      </trkpt>
      <trkpt lat="43.63079" lon="4.30667">
        <ele>0.375</ele>
        <time>2019-10-25T12:37:50.001Z</time>
      </trkpt>
      <trkpt lat="43.63175" lon="4.3055">
        <ele>0.862</ele>
        <time>2019-10-25T12:38:20.001Z</time>
      </trkpt>
      <trkpt lat="43.63276" lon="4.3043">
        <ele>1.552</ele>
        <time>2019-10-25T12:38:50.001Z</time>
      </trkpt>
      <trkpt lat="43.6339" lon="4.30293">
        <ele>1.732</ele>
        <time>2019-10-25T12:39:23.001Z</time>
      </trkpt>
      <trkpt lat="43.63494" lon="4.30167">
        <ele>2.55</ele>
        <time>2019-10-25T12:39:53.001Z</time>
      </trkpt>
      <trkpt lat="43.63596" lon="4.30045">
        <ele>4.443</ele>
        <time>2019-10-25T12:40:23.001Z</time>
      </trkpt>
      <trkpt lat="43.63669" lon="4.29915">
        <ele>4.294</ele>
        <time>2019-10-25T12:40:53.001Z</time>
      </trkpt>
      <trkpt lat="43.63733" lon="4.29858">
        <ele>10.373</ele>
        <time>2019-10-25T12:41:23.001Z</time>
      </trkpt>
      <trkpt lat="43.63815" lon="4.29833">
        <ele>13.39</ele>
        <time>2019-10-25T12:41:53.001Z</time>
      </trkpt>
      <trkpt lat="43.64028" lon="4.29796">
        <ele>6.824</ele>
        <time>2019-10-25T12:42:26.001Z</time>
      </trkpt>
      <trkpt lat="43.6415" lon="4.29779">
        <ele>3.302</ele>
        <time>2019-10-25T12:42:56.001Z</time>
      </trkpt>
      <trkpt lat="43.64221" lon="4.29708">
        <ele>9.96</ele>
        <time>2019-10-25T12:43:26.001Z</time>
      </trkpt>
      <trkpt lat="43.64327" lon="4.2967">
        <ele>7.437</ele>
        <time>2019-10-25T12:43:56.001Z</time>
      </trkpt>
      <trkpt lat="43.64438" lon="4.29634">
        <ele>7.818</ele>
        <time>2019-10-25T12:44:26.001Z</time>
      </trkpt>
      <trkpt lat="43.64532" lon="4.29607">
        <ele>6.875</ele>
        <time>2019-10-25T12:44:56.001Z</time>
      </trkpt>
      <trkpt lat="43.64625" lon="4.29578">
        <ele>10.504</ele>
        <time>2019-10-25T12:45:29.001Z</time>
      </trkpt>
      <trkpt lat="43.64713" lon="4.29566">
        <ele>13.757</ele>
        <time>2019-10-25T12:45:59.001Z</time>
      </trkpt>
      <trkpt lat="43.64799" lon="4.2958">
        <ele>16.108</ele>
        <time>2019-10-25T12:46:29.001Z</time>
      </trkpt>
      <trkpt lat="43.64872" lon="4.29638">
        <ele>16.143</ele>
        <time>2019-10-25T12:46:59.001Z</time>
      </trkpt>
      <trkpt lat="43.64955" lon="4.29632">
        <ele>22.829</ele>
        <time>2019-10-25T12:47:29.001Z</time>
      </trkpt>
      <trkpt lat="43.65021" lon="4.29599">
        <ele>23.409</ele>
        <time>2019-10-25T12:47:59.001Z</time>
      </trkpt>
      <trkpt lat="43.64993" lon="4.29432">
        <ele>21.942</ele>
        <time>2019-10-25T12:48:32.001Z</time>
      </trkpt>
      <trkpt lat="43.64964" lon="4.29249">
        <ele>22.144</ele>
        <time>2019-10-25T12:49:02Z</time>
      </trkpt>
      <trkpt lat="43.64956" lon="4.29173">
        <ele>22.258</ele>
        <time>2019-10-25T13:09:14.001Z</time>
      </trkpt>
      <trkpt lat="43.64946" lon="4.29021">
        <ele>19.878</ele>
        <time>2019-10-25T13:09:44.001Z</time>
      </trkpt>
      <trkpt lat="43.6493" lon="4.28839">
        <ele>18.175</ele>
        <time>2019-10-25T13:10:14.001Z</time>
      </trkpt>
      <trkpt lat="43.64921" lon="4.28668">
        <ele>18.934</ele>
        <time>2019-10-25T13:10:44.001Z</time>
      </trkpt>
      <trkpt lat="43.64923" lon="4.28485">
        <ele>21.611</ele>
        <time>2019-10-25T13:11:17.001Z</time>
      </trkpt>
      <trkpt lat="43.64946" lon="4.28307">
        <ele>23.738</ele>
        <time>2019-10-25T13:11:47.001Z</time>
      </trkpt>
      <trkpt lat="43.64987" lon="4.28133">
        <ele>26.591</ele>
        <time>2019-10-25T13:12:17.001Z</time>
      </trkpt>
      <trkpt lat="43.65047" lon="4.2797">
        <ele>27.572</ele>
        <time>2019-10-25T13:12:47.001Z</time>
      </trkpt>
      <trkpt lat="43.65121" lon="4.27812">
        <ele>26.989</ele>
        <time>2019-10-25T13:13:17.001Z</time>
      </trkpt>
      <trkpt lat="43.65216" lon="4.27623">
        <ele>25.799</ele>
        <time>2019-10-25T13:13:50.001Z</time>
      </trkpt>
      <trkpt lat="43.65303" lon="4.27435">
        <ele>20.086</ele>
        <time>2019-10-25T13:14:20.001Z</time>
      </trkpt>
      <trkpt lat="43.65394" lon="4.27256">
        <ele>18.195</ele>
        <time>2019-10-25T13:14:50.001Z</time>
      </trkpt>
      <trkpt lat="43.65497" lon="4.27051">
        <ele>16.386</ele>
        <time>2019-10-25T13:15:20.001Z</time>
      </trkpt>
      <trkpt lat="43.65583" lon="4.26869">
        <ele>16.237</ele>
        <time>2019-10-25T13:15:50.001Z</time>
      </trkpt>
      <trkpt lat="43.65658" lon="4.26706">
        <ele>18.123</ele>
        <time>2019-10-25T13:16:20.001Z</time>
      </trkpt>
      <trkpt lat="43.65754" lon="4.26512">
        <ele>20.151</ele>
        <time>2019-10-25T13:16:53.001Z</time>
      </trkpt>
      <trkpt lat="43.65844" lon="4.26329">
        <ele>17.046</ele>
        <time>2019-10-25T13:17:23.001Z</time>
      </trkpt>
      <trkpt lat="43.65961" lon="4.26184">
        <ele>14.309</ele>
        <time>2019-10-25T13:17:53.001Z</time>
      </trkpt>
      <trkpt lat="43.66097" lon="4.26094">
        <ele>11.134</ele>
        <time>2019-10-25T13:18:23.001Z</time>
      </trkpt>
      <trkpt lat="43.66234" lon="4.26059">
        <ele>6.417</ele>
        <time>2019-10-25T13:18:53.001Z</time>
      </trkpt>
      <trkpt lat="43.66373" lon="4.26077">
        <ele>9.117</ele>
        <time>2019-10-25T13:19:23.001Z</time>
      </trkpt>
      <trkpt lat="43.66541" lon="4.26098">
        <ele>13.722</ele>
        <time>2019-10-25T13:19:56.001Z</time>
      </trkpt>
      <trkpt lat="43.6668" lon="4.26136">
        <ele>13.304</ele>
        <time>2019-10-25T13:20:26.001Z</time>
      </trkpt>
      <trkpt lat="43.66811" lon="4.26147">
        <ele>9.438</ele>
        <time>2019-10-25T13:20:56.001Z</time>
      </trkpt>
      <trkpt lat="43.66819" lon="4.25972">
        <ele>1.995</ele>
        <time>2019-10-25T13:21:26.001Z</time>
      </trkpt>
      <trkpt lat="43.66974" lon="4.25832">
        <ele>3.9</ele>
        <time>2019-10-25T13:21:56.001Z</time>
      </trkpt>
      <trkpt lat="43.67109" lon="4.25709">
        <ele>4.5</ele>
        <time>2019-10-25T13:22:26.001Z</time>
      </trkpt>
      <trkpt lat="43.67103" lon="4.2546">
        <ele>1.328</ele>
        <time>2019-10-25T13:22:59.001Z</time>
      </trkpt>
      <trkpt lat="43.67092" lon="4.25246">
        <ele>1.016</ele>
        <time>2019-10-25T13:23:29.001Z</time>
      </trkpt>
      <trkpt lat="43.67083" lon="4.2503">
        <ele>3.454</ele>
        <time>2019-10-25T13:23:59.001Z</time>
      </trkpt>
      <trkpt lat="43.67047" lon="4.24818">
        <ele>4.4</ele>
        <time>2019-10-25T13:24:29.001Z</time>
      </trkpt>
      <trkpt lat="43.67011" lon="4.24606">
        <ele>5.4</ele>
        <time>2019-10-25T13:24:59.001Z</time>
      </trkpt>
      <trkpt lat="43.66988" lon="4.24433">
        <ele>2.957</ele>
        <time>2019-10-25T13:25:29.001Z</time>
      </trkpt>
      <trkpt lat="43.6712" lon="4.24286">
        <ele>5.341</ele>
        <time>2019-10-25T13:26:02Z</time>
      </trkpt>
      <trkpt lat="43.67171" lon="4.2408">
        <ele>2.251</ele>
        <time>2019-10-25T13:26:32.001Z</time>
      </trkpt>
      <trkpt lat="43.67253" lon="4.239">
        <ele>2.938</ele>
        <time>2019-10-25T13:27:02Z</time>
      </trkpt>
      <trkpt lat="43.67292" lon="4.23704">
        <ele>8.171</ele>
        <time>2019-10-25T13:27:32.001Z</time>
      </trkpt>
      <trkpt lat="43.67355" lon="4.23775">
        <ele>9.137</ele>
        <time>2019-10-25T13:28:02Z</time>
      </trkpt>
      <trkpt lat="43.67457" lon="4.23856">
        <ele>12.56</ele>
        <time>2019-10-25T13:28:32.001Z</time>
      </trkpt>
      <trkpt lat="43.67545" lon="4.23726">
        <ele>16.822</ele>
        <time>2019-10-25T13:29:05.001Z</time>
      </trkpt>
      <trkpt lat="43.67675" lon="4.23649">
        <ele>11.105</ele>
        <time>2019-10-25T13:29:35.001Z</time>
      </trkpt>
      <trkpt lat="43.67799" lon="4.23568">
        <ele>2.723</ele>
        <time>2019-10-25T13:30:05.001Z</time>
      </trkpt>
      <trkpt lat="43.67943" lon="4.23533">
        <ele>2.415</ele>
        <time>2019-10-25T13:30:35.001Z</time>
      </trkpt>
      <trkpt lat="43.68075" lon="4.23497">
        <ele>2.769</ele>
        <time>2019-10-25T13:31:05.001Z</time>
      </trkpt>
      <trkpt lat="43.68213" lon="4.23446">
        <ele>8.797</ele>
        <time>2019-10-25T13:31:38.001Z</time>
      </trkpt>
      <trkpt lat="43.68323" lon="4.23364">
        <ele>5.981</ele>
        <time>2019-10-25T13:32:08.001Z</time>
      </trkpt>
      <trkpt lat="43.68289" lon="4.23167">
        <ele>1.87</ele>
        <time>2019-10-25T13:32:38.001Z</time>
      </trkpt>
      <trkpt lat="43.6837" lon="4.23044">
        <ele>4.8</ele>
        <time>2019-10-25T13:33:08.001Z</time>
      </trkpt>
      <trkpt lat="43.68485" lon="4.22964">
        <ele>4.2</ele>
        <time>2019-10-25T13:33:38.001Z</time>
      </trkpt>
      <trkpt lat="43.68603" lon="4.22928">
        <ele>5.3</ele>
        <time>2019-10-25T13:34:08.001Z</time>
      </trkpt>
      <trkpt lat="43.68716" lon="4.22875">
        <ele>4.7</ele>
        <time>2019-10-25T13:34:41.001Z</time>
      </trkpt>
      <trkpt lat="43.68726" lon="4.22681">
        <ele>5.6</ele>
        <time>2019-10-25T13:35:11.001Z</time>
      </trkpt>
      <trkpt lat="43.68719" lon="4.22478">
        <ele>1.168</ele>
        <time>2019-10-25T13:35:41.001Z</time>
      </trkpt>
      <trkpt lat="43.68738" lon="4.22261">
        <ele>0.594</ele>
        <time>2019-10-25T13:36:11.001Z</time>
      </trkpt>
      <trkpt lat="43.68768" lon="4.22049">
        <ele>0.873</ele>
        <time>2019-10-25T13:36:41.001Z</time>
      </trkpt>
      <trkpt lat="43.68776" lon="4.21838">
        <ele>6.6</ele>
        <time>2019-10-25T13:37:11.001Z</time>
      </trkpt>
      <trkpt lat="43.68795" lon="4.21611">
        <ele>6.8</ele>
        <time>2019-10-25T13:37:44.001Z</time>
      </trkpt>
      <trkpt lat="43.68856" lon="4.21462">
        <ele>2.028</ele>
        <time>2019-10-25T13:38:14.001Z</time>
      </trkpt>
      <trkpt lat="43.68951" lon="4.21319">
        <ele>0.755</ele>
        <time>2019-10-25T13:38:44.001Z</time>
      </trkpt>
      <trkpt lat="43.69023" lon="4.21134">
        <ele>1.678</ele>
        <time>2019-10-25T13:39:14.001Z</time>
      </trkpt>
      <trkpt lat="43.69088" lon="4.20936">
        <ele>2.069</ele>
        <time>2019-10-25T13:39:44.001Z</time>
      </trkpt>
      <trkpt lat="43.69159" lon="4.20746">
        <ele>2.949</ele>
        <time>2019-10-25T13:40:14.001Z</time>
      </trkpt>
      <trkpt lat="43.69249" lon="4.20573">
        <ele>0.878</ele>
        <time>2019-10-25T13:40:47.001Z</time>
      </trkpt>
      <trkpt lat="43.69332" lon="4.20438">
        <ele>1.377</ele>
        <time>2019-10-25T13:41:17.001Z</time>
      </trkpt>
      <trkpt lat="43.6943" lon="4.2033">
        <ele>0.383</ele>
        <time>2019-10-25T13:41:47.001Z</time>
      </trkpt>
      <trkpt lat="43.69362" lon="4.20356">
        <ele>9.8</ele>
        <time>2019-10-25T13:42:17.001Z</time>
      </trkpt>
      <trkpt lat="43.6924" lon="4.20539">
        <ele>1.811</ele>
        <time>2019-10-25T13:42:47.001Z</time>
      </trkpt>
      <trkpt lat="43.69118" lon="4.20644">
        <ele>3.851</ele>
        <time>2019-10-25T13:43:17.001Z</time>
      </trkpt>
      <trkpt lat="43.69196" lon="4.20524">
        <ele>3.211</ele>
        <time>2019-10-25T13:43:50.001Z</time>
      </trkpt>
      <trkpt lat="43.69207" lon="4.20541">
        <ele>1.848</ele>
        <time>2019-10-25T14:03:17.001Z</time>
      </trkpt>
      <trkpt lat="43.69243" lon="4.20469">
        <ele>15.991</ele>
        <time>2019-10-25T14:03:47.001Z</time>
      </trkpt>
      <trkpt lat="43.69312" lon="4.20365">
        <ele>10.085</ele>
        <time>2019-10-25T14:04:17.001Z</time>
      </trkpt>
      <trkpt lat="43.69308" lon="4.20383">
        <ele>9.995</ele>
        <time>2019-10-25T14:05:02Z</time>
      </trkpt>
      <trkpt lat="43.6937" lon="4.20317">
        <ele>12.406</ele>
        <time>2019-10-25T14:22:14.001Z</time>
      </trkpt>
      <trkpt lat="43.69447" lon="4.20329">
        <ele>8.612</ele>
        <time>2019-10-25T14:22:47.001Z</time>
      </trkpt>
      <trkpt lat="43.69596" lon="4.20336">
        <ele>8.297</ele>
        <time>2019-10-25T14:23:17.001Z</time>
      </trkpt>
      <trkpt lat="43.69747" lon="4.20408">
        <ele>12.417</ele>
        <time>2019-10-25T14:23:47.001Z</time>
      </trkpt>
      <trkpt lat="43.69881" lon="4.20475">
        <ele>10.438</ele>
        <time>2019-10-25T14:24:17.001Z</time>
      </trkpt>
      <trkpt lat="43.69979" lon="4.20588">
        <ele>7.41</ele>
        <time>2019-10-25T14:24:47.001Z</time>
      </trkpt>
      <trkpt lat="43.70095" lon="4.20701">
        <ele>11.139</ele>
        <time>2019-10-25T14:25:20.001Z</time>
      </trkpt>
      <trkpt lat="43.70216" lon="4.20789">
        <ele>15.832</ele>
        <time>2019-10-25T14:25:50.001Z</time>
      </trkpt>
      <trkpt lat="43.70345" lon="4.20856">
        <ele>16.167</ele>
        <time>2019-10-25T14:26:20.001Z</time>
      </trkpt>
      <trkpt lat="43.70465" lon="4.20949">
        <ele>11.418</ele>
        <time>2019-10-25T14:26:50.001Z</time>
      </trkpt>
      <trkpt lat="43.70565" lon="4.21058">
        <ele>12.692</ele>
        <time>2019-10-25T14:27:20.001Z</time>
      </trkpt>
      <trkpt lat="43.70669" lon="4.21169">
        <ele>11.607</ele>
        <time>2019-10-25T14:27:50.001Z</time>
      </trkpt>
      <trkpt lat="43.70783" lon="4.21302">
        <ele>10.418</ele>
        <time>2019-10-25T14:28:23.001Z</time>
      </trkpt>
      <trkpt lat="43.70913" lon="4.21384">
        <ele>8.69</ele>
        <time>2019-10-25T14:28:53.001Z</time>
      </trkpt>
      <trkpt lat="43.7103" lon="4.21395">
        <ele>11.427</ele>
        <time>2019-10-25T14:29:23.001Z</time>
      </trkpt>
      <trkpt lat="43.71091" lon="4.21245">
        <ele>16.563</ele>
        <time>2019-10-25T14:29:53.001Z</time>
      </trkpt>
      <trkpt lat="43.7116" lon="4.21064">
        <ele>12.491</ele>
        <time>2019-10-25T14:30:23.001Z</time>
      </trkpt>
      <trkpt lat="43.71229" lon="4.20891">
        <ele>12.016</ele>
        <time>2019-10-25T14:30:53.001Z</time>
      </trkpt>
      <trkpt lat="43.71292" lon="4.20691">
        <ele>10.587</ele>
        <time>2019-10-25T14:31:26.001Z</time>
      </trkpt>
      <trkpt lat="43.71341" lon="4.20503">
        <ele>9.178</ele>
        <time>2019-10-25T14:31:56.001Z</time>
      </trkpt>
      <trkpt lat="43.71406" lon="4.20325">
        <ele>8.12</ele>
        <time>2019-10-25T14:32:26.001Z</time>
      </trkpt>
      <trkpt lat="43.71505" lon="4.2019">
        <ele>9.809</ele>
        <time>2019-10-25T14:32:56.001Z</time>
      </trkpt>
      <trkpt lat="43.71585" lon="4.20145">
        <ele>13.414</ele>
        <time>2019-10-25T14:33:26.001Z</time>
      </trkpt>
      <trkpt lat="43.71712" lon="4.20261">
        <ele>17.204</ele>
        <time>2019-10-25T14:33:56.001Z</time>
      </trkpt>
      <trkpt lat="43.71857" lon="4.20409">
        <ele>13.206</ele>
        <time>2019-10-25T14:34:29.001Z</time>
      </trkpt>
      <trkpt lat="43.7195" lon="4.20571">
        <ele>9.75</ele>
        <time>2019-10-25T14:34:59.001Z</time>
      </trkpt>
      <trkpt lat="43.72051" lon="4.20496">
        <ele>10.106</ele>
        <time>2019-10-25T14:35:29.001Z</time>
      </trkpt>
      <trkpt lat="43.72165" lon="4.2036">
        <ele>15.014</ele>
        <time>2019-10-25T14:35:59.001Z</time>
      </trkpt>
      <trkpt lat="43.72231" lon="4.20205">
        <ele>16.843</ele>
        <time>2019-10-25T14:36:29.001Z</time>
      </trkpt>
      <trkpt lat="43.72304" lon="4.19983">
        <ele>16.722</ele>
        <time>2019-10-25T14:36:59.001Z</time>
      </trkpt>
      <trkpt lat="43.7239" lon="4.19796">
        <ele>15.503</ele>
        <time>2019-10-25T14:37:32.001Z</time>
      </trkpt>
      <trkpt lat="43.72463" lon="4.19638">
        <ele>18.623</ele>
        <time>2019-10-25T14:38:02Z</time>
      </trkpt>
      <trkpt lat="43.72544" lon="4.19484">
        <ele>19.717</ele>
        <time>2019-10-25T14:38:32.001Z</time>
      </trkpt>
      <trkpt lat="43.72616" lon="4.19348">
        <ele>18.025</ele>
        <time>2019-10-25T14:39:02Z</time>
      </trkpt>
      <trkpt lat="43.7271" lon="4.19209">
        <ele>18.388</ele>
        <time>2019-10-25T14:39:32.001Z</time>
      </trkpt>
      <trkpt lat="43.72806" lon="4.19063">
        <ele>24.87</ele>
        <time>2019-10-25T14:40:02Z</time>
      </trkpt>
      <trkpt lat="43.72893" lon="4.1891">
        <ele>23.839</ele>
        <time>2019-10-25T14:40:35.001Z</time>
      </trkpt>
      <trkpt lat="43.73018" lon="4.18836">
        <ele>28.296</ele>
        <time>2019-10-25T14:41:05.001Z</time>
      </trkpt>
      <trkpt lat="43.73144" lon="4.1879">
        <ele>26.497</ele>
        <time>2019-10-25T14:41:35.001Z</time>
      </trkpt>
      <trkpt lat="43.73258" lon="4.18749">
        <ele>27.719</ele>
        <time>2019-10-25T14:42:05.001Z</time>
      </trkpt>
      <trkpt lat="43.733" lon="4.18621">
        <ele>35.986</ele>
        <time>2019-10-25T14:42:35.001Z</time>
      </trkpt>
      <trkpt lat="43.73323" lon="4.18467">
        <ele>46.425</ele>
        <time>2019-10-25T14:43:08.001Z</time>
      </trkpt>
      <trkpt lat="43.73369" lon="4.18331">
        <ele>41.814</ele>
        <time>2019-10-25T14:43:38.001Z</time>
      </trkpt>
      <trkpt lat="43.73445" lon="4.18247">
        <ele>44.399</ele>
        <time>2019-10-25T14:44:08.001Z</time>
      </trkpt>
      <trkpt lat="43.73533" lon="4.18163">
        <ele>46.132</ele>
        <time>2019-10-25T14:44:38.001Z</time>
      </trkpt>
      <trkpt lat="43.73617" lon="4.18085">
        <ele>49.677</ele>
        <time>2019-10-25T14:45:08.001Z</time>
      </trkpt>
      <trkpt lat="43.73697" lon="4.18006">
        <ele>50.659</ele>
        <time>2019-10-25T14:45:38.001Z</time>
      </trkpt>
      <trkpt lat="43.73775" lon="4.17895">
        <ele>60.591</ele>
        <time>2019-10-25T14:46:11.001Z</time>
      </trkpt>
      <trkpt lat="43.73835" lon="4.17786">
        <ele>64.295</ele>
        <time>2019-10-25T14:46:41.001Z</time>
      </trkpt>
      <trkpt lat="43.73886" lon="4.17648">
        <ele>58.529</ele>
        <time>2019-10-25T14:47:11.001Z</time>
      </trkpt>
      <trkpt lat="43.7391" lon="4.17523">
        <ele>56.061</ele>
        <time>2019-10-25T14:47:41.001Z</time>
      </trkpt>
      <trkpt lat="43.73986" lon="4.17459">
        <ele>52.939</ele>
        <time>2019-10-25T14:48:11.001Z</time>
      </trkpt>
      <trkpt lat="43.74051" lon="4.17526">
        <ele>50.922</ele>
        <time>2019-10-25T14:51:23.001Z</time>
      </trkpt>
      <trkpt lat="43.74127" lon="4.17513">
        <ele>53.363</ele>
        <time>2019-10-25T14:51:56.001Z</time>
      </trkpt>
      <trkpt lat="43.74215" lon="4.17477">
        <ele>50.493</ele>
        <time>2019-10-25T14:52:26.001Z</time>
      </trkpt>
      <trkpt lat="43.74286" lon="4.17385">
        <ele>54.752</ele>
        <time>2019-10-25T14:52:56.001Z</time>
      </trkpt>
      <trkpt lat="43.74376" lon="4.17301">
        <ele>49.266</ele>
        <time>2019-10-25T14:53:26.001Z</time>
      </trkpt>
      <trkpt lat="43.74456" lon="4.17223">
        <ele>51.183</ele>
        <time>2019-10-25T14:53:56.001Z</time>
      </trkpt>
      <trkpt lat="43.74522" lon="4.17156">
        <ele>56.411</ele>
        <time>2019-10-25T14:54:26.001Z</time>
      </trkpt>
      <trkpt lat="43.74572" lon="4.17055">
        <ele>59.31</ele>
        <time>2019-10-25T14:54:59.001Z</time>
      </trkpt>
      <trkpt lat="43.74652" lon="4.17007">
        <ele>64.322</ele>
        <time>2019-10-25T14:55:29.001Z</time>
      </trkpt>
      <trkpt lat="43.74754" lon="4.16995">
        <ele>68.206</ele>
        <time>2019-10-25T14:55:59.001Z</time>
      </trkpt>
      <trkpt lat="43.74854" lon="4.16891">
        <ele>72.044</ele>
        <time>2019-10-25T14:56:29.001Z</time>
      </trkpt>
      <trkpt lat="43.75001" lon="4.16578">
        <ele>58.115</ele>
        <time>2019-10-25T14:56:59.001Z</time>
      </trkpt>
      <trkpt lat="43.75105" lon="4.16543">
        <ele>53.376</ele>
        <time>2019-10-25T14:57:29.001Z</time>
      </trkpt>
      <trkpt lat="43.75199" lon="4.1658">
        <ele>63.419</ele>
        <time>2019-10-25T14:58:02Z</time>
      </trkpt>
      <trkpt lat="43.75273" lon="4.16643">
        <ele>64.134</ele>
        <time>2019-10-25T14:58:32.001Z</time>
      </trkpt>
      <trkpt lat="43.75347" lon="4.16711">
        <ele>68.077</ele>
        <time>2019-10-25T14:59:02Z</time>
      </trkpt>
      <trkpt lat="43.75443" lon="4.1681">
        <ele>66.499</ele>
        <time>2019-10-25T14:59:32.001Z</time>
      </trkpt>
      <trkpt lat="43.75538" lon="4.16864">
        <ele>68.573</ele>
        <time>2019-10-25T15:00:02Z</time>
      </trkpt>
      <trkpt lat="43.75644" lon="4.16829">
        <ele>67.123</ele>
        <time>2019-10-25T15:00:32.001Z</time>
      </trkpt>
      <trkpt lat="43.75727" lon="4.16745">
        <ele>69.623</ele>
        <time>2019-10-25T15:01:05.001Z</time>
      </trkpt>
      <trkpt lat="43.75784" lon="4.16687">
        <ele>72.916</ele>
        <time>2019-10-25T15:01:38.001Z</time>
      </trkpt>
      <trkpt lat="43.75832" lon="4.16615">
        <ele>75.867</ele>
        <time>2019-10-25T15:02:08.001Z</time>
      </trkpt>
      <trkpt lat="43.75908" lon="4.16558">
        <ele>75.09</ele>
        <time>2019-10-25T15:02:38.001Z</time>
      </trkpt>
      <trkpt lat="43.75994" lon="4.16505">
        <ele>78.494</ele>
        <time>2019-10-25T15:03:08.001Z</time>
      </trkpt>
      <trkpt lat="43.76074" lon="4.16488">
        <ele>78.818</ele>
        <time>2019-10-25T15:03:41.001Z</time>
      </trkpt>
      <trkpt lat="43.76149" lon="4.16468">
        <ele>82.914</ele>
        <time>2019-10-25T15:04:11.001Z</time>
      </trkpt>
      <trkpt lat="43.76186" lon="4.164">
        <ele>84.736</ele>
        <time>2019-10-25T15:04:41.001Z</time>
      </trkpt>
      <trkpt lat="43.76195" lon="4.16302">
        <ele>84.454</ele>
        <time>2019-10-25T15:05:11.001Z</time>
      </trkpt>
      <trkpt lat="43.76207" lon="4.16213">
        <ele>84.814</ele>
        <time>2019-10-25T15:05:41.001Z</time>
      </trkpt>
      <trkpt lat="43.76231" lon="4.16113">
        <ele>87.859</ele>
        <time>2019-10-25T15:06:11.001Z</time>
      </trkpt>
      <trkpt lat="43.76271" lon="4.16003">
        <ele>84.476</ele>
        <time>2019-10-25T15:06:44.001Z</time>
      </trkpt>
      <trkpt lat="43.76298" lon="4.15948">
        <ele>84.548</ele>
        <time>2019-10-25T15:07:23.001Z</time>
      </trkpt>
      <trkpt lat="43.76404" lon="4.15982">
        <ele>84.465</ele>
        <time>2019-10-25T15:07:53.001Z</time>
      </trkpt>
      <trkpt lat="43.76686" lon="4.15949">
        <ele>73.252</ele>
        <time>2019-10-25T15:08:23.001Z</time>
      </trkpt>
      <trkpt lat="43.76965" lon="4.15977">
        <ele>60.711</ele>
        <time>2019-10-25T15:08:53.001Z</time>
      </trkpt>
      <trkpt lat="43.7712" lon="4.15972">
        <ele>59.135</ele>
        <time>2019-10-25T15:09:23.001Z</time>
      </trkpt>
      <trkpt lat="43.77251" lon="4.15945">
        <ele>63.839</ele>
        <time>2019-10-25T15:09:56.001Z</time>
      </trkpt>
      <trkpt lat="43.77342" lon="4.15923">
        <ele>70.605</ele>
        <time>2019-10-25T15:10:26.001Z</time>
      </trkpt>
      <trkpt lat="43.77333" lon="4.15774">
        <ele>65.755</ele>
        <time>2019-10-25T15:10:56.001Z</time>
      </trkpt>
      <trkpt lat="43.77327" lon="4.15589">
        <ele>69.885</ele>
        <time>2019-10-25T15:11:26.001Z</time>
      </trkpt>
      <trkpt lat="43.77317" lon="4.15466">
        <ele>66.515</ele>
        <time>2019-10-25T15:12:32.001Z</time>
      </trkpt>
      <trkpt lat="43.77296" lon="4.15259">
        <ele>64.605</ele>
        <time>2019-10-25T15:13:02Z</time>
      </trkpt>
      <trkpt lat="43.77282" lon="4.15029">
        <ele>61.941</ele>
        <time>2019-10-25T15:13:35.001Z</time>
      </trkpt>
      <trkpt lat="43.77282" lon="4.14819">
        <ele>65.524</ele>
        <time>2019-10-25T15:14:05.001Z</time>
      </trkpt>
      <trkpt lat="43.77292" lon="4.14609">
        <ele>64.382</ele>
        <time>2019-10-25T15:14:35.001Z</time>
      </trkpt>
      <trkpt lat="43.77315" lon="4.14403">
        <ele>64.588</ele>
        <time>2019-10-25T15:15:05.001Z</time>
      </trkpt>
      <trkpt lat="43.77342" lon="4.14202">
        <ele>64.019</ele>
        <time>2019-10-25T15:15:35.001Z</time>
      </trkpt>
      <trkpt lat="43.77371" lon="4.13999">
        <ele>63.131</ele>
        <time>2019-10-25T15:16:05.001Z</time>
      </trkpt>
      <trkpt lat="43.774" lon="4.13769">
        <ele>64.47</ele>
        <time>2019-10-25T15:16:38.001Z</time>
      </trkpt>
      <trkpt lat="43.77427" lon="4.13573">
        <ele>64.427</ele>
        <time>2019-10-25T15:17:08.001Z</time>
      </trkpt>
      <trkpt lat="43.775" lon="4.13597">
        <ele>63.943</ele>
        <time>2019-10-25T15:17:38.001Z</time>
      </trkpt>
      <trkpt lat="43.77566" lon="4.13598">
        <ele>62.979</ele>
        <time>2019-10-25T15:18:08.001Z</time>
      </trkpt>
      <trkpt lat="43.77654" lon="4.13543">
        <ele>63.844</ele>
        <time>2019-10-25T15:18:38.001Z</time>
      </trkpt>
      <trkpt lat="43.77724" lon="4.13472">
        <ele>69.266</ele>
        <time>2019-10-25T15:19:08.001Z</time>
      </trkpt>
      <trkpt lat="43.77815" lon="4.13428">
        <ele>68.703</ele>
        <time>2019-10-25T15:19:41.001Z</time>
      </trkpt>
      <trkpt lat="43.77914" lon="4.13406">
        <ele>69.615</ele>
        <time>2019-10-25T15:20:11.001Z</time>
      </trkpt>
      <trkpt lat="43.78004" lon="4.13382">
        <ele>70.428</ele>
        <time>2019-10-25T15:20:41.001Z</time>
      </trkpt>
      <trkpt lat="43.78093" lon="4.13349">
        <ele>69.363</ele>
        <time>2019-10-25T15:21:11.001Z</time>
      </trkpt>
      <trkpt lat="43.78156" lon="4.13307">
        <ele>72.65</ele>
        <time>2019-10-25T15:21:41.001Z</time>
      </trkpt>
      <trkpt lat="43.78179" lon="4.13324">
        <ele>74.076</ele>
        <time>2019-10-25T15:22:14.001Z</time>
      </trkpt>
      <trkpt lat="43.78238" lon="4.13196">
        <ele>76.73</ele>
        <time>2019-10-25T15:22:44.001Z</time>
      </trkpt>
      <trkpt lat="43.78294" lon="4.13089">
        <ele>77.293</ele>
        <time>2019-10-25T15:23:14.001Z</time>
      </trkpt>
      <trkpt lat="43.78351" lon="4.12998">
        <ele>80.025</ele>
        <time>2019-10-25T15:23:44.001Z</time>
      </trkpt>
      <trkpt lat="43.78414" lon="4.12901">
        <ele>82.877</ele>
        <time>2019-10-25T15:24:14.001Z</time>
      </trkpt>
      <trkpt lat="43.78535" lon="4.12715">
        <ele>76.924</ele>
        <time>2019-10-25T15:24:44.001Z</time>
      </trkpt>
      <trkpt lat="43.78665" lon="4.12443">
        <ele>67.933</ele>
        <time>2019-10-25T15:25:17.001Z</time>
      </trkpt>
      <trkpt lat="43.78761" lon="4.12248">
        <ele>67.956</ele>
        <time>2019-10-25T15:25:47.001Z</time>
      </trkpt>
      <trkpt lat="43.78842" lon="4.1219">
        <ele>74.144</ele>
        <time>2019-10-25T15:26:17.001Z</time>
      </trkpt>
      <trkpt lat="43.78881" lon="4.12256">
        <ele>81.116</ele>
        <time>2019-10-25T15:26:47.001Z</time>
      </trkpt>
      <trkpt lat="43.78944" lon="4.12246">
        <ele>88.76</ele>
        <time>2019-10-25T15:27:20.001Z</time>
      </trkpt>
      <trkpt lat="43.79004" lon="4.12277">
        <ele>91.01</ele>
        <time>2019-10-25T15:27:50.001Z</time>
      </trkpt>
      <trkpt lat="43.79068" lon="4.12256">
        <ele>91.38</ele>
        <time>2019-10-25T15:28:23.001Z</time>
      </trkpt>
      <trkpt lat="43.79159" lon="4.12236">
        <ele>86.092</ele>
        <time>2019-10-25T15:28:53.001Z</time>
      </trkpt>
      <trkpt lat="43.79269" lon="4.12242">
        <ele>86.427</ele>
        <time>2019-10-25T15:29:23.001Z</time>
      </trkpt>
      <trkpt lat="43.79359" lon="4.1228">
        <ele>86.142</ele>
        <time>2019-10-25T15:29:53.001Z</time>
      </trkpt>
      <trkpt lat="43.79426" lon="4.12331">
        <ele>91.87</ele>
        <time>2019-10-25T15:30:23.001Z</time>
      </trkpt>
      <trkpt lat="43.7949" lon="4.12373">
        <ele>94.91</ele>
        <time>2019-10-25T15:30:53.001Z</time>
      </trkpt>
      <trkpt lat="43.79584" lon="4.12382">
        <ele>99.041</ele>
        <time>2019-10-25T15:31:26.001Z</time>
      </trkpt>
      <trkpt lat="43.79697" lon="4.12396">
        <ele>95.996</ele>
        <time>2019-10-25T15:31:56.001Z</time>
      </trkpt>
      <trkpt lat="43.79813" lon="4.1242">
        <ele>99.758</ele>
        <time>2019-10-25T15:32:26.001Z</time>
      </trkpt>
      <trkpt lat="43.79927" lon="4.12449">
        <ele>96.339</ele>
        <time>2019-10-25T15:32:56.001Z</time>
      </trkpt>
      <trkpt lat="43.80046" lon="4.12495">
        <ele>94.912</ele>
        <time>2019-10-25T15:33:26.001Z</time>
      </trkpt>
      <trkpt lat="43.80142" lon="4.12541">
        <ele>96.54</ele>
        <time>2019-10-25T15:33:56.001Z</time>
      </trkpt>
      <trkpt lat="43.80302" lon="4.12532">
        <ele>95.051</ele>
        <time>2019-10-25T15:34:29.001Z</time>
      </trkpt>
      <trkpt lat="43.80414" lon="4.12508">
        <ele>92.262</ele>
        <time>2019-10-25T15:34:59.001Z</time>
      </trkpt>
      <trkpt lat="43.80506" lon="4.12542">
        <ele>93.647</ele>
        <time>2019-10-25T15:35:29.001Z</time>
      </trkpt>
      <trkpt lat="43.80646" lon="4.12489">
        <ele>92.719</ele>
        <time>2019-10-25T15:35:59.001Z</time>
      </trkpt>
      <trkpt lat="43.80777" lon="4.12455">
        <ele>92.205</ele>
        <time>2019-10-25T15:36:29.001Z</time>
      </trkpt>
      <trkpt lat="43.80886" lon="4.12434">
        <ele>95.222</ele>
        <time>2019-10-25T15:36:59.001Z</time>
      </trkpt>
      <trkpt lat="43.80988" lon="4.12429">
        <ele>99.112</ele>
        <time>2019-10-25T15:37:32.001Z</time>
      </trkpt>
      <trkpt lat="43.81081" lon="4.12388">
        <ele>98.959</ele>
        <time>2019-10-25T15:38:02Z</time>
      </trkpt>
      <trkpt lat="43.81175" lon="4.12344">
        <ele>101.767</ele>
        <time>2019-10-25T15:38:32.001Z</time>
      </trkpt>
      <trkpt lat="43.81224" lon="4.12336">
        <ele>103.821</ele>
        <time>2019-10-25T15:39:26.001Z</time>
      </trkpt>
      <trkpt lat="43.81317" lon="4.12265">
        <ele>105.681</ele>
        <time>2019-10-25T15:39:56.001Z</time>
      </trkpt>
      <trkpt lat="43.81432" lon="4.12221">
        <ele>96.603</ele>
        <time>2019-10-25T15:40:32.001Z</time>
      </trkpt>
      <trkpt lat="43.81533" lon="4.12342">
        <ele>91.859</ele>
        <time>2019-10-25T15:41:02Z</time>
      </trkpt>
      <trkpt lat="43.81574" lon="4.12419">
        <ele>88.356</ele>
        <time>2019-10-25T15:41:32.001Z</time>
      </trkpt>
      <trkpt lat="43.81596" lon="4.12443">
        <ele>94.084</ele>
        <time>2019-10-25T15:47:09.001Z</time>
      </trkpt>
      <trkpt lat="43.81599" lon="4.1246">
        <ele>93.691</ele>
        <time>2019-10-25T15:52:51.001Z</time>
      </trkpt>
      <trkpt lat="43.81596" lon="4.12468">
        <ele>92.545</ele>
        <time>2019-10-25T16:02:54.001Z</time>
      </trkpt>
      <trkpt lat="43.81595" lon="4.12467">
        <ele>86.994</ele>
        <time>2019-10-25T16:06:36.001Z</time>
      </trkpt>
      <trkpt lat="43.81598" lon="4.12467">
        <ele>86.994</ele>
        <time>2019-10-25T16:07:45.001Z</time>
      </trkpt>
      <trkpt lat="43.81598" lon="4.12467">
        <ele>86.994</ele>
        <time>2019-10-25T16:08:45.001Z</time>
      </trkpt>
      <trkpt lat="43.81598" lon="4.12467">
        <ele>86.994</ele>
        <time>2019-10-25T16:09:48.001Z</time>
      </trkpt>
      <trkpt lat="43.81598" lon="4.12467">
        <ele>86.994</ele>
        <time>2019-10-25T16:10:48.001Z</time>
      </trkpt>
      <trkpt lat="43.81593" lon="4.12466">
        <ele>90.945</ele>
        <time>2019-10-25T16:12:00Z</time>
      </trkpt>
      <trkpt lat="43.81594" lon="4.12466">
        <ele>91.739</ele>
        <time>2019-10-25T16:14:18.001Z</time>
      </trkpt>
      <trkpt lat="43.81592" lon="4.12472">
        <ele>90.223</ele>
        <time>2019-10-25T16:20:30.001Z</time>
      </trkpt>
      <trkpt lat="43.81587" lon="4.12465">
        <ele>93.848</ele>
        <time>2019-10-25T16:22:00Z</time>
      </trkpt>
    </trkseg>
  </trk>
  <trk>
    <name><![CDATA[Tracé 20191026-093505]]></name>
    <trkseg>
      <trkpt lat="43.81577" lon="4.1242">
        <ele>94.644</ele>
        <time>2019-10-26T07:47:35Z</time>
      </trkpt>
      <trkpt lat="43.81541" lon="4.12337">
        <ele>95.548</ele>
        <time>2019-10-26T07:48:14Z</time>
      </trkpt>
      <trkpt lat="43.81473" lon="4.12264">
        <ele>99.644</ele>
        <time>2019-10-26T07:48:44Z</time>
      </trkpt>
      <trkpt lat="43.81438" lon="4.12198">
        <ele>101.612</ele>
        <time>2019-10-26T07:52:06Z</time>
      </trkpt>
      <trkpt lat="43.81501" lon="4.12325">
        <ele>102.719</ele>
        <time>2019-10-26T07:52:45Z</time>
      </trkpt>
      <trkpt lat="43.81545" lon="4.12265">
        <ele>97.559</ele>
        <time>2019-10-26T07:53:18Z</time>
      </trkpt>
      <trkpt lat="43.81585" lon="4.12233">
        <ele>105.27</ele>
        <time>2019-10-26T07:53:51Z</time>
      </trkpt>
      <trkpt lat="43.81626" lon="4.1217">
        <ele>110.001</ele>
        <time>2019-10-26T07:54:21Z</time>
      </trkpt>
      <trkpt lat="43.81667" lon="4.1199">
        <ele>103.575</ele>
        <time>2019-10-26T07:54:54Z</time>
      </trkpt>
      <trkpt lat="43.81685" lon="4.11854">
        <ele>84.55</ele>
        <time>2019-10-26T07:55:24Z</time>
      </trkpt>
      <trkpt lat="43.81702" lon="4.11725">
        <ele>79.022</ele>
        <time>2019-10-26T07:55:57Z</time>
      </trkpt>
      <trkpt lat="43.81718" lon="4.11628">
        <ele>73.653</ele>
        <time>2019-10-26T07:56:27Z</time>
      </trkpt>
      <trkpt lat="43.81781" lon="4.11512">
        <ele>73.91</ele>
        <time>2019-10-26T07:57:00Z</time>
      </trkpt>
      <trkpt lat="43.81849" lon="4.114">
        <ele>65.187</ele>
        <time>2019-10-26T07:57:30Z</time>
      </trkpt>
      <trkpt lat="43.81938" lon="4.11271">
        <ele>50.216</ele>
        <time>2019-10-26T07:58:03Z</time>
      </trkpt>
      <trkpt lat="43.81989" lon="4.11116">
        <ele>46.257</ele>
        <time>2019-10-26T07:58:33Z</time>
      </trkpt>
      <trkpt lat="43.82016" lon="4.11146">
        <ele>51.298</ele>
        <time>2019-10-26T08:01:18Z</time>
      </trkpt>
      <trkpt lat="43.82034" lon="4.11193">
        <ele>51.095</ele>
        <time>2019-10-26T08:04:27Z</time>
      </trkpt>
      <trkpt lat="43.82065" lon="4.11267">
        <ele>51.853</ele>
        <time>2019-10-26T08:05:15Z</time>
      </trkpt>
      <trkpt lat="43.82132" lon="4.11306">
        <ele>55.159</ele>
        <time>2019-10-26T08:05:48Z</time>
      </trkpt>
      <trkpt lat="43.82193" lon="4.11279">
        <ele>56.969</ele>
        <time>2019-10-26T08:06:18Z</time>
      </trkpt>
      <trkpt lat="43.82265" lon="4.1123">
        <ele>60.365</ele>
        <time>2019-10-26T08:06:51Z</time>
      </trkpt>
      <trkpt lat="43.82331" lon="4.1118">
        <ele>58.691</ele>
        <time>2019-10-26T08:07:21Z</time>
      </trkpt>
      <trkpt lat="43.82386" lon="4.11193">
        <ele>58.629</ele>
        <time>2019-10-26T08:10:48Z</time>
      </trkpt>
      <trkpt lat="43.82442" lon="4.11297">
        <ele>61.651</ele>
        <time>2019-10-26T08:11:18Z</time>
      </trkpt>
      <trkpt lat="43.82507" lon="4.11413">
        <ele>63.088</ele>
        <time>2019-10-26T08:11:51Z</time>
      </trkpt>
      <trkpt lat="43.82568" lon="4.11525">
        <ele>63.931</ele>
        <time>2019-10-26T08:12:21Z</time>
      </trkpt>
      <trkpt lat="43.82646" lon="4.11642">
        <ele>66.241</ele>
        <time>2019-10-26T08:12:54Z</time>
      </trkpt>
      <trkpt lat="43.82713" lon="4.1174">
        <ele>65.535</ele>
        <time>2019-10-26T08:13:24Z</time>
      </trkpt>
      <trkpt lat="43.82724" lon="4.116">
        <ele>65.679</ele>
        <time>2019-10-26T08:13:54Z</time>
      </trkpt>
      <trkpt lat="43.82746" lon="4.11405">
        <ele>65.583</ele>
        <time>2019-10-26T08:14:27Z</time>
      </trkpt>
      <trkpt lat="43.82709" lon="4.11132">
        <ele>65.739</ele>
        <time>2019-10-26T08:14:57Z</time>
      </trkpt>
      <trkpt lat="43.82733" lon="4.10883">
        <ele>63.589</ele>
        <time>2019-10-26T08:15:30Z</time>
      </trkpt>
      <trkpt lat="43.82776" lon="4.10707">
        <ele>59.621</ele>
        <time>2019-10-26T08:16:00Z</time>
      </trkpt>
      <trkpt lat="43.82804" lon="4.10519">
        <ele>59.44</ele>
        <time>2019-10-26T08:16:33Z</time>
      </trkpt>
      <trkpt lat="43.82769" lon="4.10329">
        <ele>63.349</ele>
        <time>2019-10-26T08:17:03Z</time>
      </trkpt>
      <trkpt lat="43.82748" lon="4.10134">
        <ele>65.402</ele>
        <time>2019-10-26T08:17:36Z</time>
      </trkpt>
      <trkpt lat="43.82802" lon="4.09976">
        <ele>60.352</ele>
        <time>2019-10-26T08:18:06Z</time>
      </trkpt>
      <trkpt lat="43.82805" lon="4.09793">
        <ele>66.485</ele>
        <time>2019-10-26T08:18:39Z</time>
      </trkpt>
      <trkpt lat="43.82835" lon="4.09633">
        <ele>61.031</ele>
        <time>2019-10-26T08:19:09Z</time>
      </trkpt>
      <trkpt lat="43.82875" lon="4.09486">
        <ele>62.711</ele>
        <time>2019-10-26T08:19:39Z</time>
      </trkpt>
      <trkpt lat="43.82964" lon="4.0929">
        <ele>62.715</ele>
        <time>2019-10-26T08:20:12Z</time>
      </trkpt>
      <trkpt lat="43.83073" lon="4.09071">
        <ele>60.183</ele>
        <time>2019-10-26T08:20:42Z</time>
      </trkpt>
      <trkpt lat="43.83235" lon="4.08888">
        <ele>54.232</ele>
        <time>2019-10-26T08:21:15Z</time>
      </trkpt>
      <trkpt lat="43.83387" lon="4.0871">
        <ele>47.929</ele>
        <time>2019-10-26T08:21:45Z</time>
      </trkpt>
      <trkpt lat="43.83515" lon="4.08522">
        <ele>42.437</ele>
        <time>2019-10-26T08:22:18Z</time>
      </trkpt>
      <trkpt lat="43.83619" lon="4.08416">
        <ele>50.781</ele>
        <time>2019-10-26T08:22:48Z</time>
      </trkpt>
      <trkpt lat="43.8373" lon="4.08315">
        <ele>51.455</ele>
        <time>2019-10-26T08:23:21Z</time>
      </trkpt>
      <trkpt lat="43.83822" lon="4.08194">
        <ele>55.176</ele>
        <time>2019-10-26T08:23:51Z</time>
      </trkpt>
      <trkpt lat="43.83928" lon="4.08087">
        <ele>55.729</ele>
        <time>2019-10-26T08:24:24Z</time>
      </trkpt>
      <trkpt lat="43.83945" lon="4.07913">
        <ele>54.297</ele>
        <time>2019-10-26T08:24:54Z</time>
      </trkpt>
      <trkpt lat="43.83887" lon="4.07662">
        <ele>50.641</ele>
        <time>2019-10-26T08:25:27Z</time>
      </trkpt>
      <trkpt lat="43.83836" lon="4.07452">
        <ele>54.731</ele>
        <time>2019-10-26T08:25:57Z</time>
      </trkpt>
      <trkpt lat="43.83786" lon="4.07188">
        <ele>47.04</ele>
        <time>2019-10-26T08:26:27Z</time>
      </trkpt>
      <trkpt lat="43.83804" lon="4.06869">
        <ele>43.491</ele>
        <time>2019-10-26T08:27:00Z</time>
      </trkpt>
      <trkpt lat="43.83761" lon="4.06603">
        <ele>37.98</ele>
        <time>2019-10-26T08:27:30Z</time>
      </trkpt>
      <trkpt lat="43.837" lon="4.06435">
        <ele>35.294</ele>
        <time>2019-10-26T08:28:03Z</time>
      </trkpt>
      <trkpt lat="43.83593" lon="4.06494">
        <ele>31.985</ele>
        <time>2019-10-26T08:28:33Z</time>
      </trkpt>
      <trkpt lat="43.83569" lon="4.06353">
        <ele>39.826</ele>
        <time>2019-10-26T08:29:06Z</time>
      </trkpt>
      <trkpt lat="43.83634" lon="4.0632">
        <ele>50.824</ele>
        <time>2019-10-26T08:29:36Z</time>
      </trkpt>
      <trkpt lat="43.83712" lon="4.06328">
        <ele>61.822</ele>
        <time>2019-10-26T08:30:09Z</time>
      </trkpt>
      <trkpt lat="43.83789" lon="4.06333">
        <ele>70.964</ele>
        <time>2019-10-26T08:30:39Z</time>
      </trkpt>
      <trkpt lat="43.83872" lon="4.06321">
        <ele>64.698</ele>
        <time>2019-10-26T08:31:12Z</time>
      </trkpt>
      <trkpt lat="43.8393" lon="4.06217">
        <ele>59.682</ele>
        <time>2019-10-26T08:31:42Z</time>
      </trkpt>
      <trkpt lat="43.83976" lon="4.06094">
        <ele>55.492</ele>
        <time>2019-10-26T08:32:12Z</time>
      </trkpt>
      <trkpt lat="43.84047" lon="4.06003">
        <ele>56.494</ele>
        <time>2019-10-26T08:32:45Z</time>
      </trkpt>
      <trkpt lat="43.84173" lon="4.05799">
        <ele>54.413</ele>
        <time>2019-10-26T08:33:15Z</time>
      </trkpt>
      <trkpt lat="43.84375" lon="4.05657">
        <ele>48.66</ele>
        <time>2019-10-26T08:33:48Z</time>
      </trkpt>
      <trkpt lat="43.84473" lon="4.05582">
        <ele>48.121</ele>
        <time>2019-10-26T08:34:18Z</time>
      </trkpt>
      <trkpt lat="43.84556" lon="4.05494">
        <ele>54.47</ele>
        <time>2019-10-26T08:34:51Z</time>
      </trkpt>
      <trkpt lat="43.84612" lon="4.05408">
        <ele>57.328</ele>
        <time>2019-10-26T08:35:21Z</time>
      </trkpt>
      <trkpt lat="43.84676" lon="4.053">
        <ele>58.429</ele>
        <time>2019-10-26T08:35:54Z</time>
      </trkpt>
      <trkpt lat="43.8475" lon="4.05227">
        <ele>61.542</ele>
        <time>2019-10-26T08:36:24Z</time>
      </trkpt>
      <trkpt lat="43.84817" lon="4.05135">
        <ele>65.719</ele>
        <time>2019-10-26T08:36:57Z</time>
      </trkpt>
      <trkpt lat="43.84861" lon="4.05041">
        <ele>68.9</ele>
        <time>2019-10-26T08:37:27Z</time>
      </trkpt>
      <trkpt lat="43.84877" lon="4.04973">
        <ele>73.029</ele>
        <time>2019-10-26T08:42:54Z</time>
      </trkpt>
      <trkpt lat="43.8488" lon="4.04813">
        <ele>67.343</ele>
        <time>2019-10-26T08:43:27Z</time>
      </trkpt>
      <trkpt lat="43.85" lon="4.04738">
        <ele>60.996</ele>
        <time>2019-10-26T08:43:57Z</time>
      </trkpt>
      <trkpt lat="43.85173" lon="4.04634">
        <ele>58.58</ele>
        <time>2019-10-26T08:44:30Z</time>
      </trkpt>
      <trkpt lat="43.8542" lon="4.04622">
        <ele>57.147</ele>
        <time>2019-10-26T08:45:00Z</time>
      </trkpt>
      <trkpt lat="43.85616" lon="4.04508">
        <ele>50.233</ele>
        <time>2019-10-26T08:45:33Z</time>
      </trkpt>
      <trkpt lat="43.85745" lon="4.0437">
        <ele>44.97</ele>
        <time>2019-10-26T08:46:03Z</time>
      </trkpt>
      <trkpt lat="43.85871" lon="4.04232">
        <ele>45.381</ele>
        <time>2019-10-26T08:46:36Z</time>
      </trkpt>
      <trkpt lat="43.86029" lon="4.04154">
        <ele>43.646</ele>
        <time>2019-10-26T08:47:06Z</time>
      </trkpt>
      <trkpt lat="43.8619" lon="4.041">
        <ele>43.411</ele>
        <time>2019-10-26T08:47:39Z</time>
      </trkpt>
      <trkpt lat="43.86315" lon="4.04037">
        <ele>45.268</ele>
        <time>2019-10-26T08:48:09Z</time>
      </trkpt>
      <trkpt lat="43.86451" lon="4.04003">
        <ele>47.261</ele>
        <time>2019-10-26T08:48:39Z</time>
      </trkpt>
      <trkpt lat="43.86608" lon="4.04009">
        <ele>50.111</ele>
        <time>2019-10-26T08:49:12Z</time>
      </trkpt>
      <trkpt lat="43.86749" lon="4.04017">
        <ele>51.462</ele>
        <time>2019-10-26T08:49:42Z</time>
      </trkpt>
      <trkpt lat="43.86894" lon="4.04073">
        <ele>49.024</ele>
        <time>2019-10-26T08:50:15Z</time>
      </trkpt>
      <trkpt lat="43.87022" lon="4.04062">
        <ele>48.723</ele>
        <time>2019-10-26T08:50:45Z</time>
      </trkpt>
      <trkpt lat="43.87136" lon="4.04033">
        <ele>51.882</ele>
        <time>2019-10-26T08:51:18Z</time>
      </trkpt>
      <trkpt lat="43.87233" lon="4.04119">
        <ele>59.581</ele>
        <time>2019-10-26T08:51:48Z</time>
      </trkpt>
      <trkpt lat="43.8732" lon="4.04178">
        <ele>69.055</ele>
        <time>2019-10-26T08:52:21Z</time>
      </trkpt>
      <trkpt lat="43.87402" lon="4.04226">
        <ele>76.844</ele>
        <time>2019-10-26T08:52:51Z</time>
      </trkpt>
      <trkpt lat="43.8753" lon="4.04343">
        <ele>67.239</ele>
        <time>2019-10-26T08:53:24Z</time>
      </trkpt>
      <trkpt lat="43.87657" lon="4.04423">
        <ele>61.818</ele>
        <time>2019-10-26T08:53:54Z</time>
      </trkpt>
      <trkpt lat="43.87764" lon="4.04549">
        <ele>63.498</ele>
        <time>2019-10-26T08:54:24Z</time>
      </trkpt>
      <trkpt lat="43.87983" lon="4.04651">
        <ele>56.936</ele>
        <time>2019-10-26T08:54:57Z</time>
      </trkpt>
      <trkpt lat="43.88174" lon="4.04693">
        <ele>53.684</ele>
        <time>2019-10-26T08:55:27Z</time>
      </trkpt>
      <trkpt lat="43.88311" lon="4.04705">
        <ele>50.283</ele>
        <time>2019-10-26T08:56:00Z</time>
      </trkpt>
      <trkpt lat="43.88403" lon="4.04723">
        <ele>57.121</ele>
        <time>2019-10-26T08:56:30Z</time>
      </trkpt>
      <trkpt lat="43.88506" lon="4.04789">
        <ele>64.256</ele>
        <time>2019-10-26T08:57:03Z</time>
      </trkpt>
      <trkpt lat="43.88553" lon="4.04878">
        <ele>66.047</ele>
        <time>2019-10-26T08:57:33Z</time>
      </trkpt>
      <trkpt lat="43.88555" lon="4.04987">
        <ele>67.204</ele>
        <time>2019-10-26T09:00:15Z</time>
      </trkpt>
      <trkpt lat="43.88554" lon="4.04855">
        <ele>65.448</ele>
        <time>2019-10-26T09:00:45Z</time>
      </trkpt>
      <trkpt lat="43.88627" lon="4.04809">
        <ele>67.474</ele>
        <time>2019-10-26T09:01:18Z</time>
      </trkpt>
      <trkpt lat="43.8871" lon="4.04843">
        <ele>68.316</ele>
        <time>2019-10-26T09:01:48Z</time>
      </trkpt>
      <trkpt lat="43.88838" lon="4.04853">
        <ele>70.675</ele>
        <time>2019-10-26T09:02:21Z</time>
      </trkpt>
      <trkpt lat="43.88955" lon="4.04871">
        <ele>71.908</ele>
        <time>2019-10-26T09:02:51Z</time>
      </trkpt>
      <trkpt lat="43.89063" lon="4.04873">
        <ele>76.712</ele>
        <time>2019-10-26T09:03:21Z</time>
      </trkpt>
      <trkpt lat="43.8917" lon="4.04869">
        <ele>79.424</ele>
        <time>2019-10-26T09:03:54Z</time>
      </trkpt>
      <trkpt lat="43.89271" lon="4.04846">
        <ele>80.909</ele>
        <time>2019-10-26T09:04:24Z</time>
      </trkpt>
      <trkpt lat="43.89386" lon="4.04803">
        <ele>81.596</ele>
        <time>2019-10-26T09:04:57Z</time>
      </trkpt>
      <trkpt lat="43.89491" lon="4.04792">
        <ele>84.933</ele>
        <time>2019-10-26T09:05:27Z</time>
      </trkpt>
      <trkpt lat="43.896" lon="4.04776">
        <ele>86.002</ele>
        <time>2019-10-26T09:06:00Z</time>
      </trkpt>
      <trkpt lat="43.8969" lon="4.04739">
        <ele>87.202</ele>
        <time>2019-10-26T09:06:30Z</time>
      </trkpt>
      <trkpt lat="43.8979" lon="4.04702">
        <ele>89.504</ele>
        <time>2019-10-26T09:07:03Z</time>
      </trkpt>
      <trkpt lat="43.89884" lon="4.04675">
        <ele>92.859</ele>
        <time>2019-10-26T09:07:33Z</time>
      </trkpt>
      <trkpt lat="43.89975" lon="4.04693">
        <ele>98.525</ele>
        <time>2019-10-26T09:08:06Z</time>
      </trkpt>
      <trkpt lat="43.90055" lon="4.04647">
        <ele>100.254</ele>
        <time>2019-10-26T09:08:36Z</time>
      </trkpt>
      <trkpt lat="43.90124" lon="4.04667">
        <ele>104.797</ele>
        <time>2019-10-26T09:09:06Z</time>
      </trkpt>
      <trkpt lat="43.90194" lon="4.04665">
        <ele>109.078</ele>
        <time>2019-10-26T09:09:39Z</time>
      </trkpt>
      <trkpt lat="43.90252" lon="4.04597">
        <ele>113.885</ele>
        <time>2019-10-26T09:10:09Z</time>
      </trkpt>
      <trkpt lat="43.90453" lon="4.04573">
        <ele>103.761</ele>
        <time>2019-10-26T09:10:42Z</time>
      </trkpt>
      <trkpt lat="43.90697" lon="4.0459">
        <ele>92.775</ele>
        <time>2019-10-26T09:11:12Z</time>
      </trkpt>
      <trkpt lat="43.90964" lon="4.04665">
        <ele>81.355</ele>
        <time>2019-10-26T09:11:45Z</time>
      </trkpt>
      <trkpt lat="43.91062" lon="4.04706">
        <ele>83.915</ele>
        <time>2019-10-26T09:12:15Z</time>
      </trkpt>
      <trkpt lat="43.91131" lon="4.04724">
        <ele>91.759</ele>
        <time>2019-10-26T09:12:48Z</time>
      </trkpt>
      <trkpt lat="43.91194" lon="4.04742">
        <ele>94.281</ele>
        <time>2019-10-26T09:13:18Z</time>
      </trkpt>
      <trkpt lat="43.91244" lon="4.04797">
        <ele>100.936</ele>
        <time>2019-10-26T09:13:51Z</time>
      </trkpt>
      <trkpt lat="43.91283" lon="4.04864">
        <ele>103.825</ele>
        <time>2019-10-26T09:14:21Z</time>
      </trkpt>
      <trkpt lat="43.9141" lon="4.04864">
        <ele>102.754</ele>
        <time>2019-10-26T09:14:51Z</time>
      </trkpt>
      <trkpt lat="43.91552" lon="4.04924">
        <ele>97.587</ele>
        <time>2019-10-26T09:15:24Z</time>
      </trkpt>
      <trkpt lat="43.91667" lon="4.05001">
        <ele>98.395</ele>
        <time>2019-10-26T09:15:54Z</time>
      </trkpt>
      <trkpt lat="43.9182" lon="4.04686">
        <ele>91.225</ele>
        <time>2019-10-26T09:16:27Z</time>
      </trkpt>
      <trkpt lat="43.9188" lon="4.04554">
        <ele>94.243</ele>
        <time>2019-10-26T09:16:57Z</time>
      </trkpt>
      <trkpt lat="43.91958" lon="4.04524">
        <ele>97.218</ele>
        <time>2019-10-26T09:17:30Z</time>
      </trkpt>
      <trkpt lat="43.92048" lon="4.04555">
        <ele>96.449</ele>
        <time>2019-10-26T09:18:00Z</time>
      </trkpt>
      <trkpt lat="43.92182" lon="4.0452">
        <ele>97.605</ele>
        <time>2019-10-26T09:18:33Z</time>
      </trkpt>
      <trkpt lat="43.92262" lon="4.04526">
        <ele>100.541</ele>
        <time>2019-10-26T09:19:03Z</time>
      </trkpt>
      <trkpt lat="43.92345" lon="4.04535">
        <ele>106.566</ele>
        <time>2019-10-26T09:19:36Z</time>
      </trkpt>
      <trkpt lat="43.92424" lon="4.04524">
        <ele>106.965</ele>
        <time>2019-10-26T09:20:06Z</time>
      </trkpt>
      <trkpt lat="43.925" lon="4.0452">
        <ele>109.03</ele>
        <time>2019-10-26T09:20:36Z</time>
      </trkpt>
      <trkpt lat="43.92585" lon="4.04546">
        <ele>110.223</ele>
        <time>2019-10-26T09:21:09Z</time>
      </trkpt>
      <trkpt lat="43.92656" lon="4.0457">
        <ele>113.72</ele>
        <time>2019-10-26T09:21:39Z</time>
      </trkpt>
      <trkpt lat="43.92733" lon="4.04575">
        <ele>118.258</ele>
        <time>2019-10-26T09:22:12Z</time>
      </trkpt>
      <trkpt lat="43.92822" lon="4.04593">
        <ele>122.507</ele>
        <time>2019-10-26T09:22:42Z</time>
      </trkpt>
      <trkpt lat="43.92934" lon="4.04594">
        <ele>123.86</ele>
        <time>2019-10-26T09:23:15Z</time>
      </trkpt>
      <trkpt lat="43.93006" lon="4.04638">
        <ele>125.743</ele>
        <time>2019-10-26T09:23:45Z</time>
      </trkpt>
      <trkpt lat="43.93067" lon="4.04694">
        <ele>131.275</ele>
        <time>2019-10-26T09:24:18Z</time>
      </trkpt>
      <trkpt lat="43.93116" lon="4.04743">
        <ele>136.876</ele>
        <time>2019-10-26T09:24:48Z</time>
      </trkpt>
      <trkpt lat="43.93168" lon="4.0479">
        <ele>146.217</ele>
        <time>2019-10-26T09:25:21Z</time>
      </trkpt>
      <trkpt lat="43.9323" lon="4.04833">
        <ele>145.414</ele>
        <time>2019-10-26T09:25:51Z</time>
      </trkpt>
      <trkpt lat="43.93293" lon="4.04854">
        <ele>150.874</ele>
        <time>2019-10-26T09:26:24Z</time>
      </trkpt>
      <trkpt lat="43.93356" lon="4.0488">
        <ele>150.078</ele>
        <time>2019-10-26T09:26:54Z</time>
      </trkpt>
      <trkpt lat="43.93424" lon="4.04908">
        <ele>154.405</ele>
        <time>2019-10-26T09:27:24Z</time>
      </trkpt>
      <trkpt lat="43.93614" lon="4.04928">
        <ele>150.178</ele>
        <time>2019-10-26T09:27:57Z</time>
      </trkpt>
      <trkpt lat="43.93859" lon="4.04916">
        <ele>139.894</ele>
        <time>2019-10-26T09:28:27Z</time>
      </trkpt>
      <trkpt lat="43.94103" lon="4.04949">
        <ele>126.735</ele>
        <time>2019-10-26T09:29:00Z</time>
      </trkpt>
      <trkpt lat="43.94345" lon="4.04905">
        <ele>119.542</ele>
        <time>2019-10-26T09:29:30Z</time>
      </trkpt>
      <trkpt lat="43.94488" lon="4.04907">
        <ele>122.162</ele>
        <time>2019-10-26T09:30:03Z</time>
      </trkpt>
      <trkpt lat="43.94687" lon="4.04933">
        <ele>117.355</ele>
        <time>2019-10-26T09:30:33Z</time>
      </trkpt>
      <trkpt lat="43.94936" lon="4.04979">
        <ele>107.405</ele>
        <time>2019-10-26T09:31:06Z</time>
      </trkpt>
      <trkpt lat="43.95112" lon="4.04968">
        <ele>105.854</ele>
        <time>2019-10-26T09:31:36Z</time>
      </trkpt>
      <trkpt lat="43.9529" lon="4.04973">
        <ele>103.758</ele>
        <time>2019-10-26T09:32:09Z</time>
      </trkpt>
      <trkpt lat="43.95514" lon="4.05005">
        <ele>98.355</ele>
        <time>2019-10-26T09:32:39Z</time>
      </trkpt>
      <trkpt lat="43.95672" lon="4.05027">
        <ele>97.977</ele>
        <time>2019-10-26T09:33:09Z</time>
      </trkpt>
      <trkpt lat="43.95823" lon="4.04976">
        <ele>97.814</ele>
        <time>2019-10-26T09:33:42Z</time>
      </trkpt>
      <trkpt lat="43.95968" lon="4.05041">
        <ele>96.714</ele>
        <time>2019-10-26T09:34:12Z</time>
      </trkpt>
      <trkpt lat="43.96158" lon="4.04939">
        <ele>92.087</ele>
        <time>2019-10-26T09:34:45Z</time>
      </trkpt>
      <trkpt lat="43.9626" lon="4.04898">
        <ele>96.539</ele>
        <time>2019-10-26T09:35:15Z</time>
      </trkpt>
      <trkpt lat="43.96489" lon="4.04978">
        <ele>90.619</ele>
        <time>2019-10-26T09:35:48Z</time>
      </trkpt>
      <trkpt lat="43.96602" lon="4.05023">
        <ele>93.211</ele>
        <time>2019-10-26T09:36:18Z</time>
      </trkpt>
      <trkpt lat="43.96738" lon="4.05036">
        <ele>91.728</ele>
        <time>2019-10-26T09:36:51Z</time>
      </trkpt>
      <trkpt lat="43.96922" lon="4.04986">
        <ele>85.083</ele>
        <time>2019-10-26T09:37:21Z</time>
      </trkpt>
      <trkpt lat="43.97038" lon="4.05105">
        <ele>88.294</ele>
        <time>2019-10-26T09:37:54Z</time>
      </trkpt>
      <trkpt lat="43.97175" lon="4.05133">
        <ele>88.425</ele>
        <time>2019-10-26T09:38:24Z</time>
      </trkpt>
      <trkpt lat="43.97289" lon="4.05151">
        <ele>90.589</ele>
        <time>2019-10-26T09:38:54Z</time>
      </trkpt>
      <trkpt lat="43.97414" lon="4.05192">
        <ele>92.054</ele>
        <time>2019-10-26T09:39:27Z</time>
      </trkpt>
      <trkpt lat="43.97532" lon="4.05208">
        <ele>94.046</ele>
        <time>2019-10-26T09:39:57Z</time>
      </trkpt>
      <trkpt lat="43.97654" lon="4.05199">
        <ele>96.092</ele>
        <time>2019-10-26T09:40:30Z</time>
      </trkpt>
      <trkpt lat="43.9777" lon="4.05194">
        <ele>98.555</ele>
        <time>2019-10-26T09:41:00Z</time>
      </trkpt>
      <trkpt lat="43.97887" lon="4.05223">
        <ele>101.616</ele>
        <time>2019-10-26T09:41:33Z</time>
      </trkpt>
      <trkpt lat="43.97986" lon="4.05241">
        <ele>106.621</ele>
        <time>2019-10-26T09:42:03Z</time>
      </trkpt>
      <trkpt lat="43.98096" lon="4.05246">
        <ele>110.722</ele>
        <time>2019-10-26T09:42:36Z</time>
      </trkpt>
      <trkpt lat="43.98181" lon="4.05167">
        <ele>115.28</ele>
        <time>2019-10-26T09:43:06Z</time>
      </trkpt>
      <trkpt lat="43.98276" lon="4.05101">
        <ele>117.71</ele>
        <time>2019-10-26T09:43:39Z</time>
      </trkpt>
      <trkpt lat="43.98383" lon="4.05031">
        <ele>116.938</ele>
        <time>2019-10-26T09:44:09Z</time>
      </trkpt>
      <trkpt lat="43.98503" lon="4.05043">
        <ele>118.038</ele>
        <time>2019-10-26T09:44:39Z</time>
      </trkpt>
      <trkpt lat="43.98632" lon="4.05062">
        <ele>114.833</ele>
        <time>2019-10-26T09:45:12Z</time>
      </trkpt>
      <trkpt lat="43.98747" lon="4.05074">
        <ele>116.577</ele>
        <time>2019-10-26T09:45:42Z</time>
      </trkpt>
      <trkpt lat="43.98916" lon="4.05096">
        <ele>115.367</ele>
        <time>2019-10-26T09:46:15Z</time>
      </trkpt>
      <trkpt lat="43.99095" lon="4.05081">
        <ele>111.901</ele>
        <time>2019-10-26T09:46:45Z</time>
      </trkpt>
      <trkpt lat="43.99231" lon="4.05166">
        <ele>110.591</ele>
        <time>2019-10-26T09:47:18Z</time>
      </trkpt>
      <trkpt lat="43.9933" lon="4.05235">
        <ele>113.552</ele>
        <time>2019-10-26T09:47:48Z</time>
      </trkpt>
      <trkpt lat="43.99451" lon="4.05264">
        <ele>116.089</ele>
        <time>2019-10-26T09:48:21Z</time>
      </trkpt>
      <trkpt lat="43.99558" lon="4.0529">
        <ele>117.617</ele>
        <time>2019-10-26T09:48:51Z</time>
      </trkpt>
      <trkpt lat="43.99669" lon="4.05318">
        <ele>119.586</ele>
        <time>2019-10-26T09:49:24Z</time>
      </trkpt>
      <trkpt lat="43.99761" lon="4.05339">
        <ele>123.364</ele>
        <time>2019-10-26T09:49:54Z</time>
      </trkpt>
      <trkpt lat="43.99868" lon="4.05368">
        <ele>127.243</ele>
        <time>2019-10-26T09:50:27Z</time>
      </trkpt>
      <trkpt lat="43.99969" lon="4.0538">
        <ele>129.044</ele>
        <time>2019-10-26T09:50:57Z</time>
      </trkpt>
      <trkpt lat="44.0005" lon="4.05384">
        <ele>130.949</ele>
        <time>2019-10-26T09:51:27Z</time>
      </trkpt>
      <trkpt lat="44.00132" lon="4.05389">
        <ele>134.948</ele>
        <time>2019-10-26T09:52:00Z</time>
      </trkpt>
      <trkpt lat="44.00201" lon="4.05394">
        <ele>140.08</ele>
        <time>2019-10-26T09:52:30Z</time>
      </trkpt>
      <trkpt lat="44.00304" lon="4.05401">
        <ele>140.581</ele>
        <time>2019-10-26T09:53:03Z</time>
      </trkpt>
      <trkpt lat="44.00402" lon="4.05432">
        <ele>141.859</ele>
        <time>2019-10-26T09:53:33Z</time>
      </trkpt>
      <trkpt lat="44.0049" lon="4.05478">
        <ele>145.529</ele>
        <time>2019-10-26T09:54:06Z</time>
      </trkpt>
      <trkpt lat="44.00577" lon="4.05504">
        <ele>147.806</ele>
        <time>2019-10-26T09:54:36Z</time>
      </trkpt>
      <trkpt lat="44.00679" lon="4.05457">
        <ele>149.839</ele>
        <time>2019-10-26T09:55:09Z</time>
      </trkpt>
      <trkpt lat="44.00899" lon="4.05339">
        <ele>142.689</ele>
        <time>2019-10-26T09:55:39Z</time>
      </trkpt>
      <trkpt lat="44.01093" lon="4.05179">
        <ele>138.644</ele>
        <time>2019-10-26T09:56:12Z</time>
      </trkpt>
      <trkpt lat="44.01281" lon="4.05158">
        <ele>130.007</ele>
        <time>2019-10-26T09:56:42Z</time>
      </trkpt>
      <trkpt lat="44.01428" lon="4.05103">
        <ele>118.995</ele>
        <time>2019-10-26T09:57:12Z</time>
      </trkpt>
      <trkpt lat="44.0161" lon="4.05099">
        <ele>118.462</ele>
        <time>2019-10-26T09:57:45Z</time>
      </trkpt>
      <trkpt lat="44.01606" lon="4.05078">
        <ele>117.976</ele>
        <time>2019-10-26T09:58:45Z</time>
      </trkpt>
      <trkpt lat="44.01615" lon="4.05079">
        <ele>117.451</ele>
        <time>2019-10-26T10:00:57Z</time>
      </trkpt>
      <trkpt lat="44.01631" lon="4.05117">
        <ele>136.427</ele>
        <time>2019-10-26T10:06:16Z</time>
      </trkpt>
      <trkpt lat="44.0161" lon="4.05075">
        <ele>113.835</ele>
        <time>2019-10-26T10:09:25Z</time>
      </trkpt>
      <trkpt lat="44.01609" lon="4.05071">
        <ele>114.889</ele>
        <time>2019-10-26T10:11:22Z</time>
      </trkpt>
      <trkpt lat="44.01614" lon="4.05079">
        <ele>113.715</ele>
        <time>2019-10-26T10:15:04Z</time>
      </trkpt>
      <trkpt lat="44.0161" lon="4.05078">
        <ele>115.712</ele>
        <time>2019-10-26T10:21:04Z</time>
      </trkpt>
      <trkpt lat="44.01606" lon="4.05077">
        <ele>116.945</ele>
        <time>2019-10-26T10:26:16Z</time>
      </trkpt>
      <trkpt lat="44.01606" lon="4.05076">
        <ele>117.926</ele>
        <time>2019-10-26T10:28:04Z</time>
      </trkpt>
      <trkpt lat="44.01607" lon="4.05071">
        <ele>118.623</ele>
        <time>2019-10-26T10:29:49Z</time>
      </trkpt>
      <trkpt lat="44.01606" lon="4.05069">
        <ele>123.567</ele>
        <time>2019-10-26T10:33:55Z</time>
      </trkpt>
      <trkpt lat="44.01667" lon="4.0512">
        <ele>126.611</ele>
        <time>2019-10-26T10:34:28Z</time>
      </trkpt>
      <trkpt lat="44.0181" lon="4.05161">
        <ele>119.334</ele>
        <time>2019-10-26T10:35:01Z</time>
      </trkpt>
      <trkpt lat="44.01964" lon="4.05174">
        <ele>112.469</ele>
        <time>2019-10-26T10:35:31Z</time>
      </trkpt>
      <trkpt lat="44.02123" lon="4.05092">
        <ele>109.229</ele>
        <time>2019-10-26T10:36:04Z</time>
      </trkpt>
      <trkpt lat="44.02282" lon="4.05082">
        <ele>109.14</ele>
        <time>2019-10-26T10:36:34Z</time>
      </trkpt>
      <trkpt lat="44.02452" lon="4.05058">
        <ele>109.484</ele>
        <time>2019-10-26T10:37:07Z</time>
      </trkpt>
      <trkpt lat="44.02566" lon="4.05039">
        <ele>114.407</ele>
        <time>2019-10-26T10:37:37Z</time>
      </trkpt>
      <trkpt lat="44.02716" lon="4.05017">
        <ele>117.174</ele>
        <time>2019-10-26T10:38:10Z</time>
      </trkpt>
      <trkpt lat="44.02918" lon="4.04987">
        <ele>111.179</ele>
        <time>2019-10-26T10:38:40Z</time>
      </trkpt>
      <trkpt lat="44.03094" lon="4.0499">
        <ele>108.785</ele>
        <time>2019-10-26T10:39:10Z</time>
      </trkpt>
      <trkpt lat="44.03224" lon="4.05055">
        <ele>114.217</ele>
        <time>2019-10-26T10:39:43Z</time>
      </trkpt>
      <trkpt lat="44.0327" lon="4.05111">
        <ele>123.923</ele>
        <time>2019-10-26T10:40:13Z</time>
      </trkpt>
      <trkpt lat="44.03363" lon="4.0515">
        <ele>121.93</ele>
        <time>2019-10-26T10:40:46Z</time>
      </trkpt>
      <trkpt lat="44.03511" lon="4.05193">
        <ele>117.678</ele>
        <time>2019-10-26T10:41:16Z</time>
      </trkpt>
      <trkpt lat="44.03628" lon="4.05223">
        <ele>122.932</ele>
        <time>2019-10-26T10:41:49Z</time>
      </trkpt>
      <trkpt lat="44.03795" lon="4.0528">
        <ele>118.558</ele>
        <time>2019-10-26T10:42:19Z</time>
      </trkpt>
      <trkpt lat="44.04032" lon="4.05323">
        <ele>112.646</ele>
        <time>2019-10-26T10:42:52Z</time>
      </trkpt>
      <trkpt lat="44.04171" lon="4.05358">
        <ele>115.346</ele>
        <time>2019-10-26T10:43:22Z</time>
      </trkpt>
      <trkpt lat="44.04294" lon="4.0539">
        <ele>119.638</ele>
        <time>2019-10-26T10:43:55Z</time>
      </trkpt>
      <trkpt lat="44.04412" lon="4.05423">
        <ele>121.447</ele>
        <time>2019-10-26T10:44:25Z</time>
      </trkpt>
      <trkpt lat="44.0454" lon="4.05476">
        <ele>126.455</ele>
        <time>2019-10-26T10:44:55Z</time>
      </trkpt>
      <trkpt lat="44.04673" lon="4.05532">
        <ele>124.244</ele>
        <time>2019-10-26T10:45:28Z</time>
      </trkpt>
      <trkpt lat="44.04783" lon="4.05579">
        <ele>127.325</ele>
        <time>2019-10-26T10:45:58Z</time>
      </trkpt>
      <trkpt lat="44.0491" lon="4.05641">
        <ele>130.432</ele>
        <time>2019-10-26T10:46:31Z</time>
      </trkpt>
      <trkpt lat="44.0507" lon="4.05726">
        <ele>129.628</ele>
        <time>2019-10-26T10:47:01Z</time>
      </trkpt>
      <trkpt lat="44.05205" lon="4.0581">
        <ele>135.128</ele>
        <time>2019-10-26T10:47:34Z</time>
      </trkpt>
      <trkpt lat="44.05301" lon="4.05885">
        <ele>140.038</ele>
        <time>2019-10-26T10:48:04Z</time>
      </trkpt>
      <trkpt lat="44.05424" lon="4.05985">
        <ele>131.224</ele>
        <time>2019-10-26T10:48:37Z</time>
      </trkpt>
      <trkpt lat="44.05533" lon="4.06074">
        <ele>132.891</ele>
        <time>2019-10-26T10:49:07Z</time>
      </trkpt>
      <trkpt lat="44.05705" lon="4.06236">
        <ele>132.972</ele>
        <time>2019-10-26T10:49:40Z</time>
      </trkpt>
      <trkpt lat="44.05885" lon="4.06422">
        <ele>129.917</ele>
        <time>2019-10-26T10:50:10Z</time>
      </trkpt>
      <trkpt lat="44.06054" lon="4.06597">
        <ele>129.584</ele>
        <time>2019-10-26T10:50:43Z</time>
      </trkpt>
      <trkpt lat="44.06196" lon="4.06728">
        <ele>127.83</ele>
        <time>2019-10-26T10:51:13Z</time>
      </trkpt>
      <trkpt lat="44.06371" lon="4.0682">
        <ele>129.739</ele>
        <time>2019-10-26T10:51:43Z</time>
      </trkpt>
      <trkpt lat="44.06598" lon="4.06843">
        <ele>123.745</ele>
        <time>2019-10-26T10:52:16Z</time>
      </trkpt>
      <trkpt lat="44.06765" lon="4.06933">
        <ele>128.534</ele>
        <time>2019-10-26T10:52:46Z</time>
      </trkpt>
      <trkpt lat="44.06924" lon="4.07021">
        <ele>126.826</ele>
        <time>2019-10-26T10:53:19Z</time>
      </trkpt>
      <trkpt lat="44.07111" lon="4.07124">
        <ele>125.971</ele>
        <time>2019-10-26T10:53:49Z</time>
      </trkpt>
      <trkpt lat="44.07283" lon="4.07147">
        <ele>124.592</ele>
        <time>2019-10-26T10:54:22Z</time>
      </trkpt>
      <trkpt lat="44.07437" lon="4.0717">
        <ele>126.208</ele>
        <time>2019-10-26T10:54:52Z</time>
      </trkpt>
      <trkpt lat="44.07593" lon="4.07166">
        <ele>131.846</ele>
        <time>2019-10-26T10:55:25Z</time>
      </trkpt>
      <trkpt lat="44.07745" lon="4.07157">
        <ele>131.522</ele>
        <time>2019-10-26T10:55:55Z</time>
      </trkpt>
      <trkpt lat="44.07906" lon="4.07148">
        <ele>132.568</ele>
        <time>2019-10-26T10:56:28Z</time>
      </trkpt>
      <trkpt lat="44.08044" lon="4.07106">
        <ele>133.589</ele>
        <time>2019-10-26T10:56:58Z</time>
      </trkpt>
      <trkpt lat="44.08151" lon="4.07151">
        <ele>135.78</ele>
        <time>2019-10-26T10:57:28Z</time>
      </trkpt>
      <trkpt lat="44.08234" lon="4.07339">
        <ele>135.754</ele>
        <time>2019-10-26T10:58:01Z</time>
      </trkpt>
      <trkpt lat="44.08312" lon="4.07499">
        <ele>138.316</ele>
        <time>2019-10-26T10:58:31Z</time>
      </trkpt>
      <trkpt lat="44.08415" lon="4.07695">
        <ele>140.232</ele>
        <time>2019-10-26T10:59:04Z</time>
      </trkpt>
      <trkpt lat="44.08568" lon="4.07731">
        <ele>147.89</ele>
        <time>2019-10-26T10:59:34Z</time>
      </trkpt>
      <trkpt lat="44.08747" lon="4.07779">
        <ele>141.753</ele>
        <time>2019-10-26T11:00:07Z</time>
      </trkpt>
      <trkpt lat="44.09009" lon="4.07855">
        <ele>121.605</ele>
        <time>2019-10-26T11:00:37Z</time>
      </trkpt>
      <trkpt lat="44.0919" lon="4.07901">
        <ele>124.472</ele>
        <time>2019-10-26T11:01:10Z</time>
      </trkpt>
      <trkpt lat="44.09339" lon="4.07947">
        <ele>130.678</ele>
        <time>2019-10-26T11:01:40Z</time>
      </trkpt>
      <trkpt lat="44.09425" lon="4.07969">
        <ele>135.653</ele>
        <time>2019-10-26T11:02:13Z</time>
      </trkpt>
      <trkpt lat="44.09498" lon="4.07987">
        <ele>142.579</ele>
        <time>2019-10-26T11:02:43Z</time>
      </trkpt>
      <trkpt lat="44.09566" lon="4.08008">
        <ele>143.973</ele>
        <time>2019-10-26T11:03:13Z</time>
      </trkpt>
      <trkpt lat="44.09648" lon="4.08029">
        <ele>149.96</ele>
        <time>2019-10-26T11:03:46Z</time>
      </trkpt>
      <trkpt lat="44.09739" lon="4.08054">
        <ele>153.472</ele>
        <time>2019-10-26T11:04:16Z</time>
      </trkpt>
      <trkpt lat="44.09892" lon="4.08096">
        <ele>145.579</ele>
        <time>2019-10-26T11:04:49Z</time>
      </trkpt>
      <trkpt lat="44.10116" lon="4.08125">
        <ele>140.147</ele>
        <time>2019-10-26T11:05:19Z</time>
      </trkpt>
      <trkpt lat="44.10414" lon="4.08232">
        <ele>125.112</ele>
        <time>2019-10-26T11:05:52Z</time>
      </trkpt>
      <trkpt lat="44.10604" lon="4.08179">
        <ele>121.615</ele>
        <time>2019-10-26T11:06:22Z</time>
      </trkpt>
      <trkpt lat="44.10686" lon="4.08162">
        <ele>130.581</ele>
        <time>2019-10-26T11:10:37Z</time>
      </trkpt>
      <trkpt lat="44.10805" lon="4.08122">
        <ele>136.082</ele>
        <time>2019-10-26T11:11:07Z</time>
      </trkpt>
      <trkpt lat="44.10932" lon="4.08092">
        <ele>137.897</ele>
        <time>2019-10-26T11:11:40Z</time>
      </trkpt>
      <trkpt lat="44.11043" lon="4.08065">
        <ele>140.094</ele>
        <time>2019-10-26T11:12:10Z</time>
      </trkpt>
      <trkpt lat="44.11159" lon="4.08034">
        <ele>140.069</ele>
        <time>2019-10-26T11:12:40Z</time>
      </trkpt>
      <trkpt lat="44.11289" lon="4.07997">
        <ele>151.115</ele>
        <time>2019-10-26T11:13:13Z</time>
      </trkpt>
      <trkpt lat="44.11435" lon="4.08043">
        <ele>148.711</ele>
        <time>2019-10-26T11:13:43Z</time>
      </trkpt>
      <trkpt lat="44.11572" lon="4.08102">
        <ele>148.131</ele>
        <time>2019-10-26T11:14:16Z</time>
      </trkpt>
      <trkpt lat="44.11695" lon="4.08127">
        <ele>154.702</ele>
        <time>2019-10-26T11:14:46Z</time>
      </trkpt>
      <trkpt lat="44.11825" lon="4.07999">
        <ele>149.082</ele>
        <time>2019-10-26T11:15:19Z</time>
      </trkpt>
      <trkpt lat="44.11974" lon="4.07904">
        <ele>145.039</ele>
        <time>2019-10-26T11:15:49Z</time>
      </trkpt>
      <trkpt lat="44.12052" lon="4.07882">
        <ele>137.837</ele>
        <time>2019-10-26T11:17:10Z</time>
      </trkpt>
      <trkpt lat="44.12096" lon="4.07748">
        <ele>134.357</ele>
        <time>2019-10-26T11:17:40Z</time>
      </trkpt>
      <trkpt lat="44.12122" lon="4.07593">
        <ele>136.545</ele>
        <time>2019-10-26T11:18:13Z</time>
      </trkpt>
      <trkpt lat="44.12139" lon="4.07552">
        <ele>135.471</ele>
        <time>2019-10-26T11:18:46Z</time>
      </trkpt>
      <trkpt lat="44.12169" lon="4.07498">
        <ele>133.114</ele>
        <time>2019-10-26T11:20:04Z</time>
      </trkpt>
      <trkpt lat="44.12242" lon="4.07381">
        <ele>140.48</ele>
        <time>2019-10-26T11:20:34Z</time>
      </trkpt>
      <trkpt lat="44.12339" lon="4.07275">
        <ele>140.386</ele>
        <time>2019-10-26T11:21:04Z</time>
      </trkpt>
      <trkpt lat="44.12473" lon="4.07237">
        <ele>132.691</ele>
        <time>2019-10-26T11:21:37Z</time>
      </trkpt>
      <trkpt lat="44.12593" lon="4.07305">
        <ele>133.454</ele>
        <time>2019-10-26T11:22:07Z</time>
      </trkpt>
      <trkpt lat="44.12732" lon="4.07315">
        <ele>136.909</ele>
        <time>2019-10-26T11:22:40Z</time>
      </trkpt>
      <trkpt lat="44.12884" lon="4.07309">
        <ele>132.409</ele>
        <time>2019-10-26T11:23:10Z</time>
      </trkpt>
      <trkpt lat="44.13038" lon="4.07388">
        <ele>135.699</ele>
        <time>2019-10-26T11:23:43Z</time>
      </trkpt>
      <trkpt lat="44.13148" lon="4.07521">
        <ele>138.489</ele>
        <time>2019-10-26T11:24:13Z</time>
      </trkpt>
      <trkpt lat="44.13258" lon="4.07688">
        <ele>138.394</ele>
        <time>2019-10-26T11:24:46Z</time>
      </trkpt>
      <trkpt lat="44.13363" lon="4.07811">
        <ele>137.138</ele>
        <time>2019-10-26T11:25:16Z</time>
      </trkpt>
      <trkpt lat="44.13421" lon="4.07751">
        <ele>137.791</ele>
        <time>2019-10-26T11:25:58Z</time>
      </trkpt>
      <trkpt lat="44.13521" lon="4.07781">
        <ele>137.651</ele>
        <time>2019-10-26T11:26:28Z</time>
      </trkpt>
      <trkpt lat="44.13668" lon="4.07845">
        <ele>131.881</ele>
        <time>2019-10-26T11:26:58Z</time>
      </trkpt>
      <trkpt lat="44.13834" lon="4.07854">
        <ele>133.454</ele>
        <time>2019-10-26T11:27:31Z</time>
      </trkpt>
      <trkpt lat="44.13978" lon="4.07813">
        <ele>135.857</ele>
        <time>2019-10-26T11:28:01Z</time>
      </trkpt>
      <trkpt lat="44.14129" lon="4.07749">
        <ele>138.04</ele>
        <time>2019-10-26T11:28:34Z</time>
      </trkpt>
      <trkpt lat="44.14268" lon="4.07681">
        <ele>136.428</ele>
        <time>2019-10-26T11:29:04Z</time>
      </trkpt>
      <trkpt lat="44.14346" lon="4.07518">
        <ele>135.852</ele>
        <time>2019-10-26T11:29:37Z</time>
      </trkpt>
      <trkpt lat="44.14411" lon="4.07417">
        <ele>142.595</ele>
        <time>2019-10-26T11:30:07Z</time>
      </trkpt>
      <trkpt lat="44.14508" lon="4.0722">
        <ele>145.627</ele>
        <time>2019-10-26T11:30:40Z</time>
      </trkpt>
      <trkpt lat="44.14511" lon="4.07031">
        <ele>138.777</ele>
        <time>2019-10-26T11:31:10Z</time>
      </trkpt>
      <trkpt lat="44.14436" lon="4.0684">
        <ele>139.871</ele>
        <time>2019-10-26T11:31:43Z</time>
      </trkpt>
      <trkpt lat="44.14365" lon="4.06681">
        <ele>144.106</ele>
        <time>2019-10-26T11:32:13Z</time>
      </trkpt>
      <trkpt lat="44.14359" lon="4.06496">
        <ele>151.766</ele>
        <time>2019-10-26T11:32:43Z</time>
      </trkpt>
      <trkpt lat="44.14443" lon="4.06319">
        <ele>160</ele>
        <time>2019-10-26T11:33:16Z</time>
      </trkpt>
      <trkpt lat="44.14569" lon="4.06174">
        <ele>150.904</ele>
        <time>2019-10-26T11:33:46Z</time>
      </trkpt>
      <trkpt lat="44.14678" lon="4.06002">
        <ele>144.603</ele>
        <time>2019-10-26T11:34:19Z</time>
      </trkpt>
      <trkpt lat="44.14745" lon="4.05861">
        <ele>151.434</ele>
        <time>2019-10-26T11:34:49Z</time>
      </trkpt>
      <trkpt lat="44.1487" lon="4.05761">
        <ele>151.771</ele>
        <time>2019-10-26T11:35:22Z</time>
      </trkpt>
      <trkpt lat="44.14993" lon="4.05746">
        <ele>151.946</ele>
        <time>2019-10-26T11:35:52Z</time>
      </trkpt>
      <trkpt lat="44.15136" lon="4.0576">
        <ele>155.253</ele>
        <time>2019-10-26T11:36:25Z</time>
      </trkpt>
      <trkpt lat="44.15188" lon="4.05699">
        <ele>152.761</ele>
        <time>2019-10-26T11:38:40Z</time>
      </trkpt>
      <trkpt lat="44.15331" lon="4.05648">
        <ele>154.128</ele>
        <time>2019-10-26T11:39:13Z</time>
      </trkpt>
      <trkpt lat="44.15526" lon="4.05628">
        <ele>149.997</ele>
        <time>2019-10-26T11:39:43Z</time>
      </trkpt>
      <trkpt lat="44.15655" lon="4.05704">
        <ele>151.399</ele>
        <time>2019-10-26T11:40:13Z</time>
      </trkpt>
      <trkpt lat="44.15832" lon="4.05717">
        <ele>156.495</ele>
        <time>2019-10-26T11:40:46Z</time>
      </trkpt>
      <trkpt lat="44.15985" lon="4.05713">
        <ele>153.837</ele>
        <time>2019-10-26T11:41:16Z</time>
      </trkpt>
      <trkpt lat="44.16118" lon="4.05662">
        <ele>156.923</ele>
        <time>2019-10-26T11:41:49Z</time>
      </trkpt>
      <trkpt lat="44.16241" lon="4.05635">
        <ele>160.357</ele>
        <time>2019-10-26T11:42:19Z</time>
      </trkpt>
      <trkpt lat="44.16372" lon="4.05549">
        <ele>159.75</ele>
        <time>2019-10-26T11:42:52Z</time>
      </trkpt>
      <trkpt lat="44.1638" lon="4.05408">
        <ele>162.045</ele>
        <time>2019-10-26T11:43:22Z</time>
      </trkpt>
      <trkpt lat="44.16443" lon="4.05309">
        <ele>170.617</ele>
        <time>2019-10-26T11:43:55Z</time>
      </trkpt>
      <trkpt lat="44.16484" lon="4.05187">
        <ele>167.108</ele>
        <time>2019-10-26T11:44:25Z</time>
      </trkpt>
      <trkpt lat="44.16628" lon="4.04972">
        <ele>170.608</ele>
        <time>2019-10-26T11:44:58Z</time>
      </trkpt>
      <trkpt lat="44.16798" lon="4.04927">
        <ele>166.519</ele>
        <time>2019-10-26T11:45:28Z</time>
      </trkpt>
      <trkpt lat="44.16925" lon="4.05085">
        <ele>161.16</ele>
        <time>2019-10-26T11:45:58Z</time>
      </trkpt>
      <trkpt lat="44.16996" lon="4.051">
        <ele>156.194</ele>
        <time>2019-10-26T11:46:34Z</time>
      </trkpt>
      <trkpt lat="44.17051" lon="4.04964">
        <ele>157.991</ele>
        <time>2019-10-26T11:47:04Z</time>
      </trkpt>
      <trkpt lat="44.17193" lon="4.04878">
        <ele>166.219</ele>
        <time>2019-10-26T11:47:37Z</time>
      </trkpt>
      <trkpt lat="44.17337" lon="4.04869">
        <ele>161.279</ele>
        <time>2019-10-26T11:48:07Z</time>
      </trkpt>
      <trkpt lat="44.17488" lon="4.04924">
        <ele>161.684</ele>
        <time>2019-10-26T11:48:40Z</time>
      </trkpt>
      <trkpt lat="44.17612" lon="4.0501">
        <ele>159.515</ele>
        <time>2019-10-26T11:49:10Z</time>
      </trkpt>
      <trkpt lat="44.17724" lon="4.05133">
        <ele>164.873</ele>
        <time>2019-10-26T11:49:43Z</time>
      </trkpt>
      <trkpt lat="44.17842" lon="4.05166">
        <ele>165.897</ele>
        <time>2019-10-26T11:50:13Z</time>
      </trkpt>
      <trkpt lat="44.17972" lon="4.051">
        <ele>165.951</ele>
        <time>2019-10-26T11:50:46Z</time>
      </trkpt>
      <trkpt lat="44.18074" lon="4.04998">
        <ele>169.296</ele>
        <time>2019-10-26T11:51:16Z</time>
      </trkpt>
      <trkpt lat="44.18151" lon="4.04879">
        <ele>176.745</ele>
        <time>2019-10-26T11:51:49Z</time>
      </trkpt>
      <trkpt lat="44.18227" lon="4.0476">
        <ele>175.18</ele>
        <time>2019-10-26T11:52:19Z</time>
      </trkpt>
      <trkpt lat="44.18371" lon="4.04607">
        <ele>171.334</ele>
        <time>2019-10-26T11:52:49Z</time>
      </trkpt>
      <trkpt lat="44.18493" lon="4.04577">
        <ele>173.758</ele>
        <time>2019-10-26T11:53:22Z</time>
      </trkpt>
      <trkpt lat="44.18594" lon="4.04553">
        <ele>177.202</ele>
        <time>2019-10-26T11:53:52Z</time>
      </trkpt>
      <trkpt lat="44.18722" lon="4.04522">
        <ele>183.923</ele>
        <time>2019-10-26T11:54:25Z</time>
      </trkpt>
      <trkpt lat="44.18838" lon="4.04487">
        <ele>184.653</ele>
        <time>2019-10-26T11:54:55Z</time>
      </trkpt>
      <trkpt lat="44.18974" lon="4.04437">
        <ele>181.794</ele>
        <time>2019-10-26T11:55:28Z</time>
      </trkpt>
      <trkpt lat="44.19116" lon="4.04409">
        <ele>180.294</ele>
        <time>2019-10-26T11:55:58Z</time>
      </trkpt>
      <trkpt lat="44.19408" lon="4.04473">
        <ele>168.66</ele>
        <time>2019-10-26T11:56:31Z</time>
      </trkpt>
      <trkpt lat="44.1956" lon="4.04528">
        <ele>164.812</ele>
        <time>2019-10-26T11:57:01Z</time>
      </trkpt>
      <trkpt lat="44.1972" lon="4.04551">
        <ele>173.099</ele>
        <time>2019-10-26T11:57:34Z</time>
      </trkpt>
      <trkpt lat="44.19841" lon="4.04585">
        <ele>177.31</ele>
        <time>2019-10-26T11:58:04Z</time>
      </trkpt>
      <trkpt lat="44.19922" lon="4.04691">
        <ele>183.735</ele>
        <time>2019-10-26T11:58:34Z</time>
      </trkpt>
      <trkpt lat="44.20039" lon="4.04791">
        <ele>178.719</ele>
        <time>2019-10-26T11:59:07Z</time>
      </trkpt>
      <trkpt lat="44.20059" lon="4.04659">
        <ele>178.961</ele>
        <time>2019-10-26T11:59:37Z</time>
      </trkpt>
      <trkpt lat="44.20003" lon="4.0446">
        <ele>173.615</ele>
        <time>2019-10-26T12:00:10Z</time>
      </trkpt>
      <trkpt lat="44.19975" lon="4.04266">
        <ele>174.222</ele>
        <time>2019-10-26T12:00:40Z</time>
      </trkpt>
      <trkpt lat="44.1996" lon="4.04086">
        <ele>176.341</ele>
        <time>2019-10-26T12:01:13Z</time>
      </trkpt>
      <trkpt lat="44.20049" lon="4.03989">
        <ele>178.613</ele>
        <time>2019-10-26T12:01:43Z</time>
      </trkpt>
      <trkpt lat="44.20176" lon="4.03887">
        <ele>177.229</ele>
        <time>2019-10-26T12:02:16Z</time>
      </trkpt>
      <trkpt lat="44.2025" lon="4.03764">
        <ele>176.38</ele>
        <time>2019-10-26T12:02:46Z</time>
      </trkpt>
      <trkpt lat="44.20337" lon="4.03874">
        <ele>177.042</ele>
        <time>2019-10-26T12:03:19Z</time>
      </trkpt>
      <trkpt lat="44.20481" lon="4.03909">
        <ele>178.501</ele>
        <time>2019-10-26T12:03:49Z</time>
      </trkpt>
      <trkpt lat="44.20605" lon="4.03921">
        <ele>179.805</ele>
        <time>2019-10-26T12:04:19Z</time>
      </trkpt>
      <trkpt lat="44.20732" lon="4.03861">
        <ele>182.733</ele>
        <time>2019-10-26T12:04:52Z</time>
      </trkpt>
      <trkpt lat="44.20769" lon="4.03818">
        <ele>183.575</ele>
        <time>2019-10-26T12:07:37Z</time>
      </trkpt>
      <trkpt lat="44.20779" lon="4.03795">
        <ele>183.672</ele>
        <time>2019-10-26T12:25:19Z</time>
      </trkpt>
      <trkpt lat="44.20831" lon="4.03666">
        <ele>185.536</ele>
        <time>2019-10-26T12:25:49Z</time>
      </trkpt>
      <trkpt lat="44.20833" lon="4.03487">
        <ele>184.884</ele>
        <time>2019-10-26T12:26:22Z</time>
      </trkpt>
      <trkpt lat="44.20758" lon="4.03431">
        <ele>194.472</ele>
        <time>2019-10-26T12:26:52Z</time>
      </trkpt>
      <trkpt lat="44.2074" lon="4.03297">
        <ele>201.967</ele>
        <time>2019-10-26T12:27:25Z</time>
      </trkpt>
      <trkpt lat="44.20721" lon="4.03159">
        <ele>201.302</ele>
        <time>2019-10-26T12:27:55Z</time>
      </trkpt>
      <trkpt lat="44.20718" lon="4.03026">
        <ele>198.279</ele>
        <time>2019-10-26T12:28:28Z</time>
      </trkpt>
      <trkpt lat="44.2081" lon="4.03004">
        <ele>192.659</ele>
        <time>2019-10-26T12:28:58Z</time>
      </trkpt>
      <trkpt lat="44.209" lon="4.0298">
        <ele>195.177</ele>
        <time>2019-10-26T12:29:28Z</time>
      </trkpt>
      <trkpt lat="44.21006" lon="4.02976">
        <ele>199.683</ele>
        <time>2019-10-26T12:30:01Z</time>
      </trkpt>
      <trkpt lat="44.21057" lon="4.02948">
        <ele>205.036</ele>
        <time>2019-10-26T12:30:31Z</time>
      </trkpt>
      <trkpt lat="44.21057" lon="4.02894">
        <ele>204.543</ele>
        <time>2019-10-26T12:32:34Z</time>
      </trkpt>
      <trkpt lat="44.21087" lon="4.02815">
        <ele>207.234</ele>
        <time>2019-10-26T12:33:16Z</time>
      </trkpt>
      <trkpt lat="44.21128" lon="4.02622">
        <ele>206.424</ele>
        <time>2019-10-26T12:33:49Z</time>
      </trkpt>
      <trkpt lat="44.21128" lon="4.02555">
        <ele>200.195</ele>
        <time>2019-10-26T12:34:19Z</time>
      </trkpt>
      <trkpt lat="44.21203" lon="4.02412">
        <ele>193.985</ele>
        <time>2019-10-26T12:34:52Z</time>
      </trkpt>
      <trkpt lat="44.21309" lon="4.02304">
        <ele>193.777</ele>
        <time>2019-10-26T12:35:22Z</time>
      </trkpt>
      <trkpt lat="44.21439" lon="4.02256">
        <ele>199.836</ele>
        <time>2019-10-26T12:35:55Z</time>
      </trkpt>
      <trkpt lat="44.2151" lon="4.02196">
        <ele>209.732</ele>
        <time>2019-10-26T12:36:25Z</time>
      </trkpt>
      <trkpt lat="44.21596" lon="4.02135">
        <ele>211.876</ele>
        <time>2019-10-26T12:36:58Z</time>
      </trkpt>
      <trkpt lat="44.21705" lon="4.02058">
        <ele>215.959</ele>
        <time>2019-10-26T12:37:28Z</time>
      </trkpt>
      <trkpt lat="44.21859" lon="4.01909">
        <ele>218.776</ele>
        <time>2019-10-26T12:37:58Z</time>
      </trkpt>
      <trkpt lat="44.22026" lon="4.01814">
        <ele>202.217</ele>
        <time>2019-10-26T12:38:31Z</time>
      </trkpt>
      <trkpt lat="44.22129" lon="4.01681">
        <ele>204.264</ele>
        <time>2019-10-26T12:39:01Z</time>
      </trkpt>
      <trkpt lat="44.22238" lon="4.01543">
        <ele>206.205</ele>
        <time>2019-10-26T12:39:34Z</time>
      </trkpt>
      <trkpt lat="44.22299" lon="4.01493">
        <ele>207.879</ele>
        <time>2019-10-26T12:40:04Z</time>
      </trkpt>
      <trkpt lat="44.22363" lon="4.01476">
        <ele>217.544</ele>
        <time>2019-10-26T12:40:37Z</time>
      </trkpt>
      <trkpt lat="44.22407" lon="4.01445">
        <ele>218.223</ele>
        <time>2019-10-26T12:41:07Z</time>
      </trkpt>
      <trkpt lat="44.22453" lon="4.01374">
        <ele>228.796</ele>
        <time>2019-10-26T12:41:43Z</time>
      </trkpt>
      <trkpt lat="44.22514" lon="4.01349">
        <ele>234.123</ele>
        <time>2019-10-26T12:42:13Z</time>
      </trkpt>
      <trkpt lat="44.22576" lon="4.01341">
        <ele>237.962</ele>
        <time>2019-10-26T12:42:49Z</time>
      </trkpt>
      <trkpt lat="44.22645" lon="4.0133">
        <ele>248.982</ele>
        <time>2019-10-26T12:43:34Z</time>
      </trkpt>
      <trkpt lat="44.22685" lon="4.01317">
        <ele>250.186</ele>
        <time>2019-10-26T12:45:52Z</time>
      </trkpt>
      <trkpt lat="44.22625" lon="4.01324">
        <ele>248.29</ele>
        <time>2019-10-26T12:48:22Z</time>
      </trkpt>
      <trkpt lat="44.22505" lon="4.01336">
        <ele>225.115</ele>
        <time>2019-10-26T12:48:55Z</time>
      </trkpt>
      <trkpt lat="44.22636" lon="4.01261">
        <ele>217.561</ele>
        <time>2019-10-26T12:49:28Z</time>
      </trkpt>
      <trkpt lat="44.22774" lon="4.01167">
        <ele>210.097</ele>
        <time>2019-10-26T12:49:58Z</time>
      </trkpt>
      <trkpt lat="44.22879" lon="4.0106">
        <ele>207.59</ele>
        <time>2019-10-26T12:50:31Z</time>
      </trkpt>
      <trkpt lat="44.22816" lon="4.01034">
        <ele>211.924</ele>
        <time>2019-10-26T12:51:04Z</time>
      </trkpt>
      <trkpt lat="44.22818" lon="4.00926">
        <ele>210.649</ele>
        <time>2019-10-26T12:51:37Z</time>
      </trkpt>
      <trkpt lat="44.22887" lon="4.00792">
        <ele>213.999</ele>
        <time>2019-10-26T12:52:07Z</time>
      </trkpt>
      <trkpt lat="44.22968" lon="4.00653">
        <ele>217.938</ele>
        <time>2019-10-26T12:52:40Z</time>
      </trkpt>
      <trkpt lat="44.23046" lon="4.0052">
        <ele>217.705</ele>
        <time>2019-10-26T12:53:10Z</time>
      </trkpt>
      <trkpt lat="44.23103" lon="4.00364">
        <ele>217.281</ele>
        <time>2019-10-26T12:53:40Z</time>
      </trkpt>
      <trkpt lat="44.2306" lon="4.00153">
        <ele>214.373</ele>
        <time>2019-10-26T12:54:13Z</time>
      </trkpt>
      <trkpt lat="44.23011" lon="3.99971">
        <ele>215.197</ele>
        <time>2019-10-26T12:54:43Z</time>
      </trkpt>
      <trkpt lat="44.2301" lon="3.99815">
        <ele>220.696</ele>
        <time>2019-10-26T12:55:16Z</time>
      </trkpt>
      <trkpt lat="44.23027" lon="3.99725">
        <ele>224.958</ele>
        <time>2019-10-26T12:55:49Z</time>
      </trkpt>
      <trkpt lat="44.23046" lon="3.99634">
        <ele>235.297</ele>
        <time>2019-10-26T12:56:22Z</time>
      </trkpt>
      <trkpt lat="44.23088" lon="3.996">
        <ele>238.068</ele>
        <time>2019-10-26T12:56:52Z</time>
      </trkpt>
      <trkpt lat="44.23141" lon="3.99528">
        <ele>245.411</ele>
        <time>2019-10-26T12:57:25Z</time>
      </trkpt>
      <trkpt lat="44.23197" lon="3.99509">
        <ele>254.308</ele>
        <time>2019-10-26T12:57:58Z</time>
      </trkpt>
      <trkpt lat="44.23262" lon="3.99487">
        <ele>257.868</ele>
        <time>2019-10-26T12:58:40Z</time>
      </trkpt>
      <trkpt lat="44.23289" lon="3.9941">
        <ele>261.17</ele>
        <time>2019-10-26T12:59:22Z</time>
      </trkpt>
      <trkpt lat="44.23332" lon="3.9935">
        <ele>269.804</ele>
        <time>2019-10-26T13:00:01Z</time>
      </trkpt>
      <trkpt lat="44.23384" lon="3.99299">
        <ele>272.678</ele>
        <time>2019-10-26T13:00:34Z</time>
      </trkpt>
      <trkpt lat="44.2344" lon="3.99249">
        <ele>276.471</ele>
        <time>2019-10-26T13:01:04Z</time>
      </trkpt>
      <trkpt lat="44.23512" lon="3.99255">
        <ele>279.654</ele>
        <time>2019-10-26T13:01:37Z</time>
      </trkpt>
      <trkpt lat="44.23572" lon="3.99225">
        <ele>286.891</ele>
        <time>2019-10-26T13:02:07Z</time>
      </trkpt>
      <trkpt lat="44.23652" lon="3.99143">
        <ele>288.838</ele>
        <time>2019-10-26T13:02:40Z</time>
      </trkpt>
      <trkpt lat="44.23683" lon="3.99082">
        <ele>287.691</ele>
        <time>2019-10-26T13:03:10Z</time>
      </trkpt>
      <trkpt lat="44.23728" lon="3.99012">
        <ele>291.101</ele>
        <time>2019-10-26T13:03:52Z</time>
      </trkpt>
      <trkpt lat="44.23775" lon="3.98957">
        <ele>293.904</ele>
        <time>2019-10-26T13:04:25Z</time>
      </trkpt>
      <trkpt lat="44.2384" lon="3.98924">
        <ele>302.367</ele>
        <time>2019-10-26T13:05:01Z</time>
      </trkpt>
      <trkpt lat="44.23994" lon="3.98908">
        <ele>299.291</ele>
        <time>2019-10-26T13:05:31Z</time>
      </trkpt>
      <trkpt lat="44.24135" lon="3.98752">
        <ele>272.632</ele>
        <time>2019-10-26T13:06:04Z</time>
      </trkpt>
      <trkpt lat="44.24197" lon="3.98735">
        <ele>260.025</ele>
        <time>2019-10-26T13:06:46Z</time>
      </trkpt>
      <trkpt lat="44.24191" lon="3.98714">
        <ele>257.724</ele>
        <time>2019-10-26T13:09:25Z</time>
      </trkpt>
      <trkpt lat="44.24243" lon="3.98641">
        <ele>249.705</ele>
        <time>2019-10-26T13:10:01Z</time>
      </trkpt>
      <trkpt lat="44.2438" lon="3.98619">
        <ele>249.114</ele>
        <time>2019-10-26T13:10:31Z</time>
      </trkpt>
      <trkpt lat="44.24567" lon="3.98504">
        <ele>249.862</ele>
        <time>2019-10-26T13:11:04Z</time>
      </trkpt>
      <trkpt lat="44.24435" lon="3.98464">
        <ele>255.32</ele>
        <time>2019-10-26T13:11:34Z</time>
      </trkpt>
      <trkpt lat="44.24416" lon="3.98359">
        <ele>256.73</ele>
        <time>2019-10-26T13:12:10Z</time>
      </trkpt>
      <trkpt lat="44.24411" lon="3.98282">
        <ele>259.908</ele>
        <time>2019-10-26T13:12:40Z</time>
      </trkpt>
      <trkpt lat="44.2439" lon="3.98199">
        <ele>264.716</ele>
        <time>2019-10-26T13:13:13Z</time>
      </trkpt>
      <trkpt lat="44.2436" lon="3.98119">
        <ele>268.098</ele>
        <time>2019-10-26T13:13:49Z</time>
      </trkpt>
      <trkpt lat="44.24308" lon="3.98024">
        <ele>272.153</ele>
        <time>2019-10-26T13:14:22Z</time>
      </trkpt>
      <trkpt lat="44.24466" lon="3.97867">
        <ele>267.481</ele>
        <time>2019-10-26T13:14:52Z</time>
      </trkpt>
      <trkpt lat="44.24678" lon="3.9785">
        <ele>263.68</ele>
        <time>2019-10-26T13:15:22Z</time>
      </trkpt>
      <trkpt lat="44.24861" lon="3.97888">
        <ele>258.629</ele>
        <time>2019-10-26T13:15:55Z</time>
      </trkpt>
      <trkpt lat="44.24931" lon="3.97752">
        <ele>267.211</ele>
        <time>2019-10-26T13:16:25Z</time>
      </trkpt>
      <trkpt lat="44.24909" lon="3.97564">
        <ele>269.323</ele>
        <time>2019-10-26T13:16:58Z</time>
      </trkpt>
      <trkpt lat="44.24849" lon="3.97437">
        <ele>271.875</ele>
        <time>2019-10-26T13:17:28Z</time>
      </trkpt>
      <trkpt lat="44.24955" lon="3.97369">
        <ele>266.644</ele>
        <time>2019-10-26T13:18:01Z</time>
      </trkpt>
      <trkpt lat="44.25066" lon="3.97351">
        <ele>267.82</ele>
        <time>2019-10-26T13:18:31Z</time>
      </trkpt>
      <trkpt lat="44.25155" lon="3.97212">
        <ele>273.73</ele>
        <time>2019-10-26T13:19:04Z</time>
      </trkpt>
      <trkpt lat="44.25209" lon="3.97025">
        <ele>273.061</ele>
        <time>2019-10-26T13:19:34Z</time>
      </trkpt>
      <trkpt lat="44.25247" lon="3.96861">
        <ele>283.978</ele>
        <time>2019-10-26T13:20:07Z</time>
      </trkpt>
      <trkpt lat="44.25186" lon="3.96702">
        <ele>291.937</ele>
        <time>2019-10-26T13:20:37Z</time>
      </trkpt>
      <trkpt lat="44.25123" lon="3.96555">
        <ele>284.834</ele>
        <time>2019-10-26T13:21:07Z</time>
      </trkpt>
      <trkpt lat="44.2506" lon="3.96412">
        <ele>285.774</ele>
        <time>2019-10-26T13:21:40Z</time>
      </trkpt>
      <trkpt lat="44.25123" lon="3.9628">
        <ele>291.682</ele>
        <time>2019-10-26T13:22:10Z</time>
      </trkpt>
      <trkpt lat="44.25181" lon="3.96142">
        <ele>294.308</ele>
        <time>2019-10-26T13:22:43Z</time>
      </trkpt>
      <trkpt lat="44.25135" lon="3.96021">
        <ele>302.998</ele>
        <time>2019-10-26T13:23:13Z</time>
      </trkpt>
      <trkpt lat="44.2506" lon="3.95901">
        <ele>303.913</ele>
        <time>2019-10-26T13:23:46Z</time>
      </trkpt>
      <trkpt lat="44.25007" lon="3.95819">
        <ele>312.284</ele>
        <time>2019-10-26T13:24:16Z</time>
      </trkpt>
      <trkpt lat="44.25044" lon="3.95664">
        <ele>304.593</ele>
        <time>2019-10-26T13:24:49Z</time>
      </trkpt>
      <trkpt lat="44.25093" lon="3.95424">
        <ele>302.277</ele>
        <time>2019-10-26T13:25:19Z</time>
      </trkpt>
      <trkpt lat="44.25065" lon="3.95302">
        <ele>301.59</ele>
        <time>2019-10-26T13:25:52Z</time>
      </trkpt>
      <trkpt lat="44.25026" lon="3.95252">
        <ele>305.321</ele>
        <time>2019-10-26T13:39:43Z</time>
      </trkpt>
      <trkpt lat="44.2499" lon="3.95216">
        <ele>301.058</ele>
        <time>2019-10-26T13:40:16Z</time>
      </trkpt>
      <trkpt lat="44.24974" lon="3.95131">
        <ele>306.45</ele>
        <time>2019-10-26T13:40:49Z</time>
      </trkpt>
      <trkpt lat="44.24916" lon="3.95092">
        <ele>318.16</ele>
        <time>2019-10-26T13:41:34Z</time>
      </trkpt>
      <trkpt lat="44.24968" lon="3.95063">
        <ele>324.581</ele>
        <time>2019-10-26T13:42:19Z</time>
      </trkpt>
      <trkpt lat="44.25019" lon="3.95068">
        <ele>334.947</ele>
        <time>2019-10-26T13:42:58Z</time>
      </trkpt>
      <trkpt lat="44.24975" lon="3.95019">
        <ele>339.937</ele>
        <time>2019-10-26T13:43:34Z</time>
      </trkpt>
      <trkpt lat="44.24933" lon="3.94959">
        <ele>346.258</ele>
        <time>2019-10-26T13:44:16Z</time>
      </trkpt>
      <trkpt lat="44.24897" lon="3.9489">
        <ele>356.775</ele>
        <time>2019-10-26T13:44:52Z</time>
      </trkpt>
      <trkpt lat="44.24859" lon="3.94831">
        <ele>359.887</ele>
        <time>2019-10-26T13:45:28Z</time>
      </trkpt>
      <trkpt lat="44.24828" lon="3.94882">
        <ele>359.805</ele>
        <time>2019-10-26T13:46:13Z</time>
      </trkpt>
      <trkpt lat="44.24797" lon="3.94842">
        <ele>356.944</ele>
        <time>2019-10-26T13:46:49Z</time>
      </trkpt>
      <trkpt lat="44.24798" lon="3.9477">
        <ele>360.397</ele>
        <time>2019-10-26T13:47:19Z</time>
      </trkpt>
      <trkpt lat="44.24842" lon="3.94705">
        <ele>373.621</ele>
        <time>2019-10-26T13:48:04Z</time>
      </trkpt>
      <trkpt lat="44.24893" lon="3.94648">
        <ele>389.174</ele>
        <time>2019-10-26T13:48:52Z</time>
      </trkpt>
      <trkpt lat="44.24885" lon="3.94605">
        <ele>384.126</ele>
        <time>2019-10-26T13:49:43Z</time>
      </trkpt>
      <trkpt lat="44.24937" lon="3.94621">
        <ele>392.341</ele>
        <time>2019-10-26T13:50:19Z</time>
      </trkpt>
      <trkpt lat="44.24998" lon="3.94582">
        <ele>409.057</ele>
        <time>2019-10-26T13:51:10Z</time>
      </trkpt>
      <trkpt lat="44.25052" lon="3.94587">
        <ele>422.064</ele>
        <time>2019-10-26T13:51:58Z</time>
      </trkpt>
      <trkpt lat="44.25056" lon="3.9467">
        <ele>411.234</ele>
        <time>2019-10-26T13:52:37Z</time>
      </trkpt>
      <trkpt lat="44.25075" lon="3.94742">
        <ele>411.848</ele>
        <time>2019-10-26T13:53:10Z</time>
      </trkpt>
      <trkpt lat="44.25106" lon="3.94795">
        <ele>418.996</ele>
        <time>2019-10-26T13:58:04Z</time>
      </trkpt>
      <trkpt lat="44.2515" lon="3.94746">
        <ele>426.247</ele>
        <time>2019-10-26T13:58:43Z</time>
      </trkpt>
      <trkpt lat="44.25186" lon="3.94662">
        <ele>438.557</ele>
        <time>2019-10-26T13:59:34Z</time>
      </trkpt>
      <trkpt lat="44.25234" lon="3.9462">
        <ele>447.215</ele>
        <time>2019-10-26T14:00:10Z</time>
      </trkpt>
      <trkpt lat="44.25282" lon="3.94648">
        <ele>452.415</ele>
        <time>2019-10-26T14:00:43Z</time>
      </trkpt>
      <trkpt lat="44.2535" lon="3.94646">
        <ele>469.152</ele>
        <time>2019-10-26T14:01:28Z</time>
      </trkpt>
      <trkpt lat="44.25368" lon="3.94703">
        <ele>470.254</ele>
        <time>2019-10-26T14:02:07Z</time>
      </trkpt>
      <trkpt lat="44.25409" lon="3.94773">
        <ele>471.742</ele>
        <time>2019-10-26T14:02:52Z</time>
      </trkpt>
      <trkpt lat="44.25463" lon="3.94807">
        <ele>476.215</ele>
        <time>2019-10-26T14:03:28Z</time>
      </trkpt>
      <trkpt lat="44.25539" lon="3.94846">
        <ele>486.258</ele>
        <time>2019-10-26T14:04:22Z</time>
      </trkpt>
      <trkpt lat="44.25549" lon="3.94802">
        <ele>486.217</ele>
        <time>2019-10-26T14:05:04Z</time>
      </trkpt>
      <trkpt lat="44.2552" lon="3.94725">
        <ele>483.32</ele>
        <time>2019-10-26T14:05:40Z</time>
      </trkpt>
      <trkpt lat="44.25485" lon="3.94645">
        <ele>489.923</ele>
        <time>2019-10-26T14:06:22Z</time>
      </trkpt>
      <trkpt lat="44.25499" lon="3.94567">
        <ele>494.254</ele>
        <time>2019-10-26T14:07:04Z</time>
      </trkpt>
      <trkpt lat="44.25515" lon="3.94502">
        <ele>499.795</ele>
        <time>2019-10-26T14:07:37Z</time>
      </trkpt>
      <trkpt lat="44.25494" lon="3.9443">
        <ele>508.045</ele>
        <time>2019-10-26T14:08:22Z</time>
      </trkpt>
      <trkpt lat="44.25475" lon="3.94351">
        <ele>516.766</ele>
        <time>2019-10-26T14:09:01Z</time>
      </trkpt>
      <trkpt lat="44.25465" lon="3.94279">
        <ele>518.866</ele>
        <time>2019-10-26T14:09:34Z</time>
      </trkpt>
      <trkpt lat="44.25424" lon="3.94193">
        <ele>522.784</ele>
        <time>2019-10-26T14:10:25Z</time>
      </trkpt>
      <trkpt lat="44.25384" lon="3.9413">
        <ele>532.531</ele>
        <time>2019-10-26T14:11:07Z</time>
      </trkpt>
      <trkpt lat="44.2539" lon="3.94068">
        <ele>535.78</ele>
        <time>2019-10-26T14:17:13Z</time>
      </trkpt>
      <trkpt lat="44.25435" lon="3.94113">
        <ele>544.811</ele>
        <time>2019-10-26T14:17:52Z</time>
      </trkpt>
      <trkpt lat="44.25491" lon="3.94139">
        <ele>544.067</ele>
        <time>2019-10-26T14:18:25Z</time>
      </trkpt>
      <trkpt lat="44.25541" lon="3.94172">
        <ele>550.578</ele>
        <time>2019-10-26T14:19:01Z</time>
      </trkpt>
      <trkpt lat="44.25516" lon="3.94083">
        <ele>547.89</ele>
        <time>2019-10-26T14:19:46Z</time>
      </trkpt>
      <trkpt lat="44.25567" lon="3.94138">
        <ele>559.548</ele>
        <time>2019-10-26T14:20:31Z</time>
      </trkpt>
      <trkpt lat="44.25623" lon="3.94167">
        <ele>570.226</ele>
        <time>2019-10-26T14:21:10Z</time>
      </trkpt>
      <trkpt lat="44.25671" lon="3.94223">
        <ele>578.831</ele>
        <time>2019-10-26T14:21:49Z</time>
      </trkpt>
      <trkpt lat="44.25722" lon="3.94267">
        <ele>578.557</ele>
        <time>2019-10-26T14:22:22Z</time>
      </trkpt>
      <trkpt lat="44.25778" lon="3.94306">
        <ele>584.008</ele>
        <time>2019-10-26T14:23:04Z</time>
      </trkpt>
      <trkpt lat="44.25836" lon="3.94347">
        <ele>586.547</ele>
        <time>2019-10-26T14:23:46Z</time>
      </trkpt>
      <trkpt lat="44.25896" lon="3.94395">
        <ele>592.197</ele>
        <time>2019-10-26T14:24:31Z</time>
      </trkpt>
      <trkpt lat="44.25945" lon="3.94368">
        <ele>601.196</ele>
        <time>2019-10-26T14:25:10Z</time>
      </trkpt>
      <trkpt lat="44.26006" lon="3.94318">
        <ele>611.908</ele>
        <time>2019-10-26T14:25:58Z</time>
      </trkpt>
      <trkpt lat="44.26058" lon="3.94299">
        <ele>614.646</ele>
        <time>2019-10-26T14:26:31Z</time>
      </trkpt>
      <trkpt lat="44.26132" lon="3.94292">
        <ele>626.481</ele>
        <time>2019-10-26T14:27:22Z</time>
      </trkpt>
      <trkpt lat="44.26194" lon="3.94271">
        <ele>628.041</ele>
        <time>2019-10-26T14:28:13Z</time>
      </trkpt>
      <trkpt lat="44.26284" lon="3.94269">
        <ele>620.247</ele>
        <time>2019-10-26T14:30:49Z</time>
      </trkpt>
      <trkpt lat="44.26475" lon="3.94218">
        <ele>603.257</ele>
        <time>2019-10-26T14:31:22Z</time>
      </trkpt>
      <trkpt lat="44.26552" lon="3.94049">
        <ele>582.922</ele>
        <time>2019-10-26T14:31:52Z</time>
      </trkpt>
      <trkpt lat="44.26479" lon="3.93874">
        <ele>575.372</ele>
        <time>2019-10-26T14:32:25Z</time>
      </trkpt>
      <trkpt lat="44.26492" lon="3.93807">
        <ele>570.649</ele>
        <time>2019-10-26T14:33:37Z</time>
      </trkpt>
      <trkpt lat="44.26435" lon="3.93789">
        <ele>560.968</ele>
        <time>2019-10-26T14:35:04Z</time>
      </trkpt>
    </trkseg>
  </trk>
  <trk>
    <name><![CDATA[Tracé 20191027-093630]]></name>
    <trkseg>
      <trkpt lat="44.26409" lon="3.93807">
        <ele>565.005</ele>
        <time>2019-10-27T08:37:30Z</time>
      </trkpt>
      <trkpt lat="44.26475" lon="3.93804">
        <ele>563.943</ele>
        <time>2019-10-27T08:57:31Z</time>
      </trkpt>
      <trkpt lat="44.26477" lon="3.93926">
        <ele>574.337</ele>
        <time>2019-10-27T08:59:25Z</time>
      </trkpt>
      <trkpt lat="44.26507" lon="3.939">
        <ele>582.404</ele>
        <time>2019-10-27T09:00:07Z</time>
      </trkpt>
      <trkpt lat="44.26552" lon="3.93869">
        <ele>592.723</ele>
        <time>2019-10-27T09:00:43Z</time>
      </trkpt>
      <trkpt lat="44.26608" lon="3.93874">
        <ele>602.147</ele>
        <time>2019-10-27T09:01:16Z</time>
      </trkpt>
      <trkpt lat="44.26664" lon="3.93869">
        <ele>604.978</ele>
        <time>2019-10-27T09:01:52Z</time>
      </trkpt>
      <trkpt lat="44.26719" lon="3.93873">
        <ele>604.476</ele>
        <time>2019-10-27T09:02:25Z</time>
      </trkpt>
      <trkpt lat="44.26769" lon="3.93881">
        <ele>613.362</ele>
        <time>2019-10-27T09:02:58Z</time>
      </trkpt>
      <trkpt lat="44.26817" lon="3.93912">
        <ele>615.409</ele>
        <time>2019-10-27T09:03:31Z</time>
      </trkpt>
      <trkpt lat="44.26868" lon="3.93948">
        <ele>622.652</ele>
        <time>2019-10-27T09:04:10Z</time>
      </trkpt>
      <trkpt lat="44.26816" lon="3.93958">
        <ele>623.048</ele>
        <time>2019-10-27T09:04:49Z</time>
      </trkpt>
      <trkpt lat="44.2676" lon="3.93956">
        <ele>626.284</ele>
        <time>2019-10-27T09:05:25Z</time>
      </trkpt>
      <trkpt lat="44.26718" lon="3.94008">
        <ele>631.756</ele>
        <time>2019-10-27T09:05:58Z</time>
      </trkpt>
      <trkpt lat="44.26762" lon="3.94033">
        <ele>639.437</ele>
        <time>2019-10-27T09:06:37Z</time>
      </trkpt>
      <trkpt lat="44.26823" lon="3.94051">
        <ele>654.785</ele>
        <time>2019-10-27T09:07:25Z</time>
      </trkpt>
      <trkpt lat="44.26873" lon="3.9407">
        <ele>659.4</ele>
        <time>2019-10-27T09:07:58.001Z</time>
      </trkpt>
      <trkpt lat="44.26926" lon="3.94076">
        <ele>664.433</ele>
        <time>2019-10-27T09:08:37.001Z</time>
      </trkpt>
      <trkpt lat="44.26977" lon="3.94072">
        <ele>669.751</ele>
        <time>2019-10-27T09:09:13.001Z</time>
      </trkpt>
      <trkpt lat="44.27027" lon="3.94121">
        <ele>671.8</ele>
        <time>2019-10-27T09:09:49.001Z</time>
      </trkpt>
      <trkpt lat="44.2708" lon="3.94156">
        <ele>682.226</ele>
        <time>2019-10-27T09:10:31.001Z</time>
      </trkpt>
      <trkpt lat="44.2713" lon="3.94159">
        <ele>683.58</ele>
        <time>2019-10-27T09:11:04.001Z</time>
      </trkpt>
      <trkpt lat="44.27179" lon="3.94123">
        <ele>685.634</ele>
        <time>2019-10-27T09:11:34.001Z</time>
      </trkpt>
      <trkpt lat="44.27224" lon="3.94054">
        <ele>689.888</ele>
        <time>2019-10-27T09:12:16Z</time>
      </trkpt>
      <trkpt lat="44.27276" lon="3.93965">
        <ele>693.715</ele>
        <time>2019-10-27T09:12:55.001Z</time>
      </trkpt>
      <trkpt lat="44.27338" lon="3.93926">
        <ele>690.89</ele>
        <time>2019-10-27T09:13:25.001Z</time>
      </trkpt>
      <trkpt lat="44.27399" lon="3.93924">
        <ele>695.55</ele>
        <time>2019-10-27T09:13:58.001Z</time>
      </trkpt>
      <trkpt lat="44.27471" lon="3.93903">
        <ele>701.624</ele>
        <time>2019-10-27T09:14:28.001Z</time>
      </trkpt>
      <trkpt lat="44.27541" lon="3.93915">
        <ele>707.752</ele>
        <time>2019-10-27T09:14:58.001Z</time>
      </trkpt>
      <trkpt lat="44.27633" lon="3.93903">
        <ele>708.455</ele>
        <time>2019-10-27T09:15:28.001Z</time>
      </trkpt>
      <trkpt lat="44.27772" lon="3.93938">
        <ele>702.462</ele>
        <time>2019-10-27T09:15:58.001Z</time>
      </trkpt>
      <trkpt lat="44.27864" lon="3.93982">
        <ele>701.535</ele>
        <time>2019-10-27T09:16:28.001Z</time>
      </trkpt>
      <trkpt lat="44.2793" lon="3.93997">
        <ele>700.427</ele>
        <time>2019-10-27T09:16:58.001Z</time>
      </trkpt>
      <trkpt lat="44.28018" lon="3.94017">
        <ele>699.632</ele>
        <time>2019-10-27T09:17:28.001Z</time>
      </trkpt>
      <trkpt lat="44.28077" lon="3.9414">
        <ele>693.579</ele>
        <time>2019-10-27T09:17:58.001Z</time>
      </trkpt>
      <trkpt lat="44.28121" lon="3.94221">
        <ele>692.423</ele>
        <time>2019-10-27T09:18:28.001Z</time>
      </trkpt>
      <trkpt lat="44.28185" lon="3.94301">
        <ele>689.76</ele>
        <time>2019-10-27T09:18:58.001Z</time>
      </trkpt>
      <trkpt lat="44.28291" lon="3.9442">
        <ele>680.877</ele>
        <time>2019-10-27T09:19:28.001Z</time>
      </trkpt>
      <trkpt lat="44.28366" lon="3.94486">
        <ele>672.161</ele>
        <time>2019-10-27T09:19:58.001Z</time>
      </trkpt>
      <trkpt lat="44.28419" lon="3.94457">
        <ele>675.927</ele>
        <time>2019-10-27T09:20:28.001Z</time>
      </trkpt>
      <trkpt lat="44.28457" lon="3.94395">
        <ele>686.993</ele>
        <time>2019-10-27T09:20:58.001Z</time>
      </trkpt>
      <trkpt lat="44.28492" lon="3.94331">
        <ele>694.123</ele>
        <time>2019-10-27T09:21:28.001Z</time>
      </trkpt>
      <trkpt lat="44.28526" lon="3.94269">
        <ele>695.743</ele>
        <time>2019-10-27T09:21:58.001Z</time>
      </trkpt>
      <trkpt lat="44.28566" lon="3.94207">
        <ele>697.989</ele>
        <time>2019-10-27T09:22:28.001Z</time>
      </trkpt>
      <trkpt lat="44.28613" lon="3.94161">
        <ele>699.716</ele>
        <time>2019-10-27T09:22:58.001Z</time>
      </trkpt>
      <trkpt lat="44.28656" lon="3.9412">
        <ele>705.436</ele>
        <time>2019-10-27T09:23:28.001Z</time>
      </trkpt>
      <trkpt lat="44.28703" lon="3.9407">
        <ele>704.967</ele>
        <time>2019-10-27T09:24:01.001Z</time>
      </trkpt>
      <trkpt lat="44.28742" lon="3.94018">
        <ele>712.029</ele>
        <time>2019-10-27T09:24:31.001Z</time>
      </trkpt>
      <trkpt lat="44.2878" lon="3.93962">
        <ele>718.323</ele>
        <time>2019-10-27T09:25:04.001Z</time>
      </trkpt>
      <trkpt lat="44.28826" lon="3.93916">
        <ele>721.635</ele>
        <time>2019-10-27T09:25:34.001Z</time>
      </trkpt>
      <trkpt lat="44.28872" lon="3.9386">
        <ele>726.382</ele>
        <time>2019-10-27T09:26:04.001Z</time>
      </trkpt>
      <trkpt lat="44.28926" lon="3.93814">
        <ele>733.803</ele>
        <time>2019-10-27T09:26:34.001Z</time>
      </trkpt>
      <trkpt lat="44.28982" lon="3.93802">
        <ele>738.883</ele>
        <time>2019-10-27T09:27:04.001Z</time>
      </trkpt>
      <trkpt lat="44.2904" lon="3.93781">
        <ele>740.493</ele>
        <time>2019-10-27T09:27:34.001Z</time>
      </trkpt>
      <trkpt lat="44.29086" lon="3.93735">
        <ele>749.028</ele>
        <time>2019-10-27T09:28:04.001Z</time>
      </trkpt>
      <trkpt lat="44.29108" lon="3.93658">
        <ele>754.84</ele>
        <time>2019-10-27T09:28:40.001Z</time>
      </trkpt>
      <trkpt lat="44.29157" lon="3.93596">
        <ele>742.619</ele>
        <time>2019-10-27T09:29:10.001Z</time>
      </trkpt>
      <trkpt lat="44.29215" lon="3.93605">
        <ele>747.07</ele>
        <time>2019-10-27T09:29:40.001Z</time>
      </trkpt>
      <trkpt lat="44.29275" lon="3.93614">
        <ele>750.435</ele>
        <time>2019-10-27T09:30:10.001Z</time>
      </trkpt>
      <trkpt lat="44.29329" lon="3.9361">
        <ele>760.274</ele>
        <time>2019-10-27T09:30:40.001Z</time>
      </trkpt>
      <trkpt lat="44.29368" lon="3.93542">
        <ele>768.856</ele>
        <time>2019-10-27T09:31:13.001Z</time>
      </trkpt>
      <trkpt lat="44.2942" lon="3.93506">
        <ele>771.777</ele>
        <time>2019-10-27T09:31:43.001Z</time>
      </trkpt>
      <trkpt lat="44.29471" lon="3.93461">
        <ele>771.409</ele>
        <time>2019-10-27T09:32:13.001Z</time>
      </trkpt>
      <trkpt lat="44.29521" lon="3.93422">
        <ele>765.85</ele>
        <time>2019-10-27T09:32:43.001Z</time>
      </trkpt>
      <trkpt lat="44.2956" lon="3.93361">
        <ele>768.499</ele>
        <time>2019-10-27T09:33:19.001Z</time>
      </trkpt>
      <trkpt lat="44.29582" lon="3.93286">
        <ele>779.439</ele>
        <time>2019-10-27T09:33:55.001Z</time>
      </trkpt>
      <trkpt lat="44.29603" lon="3.93201">
        <ele>804.161</ele>
        <time>2019-10-27T09:34:40.001Z</time>
      </trkpt>
      <trkpt lat="44.29625" lon="3.93117">
        <ele>800.821</ele>
        <time>2019-10-27T09:35:22.001Z</time>
      </trkpt>
      <trkpt lat="44.29653" lon="3.93047">
        <ele>807.349</ele>
        <time>2019-10-27T09:35:58.001Z</time>
      </trkpt>
      <trkpt lat="44.2969" lon="3.92969">
        <ele>810.324</ele>
        <time>2019-10-27T09:36:37.001Z</time>
      </trkpt>
      <trkpt lat="44.29724" lon="3.92901">
        <ele>813.1</ele>
        <time>2019-10-27T09:37:13.001Z</time>
      </trkpt>
      <trkpt lat="44.29769" lon="3.92857">
        <ele>812.015</ele>
        <time>2019-10-27T09:37:49.001Z</time>
      </trkpt>
      <trkpt lat="44.2981" lon="3.92802">
        <ele>816.397</ele>
        <time>2019-10-27T09:38:22.001Z</time>
      </trkpt>
      <trkpt lat="44.29829" lon="3.92745">
        <ele>825.329</ele>
        <time>2019-10-27T09:38:52.001Z</time>
      </trkpt>
      <trkpt lat="44.29812" lon="3.92678">
        <ele>821.372</ele>
        <time>2019-10-27T09:39:37.001Z</time>
      </trkpt>
      <trkpt lat="44.29795" lon="3.9259">
        <ele>828.828</ele>
        <time>2019-10-27T09:40:22.001Z</time>
      </trkpt>
      <trkpt lat="44.2979" lon="3.92517">
        <ele>829.511</ele>
        <time>2019-10-27T09:40:58.001Z</time>
      </trkpt>
      <trkpt lat="44.2978" lon="3.92445">
        <ele>833.57</ele>
        <time>2019-10-27T09:41:31.001Z</time>
      </trkpt>
      <trkpt lat="44.29774" lon="3.92356">
        <ele>833.75</ele>
        <time>2019-10-27T09:42:01.001Z</time>
      </trkpt>
      <trkpt lat="44.29765" lon="3.92253">
        <ele>824.141</ele>
        <time>2019-10-27T09:42:31.001Z</time>
      </trkpt>
      <trkpt lat="44.29754" lon="3.92171">
        <ele>824.643</ele>
        <time>2019-10-27T09:43:01.001Z</time>
      </trkpt>
      <trkpt lat="44.29772" lon="3.92089">
        <ele>831.713</ele>
        <time>2019-10-27T09:43:37.001Z</time>
      </trkpt>
      <trkpt lat="44.29866" lon="3.92078">
        <ele>840.721</ele>
        <time>2019-10-27T09:44:07.001Z</time>
      </trkpt>
      <trkpt lat="44.2997" lon="3.92115">
        <ele>843.92</ele>
        <time>2019-10-27T09:44:37.001Z</time>
      </trkpt>
      <trkpt lat="44.30069" lon="3.92176">
        <ele>838.265</ele>
        <time>2019-10-27T09:45:07.001Z</time>
      </trkpt>
      <trkpt lat="44.3015" lon="3.92139">
        <ele>837.223</ele>
        <time>2019-10-27T09:45:37.001Z</time>
      </trkpt>
      <trkpt lat="44.30237" lon="3.92197">
        <ele>834.058</ele>
        <time>2019-10-27T09:46:07.001Z</time>
      </trkpt>
      <trkpt lat="44.30338" lon="3.9217">
        <ele>837.679</ele>
        <time>2019-10-27T09:46:37.001Z</time>
      </trkpt>
      <trkpt lat="44.30403" lon="3.92046">
        <ele>831.281</ele>
        <time>2019-10-27T09:47:07.001Z</time>
      </trkpt>
      <trkpt lat="44.30422" lon="3.91942">
        <ele>826.84</ele>
        <time>2019-10-27T09:48:49.001Z</time>
      </trkpt>
      <trkpt lat="44.30439" lon="3.91733">
        <ele>824.228</ele>
        <time>2019-10-27T09:49:19.001Z</time>
      </trkpt>
      <trkpt lat="44.30553" lon="3.91541">
        <ele>810.878</ele>
        <time>2019-10-27T09:49:49.001Z</time>
      </trkpt>
      <trkpt lat="44.30546" lon="3.91396">
        <ele>817.01</ele>
        <time>2019-10-27T09:50:19.001Z</time>
      </trkpt>
      <trkpt lat="44.30527" lon="3.91305">
        <ele>826.013</ele>
        <time>2019-10-27T09:50:49.001Z</time>
      </trkpt>
      <trkpt lat="44.30572" lon="3.91245">
        <ele>829.925</ele>
        <time>2019-10-27T09:51:19.001Z</time>
      </trkpt>
      <trkpt lat="44.30622" lon="3.91197">
        <ele>839.573</ele>
        <time>2019-10-27T09:51:49.001Z</time>
      </trkpt>
      <trkpt lat="44.30648" lon="3.91125">
        <ele>851.146</ele>
        <time>2019-10-27T09:52:22.001Z</time>
      </trkpt>
      <trkpt lat="44.30656" lon="3.91033">
        <ele>858.843</ele>
        <time>2019-10-27T09:52:52.001Z</time>
      </trkpt>
      <trkpt lat="44.30671" lon="3.9087">
        <ele>861.234</ele>
        <time>2019-10-27T09:53:22.001Z</time>
      </trkpt>
      <trkpt lat="44.30576" lon="3.9056">
        <ele>848.771</ele>
        <time>2019-10-27T09:53:52.001Z</time>
      </trkpt>
      <trkpt lat="44.30751" lon="3.90498">
        <ele>807.303</ele>
        <time>2019-10-27T09:54:22.001Z</time>
      </trkpt>
      <trkpt lat="44.30891" lon="3.90369">
        <ele>806.841</ele>
        <time>2019-10-27T09:54:52.001Z</time>
      </trkpt>
      <trkpt lat="44.30941" lon="3.90265">
        <ele>821.098</ele>
        <time>2019-10-27T09:55:22.001Z</time>
      </trkpt>
      <trkpt lat="44.30969" lon="3.90186">
        <ele>836.526</ele>
        <time>2019-10-27T09:55:52.001Z</time>
      </trkpt>
      <trkpt lat="44.30992" lon="3.90099">
        <ele>847.454</ele>
        <time>2019-10-27T09:56:22.001Z</time>
      </trkpt>
      <trkpt lat="44.31029" lon="3.90016">
        <ele>845.607</ele>
        <time>2019-10-27T09:56:52.001Z</time>
      </trkpt>
      <trkpt lat="44.31083" lon="3.89945">
        <ele>838.285</ele>
        <time>2019-10-27T09:57:22.001Z</time>
      </trkpt>
      <trkpt lat="44.3114" lon="3.89895">
        <ele>836.223</ele>
        <time>2019-10-27T09:57:52.001Z</time>
      </trkpt>
      <trkpt lat="44.31175" lon="3.89833">
        <ele>845.882</ele>
        <time>2019-10-27T09:58:22.001Z</time>
      </trkpt>
      <trkpt lat="44.31208" lon="3.89756">
        <ele>852.092</ele>
        <time>2019-10-27T09:58:52.001Z</time>
      </trkpt>
      <trkpt lat="44.31225" lon="3.89665">
        <ele>842.927</ele>
        <time>2019-10-27T09:59:22.001Z</time>
      </trkpt>
      <trkpt lat="44.31261" lon="3.89584">
        <ele>842.597</ele>
        <time>2019-10-27T09:59:52.001Z</time>
      </trkpt>
      <trkpt lat="44.31293" lon="3.89512">
        <ele>850.892</ele>
        <time>2019-10-27T10:00:22.001Z</time>
      </trkpt>
      <trkpt lat="44.31278" lon="3.89429">
        <ele>858.045</ele>
        <time>2019-10-27T10:00:52.001Z</time>
      </trkpt>
      <trkpt lat="44.31243" lon="3.89345">
        <ele>860.033</ele>
        <time>2019-10-27T10:01:22.001Z</time>
      </trkpt>
      <trkpt lat="44.31203" lon="3.89283">
        <ele>858.646</ele>
        <time>2019-10-27T10:01:52.001Z</time>
      </trkpt>
      <trkpt lat="44.31169" lon="3.89226">
        <ele>861.241</ele>
        <time>2019-10-27T10:02:22.001Z</time>
      </trkpt>
      <trkpt lat="44.31136" lon="3.89161">
        <ele>867.85</ele>
        <time>2019-10-27T10:02:52.001Z</time>
      </trkpt>
      <trkpt lat="44.31107" lon="3.89095">
        <ele>867.896</ele>
        <time>2019-10-27T10:03:22.001Z</time>
      </trkpt>
      <trkpt lat="44.31071" lon="3.89034">
        <ele>870.979</ele>
        <time>2019-10-27T10:03:55.001Z</time>
      </trkpt>
      <trkpt lat="44.31037" lon="3.88969">
        <ele>876.568</ele>
        <time>2019-10-27T10:04:25.001Z</time>
      </trkpt>
      <trkpt lat="44.31018" lon="3.8889">
        <ele>886.435</ele>
        <time>2019-10-27T10:04:58.001Z</time>
      </trkpt>
      <trkpt lat="44.31023" lon="3.88811">
        <ele>893.18</ele>
        <time>2019-10-27T10:05:28.001Z</time>
      </trkpt>
      <trkpt lat="44.31023" lon="3.88725">
        <ele>899.115</ele>
        <time>2019-10-27T10:05:58.001Z</time>
      </trkpt>
      <trkpt lat="44.31036" lon="3.8864">
        <ele>899.548</ele>
        <time>2019-10-27T10:06:28.001Z</time>
      </trkpt>
      <trkpt lat="44.31044" lon="3.88569">
        <ele>908.943</ele>
        <time>2019-10-27T10:06:58.001Z</time>
      </trkpt>
      <trkpt lat="44.3105" lon="3.88481">
        <ele>907.07</ele>
        <time>2019-10-27T10:07:31.001Z</time>
      </trkpt>
      <trkpt lat="44.31055" lon="3.88402">
        <ele>903.868</ele>
        <time>2019-10-27T10:08:04.001Z</time>
      </trkpt>
      <trkpt lat="44.31062" lon="3.88311">
        <ele>910.335</ele>
        <time>2019-10-27T10:08:43.001Z</time>
      </trkpt>
      <trkpt lat="44.31066" lon="3.88238">
        <ele>908.742</ele>
        <time>2019-10-27T10:09:13.001Z</time>
      </trkpt>
      <trkpt lat="44.3106" lon="3.88154">
        <ele>908.837</ele>
        <time>2019-10-27T10:09:43.001Z</time>
      </trkpt>
      <trkpt lat="44.31052" lon="3.88074">
        <ele>911.696</ele>
        <time>2019-10-27T10:10:13.001Z</time>
      </trkpt>
      <trkpt lat="44.31037" lon="3.87996">
        <ele>914.749</ele>
        <time>2019-10-27T10:10:46.001Z</time>
      </trkpt>
      <trkpt lat="44.31012" lon="3.87933">
        <ele>921.585</ele>
        <time>2019-10-27T10:11:16Z</time>
      </trkpt>
      <trkpt lat="44.30977" lon="3.8787">
        <ele>932.03</ele>
        <time>2019-10-27T10:11:49.001Z</time>
      </trkpt>
      <trkpt lat="44.30954" lon="3.878">
        <ele>940.757</ele>
        <time>2019-10-27T10:12:19.001Z</time>
      </trkpt>
      <trkpt lat="44.30968" lon="3.87728">
        <ele>945.136</ele>
        <time>2019-10-27T10:12:52.001Z</time>
      </trkpt>
      <trkpt lat="44.30922" lon="3.87676">
        <ele>946.399</ele>
        <time>2019-10-27T10:13:37.001Z</time>
      </trkpt>
      <trkpt lat="44.30868" lon="3.87638">
        <ele>950.821</ele>
        <time>2019-10-27T10:14:16Z</time>
      </trkpt>
      <trkpt lat="44.30819" lon="3.87611">
        <ele>951.493</ele>
        <time>2019-10-27T10:14:46.001Z</time>
      </trkpt>
      <trkpt lat="44.30763" lon="3.87555">
        <ele>957.272</ele>
        <time>2019-10-27T10:15:31.001Z</time>
      </trkpt>
      <trkpt lat="44.3071" lon="3.87536">
        <ele>966.495</ele>
        <time>2019-10-27T10:16:04.001Z</time>
      </trkpt>
      <trkpt lat="44.30646" lon="3.87517">
        <ele>962.844</ele>
        <time>2019-10-27T10:16:43.001Z</time>
      </trkpt>
      <trkpt lat="44.30627" lon="3.8745">
        <ele>965.8</ele>
        <time>2019-10-27T10:17:16Z</time>
      </trkpt>
      <trkpt lat="44.30656" lon="3.8739">
        <ele>969.178</ele>
        <time>2019-10-27T10:17:49.001Z</time>
      </trkpt>
      <trkpt lat="44.307" lon="3.87342">
        <ele>970.363</ele>
        <time>2019-10-27T10:18:25.001Z</time>
      </trkpt>
      <trkpt lat="44.30761" lon="3.87325">
        <ele>976.251</ele>
        <time>2019-10-27T10:19:07.001Z</time>
      </trkpt>
      <trkpt lat="44.30802" lon="3.87241">
        <ele>991.431</ele>
        <time>2019-10-27T10:19:58.001Z</time>
      </trkpt>
      <trkpt lat="44.30816" lon="3.87175">
        <ele>1001.728</ele>
        <time>2019-10-27T10:20:28.001Z</time>
      </trkpt>
      <trkpt lat="44.30792" lon="3.87105">
        <ele>1004.049</ele>
        <time>2019-10-27T10:21:04.001Z</time>
      </trkpt>
      <trkpt lat="44.30755" lon="3.87056">
        <ele>1010.336</ele>
        <time>2019-10-27T10:21:34.001Z</time>
      </trkpt>
      <trkpt lat="44.30721" lon="3.87004">
        <ele>1014.729</ele>
        <time>2019-10-27T10:22:04.001Z</time>
      </trkpt>
      <trkpt lat="44.30707" lon="3.8693">
        <ele>1017.859</ele>
        <time>2019-10-27T10:22:37.001Z</time>
      </trkpt>
      <trkpt lat="44.30711" lon="3.86857">
        <ele>1023.654</ele>
        <time>2019-10-27T10:23:07.001Z</time>
      </trkpt>
      <trkpt lat="44.3072" lon="3.86792">
        <ele>1034.198</ele>
        <time>2019-10-27T10:23:37.001Z</time>
      </trkpt>
      <trkpt lat="44.30737" lon="3.86735">
        <ele>1040.591</ele>
        <time>2019-10-27T10:24:07.001Z</time>
      </trkpt>
      <trkpt lat="44.30744" lon="3.86661">
        <ele>1056.043</ele>
        <time>2019-10-27T10:24:40.001Z</time>
      </trkpt>
      <trkpt lat="44.30755" lon="3.86577">
        <ele>1056.526</ele>
        <time>2019-10-27T10:25:19.001Z</time>
      </trkpt>
      <trkpt lat="44.30756" lon="3.865">
        <ele>1052.237</ele>
        <time>2019-10-27T10:25:52.001Z</time>
      </trkpt>
      <trkpt lat="44.30764" lon="3.86425">
        <ele>1046.824</ele>
        <time>2019-10-27T10:26:25.001Z</time>
      </trkpt>
      <trkpt lat="44.30787" lon="3.86343">
        <ele>1049.775</ele>
        <time>2019-10-27T10:27:07.001Z</time>
      </trkpt>
      <trkpt lat="44.308" lon="3.86291">
        <ele>1057.709</ele>
        <time>2019-10-27T10:27:40.001Z</time>
      </trkpt>
      <trkpt lat="44.30815" lon="3.86225">
        <ele>1062.565</ele>
        <time>2019-10-27T10:28:10.001Z</time>
      </trkpt>
      <trkpt lat="44.30809" lon="3.86149">
        <ele>1076.076</ele>
        <time>2019-10-27T10:28:46.001Z</time>
      </trkpt>
      <trkpt lat="44.30791" lon="3.86076">
        <ele>1073.625</ele>
        <time>2019-10-27T10:29:22.001Z</time>
      </trkpt>
      <trkpt lat="44.30758" lon="3.85965">
        <ele>1071.375</ele>
        <time>2019-10-27T10:29:52.001Z</time>
      </trkpt>
      <trkpt lat="44.30728" lon="3.85844">
        <ele>1061.227</ele>
        <time>2019-10-27T10:30:22.001Z</time>
      </trkpt>
      <trkpt lat="44.3068" lon="3.85737">
        <ele>1069.723</ele>
        <time>2019-10-27T10:30:55.001Z</time>
      </trkpt>
      <trkpt lat="44.3057" lon="3.85613">
        <ele>1064.158</ele>
        <time>2019-10-27T10:31:25.001Z</time>
      </trkpt>
      <trkpt lat="44.30526" lon="3.85489">
        <ele>1053.15</ele>
        <time>2019-10-27T10:31:55.001Z</time>
      </trkpt>
      <trkpt lat="44.3064" lon="3.85193">
        <ele>1042.357</ele>
        <time>2019-10-27T10:32:25.001Z</time>
      </trkpt>
      <trkpt lat="44.30831" lon="3.85193">
        <ele>1025.225</ele>
        <time>2019-10-27T10:32:55.001Z</time>
      </trkpt>
      <trkpt lat="44.30997" lon="3.85021">
        <ele>1015.258</ele>
        <time>2019-10-27T10:33:25.001Z</time>
      </trkpt>
      <trkpt lat="44.31251" lon="3.84684">
        <ele>1002.815</ele>
        <time>2019-10-27T10:33:55.001Z</time>
      </trkpt>
      <trkpt lat="44.31365" lon="3.84501">
        <ele>1007.166</ele>
        <time>2019-10-27T10:34:25.001Z</time>
      </trkpt>
      <trkpt lat="44.3148" lon="3.84315">
        <ele>1014.142</ele>
        <time>2019-10-27T10:34:55.001Z</time>
      </trkpt>
      <trkpt lat="44.31531" lon="3.84237">
        <ele>1019.8</ele>
        <time>2019-10-27T10:35:25.001Z</time>
      </trkpt>
      <trkpt lat="44.31557" lon="3.84161">
        <ele>1031.775</ele>
        <time>2019-10-27T10:36:04.001Z</time>
      </trkpt>
      <trkpt lat="44.31582" lon="3.84093">
        <ele>1041.083</ele>
        <time>2019-10-27T10:36:40.001Z</time>
      </trkpt>
      <trkpt lat="44.31606" lon="3.84012">
        <ele>1040.352</ele>
        <time>2019-10-27T10:37:19.001Z</time>
      </trkpt>
      <trkpt lat="44.31626" lon="3.83933">
        <ele>1040.331</ele>
        <time>2019-10-27T10:37:55.001Z</time>
      </trkpt>
      <trkpt lat="44.31653" lon="3.83847">
        <ele>1047.137</ele>
        <time>2019-10-27T10:38:40.001Z</time>
      </trkpt>
      <trkpt lat="44.31665" lon="3.83775">
        <ele>1051.13</ele>
        <time>2019-10-27T10:39:13.001Z</time>
      </trkpt>
      <trkpt lat="44.31675" lon="3.83701">
        <ele>1052.149</ele>
        <time>2019-10-27T10:39:46.001Z</time>
      </trkpt>
      <trkpt lat="44.31688" lon="3.83629">
        <ele>1059.442</ele>
        <time>2019-10-27T10:40:19.001Z</time>
      </trkpt>
      <trkpt lat="44.31723" lon="3.83541">
        <ele>1059.055</ele>
        <time>2019-10-27T10:41:07.001Z</time>
      </trkpt>
      <trkpt lat="44.31763" lon="3.83469">
        <ele>1059.211</ele>
        <time>2019-10-27T10:41:52.001Z</time>
      </trkpt>
      <trkpt lat="44.31751" lon="3.83384">
        <ele>1063.769</ele>
        <time>2019-10-27T10:42:34.001Z</time>
      </trkpt>
      <trkpt lat="44.31743" lon="3.833">
        <ele>1069.177</ele>
        <time>2019-10-27T10:43:13.001Z</time>
      </trkpt>
      <trkpt lat="44.31776" lon="3.83238">
        <ele>1074.001</ele>
        <time>2019-10-27T10:43:52.001Z</time>
      </trkpt>
      <trkpt lat="44.3178" lon="3.83139">
        <ele>1081.141</ele>
        <time>2019-10-27T10:44:43.001Z</time>
      </trkpt>
      <trkpt lat="44.31779" lon="3.83033">
        <ele>1082.78</ele>
        <time>2019-10-27T10:45:37.001Z</time>
      </trkpt>
      <trkpt lat="44.31798" lon="3.82927">
        <ele>1083.368</ele>
        <time>2019-10-27T10:46:07.001Z</time>
      </trkpt>
      <trkpt lat="44.31875" lon="3.82815">
        <ele>1082.451</ele>
        <time>2019-10-27T10:46:37.001Z</time>
      </trkpt>
      <trkpt lat="44.31959" lon="3.82751">
        <ele>1087.276</ele>
        <time>2019-10-27T10:47:07.001Z</time>
      </trkpt>
      <trkpt lat="44.32036" lon="3.82755">
        <ele>1091.746</ele>
        <time>2019-10-27T10:48:52.001Z</time>
      </trkpt>
      <trkpt lat="44.3211" lon="3.82645">
        <ele>1091.335</ele>
        <time>2019-10-27T10:49:22.001Z</time>
      </trkpt>
      <trkpt lat="44.32102" lon="3.8247">
        <ele>1084.927</ele>
        <time>2019-10-27T10:49:52.001Z</time>
      </trkpt>
      <trkpt lat="44.3204" lon="3.82306">
        <ele>1082.158</ele>
        <time>2019-10-27T10:50:22.001Z</time>
      </trkpt>
      <trkpt lat="44.31952" lon="3.82182">
        <ele>1077.17</ele>
        <time>2019-10-27T10:50:52.001Z</time>
      </trkpt>
      <trkpt lat="44.31952" lon="3.82089">
        <ele>1083.325</ele>
        <time>2019-10-27T10:51:22.001Z</time>
      </trkpt>
      <trkpt lat="44.32045" lon="3.82088">
        <ele>1100.718</ele>
        <time>2019-10-27T10:51:52.001Z</time>
      </trkpt>
      <trkpt lat="44.32133" lon="3.82097">
        <ele>1117.383</ele>
        <time>2019-10-27T10:52:22.001Z</time>
      </trkpt>
      <trkpt lat="44.322" lon="3.82073">
        <ele>1115.686</ele>
        <time>2019-10-27T10:52:52.001Z</time>
      </trkpt>
      <trkpt lat="44.32288" lon="3.82023">
        <ele>1110.123</ele>
        <time>2019-10-27T10:53:22.001Z</time>
      </trkpt>
      <trkpt lat="44.32383" lon="3.81942">
        <ele>1105.306</ele>
        <time>2019-10-27T10:53:52.001Z</time>
      </trkpt>
      <trkpt lat="44.32465" lon="3.81889">
        <ele>1108.32</ele>
        <time>2019-10-27T10:54:22.001Z</time>
      </trkpt>
      <trkpt lat="44.32543" lon="3.81828">
        <ele>1112.488</ele>
        <time>2019-10-27T10:54:52.001Z</time>
      </trkpt>
      <trkpt lat="44.32613" lon="3.81721">
        <ele>1105.874</ele>
        <time>2019-10-27T10:55:22.001Z</time>
      </trkpt>
      <trkpt lat="44.32745" lon="3.81595">
        <ele>1099.499</ele>
        <time>2019-10-27T10:55:52.001Z</time>
      </trkpt>
      <trkpt lat="44.3298" lon="3.81599">
        <ele>1089.131</ele>
        <time>2019-10-27T10:56:22.001Z</time>
      </trkpt>
      <trkpt lat="44.33165" lon="3.81745">
        <ele>1080.958</ele>
        <time>2019-10-27T10:56:52.001Z</time>
      </trkpt>
      <trkpt lat="44.33223" lon="3.81677">
        <ele>1074.08</ele>
        <time>2019-10-27T10:57:25.001Z</time>
      </trkpt>
      <trkpt lat="44.33221" lon="3.81677">
        <ele>1074.457</ele>
        <time>2019-10-27T11:08:52.001Z</time>
      </trkpt>
      <trkpt lat="44.33292" lon="3.81605">
        <ele>1075.827</ele>
        <time>2019-10-27T11:11:49.001Z</time>
      </trkpt>
      <trkpt lat="44.33367" lon="3.81502">
        <ele>1073.233</ele>
        <time>2019-10-27T11:12:22.001Z</time>
      </trkpt>
      <trkpt lat="44.33426" lon="3.8125">
        <ele>1064.118</ele>
        <time>2019-10-27T11:12:52.001Z</time>
      </trkpt>
      <trkpt lat="44.33449" lon="3.80923">
        <ele>1057.144</ele>
        <time>2019-10-27T11:13:22.001Z</time>
      </trkpt>
      <trkpt lat="44.33363" lon="3.80658">
        <ele>1057.469</ele>
        <time>2019-10-27T11:13:52.001Z</time>
      </trkpt>
      <trkpt lat="44.33206" lon="3.80278">
        <ele>1052.082</ele>
        <time>2019-10-27T11:14:22.001Z</time>
      </trkpt>
      <trkpt lat="44.33244" lon="3.80037">
        <ele>1044.088</ele>
        <time>2019-10-27T11:14:52.001Z</time>
      </trkpt>
      <trkpt lat="44.33278" lon="3.79717">
        <ele>1042.284</ele>
        <time>2019-10-27T11:15:22.001Z</time>
      </trkpt>
      <trkpt lat="44.33456" lon="3.79618">
        <ele>1026.364</ele>
        <time>2019-10-27T11:15:52.001Z</time>
      </trkpt>
      <trkpt lat="44.33613" lon="3.79451">
        <ele>1014.829</ele>
        <time>2019-10-27T11:16:22.001Z</time>
      </trkpt>
      <trkpt lat="44.33787" lon="3.79296">
        <ele>1011.914</ele>
        <time>2019-10-27T11:16:52.001Z</time>
      </trkpt>
      <trkpt lat="44.33917" lon="3.79086">
        <ele>1009.645</ele>
        <time>2019-10-27T11:17:22.001Z</time>
      </trkpt>
      <trkpt lat="44.34092" lon="3.7894">
        <ele>1020.428</ele>
        <time>2019-10-27T11:17:52.001Z</time>
      </trkpt>
      <trkpt lat="44.34284" lon="3.78796">
        <ele>1016.692</ele>
        <time>2019-10-27T11:18:22.001Z</time>
      </trkpt>
      <trkpt lat="44.34486" lon="3.78772">
        <ele>1009.197</ele>
        <time>2019-10-27T11:18:52.001Z</time>
      </trkpt>
      <trkpt lat="44.34681" lon="3.78766">
        <ele>1016.176</ele>
        <time>2019-10-27T11:19:22.001Z</time>
      </trkpt>
      <trkpt lat="44.3483" lon="3.78605">
        <ele>1015.233</ele>
        <time>2019-10-27T11:19:52.001Z</time>
      </trkpt>
      <trkpt lat="44.35027" lon="3.78415">
        <ele>1003.725</ele>
        <time>2019-10-27T11:20:22.001Z</time>
      </trkpt>
      <trkpt lat="44.35225" lon="3.7819">
        <ele>984.609</ele>
        <time>2019-10-27T11:20:52.001Z</time>
      </trkpt>
      <trkpt lat="44.35435" lon="3.77954">
        <ele>972.367</ele>
        <time>2019-10-27T11:21:22.001Z</time>
      </trkpt>
      <trkpt lat="44.356" lon="3.77782">
        <ele>966.921</ele>
        <time>2019-10-27T11:21:52.001Z</time>
      </trkpt>
      <trkpt lat="44.35713" lon="3.77594">
        <ele>967.804</ele>
        <time>2019-10-27T11:22:22.001Z</time>
      </trkpt>
      <trkpt lat="44.35844" lon="3.77414">
        <ele>971.9</ele>
        <time>2019-10-27T11:22:52.001Z</time>
      </trkpt>
      <trkpt lat="44.35908" lon="3.77167">
        <ele>978.869</ele>
        <time>2019-10-27T11:23:22.001Z</time>
      </trkpt>
      <trkpt lat="44.35761" lon="3.77091">
        <ele>980.337</ele>
        <time>2019-10-27T11:23:52.001Z</time>
      </trkpt>
      <trkpt lat="44.35901" lon="3.76867">
        <ele>976.315</ele>
        <time>2019-10-27T11:24:22.001Z</time>
      </trkpt>
      <trkpt lat="44.3615" lon="3.76675">
        <ele>954.657</ele>
        <time>2019-10-27T11:24:52.001Z</time>
      </trkpt>
      <trkpt lat="44.36155" lon="3.76622">
        <ele>955.007</ele>
        <time>2019-10-27T11:26:10.001Z</time>
      </trkpt>
      <trkpt lat="44.36155" lon="3.76628">
        <ele>952.974</ele>
        <time>2019-10-27T11:29:31.001Z</time>
      </trkpt>
      <trkpt lat="44.36062" lon="3.76607">
        <ele>951.06</ele>
        <time>2019-10-27T11:30:40.001Z</time>
      </trkpt>
      <trkpt lat="44.3603" lon="3.76322">
        <ele>951.299</ele>
        <time>2019-10-27T11:31:10.001Z</time>
      </trkpt>
      <trkpt lat="44.36019" lon="3.75932">
        <ele>944.729</ele>
        <time>2019-10-27T11:31:40.001Z</time>
      </trkpt>
      <trkpt lat="44.36099" lon="3.75554">
        <ele>926.843</ele>
        <time>2019-10-27T11:32:10.001Z</time>
      </trkpt>
      <trkpt lat="44.36346" lon="3.75233">
        <ele>908.388</ele>
        <time>2019-10-27T11:32:40.001Z</time>
      </trkpt>
      <trkpt lat="44.36335" lon="3.74868">
        <ele>891.823</ele>
        <time>2019-10-27T11:33:10.001Z</time>
      </trkpt>
      <trkpt lat="44.36309" lon="3.74635">
        <ele>877.477</ele>
        <time>2019-10-27T11:33:40.001Z</time>
      </trkpt>
      <trkpt lat="44.36304" lon="3.74484">
        <ele>877.061</ele>
        <time>2019-10-27T11:35:01.001Z</time>
      </trkpt>
      <trkpt lat="44.36322" lon="3.74396">
        <ele>876.201</ele>
        <time>2019-10-27T11:43:34.001Z</time>
      </trkpt>
      <trkpt lat="44.36367" lon="3.74342">
        <ele>870.469</ele>
        <time>2019-10-27T11:44:04.001Z</time>
      </trkpt>
      <trkpt lat="44.36388" lon="3.74261">
        <ele>871.419</ele>
        <time>2019-10-27T11:44:37.001Z</time>
      </trkpt>
      <trkpt lat="44.36432" lon="3.74208">
        <ele>880.354</ele>
        <time>2019-10-27T11:45:10.001Z</time>
      </trkpt>
      <trkpt lat="44.36472" lon="3.74146">
        <ele>892.594</ele>
        <time>2019-10-27T11:45:46.001Z</time>
      </trkpt>
      <trkpt lat="44.36516" lon="3.74095">
        <ele>893.241</ele>
        <time>2019-10-27T11:46:16Z</time>
      </trkpt>
      <trkpt lat="44.36557" lon="3.74041">
        <ele>894.767</ele>
        <time>2019-10-27T11:46:46.001Z</time>
      </trkpt>
      <trkpt lat="44.36592" lon="3.73982">
        <ele>896.706</ele>
        <time>2019-10-27T11:47:16Z</time>
      </trkpt>
      <trkpt lat="44.36621" lon="3.73917">
        <ele>903.415</ele>
        <time>2019-10-27T11:47:46.001Z</time>
      </trkpt>
      <trkpt lat="44.36645" lon="3.7384">
        <ele>906.808</ele>
        <time>2019-10-27T11:48:16Z</time>
      </trkpt>
      <trkpt lat="44.36685" lon="3.73778">
        <ele>907.266</ele>
        <time>2019-10-27T11:48:46.001Z</time>
      </trkpt>
      <trkpt lat="44.36667" lon="3.73697">
        <ele>912.339</ele>
        <time>2019-10-27T11:49:16Z</time>
      </trkpt>
      <trkpt lat="44.36683" lon="3.73603">
        <ele>910.475</ele>
        <time>2019-10-27T11:49:49.001Z</time>
      </trkpt>
      <trkpt lat="44.36707" lon="3.73531">
        <ele>916.572</ele>
        <time>2019-10-27T11:50:19.001Z</time>
      </trkpt>
      <trkpt lat="44.36731" lon="3.73455">
        <ele>918.831</ele>
        <time>2019-10-27T11:50:49.001Z</time>
      </trkpt>
      <trkpt lat="44.36709" lon="3.7338">
        <ele>920.645</ele>
        <time>2019-10-27T11:51:19.001Z</time>
      </trkpt>
      <trkpt lat="44.36637" lon="3.73413">
        <ele>928.065</ele>
        <time>2019-10-27T11:51:52.001Z</time>
      </trkpt>
      <trkpt lat="44.36541" lon="3.73423">
        <ele>926.337</ele>
        <time>2019-10-27T11:52:22.001Z</time>
      </trkpt>
      <trkpt lat="44.36537" lon="3.73421">
        <ele>928.286</ele>
        <time>2019-10-27T11:53:19.001Z</time>
      </trkpt>
      <trkpt lat="44.36469" lon="3.73436">
        <ele>925.687</ele>
        <time>2019-10-27T11:54:16Z</time>
      </trkpt>
      <trkpt lat="44.3636" lon="3.73484">
        <ele>923.292</ele>
        <time>2019-10-27T11:54:46.001Z</time>
      </trkpt>
      <trkpt lat="44.3625" lon="3.73508">
        <ele>920.96</ele>
        <time>2019-10-27T11:55:16Z</time>
      </trkpt>
      <trkpt lat="44.36137" lon="3.73485">
        <ele>928.911</ele>
        <time>2019-10-27T11:55:46.001Z</time>
      </trkpt>
      <trkpt lat="44.36236" lon="3.73305">
        <ele>919.519</ele>
        <time>2019-10-27T11:56:16Z</time>
      </trkpt>
      <trkpt lat="44.36229" lon="3.73013">
        <ele>910.096</ele>
        <time>2019-10-27T11:56:46.001Z</time>
      </trkpt>
      <trkpt lat="44.36211" lon="3.72754">
        <ele>899.721</ele>
        <time>2019-10-27T11:57:16Z</time>
      </trkpt>
      <trkpt lat="44.36213" lon="3.72528">
        <ele>897.844</ele>
        <time>2019-10-27T11:57:46.001Z</time>
      </trkpt>
      <trkpt lat="44.36199" lon="3.72204">
        <ele>890.494</ele>
        <time>2019-10-27T11:58:16Z</time>
      </trkpt>
      <trkpt lat="44.36194" lon="3.71984">
        <ele>880.201</ele>
        <time>2019-10-27T11:58:46.001Z</time>
      </trkpt>
      <trkpt lat="44.36137" lon="3.71769">
        <ele>869.989</ele>
        <time>2019-10-27T11:59:16Z</time>
      </trkpt>
      <trkpt lat="44.36106" lon="3.71525">
        <ele>859.175</ele>
        <time>2019-10-27T11:59:46.001Z</time>
      </trkpt>
      <trkpt lat="44.36107" lon="3.71522">
        <ele>858.109</ele>
        <time>2019-10-27T12:04:01.001Z</time>
      </trkpt>
      <trkpt lat="44.36127" lon="3.71484">
        <ele>859.615</ele>
        <time>2019-10-27T12:08:34.001Z</time>
      </trkpt>
      <trkpt lat="44.36109" lon="3.71511">
        <ele>861.326</ele>
        <time>2019-10-27T12:16:19.001Z</time>
      </trkpt>
      <trkpt lat="44.36103" lon="3.71527">
        <ele>860.931</ele>
        <time>2019-10-27T12:18:31.001Z</time>
      </trkpt>
      <trkpt lat="44.36101" lon="3.71521">
        <ele>859.589</ele>
        <time>2019-10-27T12:25:10.001Z</time>
      </trkpt>
      <trkpt lat="44.36106" lon="3.71521">
        <ele>861.969</ele>
        <time>2019-10-27T12:26:25.001Z</time>
      </trkpt>
      <trkpt lat="44.36106" lon="3.71521">
        <ele>861.969</ele>
        <time>2019-10-27T12:28:07.001Z</time>
      </trkpt>
      <trkpt lat="44.36121" lon="3.71513">
        <ele>862.956</ele>
        <time>2019-10-27T12:33:31.001Z</time>
      </trkpt>
      <trkpt lat="44.36265" lon="3.71317">
        <ele>866.159</ele>
        <time>2019-10-27T12:34:01.001Z</time>
      </trkpt>
      <trkpt lat="44.36373" lon="3.70978">
        <ele>855.297</ele>
        <time>2019-10-27T12:34:31.001Z</time>
      </trkpt>
      <trkpt lat="44.36544" lon="3.70721">
        <ele>835.139</ele>
        <time>2019-10-27T12:35:01.001Z</time>
      </trkpt>
      <trkpt lat="44.36657" lon="3.70516">
        <ele>825.307</ele>
        <time>2019-10-27T12:35:31.001Z</time>
      </trkpt>
      <trkpt lat="44.36671" lon="3.7026">
        <ele>804.992</ele>
        <time>2019-10-27T12:36:01.001Z</time>
      </trkpt>
      <trkpt lat="44.36688" lon="3.69954">
        <ele>790.464</ele>
        <time>2019-10-27T12:36:31.001Z</time>
      </trkpt>
      <trkpt lat="44.36513" lon="3.69708">
        <ele>768.742</ele>
        <time>2019-10-27T12:37:01.001Z</time>
      </trkpt>
      <trkpt lat="44.36374" lon="3.69304">
        <ele>749.832</ele>
        <time>2019-10-27T12:37:31.001Z</time>
      </trkpt>
      <trkpt lat="44.36433" lon="3.68885">
        <ele>738.343</ele>
        <time>2019-10-27T12:38:01.001Z</time>
      </trkpt>
      <trkpt lat="44.36341" lon="3.68602">
        <ele>722.335</ele>
        <time>2019-10-27T12:38:31.001Z</time>
      </trkpt>
      <trkpt lat="44.36449" lon="3.68417">
        <ele>701.318</ele>
        <time>2019-10-27T12:39:01.001Z</time>
      </trkpt>
      <trkpt lat="44.36252" lon="3.68487">
        <ele>694.3</ele>
        <time>2019-10-27T12:39:31.001Z</time>
      </trkpt>
      <trkpt lat="44.36126" lon="3.68419">
        <ele>709.152</ele>
        <time>2019-10-27T12:40:01.001Z</time>
      </trkpt>
      <trkpt lat="44.36199" lon="3.68191">
        <ele>704.751</ele>
        <time>2019-10-27T12:40:31.001Z</time>
      </trkpt>
      <trkpt lat="44.36149" lon="3.68018">
        <ele>701.751</ele>
        <time>2019-10-27T12:41:01.001Z</time>
      </trkpt>
      <trkpt lat="44.36066" lon="3.67785">
        <ele>687.683</ele>
        <time>2019-10-27T12:41:31.001Z</time>
      </trkpt>
      <trkpt lat="44.36166" lon="3.67528">
        <ele>685.914</ele>
        <time>2019-10-27T12:42:01.001Z</time>
      </trkpt>
      <trkpt lat="44.3626" lon="3.67234">
        <ele>690.145</ele>
        <time>2019-10-27T12:42:31.001Z</time>
      </trkpt>
      <trkpt lat="44.36116" lon="3.66999">
        <ele>677.925</ele>
        <time>2019-10-27T12:43:01.001Z</time>
      </trkpt>
      <trkpt lat="44.35909" lon="3.66891">
        <ele>668.477</ele>
        <time>2019-10-27T12:43:31.001Z</time>
      </trkpt>
      <trkpt lat="44.35763" lon="3.66804">
        <ele>658.093</ele>
        <time>2019-10-27T12:44:01.001Z</time>
      </trkpt>
      <trkpt lat="44.35705" lon="3.66675">
        <ele>659.256</ele>
        <time>2019-10-27T12:44:34.001Z</time>
      </trkpt>
      <trkpt lat="44.35697" lon="3.66536">
        <ele>663.254</ele>
        <time>2019-10-27T12:45:04.001Z</time>
      </trkpt>
      <trkpt lat="44.35708" lon="3.66368">
        <ele>660.638</ele>
        <time>2019-10-27T12:45:34.001Z</time>
      </trkpt>
      <trkpt lat="44.35718" lon="3.66164">
        <ele>664.647</ele>
        <time>2019-10-27T12:46:04.001Z</time>
      </trkpt>
      <trkpt lat="44.3559" lon="3.66052">
        <ele>658.068</ele>
        <time>2019-10-27T12:46:34.001Z</time>
      </trkpt>
      <trkpt lat="44.35583" lon="3.65809">
        <ele>652.206</ele>
        <time>2019-10-27T12:47:04.001Z</time>
      </trkpt>
      <trkpt lat="44.35643" lon="3.65453">
        <ele>646.011</ele>
        <time>2019-10-27T12:47:34.001Z</time>
      </trkpt>
      <trkpt lat="44.35522" lon="3.65203">
        <ele>627.821</ele>
        <time>2019-10-27T12:48:04.001Z</time>
      </trkpt>
      <trkpt lat="44.35423" lon="3.64967">
        <ele>617.438</ele>
        <time>2019-10-27T12:48:34.001Z</time>
      </trkpt>
      <trkpt lat="44.3545" lon="3.64737">
        <ele>621.825</ele>
        <time>2019-10-27T12:49:04.001Z</time>
      </trkpt>
      <trkpt lat="44.35524" lon="3.64543">
        <ele>630.976</ele>
        <time>2019-10-27T12:49:34.001Z</time>
      </trkpt>
      <trkpt lat="44.35602" lon="3.64346">
        <ele>623.005</ele>
        <time>2019-10-27T12:50:04.001Z</time>
      </trkpt>
      <trkpt lat="44.35717" lon="3.64255">
        <ele>623.992</ele>
        <time>2019-10-27T12:50:34.001Z</time>
      </trkpt>
      <trkpt lat="44.35779" lon="3.6417">
        <ele>623.144</ele>
        <time>2019-10-27T12:51:04.001Z</time>
      </trkpt>
      <trkpt lat="44.35615" lon="3.63939">
        <ele>608.279</ele>
        <time>2019-10-27T12:51:34.001Z</time>
      </trkpt>
      <trkpt lat="44.35568" lon="3.63855">
        <ele>612.262</ele>
        <time>2019-10-27T12:52:04.001Z</time>
      </trkpt>
      <trkpt lat="44.35508" lon="3.63786">
        <ele>614.28</ele>
        <time>2019-10-27T12:52:34.001Z</time>
      </trkpt>
      <trkpt lat="44.3545" lon="3.63712">
        <ele>613.133</ele>
        <time>2019-10-27T12:53:04.001Z</time>
      </trkpt>
      <trkpt lat="44.35415" lon="3.6343">
        <ele>608.877</ele>
        <time>2019-10-27T12:53:34.001Z</time>
      </trkpt>
      <trkpt lat="44.35411" lon="3.63129">
        <ele>607.786</ele>
        <time>2019-10-27T12:54:04.001Z</time>
      </trkpt>
      <trkpt lat="44.35401" lon="3.63051">
        <ele>612.292</ele>
        <time>2019-10-27T12:54:34.001Z</time>
      </trkpt>
      <trkpt lat="44.35368" lon="3.62994">
        <ele>610.288</ele>
        <time>2019-10-27T12:55:04.001Z</time>
      </trkpt>
      <trkpt lat="44.3531" lon="3.62992">
        <ele>611.053</ele>
        <time>2019-10-27T12:55:34.001Z</time>
      </trkpt>
      <trkpt lat="44.35228" lon="3.62981">
        <ele>612.002</ele>
        <time>2019-10-27T12:56:04.001Z</time>
      </trkpt>
      <trkpt lat="44.35136" lon="3.63037">
        <ele>617.3</ele>
        <time>2019-10-27T12:56:34.001Z</time>
      </trkpt>
      <trkpt lat="44.35051" lon="3.63124">
        <ele>617.634</ele>
        <time>2019-10-27T12:57:04.001Z</time>
      </trkpt>
      <trkpt lat="44.34946" lon="3.63113">
        <ele>620.443</ele>
        <time>2019-10-27T12:57:34.001Z</time>
      </trkpt>
      <trkpt lat="44.34933" lon="3.62966">
        <ele>618.237</ele>
        <time>2019-10-27T12:58:04.001Z</time>
      </trkpt>
      <trkpt lat="44.34911" lon="3.62827">
        <ele>626.251</ele>
        <time>2019-10-27T12:58:34.001Z</time>
      </trkpt>
      <trkpt lat="44.34905" lon="3.62681">
        <ele>625.545</ele>
        <time>2019-10-27T12:59:04.001Z</time>
      </trkpt>
      <trkpt lat="44.34874" lon="3.62516">
        <ele>628.418</ele>
        <time>2019-10-27T12:59:34.001Z</time>
      </trkpt>
      <trkpt lat="44.34871" lon="3.62288">
        <ele>618.005</ele>
        <time>2019-10-27T13:00:04.001Z</time>
      </trkpt>
      <trkpt lat="44.34732" lon="3.61964">
        <ele>615.771</ele>
        <time>2019-10-27T13:00:34.001Z</time>
      </trkpt>
      <trkpt lat="44.34558" lon="3.61621">
        <ele>594.74</ele>
        <time>2019-10-27T13:01:04.001Z</time>
      </trkpt>
      <trkpt lat="44.34501" lon="3.61189">
        <ele>567.028</ele>
        <time>2019-10-27T13:01:34.001Z</time>
      </trkpt>
      <trkpt lat="44.34449" lon="3.60945">
        <ele>561.338</ele>
        <time>2019-10-27T13:02:04.001Z</time>
      </trkpt>
      <trkpt lat="44.34454" lon="3.60846">
        <ele>568.833</ele>
        <time>2019-10-27T13:02:34.001Z</time>
      </trkpt>
      <trkpt lat="44.34428" lon="3.60669">
        <ele>571.115</ele>
        <time>2019-10-27T13:03:04.001Z</time>
      </trkpt>
      <trkpt lat="44.34378" lon="3.6049">
        <ele>563.502</ele>
        <time>2019-10-27T13:03:34.001Z</time>
      </trkpt>
      <trkpt lat="44.34372" lon="3.60468">
        <ele>563.503</ele>
        <time>2019-10-27T13:04:31.001Z</time>
      </trkpt>
      <trkpt lat="44.34344" lon="3.60358">
        <ele>563.991</ele>
        <time>2019-10-27T13:05:28.001Z</time>
      </trkpt>
      <trkpt lat="44.34324" lon="3.60239">
        <ele>569.912</ele>
        <time>2019-10-27T13:05:58.001Z</time>
      </trkpt>
      <trkpt lat="44.34336" lon="3.6015">
        <ele>575.371</ele>
        <time>2019-10-27T13:06:28.001Z</time>
      </trkpt>
      <trkpt lat="44.34364" lon="3.60085">
        <ele>581.104</ele>
        <time>2019-10-27T13:06:58.001Z</time>
      </trkpt>
      <trkpt lat="44.34373" lon="3.6001">
        <ele>584.015</ele>
        <time>2019-10-27T13:07:28.001Z</time>
      </trkpt>
      <trkpt lat="44.3437" lon="3.59927">
        <ele>589.799</ele>
        <time>2019-10-27T13:07:58.001Z</time>
      </trkpt>
      <trkpt lat="44.34356" lon="3.59844">
        <ele>599.16</ele>
        <time>2019-10-27T13:08:28.001Z</time>
      </trkpt>
      <trkpt lat="44.34347" lon="3.59746">
        <ele>602.719</ele>
        <time>2019-10-27T13:09:01.001Z</time>
      </trkpt>
      <trkpt lat="44.34329" lon="3.59649">
        <ele>599.905</ele>
        <time>2019-10-27T13:09:31.001Z</time>
      </trkpt>
      <trkpt lat="44.3429" lon="3.5956">
        <ele>595.018</ele>
        <time>2019-10-27T13:10:01.001Z</time>
      </trkpt>
      <trkpt lat="44.34093" lon="3.59676">
        <ele>588.706</ele>
        <time>2019-10-27T13:10:31.001Z</time>
      </trkpt>
      <trkpt lat="44.33737" lon="3.59659">
        <ele>575.373</ele>
        <time>2019-10-27T13:11:01.001Z</time>
      </trkpt>
      <trkpt lat="44.3362" lon="3.59381">
        <ele>560.747</ele>
        <time>2019-10-27T13:11:31.001Z</time>
      </trkpt>
      <trkpt lat="44.3358" lon="3.58858">
        <ele>553.734</ele>
        <time>2019-10-27T13:12:01.001Z</time>
      </trkpt>
      <trkpt lat="44.3366" lon="3.58739">
        <ele>551.759</ele>
        <time>2019-10-27T13:12:31.001Z</time>
      </trkpt>
      <trkpt lat="44.33744" lon="3.58723">
        <ele>548.843</ele>
        <time>2019-10-27T13:13:01.001Z</time>
      </trkpt>
      <trkpt lat="44.33841" lon="3.58681">
        <ele>548.463</ele>
        <time>2019-10-27T13:13:31.001Z</time>
      </trkpt>
      <trkpt lat="44.33956" lon="3.58608">
        <ele>546.293</ele>
        <time>2019-10-27T13:14:01.001Z</time>
      </trkpt>
      <trkpt lat="44.34066" lon="3.58535">
        <ele>546.477</ele>
        <time>2019-10-27T13:14:31.001Z</time>
      </trkpt>
      <trkpt lat="44.34213" lon="3.58437">
        <ele>546.696</ele>
        <time>2019-10-27T13:15:01.001Z</time>
      </trkpt>
      <trkpt lat="44.34372" lon="3.58247">
        <ele>547.087</ele>
        <time>2019-10-27T13:15:31.001Z</time>
      </trkpt>
      <trkpt lat="44.34504" lon="3.58076">
        <ele>546.287</ele>
        <time>2019-10-27T13:16:01.001Z</time>
      </trkpt>
      <trkpt lat="44.34585" lon="3.57949">
        <ele>549.423</ele>
        <time>2019-10-27T13:16:31.001Z</time>
      </trkpt>
      <trkpt lat="44.34621" lon="3.57866">
        <ele>554.853</ele>
        <time>2019-10-27T13:17:01.001Z</time>
      </trkpt>
      <trkpt lat="44.34645" lon="3.57779">
        <ele>564.058</ele>
        <time>2019-10-27T13:17:31.001Z</time>
      </trkpt>
      <trkpt lat="44.34696" lon="3.57709">
        <ele>561.339</ele>
        <time>2019-10-27T13:18:01.001Z</time>
      </trkpt>
      <trkpt lat="44.34803" lon="3.57703">
        <ele>564.028</ele>
        <time>2019-10-27T13:18:31.001Z</time>
      </trkpt>
      <trkpt lat="44.35001" lon="3.57715">
        <ele>556.864</ele>
        <time>2019-10-27T13:19:01.001Z</time>
      </trkpt>
      <trkpt lat="44.35265" lon="3.5773">
        <ele>547.56</ele>
        <time>2019-10-27T13:19:31.001Z</time>
      </trkpt>
      <trkpt lat="44.35357" lon="3.57728">
        <ele>550.653</ele>
        <time>2019-10-27T13:20:01.001Z</time>
      </trkpt>
      <trkpt lat="44.3543" lon="3.57727">
        <ele>558.088</ele>
        <time>2019-10-27T13:20:31.001Z</time>
      </trkpt>
      <trkpt lat="44.35505" lon="3.57701">
        <ele>565.045</ele>
        <time>2019-10-27T13:21:01.001Z</time>
      </trkpt>
      <trkpt lat="44.35598" lon="3.57662">
        <ele>566.034</ele>
        <time>2019-10-27T13:21:31.001Z</time>
      </trkpt>
      <trkpt lat="44.35657" lon="3.57523">
        <ele>569.083</ele>
        <time>2019-10-27T13:22:01.001Z</time>
      </trkpt>
      <trkpt lat="44.35688" lon="3.57398">
        <ele>567.443</ele>
        <time>2019-10-27T13:22:31.001Z</time>
      </trkpt>
      <trkpt lat="44.35708" lon="3.57276">
        <ele>570.072</ele>
        <time>2019-10-27T13:23:01.001Z</time>
      </trkpt>
      <trkpt lat="44.35736" lon="3.57169">
        <ele>573.203</ele>
        <time>2019-10-27T13:23:31.001Z</time>
      </trkpt>
      <trkpt lat="44.3575" lon="3.57068">
        <ele>582.197</ele>
        <time>2019-10-27T13:24:01.001Z</time>
      </trkpt>
      <trkpt lat="44.35765" lon="3.56955">
        <ele>580.796</ele>
        <time>2019-10-27T13:24:31.001Z</time>
      </trkpt>
      <trkpt lat="44.35827" lon="3.56873">
        <ele>581.18</ele>
        <time>2019-10-27T13:25:01.001Z</time>
      </trkpt>
      <trkpt lat="44.35975" lon="3.5689">
        <ele>577.483</ele>
        <time>2019-10-27T13:25:31.001Z</time>
      </trkpt>
      <trkpt lat="44.36173" lon="3.56804">
        <ele>572.535</ele>
        <time>2019-10-27T13:26:01.001Z</time>
      </trkpt>
      <trkpt lat="44.36279" lon="3.56384">
        <ele>558.312</ele>
        <time>2019-10-27T13:26:31.001Z</time>
      </trkpt>
      <trkpt lat="44.36196" lon="3.55979">
        <ele>545.521</ele>
        <time>2019-10-27T13:27:01.001Z</time>
      </trkpt>
      <trkpt lat="44.36404" lon="3.5575">
        <ele>536.525</ele>
        <time>2019-10-27T13:27:31.001Z</time>
      </trkpt>
      <trkpt lat="44.36716" lon="3.55694">
        <ele>526.147</ele>
        <time>2019-10-27T13:28:01.001Z</time>
      </trkpt>
      <trkpt lat="44.36993" lon="3.5565">
        <ele>521.233</ele>
        <time>2019-10-27T13:28:31.001Z</time>
      </trkpt>
      <trkpt lat="44.37178" lon="3.55593">
        <ele>523.415</ele>
        <time>2019-10-27T13:29:01.001Z</time>
      </trkpt>
      <trkpt lat="44.37312" lon="3.55526">
        <ele>524.791</ele>
        <time>2019-10-27T13:29:31.001Z</time>
      </trkpt>
      <trkpt lat="44.37428" lon="3.55427">
        <ele>526.131</ele>
        <time>2019-10-27T13:30:01.001Z</time>
      </trkpt>
      <trkpt lat="44.37539" lon="3.55315">
        <ele>523.838</ele>
        <time>2019-10-27T13:30:31.001Z</time>
      </trkpt>
      <trkpt lat="44.37661" lon="3.55117">
        <ele>529.544</ele>
        <time>2019-10-27T13:31:01.001Z</time>
      </trkpt>
      <trkpt lat="44.3773" lon="3.54896">
        <ele>518.239</ele>
        <time>2019-10-27T13:31:31.001Z</time>
      </trkpt>
      <trkpt lat="44.37729" lon="3.54691">
        <ele>518.233</ele>
        <time>2019-10-27T13:32:01.001Z</time>
      </trkpt>
      <trkpt lat="44.37686" lon="3.54484">
        <ele>520.902</ele>
        <time>2019-10-27T13:32:31.001Z</time>
      </trkpt>
      <trkpt lat="44.3756" lon="3.5431">
        <ele>514.111</ele>
        <time>2019-10-27T13:33:04.001Z</time>
      </trkpt>
      <trkpt lat="44.3743" lon="3.54162">
        <ele>511.995</ele>
        <time>2019-10-27T13:33:34.001Z</time>
      </trkpt>
      <trkpt lat="44.37286" lon="3.54033">
        <ele>510.248</ele>
        <time>2019-10-27T13:34:04.001Z</time>
      </trkpt>
      <trkpt lat="44.37175" lon="3.53955">
        <ele>514.784</ele>
        <time>2019-10-27T13:34:34.001Z</time>
      </trkpt>
      <trkpt lat="44.37101" lon="3.53912">
        <ele>518.724</ele>
        <time>2019-10-27T13:35:04.001Z</time>
      </trkpt>
      <trkpt lat="44.37062" lon="3.53819">
        <ele>529.11</ele>
        <time>2019-10-27T13:35:34.001Z</time>
      </trkpt>
      <trkpt lat="44.37057" lon="3.53619">
        <ele>532.514</ele>
        <time>2019-10-27T13:36:04.001Z</time>
      </trkpt>
      <trkpt lat="44.37131" lon="3.53428">
        <ele>533.927</ele>
        <time>2019-10-27T13:36:34.001Z</time>
      </trkpt>
      <trkpt lat="44.37242" lon="3.53238">
        <ele>527.883</ele>
        <time>2019-10-27T13:37:04.001Z</time>
      </trkpt>
      <trkpt lat="44.37401" lon="3.53092">
        <ele>514.635</ele>
        <time>2019-10-27T13:37:34.001Z</time>
      </trkpt>
      <trkpt lat="44.37528" lon="3.52978">
        <ele>510.439</ele>
        <time>2019-10-27T13:38:04.001Z</time>
      </trkpt>
      <trkpt lat="44.37558" lon="3.52815">
        <ele>512.229</ele>
        <time>2019-10-27T13:38:34.001Z</time>
      </trkpt>
      <trkpt lat="44.37608" lon="3.52613">
        <ele>514.045</ele>
        <time>2019-10-27T13:39:04.001Z</time>
      </trkpt>
      <trkpt lat="44.37675" lon="3.52421">
        <ele>515.598</ele>
        <time>2019-10-27T13:39:34.001Z</time>
      </trkpt>
      <trkpt lat="44.37687" lon="3.52207">
        <ele>514.148</ele>
        <time>2019-10-27T13:40:04.001Z</time>
      </trkpt>
      <trkpt lat="44.37708" lon="3.52194">
        <ele>513.599</ele>
        <time>2019-10-27T13:46:40.001Z</time>
      </trkpt>
      <trkpt lat="44.37694" lon="3.52217">
        <ele>536.592</ele>
        <time>2019-10-27T13:48:45.001Z</time>
      </trkpt>
      <trkpt lat="44.37692" lon="3.52198">
        <ele>510.97</ele>
        <time>2019-10-27T13:49:57.001Z</time>
      </trkpt>
      <trkpt lat="44.37692" lon="3.52223">
        <ele>512.289</ele>
        <time>2019-10-27T13:50:51.001Z</time>
      </trkpt>
      <trkpt lat="44.37694" lon="3.52306">
        <ele>519.223</ele>
        <time>2019-10-27T13:51:51.001Z</time>
      </trkpt>
      <trkpt lat="44.37696" lon="3.52313">
        <ele>517.086</ele>
        <time>2019-10-27T14:00:36.001Z</time>
      </trkpt>
      <trkpt lat="44.37696" lon="3.52309">
        <ele>517.011</ele>
        <time>2019-10-27T14:03:00.001Z</time>
      </trkpt>
      <trkpt lat="44.37696" lon="3.52309">
        <ele>517.011</ele>
        <time>2019-10-27T14:06:15.001Z</time>
      </trkpt>
      <trkpt lat="44.37696" lon="3.52309">
        <ele>517.011</ele>
        <time>2019-10-27T14:07:03.001Z</time>
      </trkpt>
    </trkseg>
  </trk>
  <trk>
    <name><![CDATA[Tracé 20191028-075628]]></name>
    <trkseg>
      <trkpt lat="44.37681" lon="3.52225">
        <ele>523.335</ele>
        <time>2019-10-28T07:00:01Z</time>
      </trkpt>
      <trkpt lat="44.37672" lon="3.52131">
        <ele>515.091</ele>
        <time>2019-10-28T07:05:10Z</time>
      </trkpt>
      <trkpt lat="44.37556" lon="3.52076">
        <ele>515.524</ele>
        <time>2019-10-28T07:05:40Z</time>
      </trkpt>
      <trkpt lat="44.37368" lon="3.51975">
        <ele>508.238</ele>
        <time>2019-10-28T07:06:10Z</time>
      </trkpt>
      <trkpt lat="44.37207" lon="3.51899">
        <ele>501.574</ele>
        <time>2019-10-28T07:06:43Z</time>
      </trkpt>
      <trkpt lat="44.37073" lon="3.51928">
        <ele>507.298</ele>
        <time>2019-10-28T07:07:13Z</time>
      </trkpt>
      <trkpt lat="44.36942" lon="3.51993">
        <ele>511.983</ele>
        <time>2019-10-28T07:07:43Z</time>
      </trkpt>
      <trkpt lat="44.36797" lon="3.52082">
        <ele>511.177</ele>
        <time>2019-10-28T07:08:13Z</time>
      </trkpt>
      <trkpt lat="44.36659" lon="3.52141">
        <ele>504.393</ele>
        <time>2019-10-28T07:08:43Z</time>
      </trkpt>
      <trkpt lat="44.36515" lon="3.52192">
        <ele>504.498</ele>
        <time>2019-10-28T07:09:13Z</time>
      </trkpt>
      <trkpt lat="44.36362" lon="3.52223">
        <ele>504.616</ele>
        <time>2019-10-28T07:09:43Z</time>
      </trkpt>
      <trkpt lat="44.36206" lon="3.5221">
        <ele>506.317</ele>
        <time>2019-10-28T07:10:13Z</time>
      </trkpt>
      <trkpt lat="44.36052" lon="3.52177">
        <ele>506.293</ele>
        <time>2019-10-28T07:10:43Z</time>
      </trkpt>
      <trkpt lat="44.3588" lon="3.52139">
        <ele>504.756</ele>
        <time>2019-10-28T07:11:16Z</time>
      </trkpt>
      <trkpt lat="44.35748" lon="3.52053">
        <ele>499.251</ele>
        <time>2019-10-28T07:11:46Z</time>
      </trkpt>
      <trkpt lat="44.35622" lon="3.51928">
        <ele>481.421</ele>
        <time>2019-10-28T07:12:16Z</time>
      </trkpt>
      <trkpt lat="44.3551" lon="3.51817">
        <ele>494.84</ele>
        <time>2019-10-28T07:12:46Z</time>
      </trkpt>
      <trkpt lat="44.35399" lon="3.51763">
        <ele>494.677</ele>
        <time>2019-10-28T07:13:16Z</time>
      </trkpt>
      <trkpt lat="44.35274" lon="3.51747">
        <ele>475.014</ele>
        <time>2019-10-28T07:13:46Z</time>
      </trkpt>
      <trkpt lat="44.35164" lon="3.51738">
        <ele>453.066</ele>
        <time>2019-10-28T07:14:16Z</time>
      </trkpt>
      <trkpt lat="44.35106" lon="3.51756">
        <ele>449.568</ele>
        <time>2019-10-28T07:15:10Z</time>
      </trkpt>
      <trkpt lat="44.35011" lon="3.51781">
        <ele>475.385</ele>
        <time>2019-10-28T07:15:40Z</time>
      </trkpt>
      <trkpt lat="44.35084" lon="3.51484">
        <ele>513.828</ele>
        <time>2019-10-28T07:16:13Z</time>
      </trkpt>
      <trkpt lat="44.35175" lon="3.51274">
        <ele>514.504</ele>
        <time>2019-10-28T07:16:43Z</time>
      </trkpt>
      <trkpt lat="44.35182" lon="3.51143">
        <ele>514.363</ele>
        <time>2019-10-28T07:17:13Z</time>
      </trkpt>
      <trkpt lat="44.35114" lon="3.51056">
        <ele>516.837</ele>
        <time>2019-10-28T07:17:43Z</time>
      </trkpt>
      <trkpt lat="44.35015" lon="3.51038">
        <ele>506.006</ele>
        <time>2019-10-28T07:18:13Z</time>
      </trkpt>
      <trkpt lat="44.34924" lon="3.51093">
        <ele>492.616</ele>
        <time>2019-10-28T07:18:43Z</time>
      </trkpt>
      <trkpt lat="44.3485" lon="3.51148">
        <ele>486.684</ele>
        <time>2019-10-28T07:19:13Z</time>
      </trkpt>
      <trkpt lat="44.34753" lon="3.51217">
        <ele>500.69</ele>
        <time>2019-10-28T07:19:43Z</time>
      </trkpt>
      <trkpt lat="44.34535" lon="3.51181">
        <ele>511.601</ele>
        <time>2019-10-28T07:20:16Z</time>
      </trkpt>
      <trkpt lat="44.34364" lon="3.509">
        <ele>514</ele>
        <time>2019-10-28T07:20:46Z</time>
      </trkpt>
      <trkpt lat="44.34242" lon="3.50549">
        <ele>503.128</ele>
        <time>2019-10-28T07:21:16Z</time>
      </trkpt>
      <trkpt lat="44.34187" lon="3.5031">
        <ele>495.921</ele>
        <time>2019-10-28T07:21:46Z</time>
      </trkpt>
      <trkpt lat="44.3412" lon="3.5012">
        <ele>496.094</ele>
        <time>2019-10-28T07:22:16Z</time>
      </trkpt>
      <trkpt lat="44.34027" lon="3.49954">
        <ele>499.984</ele>
        <time>2019-10-28T07:22:46Z</time>
      </trkpt>
      <trkpt lat="44.33944" lon="3.49837">
        <ele>500.107</ele>
        <time>2019-10-28T07:23:16Z</time>
      </trkpt>
      <trkpt lat="44.33884" lon="3.49765">
        <ele>508.867</ele>
        <time>2019-10-28T07:23:46Z</time>
      </trkpt>
      <trkpt lat="44.33825" lon="3.49704">
        <ele>513.027</ele>
        <time>2019-10-28T07:24:16Z</time>
      </trkpt>
      <trkpt lat="44.3376" lon="3.49654">
        <ele>506.728</ele>
        <time>2019-10-28T07:24:49Z</time>
      </trkpt>
      <trkpt lat="44.3369" lon="3.49618">
        <ele>507.041</ele>
        <time>2019-10-28T07:25:19Z</time>
      </trkpt>
      <trkpt lat="44.33614" lon="3.49585">
        <ele>498.291</ele>
        <time>2019-10-28T07:25:49Z</time>
      </trkpt>
      <trkpt lat="44.3354" lon="3.49532">
        <ele>513.126</ele>
        <time>2019-10-28T07:26:19Z</time>
      </trkpt>
      <trkpt lat="44.33605" lon="3.49393">
        <ele>517.299</ele>
        <time>2019-10-28T07:26:49Z</time>
      </trkpt>
      <trkpt lat="44.33733" lon="3.4924">
        <ele>515.995</ele>
        <time>2019-10-28T07:27:19Z</time>
      </trkpt>
      <trkpt lat="44.33762" lon="3.48993">
        <ele>518.098</ele>
        <time>2019-10-28T07:27:49Z</time>
      </trkpt>
      <trkpt lat="44.33663" lon="3.48832">
        <ele>513.102</ele>
        <time>2019-10-28T07:28:19Z</time>
      </trkpt>
      <trkpt lat="44.33583" lon="3.48653">
        <ele>511.074</ele>
        <time>2019-10-28T07:28:49Z</time>
      </trkpt>
      <trkpt lat="44.33661" lon="3.48445">
        <ele>510.118</ele>
        <time>2019-10-28T07:29:22Z</time>
      </trkpt>
      <trkpt lat="44.3371" lon="3.48362">
        <ele>512.67</ele>
        <time>2019-10-28T07:30:49Z</time>
      </trkpt>
      <trkpt lat="44.33773" lon="3.48174">
        <ele>510.925</ele>
        <time>2019-10-28T07:31:19Z</time>
      </trkpt>
      <trkpt lat="44.33733" lon="3.48013">
        <ele>511.851</ele>
        <time>2019-10-28T07:31:49Z</time>
      </trkpt>
      <trkpt lat="44.337" lon="3.4785">
        <ele>516.908</ele>
        <time>2019-10-28T07:32:19Z</time>
      </trkpt>
      <trkpt lat="44.33696" lon="3.47704">
        <ele>517.344</ele>
        <time>2019-10-28T07:32:49Z</time>
      </trkpt>
      <trkpt lat="44.33768" lon="3.47622">
        <ele>521.201</ele>
        <time>2019-10-28T07:33:19Z</time>
      </trkpt>
      <trkpt lat="44.33836" lon="3.47554">
        <ele>523.62</ele>
        <time>2019-10-28T07:33:49Z</time>
      </trkpt>
      <trkpt lat="44.33873" lon="3.47463">
        <ele>524.581</ele>
        <time>2019-10-28T07:34:22Z</time>
      </trkpt>
      <trkpt lat="44.33929" lon="3.47394">
        <ele>527.311</ele>
        <time>2019-10-28T07:34:52Z</time>
      </trkpt>
      <trkpt lat="44.33975" lon="3.4731">
        <ele>533.387</ele>
        <time>2019-10-28T07:35:22Z</time>
      </trkpt>
      <trkpt lat="44.3404" lon="3.47252">
        <ele>532.477</ele>
        <time>2019-10-28T07:35:52Z</time>
      </trkpt>
      <trkpt lat="44.34111" lon="3.47212">
        <ele>537.559</ele>
        <time>2019-10-28T07:36:22Z</time>
      </trkpt>
      <trkpt lat="44.34122" lon="3.47112">
        <ele>542.396</ele>
        <time>2019-10-28T07:36:52Z</time>
      </trkpt>
      <trkpt lat="44.34114" lon="3.47009">
        <ele>544.969</ele>
        <time>2019-10-28T07:37:22Z</time>
      </trkpt>
      <trkpt lat="44.34114" lon="3.46907">
        <ele>548.503</ele>
        <time>2019-10-28T07:37:52Z</time>
      </trkpt>
      <trkpt lat="44.34111" lon="3.46803">
        <ele>552.957</ele>
        <time>2019-10-28T07:38:22Z</time>
      </trkpt>
      <trkpt lat="44.34108" lon="3.46693">
        <ele>559.232</ele>
        <time>2019-10-28T07:38:55Z</time>
      </trkpt>
      <trkpt lat="44.34168" lon="3.46657">
        <ele>562.967</ele>
        <time>2019-10-28T07:39:25Z</time>
      </trkpt>
      <trkpt lat="44.34208" lon="3.46652">
        <ele>561.295</ele>
        <time>2019-10-28T07:41:37Z</time>
      </trkpt>
      <trkpt lat="44.34268" lon="3.46615">
        <ele>566.448</ele>
        <time>2019-10-28T07:42:07Z</time>
      </trkpt>
      <trkpt lat="44.3433" lon="3.46617">
        <ele>568.887</ele>
        <time>2019-10-28T07:42:37Z</time>
      </trkpt>
      <trkpt lat="44.34429" lon="3.46607">
        <ele>567.733</ele>
        <time>2019-10-28T07:43:07Z</time>
      </trkpt>
      <trkpt lat="44.346" lon="3.46516">
        <ele>568.808</ele>
        <time>2019-10-28T07:43:37Z</time>
      </trkpt>
      <trkpt lat="44.34739" lon="3.46408">
        <ele>563.343</ele>
        <time>2019-10-28T07:44:07Z</time>
      </trkpt>
      <trkpt lat="44.34927" lon="3.46136">
        <ele>547.616</ele>
        <time>2019-10-28T07:44:40Z</time>
      </trkpt>
      <trkpt lat="44.35092" lon="3.45965">
        <ele>537.926</ele>
        <time>2019-10-28T07:45:10Z</time>
      </trkpt>
      <trkpt lat="44.35205" lon="3.4595">
        <ele>536.451</ele>
        <time>2019-10-28T07:45:40Z</time>
      </trkpt>
      <trkpt lat="44.35276" lon="3.45877">
        <ele>546.013</ele>
        <time>2019-10-28T07:46:10Z</time>
      </trkpt>
      <trkpt lat="44.35318" lon="3.45735">
        <ele>540.154</ele>
        <time>2019-10-28T07:46:40Z</time>
      </trkpt>
      <trkpt lat="44.35369" lon="3.45567">
        <ele>543.573</ele>
        <time>2019-10-28T07:47:10Z</time>
      </trkpt>
      <trkpt lat="44.35425" lon="3.45363">
        <ele>544.305</ele>
        <time>2019-10-28T07:47:40Z</time>
      </trkpt>
      <trkpt lat="44.3546" lon="3.45137">
        <ele>543.17</ele>
        <time>2019-10-28T07:48:10Z</time>
      </trkpt>
      <trkpt lat="44.35426" lon="3.44933">
        <ele>544.708</ele>
        <time>2019-10-28T07:48:40Z</time>
      </trkpt>
      <trkpt lat="44.35627" lon="3.44759">
        <ele>531.502</ele>
        <time>2019-10-28T07:49:13Z</time>
      </trkpt>
      <trkpt lat="44.35897" lon="3.44656">
        <ele>526.513</ele>
        <time>2019-10-28T07:49:43Z</time>
      </trkpt>
      <trkpt lat="44.35984" lon="3.4433">
        <ele>518.537</ele>
        <time>2019-10-28T07:50:13Z</time>
      </trkpt>
      <trkpt lat="44.35856" lon="3.44066">
        <ele>506.705</ele>
        <time>2019-10-28T07:50:43Z</time>
      </trkpt>
      <trkpt lat="44.35821" lon="3.43662">
        <ele>494.622</ele>
        <time>2019-10-28T07:51:13Z</time>
      </trkpt>
      <trkpt lat="44.36107" lon="3.43537">
        <ele>485.15</ele>
        <time>2019-10-28T07:51:43Z</time>
      </trkpt>
      <trkpt lat="44.36304" lon="3.43531">
        <ele>481.433</ele>
        <time>2019-10-28T07:52:13Z</time>
      </trkpt>
      <trkpt lat="44.36469" lon="3.43504">
        <ele>484.113</ele>
        <time>2019-10-28T07:52:43Z</time>
      </trkpt>
      <trkpt lat="44.36603" lon="3.43389">
        <ele>488.258</ele>
        <time>2019-10-28T07:53:13Z</time>
      </trkpt>
      <trkpt lat="44.36683" lon="3.4317">
        <ele>487.324</ele>
        <time>2019-10-28T07:53:46Z</time>
      </trkpt>
      <trkpt lat="44.36651" lon="3.42935">
        <ele>484.583</ele>
        <time>2019-10-28T07:54:16Z</time>
      </trkpt>
      <trkpt lat="44.36563" lon="3.42736">
        <ele>485.342</ele>
        <time>2019-10-28T07:54:46Z</time>
      </trkpt>
      <trkpt lat="44.36527" lon="3.42483">
        <ele>476.674</ele>
        <time>2019-10-28T07:55:16Z</time>
      </trkpt>
      <trkpt lat="44.36569" lon="3.42281">
        <ele>475.904</ele>
        <time>2019-10-28T07:55:46Z</time>
      </trkpt>
      <trkpt lat="44.3661" lon="3.42066">
        <ele>469.921</ele>
        <time>2019-10-28T07:56:16Z</time>
      </trkpt>
      <trkpt lat="44.36623" lon="3.41814">
        <ele>477.975</ele>
        <time>2019-10-28T07:56:46Z</time>
      </trkpt>
      <trkpt lat="44.36617" lon="3.41588">
        <ele>476.494</ele>
        <time>2019-10-28T07:57:16Z</time>
      </trkpt>
      <trkpt lat="44.36618" lon="3.41343">
        <ele>473.541</ele>
        <time>2019-10-28T07:57:49Z</time>
      </trkpt>
      <trkpt lat="44.36545" lon="3.41114">
        <ele>472.393</ele>
        <time>2019-10-28T07:58:19Z</time>
      </trkpt>
      <trkpt lat="44.36541" lon="3.40979">
        <ele>472.689</ele>
        <time>2019-10-28T07:58:49Z</time>
      </trkpt>
      <trkpt lat="44.36459" lon="3.40926">
        <ele>477.07</ele>
        <time>2019-10-28T07:59:19Z</time>
      </trkpt>
      <trkpt lat="44.363" lon="3.41048">
        <ele>460.584</ele>
        <time>2019-10-28T08:00:19Z</time>
      </trkpt>
      <trkpt lat="44.36272" lon="3.4117">
        <ele>459.963</ele>
        <time>2019-10-28T08:00:49Z</time>
      </trkpt>
      <trkpt lat="44.36192" lon="3.41101">
        <ele>476.775</ele>
        <time>2019-10-28T08:01:19Z</time>
      </trkpt>
      <trkpt lat="44.36115" lon="3.4092">
        <ele>481.495</ele>
        <time>2019-10-28T08:01:49Z</time>
      </trkpt>
      <trkpt lat="44.36012" lon="3.40712">
        <ele>480.055</ele>
        <time>2019-10-28T08:02:19Z</time>
      </trkpt>
      <trkpt lat="44.35858" lon="3.40488">
        <ele>474.953</ele>
        <time>2019-10-28T08:02:52Z</time>
      </trkpt>
      <trkpt lat="44.3566" lon="3.40425">
        <ele>471.169</ele>
        <time>2019-10-28T08:03:22Z</time>
      </trkpt>
      <trkpt lat="44.35543" lon="3.40398">
        <ele>470.319</ele>
        <time>2019-10-28T08:03:52Z</time>
      </trkpt>
      <trkpt lat="44.35444" lon="3.40321">
        <ele>470.716</ele>
        <time>2019-10-28T08:04:22Z</time>
      </trkpt>
      <trkpt lat="44.35385" lon="3.40199">
        <ele>475.094</ele>
        <time>2019-10-28T08:04:52Z</time>
      </trkpt>
      <trkpt lat="44.35324" lon="3.40084">
        <ele>479.828</ele>
        <time>2019-10-28T08:05:22Z</time>
      </trkpt>
      <trkpt lat="44.35271" lon="3.39943">
        <ele>476.813</ele>
        <time>2019-10-28T08:05:52Z</time>
      </trkpt>
      <trkpt lat="44.35218" lon="3.39794">
        <ele>481.018</ele>
        <time>2019-10-28T08:06:22Z</time>
      </trkpt>
      <trkpt lat="44.35153" lon="3.39664">
        <ele>485.39</ele>
        <time>2019-10-28T08:06:52Z</time>
      </trkpt>
      <trkpt lat="44.35057" lon="3.39575">
        <ele>482.756</ele>
        <time>2019-10-28T08:07:25Z</time>
      </trkpt>
      <trkpt lat="44.34949" lon="3.3957">
        <ele>482.732</ele>
        <time>2019-10-28T08:07:55Z</time>
      </trkpt>
      <trkpt lat="44.34811" lon="3.3957">
        <ele>480.777</ele>
        <time>2019-10-28T08:08:25Z</time>
      </trkpt>
      <trkpt lat="44.3466" lon="3.39556">
        <ele>482.109</ele>
        <time>2019-10-28T08:08:55Z</time>
      </trkpt>
      <trkpt lat="44.34561" lon="3.3942">
        <ele>478.218</ele>
        <time>2019-10-28T08:09:25Z</time>
      </trkpt>
      <trkpt lat="44.34556" lon="3.3923">
        <ele>479.151</ele>
        <time>2019-10-28T08:09:55Z</time>
      </trkpt>
      <trkpt lat="44.34577" lon="3.39045">
        <ele>481.204</ele>
        <time>2019-10-28T08:10:25Z</time>
      </trkpt>
      <trkpt lat="44.34481" lon="3.38924">
        <ele>489.391</ele>
        <time>2019-10-28T08:10:55Z</time>
      </trkpt>
      <trkpt lat="44.3432" lon="3.38865">
        <ele>486.318</ele>
        <time>2019-10-28T08:11:28Z</time>
      </trkpt>
      <trkpt lat="44.3417" lon="3.38675">
        <ele>477.933</ele>
        <time>2019-10-28T08:11:58Z</time>
      </trkpt>
      <trkpt lat="44.3402" lon="3.38479">
        <ele>475.901</ele>
        <time>2019-10-28T08:12:28Z</time>
      </trkpt>
      <trkpt lat="44.33951" lon="3.38347">
        <ele>472.42</ele>
        <time>2019-10-28T08:12:58Z</time>
      </trkpt>
      <trkpt lat="44.3388" lon="3.38246">
        <ele>479.634</ele>
        <time>2019-10-28T08:13:28Z</time>
      </trkpt>
      <trkpt lat="44.33799" lon="3.38179">
        <ele>481.559</ele>
        <time>2019-10-28T08:13:58Z</time>
      </trkpt>
      <trkpt lat="44.33706" lon="3.38163">
        <ele>475.531</ele>
        <time>2019-10-28T08:14:28Z</time>
      </trkpt>
      <trkpt lat="44.33628" lon="3.3823">
        <ele>476.426</ele>
        <time>2019-10-28T08:14:58Z</time>
      </trkpt>
      <trkpt lat="44.33562" lon="3.38175">
        <ele>478.804</ele>
        <time>2019-10-28T08:15:37Z</time>
      </trkpt>
      <trkpt lat="44.33712" lon="3.3804">
        <ele>482.724</ele>
        <time>2019-10-28T08:16:10Z</time>
      </trkpt>
      <trkpt lat="44.33869" lon="3.37857">
        <ele>475.224</ele>
        <time>2019-10-28T08:16:40Z</time>
      </trkpt>
      <trkpt lat="44.34004" lon="3.37618">
        <ele>470.846</ele>
        <time>2019-10-28T08:17:10Z</time>
      </trkpt>
      <trkpt lat="44.34166" lon="3.37436">
        <ele>466.859</ele>
        <time>2019-10-28T08:17:40Z</time>
      </trkpt>
      <trkpt lat="44.34296" lon="3.37227">
        <ele>463.596</ele>
        <time>2019-10-28T08:18:10Z</time>
      </trkpt>
      <trkpt lat="44.34314" lon="3.37012">
        <ele>461.002</ele>
        <time>2019-10-28T08:18:40Z</time>
      </trkpt>
      <trkpt lat="44.34288" lon="3.36812">
        <ele>466.852</ele>
        <time>2019-10-28T08:19:10Z</time>
      </trkpt>
      <trkpt lat="44.34198" lon="3.36635">
        <ele>471.131</ele>
        <time>2019-10-28T08:19:40Z</time>
      </trkpt>
      <trkpt lat="44.34105" lon="3.36507">
        <ele>478.244</ele>
        <time>2019-10-28T08:20:10Z</time>
      </trkpt>
      <trkpt lat="44.34037" lon="3.36412">
        <ele>478.726</ele>
        <time>2019-10-28T08:20:43Z</time>
      </trkpt>
      <trkpt lat="44.33992" lon="3.36326">
        <ele>481.032</ele>
        <time>2019-10-28T08:21:13Z</time>
      </trkpt>
      <trkpt lat="44.33938" lon="3.36264">
        <ele>482.114</ele>
        <time>2019-10-28T08:21:43Z</time>
      </trkpt>
      <trkpt lat="44.33915" lon="3.36176">
        <ele>483.894</ele>
        <time>2019-10-28T08:22:13Z</time>
      </trkpt>
      <trkpt lat="44.3386" lon="3.36128">
        <ele>481.185</ele>
        <time>2019-10-28T08:22:43Z</time>
      </trkpt>
      <trkpt lat="44.33789" lon="3.36127">
        <ele>488.243</ele>
        <time>2019-10-28T08:23:13Z</time>
      </trkpt>
      <trkpt lat="44.33713" lon="3.36208">
        <ele>493.255</ele>
        <time>2019-10-28T08:23:49Z</time>
      </trkpt>
      <trkpt lat="44.33586" lon="3.36164">
        <ele>491.489</ele>
        <time>2019-10-28T08:24:19Z</time>
      </trkpt>
      <trkpt lat="44.33585" lon="3.35843">
        <ele>461.795</ele>
        <time>2019-10-28T08:24:52Z</time>
      </trkpt>
      <trkpt lat="44.3349" lon="3.35693">
        <ele>477.042</ele>
        <time>2019-10-28T08:25:22Z</time>
      </trkpt>
      <trkpt lat="44.33379" lon="3.35568">
        <ele>471.519</ele>
        <time>2019-10-28T08:25:52Z</time>
      </trkpt>
      <trkpt lat="44.33247" lon="3.35492">
        <ele>475.288</ele>
        <time>2019-10-28T08:26:22Z</time>
      </trkpt>
      <trkpt lat="44.33122" lon="3.35442">
        <ele>474.936</ele>
        <time>2019-10-28T08:26:52Z</time>
      </trkpt>
      <trkpt lat="44.32997" lon="3.35378">
        <ele>472.735</ele>
        <time>2019-10-28T08:27:22Z</time>
      </trkpt>
      <trkpt lat="44.32932" lon="3.35213">
        <ele>471.269</ele>
        <time>2019-10-28T08:27:52Z</time>
      </trkpt>
      <trkpt lat="44.32872" lon="3.3503">
        <ele>467.485</ele>
        <time>2019-10-28T08:28:22Z</time>
      </trkpt>
      <trkpt lat="44.32818" lon="3.34856">
        <ele>469.537</ele>
        <time>2019-10-28T08:28:52Z</time>
      </trkpt>
      <trkpt lat="44.32707" lon="3.34729">
        <ele>473.168</ele>
        <time>2019-10-28T08:29:25Z</time>
      </trkpt>
      <trkpt lat="44.32599" lon="3.34627">
        <ele>467.527</ele>
        <time>2019-10-28T08:29:55Z</time>
      </trkpt>
      <trkpt lat="44.3247" lon="3.34577">
        <ele>467.91</ele>
        <time>2019-10-28T08:30:25Z</time>
      </trkpt>
      <trkpt lat="44.32342" lon="3.34516">
        <ele>469.289</ele>
        <time>2019-10-28T08:30:55Z</time>
      </trkpt>
      <trkpt lat="44.32183" lon="3.3456">
        <ele>477.078</ele>
        <time>2019-10-28T08:31:25Z</time>
      </trkpt>
      <trkpt lat="44.32026" lon="3.34612">
        <ele>485.707</ele>
        <time>2019-10-28T08:31:55Z</time>
      </trkpt>
      <trkpt lat="44.31857" lon="3.34598">
        <ele>466.798</ele>
        <time>2019-10-28T08:32:25Z</time>
      </trkpt>
      <trkpt lat="44.31724" lon="3.34457">
        <ele>463.633</ele>
        <time>2019-10-28T08:32:55Z</time>
      </trkpt>
      <trkpt lat="44.3166" lon="3.34163">
        <ele>460.304</ele>
        <time>2019-10-28T08:33:25Z</time>
      </trkpt>
      <trkpt lat="44.31535" lon="3.33879">
        <ele>458.795</ele>
        <time>2019-10-28T08:33:58Z</time>
      </trkpt>
      <trkpt lat="44.31379" lon="3.33775">
        <ele>459.903</ele>
        <time>2019-10-28T08:34:28Z</time>
      </trkpt>
      <trkpt lat="44.31247" lon="3.33629">
        <ele>449.045</ele>
        <time>2019-10-28T08:34:58Z</time>
      </trkpt>
      <trkpt lat="44.3114" lon="3.33456">
        <ele>445.673</ele>
        <time>2019-10-28T08:35:28Z</time>
      </trkpt>
      <trkpt lat="44.3105" lon="3.33282">
        <ele>445.55</ele>
        <time>2019-10-28T08:35:58Z</time>
      </trkpt>
      <trkpt lat="44.30998" lon="3.33218">
        <ele>444.158</ele>
        <time>2019-10-28T08:37:55Z</time>
      </trkpt>
      <trkpt lat="44.30981" lon="3.33209">
        <ele>437.725</ele>
        <time>2019-10-28T08:40:13Z</time>
      </trkpt>
      <trkpt lat="44.30915" lon="3.33106">
        <ele>457.955</ele>
        <time>2019-10-28T08:40:43Z</time>
      </trkpt>
      <trkpt lat="44.30816" lon="3.33036">
        <ele>466.164</ele>
        <time>2019-10-28T08:41:16Z</time>
      </trkpt>
      <trkpt lat="44.30696" lon="3.3293">
        <ele>455.852</ele>
        <time>2019-10-28T08:41:46Z</time>
      </trkpt>
      <trkpt lat="44.30585" lon="3.32772">
        <ele>460.085</ele>
        <time>2019-10-28T08:42:16Z</time>
      </trkpt>
      <trkpt lat="44.30477" lon="3.32605">
        <ele>459.423</ele>
        <time>2019-10-28T08:42:46Z</time>
      </trkpt>
      <trkpt lat="44.30364" lon="3.32449">
        <ele>460.049</ele>
        <time>2019-10-28T08:43:16Z</time>
      </trkpt>
      <trkpt lat="44.30244" lon="3.32299">
        <ele>464.614</ele>
        <time>2019-10-28T08:43:46Z</time>
      </trkpt>
      <trkpt lat="44.30132" lon="3.321">
        <ele>457.743</ele>
        <time>2019-10-28T08:44:16Z</time>
      </trkpt>
      <trkpt lat="44.30127" lon="3.3197">
        <ele>450.944</ele>
        <time>2019-10-28T08:44:49Z</time>
      </trkpt>
      <trkpt lat="44.30127" lon="3.31949">
        <ele>453.491</ele>
        <time>2019-10-28T08:45:46Z</time>
      </trkpt>
      <trkpt lat="44.30121" lon="3.31937">
        <ele>453.824</ele>
        <time>2019-10-28T09:02:34Z</time>
      </trkpt>
      <trkpt lat="44.30127" lon="3.31857">
        <ele>454.992</ele>
        <time>2019-10-28T09:03:07Z</time>
      </trkpt>
      <trkpt lat="44.30139" lon="3.3173">
        <ele>457.087</ele>
        <time>2019-10-28T09:03:37Z</time>
      </trkpt>
      <trkpt lat="44.30127" lon="3.31607">
        <ele>457.851</ele>
        <time>2019-10-28T09:04:07Z</time>
      </trkpt>
      <trkpt lat="44.30106" lon="3.3148">
        <ele>457.756</ele>
        <time>2019-10-28T09:04:37Z</time>
      </trkpt>
      <trkpt lat="44.30046" lon="3.31373">
        <ele>460.791</ele>
        <time>2019-10-28T09:05:07Z</time>
      </trkpt>
      <trkpt lat="44.30023" lon="3.31259">
        <ele>465.838</ele>
        <time>2019-10-28T09:05:37Z</time>
      </trkpt>
      <trkpt lat="44.30122" lon="3.31202">
        <ele>470.115</ele>
        <time>2019-10-28T09:06:07Z</time>
      </trkpt>
      <trkpt lat="44.30262" lon="3.31088">
        <ele>469.537</ele>
        <time>2019-10-28T09:06:40Z</time>
      </trkpt>
      <trkpt lat="44.30379" lon="3.30931">
        <ele>468.705</ele>
        <time>2019-10-28T09:07:10Z</time>
      </trkpt>
      <trkpt lat="44.30463" lon="3.30736">
        <ele>467.157</ele>
        <time>2019-10-28T09:07:40Z</time>
      </trkpt>
      <trkpt lat="44.3056" lon="3.30547">
        <ele>463.982</ele>
        <time>2019-10-28T09:08:10Z</time>
      </trkpt>
      <trkpt lat="44.30654" lon="3.30321">
        <ele>460.84</ele>
        <time>2019-10-28T09:08:40Z</time>
      </trkpt>
      <trkpt lat="44.30617" lon="3.29988">
        <ele>457.437</ele>
        <time>2019-10-28T09:09:10Z</time>
      </trkpt>
      <trkpt lat="44.3048" lon="3.29733">
        <ele>451.503</ele>
        <time>2019-10-28T09:09:40Z</time>
      </trkpt>
      <trkpt lat="44.30394" lon="3.29644">
        <ele>449.846</ele>
        <time>2019-10-28T09:10:10Z</time>
      </trkpt>
      <trkpt lat="44.30306" lon="3.29592">
        <ele>453.496</ele>
        <time>2019-10-28T09:10:40Z</time>
      </trkpt>
      <trkpt lat="44.30212" lon="3.29571">
        <ele>460.872</ele>
        <time>2019-10-28T09:11:13Z</time>
      </trkpt>
      <trkpt lat="44.30181" lon="3.29453">
        <ele>457.668</ele>
        <time>2019-10-28T09:11:43Z</time>
      </trkpt>
      <trkpt lat="44.3013" lon="3.2935">
        <ele>463.141</ele>
        <time>2019-10-28T09:12:13Z</time>
      </trkpt>
      <trkpt lat="44.30088" lon="3.2924">
        <ele>468.508</ele>
        <time>2019-10-28T09:12:43Z</time>
      </trkpt>
      <trkpt lat="44.30052" lon="3.29123">
        <ele>467.784</ele>
        <time>2019-10-28T09:13:13Z</time>
      </trkpt>
      <trkpt lat="44.29978" lon="3.29037">
        <ele>468.226</ele>
        <time>2019-10-28T09:13:43Z</time>
      </trkpt>
      <trkpt lat="44.29901" lon="3.28959">
        <ele>470.287</ele>
        <time>2019-10-28T09:14:13Z</time>
      </trkpt>
      <trkpt lat="44.29808" lon="3.28935">
        <ele>477.251</ele>
        <time>2019-10-28T09:14:43Z</time>
      </trkpt>
      <trkpt lat="44.29785" lon="3.28808">
        <ele>477.142</ele>
        <time>2019-10-28T09:15:13Z</time>
      </trkpt>
      <trkpt lat="44.29767" lon="3.28664">
        <ele>482.074</ele>
        <time>2019-10-28T09:15:46Z</time>
      </trkpt>
      <trkpt lat="44.29769" lon="3.28509">
        <ele>484.234</ele>
        <time>2019-10-28T09:16:16Z</time>
      </trkpt>
      <trkpt lat="44.29777" lon="3.28348">
        <ele>486.453</ele>
        <time>2019-10-28T09:16:46Z</time>
      </trkpt>
      <trkpt lat="44.29763" lon="3.28185">
        <ele>486.902</ele>
        <time>2019-10-28T09:17:16Z</time>
      </trkpt>
      <trkpt lat="44.29895" lon="3.27981">
        <ele>476.999</ele>
        <time>2019-10-28T09:17:46Z</time>
      </trkpt>
      <trkpt lat="44.29994" lon="3.27668">
        <ele>469.856</ele>
        <time>2019-10-28T09:18:16Z</time>
      </trkpt>
      <trkpt lat="44.30168" lon="3.27375">
        <ele>457.496</ele>
        <time>2019-10-28T09:18:46Z</time>
      </trkpt>
      <trkpt lat="44.30296" lon="3.27122">
        <ele>446.263</ele>
        <time>2019-10-28T09:19:16Z</time>
      </trkpt>
      <trkpt lat="44.30373" lon="3.26918">
        <ele>444.11</ele>
        <time>2019-10-28T09:19:49Z</time>
      </trkpt>
      <trkpt lat="44.30471" lon="3.26827">
        <ele>445.836</ele>
        <time>2019-10-28T09:20:19Z</time>
      </trkpt>
      <trkpt lat="44.30546" lon="3.26697">
        <ele>451.373</ele>
        <time>2019-10-28T09:20:49Z</time>
      </trkpt>
      <trkpt lat="44.30542" lon="3.2652">
        <ele>452.11</ele>
        <time>2019-10-28T09:21:19Z</time>
      </trkpt>
      <trkpt lat="44.30548" lon="3.26207">
        <ele>459.517</ele>
        <time>2019-10-28T09:21:49Z</time>
      </trkpt>
      <trkpt lat="44.3054" lon="3.25973">
        <ele>461.519</ele>
        <time>2019-10-28T09:22:19Z</time>
      </trkpt>
      <trkpt lat="44.3046" lon="3.25772">
        <ele>469.864</ele>
        <time>2019-10-28T09:22:49Z</time>
      </trkpt>
      <trkpt lat="44.30603" lon="3.25537">
        <ele>468.942</ele>
        <time>2019-10-28T09:23:19Z</time>
      </trkpt>
      <trkpt lat="44.30698" lon="3.25399">
        <ele>447.2</ele>
        <time>2019-10-28T09:23:49Z</time>
      </trkpt>
      <trkpt lat="44.30777" lon="3.25229">
        <ele>444.784</ele>
        <time>2019-10-28T09:24:22Z</time>
      </trkpt>
      <trkpt lat="44.30819" lon="3.25004">
        <ele>444.701</ele>
        <time>2019-10-28T09:24:52Z</time>
      </trkpt>
      <trkpt lat="44.30812" lon="3.24833">
        <ele>439.924</ele>
        <time>2019-10-28T09:25:22Z</time>
      </trkpt>
      <trkpt lat="44.3076" lon="3.24647">
        <ele>444.007</ele>
        <time>2019-10-28T09:25:52Z</time>
      </trkpt>
      <trkpt lat="44.30651" lon="3.24497">
        <ele>445.949</ele>
        <time>2019-10-28T09:26:22Z</time>
      </trkpt>
      <trkpt lat="44.30516" lon="3.24409">
        <ele>456.52</ele>
        <time>2019-10-28T09:26:52Z</time>
      </trkpt>
      <trkpt lat="44.30436" lon="3.24237">
        <ele>450.445</ele>
        <time>2019-10-28T09:27:22Z</time>
      </trkpt>
      <trkpt lat="44.30428" lon="3.24031">
        <ele>448.752</ele>
        <time>2019-10-28T09:27:52Z</time>
      </trkpt>
      <trkpt lat="44.30363" lon="3.23866">
        <ele>442.093</ele>
        <time>2019-10-28T09:28:22Z</time>
      </trkpt>
      <trkpt lat="44.3023" lon="3.23804">
        <ele>449.213</ele>
        <time>2019-10-28T09:28:55Z</time>
      </trkpt>
      <trkpt lat="44.30081" lon="3.23837">
        <ele>445.12</ele>
        <time>2019-10-28T09:29:25Z</time>
      </trkpt>
      <trkpt lat="44.29918" lon="3.23864">
        <ele>443.515</ele>
        <time>2019-10-28T09:29:55Z</time>
      </trkpt>
      <trkpt lat="44.29746" lon="3.23858">
        <ele>442.704</ele>
        <time>2019-10-28T09:30:25Z</time>
      </trkpt>
      <trkpt lat="44.29582" lon="3.2382">
        <ele>440.591</ele>
        <time>2019-10-28T09:30:55Z</time>
      </trkpt>
      <trkpt lat="44.29439" lon="3.23715">
        <ele>440.238</ele>
        <time>2019-10-28T09:31:25Z</time>
      </trkpt>
      <trkpt lat="44.29294" lon="3.23703">
        <ele>442.03</ele>
        <time>2019-10-28T09:31:55Z</time>
      </trkpt>
      <trkpt lat="44.29133" lon="3.2374">
        <ele>437.843</ele>
        <time>2019-10-28T09:32:25Z</time>
      </trkpt>
      <trkpt lat="44.29039" lon="3.23782">
        <ele>440.897</ele>
        <time>2019-10-28T09:33:37Z</time>
      </trkpt>
      <trkpt lat="44.29045" lon="3.23775">
        <ele>445.968</ele>
        <time>2019-10-28T09:34:31Z</time>
      </trkpt>
      <trkpt lat="44.29039" lon="3.23789">
        <ele>443.052</ele>
        <time>2019-10-28T09:35:07Z</time>
      </trkpt>
      <trkpt lat="44.2904" lon="3.23801">
        <ele>444.891</ele>
        <time>2019-10-28T09:36:16Z</time>
      </trkpt>
      <trkpt lat="44.29044" lon="3.23804">
        <ele>447.696</ele>
        <time>2019-10-28T09:38:16Z</time>
      </trkpt>
      <trkpt lat="44.29032" lon="3.2378">
        <ele>451.572</ele>
        <time>2019-10-28T09:39:58Z</time>
      </trkpt>
      <trkpt lat="44.29037" lon="3.23781">
        <ele>453.23</ele>
        <time>2019-10-28T09:42:16Z</time>
      </trkpt>
      <trkpt lat="44.28957" lon="3.23728">
        <ele>450.61</ele>
        <time>2019-10-28T09:43:22Z</time>
      </trkpt>
      <trkpt lat="44.28767" lon="3.23557">
        <ele>438.888</ele>
        <time>2019-10-28T09:43:52Z</time>
      </trkpt>
      <trkpt lat="44.28558" lon="3.23278">
        <ele>419.798</ele>
        <time>2019-10-28T09:44:25Z</time>
      </trkpt>
      <trkpt lat="44.28381" lon="3.23136">
        <ele>413.918</ele>
        <time>2019-10-28T09:44:55Z</time>
      </trkpt>
      <trkpt lat="44.28267" lon="3.22997">
        <ele>416.481</ele>
        <time>2019-10-28T09:45:25Z</time>
      </trkpt>
      <trkpt lat="44.28131" lon="3.22945">
        <ele>421.586</ele>
        <time>2019-10-28T09:45:55Z</time>
      </trkpt>
      <trkpt lat="44.28058" lon="3.22894">
        <ele>422.586</ele>
        <time>2019-10-28T09:53:52Z</time>
      </trkpt>
      <trkpt lat="44.27957" lon="3.22885">
        <ele>425.919</ele>
        <time>2019-10-28T09:54:25Z</time>
      </trkpt>
      <trkpt lat="44.27821" lon="3.22798">
        <ele>423.068</ele>
        <time>2019-10-28T09:54:55Z</time>
      </trkpt>
      <trkpt lat="44.27729" lon="3.22689">
        <ele>419.724</ele>
        <time>2019-10-28T09:55:25Z</time>
      </trkpt>
      <trkpt lat="44.27698" lon="3.22617">
        <ele>424.862</ele>
        <time>2019-10-28T09:55:58Z</time>
      </trkpt>
      <trkpt lat="44.27743" lon="3.22672">
        <ele>433.831</ele>
        <time>2019-10-28T09:56:37Z</time>
      </trkpt>
      <trkpt lat="44.27802" lon="3.22703">
        <ele>440.142</ele>
        <time>2019-10-28T09:57:16Z</time>
      </trkpt>
      <trkpt lat="44.27855" lon="3.22721">
        <ele>442.368</ele>
        <time>2019-10-28T09:57:49Z</time>
      </trkpt>
      <trkpt lat="44.27899" lon="3.22755">
        <ele>448.163</ele>
        <time>2019-10-28T09:58:19Z</time>
      </trkpt>
      <trkpt lat="44.27949" lon="3.22793">
        <ele>455.941</ele>
        <time>2019-10-28T09:58:55Z</time>
      </trkpt>
      <trkpt lat="44.28008" lon="3.22809">
        <ele>461.732</ele>
        <time>2019-10-28T09:59:34Z</time>
      </trkpt>
      <trkpt lat="44.28066" lon="3.22815">
        <ele>467.298</ele>
        <time>2019-10-28T10:00:13Z</time>
      </trkpt>
      <trkpt lat="44.2812" lon="3.22777">
        <ele>475.303</ele>
        <time>2019-10-28T10:00:55Z</time>
      </trkpt>
      <trkpt lat="44.28182" lon="3.22735">
        <ele>480.968</ele>
        <time>2019-10-28T10:01:40Z</time>
      </trkpt>
      <trkpt lat="44.28231" lon="3.22693">
        <ele>486.638</ele>
        <time>2019-10-28T10:02:19Z</time>
      </trkpt>
      <trkpt lat="44.28285" lon="3.22681">
        <ele>489.506</ele>
        <time>2019-10-28T10:02:52Z</time>
      </trkpt>
      <trkpt lat="44.28339" lon="3.2266">
        <ele>491.392</ele>
        <time>2019-10-28T10:03:28Z</time>
      </trkpt>
      <trkpt lat="44.28285" lon="3.22657">
        <ele>496.833</ele>
        <time>2019-10-28T10:03:58Z</time>
      </trkpt>
      <trkpt lat="44.28235" lon="3.22656">
        <ele>499.038</ele>
        <time>2019-10-28T10:04:28Z</time>
      </trkpt>
      <trkpt lat="44.28171" lon="3.22682">
        <ele>507.502</ele>
        <time>2019-10-28T10:05:10Z</time>
      </trkpt>
      <trkpt lat="44.2811" lon="3.2268">
        <ele>513.818</ele>
        <time>2019-10-28T10:05:49Z</time>
      </trkpt>
      <trkpt lat="44.28053" lon="3.22669">
        <ele>516.58</ele>
        <time>2019-10-28T10:06:25Z</time>
      </trkpt>
      <trkpt lat="44.27987" lon="3.22614">
        <ele>526.054</ele>
        <time>2019-10-28T10:07:13Z</time>
      </trkpt>
      <trkpt lat="44.27939" lon="3.22572">
        <ele>527.653</ele>
        <time>2019-10-28T10:07:49Z</time>
      </trkpt>
      <trkpt lat="44.27942" lon="3.22549">
        <ele>537.034</ele>
        <time>2019-10-28T10:08:28Z</time>
      </trkpt>
      <trkpt lat="44.27988" lon="3.22586">
        <ele>537.24</ele>
        <time>2019-10-28T10:09:01Z</time>
      </trkpt>
      <trkpt lat="44.28043" lon="3.22601">
        <ele>542.083</ele>
        <time>2019-10-28T10:09:37Z</time>
      </trkpt>
      <trkpt lat="44.28099" lon="3.22599">
        <ele>546.856</ele>
        <time>2019-10-28T10:10:13Z</time>
      </trkpt>
      <trkpt lat="44.28153" lon="3.22581">
        <ele>549.78</ele>
        <time>2019-10-28T10:10:49Z</time>
      </trkpt>
      <trkpt lat="44.28208" lon="3.22557">
        <ele>554.38</ele>
        <time>2019-10-28T10:11:25Z</time>
      </trkpt>
      <trkpt lat="44.28281" lon="3.2254">
        <ele>563.625</ele>
        <time>2019-10-28T10:12:13Z</time>
      </trkpt>
      <trkpt lat="44.28333" lon="3.22526">
        <ele>569.59</ele>
        <time>2019-10-28T10:12:46Z</time>
      </trkpt>
      <trkpt lat="44.28386" lon="3.22486">
        <ele>576.298</ele>
        <time>2019-10-28T10:13:25Z</time>
      </trkpt>
      <trkpt lat="44.28442" lon="3.22435">
        <ele>580.484</ele>
        <time>2019-10-28T10:14:10Z</time>
      </trkpt>
      <trkpt lat="44.28468" lon="3.22404">
        <ele>580.462</ele>
        <time>2019-10-28T10:19:19Z</time>
      </trkpt>
      <trkpt lat="44.28435" lon="3.22424">
        <ele>584.446</ele>
        <time>2019-10-28T10:19:52Z</time>
      </trkpt>
      <trkpt lat="44.28377" lon="3.22456">
        <ele>582.919</ele>
        <time>2019-10-28T10:20:22Z</time>
      </trkpt>
      <trkpt lat="44.28318" lon="3.22466">
        <ele>592.075</ele>
        <time>2019-10-28T10:20:58Z</time>
      </trkpt>
      <trkpt lat="44.28262" lon="3.22451">
        <ele>599.255</ele>
        <time>2019-10-28T10:21:34Z</time>
      </trkpt>
      <trkpt lat="44.28206" lon="3.22448">
        <ele>604.468</ele>
        <time>2019-10-28T10:22:07Z</time>
      </trkpt>
      <trkpt lat="44.28151" lon="3.22445">
        <ele>613.201</ele>
        <time>2019-10-28T10:22:43Z</time>
      </trkpt>
      <trkpt lat="44.28103" lon="3.22424">
        <ele>613.62</ele>
        <time>2019-10-28T10:23:13Z</time>
      </trkpt>
      <trkpt lat="44.28049" lon="3.22396">
        <ele>617.016</ele>
        <time>2019-10-28T10:23:49Z</time>
      </trkpt>
      <trkpt lat="44.28004" lon="3.22365">
        <ele>622.643</ele>
        <time>2019-10-28T10:24:22Z</time>
      </trkpt>
      <trkpt lat="44.27951" lon="3.2233">
        <ele>626.774</ele>
        <time>2019-10-28T10:25:01Z</time>
      </trkpt>
      <trkpt lat="44.27894" lon="3.22291">
        <ele>636.422</ele>
        <time>2019-10-28T10:25:46Z</time>
      </trkpt>
      <trkpt lat="44.27825" lon="3.22282">
        <ele>642.387</ele>
        <time>2019-10-28T10:26:34Z</time>
      </trkpt>
      <trkpt lat="44.27837" lon="3.22239">
        <ele>650.071</ele>
        <time>2019-10-28T10:27:22Z</time>
      </trkpt>
      <trkpt lat="44.2791" lon="3.22243">
        <ele>660.64</ele>
        <time>2019-10-28T10:28:16Z</time>
      </trkpt>
      <trkpt lat="44.27964" lon="3.22253">
        <ele>664.458</ele>
        <time>2019-10-28T10:28:49Z</time>
      </trkpt>
      <trkpt lat="44.2802" lon="3.2225">
        <ele>668.691</ele>
        <time>2019-10-28T10:29:25Z</time>
      </trkpt>
      <trkpt lat="44.28074" lon="3.22265">
        <ele>675.871</ele>
        <time>2019-10-28T10:30:01Z</time>
      </trkpt>
      <trkpt lat="44.28129" lon="3.22276">
        <ele>682.589</ele>
        <time>2019-10-28T10:30:37Z</time>
      </trkpt>
      <trkpt lat="44.28182" lon="3.22257">
        <ele>683.271</ele>
        <time>2019-10-28T10:31:13Z</time>
      </trkpt>
      <trkpt lat="44.28243" lon="3.22225">
        <ele>689.615</ele>
        <time>2019-10-28T10:31:58Z</time>
      </trkpt>
      <trkpt lat="44.2829" lon="3.22165">
        <ele>698.369</ele>
        <time>2019-10-28T10:32:40Z</time>
      </trkpt>
      <trkpt lat="44.28331" lon="3.22097">
        <ele>705.384</ele>
        <time>2019-10-28T10:33:22Z</time>
      </trkpt>
      <trkpt lat="44.28318" lon="3.22073">
        <ele>705.318</ele>
        <time>2019-10-28T10:34:01Z</time>
      </trkpt>
      <trkpt lat="44.28274" lon="3.22114">
        <ele>703.613</ele>
        <time>2019-10-28T10:34:34Z</time>
      </trkpt>
      <trkpt lat="44.28213" lon="3.22139">
        <ele>709.444</ele>
        <time>2019-10-28T10:35:16Z</time>
      </trkpt>
      <trkpt lat="44.28162" lon="3.22131">
        <ele>714.221</ele>
        <time>2019-10-28T10:35:52Z</time>
      </trkpt>
      <trkpt lat="44.28101" lon="3.22116">
        <ele>720.138</ele>
        <time>2019-10-28T10:36:34Z</time>
      </trkpt>
      <trkpt lat="44.2803" lon="3.22078">
        <ele>730.484</ele>
        <time>2019-10-28T10:37:28Z</time>
      </trkpt>
      <trkpt lat="44.2797" lon="3.22051">
        <ele>735.589</ele>
        <time>2019-10-28T10:38:10Z</time>
      </trkpt>
      <trkpt lat="44.27897" lon="3.22034">
        <ele>746.268</ele>
        <time>2019-10-28T10:39:01Z</time>
      </trkpt>
      <trkpt lat="44.27835" lon="3.22012">
        <ele>751.496</ele>
        <time>2019-10-28T10:39:43Z</time>
      </trkpt>
      <trkpt lat="44.27779" lon="3.22003">
        <ele>749.247</ele>
        <time>2019-10-28T10:40:19Z</time>
      </trkpt>
      <trkpt lat="44.27765" lon="3.21979">
        <ele>752.957</ele>
        <time>2019-10-28T10:40:52Z</time>
      </trkpt>
      <trkpt lat="44.27816" lon="3.21992">
        <ele>759.315</ele>
        <time>2019-10-28T10:41:22Z</time>
      </trkpt>
      <trkpt lat="44.27871" lon="3.21981">
        <ele>761.598</ele>
        <time>2019-10-28T10:41:58Z</time>
      </trkpt>
      <trkpt lat="44.27938" lon="3.21982">
        <ele>773.595</ele>
        <time>2019-10-28T10:42:40Z</time>
      </trkpt>
      <trkpt lat="44.27995" lon="3.21985">
        <ele>772.583</ele>
        <time>2019-10-28T10:43:10Z</time>
      </trkpt>
      <trkpt lat="44.28055" lon="3.21983">
        <ele>777.191</ele>
        <time>2019-10-28T10:43:40Z</time>
      </trkpt>
      <trkpt lat="44.28115" lon="3.21967">
        <ele>774.365</ele>
        <time>2019-10-28T10:44:10Z</time>
      </trkpt>
      <trkpt lat="44.28172" lon="3.21953">
        <ele>779.686</ele>
        <time>2019-10-28T10:44:43Z</time>
      </trkpt>
      <trkpt lat="44.28232" lon="3.2194">
        <ele>780.758</ele>
        <time>2019-10-28T10:45:13Z</time>
      </trkpt>
      <trkpt lat="44.28271" lon="3.21891">
        <ele>788.832</ele>
        <time>2019-10-28T10:45:43Z</time>
      </trkpt>
      <trkpt lat="44.28261" lon="3.21855">
        <ele>787.939</ele>
        <time>2019-10-28T10:46:13Z</time>
      </trkpt>
      <trkpt lat="44.28217" lon="3.21915">
        <ele>788.508</ele>
        <time>2019-10-28T10:46:46Z</time>
      </trkpt>
      <trkpt lat="44.28165" lon="3.21922">
        <ele>788.804</ele>
        <time>2019-10-28T10:47:16Z</time>
      </trkpt>
      <trkpt lat="44.28106" lon="3.21931">
        <ele>792.297</ele>
        <time>2019-10-28T10:47:52Z</time>
      </trkpt>
      <trkpt lat="44.2805" lon="3.21926">
        <ele>793.124</ele>
        <time>2019-10-28T10:48:28Z</time>
      </trkpt>
      <trkpt lat="44.27995" lon="3.21913">
        <ele>799.682</ele>
        <time>2019-10-28T10:49:01Z</time>
      </trkpt>
      <trkpt lat="44.27941" lon="3.21892">
        <ele>805.625</ele>
        <time>2019-10-28T10:49:34Z</time>
      </trkpt>
      <trkpt lat="44.27892" lon="3.21866">
        <ele>809.615</ele>
        <time>2019-10-28T10:50:04Z</time>
      </trkpt>
      <trkpt lat="44.27839" lon="3.21858">
        <ele>812.475</ele>
        <time>2019-10-28T10:50:34Z</time>
      </trkpt>
      <trkpt lat="44.27788" lon="3.21857">
        <ele>814.678</ele>
        <time>2019-10-28T10:51:04Z</time>
      </trkpt>
      <trkpt lat="44.2773" lon="3.21852">
        <ele>818.84</ele>
        <time>2019-10-28T10:51:37Z</time>
      </trkpt>
      <trkpt lat="44.27684" lon="3.21823">
        <ele>825.026</ele>
        <time>2019-10-28T10:52:07Z</time>
      </trkpt>
      <trkpt lat="44.27634" lon="3.21779">
        <ele>830.828</ele>
        <time>2019-10-28T10:52:43Z</time>
      </trkpt>
      <trkpt lat="44.27596" lon="3.21731">
        <ele>835.352</ele>
        <time>2019-10-28T10:53:13Z</time>
      </trkpt>
      <trkpt lat="44.27545" lon="3.21686">
        <ele>836.241</ele>
        <time>2019-10-28T10:53:49Z</time>
      </trkpt>
      <trkpt lat="44.27498" lon="3.21655">
        <ele>838.944</ele>
        <time>2019-10-28T10:54:19Z</time>
      </trkpt>
      <trkpt lat="44.27451" lon="3.2162">
        <ele>844.007</ele>
        <time>2019-10-28T10:54:49Z</time>
      </trkpt>
      <trkpt lat="44.2741" lon="3.21572">
        <ele>844.963</ele>
        <time>2019-10-28T10:55:19Z</time>
      </trkpt>
      <trkpt lat="44.27358" lon="3.21548">
        <ele>849.762</ele>
        <time>2019-10-28T10:55:49Z</time>
      </trkpt>
      <trkpt lat="44.27303" lon="3.21524">
        <ele>854.811</ele>
        <time>2019-10-28T10:56:22Z</time>
      </trkpt>
      <trkpt lat="44.27272" lon="3.21475">
        <ele>847.909</ele>
        <time>2019-10-28T10:56:52Z</time>
      </trkpt>
      <trkpt lat="44.27273" lon="3.21395">
        <ele>850.177</ele>
        <time>2019-10-28T10:57:25Z</time>
      </trkpt>
      <trkpt lat="44.2725" lon="3.21324">
        <ele>860.374</ele>
        <time>2019-10-28T10:57:55Z</time>
      </trkpt>
      <trkpt lat="44.27288" lon="3.2125">
        <ele>875.642</ele>
        <time>2019-10-28T10:58:37Z</time>
      </trkpt>
      <trkpt lat="44.27335" lon="3.21206">
        <ele>882.793</ele>
        <time>2019-10-28T10:59:07Z</time>
      </trkpt>
      <trkpt lat="44.27376" lon="3.21158">
        <ele>882.125</ele>
        <time>2019-10-28T10:59:37Z</time>
      </trkpt>
      <trkpt lat="44.27426" lon="3.21153">
        <ele>880.972</ele>
        <time>2019-10-28T11:00:07Z</time>
      </trkpt>
      <trkpt lat="44.27485" lon="3.21127">
        <ele>883.114</ele>
        <time>2019-10-28T11:00:37Z</time>
      </trkpt>
      <trkpt lat="44.27533" lon="3.21087">
        <ele>889.85</ele>
        <time>2019-10-28T11:01:07Z</time>
      </trkpt>
      <trkpt lat="44.27577" lon="3.21039">
        <ele>897.333</ele>
        <time>2019-10-28T11:01:40Z</time>
      </trkpt>
      <trkpt lat="44.27632" lon="3.21013">
        <ele>898.228</ele>
        <time>2019-10-28T11:02:10Z</time>
      </trkpt>
      <trkpt lat="44.27691" lon="3.20985">
        <ele>905.174</ele>
        <time>2019-10-28T11:02:46Z</time>
      </trkpt>
      <trkpt lat="44.27742" lon="3.20958">
        <ele>908.163</ele>
        <time>2019-10-28T11:03:16Z</time>
      </trkpt>
      <trkpt lat="44.27789" lon="3.2092">
        <ele>907.063</ele>
        <time>2019-10-28T11:03:46Z</time>
      </trkpt>
      <trkpt lat="44.27836" lon="3.20872">
        <ele>908.188</ele>
        <time>2019-10-28T11:04:19Z</time>
      </trkpt>
      <trkpt lat="44.27864" lon="3.20855">
        <ele>908.071</ele>
        <time>2019-10-28T11:06:07Z</time>
      </trkpt>
      <trkpt lat="44.27969" lon="3.2086">
        <ele>905.985</ele>
        <time>2019-10-28T11:06:37Z</time>
      </trkpt>
      <trkpt lat="44.28127" lon="3.20871">
        <ele>900.494</ele>
        <time>2019-10-28T11:07:07Z</time>
      </trkpt>
      <trkpt lat="44.28283" lon="3.2076">
        <ele>895.541</ele>
        <time>2019-10-28T11:07:37Z</time>
      </trkpt>
      <trkpt lat="44.28319" lon="3.20561">
        <ele>888.873</ele>
        <time>2019-10-28T11:08:07Z</time>
      </trkpt>
      <trkpt lat="44.28302" lon="3.20336">
        <ele>886.794</ele>
        <time>2019-10-28T11:08:40Z</time>
      </trkpt>
      <trkpt lat="44.28311" lon="3.20112">
        <ele>883.854</ele>
        <time>2019-10-28T11:09:10Z</time>
      </trkpt>
      <trkpt lat="44.2849" lon="3.20269">
        <ele>885.385</ele>
        <time>2019-10-28T11:09:40Z</time>
      </trkpt>
      <trkpt lat="44.28801" lon="3.20276">
        <ele>872.824</ele>
        <time>2019-10-28T11:10:10Z</time>
      </trkpt>
      <trkpt lat="44.29037" lon="3.20048">
        <ele>852.593</ele>
        <time>2019-10-28T11:10:40Z</time>
      </trkpt>
      <trkpt lat="44.29141" lon="3.19913">
        <ele>854.212</ele>
        <time>2019-10-28T11:11:10Z</time>
      </trkpt>
      <trkpt lat="44.29261" lon="3.19791">
        <ele>856.17</ele>
        <time>2019-10-28T11:11:40Z</time>
      </trkpt>
      <trkpt lat="44.29342" lon="3.19658">
        <ele>861.068</ele>
        <time>2019-10-28T11:12:10Z</time>
      </trkpt>
      <trkpt lat="44.29467" lon="3.19554">
        <ele>863.511</ele>
        <time>2019-10-28T11:12:40Z</time>
      </trkpt>
      <trkpt lat="44.29625" lon="3.19528">
        <ele>857.642</ele>
        <time>2019-10-28T11:13:13Z</time>
      </trkpt>
      <trkpt lat="44.2976" lon="3.19485">
        <ele>857.683</ele>
        <time>2019-10-28T11:13:43Z</time>
      </trkpt>
      <trkpt lat="44.2981" lon="3.19403">
        <ele>863.531</ele>
        <time>2019-10-28T11:14:13Z</time>
      </trkpt>
      <trkpt lat="44.29858" lon="3.19323">
        <ele>867.675</ele>
        <time>2019-10-28T11:14:43Z</time>
      </trkpt>
      <trkpt lat="44.29866" lon="3.19228">
        <ele>869.899</ele>
        <time>2019-10-28T11:15:13Z</time>
      </trkpt>
      <trkpt lat="44.29846" lon="3.19138">
        <ele>875.506</ele>
        <time>2019-10-28T11:15:43Z</time>
      </trkpt>
      <trkpt lat="44.29818" lon="3.19051">
        <ele>877.657</ele>
        <time>2019-10-28T11:16:13Z</time>
      </trkpt>
      <trkpt lat="44.29795" lon="3.18958">
        <ele>878.543</ele>
        <time>2019-10-28T11:16:43Z</time>
      </trkpt>
      <trkpt lat="44.29832" lon="3.18868">
        <ele>884.181</ele>
        <time>2019-10-28T11:17:16Z</time>
      </trkpt>
      <trkpt lat="44.29968" lon="3.18836">
        <ele>882.806</ele>
        <time>2019-10-28T11:17:46Z</time>
      </trkpt>
      <trkpt lat="44.3012" lon="3.18827">
        <ele>880.377</ele>
        <time>2019-10-28T11:18:16Z</time>
      </trkpt>
      <trkpt lat="44.30231" lon="3.187">
        <ele>870.322</ele>
        <time>2019-10-28T11:18:46Z</time>
      </trkpt>
      <trkpt lat="44.30273" lon="3.1848">
        <ele>871.226</ele>
        <time>2019-10-28T11:19:16Z</time>
      </trkpt>
      <trkpt lat="44.30401" lon="3.18222">
        <ele>863.259</ele>
        <time>2019-10-28T11:19:46Z</time>
      </trkpt>
      <trkpt lat="44.30608" lon="3.18044">
        <ele>863.629</ele>
        <time>2019-10-28T11:20:16Z</time>
      </trkpt>
      <trkpt lat="44.30698" lon="3.18003">
        <ele>867.846</ele>
        <time>2019-10-28T11:20:46Z</time>
      </trkpt>
      <trkpt lat="44.30728" lon="3.17867">
        <ele>863.845</ele>
        <time>2019-10-28T11:21:16Z</time>
      </trkpt>
      <trkpt lat="44.30832" lon="3.17665">
        <ele>860.43</ele>
        <time>2019-10-28T11:21:49Z</time>
      </trkpt>
      <trkpt lat="44.30846" lon="3.17501">
        <ele>862.959</ele>
        <time>2019-10-28T11:22:19Z</time>
      </trkpt>
      <trkpt lat="44.30826" lon="3.17385">
        <ele>869.542</ele>
        <time>2019-10-28T11:22:49Z</time>
      </trkpt>
      <trkpt lat="44.30768" lon="3.17157">
        <ele>866.742</ele>
        <time>2019-10-28T11:23:19Z</time>
      </trkpt>
      <trkpt lat="44.30753" lon="3.16892">
        <ele>858.928</ele>
        <time>2019-10-28T11:23:49Z</time>
      </trkpt>
      <trkpt lat="44.30713" lon="3.16626">
        <ele>855.606</ele>
        <time>2019-10-28T11:24:19Z</time>
      </trkpt>
      <trkpt lat="44.30633" lon="3.16327">
        <ele>850.63</ele>
        <time>2019-10-28T11:24:49Z</time>
      </trkpt>
      <trkpt lat="44.30674" lon="3.16045">
        <ele>847.106</ele>
        <time>2019-10-28T11:25:19Z</time>
      </trkpt>
      <trkpt lat="44.30701" lon="3.15756">
        <ele>844.255</ele>
        <time>2019-10-28T11:25:52Z</time>
      </trkpt>
      <trkpt lat="44.30714" lon="3.15531">
        <ele>845.391</ele>
        <time>2019-10-28T11:26:22Z</time>
      </trkpt>
      <trkpt lat="44.30734" lon="3.15339">
        <ele>848.737</ele>
        <time>2019-10-28T11:26:52Z</time>
      </trkpt>
      <trkpt lat="44.30752" lon="3.15176">
        <ele>850.457</ele>
        <time>2019-10-28T11:27:22Z</time>
      </trkpt>
      <trkpt lat="44.30785" lon="3.15032">
        <ele>850.191</ele>
        <time>2019-10-28T11:27:52Z</time>
      </trkpt>
      <trkpt lat="44.30829" lon="3.14852">
        <ele>848.143</ele>
        <time>2019-10-28T11:28:22Z</time>
      </trkpt>
      <trkpt lat="44.30856" lon="3.14671">
        <ele>848.684</ele>
        <time>2019-10-28T11:28:52Z</time>
      </trkpt>
      <trkpt lat="44.30875" lon="3.14466">
        <ele>853.149</ele>
        <time>2019-10-28T11:29:22Z</time>
      </trkpt>
      <trkpt lat="44.30932" lon="3.14208">
        <ele>853.055</ele>
        <time>2019-10-28T11:29:52Z</time>
      </trkpt>
      <trkpt lat="44.30993" lon="3.13988">
        <ele>856.349</ele>
        <time>2019-10-28T11:30:25Z</time>
      </trkpt>
      <trkpt lat="44.31087" lon="3.1381">
        <ele>855.775</ele>
        <time>2019-10-28T11:30:55Z</time>
      </trkpt>
      <trkpt lat="44.31138" lon="3.13642">
        <ele>853.316</ele>
        <time>2019-10-28T11:31:25Z</time>
      </trkpt>
      <trkpt lat="44.31197" lon="3.13306">
        <ele>841.212</ele>
        <time>2019-10-28T11:31:55Z</time>
      </trkpt>
      <trkpt lat="44.31245" lon="3.12746">
        <ele>823.067</ele>
        <time>2019-10-28T11:32:25Z</time>
      </trkpt>
      <trkpt lat="44.3132" lon="3.12383">
        <ele>810.857</ele>
        <time>2019-10-28T11:32:55Z</time>
      </trkpt>
      <trkpt lat="44.31376" lon="3.12123">
        <ele>800.83</ele>
        <time>2019-10-28T11:33:25Z</time>
      </trkpt>
      <trkpt lat="44.31409" lon="3.11832">
        <ele>801.471</ele>
        <time>2019-10-28T11:33:55Z</time>
      </trkpt>
      <trkpt lat="44.31407" lon="3.11498">
        <ele>792.301</ele>
        <time>2019-10-28T11:34:25Z</time>
      </trkpt>
      <trkpt lat="44.31546" lon="3.11065">
        <ele>782.999</ele>
        <time>2019-10-28T11:34:58Z</time>
      </trkpt>
      <trkpt lat="44.31475" lon="3.10665">
        <ele>768.571</ele>
        <time>2019-10-28T11:35:28Z</time>
      </trkpt>
      <trkpt lat="44.31281" lon="3.10381">
        <ele>758.598</ele>
        <time>2019-10-28T11:35:58Z</time>
      </trkpt>
      <trkpt lat="44.31336" lon="3.1002">
        <ele>754.524</ele>
        <time>2019-10-28T11:36:28Z</time>
      </trkpt>
      <trkpt lat="44.31455" lon="3.09746">
        <ele>746.845</ele>
        <time>2019-10-28T11:36:58Z</time>
      </trkpt>
      <trkpt lat="44.3166" lon="3.09484">
        <ele>741.334</ele>
        <time>2019-10-28T11:37:28Z</time>
      </trkpt>
      <trkpt lat="44.31784" lon="3.09296">
        <ele>738.118</ele>
        <time>2019-10-28T11:37:58Z</time>
      </trkpt>
      <trkpt lat="44.31923" lon="3.09067">
        <ele>732.282</ele>
        <time>2019-10-28T11:38:28Z</time>
      </trkpt>
      <trkpt lat="44.32058" lon="3.08773">
        <ele>726.744</ele>
        <time>2019-10-28T11:39:01Z</time>
      </trkpt>
      <trkpt lat="44.32122" lon="3.08493">
        <ele>719.095</ele>
        <time>2019-10-28T11:39:31Z</time>
      </trkpt>
      <trkpt lat="44.32147" lon="3.08174">
        <ele>721.216</ele>
        <time>2019-10-28T11:40:01Z</time>
      </trkpt>
      <trkpt lat="44.32141" lon="3.07945">
        <ele>725.065</ele>
        <time>2019-10-28T11:40:31Z</time>
      </trkpt>
      <trkpt lat="44.32106" lon="3.07753">
        <ele>729.025</ele>
        <time>2019-10-28T11:41:01Z</time>
      </trkpt>
      <trkpt lat="44.32106" lon="3.0756">
        <ele>726.786</ele>
        <time>2019-10-28T11:41:31Z</time>
      </trkpt>
      <trkpt lat="44.32069" lon="3.0746">
        <ele>728.573</ele>
        <time>2019-10-28T11:42:55Z</time>
      </trkpt>
      <trkpt lat="44.32097" lon="3.07407">
        <ele>726.572</ele>
        <time>2019-10-28T11:46:19Z</time>
      </trkpt>
      <trkpt lat="44.32142" lon="3.07351">
        <ele>733.811</ele>
        <time>2019-10-28T11:46:52Z</time>
      </trkpt>
      <trkpt lat="44.32075" lon="3.07435">
        <ele>740.695</ele>
        <time>2019-10-28T11:47:28Z</time>
      </trkpt>
      <trkpt lat="44.32086" lon="3.07325">
        <ele>733.473</ele>
        <time>2019-10-28T11:47:58Z</time>
      </trkpt>
      <trkpt lat="44.3207" lon="3.07129">
        <ele>724.746</ele>
        <time>2019-10-28T11:48:28Z</time>
      </trkpt>
      <trkpt lat="44.31988" lon="3.06918">
        <ele>712.659</ele>
        <time>2019-10-28T11:48:58Z</time>
      </trkpt>
      <trkpt lat="44.32038" lon="3.06688">
        <ele>705.945</ele>
        <time>2019-10-28T11:49:28Z</time>
      </trkpt>
      <trkpt lat="44.32166" lon="3.06572">
        <ele>705.9</ele>
        <time>2019-10-28T11:49:58Z</time>
      </trkpt>
      <trkpt lat="44.32287" lon="3.06364">
        <ele>704.741</ele>
        <time>2019-10-28T11:50:28Z</time>
      </trkpt>
      <trkpt lat="44.32337" lon="3.06045">
        <ele>696.6</ele>
        <time>2019-10-28T11:50:58Z</time>
      </trkpt>
      <trkpt lat="44.32399" lon="3.05813">
        <ele>684.592</ele>
        <time>2019-10-28T11:51:28Z</time>
      </trkpt>
      <trkpt lat="44.32543" lon="3.05727">
        <ele>660.253</ele>
        <time>2019-10-28T11:52:01Z</time>
      </trkpt>
      <trkpt lat="44.32684" lon="3.05628">
        <ele>662.815</ele>
        <time>2019-10-28T11:52:31Z</time>
      </trkpt>
      <trkpt lat="44.32836" lon="3.05567">
        <ele>666.485</ele>
        <time>2019-10-28T11:53:01Z</time>
      </trkpt>
      <trkpt lat="44.32955" lon="3.0534">
        <ele>659.976</ele>
        <time>2019-10-28T11:53:31Z</time>
      </trkpt>
      <trkpt lat="44.33005" lon="3.05084">
        <ele>660.13</ele>
        <time>2019-10-28T11:54:01Z</time>
      </trkpt>
      <trkpt lat="44.33046" lon="3.04843">
        <ele>661.828</ele>
        <time>2019-10-28T11:54:31Z</time>
      </trkpt>
      <trkpt lat="44.33089" lon="3.046">
        <ele>659.371</ele>
        <time>2019-10-28T11:55:01Z</time>
      </trkpt>
      <trkpt lat="44.33188" lon="3.04405">
        <ele>657.001</ele>
        <time>2019-10-28T11:55:31Z</time>
      </trkpt>
      <trkpt lat="44.33241" lon="3.04109">
        <ele>657.952</ele>
        <time>2019-10-28T11:56:04Z</time>
      </trkpt>
      <trkpt lat="44.33319" lon="3.03852">
        <ele>656.572</ele>
        <time>2019-10-28T11:56:34Z</time>
      </trkpt>
      <trkpt lat="44.33357" lon="3.03584">
        <ele>652.493</ele>
        <time>2019-10-28T11:57:04Z</time>
      </trkpt>
      <trkpt lat="44.33371" lon="3.03293">
        <ele>652.793</ele>
        <time>2019-10-28T11:57:34Z</time>
      </trkpt>
      <trkpt lat="44.33428" lon="3.03027">
        <ele>650.289</ele>
        <time>2019-10-28T11:58:04Z</time>
      </trkpt>
      <trkpt lat="44.33591" lon="3.02866">
        <ele>650.934</ele>
        <time>2019-10-28T11:58:34Z</time>
      </trkpt>
      <trkpt lat="44.33794" lon="3.0279">
        <ele>655.578</ele>
        <time>2019-10-28T11:59:04Z</time>
      </trkpt>
      <trkpt lat="44.33986" lon="3.02665">
        <ele>650.779</ele>
        <time>2019-10-28T11:59:34Z</time>
      </trkpt>
      <trkpt lat="44.34146" lon="3.02438">
        <ele>643.657</ele>
        <time>2019-10-28T12:00:04Z</time>
      </trkpt>
      <trkpt lat="44.34289" lon="3.02158">
        <ele>641.345</ele>
        <time>2019-10-28T12:00:37Z</time>
      </trkpt>
      <trkpt lat="44.34388" lon="3.01917">
        <ele>643.242</ele>
        <time>2019-10-28T12:01:07Z</time>
      </trkpt>
      <trkpt lat="44.34484" lon="3.01702">
        <ele>642.102</ele>
        <time>2019-10-28T12:01:37Z</time>
      </trkpt>
      <trkpt lat="44.34591" lon="3.01498">
        <ele>640.403</ele>
        <time>2019-10-28T12:02:07Z</time>
      </trkpt>
      <trkpt lat="44.34647" lon="3.01245">
        <ele>639.567</ele>
        <time>2019-10-28T12:02:37Z</time>
      </trkpt>
      <trkpt lat="44.34664" lon="3.00953">
        <ele>639.615</ele>
        <time>2019-10-28T12:03:07Z</time>
      </trkpt>
      <trkpt lat="44.34671" lon="3.00675">
        <ele>637.982</ele>
        <time>2019-10-28T12:03:37Z</time>
      </trkpt>
      <trkpt lat="44.34691" lon="3.00422">
        <ele>636.116</ele>
        <time>2019-10-28T12:04:07Z</time>
      </trkpt>
      <trkpt lat="44.34747" lon="3.0024">
        <ele>639.98</ele>
        <time>2019-10-28T12:04:37Z</time>
      </trkpt>
      <trkpt lat="44.34806" lon="3.00067">
        <ele>643.469</ele>
        <time>2019-10-28T12:05:10Z</time>
      </trkpt>
      <trkpt lat="44.34859" lon="2.99906">
        <ele>646.794</ele>
        <time>2019-10-28T12:05:40Z</time>
      </trkpt>
      <trkpt lat="44.34893" lon="2.99792">
        <ele>651.505</ele>
        <time>2019-10-28T12:06:10Z</time>
      </trkpt>
      <trkpt lat="44.34907" lon="2.99684">
        <ele>656.879</ele>
        <time>2019-10-28T12:06:40Z</time>
      </trkpt>
      <trkpt lat="44.34899" lon="2.99577">
        <ele>660.822</ele>
        <time>2019-10-28T12:07:10Z</time>
      </trkpt>
      <trkpt lat="44.3488" lon="2.99458">
        <ele>660.693</ele>
        <time>2019-10-28T12:07:40Z</time>
      </trkpt>
      <trkpt lat="44.34855" lon="2.99342">
        <ele>659.596</ele>
        <time>2019-10-28T12:08:10Z</time>
      </trkpt>
      <trkpt lat="44.34835" lon="2.99208">
        <ele>659.207</ele>
        <time>2019-10-28T12:08:40Z</time>
      </trkpt>
      <trkpt lat="44.3481" lon="2.99014">
        <ele>658.064</ele>
        <time>2019-10-28T12:09:13Z</time>
      </trkpt>
      <trkpt lat="44.34814" lon="2.98958">
        <ele>661.638</ele>
        <time>2019-10-28T12:10:01Z</time>
      </trkpt>
      <trkpt lat="44.34823" lon="2.98966">
        <ele>664.721</ele>
        <time>2019-10-28T12:44:49Z</time>
      </trkpt>
      <trkpt lat="44.34815" lon="2.98748">
        <ele>655.415</ele>
        <time>2019-10-28T12:45:19Z</time>
      </trkpt>
      <trkpt lat="44.34641" lon="2.98458">
        <ele>641.752</ele>
        <time>2019-10-28T12:45:49Z</time>
      </trkpt>
      <trkpt lat="44.34518" lon="2.98236">
        <ele>639.997</ele>
        <time>2019-10-28T12:46:19Z</time>
      </trkpt>
      <trkpt lat="44.34446" lon="2.98104">
        <ele>646.251</ele>
        <time>2019-10-28T12:46:49Z</time>
      </trkpt>
      <trkpt lat="44.34446" lon="2.98071">
        <ele>645.63</ele>
        <time>2019-10-28T12:50:28.001Z</time>
      </trkpt>
      <trkpt lat="44.34383" lon="2.97964">
        <ele>648.399</ele>
        <time>2019-10-28T12:50:58.001Z</time>
      </trkpt>
      <trkpt lat="44.3431" lon="2.97808">
        <ele>653.577</ele>
        <time>2019-10-28T12:51:31.001Z</time>
      </trkpt>
      <trkpt lat="44.34258" lon="2.9761">
        <ele>652.277</ele>
        <time>2019-10-28T12:52:01.001Z</time>
      </trkpt>
      <trkpt lat="44.34232" lon="2.97412">
        <ele>651.628</ele>
        <time>2019-10-28T12:52:31.001Z</time>
      </trkpt>
      <trkpt lat="44.34202" lon="2.97204">
        <ele>649.578</ele>
        <time>2019-10-28T12:53:01.001Z</time>
      </trkpt>
      <trkpt lat="44.34152" lon="2.96959">
        <ele>650.093</ele>
        <time>2019-10-28T12:53:31.001Z</time>
      </trkpt>
      <trkpt lat="44.34123" lon="2.96668">
        <ele>648.628</ele>
        <time>2019-10-28T12:54:01.001Z</time>
      </trkpt>
      <trkpt lat="44.34278" lon="2.96367">
        <ele>632.242</ele>
        <time>2019-10-28T12:54:31.001Z</time>
      </trkpt>
      <trkpt lat="44.34423" lon="2.96276">
        <ele>630.244</ele>
        <time>2019-10-28T12:55:01.001Z</time>
      </trkpt>
      <trkpt lat="44.34535" lon="2.96143">
        <ele>630.75</ele>
        <time>2019-10-28T12:55:31.001Z</time>
      </trkpt>
      <trkpt lat="44.34594" lon="2.95875">
        <ele>629.113</ele>
        <time>2019-10-28T12:56:04.001Z</time>
      </trkpt>
      <trkpt lat="44.34721" lon="2.95654">
        <ele>623.541</ele>
        <time>2019-10-28T12:56:34.001Z</time>
      </trkpt>
      <trkpt lat="44.3476" lon="2.95477">
        <ele>627.278</ele>
        <time>2019-10-28T12:57:04.001Z</time>
      </trkpt>
      <trkpt lat="44.34793" lon="2.95341">
        <ele>634.401</ele>
        <time>2019-10-28T12:57:34.001Z</time>
      </trkpt>
      <trkpt lat="44.34822" lon="2.95212">
        <ele>643.075</ele>
        <time>2019-10-28T12:58:04.001Z</time>
      </trkpt>
      <trkpt lat="44.34847" lon="2.95081">
        <ele>639.36</ele>
        <time>2019-10-28T12:58:34.001Z</time>
      </trkpt>
      <trkpt lat="44.34857" lon="2.94944">
        <ele>640.868</ele>
        <time>2019-10-28T12:59:04.001Z</time>
      </trkpt>
      <trkpt lat="44.34874" lon="2.94795">
        <ele>642.065</ele>
        <time>2019-10-28T12:59:34.001Z</time>
      </trkpt>
      <trkpt lat="44.34927" lon="2.94603">
        <ele>640.417</ele>
        <time>2019-10-28T13:00:07.001Z</time>
      </trkpt>
      <trkpt lat="44.35023" lon="2.94385">
        <ele>639.155</ele>
        <time>2019-10-28T13:00:37.001Z</time>
      </trkpt>
      <trkpt lat="44.35156" lon="2.9415">
        <ele>639.723</ele>
        <time>2019-10-28T13:01:07.001Z</time>
      </trkpt>
      <trkpt lat="44.35201" lon="2.93852">
        <ele>633.481</ele>
        <time>2019-10-28T13:01:37.001Z</time>
      </trkpt>
      <trkpt lat="44.3512" lon="2.93502">
        <ele>622.025</ele>
        <time>2019-10-28T13:02:07.001Z</time>
      </trkpt>
      <trkpt lat="44.35235" lon="2.93213">
        <ele>617.46</ele>
        <time>2019-10-28T13:02:37.001Z</time>
      </trkpt>
      <trkpt lat="44.35373" lon="2.92967">
        <ele>625.966</ele>
        <time>2019-10-28T13:03:07.001Z</time>
      </trkpt>
      <trkpt lat="44.35333" lon="2.92706">
        <ele>614.653</ele>
        <time>2019-10-28T13:03:37.001Z</time>
      </trkpt>
      <trkpt lat="44.35273" lon="2.92441">
        <ele>610.127</ele>
        <time>2019-10-28T13:04:07.001Z</time>
      </trkpt>
      <trkpt lat="44.35332" lon="2.92136">
        <ele>606.473</ele>
        <time>2019-10-28T13:04:40.001Z</time>
      </trkpt>
      <trkpt lat="44.35412" lon="2.91934">
        <ele>615.221</ele>
        <time>2019-10-28T13:05:10.001Z</time>
      </trkpt>
      <trkpt lat="44.35407" lon="2.91708">
        <ele>613.96</ele>
        <time>2019-10-28T13:05:40.001Z</time>
      </trkpt>
      <trkpt lat="44.35344" lon="2.91469">
        <ele>605.062</ele>
        <time>2019-10-28T13:06:10.001Z</time>
      </trkpt>
      <trkpt lat="44.3536" lon="2.91231">
        <ele>607.654</ele>
        <time>2019-10-28T13:06:40.001Z</time>
      </trkpt>
      <trkpt lat="44.35413" lon="2.91004">
        <ele>613.01</ele>
        <time>2019-10-28T13:07:10.001Z</time>
      </trkpt>
      <trkpt lat="44.35544" lon="2.90817">
        <ele>604.686</ele>
        <time>2019-10-28T13:07:40.001Z</time>
      </trkpt>
      <trkpt lat="44.35685" lon="2.90693">
        <ele>605.219</ele>
        <time>2019-10-28T13:08:10.001Z</time>
      </trkpt>
      <trkpt lat="44.35789" lon="2.90504">
        <ele>608.807</ele>
        <time>2019-10-28T13:08:43.001Z</time>
      </trkpt>
      <trkpt lat="44.35916" lon="2.90388">
        <ele>612.54</ele>
        <time>2019-10-28T13:09:13.001Z</time>
      </trkpt>
      <trkpt lat="44.36079" lon="2.90327">
        <ele>614.877</ele>
        <time>2019-10-28T13:09:43.001Z</time>
      </trkpt>
      <trkpt lat="44.3621" lon="2.90179">
        <ele>617.79</ele>
        <time>2019-10-28T13:10:13.001Z</time>
      </trkpt>
      <trkpt lat="44.36323" lon="2.89989">
        <ele>615.969</ele>
        <time>2019-10-28T13:10:43.001Z</time>
      </trkpt>
      <trkpt lat="44.36386" lon="2.89785">
        <ele>614.66</ele>
        <time>2019-10-28T13:11:13.001Z</time>
      </trkpt>
      <trkpt lat="44.36386" lon="2.8957">
        <ele>606.783</ele>
        <time>2019-10-28T13:11:43.001Z</time>
      </trkpt>
      <trkpt lat="44.36356" lon="2.89284">
        <ele>599.681</ele>
        <time>2019-10-28T13:12:13.001Z</time>
      </trkpt>
      <trkpt lat="44.36348" lon="2.89009">
        <ele>601.144</ele>
        <time>2019-10-28T13:12:43.001Z</time>
      </trkpt>
      <trkpt lat="44.36413" lon="2.88791">
        <ele>603.712</ele>
        <time>2019-10-28T13:13:16Z</time>
      </trkpt>
      <trkpt lat="44.36426" lon="2.88645">
        <ele>605.058</ele>
        <time>2019-10-28T13:14:43.001Z</time>
      </trkpt>
      <trkpt lat="44.36418" lon="2.88469">
        <ele>607.852</ele>
        <time>2019-10-28T13:15:13.001Z</time>
      </trkpt>
      <trkpt lat="44.36408" lon="2.88341">
        <ele>608.08</ele>
        <time>2019-10-28T13:15:43.001Z</time>
      </trkpt>
      <trkpt lat="44.36398" lon="2.88204">
        <ele>612.083</ele>
        <time>2019-10-28T13:16:13.001Z</time>
      </trkpt>
      <trkpt lat="44.36387" lon="2.88055">
        <ele>613.186</ele>
        <time>2019-10-28T13:16:43.001Z</time>
      </trkpt>
      <trkpt lat="44.3638" lon="2.87903">
        <ele>613.893</ele>
        <time>2019-10-28T13:17:13.001Z</time>
      </trkpt>
      <trkpt lat="44.3639" lon="2.87752">
        <ele>615.665</ele>
        <time>2019-10-28T13:17:43.001Z</time>
      </trkpt>
      <trkpt lat="44.36424" lon="2.876">
        <ele>616.984</ele>
        <time>2019-10-28T13:18:13.001Z</time>
      </trkpt>
      <trkpt lat="44.36482" lon="2.87438">
        <ele>617.421</ele>
        <time>2019-10-28T13:18:46.001Z</time>
      </trkpt>
      <trkpt lat="44.36548" lon="2.8726">
        <ele>618.008</ele>
        <time>2019-10-28T13:19:16Z</time>
      </trkpt>
      <trkpt lat="44.36617" lon="2.87072">
        <ele>619.481</ele>
        <time>2019-10-28T13:19:46.001Z</time>
      </trkpt>
      <trkpt lat="44.36679" lon="2.86891">
        <ele>618.179</ele>
        <time>2019-10-28T13:20:16Z</time>
      </trkpt>
      <trkpt lat="44.36717" lon="2.86721">
        <ele>619.127</ele>
        <time>2019-10-28T13:20:46.001Z</time>
      </trkpt>
      <trkpt lat="44.36745" lon="2.86566">
        <ele>621.818</ele>
        <time>2019-10-28T13:21:16Z</time>
      </trkpt>
      <trkpt lat="44.36771" lon="2.86426">
        <ele>627.106</ele>
        <time>2019-10-28T13:21:46.001Z</time>
      </trkpt>
      <trkpt lat="44.36796" lon="2.86289">
        <ele>630.823</ele>
        <time>2019-10-28T13:22:16Z</time>
      </trkpt>
      <trkpt lat="44.36823" lon="2.86139">
        <ele>632.231</ele>
        <time>2019-10-28T13:22:49.001Z</time>
      </trkpt>
      <trkpt lat="44.36843" lon="2.86004">
        <ele>636.671</ele>
        <time>2019-10-28T13:23:19.001Z</time>
      </trkpt>
      <trkpt lat="44.36846" lon="2.85857">
        <ele>637.745</ele>
        <time>2019-10-28T13:23:49.001Z</time>
      </trkpt>
      <trkpt lat="44.36831" lon="2.85693">
        <ele>637.371</ele>
        <time>2019-10-28T13:24:19.001Z</time>
      </trkpt>
      <trkpt lat="44.36814" lon="2.85519">
        <ele>635.708</ele>
        <time>2019-10-28T13:24:49.001Z</time>
      </trkpt>
      <trkpt lat="44.36793" lon="2.85321">
        <ele>637.432</ele>
        <time>2019-10-28T13:25:19.001Z</time>
      </trkpt>
      <trkpt lat="44.36771" lon="2.8511">
        <ele>638.519</ele>
        <time>2019-10-28T13:25:49.001Z</time>
      </trkpt>
      <trkpt lat="44.36779" lon="2.84883">
        <ele>633.958</ele>
        <time>2019-10-28T13:26:19.001Z</time>
      </trkpt>
      <trkpt lat="44.36841" lon="2.84674">
        <ele>635.678</ele>
        <time>2019-10-28T13:26:49.001Z</time>
      </trkpt>
      <trkpt lat="44.36935" lon="2.84449">
        <ele>636.557</ele>
        <time>2019-10-28T13:27:22.001Z</time>
      </trkpt>
      <trkpt lat="44.37021" lon="2.84244">
        <ele>632.866</ele>
        <time>2019-10-28T13:27:52.001Z</time>
      </trkpt>
      <trkpt lat="44.37138" lon="2.84035">
        <ele>630.973</ele>
        <time>2019-10-28T13:28:22.001Z</time>
      </trkpt>
      <trkpt lat="44.37284" lon="2.83774">
        <ele>625.016</ele>
        <time>2019-10-28T13:28:52.001Z</time>
      </trkpt>
      <trkpt lat="44.37447" lon="2.83498">
        <ele>619.231</ele>
        <time>2019-10-28T13:29:22.001Z</time>
      </trkpt>
      <trkpt lat="44.37647" lon="2.83293">
        <ele>612.933</ele>
        <time>2019-10-28T13:29:52.001Z</time>
      </trkpt>
      <trkpt lat="44.37872" lon="2.83142">
        <ele>611.965</ele>
        <time>2019-10-28T13:30:22.001Z</time>
      </trkpt>
      <trkpt lat="44.38111" lon="2.82991">
        <ele>605.41</ele>
        <time>2019-10-28T13:30:52.001Z</time>
      </trkpt>
      <trkpt lat="44.38363" lon="2.82833">
        <ele>600.365</ele>
        <time>2019-10-28T13:31:22.001Z</time>
      </trkpt>
      <trkpt lat="44.38589" lon="2.82524">
        <ele>586.486</ele>
        <time>2019-10-28T13:31:55.001Z</time>
      </trkpt>
      <trkpt lat="44.38645" lon="2.82203">
        <ele>580.413</ele>
        <time>2019-10-28T13:32:25.001Z</time>
      </trkpt>
      <trkpt lat="44.38618" lon="2.81964">
        <ele>582.799</ele>
        <time>2019-10-28T13:32:55.001Z</time>
      </trkpt>
      <trkpt lat="44.38587" lon="2.81786">
        <ele>586</ele>
        <time>2019-10-28T13:33:25.001Z</time>
      </trkpt>
      <trkpt lat="44.3856" lon="2.8164">
        <ele>589.752</ele>
        <time>2019-10-28T13:33:55.001Z</time>
      </trkpt>
      <trkpt lat="44.38537" lon="2.81494">
        <ele>591.806</ele>
        <time>2019-10-28T13:34:25.001Z</time>
      </trkpt>
      <trkpt lat="44.38508" lon="2.81352">
        <ele>595.619</ele>
        <time>2019-10-28T13:34:55.001Z</time>
      </trkpt>
      <trkpt lat="44.38485" lon="2.81202">
        <ele>597.096</ele>
        <time>2019-10-28T13:35:25.001Z</time>
      </trkpt>
      <trkpt lat="44.38463" lon="2.81031">
        <ele>601.947</ele>
        <time>2019-10-28T13:35:58.001Z</time>
      </trkpt>
      <trkpt lat="44.38447" lon="2.80875">
        <ele>600.05</ele>
        <time>2019-10-28T13:36:28.001Z</time>
      </trkpt>
      <trkpt lat="44.38429" lon="2.80723">
        <ele>602.94</ele>
        <time>2019-10-28T13:36:58.001Z</time>
      </trkpt>
      <trkpt lat="44.38411" lon="2.80566">
        <ele>606.259</ele>
        <time>2019-10-28T13:37:28.001Z</time>
      </trkpt>
      <trkpt lat="44.38403" lon="2.80407">
        <ele>607.23</ele>
        <time>2019-10-28T13:37:58.001Z</time>
      </trkpt>
      <trkpt lat="44.38423" lon="2.80253">
        <ele>612.636</ele>
        <time>2019-10-28T13:38:28.001Z</time>
      </trkpt>
      <trkpt lat="44.38469" lon="2.80098">
        <ele>619.579</ele>
        <time>2019-10-28T13:38:58.001Z</time>
      </trkpt>
      <trkpt lat="44.38564" lon="2.79945">
        <ele>616.346</ele>
        <time>2019-10-28T13:39:28.001Z</time>
      </trkpt>
      <trkpt lat="44.38714" lon="2.79761">
        <ele>611.168</ele>
        <time>2019-10-28T13:39:58.001Z</time>
      </trkpt>
      <trkpt lat="44.38958" lon="2.79593">
        <ele>603.445</ele>
        <time>2019-10-28T13:40:31.001Z</time>
      </trkpt>
      <trkpt lat="44.39081" lon="2.79298">
        <ele>593.999</ele>
        <time>2019-10-28T13:41:01.001Z</time>
      </trkpt>
      <trkpt lat="44.39189" lon="2.79013">
        <ele>590.815</ele>
        <time>2019-10-28T13:41:31.001Z</time>
      </trkpt>
      <trkpt lat="44.39266" lon="2.78702">
        <ele>586.391</ele>
        <time>2019-10-28T13:42:01.001Z</time>
      </trkpt>
      <trkpt lat="44.393" lon="2.78405">
        <ele>584.255</ele>
        <time>2019-10-28T13:42:31.001Z</time>
      </trkpt>
      <trkpt lat="44.39308" lon="2.78116">
        <ele>588.019</ele>
        <time>2019-10-28T13:43:01.001Z</time>
      </trkpt>
      <trkpt lat="44.39344" lon="2.77838">
        <ele>591.452</ele>
        <time>2019-10-28T13:43:31.001Z</time>
      </trkpt>
      <trkpt lat="44.39433" lon="2.77618">
        <ele>589.55</ele>
        <time>2019-10-28T13:44:01.001Z</time>
      </trkpt>
      <trkpt lat="44.39537" lon="2.77386">
        <ele>583.757</ele>
        <time>2019-10-28T13:44:31.001Z</time>
      </trkpt>
      <trkpt lat="44.39569" lon="2.7709">
        <ele>580.007</ele>
        <time>2019-10-28T13:45:04.001Z</time>
      </trkpt>
      <trkpt lat="44.39595" lon="2.76822">
        <ele>576.591</ele>
        <time>2019-10-28T13:45:34.001Z</time>
      </trkpt>
      <trkpt lat="44.39565" lon="2.76549">
        <ele>574.533</ele>
        <time>2019-10-28T13:46:04.001Z</time>
      </trkpt>
      <trkpt lat="44.39485" lon="2.76208">
        <ele>569.595</ele>
        <time>2019-10-28T13:46:34.001Z</time>
      </trkpt>
      <trkpt lat="44.39501" lon="2.75865">
        <ele>565.101</ele>
        <time>2019-10-28T13:47:04.001Z</time>
      </trkpt>
      <trkpt lat="44.39538" lon="2.75555">
        <ele>561.89</ele>
        <time>2019-10-28T13:47:34.001Z</time>
      </trkpt>
      <trkpt lat="44.3961" lon="2.75278">
        <ele>563.57</ele>
        <time>2019-10-28T13:48:04.001Z</time>
      </trkpt>
      <trkpt lat="44.39723" lon="2.75026">
        <ele>567.391</ele>
        <time>2019-10-28T13:48:34.001Z</time>
      </trkpt>
      <trkpt lat="44.39846" lon="2.74766">
        <ele>565.963</ele>
        <time>2019-10-28T13:49:07.001Z</time>
      </trkpt>
      <trkpt lat="44.39941" lon="2.7457">
        <ele>564.432</ele>
        <time>2019-10-28T13:49:37.001Z</time>
      </trkpt>
      <trkpt lat="44.40045" lon="2.74432">
        <ele>566.663</ele>
        <time>2019-10-28T13:50:07.001Z</time>
      </trkpt>
      <trkpt lat="44.40143" lon="2.74315">
        <ele>569.543</ele>
        <time>2019-10-28T13:50:37.001Z</time>
      </trkpt>
      <trkpt lat="44.4023" lon="2.74185">
        <ele>570.871</ele>
        <time>2019-10-28T13:51:07.001Z</time>
      </trkpt>
      <trkpt lat="44.40289" lon="2.74033">
        <ele>572.826</ele>
        <time>2019-10-28T13:51:37.001Z</time>
      </trkpt>
      <trkpt lat="44.40315" lon="2.73848">
        <ele>571.078</ele>
        <time>2019-10-28T13:52:07.001Z</time>
      </trkpt>
      <trkpt lat="44.40294" lon="2.73611">
        <ele>567.883</ele>
        <time>2019-10-28T13:52:37.001Z</time>
      </trkpt>
      <trkpt lat="44.40239" lon="2.73348">
        <ele>566.097</ele>
        <time>2019-10-28T13:53:07.001Z</time>
      </trkpt>
      <trkpt lat="44.40191" lon="2.73061">
        <ele>565.229</ele>
        <time>2019-10-28T13:53:40.001Z</time>
      </trkpt>
      <trkpt lat="44.40216" lon="2.72801">
        <ele>563.546</ele>
        <time>2019-10-28T13:54:10.001Z</time>
      </trkpt>
      <trkpt lat="44.40241" lon="2.72569">
        <ele>562.174</ele>
        <time>2019-10-28T13:54:40.001Z</time>
      </trkpt>
      <trkpt lat="44.40175" lon="2.72341">
        <ele>563.175</ele>
        <time>2019-10-28T13:55:10.001Z</time>
      </trkpt>
      <trkpt lat="44.40042" lon="2.72158">
        <ele>561.15</ele>
        <time>2019-10-28T13:55:40.001Z</time>
      </trkpt>
      <trkpt lat="44.39965" lon="2.71925">
        <ele>561.294</ele>
        <time>2019-10-28T13:56:10.001Z</time>
      </trkpt>
      <trkpt lat="44.39954" lon="2.71663">
        <ele>558.945</ele>
        <time>2019-10-28T13:56:40.001Z</time>
      </trkpt>
      <trkpt lat="44.39855" lon="2.71454">
        <ele>556.378</ele>
        <time>2019-10-28T13:57:10.001Z</time>
      </trkpt>
      <trkpt lat="44.39733" lon="2.71236">
        <ele>554.234</ele>
        <time>2019-10-28T13:57:40.001Z</time>
      </trkpt>
      <trkpt lat="44.39601" lon="2.71019">
        <ele>552.552</ele>
        <time>2019-10-28T13:58:13.001Z</time>
      </trkpt>
      <trkpt lat="44.39464" lon="2.70911">
        <ele>556.249</ele>
        <time>2019-10-28T13:58:43.001Z</time>
      </trkpt>
      <trkpt lat="44.39424" lon="2.70715">
        <ele>560.327</ele>
        <time>2019-10-28T13:59:13.001Z</time>
      </trkpt>
      <trkpt lat="44.3932" lon="2.70585">
        <ele>558.613</ele>
        <time>2019-10-28T13:59:43.001Z</time>
      </trkpt>
      <trkpt lat="44.39175" lon="2.70542">
        <ele>559.017</ele>
        <time>2019-10-28T14:00:13.001Z</time>
      </trkpt>
      <trkpt lat="44.39025" lon="2.70487">
        <ele>557.216</ele>
        <time>2019-10-28T14:00:43.001Z</time>
      </trkpt>
      <trkpt lat="44.38883" lon="2.70378">
        <ele>553.384</ele>
        <time>2019-10-28T14:01:13.001Z</time>
      </trkpt>
      <trkpt lat="44.38894" lon="2.70127">
        <ele>553.319</ele>
        <time>2019-10-28T14:01:43.001Z</time>
      </trkpt>
      <trkpt lat="44.38959" lon="2.69875">
        <ele>551.577</ele>
        <time>2019-10-28T14:02:16Z</time>
      </trkpt>
      <trkpt lat="44.39019" lon="2.69628">
        <ele>551.868</ele>
        <time>2019-10-28T14:02:46.001Z</time>
      </trkpt>
      <trkpt lat="44.39076" lon="2.69385">
        <ele>554.714</ele>
        <time>2019-10-28T14:03:16Z</time>
      </trkpt>
      <trkpt lat="44.39133" lon="2.6915">
        <ele>551.739</ele>
        <time>2019-10-28T14:03:46.001Z</time>
      </trkpt>
      <trkpt lat="44.39196" lon="2.68917">
        <ele>551.016</ele>
        <time>2019-10-28T14:04:16Z</time>
      </trkpt>
      <trkpt lat="44.39236" lon="2.68669">
        <ele>549.901</ele>
        <time>2019-10-28T14:04:46.001Z</time>
      </trkpt>
      <trkpt lat="44.39244" lon="2.68427">
        <ele>549.097</ele>
        <time>2019-10-28T14:05:16Z</time>
      </trkpt>
      <trkpt lat="44.39225" lon="2.68195">
        <ele>548.683</ele>
        <time>2019-10-28T14:05:46.001Z</time>
      </trkpt>
      <trkpt lat="44.39205" lon="2.6799">
        <ele>551.171</ele>
        <time>2019-10-28T14:06:16Z</time>
      </trkpt>
      <trkpt lat="44.3918" lon="2.67767">
        <ele>553.72</ele>
        <time>2019-10-28T14:06:49.001Z</time>
      </trkpt>
      <trkpt lat="44.39141" lon="2.67564">
        <ele>551.456</ele>
        <time>2019-10-28T14:07:19.001Z</time>
      </trkpt>
      <trkpt lat="44.39169" lon="2.67457">
        <ele>558.385</ele>
        <time>2019-10-28T14:07:49.001Z</time>
      </trkpt>
      <trkpt lat="44.3918" lon="2.67374">
        <ele>562.318</ele>
        <time>2019-10-28T14:08:19.001Z</time>
      </trkpt>
      <trkpt lat="44.39208" lon="2.67308">
        <ele>568.831</ele>
        <time>2019-10-28T14:08:49.001Z</time>
      </trkpt>
      <trkpt lat="44.39257" lon="2.67259">
        <ele>575.494</ele>
        <time>2019-10-28T14:09:19.001Z</time>
      </trkpt>
      <trkpt lat="44.39282" lon="2.67218">
        <ele>574.365</ele>
        <time>2019-10-28T14:14:13.001Z</time>
      </trkpt>
      <trkpt lat="44.39333" lon="2.67113">
        <ele>572.659</ele>
        <time>2019-10-28T14:14:43.001Z</time>
      </trkpt>
      <trkpt lat="44.39436" lon="2.67032">
        <ele>572.893</ele>
        <time>2019-10-28T14:15:16Z</time>
      </trkpt>
      <trkpt lat="44.3955" lon="2.66902">
        <ele>572.958</ele>
        <time>2019-10-28T14:15:46.001Z</time>
      </trkpt>
      <trkpt lat="44.39588" lon="2.66628">
        <ele>566.507</ele>
        <time>2019-10-28T14:16:16Z</time>
      </trkpt>
      <trkpt lat="44.39689" lon="2.66502">
        <ele>571.685</ele>
        <time>2019-10-28T14:16:46.001Z</time>
      </trkpt>
      <trkpt lat="44.39818" lon="2.66414">
        <ele>572.882</ele>
        <time>2019-10-28T14:17:16Z</time>
      </trkpt>
      <trkpt lat="44.39984" lon="2.66197">
        <ele>567.008</ele>
        <time>2019-10-28T14:17:46.001Z</time>
      </trkpt>
      <trkpt lat="44.40022" lon="2.6589">
        <ele>565.758</ele>
        <time>2019-10-28T14:18:16Z</time>
      </trkpt>
      <trkpt lat="44.40029" lon="2.65754">
        <ele>567.038</ele>
        <time>2019-10-28T14:18:46.001Z</time>
      </trkpt>
      <trkpt lat="44.40056" lon="2.65658">
        <ele>567.352</ele>
        <time>2019-10-28T14:19:16Z</time>
      </trkpt>
      <trkpt lat="44.40113" lon="2.65607">
        <ele>581.324</ele>
        <time>2019-10-28T14:19:49.001Z</time>
      </trkpt>
      <trkpt lat="44.40177" lon="2.65612">
        <ele>588.736</ele>
        <time>2019-10-28T14:20:19.001Z</time>
      </trkpt>
      <trkpt lat="44.40239" lon="2.65623">
        <ele>584.895</ele>
        <time>2019-10-28T14:20:49.001Z</time>
      </trkpt>
      <trkpt lat="44.40261" lon="2.65537">
        <ele>588.683</ele>
        <time>2019-10-28T14:21:19.001Z</time>
      </trkpt>
      <trkpt lat="44.40278" lon="2.65452">
        <ele>591.322</ele>
        <time>2019-10-28T14:21:52.001Z</time>
      </trkpt>
      <trkpt lat="44.40305" lon="2.65366">
        <ele>593.839</ele>
        <time>2019-10-28T14:22:22.001Z</time>
      </trkpt>
      <trkpt lat="44.40353" lon="2.65263">
        <ele>596.138</ele>
        <time>2019-10-28T14:22:52.001Z</time>
      </trkpt>
      <trkpt lat="44.40393" lon="2.65161">
        <ele>603.156</ele>
        <time>2019-10-28T14:23:22.001Z</time>
      </trkpt>
      <trkpt lat="44.40435" lon="2.65071">
        <ele>608.675</ele>
        <time>2019-10-28T14:23:52.001Z</time>
      </trkpt>
      <trkpt lat="44.40483" lon="2.6496">
        <ele>606.528</ele>
        <time>2019-10-28T14:24:25.001Z</time>
      </trkpt>
      <trkpt lat="44.40522" lon="2.64866">
        <ele>605.239</ele>
        <time>2019-10-28T14:24:55.001Z</time>
      </trkpt>
      <trkpt lat="44.40554" lon="2.64765">
        <ele>606.245</ele>
        <time>2019-10-28T14:25:25.001Z</time>
      </trkpt>
      <trkpt lat="44.4058" lon="2.64671">
        <ele>605.06</ele>
        <time>2019-10-28T14:25:55.001Z</time>
      </trkpt>
      <trkpt lat="44.40625" lon="2.6459">
        <ele>613.131</ele>
        <time>2019-10-28T14:26:25.001Z</time>
      </trkpt>
      <trkpt lat="44.40716" lon="2.64445">
        <ele>614.317</ele>
        <time>2019-10-28T14:26:55.001Z</time>
      </trkpt>
      <trkpt lat="44.40802" lon="2.64322">
        <ele>615.301</ele>
        <time>2019-10-28T14:27:25.001Z</time>
      </trkpt>
      <trkpt lat="44.4082" lon="2.64208">
        <ele>617.709</ele>
        <time>2019-10-28T14:27:55.001Z</time>
      </trkpt>
      <trkpt lat="44.40864" lon="2.63913">
        <ele>613.3</ele>
        <time>2019-10-28T14:28:28.001Z</time>
      </trkpt>
      <trkpt lat="44.4098" lon="2.63729">
        <ele>609.622</ele>
        <time>2019-10-28T14:28:58.001Z</time>
      </trkpt>
      <trkpt lat="44.40969" lon="2.63571">
        <ele>605.497</ele>
        <time>2019-10-28T14:29:28.001Z</time>
      </trkpt>
      <trkpt lat="44.40818" lon="2.63291">
        <ele>601.149</ele>
        <time>2019-10-28T14:29:58.001Z</time>
      </trkpt>
      <trkpt lat="44.40699" lon="2.63064">
        <ele>600.518</ele>
        <time>2019-10-28T14:30:28.001Z</time>
      </trkpt>
      <trkpt lat="44.4061" lon="2.62949">
        <ele>605.294</ele>
        <time>2019-10-28T14:30:58.001Z</time>
      </trkpt>
      <trkpt lat="44.40491" lon="2.62898">
        <ele>608.414</ele>
        <time>2019-10-28T14:31:28.001Z</time>
      </trkpt>
      <trkpt lat="44.40383" lon="2.62852">
        <ele>611.453</ele>
        <time>2019-10-28T14:31:58.001Z</time>
      </trkpt>
      <trkpt lat="44.40279" lon="2.62802">
        <ele>616.733</ele>
        <time>2019-10-28T14:32:28.001Z</time>
      </trkpt>
      <trkpt lat="44.40195" lon="2.62655">
        <ele>616.769</ele>
        <time>2019-10-28T14:33:01.001Z</time>
      </trkpt>
      <trkpt lat="44.40144" lon="2.62414">
        <ele>611.918</ele>
        <time>2019-10-28T14:33:31.001Z</time>
      </trkpt>
      <trkpt lat="44.40099" lon="2.62171">
        <ele>612.285</ele>
        <time>2019-10-28T14:34:01.001Z</time>
      </trkpt>
      <trkpt lat="44.4007" lon="2.61931">
        <ele>609.374</ele>
        <time>2019-10-28T14:34:31.001Z</time>
      </trkpt>
      <trkpt lat="44.40067" lon="2.61654">
        <ele>603.812</ele>
        <time>2019-10-28T14:35:01.001Z</time>
      </trkpt>
      <trkpt lat="44.40064" lon="2.61291">
        <ele>598.042</ele>
        <time>2019-10-28T14:35:31.001Z</time>
      </trkpt>
      <trkpt lat="44.40105" lon="2.61078">
        <ele>596.888</ele>
        <time>2019-10-28T14:36:01.001Z</time>
      </trkpt>
      <trkpt lat="44.40071" lon="2.60903">
        <ele>597.061</ele>
        <time>2019-10-28T14:36:31.001Z</time>
      </trkpt>
      <trkpt lat="44.40029" lon="2.6077">
        <ele>598.827</ele>
        <time>2019-10-28T14:37:01.001Z</time>
      </trkpt>
      <trkpt lat="44.40018" lon="2.6065">
        <ele>596.093</ele>
        <time>2019-10-28T14:37:40.001Z</time>
      </trkpt>
      <trkpt lat="44.40002" lon="2.60524">
        <ele>596.057</ele>
        <time>2019-10-28T14:38:10.001Z</time>
      </trkpt>
      <trkpt lat="44.40016" lon="2.60527">
        <ele>642.549</ele>
        <time>2019-10-28T15:00:13Z</time>
      </trkpt>
      <trkpt lat="44.39985" lon="2.60777">
        <ele>469.487</ele>
        <time>2019-10-28T15:00:43Z</time>
      </trkpt>
    </trkseg>
  </trk>
  <trk>
    <name><![CDATA[Tracé 20191029-081009]]></name>
    <trkseg>
      <trkpt lat="44.40036" lon="2.60534">
        <ele>581.839</ele>
        <time>2019-10-29T07:12:54Z</time>
      </trkpt>
      <trkpt lat="44.40048" lon="2.60616">
        <ele>590.416</ele>
        <time>2019-10-29T07:13:24Z</time>
      </trkpt>
      <trkpt lat="44.40104" lon="2.60596">
        <ele>608.969</ele>
        <time>2019-10-29T07:13:54Z</time>
      </trkpt>
      <trkpt lat="44.40169" lon="2.60609">
        <ele>607.678</ele>
        <time>2019-10-29T07:14:24Z</time>
      </trkpt>
      <trkpt lat="44.40229" lon="2.60612">
        <ele>611.327</ele>
        <time>2019-10-29T07:14:54Z</time>
      </trkpt>
      <trkpt lat="44.40289" lon="2.60621">
        <ele>614.79</ele>
        <time>2019-10-29T07:15:33Z</time>
      </trkpt>
      <trkpt lat="44.40303" lon="2.60464">
        <ele>619.55</ele>
        <time>2019-10-29T07:16:06Z</time>
      </trkpt>
      <trkpt lat="44.40323" lon="2.60293">
        <ele>617.362</ele>
        <time>2019-10-29T07:16:36Z</time>
      </trkpt>
      <trkpt lat="44.40392" lon="2.60106">
        <ele>612.861</ele>
        <time>2019-10-29T07:17:06Z</time>
      </trkpt>
      <trkpt lat="44.40482" lon="2.59954">
        <ele>617.214</ele>
        <time>2019-10-29T07:17:36Z</time>
      </trkpt>
      <trkpt lat="44.40609" lon="2.59829">
        <ele>614.697</ele>
        <time>2019-10-29T07:18:06Z</time>
      </trkpt>
      <trkpt lat="44.40751" lon="2.5962">
        <ele>609.253</ele>
        <time>2019-10-29T07:18:36Z</time>
      </trkpt>
      <trkpt lat="44.40866" lon="2.59467">
        <ele>609.222</ele>
        <time>2019-10-29T07:19:09Z</time>
      </trkpt>
      <trkpt lat="44.40977" lon="2.59403">
        <ele>608.896</ele>
        <time>2019-10-29T07:19:39Z</time>
      </trkpt>
      <trkpt lat="44.41095" lon="2.59375">
        <ele>612.536</ele>
        <time>2019-10-29T07:20:09Z</time>
      </trkpt>
      <trkpt lat="44.41212" lon="2.59397">
        <ele>610.372</ele>
        <time>2019-10-29T07:20:39Z</time>
      </trkpt>
      <trkpt lat="44.41431" lon="2.59304">
        <ele>606.852</ele>
        <time>2019-10-29T07:21:09Z</time>
      </trkpt>
      <trkpt lat="44.41729" lon="2.59132">
        <ele>590.085</ele>
        <time>2019-10-29T07:21:39Z</time>
      </trkpt>
      <trkpt lat="44.42027" lon="2.58961">
        <ele>579.046</ele>
        <time>2019-10-29T07:22:09Z</time>
      </trkpt>
      <trkpt lat="44.42151" lon="2.5889">
        <ele>584.701</ele>
        <time>2019-10-29T07:22:39Z</time>
      </trkpt>
      <trkpt lat="44.42307" lon="2.58801">
        <ele>581.698</ele>
        <time>2019-10-29T07:23:09Z</time>
      </trkpt>
      <trkpt lat="44.42478" lon="2.58701">
        <ele>581.106</ele>
        <time>2019-10-29T07:23:39Z</time>
      </trkpt>
      <trkpt lat="44.42666" lon="2.58593">
        <ele>578.636</ele>
        <time>2019-10-29T07:24:09Z</time>
      </trkpt>
      <trkpt lat="44.42776" lon="2.5853">
        <ele>581.806</ele>
        <time>2019-10-29T07:24:39Z</time>
      </trkpt>
      <trkpt lat="44.42893" lon="2.58463">
        <ele>582.574</ele>
        <time>2019-10-29T07:25:09Z</time>
      </trkpt>
      <trkpt lat="44.43001" lon="2.58402">
        <ele>587.348</ele>
        <time>2019-10-29T07:25:39Z</time>
      </trkpt>
      <trkpt lat="44.43079" lon="2.58357">
        <ele>588.578</ele>
        <time>2019-10-29T07:26:09Z</time>
      </trkpt>
      <trkpt lat="44.43146" lon="2.58318">
        <ele>593.669</ele>
        <time>2019-10-29T07:26:39Z</time>
      </trkpt>
      <trkpt lat="44.43239" lon="2.58267">
        <ele>599.697</ele>
        <time>2019-10-29T07:27:09Z</time>
      </trkpt>
      <trkpt lat="44.43457" lon="2.58175">
        <ele>594.622</ele>
        <time>2019-10-29T07:27:39Z</time>
      </trkpt>
      <trkpt lat="44.43738" lon="2.58053">
        <ele>581.235</ele>
        <time>2019-10-29T07:28:09Z</time>
      </trkpt>
      <trkpt lat="44.43961" lon="2.58028">
        <ele>572.56</ele>
        <time>2019-10-29T07:28:39Z</time>
      </trkpt>
      <trkpt lat="44.44159" lon="2.58034">
        <ele>568.726</ele>
        <time>2019-10-29T07:29:09Z</time>
      </trkpt>
      <trkpt lat="44.44357" lon="2.5801">
        <ele>570.47</ele>
        <time>2019-10-29T07:29:39Z</time>
      </trkpt>
      <trkpt lat="44.446" lon="2.57932">
        <ele>559.853</ele>
        <time>2019-10-29T07:30:09Z</time>
      </trkpt>
      <trkpt lat="44.44863" lon="2.57829">
        <ele>555.385</ele>
        <time>2019-10-29T07:30:42Z</time>
      </trkpt>
      <trkpt lat="44.4506" lon="2.5775">
        <ele>555.647</ele>
        <time>2019-10-29T07:31:12Z</time>
      </trkpt>
      <trkpt lat="44.45247" lon="2.57585">
        <ele>549.19</ele>
        <time>2019-10-29T07:31:42Z</time>
      </trkpt>
      <trkpt lat="44.45394" lon="2.57433">
        <ele>548.887</ele>
        <time>2019-10-29T07:32:12Z</time>
      </trkpt>
      <trkpt lat="44.45559" lon="2.57442">
        <ele>550.75</ele>
        <time>2019-10-29T07:32:42Z</time>
      </trkpt>
      <trkpt lat="44.45777" lon="2.5746">
        <ele>547.195</ele>
        <time>2019-10-29T07:33:12Z</time>
      </trkpt>
      <trkpt lat="44.45885" lon="2.57454">
        <ele>548.525</ele>
        <time>2019-10-29T07:33:42Z</time>
      </trkpt>
      <trkpt lat="44.45921" lon="2.57266">
        <ele>547.636</ele>
        <time>2019-10-29T07:34:12Z</time>
      </trkpt>
      <trkpt lat="44.45946" lon="2.5711">
        <ele>553.643</ele>
        <time>2019-10-29T07:34:42Z</time>
      </trkpt>
      <trkpt lat="44.45956" lon="2.56999">
        <ele>564.72</ele>
        <time>2019-10-29T07:35:12Z</time>
      </trkpt>
      <trkpt lat="44.45935" lon="2.56888">
        <ele>565.614</ele>
        <time>2019-10-29T07:35:42Z</time>
      </trkpt>
      <trkpt lat="44.45919" lon="2.5678">
        <ele>570.385</ele>
        <time>2019-10-29T07:36:12Z</time>
      </trkpt>
      <trkpt lat="44.45934" lon="2.56656">
        <ele>572.551</ele>
        <time>2019-10-29T07:36:42Z</time>
      </trkpt>
      <trkpt lat="44.45962" lon="2.56525">
        <ele>571.638</ele>
        <time>2019-10-29T07:37:12Z</time>
      </trkpt>
      <trkpt lat="44.45991" lon="2.56363">
        <ele>575.073</ele>
        <time>2019-10-29T07:37:42Z</time>
      </trkpt>
      <trkpt lat="44.46181" lon="2.56312">
        <ele>568.527</ele>
        <time>2019-10-29T07:38:12Z</time>
      </trkpt>
      <trkpt lat="44.46347" lon="2.56019">
        <ele>556.371</ele>
        <time>2019-10-29T07:38:42Z</time>
      </trkpt>
      <trkpt lat="44.46437" lon="2.55797">
        <ele>550.702</ele>
        <time>2019-10-29T07:39:12Z</time>
      </trkpt>
      <trkpt lat="44.46551" lon="2.55596">
        <ele>549.928</ele>
        <time>2019-10-29T07:39:42Z</time>
      </trkpt>
      <trkpt lat="44.46668" lon="2.55473">
        <ele>549.348</ele>
        <time>2019-10-29T07:40:12Z</time>
      </trkpt>
      <trkpt lat="44.46773" lon="2.5532">
        <ele>552.714</ele>
        <time>2019-10-29T07:40:42Z</time>
      </trkpt>
      <trkpt lat="44.4688" lon="2.5504">
        <ele>546.077</ele>
        <time>2019-10-29T07:41:12Z</time>
      </trkpt>
      <trkpt lat="44.46985" lon="2.54763">
        <ele>540.212</ele>
        <time>2019-10-29T07:41:42Z</time>
      </trkpt>
      <trkpt lat="44.47095" lon="2.54474">
        <ele>535.626</ele>
        <time>2019-10-29T07:42:15Z</time>
      </trkpt>
      <trkpt lat="44.47205" lon="2.54192">
        <ele>529.966</ele>
        <time>2019-10-29T07:42:45Z</time>
      </trkpt>
      <trkpt lat="44.47303" lon="2.53933">
        <ele>529.191</ele>
        <time>2019-10-29T07:43:15Z</time>
      </trkpt>
      <trkpt lat="44.47382" lon="2.53725">
        <ele>530.192</ele>
        <time>2019-10-29T07:43:45Z</time>
      </trkpt>
      <trkpt lat="44.47439" lon="2.53568">
        <ele>532.961</ele>
        <time>2019-10-29T07:44:15.001Z</time>
      </trkpt>
      <trkpt lat="44.47488" lon="2.53442">
        <ele>538.125</ele>
        <time>2019-10-29T07:44:45.001Z</time>
      </trkpt>
      <trkpt lat="44.47538" lon="2.53311">
        <ele>540.955</ele>
        <time>2019-10-29T07:45:15.001Z</time>
      </trkpt>
      <trkpt lat="44.47584" lon="2.53187">
        <ele>545.599</ele>
        <time>2019-10-29T07:45:45.001Z</time>
      </trkpt>
      <trkpt lat="44.47616" lon="2.53076">
        <ele>546.665</ele>
        <time>2019-10-29T07:46:15.001Z</time>
      </trkpt>
      <trkpt lat="44.47598" lon="2.52965">
        <ele>550.03</ele>
        <time>2019-10-29T07:46:45.001Z</time>
      </trkpt>
      <trkpt lat="44.4755" lon="2.52877">
        <ele>553.05</ele>
        <time>2019-10-29T07:47:15.001Z</time>
      </trkpt>
      <trkpt lat="44.47498" lon="2.52791">
        <ele>553.347</ele>
        <time>2019-10-29T07:47:45.001Z</time>
      </trkpt>
      <trkpt lat="44.47527" lon="2.52683">
        <ele>558.475</ele>
        <time>2019-10-29T07:48:15.001Z</time>
      </trkpt>
      <trkpt lat="44.47642" lon="2.52592">
        <ele>559.544</ele>
        <time>2019-10-29T07:48:45.001Z</time>
      </trkpt>
      <trkpt lat="44.47743" lon="2.52437">
        <ele>557.269</ele>
        <time>2019-10-29T07:49:15.001Z</time>
      </trkpt>
      <trkpt lat="44.47831" lon="2.52212">
        <ele>551.721</ele>
        <time>2019-10-29T07:49:45.001Z</time>
      </trkpt>
      <trkpt lat="44.47694" lon="2.52068">
        <ele>548.376</ele>
        <time>2019-10-29T07:50:15.001Z</time>
      </trkpt>
      <trkpt lat="44.47629" lon="2.51964">
        <ele>549.816</ele>
        <time>2019-10-29T07:57:09.001Z</time>
      </trkpt>
      <trkpt lat="44.47622" lon="2.51709">
        <ele>545.982</ele>
        <time>2019-10-29T07:57:39.001Z</time>
      </trkpt>
      <trkpt lat="44.47593" lon="2.51325">
        <ele>527.192</ele>
        <time>2019-10-29T07:58:09.001Z</time>
      </trkpt>
      <trkpt lat="44.47453" lon="2.51165">
        <ele>516.134</ele>
        <time>2019-10-29T07:58:39.001Z</time>
      </trkpt>
      <trkpt lat="44.47362" lon="2.51147">
        <ele>522.758</ele>
        <time>2019-10-29T07:59:09.001Z</time>
      </trkpt>
      <trkpt lat="44.47293" lon="2.50972">
        <ele>526.779</ele>
        <time>2019-10-29T07:59:39.001Z</time>
      </trkpt>
      <trkpt lat="44.47187" lon="2.50724">
        <ele>520.786</ele>
        <time>2019-10-29T08:00:09.001Z</time>
      </trkpt>
      <trkpt lat="44.47171" lon="2.50534">
        <ele>525.225</ele>
        <time>2019-10-29T08:00:42.001Z</time>
      </trkpt>
      <trkpt lat="44.4712" lon="2.50376">
        <ele>529.484</ele>
        <time>2019-10-29T08:01:12.001Z</time>
      </trkpt>
      <trkpt lat="44.46953" lon="2.50319">
        <ele>523.246</ele>
        <time>2019-10-29T08:01:42.001Z</time>
      </trkpt>
      <trkpt lat="44.46847" lon="2.50118">
        <ele>520.618</ele>
        <time>2019-10-29T08:02:12.001Z</time>
      </trkpt>
      <trkpt lat="44.4681" lon="2.49856">
        <ele>519.937</ele>
        <time>2019-10-29T08:02:42.001Z</time>
      </trkpt>
      <trkpt lat="44.46793" lon="2.49445">
        <ele>506.104</ele>
        <time>2019-10-29T08:03:12.001Z</time>
      </trkpt>
      <trkpt lat="44.46617" lon="2.48956">
        <ele>476.264</ele>
        <time>2019-10-29T08:03:42.001Z</time>
      </trkpt>
      <trkpt lat="44.46606" lon="2.48529">
        <ele>445.045</ele>
        <time>2019-10-29T08:04:12.001Z</time>
      </trkpt>
      <trkpt lat="44.46778" lon="2.47995">
        <ele>410.419</ele>
        <time>2019-10-29T08:04:42.001Z</time>
      </trkpt>
      <trkpt lat="44.47053" lon="2.47775">
        <ele>376.767</ele>
        <time>2019-10-29T08:05:12.001Z</time>
      </trkpt>
      <trkpt lat="44.47302" lon="2.47571">
        <ele>350.598</ele>
        <time>2019-10-29T08:05:42.001Z</time>
      </trkpt>
      <trkpt lat="44.47351" lon="2.47657">
        <ele>329.046</ele>
        <time>2019-10-29T08:06:12.001Z</time>
      </trkpt>
      <trkpt lat="44.47366" lon="2.47405">
        <ele>316.169</ele>
        <time>2019-10-29T08:06:42.001Z</time>
      </trkpt>
      <trkpt lat="44.47372" lon="2.46993">
        <ele>296.326</ele>
        <time>2019-10-29T08:07:12.001Z</time>
      </trkpt>
      <trkpt lat="44.47341" lon="2.46682">
        <ele>285.103</ele>
        <time>2019-10-29T08:07:42.001Z</time>
      </trkpt>
      <trkpt lat="44.47377" lon="2.46518">
        <ele>272.258</ele>
        <time>2019-10-29T08:08:12.001Z</time>
      </trkpt>
      <trkpt lat="44.47439" lon="2.46376">
        <ele>272.866</ele>
        <time>2019-10-29T08:08:42.001Z</time>
      </trkpt>
      <trkpt lat="44.47423" lon="2.46189">
        <ele>281.273</ele>
        <time>2019-10-29T08:09:12.001Z</time>
      </trkpt>
      <trkpt lat="44.47488" lon="2.46002">
        <ele>276.71</ele>
        <time>2019-10-29T08:09:42.001Z</time>
      </trkpt>
      <trkpt lat="44.47561" lon="2.458">
        <ele>276.595</ele>
        <time>2019-10-29T08:10:12.001Z</time>
      </trkpt>
      <trkpt lat="44.47643" lon="2.45603">
        <ele>275.3</ele>
        <time>2019-10-29T08:10:42.001Z</time>
      </trkpt>
      <trkpt lat="44.47754" lon="2.45464">
        <ele>275.527</ele>
        <time>2019-10-29T08:11:12.001Z</time>
      </trkpt>
      <trkpt lat="44.47865" lon="2.45495">
        <ele>273.699</ele>
        <time>2019-10-29T08:11:42.001Z</time>
      </trkpt>
      <trkpt lat="44.47939" lon="2.4537">
        <ele>275.013</ele>
        <time>2019-10-29T08:12:15.001Z</time>
      </trkpt>
      <trkpt lat="44.47977" lon="2.4524">
        <ele>282.399</ele>
        <time>2019-10-29T08:12:45.001Z</time>
      </trkpt>
      <trkpt lat="44.48094" lon="2.45104">
        <ele>280.806</ele>
        <time>2019-10-29T08:13:15.001Z</time>
      </trkpt>
      <trkpt lat="44.48256" lon="2.44968">
        <ele>281.433</ele>
        <time>2019-10-29T08:13:45.001Z</time>
      </trkpt>
      <trkpt lat="44.48449" lon="2.44995">
        <ele>277.343</ele>
        <time>2019-10-29T08:14:15.001Z</time>
      </trkpt>
      <trkpt lat="44.48668" lon="2.45019">
        <ele>269.454</ele>
        <time>2019-10-29T08:14:45.001Z</time>
      </trkpt>
      <trkpt lat="44.4889" lon="2.45098">
        <ele>263.406</ele>
        <time>2019-10-29T08:15:15.001Z</time>
      </trkpt>
      <trkpt lat="44.49005" lon="2.44854">
        <ele>260.775</ele>
        <time>2019-10-29T08:15:45.001Z</time>
      </trkpt>
      <trkpt lat="44.49104" lon="2.4464">
        <ele>261.087</ele>
        <time>2019-10-29T08:16:15.001Z</time>
      </trkpt>
      <trkpt lat="44.49131" lon="2.44382">
        <ele>271.439</ele>
        <time>2019-10-29T08:16:45.001Z</time>
      </trkpt>
      <trkpt lat="44.49286" lon="2.44245">
        <ele>266.193</ele>
        <time>2019-10-29T08:17:15.001Z</time>
      </trkpt>
      <trkpt lat="44.49462" lon="2.44145">
        <ele>262.792</ele>
        <time>2019-10-29T08:17:45.001Z</time>
      </trkpt>
      <trkpt lat="44.49561" lon="2.43936">
        <ele>263.221</ele>
        <time>2019-10-29T08:18:15.001Z</time>
      </trkpt>
      <trkpt lat="44.49674" lon="2.43771">
        <ele>261.399</ele>
        <time>2019-10-29T08:18:45.001Z</time>
      </trkpt>
      <trkpt lat="44.49803" lon="2.43644">
        <ele>261.842</ele>
        <time>2019-10-29T08:19:15.001Z</time>
      </trkpt>
      <trkpt lat="44.4986" lon="2.43461">
        <ele>270.655</ele>
        <time>2019-10-29T08:19:45.001Z</time>
      </trkpt>
      <trkpt lat="44.49998" lon="2.43343">
        <ele>261.354</ele>
        <time>2019-10-29T08:20:15.001Z</time>
      </trkpt>
      <trkpt lat="44.50179" lon="2.43435">
        <ele>258.629</ele>
        <time>2019-10-29T08:20:45.001Z</time>
      </trkpt>
      <trkpt lat="44.50369" lon="2.43473">
        <ele>256.565</ele>
        <time>2019-10-29T08:21:15.001Z</time>
      </trkpt>
      <trkpt lat="44.50463" lon="2.43286">
        <ele>259.117</ele>
        <time>2019-10-29T08:21:45.001Z</time>
      </trkpt>
      <trkpt lat="44.50507" lon="2.43159">
        <ele>262.484</ele>
        <time>2019-10-29T08:22:15.001Z</time>
      </trkpt>
      <trkpt lat="44.50575" lon="2.43101">
        <ele>269.235</ele>
        <time>2019-10-29T08:22:45.001Z</time>
      </trkpt>
      <trkpt lat="44.50654" lon="2.43054">
        <ele>270.702</ele>
        <time>2019-10-29T08:23:15.001Z</time>
      </trkpt>
      <trkpt lat="44.50831" lon="2.43098">
        <ele>271.937</ele>
        <time>2019-10-29T08:23:48.001Z</time>
      </trkpt>
      <trkpt lat="44.5106" lon="2.43214">
        <ele>261.392</ele>
        <time>2019-10-29T08:24:18.001Z</time>
      </trkpt>
      <trkpt lat="44.5123" lon="2.43208">
        <ele>261.684</ele>
        <time>2019-10-29T08:24:48.001Z</time>
      </trkpt>
      <trkpt lat="44.51429" lon="2.43149">
        <ele>259.553</ele>
        <time>2019-10-29T08:25:18.001Z</time>
      </trkpt>
      <trkpt lat="44.51553" lon="2.42975">
        <ele>251.977</ele>
        <time>2019-10-29T08:25:48.001Z</time>
      </trkpt>
      <trkpt lat="44.51618" lon="2.42918">
        <ele>253.075</ele>
        <time>2019-10-29T08:26:18.001Z</time>
      </trkpt>
      <trkpt lat="44.51683" lon="2.42877">
        <ele>257.955</ele>
        <time>2019-10-29T08:26:48.001Z</time>
      </trkpt>
      <trkpt lat="44.51775" lon="2.42873">
        <ele>260.928</ele>
        <time>2019-10-29T08:27:18.001Z</time>
      </trkpt>
      <trkpt lat="44.51888" lon="2.42868">
        <ele>266.02</ele>
        <time>2019-10-29T08:27:48.001Z</time>
      </trkpt>
      <trkpt lat="44.52008" lon="2.42872">
        <ele>268.42</ele>
        <time>2019-10-29T08:28:18.001Z</time>
      </trkpt>
      <trkpt lat="44.52151" lon="2.42803">
        <ele>265</ele>
        <time>2019-10-29T08:28:48.001Z</time>
      </trkpt>
      <trkpt lat="44.52301" lon="2.42546">
        <ele>250.459</ele>
        <time>2019-10-29T08:29:18.001Z</time>
      </trkpt>
      <trkpt lat="44.52458" lon="2.42258">
        <ele>241.782</ele>
        <time>2019-10-29T08:29:48.001Z</time>
      </trkpt>
      <trkpt lat="44.52454" lon="2.41979">
        <ele>244.134</ele>
        <time>2019-10-29T08:30:18.001Z</time>
      </trkpt>
      <trkpt lat="44.52441" lon="2.41728">
        <ele>246.739</ele>
        <time>2019-10-29T08:30:48.001Z</time>
      </trkpt>
      <trkpt lat="44.52459" lon="2.41507">
        <ele>246.383</ele>
        <time>2019-10-29T08:31:18.001Z</time>
      </trkpt>
      <trkpt lat="44.52545" lon="2.41321">
        <ele>241.64</ele>
        <time>2019-10-29T08:31:48.001Z</time>
      </trkpt>
      <trkpt lat="44.52695" lon="2.41257">
        <ele>239.442</ele>
        <time>2019-10-29T08:32:18.001Z</time>
      </trkpt>
      <trkpt lat="44.52803" lon="2.41155">
        <ele>239.004</ele>
        <time>2019-10-29T08:32:48.001Z</time>
      </trkpt>
      <trkpt lat="44.52778" lon="2.40997">
        <ele>237.62</ele>
        <time>2019-10-29T08:33:18.001Z</time>
      </trkpt>
      <trkpt lat="44.5286" lon="2.40925">
        <ele>238.274</ele>
        <time>2019-10-29T08:33:48.001Z</time>
      </trkpt>
      <trkpt lat="44.52905" lon="2.40872">
        <ele>243.207</ele>
        <time>2019-10-29T08:34:27.001Z</time>
      </trkpt>
      <trkpt lat="44.52934" lon="2.40791">
        <ele>246.159</ele>
        <time>2019-10-29T08:34:57.001Z</time>
      </trkpt>
      <trkpt lat="44.52977" lon="2.40668">
        <ele>246.047</ele>
        <time>2019-10-29T08:35:27.001Z</time>
      </trkpt>
      <trkpt lat="44.52957" lon="2.40477">
        <ele>243.594</ele>
        <time>2019-10-29T08:36:00Z</time>
      </trkpt>
      <trkpt lat="44.52862" lon="2.40393">
        <ele>242.75</ele>
        <time>2019-10-29T08:36:30.001Z</time>
      </trkpt>
      <trkpt lat="44.52774" lon="2.40266">
        <ele>244.315</ele>
        <time>2019-10-29T08:37:00Z</time>
      </trkpt>
      <trkpt lat="44.5269" lon="2.40132">
        <ele>246.21</ele>
        <time>2019-10-29T08:37:30.001Z</time>
      </trkpt>
      <trkpt lat="44.52585" lon="2.40026">
        <ele>247.51</ele>
        <time>2019-10-29T08:38:00Z</time>
      </trkpt>
      <trkpt lat="44.52468" lon="2.39933">
        <ele>244.518</ele>
        <time>2019-10-29T08:38:30.001Z</time>
      </trkpt>
      <trkpt lat="44.52374" lon="2.39813">
        <ele>246.172</ele>
        <time>2019-10-29T08:39:00Z</time>
      </trkpt>
      <trkpt lat="44.52295" lon="2.39682">
        <ele>242.732</ele>
        <time>2019-10-29T08:39:30.001Z</time>
      </trkpt>
      <trkpt lat="44.52232" lon="2.3954">
        <ele>251.349</ele>
        <time>2019-10-29T08:40:00Z</time>
      </trkpt>
      <trkpt lat="44.52184" lon="2.39389">
        <ele>266.48</ele>
        <time>2019-10-29T08:40:30.001Z</time>
      </trkpt>
      <trkpt lat="44.52174" lon="2.39206">
        <ele>278.238</ele>
        <time>2019-10-29T08:41:00Z</time>
      </trkpt>
      <trkpt lat="44.52202" lon="2.39032">
        <ele>263.812</ele>
        <time>2019-10-29T08:41:30.001Z</time>
      </trkpt>
      <trkpt lat="44.52246" lon="2.38879">
        <ele>265.761</ele>
        <time>2019-10-29T08:42:00Z</time>
      </trkpt>
      <trkpt lat="44.5227" lon="2.38723">
        <ele>275.936</ele>
        <time>2019-10-29T08:42:30.001Z</time>
      </trkpt>
      <trkpt lat="44.52267" lon="2.38547">
        <ele>293.559</ele>
        <time>2019-10-29T08:43:00Z</time>
      </trkpt>
      <trkpt lat="44.52218" lon="2.38429">
        <ele>275.756</ele>
        <time>2019-10-29T08:43:30.001Z</time>
      </trkpt>
      <trkpt lat="44.52164" lon="2.3835">
        <ele>268.403</ele>
        <time>2019-10-29T08:44:00Z</time>
      </trkpt>
      <trkpt lat="44.52119" lon="2.38276">
        <ele>270.446</ele>
        <time>2019-10-29T08:44:30.001Z</time>
      </trkpt>
      <trkpt lat="44.52076" lon="2.38197">
        <ele>281.821</ele>
        <time>2019-10-29T08:45:00Z</time>
      </trkpt>
      <trkpt lat="44.52039" lon="2.38116">
        <ele>288.242</ele>
        <time>2019-10-29T08:45:30.001Z</time>
      </trkpt>
      <trkpt lat="44.51999" lon="2.38034">
        <ele>294.521</ele>
        <time>2019-10-29T08:46:00Z</time>
      </trkpt>
      <trkpt lat="44.51962" lon="2.37948">
        <ele>302.351</ele>
        <time>2019-10-29T08:46:30.001Z</time>
      </trkpt>
      <trkpt lat="44.5195" lon="2.37855">
        <ele>305.744</ele>
        <time>2019-10-29T08:47:00Z</time>
      </trkpt>
      <trkpt lat="44.51943" lon="2.37743">
        <ele>295.115</ele>
        <time>2019-10-29T08:47:33.001Z</time>
      </trkpt>
      <trkpt lat="44.51918" lon="2.37647">
        <ele>292.939</ele>
        <time>2019-10-29T08:48:03.001Z</time>
      </trkpt>
      <trkpt lat="44.51855" lon="2.37591">
        <ele>297.801</ele>
        <time>2019-10-29T08:48:33.001Z</time>
      </trkpt>
      <trkpt lat="44.51792" lon="2.3753">
        <ele>295.258</ele>
        <time>2019-10-29T08:49:03.001Z</time>
      </trkpt>
      <trkpt lat="44.51736" lon="2.3743">
        <ele>295.689</ele>
        <time>2019-10-29T08:49:33.001Z</time>
      </trkpt>
      <trkpt lat="44.51683" lon="2.37338">
        <ele>306.245</ele>
        <time>2019-10-29T08:50:03.001Z</time>
      </trkpt>
      <trkpt lat="44.51619" lon="2.37249">
        <ele>304.016</ele>
        <time>2019-10-29T08:50:33.001Z</time>
      </trkpt>
      <trkpt lat="44.51533" lon="2.3721">
        <ele>304.216</ele>
        <time>2019-10-29T08:51:03.001Z</time>
      </trkpt>
      <trkpt lat="44.51426" lon="2.37199">
        <ele>310.618</ele>
        <time>2019-10-29T08:51:33.001Z</time>
      </trkpt>
      <trkpt lat="44.51329" lon="2.37195">
        <ele>302.153</ele>
        <time>2019-10-29T08:52:03.001Z</time>
      </trkpt>
      <trkpt lat="44.51229" lon="2.37179">
        <ele>304.595</ele>
        <time>2019-10-29T08:52:33.001Z</time>
      </trkpt>
      <trkpt lat="44.51139" lon="2.3717">
        <ele>308.492</ele>
        <time>2019-10-29T08:53:03.001Z</time>
      </trkpt>
      <trkpt lat="44.51078" lon="2.37107">
        <ele>314.007</ele>
        <time>2019-10-29T08:53:33.001Z</time>
      </trkpt>
      <trkpt lat="44.51031" lon="2.37032">
        <ele>321.49</ele>
        <time>2019-10-29T08:54:03.001Z</time>
      </trkpt>
      <trkpt lat="44.50988" lon="2.36947">
        <ele>324.306</ele>
        <time>2019-10-29T08:54:33.001Z</time>
      </trkpt>
      <trkpt lat="44.50997" lon="2.36925">
        <ele>318.929</ele>
        <time>2019-10-29T09:01:18.001Z</time>
      </trkpt>
      <trkpt lat="44.50987" lon="2.36887">
        <ele>322.375</ele>
        <time>2019-10-29T09:21:12.001Z</time>
      </trkpt>
      <trkpt lat="44.51008" lon="2.36785">
        <ele>324.337</ele>
        <time>2019-10-29T09:21:42.001Z</time>
      </trkpt>
      <trkpt lat="44.51031" lon="2.36687">
        <ele>327.414</ele>
        <time>2019-10-29T09:22:12.001Z</time>
      </trkpt>
      <trkpt lat="44.51055" lon="2.36587">
        <ele>330.855</ele>
        <time>2019-10-29T09:22:42.001Z</time>
      </trkpt>
      <trkpt lat="44.51079" lon="2.3648">
        <ele>331.299</ele>
        <time>2019-10-29T09:23:12.001Z</time>
      </trkpt>
      <trkpt lat="44.51124" lon="2.36365">
        <ele>334.438</ele>
        <time>2019-10-29T09:23:42.001Z</time>
      </trkpt>
      <trkpt lat="44.5119" lon="2.36246">
        <ele>335.993</ele>
        <time>2019-10-29T09:24:12.001Z</time>
      </trkpt>
      <trkpt lat="44.51264" lon="2.3609">
        <ele>335.549</ele>
        <time>2019-10-29T09:24:45.001Z</time>
      </trkpt>
      <trkpt lat="44.51355" lon="2.35916">
        <ele>330.166</ele>
        <time>2019-10-29T09:25:15.001Z</time>
      </trkpt>
      <trkpt lat="44.51437" lon="2.35726">
        <ele>327.688</ele>
        <time>2019-10-29T09:25:45.001Z</time>
      </trkpt>
      <trkpt lat="44.51549" lon="2.3535">
        <ele>313.157</ele>
        <time>2019-10-29T09:26:15.001Z</time>
      </trkpt>
      <trkpt lat="44.51656" lon="2.34816">
        <ele>286.896</ele>
        <time>2019-10-29T09:26:45.001Z</time>
      </trkpt>
      <trkpt lat="44.51879" lon="2.34301">
        <ele>262.67</ele>
        <time>2019-10-29T09:27:15.001Z</time>
      </trkpt>
      <trkpt lat="44.52092" lon="2.3395">
        <ele>257.54</ele>
        <time>2019-10-29T09:27:45.001Z</time>
      </trkpt>
      <trkpt lat="44.52241" lon="2.337">
        <ele>255.592</ele>
        <time>2019-10-29T09:28:15.001Z</time>
      </trkpt>
      <trkpt lat="44.52409" lon="2.33417">
        <ele>249.495</ele>
        <time>2019-10-29T09:28:45.001Z</time>
      </trkpt>
      <trkpt lat="44.52545" lon="2.33185">
        <ele>245.66</ele>
        <time>2019-10-29T09:29:15.001Z</time>
      </trkpt>
      <trkpt lat="44.52657" lon="2.33004">
        <ele>242.642</ele>
        <time>2019-10-29T09:29:45.001Z</time>
      </trkpt>
      <trkpt lat="44.52771" lon="2.3282">
        <ele>242.569</ele>
        <time>2019-10-29T09:30:15.001Z</time>
      </trkpt>
      <trkpt lat="44.52881" lon="2.32636">
        <ele>242.074</ele>
        <time>2019-10-29T09:30:45.001Z</time>
      </trkpt>
      <trkpt lat="44.52958" lon="2.32508">
        <ele>245.375</ele>
        <time>2019-10-29T09:31:15.001Z</time>
      </trkpt>
      <trkpt lat="44.53029" lon="2.32398">
        <ele>250.737</ele>
        <time>2019-10-29T09:31:45.001Z</time>
      </trkpt>
      <trkpt lat="44.53137" lon="2.32267">
        <ele>252.314</ele>
        <time>2019-10-29T09:32:15.001Z</time>
      </trkpt>
      <trkpt lat="44.53283" lon="2.32116">
        <ele>249.708</ele>
        <time>2019-10-29T09:32:45.001Z</time>
      </trkpt>
      <trkpt lat="44.53456" lon="2.31947">
        <ele>246.684</ele>
        <time>2019-10-29T09:33:15.001Z</time>
      </trkpt>
      <trkpt lat="44.53607" lon="2.31754">
        <ele>245.998</ele>
        <time>2019-10-29T09:33:45.001Z</time>
      </trkpt>
      <trkpt lat="44.5378" lon="2.3156">
        <ele>238.873</ele>
        <time>2019-10-29T09:34:15.001Z</time>
      </trkpt>
      <trkpt lat="44.53923" lon="2.31379">
        <ele>236.071</ele>
        <time>2019-10-29T09:34:45.001Z</time>
      </trkpt>
      <trkpt lat="44.54084" lon="2.31196">
        <ele>236.04</ele>
        <time>2019-10-29T09:35:15.001Z</time>
      </trkpt>
      <trkpt lat="44.54201" lon="2.30972">
        <ele>235.95</ele>
        <time>2019-10-29T09:35:45.001Z</time>
      </trkpt>
      <trkpt lat="44.54286" lon="2.30757">
        <ele>236.416</ele>
        <time>2019-10-29T09:36:15.001Z</time>
      </trkpt>
      <trkpt lat="44.54394" lon="2.30551">
        <ele>236.287</ele>
        <time>2019-10-29T09:36:48.001Z</time>
      </trkpt>
      <trkpt lat="44.54526" lon="2.30397">
        <ele>237.14</ele>
        <time>2019-10-29T09:37:18.001Z</time>
      </trkpt>
      <trkpt lat="44.54653" lon="2.30179">
        <ele>237.544</ele>
        <time>2019-10-29T09:37:48.001Z</time>
      </trkpt>
      <trkpt lat="44.54753" lon="2.29897">
        <ele>233.922</ele>
        <time>2019-10-29T09:38:18.001Z</time>
      </trkpt>
      <trkpt lat="44.54877" lon="2.29602">
        <ele>228.998</ele>
        <time>2019-10-29T09:38:48.001Z</time>
      </trkpt>
      <trkpt lat="44.55022" lon="2.29319">
        <ele>225.518</ele>
        <time>2019-10-29T09:39:18.001Z</time>
      </trkpt>
      <trkpt lat="44.55148" lon="2.29068">
        <ele>224.316</ele>
        <time>2019-10-29T09:39:48.001Z</time>
      </trkpt>
      <trkpt lat="44.55269" lon="2.2885">
        <ele>225.666</ele>
        <time>2019-10-29T09:40:18.001Z</time>
      </trkpt>
      <trkpt lat="44.55386" lon="2.28639">
        <ele>227.339</ele>
        <time>2019-10-29T09:40:48.001Z</time>
      </trkpt>
      <trkpt lat="44.55486" lon="2.28437">
        <ele>226.863</ele>
        <time>2019-10-29T09:41:18.001Z</time>
      </trkpt>
      <trkpt lat="44.55551" lon="2.28204">
        <ele>226.541</ele>
        <time>2019-10-29T09:41:48.001Z</time>
      </trkpt>
      <trkpt lat="44.55625" lon="2.27995">
        <ele>223.597</ele>
        <time>2019-10-29T09:42:18.001Z</time>
      </trkpt>
      <trkpt lat="44.55719" lon="2.27806">
        <ele>223.039</ele>
        <time>2019-10-29T09:42:48.001Z</time>
      </trkpt>
      <trkpt lat="44.55819" lon="2.27607">
        <ele>222.186</ele>
        <time>2019-10-29T09:43:18.001Z</time>
      </trkpt>
      <trkpt lat="44.55882" lon="2.27358">
        <ele>220.426</ele>
        <time>2019-10-29T09:43:48.001Z</time>
      </trkpt>
      <trkpt lat="44.55858" lon="2.27105">
        <ele>217.461</ele>
        <time>2019-10-29T09:44:18.001Z</time>
      </trkpt>
      <trkpt lat="44.55798" lon="2.26884">
        <ele>217.21</ele>
        <time>2019-10-29T09:44:48.001Z</time>
      </trkpt>
      <trkpt lat="44.55724" lon="2.26697">
        <ele>220.123</ele>
        <time>2019-10-29T09:45:18.001Z</time>
      </trkpt>
      <trkpt lat="44.55719" lon="2.26489">
        <ele>221.789</ele>
        <time>2019-10-29T09:45:48.001Z</time>
      </trkpt>
      <trkpt lat="44.55759" lon="2.26279">
        <ele>219.056</ele>
        <time>2019-10-29T09:46:18.001Z</time>
      </trkpt>
      <trkpt lat="44.55837" lon="2.26064">
        <ele>218.508</ele>
        <time>2019-10-29T09:46:48.001Z</time>
      </trkpt>
      <trkpt lat="44.55928" lon="2.2585">
        <ele>218.3</ele>
        <time>2019-10-29T09:47:18.001Z</time>
      </trkpt>
      <trkpt lat="44.56024" lon="2.25627">
        <ele>216.305</ele>
        <time>2019-10-29T09:47:48.001Z</time>
      </trkpt>
      <trkpt lat="44.56132" lon="2.25386">
        <ele>211.117</ele>
        <time>2019-10-29T09:48:21.001Z</time>
      </trkpt>
      <trkpt lat="44.56211" lon="2.25154">
        <ele>210.943</ele>
        <time>2019-10-29T09:48:51.001Z</time>
      </trkpt>
      <trkpt lat="44.5625" lon="2.24911">
        <ele>211.045</ele>
        <time>2019-10-29T09:49:21.001Z</time>
      </trkpt>
      <trkpt lat="44.56324" lon="2.24794">
        <ele>211.62</ele>
        <time>2019-10-29T09:49:51.001Z</time>
      </trkpt>
      <trkpt lat="44.56401" lon="2.24821">
        <ele>215.83</ele>
        <time>2019-10-29T09:57:54.001Z</time>
      </trkpt>
      <trkpt lat="44.5647" lon="2.2485">
        <ele>218.449</ele>
        <time>2019-10-29T09:58:24.001Z</time>
      </trkpt>
      <trkpt lat="44.56529" lon="2.24877">
        <ele>220.645</ele>
        <time>2019-10-29T09:58:54.001Z</time>
      </trkpt>
      <trkpt lat="44.56591" lon="2.24892">
        <ele>228.251</ele>
        <time>2019-10-29T09:59:24.001Z</time>
      </trkpt>
      <trkpt lat="44.5665" lon="2.24931">
        <ele>230.821</ele>
        <time>2019-10-29T09:59:54.001Z</time>
      </trkpt>
      <trkpt lat="44.56708" lon="2.24951">
        <ele>233.298</ele>
        <time>2019-10-29T10:00:24.001Z</time>
      </trkpt>
      <trkpt lat="44.56767" lon="2.24963">
        <ele>239.087</ele>
        <time>2019-10-29T10:00:57.001Z</time>
      </trkpt>
      <trkpt lat="44.5682" lon="2.24923">
        <ele>243.224</ele>
        <time>2019-10-29T10:01:27.001Z</time>
      </trkpt>
      <trkpt lat="44.56869" lon="2.24875">
        <ele>246.408</ele>
        <time>2019-10-29T10:01:57.001Z</time>
      </trkpt>
      <trkpt lat="44.56924" lon="2.24857">
        <ele>250.951</ele>
        <time>2019-10-29T10:02:27.001Z</time>
      </trkpt>
      <trkpt lat="44.56981" lon="2.24852">
        <ele>253.918</ele>
        <time>2019-10-29T10:02:57.001Z</time>
      </trkpt>
      <trkpt lat="44.57031" lon="2.2481">
        <ele>259.422</ele>
        <time>2019-10-29T10:03:27.001Z</time>
      </trkpt>
      <trkpt lat="44.57084" lon="2.24771">
        <ele>266.991</ele>
        <time>2019-10-29T10:03:57.001Z</time>
      </trkpt>
      <trkpt lat="44.57138" lon="2.24734">
        <ele>271.441</ele>
        <time>2019-10-29T10:04:30.001Z</time>
      </trkpt>
      <trkpt lat="44.57192" lon="2.24686">
        <ele>273.715</ele>
        <time>2019-10-29T10:05:00Z</time>
      </trkpt>
      <trkpt lat="44.57246" lon="2.24646">
        <ele>278.06</ele>
        <time>2019-10-29T10:05:30.001Z</time>
      </trkpt>
      <trkpt lat="44.57302" lon="2.24639">
        <ele>275.765</ele>
        <time>2019-10-29T10:06:00Z</time>
      </trkpt>
      <trkpt lat="44.57351" lon="2.24596">
        <ele>279.311</ele>
        <time>2019-10-29T10:06:30.001Z</time>
      </trkpt>
      <trkpt lat="44.57385" lon="2.24536">
        <ele>287.856</ele>
        <time>2019-10-29T10:07:00Z</time>
      </trkpt>
      <trkpt lat="44.5742" lon="2.24449">
        <ele>293.074</ele>
        <time>2019-10-29T10:07:33.001Z</time>
      </trkpt>
      <trkpt lat="44.57475" lon="2.24362">
        <ele>290.582</ele>
        <time>2019-10-29T10:08:03.001Z</time>
      </trkpt>
      <trkpt lat="44.57545" lon="2.24322">
        <ele>298.813</ele>
        <time>2019-10-29T10:08:33.001Z</time>
      </trkpt>
      <trkpt lat="44.57587" lon="2.24388">
        <ele>305.491</ele>
        <time>2019-10-29T10:09:03.001Z</time>
      </trkpt>
      <trkpt lat="44.57627" lon="2.24439">
        <ele>311.881</ele>
        <time>2019-10-29T10:09:36.001Z</time>
      </trkpt>
      <trkpt lat="44.57714" lon="2.24397">
        <ele>310.224</ele>
        <time>2019-10-29T10:10:06.001Z</time>
      </trkpt>
      <trkpt lat="44.57847" lon="2.24073">
        <ele>282.046</ele>
        <time>2019-10-29T10:10:36.001Z</time>
      </trkpt>
      <trkpt lat="44.58047" lon="2.23671">
        <ele>240.182</ele>
        <time>2019-10-29T10:11:06.001Z</time>
      </trkpt>
      <trkpt lat="44.58294" lon="2.23238">
        <ele>204.716</ele>
        <time>2019-10-29T10:11:36.001Z</time>
      </trkpt>
      <trkpt lat="44.58503" lon="2.22862">
        <ele>183.439</ele>
        <time>2019-10-29T10:12:06.001Z</time>
      </trkpt>
      <trkpt lat="44.58685" lon="2.22962">
        <ele>183.01</ele>
        <time>2019-10-29T10:12:36.001Z</time>
      </trkpt>
      <trkpt lat="44.58774" lon="2.2319">
        <ele>185.73</ele>
        <time>2019-10-29T10:13:06.001Z</time>
      </trkpt>
      <trkpt lat="44.58866" lon="2.23251">
        <ele>189.392</ele>
        <time>2019-10-29T10:13:36.001Z</time>
      </trkpt>
      <trkpt lat="44.58941" lon="2.23203">
        <ele>197.515</ele>
        <time>2019-10-29T10:14:06.001Z</time>
      </trkpt>
      <trkpt lat="44.59002" lon="2.23097">
        <ele>200.276</ele>
        <time>2019-10-29T10:14:36.001Z</time>
      </trkpt>
      <trkpt lat="44.59057" lon="2.23001">
        <ele>202.007</ele>
        <time>2019-10-29T10:15:06.001Z</time>
      </trkpt>
      <trkpt lat="44.59126" lon="2.22936">
        <ele>204.455</ele>
        <time>2019-10-29T10:15:36.001Z</time>
      </trkpt>
      <trkpt lat="44.59191" lon="2.22845">
        <ele>209.383</ele>
        <time>2019-10-29T10:16:06.001Z</time>
      </trkpt>
      <trkpt lat="44.593" lon="2.22817">
        <ele>209.322</ele>
        <time>2019-10-29T10:16:36.001Z</time>
      </trkpt>
      <trkpt lat="44.59411" lon="2.22822">
        <ele>211.424</ele>
        <time>2019-10-29T10:17:06.001Z</time>
      </trkpt>
      <trkpt lat="44.5952" lon="2.22895">
        <ele>208.168</ele>
        <time>2019-10-29T10:17:36.001Z</time>
      </trkpt>
      <trkpt lat="44.59608" lon="2.23001">
        <ele>214.308</ele>
        <time>2019-10-29T10:18:06.001Z</time>
      </trkpt>
      <trkpt lat="44.59712" lon="2.23097">
        <ele>214.605</ele>
        <time>2019-10-29T10:18:36.001Z</time>
      </trkpt>
      <trkpt lat="44.59818" lon="2.23165">
        <ele>212.318</ele>
        <time>2019-10-29T10:19:06.001Z</time>
      </trkpt>
      <trkpt lat="44.59951" lon="2.23194">
        <ele>209.393</ele>
        <time>2019-10-29T10:19:39.001Z</time>
      </trkpt>
      <trkpt lat="44.6005" lon="2.23166">
        <ele>217.267</ele>
        <time>2019-10-29T10:20:09.001Z</time>
      </trkpt>
      <trkpt lat="44.60109" lon="2.23119">
        <ele>221.111</ele>
        <time>2019-10-29T10:20:39.001Z</time>
      </trkpt>
      <trkpt lat="44.60159" lon="2.23057">
        <ele>227.178</ele>
        <time>2019-10-29T10:21:12.001Z</time>
      </trkpt>
      <trkpt lat="44.602" lon="2.23054">
        <ele>234.835</ele>
        <time>2019-10-29T10:21:45.001Z</time>
      </trkpt>
      <trkpt lat="44.60224" lon="2.23113">
        <ele>237.184</ele>
        <time>2019-10-29T10:22:15.001Z</time>
      </trkpt>
      <trkpt lat="44.60285" lon="2.23095">
        <ele>236.503</ele>
        <time>2019-10-29T10:22:45.001Z</time>
      </trkpt>
      <trkpt lat="44.60335" lon="2.23058">
        <ele>239.883</ele>
        <time>2019-10-29T10:23:15.001Z</time>
      </trkpt>
      <trkpt lat="44.60392" lon="2.23018">
        <ele>242.695</ele>
        <time>2019-10-29T10:23:45.001Z</time>
      </trkpt>
      <trkpt lat="44.60434" lon="2.22951">
        <ele>248.96</ele>
        <time>2019-10-29T10:24:15.001Z</time>
      </trkpt>
      <trkpt lat="44.60486" lon="2.22908">
        <ele>255.523</ele>
        <time>2019-10-29T10:24:45.001Z</time>
      </trkpt>
      <trkpt lat="44.60544" lon="2.22871">
        <ele>261.815</ele>
        <time>2019-10-29T10:25:18.001Z</time>
      </trkpt>
      <trkpt lat="44.60605" lon="2.22846">
        <ele>268.322</ele>
        <time>2019-10-29T10:25:48.001Z</time>
      </trkpt>
      <trkpt lat="44.6067" lon="2.22836">
        <ele>272.211</ele>
        <time>2019-10-29T10:26:18.001Z</time>
      </trkpt>
      <trkpt lat="44.6073" lon="2.22851">
        <ele>269.755</ele>
        <time>2019-10-29T10:26:48.001Z</time>
      </trkpt>
      <trkpt lat="44.60787" lon="2.22858">
        <ele>271.501</ele>
        <time>2019-10-29T10:27:18.001Z</time>
      </trkpt>
      <trkpt lat="44.60848" lon="2.22822">
        <ele>274.139</ele>
        <time>2019-10-29T10:27:48.001Z</time>
      </trkpt>
      <trkpt lat="44.60872" lon="2.22738">
        <ele>283.049</ele>
        <time>2019-10-29T10:28:18.001Z</time>
      </trkpt>
      <trkpt lat="44.60898" lon="2.22661">
        <ele>289.396</ele>
        <time>2019-10-29T10:28:48.001Z</time>
      </trkpt>
      <trkpt lat="44.6096" lon="2.22657">
        <ele>298.368</ele>
        <time>2019-10-29T10:29:18.001Z</time>
      </trkpt>
      <trkpt lat="44.61026" lon="2.22659">
        <ele>297.847</ele>
        <time>2019-10-29T10:29:48.001Z</time>
      </trkpt>
      <trkpt lat="44.61062" lon="2.226">
        <ele>293.945</ele>
        <time>2019-10-29T10:30:18.001Z</time>
      </trkpt>
      <trkpt lat="44.61029" lon="2.22519">
        <ele>298.206</ele>
        <time>2019-10-29T10:30:48.001Z</time>
      </trkpt>
      <trkpt lat="44.61028" lon="2.22436">
        <ele>306.261</ele>
        <time>2019-10-29T10:31:21.001Z</time>
      </trkpt>
      <trkpt lat="44.61089" lon="2.224">
        <ele>303.514</ele>
        <time>2019-10-29T10:31:51.001Z</time>
      </trkpt>
      <trkpt lat="44.611" lon="2.22315">
        <ele>302.315</ele>
        <time>2019-10-29T10:32:21.001Z</time>
      </trkpt>
      <trkpt lat="44.61115" lon="2.22228">
        <ele>308.956</ele>
        <time>2019-10-29T10:32:51.001Z</time>
      </trkpt>
      <trkpt lat="44.61172" lon="2.22165">
        <ele>309.556</ele>
        <time>2019-10-29T10:33:21.001Z</time>
      </trkpt>
      <trkpt lat="44.61222" lon="2.22113">
        <ele>313.15</ele>
        <time>2019-10-29T10:33:51.001Z</time>
      </trkpt>
      <trkpt lat="44.61296" lon="2.22097">
        <ele>317.771</ele>
        <time>2019-10-29T10:34:21.001Z</time>
      </trkpt>
      <trkpt lat="44.61352" lon="2.22046">
        <ele>318.541</ele>
        <time>2019-10-29T10:34:51.001Z</time>
      </trkpt>
      <trkpt lat="44.61378" lon="2.2196">
        <ele>320.248</ele>
        <time>2019-10-29T10:35:21.001Z</time>
      </trkpt>
      <trkpt lat="44.61374" lon="2.21863">
        <ele>321.579</ele>
        <time>2019-10-29T10:35:51.001Z</time>
      </trkpt>
      <trkpt lat="44.6137" lon="2.21773">
        <ele>323.815</ele>
        <time>2019-10-29T10:36:21.001Z</time>
      </trkpt>
      <trkpt lat="44.61341" lon="2.21685">
        <ele>332.25</ele>
        <time>2019-10-29T10:36:51.001Z</time>
      </trkpt>
      <trkpt lat="44.6135" lon="2.21603">
        <ele>329.045</ele>
        <time>2019-10-29T10:37:21.001Z</time>
      </trkpt>
      <trkpt lat="44.61389" lon="2.21526">
        <ele>330.288</ele>
        <time>2019-10-29T10:37:51.001Z</time>
      </trkpt>
      <trkpt lat="44.61398" lon="2.21415">
        <ele>331.485</ele>
        <time>2019-10-29T10:38:21.001Z</time>
      </trkpt>
      <trkpt lat="44.61438" lon="2.21322">
        <ele>332.684</ele>
        <time>2019-10-29T10:38:51.001Z</time>
      </trkpt>
      <trkpt lat="44.61482" lon="2.21235">
        <ele>334.451</ele>
        <time>2019-10-29T10:39:21.001Z</time>
      </trkpt>
      <trkpt lat="44.61529" lon="2.21146">
        <ele>337.591</ele>
        <time>2019-10-29T10:39:51.001Z</time>
      </trkpt>
      <trkpt lat="44.61613" lon="2.21116">
        <ele>339.383</ele>
        <time>2019-10-29T10:40:21.001Z</time>
      </trkpt>
      <trkpt lat="44.61664" lon="2.21026">
        <ele>341.641</ele>
        <time>2019-10-29T10:40:51.001Z</time>
      </trkpt>
      <trkpt lat="44.61732" lon="2.20952">
        <ele>343.551</ele>
        <time>2019-10-29T10:41:21.001Z</time>
      </trkpt>
      <trkpt lat="44.61745" lon="2.20813">
        <ele>345.648</ele>
        <time>2019-10-29T10:41:51.001Z</time>
      </trkpt>
      <trkpt lat="44.6179" lon="2.20675">
        <ele>351.179</ele>
        <time>2019-10-29T10:42:21.001Z</time>
      </trkpt>
      <trkpt lat="44.61806" lon="2.20517">
        <ele>348.137</ele>
        <time>2019-10-29T10:42:54.001Z</time>
      </trkpt>
      <trkpt lat="44.61854" lon="2.20389">
        <ele>354.176</ele>
        <time>2019-10-29T10:43:24.001Z</time>
      </trkpt>
      <trkpt lat="44.619" lon="2.20274">
        <ele>352.378</ele>
        <time>2019-10-29T10:43:54.001Z</time>
      </trkpt>
      <trkpt lat="44.61863" lon="2.20203">
        <ele>352.82</ele>
        <time>2019-10-29T10:44:24.001Z</time>
      </trkpt>
      <trkpt lat="44.61835" lon="2.20137">
        <ele>357.305</ele>
        <time>2019-10-29T10:44:54.001Z</time>
      </trkpt>
      <trkpt lat="44.61819" lon="2.20063">
        <ele>366.352</ele>
        <time>2019-10-29T10:45:24.001Z</time>
      </trkpt>
      <trkpt lat="44.61779" lon="2.20016">
        <ele>372.775</ele>
        <time>2019-10-29T10:45:54.001Z</time>
      </trkpt>
      <trkpt lat="44.61755" lon="2.19943">
        <ele>376.7</ele>
        <time>2019-10-29T10:46:24.001Z</time>
      </trkpt>
      <trkpt lat="44.61713" lon="2.19901">
        <ele>378.597</ele>
        <time>2019-10-29T10:46:54.001Z</time>
      </trkpt>
      <trkpt lat="44.61672" lon="2.1986">
        <ele>384.33</ele>
        <time>2019-10-29T10:47:24.001Z</time>
      </trkpt>
      <trkpt lat="44.61696" lon="2.19784">
        <ele>388.172</ele>
        <time>2019-10-29T10:48:00Z</time>
      </trkpt>
      <trkpt lat="44.61697" lon="2.19703">
        <ele>386.825</ele>
        <time>2019-10-29T10:48:33.001Z</time>
      </trkpt>
      <trkpt lat="44.6173" lon="2.19637">
        <ele>387.55</ele>
        <time>2019-10-29T10:49:03.001Z</time>
      </trkpt>
      <trkpt lat="44.61744" lon="2.19558">
        <ele>390.213</ele>
        <time>2019-10-29T10:49:36.001Z</time>
      </trkpt>
      <trkpt lat="44.61737" lon="2.19477">
        <ele>394.212</ele>
        <time>2019-10-29T10:50:06.001Z</time>
      </trkpt>
      <trkpt lat="44.61718" lon="2.19409">
        <ele>401.893</ele>
        <time>2019-10-29T10:50:36.001Z</time>
      </trkpt>
      <trkpt lat="44.61705" lon="2.19312">
        <ele>402.492</ele>
        <time>2019-10-29T10:51:09.001Z</time>
      </trkpt>
      <trkpt lat="44.61689" lon="2.19225">
        <ele>398.165</ele>
        <time>2019-10-29T10:55:51.001Z</time>
      </trkpt>
      <trkpt lat="44.61594" lon="2.19219">
        <ele>391.878</ele>
        <time>2019-10-29T11:01:12.001Z</time>
      </trkpt>
      <trkpt lat="44.61565" lon="2.1884">
        <ele>374.42</ele>
        <time>2019-10-29T11:01:42.001Z</time>
      </trkpt>
      <trkpt lat="44.6153" lon="2.18328">
        <ele>346.627</ele>
        <time>2019-10-29T11:02:12.001Z</time>
      </trkpt>
      <trkpt lat="44.6129" lon="2.18199">
        <ele>327.657</ele>
        <time>2019-10-29T11:02:42.001Z</time>
      </trkpt>
      <trkpt lat="44.61108" lon="2.18056">
        <ele>326.722</ele>
        <time>2019-10-29T11:03:12.001Z</time>
      </trkpt>
      <trkpt lat="44.61065" lon="2.1791">
        <ele>332.492</ele>
        <time>2019-10-29T11:03:42.001Z</time>
      </trkpt>
      <trkpt lat="44.60979" lon="2.17815">
        <ele>336.086</ele>
        <time>2019-10-29T11:04:15.001Z</time>
      </trkpt>
      <trkpt lat="44.60942" lon="2.17714">
        <ele>338.501</ele>
        <time>2019-10-29T11:04:45.001Z</time>
      </trkpt>
      <trkpt lat="44.60954" lon="2.17563">
        <ele>342.812</ele>
        <time>2019-10-29T11:05:15.001Z</time>
      </trkpt>
      <trkpt lat="44.60883" lon="2.17201">
        <ele>329.009</ele>
        <time>2019-10-29T11:05:45.001Z</time>
      </trkpt>
      <trkpt lat="44.61122" lon="2.16811">
        <ele>301.837</ele>
        <time>2019-10-29T11:06:15.001Z</time>
      </trkpt>
      <trkpt lat="44.61358" lon="2.16425">
        <ele>266.632</ele>
        <time>2019-10-29T11:06:45.001Z</time>
      </trkpt>
      <trkpt lat="44.61397" lon="2.16112">
        <ele>269.266</ele>
        <time>2019-10-29T11:07:15.001Z</time>
      </trkpt>
      <trkpt lat="44.61375" lon="2.15873">
        <ele>271.669</ele>
        <time>2019-10-29T11:07:45.001Z</time>
      </trkpt>
      <trkpt lat="44.61392" lon="2.15603">
        <ele>270.622</ele>
        <time>2019-10-29T11:08:15.001Z</time>
      </trkpt>
      <trkpt lat="44.61466" lon="2.15337">
        <ele>269.47</ele>
        <time>2019-10-29T11:08:45.001Z</time>
      </trkpt>
      <trkpt lat="44.61519" lon="2.15157">
        <ele>274.086</ele>
        <time>2019-10-29T11:09:15.001Z</time>
      </trkpt>
      <trkpt lat="44.61485" lon="2.14906">
        <ele>265.01</ele>
        <time>2019-10-29T11:09:45.001Z</time>
      </trkpt>
      <trkpt lat="44.61474" lon="2.14659">
        <ele>262.153</ele>
        <time>2019-10-29T11:10:15.001Z</time>
      </trkpt>
      <trkpt lat="44.61476" lon="2.14518">
        <ele>262.665</ele>
        <time>2019-10-29T11:10:45.001Z</time>
      </trkpt>
      <trkpt lat="44.61476" lon="2.14325">
        <ele>260.57</ele>
        <time>2019-10-29T11:11:15.001Z</time>
      </trkpt>
      <trkpt lat="44.61476" lon="2.14149">
        <ele>264.094</ele>
        <time>2019-10-29T11:11:45.001Z</time>
      </trkpt>
      <trkpt lat="44.61477" lon="2.14027">
        <ele>266.68</ele>
        <time>2019-10-29T11:12:15.001Z</time>
      </trkpt>
      <trkpt lat="44.61475" lon="2.13909">
        <ele>270.756</ele>
        <time>2019-10-29T11:12:45.001Z</time>
      </trkpt>
      <trkpt lat="44.61479" lon="2.13803">
        <ele>278.396</ele>
        <time>2019-10-29T11:13:15.001Z</time>
      </trkpt>
      <trkpt lat="44.61477" lon="2.13699">
        <ele>277.351</ele>
        <time>2019-10-29T11:13:45.001Z</time>
      </trkpt>
      <trkpt lat="44.61477" lon="2.13569">
        <ele>278.162</ele>
        <time>2019-10-29T11:14:15.001Z</time>
      </trkpt>
      <trkpt lat="44.61479" lon="2.13375">
        <ele>276.238</ele>
        <time>2019-10-29T11:14:45.001Z</time>
      </trkpt>
      <trkpt lat="44.61478" lon="2.1317">
        <ele>275.479</ele>
        <time>2019-10-29T11:15:15.001Z</time>
      </trkpt>
      <trkpt lat="44.61479" lon="2.1299">
        <ele>281.182</ele>
        <time>2019-10-29T11:15:48.001Z</time>
      </trkpt>
      <trkpt lat="44.61477" lon="2.12798">
        <ele>281.316</ele>
        <time>2019-10-29T11:16:18.001Z</time>
      </trkpt>
      <trkpt lat="44.61502" lon="2.12615">
        <ele>284.031</ele>
        <time>2019-10-29T11:16:48.001Z</time>
      </trkpt>
      <trkpt lat="44.6157" lon="2.12487">
        <ele>285.384</ele>
        <time>2019-10-29T11:17:18.001Z</time>
      </trkpt>
      <trkpt lat="44.61634" lon="2.12363">
        <ele>289.953</ele>
        <time>2019-10-29T11:17:48.001Z</time>
      </trkpt>
      <trkpt lat="44.61706" lon="2.12225">
        <ele>291.551</ele>
        <time>2019-10-29T11:18:18.001Z</time>
      </trkpt>
      <trkpt lat="44.6176" lon="2.12124">
        <ele>290.946</ele>
        <time>2019-10-29T11:18:48.001Z</time>
      </trkpt>
      <trkpt lat="44.61797" lon="2.12055">
        <ele>294.568</ele>
        <time>2019-10-29T11:19:18.001Z</time>
      </trkpt>
      <trkpt lat="44.61841" lon="2.1197">
        <ele>300.288</ele>
        <time>2019-10-29T11:19:48.001Z</time>
      </trkpt>
      <trkpt lat="44.61892" lon="2.11873">
        <ele>303.608</ele>
        <time>2019-10-29T11:20:18.001Z</time>
      </trkpt>
      <trkpt lat="44.61946" lon="2.11775">
        <ele>305.877</ele>
        <time>2019-10-29T11:20:48.001Z</time>
      </trkpt>
      <trkpt lat="44.61997" lon="2.11674">
        <ele>307.591</ele>
        <time>2019-10-29T11:21:18.001Z</time>
      </trkpt>
      <trkpt lat="44.62036" lon="2.116">
        <ele>310.549</ele>
        <time>2019-10-29T11:21:48.001Z</time>
      </trkpt>
      <trkpt lat="44.62068" lon="2.11541">
        <ele>314.438</ele>
        <time>2019-10-29T11:22:18.001Z</time>
      </trkpt>
      <trkpt lat="44.621" lon="2.11478">
        <ele>317.047</ele>
        <time>2019-10-29T11:22:51.001Z</time>
      </trkpt>
      <trkpt lat="44.62077" lon="2.11389">
        <ele>318.5</ele>
        <time>2019-10-29T11:23:21.001Z</time>
      </trkpt>
      <trkpt lat="44.62018" lon="2.11284">
        <ele>317.09</ele>
        <time>2019-10-29T11:23:51.001Z</time>
      </trkpt>
      <trkpt lat="44.6196" lon="2.11205">
        <ele>317.838</ele>
        <time>2019-10-29T11:24:21.001Z</time>
      </trkpt>
      <trkpt lat="44.61907" lon="2.11138">
        <ele>324.064</ele>
        <time>2019-10-29T11:24:51.001Z</time>
      </trkpt>
      <trkpt lat="44.61875" lon="2.11082">
        <ele>327.456</ele>
        <time>2019-10-29T11:25:21.001Z</time>
      </trkpt>
      <trkpt lat="44.61877" lon="2.11007">
        <ele>336.547</ele>
        <time>2019-10-29T11:25:51.001Z</time>
      </trkpt>
      <trkpt lat="44.61886" lon="2.10921">
        <ele>341.89</ele>
        <time>2019-10-29T11:26:21.001Z</time>
      </trkpt>
      <trkpt lat="44.61884" lon="2.10837">
        <ele>341.202</ele>
        <time>2019-10-29T11:26:51.001Z</time>
      </trkpt>
      <trkpt lat="44.61946" lon="2.10793">
        <ele>344.828</ele>
        <time>2019-10-29T11:27:24.001Z</time>
      </trkpt>
      <trkpt lat="44.62002" lon="2.10764">
        <ele>347.169</ele>
        <time>2019-10-29T11:27:54.001Z</time>
      </trkpt>
      <trkpt lat="44.62045" lon="2.10668">
        <ele>345.154</ele>
        <time>2019-10-29T11:31:36.001Z</time>
      </trkpt>
      <trkpt lat="44.62102" lon="2.10307">
        <ele>330.024</ele>
        <time>2019-10-29T11:32:06.001Z</time>
      </trkpt>
      <trkpt lat="44.6219" lon="2.10323">
        <ele>321.84</ele>
        <time>2019-10-29T11:32:36.001Z</time>
      </trkpt>
      <trkpt lat="44.62227" lon="2.10393">
        <ele>327.408</ele>
        <time>2019-10-29T11:33:06.001Z</time>
      </trkpt>
      <trkpt lat="44.62283" lon="2.10401">
        <ele>338.136</ele>
        <time>2019-10-29T11:33:42.001Z</time>
      </trkpt>
      <trkpt lat="44.6233" lon="2.10359">
        <ele>342.006</ele>
        <time>2019-10-29T11:34:12.001Z</time>
      </trkpt>
      <trkpt lat="44.62366" lon="2.10389">
        <ele>345.9</ele>
        <time>2019-10-29T11:34:42.001Z</time>
      </trkpt>
      <trkpt lat="44.62358" lon="2.1047">
        <ele>345.751</ele>
        <time>2019-10-29T11:35:12.001Z</time>
      </trkpt>
      <trkpt lat="44.62412" lon="2.10465">
        <ele>348.608</ele>
        <time>2019-10-29T11:35:42.001Z</time>
      </trkpt>
      <trkpt lat="44.62462" lon="2.10416">
        <ele>354.925</ele>
        <time>2019-10-29T11:36:15.001Z</time>
      </trkpt>
      <trkpt lat="44.62486" lon="2.10344">
        <ele>359.262</ele>
        <time>2019-10-29T11:36:45.001Z</time>
      </trkpt>
      <trkpt lat="44.62518" lon="2.10266">
        <ele>358.52</ele>
        <time>2019-10-29T11:37:15.001Z</time>
      </trkpt>
      <trkpt lat="44.62561" lon="2.10221">
        <ele>360.741</ele>
        <time>2019-10-29T11:37:45.001Z</time>
      </trkpt>
      <trkpt lat="44.62527" lon="2.09995">
        <ele>356.118</ele>
        <time>2019-10-29T11:38:15.001Z</time>
      </trkpt>
      <trkpt lat="44.62687" lon="2.09874">
        <ele>350.575</ele>
        <time>2019-10-29T11:38:45.001Z</time>
      </trkpt>
      <trkpt lat="44.62746" lon="2.09819">
        <ele>355.267</ele>
        <time>2019-10-29T11:39:15.001Z</time>
      </trkpt>
      <trkpt lat="44.62793" lon="2.09759">
        <ele>358.336</ele>
        <time>2019-10-29T11:39:45.001Z</time>
      </trkpt>
      <trkpt lat="44.62845" lon="2.09738">
        <ele>364.634</ele>
        <time>2019-10-29T11:40:18.001Z</time>
      </trkpt>
      <trkpt lat="44.62843" lon="2.09808">
        <ele>366.015</ele>
        <time>2019-10-29T11:40:48.001Z</time>
      </trkpt>
      <trkpt lat="44.62839" lon="2.09883">
        <ele>370.69</ele>
        <time>2019-10-29T11:41:18.001Z</time>
      </trkpt>
      <trkpt lat="44.62887" lon="2.09926">
        <ele>372.402</ele>
        <time>2019-10-29T11:41:48.001Z</time>
      </trkpt>
      <trkpt lat="44.62942" lon="2.0994">
        <ele>377.127</ele>
        <time>2019-10-29T11:42:18.001Z</time>
      </trkpt>
      <trkpt lat="44.62993" lon="2.09985">
        <ele>381.939</ele>
        <time>2019-10-29T11:42:51.001Z</time>
      </trkpt>
      <trkpt lat="44.6304" lon="2.10031">
        <ele>384.353</ele>
        <time>2019-10-29T11:43:24.001Z</time>
      </trkpt>
      <trkpt lat="44.63135" lon="2.09922">
        <ele>376.079</ele>
        <time>2019-10-29T11:43:54.001Z</time>
      </trkpt>
      <trkpt lat="44.63242" lon="2.09808">
        <ele>373.634</ele>
        <time>2019-10-29T11:44:24.001Z</time>
      </trkpt>
      <trkpt lat="44.63297" lon="2.09723">
        <ele>381.504</ele>
        <time>2019-10-29T11:44:54.001Z</time>
      </trkpt>
      <trkpt lat="44.63374" lon="2.09759">
        <ele>385.233</ele>
        <time>2019-10-29T11:45:24.001Z</time>
      </trkpt>
      <trkpt lat="44.63458" lon="2.0976">
        <ele>387.586</ele>
        <time>2019-10-29T11:45:54.001Z</time>
      </trkpt>
      <trkpt lat="44.6359" lon="2.09816">
        <ele>378.449</ele>
        <time>2019-10-29T11:46:24.001Z</time>
      </trkpt>
      <trkpt lat="44.63763" lon="2.096">
        <ele>364.758</ele>
        <time>2019-10-29T11:46:54.001Z</time>
      </trkpt>
      <trkpt lat="44.63927" lon="2.09378">
        <ele>350.607</ele>
        <time>2019-10-29T11:47:24.001Z</time>
      </trkpt>
      <trkpt lat="44.6411" lon="2.09326">
        <ele>317.952</ele>
        <time>2019-10-29T11:47:54.001Z</time>
      </trkpt>
      <trkpt lat="44.64238" lon="2.09351">
        <ele>298.238</ele>
        <time>2019-10-29T11:48:24.001Z</time>
      </trkpt>
      <trkpt lat="44.64327" lon="2.09611">
        <ele>279.965</ele>
        <time>2019-10-29T11:48:54.001Z</time>
      </trkpt>
      <trkpt lat="44.64386" lon="2.09909">
        <ele>262.923</ele>
        <time>2019-10-29T11:49:24.001Z</time>
      </trkpt>
      <trkpt lat="44.6462" lon="2.10069">
        <ele>242.681</ele>
        <time>2019-10-29T11:49:54.001Z</time>
      </trkpt>
      <trkpt lat="44.64816" lon="2.10158">
        <ele>222.406</ele>
        <time>2019-10-29T11:50:24.001Z</time>
      </trkpt>
      <trkpt lat="44.64891" lon="2.10133">
        <ele>218.135</ele>
        <time>2019-10-29T11:51:03.001Z</time>
      </trkpt>
      <trkpt lat="44.64912" lon="2.10138">
        <ele>214.705</ele>
        <time>2019-10-29T11:56:12.001Z</time>
      </trkpt>
      <trkpt lat="44.6493" lon="2.10131">
        <ele>211.236</ele>
        <time>2019-10-29T12:10:36.001Z</time>
      </trkpt>
      <trkpt lat="44.64932" lon="2.10127">
        <ele>214.675</ele>
        <time>2019-10-29T12:14:36.001Z</time>
      </trkpt>
      <trkpt lat="44.64904" lon="2.10125">
        <ele>217.798</ele>
        <time>2019-10-29T12:15:57.001Z</time>
      </trkpt>
      <trkpt lat="44.64904" lon="2.10125">
        <ele>217.879</ele>
        <time>2019-10-29T12:16:57.001Z</time>
      </trkpt>
      <trkpt lat="44.64926" lon="2.09987">
        <ele>217.218</ele>
        <time>2019-10-29T12:23:03.001Z</time>
      </trkpt>
      <trkpt lat="44.64897" lon="2.09908">
        <ele>213.916</ele>
        <time>2019-10-29T12:23:36.001Z</time>
      </trkpt>
      <trkpt lat="44.64762" lon="2.09936">
        <ele>223.825</ele>
        <time>2019-10-29T12:24:06.001Z</time>
      </trkpt>
      <trkpt lat="44.64655" lon="2.09786">
        <ele>225.406</ele>
        <time>2019-10-29T12:24:36.001Z</time>
      </trkpt>
      <trkpt lat="44.64579" lon="2.0957">
        <ele>219.897</ele>
        <time>2019-10-29T12:25:06.001Z</time>
      </trkpt>
      <trkpt lat="44.64515" lon="2.09336">
        <ele>216.469</ele>
        <time>2019-10-29T12:25:36.001Z</time>
      </trkpt>
      <trkpt lat="44.64483" lon="2.09125">
        <ele>214.446</ele>
        <time>2019-10-29T12:26:06.001Z</time>
      </trkpt>
      <trkpt lat="44.64431" lon="2.08925">
        <ele>213.029</ele>
        <time>2019-10-29T12:26:36.001Z</time>
      </trkpt>
      <trkpt lat="44.64376" lon="2.08728">
        <ele>215.618</ele>
        <time>2019-10-29T12:27:06.001Z</time>
      </trkpt>
      <trkpt lat="44.64318" lon="2.0851">
        <ele>214.562</ele>
        <time>2019-10-29T12:27:36.001Z</time>
      </trkpt>
      <trkpt lat="44.64243" lon="2.08292">
        <ele>215.333</ele>
        <time>2019-10-29T12:28:06.001Z</time>
      </trkpt>
      <trkpt lat="44.64179" lon="2.08071">
        <ele>213.828</ele>
        <time>2019-10-29T12:28:36.001Z</time>
      </trkpt>
      <trkpt lat="44.64126" lon="2.07843">
        <ele>210.604</ele>
        <time>2019-10-29T12:29:06.001Z</time>
      </trkpt>
      <trkpt lat="44.64073" lon="2.07634">
        <ele>209.035</ele>
        <time>2019-10-29T12:29:36.001Z</time>
      </trkpt>
      <trkpt lat="44.64007" lon="2.07438">
        <ele>210.849</ele>
        <time>2019-10-29T12:30:06.001Z</time>
      </trkpt>
      <trkpt lat="44.63887" lon="2.0729">
        <ele>215.839</ele>
        <time>2019-10-29T12:30:36.001Z</time>
      </trkpt>
      <trkpt lat="44.63913" lon="2.07297">
        <ele>215.146</ele>
        <time>2019-10-29T12:31:06.001Z</time>
      </trkpt>
      <trkpt lat="44.63967" lon="2.07315">
        <ele>224.47</ele>
        <time>2019-10-29T12:31:39.001Z</time>
      </trkpt>
      <trkpt lat="44.64011" lon="2.07357">
        <ele>233.948</ele>
        <time>2019-10-29T12:32:18.001Z</time>
      </trkpt>
      <trkpt lat="44.64045" lon="2.07421">
        <ele>239.633</ele>
        <time>2019-10-29T12:32:51.001Z</time>
      </trkpt>
      <trkpt lat="44.64082" lon="2.07478">
        <ele>240.88</ele>
        <time>2019-10-29T12:33:24.001Z</time>
      </trkpt>
      <trkpt lat="44.64118" lon="2.07527">
        <ele>244.223</ele>
        <time>2019-10-29T12:33:54.001Z</time>
      </trkpt>
      <trkpt lat="44.64195" lon="2.07546">
        <ele>242.275</ele>
        <time>2019-10-29T12:34:27.001Z</time>
      </trkpt>
      <trkpt lat="44.64263" lon="2.07504">
        <ele>246.058</ele>
        <time>2019-10-29T12:34:57.001Z</time>
      </trkpt>
      <trkpt lat="44.64317" lon="2.07438">
        <ele>258.178</ele>
        <time>2019-10-29T12:35:45.001Z</time>
      </trkpt>
      <trkpt lat="44.64359" lon="2.07369">
        <ele>267.347</ele>
        <time>2019-10-29T12:36:24.001Z</time>
      </trkpt>
      <trkpt lat="44.64403" lon="2.07356">
        <ele>280.995</ele>
        <time>2019-10-29T12:37:12.001Z</time>
      </trkpt>
      <trkpt lat="44.64444" lon="2.0742">
        <ele>274.866</ele>
        <time>2019-10-29T12:37:48.001Z</time>
      </trkpt>
      <trkpt lat="44.64495" lon="2.07461">
        <ele>285.051</ele>
        <time>2019-10-29T12:38:27.001Z</time>
      </trkpt>
      <trkpt lat="44.6456" lon="2.07457">
        <ele>290.154</ele>
        <time>2019-10-29T12:39:09.001Z</time>
      </trkpt>
      <trkpt lat="44.64622" lon="2.0742">
        <ele>303.538</ele>
        <time>2019-10-29T12:39:57.001Z</time>
      </trkpt>
      <trkpt lat="44.64674" lon="2.0747">
        <ele>296.881</ele>
        <time>2019-10-29T12:40:39.001Z</time>
      </trkpt>
      <trkpt lat="44.64679" lon="2.07548">
        <ele>301.818</ele>
        <time>2019-10-29T12:41:21.001Z</time>
      </trkpt>
      <trkpt lat="44.64673" lon="2.07638">
        <ele>299.647</ele>
        <time>2019-10-29T12:42:03.001Z</time>
      </trkpt>
      <trkpt lat="44.64686" lon="2.07718">
        <ele>301.99</ele>
        <time>2019-10-29T12:42:42.001Z</time>
      </trkpt>
      <trkpt lat="44.64702" lon="2.07794">
        <ele>307.136</ele>
        <time>2019-10-29T12:43:18.001Z</time>
      </trkpt>
      <trkpt lat="44.64756" lon="2.078">
        <ele>313.474</ele>
        <time>2019-10-29T12:43:51.001Z</time>
      </trkpt>
      <trkpt lat="44.64811" lon="2.07763">
        <ele>317.641</ele>
        <time>2019-10-29T12:44:24.001Z</time>
      </trkpt>
      <trkpt lat="44.64856" lon="2.07724">
        <ele>322.186</ele>
        <time>2019-10-29T12:44:57.001Z</time>
      </trkpt>
      <trkpt lat="44.64915" lon="2.07732">
        <ele>330.7</ele>
        <time>2019-10-29T12:45:42.001Z</time>
      </trkpt>
      <trkpt lat="44.64974" lon="2.07743">
        <ele>336.157</ele>
        <time>2019-10-29T12:46:21.001Z</time>
      </trkpt>
      <trkpt lat="44.6503" lon="2.07732">
        <ele>344.428</ele>
        <time>2019-10-29T12:46:54.001Z</time>
      </trkpt>
      <trkpt lat="44.65087" lon="2.07774">
        <ele>348.465</ele>
        <time>2019-10-29T12:47:42.001Z</time>
      </trkpt>
      <trkpt lat="44.65145" lon="2.07797">
        <ele>353.551</ele>
        <time>2019-10-29T12:48:18.001Z</time>
      </trkpt>
      <trkpt lat="44.65207" lon="2.0778">
        <ele>361.218</ele>
        <time>2019-10-29T12:48:54.001Z</time>
      </trkpt>
      <trkpt lat="44.65253" lon="2.07742">
        <ele>365.778</ele>
        <time>2019-10-29T12:49:27.001Z</time>
      </trkpt>
      <trkpt lat="44.65327" lon="2.07748">
        <ele>362.364</ele>
        <time>2019-10-29T12:49:57.001Z</time>
      </trkpt>
      <trkpt lat="44.65401" lon="2.0776">
        <ele>362.275</ele>
        <time>2019-10-29T12:50:27.001Z</time>
      </trkpt>
      <trkpt lat="44.6546" lon="2.07743">
        <ele>366.095</ele>
        <time>2019-10-29T12:51:00Z</time>
      </trkpt>
      <trkpt lat="44.65525" lon="2.07735">
        <ele>375.33</ele>
        <time>2019-10-29T12:51:45.001Z</time>
      </trkpt>
      <trkpt lat="44.65587" lon="2.07766">
        <ele>375.322</ele>
        <time>2019-10-29T12:52:30.001Z</time>
      </trkpt>
      <trkpt lat="44.65682" lon="2.07793">
        <ele>377.427</ele>
        <time>2019-10-29T12:53:03.001Z</time>
      </trkpt>
      <trkpt lat="44.6577" lon="2.07761">
        <ele>380.439</ele>
        <time>2019-10-29T12:53:33.001Z</time>
      </trkpt>
      <trkpt lat="44.65858" lon="2.07726">
        <ele>383.485</ele>
        <time>2019-10-29T12:54:03.001Z</time>
      </trkpt>
      <trkpt lat="44.65953" lon="2.07653">
        <ele>377.43</ele>
        <time>2019-10-29T12:54:33.001Z</time>
      </trkpt>
      <trkpt lat="44.66047" lon="2.07591">
        <ele>368.872</ele>
        <time>2019-10-29T12:55:03.001Z</time>
      </trkpt>
      <trkpt lat="44.66115" lon="2.07549">
        <ele>365.012</ele>
        <time>2019-10-29T12:55:33.001Z</time>
      </trkpt>
      <trkpt lat="44.66164" lon="2.07519">
        <ele>369.068</ele>
        <time>2019-10-29T12:56:03.001Z</time>
      </trkpt>
      <trkpt lat="44.66218" lon="2.07487">
        <ele>378.13</ele>
        <time>2019-10-29T12:56:39.001Z</time>
      </trkpt>
      <trkpt lat="44.66274" lon="2.07455">
        <ele>385.932</ele>
        <time>2019-10-29T12:57:18.001Z</time>
      </trkpt>
      <trkpt lat="44.66328" lon="2.07418">
        <ele>393.94</ele>
        <time>2019-10-29T12:57:57.001Z</time>
      </trkpt>
      <trkpt lat="44.66383" lon="2.07374">
        <ele>401.795</ele>
        <time>2019-10-29T12:58:30.001Z</time>
      </trkpt>
      <trkpt lat="44.66426" lon="2.07321">
        <ele>410.488</ele>
        <time>2019-10-29T12:59:06.001Z</time>
      </trkpt>
      <trkpt lat="44.66485" lon="2.07265">
        <ele>418.437</ele>
        <time>2019-10-29T12:59:54.001Z</time>
      </trkpt>
      <trkpt lat="44.66549" lon="2.0725">
        <ele>427.665</ele>
        <time>2019-10-29T13:00:36.001Z</time>
      </trkpt>
      <trkpt lat="44.66632" lon="2.07187">
        <ele>426.74</ele>
        <time>2019-10-29T13:01:06.001Z</time>
      </trkpt>
      <trkpt lat="44.66701" lon="2.07108">
        <ele>427.105</ele>
        <time>2019-10-29T13:01:36.001Z</time>
      </trkpt>
      <trkpt lat="44.66786" lon="2.07024">
        <ele>427.183</ele>
        <time>2019-10-29T13:02:06.001Z</time>
      </trkpt>
      <trkpt lat="44.66866" lon="2.06943">
        <ele>421.392</ele>
        <time>2019-10-29T13:02:36.001Z</time>
      </trkpt>
      <trkpt lat="44.66936" lon="2.06869">
        <ele>420.888</ele>
        <time>2019-10-29T13:03:06.001Z</time>
      </trkpt>
      <trkpt lat="44.6702" lon="2.06783">
        <ele>429.438</ele>
        <time>2019-10-29T13:03:36.001Z</time>
      </trkpt>
      <trkpt lat="44.67087" lon="2.06674">
        <ele>432.775</ele>
        <time>2019-10-29T13:04:09.001Z</time>
      </trkpt>
      <trkpt lat="44.67146" lon="2.06617">
        <ele>431.331</ele>
        <time>2019-10-29T13:04:39.001Z</time>
      </trkpt>
      <trkpt lat="44.67203" lon="2.06559">
        <ele>432.223</ele>
        <time>2019-10-29T13:05:09.001Z</time>
      </trkpt>
      <trkpt lat="44.67257" lon="2.06501">
        <ele>436.054</ele>
        <time>2019-10-29T13:05:39.001Z</time>
      </trkpt>
      <trkpt lat="44.67316" lon="2.06461">
        <ele>440.18</ele>
        <time>2019-10-29T13:06:09.001Z</time>
      </trkpt>
      <trkpt lat="44.67391" lon="2.06432">
        <ele>440.908</ele>
        <time>2019-10-29T13:06:39.001Z</time>
      </trkpt>
      <trkpt lat="44.67465" lon="2.0641">
        <ele>441.498</ele>
        <time>2019-10-29T13:07:09.001Z</time>
      </trkpt>
      <trkpt lat="44.67538" lon="2.06393">
        <ele>447.513</ele>
        <time>2019-10-29T13:07:39.001Z</time>
      </trkpt>
      <trkpt lat="44.6761" lon="2.06373">
        <ele>450.153</ele>
        <time>2019-10-29T13:08:09.001Z</time>
      </trkpt>
      <trkpt lat="44.67692" lon="2.06348">
        <ele>452.881</ele>
        <time>2019-10-29T13:08:39.001Z</time>
      </trkpt>
      <trkpt lat="44.67811" lon="2.06198">
        <ele>447.225</ele>
        <time>2019-10-29T13:09:09.001Z</time>
      </trkpt>
      <trkpt lat="44.67959" lon="2.06128">
        <ele>444.756</ele>
        <time>2019-10-29T13:09:39.001Z</time>
      </trkpt>
      <trkpt lat="44.67959" lon="2.0588">
        <ele>431.606</ele>
        <time>2019-10-29T13:10:09.001Z</time>
      </trkpt>
      <trkpt lat="44.68092" lon="2.05704">
        <ele>421.516</ele>
        <time>2019-10-29T13:10:39.001Z</time>
      </trkpt>
      <trkpt lat="44.68165" lon="2.05607">
        <ele>427.139</ele>
        <time>2019-10-29T13:11:09.001Z</time>
      </trkpt>
      <trkpt lat="44.68209" lon="2.05549">
        <ele>431.702</ele>
        <time>2019-10-29T13:11:39.001Z</time>
      </trkpt>
      <trkpt lat="44.68248" lon="2.05494">
        <ele>436.775</ele>
        <time>2019-10-29T13:12:12.001Z</time>
      </trkpt>
      <trkpt lat="44.68296" lon="2.05449">
        <ele>440.926</ele>
        <time>2019-10-29T13:12:45.001Z</time>
      </trkpt>
      <trkpt lat="44.68356" lon="2.05416">
        <ele>447.668</ele>
        <time>2019-10-29T13:13:24.001Z</time>
      </trkpt>
      <trkpt lat="44.68411" lon="2.05404">
        <ele>450.435</ele>
        <time>2019-10-29T13:13:54.001Z</time>
      </trkpt>
      <trkpt lat="44.6847" lon="2.0541">
        <ele>457.45</ele>
        <time>2019-10-29T13:14:30.001Z</time>
      </trkpt>
      <trkpt lat="44.68521" lon="2.05407">
        <ele>459.183</ele>
        <time>2019-10-29T13:15:00Z</time>
      </trkpt>
      <trkpt lat="44.68571" lon="2.05361">
        <ele>458.848</ele>
        <time>2019-10-29T13:15:30.001Z</time>
      </trkpt>
      <trkpt lat="44.68647" lon="2.0531">
        <ele>458.92</ele>
        <time>2019-10-29T13:16:03.001Z</time>
      </trkpt>
      <trkpt lat="44.68705" lon="2.05287">
        <ele>462.699</ele>
        <time>2019-10-29T13:16:33.001Z</time>
      </trkpt>
      <trkpt lat="44.68764" lon="2.05269">
        <ele>465.494</ele>
        <time>2019-10-29T13:17:03.001Z</time>
      </trkpt>
      <trkpt lat="44.68818" lon="2.05228">
        <ele>469.055</ele>
        <time>2019-10-29T13:17:33.001Z</time>
      </trkpt>
      <trkpt lat="44.68857" lon="2.05164">
        <ele>475.042</ele>
        <time>2019-10-29T13:18:03.001Z</time>
      </trkpt>
      <trkpt lat="44.68904" lon="2.05068">
        <ele>473.549</ele>
        <time>2019-10-29T13:18:33.001Z</time>
      </trkpt>
      <trkpt lat="44.6895" lon="2.04959">
        <ele>470.093</ele>
        <time>2019-10-29T13:19:03.001Z</time>
      </trkpt>
      <trkpt lat="44.68995" lon="2.04898">
        <ele>472.497</ele>
        <time>2019-10-29T13:19:33.001Z</time>
      </trkpt>
      <trkpt lat="44.69052" lon="2.04835">
        <ele>480.524</ele>
        <time>2019-10-29T13:20:03.001Z</time>
      </trkpt>
      <trkpt lat="44.69117" lon="2.04789">
        <ele>484.723</ele>
        <time>2019-10-29T13:20:33.001Z</time>
      </trkpt>
      <trkpt lat="44.69193" lon="2.04718">
        <ele>483.015</ele>
        <time>2019-10-29T13:21:03.001Z</time>
      </trkpt>
      <trkpt lat="44.69235" lon="2.04627">
        <ele>480.548</ele>
        <time>2019-10-29T13:21:33.001Z</time>
      </trkpt>
      <trkpt lat="44.69267" lon="2.04527">
        <ele>481.378</ele>
        <time>2019-10-29T13:22:03.001Z</time>
      </trkpt>
      <trkpt lat="44.6931" lon="2.04436">
        <ele>482.542</ele>
        <time>2019-10-29T13:22:33.001Z</time>
      </trkpt>
      <trkpt lat="44.69377" lon="2.04337">
        <ele>471.634</ele>
        <time>2019-10-29T13:23:03.001Z</time>
      </trkpt>
      <trkpt lat="44.69467" lon="2.0427">
        <ele>483.4</ele>
        <time>2019-10-29T13:23:33.001Z</time>
      </trkpt>
      <trkpt lat="44.69596" lon="2.04125">
        <ele>482.053</ele>
        <time>2019-10-29T13:24:03.001Z</time>
      </trkpt>
      <trkpt lat="44.69679" lon="2.04027">
        <ele>488.529</ele>
        <time>2019-10-29T13:24:33.001Z</time>
      </trkpt>
      <trkpt lat="44.69759" lon="2.03967">
        <ele>492.854</ele>
        <time>2019-10-29T13:25:03.001Z</time>
      </trkpt>
      <trkpt lat="44.69843" lon="2.03919">
        <ele>497.522</ele>
        <time>2019-10-29T13:25:33.001Z</time>
      </trkpt>
      <trkpt lat="44.69942" lon="2.0384">
        <ele>498.964</ele>
        <time>2019-10-29T13:26:03.001Z</time>
      </trkpt>
      <trkpt lat="44.70062" lon="2.03796">
        <ele>490.101</ele>
        <time>2019-10-29T13:26:33.001Z</time>
      </trkpt>
      <trkpt lat="44.70121" lon="2.0378">
        <ele>494.912</ele>
        <time>2019-10-29T13:27:09.001Z</time>
      </trkpt>
      <trkpt lat="44.70185" lon="2.03743">
        <ele>507.342</ele>
        <time>2019-10-29T13:27:51.001Z</time>
      </trkpt>
      <trkpt lat="44.70225" lon="2.03675">
        <ele>509.827</ele>
        <time>2019-10-29T13:28:24.001Z</time>
      </trkpt>
      <trkpt lat="44.70278" lon="2.03603">
        <ele>507.978</ele>
        <time>2019-10-29T13:28:54.001Z</time>
      </trkpt>
      <trkpt lat="44.70322" lon="2.03548">
        <ele>515.526</ele>
        <time>2019-10-29T13:29:30.001Z</time>
      </trkpt>
      <trkpt lat="44.70366" lon="2.03503">
        <ele>517.94</ele>
        <time>2019-10-29T13:30:00Z</time>
      </trkpt>
      <trkpt lat="44.70407" lon="2.03455">
        <ele>520.885</ele>
        <time>2019-10-29T13:30:33.001Z</time>
      </trkpt>
      <trkpt lat="44.70456" lon="2.03424">
        <ele>525.877</ele>
        <time>2019-10-29T13:31:09.001Z</time>
      </trkpt>
      <trkpt lat="44.70527" lon="2.03426">
        <ele>532.962</ele>
        <time>2019-10-29T13:31:57.001Z</time>
      </trkpt>
      <trkpt lat="44.70578" lon="2.0338">
        <ele>542.744</ele>
        <time>2019-10-29T13:32:42.001Z</time>
      </trkpt>
      <trkpt lat="44.70613" lon="2.03295">
        <ele>552.126</ele>
        <time>2019-10-29T13:33:30.001Z</time>
      </trkpt>
      <trkpt lat="44.70645" lon="2.03228">
        <ele>554.781</ele>
        <time>2019-10-29T13:34:06.001Z</time>
      </trkpt>
      <trkpt lat="44.70685" lon="2.03153">
        <ele>557.277</ele>
        <time>2019-10-29T13:34:48.001Z</time>
      </trkpt>
      <trkpt lat="44.70716" lon="2.03066">
        <ele>561.229</ele>
        <time>2019-10-29T13:35:18.001Z</time>
      </trkpt>
      <trkpt lat="44.70758" lon="2.02956">
        <ele>564.694</ele>
        <time>2019-10-29T13:35:48.001Z</time>
      </trkpt>
      <trkpt lat="44.70814" lon="2.0281">
        <ele>560.085</ele>
        <time>2019-10-29T13:36:18.001Z</time>
      </trkpt>
      <trkpt lat="44.70974" lon="2.02611">
        <ele>550.731</ele>
        <time>2019-10-29T13:36:48.001Z</time>
      </trkpt>
      <trkpt lat="44.71084" lon="2.0238">
        <ele>545.054</ele>
        <time>2019-10-29T13:37:18.001Z</time>
      </trkpt>
      <trkpt lat="44.71135" lon="2.02281">
        <ele>548.688</ele>
        <time>2019-10-29T13:37:48.001Z</time>
      </trkpt>
      <trkpt lat="44.71234" lon="2.02267">
        <ele>552.836</ele>
        <time>2019-10-29T13:38:18.001Z</time>
      </trkpt>
      <trkpt lat="44.71368" lon="2.02227">
        <ele>550.775</ele>
        <time>2019-10-29T13:38:48.001Z</time>
      </trkpt>
      <trkpt lat="44.71485" lon="2.02148">
        <ele>552.426</ele>
        <time>2019-10-29T13:39:18.001Z</time>
      </trkpt>
      <trkpt lat="44.71617" lon="2.0211">
        <ele>549.193</ele>
        <time>2019-10-29T13:39:48.001Z</time>
      </trkpt>
      <trkpt lat="44.71682" lon="2.02077">
        <ele>554.638</ele>
        <time>2019-10-29T13:40:18.001Z</time>
      </trkpt>
      <trkpt lat="44.71751" lon="2.02082">
        <ele>562.202</ele>
        <time>2019-10-29T13:40:51.001Z</time>
      </trkpt>
      <trkpt lat="44.71811" lon="2.02073">
        <ele>570.088</ele>
        <time>2019-10-29T13:41:24.001Z</time>
      </trkpt>
      <trkpt lat="44.71867" lon="2.02039">
        <ele>577.66</ele>
        <time>2019-10-29T13:41:54.001Z</time>
      </trkpt>
      <trkpt lat="44.71907" lon="2.01984">
        <ele>582.115</ele>
        <time>2019-10-29T13:42:27.001Z</time>
      </trkpt>
      <trkpt lat="44.71942" lon="2.01923">
        <ele>583.155</ele>
        <time>2019-10-29T13:43:00.001Z</time>
      </trkpt>
      <trkpt lat="44.71977" lon="2.01847">
        <ele>592.584</ele>
        <time>2019-10-29T13:43:30.001Z</time>
      </trkpt>
      <trkpt lat="44.71984" lon="2.01764">
        <ele>591.675</ele>
        <time>2019-10-29T13:44:03.001Z</time>
      </trkpt>
      <trkpt lat="44.71971" lon="2.01694">
        <ele>586.36</ele>
        <time>2019-10-29T13:44:36.001Z</time>
      </trkpt>
      <trkpt lat="44.7198" lon="2.0165">
        <ele>590.9</ele>
        <time>2019-10-29T13:45:09.001Z</time>
      </trkpt>
      <trkpt lat="44.7205" lon="2.01678">
        <ele>590.652</ele>
        <time>2019-10-29T13:45:39.001Z</time>
      </trkpt>
      <trkpt lat="44.72245" lon="2.01781">
        <ele>579.103</ele>
        <time>2019-10-29T13:46:09.001Z</time>
      </trkpt>
      <trkpt lat="44.72422" lon="2.01556">
        <ele>575.835</ele>
        <time>2019-10-29T13:46:39.001Z</time>
      </trkpt>
      <trkpt lat="44.72534" lon="2.01481">
        <ele>580.103</ele>
        <time>2019-10-29T13:47:09.001Z</time>
      </trkpt>
      <trkpt lat="44.72622" lon="2.01386">
        <ele>580.378</ele>
        <time>2019-10-29T13:47:39.001Z</time>
      </trkpt>
      <trkpt lat="44.7266" lon="2.01256">
        <ele>578.909</ele>
        <time>2019-10-29T13:48:09.001Z</time>
      </trkpt>
      <trkpt lat="44.7273" lon="2.0117">
        <ele>589.623</ele>
        <time>2019-10-29T13:48:39.001Z</time>
      </trkpt>
      <trkpt lat="44.72805" lon="2.01089">
        <ele>587.308</ele>
        <time>2019-10-29T13:49:09.001Z</time>
      </trkpt>
      <trkpt lat="44.7288" lon="2.01002">
        <ele>585.693</ele>
        <time>2019-10-29T13:49:39.001Z</time>
      </trkpt>
      <trkpt lat="44.72956" lon="2.00931">
        <ele>587.747</ele>
        <time>2019-10-29T13:50:09.001Z</time>
      </trkpt>
      <trkpt lat="44.73046" lon="2.00887">
        <ele>589.175</ele>
        <time>2019-10-29T13:50:39.001Z</time>
      </trkpt>
      <trkpt lat="44.73132" lon="2.00853">
        <ele>593.8</ele>
        <time>2019-10-29T13:51:09.001Z</time>
      </trkpt>
      <trkpt lat="44.732" lon="2.00824">
        <ele>602.142</ele>
        <time>2019-10-29T13:51:39.001Z</time>
      </trkpt>
      <trkpt lat="44.73262" lon="2.0079">
        <ele>602.57</ele>
        <time>2019-10-29T13:52:09.001Z</time>
      </trkpt>
      <trkpt lat="44.73316" lon="2.00749">
        <ele>605.863</ele>
        <time>2019-10-29T13:52:42.001Z</time>
      </trkpt>
      <trkpt lat="44.73345" lon="2.00667">
        <ele>613.912</ele>
        <time>2019-10-29T13:53:18.001Z</time>
      </trkpt>
      <trkpt lat="44.73386" lon="2.00611">
        <ele>626.195</ele>
        <time>2019-10-29T13:53:51.001Z</time>
      </trkpt>
      <trkpt lat="44.73443" lon="2.00565">
        <ele>628.631</ele>
        <time>2019-10-29T13:54:21.001Z</time>
      </trkpt>
      <trkpt lat="44.73463" lon="2.00442">
        <ele>617.481</ele>
        <time>2019-10-29T13:54:51.001Z</time>
      </trkpt>
      <trkpt lat="44.73479" lon="2.00278">
        <ele>611.209</ele>
        <time>2019-10-29T13:55:21.001Z</time>
      </trkpt>
      <trkpt lat="44.73512" lon="2.0012">
        <ele>611.493</ele>
        <time>2019-10-29T13:55:51.001Z</time>
      </trkpt>
      <trkpt lat="44.73551" lon="1.99975">
        <ele>611.985</ele>
        <time>2019-10-29T13:56:21.001Z</time>
      </trkpt>
      <trkpt lat="44.73578" lon="1.99847">
        <ele>615.002</ele>
        <time>2019-10-29T13:56:51.001Z</time>
      </trkpt>
      <trkpt lat="44.73613" lon="1.99702">
        <ele>614.901</ele>
        <time>2019-10-29T13:57:21.001Z</time>
      </trkpt>
      <trkpt lat="44.73642" lon="1.99617">
        <ele>616.937</ele>
        <time>2019-10-29T13:59:18.001Z</time>
      </trkpt>
      <trkpt lat="44.73732" lon="1.99507">
        <ele>617.403</ele>
        <time>2019-10-29T13:59:48.001Z</time>
      </trkpt>
      <trkpt lat="44.73793" lon="1.99372">
        <ele>619.302</ele>
        <time>2019-10-29T14:00:18.001Z</time>
      </trkpt>
      <trkpt lat="44.73764" lon="1.99157">
        <ele>611.41</ele>
        <time>2019-10-29T14:00:48.001Z</time>
      </trkpt>
      <trkpt lat="44.73754" lon="1.98882">
        <ele>606.573</ele>
        <time>2019-10-29T14:01:18.001Z</time>
      </trkpt>
      <trkpt lat="44.73919" lon="1.98605">
        <ele>598.537</ele>
        <time>2019-10-29T14:01:48.001Z</time>
      </trkpt>
      <trkpt lat="44.74018" lon="1.9836">
        <ele>595.913</ele>
        <time>2019-10-29T14:02:18.001Z</time>
      </trkpt>
      <trkpt lat="44.74093" lon="1.98154">
        <ele>599.085</ele>
        <time>2019-10-29T14:02:48.001Z</time>
      </trkpt>
      <trkpt lat="44.74159" lon="1.97872">
        <ele>591.44</ele>
        <time>2019-10-29T14:03:18.001Z</time>
      </trkpt>
      <trkpt lat="44.7419" lon="1.97631">
        <ele>584.285</ele>
        <time>2019-10-29T14:03:48.001Z</time>
      </trkpt>
      <trkpt lat="44.74191" lon="1.97444">
        <ele>585.118</ele>
        <time>2019-10-29T14:04:18.001Z</time>
      </trkpt>
      <trkpt lat="44.74188" lon="1.97203">
        <ele>584.759</ele>
        <time>2019-10-29T14:04:48.001Z</time>
      </trkpt>
      <trkpt lat="44.7419" lon="1.96929">
        <ele>581.766</ele>
        <time>2019-10-29T14:05:18.001Z</time>
      </trkpt>
      <trkpt lat="44.74375" lon="1.96753">
        <ele>578.162</ele>
        <time>2019-10-29T14:05:48.001Z</time>
      </trkpt>
      <trkpt lat="44.74558" lon="1.96604">
        <ele>580.499</ele>
        <time>2019-10-29T14:06:18.001Z</time>
      </trkpt>
      <trkpt lat="44.74779" lon="1.96426">
        <ele>567.247</ele>
        <time>2019-10-29T14:06:51.001Z</time>
      </trkpt>
      <trkpt lat="44.74836" lon="1.96163">
        <ele>568.253</ele>
        <time>2019-10-29T14:07:21.001Z</time>
      </trkpt>
      <trkpt lat="44.74828" lon="1.95822">
        <ele>558.613</ele>
        <time>2019-10-29T14:07:51.001Z</time>
      </trkpt>
      <trkpt lat="44.74934" lon="1.95739">
        <ele>552.913</ele>
        <time>2019-10-29T14:08:21.001Z</time>
      </trkpt>
      <trkpt lat="44.75056" lon="1.95623">
        <ele>551.755</ele>
        <time>2019-10-29T14:08:51.001Z</time>
      </trkpt>
      <trkpt lat="44.75183" lon="1.95489">
        <ele>551.337</ele>
        <time>2019-10-29T14:09:21.001Z</time>
      </trkpt>
      <trkpt lat="44.7531" lon="1.95421">
        <ele>547.931</ele>
        <time>2019-10-29T14:09:51.001Z</time>
      </trkpt>
      <trkpt lat="44.75429" lon="1.95348">
        <ele>546.556</ele>
        <time>2019-10-29T14:10:21.001Z</time>
      </trkpt>
      <trkpt lat="44.75526" lon="1.95333">
        <ele>552.432</ele>
        <time>2019-10-29T14:10:51.001Z</time>
      </trkpt>
      <trkpt lat="44.75607" lon="1.95312">
        <ele>556.761</ele>
        <time>2019-10-29T14:11:21.001Z</time>
      </trkpt>
      <trkpt lat="44.75683" lon="1.95268">
        <ele>558.544</ele>
        <time>2019-10-29T14:11:51.001Z</time>
      </trkpt>
      <trkpt lat="44.75744" lon="1.95231">
        <ele>556.258</ele>
        <time>2019-10-29T14:12:21.001Z</time>
      </trkpt>
      <trkpt lat="44.75855" lon="1.9515">
        <ele>563.13</ele>
        <time>2019-10-29T14:12:51.001Z</time>
      </trkpt>
      <trkpt lat="44.75958" lon="1.95059">
        <ele>561.657</ele>
        <time>2019-10-29T14:13:21.001Z</time>
      </trkpt>
      <trkpt lat="44.7601" lon="1.95005">
        <ele>561.651</ele>
        <time>2019-10-29T14:13:51.001Z</time>
      </trkpt>
      <trkpt lat="44.76057" lon="1.94949">
        <ele>572.335</ele>
        <time>2019-10-29T14:14:33.001Z</time>
      </trkpt>
      <trkpt lat="44.7611" lon="1.94913">
        <ele>577.156</ele>
        <time>2019-10-29T14:15:09.001Z</time>
      </trkpt>
      <trkpt lat="44.76191" lon="1.94902">
        <ele>578.916</ele>
        <time>2019-10-29T14:15:39.001Z</time>
      </trkpt>
      <trkpt lat="44.76295" lon="1.9488">
        <ele>577.068</ele>
        <time>2019-10-29T14:16:09.001Z</time>
      </trkpt>
      <trkpt lat="44.76412" lon="1.9482">
        <ele>573.838</ele>
        <time>2019-10-29T14:16:39.001Z</time>
      </trkpt>
      <trkpt lat="44.76521" lon="1.94785">
        <ele>575.92</ele>
        <time>2019-10-29T14:17:09.001Z</time>
      </trkpt>
      <trkpt lat="44.76602" lon="1.94705">
        <ele>578.902</ele>
        <time>2019-10-29T14:17:39.001Z</time>
      </trkpt>
      <trkpt lat="44.76667" lon="1.94625">
        <ele>581.333</ele>
        <time>2019-10-29T14:18:09.001Z</time>
      </trkpt>
      <trkpt lat="44.76758" lon="1.94559">
        <ele>579.586</ele>
        <time>2019-10-29T14:18:42.001Z</time>
      </trkpt>
      <trkpt lat="44.76818" lon="1.94489">
        <ele>582.447</ele>
        <time>2019-10-29T14:19:15.001Z</time>
      </trkpt>
      <trkpt lat="44.76854" lon="1.94439">
        <ele>589.841</ele>
        <time>2019-10-29T14:19:45.001Z</time>
      </trkpt>
      <trkpt lat="44.76884" lon="1.94378">
        <ele>598.218</ele>
        <time>2019-10-29T14:20:18.001Z</time>
      </trkpt>
      <trkpt lat="44.76912" lon="1.94305">
        <ele>603.964</ele>
        <time>2019-10-29T14:20:48.001Z</time>
      </trkpt>
      <trkpt lat="44.76943" lon="1.94229">
        <ele>604.721</ele>
        <time>2019-10-29T14:21:18.001Z</time>
      </trkpt>
      <trkpt lat="44.76996" lon="1.94143">
        <ele>607.832</ele>
        <time>2019-10-29T14:21:48.001Z</time>
      </trkpt>
      <trkpt lat="44.77048" lon="1.94056">
        <ele>607.463</ele>
        <time>2019-10-29T14:22:18.001Z</time>
      </trkpt>
      <trkpt lat="44.77091" lon="1.93971">
        <ele>613.338</ele>
        <time>2019-10-29T14:22:48.001Z</time>
      </trkpt>
      <trkpt lat="44.77121" lon="1.93872">
        <ele>615.687</ele>
        <time>2019-10-29T14:23:18.001Z</time>
      </trkpt>
      <trkpt lat="44.77156" lon="1.93774">
        <ele>614.587</ele>
        <time>2019-10-29T14:23:48.001Z</time>
      </trkpt>
      <trkpt lat="44.77186" lon="1.93692">
        <ele>613.233</ele>
        <time>2019-10-29T14:24:18.001Z</time>
      </trkpt>
      <trkpt lat="44.77229" lon="1.93625">
        <ele>620.657</ele>
        <time>2019-10-29T14:24:48.001Z</time>
      </trkpt>
      <trkpt lat="44.77268" lon="1.93566">
        <ele>625.04</ele>
        <time>2019-10-29T14:25:18.001Z</time>
      </trkpt>
      <trkpt lat="44.77305" lon="1.93496">
        <ele>624.66</ele>
        <time>2019-10-29T14:25:48.001Z</time>
      </trkpt>
      <trkpt lat="44.77378" lon="1.93362">
        <ele>625.952</ele>
        <time>2019-10-29T14:26:18.001Z</time>
      </trkpt>
      <trkpt lat="44.77394" lon="1.93112">
        <ele>615.897</ele>
        <time>2019-10-29T14:26:48.001Z</time>
      </trkpt>
      <trkpt lat="44.77388" lon="1.9282">
        <ele>610.51</ele>
        <time>2019-10-29T14:27:18.001Z</time>
      </trkpt>
      <trkpt lat="44.77409" lon="1.92638">
        <ele>605.017</ele>
        <time>2019-10-29T14:27:48.001Z</time>
      </trkpt>
      <trkpt lat="44.77539" lon="1.92413">
        <ele>603.29</ele>
        <time>2019-10-29T14:28:18.001Z</time>
      </trkpt>
      <trkpt lat="44.77548" lon="1.91941">
        <ele>589.374</ele>
        <time>2019-10-29T14:28:48.001Z</time>
      </trkpt>
      <trkpt lat="44.7758" lon="1.9146">
        <ele>573.422</ele>
        <time>2019-10-29T14:29:18.001Z</time>
      </trkpt>
      <trkpt lat="44.77657" lon="1.91109">
        <ele>550.835</ele>
        <time>2019-10-29T14:29:48.001Z</time>
      </trkpt>
      <trkpt lat="44.77676" lon="1.90718">
        <ele>520.415</ele>
        <time>2019-10-29T14:30:21.001Z</time>
      </trkpt>
      <trkpt lat="44.77635" lon="1.90414">
        <ele>495.056</ele>
        <time>2019-10-29T14:30:51.001Z</time>
      </trkpt>
      <trkpt lat="44.77737" lon="1.9003">
        <ele>486.044</ele>
        <time>2019-10-29T14:31:21.001Z</time>
      </trkpt>
      <trkpt lat="44.78046" lon="1.89846">
        <ele>463.138</ele>
        <time>2019-10-29T14:31:51.001Z</time>
      </trkpt>
      <trkpt lat="44.78312" lon="1.90006">
        <ele>453.216</ele>
        <time>2019-10-29T14:32:21.001Z</time>
      </trkpt>
      <trkpt lat="44.78371" lon="1.90076">
        <ele>460.439</ele>
        <time>2019-10-29T14:32:51.001Z</time>
      </trkpt>
      <trkpt lat="44.78426" lon="1.90108">
        <ele>465.19</ele>
        <time>2019-10-29T14:33:21.001Z</time>
      </trkpt>
      <trkpt lat="44.78482" lon="1.90078">
        <ele>475.753</ele>
        <time>2019-10-29T14:33:51.001Z</time>
      </trkpt>
      <trkpt lat="44.78512" lon="1.90053">
        <ele>477.187</ele>
        <time>2019-10-29T14:39:33.001Z</time>
      </trkpt>
      <trkpt lat="44.78453" lon="1.90017">
        <ele>476.041</ele>
        <time>2019-10-29T14:40:06.001Z</time>
      </trkpt>
      <trkpt lat="44.78447" lon="1.89806">
        <ele>464.121</ele>
        <time>2019-10-29T14:40:36.001Z</time>
      </trkpt>
      <trkpt lat="44.78497" lon="1.898">
        <ele>462.735</ele>
        <time>2019-10-29T14:41:33.001Z</time>
      </trkpt>
    </trkseg>
  </trk>
  <trk>
    <name><![CDATA[Tracé 20191030-075714]]></name>
    <trkseg>
      <trkpt lat="44.78509" lon="1.898">
        <ele>467.268</ele>
        <time>2019-10-30T07:16:34Z</time>
      </trkpt>
      <trkpt lat="44.78554" lon="1.89814">
        <ele>462.727</ele>
        <time>2019-10-30T07:17:22Z</time>
      </trkpt>
      <trkpt lat="44.78576" lon="1.89894">
        <ele>462.824</ele>
        <time>2019-10-30T07:18:22Z</time>
      </trkpt>
      <trkpt lat="44.78601" lon="1.89969">
        <ele>473.404</ele>
        <time>2019-10-30T07:19:31Z</time>
      </trkpt>
      <trkpt lat="44.78642" lon="1.89989">
        <ele>483.839</ele>
        <time>2019-10-30T07:20:22Z</time>
      </trkpt>
      <trkpt lat="44.78652" lon="1.89976">
        <ele>483.519</ele>
        <time>2019-10-30T07:28:34Z</time>
      </trkpt>
      <trkpt lat="44.78537" lon="1.9005">
        <ele>484.528</ele>
        <time>2019-10-30T07:29:07Z</time>
      </trkpt>
      <trkpt lat="44.78398" lon="1.90097">
        <ele>485.032</ele>
        <time>2019-10-30T07:29:37Z</time>
      </trkpt>
      <trkpt lat="44.78207" lon="1.89873">
        <ele>459.39</ele>
        <time>2019-10-30T07:30:07Z</time>
      </trkpt>
      <trkpt lat="44.78194" lon="1.89702">
        <ele>457.786</ele>
        <time>2019-10-30T07:30:40Z</time>
      </trkpt>
      <trkpt lat="44.78213" lon="1.89569">
        <ele>465.213</ele>
        <time>2019-10-30T07:31:10Z</time>
      </trkpt>
      <trkpt lat="44.7823" lon="1.89422">
        <ele>468.133</ele>
        <time>2019-10-30T07:31:43Z</time>
      </trkpt>
      <trkpt lat="44.78247" lon="1.89292">
        <ele>473.469</ele>
        <time>2019-10-30T07:32:13Z</time>
      </trkpt>
      <trkpt lat="44.78291" lon="1.89119">
        <ele>472.157</ele>
        <time>2019-10-30T07:32:46.001Z</time>
      </trkpt>
      <trkpt lat="44.78388" lon="1.88829">
        <ele>465.187</ele>
        <time>2019-10-30T07:33:16Z</time>
      </trkpt>
      <trkpt lat="44.78514" lon="1.88521">
        <ele>456.317</ele>
        <time>2019-10-30T07:33:46.001Z</time>
      </trkpt>
      <trkpt lat="44.78575" lon="1.88144">
        <ele>447.458</ele>
        <time>2019-10-30T07:34:19.001Z</time>
      </trkpt>
      <trkpt lat="44.78571" lon="1.87784">
        <ele>444.941</ele>
        <time>2019-10-30T07:34:49.001Z</time>
      </trkpt>
      <trkpt lat="44.78515" lon="1.8739">
        <ele>428.945</ele>
        <time>2019-10-30T07:35:22.001Z</time>
      </trkpt>
      <trkpt lat="44.7861" lon="1.8703">
        <ele>415.264</ele>
        <time>2019-10-30T07:35:52.001Z</time>
      </trkpt>
      <trkpt lat="44.78752" lon="1.86697">
        <ele>400.285</ele>
        <time>2019-10-30T07:36:22.001Z</time>
      </trkpt>
      <trkpt lat="44.78925" lon="1.86327">
        <ele>390.297</ele>
        <time>2019-10-30T07:36:55.001Z</time>
      </trkpt>
      <trkpt lat="44.78833" lon="1.86043">
        <ele>378.437</ele>
        <time>2019-10-30T07:37:25.001Z</time>
      </trkpt>
      <trkpt lat="44.78631" lon="1.85734">
        <ele>367.018</ele>
        <time>2019-10-30T07:37:58.001Z</time>
      </trkpt>
      <trkpt lat="44.78411" lon="1.85479">
        <ele>357.087</ele>
        <time>2019-10-30T07:38:28.001Z</time>
      </trkpt>
      <trkpt lat="44.78409" lon="1.85176">
        <ele>346.525</ele>
        <time>2019-10-30T07:38:58.001Z</time>
      </trkpt>
      <trkpt lat="44.78452" lon="1.85109">
        <ele>347.943</ele>
        <time>2019-10-30T07:39:31.001Z</time>
      </trkpt>
      <trkpt lat="44.78606" lon="1.85065">
        <ele>354.109</ele>
        <time>2019-10-30T07:40:01.001Z</time>
      </trkpt>
      <trkpt lat="44.787" lon="1.84943">
        <ele>349.565</ele>
        <time>2019-10-30T07:40:34.001Z</time>
      </trkpt>
      <trkpt lat="44.78723" lon="1.84781">
        <ele>348.506</ele>
        <time>2019-10-30T07:41:04.001Z</time>
      </trkpt>
      <trkpt lat="44.78725" lon="1.84622">
        <ele>351.284</ele>
        <time>2019-10-30T07:41:37.001Z</time>
      </trkpt>
      <trkpt lat="44.78723" lon="1.84496">
        <ele>354.423</ele>
        <time>2019-10-30T07:42:07.001Z</time>
      </trkpt>
      <trkpt lat="44.78788" lon="1.84419">
        <ele>353.485</ele>
        <time>2019-10-30T07:42:37.001Z</time>
      </trkpt>
      <trkpt lat="44.78781" lon="1.84276">
        <ele>358.706</ele>
        <time>2019-10-30T07:43:10.001Z</time>
      </trkpt>
      <trkpt lat="44.78785" lon="1.84162">
        <ele>363.05</ele>
        <time>2019-10-30T07:43:40.001Z</time>
      </trkpt>
      <trkpt lat="44.78767" lon="1.84033">
        <ele>370.364</ele>
        <time>2019-10-30T07:44:13.001Z</time>
      </trkpt>
      <trkpt lat="44.7872" lon="1.83949">
        <ele>369.851</ele>
        <time>2019-10-30T07:44:43.001Z</time>
      </trkpt>
      <trkpt lat="44.78662" lon="1.83863">
        <ele>371.078</ele>
        <time>2019-10-30T07:45:13.001Z</time>
      </trkpt>
      <trkpt lat="44.78685" lon="1.83768">
        <ele>374.205</ele>
        <time>2019-10-30T07:45:46.001Z</time>
      </trkpt>
      <trkpt lat="44.78747" lon="1.83704">
        <ele>376.177</ele>
        <time>2019-10-30T07:46:16Z</time>
      </trkpt>
      <trkpt lat="44.7877" lon="1.83581">
        <ele>380</ele>
        <time>2019-10-30T07:46:49.001Z</time>
      </trkpt>
      <trkpt lat="44.78753" lon="1.83458">
        <ele>383.839</ele>
        <time>2019-10-30T07:47:19.001Z</time>
      </trkpt>
      <trkpt lat="44.78712" lon="1.83304">
        <ele>385.369</ele>
        <time>2019-10-30T07:47:49.001Z</time>
      </trkpt>
      <trkpt lat="44.78638" lon="1.83167">
        <ele>385.268</ele>
        <time>2019-10-30T07:48:22.001Z</time>
      </trkpt>
      <trkpt lat="44.78546" lon="1.83147">
        <ele>387.893</ele>
        <time>2019-10-30T07:48:52.001Z</time>
      </trkpt>
      <trkpt lat="44.78432" lon="1.83147">
        <ele>393.498</ele>
        <time>2019-10-30T07:49:25.001Z</time>
      </trkpt>
      <trkpt lat="44.7833" lon="1.83058">
        <ele>392.911</ele>
        <time>2019-10-30T07:49:55.001Z</time>
      </trkpt>
      <trkpt lat="44.78313" lon="1.82804">
        <ele>383.61</ele>
        <time>2019-10-30T07:50:25.001Z</time>
      </trkpt>
      <trkpt lat="44.78431" lon="1.82497">
        <ele>376.284</ele>
        <time>2019-10-30T07:50:58.001Z</time>
      </trkpt>
      <trkpt lat="44.78503" lon="1.82172">
        <ele>371.073</ele>
        <time>2019-10-30T07:51:28.001Z</time>
      </trkpt>
      <trkpt lat="44.78545" lon="1.81769">
        <ele>345.65</ele>
        <time>2019-10-30T07:52:01.001Z</time>
      </trkpt>
      <trkpt lat="44.78482" lon="1.81351">
        <ele>335.236</ele>
        <time>2019-10-30T07:52:31.001Z</time>
      </trkpt>
      <trkpt lat="44.7847" lon="1.81042">
        <ele>326.981</ele>
        <time>2019-10-30T07:53:04.001Z</time>
      </trkpt>
      <trkpt lat="44.78487" lon="1.80806">
        <ele>328.725</ele>
        <time>2019-10-30T07:53:34.001Z</time>
      </trkpt>
      <trkpt lat="44.78539" lon="1.80614">
        <ele>327.917</ele>
        <time>2019-10-30T07:54:04.001Z</time>
      </trkpt>
      <trkpt lat="44.78646" lon="1.80493">
        <ele>327.074</ele>
        <time>2019-10-30T07:54:37.001Z</time>
      </trkpt>
      <trkpt lat="44.78621" lon="1.8029">
        <ele>326.177</ele>
        <time>2019-10-30T07:55:07.001Z</time>
      </trkpt>
      <trkpt lat="44.78686" lon="1.80012">
        <ele>321.855</ele>
        <time>2019-10-30T07:55:40.001Z</time>
      </trkpt>
      <trkpt lat="44.78775" lon="1.79784">
        <ele>322.262</ele>
        <time>2019-10-30T07:56:10.001Z</time>
      </trkpt>
      <trkpt lat="44.78733" lon="1.7958">
        <ele>320.69</ele>
        <time>2019-10-30T07:56:40.001Z</time>
      </trkpt>
      <trkpt lat="44.78739" lon="1.79313">
        <ele>321.415</ele>
        <time>2019-10-30T07:57:13.001Z</time>
      </trkpt>
      <trkpt lat="44.78767" lon="1.79092">
        <ele>317.148</ele>
        <time>2019-10-30T07:57:43.001Z</time>
      </trkpt>
      <trkpt lat="44.78764" lon="1.78816">
        <ele>318.97</ele>
        <time>2019-10-30T07:58:16Z</time>
      </trkpt>
      <trkpt lat="44.78728" lon="1.78568">
        <ele>321.656</ele>
        <time>2019-10-30T07:58:46.001Z</time>
      </trkpt>
      <trkpt lat="44.78603" lon="1.78358">
        <ele>317.28</ele>
        <time>2019-10-30T07:59:16Z</time>
      </trkpt>
      <trkpt lat="44.78617" lon="1.7825">
        <ele>313.687</ele>
        <time>2019-10-30T07:59:49.001Z</time>
      </trkpt>
      <trkpt lat="44.78679" lon="1.78232">
        <ele>322.074</ele>
        <time>2019-10-30T08:00:28.001Z</time>
      </trkpt>
      <trkpt lat="44.78735" lon="1.78189">
        <ele>323.101</ele>
        <time>2019-10-30T08:01:07.001Z</time>
      </trkpt>
      <trkpt lat="44.78781" lon="1.78154">
        <ele>325.908</ele>
        <time>2019-10-30T08:01:37.001Z</time>
      </trkpt>
      <trkpt lat="44.78832" lon="1.78117">
        <ele>332.146</ele>
        <time>2019-10-30T08:02:07.001Z</time>
      </trkpt>
      <trkpt lat="44.78891" lon="1.78073">
        <ele>336.462</ele>
        <time>2019-10-30T08:02:40.001Z</time>
      </trkpt>
      <trkpt lat="44.78941" lon="1.78027">
        <ele>337.303</ele>
        <time>2019-10-30T08:03:10.001Z</time>
      </trkpt>
      <trkpt lat="44.78999" lon="1.77955">
        <ele>340.298</ele>
        <time>2019-10-30T08:03:43.001Z</time>
      </trkpt>
      <trkpt lat="44.79053" lon="1.77906">
        <ele>342.774</ele>
        <time>2019-10-30T08:04:13.001Z</time>
      </trkpt>
      <trkpt lat="44.79119" lon="1.77859">
        <ele>344.866</ele>
        <time>2019-10-30T08:04:46.001Z</time>
      </trkpt>
      <trkpt lat="44.79173" lon="1.77806">
        <ele>347.865</ele>
        <time>2019-10-30T08:05:16Z</time>
      </trkpt>
      <trkpt lat="44.7923" lon="1.77746">
        <ele>350.743</ele>
        <time>2019-10-30T08:05:46.001Z</time>
      </trkpt>
      <trkpt lat="44.79279" lon="1.77626">
        <ele>354.967</ele>
        <time>2019-10-30T08:06:19.001Z</time>
      </trkpt>
      <trkpt lat="44.79327" lon="1.77521">
        <ele>354.489</ele>
        <time>2019-10-30T08:06:49.001Z</time>
      </trkpt>
      <trkpt lat="44.79386" lon="1.77398">
        <ele>355.665</ele>
        <time>2019-10-30T08:07:22.001Z</time>
      </trkpt>
      <trkpt lat="44.79429" lon="1.77286">
        <ele>359.907</ele>
        <time>2019-10-30T08:07:52.001Z</time>
      </trkpt>
      <trkpt lat="44.79487" lon="1.77093">
        <ele>353.284</ele>
        <time>2019-10-30T08:08:22.001Z</time>
      </trkpt>
      <trkpt lat="44.79603" lon="1.76767">
        <ele>339.007</ele>
        <time>2019-10-30T08:08:55.001Z</time>
      </trkpt>
      <trkpt lat="44.79678" lon="1.76431">
        <ele>319.508</ele>
        <time>2019-10-30T08:09:25.001Z</time>
      </trkpt>
      <trkpt lat="44.79766" lon="1.76136">
        <ele>307.943</ele>
        <time>2019-10-30T08:09:58.001Z</time>
      </trkpt>
      <trkpt lat="44.79819" lon="1.76024">
        <ele>303.574</ele>
        <time>2019-10-30T08:10:28.001Z</time>
      </trkpt>
      <trkpt lat="44.79764" lon="1.75875">
        <ele>308.109</ele>
        <time>2019-10-30T08:10:58.001Z</time>
      </trkpt>
      <trkpt lat="44.79783" lon="1.75668">
        <ele>308.044</ele>
        <time>2019-10-30T08:11:31.001Z</time>
      </trkpt>
      <trkpt lat="44.79812" lon="1.75594">
        <ele>308.598</ele>
        <time>2019-10-30T08:12:01.001Z</time>
      </trkpt>
      <trkpt lat="44.79836" lon="1.75512">
        <ele>312.874</ele>
        <time>2019-10-30T08:12:40.001Z</time>
      </trkpt>
      <trkpt lat="44.79866" lon="1.75441">
        <ele>320.908</ele>
        <time>2019-10-30T08:13:19.001Z</time>
      </trkpt>
      <trkpt lat="44.79899" lon="1.75354">
        <ele>326.984</ele>
        <time>2019-10-30T08:13:55.001Z</time>
      </trkpt>
      <trkpt lat="44.79924" lon="1.75266">
        <ele>330.578</ele>
        <time>2019-10-30T08:14:25.001Z</time>
      </trkpt>
      <trkpt lat="44.79963" lon="1.75173">
        <ele>333.67</ele>
        <time>2019-10-30T08:14:55.001Z</time>
      </trkpt>
      <trkpt lat="44.79998" lon="1.75088">
        <ele>335.365</ele>
        <time>2019-10-30T08:15:28.001Z</time>
      </trkpt>
      <trkpt lat="44.80045" lon="1.75015">
        <ele>341.528</ele>
        <time>2019-10-30T08:15:58.001Z</time>
      </trkpt>
      <trkpt lat="44.80095" lon="1.74926">
        <ele>341.802</ele>
        <time>2019-10-30T08:16:31.001Z</time>
      </trkpt>
      <trkpt lat="44.8015" lon="1.74804">
        <ele>340.263</ele>
        <time>2019-10-30T08:17:01.001Z</time>
      </trkpt>
      <trkpt lat="44.80186" lon="1.74682">
        <ele>336.239</ele>
        <time>2019-10-30T08:17:31.001Z</time>
      </trkpt>
      <trkpt lat="44.80217" lon="1.7457">
        <ele>339.949</ele>
        <time>2019-10-30T08:18:04.001Z</time>
      </trkpt>
      <trkpt lat="44.80263" lon="1.74399">
        <ele>338.728</ele>
        <time>2019-10-30T08:18:34.001Z</time>
      </trkpt>
      <trkpt lat="44.80423" lon="1.74218">
        <ele>335.354</ele>
        <time>2019-10-30T08:19:07.001Z</time>
      </trkpt>
      <trkpt lat="44.80456" lon="1.74152">
        <ele>338.598</ele>
        <time>2019-10-30T08:19:43.001Z</time>
      </trkpt>
      <trkpt lat="44.8049" lon="1.7409">
        <ele>342.538</ele>
        <time>2019-10-30T08:20:16Z</time>
      </trkpt>
      <trkpt lat="44.80512" lon="1.74009">
        <ele>345.575</ele>
        <time>2019-10-30T08:20:49.001Z</time>
      </trkpt>
      <trkpt lat="44.80464" lon="1.73936">
        <ele>348.848</ele>
        <time>2019-10-30T08:22:43.001Z</time>
      </trkpt>
      <trkpt lat="44.80433" lon="1.73862">
        <ele>349.188</ele>
        <time>2019-10-30T08:23:28.001Z</time>
      </trkpt>
      <trkpt lat="44.80414" lon="1.73735">
        <ele>350.483</ele>
        <time>2019-10-30T08:23:58.001Z</time>
      </trkpt>
      <trkpt lat="44.8034" lon="1.73538">
        <ele>350.329</ele>
        <time>2019-10-30T08:24:28.001Z</time>
      </trkpt>
      <trkpt lat="44.80356" lon="1.73279">
        <ele>333.668</ele>
        <time>2019-10-30T08:25:01.001Z</time>
      </trkpt>
      <trkpt lat="44.80404" lon="1.73241">
        <ele>333.705</ele>
        <time>2019-10-30T08:25:31.001Z</time>
      </trkpt>
      <trkpt lat="44.80448" lon="1.73182">
        <ele>335.551</ele>
        <time>2019-10-30T08:26:07.001Z</time>
      </trkpt>
      <trkpt lat="44.80497" lon="1.73117">
        <ele>343.623</ele>
        <time>2019-10-30T08:26:52.001Z</time>
      </trkpt>
      <trkpt lat="44.80531" lon="1.73037">
        <ele>353.312</ele>
        <time>2019-10-30T08:27:40.001Z</time>
      </trkpt>
      <trkpt lat="44.80502" lon="1.72961">
        <ele>361.479</ele>
        <time>2019-10-30T08:28:16Z</time>
      </trkpt>
      <trkpt lat="44.80542" lon="1.7275">
        <ele>358.328</ele>
        <time>2019-10-30T08:28:46.001Z</time>
      </trkpt>
      <trkpt lat="44.80436" lon="1.72676">
        <ele>344.68</ele>
        <time>2019-10-30T08:29:19.001Z</time>
      </trkpt>
      <trkpt lat="44.80396" lon="1.72634">
        <ele>349.215</ele>
        <time>2019-10-30T08:29:49.001Z</time>
      </trkpt>
      <trkpt lat="44.80367" lon="1.72508">
        <ele>354.408</ele>
        <time>2019-10-30T08:30:22.001Z</time>
      </trkpt>
      <trkpt lat="44.80277" lon="1.72232">
        <ele>349.399</ele>
        <time>2019-10-30T08:30:52.001Z</time>
      </trkpt>
      <trkpt lat="44.80199" lon="1.71939">
        <ele>337.271</ele>
        <time>2019-10-30T08:31:22.001Z</time>
      </trkpt>
      <trkpt lat="44.80309" lon="1.71605">
        <ele>324.502</ele>
        <time>2019-10-30T08:31:55.001Z</time>
      </trkpt>
      <trkpt lat="44.80363" lon="1.71458">
        <ele>322.309</ele>
        <time>2019-10-30T08:32:25.001Z</time>
      </trkpt>
      <trkpt lat="44.80371" lon="1.7124">
        <ele>320.703</ele>
        <time>2019-10-30T08:32:58.001Z</time>
      </trkpt>
      <trkpt lat="44.80373" lon="1.71031">
        <ele>322.635</ele>
        <time>2019-10-30T08:33:28.001Z</time>
      </trkpt>
      <trkpt lat="44.8045" lon="1.70886">
        <ele>325.377</ele>
        <time>2019-10-30T08:33:58.001Z</time>
      </trkpt>
      <trkpt lat="44.80525" lon="1.7067">
        <ele>324.599</ele>
        <time>2019-10-30T08:34:31.001Z</time>
      </trkpt>
      <trkpt lat="44.80584" lon="1.70398">
        <ele>319.158</ele>
        <time>2019-10-30T08:35:01.001Z</time>
      </trkpt>
      <trkpt lat="44.80536" lon="1.70043">
        <ele>298.636</ele>
        <time>2019-10-30T08:35:34.001Z</time>
      </trkpt>
      <trkpt lat="44.80649" lon="1.69829">
        <ele>285.016</ele>
        <time>2019-10-30T08:36:04.001Z</time>
      </trkpt>
      <trkpt lat="44.80681" lon="1.69665">
        <ele>283.826</ele>
        <time>2019-10-30T08:36:37.001Z</time>
      </trkpt>
      <trkpt lat="44.80688" lon="1.6958">
        <ele>292.882</ele>
        <time>2019-10-30T08:37:07.001Z</time>
      </trkpt>
      <trkpt lat="44.8055" lon="1.69532">
        <ele>289.315</ele>
        <time>2019-10-30T08:37:40.001Z</time>
      </trkpt>
      <trkpt lat="44.8052" lon="1.694">
        <ele>290.948</ele>
        <time>2019-10-30T08:38:13.001Z</time>
      </trkpt>
      <trkpt lat="44.80492" lon="1.69328">
        <ele>292.525</ele>
        <time>2019-10-30T08:38:43.001Z</time>
      </trkpt>
      <trkpt lat="44.80453" lon="1.69136">
        <ele>284.119</ele>
        <time>2019-10-30T08:39:16Z</time>
      </trkpt>
      <trkpt lat="44.80488" lon="1.6882">
        <ele>277.708</ele>
        <time>2019-10-30T08:39:46.001Z</time>
      </trkpt>
      <trkpt lat="44.80515" lon="1.68588">
        <ele>275.125</ele>
        <time>2019-10-30T08:40:16Z</time>
      </trkpt>
      <trkpt lat="44.80487" lon="1.68261">
        <ele>273.057</ele>
        <time>2019-10-30T08:40:49.001Z</time>
      </trkpt>
      <trkpt lat="44.80444" lon="1.68042">
        <ele>273.546</ele>
        <time>2019-10-30T08:41:19.001Z</time>
      </trkpt>
      <trkpt lat="44.8047" lon="1.67813">
        <ele>272.424</ele>
        <time>2019-10-30T08:41:52.001Z</time>
      </trkpt>
      <trkpt lat="44.80503" lon="1.67596">
        <ele>270.019</ele>
        <time>2019-10-30T08:42:22.001Z</time>
      </trkpt>
      <trkpt lat="44.80482" lon="1.67406">
        <ele>276.412</ele>
        <time>2019-10-30T08:42:52.001Z</time>
      </trkpt>
      <trkpt lat="44.80467" lon="1.67316">
        <ele>281.403</ele>
        <time>2019-10-30T08:43:25.001Z</time>
      </trkpt>
      <trkpt lat="44.80431" lon="1.67219">
        <ele>286.724</ele>
        <time>2019-10-30T08:43:55.001Z</time>
      </trkpt>
      <trkpt lat="44.80441" lon="1.67048">
        <ele>284.125</ele>
        <time>2019-10-30T08:44:28.001Z</time>
      </trkpt>
      <trkpt lat="44.80415" lon="1.6693">
        <ele>282.94</ele>
        <time>2019-10-30T08:44:58.001Z</time>
      </trkpt>
      <trkpt lat="44.80374" lon="1.66783">
        <ele>279.25</ele>
        <time>2019-10-30T08:45:28.001Z</time>
      </trkpt>
      <trkpt lat="44.80329" lon="1.66538">
        <ele>276.583</ele>
        <time>2019-10-30T08:46:01.001Z</time>
      </trkpt>
      <trkpt lat="44.8034" lon="1.66384">
        <ele>281.579</ele>
        <time>2019-10-30T08:46:31.001Z</time>
      </trkpt>
      <trkpt lat="44.80353" lon="1.66196">
        <ele>281.227</ele>
        <time>2019-10-30T08:47:04.001Z</time>
      </trkpt>
      <trkpt lat="44.80336" lon="1.65909">
        <ele>272.122</ele>
        <time>2019-10-30T08:47:34.001Z</time>
      </trkpt>
      <trkpt lat="44.80306" lon="1.65604">
        <ele>267.259</ele>
        <time>2019-10-30T08:48:07.001Z</time>
      </trkpt>
      <trkpt lat="44.80328" lon="1.65427">
        <ele>272.144</ele>
        <time>2019-10-30T08:48:37.001Z</time>
      </trkpt>
      <trkpt lat="44.8033" lon="1.65331">
        <ele>277.998</ele>
        <time>2019-10-30T08:49:07.001Z</time>
      </trkpt>
      <trkpt lat="44.80318" lon="1.65186">
        <ele>276.834</ele>
        <time>2019-10-30T08:49:40.001Z</time>
      </trkpt>
      <trkpt lat="44.80294" lon="1.64995">
        <ele>275.761</ele>
        <time>2019-10-30T08:50:10.001Z</time>
      </trkpt>
      <trkpt lat="44.80329" lon="1.6463">
        <ele>265.961</ele>
        <time>2019-10-30T08:50:43.001Z</time>
      </trkpt>
      <trkpt lat="44.80361" lon="1.64376">
        <ele>266.102</ele>
        <time>2019-10-30T08:51:13.001Z</time>
      </trkpt>
      <trkpt lat="44.80375" lon="1.64273">
        <ele>271.763</ele>
        <time>2019-10-30T08:51:43.001Z</time>
      </trkpt>
      <trkpt lat="44.80387" lon="1.64172">
        <ele>280.923</ele>
        <time>2019-10-30T08:52:16Z</time>
      </trkpt>
      <trkpt lat="44.80399" lon="1.64074">
        <ele>284.784</ele>
        <time>2019-10-30T08:52:46.001Z</time>
      </trkpt>
      <trkpt lat="44.80411" lon="1.63948">
        <ele>281.708</ele>
        <time>2019-10-30T08:53:19.001Z</time>
      </trkpt>
      <trkpt lat="44.80404" lon="1.63807">
        <ele>281.457</ele>
        <time>2019-10-30T08:53:49.001Z</time>
      </trkpt>
      <trkpt lat="44.80437" lon="1.63537">
        <ele>274.723</ele>
        <time>2019-10-30T08:54:19.001Z</time>
      </trkpt>
      <trkpt lat="44.80432" lon="1.63094">
        <ele>259.575</ele>
        <time>2019-10-30T08:54:52.001Z</time>
      </trkpt>
      <trkpt lat="44.80437" lon="1.62783">
        <ele>251.259</ele>
        <time>2019-10-30T08:55:22.001Z</time>
      </trkpt>
      <trkpt lat="44.80472" lon="1.62714">
        <ele>253.165</ele>
        <time>2019-10-30T08:56:49.001Z</time>
      </trkpt>
      <trkpt lat="44.80475" lon="1.62691">
        <ele>252.379</ele>
        <time>2019-10-30T08:58:52.001Z</time>
      </trkpt>
      <trkpt lat="44.80474" lon="1.62676">
        <ele>253.181</ele>
        <time>2019-10-30T09:02:28.001Z</time>
      </trkpt>
      <trkpt lat="44.8041" lon="1.62705">
        <ele>258.239</ele>
        <time>2019-10-30T09:05:22.001Z</time>
      </trkpt>
      <trkpt lat="44.80366" lon="1.62693">
        <ele>256.577</ele>
        <time>2019-10-30T09:10:10.001Z</time>
      </trkpt>
      <trkpt lat="44.80471" lon="1.62698">
        <ele>260.021</ele>
        <time>2019-10-30T09:10:46.001Z</time>
      </trkpt>
      <trkpt lat="44.80486" lon="1.62654">
        <ele>260.998</ele>
        <time>2019-10-30T09:14:43.001Z</time>
      </trkpt>
      <trkpt lat="44.805" lon="1.62525">
        <ele>260.726</ele>
        <time>2019-10-30T09:15:16Z</time>
      </trkpt>
      <trkpt lat="44.80489" lon="1.62405">
        <ele>260.811</ele>
        <time>2019-10-30T09:15:46.001Z</time>
      </trkpt>
      <trkpt lat="44.80471" lon="1.62274">
        <ele>261.092</ele>
        <time>2019-10-30T09:16:16Z</time>
      </trkpt>
      <trkpt lat="44.80424" lon="1.62175">
        <ele>261.281</ele>
        <time>2019-10-30T09:16:49.001Z</time>
      </trkpt>
      <trkpt lat="44.80376" lon="1.62107">
        <ele>263.811</ele>
        <time>2019-10-30T09:17:19.001Z</time>
      </trkpt>
      <trkpt lat="44.80434" lon="1.62178">
        <ele>261.58</ele>
        <time>2019-10-30T09:18:43.001Z</time>
      </trkpt>
      <trkpt lat="44.80474" lon="1.6233">
        <ele>260.155</ele>
        <time>2019-10-30T09:19:13.001Z</time>
      </trkpt>
      <trkpt lat="44.80557" lon="1.62401">
        <ele>260.009</ele>
        <time>2019-10-30T09:19:43.001Z</time>
      </trkpt>
      <trkpt lat="44.80658" lon="1.62277">
        <ele>261.45</ele>
        <time>2019-10-30T09:20:16Z</time>
      </trkpt>
      <trkpt lat="44.8081" lon="1.62051">
        <ele>254.999</ele>
        <time>2019-10-30T09:20:46.001Z</time>
      </trkpt>
      <trkpt lat="44.80926" lon="1.61763">
        <ele>250.279</ele>
        <time>2019-10-30T09:21:19.001Z</time>
      </trkpt>
      <trkpt lat="44.80932" lon="1.61604">
        <ele>252.863</ele>
        <time>2019-10-30T09:21:49.001Z</time>
      </trkpt>
      <trkpt lat="44.80978" lon="1.61386">
        <ele>253.384</ele>
        <time>2019-10-30T09:22:19.001Z</time>
      </trkpt>
      <trkpt lat="44.81037" lon="1.61131">
        <ele>251.814</ele>
        <time>2019-10-30T09:22:52.001Z</time>
      </trkpt>
      <trkpt lat="44.81074" lon="1.61024">
        <ele>255.126</ele>
        <time>2019-10-30T09:23:22.001Z</time>
      </trkpt>
      <trkpt lat="44.81098" lon="1.60836">
        <ele>257.868</ele>
        <time>2019-10-30T09:23:55.001Z</time>
      </trkpt>
      <trkpt lat="44.81153" lon="1.60717">
        <ele>259.467</ele>
        <time>2019-10-30T09:24:25.001Z</time>
      </trkpt>
      <trkpt lat="44.81184" lon="1.60549">
        <ele>261.778</ele>
        <time>2019-10-30T09:24:58.001Z</time>
      </trkpt>
      <trkpt lat="44.81205" lon="1.60478">
        <ele>266.46</ele>
        <time>2019-10-30T09:25:31.001Z</time>
      </trkpt>
      <trkpt lat="44.81252" lon="1.60425">
        <ele>271.841</ele>
        <time>2019-10-30T09:26:01.001Z</time>
      </trkpt>
      <trkpt lat="44.81308" lon="1.60368">
        <ele>272.979</ele>
        <time>2019-10-30T09:26:34.001Z</time>
      </trkpt>
      <trkpt lat="44.8136" lon="1.60315">
        <ele>278.844</ele>
        <time>2019-10-30T09:27:04.001Z</time>
      </trkpt>
      <trkpt lat="44.81427" lon="1.60278">
        <ele>281.306</ele>
        <time>2019-10-30T09:27:37.001Z</time>
      </trkpt>
      <trkpt lat="44.81488" lon="1.60261">
        <ele>284.33</ele>
        <time>2019-10-30T09:28:07.001Z</time>
      </trkpt>
      <trkpt lat="44.81546" lon="1.60243">
        <ele>288.388</ele>
        <time>2019-10-30T09:28:37.001Z</time>
      </trkpt>
      <trkpt lat="44.81614" lon="1.60234">
        <ele>289.641</ele>
        <time>2019-10-30T09:29:10.001Z</time>
      </trkpt>
      <trkpt lat="44.81694" lon="1.60244">
        <ele>291.053</ele>
        <time>2019-10-30T09:29:40.001Z</time>
      </trkpt>
      <trkpt lat="44.81776" lon="1.60258">
        <ele>294.803</ele>
        <time>2019-10-30T09:30:13.001Z</time>
      </trkpt>
      <trkpt lat="44.81897" lon="1.60325">
        <ele>290.368</ele>
        <time>2019-10-30T09:30:43.001Z</time>
      </trkpt>
      <trkpt lat="44.8204" lon="1.60411">
        <ele>289.18</ele>
        <time>2019-10-30T09:31:13.001Z</time>
      </trkpt>
      <trkpt lat="44.82157" lon="1.60292">
        <ele>292.831</ele>
        <time>2019-10-30T09:31:46.001Z</time>
      </trkpt>
      <trkpt lat="44.82199" lon="1.60213">
        <ele>296.724</ele>
        <time>2019-10-30T09:32:16Z</time>
      </trkpt>
      <trkpt lat="44.82247" lon="1.60117">
        <ele>306.808</ele>
        <time>2019-10-30T09:32:49.001Z</time>
      </trkpt>
      <trkpt lat="44.82304" lon="1.60042">
        <ele>307.72</ele>
        <time>2019-10-30T09:33:19.001Z</time>
      </trkpt>
      <trkpt lat="44.82369" lon="1.60024">
        <ele>308.334</ele>
        <time>2019-10-30T09:33:49.001Z</time>
      </trkpt>
      <trkpt lat="44.82446" lon="1.59995">
        <ele>311.949</ele>
        <time>2019-10-30T09:34:22.001Z</time>
      </trkpt>
      <trkpt lat="44.82514" lon="1.59933">
        <ele>312.237</ele>
        <time>2019-10-30T09:34:52.001Z</time>
      </trkpt>
      <trkpt lat="44.82539" lon="1.59795">
        <ele>314.121</ele>
        <time>2019-10-30T09:35:25.001Z</time>
      </trkpt>
      <trkpt lat="44.82578" lon="1.59706">
        <ele>317.49</ele>
        <time>2019-10-30T09:35:55.001Z</time>
      </trkpt>
      <trkpt lat="44.82637" lon="1.59621">
        <ele>322.663</ele>
        <time>2019-10-30T09:36:28.001Z</time>
      </trkpt>
      <trkpt lat="44.8267" lon="1.59414">
        <ele>315.626</ele>
        <time>2019-10-30T09:36:58.001Z</time>
      </trkpt>
      <trkpt lat="44.82548" lon="1.59167">
        <ele>308.411</ele>
        <time>2019-10-30T09:37:28.001Z</time>
      </trkpt>
      <trkpt lat="44.82455" lon="1.58887">
        <ele>303.904</ele>
        <time>2019-10-30T09:38:01.001Z</time>
      </trkpt>
      <trkpt lat="44.82425" lon="1.58749">
        <ele>304.031</ele>
        <time>2019-10-30T09:38:31.001Z</time>
      </trkpt>
      <trkpt lat="44.82273" lon="1.58491">
        <ele>299.521</ele>
        <time>2019-10-30T09:39:04.001Z</time>
      </trkpt>
      <trkpt lat="44.82169" lon="1.58098">
        <ele>282.82</ele>
        <time>2019-10-30T09:39:34.001Z</time>
      </trkpt>
      <trkpt lat="44.82229" lon="1.57769">
        <ele>269.809</ele>
        <time>2019-10-30T09:40:04.001Z</time>
      </trkpt>
      <trkpt lat="44.82329" lon="1.5751">
        <ele>267.774</ele>
        <time>2019-10-30T09:40:37.001Z</time>
      </trkpt>
      <trkpt lat="44.82468" lon="1.57169">
        <ele>257.933</ele>
        <time>2019-10-30T09:41:07.001Z</time>
      </trkpt>
      <trkpt lat="44.82684" lon="1.56923">
        <ele>248.605</ele>
        <time>2019-10-30T09:41:40.001Z</time>
      </trkpt>
      <trkpt lat="44.82958" lon="1.56711">
        <ele>241.132</ele>
        <time>2019-10-30T09:42:10.001Z</time>
      </trkpt>
      <trkpt lat="44.8316" lon="1.56551">
        <ele>236.242</ele>
        <time>2019-10-30T09:42:40.001Z</time>
      </trkpt>
      <trkpt lat="44.83317" lon="1.56345">
        <ele>231.768</ele>
        <time>2019-10-30T09:43:13.001Z</time>
      </trkpt>
      <trkpt lat="44.83499" lon="1.56031">
        <ele>218.055</ele>
        <time>2019-10-30T09:43:43.001Z</time>
      </trkpt>
      <trkpt lat="44.83824" lon="1.55909">
        <ele>204.72</ele>
        <time>2019-10-30T09:44:16Z</time>
      </trkpt>
      <trkpt lat="44.8411" lon="1.55786">
        <ele>179.124</ele>
        <time>2019-10-30T09:44:46.001Z</time>
      </trkpt>
      <trkpt lat="44.84263" lon="1.55668">
        <ele>155.736</ele>
        <time>2019-10-30T09:45:19.001Z</time>
      </trkpt>
      <trkpt lat="44.84248" lon="1.55597">
        <ele>151.905</ele>
        <time>2019-10-30T10:09:43.001Z</time>
      </trkpt>
      <trkpt lat="44.84296" lon="1.55296">
        <ele>137.847</ele>
        <time>2019-10-30T10:10:13.001Z</time>
      </trkpt>
      <trkpt lat="44.84365" lon="1.55587">
        <ele>113.269</ele>
        <time>2019-10-30T10:10:46.001Z</time>
      </trkpt>
      <trkpt lat="44.84404" lon="1.55671">
        <ele>102.012</ele>
        <time>2019-10-30T10:12:34.001Z</time>
      </trkpt>
      <trkpt lat="44.84445" lon="1.55688">
        <ele>107.236</ele>
        <time>2019-10-30T10:19:55.001Z</time>
      </trkpt>
      <trkpt lat="44.8457" lon="1.55767">
        <ele>107.015</ele>
        <time>2019-10-30T10:20:25.001Z</time>
      </trkpt>
      <trkpt lat="44.84621" lon="1.55938">
        <ele>106.742</ele>
        <time>2019-10-30T10:20:55.001Z</time>
      </trkpt>
      <trkpt lat="44.84696" lon="1.56142">
        <ele>109.899</ele>
        <time>2019-10-30T10:21:28.001Z</time>
      </trkpt>
      <trkpt lat="44.84732" lon="1.56256">
        <ele>112.581</ele>
        <time>2019-10-30T10:21:58.001Z</time>
      </trkpt>
      <trkpt lat="44.84805" lon="1.56317">
        <ele>116.159</ele>
        <time>2019-10-30T10:22:31.001Z</time>
      </trkpt>
      <trkpt lat="44.84984" lon="1.56392">
        <ele>111.929</ele>
        <time>2019-10-30T10:23:01.001Z</time>
      </trkpt>
      <trkpt lat="44.85141" lon="1.56496">
        <ele>105.743</ele>
        <time>2019-10-30T10:23:31.001Z</time>
      </trkpt>
      <trkpt lat="44.85296" lon="1.56566">
        <ele>105.94</ele>
        <time>2019-10-30T10:24:04.001Z</time>
      </trkpt>
      <trkpt lat="44.85454" lon="1.5659">
        <ele>107.241</ele>
        <time>2019-10-30T10:24:34.001Z</time>
      </trkpt>
      <trkpt lat="44.85609" lon="1.5661">
        <ele>110.153</ele>
        <time>2019-10-30T10:25:07.001Z</time>
      </trkpt>
      <trkpt lat="44.85776" lon="1.56624">
        <ele>110.875</ele>
        <time>2019-10-30T10:25:37.001Z</time>
      </trkpt>
      <trkpt lat="44.85943" lon="1.5661">
        <ele>106.541</ele>
        <time>2019-10-30T10:26:07.001Z</time>
      </trkpt>
      <trkpt lat="44.86096" lon="1.5649">
        <ele>106.646</ele>
        <time>2019-10-30T10:26:40.001Z</time>
      </trkpt>
      <trkpt lat="44.86226" lon="1.56391">
        <ele>107.869</ele>
        <time>2019-10-30T10:27:10.001Z</time>
      </trkpt>
      <trkpt lat="44.86342" lon="1.56234">
        <ele>105.526</ele>
        <time>2019-10-30T10:27:43.001Z</time>
      </trkpt>
      <trkpt lat="44.86449" lon="1.56183">
        <ele>110.728</ele>
        <time>2019-10-30T10:28:13.001Z</time>
      </trkpt>
      <trkpt lat="44.86599" lon="1.56244">
        <ele>112.708</ele>
        <time>2019-10-30T10:28:46.001Z</time>
      </trkpt>
      <trkpt lat="44.86719" lon="1.56421">
        <ele>113.335</ele>
        <time>2019-10-30T10:29:16Z</time>
      </trkpt>
      <trkpt lat="44.86806" lon="1.56612">
        <ele>118.879</ele>
        <time>2019-10-30T10:29:46.001Z</time>
      </trkpt>
      <trkpt lat="44.86849" lon="1.56861">
        <ele>108.329</ele>
        <time>2019-10-30T10:30:19.001Z</time>
      </trkpt>
      <trkpt lat="44.86842" lon="1.57051">
        <ele>108.092</ele>
        <time>2019-10-30T10:30:49.001Z</time>
      </trkpt>
      <trkpt lat="44.86845" lon="1.5728">
        <ele>116.805</ele>
        <time>2019-10-30T10:31:22.001Z</time>
      </trkpt>
      <trkpt lat="44.86849" lon="1.5749">
        <ele>120.895</ele>
        <time>2019-10-30T10:31:52.001Z</time>
      </trkpt>
      <trkpt lat="44.8679" lon="1.57682">
        <ele>112.777</ele>
        <time>2019-10-30T10:32:22.001Z</time>
      </trkpt>
      <trkpt lat="44.86708" lon="1.57929">
        <ele>106.288</ele>
        <time>2019-10-30T10:32:55.001Z</time>
      </trkpt>
      <trkpt lat="44.86791" lon="1.58105">
        <ele>110.611</ele>
        <time>2019-10-30T10:33:25.001Z</time>
      </trkpt>
      <trkpt lat="44.86946" lon="1.58214">
        <ele>104.492</ele>
        <time>2019-10-30T10:33:58.001Z</time>
      </trkpt>
      <trkpt lat="44.87059" lon="1.58246">
        <ele>108.094</ele>
        <time>2019-10-30T10:34:28.001Z</time>
      </trkpt>
      <trkpt lat="44.87138" lon="1.58178">
        <ele>113.748</ele>
        <time>2019-10-30T10:34:58.001Z</time>
      </trkpt>
      <trkpt lat="44.87253" lon="1.58145">
        <ele>115.017</ele>
        <time>2019-10-30T10:35:31.001Z</time>
      </trkpt>
      <trkpt lat="44.87355" lon="1.58235">
        <ele>112.815</ele>
        <time>2019-10-30T10:36:01.001Z</time>
      </trkpt>
      <trkpt lat="44.87435" lon="1.58089">
        <ele>113.084</ele>
        <time>2019-10-30T10:36:34.001Z</time>
      </trkpt>
      <trkpt lat="44.87507" lon="1.57938">
        <ele>112.897</ele>
        <time>2019-10-30T10:37:04.001Z</time>
      </trkpt>
      <trkpt lat="44.87617" lon="1.57754">
        <ele>108.326</ele>
        <time>2019-10-30T10:37:34.001Z</time>
      </trkpt>
      <trkpt lat="44.87678" lon="1.57542">
        <ele>107.688</ele>
        <time>2019-10-30T10:38:07.001Z</time>
      </trkpt>
      <trkpt lat="44.87683" lon="1.57322">
        <ele>107.676</ele>
        <time>2019-10-30T10:38:37.001Z</time>
      </trkpt>
      <trkpt lat="44.87772" lon="1.57085">
        <ele>108.578</ele>
        <time>2019-10-30T10:39:10.001Z</time>
      </trkpt>
      <trkpt lat="44.87844" lon="1.56891">
        <ele>116.344</ele>
        <time>2019-10-30T10:39:40.001Z</time>
      </trkpt>
      <trkpt lat="44.87921" lon="1.56683">
        <ele>112.983</ele>
        <time>2019-10-30T10:40:13.001Z</time>
      </trkpt>
      <trkpt lat="44.88005" lon="1.56473">
        <ele>110.687</ele>
        <time>2019-10-30T10:40:43.001Z</time>
      </trkpt>
      <trkpt lat="44.88068" lon="1.56301">
        <ele>111.082</ele>
        <time>2019-10-30T10:41:13.001Z</time>
      </trkpt>
      <trkpt lat="44.88113" lon="1.56181">
        <ele>114.417</ele>
        <time>2019-10-30T10:41:46.001Z</time>
      </trkpt>
      <trkpt lat="44.88151" lon="1.56106">
        <ele>118.93</ele>
        <time>2019-10-30T10:42:16Z</time>
      </trkpt>
      <trkpt lat="44.88176" lon="1.56185">
        <ele>120.671</ele>
        <time>2019-10-30T10:42:49.001Z</time>
      </trkpt>
      <trkpt lat="44.88199" lon="1.56274">
        <ele>124.306</ele>
        <time>2019-10-30T10:43:19.001Z</time>
      </trkpt>
      <trkpt lat="44.882" lon="1.56367">
        <ele>130.891</ele>
        <time>2019-10-30T10:43:49.001Z</time>
      </trkpt>
      <trkpt lat="44.88187" lon="1.56464">
        <ele>136.244</ele>
        <time>2019-10-30T10:44:22.001Z</time>
      </trkpt>
      <trkpt lat="44.88214" lon="1.56544">
        <ele>138.595</ele>
        <time>2019-10-30T10:44:52.001Z</time>
      </trkpt>
      <trkpt lat="44.88288" lon="1.5655">
        <ele>141.642</ele>
        <time>2019-10-30T10:45:25.001Z</time>
      </trkpt>
      <trkpt lat="44.88353" lon="1.56528">
        <ele>144.296</ele>
        <time>2019-10-30T10:45:55.001Z</time>
      </trkpt>
      <trkpt lat="44.88414" lon="1.56496">
        <ele>148.962</ele>
        <time>2019-10-30T10:46:25.001Z</time>
      </trkpt>
      <trkpt lat="44.88469" lon="1.56439">
        <ele>150.066</ele>
        <time>2019-10-30T10:46:58.001Z</time>
      </trkpt>
      <trkpt lat="44.88523" lon="1.56387">
        <ele>159.505</ele>
        <time>2019-10-30T10:47:28.001Z</time>
      </trkpt>
      <trkpt lat="44.88578" lon="1.56325">
        <ele>164.42</ele>
        <time>2019-10-30T10:48:01.001Z</time>
      </trkpt>
      <trkpt lat="44.88617" lon="1.5625">
        <ele>169.447</ele>
        <time>2019-10-30T10:48:31.001Z</time>
      </trkpt>
      <trkpt lat="44.88663" lon="1.5617">
        <ele>173.178</ele>
        <time>2019-10-30T10:49:04.001Z</time>
      </trkpt>
      <trkpt lat="44.88702" lon="1.56099">
        <ele>177.533</ele>
        <time>2019-10-30T10:49:34.001Z</time>
      </trkpt>
      <trkpt lat="44.88732" lon="1.56023">
        <ele>182.779</ele>
        <time>2019-10-30T10:50:04.001Z</time>
      </trkpt>
      <trkpt lat="44.88769" lon="1.55942">
        <ele>180.713</ele>
        <time>2019-10-30T10:50:37.001Z</time>
      </trkpt>
      <trkpt lat="44.8879" lon="1.55851">
        <ele>181.523</ele>
        <time>2019-10-30T10:51:07.001Z</time>
      </trkpt>
      <trkpt lat="44.88814" lon="1.5576">
        <ele>186.472</ele>
        <time>2019-10-30T10:51:40.001Z</time>
      </trkpt>
      <trkpt lat="44.88834" lon="1.55664">
        <ele>188.239</ele>
        <time>2019-10-30T10:52:10.001Z</time>
      </trkpt>
      <trkpt lat="44.88835" lon="1.55576">
        <ele>193.129</ele>
        <time>2019-10-30T10:52:40.001Z</time>
      </trkpt>
      <trkpt lat="44.88877" lon="1.55502">
        <ele>197.55</ele>
        <time>2019-10-30T10:53:13.001Z</time>
      </trkpt>
      <trkpt lat="44.88932" lon="1.55453">
        <ele>205.461</ele>
        <time>2019-10-30T10:53:43.001Z</time>
      </trkpt>
      <trkpt lat="44.88992" lon="1.55419">
        <ele>214.936</ele>
        <time>2019-10-30T10:54:16Z</time>
      </trkpt>
      <trkpt lat="44.89029" lon="1.55343">
        <ele>212.765</ele>
        <time>2019-10-30T10:54:46.001Z</time>
      </trkpt>
      <trkpt lat="44.8904" lon="1.55256">
        <ele>210.914</ele>
        <time>2019-10-30T10:55:16Z</time>
      </trkpt>
      <trkpt lat="44.89067" lon="1.55172">
        <ele>215.348</ele>
        <time>2019-10-30T10:55:49.001Z</time>
      </trkpt>
      <trkpt lat="44.89105" lon="1.551">
        <ele>217.269</ele>
        <time>2019-10-30T10:56:19.001Z</time>
      </trkpt>
      <trkpt lat="44.89131" lon="1.55014">
        <ele>221.397</ele>
        <time>2019-10-30T10:56:52.001Z</time>
      </trkpt>
      <trkpt lat="44.89133" lon="1.54921">
        <ele>226.821</ele>
        <time>2019-10-30T10:57:22.002Z</time>
      </trkpt>
      <trkpt lat="44.8913" lon="1.5482">
        <ele>228.623</ele>
        <time>2019-10-30T10:57:52.001Z</time>
      </trkpt>
      <trkpt lat="44.89155" lon="1.54721">
        <ele>226.509</ele>
        <time>2019-10-30T10:58:25.001Z</time>
      </trkpt>
      <trkpt lat="44.8918" lon="1.54635">
        <ele>234.742</ele>
        <time>2019-10-30T10:58:55.001Z</time>
      </trkpt>
      <trkpt lat="44.89232" lon="1.54553">
        <ele>234.031</ele>
        <time>2019-10-30T10:59:28.001Z</time>
      </trkpt>
      <trkpt lat="44.89353" lon="1.54536">
        <ele>232.415</ele>
        <time>2019-10-30T10:59:58.001Z</time>
      </trkpt>
      <trkpt lat="44.89545" lon="1.54516">
        <ele>229.448</ele>
        <time>2019-10-30T11:00:31.001Z</time>
      </trkpt>
      <trkpt lat="44.89742" lon="1.5449">
        <ele>220.268</ele>
        <time>2019-10-30T11:01:01.001Z</time>
      </trkpt>
      <trkpt lat="44.89926" lon="1.5436">
        <ele>216.686</ele>
        <time>2019-10-30T11:01:31.001Z</time>
      </trkpt>
      <trkpt lat="44.901" lon="1.54225">
        <ele>216.734</ele>
        <time>2019-10-30T11:02:04.001Z</time>
      </trkpt>
      <trkpt lat="44.90197" lon="1.53998">
        <ele>218.588</ele>
        <time>2019-10-30T11:02:34.001Z</time>
      </trkpt>
      <trkpt lat="44.9029" lon="1.53777">
        <ele>218.4</ele>
        <time>2019-10-30T11:03:07.001Z</time>
      </trkpt>
      <trkpt lat="44.90374" lon="1.53621">
        <ele>223.906</ele>
        <time>2019-10-30T11:03:37.001Z</time>
      </trkpt>
      <trkpt lat="44.90487" lon="1.53511">
        <ele>226.785</ele>
        <time>2019-10-30T11:04:07.001Z</time>
      </trkpt>
      <trkpt lat="44.90601" lon="1.53422">
        <ele>224.842</ele>
        <time>2019-10-30T11:04:40.001Z</time>
      </trkpt>
      <trkpt lat="44.90632" lon="1.53231">
        <ele>225.512</ele>
        <time>2019-10-30T11:05:10.001Z</time>
      </trkpt>
      <trkpt lat="44.90654" lon="1.53005">
        <ele>221.15</ele>
        <time>2019-10-30T11:05:43.001Z</time>
      </trkpt>
      <trkpt lat="44.90695" lon="1.52849">
        <ele>222.962</ele>
        <time>2019-10-30T11:06:13.001Z</time>
      </trkpt>
      <trkpt lat="44.90739" lon="1.52739">
        <ele>226.384</ele>
        <time>2019-10-30T11:06:43.001Z</time>
      </trkpt>
      <trkpt lat="44.90804" lon="1.5264">
        <ele>232.427</ele>
        <time>2019-10-30T11:07:16Z</time>
      </trkpt>
      <trkpt lat="44.90863" lon="1.52561">
        <ele>232.036</ele>
        <time>2019-10-30T11:07:46.001Z</time>
      </trkpt>
      <trkpt lat="44.90926" lon="1.52478">
        <ele>238.979</ele>
        <time>2019-10-30T11:08:19.001Z</time>
      </trkpt>
      <trkpt lat="44.90977" lon="1.52389">
        <ele>241.716</ele>
        <time>2019-10-30T11:08:49.001Z</time>
      </trkpt>
      <trkpt lat="44.91008" lon="1.52268">
        <ele>249.059</ele>
        <time>2019-10-30T11:09:22.001Z</time>
      </trkpt>
      <trkpt lat="44.91034" lon="1.52128">
        <ele>249.713</ele>
        <time>2019-10-30T11:09:52.001Z</time>
      </trkpt>
      <trkpt lat="44.91091" lon="1.51928">
        <ele>246.532</ele>
        <time>2019-10-30T11:10:22.001Z</time>
      </trkpt>
      <trkpt lat="44.91293" lon="1.5164">
        <ele>231.736</ele>
        <time>2019-10-30T11:10:55.001Z</time>
      </trkpt>
      <trkpt lat="44.91406" lon="1.51385">
        <ele>214.388</ele>
        <time>2019-10-30T11:11:25.001Z</time>
      </trkpt>
      <trkpt lat="44.91086" lon="1.51251">
        <ele>192.294</ele>
        <time>2019-10-30T11:11:58.001Z</time>
      </trkpt>
      <trkpt lat="44.90946" lon="1.51346">
        <ele>179.749</ele>
        <time>2019-10-30T11:12:28.001Z</time>
      </trkpt>
      <trkpt lat="44.90676" lon="1.51151">
        <ele>169.653</ele>
        <time>2019-10-30T11:12:58.001Z</time>
      </trkpt>
      <trkpt lat="44.908" lon="1.50744">
        <ele>154.882</ele>
        <time>2019-10-30T11:13:31.001Z</time>
      </trkpt>
      <trkpt lat="44.90958" lon="1.50374">
        <ele>141.299</ele>
        <time>2019-10-30T11:14:01.001Z</time>
      </trkpt>
      <trkpt lat="44.91043" lon="1.50054">
        <ele>132.295</ele>
        <time>2019-10-30T11:14:34.001Z</time>
      </trkpt>
      <trkpt lat="44.90919" lon="1.4971">
        <ele>117.752</ele>
        <time>2019-10-30T11:15:04.001Z</time>
      </trkpt>
      <trkpt lat="44.90768" lon="1.49461">
        <ele>109.853</ele>
        <time>2019-10-30T11:15:34.001Z</time>
      </trkpt>
      <trkpt lat="44.90705" lon="1.49205">
        <ele>106.424</ele>
        <time>2019-10-30T11:16:07.001Z</time>
      </trkpt>
      <trkpt lat="44.90644" lon="1.48959">
        <ele>108.211</ele>
        <time>2019-10-30T11:16:37.001Z</time>
      </trkpt>
      <trkpt lat="44.90574" lon="1.48704">
        <ele>103.988</ele>
        <time>2019-10-30T11:17:10.001Z</time>
      </trkpt>
      <trkpt lat="44.90463" lon="1.48489">
        <ele>101.985</ele>
        <time>2019-10-30T11:17:40.001Z</time>
      </trkpt>
      <trkpt lat="44.90368" lon="1.48261">
        <ele>101.715</ele>
        <time>2019-10-30T11:18:10.001Z</time>
      </trkpt>
      <trkpt lat="44.90312" lon="1.47992">
        <ele>102.662</ele>
        <time>2019-10-30T11:18:43.001Z</time>
      </trkpt>
      <trkpt lat="44.90199" lon="1.47795">
        <ele>100.604</ele>
        <time>2019-10-30T11:19:13.001Z</time>
      </trkpt>
      <trkpt lat="44.90088" lon="1.47637">
        <ele>100.64</ele>
        <time>2019-10-30T11:19:46.001Z</time>
      </trkpt>
      <trkpt lat="44.90066" lon="1.47464">
        <ele>103.708</ele>
        <time>2019-10-30T11:20:16Z</time>
      </trkpt>
      <trkpt lat="44.9017" lon="1.47545">
        <ele>100.65</ele>
        <time>2019-10-30T11:20:49.001Z</time>
      </trkpt>
      <trkpt lat="44.90295" lon="1.47594">
        <ele>101.881</ele>
        <time>2019-10-30T11:21:19.001Z</time>
      </trkpt>
      <trkpt lat="44.90445" lon="1.47591">
        <ele>99.272</ele>
        <time>2019-10-30T11:21:49.001Z</time>
      </trkpt>
      <trkpt lat="44.90563" lon="1.4747">
        <ele>104.343</ele>
        <time>2019-10-30T11:22:22.001Z</time>
      </trkpt>
      <trkpt lat="44.90633" lon="1.47376">
        <ele>108.338</ele>
        <time>2019-10-30T11:22:52.001Z</time>
      </trkpt>
      <trkpt lat="44.9072" lon="1.47308">
        <ele>112.582</ele>
        <time>2019-10-30T11:23:25.001Z</time>
      </trkpt>
      <trkpt lat="44.90825" lon="1.47215">
        <ele>115.5</ele>
        <time>2019-10-30T11:23:55.001Z</time>
      </trkpt>
      <trkpt lat="44.90963" lon="1.47196">
        <ele>116.497</ele>
        <time>2019-10-30T11:24:25.001Z</time>
      </trkpt>
      <trkpt lat="44.91147" lon="1.47191">
        <ele>110.789</ele>
        <time>2019-10-30T11:24:58.001Z</time>
      </trkpt>
      <trkpt lat="44.91287" lon="1.47067">
        <ele>109.483</ele>
        <time>2019-10-30T11:25:28.001Z</time>
      </trkpt>
      <trkpt lat="44.91417" lon="1.46936">
        <ele>111.069</ele>
        <time>2019-10-30T11:26:01.001Z</time>
      </trkpt>
      <trkpt lat="44.91492" lon="1.46849">
        <ele>114.664</ele>
        <time>2019-10-30T11:26:31.001Z</time>
      </trkpt>
      <trkpt lat="44.9155" lon="1.46777">
        <ele>113.79</ele>
        <time>2019-10-30T11:27:01.001Z</time>
      </trkpt>
      <trkpt lat="44.91616" lon="1.4666">
        <ele>118.082</ele>
        <time>2019-10-30T11:27:34.001Z</time>
      </trkpt>
      <trkpt lat="44.91668" lon="1.4651">
        <ele>118.754</ele>
        <time>2019-10-30T11:28:04.001Z</time>
      </trkpt>
      <trkpt lat="44.91814" lon="1.46339">
        <ele>116.466</ele>
        <time>2019-10-30T11:28:37.001Z</time>
      </trkpt>
      <trkpt lat="44.91977" lon="1.46337">
        <ele>113.555</ele>
        <time>2019-10-30T11:29:07.001Z</time>
      </trkpt>
      <trkpt lat="44.92074" lon="1.46188">
        <ele>112.006</ele>
        <time>2019-10-30T11:29:37.001Z</time>
      </trkpt>
      <trkpt lat="44.92149" lon="1.45973">
        <ele>116.57</ele>
        <time>2019-10-30T11:30:10.001Z</time>
      </trkpt>
      <trkpt lat="44.9225" lon="1.45842">
        <ele>111.933</ele>
        <time>2019-10-30T11:30:40.001Z</time>
      </trkpt>
      <trkpt lat="44.92372" lon="1.4574">
        <ele>112.084</ele>
        <time>2019-10-30T11:31:13.001Z</time>
      </trkpt>
      <trkpt lat="44.92465" lon="1.45618">
        <ele>120.338</ele>
        <time>2019-10-30T11:31:43.001Z</time>
      </trkpt>
      <trkpt lat="44.9251" lon="1.45442">
        <ele>120.734</ele>
        <time>2019-10-30T11:32:16Z</time>
      </trkpt>
      <trkpt lat="44.92572" lon="1.45212">
        <ele>119.651</ele>
        <time>2019-10-30T11:32:46.001Z</time>
      </trkpt>
      <trkpt lat="44.9269" lon="1.45081">
        <ele>113.932</ele>
        <time>2019-10-30T11:33:16Z</time>
      </trkpt>
      <trkpt lat="44.92843" lon="1.44969">
        <ele>115.399</ele>
        <time>2019-10-30T11:33:49.001Z</time>
      </trkpt>
      <trkpt lat="44.92882" lon="1.44823">
        <ele>116.934</ele>
        <time>2019-10-30T11:34:19.001Z</time>
      </trkpt>
      <trkpt lat="44.92954" lon="1.44673">
        <ele>123.896</ele>
        <time>2019-10-30T11:34:52.001Z</time>
      </trkpt>
      <trkpt lat="44.93024" lon="1.4447">
        <ele>126.52</ele>
        <time>2019-10-30T11:35:22.001Z</time>
      </trkpt>
      <trkpt lat="44.93104" lon="1.44261">
        <ele>122.045</ele>
        <time>2019-10-30T11:35:52.001Z</time>
      </trkpt>
      <trkpt lat="44.93168" lon="1.44052">
        <ele>120.956</ele>
        <time>2019-10-30T11:36:25.001Z</time>
      </trkpt>
      <trkpt lat="44.93233" lon="1.43868">
        <ele>120.769</ele>
        <time>2019-10-30T11:36:55.001Z</time>
      </trkpt>
      <trkpt lat="44.93367" lon="1.43839">
        <ele>124.498</ele>
        <time>2019-10-30T11:37:28.001Z</time>
      </trkpt>
      <trkpt lat="44.93496" lon="1.4381">
        <ele>119.73</ele>
        <time>2019-10-30T11:37:58.001Z</time>
      </trkpt>
      <trkpt lat="44.9362" lon="1.43785">
        <ele>125.488</ele>
        <time>2019-10-30T11:38:28.001Z</time>
      </trkpt>
      <trkpt lat="44.93746" lon="1.4369">
        <ele>124.922</ele>
        <time>2019-10-30T11:39:01.001Z</time>
      </trkpt>
      <trkpt lat="44.93863" lon="1.43591">
        <ele>128.279</ele>
        <time>2019-10-30T11:39:31.001Z</time>
      </trkpt>
      <trkpt lat="44.93845" lon="1.43404">
        <ele>131.341</ele>
        <time>2019-10-30T11:40:04.001Z</time>
      </trkpt>
      <trkpt lat="44.93841" lon="1.4325">
        <ele>134.466</ele>
        <time>2019-10-30T11:40:34.001Z</time>
      </trkpt>
      <trkpt lat="44.93874" lon="1.43086">
        <ele>137.557</ele>
        <time>2019-10-30T11:41:07.001Z</time>
      </trkpt>
      <trkpt lat="44.93882" lon="1.42928">
        <ele>143.88</ele>
        <time>2019-10-30T11:41:37.001Z</time>
      </trkpt>
      <trkpt lat="44.9389" lon="1.42743">
        <ele>137.719</ele>
        <time>2019-10-30T11:42:07.001Z</time>
      </trkpt>
      <trkpt lat="44.93907" lon="1.42562">
        <ele>135.314</ele>
        <time>2019-10-30T11:42:40.001Z</time>
      </trkpt>
      <trkpt lat="44.93941" lon="1.42395">
        <ele>134.639</ele>
        <time>2019-10-30T11:43:10.001Z</time>
      </trkpt>
      <trkpt lat="44.93959" lon="1.4217">
        <ele>136.888</ele>
        <time>2019-10-30T11:43:43.001Z</time>
      </trkpt>
      <trkpt lat="44.93965" lon="1.41946">
        <ele>135.83</ele>
        <time>2019-10-30T11:44:13.001Z</time>
      </trkpt>
      <trkpt lat="44.94003" lon="1.41741">
        <ele>136.877</ele>
        <time>2019-10-30T11:44:43.001Z</time>
      </trkpt>
      <trkpt lat="44.94076" lon="1.41556">
        <ele>136.842</ele>
        <time>2019-10-30T11:45:16Z</time>
      </trkpt>
      <trkpt lat="44.94176" lon="1.41455">
        <ele>131.62</ele>
        <time>2019-10-30T11:45:46.001Z</time>
      </trkpt>
      <trkpt lat="44.94271" lon="1.41311">
        <ele>133.615</ele>
        <time>2019-10-30T11:46:19.001Z</time>
      </trkpt>
      <trkpt lat="44.9432" lon="1.41152">
        <ele>138.804</ele>
        <time>2019-10-30T11:46:49.001Z</time>
      </trkpt>
      <trkpt lat="44.94368" lon="1.40964">
        <ele>141.312</ele>
        <time>2019-10-30T11:47:19.001Z</time>
      </trkpt>
      <trkpt lat="44.94418" lon="1.40751">
        <ele>144.263</ele>
        <time>2019-10-30T11:47:52.001Z</time>
      </trkpt>
      <trkpt lat="44.94484" lon="1.40554">
        <ele>140.626</ele>
        <time>2019-10-30T11:48:22.001Z</time>
      </trkpt>
      <trkpt lat="44.94493" lon="1.40379">
        <ele>145.338</ele>
        <time>2019-10-30T11:48:55.001Z</time>
      </trkpt>
      <trkpt lat="44.94511" lon="1.40244">
        <ele>145.91</ele>
        <time>2019-10-30T11:49:25.001Z</time>
      </trkpt>
      <trkpt lat="44.94565" lon="1.40128">
        <ele>141.366</ele>
        <time>2019-10-30T11:49:55.001Z</time>
      </trkpt>
      <trkpt lat="44.94602" lon="1.39948">
        <ele>144.916</ele>
        <time>2019-10-30T11:50:28.001Z</time>
      </trkpt>
      <trkpt lat="44.94695" lon="1.39819">
        <ele>147.109</ele>
        <time>2019-10-30T11:50:58.001Z</time>
      </trkpt>
      <trkpt lat="44.9485" lon="1.39765">
        <ele>147.763</ele>
        <time>2019-10-30T11:51:31.001Z</time>
      </trkpt>
      <trkpt lat="44.94996" lon="1.39735">
        <ele>146.306</ele>
        <time>2019-10-30T11:52:01.001Z</time>
      </trkpt>
      <trkpt lat="44.95133" lon="1.3961">
        <ele>145.148</ele>
        <time>2019-10-30T11:52:34.001Z</time>
      </trkpt>
      <trkpt lat="44.95238" lon="1.39465">
        <ele>142.631</ele>
        <time>2019-10-30T11:53:04.001Z</time>
      </trkpt>
      <trkpt lat="44.95313" lon="1.39295">
        <ele>146.533</ele>
        <time>2019-10-30T11:53:34.001Z</time>
      </trkpt>
      <trkpt lat="44.9537" lon="1.39095">
        <ele>148.23</ele>
        <time>2019-10-30T11:54:07.001Z</time>
      </trkpt>
      <trkpt lat="44.95392" lon="1.38908">
        <ele>149.046</ele>
        <time>2019-10-30T11:54:37.001Z</time>
      </trkpt>
      <trkpt lat="44.9538" lon="1.38694">
        <ele>150.704</ele>
        <time>2019-10-30T11:55:10.001Z</time>
      </trkpt>
      <trkpt lat="44.954" lon="1.38533">
        <ele>152.863</ele>
        <time>2019-10-30T11:55:40.001Z</time>
      </trkpt>
      <trkpt lat="44.9545" lon="1.38411">
        <ele>156.307</ele>
        <time>2019-10-30T11:56:10.001Z</time>
      </trkpt>
      <trkpt lat="44.95476" lon="1.38267">
        <ele>158.053</ele>
        <time>2019-10-30T11:56:43.001Z</time>
      </trkpt>
      <trkpt lat="44.95486" lon="1.38105">
        <ele>157.38</ele>
        <time>2019-10-30T11:57:13.001Z</time>
      </trkpt>
      <trkpt lat="44.95502" lon="1.37891">
        <ele>157.569</ele>
        <time>2019-10-30T11:57:46.001Z</time>
      </trkpt>
      <trkpt lat="44.95546" lon="1.37698">
        <ele>159.351</ele>
        <time>2019-10-30T11:58:16Z</time>
      </trkpt>
      <trkpt lat="44.9564" lon="1.37549">
        <ele>162.477</ele>
        <time>2019-10-30T11:58:46.001Z</time>
      </trkpt>
      <trkpt lat="44.95791" lon="1.37477">
        <ele>158.685</ele>
        <time>2019-10-30T11:59:19.001Z</time>
      </trkpt>
      <trkpt lat="44.95927" lon="1.37476">
        <ele>160.918</ele>
        <time>2019-10-30T11:59:49.001Z</time>
      </trkpt>
      <trkpt lat="44.96073" lon="1.37508">
        <ele>161.621</ele>
        <time>2019-10-30T12:00:22.001Z</time>
      </trkpt>
      <trkpt lat="44.96208" lon="1.37522">
        <ele>162.757</ele>
        <time>2019-10-30T12:00:52.001Z</time>
      </trkpt>
      <trkpt lat="44.96347" lon="1.37428">
        <ele>165.16</ele>
        <time>2019-10-30T12:01:25.001Z</time>
      </trkpt>
      <trkpt lat="44.96412" lon="1.37253">
        <ele>166.361</ele>
        <time>2019-10-30T12:01:55.001Z</time>
      </trkpt>
      <trkpt lat="44.96457" lon="1.37091">
        <ele>170.927</ele>
        <time>2019-10-30T12:02:25.001Z</time>
      </trkpt>
      <trkpt lat="44.96453" lon="1.369">
        <ele>171.089</ele>
        <time>2019-10-30T12:02:58.001Z</time>
      </trkpt>
      <trkpt lat="44.96499" lon="1.36737">
        <ele>166.695</ele>
        <time>2019-10-30T12:03:28.001Z</time>
      </trkpt>
      <trkpt lat="44.96484" lon="1.36539">
        <ele>168.288</ele>
        <time>2019-10-30T12:04:01.001Z</time>
      </trkpt>
      <trkpt lat="44.96496" lon="1.36354">
        <ele>166.713</ele>
        <time>2019-10-30T12:04:31.001Z</time>
      </trkpt>
      <trkpt lat="44.9653" lon="1.36186">
        <ele>171.377</ele>
        <time>2019-10-30T12:05:01.001Z</time>
      </trkpt>
      <trkpt lat="44.96614" lon="1.36097">
        <ele>170.819</ele>
        <time>2019-10-30T12:05:34.001Z</time>
      </trkpt>
      <trkpt lat="44.9669" lon="1.36004">
        <ele>174.429</ele>
        <time>2019-10-30T12:06:04.001Z</time>
      </trkpt>
      <trkpt lat="44.96763" lon="1.35869">
        <ele>174.197</ele>
        <time>2019-10-30T12:06:37.001Z</time>
      </trkpt>
      <trkpt lat="44.96848" lon="1.35733">
        <ele>177.906</ele>
        <time>2019-10-30T12:07:07.001Z</time>
      </trkpt>
      <trkpt lat="44.96957" lon="1.35618">
        <ele>177.524</ele>
        <time>2019-10-30T12:07:37.001Z</time>
      </trkpt>
      <trkpt lat="44.97054" lon="1.35489">
        <ele>176.214</ele>
        <time>2019-10-30T12:08:10.001Z</time>
      </trkpt>
      <trkpt lat="44.9713" lon="1.3535">
        <ele>177.574</ele>
        <time>2019-10-30T12:08:40.001Z</time>
      </trkpt>
      <trkpt lat="44.97199" lon="1.35149">
        <ele>180.276</ele>
        <time>2019-10-30T12:09:13.001Z</time>
      </trkpt>
      <trkpt lat="44.97264" lon="1.35004">
        <ele>186.517</ele>
        <time>2019-10-30T12:09:43.001Z</time>
      </trkpt>
      <trkpt lat="44.97348" lon="1.34912">
        <ele>187.807</ele>
        <time>2019-10-30T12:10:13.001Z</time>
      </trkpt>
      <trkpt lat="44.97471" lon="1.34829">
        <ele>190.198</ele>
        <time>2019-10-30T12:10:46.001Z</time>
      </trkpt>
      <trkpt lat="44.97594" lon="1.34772">
        <ele>190.504</ele>
        <time>2019-10-30T12:11:16Z</time>
      </trkpt>
      <trkpt lat="44.97724" lon="1.3472">
        <ele>191.905</ele>
        <time>2019-10-30T12:11:49.001Z</time>
      </trkpt>
      <trkpt lat="44.97838" lon="1.34698">
        <ele>193.651</ele>
        <time>2019-10-30T12:12:19.001Z</time>
      </trkpt>
      <trkpt lat="44.97962" lon="1.34609">
        <ele>201.994</ele>
        <time>2019-10-30T12:12:52.001Z</time>
      </trkpt>
      <trkpt lat="44.98082" lon="1.34532">
        <ele>191.234</ele>
        <time>2019-10-30T12:13:22.001Z</time>
      </trkpt>
      <trkpt lat="44.98124" lon="1.34429">
        <ele>188.943</ele>
        <time>2019-10-30T12:14:01.001Z</time>
      </trkpt>
      <trkpt lat="44.98127" lon="1.34376">
        <ele>193.017</ele>
        <time>2019-10-30T12:50:16Z</time>
      </trkpt>
      <trkpt lat="44.98171" lon="1.34259">
        <ele>195.515</ele>
        <time>2019-10-30T12:50:46.001Z</time>
      </trkpt>
      <trkpt lat="44.98219" lon="1.34127">
        <ele>193.147</ele>
        <time>2019-10-30T12:51:19.001Z</time>
      </trkpt>
      <trkpt lat="44.9819" lon="1.34043">
        <ele>197.495</ele>
        <time>2019-10-30T12:51:49.001Z</time>
      </trkpt>
      <trkpt lat="44.98151" lon="1.33928">
        <ele>203.285</ele>
        <time>2019-10-30T12:52:19.001Z</time>
      </trkpt>
      <trkpt lat="44.98128" lon="1.33786">
        <ele>213.856</ele>
        <time>2019-10-30T12:52:52.001Z</time>
      </trkpt>
      <trkpt lat="44.98075" lon="1.33678">
        <ele>211.79</ele>
        <time>2019-10-30T12:53:22.001Z</time>
      </trkpt>
      <trkpt lat="44.98017" lon="1.33565">
        <ele>215.048</ele>
        <time>2019-10-30T12:53:55.001Z</time>
      </trkpt>
      <trkpt lat="44.97965" lon="1.33508">
        <ele>216.558</ele>
        <time>2019-10-30T12:54:25.001Z</time>
      </trkpt>
      <trkpt lat="44.97904" lon="1.3348">
        <ele>214.298</ele>
        <time>2019-10-30T12:54:55.001Z</time>
      </trkpt>
      <trkpt lat="44.97843" lon="1.3343">
        <ele>217.787</ele>
        <time>2019-10-30T12:55:28.001Z</time>
      </trkpt>
      <trkpt lat="44.97781" lon="1.33429">
        <ele>225.969</ele>
        <time>2019-10-30T12:55:58.001Z</time>
      </trkpt>
      <trkpt lat="44.97712" lon="1.33432">
        <ele>227.159</ele>
        <time>2019-10-30T12:56:31.001Z</time>
      </trkpt>
      <trkpt lat="44.9771" lon="1.33354">
        <ele>229.723</ele>
        <time>2019-10-30T12:57:01.001Z</time>
      </trkpt>
      <trkpt lat="44.97738" lon="1.33286">
        <ele>236.708</ele>
        <time>2019-10-30T12:57:31.001Z</time>
      </trkpt>
      <trkpt lat="44.97689" lon="1.33218">
        <ele>242.483</ele>
        <time>2019-10-30T12:58:04.001Z</time>
      </trkpt>
      <trkpt lat="44.97622" lon="1.33207">
        <ele>251.652</ele>
        <time>2019-10-30T12:58:34.001Z</time>
      </trkpt>
      <trkpt lat="44.9755" lon="1.33203">
        <ele>250.625</ele>
        <time>2019-10-30T12:59:07.001Z</time>
      </trkpt>
      <trkpt lat="44.97536" lon="1.33122">
        <ele>248.561</ele>
        <time>2019-10-30T12:59:37.001Z</time>
      </trkpt>
      <trkpt lat="44.97534" lon="1.33034">
        <ele>254.445</ele>
        <time>2019-10-30T13:00:10.001Z</time>
      </trkpt>
      <trkpt lat="44.97486" lon="1.32973">
        <ele>256.424</ele>
        <time>2019-10-30T13:00:40.001Z</time>
      </trkpt>
      <trkpt lat="44.9744" lon="1.32923">
        <ele>259.285</ele>
        <time>2019-10-30T13:01:10.001Z</time>
      </trkpt>
      <trkpt lat="44.97386" lon="1.32866">
        <ele>268.511</ele>
        <time>2019-10-30T13:01:43.001Z</time>
      </trkpt>
      <trkpt lat="44.97354" lon="1.32801">
        <ele>275.693</ele>
        <time>2019-10-30T13:02:13.001Z</time>
      </trkpt>
      <trkpt lat="44.97309" lon="1.32725">
        <ele>277.374</ele>
        <time>2019-10-30T13:02:46.001Z</time>
      </trkpt>
      <trkpt lat="44.97304" lon="1.32647">
        <ele>278.369</ele>
        <time>2019-10-30T13:03:16Z</time>
      </trkpt>
      <trkpt lat="44.97291" lon="1.32574">
        <ele>281.271</ele>
        <time>2019-10-30T13:03:46.001Z</time>
      </trkpt>
      <trkpt lat="44.97251" lon="1.32499">
        <ele>284.535</ele>
        <time>2019-10-30T13:04:19.001Z</time>
      </trkpt>
      <trkpt lat="44.97213" lon="1.32441">
        <ele>287.065</ele>
        <time>2019-10-30T13:04:49.001Z</time>
      </trkpt>
      <trkpt lat="44.9723" lon="1.3236">
        <ele>291.283</ele>
        <time>2019-10-30T13:05:22.001Z</time>
      </trkpt>
      <trkpt lat="44.97289" lon="1.32361">
        <ele>292.498</ele>
        <time>2019-10-30T13:05:52.001Z</time>
      </trkpt>
      <trkpt lat="44.97341" lon="1.32402">
        <ele>298.41</ele>
        <time>2019-10-30T13:06:22.001Z</time>
      </trkpt>
      <trkpt lat="44.97386" lon="1.32336">
        <ele>304.631</ele>
        <time>2019-10-30T13:06:55.001Z</time>
      </trkpt>
      <trkpt lat="44.97419" lon="1.32248">
        <ele>304.645</ele>
        <time>2019-10-30T13:07:25.001Z</time>
      </trkpt>
      <trkpt lat="44.97414" lon="1.32084">
        <ele>305.224</ele>
        <time>2019-10-30T13:07:58.001Z</time>
      </trkpt>
      <trkpt lat="44.97411" lon="1.31852">
        <ele>302.083</ele>
        <time>2019-10-30T13:08:28.001Z</time>
      </trkpt>
      <trkpt lat="44.97406" lon="1.31573">
        <ele>296.976</ele>
        <time>2019-10-30T13:09:01.001Z</time>
      </trkpt>
      <trkpt lat="44.97402" lon="1.31322">
        <ele>294.053</ele>
        <time>2019-10-30T13:09:31.001Z</time>
      </trkpt>
      <trkpt lat="44.97397" lon="1.31042">
        <ele>289.886</ele>
        <time>2019-10-30T13:10:01.001Z</time>
      </trkpt>
      <trkpt lat="44.97393" lon="1.30816">
        <ele>290.989</ele>
        <time>2019-10-30T13:10:34.001Z</time>
      </trkpt>
      <trkpt lat="44.97389" lon="1.3062">
        <ele>290.231</ele>
        <time>2019-10-30T13:11:04.001Z</time>
      </trkpt>
      <trkpt lat="44.97384" lon="1.30406">
        <ele>294.93</ele>
        <time>2019-10-30T13:11:37.001Z</time>
      </trkpt>
      <trkpt lat="44.97383" lon="1.30216">
        <ele>293.635</ele>
        <time>2019-10-30T13:12:07.001Z</time>
      </trkpt>
      <trkpt lat="44.9738" lon="1.30032">
        <ele>292.911</ele>
        <time>2019-10-30T13:12:37.001Z</time>
      </trkpt>
      <trkpt lat="44.97363" lon="1.2984">
        <ele>297.731</ele>
        <time>2019-10-30T13:13:10.001Z</time>
      </trkpt>
      <trkpt lat="44.97339" lon="1.29678">
        <ele>299.469</ele>
        <time>2019-10-30T13:13:40.001Z</time>
      </trkpt>
      <trkpt lat="44.9732" lon="1.2951">
        <ele>300.623</ele>
        <time>2019-10-30T13:14:13.001Z</time>
      </trkpt>
      <trkpt lat="44.97335" lon="1.29314">
        <ele>301.726</ele>
        <time>2019-10-30T13:14:43.001Z</time>
      </trkpt>
      <trkpt lat="44.97354" lon="1.29059">
        <ele>300.051</ele>
        <time>2019-10-30T13:15:13.001Z</time>
      </trkpt>
      <trkpt lat="44.97314" lon="1.28751">
        <ele>293.467</ele>
        <time>2019-10-30T13:15:46.001Z</time>
      </trkpt>
      <trkpt lat="44.97314" lon="1.28392">
        <ele>282.865</ele>
        <time>2019-10-30T13:16:16Z</time>
      </trkpt>
      <trkpt lat="44.97385" lon="1.28051">
        <ele>276.701</ele>
        <time>2019-10-30T13:16:49.001Z</time>
      </trkpt>
      <trkpt lat="44.97446" lon="1.27712">
        <ele>275.265</ele>
        <time>2019-10-30T13:17:19.001Z</time>
      </trkpt>
      <trkpt lat="44.97489" lon="1.27549">
        <ele>267.895</ele>
        <time>2019-10-30T13:17:52.001Z</time>
      </trkpt>
      <trkpt lat="44.97529" lon="1.27278">
        <ele>264.129</ele>
        <time>2019-10-30T13:18:25.001Z</time>
      </trkpt>
      <trkpt lat="44.97558" lon="1.27117">
        <ele>265.254</ele>
        <time>2019-10-30T13:18:55.001Z</time>
      </trkpt>
      <trkpt lat="44.97641" lon="1.2696">
        <ele>263.413</ele>
        <time>2019-10-30T13:19:28.001Z</time>
      </trkpt>
      <trkpt lat="44.97687" lon="1.26901">
        <ele>268.756</ele>
        <time>2019-10-30T13:20:01.001Z</time>
      </trkpt>
      <trkpt lat="44.97851" lon="1.26864">
        <ele>266.423</ele>
        <time>2019-10-30T13:20:34.001Z</time>
      </trkpt>
      <trkpt lat="44.98118" lon="1.26917">
        <ele>259.443</ele>
        <time>2019-10-30T13:21:04.001Z</time>
      </trkpt>
      <trkpt lat="44.98313" lon="1.26568">
        <ele>235.394</ele>
        <time>2019-10-30T13:21:34.001Z</time>
      </trkpt>
      <trkpt lat="44.9836" lon="1.26193">
        <ele>223.695</ele>
        <time>2019-10-30T13:22:07.001Z</time>
      </trkpt>
      <trkpt lat="44.9849" lon="1.26028">
        <ele>220.159</ele>
        <time>2019-10-30T13:22:37.001Z</time>
      </trkpt>
      <trkpt lat="44.98688" lon="1.25854">
        <ele>213.364</ele>
        <time>2019-10-30T13:23:10.001Z</time>
      </trkpt>
      <trkpt lat="44.98837" lon="1.25557">
        <ele>200.369</ele>
        <time>2019-10-30T13:23:40.001Z</time>
      </trkpt>
      <trkpt lat="44.99011" lon="1.25512">
        <ele>204.586</ele>
        <time>2019-10-30T13:24:10.001Z</time>
      </trkpt>
      <trkpt lat="44.99242" lon="1.25495">
        <ele>199.469</ele>
        <time>2019-10-30T13:24:43.001Z</time>
      </trkpt>
      <trkpt lat="44.9938" lon="1.25413">
        <ele>198.968</ele>
        <time>2019-10-30T13:25:13.001Z</time>
      </trkpt>
      <trkpt lat="44.994" lon="1.25297">
        <ele>199.477</ele>
        <time>2019-10-30T13:25:52.001Z</time>
      </trkpt>
      <trkpt lat="44.99406" lon="1.25211">
        <ele>210.473</ele>
        <time>2019-10-30T13:26:28.001Z</time>
      </trkpt>
      <trkpt lat="44.99412" lon="1.25139">
        <ele>212.973</ele>
        <time>2019-10-30T13:26:58.001Z</time>
      </trkpt>
      <trkpt lat="44.99467" lon="1.25101">
        <ele>218.386</ele>
        <time>2019-10-30T13:27:40.001Z</time>
      </trkpt>
      <trkpt lat="44.99503" lon="1.25055">
        <ele>217.608</ele>
        <time>2019-10-30T13:28:10.001Z</time>
      </trkpt>
      <trkpt lat="44.99473" lon="1.24977">
        <ele>222.163</ele>
        <time>2019-10-30T13:28:46.001Z</time>
      </trkpt>
      <trkpt lat="44.9944" lon="1.24915">
        <ele>227.027</ele>
        <time>2019-10-30T13:29:16Z</time>
      </trkpt>
      <trkpt lat="44.99421" lon="1.24836">
        <ele>231.948</ele>
        <time>2019-10-30T13:29:49.001Z</time>
      </trkpt>
      <trkpt lat="44.99427" lon="1.24758">
        <ele>233.901</ele>
        <time>2019-10-30T13:30:19.001Z</time>
      </trkpt>
      <trkpt lat="44.99431" lon="1.24673">
        <ele>236.448</ele>
        <time>2019-10-30T13:30:49.001Z</time>
      </trkpt>
      <trkpt lat="44.99431" lon="1.24566">
        <ele>240.322</ele>
        <time>2019-10-30T13:31:22.001Z</time>
      </trkpt>
      <trkpt lat="44.9943" lon="1.24459">
        <ele>243.072</ele>
        <time>2019-10-30T13:31:52.001Z</time>
      </trkpt>
      <trkpt lat="44.99467" lon="1.24366">
        <ele>245.084</ele>
        <time>2019-10-30T13:32:25.001Z</time>
      </trkpt>
      <trkpt lat="44.99513" lon="1.24306">
        <ele>250.992</ele>
        <time>2019-10-30T13:32:55.001Z</time>
      </trkpt>
      <trkpt lat="44.99569" lon="1.24257">
        <ele>252.875</ele>
        <time>2019-10-30T13:33:25.001Z</time>
      </trkpt>
      <trkpt lat="44.99606" lon="1.24181">
        <ele>255.587</ele>
        <time>2019-10-30T13:33:58.001Z</time>
      </trkpt>
      <trkpt lat="44.99607" lon="1.24039">
        <ele>254.384</ele>
        <time>2019-10-30T13:34:28.001Z</time>
      </trkpt>
      <trkpt lat="44.99749" lon="1.23862">
        <ele>252.326</ele>
        <time>2019-10-30T13:35:01.001Z</time>
      </trkpt>
      <trkpt lat="44.9984" lon="1.23551">
        <ele>243.624</ele>
        <time>2019-10-30T13:35:31.001Z</time>
      </trkpt>
      <trkpt lat="44.99835" lon="1.2319">
        <ele>230.289</ele>
        <time>2019-10-30T13:36:01.001Z</time>
      </trkpt>
      <trkpt lat="44.9988" lon="1.22761">
        <ele>220.883</ele>
        <time>2019-10-30T13:36:34.001Z</time>
      </trkpt>
      <trkpt lat="44.99905" lon="1.22406">
        <ele>213.157</ele>
        <time>2019-10-30T13:37:04.001Z</time>
      </trkpt>
      <trkpt lat="45.00034" lon="1.22195">
        <ele>201.603</ele>
        <time>2019-10-30T13:37:37.001Z</time>
      </trkpt>
      <trkpt lat="45.00115" lon="1.22022">
        <ele>197.243</ele>
        <time>2019-10-30T13:38:07.001Z</time>
      </trkpt>
      <trkpt lat="45.00181" lon="1.21996">
        <ele>206.614</ele>
        <time>2019-10-30T13:38:37.001Z</time>
      </trkpt>
      <trkpt lat="45.00244" lon="1.21989">
        <ele>218.625</ele>
        <time>2019-10-30T13:39:10.001Z</time>
      </trkpt>
      <trkpt lat="45.0027" lon="1.2191">
        <ele>220.423</ele>
        <time>2019-10-30T13:39:40.001Z</time>
      </trkpt>
      <trkpt lat="45.00276" lon="1.21817">
        <ele>223.38</ele>
        <time>2019-10-30T13:40:13.001Z</time>
      </trkpt>
      <trkpt lat="45.0027" lon="1.21733">
        <ele>233.438</ele>
        <time>2019-10-30T13:40:43.001Z</time>
      </trkpt>
      <trkpt lat="45.00279" lon="1.21654">
        <ele>243.097</ele>
        <time>2019-10-30T13:41:16Z</time>
      </trkpt>
      <trkpt lat="45.00305" lon="1.21566">
        <ele>241.919</ele>
        <time>2019-10-30T13:41:49.001Z</time>
      </trkpt>
      <trkpt lat="45.00326" lon="1.21501">
        <ele>242.09</ele>
        <time>2019-10-30T13:42:22.001Z</time>
      </trkpt>
      <trkpt lat="45.0035" lon="1.21427">
        <ele>250.057</ele>
        <time>2019-10-30T13:42:55.001Z</time>
      </trkpt>
      <trkpt lat="45.00375" lon="1.21343">
        <ele>253.591</ele>
        <time>2019-10-30T13:43:34.001Z</time>
      </trkpt>
      <trkpt lat="45.00388" lon="1.21254">
        <ele>258.053</ele>
        <time>2019-10-30T13:44:10.001Z</time>
      </trkpt>
      <trkpt lat="45.00408" lon="1.21167">
        <ele>263.618</ele>
        <time>2019-10-30T13:44:49.001Z</time>
      </trkpt>
      <trkpt lat="45.00417" lon="1.21078">
        <ele>265.177</ele>
        <time>2019-10-30T13:45:22.001Z</time>
      </trkpt>
      <trkpt lat="45.00404" lon="1.20988">
        <ele>260.372</ele>
        <time>2019-10-30T13:46:01.001Z</time>
      </trkpt>
      <trkpt lat="45.00443" lon="1.20934">
        <ele>262.391</ele>
        <time>2019-10-30T13:46:31.001Z</time>
      </trkpt>
      <trkpt lat="45.00502" lon="1.2088">
        <ele>266.087</ele>
        <time>2019-10-30T13:47:04.001Z</time>
      </trkpt>
      <trkpt lat="45.00559" lon="1.20829">
        <ele>272.011</ele>
        <time>2019-10-30T13:47:34.001Z</time>
      </trkpt>
      <trkpt lat="45.00616" lon="1.20776">
        <ele>279.776</ele>
        <time>2019-10-30T13:48:04.001Z</time>
      </trkpt>
      <trkpt lat="45.00682" lon="1.20721">
        <ele>281.081</ele>
        <time>2019-10-30T13:48:37.001Z</time>
      </trkpt>
      <trkpt lat="45.00724" lon="1.20661">
        <ele>283.455</ele>
        <time>2019-10-30T13:49:07.001Z</time>
      </trkpt>
      <trkpt lat="45.00774" lon="1.20586">
        <ele>283.751</ele>
        <time>2019-10-30T13:49:40.001Z</time>
      </trkpt>
      <trkpt lat="45.00833" lon="1.20503">
        <ele>283.895</ele>
        <time>2019-10-30T13:50:10.001Z</time>
      </trkpt>
      <trkpt lat="45.01024" lon="1.20272">
        <ele>277.237</ele>
        <time>2019-10-30T13:50:40.001Z</time>
      </trkpt>
      <trkpt lat="45.01216" lon="1.19956">
        <ele>254.62</ele>
        <time>2019-10-30T13:51:13.001Z</time>
      </trkpt>
      <trkpt lat="45.01224" lon="1.19769">
        <ele>254.801</ele>
        <time>2019-10-30T13:51:43.001Z</time>
      </trkpt>
      <trkpt lat="45.01208" lon="1.19576">
        <ele>258.533</ele>
        <time>2019-10-30T13:52:16Z</time>
      </trkpt>
      <trkpt lat="45.01196" lon="1.19327">
        <ele>257.557</ele>
        <time>2019-10-30T13:52:46.001Z</time>
      </trkpt>
      <trkpt lat="45.01179" lon="1.19048">
        <ele>250.706</ele>
        <time>2019-10-30T13:53:19.001Z</time>
      </trkpt>
      <trkpt lat="45.01167" lon="1.18778">
        <ele>248.646</ele>
        <time>2019-10-30T13:53:49.001Z</time>
      </trkpt>
      <trkpt lat="45.01173" lon="1.18652">
        <ele>255.06</ele>
        <time>2019-10-30T13:54:19.001Z</time>
      </trkpt>
      <trkpt lat="45.01179" lon="1.18537">
        <ele>258.84</ele>
        <time>2019-10-30T13:54:52.001Z</time>
      </trkpt>
      <trkpt lat="45.0121" lon="1.1839">
        <ele>260.177</ele>
        <time>2019-10-30T13:55:22.001Z</time>
      </trkpt>
      <trkpt lat="45.01161" lon="1.18339">
        <ele>265.015</ele>
        <time>2019-10-30T13:55:55.001Z</time>
      </trkpt>
      <trkpt lat="45.0108" lon="1.18314">
        <ele>264.701</ele>
        <time>2019-10-30T13:56:25.001Z</time>
      </trkpt>
      <trkpt lat="45.01034" lon="1.18118">
        <ele>263.232</ele>
        <time>2019-10-30T13:56:55.001Z</time>
      </trkpt>
      <trkpt lat="45.0103" lon="1.17979">
        <ele>262.787</ele>
        <time>2019-10-30T13:57:28.001Z</time>
      </trkpt>
      <trkpt lat="45.01015" lon="1.17805">
        <ele>267.026</ele>
        <time>2019-10-30T13:57:58.001Z</time>
      </trkpt>
      <trkpt lat="45.01005" lon="1.17468">
        <ele>259.676</ele>
        <time>2019-10-30T13:58:31.001Z</time>
      </trkpt>
      <trkpt lat="45.0101" lon="1.1719">
        <ele>255.536</ele>
        <time>2019-10-30T13:59:01.001Z</time>
      </trkpt>
      <trkpt lat="45.0092" lon="1.16909">
        <ele>248.449</ele>
        <time>2019-10-30T13:59:31.001Z</time>
      </trkpt>
      <trkpt lat="45.00813" lon="1.16676">
        <ele>244.211</ele>
        <time>2019-10-30T14:00:04.001Z</time>
      </trkpt>
      <trkpt lat="45.00737" lon="1.16406">
        <ele>242.127</ele>
        <time>2019-10-30T14:00:34.001Z</time>
      </trkpt>
      <trkpt lat="45.00763" lon="1.16152">
        <ele>237.944</ele>
        <time>2019-10-30T14:01:07.001Z</time>
      </trkpt>
      <trkpt lat="45.0079" lon="1.15917">
        <ele>231.695</ele>
        <time>2019-10-30T14:01:37.001Z</time>
      </trkpt>
      <trkpt lat="45.00675" lon="1.15723">
        <ele>226.867</ele>
        <time>2019-10-30T14:02:10.001Z</time>
      </trkpt>
      <trkpt lat="45.00526" lon="1.15612">
        <ele>222.092</ele>
        <time>2019-10-30T14:02:40.001Z</time>
      </trkpt>
      <trkpt lat="45.00523" lon="1.15377">
        <ele>218.707</ele>
        <time>2019-10-30T14:03:10.001Z</time>
      </trkpt>
      <trkpt lat="45.00618" lon="1.15158">
        <ele>218.882</ele>
        <time>2019-10-30T14:03:43.001Z</time>
      </trkpt>
      <trkpt lat="45.00707" lon="1.1489">
        <ele>212.383</ele>
        <time>2019-10-30T14:04:13.001Z</time>
      </trkpt>
      <trkpt lat="45.00821" lon="1.14673">
        <ele>214.569</ele>
        <time>2019-10-30T14:04:46.001Z</time>
      </trkpt>
      <trkpt lat="45.00868" lon="1.1449">
        <ele>209.396</ele>
        <time>2019-10-30T14:05:16Z</time>
      </trkpt>
      <trkpt lat="45.00884" lon="1.14127">
        <ele>193.386</ele>
        <time>2019-10-30T14:05:46.001Z</time>
      </trkpt>
      <trkpt lat="45.01111" lon="1.13757">
        <ele>170.817</ele>
        <time>2019-10-30T14:06:19.001Z</time>
      </trkpt>
      <trkpt lat="45.0126" lon="1.13487">
        <ele>152.435</ele>
        <time>2019-10-30T14:06:49.001Z</time>
      </trkpt>
      <trkpt lat="45.01464" lon="1.13243">
        <ele>130.685</ele>
        <time>2019-10-30T14:07:22.001Z</time>
      </trkpt>
      <trkpt lat="45.01702" lon="1.13105">
        <ele>112.156</ele>
        <time>2019-10-30T14:07:52.001Z</time>
      </trkpt>
      <trkpt lat="45.01993" lon="1.13095">
        <ele>95.807</ele>
        <time>2019-10-30T14:08:22.001Z</time>
      </trkpt>
      <trkpt lat="45.02127" lon="1.12873">
        <ele>90.142</ele>
        <time>2019-10-30T14:08:55.001Z</time>
      </trkpt>
      <trkpt lat="45.02165" lon="1.12803">
        <ele>94.87</ele>
        <time>2019-10-30T14:09:25.001Z</time>
      </trkpt>
      <trkpt lat="45.02169" lon="1.12709">
        <ele>101.785</ele>
        <time>2019-10-30T14:09:58.001Z</time>
      </trkpt>
      <trkpt lat="45.0215" lon="1.12593">
        <ele>104.056</ele>
        <time>2019-10-30T14:10:28.001Z</time>
      </trkpt>
      <trkpt lat="45.02093" lon="1.12282">
        <ele>91.472</ele>
        <time>2019-10-30T14:10:58.001Z</time>
      </trkpt>
      <trkpt lat="45.02027" lon="1.12012">
        <ele>81.567</ele>
        <time>2019-10-30T14:11:31.001Z</time>
      </trkpt>
      <trkpt lat="45.02045" lon="1.11836">
        <ele>81.462</ele>
        <time>2019-10-30T14:12:01.001Z</time>
      </trkpt>
      <trkpt lat="45.02247" lon="1.11746">
        <ele>76.241</ele>
        <time>2019-10-30T14:12:34.001Z</time>
      </trkpt>
      <trkpt lat="45.02222" lon="1.11579">
        <ele>74.563</ele>
        <time>2019-10-30T14:13:04.001Z</time>
      </trkpt>
      <trkpt lat="45.02211" lon="1.11363">
        <ele>74.995</ele>
        <time>2019-10-30T14:13:37.001Z</time>
      </trkpt>
      <trkpt lat="45.02124" lon="1.11211">
        <ele>73.235</ele>
        <time>2019-10-30T14:14:07.001Z</time>
      </trkpt>
      <trkpt lat="45.02064" lon="1.11071">
        <ele>75.613</ele>
        <time>2019-10-30T14:14:37.001Z</time>
      </trkpt>
      <trkpt lat="45.02062" lon="1.10957">
        <ele>81.527</ele>
        <time>2019-10-30T14:15:10.001Z</time>
      </trkpt>
      <trkpt lat="45.0208" lon="1.10875">
        <ele>93.109</ele>
        <time>2019-10-30T14:15:43.001Z</time>
      </trkpt>
      <trkpt lat="45.02103" lon="1.10806">
        <ele>95.059</ele>
        <time>2019-10-30T14:16:16Z</time>
      </trkpt>
      <trkpt lat="45.0212" lon="1.10737">
        <ele>94.829</ele>
        <time>2019-10-30T14:16:46.001Z</time>
      </trkpt>
      <trkpt lat="45.02134" lon="1.10657">
        <ele>98.026</ele>
        <time>2019-10-30T14:17:16Z</time>
      </trkpt>
      <trkpt lat="45.02125" lon="1.10561">
        <ele>101.947</ele>
        <time>2019-10-30T14:17:49.001Z</time>
      </trkpt>
      <trkpt lat="45.02162" lon="1.10507">
        <ele>106.54</ele>
        <time>2019-10-30T14:18:19.001Z</time>
      </trkpt>
      <trkpt lat="45.02305" lon="1.10453">
        <ele>101.892</ele>
        <time>2019-10-30T14:18:52.001Z</time>
      </trkpt>
      <trkpt lat="45.02372" lon="1.10463">
        <ele>106.65</ele>
        <time>2019-10-30T14:19:25.001Z</time>
      </trkpt>
      <trkpt lat="45.0244" lon="1.10512">
        <ele>110.906</ele>
        <time>2019-10-30T14:19:55.001Z</time>
      </trkpt>
      <trkpt lat="45.02499" lon="1.10524">
        <ele>116.479</ele>
        <time>2019-10-30T14:20:28.001Z</time>
      </trkpt>
      <trkpt lat="45.02541" lon="1.10494">
        <ele>116.703</ele>
        <time>2019-10-30T14:20:58.001Z</time>
      </trkpt>
      <trkpt lat="45.02567" lon="1.10381">
        <ele>123.597</ele>
        <time>2019-10-30T14:21:31.001Z</time>
      </trkpt>
      <trkpt lat="45.02594" lon="1.10292">
        <ele>130.693</ele>
        <time>2019-10-30T14:22:01.001Z</time>
      </trkpt>
      <trkpt lat="45.02629" lon="1.10209">
        <ele>136.848</ele>
        <time>2019-10-30T14:22:34.001Z</time>
      </trkpt>
      <trkpt lat="45.0263" lon="1.10125">
        <ele>139.923</ele>
        <time>2019-10-30T14:23:07.001Z</time>
      </trkpt>
      <trkpt lat="45.02625" lon="1.10041">
        <ele>145.077</ele>
        <time>2019-10-30T14:23:37.001Z</time>
      </trkpt>
      <trkpt lat="45.02665" lon="1.09963">
        <ele>148.194</ele>
        <time>2019-10-30T14:24:10.001Z</time>
      </trkpt>
      <trkpt lat="45.02686" lon="1.09885">
        <ele>155.122</ele>
        <time>2019-10-30T14:24:40.001Z</time>
      </trkpt>
      <trkpt lat="45.02671" lon="1.09798">
        <ele>158.762</ele>
        <time>2019-10-30T14:25:13.001Z</time>
      </trkpt>
      <trkpt lat="45.02637" lon="1.0973">
        <ele>152.559</ele>
        <time>2019-10-30T14:25:43.001Z</time>
      </trkpt>
      <trkpt lat="45.02589" lon="1.09685">
        <ele>162.089</ele>
        <time>2019-10-30T14:26:13.001Z</time>
      </trkpt>
      <trkpt lat="45.02553" lon="1.09602">
        <ele>164.638</ele>
        <time>2019-10-30T14:26:46.001Z</time>
      </trkpt>
      <trkpt lat="45.02537" lon="1.09526">
        <ele>165.869</ele>
        <time>2019-10-30T14:27:16Z</time>
      </trkpt>
      <trkpt lat="45.02565" lon="1.09449">
        <ele>177.704</ele>
        <time>2019-10-30T14:27:55.001Z</time>
      </trkpt>
      <trkpt lat="45.02622" lon="1.09442">
        <ele>178.801</ele>
        <time>2019-10-30T14:28:25.001Z</time>
      </trkpt>
      <trkpt lat="45.02676" lon="1.09447">
        <ele>180.888</ele>
        <time>2019-10-30T14:28:55.001Z</time>
      </trkpt>
      <trkpt lat="45.02734" lon="1.094">
        <ele>188.807</ele>
        <time>2019-10-30T14:29:34.001Z</time>
      </trkpt>
      <trkpt lat="45.0275" lon="1.09323">
        <ele>192.094</ele>
        <time>2019-10-30T14:30:07.001Z</time>
      </trkpt>
      <trkpt lat="45.02791" lon="1.09251">
        <ele>200.806</ele>
        <time>2019-10-30T14:30:40.001Z</time>
      </trkpt>
      <trkpt lat="45.02841" lon="1.09235">
        <ele>208.368</ele>
        <time>2019-10-30T14:31:10.001Z</time>
      </trkpt>
      <trkpt lat="45.0289" lon="1.09264">
        <ele>215.994</ele>
        <time>2019-10-30T14:31:43.001Z</time>
      </trkpt>
      <trkpt lat="45.02915" lon="1.09335">
        <ele>219.598</ele>
        <time>2019-10-30T14:32:16Z</time>
      </trkpt>
      <trkpt lat="45.02936" lon="1.09412">
        <ele>213.625</ele>
        <time>2019-10-30T14:32:46.001Z</time>
      </trkpt>
      <trkpt lat="45.02993" lon="1.09418">
        <ele>213.15</ele>
        <time>2019-10-30T14:33:22.001Z</time>
      </trkpt>
      <trkpt lat="45.03032" lon="1.09357">
        <ele>214.688</ele>
        <time>2019-10-30T14:33:55.001Z</time>
      </trkpt>
      <trkpt lat="45.03062" lon="1.09277">
        <ele>218.788</ele>
        <time>2019-10-30T14:34:28.001Z</time>
      </trkpt>
      <trkpt lat="45.03094" lon="1.09194">
        <ele>216.844</ele>
        <time>2019-10-30T14:34:58.001Z</time>
      </trkpt>
      <trkpt lat="45.03118" lon="1.09112">
        <ele>215.543</ele>
        <time>2019-10-30T14:35:28.001Z</time>
      </trkpt>
      <trkpt lat="45.03071" lon="1.08983">
        <ele>217.023</ele>
        <time>2019-10-30T14:36:01.001Z</time>
      </trkpt>
      <trkpt lat="45.0303" lon="1.08838">
        <ele>219.979</ele>
        <time>2019-10-30T14:36:31.001Z</time>
      </trkpt>
      <trkpt lat="45.02994" lon="1.08661">
        <ele>219.124</ele>
        <time>2019-10-30T14:37:04.001Z</time>
      </trkpt>
      <trkpt lat="45.02928" lon="1.08535">
        <ele>217.288</ele>
        <time>2019-10-30T14:37:34.001Z</time>
      </trkpt>
      <trkpt lat="45.02862" lon="1.08429">
        <ele>218.574</ele>
        <time>2019-10-30T14:38:04.001Z</time>
      </trkpt>
      <trkpt lat="45.02797" lon="1.08299">
        <ele>223.128</ele>
        <time>2019-10-30T14:38:37.001Z</time>
      </trkpt>
      <trkpt lat="45.02767" lon="1.08157">
        <ele>226.174</ele>
        <time>2019-10-30T14:39:07.001Z</time>
      </trkpt>
      <trkpt lat="45.02804" lon="1.07992">
        <ele>230.427</ele>
        <time>2019-10-30T14:39:40.001Z</time>
      </trkpt>
      <trkpt lat="45.029" lon="1.07858">
        <ele>226.754</ele>
        <time>2019-10-30T14:40:10.001Z</time>
      </trkpt>
      <trkpt lat="45.0303" lon="1.07792">
        <ele>228.872</ele>
        <time>2019-10-30T14:40:40.001Z</time>
      </trkpt>
      <trkpt lat="45.03151" lon="1.07682">
        <ele>228.968</ele>
        <time>2019-10-30T14:41:13.001Z</time>
      </trkpt>
      <trkpt lat="45.03148" lon="1.07412">
        <ele>221.182</ele>
        <time>2019-10-30T14:41:43.001Z</time>
      </trkpt>
      <trkpt lat="45.03232" lon="1.07327">
        <ele>224.78</ele>
        <time>2019-10-30T14:42:16Z</time>
      </trkpt>
      <trkpt lat="45.03272" lon="1.07271">
        <ele>225.846</ele>
        <time>2019-10-30T14:42:46.001Z</time>
      </trkpt>
      <trkpt lat="45.03301" lon="1.07198">
        <ele>232.209</ele>
        <time>2019-10-30T14:43:19.001Z</time>
      </trkpt>
      <trkpt lat="45.03308" lon="1.07107">
        <ele>238.553</ele>
        <time>2019-10-30T14:43:52.001Z</time>
      </trkpt>
      <trkpt lat="45.03301" lon="1.07015">
        <ele>242.381</ele>
        <time>2019-10-30T14:44:22.001Z</time>
      </trkpt>
      <trkpt lat="45.03289" lon="1.06921">
        <ele>243.956</ele>
        <time>2019-10-30T14:44:55.001Z</time>
      </trkpt>
      <trkpt lat="45.03294" lon="1.06834">
        <ele>245.058</ele>
        <time>2019-10-30T14:45:25.001Z</time>
      </trkpt>
      <trkpt lat="45.03374" lon="1.06653">
        <ele>238.999</ele>
        <time>2019-10-30T14:45:58.001Z</time>
      </trkpt>
      <trkpt lat="45.03331" lon="1.06247">
        <ele>223.07</ele>
        <time>2019-10-30T14:46:28.001Z</time>
      </trkpt>
      <trkpt lat="45.03254" lon="1.05717">
        <ele>193.689</ele>
        <time>2019-10-30T14:46:58.001Z</time>
      </trkpt>
      <trkpt lat="45.03061" lon="1.05245">
        <ele>149.793</ele>
        <time>2019-10-30T14:47:31.001Z</time>
      </trkpt>
      <trkpt lat="45.03075" lon="1.04821">
        <ele>117.875</ele>
        <time>2019-10-30T14:48:01.001Z</time>
      </trkpt>
      <trkpt lat="45.03044" lon="1.04413">
        <ele>91.194</ele>
        <time>2019-10-30T14:48:34.001Z</time>
      </trkpt>
      <trkpt lat="45.03114" lon="1.0435">
        <ele>90.078</ele>
        <time>2019-10-30T14:49:04.001Z</time>
      </trkpt>
      <trkpt lat="45.03162" lon="1.04291">
        <ele>99.858</ele>
        <time>2019-10-30T14:52:43.001Z</time>
      </trkpt>
      <trkpt lat="45.03235" lon="1.04218">
        <ele>104.498</ele>
        <time>2019-10-30T14:53:16Z</time>
      </trkpt>
      <trkpt lat="45.03306" lon="1.04148">
        <ele>108.552</ele>
        <time>2019-10-30T14:53:46.001Z</time>
      </trkpt>
      <trkpt lat="45.03375" lon="1.0407">
        <ele>115.179</ele>
        <time>2019-10-30T14:54:19.001Z</time>
      </trkpt>
      <trkpt lat="45.03445" lon="1.04">
        <ele>116.431</ele>
        <time>2019-10-30T14:54:49.001Z</time>
      </trkpt>
      <trkpt lat="45.03545" lon="1.03898">
        <ele>116.814</ele>
        <time>2019-10-30T14:55:19.001Z</time>
      </trkpt>
      <trkpt lat="45.03682" lon="1.03782">
        <ele>114.362</ele>
        <time>2019-10-30T14:55:52.001Z</time>
      </trkpt>
      <trkpt lat="45.03827" lon="1.03702">
        <ele>111.162</ele>
        <time>2019-10-30T14:56:22.001Z</time>
      </trkpt>
      <trkpt lat="45.0394" lon="1.03556">
        <ele>108.472</ele>
        <time>2019-10-30T14:56:55.001Z</time>
      </trkpt>
      <trkpt lat="45.04051" lon="1.03473">
        <ele>111.485</ele>
        <time>2019-10-30T14:57:25.001Z</time>
      </trkpt>
      <trkpt lat="45.04171" lon="1.03391">
        <ele>111.144</ele>
        <time>2019-10-30T14:57:58.001Z</time>
      </trkpt>
      <trkpt lat="45.04281" lon="1.03307">
        <ele>114.421</ele>
        <time>2019-10-30T14:58:28.001Z</time>
      </trkpt>
      <trkpt lat="45.04401" lon="1.03236">
        <ele>117.335</ele>
        <time>2019-10-30T14:58:58.001Z</time>
      </trkpt>
      <trkpt lat="45.04552" lon="1.03172">
        <ele>113.181</ele>
        <time>2019-10-30T14:59:31.001Z</time>
      </trkpt>
      <trkpt lat="45.04689" lon="1.03188">
        <ele>113.191</ele>
        <time>2019-10-30T15:00:01.001Z</time>
      </trkpt>
      <trkpt lat="45.04795" lon="1.03214">
        <ele>111.826</ele>
        <time>2019-10-30T15:00:34.001Z</time>
      </trkpt>
      <trkpt lat="45.04829" lon="1.03218">
        <ele>114.631</ele>
        <time>2019-10-30T15:02:52.001Z</time>
      </trkpt>
      <trkpt lat="45.04869" lon="1.0322">
        <ele>116.056</ele>
        <time>2019-10-30T15:03:25.001Z</time>
      </trkpt>
      <trkpt lat="45.04883" lon="1.03244">
        <ele>121.516</ele>
        <time>2019-10-30T15:50:13.001Z</time>
      </trkpt>
    </trkseg>
  </trk>
  <trk>
    <name><![CDATA[Tracé 20191031-151424]]></name>
    <trkseg>
      <trkpt lat="45.04861" lon="1.03217">
        <ele>138.915</ele>
        <time>2019-10-31T14:24:09Z</time>
      </trkpt>
      <trkpt lat="45.04691" lon="1.03186">
        <ele>118.637</ele>
        <time>2019-10-31T14:24:42Z</time>
      </trkpt>
      <trkpt lat="45.04674" lon="1.03045">
        <ele>113.41</ele>
        <time>2019-10-31T14:25:15Z</time>
      </trkpt>
      <trkpt lat="45.04757" lon="1.02856">
        <ele>114.26</ele>
        <time>2019-10-31T14:25:48Z</time>
      </trkpt>
      <trkpt lat="45.04895" lon="1.02736">
        <ele>115.818</ele>
        <time>2019-10-31T14:26:21Z</time>
      </trkpt>
      <trkpt lat="45.05025" lon="1.0262">
        <ele>114.951</ele>
        <time>2019-10-31T14:26:54Z</time>
      </trkpt>
      <trkpt lat="45.05141" lon="1.02519">
        <ele>111.694</ele>
        <time>2019-10-31T14:27:27Z</time>
      </trkpt>
      <trkpt lat="45.05252" lon="1.02423">
        <ele>119.231</ele>
        <time>2019-10-31T14:28:00Z</time>
      </trkpt>
      <trkpt lat="45.05379" lon="1.02328">
        <ele>122.376</ele>
        <time>2019-10-31T14:28:36Z</time>
      </trkpt>
      <trkpt lat="45.05436" lon="1.02211">
        <ele>123.175</ele>
        <time>2019-10-31T14:29:09Z</time>
      </trkpt>
      <trkpt lat="45.05416" lon="1.02109">
        <ele>128.637</ele>
        <time>2019-10-31T14:29:42Z</time>
      </trkpt>
      <trkpt lat="45.05393" lon="1.02005">
        <ele>134.109</ele>
        <time>2019-10-31T14:30:15Z</time>
      </trkpt>
      <trkpt lat="45.05359" lon="1.01913">
        <ele>140.125</ele>
        <time>2019-10-31T14:30:48Z</time>
      </trkpt>
      <trkpt lat="45.05342" lon="1.0182">
        <ele>143.836</ele>
        <time>2019-10-31T14:31:21Z</time>
      </trkpt>
      <trkpt lat="45.05357" lon="1.01729">
        <ele>152.5</ele>
        <time>2019-10-31T14:31:54Z</time>
      </trkpt>
      <trkpt lat="45.05372" lon="1.01632">
        <ele>162.176</ele>
        <time>2019-10-31T14:32:27Z</time>
      </trkpt>
      <trkpt lat="45.05391" lon="1.01523">
        <ele>167.71</ele>
        <time>2019-10-31T14:33:00Z</time>
      </trkpt>
      <trkpt lat="45.05394" lon="1.01411">
        <ele>163.072</ele>
        <time>2019-10-31T14:33:36Z</time>
      </trkpt>
      <trkpt lat="45.05382" lon="1.0131">
        <ele>161.753</ele>
        <time>2019-10-31T14:34:09Z</time>
      </trkpt>
      <trkpt lat="45.05379" lon="1.01203">
        <ele>168.326</ele>
        <time>2019-10-31T14:34:42Z</time>
      </trkpt>
      <trkpt lat="45.05359" lon="1.01114">
        <ele>176.066</ele>
        <time>2019-10-31T14:35:15Z</time>
      </trkpt>
      <trkpt lat="45.05319" lon="1.01012">
        <ele>186.837</ele>
        <time>2019-10-31T14:35:48Z</time>
      </trkpt>
      <trkpt lat="45.05297" lon="1.00916">
        <ele>191.007</ele>
        <time>2019-10-31T14:36:21Z</time>
      </trkpt>
      <trkpt lat="45.05266" lon="1.00801">
        <ele>192.524</ele>
        <time>2019-10-31T14:36:54Z</time>
      </trkpt>
      <trkpt lat="45.05232" lon="1.00685">
        <ele>202.798</ele>
        <time>2019-10-31T14:37:27Z</time>
      </trkpt>
      <trkpt lat="45.0519" lon="1.00571">
        <ele>199.586</ele>
        <time>2019-10-31T14:38:03Z</time>
      </trkpt>
      <trkpt lat="45.05157" lon="1.00457">
        <ele>207.294</ele>
        <time>2019-10-31T14:38:36Z</time>
      </trkpt>
      <trkpt lat="45.05127" lon="1.00349">
        <ele>207.035</ele>
        <time>2019-10-31T14:39:09Z</time>
      </trkpt>
      <trkpt lat="45.0508" lon="1.00232">
        <ele>209.967</ele>
        <time>2019-10-31T14:39:42Z</time>
      </trkpt>
      <trkpt lat="45.05048" lon="1.00135">
        <ele>202.801</ele>
        <time>2019-10-31T14:40:15Z</time>
      </trkpt>
      <trkpt lat="45.05021" lon="1.00025">
        <ele>208.81</ele>
        <time>2019-10-31T14:40:48Z</time>
      </trkpt>
      <trkpt lat="45.04997" lon="0.99915">
        <ele>211.572</ele>
        <time>2019-10-31T14:41:21Z</time>
      </trkpt>
      <trkpt lat="45.04974" lon="0.99809">
        <ele>213.615</ele>
        <time>2019-10-31T14:41:54Z</time>
      </trkpt>
      <trkpt lat="45.04957" lon="0.9969">
        <ele>219.252</ele>
        <time>2019-10-31T14:42:30Z</time>
      </trkpt>
      <trkpt lat="45.0495" lon="0.99583">
        <ele>224.124</ele>
        <time>2019-10-31T14:43:03Z</time>
      </trkpt>
      <trkpt lat="45.04948" lon="0.99468">
        <ele>226.605</ele>
        <time>2019-10-31T14:43:36Z</time>
      </trkpt>
      <trkpt lat="45.04922" lon="0.99366">
        <ele>228.652</ele>
        <time>2019-10-31T14:44:09Z</time>
      </trkpt>
      <trkpt lat="45.04875" lon="0.99273">
        <ele>230.088</ele>
        <time>2019-10-31T14:44:42Z</time>
      </trkpt>
      <trkpt lat="45.04826" lon="0.99198">
        <ele>241.377</ele>
        <time>2019-10-31T14:45:15Z</time>
      </trkpt>
      <trkpt lat="45.04767" lon="0.99126">
        <ele>251.609</ele>
        <time>2019-10-31T14:45:48Z</time>
      </trkpt>
      <trkpt lat="45.04709" lon="0.9906">
        <ele>252.944</ele>
        <time>2019-10-31T14:46:21.001Z</time>
      </trkpt>
      <trkpt lat="45.04634" lon="0.99012">
        <ele>262.213</ele>
        <time>2019-10-31T14:46:54.001Z</time>
      </trkpt>
      <trkpt lat="45.04557" lon="0.98936">
        <ele>257.228</ele>
        <time>2019-10-31T14:47:30.001Z</time>
      </trkpt>
      <trkpt lat="45.0449" lon="0.98876">
        <ele>261.101</ele>
        <time>2019-10-31T14:48:03.001Z</time>
      </trkpt>
      <trkpt lat="45.04427" lon="0.988">
        <ele>254.169</ele>
        <time>2019-10-31T14:48:36.001Z</time>
      </trkpt>
      <trkpt lat="45.04416" lon="0.98702">
        <ele>259.141</ele>
        <time>2019-10-31T14:49:09.001Z</time>
      </trkpt>
      <trkpt lat="45.04425" lon="0.98594">
        <ele>263.624</ele>
        <time>2019-10-31T14:49:42.001Z</time>
      </trkpt>
      <trkpt lat="45.04468" lon="0.98509">
        <ele>266.399</ele>
        <time>2019-10-31T14:50:15.001Z</time>
      </trkpt>
      <trkpt lat="45.04492" lon="0.98413">
        <ele>271.484</ele>
        <time>2019-10-31T14:50:48.001Z</time>
      </trkpt>
      <trkpt lat="45.04473" lon="0.98279">
        <ele>271.379</ele>
        <time>2019-10-31T14:51:21.001Z</time>
      </trkpt>
      <trkpt lat="45.04501" lon="0.98076">
        <ele>274.458</ele>
        <time>2019-10-31T14:51:57.001Z</time>
      </trkpt>
      <trkpt lat="45.04452" lon="0.97969">
        <ele>276.722</ele>
        <time>2019-10-31T14:52:30.001Z</time>
      </trkpt>
      <trkpt lat="45.04378" lon="0.98015">
        <ele>282.953</ele>
        <time>2019-10-31T14:53:03.001Z</time>
      </trkpt>
      <trkpt lat="45.04263" lon="0.98071">
        <ele>276.176</ele>
        <time>2019-10-31T14:53:36.001Z</time>
      </trkpt>
      <trkpt lat="45.0415" lon="0.9802">
        <ele>279.402</ele>
        <time>2019-10-31T14:54:09.001Z</time>
      </trkpt>
      <trkpt lat="45.04051" lon="0.98001">
        <ele>273.667</ele>
        <time>2019-10-31T14:54:42.001Z</time>
      </trkpt>
      <trkpt lat="45.03953" lon="0.98027">
        <ele>279.384</ele>
        <time>2019-10-31T14:55:15.001Z</time>
      </trkpt>
      <trkpt lat="45.03864" lon="0.97982">
        <ele>286.156</ele>
        <time>2019-10-31T14:55:48.001Z</time>
      </trkpt>
      <trkpt lat="45.03733" lon="0.97994">
        <ele>286.912</ele>
        <time>2019-10-31T14:56:24.001Z</time>
      </trkpt>
      <trkpt lat="45.03609" lon="0.97932">
        <ele>284.37</ele>
        <time>2019-10-31T14:56:57.001Z</time>
      </trkpt>
      <trkpt lat="45.03467" lon="0.97906">
        <ele>281.832</ele>
        <time>2019-10-31T14:57:30.001Z</time>
      </trkpt>
      <trkpt lat="45.03312" lon="0.97951">
        <ele>283.821</ele>
        <time>2019-10-31T14:58:03.001Z</time>
      </trkpt>
      <trkpt lat="45.03115" lon="0.97999">
        <ele>283.636</ele>
        <time>2019-10-31T14:58:36.001Z</time>
      </trkpt>
      <trkpt lat="45.0287" lon="0.9805">
        <ele>276.125</ele>
        <time>2019-10-31T14:59:09.001Z</time>
      </trkpt>
      <trkpt lat="45.02649" lon="0.98029">
        <ele>272.646</ele>
        <time>2019-10-31T14:59:42.001Z</time>
      </trkpt>
      <trkpt lat="45.02436" lon="0.97897">
        <ele>265.215</ele>
        <time>2019-10-31T15:00:15.001Z</time>
      </trkpt>
      <trkpt lat="45.02385" lon="0.97667">
        <ele>266.652</ele>
        <time>2019-10-31T15:00:48.001Z</time>
      </trkpt>
      <trkpt lat="45.02226" lon="0.97585">
        <ele>270.453</ele>
        <time>2019-10-31T15:01:24.001Z</time>
      </trkpt>
      <trkpt lat="45.021" lon="0.97414">
        <ele>271.827</ele>
        <time>2019-10-31T15:01:57.001Z</time>
      </trkpt>
      <trkpt lat="45.01986" lon="0.97233">
        <ele>273.783</ele>
        <time>2019-10-31T15:02:30.001Z</time>
      </trkpt>
      <trkpt lat="45.01881" lon="0.97035">
        <ele>272.366</ele>
        <time>2019-10-31T15:03:03.001Z</time>
      </trkpt>
      <trkpt lat="45.01687" lon="0.96822">
        <ele>261.208</ele>
        <time>2019-10-31T15:03:36.001Z</time>
      </trkpt>
      <trkpt lat="45.01458" lon="0.96601">
        <ele>254.8</ele>
        <time>2019-10-31T15:04:09.001Z</time>
      </trkpt>
      <trkpt lat="45.01443" lon="0.96195">
        <ele>239.191</ele>
        <time>2019-10-31T15:04:42.001Z</time>
      </trkpt>
      <trkpt lat="45.01373" lon="0.95894">
        <ele>224.622</ele>
        <time>2019-10-31T15:05:15.001Z</time>
      </trkpt>
      <trkpt lat="45.01028" lon="0.95621">
        <ele>207.332</ele>
        <time>2019-10-31T15:05:51.001Z</time>
      </trkpt>
      <trkpt lat="45.00928" lon="0.95338">
        <ele>198.574</ele>
        <time>2019-10-31T15:06:24.001Z</time>
      </trkpt>
      <trkpt lat="45.00706" lon="0.95109">
        <ele>188.548</ele>
        <time>2019-10-31T15:06:57.001Z</time>
      </trkpt>
      <trkpt lat="45.00511" lon="0.95292">
        <ele>174.884</ele>
        <time>2019-10-31T15:07:30.001Z</time>
      </trkpt>
      <trkpt lat="45.00343" lon="0.95031">
        <ele>165.749</ele>
        <time>2019-10-31T15:08:03.001Z</time>
      </trkpt>
      <trkpt lat="44.99984" lon="0.94909">
        <ele>143.63</ele>
        <time>2019-10-31T15:08:36.001Z</time>
      </trkpt>
      <trkpt lat="44.99803" lon="0.94788">
        <ele>128.555</ele>
        <time>2019-10-31T15:09:09.001Z</time>
      </trkpt>
      <trkpt lat="44.99481" lon="0.94657">
        <ele>103.751</ele>
        <time>2019-10-31T15:09:42.001Z</time>
      </trkpt>
      <trkpt lat="44.99344" lon="0.94468">
        <ele>102.282</ele>
        <time>2019-10-31T15:10:18.001Z</time>
      </trkpt>
      <trkpt lat="44.99209" lon="0.9433">
        <ele>106.085</ele>
        <time>2019-10-31T15:10:51.001Z</time>
      </trkpt>
      <trkpt lat="44.99247" lon="0.94185">
        <ele>113.946</ele>
        <time>2019-10-31T15:11:24.001Z</time>
      </trkpt>
      <trkpt lat="44.99303" lon="0.94106">
        <ele>115.339</ele>
        <time>2019-10-31T15:11:57.001Z</time>
      </trkpt>
      <trkpt lat="44.99365" lon="0.9405">
        <ele>123.009</ele>
        <time>2019-10-31T15:12:30.001Z</time>
      </trkpt>
      <trkpt lat="44.99415" lon="0.93957">
        <ele>134.169</ele>
        <time>2019-10-31T15:13:03.001Z</time>
      </trkpt>
      <trkpt lat="44.99436" lon="0.93834">
        <ele>140.257</ele>
        <time>2019-10-31T15:13:36.001Z</time>
      </trkpt>
      <trkpt lat="44.99491" lon="0.93739">
        <ele>143.999</ele>
        <time>2019-10-31T15:14:09.001Z</time>
      </trkpt>
      <trkpt lat="44.99538" lon="0.93689">
        <ele>144.011</ele>
        <time>2019-10-31T15:16:06.001Z</time>
      </trkpt>
      <trkpt lat="44.9959" lon="0.93539">
        <ele>132.336</ele>
        <time>2019-10-31T15:16:42.001Z</time>
      </trkpt>
      <trkpt lat="44.99603" lon="0.93383">
        <ele>136.318</ele>
        <time>2019-10-31T15:17:15.001Z</time>
      </trkpt>
      <trkpt lat="44.99634" lon="0.93252">
        <ele>137.083</ele>
        <time>2019-10-31T15:17:48.001Z</time>
      </trkpt>
      <trkpt lat="44.99704" lon="0.932">
        <ele>132.197</ele>
        <time>2019-10-31T15:18:21.001Z</time>
      </trkpt>
      <trkpt lat="44.99767" lon="0.93157">
        <ele>145.098</ele>
        <time>2019-10-31T15:18:54.001Z</time>
      </trkpt>
      <trkpt lat="44.998" lon="0.93064">
        <ele>152.61</ele>
        <time>2019-10-31T15:19:27.001Z</time>
      </trkpt>
      <trkpt lat="44.99814" lon="0.92969">
        <ele>162.924</ele>
        <time>2019-10-31T15:20:00Z</time>
      </trkpt>
      <trkpt lat="44.9985" lon="0.92889">
        <ele>157.923</ele>
        <time>2019-10-31T15:20:33.001Z</time>
      </trkpt>
      <trkpt lat="44.99897" lon="0.928">
        <ele>154.545</ele>
        <time>2019-10-31T15:21:09.001Z</time>
      </trkpt>
      <trkpt lat="44.99939" lon="0.9272">
        <ele>159.585</ele>
        <time>2019-10-31T15:21:42.001Z</time>
      </trkpt>
      <trkpt lat="44.99967" lon="0.92628">
        <ele>164.69</ele>
        <time>2019-10-31T15:22:15.001Z</time>
      </trkpt>
      <trkpt lat="44.99891" lon="0.92577">
        <ele>164.66</ele>
        <time>2019-10-31T15:22:48.001Z</time>
      </trkpt>
      <trkpt lat="44.99819" lon="0.92496">
        <ele>175.349</ele>
        <time>2019-10-31T15:23:21.001Z</time>
      </trkpt>
      <trkpt lat="44.99755" lon="0.924">
        <ele>179.813</ele>
        <time>2019-10-31T15:23:54.001Z</time>
      </trkpt>
      <trkpt lat="44.99678" lon="0.9231">
        <ele>178.077</ele>
        <time>2019-10-31T15:24:27.001Z</time>
      </trkpt>
      <trkpt lat="44.99631" lon="0.92229">
        <ele>180.801</ele>
        <time>2019-10-31T15:25:00Z</time>
      </trkpt>
      <trkpt lat="44.99591" lon="0.92142">
        <ele>180.435</ele>
        <time>2019-10-31T15:25:36.001Z</time>
      </trkpt>
      <trkpt lat="44.99524" lon="0.92123">
        <ele>186.112</ele>
        <time>2019-10-31T15:26:09.001Z</time>
      </trkpt>
      <trkpt lat="44.99458" lon="0.92118">
        <ele>190.069</ele>
        <time>2019-10-31T15:26:42.001Z</time>
      </trkpt>
      <trkpt lat="44.99391" lon="0.92084">
        <ele>191.697</ele>
        <time>2019-10-31T15:27:15.001Z</time>
      </trkpt>
      <trkpt lat="44.99323" lon="0.92051">
        <ele>196.632</ele>
        <time>2019-10-31T15:27:48.001Z</time>
      </trkpt>
      <trkpt lat="44.99262" lon="0.92012">
        <ele>198.78</ele>
        <time>2019-10-31T15:28:21.001Z</time>
      </trkpt>
      <trkpt lat="44.99204" lon="0.91956">
        <ele>202.769</ele>
        <time>2019-10-31T15:28:54.001Z</time>
      </trkpt>
      <trkpt lat="44.99142" lon="0.91931">
        <ele>208.207</ele>
        <time>2019-10-31T15:29:27.001Z</time>
      </trkpt>
      <trkpt lat="44.99066" lon="0.91923">
        <ele>210.669</ele>
        <time>2019-10-31T15:30:00Z</time>
      </trkpt>
      <trkpt lat="44.99003" lon="0.9187">
        <ele>218.752</ele>
        <time>2019-10-31T15:30:36.001Z</time>
      </trkpt>
      <trkpt lat="44.98934" lon="0.91827">
        <ele>217.728</ele>
        <time>2019-10-31T15:31:09.001Z</time>
      </trkpt>
      <trkpt lat="44.98876" lon="0.91789">
        <ele>219.84</ele>
        <time>2019-10-31T15:31:45.001Z</time>
      </trkpt>
      <trkpt lat="44.98823" lon="0.9175">
        <ele>226.442</ele>
        <time>2019-10-31T15:32:24.001Z</time>
      </trkpt>
      <trkpt lat="44.98762" lon="0.91782">
        <ele>233.199</ele>
        <time>2019-10-31T15:33:06.001Z</time>
      </trkpt>
      <trkpt lat="44.98697" lon="0.91743">
        <ele>237.649</ele>
        <time>2019-10-31T15:33:39.001Z</time>
      </trkpt>
      <trkpt lat="44.98632" lon="0.91749">
        <ele>252.979</ele>
        <time>2019-10-31T15:34:15.001Z</time>
      </trkpt>
      <trkpt lat="44.98611" lon="0.91634">
        <ele>244.822</ele>
        <time>2019-10-31T15:34:48.001Z</time>
      </trkpt>
      <trkpt lat="44.9862" lon="0.91398">
        <ele>243.787</ele>
        <time>2019-10-31T15:35:24.001Z</time>
      </trkpt>
      <trkpt lat="44.98559" lon="0.91221">
        <ele>239.251</ele>
        <time>2019-10-31T15:35:57.001Z</time>
      </trkpt>
      <trkpt lat="44.98474" lon="0.91098">
        <ele>230.796</ele>
        <time>2019-10-31T15:36:30.001Z</time>
      </trkpt>
      <trkpt lat="44.98193" lon="0.90994">
        <ele>222.841</ele>
        <time>2019-10-31T15:37:03.001Z</time>
      </trkpt>
      <trkpt lat="44.97943" lon="0.90841">
        <ele>210.725</ele>
        <time>2019-10-31T15:37:36.001Z</time>
      </trkpt>
      <trkpt lat="44.97825" lon="0.90923">
        <ele>216.904</ele>
        <time>2019-10-31T15:38:09.001Z</time>
      </trkpt>
      <trkpt lat="44.97729" lon="0.90841">
        <ele>214.88</ele>
        <time>2019-10-31T15:38:42.001Z</time>
      </trkpt>
      <trkpt lat="44.97651" lon="0.9068">
        <ele>210.517</ele>
        <time>2019-10-31T15:39:15.001Z</time>
      </trkpt>
      <trkpt lat="44.97439" lon="0.90446">
        <ele>192.056</ele>
        <time>2019-10-31T15:39:51.001Z</time>
      </trkpt>
      <trkpt lat="44.97268" lon="0.90354">
        <ele>187.843</ele>
        <time>2019-10-31T15:40:51.001Z</time>
      </trkpt>
      <trkpt lat="44.97282" lon="0.90305">
        <ele>192.124</ele>
        <time>2019-10-31T15:41:30.001Z</time>
      </trkpt>
      <trkpt lat="44.97281" lon="0.90246">
        <ele>197.511</ele>
        <time>2019-10-31T15:43:18.001Z</time>
      </trkpt>
      <trkpt lat="44.9724" lon="0.90017">
        <ele>189.795</ele>
        <time>2019-10-31T15:43:51.001Z</time>
      </trkpt>
      <trkpt lat="44.97007" lon="0.90086">
        <ele>176.59</ele>
        <time>2019-10-31T15:44:24.001Z</time>
      </trkpt>
      <trkpt lat="44.96803" lon="0.90154">
        <ele>170.674</ele>
        <time>2019-10-31T15:44:57.001Z</time>
      </trkpt>
      <trkpt lat="44.96703" lon="0.90139">
        <ele>178.295</ele>
        <time>2019-10-31T15:45:33.001Z</time>
      </trkpt>
      <trkpt lat="44.96566" lon="0.90207">
        <ele>169.917</ele>
        <time>2019-10-31T15:46:06.001Z</time>
      </trkpt>
      <trkpt lat="44.96492" lon="0.90259">
        <ele>180.805</ele>
        <time>2019-10-31T15:46:48.001Z</time>
      </trkpt>
      <trkpt lat="44.96487" lon="0.9028">
        <ele>180.973</ele>
        <time>2019-10-31T15:49:15.001Z</time>
      </trkpt>
      <trkpt lat="44.96484" lon="0.90269">
        <ele>181.676</ele>
        <time>2019-10-31T15:50:12.001Z</time>
      </trkpt>
      <trkpt lat="44.96493" lon="0.90263">
        <ele>184.265</ele>
        <time>2019-10-31T15:56:45.001Z</time>
      </trkpt>
      <trkpt lat="44.96497" lon="0.90278">
        <ele>186.527</ele>
        <time>2019-10-31T15:58:36.001Z</time>
      </trkpt>
      <trkpt lat="44.96502" lon="0.90263">
        <ele>187.277</ele>
        <time>2019-10-31T16:00:15.001Z</time>
      </trkpt>
      <trkpt lat="44.965" lon="0.90278">
        <ele>217.857</ele>
        <time>2019-10-31T16:03:42.001Z</time>
      </trkpt>
      <trkpt lat="44.96535" lon="0.90263">
        <ele>176.753</ele>
        <time>2019-10-31T16:06:44.001Z</time>
      </trkpt>
    </trkseg>
  </trk>
  <trk>
    <name><![CDATA[Tracé 20191006-100734]]></name>
    <trkseg>
      <trkpt lat="45.78592" lon="5.40836">
        <ele>303.381</ele>
        <time>2019-10-06T08:07:49Z</time>
      </trkpt>
      <trkpt lat="45.78602" lon="5.40811">
        <ele>310.399</ele>
        <time>2019-10-06T08:12:04Z</time>
      </trkpt>
      <trkpt lat="45.78625" lon="5.40715">
        <ele>314.727</ele>
        <time>2019-10-06T08:15:52Z</time>
      </trkpt>
      <trkpt lat="45.78538" lon="5.40673">
        <ele>310.654</ele>
        <time>2019-10-06T08:16:22Z</time>
      </trkpt>
      <trkpt lat="45.78645" lon="5.40651">
        <ele>304.982</ele>
        <time>2019-10-06T08:16:55Z</time>
      </trkpt>
      <trkpt lat="45.78964" lon="5.40734">
        <ele>282.291</ele>
        <time>2019-10-06T08:17:25Z</time>
      </trkpt>
      <trkpt lat="45.79278" lon="5.40851">
        <ele>261.385</ele>
        <time>2019-10-06T08:17:55Z</time>
      </trkpt>
      <trkpt lat="45.79375" lon="5.41072">
        <ele>254.822</ele>
        <time>2019-10-06T08:18:25Z</time>
      </trkpt>
      <trkpt lat="45.79372" lon="5.41188">
        <ele>253.61</ele>
        <time>2019-10-06T08:19:10Z</time>
      </trkpt>
      <trkpt lat="45.79399" lon="5.4128">
        <ele>249.918</ele>
        <time>2019-10-06T08:19:49Z</time>
      </trkpt>
      <trkpt lat="45.79554" lon="5.41524">
        <ele>241.528</ele>
        <time>2019-10-06T08:20:19Z</time>
      </trkpt>
      <trkpt lat="45.79579" lon="5.41559">
        <ele>239.75</ele>
        <time>2019-10-06T08:22:49Z</time>
      </trkpt>
      <trkpt lat="45.79587" lon="5.41582">
        <ele>242.063</ele>
        <time>2019-10-06T08:24:19Z</time>
      </trkpt>
      <trkpt lat="45.79749" lon="5.41846">
        <ele>225.625</ele>
        <time>2019-10-06T08:24:49Z</time>
      </trkpt>
      <trkpt lat="45.79957" lon="5.41972">
        <ele>216.703</ele>
        <time>2019-10-06T08:25:19Z</time>
      </trkpt>
      <trkpt lat="45.80064" lon="5.42056">
        <ele>217.77</ele>
        <time>2019-10-06T08:25:49Z</time>
      </trkpt>
      <trkpt lat="45.79964" lon="5.42142">
        <ele>219.914</ele>
        <time>2019-10-06T08:26:19Z</time>
      </trkpt>
      <trkpt lat="45.79992" lon="5.42335">
        <ele>219.274</ele>
        <time>2019-10-06T08:26:49Z</time>
      </trkpt>
      <trkpt lat="45.79994" lon="5.42489">
        <ele>227.041</ele>
        <time>2019-10-06T08:27:22Z</time>
      </trkpt>
      <trkpt lat="45.79894" lon="5.42585">
        <ele>225.1</ele>
        <time>2019-10-06T08:27:52Z</time>
      </trkpt>
      <trkpt lat="45.79823" lon="5.42734">
        <ele>225.658</ele>
        <time>2019-10-06T08:28:22Z</time>
      </trkpt>
      <trkpt lat="45.79742" lon="5.42922">
        <ele>222.308</ele>
        <time>2019-10-06T08:28:52Z</time>
      </trkpt>
      <trkpt lat="45.7965" lon="5.43046">
        <ele>223.961</ele>
        <time>2019-10-06T08:29:22Z</time>
      </trkpt>
      <trkpt lat="45.79516" lon="5.4311">
        <ele>227.396</ele>
        <time>2019-10-06T08:29:52Z</time>
      </trkpt>
      <trkpt lat="45.79382" lon="5.43212">
        <ele>221.77</ele>
        <time>2019-10-06T08:30:22Z</time>
      </trkpt>
      <trkpt lat="45.79283" lon="5.43318">
        <ele>225.187</ele>
        <time>2019-10-06T08:30:55Z</time>
      </trkpt>
      <trkpt lat="45.7916" lon="5.43395">
        <ele>224.306</ele>
        <time>2019-10-06T08:31:25Z</time>
      </trkpt>
      <trkpt lat="45.79072" lon="5.43482">
        <ele>226.58</ele>
        <time>2019-10-06T08:31:55Z</time>
      </trkpt>
      <trkpt lat="45.79002" lon="5.4354">
        <ele>233.801</ele>
        <time>2019-10-06T08:32:25Z</time>
      </trkpt>
      <trkpt lat="45.78958" lon="5.43536">
        <ele>241.962</ele>
        <time>2019-10-06T08:32:55Z</time>
      </trkpt>
      <trkpt lat="45.78913" lon="5.43199">
        <ele>224.889</ele>
        <time>2019-10-06T08:33:25Z</time>
      </trkpt>
      <trkpt lat="45.7876" lon="5.43206">
        <ele>223.95</ele>
        <time>2019-10-06T08:33:55Z</time>
      </trkpt>
      <trkpt lat="45.78611" lon="5.43225">
        <ele>223.936</ele>
        <time>2019-10-06T08:34:28Z</time>
      </trkpt>
      <trkpt lat="45.78505" lon="5.43218">
        <ele>223.492</ele>
        <time>2019-10-06T08:34:58Z</time>
      </trkpt>
      <trkpt lat="45.78357" lon="5.43217">
        <ele>224.381</ele>
        <time>2019-10-06T08:35:28Z</time>
      </trkpt>
      <trkpt lat="45.78217" lon="5.43213">
        <ele>228.703</ele>
        <time>2019-10-06T08:35:58Z</time>
      </trkpt>
      <trkpt lat="45.78108" lon="5.43296">
        <ele>228.477</ele>
        <time>2019-10-06T08:36:28Z</time>
      </trkpt>
      <trkpt lat="45.78003" lon="5.43404">
        <ele>227.692</ele>
        <time>2019-10-06T08:36:58Z</time>
      </trkpt>
      <trkpt lat="45.77908" lon="5.43599">
        <ele>225.752</ele>
        <time>2019-10-06T08:37:28Z</time>
      </trkpt>
      <trkpt lat="45.77827" lon="5.43476">
        <ele>225.772</ele>
        <time>2019-10-06T08:38:01Z</time>
      </trkpt>
      <trkpt lat="45.77764" lon="5.43328">
        <ele>228.467</ele>
        <time>2019-10-06T08:38:31Z</time>
      </trkpt>
      <trkpt lat="45.77603" lon="5.4335">
        <ele>228.484</ele>
        <time>2019-10-06T08:39:01Z</time>
      </trkpt>
      <trkpt lat="45.77496" lon="5.43321">
        <ele>225.862</ele>
        <time>2019-10-06T08:39:31Z</time>
      </trkpt>
      <trkpt lat="45.77357" lon="5.43234">
        <ele>224.87</ele>
        <time>2019-10-06T08:40:01Z</time>
      </trkpt>
      <trkpt lat="45.77239" lon="5.43083">
        <ele>229.242</ele>
        <time>2019-10-06T08:40:31Z</time>
      </trkpt>
      <trkpt lat="45.77187" lon="5.43137">
        <ele>221.729</ele>
        <time>2019-10-06T08:41:01Z</time>
      </trkpt>
      <trkpt lat="45.77115" lon="5.43235">
        <ele>226.453</ele>
        <time>2019-10-06T08:41:31Z</time>
      </trkpt>
      <trkpt lat="45.77087" lon="5.43362">
        <ele>232.493</ele>
        <time>2019-10-06T08:42:04Z</time>
      </trkpt>
      <trkpt lat="45.77028" lon="5.43329">
        <ele>225.456</ele>
        <time>2019-10-06T08:42:34Z</time>
      </trkpt>
      <trkpt lat="45.76979" lon="5.43162">
        <ele>227.528</ele>
        <time>2019-10-06T08:43:04Z</time>
      </trkpt>
      <trkpt lat="45.76919" lon="5.4298">
        <ele>229.272</ele>
        <time>2019-10-06T08:43:34Z</time>
      </trkpt>
      <trkpt lat="45.76817" lon="5.42793">
        <ele>227.041</ele>
        <time>2019-10-06T08:44:04Z</time>
      </trkpt>
      <trkpt lat="45.76743" lon="5.42639">
        <ele>232.135</ele>
        <time>2019-10-06T08:44:34Z</time>
      </trkpt>
      <trkpt lat="45.7663" lon="5.42544">
        <ele>234.107</ele>
        <time>2019-10-06T08:45:04Z</time>
      </trkpt>
      <trkpt lat="45.76481" lon="5.42459">
        <ele>228.377</ele>
        <time>2019-10-06T08:45:37Z</time>
      </trkpt>
      <trkpt lat="45.76352" lon="5.42462">
        <ele>234.407</ele>
        <time>2019-10-06T08:46:07Z</time>
      </trkpt>
      <trkpt lat="45.76206" lon="5.42461">
        <ele>237.627</ele>
        <time>2019-10-06T08:46:37Z</time>
      </trkpt>
      <trkpt lat="45.76088" lon="5.425">
        <ele>232.24</ele>
        <time>2019-10-06T08:47:07Z</time>
      </trkpt>
      <trkpt lat="45.76013" lon="5.42617">
        <ele>233.877</ele>
        <time>2019-10-06T08:47:37Z</time>
      </trkpt>
      <trkpt lat="45.7589" lon="5.42639">
        <ele>232.903</ele>
        <time>2019-10-06T08:48:07Z</time>
      </trkpt>
      <trkpt lat="45.75749" lon="5.42653">
        <ele>232.428</ele>
        <time>2019-10-06T08:48:37Z</time>
      </trkpt>
      <trkpt lat="45.75624" lon="5.42706">
        <ele>231.372</ele>
        <time>2019-10-06T08:49:10Z</time>
      </trkpt>
      <trkpt lat="45.75568" lon="5.42619">
        <ele>239.646</ele>
        <time>2019-10-06T08:49:40Z</time>
      </trkpt>
      <trkpt lat="45.7542" lon="5.42549">
        <ele>240.535</ele>
        <time>2019-10-06T08:50:10Z</time>
      </trkpt>
      <trkpt lat="45.75287" lon="5.42538">
        <ele>246.006</ele>
        <time>2019-10-06T08:50:40Z</time>
      </trkpt>
      <trkpt lat="45.75128" lon="5.42522">
        <ele>251.742</ele>
        <time>2019-10-06T08:51:10Z</time>
      </trkpt>
      <trkpt lat="45.74982" lon="5.42493">
        <ele>245.235</ele>
        <time>2019-10-06T08:51:40Z</time>
      </trkpt>
      <trkpt lat="45.74855" lon="5.42449">
        <ele>244.183</ele>
        <time>2019-10-06T08:52:10Z</time>
      </trkpt>
      <trkpt lat="45.74686" lon="5.4241">
        <ele>240.627</ele>
        <time>2019-10-06T08:52:43Z</time>
      </trkpt>
      <trkpt lat="45.74545" lon="5.42372">
        <ele>242.771</ele>
        <time>2019-10-06T08:53:13Z</time>
      </trkpt>
      <trkpt lat="45.74398" lon="5.42352">
        <ele>241.966</ele>
        <time>2019-10-06T08:53:43Z</time>
      </trkpt>
      <trkpt lat="45.74257" lon="5.4232">
        <ele>248.06</ele>
        <time>2019-10-06T08:54:13Z</time>
      </trkpt>
      <trkpt lat="45.74096" lon="5.42288">
        <ele>234.891</ele>
        <time>2019-10-06T08:54:43Z</time>
      </trkpt>
      <trkpt lat="45.73947" lon="5.42252">
        <ele>233.58</ele>
        <time>2019-10-06T08:55:13Z</time>
      </trkpt>
      <trkpt lat="45.73798" lon="5.42225">
        <ele>238.21</ele>
        <time>2019-10-06T08:55:43Z</time>
      </trkpt>
      <trkpt lat="45.73637" lon="5.42196">
        <ele>247.542</ele>
        <time>2019-10-06T08:56:16Z</time>
      </trkpt>
      <trkpt lat="45.73483" lon="5.42226">
        <ele>251.21</ele>
        <time>2019-10-06T08:56:46Z</time>
      </trkpt>
      <trkpt lat="45.73344" lon="5.42344">
        <ele>243.455</ele>
        <time>2019-10-06T08:57:16Z</time>
      </trkpt>
      <trkpt lat="45.73235" lon="5.42488">
        <ele>241.488</ele>
        <time>2019-10-06T08:57:46Z</time>
      </trkpt>
      <trkpt lat="45.73107" lon="5.42594">
        <ele>245.391</ele>
        <time>2019-10-06T08:58:16Z</time>
      </trkpt>
      <trkpt lat="45.72961" lon="5.42633">
        <ele>252.387</ele>
        <time>2019-10-06T08:58:46Z</time>
      </trkpt>
      <trkpt lat="45.72808" lon="5.42598">
        <ele>247.45</ele>
        <time>2019-10-06T08:59:16Z</time>
      </trkpt>
      <trkpt lat="45.72664" lon="5.42509">
        <ele>240.496</ele>
        <time>2019-10-06T08:59:46Z</time>
      </trkpt>
      <trkpt lat="45.72513" lon="5.42434">
        <ele>243.812</ele>
        <time>2019-10-06T09:00:19Z</time>
      </trkpt>
      <trkpt lat="45.72376" lon="5.42372">
        <ele>244.829</ele>
        <time>2019-10-06T09:00:49Z</time>
      </trkpt>
      <trkpt lat="45.72233" lon="5.42322">
        <ele>248.619</ele>
        <time>2019-10-06T09:01:19Z</time>
      </trkpt>
      <trkpt lat="45.72073" lon="5.42263">
        <ele>242.228</ele>
        <time>2019-10-06T09:01:49Z</time>
      </trkpt>
      <trkpt lat="45.71926" lon="5.42217">
        <ele>238.875</ele>
        <time>2019-10-06T09:02:19Z</time>
      </trkpt>
      <trkpt lat="45.71759" lon="5.42227">
        <ele>231.782</ele>
        <time>2019-10-06T09:02:49Z</time>
      </trkpt>
      <trkpt lat="45.71607" lon="5.42228">
        <ele>235.028</ele>
        <time>2019-10-06T09:03:19Z</time>
      </trkpt>
      <trkpt lat="45.71408" lon="5.42221">
        <ele>233.779</ele>
        <time>2019-10-06T09:03:52Z</time>
      </trkpt>
      <trkpt lat="45.7124" lon="5.42155">
        <ele>234.086</ele>
        <time>2019-10-06T09:04:22Z</time>
      </trkpt>
      <trkpt lat="45.71099" lon="5.42033">
        <ele>231.688</ele>
        <time>2019-10-06T09:04:52Z</time>
      </trkpt>
      <trkpt lat="45.70928" lon="5.42096">
        <ele>225.683</ele>
        <time>2019-10-06T09:05:22Z</time>
      </trkpt>
      <trkpt lat="45.70774" lon="5.4209">
        <ele>223.638</ele>
        <time>2019-10-06T09:05:52Z</time>
      </trkpt>
      <trkpt lat="45.70705" lon="5.4217">
        <ele>219.882</ele>
        <time>2019-10-06T09:06:22Z</time>
      </trkpt>
      <trkpt lat="45.7071" lon="5.42396">
        <ele>221.433</ele>
        <time>2019-10-06T09:06:52Z</time>
      </trkpt>
      <trkpt lat="45.70685" lon="5.42597">
        <ele>228.907</ele>
        <time>2019-10-06T09:07:25Z</time>
      </trkpt>
      <trkpt lat="45.70634" lon="5.4269">
        <ele>235.195</ele>
        <time>2019-10-06T09:07:55Z</time>
      </trkpt>
      <trkpt lat="45.70595" lon="5.42741">
        <ele>238.551</ele>
        <time>2019-10-06T09:08:25Z</time>
      </trkpt>
      <trkpt lat="45.70569" lon="5.42826">
        <ele>241.84</ele>
        <time>2019-10-06T09:08:55Z</time>
      </trkpt>
      <trkpt lat="45.70522" lon="5.42868">
        <ele>244.28</ele>
        <time>2019-10-06T09:09:25Z</time>
      </trkpt>
      <trkpt lat="45.7049" lon="5.42901">
        <ele>243.577</ele>
        <time>2019-10-06T09:12:31.001Z</time>
      </trkpt>
      <trkpt lat="45.70433" lon="5.42994">
        <ele>248.874</ele>
        <time>2019-10-06T09:13:01.001Z</time>
      </trkpt>
      <trkpt lat="45.70321" lon="5.43007">
        <ele>255.824</ele>
        <time>2019-10-06T09:13:37.001Z</time>
      </trkpt>
      <trkpt lat="45.70209" lon="5.43029">
        <ele>254.366</ele>
        <time>2019-10-06T09:14:07.001Z</time>
      </trkpt>
      <trkpt lat="45.70116" lon="5.43146">
        <ele>248.363</ele>
        <time>2019-10-06T09:14:37.001Z</time>
      </trkpt>
      <trkpt lat="45.70118" lon="5.43322">
        <ele>248.388</ele>
        <time>2019-10-06T09:15:07.001Z</time>
      </trkpt>
      <trkpt lat="45.69978" lon="5.4344">
        <ele>246.216</ele>
        <time>2019-10-06T09:15:37.001Z</time>
      </trkpt>
      <trkpt lat="45.69848" lon="5.43547">
        <ele>247.166</ele>
        <time>2019-10-06T09:16:07.001Z</time>
      </trkpt>
      <trkpt lat="45.69703" lon="5.4367">
        <ele>244.862</ele>
        <time>2019-10-06T09:16:37.001Z</time>
      </trkpt>
      <trkpt lat="45.69657" lon="5.43885">
        <ele>245.528</ele>
        <time>2019-10-06T09:17:10.001Z</time>
      </trkpt>
      <trkpt lat="45.69568" lon="5.44113">
        <ele>238.042</ele>
        <time>2019-10-06T09:17:40.001Z</time>
      </trkpt>
      <trkpt lat="45.69466" lon="5.44281">
        <ele>241.419</ele>
        <time>2019-10-06T09:18:10.001Z</time>
      </trkpt>
      <trkpt lat="45.69393" lon="5.44425">
        <ele>243.862</ele>
        <time>2019-10-06T09:18:40.001Z</time>
      </trkpt>
      <trkpt lat="45.69361" lon="5.44608">
        <ele>243.617</ele>
        <time>2019-10-06T09:19:10.001Z</time>
      </trkpt>
      <trkpt lat="45.69358" lon="5.44847">
        <ele>239.364</ele>
        <time>2019-10-06T09:19:40.001Z</time>
      </trkpt>
      <trkpt lat="45.69274" lon="5.45095">
        <ele>236.775</ele>
        <time>2019-10-06T09:20:10.001Z</time>
      </trkpt>
      <trkpt lat="45.69146" lon="5.45299">
        <ele>234.434</ele>
        <time>2019-10-06T09:20:43.001Z</time>
      </trkpt>
      <trkpt lat="45.68998" lon="5.45425">
        <ele>234.512</ele>
        <time>2019-10-06T09:21:13.001Z</time>
      </trkpt>
      <trkpt lat="45.68844" lon="5.45559">
        <ele>235.344</ele>
        <time>2019-10-06T09:21:43.001Z</time>
      </trkpt>
      <trkpt lat="45.68662" lon="5.45727">
        <ele>230.626</ele>
        <time>2019-10-06T09:22:13.001Z</time>
      </trkpt>
      <trkpt lat="45.68464" lon="5.45849">
        <ele>224.923</ele>
        <time>2019-10-06T09:22:43.001Z</time>
      </trkpt>
      <trkpt lat="45.68335" lon="5.45839">
        <ele>229.517</ele>
        <time>2019-10-06T09:23:13.001Z</time>
      </trkpt>
      <trkpt lat="45.68214" lon="5.45811">
        <ele>229.314</ele>
        <time>2019-10-06T09:23:43.001Z</time>
      </trkpt>
      <trkpt lat="45.68076" lon="5.45793">
        <ele>229.102</ele>
        <time>2019-10-06T09:24:13.001Z</time>
      </trkpt>
      <trkpt lat="45.67896" lon="5.4575">
        <ele>227.659</ele>
        <time>2019-10-06T09:24:46.001Z</time>
      </trkpt>
      <trkpt lat="45.67763" lon="5.45809">
        <ele>226.348</ele>
        <time>2019-10-06T09:25:16Z</time>
      </trkpt>
      <trkpt lat="45.67592" lon="5.46023">
        <ele>218.366</ele>
        <time>2019-10-06T09:25:46.001Z</time>
      </trkpt>
      <trkpt lat="45.67457" lon="5.46176">
        <ele>211.937</ele>
        <time>2019-10-06T09:26:16Z</time>
      </trkpt>
      <trkpt lat="45.67391" lon="5.46347">
        <ele>214.098</ele>
        <time>2019-10-06T09:26:46.001Z</time>
      </trkpt>
      <trkpt lat="45.67342" lon="5.46536">
        <ele>215.885</ele>
        <time>2019-10-06T09:27:16Z</time>
      </trkpt>
      <trkpt lat="45.67337" lon="5.4673">
        <ele>214.928</ele>
        <time>2019-10-06T09:27:46.001Z</time>
      </trkpt>
      <trkpt lat="45.67324" lon="5.46956">
        <ele>216.401</ele>
        <time>2019-10-06T09:28:19.001Z</time>
      </trkpt>
      <trkpt lat="45.67253" lon="5.47082">
        <ele>222.897</ele>
        <time>2019-10-06T09:28:49.001Z</time>
      </trkpt>
      <trkpt lat="45.67276" lon="5.47174">
        <ele>217.43</ele>
        <time>2019-10-06T09:29:19.001Z</time>
      </trkpt>
      <trkpt lat="45.67271" lon="5.47323">
        <ele>217.999</ele>
        <time>2019-10-06T09:29:49.001Z</time>
      </trkpt>
      <trkpt lat="45.67257" lon="5.47522">
        <ele>217.785</ele>
        <time>2019-10-06T09:30:19.001Z</time>
      </trkpt>
      <trkpt lat="45.67253" lon="5.4773">
        <ele>213.814</ele>
        <time>2019-10-06T09:30:49.001Z</time>
      </trkpt>
      <trkpt lat="45.67378" lon="5.47801">
        <ele>211.559</ele>
        <time>2019-10-06T09:31:19.001Z</time>
      </trkpt>
      <trkpt lat="45.67424" lon="5.4793">
        <ele>211.497</ele>
        <time>2019-10-06T09:31:52.001Z</time>
      </trkpt>
      <trkpt lat="45.67371" lon="5.48122">
        <ele>211.424</ele>
        <time>2019-10-06T09:32:22.001Z</time>
      </trkpt>
      <trkpt lat="45.67337" lon="5.4829">
        <ele>214.22</ele>
        <time>2019-10-06T09:32:52.001Z</time>
      </trkpt>
      <trkpt lat="45.67416" lon="5.48467">
        <ele>215.158</ele>
        <time>2019-10-06T09:33:22.001Z</time>
      </trkpt>
      <trkpt lat="45.67494" lon="5.48645">
        <ele>210.894</ele>
        <time>2019-10-06T09:33:52.001Z</time>
      </trkpt>
      <trkpt lat="45.67575" lon="5.48823">
        <ele>210.834</ele>
        <time>2019-10-06T09:34:22.001Z</time>
      </trkpt>
      <trkpt lat="45.67652" lon="5.48998">
        <ele>211.95</ele>
        <time>2019-10-06T09:34:52.001Z</time>
      </trkpt>
      <trkpt lat="45.67737" lon="5.49187">
        <ele>215.374</ele>
        <time>2019-10-06T09:35:25.001Z</time>
      </trkpt>
      <trkpt lat="45.67812" lon="5.49358">
        <ele>212.708</ele>
        <time>2019-10-06T09:35:55.001Z</time>
      </trkpt>
      <trkpt lat="45.67891" lon="5.49528">
        <ele>212.69</ele>
        <time>2019-10-06T09:36:25.001Z</time>
      </trkpt>
      <trkpt lat="45.68002" lon="5.49656">
        <ele>209.348</ele>
        <time>2019-10-06T09:36:55.001Z</time>
      </trkpt>
      <trkpt lat="45.68117" lon="5.49779">
        <ele>208.237</ele>
        <time>2019-10-06T09:37:25.001Z</time>
      </trkpt>
      <trkpt lat="45.68241" lon="5.49885">
        <ele>207.275</ele>
        <time>2019-10-06T09:37:55.001Z</time>
      </trkpt>
      <trkpt lat="45.6835" lon="5.50013">
        <ele>209.012</ele>
        <time>2019-10-06T09:38:25.001Z</time>
      </trkpt>
      <trkpt lat="45.68475" lon="5.5014">
        <ele>209.987</ele>
        <time>2019-10-06T09:38:58.001Z</time>
      </trkpt>
      <trkpt lat="45.68598" lon="5.50241">
        <ele>210.713</ele>
        <time>2019-10-06T09:39:28.001Z</time>
      </trkpt>
      <trkpt lat="45.68725" lon="5.50338">
        <ele>208.39</ele>
        <time>2019-10-06T09:39:58.001Z</time>
      </trkpt>
      <trkpt lat="45.68843" lon="5.50433">
        <ele>208.872</ele>
        <time>2019-10-06T09:40:28.001Z</time>
      </trkpt>
      <trkpt lat="45.68952" lon="5.50519">
        <ele>208.271</ele>
        <time>2019-10-06T09:40:58.001Z</time>
      </trkpt>
      <trkpt lat="45.69016" lon="5.5064">
        <ele>207.96</ele>
        <time>2019-10-06T09:41:28.001Z</time>
      </trkpt>
      <trkpt lat="45.69148" lon="5.50651">
        <ele>207.656</ele>
        <time>2019-10-06T09:41:58.001Z</time>
      </trkpt>
      <trkpt lat="45.69292" lon="5.50697">
        <ele>209.955</ele>
        <time>2019-10-06T09:42:31.001Z</time>
      </trkpt>
      <trkpt lat="45.69222" lon="5.50843">
        <ele>210.974</ele>
        <time>2019-10-06T09:43:01.001Z</time>
      </trkpt>
      <trkpt lat="45.69199" lon="5.51046">
        <ele>209.924</ele>
        <time>2019-10-06T09:43:31.001Z</time>
      </trkpt>
      <trkpt lat="45.69155" lon="5.51229">
        <ele>215.73</ele>
        <time>2019-10-06T09:44:01.001Z</time>
      </trkpt>
      <trkpt lat="45.69087" lon="5.51349">
        <ele>210.39</ele>
        <time>2019-10-06T09:44:31.001Z</time>
      </trkpt>
      <trkpt lat="45.69111" lon="5.5155">
        <ele>209.63</ele>
        <time>2019-10-06T09:45:01.001Z</time>
      </trkpt>
      <trkpt lat="45.69193" lon="5.51661">
        <ele>212.474</ele>
        <time>2019-10-06T09:45:31.001Z</time>
      </trkpt>
      <trkpt lat="45.69314" lon="5.5176">
        <ele>214.702</ele>
        <time>2019-10-06T09:46:01.001Z</time>
      </trkpt>
      <trkpt lat="45.69428" lon="5.51899">
        <ele>216.644</ele>
        <time>2019-10-06T09:46:34.001Z</time>
      </trkpt>
      <trkpt lat="45.69514" lon="5.5204">
        <ele>214.319</ele>
        <time>2019-10-06T09:47:04.001Z</time>
      </trkpt>
      <trkpt lat="45.69581" lon="5.52151">
        <ele>213.356</ele>
        <time>2019-10-06T09:47:34.001Z</time>
      </trkpt>
      <trkpt lat="45.6963" lon="5.52208">
        <ele>219.602</ele>
        <time>2019-10-06T09:48:04.001Z</time>
      </trkpt>
      <trkpt lat="45.69695" lon="5.52164">
        <ele>218.347</ele>
        <time>2019-10-06T09:48:34.001Z</time>
      </trkpt>
      <trkpt lat="45.6981" lon="5.52238">
        <ele>219.925</ele>
        <time>2019-10-06T09:49:04.001Z</time>
      </trkpt>
      <trkpt lat="45.69909" lon="5.52332">
        <ele>212.709</ele>
        <time>2019-10-06T09:49:34.001Z</time>
      </trkpt>
      <trkpt lat="45.69909" lon="5.5254">
        <ele>210.864</ele>
        <time>2019-10-06T09:50:07.001Z</time>
      </trkpt>
      <trkpt lat="45.69987" lon="5.52687">
        <ele>211.428</ele>
        <time>2019-10-06T09:50:37.001Z</time>
      </trkpt>
      <trkpt lat="45.7008" lon="5.52846">
        <ele>214.04</ele>
        <time>2019-10-06T09:51:07.001Z</time>
      </trkpt>
      <trkpt lat="45.70191" lon="5.52862">
        <ele>212.212</ele>
        <time>2019-10-06T09:51:37.001Z</time>
      </trkpt>
      <trkpt lat="45.70321" lon="5.52767">
        <ele>212.717</ele>
        <time>2019-10-06T09:52:07.001Z</time>
      </trkpt>
      <trkpt lat="45.70441" lon="5.5271">
        <ele>214.674</ele>
        <time>2019-10-06T09:52:37.001Z</time>
      </trkpt>
      <trkpt lat="45.70583" lon="5.52698">
        <ele>210.644</ele>
        <time>2019-10-06T09:53:07.001Z</time>
      </trkpt>
      <trkpt lat="45.70699" lon="5.52713">
        <ele>219.271</ele>
        <time>2019-10-06T09:53:40.001Z</time>
      </trkpt>
      <trkpt lat="45.70866" lon="5.52771">
        <ele>210.781</ele>
        <time>2019-10-06T09:54:10.001Z</time>
      </trkpt>
      <trkpt lat="45.70997" lon="5.5273">
        <ele>210.891</ele>
        <time>2019-10-06T09:54:40.001Z</time>
      </trkpt>
      <trkpt lat="45.71145" lon="5.52831">
        <ele>205.872</ele>
        <time>2019-10-06T09:55:10.001Z</time>
      </trkpt>
      <trkpt lat="45.71169" lon="5.53011">
        <ele>206.459</ele>
        <time>2019-10-06T09:55:40.001Z</time>
      </trkpt>
      <trkpt lat="45.71086" lon="5.53186">
        <ele>213.001</ele>
        <time>2019-10-06T09:56:10.001Z</time>
      </trkpt>
      <trkpt lat="45.71095" lon="5.53316">
        <ele>216.508</ele>
        <time>2019-10-06T09:56:40.001Z</time>
      </trkpt>
      <trkpt lat="45.71259" lon="5.53405">
        <ele>208.02</ele>
        <time>2019-10-06T09:57:13.001Z</time>
      </trkpt>
      <trkpt lat="45.71295" lon="5.53581">
        <ele>211.446</ele>
        <time>2019-10-06T09:57:43.001Z</time>
      </trkpt>
      <trkpt lat="45.71304" lon="5.53799">
        <ele>209.965</ele>
        <time>2019-10-06T09:58:13.001Z</time>
      </trkpt>
      <trkpt lat="45.71304" lon="5.54015">
        <ele>211.304</ele>
        <time>2019-10-06T09:58:43.001Z</time>
      </trkpt>
      <trkpt lat="45.71292" lon="5.54234">
        <ele>212.73</ele>
        <time>2019-10-06T09:59:13.001Z</time>
      </trkpt>
      <trkpt lat="45.71263" lon="5.54448">
        <ele>214.878</ele>
        <time>2019-10-06T09:59:43.001Z</time>
      </trkpt>
      <trkpt lat="45.71179" lon="5.5463">
        <ele>215.221</ele>
        <time>2019-10-06T10:00:13.001Z</time>
      </trkpt>
      <trkpt lat="45.71069" lon="5.54713">
        <ele>213.192</ele>
        <time>2019-10-06T10:00:46.001Z</time>
      </trkpt>
      <trkpt lat="45.71122" lon="5.5477">
        <ele>216.53</ele>
        <time>2019-10-06T10:01:16Z</time>
      </trkpt>
      <trkpt lat="45.71154" lon="5.54795">
        <ele>212.727</ele>
        <time>2019-10-06T10:02:19.001Z</time>
      </trkpt>
      <trkpt lat="45.71159" lon="5.548">
        <ele>210.84</ele>
        <time>2019-10-06T10:03:16Z</time>
      </trkpt>
      <trkpt lat="45.71135" lon="5.54785">
        <ele>210.053</ele>
        <time>2019-10-06T10:04:52.001Z</time>
      </trkpt>
      <trkpt lat="45.71208" lon="5.54838">
        <ele>215.891</ele>
        <time>2019-10-06T10:06:16Z</time>
      </trkpt>
      <trkpt lat="45.71304" lon="5.54912">
        <ele>215.573</ele>
        <time>2019-10-06T10:06:46.001Z</time>
      </trkpt>
      <trkpt lat="45.71285" lon="5.55088">
        <ele>214.795</ele>
        <time>2019-10-06T10:07:16Z</time>
      </trkpt>
      <trkpt lat="45.71188" lon="5.55142">
        <ele>210.74</ele>
        <time>2019-10-06T10:07:49.001Z</time>
      </trkpt>
      <trkpt lat="45.71086" lon="5.5525">
        <ele>208.598</ele>
        <time>2019-10-06T10:08:19.001Z</time>
      </trkpt>
      <trkpt lat="45.70978" lon="5.55378">
        <ele>208.268</ele>
        <time>2019-10-06T10:08:49.001Z</time>
      </trkpt>
      <trkpt lat="45.70882" lon="5.55479">
        <ele>208.542</ele>
        <time>2019-10-06T10:09:19.001Z</time>
      </trkpt>
      <trkpt lat="45.70759" lon="5.55538">
        <ele>211.659</ele>
        <time>2019-10-06T10:09:49.001Z</time>
      </trkpt>
      <trkpt lat="45.70623" lon="5.55556">
        <ele>211.75</ele>
        <time>2019-10-06T10:10:19.001Z</time>
      </trkpt>
      <trkpt lat="45.70467" lon="5.55575">
        <ele>208.392</ele>
        <time>2019-10-06T10:10:49.001Z</time>
      </trkpt>
      <trkpt lat="45.70305" lon="5.55513">
        <ele>207.808</ele>
        <time>2019-10-06T10:11:22.001Z</time>
      </trkpt>
      <trkpt lat="45.7016" lon="5.5544">
        <ele>208.035</ele>
        <time>2019-10-06T10:11:52.001Z</time>
      </trkpt>
      <trkpt lat="45.70017" lon="5.55396">
        <ele>207.43</ele>
        <time>2019-10-06T10:12:22.001Z</time>
      </trkpt>
      <trkpt lat="45.6986" lon="5.55341">
        <ele>207.187</ele>
        <time>2019-10-06T10:12:52.001Z</time>
      </trkpt>
      <trkpt lat="45.69759" lon="5.5549">
        <ele>204.783</ele>
        <time>2019-10-06T10:13:22.001Z</time>
      </trkpt>
      <trkpt lat="45.69676" lon="5.55652">
        <ele>207.137</ele>
        <time>2019-10-06T10:13:52.001Z</time>
      </trkpt>
      <trkpt lat="45.69527" lon="5.55654">
        <ele>208.735</ele>
        <time>2019-10-06T10:14:22.001Z</time>
      </trkpt>
      <trkpt lat="45.6939" lon="5.55772">
        <ele>210.394</ele>
        <time>2019-10-06T10:14:55.001Z</time>
      </trkpt>
      <trkpt lat="45.69267" lon="5.55856">
        <ele>205.561</ele>
        <time>2019-10-06T10:15:25.001Z</time>
      </trkpt>
      <trkpt lat="45.69109" lon="5.55852">
        <ele>206.775</ele>
        <time>2019-10-06T10:15:55.001Z</time>
      </trkpt>
      <trkpt lat="45.68959" lon="5.55882">
        <ele>208.402</ele>
        <time>2019-10-06T10:16:25.001Z</time>
      </trkpt>
      <trkpt lat="45.68818" lon="5.55947">
        <ele>206.509</ele>
        <time>2019-10-06T10:16:55.001Z</time>
      </trkpt>
      <trkpt lat="45.68683" lon="5.56022">
        <ele>208.171</ele>
        <time>2019-10-06T10:17:25.001Z</time>
      </trkpt>
      <trkpt lat="45.68584" lon="5.56139">
        <ele>209.447</ele>
        <time>2019-10-06T10:17:55.001Z</time>
      </trkpt>
      <trkpt lat="45.68453" lon="5.56284">
        <ele>207.073</ele>
        <time>2019-10-06T10:18:28.001Z</time>
      </trkpt>
      <trkpt lat="45.68395" lon="5.56457">
        <ele>206.513</ele>
        <time>2019-10-06T10:18:58.001Z</time>
      </trkpt>
      <trkpt lat="45.68353" lon="5.56636">
        <ele>207.91</ele>
        <time>2019-10-06T10:19:28.001Z</time>
      </trkpt>
      <trkpt lat="45.68285" lon="5.56765">
        <ele>207.937</ele>
        <time>2019-10-06T10:19:58.001Z</time>
      </trkpt>
      <trkpt lat="45.68169" lon="5.56856">
        <ele>209.468</ele>
        <time>2019-10-06T10:20:28.001Z</time>
      </trkpt>
      <trkpt lat="45.68061" lon="5.56962">
        <ele>209.817</ele>
        <time>2019-10-06T10:20:58.001Z</time>
      </trkpt>
      <trkpt lat="45.67926" lon="5.57012">
        <ele>216.961</ele>
        <time>2019-10-06T10:21:28.001Z</time>
      </trkpt>
      <trkpt lat="45.67775" lon="5.56978">
        <ele>220.565</ele>
        <time>2019-10-06T10:22:01.001Z</time>
      </trkpt>
      <trkpt lat="45.67627" lon="5.56986">
        <ele>212.218</ele>
        <time>2019-10-06T10:22:31.001Z</time>
      </trkpt>
      <trkpt lat="45.6755" lon="5.57092">
        <ele>208.571</ele>
        <time>2019-10-06T10:23:01.001Z</time>
      </trkpt>
      <trkpt lat="45.67501" lon="5.57146">
        <ele>215.527</ele>
        <time>2019-10-06T10:23:31.001Z</time>
      </trkpt>
      <trkpt lat="45.67451" lon="5.57195">
        <ele>222.631</ele>
        <time>2019-10-06T10:24:01.001Z</time>
      </trkpt>
      <trkpt lat="45.67402" lon="5.57274">
        <ele>225.608</ele>
        <time>2019-10-06T10:24:31.001Z</time>
      </trkpt>
      <trkpt lat="45.67395" lon="5.57397">
        <ele>230.963</ele>
        <time>2019-10-06T10:25:01.001Z</time>
      </trkpt>
      <trkpt lat="45.67299" lon="5.57643">
        <ele>225.253</ele>
        <time>2019-10-06T10:25:34.001Z</time>
      </trkpt>
      <trkpt lat="45.67176" lon="5.57562">
        <ele>223.356</ele>
        <time>2019-10-06T10:26:04.001Z</time>
      </trkpt>
      <trkpt lat="45.67084" lon="5.57536">
        <ele>213.265</ele>
        <time>2019-10-06T10:26:34.001Z</time>
      </trkpt>
      <trkpt lat="45.67031" lon="5.57694">
        <ele>207.026</ele>
        <time>2019-10-06T10:27:04.001Z</time>
      </trkpt>
      <trkpt lat="45.66972" lon="5.57881">
        <ele>207.17</ele>
        <time>2019-10-06T10:27:34.001Z</time>
      </trkpt>
      <trkpt lat="45.66929" lon="5.58071">
        <ele>208.558</ele>
        <time>2019-10-06T10:28:04.001Z</time>
      </trkpt>
      <trkpt lat="45.66905" lon="5.58247">
        <ele>213.765</ele>
        <time>2019-10-06T10:28:34.001Z</time>
      </trkpt>
      <trkpt lat="45.66834" lon="5.58454">
        <ele>210.435</ele>
        <time>2019-10-06T10:29:04.001Z</time>
      </trkpt>
      <trkpt lat="45.66756" lon="5.58659">
        <ele>211.432</ele>
        <time>2019-10-06T10:29:37.001Z</time>
      </trkpt>
      <trkpt lat="45.66645" lon="5.58807">
        <ele>210.932</ele>
        <time>2019-10-06T10:30:07.001Z</time>
      </trkpt>
      <trkpt lat="45.66524" lon="5.5893">
        <ele>207.267</ele>
        <time>2019-10-06T10:30:37.001Z</time>
      </trkpt>
      <trkpt lat="45.66389" lon="5.59019">
        <ele>204.142</ele>
        <time>2019-10-06T10:31:07.001Z</time>
      </trkpt>
      <trkpt lat="45.66257" lon="5.59125">
        <ele>203.951</ele>
        <time>2019-10-06T10:31:37.001Z</time>
      </trkpt>
      <trkpt lat="45.66142" lon="5.59272">
        <ele>210.166</ele>
        <time>2019-10-06T10:32:07.001Z</time>
      </trkpt>
      <trkpt lat="45.66064" lon="5.59463">
        <ele>214.523</ele>
        <time>2019-10-06T10:32:37.001Z</time>
      </trkpt>
      <trkpt lat="45.66016" lon="5.59697">
        <ele>218.88</ele>
        <time>2019-10-06T10:33:10.001Z</time>
      </trkpt>
      <trkpt lat="45.65962" lon="5.59911">
        <ele>216.463</ele>
        <time>2019-10-06T10:33:40.001Z</time>
      </trkpt>
      <trkpt lat="45.65883" lon="5.60086">
        <ele>211.665</ele>
        <time>2019-10-06T10:34:10.001Z</time>
      </trkpt>
      <trkpt lat="45.65781" lon="5.60234">
        <ele>206.529</ele>
        <time>2019-10-06T10:34:40.001Z</time>
      </trkpt>
      <trkpt lat="45.65671" lon="5.6037">
        <ele>202.939</ele>
        <time>2019-10-06T10:35:10.001Z</time>
      </trkpt>
      <trkpt lat="45.65599" lon="5.6049">
        <ele>209.96</ele>
        <time>2019-10-06T10:35:40.001Z</time>
      </trkpt>
      <trkpt lat="45.65533" lon="5.60544">
        <ele>209.13</ele>
        <time>2019-10-06T10:39:19.001Z</time>
      </trkpt>
      <trkpt lat="45.65449" lon="5.60515">
        <ele>214.255</ele>
        <time>2019-10-06T10:39:52.001Z</time>
      </trkpt>
      <trkpt lat="45.65403" lon="5.60356">
        <ele>216.331</ele>
        <time>2019-10-06T10:40:22.001Z</time>
      </trkpt>
      <trkpt lat="45.65338" lon="5.60291">
        <ele>214.412</ele>
        <time>2019-10-06T10:40:52.001Z</time>
      </trkpt>
      <trkpt lat="45.65252" lon="5.60372">
        <ele>216.47</ele>
        <time>2019-10-06T10:41:22.001Z</time>
      </trkpt>
      <trkpt lat="45.65163" lon="5.60445">
        <ele>211.677</ele>
        <time>2019-10-06T10:41:52.001Z</time>
      </trkpt>
      <trkpt lat="45.65071" lon="5.60531">
        <ele>210.201</ele>
        <time>2019-10-06T10:42:22.001Z</time>
      </trkpt>
      <trkpt lat="45.64975" lon="5.60608">
        <ele>215.857</ele>
        <time>2019-10-06T10:42:52.001Z</time>
      </trkpt>
      <trkpt lat="45.64839" lon="5.60693">
        <ele>215.283</ele>
        <time>2019-10-06T10:43:25.001Z</time>
      </trkpt>
      <trkpt lat="45.64706" lon="5.60778">
        <ele>214.311</ele>
        <time>2019-10-06T10:43:55.001Z</time>
      </trkpt>
      <trkpt lat="45.64566" lon="5.60865">
        <ele>215.562</ele>
        <time>2019-10-06T10:44:25.001Z</time>
      </trkpt>
      <trkpt lat="45.64431" lon="5.60948">
        <ele>214.996</ele>
        <time>2019-10-06T10:44:55.001Z</time>
      </trkpt>
      <trkpt lat="45.64295" lon="5.61031">
        <ele>218.974</ele>
        <time>2019-10-06T10:45:25.001Z</time>
      </trkpt>
      <trkpt lat="45.64163" lon="5.61117">
        <ele>215.719</ele>
        <time>2019-10-06T10:45:55.001Z</time>
      </trkpt>
      <trkpt lat="45.6404" lon="5.61226">
        <ele>216.575</ele>
        <time>2019-10-06T10:46:25.001Z</time>
      </trkpt>
      <trkpt lat="45.63928" lon="5.61386">
        <ele>215.194</ele>
        <time>2019-10-06T10:46:58.001Z</time>
      </trkpt>
      <trkpt lat="45.63848" lon="5.61558">
        <ele>213.576</ele>
        <time>2019-10-06T10:47:28.001Z</time>
      </trkpt>
      <trkpt lat="45.63797" lon="5.61729">
        <ele>217.487</ele>
        <time>2019-10-06T10:47:58.001Z</time>
      </trkpt>
      <trkpt lat="45.63775" lon="5.61897">
        <ele>217.165</ele>
        <time>2019-10-06T10:48:28.001Z</time>
      </trkpt>
      <trkpt lat="45.63773" lon="5.62099">
        <ele>218.409</ele>
        <time>2019-10-06T10:48:58.001Z</time>
      </trkpt>
      <trkpt lat="45.63724" lon="5.62208">
        <ele>220.209</ele>
        <time>2019-10-06T10:49:28.001Z</time>
      </trkpt>
      <trkpt lat="45.63693" lon="5.62263">
        <ele>224.832</ele>
        <time>2019-10-06T10:49:58.001Z</time>
      </trkpt>
      <trkpt lat="45.63798" lon="5.62289">
        <ele>229.579</ele>
        <time>2019-10-06T10:50:31.001Z</time>
      </trkpt>
      <trkpt lat="45.63916" lon="5.62324">
        <ele>229.507</ele>
        <time>2019-10-06T10:51:01.001Z</time>
      </trkpt>
      <trkpt lat="45.64036" lon="5.62433">
        <ele>228.057</ele>
        <time>2019-10-06T10:51:31.001Z</time>
      </trkpt>
      <trkpt lat="45.64133" lon="5.62567">
        <ele>232.033</ele>
        <time>2019-10-06T10:52:01.001Z</time>
      </trkpt>
      <trkpt lat="45.64134" lon="5.62781">
        <ele>234.657</ele>
        <time>2019-10-06T10:52:31.001Z</time>
      </trkpt>
      <trkpt lat="45.64105" lon="5.6301">
        <ele>225.527</ele>
        <time>2019-10-06T10:53:01.001Z</time>
      </trkpt>
      <trkpt lat="45.6407" lon="5.63204">
        <ele>218.525</ele>
        <time>2019-10-06T10:53:31.001Z</time>
      </trkpt>
      <trkpt lat="45.64049" lon="5.63434">
        <ele>214.053</ele>
        <time>2019-10-06T10:54:01.001Z</time>
      </trkpt>
      <trkpt lat="45.64071" lon="5.6368">
        <ele>216.737</ele>
        <time>2019-10-06T10:54:34.001Z</time>
      </trkpt>
      <trkpt lat="45.64076" lon="5.63764">
        <ele>218.691</ele>
        <time>2019-10-06T10:55:28.001Z</time>
      </trkpt>
      <trkpt lat="45.64082" lon="5.63951">
        <ele>222.781</ele>
        <time>2019-10-06T10:55:58.001Z</time>
      </trkpt>
      <trkpt lat="45.6407" lon="5.64171">
        <ele>215.388</ele>
        <time>2019-10-06T10:56:28.001Z</time>
      </trkpt>
      <trkpt lat="45.6399" lon="5.64281">
        <ele>215.544</ele>
        <time>2019-10-06T10:56:58.001Z</time>
      </trkpt>
      <trkpt lat="45.6401" lon="5.64462">
        <ele>217.069</ele>
        <time>2019-10-06T10:57:28.001Z</time>
      </trkpt>
      <trkpt lat="45.63985" lon="5.64663">
        <ele>215.465</ele>
        <time>2019-10-06T10:57:58.001Z</time>
      </trkpt>
      <trkpt lat="45.63954" lon="5.64804">
        <ele>218.023</ele>
        <time>2019-10-06T11:00:19.001Z</time>
      </trkpt>
      <trkpt lat="45.64011" lon="5.64793">
        <ele>220.701</ele>
        <time>2019-10-06T11:00:52.001Z</time>
      </trkpt>
      <trkpt lat="45.64005" lon="5.6467">
        <ele>221.793</ele>
        <time>2019-10-06T11:01:25.001Z</time>
      </trkpt>
      <trkpt lat="45.6404" lon="5.64471">
        <ele>218.214</ele>
        <time>2019-10-06T11:01:55.001Z</time>
      </trkpt>
      <trkpt lat="45.64029" lon="5.64315">
        <ele>223.619</ele>
        <time>2019-10-06T11:02:25.001Z</time>
      </trkpt>
      <trkpt lat="45.63957" lon="5.64264">
        <ele>226.957</ele>
        <time>2019-10-06T11:02:55.001Z</time>
      </trkpt>
      <trkpt lat="45.63867" lon="5.64192">
        <ele>222.45</ele>
        <time>2019-10-06T11:03:28.001Z</time>
      </trkpt>
      <trkpt lat="45.63851" lon="5.64296">
        <ele>216.267</ele>
        <time>2019-10-06T11:04:01.001Z</time>
      </trkpt>
      <trkpt lat="45.63765" lon="5.6418">
        <ele>217.907</ele>
        <time>2019-10-06T11:04:31.001Z</time>
      </trkpt>
      <trkpt lat="45.6364" lon="5.64107">
        <ele>221.374</ele>
        <time>2019-10-06T11:05:01.001Z</time>
      </trkpt>
      <trkpt lat="45.63612" lon="5.64113">
        <ele>215.845</ele>
        <time>2019-10-06T11:06:19.001Z</time>
      </trkpt>
      <trkpt lat="45.63607" lon="5.64108">
        <ele>216.813</ele>
        <time>2019-10-06T11:07:16Z</time>
      </trkpt>
      <trkpt lat="45.63614" lon="5.64118">
        <ele>214.555</ele>
        <time>2019-10-06T11:08:34.001Z</time>
      </trkpt>
      <trkpt lat="45.63614" lon="5.64117">
        <ele>214.593</ele>
        <time>2019-10-06T11:09:58.001Z</time>
      </trkpt>
      <trkpt lat="45.63613" lon="5.64116">
        <ele>214.912</ele>
        <time>2019-10-06T11:12:49.001Z</time>
      </trkpt>
      <trkpt lat="45.63619" lon="5.64117">
        <ele>214.805</ele>
        <time>2019-10-06T11:16:01.001Z</time>
      </trkpt>
      <trkpt lat="45.6367" lon="5.64166">
        <ele>216.082</ele>
        <time>2019-10-06T11:17:10.001Z</time>
      </trkpt>
      <trkpt lat="45.63702" lon="5.64217">
        <ele>214.623</ele>
        <time>2019-10-06T11:18:16Z</time>
      </trkpt>
      <trkpt lat="45.63699" lon="5.64209">
        <ele>214.424</ele>
        <time>2019-10-06T11:19:58.001Z</time>
      </trkpt>
      <trkpt lat="45.637" lon="5.6421">
        <ele>214.742</ele>
        <time>2019-10-06T11:22:46.001Z</time>
      </trkpt>
      <trkpt lat="45.637" lon="5.6421">
        <ele>214.742</ele>
        <time>2019-10-06T11:28:22.001Z</time>
      </trkpt>
      <trkpt lat="45.63701" lon="5.6421">
        <ele>214.755</ele>
        <time>2019-10-06T11:44:34.001Z</time>
      </trkpt>
      <trkpt lat="45.637" lon="5.6421">
        <ele>215.546</ele>
        <time>2019-10-06T11:48:01.001Z</time>
      </trkpt>
      <trkpt lat="45.63666" lon="5.64162">
        <ele>218.393</ele>
        <time>2019-10-06T11:51:31.001Z</time>
      </trkpt>
      <trkpt lat="45.63604" lon="5.64114">
        <ele>217.947</ele>
        <time>2019-10-06T11:52:01.001Z</time>
      </trkpt>
      <trkpt lat="45.63517" lon="5.64153">
        <ele>218.172</ele>
        <time>2019-10-06T11:52:31.001Z</time>
      </trkpt>
      <trkpt lat="45.63453" lon="5.64291">
        <ele>223.165</ele>
        <time>2019-10-06T11:53:01.001Z</time>
      </trkpt>
      <trkpt lat="45.63412" lon="5.64481">
        <ele>221.626</ele>
        <time>2019-10-06T11:53:31.001Z</time>
      </trkpt>
      <trkpt lat="45.63422" lon="5.64711">
        <ele>216.862</ele>
        <time>2019-10-06T11:54:01.001Z</time>
      </trkpt>
      <trkpt lat="45.63561" lon="5.64907">
        <ele>212.015</ele>
        <time>2019-10-06T11:54:34.001Z</time>
      </trkpt>
      <trkpt lat="45.63667" lon="5.65058">
        <ele>214.195</ele>
        <time>2019-10-06T11:55:04.001Z</time>
      </trkpt>
      <trkpt lat="45.63731" lon="5.65236">
        <ele>212.229</ele>
        <time>2019-10-06T11:55:34.001Z</time>
      </trkpt>
      <trkpt lat="45.6367" lon="5.65354">
        <ele>216.365</ele>
        <time>2019-10-06T11:56:04.001Z</time>
      </trkpt>
      <trkpt lat="45.63586" lon="5.65408">
        <ele>218.591</ele>
        <time>2019-10-06T11:56:34.001Z</time>
      </trkpt>
      <trkpt lat="45.63488" lon="5.65554">
        <ele>219.257</ele>
        <time>2019-10-06T11:57:04.001Z</time>
      </trkpt>
      <trkpt lat="45.63325" lon="5.65521">
        <ele>213.412</ele>
        <time>2019-10-06T11:57:34.001Z</time>
      </trkpt>
      <trkpt lat="45.6318" lon="5.65426">
        <ele>214.482</ele>
        <time>2019-10-06T11:58:07.001Z</time>
      </trkpt>
      <trkpt lat="45.63042" lon="5.6535">
        <ele>216.524</ele>
        <time>2019-10-06T11:58:37.001Z</time>
      </trkpt>
      <trkpt lat="45.62884" lon="5.65341">
        <ele>214.761</ele>
        <time>2019-10-06T11:59:07.001Z</time>
      </trkpt>
      <trkpt lat="45.62745" lon="5.65274">
        <ele>213.935</ele>
        <time>2019-10-06T11:59:37.001Z</time>
      </trkpt>
      <trkpt lat="45.6262" lon="5.65182">
        <ele>213.432</ele>
        <time>2019-10-06T12:00:07.001Z</time>
      </trkpt>
      <trkpt lat="45.62543" lon="5.65109">
        <ele>214.886</ele>
        <time>2019-10-06T12:00:40.001Z</time>
      </trkpt>
      <trkpt lat="45.62602" lon="5.65169">
        <ele>212.786</ele>
        <time>2019-10-06T12:01:55.001Z</time>
      </trkpt>
      <trkpt lat="45.62739" lon="5.65272">
        <ele>213.117</ele>
        <time>2019-10-06T12:02:28.001Z</time>
      </trkpt>
      <trkpt lat="45.62872" lon="5.65337">
        <ele>211.079</ele>
        <time>2019-10-06T12:02:58.001Z</time>
      </trkpt>
      <trkpt lat="45.63004" lon="5.65347">
        <ele>212.414</ele>
        <time>2019-10-06T12:03:28.001Z</time>
      </trkpt>
      <trkpt lat="45.63083" lon="5.65425">
        <ele>215.718</ele>
        <time>2019-10-06T12:03:58.001Z</time>
      </trkpt>
      <trkpt lat="45.63184" lon="5.65548">
        <ele>210.728</ele>
        <time>2019-10-06T12:04:28.001Z</time>
      </trkpt>
      <trkpt lat="45.63188" lon="5.65559">
        <ele>210.657</ele>
        <time>2019-10-06T12:06:43.001Z</time>
      </trkpt>
      <trkpt lat="45.63089" lon="5.65459">
        <ele>212.212</ele>
        <time>2019-10-06T12:07:13.001Z</time>
      </trkpt>
      <trkpt lat="45.63162" lon="5.65415">
        <ele>215.789</ele>
        <time>2019-10-06T12:07:46.001Z</time>
      </trkpt>
      <trkpt lat="45.6329" lon="5.65501">
        <ele>216.768</ele>
        <time>2019-10-06T12:08:16Z</time>
      </trkpt>
      <trkpt lat="45.63417" lon="5.65592">
        <ele>215.092</ele>
        <time>2019-10-06T12:08:46.001Z</time>
      </trkpt>
      <trkpt lat="45.6354" lon="5.65719">
        <ele>213.667</ele>
        <time>2019-10-06T12:09:16Z</time>
      </trkpt>
      <trkpt lat="45.63655" lon="5.65868">
        <ele>210.758</ele>
        <time>2019-10-06T12:09:46.001Z</time>
      </trkpt>
      <trkpt lat="45.63683" lon="5.66078">
        <ele>211.123</ele>
        <time>2019-10-06T12:10:16Z</time>
      </trkpt>
      <trkpt lat="45.63677" lon="5.66296">
        <ele>211.341</ele>
        <time>2019-10-06T12:10:46.001Z</time>
      </trkpt>
      <trkpt lat="45.6367" lon="5.66535">
        <ele>211.557</ele>
        <time>2019-10-06T12:11:19.002Z</time>
      </trkpt>
      <trkpt lat="45.63664" lon="5.66754">
        <ele>210.493</ele>
        <time>2019-10-06T12:11:49.001Z</time>
      </trkpt>
      <trkpt lat="45.63657" lon="5.66972">
        <ele>210.404</ele>
        <time>2019-10-06T12:12:19.001Z</time>
      </trkpt>
      <trkpt lat="45.63651" lon="5.67201">
        <ele>212.015</ele>
        <time>2019-10-06T12:12:49.001Z</time>
      </trkpt>
      <trkpt lat="45.63647" lon="5.67425">
        <ele>215.129</ele>
        <time>2019-10-06T12:13:19.001Z</time>
      </trkpt>
      <trkpt lat="45.63652" lon="5.67646">
        <ele>211.359</ele>
        <time>2019-10-06T12:13:49.001Z</time>
      </trkpt>
      <trkpt lat="45.63718" lon="5.67754">
        <ele>215.839</ele>
        <time>2019-10-06T12:14:19.001Z</time>
      </trkpt>
      <trkpt lat="45.63775" lon="5.67949">
        <ele>217.514</ele>
        <time>2019-10-06T12:14:52.001Z</time>
      </trkpt>
      <trkpt lat="45.63831" lon="5.68142">
        <ele>216.937</ele>
        <time>2019-10-06T12:15:22.001Z</time>
      </trkpt>
      <trkpt lat="45.63826" lon="5.68348">
        <ele>212.84</ele>
        <time>2019-10-06T12:15:52.001Z</time>
      </trkpt>
      <trkpt lat="45.63848" lon="5.68549">
        <ele>212.075</ele>
        <time>2019-10-06T12:16:22.001Z</time>
      </trkpt>
      <trkpt lat="45.6392" lon="5.68722">
        <ele>213.364</ele>
        <time>2019-10-06T12:16:52.001Z</time>
      </trkpt>
      <trkpt lat="45.64032" lon="5.68892">
        <ele>213.081</ele>
        <time>2019-10-06T12:17:22.001Z</time>
      </trkpt>
      <trkpt lat="45.64156" lon="5.69027">
        <ele>216.091</ele>
        <time>2019-10-06T12:17:52.001Z</time>
      </trkpt>
      <trkpt lat="45.64299" lon="5.69123">
        <ele>214.625</ele>
        <time>2019-10-06T12:18:22.001Z</time>
      </trkpt>
      <trkpt lat="45.6442" lon="5.69282">
        <ele>215.511</ele>
        <time>2019-10-06T12:18:55.001Z</time>
      </trkpt>
      <trkpt lat="45.6457" lon="5.69285">
        <ele>216.834</ele>
        <time>2019-10-06T12:19:25.001Z</time>
      </trkpt>
      <trkpt lat="45.64717" lon="5.6931">
        <ele>210.65</ele>
        <time>2019-10-06T12:19:55.001Z</time>
      </trkpt>
      <trkpt lat="45.6485" lon="5.69207">
        <ele>211.45</ele>
        <time>2019-10-06T12:20:25.001Z</time>
      </trkpt>
      <trkpt lat="45.64983" lon="5.69131">
        <ele>213.693</ele>
        <time>2019-10-06T12:20:55.001Z</time>
      </trkpt>
      <trkpt lat="45.65137" lon="5.69093">
        <ele>214.274</ele>
        <time>2019-10-06T12:21:25.001Z</time>
      </trkpt>
      <trkpt lat="45.65199" lon="5.69009">
        <ele>217.654</ele>
        <time>2019-10-06T12:21:55.001Z</time>
      </trkpt>
      <trkpt lat="45.65346" lon="5.68952">
        <ele>216.446</ele>
        <time>2019-10-06T12:22:28.001Z</time>
      </trkpt>
      <trkpt lat="45.65495" lon="5.68892">
        <ele>216.355</ele>
        <time>2019-10-06T12:22:58.001Z</time>
      </trkpt>
      <trkpt lat="45.65646" lon="5.6883">
        <ele>216.314</ele>
        <time>2019-10-06T12:23:28.001Z</time>
      </trkpt>
      <trkpt lat="45.65801" lon="5.68767">
        <ele>216.38</ele>
        <time>2019-10-06T12:23:58.001Z</time>
      </trkpt>
      <trkpt lat="45.65955" lon="5.68705">
        <ele>215.33</ele>
        <time>2019-10-06T12:24:28.001Z</time>
      </trkpt>
      <trkpt lat="45.66115" lon="5.68641">
        <ele>215.772</ele>
        <time>2019-10-06T12:24:58.001Z</time>
      </trkpt>
      <trkpt lat="45.66163" lon="5.6881">
        <ele>216.514</ele>
        <time>2019-10-06T12:25:28.001Z</time>
      </trkpt>
      <trkpt lat="45.66236" lon="5.68876">
        <ele>212.363</ele>
        <time>2019-10-06T12:26:01.001Z</time>
      </trkpt>
      <trkpt lat="45.66355" lon="5.68743">
        <ele>213.661</ele>
        <time>2019-10-06T12:26:31.001Z</time>
      </trkpt>
      <trkpt lat="45.66495" lon="5.68738">
        <ele>214.598</ele>
        <time>2019-10-06T12:27:01.001Z</time>
      </trkpt>
      <trkpt lat="45.6662" lon="5.68854">
        <ele>213.818</ele>
        <time>2019-10-06T12:27:31.001Z</time>
      </trkpt>
      <trkpt lat="45.66726" lon="5.69019">
        <ele>215.293</ele>
        <time>2019-10-06T12:28:01.001Z</time>
      </trkpt>
      <trkpt lat="45.66816" lon="5.69198">
        <ele>216.916</ele>
        <time>2019-10-06T12:28:31.001Z</time>
      </trkpt>
      <trkpt lat="45.669" lon="5.69367">
        <ele>215.48</ele>
        <time>2019-10-06T12:29:01.001Z</time>
      </trkpt>
      <trkpt lat="45.66956" lon="5.6947">
        <ele>218.082</ele>
        <time>2019-10-06T12:36:22.001Z</time>
      </trkpt>
      <trkpt lat="45.67034" lon="5.69604">
        <ele>217.249</ele>
        <time>2019-10-06T12:36:52.001Z</time>
      </trkpt>
      <trkpt lat="45.67126" lon="5.69738">
        <ele>217.694</ele>
        <time>2019-10-06T12:37:22.001Z</time>
      </trkpt>
      <trkpt lat="45.67232" lon="5.69868">
        <ele>216.763</ele>
        <time>2019-10-06T12:37:52.001Z</time>
      </trkpt>
      <trkpt lat="45.67346" lon="5.69992">
        <ele>217.99</ele>
        <time>2019-10-06T12:38:22.001Z</time>
      </trkpt>
      <trkpt lat="45.67456" lon="5.70045">
        <ele>219.514</ele>
        <time>2019-10-06T12:38:52.001Z</time>
      </trkpt>
      <trkpt lat="45.6756" lon="5.70182">
        <ele>218.109</ele>
        <time>2019-10-06T12:39:22.001Z</time>
      </trkpt>
      <trkpt lat="45.67665" lon="5.70352">
        <ele>219.363</ele>
        <time>2019-10-06T12:39:55.001Z</time>
      </trkpt>
      <trkpt lat="45.67757" lon="5.70507">
        <ele>217.996</ele>
        <time>2019-10-06T12:40:25.001Z</time>
      </trkpt>
      <trkpt lat="45.67865" lon="5.70654">
        <ele>220.305</ele>
        <time>2019-10-06T12:40:55.001Z</time>
      </trkpt>
      <trkpt lat="45.67993" lon="5.70737">
        <ele>221.984</ele>
        <time>2019-10-06T12:41:25.001Z</time>
      </trkpt>
      <trkpt lat="45.68138" lon="5.70833">
        <ele>217.779</ele>
        <time>2019-10-06T12:41:55.001Z</time>
      </trkpt>
      <trkpt lat="45.68298" lon="5.70891">
        <ele>216.759</ele>
        <time>2019-10-06T12:42:25.001Z</time>
      </trkpt>
      <trkpt lat="45.68432" lon="5.70929">
        <ele>216.668</ele>
        <time>2019-10-06T12:42:55.001Z</time>
      </trkpt>
      <trkpt lat="45.68497" lon="5.70972">
        <ele>220.325</ele>
        <time>2019-10-06T12:44:01.001Z</time>
      </trkpt>
      <trkpt lat="45.68621" lon="5.71042">
        <ele>224.453</ele>
        <time>2019-10-06T12:44:31.001Z</time>
      </trkpt>
      <trkpt lat="45.68745" lon="5.71103">
        <ele>222.644</ele>
        <time>2019-10-06T12:45:01.001Z</time>
      </trkpt>
      <trkpt lat="45.68923" lon="5.71173">
        <ele>218.878</ele>
        <time>2019-10-06T12:45:31.001Z</time>
      </trkpt>
      <trkpt lat="45.69092" lon="5.71257">
        <ele>213.854</ele>
        <time>2019-10-06T12:46:01.001Z</time>
      </trkpt>
      <trkpt lat="45.69151" lon="5.7107">
        <ele>214.304</ele>
        <time>2019-10-06T12:46:31.001Z</time>
      </trkpt>
      <trkpt lat="45.69283" lon="5.70978">
        <ele>217.486</ele>
        <time>2019-10-06T12:47:01.001Z</time>
      </trkpt>
      <trkpt lat="45.69423" lon="5.70983">
        <ele>220.855</ele>
        <time>2019-10-06T12:47:31.001Z</time>
      </trkpt>
      <trkpt lat="45.69593" lon="5.70974">
        <ele>221.164</ele>
        <time>2019-10-06T12:48:04.001Z</time>
      </trkpt>
      <trkpt lat="45.69716" lon="5.70841">
        <ele>216.988</ele>
        <time>2019-10-06T12:48:34.001Z</time>
      </trkpt>
      <trkpt lat="45.69835" lon="5.7074">
        <ele>218.743</ele>
        <time>2019-10-06T12:49:04.001Z</time>
      </trkpt>
      <trkpt lat="45.69891" lon="5.70537">
        <ele>218.637</ele>
        <time>2019-10-06T12:49:34.001Z</time>
      </trkpt>
      <trkpt lat="45.69977" lon="5.70354">
        <ele>219.636</ele>
        <time>2019-10-06T12:50:04.001Z</time>
      </trkpt>
      <trkpt lat="45.70119" lon="5.70253">
        <ele>219.639</ele>
        <time>2019-10-06T12:50:34.001Z</time>
      </trkpt>
      <trkpt lat="45.70257" lon="5.7015">
        <ele>220.531</ele>
        <time>2019-10-06T12:51:04.001Z</time>
      </trkpt>
      <trkpt lat="45.7045" lon="5.70131">
        <ele>219.515</ele>
        <time>2019-10-06T12:51:37.001Z</time>
      </trkpt>
      <trkpt lat="45.7061" lon="5.70086">
        <ele>220.185</ele>
        <time>2019-10-06T12:52:07.001Z</time>
      </trkpt>
      <trkpt lat="45.70776" lon="5.7006">
        <ele>220.505</ele>
        <time>2019-10-06T12:52:37.001Z</time>
      </trkpt>
      <trkpt lat="45.7082" lon="5.70167">
        <ele>226.694</ele>
        <time>2019-10-06T12:53:07.001Z</time>
      </trkpt>
      <trkpt lat="45.70895" lon="5.70259">
        <ele>223.105</ele>
        <time>2019-10-06T12:53:37.001Z</time>
      </trkpt>
      <trkpt lat="45.70961" lon="5.70425">
        <ele>220.26</ele>
        <time>2019-10-06T12:54:07.001Z</time>
      </trkpt>
      <trkpt lat="45.70985" lon="5.70658">
        <ele>221.573</ele>
        <time>2019-10-06T12:54:37.001Z</time>
      </trkpt>
      <trkpt lat="45.70961" lon="5.70906">
        <ele>218.136</ele>
        <time>2019-10-06T12:55:10.001Z</time>
      </trkpt>
      <trkpt lat="45.70911" lon="5.71113">
        <ele>221.915</ele>
        <time>2019-10-06T12:55:40.001Z</time>
      </trkpt>
      <trkpt lat="45.70843" lon="5.71315">
        <ele>223.189</ele>
        <time>2019-10-06T12:56:10.001Z</time>
      </trkpt>
      <trkpt lat="45.70775" lon="5.71515">
        <ele>220.816</ele>
        <time>2019-10-06T12:56:40.001Z</time>
      </trkpt>
      <trkpt lat="45.7073" lon="5.71723">
        <ele>224.041</ele>
        <time>2019-10-06T12:57:10.001Z</time>
      </trkpt>
      <trkpt lat="45.70715" lon="5.71944">
        <ele>227.262</ele>
        <time>2019-10-06T12:57:40.001Z</time>
      </trkpt>
      <trkpt lat="45.70723" lon="5.7204">
        <ele>227.144</ele>
        <time>2019-10-06T12:58:13.001Z</time>
      </trkpt>
      <trkpt lat="45.70758" lon="5.72237">
        <ele>231.547</ele>
        <time>2019-10-06T12:58:46.001Z</time>
      </trkpt>
      <trkpt lat="45.70813" lon="5.7244">
        <ele>241.984</ele>
        <time>2019-10-06T12:59:16Z</time>
      </trkpt>
      <trkpt lat="45.70852" lon="5.72601">
        <ele>246.88</ele>
        <time>2019-10-06T12:59:46.001Z</time>
      </trkpt>
      <trkpt lat="45.70866" lon="5.72752">
        <ele>255.797</ele>
        <time>2019-10-06T13:00:16Z</time>
      </trkpt>
      <trkpt lat="45.70933" lon="5.72978">
        <ele>254.244</ele>
        <time>2019-10-06T13:00:46.001Z</time>
      </trkpt>
      <trkpt lat="45.70897" lon="5.73221">
        <ele>242.356</ele>
        <time>2019-10-06T13:01:16Z</time>
      </trkpt>
      <trkpt lat="45.70843" lon="5.73422">
        <ele>251.308</ele>
        <time>2019-10-06T13:01:46.001Z</time>
      </trkpt>
      <trkpt lat="45.70702" lon="5.73609">
        <ele>237.544</ele>
        <time>2019-10-06T13:02:19.001Z</time>
      </trkpt>
      <trkpt lat="45.70609" lon="5.73802">
        <ele>237.397</ele>
        <time>2019-10-06T13:02:49.001Z</time>
      </trkpt>
      <trkpt lat="45.70612" lon="5.74129">
        <ele>245.337</ele>
        <time>2019-10-06T13:03:19.001Z</time>
      </trkpt>
      <trkpt lat="45.70568" lon="5.74324">
        <ele>234.785</ele>
        <time>2019-10-06T13:03:49.001Z</time>
      </trkpt>
      <trkpt lat="45.70565" lon="5.74383">
        <ele>238.888</ele>
        <time>2019-10-06T13:10:49.001Z</time>
      </trkpt>
      <trkpt lat="45.70516" lon="5.74615">
        <ele>239.389</ele>
        <time>2019-10-06T13:11:19.001Z</time>
      </trkpt>
      <trkpt lat="45.7048" lon="5.74848">
        <ele>234.641</ele>
        <time>2019-10-06T13:11:49.001Z</time>
      </trkpt>
      <trkpt lat="45.70534" lon="5.75082">
        <ele>229.56</ele>
        <time>2019-10-06T13:12:19.001Z</time>
      </trkpt>
      <trkpt lat="45.70534" lon="5.75356">
        <ele>227.719</ele>
        <time>2019-10-06T13:12:52.001Z</time>
      </trkpt>
      <trkpt lat="45.70573" lon="5.75618">
        <ele>225.977</ele>
        <time>2019-10-06T13:13:22.001Z</time>
      </trkpt>
      <trkpt lat="45.7061" lon="5.75878">
        <ele>228.065</ele>
        <time>2019-10-06T13:13:52.001Z</time>
      </trkpt>
      <trkpt lat="45.70616" lon="5.761">
        <ele>229.669</ele>
        <time>2019-10-06T13:14:22.001Z</time>
      </trkpt>
      <trkpt lat="45.70616" lon="5.76349">
        <ele>225.467</ele>
        <time>2019-10-06T13:14:52.001Z</time>
      </trkpt>
      <trkpt lat="45.70582" lon="5.76597">
        <ele>226.555</ele>
        <time>2019-10-06T13:15:22.001Z</time>
      </trkpt>
      <trkpt lat="45.7055" lon="5.7682">
        <ele>229.799</ele>
        <time>2019-10-06T13:15:52.001Z</time>
      </trkpt>
      <trkpt lat="45.70489" lon="5.77023">
        <ele>233.903</ele>
        <time>2019-10-06T13:16:25.001Z</time>
      </trkpt>
      <trkpt lat="45.70411" lon="5.77167">
        <ele>239.547</ele>
        <time>2019-10-06T13:16:55.001Z</time>
      </trkpt>
      <trkpt lat="45.70346" lon="5.77281">
        <ele>238.416</ele>
        <time>2019-10-06T13:17:25.001Z</time>
      </trkpt>
      <trkpt lat="45.70314" lon="5.77448">
        <ele>241.61</ele>
        <time>2019-10-06T13:17:55.001Z</time>
      </trkpt>
      <trkpt lat="45.70291" lon="5.77614">
        <ele>248.253</ele>
        <time>2019-10-06T13:18:25.001Z</time>
      </trkpt>
      <trkpt lat="45.70299" lon="5.77788">
        <ele>256.626</ele>
        <time>2019-10-06T13:18:55.001Z</time>
      </trkpt>
      <trkpt lat="45.70325" lon="5.7794">
        <ele>263.12</ele>
        <time>2019-10-06T13:19:25.001Z</time>
      </trkpt>
      <trkpt lat="45.7035" lon="5.78103">
        <ele>263.668</ele>
        <time>2019-10-06T13:19:58.001Z</time>
      </trkpt>
      <trkpt lat="45.7037" lon="5.78242">
        <ele>264.701</ele>
        <time>2019-10-06T13:20:28.001Z</time>
      </trkpt>
      <trkpt lat="45.70362" lon="5.78401">
        <ele>264.696</ele>
        <time>2019-10-06T13:20:58.001Z</time>
      </trkpt>
      <trkpt lat="45.7034" lon="5.78542">
        <ele>268.048</ele>
        <time>2019-10-06T13:21:28.001Z</time>
      </trkpt>
      <trkpt lat="45.70334" lon="5.78695">
        <ele>273.648</ele>
        <time>2019-10-06T13:21:58.001Z</time>
      </trkpt>
      <trkpt lat="45.70301" lon="5.78852">
        <ele>263.094</ele>
        <time>2019-10-06T13:22:28.001Z</time>
      </trkpt>
      <trkpt lat="45.70262" lon="5.78987">
        <ele>262.462</ele>
        <time>2019-10-06T13:22:58.001Z</time>
      </trkpt>
      <trkpt lat="45.7022" lon="5.79136">
        <ele>270.596</ele>
        <time>2019-10-06T13:23:31.001Z</time>
      </trkpt>
      <trkpt lat="45.70175" lon="5.79242">
        <ele>275.388</ele>
        <time>2019-10-06T13:24:01.001Z</time>
      </trkpt>
      <trkpt lat="45.70098" lon="5.79296">
        <ele>281.527</ele>
        <time>2019-10-06T13:24:31.001Z</time>
      </trkpt>
      <trkpt lat="45.70031" lon="5.79374">
        <ele>287.806</ele>
        <time>2019-10-06T13:25:01.001Z</time>
      </trkpt>
      <trkpt lat="45.69946" lon="5.79381">
        <ele>293.747</ele>
        <time>2019-10-06T13:25:31.001Z</time>
      </trkpt>
      <trkpt lat="45.69841" lon="5.79405">
        <ele>297.132</ele>
        <time>2019-10-06T13:26:01.001Z</time>
      </trkpt>
      <trkpt lat="45.69745" lon="5.79332">
        <ele>296.575</ele>
        <time>2019-10-06T13:26:31.001Z</time>
      </trkpt>
      <trkpt lat="45.69636" lon="5.79408">
        <ele>296.195</ele>
        <time>2019-10-06T13:27:04.001Z</time>
      </trkpt>
      <trkpt lat="45.69644" lon="5.79572">
        <ele>300.771</ele>
        <time>2019-10-06T13:27:34.001Z</time>
      </trkpt>
      <trkpt lat="45.69656" lon="5.79724">
        <ele>299.991</ele>
        <time>2019-10-06T13:28:04.001Z</time>
      </trkpt>
      <trkpt lat="45.69669" lon="5.7987">
        <ele>305.649</ele>
        <time>2019-10-06T13:28:34.001Z</time>
      </trkpt>
      <trkpt lat="45.6968" lon="5.80017">
        <ele>302.68</ele>
        <time>2019-10-06T13:29:04.001Z</time>
      </trkpt>
      <trkpt lat="45.69705" lon="5.80163">
        <ele>301.665</ele>
        <time>2019-10-06T13:29:34.001Z</time>
      </trkpt>
      <trkpt lat="45.69655" lon="5.803">
        <ele>298.905</ele>
        <time>2019-10-06T13:30:04.001Z</time>
      </trkpt>
      <trkpt lat="45.69587" lon="5.80438">
        <ele>303.739</ele>
        <time>2019-10-06T13:30:37.001Z</time>
      </trkpt>
      <trkpt lat="45.69528" lon="5.8055">
        <ele>309.997</ele>
        <time>2019-10-06T13:31:07.001Z</time>
      </trkpt>
      <trkpt lat="45.69465" lon="5.80666">
        <ele>317.023</ele>
        <time>2019-10-06T13:31:37.001Z</time>
      </trkpt>
      <trkpt lat="45.69405" lon="5.80778">
        <ele>313.358</ele>
        <time>2019-10-06T13:32:07.001Z</time>
      </trkpt>
      <trkpt lat="45.69353" lon="5.80879">
        <ele>315.717</ele>
        <time>2019-10-06T13:32:37.001Z</time>
      </trkpt>
      <trkpt lat="45.69293" lon="5.80992">
        <ele>314.736</ele>
        <time>2019-10-06T13:33:07.001Z</time>
      </trkpt>
      <trkpt lat="45.69225" lon="5.81125">
        <ele>315.097</ele>
        <time>2019-10-06T13:33:37.001Z</time>
      </trkpt>
      <trkpt lat="45.69152" lon="5.81266">
        <ele>316.588</ele>
        <time>2019-10-06T13:34:07.001Z</time>
      </trkpt>
      <trkpt lat="45.69078" lon="5.81414">
        <ele>322.854</ele>
        <time>2019-10-06T13:34:40.001Z</time>
      </trkpt>
      <trkpt lat="45.69034" lon="5.81509">
        <ele>320.415</ele>
        <time>2019-10-06T13:40:25.001Z</time>
      </trkpt>
      <trkpt lat="45.69032" lon="5.81627">
        <ele>323.537</ele>
        <time>2019-10-06T13:40:55.001Z</time>
      </trkpt>
      <trkpt lat="45.69051" lon="5.81767">
        <ele>326.796</ele>
        <time>2019-10-06T13:41:25.001Z</time>
      </trkpt>
      <trkpt lat="45.69049" lon="5.81905">
        <ele>328.969</ele>
        <time>2019-10-06T13:41:55.001Z</time>
      </trkpt>
      <trkpt lat="45.69019" lon="5.82001">
        <ele>333.648</ele>
        <time>2019-10-06T13:42:25.001Z</time>
      </trkpt>
      <trkpt lat="45.68981" lon="5.82085">
        <ele>339.242</ele>
        <time>2019-10-06T13:42:55.001Z</time>
      </trkpt>
      <trkpt lat="45.68932" lon="5.8218">
        <ele>344.192</ele>
        <time>2019-10-06T13:43:28.001Z</time>
      </trkpt>
      <trkpt lat="45.68889" lon="5.82267">
        <ele>345.412</ele>
        <time>2019-10-06T13:43:58.001Z</time>
      </trkpt>
      <trkpt lat="45.68877" lon="5.82368">
        <ele>350.378</ele>
        <time>2019-10-06T13:44:28.001Z</time>
      </trkpt>
      <trkpt lat="45.68901" lon="5.82467">
        <ele>353.713</ele>
        <time>2019-10-06T13:44:58.001Z</time>
      </trkpt>
      <trkpt lat="45.68951" lon="5.82546">
        <ele>360.163</ele>
        <time>2019-10-06T13:45:28.001Z</time>
      </trkpt>
      <trkpt lat="45.69029" lon="5.82586">
        <ele>362.673</ele>
        <time>2019-10-06T13:45:58.001Z</time>
      </trkpt>
      <trkpt lat="45.69088" lon="5.8265">
        <ele>366.015</ele>
        <time>2019-10-06T13:46:28.001Z</time>
      </trkpt>
      <trkpt lat="45.69131" lon="5.82755">
        <ele>368.292</ele>
        <time>2019-10-06T13:47:01.001Z</time>
      </trkpt>
      <trkpt lat="45.69162" lon="5.82851">
        <ele>376.101</ele>
        <time>2019-10-06T13:47:31.001Z</time>
      </trkpt>
      <trkpt lat="45.69212" lon="5.82918">
        <ele>389.179</ele>
        <time>2019-10-06T13:48:01.001Z</time>
      </trkpt>
      <trkpt lat="45.69293" lon="5.82946">
        <ele>390.05</ele>
        <time>2019-10-06T13:48:31.001Z</time>
      </trkpt>
      <trkpt lat="45.69342" lon="5.83008">
        <ele>385.984</ele>
        <time>2019-10-06T13:49:01.001Z</time>
      </trkpt>
      <trkpt lat="45.69321" lon="5.83109">
        <ele>386.085</ele>
        <time>2019-10-06T13:49:31.001Z</time>
      </trkpt>
      <trkpt lat="45.69288" lon="5.83198">
        <ele>391.046</ele>
        <time>2019-10-06T13:50:01.001Z</time>
      </trkpt>
      <trkpt lat="45.69197" lon="5.83219">
        <ele>395.679</ele>
        <time>2019-10-06T13:50:34.001Z</time>
      </trkpt>
      <trkpt lat="45.69114" lon="5.83211">
        <ele>398.143</ele>
        <time>2019-10-06T13:51:04.001Z</time>
      </trkpt>
      <trkpt lat="45.69029" lon="5.83232">
        <ele>393.141</ele>
        <time>2019-10-06T13:51:34.001Z</time>
      </trkpt>
      <trkpt lat="45.69057" lon="5.83318">
        <ele>395.545</ele>
        <time>2019-10-06T13:52:04.001Z</time>
      </trkpt>
      <trkpt lat="45.69083" lon="5.83434">
        <ele>398.729</ele>
        <time>2019-10-06T13:52:34.001Z</time>
      </trkpt>
      <trkpt lat="45.68502" lon="5.85309">
        <ele>401.828</ele>
        <time>2019-10-06T14:00:10.001Z</time>
      </trkpt>
      <trkpt lat="45.685" lon="5.85302">
        <ele>391.197</ele>
        <time>2019-10-06T14:04:40.001Z</time>
      </trkpt>
      <trkpt lat="45.68475" lon="5.85203">
        <ele>387.751</ele>
        <time>2019-10-06T14:05:13.001Z</time>
      </trkpt>
      <trkpt lat="45.68317" lon="5.85115">
        <ele>369.506</ele>
        <time>2019-10-06T14:05:43.001Z</time>
      </trkpt>
      <trkpt lat="45.68042" lon="5.85102">
        <ele>367.551</ele>
        <time>2019-10-06T14:06:13.001Z</time>
      </trkpt>
      <trkpt lat="45.67757" lon="5.85056">
        <ele>354.171</ele>
        <time>2019-10-06T14:06:43.001Z</time>
      </trkpt>
      <trkpt lat="45.67716" lon="5.85155">
        <ele>345.804</ele>
        <time>2019-10-06T14:07:13.001Z</time>
      </trkpt>
      <trkpt lat="45.67803" lon="5.85243">
        <ele>340.612</ele>
        <time>2019-10-06T14:07:43.001Z</time>
      </trkpt>
      <trkpt lat="45.67888" lon="5.8546">
        <ele>324.365</ele>
        <time>2019-10-06T14:08:13.001Z</time>
      </trkpt>
      <trkpt lat="45.68031" lon="5.85525">
        <ele>301.107</ele>
        <time>2019-10-06T14:08:46.001Z</time>
      </trkpt>
      <trkpt lat="45.68154" lon="5.85554">
        <ele>304.811</ele>
        <time>2019-10-06T14:09:16Z</time>
      </trkpt>
      <trkpt lat="45.68111" lon="5.85656">
        <ele>297.279</ele>
        <time>2019-10-06T14:09:46.001Z</time>
      </trkpt>
      <trkpt lat="45.67883" lon="5.85666">
        <ele>286.633</ele>
        <time>2019-10-06T14:10:16Z</time>
      </trkpt>
      <trkpt lat="45.67804" lon="5.85649">
        <ele>291.615</ele>
        <time>2019-10-06T14:11:22.001Z</time>
      </trkpt>
      <trkpt lat="45.67697" lon="5.85643">
        <ele>289.963</ele>
        <time>2019-10-06T14:11:52.001Z</time>
      </trkpt>
      <trkpt lat="45.67551" lon="5.85625">
        <ele>285.033</ele>
        <time>2019-10-06T14:12:22.001Z</time>
      </trkpt>
      <trkpt lat="45.67309" lon="5.85654">
        <ele>273.288</ele>
        <time>2019-10-06T14:12:52.001Z</time>
      </trkpt>
      <trkpt lat="45.67026" lon="5.85703">
        <ele>258.739</ele>
        <time>2019-10-06T14:13:25.001Z</time>
      </trkpt>
      <trkpt lat="45.66802" lon="5.85745">
        <ele>222.856</ele>
        <time>2019-10-06T14:13:58.001Z</time>
      </trkpt>
      <trkpt lat="45.66686" lon="5.85808">
        <ele>226.398</ele>
        <time>2019-10-06T14:14:28.001Z</time>
      </trkpt>
      <trkpt lat="45.66565" lon="5.8585">
        <ele>234.956</ele>
        <time>2019-10-06T14:14:58.001Z</time>
      </trkpt>
      <trkpt lat="45.66448" lon="5.85851">
        <ele>228.12</ele>
        <time>2019-10-06T14:15:28.001Z</time>
      </trkpt>
      <trkpt lat="45.66329" lon="5.858">
        <ele>230.472</ele>
        <time>2019-10-06T14:15:58.001Z</time>
      </trkpt>
      <trkpt lat="45.66195" lon="5.85822">
        <ele>229.096</ele>
        <time>2019-10-06T14:16:28.001Z</time>
      </trkpt>
      <trkpt lat="45.66035" lon="5.85836">
        <ele>233.449</ele>
        <time>2019-10-06T14:17:01.001Z</time>
      </trkpt>
      <trkpt lat="45.65902" lon="5.85882">
        <ele>233.394</ele>
        <time>2019-10-06T14:17:31.001Z</time>
      </trkpt>
      <trkpt lat="45.65767" lon="5.85854">
        <ele>236.883</ele>
        <time>2019-10-06T14:18:01.001Z</time>
      </trkpt>
      <trkpt lat="45.65641" lon="5.85891">
        <ele>243.01</ele>
        <time>2019-10-06T14:18:31.001Z</time>
      </trkpt>
      <trkpt lat="45.65536" lon="5.85973">
        <ele>240.001</ele>
        <time>2019-10-06T14:19:01.001Z</time>
      </trkpt>
      <trkpt lat="45.65565" lon="5.8596">
        <ele>240.11</ele>
        <time>2019-10-06T14:24:55.001Z</time>
      </trkpt>
      <trkpt lat="45.65481" lon="5.86012">
        <ele>241.789</ele>
        <time>2019-10-06T14:25:25.001Z</time>
      </trkpt>
      <trkpt lat="45.65505" lon="5.86184">
        <ele>239.079</ele>
        <time>2019-10-06T14:25:58.001Z</time>
      </trkpt>
      <trkpt lat="45.65385" lon="5.86188">
        <ele>234.258</ele>
        <time>2019-10-06T14:26:28.001Z</time>
      </trkpt>
      <trkpt lat="45.65251" lon="5.86237">
        <ele>232.797</ele>
        <time>2019-10-06T14:26:58.001Z</time>
      </trkpt>
      <trkpt lat="45.65148" lon="5.86202">
        <ele>232.799</ele>
        <time>2019-10-06T14:27:28.001Z</time>
      </trkpt>
      <trkpt lat="45.65026" lon="5.8618">
        <ele>240.922</ele>
        <time>2019-10-06T14:27:58.001Z</time>
      </trkpt>
      <trkpt lat="45.64959" lon="5.86289">
        <ele>239.299</ele>
        <time>2019-10-06T14:28:28.001Z</time>
      </trkpt>
      <trkpt lat="45.64856" lon="5.86444">
        <ele>237.177</ele>
        <time>2019-10-06T14:28:58.001Z</time>
      </trkpt>
      <trkpt lat="45.64787" lon="5.86347">
        <ele>237.612</ele>
        <time>2019-10-06T14:29:31.001Z</time>
      </trkpt>
      <trkpt lat="45.64726" lon="5.86379">
        <ele>247.217</ele>
        <time>2019-10-06T14:30:01.001Z</time>
      </trkpt>
      <trkpt lat="45.646" lon="5.86519">
        <ele>244.862</ele>
        <time>2019-10-06T14:30:31.001Z</time>
      </trkpt>
      <trkpt lat="45.64503" lon="5.86602">
        <ele>237.868</ele>
        <time>2019-10-06T14:31:01.001Z</time>
      </trkpt>
      <trkpt lat="45.64406" lon="5.86652">
        <ele>239.933</ele>
        <time>2019-10-06T14:31:31.001Z</time>
      </trkpt>
      <trkpt lat="45.64298" lon="5.86719">
        <ele>241.223</ele>
        <time>2019-10-06T14:32:01.001Z</time>
      </trkpt>
      <trkpt lat="45.64178" lon="5.86784">
        <ele>250.73</ele>
        <time>2019-10-06T14:32:31.001Z</time>
      </trkpt>
      <trkpt lat="45.64034" lon="5.86872">
        <ele>250.37</ele>
        <time>2019-10-06T14:33:04.001Z</time>
      </trkpt>
      <trkpt lat="45.6388" lon="5.86944">
        <ele>241.013</ele>
        <time>2019-10-06T14:33:34.001Z</time>
      </trkpt>
      <trkpt lat="45.63752" lon="5.86977">
        <ele>238.727</ele>
        <time>2019-10-06T14:34:04.001Z</time>
      </trkpt>
      <trkpt lat="45.63613" lon="5.87001">
        <ele>235.996</ele>
        <time>2019-10-06T14:34:34.001Z</time>
      </trkpt>
      <trkpt lat="45.63477" lon="5.87058">
        <ele>236.64</ele>
        <time>2019-10-06T14:35:04.001Z</time>
      </trkpt>
      <trkpt lat="45.63338" lon="5.87094">
        <ele>236.284</ele>
        <time>2019-10-06T14:35:34.001Z</time>
      </trkpt>
      <trkpt lat="45.632" lon="5.87142">
        <ele>238.134</ele>
        <time>2019-10-06T14:36:04.001Z</time>
      </trkpt>
      <trkpt lat="45.6306" lon="5.87197">
        <ele>236.599</ele>
        <time>2019-10-06T14:36:34.001Z</time>
      </trkpt>
      <trkpt lat="45.62914" lon="5.87296">
        <ele>242.2</ele>
        <time>2019-10-06T14:37:07.001Z</time>
      </trkpt>
      <trkpt lat="45.62784" lon="5.8737">
        <ele>242.081</ele>
        <time>2019-10-06T14:37:37.001Z</time>
      </trkpt>
      <trkpt lat="45.62655" lon="5.87319">
        <ele>246.833</ele>
        <time>2019-10-06T14:38:07.001Z</time>
      </trkpt>
      <trkpt lat="45.62529" lon="5.87369">
        <ele>245.232</ele>
        <time>2019-10-06T14:38:37.001Z</time>
      </trkpt>
      <trkpt lat="45.62409" lon="5.8747">
        <ele>243.433</ele>
        <time>2019-10-06T14:39:07.001Z</time>
      </trkpt>
      <trkpt lat="45.62295" lon="5.87588">
        <ele>241.628</ele>
        <time>2019-10-06T14:39:37.001Z</time>
      </trkpt>
      <trkpt lat="45.62177" lon="5.87717">
        <ele>241.395</ele>
        <time>2019-10-06T14:40:07.001Z</time>
      </trkpt>
      <trkpt lat="45.62044" lon="5.87845">
        <ele>245.901</ele>
        <time>2019-10-06T14:40:40.001Z</time>
      </trkpt>
      <trkpt lat="45.6192" lon="5.87964">
        <ele>249.642</ele>
        <time>2019-10-06T14:41:10.001Z</time>
      </trkpt>
      <trkpt lat="45.61796" lon="5.88087">
        <ele>247.777</ele>
        <time>2019-10-06T14:41:40.001Z</time>
      </trkpt>
      <trkpt lat="45.61685" lon="5.88257">
        <ele>246.966</ele>
        <time>2019-10-06T14:42:10.001Z</time>
      </trkpt>
      <trkpt lat="45.6155" lon="5.8833">
        <ele>248.355</ele>
        <time>2019-10-06T14:42:40.001Z</time>
      </trkpt>
      <trkpt lat="45.61385" lon="5.88335">
        <ele>247.585</ele>
        <time>2019-10-06T14:43:10.001Z</time>
      </trkpt>
      <trkpt lat="45.61239" lon="5.88336">
        <ele>253.121</ele>
        <time>2019-10-06T14:43:40.001Z</time>
      </trkpt>
      <trkpt lat="45.61069" lon="5.8837">
        <ele>249.207</ele>
        <time>2019-10-06T14:44:13.001Z</time>
      </trkpt>
      <trkpt lat="45.60932" lon="5.88436">
        <ele>252.609</ele>
        <time>2019-10-06T14:44:43.001Z</time>
      </trkpt>
      <trkpt lat="45.60781" lon="5.88503">
        <ele>251.77</ele>
        <time>2019-10-06T14:45:13.001Z</time>
      </trkpt>
      <trkpt lat="45.60646" lon="5.88565">
        <ele>255.377</ele>
        <time>2019-10-06T14:45:43.001Z</time>
      </trkpt>
      <trkpt lat="45.60567" lon="5.8854">
        <ele>260.573</ele>
        <time>2019-10-06T14:46:13.001Z</time>
      </trkpt>
      <trkpt lat="45.60585" lon="5.88355">
        <ele>253.872</ele>
        <time>2019-10-06T14:46:43.001Z</time>
      </trkpt>
      <trkpt lat="45.60507" lon="5.88193">
        <ele>245.481</ele>
        <time>2019-10-06T14:47:13.001Z</time>
      </trkpt>
      <trkpt lat="45.60385" lon="5.88104">
        <ele>247.09</ele>
        <time>2019-10-06T14:47:46.001Z</time>
      </trkpt>
      <trkpt lat="45.60336" lon="5.87935">
        <ele>255.282</ele>
        <time>2019-10-06T14:48:16Z</time>
      </trkpt>
      <trkpt lat="45.60312" lon="5.87778">
        <ele>259.02</ele>
        <time>2019-10-06T14:48:46.001Z</time>
      </trkpt>
      <trkpt lat="45.60295" lon="5.8765">
        <ele>254.944</ele>
        <time>2019-10-06T14:49:16Z</time>
      </trkpt>
      <trkpt lat="45.60188" lon="5.87649">
        <ele>261.678</ele>
        <time>2019-10-06T14:49:46.001Z</time>
      </trkpt>
      <trkpt lat="45.60089" lon="5.87624">
        <ele>276.566</ele>
        <time>2019-10-06T14:50:16Z</time>
      </trkpt>
      <trkpt lat="45.59999" lon="5.87719">
        <ele>268.507</ele>
        <time>2019-10-06T14:50:46.001Z</time>
      </trkpt>
      <trkpt lat="45.59899" lon="5.87664">
        <ele>255.168</ele>
        <time>2019-10-06T14:51:19.001Z</time>
      </trkpt>
      <trkpt lat="45.59797" lon="5.87677">
        <ele>263.021</ele>
        <time>2019-10-06T14:51:49.001Z</time>
      </trkpt>
      <trkpt lat="45.59747" lon="5.87611">
        <ele>269.888</ele>
        <time>2019-10-06T14:52:19.001Z</time>
      </trkpt>
      <trkpt lat="45.59737" lon="5.87493">
        <ele>266.906</ele>
        <time>2019-10-06T14:52:49.001Z</time>
      </trkpt>
      <trkpt lat="45.59841" lon="5.87425">
        <ele>273.721</ele>
        <time>2019-10-06T14:53:19.001Z</time>
      </trkpt>
      <trkpt lat="45.5997" lon="5.87349">
        <ele>270.428</ele>
        <time>2019-10-06T14:53:49.001Z</time>
      </trkpt>
      <trkpt lat="45.60015" lon="5.87383">
        <ele>269.535</ele>
        <time>2019-10-06T14:54:19.001Z</time>
      </trkpt>
      <trkpt lat="45.60022" lon="5.87502">
        <ele>283.916</ele>
        <time>2019-10-06T14:54:52.001Z</time>
      </trkpt>
      <trkpt lat="45.60021" lon="5.87459">
        <ele>279.563</ele>
        <time>2019-10-06T14:56:46.001Z</time>
      </trkpt>
      <trkpt lat="45.6" lon="5.8741">
        <ele>285.68</ele>
        <time>2019-10-06T14:57:43.001Z</time>
      </trkpt>
      <trkpt lat="45.59991" lon="5.87413">
        <ele>271.294</ele>
        <time>2019-10-06T15:01:43.001Z</time>
      </trkpt>
    </trkseg>
  </trk>
  <trk>
    <name><![CDATA[Tracé 20191007-091037]]></name>
    <trkseg>
      <trkpt lat="45.59993" lon="5.87419">
        <ele>256.025</ele>
        <time>2019-10-07T07:15:04Z</time>
      </trkpt>
      <trkpt lat="45.60018" lon="5.87355">
        <ele>264.962</ele>
        <time>2019-10-07T07:16:46Z</time>
      </trkpt>
      <trkpt lat="45.59957" lon="5.87353">
        <ele>269.319</ele>
        <time>2019-10-07T07:17:16Z</time>
      </trkpt>
      <trkpt lat="45.59823" lon="5.87428">
        <ele>271.588</ele>
        <time>2019-10-07T07:17:46Z</time>
      </trkpt>
      <trkpt lat="45.59723" lon="5.87565">
        <ele>274.302</ele>
        <time>2019-10-07T07:18:19Z</time>
      </trkpt>
      <trkpt lat="45.59701" lon="5.87801">
        <ele>272.181</ele>
        <time>2019-10-07T07:18:49Z</time>
      </trkpt>
      <trkpt lat="45.59568" lon="5.87847">
        <ele>269.57</ele>
        <time>2019-10-07T07:19:19Z</time>
      </trkpt>
      <trkpt lat="45.59428" lon="5.87895">
        <ele>269.272</ele>
        <time>2019-10-07T07:19:49Z</time>
      </trkpt>
      <trkpt lat="45.59348" lon="5.87893">
        <ele>267.587</ele>
        <time>2019-10-07T07:20:25Z</time>
      </trkpt>
      <trkpt lat="45.59271" lon="5.87974">
        <ele>268.153</ele>
        <time>2019-10-07T07:20:58Z</time>
      </trkpt>
      <trkpt lat="45.5915" lon="5.88057">
        <ele>263.15</ele>
        <time>2019-10-07T07:21:28Z</time>
      </trkpt>
      <trkpt lat="45.59003" lon="5.88166">
        <ele>260.997</ele>
        <time>2019-10-07T07:22:01Z</time>
      </trkpt>
      <trkpt lat="45.58853" lon="5.88247">
        <ele>256.776</ele>
        <time>2019-10-07T07:22:31Z</time>
      </trkpt>
      <trkpt lat="45.58744" lon="5.88333">
        <ele>261.432</ele>
        <time>2019-10-07T07:23:01Z</time>
      </trkpt>
      <trkpt lat="45.5864" lon="5.884">
        <ele>261.883</ele>
        <time>2019-10-07T07:23:31Z</time>
      </trkpt>
      <trkpt lat="45.58563" lon="5.88455">
        <ele>265.7</ele>
        <time>2019-10-07T07:24:01Z</time>
      </trkpt>
      <trkpt lat="45.58488" lon="5.88509">
        <ele>266.32</ele>
        <time>2019-10-07T07:24:31Z</time>
      </trkpt>
      <trkpt lat="45.58388" lon="5.88579">
        <ele>276.928</ele>
        <time>2019-10-07T07:25:01Z</time>
      </trkpt>
      <trkpt lat="45.58283" lon="5.88649">
        <ele>279.478</ele>
        <time>2019-10-07T07:25:31Z</time>
      </trkpt>
      <trkpt lat="45.58171" lon="5.88746">
        <ele>270.16</ele>
        <time>2019-10-07T07:26:04Z</time>
      </trkpt>
      <trkpt lat="45.5812" lon="5.88948">
        <ele>265.018</ele>
        <time>2019-10-07T07:26:34Z</time>
      </trkpt>
      <trkpt lat="45.58034" lon="5.8915">
        <ele>264.469</ele>
        <time>2019-10-07T07:27:04Z</time>
      </trkpt>
      <trkpt lat="45.57935" lon="5.89336">
        <ele>262.286</ele>
        <time>2019-10-07T07:27:34Z</time>
      </trkpt>
      <trkpt lat="45.57837" lon="5.89506">
        <ele>266.682</ele>
        <time>2019-10-07T07:28:04Z</time>
      </trkpt>
      <trkpt lat="45.57742" lon="5.89669">
        <ele>272.371</ele>
        <time>2019-10-07T07:28:34Z</time>
      </trkpt>
      <trkpt lat="45.57659" lon="5.89835">
        <ele>271.04</ele>
        <time>2019-10-07T07:29:04Z</time>
      </trkpt>
      <trkpt lat="45.57553" lon="5.9002">
        <ele>271.332</ele>
        <time>2019-10-07T07:29:37Z</time>
      </trkpt>
      <trkpt lat="45.57467" lon="5.90209">
        <ele>267</ele>
        <time>2019-10-07T07:30:07Z</time>
      </trkpt>
      <trkpt lat="45.57392" lon="5.90402">
        <ele>270.205</ele>
        <time>2019-10-07T07:30:37Z</time>
      </trkpt>
      <trkpt lat="45.57343" lon="5.90567">
        <ele>277.557</ele>
        <time>2019-10-07T07:31:07Z</time>
      </trkpt>
      <trkpt lat="45.57285" lon="5.90807">
        <ele>274.004</ele>
        <time>2019-10-07T07:31:37Z</time>
      </trkpt>
      <trkpt lat="45.57226" lon="5.91012">
        <ele>269.056</ele>
        <time>2019-10-07T07:32:07Z</time>
      </trkpt>
      <trkpt lat="45.57157" lon="5.91088">
        <ele>272.814</ele>
        <time>2019-10-07T07:32:40Z</time>
      </trkpt>
      <trkpt lat="45.57049" lon="5.91186">
        <ele>284.222</ele>
        <time>2019-10-07T07:33:10Z</time>
      </trkpt>
      <trkpt lat="45.56982" lon="5.91347">
        <ele>290.222</ele>
        <time>2019-10-07T07:33:43Z</time>
      </trkpt>
      <trkpt lat="45.56979" lon="5.91543">
        <ele>284.254</ele>
        <time>2019-10-07T07:34:13Z</time>
      </trkpt>
      <trkpt lat="45.57004" lon="5.91642">
        <ele>280.907</ele>
        <time>2019-10-07T07:35:04Z</time>
      </trkpt>
      <trkpt lat="45.57019" lon="5.91784">
        <ele>277.156</ele>
        <time>2019-10-07T07:35:34Z</time>
      </trkpt>
      <trkpt lat="45.56904" lon="5.919">
        <ele>282.728</ele>
        <time>2019-10-07T07:36:04Z</time>
      </trkpt>
      <trkpt lat="45.56828" lon="5.92031">
        <ele>283.909</ele>
        <time>2019-10-07T07:36:34Z</time>
      </trkpt>
      <trkpt lat="45.56767" lon="5.9216">
        <ele>291.113</ele>
        <time>2019-10-07T07:37:04Z</time>
      </trkpt>
      <trkpt lat="45.56678" lon="5.92277">
        <ele>310.767</ele>
        <time>2019-10-07T07:37:37Z</time>
      </trkpt>
      <trkpt lat="45.56655" lon="5.92292">
        <ele>310.891</ele>
        <time>2019-10-07T07:39:10Z</time>
      </trkpt>
      <trkpt lat="45.56665" lon="5.92287">
        <ele>310.282</ele>
        <time>2019-10-07T07:40:43Z</time>
      </trkpt>
      <trkpt lat="45.56655" lon="5.92278">
        <ele>303.058</ele>
        <time>2019-10-07T07:41:58Z</time>
      </trkpt>
      <trkpt lat="45.56606" lon="5.92182">
        <ele>296.286</ele>
        <time>2019-10-07T07:42:28Z</time>
      </trkpt>
      <trkpt lat="45.56529" lon="5.92053">
        <ele>295.572</ele>
        <time>2019-10-07T07:43:01Z</time>
      </trkpt>
      <trkpt lat="45.56475" lon="5.91931">
        <ele>283.975</ele>
        <time>2019-10-07T07:43:34Z</time>
      </trkpt>
      <trkpt lat="45.56486" lon="5.9197">
        <ele>278.63</ele>
        <time>2019-10-07T07:44:10Z</time>
      </trkpt>
      <trkpt lat="45.56474" lon="5.91921">
        <ele>277.4</ele>
        <time>2019-10-07T07:44:52Z</time>
      </trkpt>
      <trkpt lat="45.56468" lon="5.91912">
        <ele>277.87</ele>
        <time>2019-10-07T07:45:55Z</time>
      </trkpt>
      <trkpt lat="45.56405" lon="5.91957">
        <ele>288.573</ele>
        <time>2019-10-07T07:46:34Z</time>
      </trkpt>
      <trkpt lat="45.56347" lon="5.92059">
        <ele>286.449</ele>
        <time>2019-10-07T07:47:04Z</time>
      </trkpt>
      <trkpt lat="45.56323" lon="5.92257">
        <ele>280.884</ele>
        <time>2019-10-07T07:47:34Z</time>
      </trkpt>
      <trkpt lat="45.56278" lon="5.92419">
        <ele>290.57</ele>
        <time>2019-10-07T07:48:04Z</time>
      </trkpt>
      <trkpt lat="45.56248" lon="5.92608">
        <ele>280.406</ele>
        <time>2019-10-07T07:48:34Z</time>
      </trkpt>
      <trkpt lat="45.56306" lon="5.92801">
        <ele>275.266</ele>
        <time>2019-10-07T07:49:07Z</time>
      </trkpt>
      <trkpt lat="45.5631" lon="5.92951">
        <ele>272.467</ele>
        <time>2019-10-07T07:49:37Z</time>
      </trkpt>
      <trkpt lat="45.56306" lon="5.93022">
        <ele>273.256</ele>
        <time>2019-10-07T07:51:13Z</time>
      </trkpt>
      <trkpt lat="45.56342" lon="5.93108">
        <ele>277.532</ele>
        <time>2019-10-07T07:51:43Z</time>
      </trkpt>
      <trkpt lat="45.56426" lon="5.93255">
        <ele>276.887</ele>
        <time>2019-10-07T07:52:13Z</time>
      </trkpt>
      <trkpt lat="45.56542" lon="5.93369">
        <ele>287.965</ele>
        <time>2019-10-07T07:52:43Z</time>
      </trkpt>
      <trkpt lat="45.56579" lon="5.93479">
        <ele>286.117</ele>
        <time>2019-10-07T07:53:13Z</time>
      </trkpt>
      <trkpt lat="45.56522" lon="5.93644">
        <ele>280.172</ele>
        <time>2019-10-07T07:53:46Z</time>
      </trkpt>
      <trkpt lat="45.56507" lon="5.93785">
        <ele>288.621</ele>
        <time>2019-10-07T07:54:16Z</time>
      </trkpt>
      <trkpt lat="45.56422" lon="5.93931">
        <ele>290.469</ele>
        <time>2019-10-07T07:54:46Z</time>
      </trkpt>
      <trkpt lat="45.56306" lon="5.94052">
        <ele>290.828</ele>
        <time>2019-10-07T07:55:16Z</time>
      </trkpt>
      <trkpt lat="45.56171" lon="5.94085">
        <ele>291.389</ele>
        <time>2019-10-07T07:55:46Z</time>
      </trkpt>
      <trkpt lat="45.56115" lon="5.94179">
        <ele>280.292</ele>
        <time>2019-10-07T07:56:16Z</time>
      </trkpt>
      <trkpt lat="45.56103" lon="5.94344">
        <ele>288.105</ele>
        <time>2019-10-07T07:56:46Z</time>
      </trkpt>
      <trkpt lat="45.56054" lon="5.94535">
        <ele>289.669</ele>
        <time>2019-10-07T07:57:16Z</time>
      </trkpt>
      <trkpt lat="45.55911" lon="5.94645">
        <ele>282.776</ele>
        <time>2019-10-07T07:57:49Z</time>
      </trkpt>
      <trkpt lat="45.55844" lon="5.94806">
        <ele>289.179</ele>
        <time>2019-10-07T07:58:19Z</time>
      </trkpt>
      <trkpt lat="45.55757" lon="5.94885">
        <ele>292.244</ele>
        <time>2019-10-07T07:58:52Z</time>
      </trkpt>
      <trkpt lat="45.55651" lon="5.9501">
        <ele>293.8</ele>
        <time>2019-10-07T07:59:22Z</time>
      </trkpt>
      <trkpt lat="45.55515" lon="5.95187">
        <ele>291.783</ele>
        <time>2019-10-07T07:59:52Z</time>
      </trkpt>
      <trkpt lat="45.55378" lon="5.95352">
        <ele>290.618</ele>
        <time>2019-10-07T08:00:22Z</time>
      </trkpt>
      <trkpt lat="45.55394" lon="5.95408">
        <ele>287.704</ele>
        <time>2019-10-07T08:00:52Z</time>
      </trkpt>
      <trkpt lat="45.55325" lon="5.95523">
        <ele>288.09</ele>
        <time>2019-10-07T08:01:25Z</time>
      </trkpt>
      <trkpt lat="45.55212" lon="5.95642">
        <ele>291.027</ele>
        <time>2019-10-07T08:01:55Z</time>
      </trkpt>
      <trkpt lat="45.551" lon="5.95782">
        <ele>289.811</ele>
        <time>2019-10-07T08:02:25Z</time>
      </trkpt>
      <trkpt lat="45.54953" lon="5.95854">
        <ele>294.407</ele>
        <time>2019-10-07T08:02:55Z</time>
      </trkpt>
      <trkpt lat="45.54829" lon="5.95895">
        <ele>298.313</ele>
        <time>2019-10-07T08:03:25Z</time>
      </trkpt>
      <trkpt lat="45.54674" lon="5.95986">
        <ele>294.799</ele>
        <time>2019-10-07T08:03:55Z</time>
      </trkpt>
      <trkpt lat="45.54552" lon="5.96061">
        <ele>297.354</ele>
        <time>2019-10-07T08:04:25Z</time>
      </trkpt>
      <trkpt lat="45.54418" lon="5.96133">
        <ele>295.619</ele>
        <time>2019-10-07T08:04:55Z</time>
      </trkpt>
      <trkpt lat="45.54274" lon="5.96179">
        <ele>296.364</ele>
        <time>2019-10-07T08:05:28Z</time>
      </trkpt>
      <trkpt lat="45.54158" lon="5.96249">
        <ele>297.385</ele>
        <time>2019-10-07T08:05:58Z</time>
      </trkpt>
      <trkpt lat="45.54039" lon="5.96329">
        <ele>298.051</ele>
        <time>2019-10-07T08:06:28Z</time>
      </trkpt>
      <trkpt lat="45.53925" lon="5.96407">
        <ele>299.545</ele>
        <time>2019-10-07T08:06:58Z</time>
      </trkpt>
      <trkpt lat="45.53801" lon="5.96481">
        <ele>301.772</ele>
        <time>2019-10-07T08:07:28Z</time>
      </trkpt>
      <trkpt lat="45.53679" lon="5.96552">
        <ele>304.898</ele>
        <time>2019-10-07T08:07:58Z</time>
      </trkpt>
      <trkpt lat="45.53671" lon="5.96668">
        <ele>310.448</ele>
        <time>2019-10-07T08:08:28Z</time>
      </trkpt>
      <trkpt lat="45.53708" lon="5.96738">
        <ele>314.232</ele>
        <time>2019-10-07T08:09:01Z</time>
      </trkpt>
      <trkpt lat="45.53698" lon="5.96831">
        <ele>310.736</ele>
        <time>2019-10-07T08:09:31Z</time>
      </trkpt>
      <trkpt lat="45.53649" lon="5.96883">
        <ele>305.185</ele>
        <time>2019-10-07T08:10:01Z</time>
      </trkpt>
      <trkpt lat="45.53538" lon="5.96954">
        <ele>308.568</ele>
        <time>2019-10-07T08:10:31Z</time>
      </trkpt>
      <trkpt lat="45.53444" lon="5.97018">
        <ele>312.81</ele>
        <time>2019-10-07T08:11:01Z</time>
      </trkpt>
      <trkpt lat="45.53312" lon="5.97101">
        <ele>309.345</ele>
        <time>2019-10-07T08:11:31Z</time>
      </trkpt>
      <trkpt lat="45.53205" lon="5.97172">
        <ele>310.523</ele>
        <time>2019-10-07T08:12:01Z</time>
      </trkpt>
      <trkpt lat="45.53059" lon="5.9727">
        <ele>307.486</ele>
        <time>2019-10-07T08:12:31Z</time>
      </trkpt>
      <trkpt lat="45.52915" lon="5.97469">
        <ele>305.765</ele>
        <time>2019-10-07T08:13:04Z</time>
      </trkpt>
      <trkpt lat="45.5281" lon="5.97548">
        <ele>311.505</ele>
        <time>2019-10-07T08:13:34Z</time>
      </trkpt>
      <trkpt lat="45.5272" lon="5.97647">
        <ele>312.822</ele>
        <time>2019-10-07T08:14:04Z</time>
      </trkpt>
      <trkpt lat="45.52632" lon="5.97759">
        <ele>313.19</ele>
        <time>2019-10-07T08:14:34Z</time>
      </trkpt>
      <trkpt lat="45.52544" lon="5.9786">
        <ele>318.818</ele>
        <time>2019-10-07T08:15:04Z</time>
      </trkpt>
      <trkpt lat="45.52432" lon="5.97963">
        <ele>317.217</ele>
        <time>2019-10-07T08:15:34Z</time>
      </trkpt>
      <trkpt lat="45.52297" lon="5.98108">
        <ele>313.655</ele>
        <time>2019-10-07T08:16:04Z</time>
      </trkpt>
      <trkpt lat="45.52136" lon="5.98031">
        <ele>311.718</ele>
        <time>2019-10-07T08:16:37Z</time>
      </trkpt>
      <trkpt lat="45.52017" lon="5.98058">
        <ele>311.417</ele>
        <time>2019-10-07T08:17:07Z</time>
      </trkpt>
      <trkpt lat="45.52069" lon="5.97933">
        <ele>312.984</ele>
        <time>2019-10-07T08:17:37Z</time>
      </trkpt>
      <trkpt lat="45.51976" lon="5.97803">
        <ele>315.643</ele>
        <time>2019-10-07T08:18:07Z</time>
      </trkpt>
      <trkpt lat="45.51882" lon="5.97811">
        <ele>316.171</ele>
        <time>2019-10-07T08:18:37Z</time>
      </trkpt>
      <trkpt lat="45.51809" lon="5.9776">
        <ele>319.865</ele>
        <time>2019-10-07T08:19:07Z</time>
      </trkpt>
      <trkpt lat="45.51703" lon="5.97733">
        <ele>326.303</ele>
        <time>2019-10-07T08:19:37Z</time>
      </trkpt>
      <trkpt lat="45.5161" lon="5.9777">
        <ele>333.04</ele>
        <time>2019-10-07T08:20:07Z</time>
      </trkpt>
      <trkpt lat="45.51507" lon="5.97818">
        <ele>328.63</ele>
        <time>2019-10-07T08:20:40Z</time>
      </trkpt>
      <trkpt lat="45.51412" lon="5.97849">
        <ele>328.04</ele>
        <time>2019-10-07T08:21:13Z</time>
      </trkpt>
      <trkpt lat="45.51331" lon="5.97814">
        <ele>329.131</ele>
        <time>2019-10-07T08:22:22Z</time>
      </trkpt>
      <trkpt lat="45.51221" lon="5.97799">
        <ele>329.235</ele>
        <time>2019-10-07T08:22:52Z</time>
      </trkpt>
      <trkpt lat="45.51161" lon="5.9788">
        <ele>328.387</ele>
        <time>2019-10-07T08:23:22Z</time>
      </trkpt>
      <trkpt lat="45.51139" lon="5.97982">
        <ele>336.897</ele>
        <time>2019-10-07T08:23:52Z</time>
      </trkpt>
      <trkpt lat="45.51034" lon="5.98056">
        <ele>338.066</ele>
        <time>2019-10-07T08:24:22Z</time>
      </trkpt>
      <trkpt lat="45.51017" lon="5.98218">
        <ele>337.368</ele>
        <time>2019-10-07T08:24:55Z</time>
      </trkpt>
      <trkpt lat="45.50948" lon="5.98291">
        <ele>340.137</ele>
        <time>2019-10-07T08:25:25Z</time>
      </trkpt>
      <trkpt lat="45.50879" lon="5.98347">
        <ele>338.597</ele>
        <time>2019-10-07T08:26:01Z</time>
      </trkpt>
      <trkpt lat="45.50875" lon="5.98351">
        <ele>338.078</ele>
        <time>2019-10-07T08:28:55Z</time>
      </trkpt>
      <trkpt lat="45.50873" lon="5.98348">
        <ele>337.93</ele>
        <time>2019-10-07T08:32:40Z</time>
      </trkpt>
      <trkpt lat="45.5076" lon="5.98451">
        <ele>326.859</ele>
        <time>2019-10-07T08:33:10Z</time>
      </trkpt>
      <trkpt lat="45.50574" lon="5.98612">
        <ele>316.874</ele>
        <time>2019-10-07T08:33:40Z</time>
      </trkpt>
      <trkpt lat="45.50374" lon="5.98789">
        <ele>308.96</ele>
        <time>2019-10-07T08:34:10Z</time>
      </trkpt>
      <trkpt lat="45.50208" lon="5.98879">
        <ele>310.765</ele>
        <time>2019-10-07T08:34:43Z</time>
      </trkpt>
      <trkpt lat="45.50112" lon="5.98675">
        <ele>303.334</ele>
        <time>2019-10-07T08:35:13Z</time>
      </trkpt>
      <trkpt lat="45.49985" lon="5.98742">
        <ele>303.498</ele>
        <time>2019-10-07T08:35:43Z</time>
      </trkpt>
      <trkpt lat="45.49876" lon="5.98822">
        <ele>306.831</ele>
        <time>2019-10-07T08:36:13Z</time>
      </trkpt>
      <trkpt lat="45.49735" lon="5.98918">
        <ele>306.434</ele>
        <time>2019-10-07T08:36:43Z</time>
      </trkpt>
      <trkpt lat="45.49565" lon="5.9903">
        <ele>297.562</ele>
        <time>2019-10-07T08:37:13Z</time>
      </trkpt>
      <trkpt lat="45.49488" lon="5.98913">
        <ele>297.653</ele>
        <time>2019-10-07T08:37:43Z</time>
      </trkpt>
      <trkpt lat="45.49403" lon="5.98862">
        <ele>302.394</ele>
        <time>2019-10-07T08:38:16Z</time>
      </trkpt>
      <trkpt lat="45.49311" lon="5.98727">
        <ele>302.943</ele>
        <time>2019-10-07T08:38:46Z</time>
      </trkpt>
      <trkpt lat="45.49219" lon="5.98618">
        <ele>303.068</ele>
        <time>2019-10-07T08:39:16Z</time>
      </trkpt>
      <trkpt lat="45.49163" lon="5.98532">
        <ele>306.056</ele>
        <time>2019-10-07T08:39:49Z</time>
      </trkpt>
      <trkpt lat="45.49151" lon="5.98387">
        <ele>307.168</ele>
        <time>2019-10-07T08:40:19Z</time>
      </trkpt>
      <trkpt lat="45.4901" lon="5.98468">
        <ele>294.806</ele>
        <time>2019-10-07T08:40:49Z</time>
      </trkpt>
      <trkpt lat="45.48801" lon="5.98462">
        <ele>285.72</ele>
        <time>2019-10-07T08:41:19Z</time>
      </trkpt>
      <trkpt lat="45.48631" lon="5.98341">
        <ele>284.666</ele>
        <time>2019-10-07T08:41:49Z</time>
      </trkpt>
      <trkpt lat="45.48432" lon="5.98252">
        <ele>276.234</ele>
        <time>2019-10-07T08:42:22Z</time>
      </trkpt>
      <trkpt lat="45.48213" lon="5.98257">
        <ele>267.864</ele>
        <time>2019-10-07T08:42:52Z</time>
      </trkpt>
      <trkpt lat="45.48044" lon="5.98182">
        <ele>263.439</ele>
        <time>2019-10-07T08:43:22Z</time>
      </trkpt>
      <trkpt lat="45.47895" lon="5.98166">
        <ele>267.377</ele>
        <time>2019-10-07T08:43:52Z</time>
      </trkpt>
      <trkpt lat="45.47746" lon="5.98146">
        <ele>268.957</ele>
        <time>2019-10-07T08:44:22Z</time>
      </trkpt>
      <trkpt lat="45.47643" lon="5.98174">
        <ele>272.289</ele>
        <time>2019-10-07T08:44:52Z</time>
      </trkpt>
      <trkpt lat="45.47558" lon="5.9822">
        <ele>279.604</ele>
        <time>2019-10-07T08:45:22Z</time>
      </trkpt>
      <trkpt lat="45.47473" lon="5.98369">
        <ele>287.355</ele>
        <time>2019-10-07T08:45:55Z</time>
      </trkpt>
      <trkpt lat="45.47331" lon="5.98511">
        <ele>274.069</ele>
        <time>2019-10-07T08:46:25Z</time>
      </trkpt>
      <trkpt lat="45.47177" lon="5.98645">
        <ele>266.102</ele>
        <time>2019-10-07T08:46:55Z</time>
      </trkpt>
      <trkpt lat="45.47037" lon="5.98696">
        <ele>266.641</ele>
        <time>2019-10-07T08:47:25Z</time>
      </trkpt>
      <trkpt lat="45.46948" lon="5.98792">
        <ele>270.883</ele>
        <time>2019-10-07T08:47:55Z</time>
      </trkpt>
      <trkpt lat="45.46869" lon="5.98899">
        <ele>273.418</ele>
        <time>2019-10-07T08:48:25Z</time>
      </trkpt>
      <trkpt lat="45.46796" lon="5.98956">
        <ele>278.054</ele>
        <time>2019-10-07T08:48:55Z</time>
      </trkpt>
      <trkpt lat="45.4673" lon="5.98971">
        <ele>280.75</ele>
        <time>2019-10-07T08:58:58Z</time>
      </trkpt>
      <trkpt lat="45.46652" lon="5.9899">
        <ele>286.655</ele>
        <time>2019-10-07T08:59:28Z</time>
      </trkpt>
      <trkpt lat="45.46567" lon="5.99005">
        <ele>293.27</ele>
        <time>2019-10-07T08:59:58Z</time>
      </trkpt>
      <trkpt lat="45.46477" lon="5.99028">
        <ele>302.211</ele>
        <time>2019-10-07T09:00:28Z</time>
      </trkpt>
      <trkpt lat="45.46391" lon="5.99035">
        <ele>300.787</ele>
        <time>2019-10-07T09:00:58Z</time>
      </trkpt>
      <trkpt lat="45.4629" lon="5.99029">
        <ele>302.996</ele>
        <time>2019-10-07T09:01:28Z</time>
      </trkpt>
      <trkpt lat="45.46201" lon="5.98966">
        <ele>296.623</ele>
        <time>2019-10-07T09:01:58Z</time>
      </trkpt>
      <trkpt lat="45.4612" lon="5.99026">
        <ele>303.528</ele>
        <time>2019-10-07T09:02:28Z</time>
      </trkpt>
      <trkpt lat="45.46046" lon="5.99045">
        <ele>307.237</ele>
        <time>2019-10-07T09:03:01Z</time>
      </trkpt>
      <trkpt lat="45.45972" lon="5.9906">
        <ele>305.189</ele>
        <time>2019-10-07T09:03:31Z</time>
      </trkpt>
      <trkpt lat="45.45892" lon="5.99076">
        <ele>311.86</ele>
        <time>2019-10-07T09:04:01Z</time>
      </trkpt>
      <trkpt lat="45.45818" lon="5.99092">
        <ele>315.875</ele>
        <time>2019-10-07T09:04:31Z</time>
      </trkpt>
      <trkpt lat="45.45748" lon="5.9911">
        <ele>318.329</ele>
        <time>2019-10-07T09:05:01Z</time>
      </trkpt>
      <trkpt lat="45.45675" lon="5.99123">
        <ele>317.982</ele>
        <time>2019-10-07T09:05:31Z</time>
      </trkpt>
      <trkpt lat="45.45593" lon="5.99141">
        <ele>319.037</ele>
        <time>2019-10-07T09:06:01Z</time>
      </trkpt>
      <trkpt lat="45.45504" lon="5.9916">
        <ele>324.246</ele>
        <time>2019-10-07T09:06:34Z</time>
      </trkpt>
      <trkpt lat="45.45425" lon="5.99176">
        <ele>324.33</ele>
        <time>2019-10-07T09:07:04Z</time>
      </trkpt>
      <trkpt lat="45.45333" lon="5.99196">
        <ele>330.792</ele>
        <time>2019-10-07T09:07:34Z</time>
      </trkpt>
      <trkpt lat="45.45213" lon="5.99223">
        <ele>333.346</ele>
        <time>2019-10-07T09:08:04Z</time>
      </trkpt>
      <trkpt lat="45.45101" lon="5.9925">
        <ele>339.869</ele>
        <time>2019-10-07T09:08:34Z</time>
      </trkpt>
      <trkpt lat="45.45009" lon="5.99248">
        <ele>339.787</ele>
        <time>2019-10-07T09:09:04Z</time>
      </trkpt>
      <trkpt lat="45.44927" lon="5.99195">
        <ele>339.443</ele>
        <time>2019-10-07T09:09:34Z</time>
      </trkpt>
      <trkpt lat="45.44827" lon="5.99085">
        <ele>336.907</ele>
        <time>2019-10-07T09:10:04Z</time>
      </trkpt>
      <trkpt lat="45.44702" lon="5.98945">
        <ele>336.277</ele>
        <time>2019-10-07T09:10:37Z</time>
      </trkpt>
      <trkpt lat="45.4459" lon="5.98823">
        <ele>335.971</ele>
        <time>2019-10-07T09:11:07Z</time>
      </trkpt>
      <trkpt lat="45.44472" lon="5.98692">
        <ele>336.661</ele>
        <time>2019-10-07T09:11:37Z</time>
      </trkpt>
      <trkpt lat="45.44345" lon="5.98575">
        <ele>337.34</ele>
        <time>2019-10-07T09:12:07Z</time>
      </trkpt>
      <trkpt lat="45.44188" lon="5.98522">
        <ele>339.474</ele>
        <time>2019-10-07T09:12:37Z</time>
      </trkpt>
      <trkpt lat="45.44035" lon="5.98468">
        <ele>344.784</ele>
        <time>2019-10-07T09:13:07Z</time>
      </trkpt>
      <trkpt lat="45.43902" lon="5.98419">
        <ele>346.114</ele>
        <time>2019-10-07T09:13:37Z</time>
      </trkpt>
      <trkpt lat="45.43771" lon="5.98375">
        <ele>349.473</ele>
        <time>2019-10-07T09:14:10Z</time>
      </trkpt>
      <trkpt lat="45.43644" lon="5.98331">
        <ele>351.557</ele>
        <time>2019-10-07T09:14:40Z</time>
      </trkpt>
      <trkpt lat="45.43446" lon="5.98258">
        <ele>342.13</ele>
        <time>2019-10-07T09:15:10Z</time>
      </trkpt>
      <trkpt lat="45.43197" lon="5.9817">
        <ele>330.541</ele>
        <time>2019-10-07T09:15:40Z</time>
      </trkpt>
      <trkpt lat="45.42945" lon="5.98157">
        <ele>329.575</ele>
        <time>2019-10-07T09:16:10Z</time>
      </trkpt>
      <trkpt lat="45.42727" lon="5.98161">
        <ele>324.994</ele>
        <time>2019-10-07T09:16:40Z</time>
      </trkpt>
      <trkpt lat="45.42582" lon="5.98165">
        <ele>329.185</ele>
        <time>2019-10-07T09:17:10Z</time>
      </trkpt>
      <trkpt lat="45.42413" lon="5.98169">
        <ele>325.963</ele>
        <time>2019-10-07T09:17:40Z</time>
      </trkpt>
      <trkpt lat="45.4215" lon="5.98266">
        <ele>309.704</ele>
        <time>2019-10-07T09:18:13Z</time>
      </trkpt>
      <trkpt lat="45.42086" lon="5.98252">
        <ele>280.518</ele>
        <time>2019-10-07T09:18:43Z</time>
      </trkpt>
      <trkpt lat="45.41754" lon="5.98205">
        <ele>253.348</ele>
        <time>2019-10-07T09:19:13Z</time>
      </trkpt>
      <trkpt lat="45.41493" lon="5.98146">
        <ele>253.082</ele>
        <time>2019-10-07T09:19:43Z</time>
      </trkpt>
      <trkpt lat="45.41315" lon="5.98108">
        <ele>255.025</ele>
        <time>2019-10-07T09:20:13Z</time>
      </trkpt>
      <trkpt lat="45.41183" lon="5.98076">
        <ele>254.874</ele>
        <time>2019-10-07T09:20:43Z</time>
      </trkpt>
      <trkpt lat="45.41046" lon="5.98008">
        <ele>255.656</ele>
        <time>2019-10-07T09:21:13Z</time>
      </trkpt>
      <trkpt lat="45.40947" lon="5.97972">
        <ele>261.419</ele>
        <time>2019-10-07T09:21:46Z</time>
      </trkpt>
      <trkpt lat="45.40897" lon="5.98177">
        <ele>257.88</ele>
        <time>2019-10-07T09:22:16Z</time>
      </trkpt>
      <trkpt lat="45.40847" lon="5.98337">
        <ele>250.722</ele>
        <time>2019-10-07T09:22:46Z</time>
      </trkpt>
      <trkpt lat="45.4079" lon="5.9851">
        <ele>250.657</ele>
        <time>2019-10-07T09:23:16Z</time>
      </trkpt>
      <trkpt lat="45.40737" lon="5.98661">
        <ele>249.113</ele>
        <time>2019-10-07T09:23:46Z</time>
      </trkpt>
      <trkpt lat="45.40598" lon="5.98604">
        <ele>247.089</ele>
        <time>2019-10-07T09:24:16Z</time>
      </trkpt>
      <trkpt lat="45.40463" lon="5.9853">
        <ele>254.38</ele>
        <time>2019-10-07T09:24:46Z</time>
      </trkpt>
      <trkpt lat="45.40332" lon="5.98457">
        <ele>251.931</ele>
        <time>2019-10-07T09:25:16Z</time>
      </trkpt>
      <trkpt lat="45.40193" lon="5.98402">
        <ele>252.289</ele>
        <time>2019-10-07T09:25:49Z</time>
      </trkpt>
      <trkpt lat="45.40033" lon="5.98291">
        <ele>249.713</ele>
        <time>2019-10-07T09:26:19Z</time>
      </trkpt>
      <trkpt lat="45.39881" lon="5.98197">
        <ele>244.373</ele>
        <time>2019-10-07T09:26:49Z</time>
      </trkpt>
      <trkpt lat="45.39731" lon="5.9812">
        <ele>247.008</ele>
        <time>2019-10-07T09:27:19Z</time>
      </trkpt>
      <trkpt lat="45.39596" lon="5.98046">
        <ele>242.929</ele>
        <time>2019-10-07T09:27:49Z</time>
      </trkpt>
      <trkpt lat="45.39439" lon="5.9797">
        <ele>249.418</ele>
        <time>2019-10-07T09:28:19Z</time>
      </trkpt>
      <trkpt lat="45.39297" lon="5.97891">
        <ele>241.717</ele>
        <time>2019-10-07T09:28:49Z</time>
      </trkpt>
      <trkpt lat="45.39147" lon="5.97812">
        <ele>245.481</ele>
        <time>2019-10-07T09:29:22Z</time>
      </trkpt>
      <trkpt lat="45.39005" lon="5.9773">
        <ele>242.834</ele>
        <time>2019-10-07T09:29:52Z</time>
      </trkpt>
      <trkpt lat="45.3887" lon="5.97645">
        <ele>243.242</ele>
        <time>2019-10-07T09:30:22Z</time>
      </trkpt>
      <trkpt lat="45.38729" lon="5.97571">
        <ele>242.893</ele>
        <time>2019-10-07T09:30:52Z</time>
      </trkpt>
      <trkpt lat="45.38607" lon="5.9751">
        <ele>243.315</ele>
        <time>2019-10-07T09:31:22Z</time>
      </trkpt>
      <trkpt lat="45.38452" lon="5.97427">
        <ele>244.47</ele>
        <time>2019-10-07T09:31:52Z</time>
      </trkpt>
      <trkpt lat="45.38324" lon="5.97355">
        <ele>246.08</ele>
        <time>2019-10-07T09:32:22Z</time>
      </trkpt>
      <trkpt lat="45.38199" lon="5.97305">
        <ele>248.31</ele>
        <time>2019-10-07T09:32:52Z</time>
      </trkpt>
      <trkpt lat="45.38073" lon="5.97313">
        <ele>249.749</ele>
        <time>2019-10-07T09:33:25Z</time>
      </trkpt>
      <trkpt lat="45.37952" lon="5.97293">
        <ele>246.99</ele>
        <time>2019-10-07T09:33:55Z</time>
      </trkpt>
      <trkpt lat="45.37829" lon="5.9729">
        <ele>252.6</ele>
        <time>2019-10-07T09:34:25Z</time>
      </trkpt>
      <trkpt lat="45.37671" lon="5.97259">
        <ele>254.372</ele>
        <time>2019-10-07T09:34:55Z</time>
      </trkpt>
      <trkpt lat="45.37533" lon="5.97239">
        <ele>254.34</ele>
        <time>2019-10-07T09:35:25Z</time>
      </trkpt>
      <trkpt lat="45.37341" lon="5.97174">
        <ele>246.35</ele>
        <time>2019-10-07T09:35:55Z</time>
      </trkpt>
      <trkpt lat="45.37159" lon="5.97045">
        <ele>242.237</ele>
        <time>2019-10-07T09:36:25Z</time>
      </trkpt>
      <trkpt lat="45.3701" lon="5.97021">
        <ele>241.522</ele>
        <time>2019-10-07T09:36:58Z</time>
      </trkpt>
      <trkpt lat="45.3692" lon="5.96983">
        <ele>246.657</ele>
        <time>2019-10-07T09:37:28Z</time>
      </trkpt>
      <trkpt lat="45.36833" lon="5.96925">
        <ele>249.998</ele>
        <time>2019-10-07T09:37:58Z</time>
      </trkpt>
      <trkpt lat="45.3675" lon="5.96866">
        <ele>251.918</ele>
        <time>2019-10-07T09:38:28Z</time>
      </trkpt>
      <trkpt lat="45.36628" lon="5.96814">
        <ele>251.395</ele>
        <time>2019-10-07T09:38:58Z</time>
      </trkpt>
      <trkpt lat="45.36502" lon="5.96782">
        <ele>249.467</ele>
        <time>2019-10-07T09:39:28Z</time>
      </trkpt>
      <trkpt lat="45.36376" lon="5.96744">
        <ele>252.475</ele>
        <time>2019-10-07T09:39:58Z</time>
      </trkpt>
      <trkpt lat="45.36225" lon="5.96739">
        <ele>249.832</ele>
        <time>2019-10-07T09:40:28Z</time>
      </trkpt>
      <trkpt lat="45.36117" lon="5.96747">
        <ele>244.441</ele>
        <time>2019-10-07T09:41:31Z</time>
      </trkpt>
      <trkpt lat="45.36067" lon="5.96744">
        <ele>241.513</ele>
        <time>2019-10-07T09:46:22Z</time>
      </trkpt>
      <trkpt lat="45.35889" lon="5.96755">
        <ele>240.669</ele>
        <time>2019-10-07T09:46:52Z</time>
      </trkpt>
      <trkpt lat="45.35731" lon="5.96726">
        <ele>240.066</ele>
        <time>2019-10-07T09:47:22Z</time>
      </trkpt>
      <trkpt lat="45.3557" lon="5.96706">
        <ele>234.753</ele>
        <time>2019-10-07T09:47:52Z</time>
      </trkpt>
      <trkpt lat="45.35413" lon="5.96675">
        <ele>236.383</ele>
        <time>2019-10-07T09:48:22Z</time>
      </trkpt>
      <trkpt lat="45.35269" lon="5.96625">
        <ele>238.658</ele>
        <time>2019-10-07T09:48:52Z</time>
      </trkpt>
      <trkpt lat="45.35153" lon="5.96505">
        <ele>239.308</ele>
        <time>2019-10-07T09:49:25Z</time>
      </trkpt>
      <trkpt lat="45.35174" lon="5.96323">
        <ele>231.801</ele>
        <time>2019-10-07T09:49:55Z</time>
      </trkpt>
      <trkpt lat="45.35059" lon="5.96263">
        <ele>234.488</ele>
        <time>2019-10-07T09:50:25Z</time>
      </trkpt>
      <trkpt lat="45.34919" lon="5.96303">
        <ele>235.13</ele>
        <time>2019-10-07T09:50:55Z</time>
      </trkpt>
      <trkpt lat="45.34776" lon="5.96303">
        <ele>237.851</ele>
        <time>2019-10-07T09:51:25Z</time>
      </trkpt>
      <trkpt lat="45.34641" lon="5.96215">
        <ele>238.129</ele>
        <time>2019-10-07T09:51:55Z</time>
      </trkpt>
      <trkpt lat="45.34489" lon="5.96122">
        <ele>233.581</ele>
        <time>2019-10-07T09:52:25Z</time>
      </trkpt>
      <trkpt lat="45.3434" lon="5.96012">
        <ele>235.321</ele>
        <time>2019-10-07T09:52:58Z</time>
      </trkpt>
      <trkpt lat="45.34189" lon="5.95926">
        <ele>234.735</ele>
        <time>2019-10-07T09:53:28Z</time>
      </trkpt>
      <trkpt lat="45.34035" lon="5.95836">
        <ele>234.821</ele>
        <time>2019-10-07T09:53:58Z</time>
      </trkpt>
      <trkpt lat="45.33872" lon="5.95731">
        <ele>234.286</ele>
        <time>2019-10-07T09:54:28Z</time>
      </trkpt>
      <trkpt lat="45.33762" lon="5.95551">
        <ele>234.385</ele>
        <time>2019-10-07T09:54:58Z</time>
      </trkpt>
      <trkpt lat="45.33644" lon="5.95367">
        <ele>234.27</ele>
        <time>2019-10-07T09:55:28Z</time>
      </trkpt>
      <trkpt lat="45.33531" lon="5.95183">
        <ele>233.378</ele>
        <time>2019-10-07T09:55:58Z</time>
      </trkpt>
      <trkpt lat="45.33429" lon="5.94987">
        <ele>233.517</ele>
        <time>2019-10-07T09:56:28Z</time>
      </trkpt>
      <trkpt lat="45.33273" lon="5.94811">
        <ele>231.268</ele>
        <time>2019-10-07T09:57:01Z</time>
      </trkpt>
      <trkpt lat="45.3317" lon="5.94608">
        <ele>230.619</ele>
        <time>2019-10-07T09:57:31Z</time>
      </trkpt>
      <trkpt lat="45.33092" lon="5.94373">
        <ele>231.427</ele>
        <time>2019-10-07T09:58:01Z</time>
      </trkpt>
      <trkpt lat="45.33093" lon="5.94179">
        <ele>233.735</ele>
        <time>2019-10-07T09:58:31Z</time>
      </trkpt>
      <trkpt lat="45.33037" lon="5.93969">
        <ele>232.421</ele>
        <time>2019-10-07T09:59:01Z</time>
      </trkpt>
      <trkpt lat="45.32982" lon="5.93785">
        <ele>234.282</ele>
        <time>2019-10-07T09:59:31Z</time>
      </trkpt>
      <trkpt lat="45.32897" lon="5.93748">
        <ele>238.966</ele>
        <time>2019-10-07T10:00:01Z</time>
      </trkpt>
      <trkpt lat="45.32813" lon="5.93725">
        <ele>242.879</ele>
        <time>2019-10-07T10:00:34Z</time>
      </trkpt>
      <trkpt lat="45.32727" lon="5.93704">
        <ele>246.404</ele>
        <time>2019-10-07T10:01:04Z</time>
      </trkpt>
      <trkpt lat="45.32642" lon="5.93772">
        <ele>246.972</ele>
        <time>2019-10-07T10:01:34Z</time>
      </trkpt>
      <trkpt lat="45.32483" lon="5.93885">
        <ele>235.395</ele>
        <time>2019-10-07T10:02:04Z</time>
      </trkpt>
      <trkpt lat="45.32385" lon="5.93768">
        <ele>237.123</ele>
        <time>2019-10-07T10:02:34Z</time>
      </trkpt>
      <trkpt lat="45.32297" lon="5.93641">
        <ele>238.475</ele>
        <time>2019-10-07T10:03:04Z</time>
      </trkpt>
      <trkpt lat="45.32215" lon="5.93526">
        <ele>242.809</ele>
        <time>2019-10-07T10:03:34Z</time>
      </trkpt>
      <trkpt lat="45.32153" lon="5.93416">
        <ele>243.703</ele>
        <time>2019-10-07T10:04:04Z</time>
      </trkpt>
      <trkpt lat="45.31996" lon="5.93217">
        <ele>236</ele>
        <time>2019-10-07T10:04:37Z</time>
      </trkpt>
      <trkpt lat="45.31841" lon="5.93137">
        <ele>232.18</ele>
        <time>2019-10-07T10:05:07Z</time>
      </trkpt>
      <trkpt lat="45.31781" lon="5.93002">
        <ele>237.334</ele>
        <time>2019-10-07T10:05:37Z</time>
      </trkpt>
      <trkpt lat="45.31729" lon="5.92901">
        <ele>242.426</ele>
        <time>2019-10-07T10:06:07Z</time>
      </trkpt>
      <trkpt lat="45.3168" lon="5.92801">
        <ele>245.037</ele>
        <time>2019-10-07T10:06:37Z</time>
      </trkpt>
      <trkpt lat="45.31628" lon="5.92693">
        <ele>249.416</ele>
        <time>2019-10-07T10:07:07Z</time>
      </trkpt>
      <trkpt lat="45.31593" lon="5.92592">
        <ele>251.745</ele>
        <time>2019-10-07T10:07:37Z</time>
      </trkpt>
      <trkpt lat="45.31502" lon="5.92801">
        <ele>245.798</ele>
        <time>2019-10-07T10:08:10Z</time>
      </trkpt>
      <trkpt lat="45.31401" lon="5.92942">
        <ele>237.188</ele>
        <time>2019-10-07T10:08:40Z</time>
      </trkpt>
      <trkpt lat="45.31299" lon="5.93149">
        <ele>229.632</ele>
        <time>2019-10-07T10:09:10Z</time>
      </trkpt>
      <trkpt lat="45.31172" lon="5.93111">
        <ele>228.837</ele>
        <time>2019-10-07T10:09:40Z</time>
      </trkpt>
      <trkpt lat="45.31071" lon="5.93034">
        <ele>232.348</ele>
        <time>2019-10-07T10:10:10Z</time>
      </trkpt>
      <trkpt lat="45.31025" lon="5.92906">
        <ele>235.16</ele>
        <time>2019-10-07T10:10:40Z</time>
      </trkpt>
      <trkpt lat="45.30918" lon="5.92887">
        <ele>234.389</ele>
        <time>2019-10-07T10:11:10Z</time>
      </trkpt>
      <trkpt lat="45.30774" lon="5.92906">
        <ele>234.497</ele>
        <time>2019-10-07T10:11:43Z</time>
      </trkpt>
      <trkpt lat="45.30613" lon="5.92754">
        <ele>229.678</ele>
        <time>2019-10-07T10:12:16Z</time>
      </trkpt>
      <trkpt lat="45.30587" lon="5.92548">
        <ele>224.038</ele>
        <time>2019-10-07T10:12:46Z</time>
      </trkpt>
      <trkpt lat="45.30553" lon="5.92358">
        <ele>225.564</ele>
        <time>2019-10-07T10:13:16Z</time>
      </trkpt>
      <trkpt lat="45.3054" lon="5.92185">
        <ele>226.524</ele>
        <time>2019-10-07T10:13:46Z</time>
      </trkpt>
      <trkpt lat="45.30469" lon="5.92009">
        <ele>221.352</ele>
        <time>2019-10-07T10:14:16Z</time>
      </trkpt>
      <trkpt lat="45.30501" lon="5.91846">
        <ele>226.015</ele>
        <time>2019-10-07T10:14:46Z</time>
      </trkpt>
      <trkpt lat="45.30543" lon="5.91668">
        <ele>226.963</ele>
        <time>2019-10-07T10:15:16Z</time>
      </trkpt>
      <trkpt lat="45.30401" lon="5.91495">
        <ele>223.919</ele>
        <time>2019-10-07T10:15:49Z</time>
      </trkpt>
      <trkpt lat="45.30263" lon="5.91363">
        <ele>220.192</ele>
        <time>2019-10-07T10:16:19Z</time>
      </trkpt>
      <trkpt lat="45.30126" lon="5.91227">
        <ele>224.615</ele>
        <time>2019-10-07T10:16:49Z</time>
      </trkpt>
      <trkpt lat="45.29984" lon="5.91091">
        <ele>228.085</ele>
        <time>2019-10-07T10:17:19Z</time>
      </trkpt>
      <trkpt lat="45.29818" lon="5.90996">
        <ele>226.585</ele>
        <time>2019-10-07T10:17:49Z</time>
      </trkpt>
      <trkpt lat="45.29653" lon="5.90932">
        <ele>223.048</ele>
        <time>2019-10-07T10:18:19Z</time>
      </trkpt>
      <trkpt lat="45.29494" lon="5.90867">
        <ele>225.221</ele>
        <time>2019-10-07T10:18:49Z</time>
      </trkpt>
      <trkpt lat="45.29336" lon="5.90794">
        <ele>223.797</ele>
        <time>2019-10-07T10:19:19Z</time>
      </trkpt>
      <trkpt lat="45.29163" lon="5.90816">
        <ele>222.438</ele>
        <time>2019-10-07T10:19:52Z</time>
      </trkpt>
      <trkpt lat="45.2901" lon="5.90878">
        <ele>224.213</ele>
        <time>2019-10-07T10:20:22Z</time>
      </trkpt>
      <trkpt lat="45.28862" lon="5.90798">
        <ele>224.939</ele>
        <time>2019-10-07T10:20:52Z</time>
      </trkpt>
      <trkpt lat="45.28705" lon="5.90686">
        <ele>224.034</ele>
        <time>2019-10-07T10:21:22Z</time>
      </trkpt>
      <trkpt lat="45.28542" lon="5.90564">
        <ele>223.298</ele>
        <time>2019-10-07T10:21:52Z</time>
      </trkpt>
      <trkpt lat="45.28499" lon="5.9038">
        <ele>217.854</ele>
        <time>2019-10-07T10:22:22Z</time>
      </trkpt>
      <trkpt lat="45.28469" lon="5.90142">
        <ele>218.641</ele>
        <time>2019-10-07T10:22:52Z</time>
      </trkpt>
      <trkpt lat="45.28444" lon="5.89885">
        <ele>219.142</ele>
        <time>2019-10-07T10:23:25Z</time>
      </trkpt>
      <trkpt lat="45.28373" lon="5.8992">
        <ele>222.48</ele>
        <time>2019-10-07T10:23:55Z</time>
      </trkpt>
      <trkpt lat="45.28256" lon="5.90027">
        <ele>222.771</ele>
        <time>2019-10-07T10:24:25Z</time>
      </trkpt>
      <trkpt lat="45.28136" lon="5.90135">
        <ele>222.563</ele>
        <time>2019-10-07T10:24:55Z</time>
      </trkpt>
      <trkpt lat="45.28035" lon="5.89984">
        <ele>220.611</ele>
        <time>2019-10-07T10:25:25Z</time>
      </trkpt>
      <trkpt lat="45.27879" lon="5.8985">
        <ele>223.087</ele>
        <time>2019-10-07T10:25:55Z</time>
      </trkpt>
      <trkpt lat="45.27724" lon="5.89686">
        <ele>223.928</ele>
        <time>2019-10-07T10:26:25Z</time>
      </trkpt>
      <trkpt lat="45.27625" lon="5.89624">
        <ele>225.103</ele>
        <time>2019-10-07T10:26:55Z</time>
      </trkpt>
      <trkpt lat="45.27503" lon="5.89672">
        <ele>224.146</ele>
        <time>2019-10-07T10:27:28Z</time>
      </trkpt>
      <trkpt lat="45.27379" lon="5.89526">
        <ele>222.185</ele>
        <time>2019-10-07T10:27:58Z</time>
      </trkpt>
      <trkpt lat="45.27285" lon="5.89387">
        <ele>220.727</ele>
        <time>2019-10-07T10:28:28Z</time>
      </trkpt>
      <trkpt lat="45.27215" lon="5.89368">
        <ele>223.21</ele>
        <time>2019-10-07T10:28:58Z</time>
      </trkpt>
      <trkpt lat="45.2723" lon="5.89341">
        <ele>228.048</ele>
        <time>2019-10-07T10:34:34Z</time>
      </trkpt>
      <trkpt lat="45.27235" lon="5.89336">
        <ele>227.536</ele>
        <time>2019-10-07T10:35:34Z</time>
      </trkpt>
      <trkpt lat="45.27232" lon="5.89342">
        <ele>228.72</ele>
        <time>2019-10-07T10:37:19Z</time>
      </trkpt>
      <trkpt lat="45.2723" lon="5.89341">
        <ele>229.188</ele>
        <time>2019-10-07T10:38:16Z</time>
      </trkpt>
      <trkpt lat="45.27241" lon="5.89315">
        <ele>229.224</ele>
        <time>2019-10-07T10:42:22Z</time>
      </trkpt>
      <trkpt lat="45.27228" lon="5.893">
        <ele>229.44</ele>
        <time>2019-10-07T10:45:28Z</time>
      </trkpt>
      <trkpt lat="45.27226" lon="5.89301">
        <ele>228.242</ele>
        <time>2019-10-07T10:58:34Z</time>
      </trkpt>
      <trkpt lat="45.27222" lon="5.89302">
        <ele>228.776</ele>
        <time>2019-10-07T11:24:34Z</time>
      </trkpt>
      <trkpt lat="45.2715" lon="5.89247">
        <ele>232.573</ele>
        <time>2019-10-07T11:28:19Z</time>
      </trkpt>
      <trkpt lat="45.27063" lon="5.89156">
        <ele>232.176</ele>
        <time>2019-10-07T11:28:49Z</time>
      </trkpt>
      <trkpt lat="45.27007" lon="5.89131">
        <ele>227.706</ele>
        <time>2019-10-07T11:29:25Z</time>
      </trkpt>
      <trkpt lat="45.26983" lon="5.89243">
        <ele>232.93</ele>
        <time>2019-10-07T11:29:58Z</time>
      </trkpt>
      <trkpt lat="45.26972" lon="5.89264">
        <ele>228.614</ele>
        <time>2019-10-07T11:33:31Z</time>
      </trkpt>
      <trkpt lat="45.27" lon="5.89145">
        <ele>226.676</ele>
        <time>2019-10-07T11:34:01Z</time>
      </trkpt>
      <trkpt lat="45.2692" lon="5.89027">
        <ele>230.545</ele>
        <time>2019-10-07T11:34:31Z</time>
      </trkpt>
      <trkpt lat="45.26838" lon="5.88868">
        <ele>226.772</ele>
        <time>2019-10-07T11:35:01Z</time>
      </trkpt>
      <trkpt lat="45.26788" lon="5.88725">
        <ele>228.163</ele>
        <time>2019-10-07T11:35:31Z</time>
      </trkpt>
      <trkpt lat="45.26744" lon="5.88624">
        <ele>226.641</ele>
        <time>2019-10-07T11:38:55Z</time>
      </trkpt>
      <trkpt lat="45.26692" lon="5.88466">
        <ele>228.052</ele>
        <time>2019-10-07T11:39:28Z</time>
      </trkpt>
      <trkpt lat="45.26622" lon="5.8833">
        <ele>230.855</ele>
        <time>2019-10-07T11:39:58Z</time>
      </trkpt>
      <trkpt lat="45.26551" lon="5.88194">
        <ele>233.37</ele>
        <time>2019-10-07T11:40:28Z</time>
      </trkpt>
      <trkpt lat="45.26472" lon="5.88104">
        <ele>233.201</ele>
        <time>2019-10-07T11:40:58Z</time>
      </trkpt>
      <trkpt lat="45.26482" lon="5.88053">
        <ele>229.572</ele>
        <time>2019-10-07T11:41:31Z</time>
      </trkpt>
      <trkpt lat="45.26497" lon="5.88134">
        <ele>237.099</ele>
        <time>2019-10-07T11:42:01Z</time>
      </trkpt>
      <trkpt lat="45.26456" lon="5.88042">
        <ele>237.593</ele>
        <time>2019-10-07T11:42:31Z</time>
      </trkpt>
      <trkpt lat="45.26401" lon="5.87862">
        <ele>233.036</ele>
        <time>2019-10-07T11:43:04Z</time>
      </trkpt>
      <trkpt lat="45.26393" lon="5.8772">
        <ele>232.508</ele>
        <time>2019-10-07T11:43:34Z</time>
      </trkpt>
      <trkpt lat="45.26326" lon="5.87539">
        <ele>234.076</ele>
        <time>2019-10-07T11:44:04Z</time>
      </trkpt>
      <trkpt lat="45.26281" lon="5.87393">
        <ele>239.395</ele>
        <time>2019-10-07T11:44:34Z</time>
      </trkpt>
      <trkpt lat="45.26202" lon="5.87277">
        <ele>239.281</ele>
        <time>2019-10-07T11:45:04Z</time>
      </trkpt>
      <trkpt lat="45.26122" lon="5.87164">
        <ele>240.781</ele>
        <time>2019-10-07T11:45:34Z</time>
      </trkpt>
      <trkpt lat="45.26054" lon="5.87042">
        <ele>245.899</ele>
        <time>2019-10-07T11:46:04Z</time>
      </trkpt>
      <trkpt lat="45.26063" lon="5.86926">
        <ele>249.742</ele>
        <time>2019-10-07T11:46:34Z</time>
      </trkpt>
      <trkpt lat="45.26023" lon="5.86816">
        <ele>253.172</ele>
        <time>2019-10-07T11:47:07Z</time>
      </trkpt>
      <trkpt lat="45.25914" lon="5.86954">
        <ele>246.926</ele>
        <time>2019-10-07T11:47:37Z</time>
      </trkpt>
      <trkpt lat="45.25716" lon="5.87028">
        <ele>228.155</ele>
        <time>2019-10-07T11:48:07Z</time>
      </trkpt>
      <trkpt lat="45.25497" lon="5.87082">
        <ele>217.483</ele>
        <time>2019-10-07T11:48:37Z</time>
      </trkpt>
      <trkpt lat="45.25338" lon="5.87087">
        <ele>218.371</ele>
        <time>2019-10-07T11:49:07Z</time>
      </trkpt>
      <trkpt lat="45.25232" lon="5.87215">
        <ele>220.321</ele>
        <time>2019-10-07T11:49:37Z</time>
      </trkpt>
      <trkpt lat="45.25137" lon="5.87318">
        <ele>223.169</ele>
        <time>2019-10-07T11:50:07Z</time>
      </trkpt>
      <trkpt lat="45.25081" lon="5.87385">
        <ele>228.327</ele>
        <time>2019-10-07T11:50:40Z</time>
      </trkpt>
      <trkpt lat="45.25012" lon="5.87463">
        <ele>238.081</ele>
        <time>2019-10-07T11:51:10Z</time>
      </trkpt>
      <trkpt lat="45.24823" lon="5.87514">
        <ele>227.379</ele>
        <time>2019-10-07T11:51:40Z</time>
      </trkpt>
      <trkpt lat="45.24905" lon="5.87365">
        <ele>220.79</ele>
        <time>2019-10-07T11:52:10Z</time>
      </trkpt>
      <trkpt lat="45.2486" lon="5.87185">
        <ele>221.909</ele>
        <time>2019-10-07T11:52:40Z</time>
      </trkpt>
      <trkpt lat="45.24751" lon="5.86971">
        <ele>222.896</ele>
        <time>2019-10-07T11:53:10Z</time>
      </trkpt>
      <trkpt lat="45.24647" lon="5.86748">
        <ele>222.59</ele>
        <time>2019-10-07T11:53:40Z</time>
      </trkpt>
      <trkpt lat="45.24546" lon="5.86505">
        <ele>224.551</ele>
        <time>2019-10-07T11:54:10Z</time>
      </trkpt>
      <trkpt lat="45.24392" lon="5.86292">
        <ele>222.996</ele>
        <time>2019-10-07T11:54:43Z</time>
      </trkpt>
      <trkpt lat="45.24277" lon="5.86089">
        <ele>223.166</ele>
        <time>2019-10-07T11:55:13Z</time>
      </trkpt>
      <trkpt lat="45.24196" lon="5.85898">
        <ele>227.49</ele>
        <time>2019-10-07T11:55:43Z</time>
      </trkpt>
      <trkpt lat="45.24119" lon="5.85714">
        <ele>226.708</ele>
        <time>2019-10-07T11:56:13Z</time>
      </trkpt>
      <trkpt lat="45.2422" lon="5.8558">
        <ele>222.199</ele>
        <time>2019-10-07T11:56:43Z</time>
      </trkpt>
      <trkpt lat="45.24183" lon="5.85423">
        <ele>227.399</ele>
        <time>2019-10-07T11:57:13Z</time>
      </trkpt>
      <trkpt lat="45.24148" lon="5.85285">
        <ele>232.034</ele>
        <time>2019-10-07T11:57:43Z</time>
      </trkpt>
      <trkpt lat="45.24131" lon="5.85281">
        <ele>237.909</ele>
        <time>2019-10-07T11:58:19Z</time>
      </trkpt>
      <trkpt lat="45.24063" lon="5.85397">
        <ele>233.793</ele>
        <time>2019-10-07T11:58:49Z</time>
      </trkpt>
      <trkpt lat="45.23956" lon="5.85364">
        <ele>224.987</ele>
        <time>2019-10-07T11:59:19Z</time>
      </trkpt>
      <trkpt lat="45.23785" lon="5.85411">
        <ele>220.705</ele>
        <time>2019-10-07T11:59:49Z</time>
      </trkpt>
      <trkpt lat="45.23629" lon="5.85434">
        <ele>219.557</ele>
        <time>2019-10-07T12:00:19Z</time>
      </trkpt>
      <trkpt lat="45.23474" lon="5.85421">
        <ele>221.996</ele>
        <time>2019-10-07T12:00:49Z</time>
      </trkpt>
      <trkpt lat="45.23321" lon="5.85371">
        <ele>221.961</ele>
        <time>2019-10-07T12:01:19Z</time>
      </trkpt>
      <trkpt lat="45.23164" lon="5.85325">
        <ele>221.362</ele>
        <time>2019-10-07T12:01:49Z</time>
      </trkpt>
      <trkpt lat="45.23039" lon="5.85329">
        <ele>224.703</ele>
        <time>2019-10-07T12:02:22Z</time>
      </trkpt>
      <trkpt lat="45.22924" lon="5.85188">
        <ele>228.511</ele>
        <time>2019-10-07T12:02:52Z</time>
      </trkpt>
      <trkpt lat="45.22808" lon="5.85046">
        <ele>232.645</ele>
        <time>2019-10-07T12:03:22Z</time>
      </trkpt>
      <trkpt lat="45.22689" lon="5.84899">
        <ele>228.65</ele>
        <time>2019-10-07T12:03:52Z</time>
      </trkpt>
      <trkpt lat="45.22572" lon="5.84762">
        <ele>232.292</ele>
        <time>2019-10-07T12:04:22Z</time>
      </trkpt>
      <trkpt lat="45.22456" lon="5.84611">
        <ele>232.1</ele>
        <time>2019-10-07T12:04:52Z</time>
      </trkpt>
      <trkpt lat="45.22332" lon="5.84458">
        <ele>225.92</ele>
        <time>2019-10-07T12:05:22Z</time>
      </trkpt>
      <trkpt lat="45.22193" lon="5.84297">
        <ele>230.148</ele>
        <time>2019-10-07T12:05:55Z</time>
      </trkpt>
      <trkpt lat="45.22076" lon="5.84157">
        <ele>227.672</ele>
        <time>2019-10-07T12:06:25Z</time>
      </trkpt>
      <trkpt lat="45.21955" lon="5.84015">
        <ele>227.272</ele>
        <time>2019-10-07T12:06:55Z</time>
      </trkpt>
      <trkpt lat="45.21848" lon="5.83842">
        <ele>232.035</ele>
        <time>2019-10-07T12:07:25Z</time>
      </trkpt>
      <trkpt lat="45.2174" lon="5.83667">
        <ele>230.813</ele>
        <time>2019-10-07T12:07:55Z</time>
      </trkpt>
      <trkpt lat="45.21641" lon="5.83472">
        <ele>227.398</ele>
        <time>2019-10-07T12:08:25Z</time>
      </trkpt>
      <trkpt lat="45.21536" lon="5.83302">
        <ele>225.939</ele>
        <time>2019-10-07T12:08:55Z</time>
      </trkpt>
      <trkpt lat="45.21407" lon="5.83142">
        <ele>224.703</ele>
        <time>2019-10-07T12:09:25Z</time>
      </trkpt>
      <trkpt lat="45.21262" lon="5.82995">
        <ele>224.279</ele>
        <time>2019-10-07T12:09:58Z</time>
      </trkpt>
      <trkpt lat="45.21134" lon="5.82881">
        <ele>222.145</ele>
        <time>2019-10-07T12:10:31Z</time>
      </trkpt>
      <trkpt lat="45.21008" lon="5.8274">
        <ele>222.807</ele>
        <time>2019-10-07T12:11:01Z</time>
      </trkpt>
      <trkpt lat="45.2087" lon="5.82592">
        <ele>222.088</ele>
        <time>2019-10-07T12:11:31Z</time>
      </trkpt>
      <trkpt lat="45.20736" lon="5.82443">
        <ele>224.247</ele>
        <time>2019-10-07T12:12:01Z</time>
      </trkpt>
      <trkpt lat="45.20587" lon="5.82314">
        <ele>223.792</ele>
        <time>2019-10-07T12:12:31Z</time>
      </trkpt>
      <trkpt lat="45.20458" lon="5.82145">
        <ele>222.728</ele>
        <time>2019-10-07T12:13:01Z</time>
      </trkpt>
      <trkpt lat="45.20369" lon="5.81914">
        <ele>221.734</ele>
        <time>2019-10-07T12:13:34Z</time>
      </trkpt>
      <trkpt lat="45.2046" lon="5.81713">
        <ele>221.383</ele>
        <time>2019-10-07T12:14:04Z</time>
      </trkpt>
      <trkpt lat="45.2056" lon="5.81538">
        <ele>218.916</ele>
        <time>2019-10-07T12:14:34Z</time>
      </trkpt>
      <trkpt lat="45.20679" lon="5.81383">
        <ele>219.278</ele>
        <time>2019-10-07T12:15:04Z</time>
      </trkpt>
      <trkpt lat="45.20681" lon="5.81149">
        <ele>218.717</ele>
        <time>2019-10-07T12:15:34Z</time>
      </trkpt>
      <trkpt lat="45.20685" lon="5.80953">
        <ele>217.934</ele>
        <time>2019-10-07T12:16:04Z</time>
      </trkpt>
      <trkpt lat="45.20685" lon="5.80828">
        <ele>217.07</ele>
        <time>2019-10-07T12:28:04.001Z</time>
      </trkpt>
      <trkpt lat="45.20696" lon="5.80656">
        <ele>217.244</ele>
        <time>2019-10-07T12:28:34.001Z</time>
      </trkpt>
      <trkpt lat="45.20714" lon="5.80429">
        <ele>218.121</ele>
        <time>2019-10-07T12:29:07.001Z</time>
      </trkpt>
      <trkpt lat="45.20695" lon="5.80219">
        <ele>218.371</ele>
        <time>2019-10-07T12:29:37.001Z</time>
      </trkpt>
      <trkpt lat="45.20656" lon="5.80013">
        <ele>220.119</ele>
        <time>2019-10-07T12:30:07.001Z</time>
      </trkpt>
      <trkpt lat="45.20605" lon="5.79812">
        <ele>222.543</ele>
        <time>2019-10-07T12:30:37.001Z</time>
      </trkpt>
      <trkpt lat="45.20506" lon="5.79633">
        <ele>222.113</ele>
        <time>2019-10-07T12:31:07.001Z</time>
      </trkpt>
      <trkpt lat="45.20373" lon="5.79554">
        <ele>219.197</ele>
        <time>2019-10-07T12:31:37.001Z</time>
      </trkpt>
      <trkpt lat="45.20516" lon="5.79478">
        <ele>215.6</ele>
        <time>2019-10-07T12:32:07.001Z</time>
      </trkpt>
      <trkpt lat="45.20487" lon="5.79331">
        <ele>217.123</ele>
        <time>2019-10-07T12:32:43.001Z</time>
      </trkpt>
      <trkpt lat="45.20566" lon="5.79175">
        <ele>217.764</ele>
        <time>2019-10-07T12:33:13.001Z</time>
      </trkpt>
      <trkpt lat="45.20527" lon="5.78963">
        <ele>217.908</ele>
        <time>2019-10-07T12:33:43.001Z</time>
      </trkpt>
      <trkpt lat="45.20462" lon="5.78806">
        <ele>220.37</ele>
        <time>2019-10-07T12:34:13.001Z</time>
      </trkpt>
      <trkpt lat="45.20453" lon="5.78602">
        <ele>217.998</ele>
        <time>2019-10-07T12:34:43.001Z</time>
      </trkpt>
      <trkpt lat="45.20398" lon="5.78388">
        <ele>217.649</ele>
        <time>2019-10-07T12:35:13.001Z</time>
      </trkpt>
      <trkpt lat="45.20295" lon="5.78254">
        <ele>214.707</ele>
        <time>2019-10-07T12:35:43.001Z</time>
      </trkpt>
      <trkpt lat="45.20184" lon="5.78145">
        <ele>214.116</ele>
        <time>2019-10-07T12:36:13.001Z</time>
      </trkpt>
      <trkpt lat="45.20093" lon="5.77974">
        <ele>213.321</ele>
        <time>2019-10-07T12:36:46.001Z</time>
      </trkpt>
      <trkpt lat="45.20143" lon="5.77773">
        <ele>215.812</ele>
        <time>2019-10-07T12:37:16Z</time>
      </trkpt>
      <trkpt lat="45.20161" lon="5.77564">
        <ele>217.294</ele>
        <time>2019-10-07T12:37:46.001Z</time>
      </trkpt>
      <trkpt lat="45.2016" lon="5.77341">
        <ele>215.355</ele>
        <time>2019-10-07T12:38:16Z</time>
      </trkpt>
      <trkpt lat="45.20087" lon="5.77143">
        <ele>212.222</ele>
        <time>2019-10-07T12:38:46.001Z</time>
      </trkpt>
      <trkpt lat="45.19967" lon="5.77021">
        <ele>211.137</ele>
        <time>2019-10-07T12:39:16Z</time>
      </trkpt>
      <trkpt lat="45.19889" lon="5.7693">
        <ele>217.279</ele>
        <time>2019-10-07T12:39:46.001Z</time>
      </trkpt>
      <trkpt lat="45.19817" lon="5.7703">
        <ele>223.871</ele>
        <time>2019-10-07T12:40:19.001Z</time>
      </trkpt>
      <trkpt lat="45.19807" lon="5.77048">
        <ele>220.514</ele>
        <time>2019-10-07T12:41:25.001Z</time>
      </trkpt>
      <trkpt lat="45.19813" lon="5.77035">
        <ele>216.724</ele>
        <time>2019-10-07T12:45:01.001Z</time>
      </trkpt>
      <trkpt lat="45.19745" lon="5.76902">
        <ele>216.447</ele>
        <time>2019-10-07T12:45:31.001Z</time>
      </trkpt>
      <trkpt lat="45.19663" lon="5.76725">
        <ele>214.169</ele>
        <time>2019-10-07T12:46:01.001Z</time>
      </trkpt>
      <trkpt lat="45.19586" lon="5.76547">
        <ele>213.501</ele>
        <time>2019-10-07T12:46:31.001Z</time>
      </trkpt>
      <trkpt lat="45.19549" lon="5.76347">
        <ele>215.978</ele>
        <time>2019-10-07T12:47:01.001Z</time>
      </trkpt>
      <trkpt lat="45.19544" lon="5.76117">
        <ele>217.398</ele>
        <time>2019-10-07T12:47:34.001Z</time>
      </trkpt>
      <trkpt lat="45.19575" lon="5.75913">
        <ele>219.005</ele>
        <time>2019-10-07T12:48:04.001Z</time>
      </trkpt>
      <trkpt lat="45.1965" lon="5.75725">
        <ele>217.979</ele>
        <time>2019-10-07T12:48:34.001Z</time>
      </trkpt>
      <trkpt lat="45.19677" lon="5.75524">
        <ele>220.215</ele>
        <time>2019-10-07T12:49:04.001Z</time>
      </trkpt>
      <trkpt lat="45.19568" lon="5.75416">
        <ele>210.64</ele>
        <time>2019-10-07T12:49:34.001Z</time>
      </trkpt>
      <trkpt lat="45.19431" lon="5.75348">
        <ele>210.053</ele>
        <time>2019-10-07T12:50:04.001Z</time>
      </trkpt>
      <trkpt lat="45.19283" lon="5.75309">
        <ele>210.558</ele>
        <time>2019-10-07T12:50:34.001Z</time>
      </trkpt>
      <trkpt lat="45.1913" lon="5.75243">
        <ele>211.808</ele>
        <time>2019-10-07T12:51:04.001Z</time>
      </trkpt>
      <trkpt lat="45.18966" lon="5.75152">
        <ele>214.27</ele>
        <time>2019-10-07T12:51:37.001Z</time>
      </trkpt>
      <trkpt lat="45.18863" lon="5.74992">
        <ele>213.697</ele>
        <time>2019-10-07T12:52:07.001Z</time>
      </trkpt>
      <trkpt lat="45.18835" lon="5.74774">
        <ele>216.545</ele>
        <time>2019-10-07T12:52:37.001Z</time>
      </trkpt>
      <trkpt lat="45.18831" lon="5.74642">
        <ele>225.07</ele>
        <time>2019-10-07T12:58:07.001Z</time>
      </trkpt>
      <trkpt lat="45.18833" lon="5.74481">
        <ele>227.951</ele>
        <time>2019-10-07T12:58:40.001Z</time>
      </trkpt>
      <trkpt lat="45.18826" lon="5.74337">
        <ele>219.324</ele>
        <time>2019-10-07T12:59:10.001Z</time>
      </trkpt>
      <trkpt lat="45.1886" lon="5.74175">
        <ele>222.114</ele>
        <time>2019-10-07T12:59:40.001Z</time>
      </trkpt>
      <trkpt lat="45.18833" lon="5.74009">
        <ele>215.508</ele>
        <time>2019-10-07T13:00:13.001Z</time>
      </trkpt>
      <trkpt lat="45.18765" lon="5.73852">
        <ele>210.788</ele>
        <time>2019-10-07T13:00:43.001Z</time>
      </trkpt>
      <trkpt lat="45.18709" lon="5.7369">
        <ele>208.952</ele>
        <time>2019-10-07T13:01:13.001Z</time>
      </trkpt>
      <trkpt lat="45.18642" lon="5.73525">
        <ele>209.075</ele>
        <time>2019-10-07T13:01:43.001Z</time>
      </trkpt>
      <trkpt lat="45.18595" lon="5.73396">
        <ele>212.758</ele>
        <time>2019-10-07T13:02:13.001Z</time>
      </trkpt>
      <trkpt lat="45.18528" lon="5.7323">
        <ele>212.085</ele>
        <time>2019-10-07T13:02:43.001Z</time>
      </trkpt>
      <trkpt lat="45.18455" lon="5.73179">
        <ele>225.985</ele>
        <time>2019-10-07T13:03:19.001Z</time>
      </trkpt>
      <trkpt lat="45.18393" lon="5.73156">
        <ele>220.733</ele>
        <time>2019-10-07T13:03:52.001Z</time>
      </trkpt>
      <trkpt lat="45.18347" lon="5.73051">
        <ele>216.76</ele>
        <time>2019-10-07T13:04:25.001Z</time>
      </trkpt>
      <trkpt lat="45.18267" lon="5.72901">
        <ele>222.012</ele>
        <time>2019-10-07T13:04:55.001Z</time>
      </trkpt>
      <trkpt lat="45.18205" lon="5.72725">
        <ele>226.15</ele>
        <time>2019-10-07T13:05:25.001Z</time>
      </trkpt>
      <trkpt lat="45.18158" lon="5.72559">
        <ele>223.548</ele>
        <time>2019-10-07T13:05:55.001Z</time>
      </trkpt>
      <trkpt lat="45.18116" lon="5.72395">
        <ele>222.05</ele>
        <time>2019-10-07T13:06:25.001Z</time>
      </trkpt>
      <trkpt lat="45.18157" lon="5.72268">
        <ele>223.386</ele>
        <time>2019-10-07T13:06:55.001Z</time>
      </trkpt>
      <trkpt lat="45.18284" lon="5.72182">
        <ele>224.755</ele>
        <time>2019-10-07T13:07:25.001Z</time>
      </trkpt>
      <trkpt lat="45.18409" lon="5.7212">
        <ele>230.233</ele>
        <time>2019-10-07T13:07:58.001Z</time>
      </trkpt>
      <trkpt lat="45.18441" lon="5.72109">
        <ele>220.957</ele>
        <time>2019-10-07T13:08:46.001Z</time>
      </trkpt>
      <trkpt lat="45.18442" lon="5.72101">
        <ele>221.23</ele>
        <time>2019-10-07T13:13:22.001Z</time>
      </trkpt>
      <trkpt lat="45.18442" lon="5.72099">
        <ele>219.009</ele>
        <time>2019-10-07T13:17:31.001Z</time>
      </trkpt>
      <trkpt lat="45.18439" lon="5.72102">
        <ele>214.897</ele>
        <time>2019-10-07T13:23:34.001Z</time>
      </trkpt>
      <trkpt lat="45.18436" lon="5.72116">
        <ele>220.004</ele>
        <time>2019-10-07T13:28:10.001Z</time>
      </trkpt>
      <trkpt lat="45.18443" lon="5.72087">
        <ele>216.775</ele>
        <time>2019-10-07T13:32:16Z</time>
      </trkpt>
      <trkpt lat="45.1844" lon="5.72083">
        <ele>227.9</ele>
        <time>2019-10-07T13:38:07.001Z</time>
      </trkpt>
      <trkpt lat="45.18443" lon="5.72081">
        <ele>232.091</ele>
        <time>2019-10-07T13:39:10.001Z</time>
      </trkpt>
      <trkpt lat="45.18441" lon="5.72083">
        <ele>225</ele>
        <time>2019-10-07T13:43:49.001Z</time>
      </trkpt>
      <trkpt lat="45.18429" lon="5.72066">
        <ele>232.426</ele>
        <time>2019-10-07T13:45:33.001Z</time>
      </trkpt>
      <trkpt lat="45.18436" lon="5.72081">
        <ele>235.395</ele>
        <time>2019-10-07T13:47:24.001Z</time>
      </trkpt>
      <trkpt lat="45.18437" lon="5.7208">
        <ele>236.695</ele>
        <time>2019-10-07T13:51:21.001Z</time>
      </trkpt>
      <trkpt lat="45.18437" lon="5.7208">
        <ele>236.695</ele>
        <time>2019-10-07T13:52:09.001Z</time>
      </trkpt>
      <trkpt lat="45.18435" lon="5.72082">
        <ele>234.201</ele>
        <time>2019-10-07T13:55:03.001Z</time>
      </trkpt>
      <trkpt lat="45.18434" lon="5.72082">
        <ele>234.675</ele>
        <time>2019-10-07T13:59:06.001Z</time>
      </trkpt>
      <trkpt lat="45.18437" lon="5.72087">
        <ele>234.145</ele>
        <time>2019-10-07T14:00:21.001Z</time>
      </trkpt>
      <trkpt lat="45.18439" lon="5.72092">
        <ele>233.827</ele>
        <time>2019-10-07T14:03:03.001Z</time>
      </trkpt>
      <trkpt lat="45.18438" lon="5.72093">
        <ele>230.633</ele>
        <time>2019-10-07T14:07:12.001Z</time>
      </trkpt>
    </trkseg>
  </trk>
  <trk>
    <name><![CDATA[Tracé 20191008-092453]]></name>
    <trkseg>
      <trkpt lat="45.18549" lon="5.72272">
        <ele>260.888</ele>
        <time>2019-10-08T07:25:17Z</time>
      </trkpt>
      <trkpt lat="45.18538" lon="5.72217">
        <ele>243.748</ele>
        <time>2019-10-08T07:31:08Z</time>
      </trkpt>
      <trkpt lat="45.18455" lon="5.72107">
        <ele>244.697</ele>
        <time>2019-10-08T07:31:38Z</time>
      </trkpt>
      <trkpt lat="45.18314" lon="5.72171">
        <ele>250.959</ele>
        <time>2019-10-08T07:32:08Z</time>
      </trkpt>
      <trkpt lat="45.18199" lon="5.72255">
        <ele>261.121</ele>
        <time>2019-10-08T07:32:38Z</time>
      </trkpt>
      <trkpt lat="45.1809" lon="5.72273">
        <ele>267.126</ele>
        <time>2019-10-08T07:33:08Z</time>
      </trkpt>
      <trkpt lat="45.18084" lon="5.72171">
        <ele>274.597</ele>
        <time>2019-10-08T07:33:38Z</time>
      </trkpt>
      <trkpt lat="45.1805" lon="5.72057">
        <ele>287.124</ele>
        <time>2019-10-08T07:34:08Z</time>
      </trkpt>
      <trkpt lat="45.18061" lon="5.7196">
        <ele>260.276</ele>
        <time>2019-10-08T07:34:44Z</time>
      </trkpt>
      <trkpt lat="45.18058" lon="5.71821">
        <ele>236.796</ele>
        <time>2019-10-08T07:35:17Z</time>
      </trkpt>
      <trkpt lat="45.18056" lon="5.7165">
        <ele>235.748</ele>
        <time>2019-10-08T07:35:50Z</time>
      </trkpt>
      <trkpt lat="45.18035" lon="5.71619">
        <ele>226.167</ele>
        <time>2019-10-08T07:36:36Z</time>
      </trkpt>
      <trkpt lat="45.17913" lon="5.71606">
        <ele>222.636</ele>
        <time>2019-10-08T07:37:06Z</time>
      </trkpt>
      <trkpt lat="45.1779" lon="5.7156">
        <ele>232.342</ele>
        <time>2019-10-08T07:37:36Z</time>
      </trkpt>
      <trkpt lat="45.17673" lon="5.71516">
        <ele>255.722</ele>
        <time>2019-10-08T07:38:06Z</time>
      </trkpt>
      <trkpt lat="45.17537" lon="5.7148">
        <ele>266.033</ele>
        <time>2019-10-08T07:38:36Z</time>
      </trkpt>
      <trkpt lat="45.17454" lon="5.71438">
        <ele>249.128</ele>
        <time>2019-10-08T07:39:21Z</time>
      </trkpt>
      <trkpt lat="45.17353" lon="5.71389">
        <ele>234.62</ele>
        <time>2019-10-08T07:39:51Z</time>
      </trkpt>
      <trkpt lat="45.17221" lon="5.71354">
        <ele>236.818</ele>
        <time>2019-10-08T07:40:21Z</time>
      </trkpt>
      <trkpt lat="45.1709" lon="5.71313">
        <ele>233.122</ele>
        <time>2019-10-08T07:40:51Z</time>
      </trkpt>
      <trkpt lat="45.16973" lon="5.71262">
        <ele>233.278</ele>
        <time>2019-10-08T07:41:21Z</time>
      </trkpt>
      <trkpt lat="45.16852" lon="5.71228">
        <ele>236.659</ele>
        <time>2019-10-08T07:41:51Z</time>
      </trkpt>
      <trkpt lat="45.16715" lon="5.71185">
        <ele>239.871</ele>
        <time>2019-10-08T07:42:21Z</time>
      </trkpt>
      <trkpt lat="45.16576" lon="5.71139">
        <ele>231.442</ele>
        <time>2019-10-08T07:42:51Z</time>
      </trkpt>
      <trkpt lat="45.16451" lon="5.71095">
        <ele>232.19</ele>
        <time>2019-10-08T07:43:21Z</time>
      </trkpt>
      <trkpt lat="45.16334" lon="5.71045">
        <ele>239.382</ele>
        <time>2019-10-08T07:43:51Z</time>
      </trkpt>
      <trkpt lat="45.16208" lon="5.71012">
        <ele>246.869</ele>
        <time>2019-10-08T07:44:21Z</time>
      </trkpt>
      <trkpt lat="45.16068" lon="5.70957">
        <ele>240.077</ele>
        <time>2019-10-08T07:44:54Z</time>
      </trkpt>
      <trkpt lat="45.15966" lon="5.70926">
        <ele>230.649</ele>
        <time>2019-10-08T07:45:24Z</time>
      </trkpt>
      <trkpt lat="45.15864" lon="5.70891">
        <ele>234.665</ele>
        <time>2019-10-08T07:45:54Z</time>
      </trkpt>
      <trkpt lat="45.15736" lon="5.70853">
        <ele>234.102</ele>
        <time>2019-10-08T07:46:24Z</time>
      </trkpt>
      <trkpt lat="45.15619" lon="5.70808">
        <ele>233.286</ele>
        <time>2019-10-08T07:46:54Z</time>
      </trkpt>
      <trkpt lat="45.15486" lon="5.70765">
        <ele>235.653</ele>
        <time>2019-10-08T07:47:24Z</time>
      </trkpt>
      <trkpt lat="45.15362" lon="5.70725">
        <ele>235.985</ele>
        <time>2019-10-08T07:47:54Z</time>
      </trkpt>
      <trkpt lat="45.15233" lon="5.7068">
        <ele>234.98</ele>
        <time>2019-10-08T07:48:24Z</time>
      </trkpt>
      <trkpt lat="45.15108" lon="5.70635">
        <ele>239.849</ele>
        <time>2019-10-08T07:48:54Z</time>
      </trkpt>
      <trkpt lat="45.1498" lon="5.70594">
        <ele>235.528</ele>
        <time>2019-10-08T07:49:24Z</time>
      </trkpt>
      <trkpt lat="45.14848" lon="5.70554">
        <ele>233.142</ele>
        <time>2019-10-08T07:49:54Z</time>
      </trkpt>
      <trkpt lat="45.14735" lon="5.70513">
        <ele>234.453</ele>
        <time>2019-10-08T07:50:24Z</time>
      </trkpt>
      <trkpt lat="45.14607" lon="5.70469">
        <ele>242.59</ele>
        <time>2019-10-08T07:50:54Z</time>
      </trkpt>
      <trkpt lat="45.14518" lon="5.70443">
        <ele>246.939</ele>
        <time>2019-10-08T07:51:24Z</time>
      </trkpt>
      <trkpt lat="45.14402" lon="5.70402">
        <ele>242.115</ele>
        <time>2019-10-08T07:51:54Z</time>
      </trkpt>
      <trkpt lat="45.14278" lon="5.70361">
        <ele>240.39</ele>
        <time>2019-10-08T07:52:24Z</time>
      </trkpt>
      <trkpt lat="45.1415" lon="5.70315">
        <ele>242.875</ele>
        <time>2019-10-08T07:52:54Z</time>
      </trkpt>
      <trkpt lat="45.14036" lon="5.70276">
        <ele>243.058</ele>
        <time>2019-10-08T07:53:24Z</time>
      </trkpt>
      <trkpt lat="45.13919" lon="5.70234">
        <ele>243.802</ele>
        <time>2019-10-08T07:53:54.001Z</time>
      </trkpt>
      <trkpt lat="45.13807" lon="5.70202">
        <ele>241.488</ele>
        <time>2019-10-08T07:54:24.001Z</time>
      </trkpt>
      <trkpt lat="45.13679" lon="5.7016">
        <ele>244.545</ele>
        <time>2019-10-08T07:54:54.001Z</time>
      </trkpt>
      <trkpt lat="45.13564" lon="5.70116">
        <ele>249.355</ele>
        <time>2019-10-08T07:55:24.001Z</time>
      </trkpt>
      <trkpt lat="45.13436" lon="5.70072">
        <ele>245.331</ele>
        <time>2019-10-08T07:55:54.001Z</time>
      </trkpt>
      <trkpt lat="45.13353" lon="5.70046">
        <ele>240.413</ele>
        <time>2019-10-08T07:56:24.001Z</time>
      </trkpt>
      <trkpt lat="45.1325" lon="5.70007">
        <ele>244.515</ele>
        <time>2019-10-08T07:56:54.001Z</time>
      </trkpt>
      <trkpt lat="45.13129" lon="5.69971">
        <ele>252.757</ele>
        <time>2019-10-08T07:57:24.001Z</time>
      </trkpt>
      <trkpt lat="45.13" lon="5.69929">
        <ele>249.603</ele>
        <time>2019-10-08T07:57:54.001Z</time>
      </trkpt>
      <trkpt lat="45.12881" lon="5.69891">
        <ele>248.779</ele>
        <time>2019-10-08T07:58:24.001Z</time>
      </trkpt>
      <trkpt lat="45.12762" lon="5.69849">
        <ele>249.839</ele>
        <time>2019-10-08T07:58:54.001Z</time>
      </trkpt>
      <trkpt lat="45.12715" lon="5.69833">
        <ele>250.143</ele>
        <time>2019-10-08T07:59:45.001Z</time>
      </trkpt>
      <trkpt lat="45.12595" lon="5.69792">
        <ele>250.89</ele>
        <time>2019-10-08T08:00:15.001Z</time>
      </trkpt>
      <trkpt lat="45.12493" lon="5.69741">
        <ele>255.75</ele>
        <time>2019-10-08T08:00:45.001Z</time>
      </trkpt>
      <trkpt lat="45.12451" lon="5.69636">
        <ele>262.013</ele>
        <time>2019-10-08T08:01:15.001Z</time>
      </trkpt>
      <trkpt lat="45.12372" lon="5.69708">
        <ele>259.89</ele>
        <time>2019-10-08T08:01:45.001Z</time>
      </trkpt>
      <trkpt lat="45.12292" lon="5.69771">
        <ele>256.355</ele>
        <time>2019-10-08T08:02:15.001Z</time>
      </trkpt>
      <trkpt lat="45.12169" lon="5.69708">
        <ele>265.504</ele>
        <time>2019-10-08T08:02:45.001Z</time>
      </trkpt>
      <trkpt lat="45.12074" lon="5.69618">
        <ele>263.655</ele>
        <time>2019-10-08T08:03:15.001Z</time>
      </trkpt>
      <trkpt lat="45.11948" lon="5.69445">
        <ele>259.592</ele>
        <time>2019-10-08T08:03:45.001Z</time>
      </trkpt>
      <trkpt lat="45.1186" lon="5.69325">
        <ele>249.778</ele>
        <time>2019-10-08T08:04:15.001Z</time>
      </trkpt>
      <trkpt lat="45.11774" lon="5.69186">
        <ele>253.379</ele>
        <time>2019-10-08T08:04:45.001Z</time>
      </trkpt>
      <trkpt lat="45.1165" lon="5.69082">
        <ele>256.78</ele>
        <time>2019-10-08T08:05:15.001Z</time>
      </trkpt>
      <trkpt lat="45.11508" lon="5.69036">
        <ele>256.8</ele>
        <time>2019-10-08T08:05:45.001Z</time>
      </trkpt>
      <trkpt lat="45.11387" lon="5.68981">
        <ele>252.368</ele>
        <time>2019-10-08T08:06:15.001Z</time>
      </trkpt>
      <trkpt lat="45.11246" lon="5.68938">
        <ele>251.473</ele>
        <time>2019-10-08T08:06:45.001Z</time>
      </trkpt>
      <trkpt lat="45.1112" lon="5.68888">
        <ele>254.64</ele>
        <time>2019-10-08T08:07:15.001Z</time>
      </trkpt>
      <trkpt lat="45.10986" lon="5.68841">
        <ele>252.342</ele>
        <time>2019-10-08T08:07:45.001Z</time>
      </trkpt>
      <trkpt lat="45.10856" lon="5.68794">
        <ele>254.222</ele>
        <time>2019-10-08T08:08:15.001Z</time>
      </trkpt>
      <trkpt lat="45.10717" lon="5.68748">
        <ele>254.444</ele>
        <time>2019-10-08T08:08:45.001Z</time>
      </trkpt>
      <trkpt lat="45.10613" lon="5.6868">
        <ele>256.058</ele>
        <time>2019-10-08T08:09:15.001Z</time>
      </trkpt>
      <trkpt lat="45.10517" lon="5.68631">
        <ele>256.714</ele>
        <time>2019-10-08T08:09:45.001Z</time>
      </trkpt>
      <trkpt lat="45.10378" lon="5.68618">
        <ele>261.397</ele>
        <time>2019-10-08T08:10:15.001Z</time>
      </trkpt>
      <trkpt lat="45.10266" lon="5.68562">
        <ele>266.604</ele>
        <time>2019-10-08T08:10:45.001Z</time>
      </trkpt>
      <trkpt lat="45.1014" lon="5.68515">
        <ele>263.71</ele>
        <time>2019-10-08T08:11:15.001Z</time>
      </trkpt>
      <trkpt lat="45.1001" lon="5.68466">
        <ele>266.476</ele>
        <time>2019-10-08T08:11:45.001Z</time>
      </trkpt>
      <trkpt lat="45.09868" lon="5.68416">
        <ele>263.663</ele>
        <time>2019-10-08T08:12:15.001Z</time>
      </trkpt>
      <trkpt lat="45.09733" lon="5.6837">
        <ele>265.427</ele>
        <time>2019-10-08T08:12:48.001Z</time>
      </trkpt>
      <trkpt lat="45.09608" lon="5.68368">
        <ele>267.042</ele>
        <time>2019-10-08T08:13:18.001Z</time>
      </trkpt>
      <trkpt lat="45.09485" lon="5.68368">
        <ele>271.048</ele>
        <time>2019-10-08T08:13:48.001Z</time>
      </trkpt>
      <trkpt lat="45.09357" lon="5.68359">
        <ele>273.603</ele>
        <time>2019-10-08T08:14:18.001Z</time>
      </trkpt>
      <trkpt lat="45.09239" lon="5.6836">
        <ele>273.926</ele>
        <time>2019-10-08T08:14:48.001Z</time>
      </trkpt>
      <trkpt lat="45.09109" lon="5.68359">
        <ele>277.886</ele>
        <time>2019-10-08T08:15:18.001Z</time>
      </trkpt>
      <trkpt lat="45.08972" lon="5.68358">
        <ele>279.809</ele>
        <time>2019-10-08T08:15:48.001Z</time>
      </trkpt>
      <trkpt lat="45.08853" lon="5.68349">
        <ele>275.044</ele>
        <time>2019-10-08T08:16:18.001Z</time>
      </trkpt>
      <trkpt lat="45.08726" lon="5.68325">
        <ele>279.582</ele>
        <time>2019-10-08T08:16:48.001Z</time>
      </trkpt>
      <trkpt lat="45.08653" lon="5.68339">
        <ele>285.741</ele>
        <time>2019-10-08T08:17:30.001Z</time>
      </trkpt>
      <trkpt lat="45.08697" lon="5.6853">
        <ele>281.66</ele>
        <time>2019-10-08T08:18:00Z</time>
      </trkpt>
      <trkpt lat="45.08704" lon="5.6875">
        <ele>273.512</ele>
        <time>2019-10-08T08:18:30.001Z</time>
      </trkpt>
      <trkpt lat="45.08654" lon="5.68827">
        <ele>270.932</ele>
        <time>2019-10-08T08:19:00Z</time>
      </trkpt>
      <trkpt lat="45.08535" lon="5.68761">
        <ele>275.071</ele>
        <time>2019-10-08T08:19:30.001Z</time>
      </trkpt>
      <trkpt lat="45.08408" lon="5.68695">
        <ele>278.24</ele>
        <time>2019-10-08T08:20:00Z</time>
      </trkpt>
      <trkpt lat="45.08287" lon="5.68623">
        <ele>278.166</ele>
        <time>2019-10-08T08:20:30.001Z</time>
      </trkpt>
      <trkpt lat="45.08169" lon="5.68558">
        <ele>277.986</ele>
        <time>2019-10-08T08:21:00Z</time>
      </trkpt>
      <trkpt lat="45.08059" lon="5.68493">
        <ele>282.698</ele>
        <time>2019-10-08T08:21:30.001Z</time>
      </trkpt>
      <trkpt lat="45.07938" lon="5.68428">
        <ele>284.198</ele>
        <time>2019-10-08T08:22:00Z</time>
      </trkpt>
      <trkpt lat="45.07822" lon="5.68361">
        <ele>282.442</ele>
        <time>2019-10-08T08:22:30.001Z</time>
      </trkpt>
      <trkpt lat="45.07702" lon="5.6829">
        <ele>282.149</ele>
        <time>2019-10-08T08:23:00Z</time>
      </trkpt>
      <trkpt lat="45.07582" lon="5.6821">
        <ele>285.149</ele>
        <time>2019-10-08T08:23:30.001Z</time>
      </trkpt>
      <trkpt lat="45.07459" lon="5.68135">
        <ele>290.635</ele>
        <time>2019-10-08T08:24:00Z</time>
      </trkpt>
      <trkpt lat="45.07355" lon="5.68039">
        <ele>290.729</ele>
        <time>2019-10-08T08:24:30.001Z</time>
      </trkpt>
      <trkpt lat="45.07243" lon="5.68028">
        <ele>293.093</ele>
        <time>2019-10-08T08:25:00Z</time>
      </trkpt>
      <trkpt lat="45.07212" lon="5.67892">
        <ele>301.346</ele>
        <time>2019-10-08T08:25:30.001Z</time>
      </trkpt>
      <trkpt lat="45.0714" lon="5.67816">
        <ele>301.809</ele>
        <time>2019-10-08T08:26:00Z</time>
      </trkpt>
      <trkpt lat="45.07045" lon="5.67722">
        <ele>297.861</ele>
        <time>2019-10-08T08:26:30.001Z</time>
      </trkpt>
      <trkpt lat="45.06946" lon="5.6762">
        <ele>300.533</ele>
        <time>2019-10-08T08:27:00Z</time>
      </trkpt>
      <trkpt lat="45.06843" lon="5.67517">
        <ele>301.843</ele>
        <time>2019-10-08T08:27:30.001Z</time>
      </trkpt>
      <trkpt lat="45.06748" lon="5.67421">
        <ele>299.203</ele>
        <time>2019-10-08T08:28:00Z</time>
      </trkpt>
      <trkpt lat="45.06655" lon="5.67328">
        <ele>297.835</ele>
        <time>2019-10-08T08:28:30.001Z</time>
      </trkpt>
      <trkpt lat="45.06565" lon="5.67238">
        <ele>300.822</ele>
        <time>2019-10-08T08:29:00Z</time>
      </trkpt>
      <trkpt lat="45.06482" lon="5.67158">
        <ele>296.794</ele>
        <time>2019-10-08T08:29:30.001Z</time>
      </trkpt>
      <trkpt lat="45.06395" lon="5.67071">
        <ele>301.016</ele>
        <time>2019-10-08T08:30:00Z</time>
      </trkpt>
      <trkpt lat="45.06303" lon="5.66989">
        <ele>307.58</ele>
        <time>2019-10-08T08:30:30.001Z</time>
      </trkpt>
      <trkpt lat="45.0619" lon="5.66955">
        <ele>304.656</ele>
        <time>2019-10-08T08:31:00Z</time>
      </trkpt>
      <trkpt lat="45.06073" lon="5.6693">
        <ele>311.782</ele>
        <time>2019-10-08T08:31:30.001Z</time>
      </trkpt>
      <trkpt lat="45.05956" lon="5.66897">
        <ele>317.048</ele>
        <time>2019-10-08T08:32:00Z</time>
      </trkpt>
      <trkpt lat="45.05845" lon="5.66863">
        <ele>323.092</ele>
        <time>2019-10-08T08:32:30.001Z</time>
      </trkpt>
      <trkpt lat="45.05731" lon="5.66832">
        <ele>328.433</ele>
        <time>2019-10-08T08:33:00Z</time>
      </trkpt>
      <trkpt lat="45.05634" lon="5.66803">
        <ele>327.371</ele>
        <time>2019-10-08T08:33:30.001Z</time>
      </trkpt>
      <trkpt lat="45.05599" lon="5.66908">
        <ele>326.524</ele>
        <time>2019-10-08T08:34:00Z</time>
      </trkpt>
      <trkpt lat="45.05591" lon="5.6694">
        <ele>327.713</ele>
        <time>2019-10-08T08:43:30.001Z</time>
      </trkpt>
      <trkpt lat="45.05546" lon="5.66946">
        <ele>321.422</ele>
        <time>2019-10-08T08:48:15.001Z</time>
      </trkpt>
      <trkpt lat="45.05517" lon="5.66937">
        <ele>314.648</ele>
        <time>2019-10-08T08:48:48.001Z</time>
      </trkpt>
      <trkpt lat="45.05491" lon="5.66934">
        <ele>321.805</ele>
        <time>2019-10-08T08:49:30.001Z</time>
      </trkpt>
      <trkpt lat="45.05387" lon="5.66917">
        <ele>321.792</ele>
        <time>2019-10-08T08:50:06.001Z</time>
      </trkpt>
      <trkpt lat="45.05288" lon="5.66882">
        <ele>322.086</ele>
        <time>2019-10-08T08:50:36.001Z</time>
      </trkpt>
      <trkpt lat="45.05165" lon="5.66843">
        <ele>316.578</ele>
        <time>2019-10-08T08:51:06.001Z</time>
      </trkpt>
      <trkpt lat="45.0505" lon="5.66839">
        <ele>314.476</ele>
        <time>2019-10-08T08:51:36.001Z</time>
      </trkpt>
      <trkpt lat="45.04939" lon="5.66836">
        <ele>307.179</ele>
        <time>2019-10-08T08:52:06.001Z</time>
      </trkpt>
      <trkpt lat="45.04864" lon="5.66764">
        <ele>315.025</ele>
        <time>2019-10-08T08:52:36.001Z</time>
      </trkpt>
      <trkpt lat="45.0476" lon="5.66691">
        <ele>325.325</ele>
        <time>2019-10-08T08:53:06.001Z</time>
      </trkpt>
      <trkpt lat="45.04657" lon="5.66637">
        <ele>315.097</ele>
        <time>2019-10-08T08:53:36.001Z</time>
      </trkpt>
      <trkpt lat="45.04556" lon="5.66557">
        <ele>314.776</ele>
        <time>2019-10-08T08:54:09.001Z</time>
      </trkpt>
      <trkpt lat="45.04471" lon="5.66483">
        <ele>325.799</ele>
        <time>2019-10-08T08:54:39.001Z</time>
      </trkpt>
      <trkpt lat="45.04361" lon="5.66445">
        <ele>321.738</ele>
        <time>2019-10-08T08:55:09.001Z</time>
      </trkpt>
      <trkpt lat="45.04314" lon="5.66563">
        <ele>326.447</ele>
        <time>2019-10-08T08:55:39.001Z</time>
      </trkpt>
      <trkpt lat="45.04252" lon="5.66651">
        <ele>342.383</ele>
        <time>2019-10-08T08:56:09.001Z</time>
      </trkpt>
      <trkpt lat="45.04203" lon="5.6671">
        <ele>345.887</ele>
        <time>2019-10-08T08:56:39.001Z</time>
      </trkpt>
      <trkpt lat="45.04166" lon="5.66774">
        <ele>348.302</ele>
        <time>2019-10-08T08:57:15.001Z</time>
      </trkpt>
      <trkpt lat="45.04127" lon="5.66827">
        <ele>354.183</ele>
        <time>2019-10-08T08:57:45.001Z</time>
      </trkpt>
      <trkpt lat="45.04092" lon="5.66888">
        <ele>361.993</ele>
        <time>2019-10-08T08:58:18.001Z</time>
      </trkpt>
      <trkpt lat="45.04069" lon="5.66962">
        <ele>364.943</ele>
        <time>2019-10-08T08:58:54.001Z</time>
      </trkpt>
      <trkpt lat="45.04061" lon="5.67036">
        <ele>370.018</ele>
        <time>2019-10-08T08:59:24.001Z</time>
      </trkpt>
      <trkpt lat="45.04025" lon="5.671">
        <ele>375.066</ele>
        <time>2019-10-08T08:59:54.001Z</time>
      </trkpt>
      <trkpt lat="45.03968" lon="5.67148">
        <ele>372.174</ele>
        <time>2019-10-08T09:00:24.001Z</time>
      </trkpt>
      <trkpt lat="45.03903" lon="5.67165">
        <ele>377.086</ele>
        <time>2019-10-08T09:00:54.001Z</time>
      </trkpt>
      <trkpt lat="45.0384" lon="5.67148">
        <ele>388.155</ele>
        <time>2019-10-08T09:01:27.001Z</time>
      </trkpt>
      <trkpt lat="45.03786" lon="5.67096">
        <ele>393.941</ele>
        <time>2019-10-08T09:01:57.001Z</time>
      </trkpt>
      <trkpt lat="45.03744" lon="5.67022">
        <ele>397.164</ele>
        <time>2019-10-08T09:02:27.001Z</time>
      </trkpt>
      <trkpt lat="45.03695" lon="5.66968">
        <ele>401.506</ele>
        <time>2019-10-08T09:02:57.001Z</time>
      </trkpt>
      <trkpt lat="45.03643" lon="5.6691">
        <ele>401.663</ele>
        <time>2019-10-08T09:03:27.001Z</time>
      </trkpt>
      <trkpt lat="45.03596" lon="5.66845">
        <ele>406.623</ele>
        <time>2019-10-08T09:03:57.001Z</time>
      </trkpt>
      <trkpt lat="45.03557" lon="5.66767">
        <ele>410.883</ele>
        <time>2019-10-08T09:04:27.001Z</time>
      </trkpt>
      <trkpt lat="45.03525" lon="5.66691">
        <ele>419.81</ele>
        <time>2019-10-08T09:04:57.001Z</time>
      </trkpt>
      <trkpt lat="45.03485" lon="5.66626">
        <ele>426.26</ele>
        <time>2019-10-08T09:05:27.001Z</time>
      </trkpt>
      <trkpt lat="45.03427" lon="5.66575">
        <ele>425.693</ele>
        <time>2019-10-08T09:05:57.001Z</time>
      </trkpt>
      <trkpt lat="45.03382" lon="5.66513">
        <ele>427.8</ele>
        <time>2019-10-08T09:06:27.001Z</time>
      </trkpt>
      <trkpt lat="45.03377" lon="5.66431">
        <ele>424.131</ele>
        <time>2019-10-08T09:06:57.001Z</time>
      </trkpt>
      <trkpt lat="45.03406" lon="5.66359">
        <ele>427.943</ele>
        <time>2019-10-08T09:07:27.001Z</time>
      </trkpt>
      <trkpt lat="45.0343" lon="5.66282">
        <ele>433.095</ele>
        <time>2019-10-08T09:07:57.001Z</time>
      </trkpt>
      <trkpt lat="45.03424" lon="5.66182">
        <ele>436.173</ele>
        <time>2019-10-08T09:08:27.001Z</time>
      </trkpt>
      <trkpt lat="45.03369" lon="5.66119">
        <ele>444.645</ele>
        <time>2019-10-08T09:08:57.001Z</time>
      </trkpt>
      <trkpt lat="45.03294" lon="5.66131">
        <ele>440.899</ele>
        <time>2019-10-08T09:09:27.001Z</time>
      </trkpt>
      <trkpt lat="45.03247" lon="5.66215">
        <ele>444.109</ele>
        <time>2019-10-08T09:09:57.001Z</time>
      </trkpt>
      <trkpt lat="45.03206" lon="5.66301">
        <ele>445.91</ele>
        <time>2019-10-08T09:10:27.001Z</time>
      </trkpt>
      <trkpt lat="45.03163" lon="5.6637">
        <ele>444.995</ele>
        <time>2019-10-08T09:10:57.001Z</time>
      </trkpt>
      <trkpt lat="45.03103" lon="5.66409">
        <ele>455.778</ele>
        <time>2019-10-08T09:11:27.001Z</time>
      </trkpt>
      <trkpt lat="45.0304" lon="5.66435">
        <ele>464.641</ele>
        <time>2019-10-08T09:11:57.001Z</time>
      </trkpt>
      <trkpt lat="45.02978" lon="5.66423">
        <ele>472.366</ele>
        <time>2019-10-08T09:12:27.001Z</time>
      </trkpt>
      <trkpt lat="45.02917" lon="5.66375">
        <ele>472.694</ele>
        <time>2019-10-08T09:12:57.001Z</time>
      </trkpt>
      <trkpt lat="45.02863" lon="5.66326">
        <ele>471.829</ele>
        <time>2019-10-08T09:13:27.001Z</time>
      </trkpt>
      <trkpt lat="45.0281" lon="5.6628">
        <ele>471.82</ele>
        <time>2019-10-08T09:13:57.001Z</time>
      </trkpt>
      <trkpt lat="45.02756" lon="5.66238">
        <ele>480.495</ele>
        <time>2019-10-08T09:14:27.001Z</time>
      </trkpt>
      <trkpt lat="45.02694" lon="5.66208">
        <ele>479.366</ele>
        <time>2019-10-08T09:14:57.001Z</time>
      </trkpt>
      <trkpt lat="45.0262" lon="5.66202">
        <ele>482.304</ele>
        <time>2019-10-08T09:15:27.001Z</time>
      </trkpt>
      <trkpt lat="45.02538" lon="5.66203">
        <ele>478.82</ele>
        <time>2019-10-08T09:15:57.001Z</time>
      </trkpt>
      <trkpt lat="45.02466" lon="5.66189">
        <ele>490.585</ele>
        <time>2019-10-08T09:16:27.001Z</time>
      </trkpt>
      <trkpt lat="45.02393" lon="5.66161">
        <ele>489.786</ele>
        <time>2019-10-08T09:16:57.001Z</time>
      </trkpt>
      <trkpt lat="45.02322" lon="5.66137">
        <ele>500.207</ele>
        <time>2019-10-08T09:17:27.001Z</time>
      </trkpt>
      <trkpt lat="45.02252" lon="5.66113">
        <ele>501.586</ele>
        <time>2019-10-08T09:17:57.001Z</time>
      </trkpt>
      <trkpt lat="45.02183" lon="5.66101">
        <ele>500.257</ele>
        <time>2019-10-08T09:18:27.001Z</time>
      </trkpt>
      <trkpt lat="45.02112" lon="5.66077">
        <ele>501.847</ele>
        <time>2019-10-08T09:18:57.001Z</time>
      </trkpt>
      <trkpt lat="45.02039" lon="5.66062">
        <ele>505.276</ele>
        <time>2019-10-08T09:19:27.001Z</time>
      </trkpt>
      <trkpt lat="45.01975" lon="5.66053">
        <ele>506.615</ele>
        <time>2019-10-08T09:19:57.001Z</time>
      </trkpt>
      <trkpt lat="45.01909" lon="5.66042">
        <ele>510.682</ele>
        <time>2019-10-08T09:20:27.001Z</time>
      </trkpt>
      <trkpt lat="45.01846" lon="5.66013">
        <ele>513.737</ele>
        <time>2019-10-08T09:21:00Z</time>
      </trkpt>
      <trkpt lat="45.01788" lon="5.6597">
        <ele>520.865</ele>
        <time>2019-10-08T09:21:30.001Z</time>
      </trkpt>
      <trkpt lat="45.0172" lon="5.65919">
        <ele>530.931</ele>
        <time>2019-10-08T09:22:03.001Z</time>
      </trkpt>
      <trkpt lat="45.01651" lon="5.65885">
        <ele>530.602</ele>
        <time>2019-10-08T09:22:33.001Z</time>
      </trkpt>
      <trkpt lat="45.01581" lon="5.65855">
        <ele>529.21</ele>
        <time>2019-10-08T09:23:03.001Z</time>
      </trkpt>
      <trkpt lat="45.01508" lon="5.65826">
        <ele>526.874</ele>
        <time>2019-10-08T09:23:33.001Z</time>
      </trkpt>
      <trkpt lat="45.0144" lon="5.65801">
        <ele>536.586</ele>
        <time>2019-10-08T09:24:03.001Z</time>
      </trkpt>
      <trkpt lat="45.0137" lon="5.6579">
        <ele>544.983</ele>
        <time>2019-10-08T09:24:33.001Z</time>
      </trkpt>
      <trkpt lat="45.01298" lon="5.65791">
        <ele>557.304</ele>
        <time>2019-10-08T09:25:03.001Z</time>
      </trkpt>
      <trkpt lat="45.0122" lon="5.65783">
        <ele>550.104</ele>
        <time>2019-10-08T09:25:33.001Z</time>
      </trkpt>
      <trkpt lat="45.01154" lon="5.65766">
        <ele>551.252</ele>
        <time>2019-10-08T09:26:03.001Z</time>
      </trkpt>
      <trkpt lat="45.01084" lon="5.65742">
        <ele>558.771</ele>
        <time>2019-10-08T09:26:33.001Z</time>
      </trkpt>
      <trkpt lat="45.01011" lon="5.65706">
        <ele>562.098</ele>
        <time>2019-10-08T09:27:03.001Z</time>
      </trkpt>
      <trkpt lat="45.00947" lon="5.65671">
        <ele>560.613</ele>
        <time>2019-10-08T09:27:33.001Z</time>
      </trkpt>
      <trkpt lat="45.00891" lon="5.65641">
        <ele>566.864</ele>
        <time>2019-10-08T09:28:03.001Z</time>
      </trkpt>
      <trkpt lat="45.00827" lon="5.65616">
        <ele>568.677</ele>
        <time>2019-10-08T09:28:33.001Z</time>
      </trkpt>
      <trkpt lat="45.00765" lon="5.65594">
        <ele>568.62</ele>
        <time>2019-10-08T09:29:03.001Z</time>
      </trkpt>
      <trkpt lat="45.00702" lon="5.65567">
        <ele>573.113</ele>
        <time>2019-10-08T09:29:33.001Z</time>
      </trkpt>
      <trkpt lat="45.00643" lon="5.65533">
        <ele>573.197</ele>
        <time>2019-10-08T09:30:03.001Z</time>
      </trkpt>
      <trkpt lat="45.0058" lon="5.65504">
        <ele>579.242</ele>
        <time>2019-10-08T09:30:33.001Z</time>
      </trkpt>
      <trkpt lat="45.00512" lon="5.65492">
        <ele>583.276</ele>
        <time>2019-10-08T09:31:03.001Z</time>
      </trkpt>
      <trkpt lat="45.00442" lon="5.65488">
        <ele>589.791</ele>
        <time>2019-10-08T09:31:33.001Z</time>
      </trkpt>
      <trkpt lat="45.0037" lon="5.65478">
        <ele>581.988</ele>
        <time>2019-10-08T09:32:03.001Z</time>
      </trkpt>
      <trkpt lat="45.00303" lon="5.65468">
        <ele>585.144</ele>
        <time>2019-10-08T09:32:33.001Z</time>
      </trkpt>
      <trkpt lat="45.00232" lon="5.65443">
        <ele>588.052</ele>
        <time>2019-10-08T09:33:03.001Z</time>
      </trkpt>
      <trkpt lat="45.00158" lon="5.65415">
        <ele>592.608</ele>
        <time>2019-10-08T09:33:33.001Z</time>
      </trkpt>
      <trkpt lat="45.00095" lon="5.6539">
        <ele>597.266</ele>
        <time>2019-10-08T09:34:03.001Z</time>
      </trkpt>
      <trkpt lat="45.00025" lon="5.65361">
        <ele>599.99</ele>
        <time>2019-10-08T09:34:33.001Z</time>
      </trkpt>
      <trkpt lat="44.99956" lon="5.65327">
        <ele>602.33</ele>
        <time>2019-10-08T09:35:03.001Z</time>
      </trkpt>
      <trkpt lat="44.99885" lon="5.65285">
        <ele>597.23</ele>
        <time>2019-10-08T09:35:33.001Z</time>
      </trkpt>
      <trkpt lat="44.99814" lon="5.65245">
        <ele>598.273</ele>
        <time>2019-10-08T09:36:03.001Z</time>
      </trkpt>
      <trkpt lat="44.99738" lon="5.65205">
        <ele>601.262</ele>
        <time>2019-10-08T09:36:33.001Z</time>
      </trkpt>
      <trkpt lat="44.99666" lon="5.65171">
        <ele>603.379</ele>
        <time>2019-10-08T09:37:03.001Z</time>
      </trkpt>
      <trkpt lat="44.99592" lon="5.65141">
        <ele>602.291</ele>
        <time>2019-10-08T09:37:33.001Z</time>
      </trkpt>
      <trkpt lat="44.9952" lon="5.65113">
        <ele>604.52</ele>
        <time>2019-10-08T09:38:03.001Z</time>
      </trkpt>
      <trkpt lat="44.99447" lon="5.65086">
        <ele>608.537</ele>
        <time>2019-10-08T09:38:33.001Z</time>
      </trkpt>
      <trkpt lat="44.99378" lon="5.65056">
        <ele>611.974</ele>
        <time>2019-10-08T09:39:03.001Z</time>
      </trkpt>
      <trkpt lat="44.9932" lon="5.65032">
        <ele>616.195</ele>
        <time>2019-10-08T09:39:33.001Z</time>
      </trkpt>
      <trkpt lat="44.99263" lon="5.6501">
        <ele>617.385</ele>
        <time>2019-10-08T09:40:03.001Z</time>
      </trkpt>
      <trkpt lat="44.99202" lon="5.64985">
        <ele>618.231</ele>
        <time>2019-10-08T09:40:33.001Z</time>
      </trkpt>
      <trkpt lat="44.99127" lon="5.64968">
        <ele>623.973</ele>
        <time>2019-10-08T09:41:03.001Z</time>
      </trkpt>
      <trkpt lat="44.99052" lon="5.64956">
        <ele>627.883</ele>
        <time>2019-10-08T09:41:33.001Z</time>
      </trkpt>
      <trkpt lat="44.98986" lon="5.64944">
        <ele>634.034</ele>
        <time>2019-10-08T09:42:06.001Z</time>
      </trkpt>
      <trkpt lat="44.98926" lon="5.64917">
        <ele>640.353</ele>
        <time>2019-10-08T09:42:39.001Z</time>
      </trkpt>
      <trkpt lat="44.98876" lon="5.64888">
        <ele>644.704</ele>
        <time>2019-10-08T09:43:09.001Z</time>
      </trkpt>
      <trkpt lat="44.98827" lon="5.64832">
        <ele>645.537</ele>
        <time>2019-10-08T09:43:39.001Z</time>
      </trkpt>
      <trkpt lat="44.9878" lon="5.64889">
        <ele>644.78</ele>
        <time>2019-10-08T09:44:09.001Z</time>
      </trkpt>
      <trkpt lat="44.98722" lon="5.64847">
        <ele>650.217</ele>
        <time>2019-10-08T09:44:39.001Z</time>
      </trkpt>
      <trkpt lat="44.98668" lon="5.64817">
        <ele>653.808</ele>
        <time>2019-10-08T09:45:09.001Z</time>
      </trkpt>
      <trkpt lat="44.98615" lon="5.64786">
        <ele>658.898</ele>
        <time>2019-10-08T09:45:42.001Z</time>
      </trkpt>
      <trkpt lat="44.98552" lon="5.64759">
        <ele>667.319</ele>
        <time>2019-10-08T09:46:24.001Z</time>
      </trkpt>
      <trkpt lat="44.98477" lon="5.64754">
        <ele>668.057</ele>
        <time>2019-10-08T09:47:03.001Z</time>
      </trkpt>
      <trkpt lat="44.98409" lon="5.64721">
        <ele>671.916</ele>
        <time>2019-10-08T09:47:51.001Z</time>
      </trkpt>
      <trkpt lat="44.98346" lon="5.64681">
        <ele>680.288</ele>
        <time>2019-10-08T09:48:36.001Z</time>
      </trkpt>
      <trkpt lat="44.98292" lon="5.6467">
        <ele>683.431</ele>
        <time>2019-10-08T09:49:09.001Z</time>
      </trkpt>
      <trkpt lat="44.98231" lon="5.64648">
        <ele>687.434</ele>
        <time>2019-10-08T09:49:48.001Z</time>
      </trkpt>
      <trkpt lat="44.98165" lon="5.64646">
        <ele>687.738</ele>
        <time>2019-10-08T09:50:36.001Z</time>
      </trkpt>
      <trkpt lat="44.98081" lon="5.64649">
        <ele>695.861</ele>
        <time>2019-10-08T09:51:15.001Z</time>
      </trkpt>
      <trkpt lat="44.98025" lon="5.64638">
        <ele>698.907</ele>
        <time>2019-10-08T09:51:45.001Z</time>
      </trkpt>
      <trkpt lat="44.97967" lon="5.6463">
        <ele>703.336</ele>
        <time>2019-10-08T09:52:18.001Z</time>
      </trkpt>
      <trkpt lat="44.97908" lon="5.64606">
        <ele>705.759</ele>
        <time>2019-10-08T09:52:51.001Z</time>
      </trkpt>
      <trkpt lat="44.97855" lon="5.6458">
        <ele>709.069</ele>
        <time>2019-10-08T09:53:21.001Z</time>
      </trkpt>
      <trkpt lat="44.97806" lon="5.64548">
        <ele>709.89</ele>
        <time>2019-10-08T09:53:51.001Z</time>
      </trkpt>
      <trkpt lat="44.97754" lon="5.64516">
        <ele>712.41</ele>
        <time>2019-10-08T09:54:27.001Z</time>
      </trkpt>
      <trkpt lat="44.97695" lon="5.64499">
        <ele>718.023</ele>
        <time>2019-10-08T09:55:03.001Z</time>
      </trkpt>
      <trkpt lat="44.97625" lon="5.645">
        <ele>724.768</ele>
        <time>2019-10-08T09:55:36.001Z</time>
      </trkpt>
      <trkpt lat="44.97564" lon="5.64491">
        <ele>729.007</ele>
        <time>2019-10-08T09:56:15.001Z</time>
      </trkpt>
      <trkpt lat="44.97498" lon="5.64483">
        <ele>731.638</ele>
        <time>2019-10-08T09:56:54.001Z</time>
      </trkpt>
      <trkpt lat="44.97439" lon="5.6447">
        <ele>735.475</ele>
        <time>2019-10-08T09:57:33.001Z</time>
      </trkpt>
      <trkpt lat="44.9738" lon="5.64453">
        <ele>743.038</ele>
        <time>2019-10-08T09:58:09.001Z</time>
      </trkpt>
      <trkpt lat="44.97324" lon="5.64433">
        <ele>745.764</ele>
        <time>2019-10-08T09:58:45.001Z</time>
      </trkpt>
      <trkpt lat="44.97274" lon="5.64415">
        <ele>749.184</ele>
        <time>2019-10-08T09:59:18.001Z</time>
      </trkpt>
      <trkpt lat="44.97274" lon="5.64418">
        <ele>748.523</ele>
        <time>2019-10-08T10:10:00Z</time>
      </trkpt>
      <trkpt lat="44.97213" lon="5.64395">
        <ele>750.481</ele>
        <time>2019-10-08T10:10:30.001Z</time>
      </trkpt>
      <trkpt lat="44.97153" lon="5.64376">
        <ele>750.684</ele>
        <time>2019-10-08T10:11:00Z</time>
      </trkpt>
      <trkpt lat="44.97088" lon="5.64353">
        <ele>754.632</ele>
        <time>2019-10-08T10:11:30.001Z</time>
      </trkpt>
      <trkpt lat="44.9703" lon="5.64331">
        <ele>760.94</ele>
        <time>2019-10-08T10:12:00Z</time>
      </trkpt>
      <trkpt lat="44.96975" lon="5.64311">
        <ele>763.077</ele>
        <time>2019-10-08T10:12:30.001Z</time>
      </trkpt>
      <trkpt lat="44.96921" lon="5.64302">
        <ele>768.053</ele>
        <time>2019-10-08T10:13:00Z</time>
      </trkpt>
      <trkpt lat="44.96858" lon="5.64298">
        <ele>774.359</ele>
        <time>2019-10-08T10:13:36.001Z</time>
      </trkpt>
      <trkpt lat="44.9679" lon="5.64305">
        <ele>777.383</ele>
        <time>2019-10-08T10:14:15.001Z</time>
      </trkpt>
      <trkpt lat="44.96722" lon="5.64318">
        <ele>778.742</ele>
        <time>2019-10-08T10:14:51.001Z</time>
      </trkpt>
      <trkpt lat="44.96633" lon="5.64339">
        <ele>779.756</ele>
        <time>2019-10-08T10:15:30.001Z</time>
      </trkpt>
      <trkpt lat="44.96563" lon="5.64368">
        <ele>784.193</ele>
        <time>2019-10-08T10:16:00Z</time>
      </trkpt>
      <trkpt lat="44.96495" lon="5.64406">
        <ele>789.888</ele>
        <time>2019-10-08T10:16:30.001Z</time>
      </trkpt>
      <trkpt lat="44.96435" lon="5.64456">
        <ele>788.044</ele>
        <time>2019-10-08T10:17:00Z</time>
      </trkpt>
      <trkpt lat="44.96374" lon="5.64501">
        <ele>786.286</ele>
        <time>2019-10-08T10:17:30.001Z</time>
      </trkpt>
      <trkpt lat="44.96319" lon="5.6455">
        <ele>792.052</ele>
        <time>2019-10-08T10:18:00Z</time>
      </trkpt>
      <trkpt lat="44.9627" lon="5.64599">
        <ele>798.797</ele>
        <time>2019-10-08T10:18:30.001Z</time>
      </trkpt>
      <trkpt lat="44.96213" lon="5.64648">
        <ele>801.007</ele>
        <time>2019-10-08T10:19:00Z</time>
      </trkpt>
      <trkpt lat="44.96156" lon="5.64694">
        <ele>804.866</ele>
        <time>2019-10-08T10:19:30.001Z</time>
      </trkpt>
      <trkpt lat="44.96105" lon="5.64747">
        <ele>806.89</ele>
        <time>2019-10-08T10:20:00Z</time>
      </trkpt>
      <trkpt lat="44.9605" lon="5.64799">
        <ele>809.814</ele>
        <time>2019-10-08T10:20:30.001Z</time>
      </trkpt>
      <trkpt lat="44.96011" lon="5.64876">
        <ele>814.033</ele>
        <time>2019-10-08T10:21:00Z</time>
      </trkpt>
      <trkpt lat="44.95983" lon="5.64972">
        <ele>816.396</ele>
        <time>2019-10-08T10:21:30.001Z</time>
      </trkpt>
      <trkpt lat="44.95962" lon="5.65085">
        <ele>819.475</ele>
        <time>2019-10-08T10:22:00Z</time>
      </trkpt>
      <trkpt lat="44.95919" lon="5.65189">
        <ele>819.589</ele>
        <time>2019-10-08T10:22:30.001Z</time>
      </trkpt>
      <trkpt lat="44.95876" lon="5.65282">
        <ele>818.935</ele>
        <time>2019-10-08T10:23:00Z</time>
      </trkpt>
      <trkpt lat="44.95819" lon="5.65359">
        <ele>821.717</ele>
        <time>2019-10-08T10:23:30.001Z</time>
      </trkpt>
      <trkpt lat="44.95754" lon="5.65424">
        <ele>826.016</ele>
        <time>2019-10-08T10:24:00Z</time>
      </trkpt>
      <trkpt lat="44.95686" lon="5.65477">
        <ele>826.517</ele>
        <time>2019-10-08T10:24:30.001Z</time>
      </trkpt>
      <trkpt lat="44.95607" lon="5.65496">
        <ele>828.627</ele>
        <time>2019-10-08T10:25:00Z</time>
      </trkpt>
      <trkpt lat="44.9553" lon="5.65476">
        <ele>833.117</ele>
        <time>2019-10-08T10:25:30.001Z</time>
      </trkpt>
      <trkpt lat="44.95452" lon="5.65457">
        <ele>836.342</ele>
        <time>2019-10-08T10:26:00Z</time>
      </trkpt>
      <trkpt lat="44.95383" lon="5.65436">
        <ele>836.451</ele>
        <time>2019-10-08T10:26:30.001Z</time>
      </trkpt>
      <trkpt lat="44.95312" lon="5.65411">
        <ele>839.591</ele>
        <time>2019-10-08T10:27:00Z</time>
      </trkpt>
      <trkpt lat="44.9523" lon="5.65393">
        <ele>843.03</ele>
        <time>2019-10-08T10:27:30.001Z</time>
      </trkpt>
      <trkpt lat="44.95148" lon="5.65368">
        <ele>844.918</ele>
        <time>2019-10-08T10:28:00Z</time>
      </trkpt>
      <trkpt lat="44.95064" lon="5.65335">
        <ele>844.632</ele>
        <time>2019-10-08T10:28:30.001Z</time>
      </trkpt>
      <trkpt lat="44.94999" lon="5.65301">
        <ele>845.797</ele>
        <time>2019-10-08T10:29:00Z</time>
      </trkpt>
      <trkpt lat="44.9495" lon="5.65497">
        <ele>844.995</ele>
        <time>2019-10-08T10:29:30.001Z</time>
      </trkpt>
      <trkpt lat="44.94935" lon="5.65518">
        <ele>844.21</ele>
        <time>2019-10-08T10:31:00Z</time>
      </trkpt>
      <trkpt lat="44.94824" lon="5.65544">
        <ele>833.384</ele>
        <time>2019-10-08T10:31:33.001Z</time>
      </trkpt>
      <trkpt lat="44.94625" lon="5.65581">
        <ele>815.052</ele>
        <time>2019-10-08T10:32:03.001Z</time>
      </trkpt>
      <trkpt lat="44.94559" lon="5.65623">
        <ele>808.266</ele>
        <time>2019-10-08T10:36:48.001Z</time>
      </trkpt>
      <trkpt lat="44.94461" lon="5.65595">
        <ele>805.778</ele>
        <time>2019-10-08T10:37:51.001Z</time>
      </trkpt>
      <trkpt lat="44.9423" lon="5.65537">
        <ele>784.894</ele>
        <time>2019-10-08T10:38:21.001Z</time>
      </trkpt>
      <trkpt lat="44.93932" lon="5.65473">
        <ele>761.5</ele>
        <time>2019-10-08T10:38:51.001Z</time>
      </trkpt>
      <trkpt lat="44.93731" lon="5.65269">
        <ele>752.442</ele>
        <time>2019-10-08T10:39:21.001Z</time>
      </trkpt>
      <trkpt lat="44.93543" lon="5.65151">
        <ele>748.249</ele>
        <time>2019-10-08T10:39:51.001Z</time>
      </trkpt>
      <trkpt lat="44.93495" lon="5.65066">
        <ele>749.482</ele>
        <time>2019-10-08T10:40:21.001Z</time>
      </trkpt>
      <trkpt lat="44.93425" lon="5.64983">
        <ele>761.291</ele>
        <time>2019-10-08T10:40:51.001Z</time>
      </trkpt>
      <trkpt lat="44.93239" lon="5.64991">
        <ele>757.063</ele>
        <time>2019-10-08T10:41:21.001Z</time>
      </trkpt>
      <trkpt lat="44.92951" lon="5.65168">
        <ele>742.621</ele>
        <time>2019-10-08T10:41:51.001Z</time>
      </trkpt>
      <trkpt lat="44.92729" lon="5.65459">
        <ele>709.243</ele>
        <time>2019-10-08T10:42:21.001Z</time>
      </trkpt>
      <trkpt lat="44.9243" lon="5.65449">
        <ele>686.765</ele>
        <time>2019-10-08T10:42:51.001Z</time>
      </trkpt>
      <trkpt lat="44.92122" lon="5.65487">
        <ele>670.292</ele>
        <time>2019-10-08T10:43:21.001Z</time>
      </trkpt>
      <trkpt lat="44.91885" lon="5.65707">
        <ele>645.416</ele>
        <time>2019-10-08T10:43:51.001Z</time>
      </trkpt>
      <trkpt lat="44.91655" lon="5.65781">
        <ele>621.858</ele>
        <time>2019-10-08T10:44:21.001Z</time>
      </trkpt>
      <trkpt lat="44.91564" lon="5.65756">
        <ele>618.248</ele>
        <time>2019-10-08T10:47:24.001Z</time>
      </trkpt>
      <trkpt lat="44.91411" lon="5.65747">
        <ele>610.474</ele>
        <time>2019-10-08T10:47:54.001Z</time>
      </trkpt>
      <trkpt lat="44.91284" lon="5.65726">
        <ele>606.463</ele>
        <time>2019-10-08T10:48:24.001Z</time>
      </trkpt>
      <trkpt lat="44.9126" lon="5.65968">
        <ele>600.864</ele>
        <time>2019-10-08T10:48:54.001Z</time>
      </trkpt>
      <trkpt lat="44.9124" lon="5.66324">
        <ele>588.394</ele>
        <time>2019-10-08T10:49:24.001Z</time>
      </trkpt>
      <trkpt lat="44.91105" lon="5.66633">
        <ele>574.342</ele>
        <time>2019-10-08T10:49:54.001Z</time>
      </trkpt>
      <trkpt lat="44.9087" lon="5.66778">
        <ele>561.638</ele>
        <time>2019-10-08T10:50:24.001Z</time>
      </trkpt>
      <trkpt lat="44.90621" lon="5.66813">
        <ele>550.234</ele>
        <time>2019-10-08T10:50:54.001Z</time>
      </trkpt>
      <trkpt lat="44.90376" lon="5.66871">
        <ele>539.806</ele>
        <time>2019-10-08T10:51:24.001Z</time>
      </trkpt>
      <trkpt lat="44.90162" lon="5.66962">
        <ele>537.544</ele>
        <time>2019-10-08T10:51:54.001Z</time>
      </trkpt>
      <trkpt lat="44.90053" lon="5.67043">
        <ele>536.826</ele>
        <time>2019-10-08T10:53:03.001Z</time>
      </trkpt>
      <trkpt lat="44.9005" lon="5.67136">
        <ele>533.018</ele>
        <time>2019-10-08T10:54:00Z</time>
      </trkpt>
      <trkpt lat="44.89763" lon="5.67364">
        <ele>500.022</ele>
        <time>2019-10-08T10:54:30.001Z</time>
      </trkpt>
      <trkpt lat="44.89647" lon="5.67367">
        <ele>494.833</ele>
        <time>2019-10-08T10:55:09.001Z</time>
      </trkpt>
      <trkpt lat="44.89624" lon="5.67355">
        <ele>508.062</ele>
        <time>2019-10-08T11:02:30.001Z</time>
      </trkpt>
      <trkpt lat="44.89574" lon="5.67356">
        <ele>516.381</ele>
        <time>2019-10-08T11:03:18.001Z</time>
      </trkpt>
      <trkpt lat="44.89507" lon="5.67358">
        <ele>518.256</ele>
        <time>2019-10-08T11:04:18.001Z</time>
      </trkpt>
      <trkpt lat="44.89458" lon="5.67364">
        <ele>521.432</ele>
        <time>2019-10-08T11:05:24.001Z</time>
      </trkpt>
      <trkpt lat="44.89414" lon="5.67349">
        <ele>525.754</ele>
        <time>2019-10-08T11:06:30.001Z</time>
      </trkpt>
      <trkpt lat="44.89464" lon="5.67287">
        <ele>527.832</ele>
        <time>2019-10-08T11:07:00Z</time>
      </trkpt>
      <trkpt lat="44.89512" lon="5.67247">
        <ele>532.219</ele>
        <time>2019-10-08T11:07:30.001Z</time>
      </trkpt>
      <trkpt lat="44.89506" lon="5.67238">
        <ele>533.59</ele>
        <time>2019-10-08T11:08:30.001Z</time>
      </trkpt>
      <trkpt lat="44.89452" lon="5.67256">
        <ele>530.943</ele>
        <time>2019-10-08T11:09:45.001Z</time>
      </trkpt>
      <trkpt lat="44.89386" lon="5.67274">
        <ele>531.723</ele>
        <time>2019-10-08T11:10:15.001Z</time>
      </trkpt>
      <trkpt lat="44.89315" lon="5.67295">
        <ele>534.78</ele>
        <time>2019-10-08T11:10:45.001Z</time>
      </trkpt>
      <trkpt lat="44.89261" lon="5.67302">
        <ele>536.657</ele>
        <time>2019-10-08T11:13:00Z</time>
      </trkpt>
      <trkpt lat="44.89173" lon="5.67305">
        <ele>537.236</ele>
        <time>2019-10-08T11:13:30.001Z</time>
      </trkpt>
      <trkpt lat="44.89075" lon="5.67327">
        <ele>533.127</ele>
        <time>2019-10-08T11:14:00Z</time>
      </trkpt>
      <trkpt lat="44.88971" lon="5.67336">
        <ele>527.443</ele>
        <time>2019-10-08T11:14:30.001Z</time>
      </trkpt>
      <trkpt lat="44.88892" lon="5.6735">
        <ele>525.017</ele>
        <time>2019-10-08T11:15:00Z</time>
      </trkpt>
      <trkpt lat="44.88818" lon="5.67364">
        <ele>523.705</ele>
        <time>2019-10-08T11:15:30.001Z</time>
      </trkpt>
      <trkpt lat="44.88738" lon="5.67387">
        <ele>523.132</ele>
        <time>2019-10-08T11:16:00Z</time>
      </trkpt>
      <trkpt lat="44.88645" lon="5.67412">
        <ele>527.553</ele>
        <time>2019-10-08T11:16:30.001Z</time>
      </trkpt>
      <trkpt lat="44.88558" lon="5.67428">
        <ele>528.371</ele>
        <time>2019-10-08T11:17:00Z</time>
      </trkpt>
      <trkpt lat="44.88478" lon="5.67465">
        <ele>529.485</ele>
        <time>2019-10-08T11:17:30.001Z</time>
      </trkpt>
      <trkpt lat="44.88393" lon="5.67486">
        <ele>529.435</ele>
        <time>2019-10-08T11:18:00Z</time>
      </trkpt>
      <trkpt lat="44.88329" lon="5.67523">
        <ele>534.544</ele>
        <time>2019-10-08T11:18:30.001Z</time>
      </trkpt>
      <trkpt lat="44.88267" lon="5.67564">
        <ele>540.562</ele>
        <time>2019-10-08T11:19:00Z</time>
      </trkpt>
      <trkpt lat="44.88214" lon="5.67571">
        <ele>541.606</ele>
        <time>2019-10-08T11:19:33.001Z</time>
      </trkpt>
      <trkpt lat="44.8819" lon="5.67572">
        <ele>544.651</ele>
        <time>2019-10-08T11:20:15.001Z</time>
      </trkpt>
      <trkpt lat="44.8816" lon="5.67579">
        <ele>552.19</ele>
        <time>2019-10-08T11:20:48.001Z</time>
      </trkpt>
      <trkpt lat="44.88133" lon="5.67581">
        <ele>554.754</ele>
        <time>2019-10-08T11:21:33.001Z</time>
      </trkpt>
      <trkpt lat="44.88096" lon="5.67589">
        <ele>556.206</ele>
        <time>2019-10-08T11:22:27.001Z</time>
      </trkpt>
      <trkpt lat="44.88041" lon="5.67618">
        <ele>565.281</ele>
        <time>2019-10-08T11:22:57.001Z</time>
      </trkpt>
      <trkpt lat="44.87981" lon="5.67651">
        <ele>565.335</ele>
        <time>2019-10-08T11:23:27.001Z</time>
      </trkpt>
      <trkpt lat="44.87878" lon="5.677">
        <ele>564.644</ele>
        <time>2019-10-08T11:23:57.001Z</time>
      </trkpt>
      <trkpt lat="44.87789" lon="5.67711">
        <ele>568.684</ele>
        <time>2019-10-08T11:24:27.001Z</time>
      </trkpt>
      <trkpt lat="44.87692" lon="5.67724">
        <ele>570.017</ele>
        <time>2019-10-08T11:24:57.001Z</time>
      </trkpt>
      <trkpt lat="44.87588" lon="5.6772">
        <ele>568.802</ele>
        <time>2019-10-08T11:25:27.001Z</time>
      </trkpt>
      <trkpt lat="44.87516" lon="5.67696">
        <ele>567.244</ele>
        <time>2019-10-08T11:25:57.001Z</time>
      </trkpt>
      <trkpt lat="44.87423" lon="5.67694">
        <ele>567.937</ele>
        <time>2019-10-08T11:26:27.001Z</time>
      </trkpt>
      <trkpt lat="44.87323" lon="5.67658">
        <ele>561.49</ele>
        <time>2019-10-08T11:26:57.001Z</time>
      </trkpt>
      <trkpt lat="44.87283" lon="5.67619">
        <ele>557.918</ele>
        <time>2019-10-08T11:28:24.001Z</time>
      </trkpt>
      <trkpt lat="44.87311" lon="5.67651">
        <ele>555.273</ele>
        <time>2019-10-08T11:29:45.001Z</time>
      </trkpt>
      <trkpt lat="44.8735" lon="5.67669">
        <ele>556.393</ele>
        <time>2019-10-08T11:34:15.001Z</time>
      </trkpt>
      <trkpt lat="44.87321" lon="5.67667">
        <ele>556.627</ele>
        <time>2019-10-08T11:34:54.001Z</time>
      </trkpt>
      <trkpt lat="44.87362" lon="5.67697">
        <ele>554.884</ele>
        <time>2019-10-08T11:35:36.001Z</time>
      </trkpt>
      <trkpt lat="44.87297" lon="5.67672">
        <ele>552.65</ele>
        <time>2019-10-08T11:36:21.001Z</time>
      </trkpt>
      <trkpt lat="44.87345" lon="5.67716">
        <ele>552.357</ele>
        <time>2019-10-08T11:36:51.001Z</time>
      </trkpt>
      <trkpt lat="44.87306" lon="5.67708">
        <ele>546.618</ele>
        <time>2019-10-08T11:37:36.001Z</time>
      </trkpt>
      <trkpt lat="44.8734" lon="5.67749">
        <ele>542.776</ele>
        <time>2019-10-08T11:38:27.001Z</time>
      </trkpt>
      <trkpt lat="44.87298" lon="5.67738">
        <ele>538.294</ele>
        <time>2019-10-08T11:40:21.001Z</time>
      </trkpt>
      <trkpt lat="44.87289" lon="5.67733">
        <ele>536.207</ele>
        <time>2019-10-08T11:41:36.001Z</time>
      </trkpt>
      <trkpt lat="44.87324" lon="5.67745">
        <ele>535.582</ele>
        <time>2019-10-08T11:58:48.001Z</time>
      </trkpt>
      <trkpt lat="44.87326" lon="5.67748">
        <ele>536.304</ele>
        <time>2019-10-08T12:02:18.001Z</time>
      </trkpt>
      <trkpt lat="44.87316" lon="5.67742">
        <ele>538.449</ele>
        <time>2019-10-08T12:04:24.001Z</time>
      </trkpt>
      <trkpt lat="44.87266" lon="5.67715">
        <ele>534.682</ele>
        <time>2019-10-08T12:05:27.001Z</time>
      </trkpt>
      <trkpt lat="44.87229" lon="5.67695">
        <ele>531.028</ele>
        <time>2019-10-08T12:06:30.001Z</time>
      </trkpt>
      <trkpt lat="44.87191" lon="5.67685">
        <ele>527.486</ele>
        <time>2019-10-08T12:07:21.001Z</time>
      </trkpt>
      <trkpt lat="44.87197" lon="5.67685">
        <ele>527.486</ele>
        <time>2019-10-08T12:08:03.001Z</time>
      </trkpt>
      <trkpt lat="44.87195" lon="5.67687">
        <ele>523.733</ele>
        <time>2019-10-08T12:09:48.001Z</time>
      </trkpt>
      <trkpt lat="44.87169" lon="5.67673">
        <ele>526.913</ele>
        <time>2019-10-08T12:12:27.001Z</time>
      </trkpt>
      <trkpt lat="44.87098" lon="5.67657">
        <ele>535.87</ele>
        <time>2019-10-08T12:15:00Z</time>
      </trkpt>
      <trkpt lat="44.8706" lon="5.67603">
        <ele>549.297</ele>
        <time>2019-10-08T12:23:51.001Z</time>
      </trkpt>
      <trkpt lat="44.87034" lon="5.67529">
        <ele>561.101</ele>
        <time>2019-10-08T12:27:18.001Z</time>
      </trkpt>
      <trkpt lat="44.87023" lon="5.67489">
        <ele>570.36</ele>
        <time>2019-10-08T12:28:27.001Z</time>
      </trkpt>
      <trkpt lat="44.87017" lon="5.67415">
        <ele>579.995</ele>
        <time>2019-10-08T12:30:33.001Z</time>
      </trkpt>
      <trkpt lat="44.87003" lon="5.67442">
        <ele>585.332</ele>
        <time>2019-10-08T12:31:18.001Z</time>
      </trkpt>
      <trkpt lat="44.86977" lon="5.67493">
        <ele>590.179</ele>
        <time>2019-10-08T12:32:15.001Z</time>
      </trkpt>
      <trkpt lat="44.86952" lon="5.67608">
        <ele>600.484</ele>
        <time>2019-10-08T12:35:03.001Z</time>
      </trkpt>
      <trkpt lat="44.86862" lon="5.67797">
        <ele>611.302</ele>
        <time>2019-10-08T12:38:45.001Z</time>
      </trkpt>
      <trkpt lat="44.86755" lon="5.67997">
        <ele>623.665</ele>
        <time>2019-10-08T12:41:24.001Z</time>
      </trkpt>
      <trkpt lat="44.86721" lon="5.68092">
        <ele>625.958</ele>
        <time>2019-10-08T12:44:39.001Z</time>
      </trkpt>
      <trkpt lat="44.86693" lon="5.68146">
        <ele>636.44</ele>
        <time>2019-10-08T12:45:24.001Z</time>
      </trkpt>
      <trkpt lat="44.86686" lon="5.68184">
        <ele>637.989</ele>
        <time>2019-10-08T12:46:00Z</time>
      </trkpt>
      <trkpt lat="44.86669" lon="5.68233">
        <ele>644.071</ele>
        <time>2019-10-08T12:47:00Z</time>
      </trkpt>
      <trkpt lat="44.86652" lon="5.68263">
        <ele>645.787</ele>
        <time>2019-10-08T12:48:00Z</time>
      </trkpt>
      <trkpt lat="44.86598" lon="5.68312">
        <ele>655.121</ele>
        <time>2019-10-08T12:49:24.001Z</time>
      </trkpt>
      <trkpt lat="44.86564" lon="5.68346">
        <ele>655.174</ele>
        <time>2019-10-08T12:50:03.001Z</time>
      </trkpt>
      <trkpt lat="44.86531" lon="5.68392">
        <ele>659.887</ele>
        <time>2019-10-08T12:51:00Z</time>
      </trkpt>
      <trkpt lat="44.86494" lon="5.68467">
        <ele>653.208</ele>
        <time>2019-10-08T12:51:30.001Z</time>
      </trkpt>
      <trkpt lat="44.86464" lon="5.68518">
        <ele>653.159</ele>
        <time>2019-10-08T12:52:36.001Z</time>
      </trkpt>
      <trkpt lat="44.86457" lon="5.68562">
        <ele>651.546</ele>
        <time>2019-10-08T12:53:30.001Z</time>
      </trkpt>
      <trkpt lat="44.86454" lon="5.6863">
        <ele>655.033</ele>
        <time>2019-10-08T12:56:27.001Z</time>
      </trkpt>
      <trkpt lat="44.86438" lon="5.68682">
        <ele>659.468</ele>
        <time>2019-10-08T12:57:03.001Z</time>
      </trkpt>
      <trkpt lat="44.8642" lon="5.68718">
        <ele>663.08</ele>
        <time>2019-10-08T12:58:12.001Z</time>
      </trkpt>
      <trkpt lat="44.864" lon="5.68747">
        <ele>665.189</ele>
        <time>2019-10-08T12:59:03.001Z</time>
      </trkpt>
      <trkpt lat="44.86368" lon="5.68794">
        <ele>671.282</ele>
        <time>2019-10-08T13:00:48.001Z</time>
      </trkpt>
      <trkpt lat="44.86338" lon="5.68834">
        <ele>675.161</ele>
        <time>2019-10-08T13:01:42.001Z</time>
      </trkpt>
      <trkpt lat="44.86301" lon="5.68859">
        <ele>680.359</ele>
        <time>2019-10-08T13:03:18.001Z</time>
      </trkpt>
      <trkpt lat="44.8626" lon="5.68932">
        <ele>685.877</ele>
        <time>2019-10-08T13:10:00Z</time>
      </trkpt>
      <trkpt lat="44.86294" lon="5.68927">
        <ele>695.495</ele>
        <time>2019-10-08T13:10:42.001Z</time>
      </trkpt>
      <trkpt lat="44.8636" lon="5.68896">
        <ele>690.644</ele>
        <time>2019-10-08T13:11:30.001Z</time>
      </trkpt>
      <trkpt lat="44.86394" lon="5.68909">
        <ele>684.375</ele>
        <time>2019-10-08T13:22:45.001Z</time>
      </trkpt>
      <trkpt lat="44.86415" lon="5.68944">
        <ele>674.472</ele>
        <time>2019-10-08T13:24:12.001Z</time>
      </trkpt>
      <trkpt lat="44.86454" lon="5.68996">
        <ele>663.513</ele>
        <time>2019-10-08T13:25:30.001Z</time>
      </trkpt>
      <trkpt lat="44.86514" lon="5.69039">
        <ele>651.002</ele>
        <time>2019-10-08T13:26:03.001Z</time>
      </trkpt>
      <trkpt lat="44.86529" lon="5.69054">
        <ele>650.814</ele>
        <time>2019-10-08T13:27:21.001Z</time>
      </trkpt>
      <trkpt lat="44.86506" lon="5.69126">
        <ele>652.495</ele>
        <time>2019-10-08T13:28:27.001Z</time>
      </trkpt>
      <trkpt lat="44.86446" lon="5.69183">
        <ele>651.058</ele>
        <time>2019-10-08T13:28:57.001Z</time>
      </trkpt>
      <trkpt lat="44.86398" lon="5.69228">
        <ele>658.398</ele>
        <time>2019-10-08T13:29:33.001Z</time>
      </trkpt>
      <trkpt lat="44.86357" lon="5.69287">
        <ele>666.173</ele>
        <time>2019-10-08T13:30:09.001Z</time>
      </trkpt>
      <trkpt lat="44.86349" lon="5.69383">
        <ele>664.2</ele>
        <time>2019-10-08T13:30:42.001Z</time>
      </trkpt>
      <trkpt lat="44.86416" lon="5.69408">
        <ele>650.792</ele>
        <time>2019-10-08T13:31:12.001Z</time>
      </trkpt>
      <trkpt lat="44.86487" lon="5.69465">
        <ele>637.158</ele>
        <time>2019-10-08T13:31:42.001Z</time>
      </trkpt>
      <trkpt lat="44.86551" lon="5.69522">
        <ele>627.546</ele>
        <time>2019-10-08T13:32:12.001Z</time>
      </trkpt>
      <trkpt lat="44.8662" lon="5.69477">
        <ele>622.867</ele>
        <time>2019-10-08T13:32:42.001Z</time>
      </trkpt>
      <trkpt lat="44.86615" lon="5.69553">
        <ele>617.63</ele>
        <time>2019-10-08T13:33:21.001Z</time>
      </trkpt>
      <trkpt lat="44.86626" lon="5.69622">
        <ele>613.909</ele>
        <time>2019-10-08T13:33:54.001Z</time>
      </trkpt>
      <trkpt lat="44.86621" lon="5.69651">
        <ele>608.329</ele>
        <time>2019-10-08T13:35:15.001Z</time>
      </trkpt>
      <trkpt lat="44.86582" lon="5.69681">
        <ele>602.329</ele>
        <time>2019-10-08T13:36:21.001Z</time>
      </trkpt>
      <trkpt lat="44.86546" lon="5.69706">
        <ele>604.937</ele>
        <time>2019-10-08T13:37:48.001Z</time>
      </trkpt>
      <trkpt lat="44.86536" lon="5.69774">
        <ele>602.909</ele>
        <time>2019-10-08T13:39:09.001Z</time>
      </trkpt>
      <trkpt lat="44.86541" lon="5.69814">
        <ele>600.775</ele>
        <time>2019-10-08T13:39:45.001Z</time>
      </trkpt>
      <trkpt lat="44.86566" lon="5.69846">
        <ele>598.958</ele>
        <time>2019-10-08T13:41:09.001Z</time>
      </trkpt>
      <trkpt lat="44.86598" lon="5.69884">
        <ele>598.718</ele>
        <time>2019-10-08T13:41:54.001Z</time>
      </trkpt>
      <trkpt lat="44.8662" lon="5.69913">
        <ele>592.964</ele>
        <time>2019-10-08T13:42:24.001Z</time>
      </trkpt>
      <trkpt lat="44.86643" lon="5.69954">
        <ele>593.962</ele>
        <time>2019-10-08T13:42:57.001Z</time>
      </trkpt>
      <trkpt lat="44.86654" lon="5.70009">
        <ele>595.249</ele>
        <time>2019-10-08T13:44:24.001Z</time>
      </trkpt>
      <trkpt lat="44.86689" lon="5.70016">
        <ele>592.151</ele>
        <time>2019-10-08T13:45:51.001Z</time>
      </trkpt>
      <trkpt lat="44.8671" lon="5.70013">
        <ele>587.194</ele>
        <time>2019-10-08T13:52:03.001Z</time>
      </trkpt>
      <trkpt lat="44.86725" lon="5.70064">
        <ele>574.615</ele>
        <time>2019-10-08T13:54:24.001Z</time>
      </trkpt>
      <trkpt lat="44.86731" lon="5.70106">
        <ele>568.888</ele>
        <time>2019-10-08T13:55:00Z</time>
      </trkpt>
      <trkpt lat="44.86733" lon="5.70153">
        <ele>563.595</ele>
        <time>2019-10-08T13:55:39.001Z</time>
      </trkpt>
      <trkpt lat="44.86743" lon="5.70199">
        <ele>562.532</ele>
        <time>2019-10-08T13:56:30.001Z</time>
      </trkpt>
      <trkpt lat="44.86758" lon="5.70239">
        <ele>560.676</ele>
        <time>2019-10-08T13:57:06.001Z</time>
      </trkpt>
      <trkpt lat="44.86781" lon="5.70293">
        <ele>548.013</ele>
        <time>2019-10-08T13:58:12.001Z</time>
      </trkpt>
      <trkpt lat="44.86795" lon="5.70322">
        <ele>546.89</ele>
        <time>2019-10-08T13:59:03.001Z</time>
      </trkpt>
      <trkpt lat="44.86813" lon="5.70344">
        <ele>542.464</ele>
        <time>2019-10-08T13:59:39.001Z</time>
      </trkpt>
      <trkpt lat="44.86836" lon="5.70392">
        <ele>526.077</ele>
        <time>2019-10-08T14:00:30.001Z</time>
      </trkpt>
      <trkpt lat="44.86844" lon="5.70461">
        <ele>524.597</ele>
        <time>2019-10-08T14:01:18.001Z</time>
      </trkpt>
      <trkpt lat="44.86861" lon="5.70518">
        <ele>518.643</ele>
        <time>2019-10-08T14:02:06.001Z</time>
      </trkpt>
      <trkpt lat="44.8686" lon="5.70553">
        <ele>514.772</ele>
        <time>2019-10-08T14:03:39.001Z</time>
      </trkpt>
      <trkpt lat="44.86836" lon="5.70591">
        <ele>518.685</ele>
        <time>2019-10-08T14:06:51.001Z</time>
      </trkpt>
      <trkpt lat="44.86827" lon="5.70623">
        <ele>518.929</ele>
        <time>2019-10-08T14:08:12.001Z</time>
      </trkpt>
      <trkpt lat="44.86807" lon="5.70671">
        <ele>530.283</ele>
        <time>2019-10-08T14:10:24.001Z</time>
      </trkpt>
      <trkpt lat="44.86805" lon="5.70699">
        <ele>537.59</ele>
        <time>2019-10-08T14:11:33.001Z</time>
      </trkpt>
      <trkpt lat="44.86803" lon="5.70729">
        <ele>542.663</ele>
        <time>2019-10-08T14:12:39.001Z</time>
      </trkpt>
      <trkpt lat="44.868" lon="5.70755">
        <ele>543.477</ele>
        <time>2019-10-08T14:13:45.001Z</time>
      </trkpt>
      <trkpt lat="44.86795" lon="5.70787">
        <ele>541.474</ele>
        <time>2019-10-08T14:16:24.001Z</time>
      </trkpt>
      <trkpt lat="44.86807" lon="5.70811">
        <ele>537.676</ele>
        <time>2019-10-08T14:17:03.001Z</time>
      </trkpt>
      <trkpt lat="44.86829" lon="5.70826">
        <ele>524.454</ele>
        <time>2019-10-08T14:17:33.001Z</time>
      </trkpt>
      <trkpt lat="44.86865" lon="5.70854">
        <ele>518.967</ele>
        <time>2019-10-08T14:18:21.001Z</time>
      </trkpt>
      <trkpt lat="44.86872" lon="5.70862">
        <ele>517.685</ele>
        <time>2019-10-08T14:20:18.001Z</time>
      </trkpt>
      <trkpt lat="44.86918" lon="5.70902">
        <ele>525.306</ele>
        <time>2019-10-08T14:21:15.001Z</time>
      </trkpt>
      <trkpt lat="44.86942" lon="5.70919">
        <ele>524.942</ele>
        <time>2019-10-08T14:21:51.001Z</time>
      </trkpt>
      <trkpt lat="44.86968" lon="5.70935">
        <ele>529.655</ele>
        <time>2019-10-08T14:22:39.001Z</time>
      </trkpt>
      <trkpt lat="44.87003" lon="5.70953">
        <ele>538.039</ele>
        <time>2019-10-08T14:27:06.001Z</time>
      </trkpt>
      <trkpt lat="44.86984" lon="5.70959">
        <ele>552.454</ele>
        <time>2019-10-08T14:28:57.001Z</time>
      </trkpt>
      <trkpt lat="44.86958" lon="5.70973">
        <ele>553.895</ele>
        <time>2019-10-08T14:30:06.001Z</time>
      </trkpt>
      <trkpt lat="44.86959" lon="5.70987">
        <ele>562.27</ele>
        <time>2019-10-08T14:33:24.001Z</time>
      </trkpt>
      <trkpt lat="44.86958" lon="5.71002">
        <ele>566.367</ele>
        <time>2019-10-08T14:35:48.001Z</time>
      </trkpt>
      <trkpt lat="44.86957" lon="5.71011">
        <ele>571.109</ele>
        <time>2019-10-08T14:37:27.001Z</time>
      </trkpt>
      <trkpt lat="44.86962" lon="5.71038">
        <ele>575.914</ele>
        <time>2019-10-08T14:38:15.001Z</time>
      </trkpt>
      <trkpt lat="44.86964" lon="5.7106">
        <ele>581.27</ele>
        <time>2019-10-08T14:39:12.001Z</time>
      </trkpt>
      <trkpt lat="44.86973" lon="5.71046">
        <ele>586.475</ele>
        <time>2019-10-08T14:39:48.001Z</time>
      </trkpt>
      <trkpt lat="44.87006" lon="5.71059">
        <ele>590.49</ele>
        <time>2019-10-08T14:40:54.001Z</time>
      </trkpt>
      <trkpt lat="44.87098" lon="5.71122">
        <ele>594.511</ele>
        <time>2019-10-08T14:52:21.001Z</time>
      </trkpt>
      <trkpt lat="44.87137" lon="5.71143">
        <ele>600.961</ele>
        <time>2019-10-08T14:53:24.001Z</time>
      </trkpt>
      <trkpt lat="44.87149" lon="5.71157">
        <ele>603.81</ele>
        <time>2019-10-08T14:54:12.001Z</time>
      </trkpt>
      <trkpt lat="44.87167" lon="5.7118">
        <ele>609.937</ele>
        <time>2019-10-08T14:54:48.001Z</time>
      </trkpt>
      <trkpt lat="44.87224" lon="5.71157">
        <ele>610.829</ele>
        <time>2019-10-08T14:55:51.001Z</time>
      </trkpt>
      <trkpt lat="44.87248" lon="5.71164">
        <ele>617.464</ele>
        <time>2019-10-08T14:56:33.001Z</time>
      </trkpt>
      <trkpt lat="44.87266" lon="5.71191">
        <ele>622.072</ele>
        <time>2019-10-08T14:57:15.001Z</time>
      </trkpt>
      <trkpt lat="44.87283" lon="5.71224">
        <ele>628.441</ele>
        <time>2019-10-08T14:58:24.001Z</time>
      </trkpt>
      <trkpt lat="44.87298" lon="5.71258">
        <ele>635.129</ele>
        <time>2019-10-08T14:59:12.001Z</time>
      </trkpt>
      <trkpt lat="44.87312" lon="5.71295">
        <ele>638.904</ele>
        <time>2019-10-08T15:00:45.001Z</time>
      </trkpt>
      <trkpt lat="44.87321" lon="5.71318">
        <ele>644.375</ele>
        <time>2019-10-08T15:01:24.001Z</time>
      </trkpt>
      <trkpt lat="44.87326" lon="5.7137">
        <ele>654.268</ele>
        <time>2019-10-08T15:02:45.001Z</time>
      </trkpt>
      <trkpt lat="44.87317" lon="5.71394">
        <ele>654.517</ele>
        <time>2019-10-08T15:05:12.001Z</time>
      </trkpt>
      <trkpt lat="44.87314" lon="5.71463">
        <ele>656.057</ele>
        <time>2019-10-08T15:07:48.001Z</time>
      </trkpt>
      <trkpt lat="44.87334" lon="5.7157">
        <ele>656.981</ele>
        <time>2019-10-08T15:08:18.001Z</time>
      </trkpt>
      <trkpt lat="44.87291" lon="5.71734">
        <ele>657.32</ele>
        <time>2019-10-08T15:08:48.001Z</time>
      </trkpt>
      <trkpt lat="44.8727" lon="5.71871">
        <ele>660.971</ele>
        <time>2019-10-08T15:09:18.001Z</time>
      </trkpt>
      <trkpt lat="44.8732" lon="5.72009">
        <ele>656.702</ele>
        <time>2019-10-08T15:09:48.001Z</time>
      </trkpt>
      <trkpt lat="44.87295" lon="5.72148">
        <ele>660.841</ele>
        <time>2019-10-08T15:10:18.001Z</time>
      </trkpt>
      <trkpt lat="44.87207" lon="5.723">
        <ele>662.593</ele>
        <time>2019-10-08T15:10:48.001Z</time>
      </trkpt>
      <trkpt lat="44.87177" lon="5.72458">
        <ele>658.075</ele>
        <time>2019-10-08T15:11:18.001Z</time>
      </trkpt>
      <trkpt lat="44.87188" lon="5.72616">
        <ele>644.19</ele>
        <time>2019-10-08T15:11:48.001Z</time>
      </trkpt>
      <trkpt lat="44.87229" lon="5.72703">
        <ele>638.505</ele>
        <time>2019-10-08T15:12:18.002Z</time>
      </trkpt>
      <trkpt lat="44.8732" lon="5.72753">
        <ele>643.813</ele>
        <time>2019-10-08T15:12:48.001Z</time>
      </trkpt>
      <trkpt lat="44.87349" lon="5.72848">
        <ele>642.767</ele>
        <time>2019-10-08T15:13:18.001Z</time>
      </trkpt>
      <trkpt lat="44.87325" lon="5.72939">
        <ele>645.178</ele>
        <time>2019-10-08T15:13:51.001Z</time>
      </trkpt>
      <trkpt lat="44.87372" lon="5.72993">
        <ele>639.347</ele>
        <time>2019-10-08T15:14:27.001Z</time>
      </trkpt>
      <trkpt lat="44.87407" lon="5.73031">
        <ele>639.477</ele>
        <time>2019-10-08T15:15:24.001Z</time>
      </trkpt>
      <trkpt lat="44.87467" lon="5.73106">
        <ele>638.561</ele>
        <time>2019-10-08T15:15:54.001Z</time>
      </trkpt>
      <trkpt lat="44.8745" lon="5.73145">
        <ele>649.158</ele>
        <time>2019-10-08T15:17:24.001Z</time>
      </trkpt>
      <trkpt lat="44.87407" lon="5.73165">
        <ele>650.349</ele>
        <time>2019-10-08T15:18:21.001Z</time>
      </trkpt>
      <trkpt lat="44.87385" lon="5.73171">
        <ele>652.937</ele>
        <time>2019-10-08T15:19:09.001Z</time>
      </trkpt>
      <trkpt lat="44.87325" lon="5.73181">
        <ele>649.529</ele>
        <time>2019-10-08T15:19:42.001Z</time>
      </trkpt>
      <trkpt lat="44.87259" lon="5.73228">
        <ele>647.501</ele>
        <time>2019-10-08T15:20:15.001Z</time>
      </trkpt>
      <trkpt lat="44.87212" lon="5.73253">
        <ele>645.575</ele>
        <time>2019-10-08T15:21:06.001Z</time>
      </trkpt>
      <trkpt lat="44.87186" lon="5.73286">
        <ele>652.573</ele>
        <time>2019-10-08T15:21:45.001Z</time>
      </trkpt>
      <trkpt lat="44.87163" lon="5.73316">
        <ele>657.939</ele>
        <time>2019-10-08T15:22:30.001Z</time>
      </trkpt>
      <trkpt lat="44.8716" lon="5.73395">
        <ele>659.386</ele>
        <time>2019-10-08T15:23:42.001Z</time>
      </trkpt>
      <trkpt lat="44.87173" lon="5.73481">
        <ele>654.602</ele>
        <time>2019-10-08T15:24:33.001Z</time>
      </trkpt>
      <trkpt lat="44.87183" lon="5.73492">
        <ele>651.55</ele>
        <time>2019-10-08T15:26:03.001Z</time>
      </trkpt>
      <trkpt lat="44.87164" lon="5.73406">
        <ele>652.924</ele>
        <time>2019-10-08T15:26:36.001Z</time>
      </trkpt>
      <trkpt lat="44.87227" lon="5.73381">
        <ele>655.254</ele>
        <time>2019-10-08T15:27:06.001Z</time>
      </trkpt>
      <trkpt lat="44.8728" lon="5.73407">
        <ele>667.598</ele>
        <time>2019-10-08T15:27:39.001Z</time>
      </trkpt>
      <trkpt lat="44.87344" lon="5.73437">
        <ele>677.35</ele>
        <time>2019-10-08T15:28:24.001Z</time>
      </trkpt>
      <trkpt lat="44.87391" lon="5.73496">
        <ele>686.829</ele>
        <time>2019-10-08T15:29:12.001Z</time>
      </trkpt>
      <trkpt lat="44.8737" lon="5.73539">
        <ele>687.35</ele>
        <time>2019-10-08T15:30:24.001Z</time>
      </trkpt>
      <trkpt lat="44.87337" lon="5.73594">
        <ele>691.389</ele>
        <time>2019-10-08T15:31:21.001Z</time>
      </trkpt>
      <trkpt lat="44.87313" lon="5.73639">
        <ele>692.559</ele>
        <time>2019-10-08T15:33:09.001Z</time>
      </trkpt>
      <trkpt lat="44.8729" lon="5.7372">
        <ele>695.339</ele>
        <time>2019-10-08T15:33:42.001Z</time>
      </trkpt>
      <trkpt lat="44.87283" lon="5.73802">
        <ele>697.54</ele>
        <time>2019-10-08T15:34:12.001Z</time>
      </trkpt>
      <trkpt lat="44.87272" lon="5.73884">
        <ele>700.533</ele>
        <time>2019-10-08T15:34:42.001Z</time>
      </trkpt>
      <trkpt lat="44.87265" lon="5.73965">
        <ele>702.17</ele>
        <time>2019-10-08T15:35:12.001Z</time>
      </trkpt>
      <trkpt lat="44.87269" lon="5.74043">
        <ele>702.692</ele>
        <time>2019-10-08T15:35:42.001Z</time>
      </trkpt>
      <trkpt lat="44.87273" lon="5.74126">
        <ele>707.819</ele>
        <time>2019-10-08T15:36:12.001Z</time>
      </trkpt>
      <trkpt lat="44.87284" lon="5.74201">
        <ele>708.032</ele>
        <time>2019-10-08T15:36:42.001Z</time>
      </trkpt>
      <trkpt lat="44.87327" lon="5.74255">
        <ele>712.263</ele>
        <time>2019-10-08T15:37:12.001Z</time>
      </trkpt>
      <trkpt lat="44.87377" lon="5.7429">
        <ele>720.865</ele>
        <time>2019-10-08T15:37:42.001Z</time>
      </trkpt>
      <trkpt lat="44.87415" lon="5.74334">
        <ele>729.648</ele>
        <time>2019-10-08T15:38:15.001Z</time>
      </trkpt>
      <trkpt lat="44.87394" lon="5.74407">
        <ele>729.722</ele>
        <time>2019-10-08T15:38:45.001Z</time>
      </trkpt>
      <trkpt lat="44.87363" lon="5.74479">
        <ele>728.232</ele>
        <time>2019-10-08T15:39:15.001Z</time>
      </trkpt>
      <trkpt lat="44.87366" lon="5.74555">
        <ele>730.775</ele>
        <time>2019-10-08T15:39:45.001Z</time>
      </trkpt>
      <trkpt lat="44.87384" lon="5.74628">
        <ele>731.401</ele>
        <time>2019-10-08T15:40:15.002Z</time>
      </trkpt>
      <trkpt lat="44.87405" lon="5.74699">
        <ele>742.462</ele>
        <time>2019-10-08T15:40:45.001Z</time>
      </trkpt>
      <trkpt lat="44.87398" lon="5.74779">
        <ele>749.686</ele>
        <time>2019-10-08T15:41:15.001Z</time>
      </trkpt>
      <trkpt lat="44.87391" lon="5.74852">
        <ele>746.367</ele>
        <time>2019-10-08T15:41:45.001Z</time>
      </trkpt>
      <trkpt lat="44.87416" lon="5.74915">
        <ele>751.389</ele>
        <time>2019-10-08T15:42:15.001Z</time>
      </trkpt>
      <trkpt lat="44.87464" lon="5.74974">
        <ele>758.079</ele>
        <time>2019-10-08T15:42:48.001Z</time>
      </trkpt>
      <trkpt lat="44.87517" lon="5.75007">
        <ele>765.633</ele>
        <time>2019-10-08T15:43:18.001Z</time>
      </trkpt>
      <trkpt lat="44.87566" lon="5.75044">
        <ele>767.4</ele>
        <time>2019-10-08T15:43:48.001Z</time>
      </trkpt>
      <trkpt lat="44.87611" lon="5.75095">
        <ele>768.581</ele>
        <time>2019-10-08T15:44:18.001Z</time>
      </trkpt>
      <trkpt lat="44.87652" lon="5.7515">
        <ele>772.105</ele>
        <time>2019-10-08T15:44:48.001Z</time>
      </trkpt>
      <trkpt lat="44.87698" lon="5.75201">
        <ele>770.79</ele>
        <time>2019-10-08T15:45:18.001Z</time>
      </trkpt>
      <trkpt lat="44.87748" lon="5.75245">
        <ele>772.967</ele>
        <time>2019-10-08T15:45:51.001Z</time>
      </trkpt>
      <trkpt lat="44.87795" lon="5.75285">
        <ele>773.698</ele>
        <time>2019-10-08T15:46:21.001Z</time>
      </trkpt>
      <trkpt lat="44.87828" lon="5.75316">
        <ele>771.574</ele>
        <time>2019-10-08T15:46:57.001Z</time>
      </trkpt>
      <trkpt lat="44.87846" lon="5.75323">
        <ele>779.105</ele>
        <time>2019-10-08T15:50:18.001Z</time>
      </trkpt>
      <trkpt lat="44.87858" lon="5.75373">
        <ele>789.919</ele>
        <time>2019-10-08T15:50:48.001Z</time>
      </trkpt>
      <trkpt lat="44.87804" lon="5.7539">
        <ele>776.669</ele>
        <time>2019-10-08T15:51:18.001Z</time>
      </trkpt>
      <trkpt lat="44.87748" lon="5.75407">
        <ele>767.177</ele>
        <time>2019-10-08T15:51:48.001Z</time>
      </trkpt>
      <trkpt lat="44.87694" lon="5.75434">
        <ele>766.692</ele>
        <time>2019-10-08T15:52:18.001Z</time>
      </trkpt>
      <trkpt lat="44.8764" lon="5.75441">
        <ele>773.638</ele>
        <time>2019-10-08T15:52:48.001Z</time>
      </trkpt>
      <trkpt lat="44.87583" lon="5.75457">
        <ele>778.852</ele>
        <time>2019-10-08T15:53:18.001Z</time>
      </trkpt>
      <trkpt lat="44.87541" lon="5.75503">
        <ele>784.018</ele>
        <time>2019-10-08T15:53:48.001Z</time>
      </trkpt>
      <trkpt lat="44.87551" lon="5.75589">
        <ele>791.886</ele>
        <time>2019-10-08T15:54:18.001Z</time>
      </trkpt>
      <trkpt lat="44.87574" lon="5.75668">
        <ele>801.929</ele>
        <time>2019-10-08T15:54:48.001Z</time>
      </trkpt>
      <trkpt lat="44.87598" lon="5.75746">
        <ele>808.567</ele>
        <time>2019-10-08T15:55:18.001Z</time>
      </trkpt>
      <trkpt lat="44.87622" lon="5.75832">
        <ele>808.114</ele>
        <time>2019-10-08T15:55:48.001Z</time>
      </trkpt>
      <trkpt lat="44.87673" lon="5.75884">
        <ele>810.037</ele>
        <time>2019-10-08T15:56:18.001Z</time>
      </trkpt>
      <trkpt lat="44.87718" lon="5.75938">
        <ele>816.898</ele>
        <time>2019-10-08T15:56:48.001Z</time>
      </trkpt>
      <trkpt lat="44.87749" lon="5.76003">
        <ele>817.921</ele>
        <time>2019-10-08T15:57:18.001Z</time>
      </trkpt>
      <trkpt lat="44.87757" lon="5.76087">
        <ele>824.397</ele>
        <time>2019-10-08T15:57:48.001Z</time>
      </trkpt>
      <trkpt lat="44.87776" lon="5.7618">
        <ele>831.306</ele>
        <time>2019-10-08T15:58:21.001Z</time>
      </trkpt>
      <trkpt lat="44.87781" lon="5.76264">
        <ele>832.606</ele>
        <time>2019-10-08T15:58:51.001Z</time>
      </trkpt>
      <trkpt lat="44.87812" lon="5.76345">
        <ele>826.231</ele>
        <time>2019-10-08T15:59:21.001Z</time>
      </trkpt>
      <trkpt lat="44.87855" lon="5.76409">
        <ele>827.464</ele>
        <time>2019-10-08T15:59:51.001Z</time>
      </trkpt>
      <trkpt lat="44.87903" lon="5.76464">
        <ele>832.398</ele>
        <time>2019-10-08T16:00:21.001Z</time>
      </trkpt>
      <trkpt lat="44.8795" lon="5.76516">
        <ele>834.191</ele>
        <time>2019-10-08T16:00:51.001Z</time>
      </trkpt>
      <trkpt lat="44.88001" lon="5.76567">
        <ele>835.66</ele>
        <time>2019-10-08T16:01:21.001Z</time>
      </trkpt>
      <trkpt lat="44.88063" lon="5.76604">
        <ele>839.333</ele>
        <time>2019-10-08T16:01:51.001Z</time>
      </trkpt>
      <trkpt lat="44.88129" lon="5.76642">
        <ele>841.874</ele>
        <time>2019-10-08T16:02:21.001Z</time>
      </trkpt>
      <trkpt lat="44.88196" lon="5.76639">
        <ele>843.49</ele>
        <time>2019-10-08T16:02:51.001Z</time>
      </trkpt>
      <trkpt lat="44.88246" lon="5.76569">
        <ele>846.426</ele>
        <time>2019-10-08T16:03:21.001Z</time>
      </trkpt>
      <trkpt lat="44.88329" lon="5.76499">
        <ele>851.598</ele>
        <time>2019-10-08T16:03:51.001Z</time>
      </trkpt>
      <trkpt lat="44.88393" lon="5.76421">
        <ele>850.761</ele>
        <time>2019-10-08T16:04:21.001Z</time>
      </trkpt>
      <trkpt lat="44.88476" lon="5.7638">
        <ele>845.068</ele>
        <time>2019-10-08T16:04:51.001Z</time>
      </trkpt>
      <trkpt lat="44.88522" lon="5.76261">
        <ele>847.818</ele>
        <time>2019-10-08T16:05:21.001Z</time>
      </trkpt>
      <trkpt lat="44.8861" lon="5.76158">
        <ele>845.317</ele>
        <time>2019-10-08T16:05:51.001Z</time>
      </trkpt>
      <trkpt lat="44.88715" lon="5.7619">
        <ele>843.776</ele>
        <time>2019-10-08T16:06:21.001Z</time>
      </trkpt>
      <trkpt lat="44.88863" lon="5.76183">
        <ele>843.637</ele>
        <time>2019-10-08T16:06:51.001Z</time>
      </trkpt>
      <trkpt lat="44.88892" lon="5.76332">
        <ele>840.453</ele>
        <time>2019-10-08T16:07:21.001Z</time>
      </trkpt>
      <trkpt lat="44.88991" lon="5.76328">
        <ele>844.644</ele>
        <time>2019-10-08T16:07:51.001Z</time>
      </trkpt>
      <trkpt lat="44.89083" lon="5.7622">
        <ele>841.725</ele>
        <time>2019-10-08T16:08:21.001Z</time>
      </trkpt>
      <trkpt lat="44.89179" lon="5.76165">
        <ele>845.268</ele>
        <time>2019-10-08T16:08:51.001Z</time>
      </trkpt>
      <trkpt lat="44.89279" lon="5.7622">
        <ele>848.371</ele>
        <time>2019-10-08T16:09:21.001Z</time>
      </trkpt>
      <trkpt lat="44.89253" lon="5.76368">
        <ele>847.36</ele>
        <time>2019-10-08T16:09:54.001Z</time>
      </trkpt>
      <trkpt lat="44.8929" lon="5.76421">
        <ele>854.983</ele>
        <time>2019-10-08T16:10:24.001Z</time>
      </trkpt>
      <trkpt lat="44.89314" lon="5.76506">
        <ele>856.427</ele>
        <time>2019-10-08T16:10:54.001Z</time>
      </trkpt>
      <trkpt lat="44.89314" lon="5.76678">
        <ele>860.858</ele>
        <time>2019-10-08T16:11:24.001Z</time>
      </trkpt>
      <trkpt lat="44.894" lon="5.76812">
        <ele>855.07</ele>
        <time>2019-10-08T16:11:54.001Z</time>
      </trkpt>
      <trkpt lat="44.89497" lon="5.76873">
        <ele>859.003</ele>
        <time>2019-10-08T16:12:24.001Z</time>
      </trkpt>
      <trkpt lat="44.89587" lon="5.7698">
        <ele>860.571</ele>
        <time>2019-10-08T16:12:54.001Z</time>
      </trkpt>
      <trkpt lat="44.8974" lon="5.77145">
        <ele>854.71</ele>
        <time>2019-10-08T16:13:24.001Z</time>
      </trkpt>
      <trkpt lat="44.89886" lon="5.77172">
        <ele>851.707</ele>
        <time>2019-10-08T16:13:54.001Z</time>
      </trkpt>
      <trkpt lat="44.89981" lon="5.77232">
        <ele>856.258</ele>
        <time>2019-10-08T16:14:24.001Z</time>
      </trkpt>
      <trkpt lat="44.90008" lon="5.77268">
        <ele>855.884</ele>
        <time>2019-10-08T16:19:54.001Z</time>
      </trkpt>
      <trkpt lat="44.90066" lon="5.77418">
        <ele>857.19</ele>
        <time>2019-10-08T16:20:24.001Z</time>
      </trkpt>
      <trkpt lat="44.90108" lon="5.77611">
        <ele>858.387</ele>
        <time>2019-10-08T16:20:54.001Z</time>
      </trkpt>
      <trkpt lat="44.90083" lon="5.77757">
        <ele>859.354</ele>
        <time>2019-10-08T16:21:24.001Z</time>
      </trkpt>
      <trkpt lat="44.90029" lon="5.77852">
        <ele>859.739</ele>
        <time>2019-10-08T16:21:54.001Z</time>
      </trkpt>
      <trkpt lat="44.89988" lon="5.77952">
        <ele>858.86</ele>
        <time>2019-10-08T16:22:24.001Z</time>
      </trkpt>
      <trkpt lat="44.90062" lon="5.78105">
        <ele>861.781</ele>
        <time>2019-10-08T16:22:54.001Z</time>
      </trkpt>
      <trkpt lat="44.9011" lon="5.78229">
        <ele>865.768</ele>
        <time>2019-10-08T16:23:24.001Z</time>
      </trkpt>
      <trkpt lat="44.90136" lon="5.78342">
        <ele>870.293</ele>
        <time>2019-10-08T16:23:54.001Z</time>
      </trkpt>
      <trkpt lat="44.90215" lon="5.78469">
        <ele>879.069</ele>
        <time>2019-10-08T16:24:24.001Z</time>
      </trkpt>
      <trkpt lat="44.90298" lon="5.78614">
        <ele>869.053</ele>
        <time>2019-10-08T16:24:54.001Z</time>
      </trkpt>
      <trkpt lat="44.90418" lon="5.78677">
        <ele>866.046</ele>
        <time>2019-10-08T16:25:24.001Z</time>
      </trkpt>
      <trkpt lat="44.90528" lon="5.78738">
        <ele>869.072</ele>
        <time>2019-10-08T16:25:54.001Z</time>
      </trkpt>
      <trkpt lat="44.90635" lon="5.78779">
        <ele>885.357</ele>
        <time>2019-10-08T16:26:24.001Z</time>
      </trkpt>
      <trkpt lat="44.90711" lon="5.78898">
        <ele>870.756</ele>
        <time>2019-10-08T16:26:57.001Z</time>
      </trkpt>
      <trkpt lat="44.90703" lon="5.78916">
        <ele>875.121</ele>
        <time>2019-10-08T16:30:39.001Z</time>
      </trkpt>
      <trkpt lat="44.90694" lon="5.78922">
        <ele>868.564</ele>
        <time>2019-10-08T16:36:03.001Z</time>
      </trkpt>
      <trkpt lat="44.90709" lon="5.7891">
        <ele>861.45</ele>
        <time>2019-10-08T16:38:00Z</time>
      </trkpt>
      <trkpt lat="44.90717" lon="5.78894">
        <ele>860.514</ele>
        <time>2019-10-08T16:40:45.001Z</time>
      </trkpt>
      <trkpt lat="44.90721" lon="5.789">
        <ele>871.318</ele>
        <time>2019-10-08T16:43:41.001Z</time>
      </trkpt>
      <trkpt lat="44.9076" lon="5.78986">
        <ele>874.663</ele>
        <time>2019-10-08T16:45:23.001Z</time>
      </trkpt>
      <trkpt lat="44.90847" lon="5.79116">
        <ele>871.501</ele>
        <time>2019-10-08T16:45:53.001Z</time>
      </trkpt>
      <trkpt lat="44.90952" lon="5.79285">
        <ele>870.525</ele>
        <time>2019-10-08T16:46:26.001Z</time>
      </trkpt>
      <trkpt lat="44.90958" lon="5.79295">
        <ele>870.319</ele>
        <time>2019-10-08T16:47:08.001Z</time>
      </trkpt>
      <trkpt lat="44.90951" lon="5.7929">
        <ele>869.585</ele>
        <time>2019-10-08T16:49:08.001Z</time>
      </trkpt>
      <trkpt lat="44.9095" lon="5.79285">
        <ele>872.778</ele>
        <time>2019-10-08T16:54:56.001Z</time>
      </trkpt>
      <trkpt lat="44.90941" lon="5.793">
        <ele>862.478</ele>
        <time>2019-10-08T16:56:20.001Z</time>
      </trkpt>
      <trkpt lat="44.90946" lon="5.79292">
        <ele>865.419</ele>
        <time>2019-10-08T16:57:29.001Z</time>
      </trkpt>
      <trkpt lat="44.90952" lon="5.79302">
        <ele>862.446</ele>
        <time>2019-10-08T16:58:29.001Z</time>
      </trkpt>
      <trkpt lat="44.90953" lon="5.79285">
        <ele>863.377</ele>
        <time>2019-10-08T17:04:59.001Z</time>
      </trkpt>
      <trkpt lat="44.90953" lon="5.79285">
        <ele>862.272</ele>
        <time>2019-10-08T17:05:59.001Z</time>
      </trkpt>
      <trkpt lat="44.9093" lon="5.79246">
        <ele>864.741</ele>
        <time>2019-10-08T17:06:44.001Z</time>
      </trkpt>
      <trkpt lat="44.90847" lon="5.79123">
        <ele>878.345</ele>
        <time>2019-10-08T17:07:14.001Z</time>
      </trkpt>
      <trkpt lat="44.90774" lon="5.79014">
        <ele>884.969</ele>
        <time>2019-10-08T17:07:44.001Z</time>
      </trkpt>
      <trkpt lat="44.90699" lon="5.78892">
        <ele>887.742</ele>
        <time>2019-10-08T17:08:14.001Z</time>
      </trkpt>
      <trkpt lat="44.9065" lon="5.78775">
        <ele>885.062</ele>
        <time>2019-10-08T17:08:44.001Z</time>
      </trkpt>
      <trkpt lat="44.90616" lon="5.78727">
        <ele>885.083</ele>
        <time>2019-10-08T17:09:14.001Z</time>
      </trkpt>
      <trkpt lat="44.90622" lon="5.78657">
        <ele>884.508</ele>
        <time>2019-10-08T17:09:44.001Z</time>
      </trkpt>
      <trkpt lat="44.90592" lon="5.78616">
        <ele>883.662</ele>
        <time>2019-10-08T17:10:20.001Z</time>
      </trkpt>
      <trkpt lat="44.90602" lon="5.7862">
        <ele>886.287</ele>
        <time>2019-10-08T17:11:32.001Z</time>
      </trkpt>
      <trkpt lat="44.90631" lon="5.78625">
        <ele>890.673</ele>
        <time>2019-10-08T17:12:59.001Z</time>
      </trkpt>
      <trkpt lat="44.90608" lon="5.78625">
        <ele>883.546</ele>
        <time>2019-10-08T17:13:50.001Z</time>
      </trkpt>
      <trkpt lat="44.90625" lon="5.78614">
        <ele>883.346</ele>
        <time>2019-10-08T17:15:17.001Z</time>
      </trkpt>
      <trkpt lat="44.90608" lon="5.78613">
        <ele>889.819</ele>
        <time>2019-10-08T17:15:56.001Z</time>
      </trkpt>
      <trkpt lat="44.90647" lon="5.78551">
        <ele>882.891</ele>
        <time>2019-10-08T17:17:23.001Z</time>
      </trkpt>
      <trkpt lat="44.90626" lon="5.78466">
        <ele>885.376</ele>
        <time>2019-10-08T17:17:59.001Z</time>
      </trkpt>
      <trkpt lat="44.90668" lon="5.78405">
        <ele>889.266</ele>
        <time>2019-10-08T17:18:35.001Z</time>
      </trkpt>
      <trkpt lat="44.90749" lon="5.7834">
        <ele>884.169</ele>
        <time>2019-10-08T17:19:05.001Z</time>
      </trkpt>
      <trkpt lat="44.90728" lon="5.78285">
        <ele>872.601</ele>
        <time>2019-10-08T17:19:35.001Z</time>
      </trkpt>
      <trkpt lat="44.90636" lon="5.78266">
        <ele>872.123</ele>
        <time>2019-10-08T17:20:05.001Z</time>
      </trkpt>
    </trkseg>
  </trk>
  <trk>
    <name><![CDATA[Tracé 20191009-094023]]></name>
    <trkseg>
      <trkpt lat="44.90657" lon="5.78267">
        <ele>873.467</ele>
        <time>2019-10-09T07:54:29Z</time>
      </trkpt>
      <trkpt lat="44.90635" lon="5.78366">
        <ele>875.298</ele>
        <time>2019-10-09T07:55:23Z</time>
      </trkpt>
      <trkpt lat="44.90582" lon="5.78346">
        <ele>880.646</ele>
        <time>2019-10-09T07:55:53Z</time>
      </trkpt>
      <trkpt lat="44.90539" lon="5.78354">
        <ele>886.755</ele>
        <time>2019-10-09T07:56:26Z</time>
      </trkpt>
      <trkpt lat="44.90616" lon="5.78405">
        <ele>889.33</ele>
        <time>2019-10-09T07:56:56Z</time>
      </trkpt>
      <trkpt lat="44.9067" lon="5.78489">
        <ele>895.403</ele>
        <time>2019-10-09T07:57:26Z</time>
      </trkpt>
      <trkpt lat="44.90695" lon="5.78655">
        <ele>891.79</ele>
        <time>2019-10-09T07:57:56Z</time>
      </trkpt>
      <trkpt lat="44.9067" lon="5.78735">
        <ele>885.342</ele>
        <time>2019-10-09T08:03:11Z</time>
      </trkpt>
      <trkpt lat="44.90605" lon="5.78764">
        <ele>893.44</ele>
        <time>2019-10-09T08:03:50Z</time>
      </trkpt>
      <trkpt lat="44.90552" lon="5.78856">
        <ele>898.082</ele>
        <time>2019-10-09T08:04:20Z</time>
      </trkpt>
      <trkpt lat="44.90539" lon="5.79097">
        <ele>882.697</ele>
        <time>2019-10-09T08:04:50Z</time>
      </trkpt>
      <trkpt lat="44.90533" lon="5.79405">
        <ele>852.732</ele>
        <time>2019-10-09T08:05:20Z</time>
      </trkpt>
      <trkpt lat="44.90499" lon="5.79736">
        <ele>830.255</ele>
        <time>2019-10-09T08:05:50Z</time>
      </trkpt>
      <trkpt lat="44.9024" lon="5.7985">
        <ele>809.935</ele>
        <time>2019-10-09T08:06:20Z</time>
      </trkpt>
      <trkpt lat="44.90084" lon="5.80024">
        <ele>801.465</ele>
        <time>2019-10-09T08:06:50Z</time>
      </trkpt>
      <trkpt lat="44.8989" lon="5.80323">
        <ele>786.41</ele>
        <time>2019-10-09T08:07:20Z</time>
      </trkpt>
      <trkpt lat="44.89778" lon="5.80725">
        <ele>761.492</ele>
        <time>2019-10-09T08:07:50Z</time>
      </trkpt>
      <trkpt lat="44.89549" lon="5.80664">
        <ele>737.218</ele>
        <time>2019-10-09T08:08:20Z</time>
      </trkpt>
      <trkpt lat="44.89239" lon="5.80595">
        <ele>720.173</ele>
        <time>2019-10-09T08:08:53Z</time>
      </trkpt>
      <trkpt lat="44.89006" lon="5.80534">
        <ele>705.315</ele>
        <time>2019-10-09T08:09:23Z</time>
      </trkpt>
      <trkpt lat="44.88748" lon="5.8037">
        <ele>679.846</ele>
        <time>2019-10-09T08:09:53Z</time>
      </trkpt>
      <trkpt lat="44.88551" lon="5.80132">
        <ele>657.062</ele>
        <time>2019-10-09T08:10:23Z</time>
      </trkpt>
      <trkpt lat="44.88461" lon="5.79961">
        <ele>634.258</ele>
        <time>2019-10-09T08:10:53Z</time>
      </trkpt>
      <trkpt lat="44.88388" lon="5.79733">
        <ele>615.91</ele>
        <time>2019-10-09T08:11:23Z</time>
      </trkpt>
      <trkpt lat="44.88402" lon="5.79538">
        <ele>603.865</ele>
        <time>2019-10-09T08:16:47.001Z</time>
      </trkpt>
      <trkpt lat="44.8828" lon="5.79481">
        <ele>608.592</ele>
        <time>2019-10-09T08:17:17.001Z</time>
      </trkpt>
      <trkpt lat="44.88123" lon="5.7938">
        <ele>597.378</ele>
        <time>2019-10-09T08:17:47.001Z</time>
      </trkpt>
      <trkpt lat="44.88082" lon="5.79344">
        <ele>595.53</ele>
        <time>2019-10-09T08:18:44.001Z</time>
      </trkpt>
      <trkpt lat="44.88009" lon="5.79234">
        <ele>598.03</ele>
        <time>2019-10-09T08:19:14.001Z</time>
      </trkpt>
      <trkpt lat="44.87973" lon="5.7915">
        <ele>610.274</ele>
        <time>2019-10-09T08:19:44.001Z</time>
      </trkpt>
      <trkpt lat="44.87936" lon="5.79073">
        <ele>615.367</ele>
        <time>2019-10-09T08:20:14.001Z</time>
      </trkpt>
      <trkpt lat="44.87933" lon="5.78988">
        <ele>616.262</ele>
        <time>2019-10-09T08:20:44.001Z</time>
      </trkpt>
      <trkpt lat="44.87933" lon="5.78901">
        <ele>612.129</ele>
        <time>2019-10-09T08:21:14.001Z</time>
      </trkpt>
      <trkpt lat="44.87958" lon="5.78821">
        <ele>622.531</ele>
        <time>2019-10-09T08:21:44.001Z</time>
      </trkpt>
      <trkpt lat="44.87937" lon="5.78733">
        <ele>624.413</ele>
        <time>2019-10-09T08:22:14.001Z</time>
      </trkpt>
      <trkpt lat="44.87917" lon="5.78641">
        <ele>628.844</ele>
        <time>2019-10-09T08:22:44.001Z</time>
      </trkpt>
      <trkpt lat="44.87876" lon="5.78579">
        <ele>636.626</ele>
        <time>2019-10-09T08:23:14.001Z</time>
      </trkpt>
      <trkpt lat="44.8781" lon="5.78558">
        <ele>638.914</ele>
        <time>2019-10-09T08:23:44.001Z</time>
      </trkpt>
      <trkpt lat="44.87756" lon="5.78528">
        <ele>641.321</ele>
        <time>2019-10-09T08:24:14.001Z</time>
      </trkpt>
      <trkpt lat="44.87704" lon="5.78483">
        <ele>645.281</ele>
        <time>2019-10-09T08:24:44.001Z</time>
      </trkpt>
      <trkpt lat="44.87648" lon="5.78464">
        <ele>650.436</ele>
        <time>2019-10-09T08:25:14.001Z</time>
      </trkpt>
      <trkpt lat="44.87589" lon="5.78441">
        <ele>653.487</ele>
        <time>2019-10-09T08:25:44.001Z</time>
      </trkpt>
      <trkpt lat="44.87536" lon="5.78424">
        <ele>658.592</ele>
        <time>2019-10-09T08:26:14.001Z</time>
      </trkpt>
      <trkpt lat="44.8749" lon="5.78372">
        <ele>659.041</ele>
        <time>2019-10-09T08:26:44.001Z</time>
      </trkpt>
      <trkpt lat="44.87453" lon="5.78308">
        <ele>661.181</ele>
        <time>2019-10-09T08:27:14.001Z</time>
      </trkpt>
      <trkpt lat="44.87399" lon="5.78282">
        <ele>665.549</ele>
        <time>2019-10-09T08:27:44.001Z</time>
      </trkpt>
      <trkpt lat="44.87357" lon="5.78224">
        <ele>668.493</ele>
        <time>2019-10-09T08:28:14.001Z</time>
      </trkpt>
      <trkpt lat="44.87334" lon="5.78156">
        <ele>675.157</ele>
        <time>2019-10-09T08:28:44.001Z</time>
      </trkpt>
      <trkpt lat="44.87336" lon="5.78076">
        <ele>683.399</ele>
        <time>2019-10-09T08:29:14.001Z</time>
      </trkpt>
      <trkpt lat="44.87291" lon="5.78049">
        <ele>683.5</ele>
        <time>2019-10-09T08:29:47.001Z</time>
      </trkpt>
      <trkpt lat="44.87232" lon="5.78072">
        <ele>694.551</ele>
        <time>2019-10-09T08:30:20.001Z</time>
      </trkpt>
      <trkpt lat="44.87171" lon="5.7808">
        <ele>700.777</ele>
        <time>2019-10-09T08:30:50.001Z</time>
      </trkpt>
      <trkpt lat="44.87111" lon="5.78061">
        <ele>701.028</ele>
        <time>2019-10-09T08:31:20.001Z</time>
      </trkpt>
      <trkpt lat="44.87055" lon="5.78029">
        <ele>700.119</ele>
        <time>2019-10-09T08:31:50.001Z</time>
      </trkpt>
      <trkpt lat="44.87016" lon="5.77961">
        <ele>711.443</ele>
        <time>2019-10-09T08:32:23.001Z</time>
      </trkpt>
      <trkpt lat="44.86963" lon="5.77886">
        <ele>707.479</ele>
        <time>2019-10-09T08:32:56.001Z</time>
      </trkpt>
      <trkpt lat="44.86914" lon="5.77903">
        <ele>709.645</ele>
        <time>2019-10-09T08:33:26.001Z</time>
      </trkpt>
      <trkpt lat="44.86862" lon="5.77931">
        <ele>710.615</ele>
        <time>2019-10-09T08:33:56.001Z</time>
      </trkpt>
      <trkpt lat="44.86808" lon="5.77953">
        <ele>712.296</ele>
        <time>2019-10-09T08:34:26.001Z</time>
      </trkpt>
      <trkpt lat="44.86759" lon="5.77995">
        <ele>717.355</ele>
        <time>2019-10-09T08:34:56.001Z</time>
      </trkpt>
      <trkpt lat="44.86706" lon="5.78019">
        <ele>720.629</ele>
        <time>2019-10-09T08:35:29.001Z</time>
      </trkpt>
      <trkpt lat="44.86661" lon="5.77958">
        <ele>727.666</ele>
        <time>2019-10-09T08:36:11.001Z</time>
      </trkpt>
      <trkpt lat="44.86634" lon="5.77884">
        <ele>743.837</ele>
        <time>2019-10-09T08:36:50.001Z</time>
      </trkpt>
      <trkpt lat="44.86595" lon="5.77818">
        <ele>741.186</ele>
        <time>2019-10-09T08:37:20.001Z</time>
      </trkpt>
      <trkpt lat="44.86533" lon="5.77783">
        <ele>746.275</ele>
        <time>2019-10-09T08:38:02Z</time>
      </trkpt>
      <trkpt lat="44.86499" lon="5.7772">
        <ele>744.695</ele>
        <time>2019-10-09T08:38:32.001Z</time>
      </trkpt>
      <trkpt lat="44.8648" lon="5.77649">
        <ele>740.056</ele>
        <time>2019-10-09T08:39:02Z</time>
      </trkpt>
      <trkpt lat="44.8644" lon="5.77595">
        <ele>741.268</ele>
        <time>2019-10-09T08:39:32.001Z</time>
      </trkpt>
      <trkpt lat="44.86426" lon="5.77524">
        <ele>741.697</ele>
        <time>2019-10-09T08:40:02Z</time>
      </trkpt>
      <trkpt lat="44.864" lon="5.77463">
        <ele>744.562</ele>
        <time>2019-10-09T08:40:32.001Z</time>
      </trkpt>
      <trkpt lat="44.86369" lon="5.774">
        <ele>751.629</ele>
        <time>2019-10-09T08:41:05.001Z</time>
      </trkpt>
      <trkpt lat="44.86331" lon="5.77352">
        <ele>752.854</ele>
        <time>2019-10-09T08:41:35.001Z</time>
      </trkpt>
      <trkpt lat="44.86291" lon="5.77298">
        <ele>759.821</ele>
        <time>2019-10-09T08:42:08.001Z</time>
      </trkpt>
      <trkpt lat="44.86268" lon="5.77218">
        <ele>767.159</ele>
        <time>2019-10-09T08:42:47.001Z</time>
      </trkpt>
      <trkpt lat="44.8624" lon="5.77148">
        <ele>772.23</ele>
        <time>2019-10-09T08:43:20.001Z</time>
      </trkpt>
      <trkpt lat="44.86206" lon="5.77093">
        <ele>773.41</ele>
        <time>2019-10-09T08:43:50.001Z</time>
      </trkpt>
      <trkpt lat="44.86205" lon="5.77019">
        <ele>771.608</ele>
        <time>2019-10-09T08:44:20.001Z</time>
      </trkpt>
      <trkpt lat="44.86194" lon="5.76953">
        <ele>771.807</ele>
        <time>2019-10-09T08:44:50.001Z</time>
      </trkpt>
      <trkpt lat="44.86157" lon="5.76905">
        <ele>775.869</ele>
        <time>2019-10-09T08:45:20.001Z</time>
      </trkpt>
      <trkpt lat="44.86158" lon="5.76825">
        <ele>786.725</ele>
        <time>2019-10-09T08:45:56.001Z</time>
      </trkpt>
      <trkpt lat="44.86167" lon="5.76751">
        <ele>788.912</ele>
        <time>2019-10-09T08:46:29.001Z</time>
      </trkpt>
      <trkpt lat="44.86173" lon="5.7668">
        <ele>786.339</ele>
        <time>2019-10-09T08:46:59.001Z</time>
      </trkpt>
      <trkpt lat="44.8613" lon="5.76642">
        <ele>788.725</ele>
        <time>2019-10-09T08:47:32.001Z</time>
      </trkpt>
      <trkpt lat="44.86091" lon="5.76689">
        <ele>795.372</ele>
        <time>2019-10-09T08:48:02Z</time>
      </trkpt>
      <trkpt lat="44.86042" lon="5.76708">
        <ele>798.827</ele>
        <time>2019-10-09T08:48:32.001Z</time>
      </trkpt>
      <trkpt lat="44.8599" lon="5.76707">
        <ele>798.988</ele>
        <time>2019-10-09T08:49:02Z</time>
      </trkpt>
      <trkpt lat="44.8594" lon="5.76694">
        <ele>800.04</ele>
        <time>2019-10-09T08:49:32.001Z</time>
      </trkpt>
      <trkpt lat="44.85889" lon="5.76677">
        <ele>802.267</ele>
        <time>2019-10-09T08:50:02Z</time>
      </trkpt>
      <trkpt lat="44.85836" lon="5.7665">
        <ele>807.358</ele>
        <time>2019-10-09T08:50:35.001Z</time>
      </trkpt>
      <trkpt lat="44.85804" lon="5.76598">
        <ele>814.086</ele>
        <time>2019-10-09T08:51:05.001Z</time>
      </trkpt>
      <trkpt lat="44.85783" lon="5.76525">
        <ele>817.813</ele>
        <time>2019-10-09T08:51:38.001Z</time>
      </trkpt>
      <trkpt lat="44.85776" lon="5.76453">
        <ele>817.716</ele>
        <time>2019-10-09T08:52:08.001Z</time>
      </trkpt>
      <trkpt lat="44.85732" lon="5.76401">
        <ele>819.004</ele>
        <time>2019-10-09T08:52:41.001Z</time>
      </trkpt>
      <trkpt lat="44.85669" lon="5.76366">
        <ele>820.351</ele>
        <time>2019-10-09T08:53:11.001Z</time>
      </trkpt>
      <trkpt lat="44.85597" lon="5.76325">
        <ele>821.659</ele>
        <time>2019-10-09T08:53:41.001Z</time>
      </trkpt>
      <trkpt lat="44.85541" lon="5.76294">
        <ele>821.337</ele>
        <time>2019-10-09T08:56:14.001Z</time>
      </trkpt>
      <trkpt lat="44.8546" lon="5.76249">
        <ele>822.545</ele>
        <time>2019-10-09T08:56:44.001Z</time>
      </trkpt>
      <trkpt lat="44.85346" lon="5.76195">
        <ele>824.313</ele>
        <time>2019-10-09T08:57:14.001Z</time>
      </trkpt>
      <trkpt lat="44.85308" lon="5.76295">
        <ele>822.498</ele>
        <time>2019-10-09T08:57:44.001Z</time>
      </trkpt>
      <trkpt lat="44.8529" lon="5.76453">
        <ele>823.93</ele>
        <time>2019-10-09T08:58:14.001Z</time>
      </trkpt>
      <trkpt lat="44.85284" lon="5.76615">
        <ele>824.336</ele>
        <time>2019-10-09T08:58:44.001Z</time>
      </trkpt>
      <trkpt lat="44.85281" lon="5.7677">
        <ele>823.792</ele>
        <time>2019-10-09T08:59:14.001Z</time>
      </trkpt>
      <trkpt lat="44.85289" lon="5.76918">
        <ele>826.859</ele>
        <time>2019-10-09T08:59:44.001Z</time>
      </trkpt>
      <trkpt lat="44.85303" lon="5.77067">
        <ele>829.613</ele>
        <time>2019-10-09T09:00:14.001Z</time>
      </trkpt>
      <trkpt lat="44.85317" lon="5.77226">
        <ele>827.5</ele>
        <time>2019-10-09T09:00:44.001Z</time>
      </trkpt>
      <trkpt lat="44.85329" lon="5.77374">
        <ele>827.933</ele>
        <time>2019-10-09T09:01:14.001Z</time>
      </trkpt>
      <trkpt lat="44.85367" lon="5.77551">
        <ele>823.107</ele>
        <time>2019-10-09T09:01:44.001Z</time>
      </trkpt>
      <trkpt lat="44.85424" lon="5.77707">
        <ele>820.766</ele>
        <time>2019-10-09T09:02:14.001Z</time>
      </trkpt>
      <trkpt lat="44.85502" lon="5.77831">
        <ele>822.301</ele>
        <time>2019-10-09T09:02:44.001Z</time>
      </trkpt>
      <trkpt lat="44.8557" lon="5.77953">
        <ele>827.02</ele>
        <time>2019-10-09T09:03:14.001Z</time>
      </trkpt>
      <trkpt lat="44.8563" lon="5.78051">
        <ele>828.927</ele>
        <time>2019-10-09T09:03:44.001Z</time>
      </trkpt>
      <trkpt lat="44.85674" lon="5.78107">
        <ele>831.708</ele>
        <time>2019-10-09T09:04:14.001Z</time>
      </trkpt>
      <trkpt lat="44.85723" lon="5.7815">
        <ele>839</ele>
        <time>2019-10-09T09:04:50.001Z</time>
      </trkpt>
      <trkpt lat="44.85771" lon="5.78162">
        <ele>842.855</ele>
        <time>2019-10-09T09:05:20.001Z</time>
      </trkpt>
      <trkpt lat="44.85822" lon="5.78149">
        <ele>844.439</ele>
        <time>2019-10-09T09:05:53.001Z</time>
      </trkpt>
      <trkpt lat="44.8587" lon="5.78102">
        <ele>850.297</ele>
        <time>2019-10-09T09:06:32.001Z</time>
      </trkpt>
      <trkpt lat="44.85894" lon="5.78033">
        <ele>858.965</ele>
        <time>2019-10-09T09:07:05.001Z</time>
      </trkpt>
      <trkpt lat="44.85929" lon="5.78026">
        <ele>866.603</ele>
        <time>2019-10-09T09:07:50.001Z</time>
      </trkpt>
      <trkpt lat="44.85931" lon="5.78099">
        <ele>867.626</ele>
        <time>2019-10-09T09:08:23.001Z</time>
      </trkpt>
      <trkpt lat="44.85952" lon="5.78192">
        <ele>869.941</ele>
        <time>2019-10-09T09:09:08.001Z</time>
      </trkpt>
      <trkpt lat="44.85968" lon="5.78273">
        <ele>875.687</ele>
        <time>2019-10-09T09:09:47.001Z</time>
      </trkpt>
      <trkpt lat="44.8598" lon="5.78351">
        <ele>882.383</ele>
        <time>2019-10-09T09:10:23.001Z</time>
      </trkpt>
      <trkpt lat="44.86013" lon="5.78405">
        <ele>883.686</ele>
        <time>2019-10-09T09:10:53.001Z</time>
      </trkpt>
      <trkpt lat="44.86046" lon="5.78462">
        <ele>887.156</ele>
        <time>2019-10-09T09:11:23.001Z</time>
      </trkpt>
      <trkpt lat="44.86071" lon="5.7853">
        <ele>887.723</ele>
        <time>2019-10-09T09:11:56.001Z</time>
      </trkpt>
      <trkpt lat="44.861" lon="5.78614">
        <ele>893.644</ele>
        <time>2019-10-09T09:12:38.001Z</time>
      </trkpt>
      <trkpt lat="44.86104" lon="5.78675">
        <ele>898.56</ele>
        <time>2019-10-09T09:15:17.001Z</time>
      </trkpt>
      <trkpt lat="44.86127" lon="5.78748">
        <ele>907.618</ele>
        <time>2019-10-09T09:16:23.001Z</time>
      </trkpt>
      <trkpt lat="44.86088" lon="5.78783">
        <ele>910.053</ele>
        <time>2019-10-09T09:17:05.001Z</time>
      </trkpt>
      <trkpt lat="44.86041" lon="5.788">
        <ele>914.886</ele>
        <time>2019-10-09T09:18:02Z</time>
      </trkpt>
      <trkpt lat="44.85975" lon="5.78809">
        <ele>911.188</ele>
        <time>2019-10-09T09:18:35.001Z</time>
      </trkpt>
      <trkpt lat="44.85919" lon="5.78836">
        <ele>916.532</ele>
        <time>2019-10-09T09:19:08.001Z</time>
      </trkpt>
      <trkpt lat="44.85865" lon="5.78865">
        <ele>918.097</ele>
        <time>2019-10-09T09:19:41.001Z</time>
      </trkpt>
      <trkpt lat="44.85809" lon="5.78886">
        <ele>923.676</ele>
        <time>2019-10-09T09:20:17.001Z</time>
      </trkpt>
      <trkpt lat="44.85756" lon="5.78889">
        <ele>935.399</ele>
        <time>2019-10-09T09:20:50.001Z</time>
      </trkpt>
      <trkpt lat="44.85668" lon="5.78928">
        <ele>933.641</ele>
        <time>2019-10-09T09:21:20.001Z</time>
      </trkpt>
      <trkpt lat="44.8553" lon="5.7903">
        <ele>927.244</ele>
        <time>2019-10-09T09:21:50.001Z</time>
      </trkpt>
      <trkpt lat="44.85377" lon="5.79125">
        <ele>919.887</ele>
        <time>2019-10-09T09:22:20.001Z</time>
      </trkpt>
      <trkpt lat="44.85275" lon="5.79232">
        <ele>899.196</ele>
        <time>2019-10-09T09:22:50.001Z</time>
      </trkpt>
      <trkpt lat="44.85013" lon="5.79465">
        <ele>866.708</ele>
        <time>2019-10-09T09:23:20.001Z</time>
      </trkpt>
      <trkpt lat="44.84859" lon="5.79645">
        <ele>855.1</ele>
        <time>2019-10-09T09:23:50.001Z</time>
      </trkpt>
      <trkpt lat="44.84802" lon="5.79759">
        <ele>855.904</ele>
        <time>2019-10-09T09:24:20.001Z</time>
      </trkpt>
      <trkpt lat="44.84807" lon="5.79907">
        <ele>864.763</ele>
        <time>2019-10-09T09:24:50.001Z</time>
      </trkpt>
      <trkpt lat="44.8473" lon="5.79944">
        <ele>868.979</ele>
        <time>2019-10-09T09:25:20.001Z</time>
      </trkpt>
      <trkpt lat="44.84675" lon="5.80036">
        <ele>870.423</ele>
        <time>2019-10-09T09:25:50.001Z</time>
      </trkpt>
      <trkpt lat="44.84635" lon="5.80149">
        <ele>874.432</ele>
        <time>2019-10-09T09:26:20.001Z</time>
      </trkpt>
      <trkpt lat="44.84607" lon="5.80268">
        <ele>875.138</ele>
        <time>2019-10-09T09:26:50.001Z</time>
      </trkpt>
      <trkpt lat="44.84618" lon="5.80378">
        <ele>874.779</ele>
        <time>2019-10-09T09:27:20.001Z</time>
      </trkpt>
      <trkpt lat="44.84608" lon="5.80476">
        <ele>882.539</ele>
        <time>2019-10-09T09:27:50.001Z</time>
      </trkpt>
      <trkpt lat="44.84596" lon="5.80575">
        <ele>885.92</ele>
        <time>2019-10-09T09:28:20.001Z</time>
      </trkpt>
      <trkpt lat="44.84588" lon="5.80678">
        <ele>889.484</ele>
        <time>2019-10-09T09:28:50.001Z</time>
      </trkpt>
      <trkpt lat="44.84589" lon="5.80787">
        <ele>885.583</ele>
        <time>2019-10-09T09:29:20.001Z</time>
      </trkpt>
      <trkpt lat="44.84586" lon="5.80888">
        <ele>887.054</ele>
        <time>2019-10-09T09:29:50.001Z</time>
      </trkpt>
      <trkpt lat="44.84566" lon="5.80985">
        <ele>889.859</ele>
        <time>2019-10-09T09:30:20.001Z</time>
      </trkpt>
      <trkpt lat="44.84548" lon="5.81073">
        <ele>894.613</ele>
        <time>2019-10-09T09:30:50.001Z</time>
      </trkpt>
      <trkpt lat="44.84522" lon="5.81161">
        <ele>897.881</ele>
        <time>2019-10-09T09:31:20.001Z</time>
      </trkpt>
      <trkpt lat="44.84463" lon="5.81173">
        <ele>896.322</ele>
        <time>2019-10-09T09:31:50.001Z</time>
      </trkpt>
      <trkpt lat="44.84422" lon="5.81245">
        <ele>898.943</ele>
        <time>2019-10-09T09:32:20.001Z</time>
      </trkpt>
      <trkpt lat="44.84404" lon="5.81385">
        <ele>899.318</ele>
        <time>2019-10-09T09:32:50.001Z</time>
      </trkpt>
      <trkpt lat="44.84384" lon="5.81535">
        <ele>897.043</ele>
        <time>2019-10-09T09:33:20.001Z</time>
      </trkpt>
      <trkpt lat="44.84385" lon="5.81691">
        <ele>897.61</ele>
        <time>2019-10-09T09:33:50.001Z</time>
      </trkpt>
      <trkpt lat="44.84396" lon="5.81853">
        <ele>895.193</ele>
        <time>2019-10-09T09:34:20.001Z</time>
      </trkpt>
      <trkpt lat="44.84374" lon="5.8201">
        <ele>896.454</ele>
        <time>2019-10-09T09:34:50.001Z</time>
      </trkpt>
      <trkpt lat="44.84345" lon="5.82171">
        <ele>893.997</ele>
        <time>2019-10-09T09:35:20.001Z</time>
      </trkpt>
      <trkpt lat="44.84294" lon="5.82336">
        <ele>892.808</ele>
        <time>2019-10-09T09:35:50.001Z</time>
      </trkpt>
      <trkpt lat="44.84208" lon="5.82472">
        <ele>889.853</ele>
        <time>2019-10-09T09:36:20.001Z</time>
      </trkpt>
      <trkpt lat="44.84117" lon="5.82607">
        <ele>888.039</ele>
        <time>2019-10-09T09:36:53.001Z</time>
      </trkpt>
      <trkpt lat="44.83993" lon="5.82755">
        <ele>885.14</ele>
        <time>2019-10-09T09:37:23.001Z</time>
      </trkpt>
      <trkpt lat="44.83923" lon="5.82902">
        <ele>887.74</ele>
        <time>2019-10-09T09:37:53.001Z</time>
      </trkpt>
      <trkpt lat="44.83867" lon="5.83023">
        <ele>890.112</ele>
        <time>2019-10-09T09:38:23.001Z</time>
      </trkpt>
      <trkpt lat="44.83765" lon="5.83114">
        <ele>882.466</ele>
        <time>2019-10-09T09:38:53.001Z</time>
      </trkpt>
      <trkpt lat="44.83631" lon="5.83239">
        <ele>879.501</ele>
        <time>2019-10-09T09:39:23.001Z</time>
      </trkpt>
      <trkpt lat="44.83545" lon="5.83363">
        <ele>883.348</ele>
        <time>2019-10-09T09:39:53.001Z</time>
      </trkpt>
      <trkpt lat="44.83449" lon="5.83477">
        <ele>880.499</ele>
        <time>2019-10-09T09:40:23.001Z</time>
      </trkpt>
      <trkpt lat="44.83349" lon="5.8358">
        <ele>880.998</ele>
        <time>2019-10-09T09:40:53.001Z</time>
      </trkpt>
      <trkpt lat="44.83262" lon="5.83668">
        <ele>881.308</ele>
        <time>2019-10-09T09:41:23.001Z</time>
      </trkpt>
      <trkpt lat="44.83165" lon="5.83708">
        <ele>880.757</ele>
        <time>2019-10-09T09:41:53.001Z</time>
      </trkpt>
      <trkpt lat="44.83064" lon="5.83656">
        <ele>884.195</ele>
        <time>2019-10-09T09:42:23.001Z</time>
      </trkpt>
      <trkpt lat="44.82997" lon="5.8369">
        <ele>885.355</ele>
        <time>2019-10-09T09:42:53.001Z</time>
      </trkpt>
      <trkpt lat="44.8298" lon="5.83787">
        <ele>888.136</ele>
        <time>2019-10-09T09:43:23.001Z</time>
      </trkpt>
      <trkpt lat="44.82923" lon="5.83831">
        <ele>892.463</ele>
        <time>2019-10-09T09:43:53.001Z</time>
      </trkpt>
      <trkpt lat="44.82865" lon="5.83878">
        <ele>896.776</ele>
        <time>2019-10-09T09:44:23.001Z</time>
      </trkpt>
      <trkpt lat="44.82808" lon="5.83942">
        <ele>898.287</ele>
        <time>2019-10-09T09:44:53.001Z</time>
      </trkpt>
      <trkpt lat="44.82766" lon="5.84026">
        <ele>903.788</ele>
        <time>2019-10-09T09:45:23.001Z</time>
      </trkpt>
      <trkpt lat="44.82713" lon="5.84127">
        <ele>901.97</ele>
        <time>2019-10-09T09:49:53.001Z</time>
      </trkpt>
      <trkpt lat="44.82701" lon="5.8426">
        <ele>897.376</ele>
        <time>2019-10-09T09:50:23.001Z</time>
      </trkpt>
      <trkpt lat="44.82723" lon="5.84341">
        <ele>901.745</ele>
        <time>2019-10-09T09:50:56.001Z</time>
      </trkpt>
      <trkpt lat="44.82734" lon="5.84426">
        <ele>909.222</ele>
        <time>2019-10-09T09:51:26.001Z</time>
      </trkpt>
      <trkpt lat="44.82735" lon="5.84511">
        <ele>910.183</ele>
        <time>2019-10-09T09:51:56.001Z</time>
      </trkpt>
      <trkpt lat="44.82697" lon="5.84581">
        <ele>915.959</ele>
        <time>2019-10-09T09:52:26.001Z</time>
      </trkpt>
      <trkpt lat="44.82655" lon="5.84637">
        <ele>918.919</ele>
        <time>2019-10-09T09:52:56.001Z</time>
      </trkpt>
      <trkpt lat="44.82611" lon="5.84692">
        <ele>920.178</ele>
        <time>2019-10-09T09:53:26.001Z</time>
      </trkpt>
      <trkpt lat="44.82578" lon="5.84761">
        <ele>920.705</ele>
        <time>2019-10-09T09:53:56.001Z</time>
      </trkpt>
      <trkpt lat="44.82544" lon="5.84829">
        <ele>926.672</ele>
        <time>2019-10-09T09:54:26.001Z</time>
      </trkpt>
      <trkpt lat="44.82505" lon="5.84894">
        <ele>931.793</ele>
        <time>2019-10-09T09:54:56.001Z</time>
      </trkpt>
      <trkpt lat="44.82463" lon="5.84962">
        <ele>933.454</ele>
        <time>2019-10-09T09:55:29.001Z</time>
      </trkpt>
      <trkpt lat="44.82422" lon="5.85036">
        <ele>934.973</ele>
        <time>2019-10-09T09:55:59.001Z</time>
      </trkpt>
      <trkpt lat="44.82354" lon="5.85128">
        <ele>940.11</ele>
        <time>2019-10-09T09:56:29.001Z</time>
      </trkpt>
      <trkpt lat="44.82241" lon="5.85263">
        <ele>935.471</ele>
        <time>2019-10-09T09:56:59.001Z</time>
      </trkpt>
      <trkpt lat="44.82178" lon="5.85353">
        <ele>939.108</ele>
        <time>2019-10-09T09:57:29.001Z</time>
      </trkpt>
      <trkpt lat="44.82127" lon="5.85437">
        <ele>941.494</ele>
        <time>2019-10-09T09:57:59.001Z</time>
      </trkpt>
      <trkpt lat="44.82075" lon="5.85544">
        <ele>938.582</ele>
        <time>2019-10-09T09:58:29.001Z</time>
      </trkpt>
      <trkpt lat="44.8201" lon="5.85617">
        <ele>941.366</ele>
        <time>2019-10-09T09:58:59.001Z</time>
      </trkpt>
      <trkpt lat="44.81975" lon="5.85718">
        <ele>944.927</ele>
        <time>2019-10-09T09:59:32.001Z</time>
      </trkpt>
      <trkpt lat="44.81933" lon="5.85839">
        <ele>944.842</ele>
        <time>2019-10-09T10:00:02Z</time>
      </trkpt>
      <trkpt lat="44.81918" lon="5.85956">
        <ele>949.445</ele>
        <time>2019-10-09T10:00:32.001Z</time>
      </trkpt>
      <trkpt lat="44.81873" lon="5.86066">
        <ele>944.531</ele>
        <time>2019-10-09T10:01:02Z</time>
      </trkpt>
      <trkpt lat="44.81702" lon="5.85919">
        <ele>936.459</ele>
        <time>2019-10-09T10:01:32.001Z</time>
      </trkpt>
      <trkpt lat="44.81526" lon="5.86126">
        <ele>914.735</ele>
        <time>2019-10-09T10:02:02Z</time>
      </trkpt>
      <trkpt lat="44.81282" lon="5.86301">
        <ele>887.39</ele>
        <time>2019-10-09T10:02:32.001Z</time>
      </trkpt>
      <trkpt lat="44.81252" lon="5.86502">
        <ele>874.16</ele>
        <time>2019-10-09T10:03:02Z</time>
      </trkpt>
      <trkpt lat="44.81317" lon="5.86552">
        <ele>882.939</ele>
        <time>2019-10-09T10:03:32.001Z</time>
      </trkpt>
      <trkpt lat="44.8139" lon="5.86558">
        <ele>895.13</ele>
        <time>2019-10-09T10:04:11.001Z</time>
      </trkpt>
      <trkpt lat="44.81447" lon="5.86554">
        <ele>901.648</ele>
        <time>2019-10-09T10:04:41.001Z</time>
      </trkpt>
      <trkpt lat="44.8151" lon="5.86525">
        <ele>904.143</ele>
        <time>2019-10-09T10:05:14.001Z</time>
      </trkpt>
      <trkpt lat="44.81571" lon="5.86538">
        <ele>910.407</ele>
        <time>2019-10-09T10:05:50.001Z</time>
      </trkpt>
      <trkpt lat="44.81633" lon="5.86583">
        <ele>910.35</ele>
        <time>2019-10-09T10:06:23.001Z</time>
      </trkpt>
      <trkpt lat="44.81693" lon="5.86621">
        <ele>911.709</ele>
        <time>2019-10-09T10:06:56.001Z</time>
      </trkpt>
      <trkpt lat="44.81726" lon="5.86692">
        <ele>904.56</ele>
        <time>2019-10-09T10:07:26.001Z</time>
      </trkpt>
      <trkpt lat="44.81673" lon="5.86755">
        <ele>904.305</ele>
        <time>2019-10-09T10:07:56.001Z</time>
      </trkpt>
      <trkpt lat="44.81608" lon="5.86786">
        <ele>908.561</ele>
        <time>2019-10-09T10:08:26.001Z</time>
      </trkpt>
      <trkpt lat="44.8154" lon="5.86817">
        <ele>911.784</ele>
        <time>2019-10-09T10:08:56.001Z</time>
      </trkpt>
      <trkpt lat="44.8147" lon="5.86851">
        <ele>914.57</ele>
        <time>2019-10-09T10:09:26.001Z</time>
      </trkpt>
      <trkpt lat="44.814" lon="5.86885">
        <ele>915.585</ele>
        <time>2019-10-09T10:09:56.001Z</time>
      </trkpt>
      <trkpt lat="44.81329" lon="5.8692">
        <ele>917.499</ele>
        <time>2019-10-09T10:10:26.001Z</time>
      </trkpt>
      <trkpt lat="44.81252" lon="5.86954">
        <ele>919.061</ele>
        <time>2019-10-09T10:10:56.001Z</time>
      </trkpt>
      <trkpt lat="44.81154" lon="5.86906">
        <ele>917.326</ele>
        <time>2019-10-09T10:11:26.001Z</time>
      </trkpt>
      <trkpt lat="44.80899" lon="5.8689">
        <ele>908.646</ele>
        <time>2019-10-09T10:11:56.001Z</time>
      </trkpt>
      <trkpt lat="44.80678" lon="5.86991">
        <ele>885.206</ele>
        <time>2019-10-09T10:12:26.001Z</time>
      </trkpt>
      <trkpt lat="44.80758" lon="5.87031">
        <ele>881.177</ele>
        <time>2019-10-09T10:12:56.001Z</time>
      </trkpt>
      <trkpt lat="44.80833" lon="5.87043">
        <ele>883.637</ele>
        <time>2019-10-09T10:13:26.001Z</time>
      </trkpt>
      <trkpt lat="44.80899" lon="5.8708">
        <ele>893.417</ele>
        <time>2019-10-09T10:13:59.001Z</time>
      </trkpt>
      <trkpt lat="44.80953" lon="5.87125">
        <ele>908.541</ele>
        <time>2019-10-09T10:14:29.001Z</time>
      </trkpt>
      <trkpt lat="44.81008" lon="5.87181">
        <ele>919.885</ele>
        <time>2019-10-09T10:14:59.001Z</time>
      </trkpt>
      <trkpt lat="44.81064" lon="5.87236">
        <ele>921.605</ele>
        <time>2019-10-09T10:15:29.001Z</time>
      </trkpt>
      <trkpt lat="44.81086" lon="5.87329">
        <ele>914.644</ele>
        <time>2019-10-09T10:15:59.001Z</time>
      </trkpt>
      <trkpt lat="44.81088" lon="5.87443">
        <ele>906.573</ele>
        <time>2019-10-09T10:16:29.001Z</time>
      </trkpt>
      <trkpt lat="44.81089" lon="5.87531">
        <ele>909.775</ele>
        <time>2019-10-09T10:16:59.001Z</time>
      </trkpt>
      <trkpt lat="44.81088" lon="5.87643">
        <ele>908.373</ele>
        <time>2019-10-09T10:17:29.001Z</time>
      </trkpt>
      <trkpt lat="44.81082" lon="5.87776">
        <ele>912.608</ele>
        <time>2019-10-09T10:17:59.001Z</time>
      </trkpt>
      <trkpt lat="44.81141" lon="5.87924">
        <ele>910.097</ele>
        <time>2019-10-09T10:18:32.001Z</time>
      </trkpt>
      <trkpt lat="44.81184" lon="5.88036">
        <ele>906.545</ele>
        <time>2019-10-09T10:19:02Z</time>
      </trkpt>
      <trkpt lat="44.81219" lon="5.88173">
        <ele>906.072</ele>
        <time>2019-10-09T10:19:32.001Z</time>
      </trkpt>
      <trkpt lat="44.81184" lon="5.88318">
        <ele>906.922</ele>
        <time>2019-10-09T10:20:02Z</time>
      </trkpt>
      <trkpt lat="44.81135" lon="5.8845">
        <ele>903.138</ele>
        <time>2019-10-09T10:20:32.001Z</time>
      </trkpt>
      <trkpt lat="44.8107" lon="5.88563">
        <ele>903.524</ele>
        <time>2019-10-09T10:21:02Z</time>
      </trkpt>
      <trkpt lat="44.81006" lon="5.88685">
        <ele>904.879</ele>
        <time>2019-10-09T10:21:32.001Z</time>
      </trkpt>
      <trkpt lat="44.80958" lon="5.88821">
        <ele>903.279</ele>
        <time>2019-10-09T10:22:02Z</time>
      </trkpt>
      <trkpt lat="44.8091" lon="5.88961">
        <ele>902.327</ele>
        <time>2019-10-09T10:22:32.001Z</time>
      </trkpt>
      <trkpt lat="44.80859" lon="5.8911">
        <ele>901.162</ele>
        <time>2019-10-09T10:23:02Z</time>
      </trkpt>
      <trkpt lat="44.80806" lon="5.89257">
        <ele>902.125</ele>
        <time>2019-10-09T10:23:32.001Z</time>
      </trkpt>
      <trkpt lat="44.80762" lon="5.89384">
        <ele>903.037</ele>
        <time>2019-10-09T10:24:02Z</time>
      </trkpt>
      <trkpt lat="44.80729" lon="5.89506">
        <ele>906.275</ele>
        <time>2019-10-09T10:24:32.001Z</time>
      </trkpt>
      <trkpt lat="44.80703" lon="5.89635">
        <ele>908.51</ele>
        <time>2019-10-09T10:25:02Z</time>
      </trkpt>
      <trkpt lat="44.80679" lon="5.89767">
        <ele>910.385</ele>
        <time>2019-10-09T10:25:32.001Z</time>
      </trkpt>
      <trkpt lat="44.80653" lon="5.89904">
        <ele>911.536</ele>
        <time>2019-10-09T10:26:02Z</time>
      </trkpt>
      <trkpt lat="44.80627" lon="5.90043">
        <ele>912.832</ele>
        <time>2019-10-09T10:26:32.001Z</time>
      </trkpt>
      <trkpt lat="44.80605" lon="5.90143">
        <ele>918.796</ele>
        <time>2019-10-09T10:27:02Z</time>
      </trkpt>
      <trkpt lat="44.80575" lon="5.90216">
        <ele>923.792</ele>
        <time>2019-10-09T10:27:32.001Z</time>
      </trkpt>
      <trkpt lat="44.80535" lon="5.90277">
        <ele>924.102</ele>
        <time>2019-10-09T10:28:02Z</time>
      </trkpt>
      <trkpt lat="44.8049" lon="5.90322">
        <ele>930.782</ele>
        <time>2019-10-09T10:28:32.001Z</time>
      </trkpt>
      <trkpt lat="44.80441" lon="5.90366">
        <ele>935.42</ele>
        <time>2019-10-09T10:29:02Z</time>
      </trkpt>
      <trkpt lat="44.80391" lon="5.90412">
        <ele>937.186</ele>
        <time>2019-10-09T10:29:32.001Z</time>
      </trkpt>
      <trkpt lat="44.8034" lon="5.90461">
        <ele>940.065</ele>
        <time>2019-10-09T10:30:02Z</time>
      </trkpt>
      <trkpt lat="44.8029" lon="5.90509">
        <ele>944.916</ele>
        <time>2019-10-09T10:30:32.001Z</time>
      </trkpt>
      <trkpt lat="44.80242" lon="5.9056">
        <ele>945.554</ele>
        <time>2019-10-09T10:31:02Z</time>
      </trkpt>
      <trkpt lat="44.80186" lon="5.90617">
        <ele>946.465</ele>
        <time>2019-10-09T10:31:32.001Z</time>
      </trkpt>
      <trkpt lat="44.80128" lon="5.90674">
        <ele>946.833</ele>
        <time>2019-10-09T10:32:02Z</time>
      </trkpt>
      <trkpt lat="44.80061" lon="5.90739">
        <ele>944.697</ele>
        <time>2019-10-09T10:32:32.001Z</time>
      </trkpt>
      <trkpt lat="44.79934" lon="5.90734">
        <ele>941.817</ele>
        <time>2019-10-09T10:33:02Z</time>
      </trkpt>
      <trkpt lat="44.79783" lon="5.9067">
        <ele>932.088</ele>
        <time>2019-10-09T10:33:32.001Z</time>
      </trkpt>
      <trkpt lat="44.79725" lon="5.90806">
        <ele>927.285</ele>
        <time>2019-10-09T10:34:05.001Z</time>
      </trkpt>
      <trkpt lat="44.79686" lon="5.90774">
        <ele>929.674</ele>
        <time>2019-10-09T10:38:53.001Z</time>
      </trkpt>
      <trkpt lat="44.79685" lon="5.90772">
        <ele>925.444</ele>
        <time>2019-10-09T11:12:50.001Z</time>
      </trkpt>
      <trkpt lat="44.79709" lon="5.90856">
        <ele>927.158</ele>
        <time>2019-10-09T11:18:53.001Z</time>
      </trkpt>
      <trkpt lat="44.79666" lon="5.90989">
        <ele>929.963</ele>
        <time>2019-10-09T11:19:23.001Z</time>
      </trkpt>
      <trkpt lat="44.79592" lon="5.91049">
        <ele>929.006</ele>
        <time>2019-10-09T11:19:53.001Z</time>
      </trkpt>
      <trkpt lat="44.79497" lon="5.91038">
        <ele>931.237</ele>
        <time>2019-10-09T11:20:26.001Z</time>
      </trkpt>
      <trkpt lat="44.79401" lon="5.91026">
        <ele>932.73</ele>
        <time>2019-10-09T11:20:56.001Z</time>
      </trkpt>
      <trkpt lat="44.79302" lon="5.91013">
        <ele>931.495</ele>
        <time>2019-10-09T11:21:26.001Z</time>
      </trkpt>
      <trkpt lat="44.79203" lon="5.91001">
        <ele>932.197</ele>
        <time>2019-10-09T11:21:56.001Z</time>
      </trkpt>
      <trkpt lat="44.79101" lon="5.90988">
        <ele>934.958</ele>
        <time>2019-10-09T11:22:26.001Z</time>
      </trkpt>
      <trkpt lat="44.78985" lon="5.90967">
        <ele>936.987</ele>
        <time>2019-10-09T11:22:56.001Z</time>
      </trkpt>
      <trkpt lat="44.78879" lon="5.90947">
        <ele>936.207</ele>
        <time>2019-10-09T11:23:26.001Z</time>
      </trkpt>
      <trkpt lat="44.78777" lon="5.90928">
        <ele>936.675</ele>
        <time>2019-10-09T11:23:56.001Z</time>
      </trkpt>
      <trkpt lat="44.78683" lon="5.9091">
        <ele>937.792</ele>
        <time>2019-10-09T11:24:26.001Z</time>
      </trkpt>
      <trkpt lat="44.78584" lon="5.90893">
        <ele>939.893</ele>
        <time>2019-10-09T11:24:56.001Z</time>
      </trkpt>
      <trkpt lat="44.78484" lon="5.90874">
        <ele>940.878</ele>
        <time>2019-10-09T11:25:26.001Z</time>
      </trkpt>
      <trkpt lat="44.78389" lon="5.90855">
        <ele>942.37</ele>
        <time>2019-10-09T11:25:56.001Z</time>
      </trkpt>
      <trkpt lat="44.78295" lon="5.90839">
        <ele>945.45</ele>
        <time>2019-10-09T11:26:26.001Z</time>
      </trkpt>
      <trkpt lat="44.78195" lon="5.90819">
        <ele>946.17</ele>
        <time>2019-10-09T11:26:56.001Z</time>
      </trkpt>
      <trkpt lat="44.78102" lon="5.90801">
        <ele>947.757</ele>
        <time>2019-10-09T11:27:26.001Z</time>
      </trkpt>
      <trkpt lat="44.78009" lon="5.90784">
        <ele>949.621</ele>
        <time>2019-10-09T11:27:56.001Z</time>
      </trkpt>
      <trkpt lat="44.77913" lon="5.90766">
        <ele>950.172</ele>
        <time>2019-10-09T11:28:26.001Z</time>
      </trkpt>
      <trkpt lat="44.77815" lon="5.90747">
        <ele>950.428</ele>
        <time>2019-10-09T11:28:56.001Z</time>
      </trkpt>
      <trkpt lat="44.77719" lon="5.90731">
        <ele>950.453</ele>
        <time>2019-10-09T11:29:26.001Z</time>
      </trkpt>
      <trkpt lat="44.77624" lon="5.90712">
        <ele>953.039</ele>
        <time>2019-10-09T11:29:56.001Z</time>
      </trkpt>
      <trkpt lat="44.77528" lon="5.90689">
        <ele>953.723</ele>
        <time>2019-10-09T11:30:26.001Z</time>
      </trkpt>
      <trkpt lat="44.77438" lon="5.90666">
        <ele>952.582</ele>
        <time>2019-10-09T11:30:56.001Z</time>
      </trkpt>
      <trkpt lat="44.77422" lon="5.9054">
        <ele>956.248</ele>
        <time>2019-10-09T11:31:26.001Z</time>
      </trkpt>
      <trkpt lat="44.77397" lon="5.90396">
        <ele>961.928</ele>
        <time>2019-10-09T11:31:56.001Z</time>
      </trkpt>
      <trkpt lat="44.77433" lon="5.90251">
        <ele>969.337</ele>
        <time>2019-10-09T11:32:26.001Z</time>
      </trkpt>
      <trkpt lat="44.77467" lon="5.90097">
        <ele>978.783</ele>
        <time>2019-10-09T11:32:56.001Z</time>
      </trkpt>
      <trkpt lat="44.77523" lon="5.89956">
        <ele>980.366</ele>
        <time>2019-10-09T11:33:26.001Z</time>
      </trkpt>
      <trkpt lat="44.77604" lon="5.89894">
        <ele>978.194</ele>
        <time>2019-10-09T11:33:56.001Z</time>
      </trkpt>
      <trkpt lat="44.77575" lon="5.89804">
        <ele>986.32</ele>
        <time>2019-10-09T11:34:26.001Z</time>
      </trkpt>
      <trkpt lat="44.77505" lon="5.89797">
        <ele>971.921</ele>
        <time>2019-10-09T11:34:56.001Z</time>
      </trkpt>
      <trkpt lat="44.77443" lon="5.89845">
        <ele>979.503</ele>
        <time>2019-10-09T11:35:26.001Z</time>
      </trkpt>
      <trkpt lat="44.7737" lon="5.89873">
        <ele>979.426</ele>
        <time>2019-10-09T11:35:56.001Z</time>
      </trkpt>
      <trkpt lat="44.77283" lon="5.89873">
        <ele>975.653</ele>
        <time>2019-10-09T11:36:26.001Z</time>
      </trkpt>
      <trkpt lat="44.77207" lon="5.89931">
        <ele>974.663</ele>
        <time>2019-10-09T11:36:56.001Z</time>
      </trkpt>
      <trkpt lat="44.77132" lon="5.89953">
        <ele>978.646</ele>
        <time>2019-10-09T11:37:26.001Z</time>
      </trkpt>
      <trkpt lat="44.77063" lon="5.89901">
        <ele>977.451</ele>
        <time>2019-10-09T11:37:56.001Z</time>
      </trkpt>
      <trkpt lat="44.77035" lon="5.89805">
        <ele>982.51</ele>
        <time>2019-10-09T11:38:29.001Z</time>
      </trkpt>
      <trkpt lat="44.77036" lon="5.89693">
        <ele>987.358</ele>
        <time>2019-10-09T11:38:59.001Z</time>
      </trkpt>
      <trkpt lat="44.7699" lon="5.89597">
        <ele>986.218</ele>
        <time>2019-10-09T11:39:29.001Z</time>
      </trkpt>
      <trkpt lat="44.76935" lon="5.89524">
        <ele>986.957</ele>
        <time>2019-10-09T11:39:59.001Z</time>
      </trkpt>
      <trkpt lat="44.76893" lon="5.89418">
        <ele>990.34</ele>
        <time>2019-10-09T11:40:29.001Z</time>
      </trkpt>
      <trkpt lat="44.76775" lon="5.8941">
        <ele>991.475</ele>
        <time>2019-10-09T11:40:59.001Z</time>
      </trkpt>
      <trkpt lat="44.76678" lon="5.89335">
        <ele>996.006</ele>
        <time>2019-10-09T11:41:29.001Z</time>
      </trkpt>
      <trkpt lat="44.76509" lon="5.89174">
        <ele>986.956</ele>
        <time>2019-10-09T11:41:59.001Z</time>
      </trkpt>
      <trkpt lat="44.76324" lon="5.88945">
        <ele>986.116</ele>
        <time>2019-10-09T11:42:29.001Z</time>
      </trkpt>
      <trkpt lat="44.76187" lon="5.88719">
        <ele>970.31</ele>
        <time>2019-10-09T11:42:59.001Z</time>
      </trkpt>
      <trkpt lat="44.76023" lon="5.88521">
        <ele>959.096</ele>
        <time>2019-10-09T11:43:29.001Z</time>
      </trkpt>
      <trkpt lat="44.75767" lon="5.88461">
        <ele>944.651</ele>
        <time>2019-10-09T11:43:59.001Z</time>
      </trkpt>
      <trkpt lat="44.75546" lon="5.88493">
        <ele>934.214</ele>
        <time>2019-10-09T11:44:29.001Z</time>
      </trkpt>
      <trkpt lat="44.7534" lon="5.88374">
        <ele>929.565</ele>
        <time>2019-10-09T11:44:59.001Z</time>
      </trkpt>
      <trkpt lat="44.75117" lon="5.88357">
        <ele>918.132</ele>
        <time>2019-10-09T11:45:29.001Z</time>
      </trkpt>
      <trkpt lat="44.75031" lon="5.88508">
        <ele>913.342</ele>
        <time>2019-10-09T11:45:59.001Z</time>
      </trkpt>
      <trkpt lat="44.74953" lon="5.88497">
        <ele>917.855</ele>
        <time>2019-10-09T11:46:35.001Z</time>
      </trkpt>
      <trkpt lat="44.74895" lon="5.8852">
        <ele>929.159</ele>
        <time>2019-10-09T11:47:05.001Z</time>
      </trkpt>
      <trkpt lat="44.74837" lon="5.88523">
        <ele>941.255</ele>
        <time>2019-10-09T11:47:38.001Z</time>
      </trkpt>
      <trkpt lat="44.74783" lon="5.88531">
        <ele>941.288</ele>
        <time>2019-10-09T11:48:08.001Z</time>
      </trkpt>
      <trkpt lat="44.74736" lon="5.88566">
        <ele>933.946</ele>
        <time>2019-10-09T11:48:38.001Z</time>
      </trkpt>
      <trkpt lat="44.747" lon="5.88619">
        <ele>939.265</ele>
        <time>2019-10-09T11:49:11.001Z</time>
      </trkpt>
      <trkpt lat="44.74651" lon="5.88681">
        <ele>961.677</ele>
        <time>2019-10-09T11:49:53.001Z</time>
      </trkpt>
      <trkpt lat="44.74609" lon="5.88719">
        <ele>964.978</ele>
        <time>2019-10-09T11:50:26.001Z</time>
      </trkpt>
      <trkpt lat="44.74572" lon="5.88777">
        <ele>967.822</ele>
        <time>2019-10-09T11:50:59.001Z</time>
      </trkpt>
      <trkpt lat="44.74506" lon="5.88799">
        <ele>974.637</ele>
        <time>2019-10-09T11:51:44.001Z</time>
      </trkpt>
      <trkpt lat="44.74458" lon="5.88828">
        <ele>972.149</ele>
        <time>2019-10-09T11:52:14.001Z</time>
      </trkpt>
      <trkpt lat="44.74426" lon="5.88897">
        <ele>969.964</ele>
        <time>2019-10-09T11:52:47.001Z</time>
      </trkpt>
      <trkpt lat="44.74407" lon="5.88983">
        <ele>977.245</ele>
        <time>2019-10-09T11:53:20.001Z</time>
      </trkpt>
      <trkpt lat="44.74369" lon="5.89037">
        <ele>980.962</ele>
        <time>2019-10-09T11:53:50.001Z</time>
      </trkpt>
      <trkpt lat="44.74317" lon="5.89063">
        <ele>994.676</ele>
        <time>2019-10-09T11:54:20.001Z</time>
      </trkpt>
      <trkpt lat="44.74269" lon="5.89054">
        <ele>993.766</ele>
        <time>2019-10-09T11:54:50.001Z</time>
      </trkpt>
      <trkpt lat="44.74218" lon="5.89086">
        <ele>994.222</ele>
        <time>2019-10-09T11:55:20.001Z</time>
      </trkpt>
      <trkpt lat="44.74171" lon="5.89119">
        <ele>1007.364</ele>
        <time>2019-10-09T11:55:50.001Z</time>
      </trkpt>
      <trkpt lat="44.7412" lon="5.89142">
        <ele>1008.095</ele>
        <time>2019-10-09T11:56:20.001Z</time>
      </trkpt>
      <trkpt lat="44.74068" lon="5.89169">
        <ele>1005.558</ele>
        <time>2019-10-09T11:56:50.001Z</time>
      </trkpt>
      <trkpt lat="44.74" lon="5.89196">
        <ele>1011.165</ele>
        <time>2019-10-09T11:57:23.001Z</time>
      </trkpt>
      <trkpt lat="44.73936" lon="5.89203">
        <ele>991.238</ele>
        <time>2019-10-09T11:57:59.001Z</time>
      </trkpt>
      <trkpt lat="44.73882" lon="5.89197">
        <ele>1002.243</ele>
        <time>2019-10-09T11:58:29.001Z</time>
      </trkpt>
      <trkpt lat="44.7383" lon="5.89143">
        <ele>1009.702</ele>
        <time>2019-10-09T11:59:02Z</time>
      </trkpt>
      <trkpt lat="44.73766" lon="5.89132">
        <ele>1023.162</ele>
        <time>2019-10-09T11:59:32.001Z</time>
      </trkpt>
      <trkpt lat="44.73717" lon="5.89203">
        <ele>1026.133</ele>
        <time>2019-10-09T12:00:02Z</time>
      </trkpt>
      <trkpt lat="44.73681" lon="5.89282">
        <ele>1025.639</ele>
        <time>2019-10-09T12:00:32.001Z</time>
      </trkpt>
      <trkpt lat="44.73645" lon="5.89359">
        <ele>1026.169</ele>
        <time>2019-10-09T12:01:02Z</time>
      </trkpt>
      <trkpt lat="44.73638" lon="5.89447">
        <ele>1026.488</ele>
        <time>2019-10-09T12:01:32.001Z</time>
      </trkpt>
      <trkpt lat="44.73589" lon="5.89465">
        <ele>1029.461</ele>
        <time>2019-10-09T12:02:05.001Z</time>
      </trkpt>
      <trkpt lat="44.7353" lon="5.89442">
        <ele>1034.488</ele>
        <time>2019-10-09T12:02:35.001Z</time>
      </trkpt>
      <trkpt lat="44.73464" lon="5.89474">
        <ele>1041.01</ele>
        <time>2019-10-09T12:03:08.001Z</time>
      </trkpt>
      <trkpt lat="44.73422" lon="5.89552">
        <ele>1040.398</ele>
        <time>2019-10-09T12:03:38.001Z</time>
      </trkpt>
      <trkpt lat="44.73365" lon="5.89568">
        <ele>1042.725</ele>
        <time>2019-10-09T12:04:08.001Z</time>
      </trkpt>
      <trkpt lat="44.73304" lon="5.8954">
        <ele>1047.304</ele>
        <time>2019-10-09T12:04:38.001Z</time>
      </trkpt>
      <trkpt lat="44.73251" lon="5.89592">
        <ele>1050.945</ele>
        <time>2019-10-09T12:05:08.001Z</time>
      </trkpt>
      <trkpt lat="44.73198" lon="5.8962">
        <ele>1051.262</ele>
        <time>2019-10-09T12:05:38.001Z</time>
      </trkpt>
      <trkpt lat="44.73177" lon="5.89627">
        <ele>1051.642</ele>
        <time>2019-10-09T12:11:53.001Z</time>
      </trkpt>
      <trkpt lat="44.73117" lon="5.89639">
        <ele>1056.183</ele>
        <time>2019-10-09T12:12:23.001Z</time>
      </trkpt>
      <trkpt lat="44.73056" lon="5.89655">
        <ele>1056.768</ele>
        <time>2019-10-09T12:12:53.001Z</time>
      </trkpt>
      <trkpt lat="44.72995" lon="5.89689">
        <ele>1065.875</ele>
        <time>2019-10-09T12:13:26.001Z</time>
      </trkpt>
      <trkpt lat="44.72935" lon="5.89726">
        <ele>1064.637</ele>
        <time>2019-10-09T12:13:56.001Z</time>
      </trkpt>
      <trkpt lat="44.72872" lon="5.89732">
        <ele>1067.871</ele>
        <time>2019-10-09T12:14:26.001Z</time>
      </trkpt>
      <trkpt lat="44.72812" lon="5.89743">
        <ele>1075.487</ele>
        <time>2019-10-09T12:14:56.001Z</time>
      </trkpt>
      <trkpt lat="44.72751" lon="5.89739">
        <ele>1080.426</ele>
        <time>2019-10-09T12:15:29.001Z</time>
      </trkpt>
      <trkpt lat="44.72685" lon="5.89742">
        <ele>1084.449</ele>
        <time>2019-10-09T12:15:59.001Z</time>
      </trkpt>
      <trkpt lat="44.72619" lon="5.89727">
        <ele>1094.139</ele>
        <time>2019-10-09T12:16:32.001Z</time>
      </trkpt>
      <trkpt lat="44.72555" lon="5.89704">
        <ele>1098.882</ele>
        <time>2019-10-09T12:17:02Z</time>
      </trkpt>
      <trkpt lat="44.7249" lon="5.89677">
        <ele>1101.423</ele>
        <time>2019-10-09T12:17:35.001Z</time>
      </trkpt>
      <trkpt lat="44.72416" lon="5.89637">
        <ele>1090.249</ele>
        <time>2019-10-09T12:18:05.001Z</time>
      </trkpt>
      <trkpt lat="44.7235" lon="5.89586">
        <ele>1084.554</ele>
        <time>2019-10-09T12:18:35.001Z</time>
      </trkpt>
      <trkpt lat="44.72292" lon="5.89532">
        <ele>1085.523</ele>
        <time>2019-10-09T12:19:05.001Z</time>
      </trkpt>
      <trkpt lat="44.72248" lon="5.89451">
        <ele>1090.667</ele>
        <time>2019-10-09T12:19:35.001Z</time>
      </trkpt>
      <trkpt lat="44.72202" lon="5.89357">
        <ele>1091.298</ele>
        <time>2019-10-09T12:20:05.001Z</time>
      </trkpt>
      <trkpt lat="44.72133" lon="5.89292">
        <ele>1092.088</ele>
        <time>2019-10-09T12:20:35.001Z</time>
      </trkpt>
      <trkpt lat="44.7206" lon="5.89213">
        <ele>1094.22</ele>
        <time>2019-10-09T12:21:05.001Z</time>
      </trkpt>
      <trkpt lat="44.72" lon="5.89133">
        <ele>1100.323</ele>
        <time>2019-10-09T12:21:35.001Z</time>
      </trkpt>
      <trkpt lat="44.71959" lon="5.8905">
        <ele>1104.608</ele>
        <time>2019-10-09T12:22:05.001Z</time>
      </trkpt>
      <trkpt lat="44.71908" lon="5.88967">
        <ele>1111.55</ele>
        <time>2019-10-09T12:22:38.001Z</time>
      </trkpt>
      <trkpt lat="44.7187" lon="5.88878">
        <ele>1110.897</ele>
        <time>2019-10-09T12:23:08.001Z</time>
      </trkpt>
      <trkpt lat="44.71829" lon="5.8883">
        <ele>1109.67</ele>
        <time>2019-10-09T12:23:38.001Z</time>
      </trkpt>
      <trkpt lat="44.71774" lon="5.88813">
        <ele>1110.915</ele>
        <time>2019-10-09T12:24:08.001Z</time>
      </trkpt>
      <trkpt lat="44.71729" lon="5.88773">
        <ele>1114.929</ele>
        <time>2019-10-09T12:24:38.001Z</time>
      </trkpt>
      <trkpt lat="44.71677" lon="5.88734">
        <ele>1118.815</ele>
        <time>2019-10-09T12:25:08.001Z</time>
      </trkpt>
      <trkpt lat="44.71624" lon="5.88732">
        <ele>1122.272</ele>
        <time>2019-10-09T12:25:38.001Z</time>
      </trkpt>
      <trkpt lat="44.71566" lon="5.88734">
        <ele>1127.371</ele>
        <time>2019-10-09T12:26:08.001Z</time>
      </trkpt>
      <trkpt lat="44.71517" lon="5.88693">
        <ele>1127.294</ele>
        <time>2019-10-09T12:26:38.001Z</time>
      </trkpt>
      <trkpt lat="44.71464" lon="5.88666">
        <ele>1129.665</ele>
        <time>2019-10-09T12:27:08.001Z</time>
      </trkpt>
      <trkpt lat="44.71426" lon="5.88656">
        <ele>1138.814</ele>
        <time>2019-10-09T12:30:11.001Z</time>
      </trkpt>
      <trkpt lat="44.7138" lon="5.88607">
        <ele>1141.191</ele>
        <time>2019-10-09T12:30:41.001Z</time>
      </trkpt>
      <trkpt lat="44.71378" lon="5.88639">
        <ele>1145.453</ele>
        <time>2019-10-09T12:31:17.001Z</time>
      </trkpt>
      <trkpt lat="44.71407" lon="5.88711">
        <ele>1153.077</ele>
        <time>2019-10-09T12:31:50.001Z</time>
      </trkpt>
      <trkpt lat="44.71441" lon="5.88795">
        <ele>1173.31</ele>
        <time>2019-10-09T12:32:38.001Z</time>
      </trkpt>
      <trkpt lat="44.71459" lon="5.88868">
        <ele>1189.719</ele>
        <time>2019-10-09T12:33:17.001Z</time>
      </trkpt>
      <trkpt lat="44.71434" lon="5.88952">
        <ele>1177.494</ele>
        <time>2019-10-09T12:33:53.001Z</time>
      </trkpt>
      <trkpt lat="44.71404" lon="5.89014">
        <ele>1175.467</ele>
        <time>2019-10-09T12:34:26.001Z</time>
      </trkpt>
      <trkpt lat="44.71363" lon="5.89063">
        <ele>1181.84</ele>
        <time>2019-10-09T12:35:02Z</time>
      </trkpt>
      <trkpt lat="44.71301" lon="5.89069">
        <ele>1180.308</ele>
        <time>2019-10-09T12:35:38.001Z</time>
      </trkpt>
      <trkpt lat="44.71258" lon="5.89098">
        <ele>1179.656</ele>
        <time>2019-10-09T12:36:08.001Z</time>
      </trkpt>
      <trkpt lat="44.71205" lon="5.89119">
        <ele>1190.828</ele>
        <time>2019-10-09T12:36:44.001Z</time>
      </trkpt>
      <trkpt lat="44.71142" lon="5.89131">
        <ele>1191.511</ele>
        <time>2019-10-09T12:37:26.001Z</time>
      </trkpt>
      <trkpt lat="44.71083" lon="5.8915">
        <ele>1197.386</ele>
        <time>2019-10-09T12:38:05.001Z</time>
      </trkpt>
      <trkpt lat="44.71012" lon="5.89135">
        <ele>1205.139</ele>
        <time>2019-10-09T12:38:53.001Z</time>
      </trkpt>
      <trkpt lat="44.70952" lon="5.89127">
        <ele>1210.613</ele>
        <time>2019-10-09T12:39:32.001Z</time>
      </trkpt>
      <trkpt lat="44.70882" lon="5.89106">
        <ele>1218.598</ele>
        <time>2019-10-09T12:40:20.001Z</time>
      </trkpt>
      <trkpt lat="44.70822" lon="5.8906">
        <ele>1220.227</ele>
        <time>2019-10-09T12:41:02Z</time>
      </trkpt>
      <trkpt lat="44.70776" lon="5.89003">
        <ele>1226.11</ele>
        <time>2019-10-09T12:41:41.001Z</time>
      </trkpt>
      <trkpt lat="44.70716" lon="5.88977">
        <ele>1233.281</ele>
        <time>2019-10-09T12:42:23.001Z</time>
      </trkpt>
      <trkpt lat="44.70667" lon="5.88935">
        <ele>1234.423</ele>
        <time>2019-10-09T12:42:56.001Z</time>
      </trkpt>
      <trkpt lat="44.70637" lon="5.88856">
        <ele>1232.807</ele>
        <time>2019-10-09T12:43:26.001Z</time>
      </trkpt>
      <trkpt lat="44.70596" lon="5.88787">
        <ele>1231.537</ele>
        <time>2019-10-09T12:43:56.001Z</time>
      </trkpt>
      <trkpt lat="44.70551" lon="5.88715">
        <ele>1227.911</ele>
        <time>2019-10-09T12:44:26.001Z</time>
      </trkpt>
      <trkpt lat="44.705" lon="5.88628">
        <ele>1223.914</ele>
        <time>2019-10-09T12:44:56.001Z</time>
      </trkpt>
      <trkpt lat="44.7046" lon="5.88537">
        <ele>1227.514</ele>
        <time>2019-10-09T12:45:26.001Z</time>
      </trkpt>
      <trkpt lat="44.70401" lon="5.8846">
        <ele>1226.761</ele>
        <time>2019-10-09T12:45:56.001Z</time>
      </trkpt>
      <trkpt lat="44.70324" lon="5.8842">
        <ele>1232.959</ele>
        <time>2019-10-09T12:46:29.001Z</time>
      </trkpt>
      <trkpt lat="44.70245" lon="5.8838">
        <ele>1231.281</ele>
        <time>2019-10-09T12:46:59.001Z</time>
      </trkpt>
      <trkpt lat="44.70171" lon="5.88365">
        <ele>1239.583</ele>
        <time>2019-10-09T12:47:29.001Z</time>
      </trkpt>
      <trkpt lat="44.70096" lon="5.88338">
        <ele>1245.696</ele>
        <time>2019-10-09T12:47:59.001Z</time>
      </trkpt>
      <trkpt lat="44.7001" lon="5.88288">
        <ele>1240.812</ele>
        <time>2019-10-09T12:48:29.001Z</time>
      </trkpt>
      <trkpt lat="44.69927" lon="5.88232">
        <ele>1235.734</ele>
        <time>2019-10-09T12:48:59.001Z</time>
      </trkpt>
      <trkpt lat="44.69844" lon="5.88175">
        <ele>1234.175</ele>
        <time>2019-10-09T12:49:29.001Z</time>
      </trkpt>
      <trkpt lat="44.69759" lon="5.88126">
        <ele>1238.631</ele>
        <time>2019-10-09T12:49:59.001Z</time>
      </trkpt>
      <trkpt lat="44.69676" lon="5.88104">
        <ele>1245.457</ele>
        <time>2019-10-09T12:50:29.001Z</time>
      </trkpt>
      <trkpt lat="44.69589" lon="5.88098">
        <ele>1247.392</ele>
        <time>2019-10-09T12:50:59.001Z</time>
      </trkpt>
      <trkpt lat="44.6952" lon="5.88098">
        <ele>1253.819</ele>
        <time>2019-10-09T12:51:29.001Z</time>
      </trkpt>
      <trkpt lat="44.69512" lon="5.88165">
        <ele>1253.087</ele>
        <time>2019-10-09T12:51:59.001Z</time>
      </trkpt>
      <trkpt lat="44.6956" lon="5.88223">
        <ele>1243.297</ele>
        <time>2019-10-09T12:52:29.001Z</time>
      </trkpt>
      <trkpt lat="44.69502" lon="5.88234">
        <ele>1251.205</ele>
        <time>2019-10-09T12:53:08.001Z</time>
      </trkpt>
      <trkpt lat="44.69434" lon="5.88207">
        <ele>1260.96</ele>
        <time>2019-10-09T12:53:47.001Z</time>
      </trkpt>
      <trkpt lat="44.69376" lon="5.88163">
        <ele>1265.425</ele>
        <time>2019-10-09T12:54:17.001Z</time>
      </trkpt>
      <trkpt lat="44.69349" lon="5.8814">
        <ele>1266.16</ele>
        <time>2019-10-09T12:56:41.001Z</time>
      </trkpt>
      <trkpt lat="44.69357" lon="5.8815">
        <ele>1262.341</ele>
        <time>2019-10-09T12:57:29.001Z</time>
      </trkpt>
      <trkpt lat="44.69362" lon="5.88191">
        <ele>1261.398</ele>
        <time>2019-10-09T12:58:02Z</time>
      </trkpt>
      <trkpt lat="44.69363" lon="5.88204">
        <ele>1258.983</ele>
        <time>2019-10-09T12:58:32.001Z</time>
      </trkpt>
      <trkpt lat="44.69359" lon="5.88174">
        <ele>1252.149</ele>
        <time>2019-10-09T12:59:11.001Z</time>
      </trkpt>
      <trkpt lat="44.69356" lon="5.88159">
        <ele>1254.12</ele>
        <time>2019-10-09T12:59:44.001Z</time>
      </trkpt>
      <trkpt lat="44.69356" lon="5.88153">
        <ele>1257.486</ele>
        <time>2019-10-09T13:00:17.001Z</time>
      </trkpt>
      <trkpt lat="44.69345" lon="5.88185">
        <ele>1261.644</ele>
        <time>2019-10-09T13:01:11.001Z</time>
      </trkpt>
      <trkpt lat="44.69364" lon="5.88187">
        <ele>1256.392</ele>
        <time>2019-10-09T13:07:14.001Z</time>
      </trkpt>
      <trkpt lat="44.69346" lon="5.88148">
        <ele>1254.335</ele>
        <time>2019-10-09T13:09:52.001Z</time>
      </trkpt>
      <trkpt lat="44.69276" lon="5.88085">
        <ele>1255.276</ele>
        <time>2019-10-09T13:12:31.001Z</time>
      </trkpt>
      <trkpt lat="44.6919" lon="5.87992">
        <ele>1254.324</ele>
        <time>2019-10-09T13:13:01.001Z</time>
      </trkpt>
      <trkpt lat="44.6911" lon="5.87916">
        <ele>1256.631</ele>
        <time>2019-10-09T13:13:31.001Z</time>
      </trkpt>
      <trkpt lat="44.69048" lon="5.87868">
        <ele>1264.312</ele>
        <time>2019-10-09T13:14:01.001Z</time>
      </trkpt>
      <trkpt lat="44.68997" lon="5.87826">
        <ele>1267.703</ele>
        <time>2019-10-09T13:14:31.001Z</time>
      </trkpt>
      <trkpt lat="44.68943" lon="5.87783">
        <ele>1269.394</ele>
        <time>2019-10-09T13:15:01.001Z</time>
      </trkpt>
      <trkpt lat="44.68885" lon="5.87753">
        <ele>1272.905</ele>
        <time>2019-10-09T13:15:31.001Z</time>
      </trkpt>
      <trkpt lat="44.68826" lon="5.87735">
        <ele>1276.008</ele>
        <time>2019-10-09T13:16:01.001Z</time>
      </trkpt>
      <trkpt lat="44.6878" lon="5.87697">
        <ele>1279.579</ele>
        <time>2019-10-09T13:16:31.001Z</time>
      </trkpt>
      <trkpt lat="44.68705" lon="5.87637">
        <ele>1280.546</ele>
        <time>2019-10-09T13:17:01.001Z</time>
      </trkpt>
      <trkpt lat="44.6863" lon="5.87591">
        <ele>1282.871</ele>
        <time>2019-10-09T13:17:31.001Z</time>
      </trkpt>
      <trkpt lat="44.68562" lon="5.87522">
        <ele>1281.201</ele>
        <time>2019-10-09T13:18:04.001Z</time>
      </trkpt>
      <trkpt lat="44.68491" lon="5.87491">
        <ele>1282.638</ele>
        <time>2019-10-09T13:18:34.001Z</time>
      </trkpt>
      <trkpt lat="44.68428" lon="5.87459">
        <ele>1288.773</ele>
        <time>2019-10-09T13:19:04.001Z</time>
      </trkpt>
      <trkpt lat="44.68367" lon="5.87426">
        <ele>1292.247</ele>
        <time>2019-10-09T13:19:34.001Z</time>
      </trkpt>
      <trkpt lat="44.68313" lon="5.87395">
        <ele>1295.575</ele>
        <time>2019-10-09T13:20:04.001Z</time>
      </trkpt>
      <trkpt lat="44.68258" lon="5.87349">
        <ele>1297.003</ele>
        <time>2019-10-09T13:20:34.001Z</time>
      </trkpt>
      <trkpt lat="44.68203" lon="5.87288">
        <ele>1302.689</ele>
        <time>2019-10-09T13:21:04.001Z</time>
      </trkpt>
      <trkpt lat="44.68139" lon="5.87244">
        <ele>1303.776</ele>
        <time>2019-10-09T13:21:34.001Z</time>
      </trkpt>
      <trkpt lat="44.68085" lon="5.87202">
        <ele>1303.888</ele>
        <time>2019-10-09T13:22:04.001Z</time>
      </trkpt>
      <trkpt lat="44.68032" lon="5.87161">
        <ele>1306.648</ele>
        <time>2019-10-09T13:22:40.001Z</time>
      </trkpt>
      <trkpt lat="44.67989" lon="5.87124">
        <ele>1307.503</ele>
        <time>2019-10-09T13:23:10.001Z</time>
      </trkpt>
      <trkpt lat="44.67946" lon="5.87075">
        <ele>1313.313</ele>
        <time>2019-10-09T13:23:46.001Z</time>
      </trkpt>
      <trkpt lat="44.67893" lon="5.87049">
        <ele>1317.295</ele>
        <time>2019-10-09T13:24:25.001Z</time>
      </trkpt>
      <trkpt lat="44.6784" lon="5.8703">
        <ele>1318.763</ele>
        <time>2019-10-09T13:24:58.001Z</time>
      </trkpt>
      <trkpt lat="44.67792" lon="5.86985">
        <ele>1316.103</ele>
        <time>2019-10-09T13:25:31.001Z</time>
      </trkpt>
      <trkpt lat="44.67746" lon="5.86936">
        <ele>1323.732</ele>
        <time>2019-10-09T13:26:07.001Z</time>
      </trkpt>
      <trkpt lat="44.67713" lon="5.86874">
        <ele>1328.057</ele>
        <time>2019-10-09T13:26:40.001Z</time>
      </trkpt>
      <trkpt lat="44.67683" lon="5.86811">
        <ele>1330.267</ele>
        <time>2019-10-09T13:27:10.001Z</time>
      </trkpt>
      <trkpt lat="44.67652" lon="5.86747">
        <ele>1334.769</ele>
        <time>2019-10-09T13:27:43.001Z</time>
      </trkpt>
      <trkpt lat="44.67597" lon="5.86731">
        <ele>1341.176</ele>
        <time>2019-10-09T13:28:22.001Z</time>
      </trkpt>
      <trkpt lat="44.67547" lon="5.86753">
        <ele>1344.708</ele>
        <time>2019-10-09T13:28:52.001Z</time>
      </trkpt>
      <trkpt lat="44.67495" lon="5.86761">
        <ele>1344.528</ele>
        <time>2019-10-09T13:29:22.001Z</time>
      </trkpt>
      <trkpt lat="44.67443" lon="5.86758">
        <ele>1347.24</ele>
        <time>2019-10-09T13:29:52.001Z</time>
      </trkpt>
      <trkpt lat="44.67386" lon="5.86739">
        <ele>1350.084</ele>
        <time>2019-10-09T13:30:25.001Z</time>
      </trkpt>
      <trkpt lat="44.67317" lon="5.86714">
        <ele>1357.43</ele>
        <time>2019-10-09T13:31:10.001Z</time>
      </trkpt>
      <trkpt lat="44.67257" lon="5.86703">
        <ele>1360.482</ele>
        <time>2019-10-09T13:31:46.001Z</time>
      </trkpt>
      <trkpt lat="44.67203" lon="5.86679">
        <ele>1371.356</ele>
        <time>2019-10-09T13:32:19.001Z</time>
      </trkpt>
      <trkpt lat="44.67157" lon="5.86643">
        <ele>1378.275</ele>
        <time>2019-10-09T13:32:49.001Z</time>
      </trkpt>
      <trkpt lat="44.67125" lon="5.86579">
        <ele>1376.439</ele>
        <time>2019-10-09T13:33:19.001Z</time>
      </trkpt>
      <trkpt lat="44.67078" lon="5.86528">
        <ele>1376.791</ele>
        <time>2019-10-09T13:33:58.001Z</time>
      </trkpt>
      <trkpt lat="44.67021" lon="5.8648">
        <ele>1385.39</ele>
        <time>2019-10-09T13:34:40.001Z</time>
      </trkpt>
      <trkpt lat="44.66982" lon="5.86434">
        <ele>1391.367</ele>
        <time>2019-10-09T13:40:19.001Z</time>
      </trkpt>
      <trkpt lat="44.66931" lon="5.86421">
        <ele>1393.525</ele>
        <time>2019-10-09T13:40:49.001Z</time>
      </trkpt>
      <trkpt lat="44.66881" lon="5.86404">
        <ele>1401.161</ele>
        <time>2019-10-09T13:41:19.001Z</time>
      </trkpt>
      <trkpt lat="44.66835" lon="5.86365">
        <ele>1410.05</ele>
        <time>2019-10-09T13:41:52.001Z</time>
      </trkpt>
      <trkpt lat="44.66804" lon="5.86286">
        <ele>1420.217</ele>
        <time>2019-10-09T13:42:34.001Z</time>
      </trkpt>
      <trkpt lat="44.66787" lon="5.86195">
        <ele>1414.687</ele>
        <time>2019-10-09T13:43:13.001Z</time>
      </trkpt>
      <trkpt lat="44.66823" lon="5.86133">
        <ele>1414.753</ele>
        <time>2019-10-09T13:43:46.001Z</time>
      </trkpt>
      <trkpt lat="44.66834" lon="5.86062">
        <ele>1418.862</ele>
        <time>2019-10-09T13:44:16Z</time>
      </trkpt>
      <trkpt lat="44.6684" lon="5.85992">
        <ele>1426.414</ele>
        <time>2019-10-09T13:44:49.001Z</time>
      </trkpt>
      <trkpt lat="44.66812" lon="5.85926">
        <ele>1428.488</ele>
        <time>2019-10-09T13:45:19.001Z</time>
      </trkpt>
      <trkpt lat="44.66773" lon="5.85851">
        <ele>1428.622</ele>
        <time>2019-10-09T13:45:49.001Z</time>
      </trkpt>
      <trkpt lat="44.66724" lon="5.85796">
        <ele>1432.397</ele>
        <time>2019-10-09T13:46:19.001Z</time>
      </trkpt>
      <trkpt lat="44.66657" lon="5.85791">
        <ele>1433.015</ele>
        <time>2019-10-09T13:46:49.001Z</time>
      </trkpt>
      <trkpt lat="44.66656" lon="5.85789">
        <ele>1434.708</ele>
        <time>2019-10-09T13:51:16Z</time>
      </trkpt>
      <trkpt lat="44.66623" lon="5.85716">
        <ele>1431.739</ele>
        <time>2019-10-09T13:53:43.001Z</time>
      </trkpt>
      <trkpt lat="44.666" lon="5.85589">
        <ele>1436.72</ele>
        <time>2019-10-09T13:54:13.001Z</time>
      </trkpt>
      <trkpt lat="44.66527" lon="5.85532">
        <ele>1441.431</ele>
        <time>2019-10-09T13:54:43.001Z</time>
      </trkpt>
      <trkpt lat="44.66351" lon="5.85435">
        <ele>1435.398</ele>
        <time>2019-10-09T13:55:13.001Z</time>
      </trkpt>
      <trkpt lat="44.661" lon="5.85445">
        <ele>1418.951</ele>
        <time>2019-10-09T13:55:43.001Z</time>
      </trkpt>
      <trkpt lat="44.65818" lon="5.8549">
        <ele>1401.767</ele>
        <time>2019-10-09T13:56:13.001Z</time>
      </trkpt>
      <trkpt lat="44.65475" lon="5.8562">
        <ele>1371.721</ele>
        <time>2019-10-09T13:56:43.001Z</time>
      </trkpt>
      <trkpt lat="44.65144" lon="5.85549">
        <ele>1349.628</ele>
        <time>2019-10-09T13:57:13.001Z</time>
      </trkpt>
      <trkpt lat="44.6482" lon="5.85359">
        <ele>1317.877</ele>
        <time>2019-10-09T13:57:43.001Z</time>
      </trkpt>
      <trkpt lat="44.64458" lon="5.85243">
        <ele>1294.237</ele>
        <time>2019-10-09T13:58:13.001Z</time>
      </trkpt>
      <trkpt lat="44.64235" lon="5.85061">
        <ele>1259.031</ele>
        <time>2019-10-09T13:58:43.001Z</time>
      </trkpt>
      <trkpt lat="44.64232" lon="5.85224">
        <ele>1220.118</ele>
        <time>2019-10-09T13:59:13.001Z</time>
      </trkpt>
      <trkpt lat="44.64" lon="5.84981">
        <ele>1184.407</ele>
        <time>2019-10-09T13:59:43.001Z</time>
      </trkpt>
      <trkpt lat="44.63709" lon="5.85089">
        <ele>1165.873</ele>
        <time>2019-10-09T14:00:13.001Z</time>
      </trkpt>
      <trkpt lat="44.63467" lon="5.85052">
        <ele>1167.059</ele>
        <time>2019-10-09T14:00:43.001Z</time>
      </trkpt>
      <trkpt lat="44.63389" lon="5.8505">
        <ele>1173.325</ele>
        <time>2019-10-09T14:01:43.001Z</time>
      </trkpt>
      <trkpt lat="44.6327" lon="5.85031">
        <ele>1171.672</ele>
        <time>2019-10-09T14:02:13.001Z</time>
      </trkpt>
      <trkpt lat="44.62982" lon="5.8507">
        <ele>1141.767</ele>
        <time>2019-10-09T14:02:43.001Z</time>
      </trkpt>
      <trkpt lat="44.62686" lon="5.85197">
        <ele>1122.829</ele>
        <time>2019-10-09T14:03:13.001Z</time>
      </trkpt>
      <trkpt lat="44.6237" lon="5.85316">
        <ele>1117.012</ele>
        <time>2019-10-09T14:03:43.001Z</time>
      </trkpt>
      <trkpt lat="44.62099" lon="5.85457">
        <ele>1101.829</ele>
        <time>2019-10-09T14:04:13.001Z</time>
      </trkpt>
      <trkpt lat="44.61809" lon="5.85566">
        <ele>1089.587</ele>
        <time>2019-10-09T14:04:43.001Z</time>
      </trkpt>
      <trkpt lat="44.61552" lon="5.8567">
        <ele>1081.814</ele>
        <time>2019-10-09T14:05:13.001Z</time>
      </trkpt>
      <trkpt lat="44.61409" lon="5.85663">
        <ele>1089.339</ele>
        <time>2019-10-09T14:05:43.001Z</time>
      </trkpt>
      <trkpt lat="44.61251" lon="5.85796">
        <ele>1078.185</ele>
        <time>2019-10-09T14:06:13.001Z</time>
      </trkpt>
      <trkpt lat="44.61026" lon="5.85802">
        <ele>1059.911</ele>
        <time>2019-10-09T14:06:43.001Z</time>
      </trkpt>
      <trkpt lat="44.60654" lon="5.8575">
        <ele>1054.667</ele>
        <time>2019-10-09T14:07:29.001Z</time>
      </trkpt>
      <trkpt lat="44.60296" lon="5.85787">
        <ele>1034.692</ele>
        <time>2019-10-09T14:07:59.001Z</time>
      </trkpt>
      <trkpt lat="44.59905" lon="5.85794">
        <ele>1004.095</ele>
        <time>2019-10-09T14:08:29.001Z</time>
      </trkpt>
      <trkpt lat="44.59564" lon="5.85811">
        <ele>992.15</ele>
        <time>2019-10-09T14:09:02Z</time>
      </trkpt>
      <trkpt lat="44.5932" lon="5.85604">
        <ele>983.126</ele>
        <time>2019-10-09T14:09:32.001Z</time>
      </trkpt>
      <trkpt lat="44.59048" lon="5.85546">
        <ele>975.944</ele>
        <time>2019-10-09T14:10:02Z</time>
      </trkpt>
      <trkpt lat="44.5877" lon="5.85602">
        <ele>968.85</ele>
        <time>2019-10-09T14:10:32.001Z</time>
      </trkpt>
      <trkpt lat="44.58491" lon="5.8557">
        <ele>957.775</ele>
        <time>2019-10-09T14:11:02Z</time>
      </trkpt>
      <trkpt lat="44.58184" lon="5.85515">
        <ele>945.587</ele>
        <time>2019-10-09T14:11:32.001Z</time>
      </trkpt>
      <trkpt lat="44.57903" lon="5.85416">
        <ele>934.996</ele>
        <time>2019-10-09T14:12:02Z</time>
      </trkpt>
      <trkpt lat="44.57672" lon="5.85507">
        <ele>927.995</ele>
        <time>2019-10-09T14:12:32.001Z</time>
      </trkpt>
      <trkpt lat="44.57552" lon="5.85643">
        <ele>928.002</ele>
        <time>2019-10-09T14:13:02Z</time>
      </trkpt>
      <trkpt lat="44.57454" lon="5.85776">
        <ele>928.149</ele>
        <time>2019-10-09T14:13:32.001Z</time>
      </trkpt>
      <trkpt lat="44.57366" lon="5.85928">
        <ele>928.297</ele>
        <time>2019-10-09T14:14:02Z</time>
      </trkpt>
      <trkpt lat="44.57276" lon="5.86036">
        <ele>929.933</ele>
        <time>2019-10-09T14:14:32.001Z</time>
      </trkpt>
      <trkpt lat="44.57185" lon="5.8612">
        <ele>933.199</ele>
        <time>2019-10-09T14:15:02Z</time>
      </trkpt>
      <trkpt lat="44.57103" lon="5.86235">
        <ele>934.155</ele>
        <time>2019-10-09T14:15:32.001Z</time>
      </trkpt>
      <trkpt lat="44.57049" lon="5.86444">
        <ele>928.714</ele>
        <time>2019-10-09T14:16:02Z</time>
      </trkpt>
      <trkpt lat="44.57049" lon="5.86738">
        <ele>919.04</ele>
        <time>2019-10-09T14:16:32.001Z</time>
      </trkpt>
      <trkpt lat="44.57034" lon="5.87011">
        <ele>900.493</ele>
        <time>2019-10-09T14:17:02Z</time>
      </trkpt>
      <trkpt lat="44.57052" lon="5.87158">
        <ele>903.216</ele>
        <time>2019-10-09T14:17:32.001Z</time>
      </trkpt>
      <trkpt lat="44.57056" lon="5.87279">
        <ele>911.951</ele>
        <time>2019-10-09T14:18:02Z</time>
      </trkpt>
      <trkpt lat="44.5706" lon="5.87388">
        <ele>918.397</ele>
        <time>2019-10-09T14:18:32.001Z</time>
      </trkpt>
      <trkpt lat="44.5702" lon="5.87547">
        <ele>918.309</ele>
        <time>2019-10-09T14:19:02Z</time>
      </trkpt>
      <trkpt lat="44.5696" lon="5.87724">
        <ele>916.008</ele>
        <time>2019-10-09T14:19:32.001Z</time>
      </trkpt>
      <trkpt lat="44.56922" lon="5.87863">
        <ele>913.18</ele>
        <time>2019-10-09T14:20:02Z</time>
      </trkpt>
      <trkpt lat="44.56854" lon="5.88014">
        <ele>910.77</ele>
        <time>2019-10-09T14:20:32.001Z</time>
      </trkpt>
      <trkpt lat="44.56788" lon="5.88157">
        <ele>909.149</ele>
        <time>2019-10-09T14:21:02Z</time>
      </trkpt>
      <trkpt lat="44.56772" lon="5.88319">
        <ele>908.852</ele>
        <time>2019-10-09T14:21:32.001Z</time>
      </trkpt>
      <trkpt lat="44.56725" lon="5.88455">
        <ele>909.775</ele>
        <time>2019-10-09T14:22:02Z</time>
      </trkpt>
      <trkpt lat="44.565" lon="5.88662">
        <ele>898.554</ele>
        <time>2019-10-09T14:22:32.001Z</time>
      </trkpt>
      <trkpt lat="44.56273" lon="5.88869">
        <ele>883.077</ele>
        <time>2019-10-09T14:23:02Z</time>
      </trkpt>
      <trkpt lat="44.56177" lon="5.89048">
        <ele>868.627</ele>
        <time>2019-10-09T14:23:32.001Z</time>
      </trkpt>
      <trkpt lat="44.56184" lon="5.89223">
        <ele>865.987</ele>
        <time>2019-10-09T14:24:02Z</time>
      </trkpt>
      <trkpt lat="44.56185" lon="5.89262">
        <ele>867.013</ele>
        <time>2019-10-09T14:29:44.001Z</time>
      </trkpt>
      <trkpt lat="44.56186" lon="5.89416">
        <ele>868.769</ele>
        <time>2019-10-09T14:30:14.001Z</time>
      </trkpt>
      <trkpt lat="44.56187" lon="5.89568">
        <ele>870.116</ele>
        <time>2019-10-09T14:30:44.001Z</time>
      </trkpt>
      <trkpt lat="44.56186" lon="5.89715">
        <ele>874.266</ele>
        <time>2019-10-09T14:31:14.001Z</time>
      </trkpt>
      <trkpt lat="44.56186" lon="5.89855">
        <ele>875.802</ele>
        <time>2019-10-09T14:31:44.001Z</time>
      </trkpt>
      <trkpt lat="44.56185" lon="5.9001">
        <ele>873.008</ele>
        <time>2019-10-09T14:32:14.001Z</time>
      </trkpt>
      <trkpt lat="44.56187" lon="5.90176">
        <ele>871.301</ele>
        <time>2019-10-09T14:32:47.001Z</time>
      </trkpt>
      <trkpt lat="44.56187" lon="5.90327">
        <ele>874.121</ele>
        <time>2019-10-09T14:33:17.001Z</time>
      </trkpt>
      <trkpt lat="44.56188" lon="5.90479">
        <ele>876.173</ele>
        <time>2019-10-09T14:33:47.001Z</time>
      </trkpt>
      <trkpt lat="44.56188" lon="5.9064">
        <ele>878.174</ele>
        <time>2019-10-09T14:34:17.001Z</time>
      </trkpt>
      <trkpt lat="44.56189" lon="5.90804">
        <ele>879.811</ele>
        <time>2019-10-09T14:34:47.001Z</time>
      </trkpt>
      <trkpt lat="44.56189" lon="5.90963">
        <ele>882.254</ele>
        <time>2019-10-09T14:35:17.001Z</time>
      </trkpt>
      <trkpt lat="44.56187" lon="5.91123">
        <ele>884.523</ele>
        <time>2019-10-09T14:35:47.001Z</time>
      </trkpt>
      <trkpt lat="44.56187" lon="5.91272">
        <ele>887.486</ele>
        <time>2019-10-09T14:36:17.001Z</time>
      </trkpt>
      <trkpt lat="44.56185" lon="5.91423">
        <ele>887.419</ele>
        <time>2019-10-09T14:36:47.001Z</time>
      </trkpt>
      <trkpt lat="44.56189" lon="5.91582">
        <ele>888.25</ele>
        <time>2019-10-09T14:37:17.001Z</time>
      </trkpt>
      <trkpt lat="44.5619" lon="5.91728">
        <ele>897.189</ele>
        <time>2019-10-09T14:37:47.001Z</time>
      </trkpt>
      <trkpt lat="44.56186" lon="5.91862">
        <ele>896.979</ele>
        <time>2019-10-09T14:38:17.001Z</time>
      </trkpt>
      <trkpt lat="44.56187" lon="5.91984">
        <ele>900.224</ele>
        <time>2019-10-09T14:38:47.001Z</time>
      </trkpt>
      <trkpt lat="44.56188" lon="5.92099">
        <ele>903.518</ele>
        <time>2019-10-09T14:39:17.001Z</time>
      </trkpt>
      <trkpt lat="44.56217" lon="5.92125">
        <ele>905.657</ele>
        <time>2019-10-09T14:39:47.001Z</time>
      </trkpt>
      <trkpt lat="44.56247" lon="5.91946">
        <ele>909.707</ele>
        <time>2019-10-09T14:40:17.001Z</time>
      </trkpt>
      <trkpt lat="44.5633" lon="5.9186">
        <ele>906.112</ele>
        <time>2019-10-09T14:40:47.001Z</time>
      </trkpt>
      <trkpt lat="44.56398" lon="5.91784">
        <ele>911.65</ele>
        <time>2019-10-09T14:41:17.001Z</time>
      </trkpt>
    </trkseg>
  </trk>
  <trk>
    <name><![CDATA[Tracé 20191010-094237]]></name>
    <trkseg>
      <trkpt lat="44.56427" lon="5.91693">
        <ele>898.117</ele>
        <time>2019-10-10T07:45:22Z</time>
      </trkpt>
      <trkpt lat="44.56417" lon="5.9173">
        <ele>900.553</ele>
        <time>2019-10-10T07:46:25Z</time>
      </trkpt>
      <trkpt lat="44.56375" lon="5.91824">
        <ele>906.833</ele>
        <time>2019-10-10T07:52:31Z</time>
      </trkpt>
      <trkpt lat="44.56303" lon="5.91893">
        <ele>910.066</ele>
        <time>2019-10-10T07:53:01Z</time>
      </trkpt>
      <trkpt lat="44.56226" lon="5.91999">
        <ele>906.148</ele>
        <time>2019-10-10T07:53:31Z</time>
      </trkpt>
      <trkpt lat="44.56215" lon="5.92118">
        <ele>910.235</ele>
        <time>2019-10-10T07:54:01Z</time>
      </trkpt>
      <trkpt lat="44.56186" lon="5.92225">
        <ele>905.7</ele>
        <time>2019-10-10T07:54:34Z</time>
      </trkpt>
      <trkpt lat="44.56186" lon="5.92344">
        <ele>905.126</ele>
        <time>2019-10-10T07:55:04Z</time>
      </trkpt>
      <trkpt lat="44.56183" lon="5.92468">
        <ele>912.385</ele>
        <time>2019-10-10T07:55:34Z</time>
      </trkpt>
      <trkpt lat="44.56184" lon="5.92597">
        <ele>914.933</ele>
        <time>2019-10-10T07:56:04Z</time>
      </trkpt>
      <trkpt lat="44.56184" lon="5.92755">
        <ele>913.413</ele>
        <time>2019-10-10T07:56:37Z</time>
      </trkpt>
      <trkpt lat="44.56183" lon="5.92902">
        <ele>913.234</ele>
        <time>2019-10-10T07:57:07Z</time>
      </trkpt>
      <trkpt lat="44.56183" lon="5.93066">
        <ele>912.22</ele>
        <time>2019-10-10T07:57:37Z</time>
      </trkpt>
      <trkpt lat="44.56183" lon="5.93281">
        <ele>912.45</ele>
        <time>2019-10-10T07:58:07Z</time>
      </trkpt>
      <trkpt lat="44.56184" lon="5.93526">
        <ele>908.91</ele>
        <time>2019-10-10T07:58:40Z</time>
      </trkpt>
      <trkpt lat="44.56184" lon="5.93707">
        <ele>913.14</ele>
        <time>2019-10-10T07:59:10Z</time>
      </trkpt>
      <trkpt lat="44.56184" lon="5.93864">
        <ele>915.17</ele>
        <time>2019-10-10T07:59:40Z</time>
      </trkpt>
      <trkpt lat="44.56184" lon="5.94034">
        <ele>915.736</ele>
        <time>2019-10-10T08:00:13Z</time>
      </trkpt>
      <trkpt lat="44.56182" lon="5.94184">
        <ele>917.625</ele>
        <time>2019-10-10T08:00:43Z</time>
      </trkpt>
      <trkpt lat="44.56183" lon="5.94333">
        <ele>919.345</ele>
        <time>2019-10-10T08:01:13Z</time>
      </trkpt>
      <trkpt lat="44.56184" lon="5.9447">
        <ele>919.872</ele>
        <time>2019-10-10T08:01:43Z</time>
      </trkpt>
      <trkpt lat="44.56184" lon="5.94623">
        <ele>923.878</ele>
        <time>2019-10-10T08:02:16Z</time>
      </trkpt>
      <trkpt lat="44.56179" lon="5.94764">
        <ele>925.038</ele>
        <time>2019-10-10T08:02:46Z</time>
      </trkpt>
      <trkpt lat="44.56178" lon="5.94901">
        <ele>925.966</ele>
        <time>2019-10-10T08:03:16Z</time>
      </trkpt>
      <trkpt lat="44.56179" lon="5.95032">
        <ele>929.058</ele>
        <time>2019-10-10T08:03:46Z</time>
      </trkpt>
      <trkpt lat="44.56179" lon="5.95178">
        <ele>934.278</ele>
        <time>2019-10-10T08:04:19Z</time>
      </trkpt>
      <trkpt lat="44.56189" lon="5.95309">
        <ele>934.926</ele>
        <time>2019-10-10T08:04:49Z</time>
      </trkpt>
      <trkpt lat="44.56186" lon="5.95449">
        <ele>937.149</ele>
        <time>2019-10-10T08:05:19Z</time>
      </trkpt>
      <trkpt lat="44.56177" lon="5.9557">
        <ele>939.032</ele>
        <time>2019-10-10T08:05:49Z</time>
      </trkpt>
      <trkpt lat="44.56226" lon="5.95699">
        <ele>943.228</ele>
        <time>2019-10-10T08:06:22Z</time>
      </trkpt>
      <trkpt lat="44.56265" lon="5.95783">
        <ele>942.615</ele>
        <time>2019-10-10T08:06:52Z</time>
      </trkpt>
      <trkpt lat="44.56329" lon="5.95839">
        <ele>949.095</ele>
        <time>2019-10-10T08:07:22Z</time>
      </trkpt>
      <trkpt lat="44.56341" lon="5.95896">
        <ele>951.523</ele>
        <time>2019-10-10T08:17:22.001Z</time>
      </trkpt>
      <trkpt lat="44.56308" lon="5.95825">
        <ele>950.812</ele>
        <time>2019-10-10T08:17:55.001Z</time>
      </trkpt>
      <trkpt lat="44.56234" lon="5.95712">
        <ele>937.564</ele>
        <time>2019-10-10T08:18:25.001Z</time>
      </trkpt>
      <trkpt lat="44.562" lon="5.95626">
        <ele>935.242</ele>
        <time>2019-10-10T08:20:07.001Z</time>
      </trkpt>
      <trkpt lat="44.56127" lon="5.95607">
        <ele>941.106</ele>
        <time>2019-10-10T08:20:40.001Z</time>
      </trkpt>
      <trkpt lat="44.56005" lon="5.95692">
        <ele>941.89</ele>
        <time>2019-10-10T08:21:13.001Z</time>
      </trkpt>
      <trkpt lat="44.55964" lon="5.95707">
        <ele>940.937</ele>
        <time>2019-10-10T08:22:19.001Z</time>
      </trkpt>
      <trkpt lat="44.55972" lon="5.95687">
        <ele>937.083</ele>
        <time>2019-10-10T08:22:52.001Z</time>
      </trkpt>
      <trkpt lat="44.55837" lon="5.95748">
        <ele>933.998</ele>
        <time>2019-10-10T08:23:22.001Z</time>
      </trkpt>
      <trkpt lat="44.55698" lon="5.95818">
        <ele>933.373</ele>
        <time>2019-10-10T08:23:55.001Z</time>
      </trkpt>
      <trkpt lat="44.55562" lon="5.95886">
        <ele>931.495</ele>
        <time>2019-10-10T08:24:25.001Z</time>
      </trkpt>
      <trkpt lat="44.55444" lon="5.95979">
        <ele>932.914</ele>
        <time>2019-10-10T08:24:55.001Z</time>
      </trkpt>
      <trkpt lat="44.55367" lon="5.96143">
        <ele>937.914</ele>
        <time>2019-10-10T08:25:28.001Z</time>
      </trkpt>
      <trkpt lat="44.55309" lon="5.96272">
        <ele>940.706</ele>
        <time>2019-10-10T08:25:58.001Z</time>
      </trkpt>
      <trkpt lat="44.55242" lon="5.96396">
        <ele>940.197</ele>
        <time>2019-10-10T08:26:28.001Z</time>
      </trkpt>
      <trkpt lat="44.55182" lon="5.96525">
        <ele>940.297</ele>
        <time>2019-10-10T08:26:58.001Z</time>
      </trkpt>
      <trkpt lat="44.55151" lon="5.96689">
        <ele>942.988</ele>
        <time>2019-10-10T08:27:31.001Z</time>
      </trkpt>
      <trkpt lat="44.55134" lon="5.96841">
        <ele>940.463</ele>
        <time>2019-10-10T08:28:01.001Z</time>
      </trkpt>
      <trkpt lat="44.55115" lon="5.96994">
        <ele>942.286</ele>
        <time>2019-10-10T08:28:31.001Z</time>
      </trkpt>
      <trkpt lat="44.55082" lon="5.97139">
        <ele>948.851</ele>
        <time>2019-10-10T08:29:01.001Z</time>
      </trkpt>
      <trkpt lat="44.55039" lon="5.97308">
        <ele>947.916</ele>
        <time>2019-10-10T08:29:34.001Z</time>
      </trkpt>
      <trkpt lat="44.55002" lon="5.97482">
        <ele>947.628</ele>
        <time>2019-10-10T08:30:04.001Z</time>
      </trkpt>
      <trkpt lat="44.54963" lon="5.97653">
        <ele>946.67</ele>
        <time>2019-10-10T08:30:34.001Z</time>
      </trkpt>
      <trkpt lat="44.54925" lon="5.97818">
        <ele>945.803</ele>
        <time>2019-10-10T08:31:04.001Z</time>
      </trkpt>
      <trkpt lat="44.54892" lon="5.97963">
        <ele>946.034</ele>
        <time>2019-10-10T08:31:37.001Z</time>
      </trkpt>
      <trkpt lat="44.54861" lon="5.9809">
        <ele>950.425</ele>
        <time>2019-10-10T08:32:07.001Z</time>
      </trkpt>
      <trkpt lat="44.54813" lon="5.98201">
        <ele>952.984</ele>
        <time>2019-10-10T08:32:37.001Z</time>
      </trkpt>
      <trkpt lat="44.54759" lon="5.98294">
        <ele>955.026</ele>
        <time>2019-10-10T08:33:07.001Z</time>
      </trkpt>
      <trkpt lat="44.54702" lon="5.98395">
        <ele>957.119</ele>
        <time>2019-10-10T08:33:40.001Z</time>
      </trkpt>
      <trkpt lat="44.54662" lon="5.98494">
        <ele>962.081</ele>
        <time>2019-10-10T08:34:10.001Z</time>
      </trkpt>
      <trkpt lat="44.5462" lon="5.98607">
        <ele>962.591</ele>
        <time>2019-10-10T08:34:40.001Z</time>
      </trkpt>
      <trkpt lat="44.54583" lon="5.9871">
        <ele>964.895</ele>
        <time>2019-10-10T08:35:10.001Z</time>
      </trkpt>
      <trkpt lat="44.54544" lon="5.98817">
        <ele>967.723</ele>
        <time>2019-10-10T08:35:43.001Z</time>
      </trkpt>
      <trkpt lat="44.54524" lon="5.98924">
        <ele>970.852</ele>
        <time>2019-10-10T08:36:13.001Z</time>
      </trkpt>
      <trkpt lat="44.54529" lon="5.99038">
        <ele>971.069</ele>
        <time>2019-10-10T08:36:43.001Z</time>
      </trkpt>
      <trkpt lat="44.5455" lon="5.99145">
        <ele>975.084</ele>
        <time>2019-10-10T08:37:13.001Z</time>
      </trkpt>
      <trkpt lat="44.5457" lon="5.99261">
        <ele>980.755</ele>
        <time>2019-10-10T08:37:46.001Z</time>
      </trkpt>
      <trkpt lat="44.54589" lon="5.99365">
        <ele>983.078</ele>
        <time>2019-10-10T08:38:16Z</time>
      </trkpt>
      <trkpt lat="44.54609" lon="5.99469">
        <ele>985.051</ele>
        <time>2019-10-10T08:38:46.001Z</time>
      </trkpt>
      <trkpt lat="44.54629" lon="5.99581">
        <ele>985.032</ele>
        <time>2019-10-10T08:39:19.001Z</time>
      </trkpt>
      <trkpt lat="44.54644" lon="5.99687">
        <ele>987.47</ele>
        <time>2019-10-10T08:39:49.001Z</time>
      </trkpt>
      <trkpt lat="44.54647" lon="5.99807">
        <ele>988.998</ele>
        <time>2019-10-10T08:40:19.001Z</time>
      </trkpt>
      <trkpt lat="44.5463" lon="5.99948">
        <ele>991.537</ele>
        <time>2019-10-10T08:40:49.001Z</time>
      </trkpt>
      <trkpt lat="44.54578" lon="6.00124">
        <ele>988.854</ele>
        <time>2019-10-10T08:41:22.001Z</time>
      </trkpt>
      <trkpt lat="44.54532" lon="6.00277">
        <ele>990.652</ele>
        <time>2019-10-10T08:41:52.001Z</time>
      </trkpt>
      <trkpt lat="44.54481" lon="6.0045">
        <ele>988.348</ele>
        <time>2019-10-10T08:42:22.001Z</time>
      </trkpt>
      <trkpt lat="44.54399" lon="6.00712">
        <ele>979.477</ele>
        <time>2019-10-10T08:42:52.001Z</time>
      </trkpt>
      <trkpt lat="44.54281" lon="6.01015">
        <ele>973.427</ele>
        <time>2019-10-10T08:43:25.001Z</time>
      </trkpt>
      <trkpt lat="44.54188" lon="6.01241">
        <ele>971.695</ele>
        <time>2019-10-10T08:43:55.001Z</time>
      </trkpt>
      <trkpt lat="44.5411" lon="6.01435">
        <ele>977.755</ele>
        <time>2019-10-10T08:44:25.001Z</time>
      </trkpt>
      <trkpt lat="44.5404" lon="6.01575">
        <ele>976.952</ele>
        <time>2019-10-10T08:44:55.001Z</time>
      </trkpt>
      <trkpt lat="44.53975" lon="6.01737">
        <ele>974.862</ele>
        <time>2019-10-10T08:45:28.001Z</time>
      </trkpt>
      <trkpt lat="44.53967" lon="6.01913">
        <ele>971.914</ele>
        <time>2019-10-10T08:45:58.001Z</time>
      </trkpt>
      <trkpt lat="44.53961" lon="6.02073">
        <ele>972.774</ele>
        <time>2019-10-10T08:46:28.001Z</time>
      </trkpt>
      <trkpt lat="44.54004" lon="6.02229">
        <ele>980.386</ele>
        <time>2019-10-10T08:46:58.001Z</time>
      </trkpt>
      <trkpt lat="44.53987" lon="6.02425">
        <ele>976.82</ele>
        <time>2019-10-10T08:47:31.001Z</time>
      </trkpt>
      <trkpt lat="44.54038" lon="6.02564">
        <ele>977.09</ele>
        <time>2019-10-10T08:48:01.001Z</time>
      </trkpt>
      <trkpt lat="44.54101" lon="6.02583">
        <ele>978.311</ele>
        <time>2019-10-10T08:52:52.001Z</time>
      </trkpt>
      <trkpt lat="44.54205" lon="6.02528">
        <ele>977.391</ele>
        <time>2019-10-10T08:53:22.001Z</time>
      </trkpt>
      <trkpt lat="44.54321" lon="6.02439">
        <ele>975.201</ele>
        <time>2019-10-10T08:53:55.001Z</time>
      </trkpt>
      <trkpt lat="44.54443" lon="6.0239">
        <ele>976.314</ele>
        <time>2019-10-10T08:54:25.001Z</time>
      </trkpt>
      <trkpt lat="44.54574" lon="6.02389">
        <ele>977.988</ele>
        <time>2019-10-10T08:54:55.001Z</time>
      </trkpt>
      <trkpt lat="44.54699" lon="6.024">
        <ele>980.201</ele>
        <time>2019-10-10T08:55:25.001Z</time>
      </trkpt>
      <trkpt lat="44.54842" lon="6.02413">
        <ele>976.583</ele>
        <time>2019-10-10T08:55:58.001Z</time>
      </trkpt>
      <trkpt lat="44.54955" lon="6.02485">
        <ele>976.405</ele>
        <time>2019-10-10T08:56:29.001Z</time>
      </trkpt>
      <trkpt lat="44.54945" lon="6.0265">
        <ele>978.202</ele>
        <time>2019-10-10T08:56:59.001Z</time>
      </trkpt>
      <trkpt lat="44.54978" lon="6.02799">
        <ele>979.734</ele>
        <time>2019-10-10T08:57:29.001Z</time>
      </trkpt>
      <trkpt lat="44.55075" lon="6.02955">
        <ele>982.263</ele>
        <time>2019-10-10T08:58:02Z</time>
      </trkpt>
      <trkpt lat="44.55204" lon="6.03154">
        <ele>975.037</ele>
        <time>2019-10-10T08:58:32.001Z</time>
      </trkpt>
      <trkpt lat="44.55253" lon="6.0352">
        <ele>959.426</ele>
        <time>2019-10-10T08:59:02Z</time>
      </trkpt>
      <trkpt lat="44.54931" lon="6.03689">
        <ele>944.754</ele>
        <time>2019-10-10T08:59:35.001Z</time>
      </trkpt>
      <trkpt lat="44.54903" lon="6.03808">
        <ele>930.011</ele>
        <time>2019-10-10T09:00:05.001Z</time>
      </trkpt>
      <trkpt lat="44.55261" lon="6.0392">
        <ele>910.102</ele>
        <time>2019-10-10T09:00:35.001Z</time>
      </trkpt>
      <trkpt lat="44.55545" lon="6.04281">
        <ele>890.087</ele>
        <time>2019-10-10T09:01:05.001Z</time>
      </trkpt>
      <trkpt lat="44.55669" lon="6.04772">
        <ele>866.89</ele>
        <time>2019-10-10T09:01:38.001Z</time>
      </trkpt>
      <trkpt lat="44.55763" lon="6.0524">
        <ele>849.972</ele>
        <time>2019-10-10T09:02:08.001Z</time>
      </trkpt>
      <trkpt lat="44.55752" lon="6.05587">
        <ele>837.665</ele>
        <time>2019-10-10T09:02:38.001Z</time>
      </trkpt>
      <trkpt lat="44.55747" lon="6.0591">
        <ele>829.754</ele>
        <time>2019-10-10T09:03:08.001Z</time>
      </trkpt>
      <trkpt lat="44.5564" lon="6.06179">
        <ele>826.172</ele>
        <time>2019-10-10T09:03:41.001Z</time>
      </trkpt>
      <trkpt lat="44.5568" lon="6.06399">
        <ele>811.285</ele>
        <time>2019-10-10T09:04:11.001Z</time>
      </trkpt>
      <trkpt lat="44.55644" lon="6.06691">
        <ele>801.136</ele>
        <time>2019-10-10T09:04:41.001Z</time>
      </trkpt>
      <trkpt lat="44.55764" lon="6.06923">
        <ele>790.821</ele>
        <time>2019-10-10T09:05:11.001Z</time>
      </trkpt>
      <trkpt lat="44.5564" lon="6.07132">
        <ele>770.16</ele>
        <time>2019-10-10T09:05:44.001Z</time>
      </trkpt>
      <trkpt lat="44.55586" lon="6.07173">
        <ele>762.078</ele>
        <time>2019-10-10T09:08:14.001Z</time>
      </trkpt>
      <trkpt lat="44.55507" lon="6.07419">
        <ele>752.767</ele>
        <time>2019-10-10T09:08:44.001Z</time>
      </trkpt>
      <trkpt lat="44.55557" lon="6.07535">
        <ele>746.493</ele>
        <time>2019-10-10T09:09:14.001Z</time>
      </trkpt>
      <trkpt lat="44.55651" lon="6.07646">
        <ele>743.008</ele>
        <time>2019-10-10T09:09:47.001Z</time>
      </trkpt>
      <trkpt lat="44.55667" lon="6.07741">
        <ele>754.305</ele>
        <time>2019-10-10T09:10:23.001Z</time>
      </trkpt>
      <trkpt lat="44.55679" lon="6.07766">
        <ele>754.283</ele>
        <time>2019-10-10T09:11:44.001Z</time>
      </trkpt>
      <trkpt lat="44.55713" lon="6.07873">
        <ele>750.062</ele>
        <time>2019-10-10T09:13:29.001Z</time>
      </trkpt>
      <trkpt lat="44.55792" lon="6.07979">
        <ele>748.768</ele>
        <time>2019-10-10T09:14:02Z</time>
      </trkpt>
      <trkpt lat="44.55874" lon="6.08052">
        <ele>755.377</ele>
        <time>2019-10-10T09:14:32.001Z</time>
      </trkpt>
      <trkpt lat="44.55926" lon="6.08069">
        <ele>760.531</ele>
        <time>2019-10-10T09:16:50.001Z</time>
      </trkpt>
      <trkpt lat="44.56002" lon="6.08086">
        <ele>762.698</ele>
        <time>2019-10-10T09:17:20.001Z</time>
      </trkpt>
      <trkpt lat="44.56078" lon="6.08178">
        <ele>752.696</ele>
        <time>2019-10-10T09:17:53.001Z</time>
      </trkpt>
      <trkpt lat="44.5615" lon="6.08262">
        <ele>743.816</ele>
        <time>2019-10-10T09:18:23.001Z</time>
      </trkpt>
      <trkpt lat="44.56195" lon="6.08356">
        <ele>748.343</ele>
        <time>2019-10-10T09:19:20.001Z</time>
      </trkpt>
      <trkpt lat="44.56235" lon="6.08495">
        <ele>751.67</ele>
        <time>2019-10-10T09:19:53.001Z</time>
      </trkpt>
      <trkpt lat="44.56306" lon="6.0865">
        <ele>751.308</ele>
        <time>2019-10-10T09:20:23.001Z</time>
      </trkpt>
      <trkpt lat="44.56385" lon="6.08839">
        <ele>753.914</ele>
        <time>2019-10-10T09:20:53.001Z</time>
      </trkpt>
      <trkpt lat="44.56461" lon="6.09025">
        <ele>752.515</ele>
        <time>2019-10-10T09:21:23.001Z</time>
      </trkpt>
      <trkpt lat="44.56533" lon="6.09204">
        <ele>750.158</ele>
        <time>2019-10-10T09:21:56.001Z</time>
      </trkpt>
      <trkpt lat="44.56582" lon="6.09346">
        <ele>752.095</ele>
        <time>2019-10-10T09:22:26.001Z</time>
      </trkpt>
      <trkpt lat="44.56636" lon="6.09472">
        <ele>757.529</ele>
        <time>2019-10-10T09:22:56.001Z</time>
      </trkpt>
      <trkpt lat="44.56684" lon="6.09599">
        <ele>756.64</ele>
        <time>2019-10-10T09:23:26.001Z</time>
      </trkpt>
      <trkpt lat="44.56749" lon="6.09731">
        <ele>755.306</ele>
        <time>2019-10-10T09:23:59.001Z</time>
      </trkpt>
      <trkpt lat="44.56809" lon="6.09638">
        <ele>752.342</ele>
        <time>2019-10-10T09:24:29.001Z</time>
      </trkpt>
      <trkpt lat="44.56749" lon="6.09584">
        <ele>754.66</ele>
        <time>2019-10-10T09:27:47.001Z</time>
      </trkpt>
      <trkpt lat="44.56762" lon="6.09629">
        <ele>755.599</ele>
        <time>2019-10-10T09:42:23.001Z</time>
      </trkpt>
      <trkpt lat="44.56768" lon="6.09706">
        <ele>752.175</ele>
        <time>2019-10-10T09:42:59.001Z</time>
      </trkpt>
      <trkpt lat="44.56765" lon="6.09782">
        <ele>751.162</ele>
        <time>2019-10-10T09:43:29.001Z</time>
      </trkpt>
      <trkpt lat="44.56811" lon="6.09895">
        <ele>754.305</ele>
        <time>2019-10-10T09:43:59.001Z</time>
      </trkpt>
      <trkpt lat="44.56859" lon="6.10013">
        <ele>761.097</ele>
        <time>2019-10-10T09:44:29.001Z</time>
      </trkpt>
      <trkpt lat="44.56896" lon="6.10142">
        <ele>757.329</ele>
        <time>2019-10-10T09:45:02Z</time>
      </trkpt>
      <trkpt lat="44.5691" lon="6.10278">
        <ele>755.568</ele>
        <time>2019-10-10T09:45:32.001Z</time>
      </trkpt>
      <trkpt lat="44.5688" lon="6.1038">
        <ele>759.915</ele>
        <time>2019-10-10T09:46:02Z</time>
      </trkpt>
      <trkpt lat="44.56868" lon="6.10451">
        <ele>760.749</ele>
        <time>2019-10-10T09:46:38.001Z</time>
      </trkpt>
      <trkpt lat="44.56916" lon="6.10483">
        <ele>767.087</ele>
        <time>2019-10-10T10:20:59.001Z</time>
      </trkpt>
      <trkpt lat="44.56926" lon="6.10401">
        <ele>764.234</ele>
        <time>2019-10-10T10:22:53.001Z</time>
      </trkpt>
      <trkpt lat="44.56947" lon="6.104">
        <ele>757.963</ele>
        <time>2019-10-10T10:23:23.001Z</time>
      </trkpt>
      <trkpt lat="44.57038" lon="6.10504">
        <ele>759.934</ele>
        <time>2019-10-10T10:23:53.001Z</time>
      </trkpt>
      <trkpt lat="44.57096" lon="6.10608">
        <ele>763.523</ele>
        <time>2019-10-10T10:24:26.001Z</time>
      </trkpt>
      <trkpt lat="44.57151" lon="6.10694">
        <ele>762.984</ele>
        <time>2019-10-10T10:24:56.001Z</time>
      </trkpt>
      <trkpt lat="44.57215" lon="6.10779">
        <ele>765.257</ele>
        <time>2019-10-10T10:25:26.001Z</time>
      </trkpt>
      <trkpt lat="44.57311" lon="6.10886">
        <ele>766.515</ele>
        <time>2019-10-10T10:25:59.001Z</time>
      </trkpt>
      <trkpt lat="44.574" lon="6.10997">
        <ele>769.602</ele>
        <time>2019-10-10T10:26:29.001Z</time>
      </trkpt>
      <trkpt lat="44.57491" lon="6.1112">
        <ele>766.529</ele>
        <time>2019-10-10T10:26:59.001Z</time>
      </trkpt>
      <trkpt lat="44.57537" lon="6.11239">
        <ele>768.79</ele>
        <time>2019-10-10T10:27:29.001Z</time>
      </trkpt>
      <trkpt lat="44.5757" lon="6.11371">
        <ele>776.103</ele>
        <time>2019-10-10T10:28:02Z</time>
      </trkpt>
      <trkpt lat="44.57599" lon="6.11494">
        <ele>776.886</ele>
        <time>2019-10-10T10:28:32.001Z</time>
      </trkpt>
      <trkpt lat="44.57627" lon="6.11614">
        <ele>779.971</ele>
        <time>2019-10-10T10:29:02Z</time>
      </trkpt>
      <trkpt lat="44.5766" lon="6.11747">
        <ele>781.871</ele>
        <time>2019-10-10T10:29:32.001Z</time>
      </trkpt>
      <trkpt lat="44.57693" lon="6.11894">
        <ele>783.101</ele>
        <time>2019-10-10T10:30:05.001Z</time>
      </trkpt>
      <trkpt lat="44.57723" lon="6.12002">
        <ele>785.638</ele>
        <time>2019-10-10T10:30:35.001Z</time>
      </trkpt>
      <trkpt lat="44.57747" lon="6.12096">
        <ele>788.49</ele>
        <time>2019-10-10T10:31:05.001Z</time>
      </trkpt>
      <trkpt lat="44.57771" lon="6.12192">
        <ele>794.411</ele>
        <time>2019-10-10T10:31:35.001Z</time>
      </trkpt>
      <trkpt lat="44.57789" lon="6.12305">
        <ele>801.306</ele>
        <time>2019-10-10T10:32:08.001Z</time>
      </trkpt>
      <trkpt lat="44.57783" lon="6.12418">
        <ele>802.089</ele>
        <time>2019-10-10T10:32:38.001Z</time>
      </trkpt>
      <trkpt lat="44.5778" lon="6.12531">
        <ele>801.575</ele>
        <time>2019-10-10T10:33:08.001Z</time>
      </trkpt>
      <trkpt lat="44.57778" lon="6.1265">
        <ele>801.886</ele>
        <time>2019-10-10T10:33:38.001Z</time>
      </trkpt>
      <trkpt lat="44.57776" lon="6.12814">
        <ele>804.306</ele>
        <time>2019-10-10T10:34:11.001Z</time>
      </trkpt>
      <trkpt lat="44.57772" lon="6.12986">
        <ele>804.532</ele>
        <time>2019-10-10T10:34:41.001Z</time>
      </trkpt>
      <trkpt lat="44.57769" lon="6.13155">
        <ele>803.692</ele>
        <time>2019-10-10T10:35:11.001Z</time>
      </trkpt>
      <trkpt lat="44.57766" lon="6.13309">
        <ele>806.785</ele>
        <time>2019-10-10T10:35:41.001Z</time>
      </trkpt>
      <trkpt lat="44.57762" lon="6.13461">
        <ele>809.304</ele>
        <time>2019-10-10T10:36:14.001Z</time>
      </trkpt>
      <trkpt lat="44.57758" lon="6.13607">
        <ele>809.927</ele>
        <time>2019-10-10T10:36:44.001Z</time>
      </trkpt>
      <trkpt lat="44.57753" lon="6.13782">
        <ele>811.261</ele>
        <time>2019-10-10T10:37:14.001Z</time>
      </trkpt>
      <trkpt lat="44.57751" lon="6.13978">
        <ele>809.043</ele>
        <time>2019-10-10T10:37:44.001Z</time>
      </trkpt>
      <trkpt lat="44.57747" lon="6.14194">
        <ele>807.916</ele>
        <time>2019-10-10T10:38:17.001Z</time>
      </trkpt>
      <trkpt lat="44.57742" lon="6.14352">
        <ele>805.102</ele>
        <time>2019-10-10T10:40:02Z</time>
      </trkpt>
      <trkpt lat="44.57742" lon="6.14475">
        <ele>807.421</ele>
        <time>2019-10-10T10:40:32.001Z</time>
      </trkpt>
      <trkpt lat="44.57736" lon="6.14646">
        <ele>807.567</ele>
        <time>2019-10-10T10:41:02Z</time>
      </trkpt>
      <trkpt lat="44.57731" lon="6.14789">
        <ele>812.192</ele>
        <time>2019-10-10T10:41:35.001Z</time>
      </trkpt>
      <trkpt lat="44.57731" lon="6.14904">
        <ele>814.023</ele>
        <time>2019-10-10T10:42:05.001Z</time>
      </trkpt>
      <trkpt lat="44.57727" lon="6.15028">
        <ele>815.863</ele>
        <time>2019-10-10T10:42:35.001Z</time>
      </trkpt>
      <trkpt lat="44.57723" lon="6.15162">
        <ele>818.481</ele>
        <time>2019-10-10T10:43:08.001Z</time>
      </trkpt>
      <trkpt lat="44.5772" lon="6.15282">
        <ele>821.772</ele>
        <time>2019-10-10T10:43:38.001Z</time>
      </trkpt>
      <trkpt lat="44.57718" lon="6.15395">
        <ele>826.959</ele>
        <time>2019-10-10T10:44:08.001Z</time>
      </trkpt>
      <trkpt lat="44.57714" lon="6.15529">
        <ele>827.069</ele>
        <time>2019-10-10T10:44:38.001Z</time>
      </trkpt>
      <trkpt lat="44.5771" lon="6.15695">
        <ele>826.837</ele>
        <time>2019-10-10T10:45:11.001Z</time>
      </trkpt>
      <trkpt lat="44.57706" lon="6.15863">
        <ele>827.081</ele>
        <time>2019-10-10T10:45:41.001Z</time>
      </trkpt>
      <trkpt lat="44.57704" lon="6.16025">
        <ele>827.38</ele>
        <time>2019-10-10T10:46:11.001Z</time>
      </trkpt>
      <trkpt lat="44.577" lon="6.16161">
        <ele>831.558</ele>
        <time>2019-10-10T10:46:41.001Z</time>
      </trkpt>
      <trkpt lat="44.57672" lon="6.16356">
        <ele>830.321</ele>
        <time>2019-10-10T10:47:14.001Z</time>
      </trkpt>
      <trkpt lat="44.57611" lon="6.16537">
        <ele>830.497</ele>
        <time>2019-10-10T10:47:44.001Z</time>
      </trkpt>
      <trkpt lat="44.57558" lon="6.1668">
        <ele>830.734</ele>
        <time>2019-10-10T10:48:14.001Z</time>
      </trkpt>
      <trkpt lat="44.57508" lon="6.16808">
        <ele>830.992</ele>
        <time>2019-10-10T10:48:44.001Z</time>
      </trkpt>
      <trkpt lat="44.57458" lon="6.16948">
        <ele>835.081</ele>
        <time>2019-10-10T10:49:17.001Z</time>
      </trkpt>
      <trkpt lat="44.57411" lon="6.17074">
        <ele>835.814</ele>
        <time>2019-10-10T10:49:47.001Z</time>
      </trkpt>
      <trkpt lat="44.57364" lon="6.172">
        <ele>836.227</ele>
        <time>2019-10-10T10:50:17.001Z</time>
      </trkpt>
      <trkpt lat="44.57316" lon="6.17329">
        <ele>836.525</ele>
        <time>2019-10-10T10:50:47.001Z</time>
      </trkpt>
      <trkpt lat="44.5726" lon="6.17477">
        <ele>839.024</ele>
        <time>2019-10-10T10:51:20.001Z</time>
      </trkpt>
      <trkpt lat="44.57201" lon="6.17637">
        <ele>839.34</ele>
        <time>2019-10-10T10:51:50.001Z</time>
      </trkpt>
      <trkpt lat="44.5714" lon="6.17801">
        <ele>839.143</ele>
        <time>2019-10-10T10:52:20.001Z</time>
      </trkpt>
      <trkpt lat="44.57081" lon="6.17955">
        <ele>840.216</ele>
        <time>2019-10-10T10:52:50.001Z</time>
      </trkpt>
      <trkpt lat="44.57008" lon="6.18156">
        <ele>839.763</ele>
        <time>2019-10-10T10:53:23.001Z</time>
      </trkpt>
      <trkpt lat="44.56947" lon="6.18357">
        <ele>843.252</ele>
        <time>2019-10-10T10:53:53.001Z</time>
      </trkpt>
      <trkpt lat="44.56917" lon="6.18537">
        <ele>843.251</ele>
        <time>2019-10-10T10:54:23.001Z</time>
      </trkpt>
      <trkpt lat="44.56882" lon="6.18662">
        <ele>846.793</ele>
        <time>2019-10-10T10:54:53.001Z</time>
      </trkpt>
      <trkpt lat="44.56838" lon="6.18769">
        <ele>849.327</ele>
        <time>2019-10-10T10:55:26.001Z</time>
      </trkpt>
      <trkpt lat="44.56787" lon="6.18857">
        <ele>853.145</ele>
        <time>2019-10-10T10:55:56.001Z</time>
      </trkpt>
      <trkpt lat="44.56723" lon="6.1893">
        <ele>855.991</ele>
        <time>2019-10-10T10:56:26.001Z</time>
      </trkpt>
      <trkpt lat="44.56643" lon="6.19009">
        <ele>857.816</ele>
        <time>2019-10-10T10:56:59.001Z</time>
      </trkpt>
      <trkpt lat="44.56567" lon="6.19114">
        <ele>858.34</ele>
        <time>2019-10-10T10:57:29.001Z</time>
      </trkpt>
      <trkpt lat="44.56491" lon="6.19276">
        <ele>856.348</ele>
        <time>2019-10-10T10:57:59.001Z</time>
      </trkpt>
      <trkpt lat="44.56397" lon="6.19506">
        <ele>853.511</ele>
        <time>2019-10-10T10:58:29.001Z</time>
      </trkpt>
      <trkpt lat="44.56304" lon="6.19817">
        <ele>847.331</ele>
        <time>2019-10-10T10:59:02Z</time>
      </trkpt>
      <trkpt lat="44.56263" lon="6.20154">
        <ele>840.024</ele>
        <time>2019-10-10T10:59:32.001Z</time>
      </trkpt>
      <trkpt lat="44.56218" lon="6.20525">
        <ele>833.588</ele>
        <time>2019-10-10T11:00:02Z</time>
      </trkpt>
      <trkpt lat="44.56174" lon="6.20882">
        <ele>830.667</ele>
        <time>2019-10-10T11:00:32.001Z</time>
      </trkpt>
      <trkpt lat="44.56065" lon="6.21205">
        <ele>827.881</ele>
        <time>2019-10-10T11:01:05.001Z</time>
      </trkpt>
      <trkpt lat="44.55973" lon="6.2163">
        <ele>814.825</ele>
        <time>2019-10-10T11:01:35.001Z</time>
      </trkpt>
      <trkpt lat="44.55896" lon="6.22146">
        <ele>798.736</ele>
        <time>2019-10-10T11:02:05.001Z</time>
      </trkpt>
      <trkpt lat="44.55837" lon="6.22586">
        <ele>790.467</ele>
        <time>2019-10-10T11:02:35.001Z</time>
      </trkpt>
      <trkpt lat="44.55801" lon="6.22847">
        <ele>796.076</ele>
        <time>2019-10-10T11:03:08.001Z</time>
      </trkpt>
      <trkpt lat="44.55775" lon="6.23025">
        <ele>798.319</ele>
        <time>2019-10-10T11:03:38.001Z</time>
      </trkpt>
      <trkpt lat="44.55752" lon="6.23186">
        <ele>801.22</ele>
        <time>2019-10-10T11:04:08.001Z</time>
      </trkpt>
      <trkpt lat="44.55731" lon="6.23336">
        <ele>805.181</ele>
        <time>2019-10-10T11:04:38.001Z</time>
      </trkpt>
      <trkpt lat="44.55714" lon="6.2349">
        <ele>810.739</ele>
        <time>2019-10-10T11:05:11.001Z</time>
      </trkpt>
      <trkpt lat="44.55691" lon="6.2362">
        <ele>810.459</ele>
        <time>2019-10-10T11:05:41.001Z</time>
      </trkpt>
      <trkpt lat="44.55668" lon="6.23734">
        <ele>814.87</ele>
        <time>2019-10-10T11:06:11.001Z</time>
      </trkpt>
      <trkpt lat="44.55631" lon="6.23845">
        <ele>817.927</ele>
        <time>2019-10-10T11:06:41.001Z</time>
      </trkpt>
      <trkpt lat="44.55576" lon="6.23953">
        <ele>819.545</ele>
        <time>2019-10-10T11:07:14.001Z</time>
      </trkpt>
      <trkpt lat="44.55515" lon="6.24046">
        <ele>819.936</ele>
        <time>2019-10-10T11:07:44.001Z</time>
      </trkpt>
      <trkpt lat="44.55453" lon="6.24131">
        <ele>824.652</ele>
        <time>2019-10-10T11:08:14.001Z</time>
      </trkpt>
      <trkpt lat="44.55392" lon="6.24217">
        <ele>831.085</ele>
        <time>2019-10-10T11:08:44.001Z</time>
      </trkpt>
      <trkpt lat="44.55332" lon="6.24327">
        <ele>830.56</ele>
        <time>2019-10-10T11:09:17.001Z</time>
      </trkpt>
      <trkpt lat="44.5529" lon="6.24431">
        <ele>833.951</ele>
        <time>2019-10-10T11:09:47.001Z</time>
      </trkpt>
      <trkpt lat="44.55258" lon="6.24561">
        <ele>836.104</ele>
        <time>2019-10-10T11:10:17.001Z</time>
      </trkpt>
      <trkpt lat="44.55224" lon="6.24702">
        <ele>838.377</ele>
        <time>2019-10-10T11:10:50.001Z</time>
      </trkpt>
      <trkpt lat="44.55199" lon="6.24806">
        <ele>843.129</ele>
        <time>2019-10-10T11:11:20.001Z</time>
      </trkpt>
      <trkpt lat="44.55181" lon="6.24908">
        <ele>847.721</ele>
        <time>2019-10-10T11:11:50.001Z</time>
      </trkpt>
      <trkpt lat="44.55176" lon="6.25009">
        <ele>851.657</ele>
        <time>2019-10-10T11:12:20.001Z</time>
      </trkpt>
      <trkpt lat="44.55171" lon="6.25135">
        <ele>854.994</ele>
        <time>2019-10-10T11:12:53.001Z</time>
      </trkpt>
      <trkpt lat="44.55164" lon="6.25249">
        <ele>858.438</ele>
        <time>2019-10-10T11:13:23.001Z</time>
      </trkpt>
      <trkpt lat="44.55154" lon="6.25397">
        <ele>856.684</ele>
        <time>2019-10-10T11:13:53.001Z</time>
      </trkpt>
      <trkpt lat="44.55148" lon="6.25566">
        <ele>856.507</ele>
        <time>2019-10-10T11:14:23.001Z</time>
      </trkpt>
      <trkpt lat="44.55135" lon="6.25781">
        <ele>854.337</ele>
        <time>2019-10-10T11:14:56.001Z</time>
      </trkpt>
      <trkpt lat="44.55083" lon="6.25965">
        <ele>855.17</ele>
        <time>2019-10-10T11:15:26.001Z</time>
      </trkpt>
      <trkpt lat="44.55011" lon="6.26176">
        <ele>851.498</ele>
        <time>2019-10-10T11:15:56.001Z</time>
      </trkpt>
      <trkpt lat="44.54945" lon="6.26368">
        <ele>849.002</ele>
        <time>2019-10-10T11:16:26.001Z</time>
      </trkpt>
      <trkpt lat="44.54873" lon="6.26579">
        <ele>849.287</ele>
        <time>2019-10-10T11:16:59.001Z</time>
      </trkpt>
      <trkpt lat="44.5481" lon="6.26763">
        <ele>850.084</ele>
        <time>2019-10-10T11:17:29.001Z</time>
      </trkpt>
      <trkpt lat="44.54758" lon="6.26921">
        <ele>853.652</ele>
        <time>2019-10-10T11:17:59.001Z</time>
      </trkpt>
      <trkpt lat="44.54706" lon="6.27054">
        <ele>859.615</ele>
        <time>2019-10-10T11:18:29.001Z</time>
      </trkpt>
      <trkpt lat="44.54641" lon="6.27158">
        <ele>860.109</ele>
        <time>2019-10-10T11:19:02Z</time>
      </trkpt>
      <trkpt lat="44.54659" lon="6.27123">
        <ele>856.893</ele>
        <time>2019-10-10T11:19:35.001Z</time>
      </trkpt>
      <trkpt lat="44.54656" lon="6.27122">
        <ele>855.373</ele>
        <time>2019-10-10T11:23:20.001Z</time>
      </trkpt>
      <trkpt lat="44.54648" lon="6.27123">
        <ele>855.512</ele>
        <time>2019-10-10T11:55:56.001Z</time>
      </trkpt>
      <trkpt lat="44.54624" lon="6.27205">
        <ele>860.103</ele>
        <time>2019-10-10T11:56:32.001Z</time>
      </trkpt>
      <trkpt lat="44.5457" lon="6.27309">
        <ele>860.641</ele>
        <time>2019-10-10T11:57:02Z</time>
      </trkpt>
      <trkpt lat="44.54479" lon="6.27412">
        <ele>858.27</ele>
        <time>2019-10-10T11:57:32.001Z</time>
      </trkpt>
      <trkpt lat="44.54351" lon="6.2751">
        <ele>856.076</ele>
        <time>2019-10-10T11:58:02Z</time>
      </trkpt>
      <trkpt lat="44.5417" lon="6.27721">
        <ele>850.442</ele>
        <time>2019-10-10T11:58:35.001Z</time>
      </trkpt>
      <trkpt lat="44.54116" lon="6.2793">
        <ele>846.217</ele>
        <time>2019-10-10T11:59:05.001Z</time>
      </trkpt>
      <trkpt lat="44.5411" lon="6.28045">
        <ele>851.755</ele>
        <time>2019-10-10T11:59:35.001Z</time>
      </trkpt>
      <trkpt lat="44.54119" lon="6.28144">
        <ele>857.745</ele>
        <time>2019-10-10T12:00:05.001Z</time>
      </trkpt>
      <trkpt lat="44.5413" lon="6.28247">
        <ele>861.076</ele>
        <time>2019-10-10T12:00:38.001Z</time>
      </trkpt>
      <trkpt lat="44.54136" lon="6.28344">
        <ele>864.409</ele>
        <time>2019-10-10T12:01:08.001Z</time>
      </trkpt>
      <trkpt lat="44.54126" lon="6.28447">
        <ele>867.629</ele>
        <time>2019-10-10T12:01:38.001Z</time>
      </trkpt>
      <trkpt lat="44.54103" lon="6.28562">
        <ele>872.082</ele>
        <time>2019-10-10T12:02:11.001Z</time>
      </trkpt>
      <trkpt lat="44.54064" lon="6.28666">
        <ele>875.09</ele>
        <time>2019-10-10T12:02:41.001Z</time>
      </trkpt>
      <trkpt lat="44.54011" lon="6.28768">
        <ele>875.971</ele>
        <time>2019-10-10T12:03:11.001Z</time>
      </trkpt>
      <trkpt lat="44.53956" lon="6.2887">
        <ele>879.216</ele>
        <time>2019-10-10T12:03:41.001Z</time>
      </trkpt>
      <trkpt lat="44.53909" lon="6.28956">
        <ele>879.313</ele>
        <time>2019-10-10T12:05:50.001Z</time>
      </trkpt>
      <trkpt lat="44.53862" lon="6.29112">
        <ele>877.702</ele>
        <time>2019-10-10T12:06:23.001Z</time>
      </trkpt>
      <trkpt lat="44.53833" lon="6.29405">
        <ele>872.084</ele>
        <time>2019-10-10T12:06:53.001Z</time>
      </trkpt>
      <trkpt lat="44.53756" lon="6.29741">
        <ele>864.356</ele>
        <time>2019-10-10T12:07:23.001Z</time>
      </trkpt>
      <trkpt lat="44.53598" lon="6.29936">
        <ele>862.696</ele>
        <time>2019-10-10T12:07:56.001Z</time>
      </trkpt>
      <trkpt lat="44.53516" lon="6.30063">
        <ele>865.752</ele>
        <time>2019-10-10T12:08:26.001Z</time>
      </trkpt>
      <trkpt lat="44.5346" lon="6.30215">
        <ele>866.907</ele>
        <time>2019-10-10T12:08:56.001Z</time>
      </trkpt>
      <trkpt lat="44.53407" lon="6.30376">
        <ele>869.601</ele>
        <time>2019-10-10T12:09:26.001Z</time>
      </trkpt>
      <trkpt lat="44.53338" lon="6.30579">
        <ele>865.646</ele>
        <time>2019-10-10T12:09:59.001Z</time>
      </trkpt>
      <trkpt lat="44.53235" lon="6.30883">
        <ele>861.763</ele>
        <time>2019-10-10T12:10:29.001Z</time>
      </trkpt>
      <trkpt lat="44.53142" lon="6.31162">
        <ele>856.624</ele>
        <time>2019-10-10T12:10:59.001Z</time>
      </trkpt>
      <trkpt lat="44.53087" lon="6.31323">
        <ele>857.065</ele>
        <time>2019-10-10T12:11:29.001Z</time>
      </trkpt>
      <trkpt lat="44.53018" lon="6.31526">
        <ele>856.943</ele>
        <time>2019-10-10T12:12:02Z</time>
      </trkpt>
      <trkpt lat="44.52933" lon="6.31784">
        <ele>851.076</ele>
        <time>2019-10-10T12:12:32.001Z</time>
      </trkpt>
      <trkpt lat="44.53024" lon="6.32205">
        <ele>837.747</ele>
        <time>2019-10-10T12:13:02Z</time>
      </trkpt>
      <trkpt lat="44.5316" lon="6.32721">
        <ele>814.483</ele>
        <time>2019-10-10T12:13:32.001Z</time>
      </trkpt>
      <trkpt lat="44.53063" lon="6.33084">
        <ele>808.093</ele>
        <time>2019-10-10T12:14:05.001Z</time>
      </trkpt>
      <trkpt lat="44.52979" lon="6.33249">
        <ele>810.228</ele>
        <time>2019-10-10T12:14:35.001Z</time>
      </trkpt>
      <trkpt lat="44.52957" lon="6.33273">
        <ele>813.153</ele>
        <time>2019-10-10T12:18:41.001Z</time>
      </trkpt>
      <trkpt lat="44.52951" lon="6.33361">
        <ele>813.271</ele>
        <time>2019-10-10T12:19:20.001Z</time>
      </trkpt>
      <trkpt lat="44.52847" lon="6.33464">
        <ele>813.896</ele>
        <time>2019-10-10T12:19:53.001Z</time>
      </trkpt>
      <trkpt lat="44.52744" lon="6.33556">
        <ele>814.087</ele>
        <time>2019-10-10T12:20:23.001Z</time>
      </trkpt>
      <trkpt lat="44.52667" lon="6.33661">
        <ele>816.138</ele>
        <time>2019-10-10T12:20:53.001Z</time>
      </trkpt>
      <trkpt lat="44.52597" lon="6.33805">
        <ele>817.858</ele>
        <time>2019-10-10T12:21:26.001Z</time>
      </trkpt>
      <trkpt lat="44.52535" lon="6.33936">
        <ele>819.046</ele>
        <time>2019-10-10T12:21:56.001Z</time>
      </trkpt>
      <trkpt lat="44.52473" lon="6.34062">
        <ele>822.775</ele>
        <time>2019-10-10T12:22:26.001Z</time>
      </trkpt>
      <trkpt lat="44.52414" lon="6.34193">
        <ele>822.543</ele>
        <time>2019-10-10T12:22:56.001Z</time>
      </trkpt>
      <trkpt lat="44.52366" lon="6.34369">
        <ele>812.467</ele>
        <time>2019-10-10T12:23:29.001Z</time>
      </trkpt>
      <trkpt lat="44.52372" lon="6.34567">
        <ele>807.81</ele>
        <time>2019-10-10T12:23:59.001Z</time>
      </trkpt>
      <trkpt lat="44.52438" lon="6.34789">
        <ele>813.735</ele>
        <time>2019-10-10T12:24:29.001Z</time>
      </trkpt>
      <trkpt lat="44.52516" lon="6.3506">
        <ele>813.702</ele>
        <time>2019-10-10T12:24:59.001Z</time>
      </trkpt>
      <trkpt lat="44.52577" lon="6.35416">
        <ele>803.831</ele>
        <time>2019-10-10T12:25:32.001Z</time>
      </trkpt>
      <trkpt lat="44.5263" lon="6.35641">
        <ele>799.728</ele>
        <time>2019-10-10T12:26:02Z</time>
      </trkpt>
      <trkpt lat="44.52769" lon="6.35858">
        <ele>798.767</ele>
        <time>2019-10-10T12:26:32.001Z</time>
      </trkpt>
      <trkpt lat="44.52922" lon="6.3611">
        <ele>794.526</ele>
        <time>2019-10-10T12:27:02Z</time>
      </trkpt>
      <trkpt lat="44.52961" lon="6.36418">
        <ele>790.346</ele>
        <time>2019-10-10T12:27:35.001Z</time>
      </trkpt>
      <trkpt lat="44.52997" lon="6.36688">
        <ele>786.998</ele>
        <time>2019-10-10T12:28:05.001Z</time>
      </trkpt>
      <trkpt lat="44.53031" lon="6.36922">
        <ele>783.71</ele>
        <time>2019-10-10T12:28:35.001Z</time>
      </trkpt>
      <trkpt lat="44.53058" lon="6.37124">
        <ele>784.561</ele>
        <time>2019-10-10T12:29:05.001Z</time>
      </trkpt>
      <trkpt lat="44.53092" lon="6.37306">
        <ele>791.557</ele>
        <time>2019-10-10T12:29:38.001Z</time>
      </trkpt>
      <trkpt lat="44.53165" lon="6.37442">
        <ele>793.898</ele>
        <time>2019-10-10T12:30:08.001Z</time>
      </trkpt>
      <trkpt lat="44.53277" lon="6.37556">
        <ele>793.118</ele>
        <time>2019-10-10T12:30:38.001Z</time>
      </trkpt>
      <trkpt lat="44.53419" lon="6.37695">
        <ele>789.171</ele>
        <time>2019-10-10T12:31:08.001Z</time>
      </trkpt>
      <trkpt lat="44.53573" lon="6.37994">
        <ele>781.108</ele>
        <time>2019-10-10T12:31:41.001Z</time>
      </trkpt>
      <trkpt lat="44.53561" lon="6.38241">
        <ele>782.387</ele>
        <time>2019-10-10T12:32:11.001Z</time>
      </trkpt>
      <trkpt lat="44.5355" lon="6.38464">
        <ele>780.655</ele>
        <time>2019-10-10T12:32:41.001Z</time>
      </trkpt>
      <trkpt lat="44.53548" lon="6.38678">
        <ele>782.925</ele>
        <time>2019-10-10T12:33:11.001Z</time>
      </trkpt>
      <trkpt lat="44.53548" lon="6.38916">
        <ele>783.947</ele>
        <time>2019-10-10T12:33:44.001Z</time>
      </trkpt>
      <trkpt lat="44.53518" lon="6.39128">
        <ele>782.083</ele>
        <time>2019-10-10T12:34:14.001Z</time>
      </trkpt>
      <trkpt lat="44.53407" lon="6.3929">
        <ele>779.921</ele>
        <time>2019-10-10T12:34:44.001Z</time>
      </trkpt>
      <trkpt lat="44.53272" lon="6.39427">
        <ele>781.871</ele>
        <time>2019-10-10T12:35:17.001Z</time>
      </trkpt>
      <trkpt lat="44.53153" lon="6.39544">
        <ele>784.538</ele>
        <time>2019-10-10T12:35:47.001Z</time>
      </trkpt>
      <trkpt lat="44.5304" lon="6.3966">
        <ele>782.599</ele>
        <time>2019-10-10T12:36:17.001Z</time>
      </trkpt>
      <trkpt lat="44.52929" lon="6.39774">
        <ele>782.484</ele>
        <time>2019-10-10T12:36:47.001Z</time>
      </trkpt>
      <trkpt lat="44.52807" lon="6.39896">
        <ele>782.485</ele>
        <time>2019-10-10T12:37:20.001Z</time>
      </trkpt>
      <trkpt lat="44.52706" lon="6.4">
        <ele>783.006</ele>
        <time>2019-10-10T12:37:50.001Z</time>
      </trkpt>
      <trkpt lat="44.52648" lon="6.40093">
        <ele>785.864</ele>
        <time>2019-10-10T12:38:20.001Z</time>
      </trkpt>
      <trkpt lat="44.52591" lon="6.40117">
        <ele>792.28</ele>
        <time>2019-10-10T12:38:50.001Z</time>
      </trkpt>
      <trkpt lat="44.52499" lon="6.40066">
        <ele>795.703</ele>
        <time>2019-10-10T12:39:23.001Z</time>
      </trkpt>
      <trkpt lat="44.5243" lon="6.40051">
        <ele>798.703</ele>
        <time>2019-10-10T12:39:53.001Z</time>
      </trkpt>
      <trkpt lat="44.52396" lon="6.4011">
        <ele>804.592</ele>
        <time>2019-10-10T12:40:26.001Z</time>
      </trkpt>
      <trkpt lat="44.52388" lon="6.40125">
        <ele>802.06</ele>
        <time>2019-10-10T12:45:29.001Z</time>
      </trkpt>
      <trkpt lat="44.52363" lon="6.40121">
        <ele>801.809</ele>
        <time>2019-10-10T12:48:44.001Z</time>
      </trkpt>
      <trkpt lat="44.52356" lon="6.40127">
        <ele>802.626</ele>
        <time>2019-10-10T12:50:53.001Z</time>
      </trkpt>
    </trkseg>
  </trk>
  <trk>
    <name><![CDATA[Tracé 20191011-092854]]></name>
    <trkseg>
      <trkpt lat="44.52399" lon="6.40114">
        <ele>802.847</ele>
        <time>2019-10-11T07:29:09Z</time>
      </trkpt>
      <trkpt lat="44.524" lon="6.40112">
        <ele>803.41</ele>
        <time>2019-10-11T07:30:03Z</time>
      </trkpt>
      <trkpt lat="44.52423" lon="6.40057">
        <ele>804.748</ele>
        <time>2019-10-11T07:37:15Z</time>
      </trkpt>
      <trkpt lat="44.52445" lon="6.40027">
        <ele>799.954</ele>
        <time>2019-10-11T07:37:45Z</time>
      </trkpt>
      <trkpt lat="44.52348" lon="6.39965">
        <ele>802.436</ele>
        <time>2019-10-11T07:38:15Z</time>
      </trkpt>
      <trkpt lat="44.52279" lon="6.39829">
        <ele>801.547</ele>
        <time>2019-10-11T07:38:45Z</time>
      </trkpt>
      <trkpt lat="44.52285" lon="6.39645">
        <ele>802.013</ele>
        <time>2019-10-11T07:39:18Z</time>
      </trkpt>
      <trkpt lat="44.52276" lon="6.39481">
        <ele>799.879</ele>
        <time>2019-10-11T07:39:48Z</time>
      </trkpt>
      <trkpt lat="44.52175" lon="6.39395">
        <ele>797.178</ele>
        <time>2019-10-11T07:40:18Z</time>
      </trkpt>
      <trkpt lat="44.52111" lon="6.39267">
        <ele>808.161</ele>
        <time>2019-10-11T07:40:48Z</time>
      </trkpt>
      <trkpt lat="44.52034" lon="6.39133">
        <ele>813.82</ele>
        <time>2019-10-11T07:41:19Z</time>
      </trkpt>
      <trkpt lat="44.51943" lon="6.38997">
        <ele>809.307</ele>
        <time>2019-10-11T07:41:49Z</time>
      </trkpt>
      <trkpt lat="44.51916" lon="6.38838">
        <ele>806.792</ele>
        <time>2019-10-11T07:42:19Z</time>
      </trkpt>
      <trkpt lat="44.51933" lon="6.38666">
        <ele>806.52</ele>
        <time>2019-10-11T07:42:49Z</time>
      </trkpt>
      <trkpt lat="44.51892" lon="6.38511">
        <ele>806.916</ele>
        <time>2019-10-11T07:43:19Z</time>
      </trkpt>
      <trkpt lat="44.51794" lon="6.38413">
        <ele>810.369</ele>
        <time>2019-10-11T07:43:49Z</time>
      </trkpt>
      <trkpt lat="44.51718" lon="6.38301">
        <ele>817.522</ele>
        <time>2019-10-11T07:44:19Z</time>
      </trkpt>
      <trkpt lat="44.51657" lon="6.38138">
        <ele>819.181</ele>
        <time>2019-10-11T07:44:52Z</time>
      </trkpt>
      <trkpt lat="44.51629" lon="6.37983">
        <ele>823.801</ele>
        <time>2019-10-11T07:45:22Z</time>
      </trkpt>
      <trkpt lat="44.51602" lon="6.37862">
        <ele>823.228</ele>
        <time>2019-10-11T07:45:52Z</time>
      </trkpt>
      <trkpt lat="44.51576" lon="6.37784">
        <ele>827.663</ele>
        <time>2019-10-11T07:46:22Z</time>
      </trkpt>
      <trkpt lat="44.51533" lon="6.37713">
        <ele>830.88</ele>
        <time>2019-10-11T07:46:52Z</time>
      </trkpt>
      <trkpt lat="44.5149" lon="6.3765">
        <ele>837.554</ele>
        <time>2019-10-11T07:47:25Z</time>
      </trkpt>
      <trkpt lat="44.51465" lon="6.37577">
        <ele>846.818</ele>
        <time>2019-10-11T07:47:55Z</time>
      </trkpt>
      <trkpt lat="44.51445" lon="6.37499">
        <ele>848.224</ele>
        <time>2019-10-11T07:48:25Z</time>
      </trkpt>
      <trkpt lat="44.51424" lon="6.37416">
        <ele>851.184</ele>
        <time>2019-10-11T07:48:55Z</time>
      </trkpt>
      <trkpt lat="44.51399" lon="6.37325">
        <ele>852.252</ele>
        <time>2019-10-11T07:49:25Z</time>
      </trkpt>
      <trkpt lat="44.51375" lon="6.3721">
        <ele>849.591</ele>
        <time>2019-10-11T07:49:55Z</time>
      </trkpt>
      <trkpt lat="44.51422" lon="6.37117">
        <ele>852.577</ele>
        <time>2019-10-11T07:50:28Z</time>
      </trkpt>
      <trkpt lat="44.5146" lon="6.3704">
        <ele>855.796</ele>
        <time>2019-10-11T07:50:58Z</time>
      </trkpt>
      <trkpt lat="44.51439" lon="6.36952">
        <ele>862.843</ele>
        <time>2019-10-11T07:51:28Z</time>
      </trkpt>
      <trkpt lat="44.51413" lon="6.36878">
        <ele>867.389</ele>
        <time>2019-10-11T07:51:58Z</time>
      </trkpt>
      <trkpt lat="44.5139" lon="6.36809">
        <ele>873.725</ele>
        <time>2019-10-11T07:52:28Z</time>
      </trkpt>
      <trkpt lat="44.51366" lon="6.36742">
        <ele>880.36</ele>
        <time>2019-10-11T07:52:58Z</time>
      </trkpt>
      <trkpt lat="44.51345" lon="6.36659">
        <ele>890.682</ele>
        <time>2019-10-11T07:53:37Z</time>
      </trkpt>
      <trkpt lat="44.51348" lon="6.36589">
        <ele>892.211</ele>
        <time>2019-10-11T07:54:07Z</time>
      </trkpt>
      <trkpt lat="44.51377" lon="6.3652">
        <ele>897.358</ele>
        <time>2019-10-11T07:54:43Z</time>
      </trkpt>
      <trkpt lat="44.51384" lon="6.36446">
        <ele>899.399</ele>
        <time>2019-10-11T07:55:16Z</time>
      </trkpt>
      <trkpt lat="44.51354" lon="6.36378">
        <ele>903.08</ele>
        <time>2019-10-11T07:55:49Z</time>
      </trkpt>
      <trkpt lat="44.51311" lon="6.36313">
        <ele>913.32</ele>
        <time>2019-10-11T07:56:28Z</time>
      </trkpt>
      <trkpt lat="44.51293" lon="6.3622">
        <ele>920.912</ele>
        <time>2019-10-11T07:57:13Z</time>
      </trkpt>
      <trkpt lat="44.51268" lon="6.36149">
        <ele>925.099</ele>
        <time>2019-10-11T07:57:49Z</time>
      </trkpt>
      <trkpt lat="44.51223" lon="6.36102">
        <ele>927.851</ele>
        <time>2019-10-11T07:58:22Z</time>
      </trkpt>
      <trkpt lat="44.51176" lon="6.36043">
        <ele>932.235</ele>
        <time>2019-10-11T07:59:01Z</time>
      </trkpt>
      <trkpt lat="44.51167" lon="6.35969">
        <ele>940.685</ele>
        <time>2019-10-11T07:59:34Z</time>
      </trkpt>
      <trkpt lat="44.51187" lon="6.35897">
        <ele>946.222</ele>
        <time>2019-10-11T08:00:04Z</time>
      </trkpt>
      <trkpt lat="44.5121" lon="6.35822">
        <ele>950.536</ele>
        <time>2019-10-11T08:00:34Z</time>
      </trkpt>
      <trkpt lat="44.5123" lon="6.35737">
        <ele>951.855</ele>
        <time>2019-10-11T08:01:04.001Z</time>
      </trkpt>
      <trkpt lat="44.51215" lon="6.35638">
        <ele>953.457</ele>
        <time>2019-10-11T08:01:34.001Z</time>
      </trkpt>
      <trkpt lat="44.51138" lon="6.35604">
        <ele>950.637</ele>
        <time>2019-10-11T08:02:04.001Z</time>
      </trkpt>
      <trkpt lat="44.51056" lon="6.35652">
        <ele>951.622</ele>
        <time>2019-10-11T08:02:34.001Z</time>
      </trkpt>
      <trkpt lat="44.50992" lon="6.3559">
        <ele>958.047</ele>
        <time>2019-10-11T08:03:07.001Z</time>
      </trkpt>
      <trkpt lat="44.50951" lon="6.35532">
        <ele>964.363</ele>
        <time>2019-10-11T08:03:37.001Z</time>
      </trkpt>
      <trkpt lat="44.50906" lon="6.35471">
        <ele>966.183</ele>
        <time>2019-10-11T08:04:07.001Z</time>
      </trkpt>
      <trkpt lat="44.50889" lon="6.35402">
        <ele>971.29</ele>
        <time>2019-10-11T08:04:37.001Z</time>
      </trkpt>
      <trkpt lat="44.50902" lon="6.35326">
        <ele>976.446</ele>
        <time>2019-10-11T08:05:07.001Z</time>
      </trkpt>
      <trkpt lat="44.50895" lon="6.35255">
        <ele>976.955</ele>
        <time>2019-10-11T08:05:37.001Z</time>
      </trkpt>
      <trkpt lat="44.50879" lon="6.35198">
        <ele>979.037</ele>
        <time>2019-10-11T08:07:49.001Z</time>
      </trkpt>
      <trkpt lat="44.50873" lon="6.35208">
        <ele>981.074</ele>
        <time>2019-10-11T08:08:40.001Z</time>
      </trkpt>
      <trkpt lat="44.50818" lon="6.35176">
        <ele>983.136</ele>
        <time>2019-10-11T08:09:10.001Z</time>
      </trkpt>
      <trkpt lat="44.50761" lon="6.35152">
        <ele>985.668</ele>
        <time>2019-10-11T08:09:40.001Z</time>
      </trkpt>
      <trkpt lat="44.50713" lon="6.35113">
        <ele>991.529</ele>
        <time>2019-10-11T08:10:10.001Z</time>
      </trkpt>
      <trkpt lat="44.50664" lon="6.3506">
        <ele>998.415</ele>
        <time>2019-10-11T08:10:43.001Z</time>
      </trkpt>
      <trkpt lat="44.50606" lon="6.35004">
        <ele>1007.547</ele>
        <time>2019-10-11T08:11:13.001Z</time>
      </trkpt>
      <trkpt lat="44.50541" lon="6.34938">
        <ele>1003.481</ele>
        <time>2019-10-11T08:11:43.001Z</time>
      </trkpt>
      <trkpt lat="44.50464" lon="6.34906">
        <ele>998.767</ele>
        <time>2019-10-11T08:12:13.001Z</time>
      </trkpt>
      <trkpt lat="44.50397" lon="6.34975">
        <ele>996.608</ele>
        <time>2019-10-11T08:12:43.001Z</time>
      </trkpt>
      <trkpt lat="44.50362" lon="6.34889">
        <ele>1000.064</ele>
        <time>2019-10-11T08:13:13.001Z</time>
      </trkpt>
      <trkpt lat="44.50309" lon="6.34861">
        <ele>1005.959</ele>
        <time>2019-10-11T08:13:43.001Z</time>
      </trkpt>
      <trkpt lat="44.5026" lon="6.34838">
        <ele>1013.604</ele>
        <time>2019-10-11T08:14:13.001Z</time>
      </trkpt>
      <trkpt lat="44.50234" lon="6.34783">
        <ele>1015.642</ele>
        <time>2019-10-11T08:14:43.001Z</time>
      </trkpt>
      <trkpt lat="44.50234" lon="6.34709">
        <ele>1022.303</ele>
        <time>2019-10-11T08:15:13.001Z</time>
      </trkpt>
      <trkpt lat="44.50211" lon="6.3464">
        <ele>1025.019</ele>
        <time>2019-10-11T08:15:43.001Z</time>
      </trkpt>
      <trkpt lat="44.50161" lon="6.34593">
        <ele>1025.791</ele>
        <time>2019-10-11T08:16:13.001Z</time>
      </trkpt>
      <trkpt lat="44.50095" lon="6.3456">
        <ele>1030.485</ele>
        <time>2019-10-11T08:16:46.001Z</time>
      </trkpt>
      <trkpt lat="44.50019" lon="6.34545">
        <ele>1028.493</ele>
        <time>2019-10-11T08:17:16Z</time>
      </trkpt>
      <trkpt lat="44.49931" lon="6.34537">
        <ele>1029.781</ele>
        <time>2019-10-11T08:17:46.001Z</time>
      </trkpt>
      <trkpt lat="44.49893" lon="6.34387">
        <ele>1029.549</ele>
        <time>2019-10-11T08:18:16Z</time>
      </trkpt>
      <trkpt lat="44.49783" lon="6.34382">
        <ele>1020.388</ele>
        <time>2019-10-11T08:18:46.001Z</time>
      </trkpt>
      <trkpt lat="44.49746" lon="6.34456">
        <ele>1019.83</ele>
        <time>2019-10-11T08:22:22.001Z</time>
      </trkpt>
      <trkpt lat="44.49607" lon="6.34371">
        <ele>1018.037</ele>
        <time>2019-10-11T08:22:52.001Z</time>
      </trkpt>
      <trkpt lat="44.49476" lon="6.34234">
        <ele>1013.801</ele>
        <time>2019-10-11T08:23:22.001Z</time>
      </trkpt>
      <trkpt lat="44.49429" lon="6.34179">
        <ele>1010.984</ele>
        <time>2019-10-11T08:24:16Z</time>
      </trkpt>
      <trkpt lat="44.49418" lon="6.34177">
        <ele>1013.15</ele>
        <time>2019-10-11T08:44:43.001Z</time>
      </trkpt>
      <trkpt lat="44.49497" lon="6.34057">
        <ele>1018.236</ele>
        <time>2019-10-11T08:47:19.001Z</time>
      </trkpt>
      <trkpt lat="44.49542" lon="6.33852">
        <ele>1014.51</ele>
        <time>2019-10-11T08:47:52.001Z</time>
      </trkpt>
      <trkpt lat="44.49451" lon="6.33609">
        <ele>1006.076</ele>
        <time>2019-10-11T08:48:22.001Z</time>
      </trkpt>
      <trkpt lat="44.49272" lon="6.33428">
        <ele>998.541</ele>
        <time>2019-10-11T08:48:52.001Z</time>
      </trkpt>
      <trkpt lat="44.49179" lon="6.33472">
        <ele>998.3</ele>
        <time>2019-10-11T08:49:22.001Z</time>
      </trkpt>
      <trkpt lat="44.49098" lon="6.33525">
        <ele>1008.445</ele>
        <time>2019-10-11T08:49:52.001Z</time>
      </trkpt>
      <trkpt lat="44.49018" lon="6.33469">
        <ele>1009.303</ele>
        <time>2019-10-11T08:50:22.001Z</time>
      </trkpt>
      <trkpt lat="44.49009" lon="6.33362">
        <ele>1012.214</ele>
        <time>2019-10-11T08:50:52.001Z</time>
      </trkpt>
      <trkpt lat="44.49041" lon="6.33255">
        <ele>1022.312</ele>
        <time>2019-10-11T08:51:22.001Z</time>
      </trkpt>
      <trkpt lat="44.49052" lon="6.33136">
        <ele>1026.579</ele>
        <time>2019-10-11T08:51:52.001Z</time>
      </trkpt>
      <trkpt lat="44.49034" lon="6.33023">
        <ele>1025.188</ele>
        <time>2019-10-11T08:52:22.001Z</time>
      </trkpt>
      <trkpt lat="44.49034" lon="6.32907">
        <ele>1019.347</ele>
        <time>2019-10-11T08:52:52.001Z</time>
      </trkpt>
      <trkpt lat="44.49006" lon="6.3282">
        <ele>1023.615</ele>
        <time>2019-10-11T08:55:31.001Z</time>
      </trkpt>
      <trkpt lat="44.48833" lon="6.32732">
        <ele>1014.242</ele>
        <time>2019-10-11T08:56:01.001Z</time>
      </trkpt>
      <trkpt lat="44.48696" lon="6.32455">
        <ele>1005.343</ele>
        <time>2019-10-11T08:56:31.001Z</time>
      </trkpt>
      <trkpt lat="44.48615" lon="6.32298">
        <ele>1006.322</ele>
        <time>2019-10-11T08:57:01.001Z</time>
      </trkpt>
      <trkpt lat="44.4858" lon="6.32204">
        <ele>1018.991</ele>
        <time>2019-10-11T08:57:31.001Z</time>
      </trkpt>
      <trkpt lat="44.48557" lon="6.32121">
        <ele>1022.268</ele>
        <time>2019-10-11T08:58:01.001Z</time>
      </trkpt>
      <trkpt lat="44.48524" lon="6.32049">
        <ele>1018.248</ele>
        <time>2019-10-11T08:58:31.001Z</time>
      </trkpt>
      <trkpt lat="44.48467" lon="6.31969">
        <ele>1019.565</ele>
        <time>2019-10-11T08:59:01.001Z</time>
      </trkpt>
      <trkpt lat="44.4841" lon="6.31906">
        <ele>1025.232</ele>
        <time>2019-10-11T08:59:31.001Z</time>
      </trkpt>
      <trkpt lat="44.48322" lon="6.31892">
        <ele>1030.954</ele>
        <time>2019-10-11T09:00:01.001Z</time>
      </trkpt>
      <trkpt lat="44.48242" lon="6.31909">
        <ele>1030.332</ele>
        <time>2019-10-11T09:00:31.001Z</time>
      </trkpt>
      <trkpt lat="44.48157" lon="6.31942">
        <ele>1029.792</ele>
        <time>2019-10-11T09:01:01.001Z</time>
      </trkpt>
      <trkpt lat="44.48095" lon="6.31856">
        <ele>1033.175</ele>
        <time>2019-10-11T09:01:34.001Z</time>
      </trkpt>
      <trkpt lat="44.4808" lon="6.31746">
        <ele>1036.661</ele>
        <time>2019-10-11T09:02:04.001Z</time>
      </trkpt>
      <trkpt lat="44.48096" lon="6.31631">
        <ele>1039.221</ele>
        <time>2019-10-11T09:02:34.001Z</time>
      </trkpt>
      <trkpt lat="44.48055" lon="6.3154">
        <ele>1040.232</ele>
        <time>2019-10-11T09:03:04.001Z</time>
      </trkpt>
      <trkpt lat="44.48" lon="6.31516">
        <ele>1040.28</ele>
        <time>2019-10-11T09:03:58.001Z</time>
      </trkpt>
      <trkpt lat="44.47922" lon="6.3151">
        <ele>1043.917</ele>
        <time>2019-10-11T09:04:28.001Z</time>
      </trkpt>
      <trkpt lat="44.47803" lon="6.31603">
        <ele>1040.52</ele>
        <time>2019-10-11T09:04:58.001Z</time>
      </trkpt>
      <trkpt lat="44.47617" lon="6.3172">
        <ele>1017.829</ele>
        <time>2019-10-11T09:05:28.001Z</time>
      </trkpt>
      <trkpt lat="44.47468" lon="6.31766">
        <ele>1000.972</ele>
        <time>2019-10-11T09:05:58.001Z</time>
      </trkpt>
      <trkpt lat="44.47455" lon="6.31822">
        <ele>1001.488</ele>
        <time>2019-10-11T09:07:49.001Z</time>
      </trkpt>
      <trkpt lat="44.47425" lon="6.31827">
        <ele>994.524</ele>
        <time>2019-10-11T09:08:19.001Z</time>
      </trkpt>
      <trkpt lat="44.47479" lon="6.31578">
        <ele>969.658</ele>
        <time>2019-10-11T09:08:52.001Z</time>
      </trkpt>
      <trkpt lat="44.47247" lon="6.31741">
        <ele>936.953</ele>
        <time>2019-10-11T09:09:22.001Z</time>
      </trkpt>
      <trkpt lat="44.471" lon="6.31966">
        <ele>910.856</ele>
        <time>2019-10-11T09:09:52.001Z</time>
      </trkpt>
      <trkpt lat="44.47136" lon="6.32169">
        <ele>904.559</ele>
        <time>2019-10-11T09:11:13.001Z</time>
      </trkpt>
      <trkpt lat="44.47286" lon="6.32454">
        <ele>891.748</ele>
        <time>2019-10-11T09:11:43.001Z</time>
      </trkpt>
      <trkpt lat="44.4719" lon="6.32717">
        <ele>878.597</ele>
        <time>2019-10-11T09:12:13.001Z</time>
      </trkpt>
      <trkpt lat="44.47005" lon="6.32593">
        <ele>871.113</ele>
        <time>2019-10-11T09:12:43.001Z</time>
      </trkpt>
      <trkpt lat="44.47007" lon="6.33053">
        <ele>842.586</ele>
        <time>2019-10-11T09:13:13.001Z</time>
      </trkpt>
      <trkpt lat="44.46856" lon="6.33508">
        <ele>804.053</ele>
        <time>2019-10-11T09:13:43.001Z</time>
      </trkpt>
      <trkpt lat="44.46743" lon="6.33911">
        <ele>781.227</ele>
        <time>2019-10-11T09:14:13.001Z</time>
      </trkpt>
      <trkpt lat="44.46695" lon="6.34196">
        <ele>780.297</ele>
        <time>2019-10-11T09:14:43.001Z</time>
      </trkpt>
      <trkpt lat="44.46711" lon="6.3439">
        <ele>785.293</ele>
        <time>2019-10-11T09:15:16Z</time>
      </trkpt>
      <trkpt lat="44.46734" lon="6.34553">
        <ele>785.445</ele>
        <time>2019-10-11T09:15:46.001Z</time>
      </trkpt>
      <trkpt lat="44.4682" lon="6.34665">
        <ele>791.175</ele>
        <time>2019-10-11T09:16:16Z</time>
      </trkpt>
      <trkpt lat="44.46761" lon="6.34767">
        <ele>786.785</ele>
        <time>2019-10-11T09:16:46.001Z</time>
      </trkpt>
      <trkpt lat="44.46723" lon="6.34894">
        <ele>794.06</ele>
        <time>2019-10-11T09:17:16Z</time>
      </trkpt>
      <trkpt lat="44.46744" lon="6.35089">
        <ele>794.29</ele>
        <time>2019-10-11T09:17:46.001Z</time>
      </trkpt>
      <trkpt lat="44.46698" lon="6.35281">
        <ele>791.35</ele>
        <time>2019-10-11T09:18:16Z</time>
      </trkpt>
      <trkpt lat="44.46636" lon="6.35312">
        <ele>796.508</ele>
        <time>2019-10-11T09:18:46.001Z</time>
      </trkpt>
      <trkpt lat="44.46565" lon="6.35414">
        <ele>796.985</ele>
        <time>2019-10-11T09:19:16Z</time>
      </trkpt>
      <trkpt lat="44.46512" lon="6.35644">
        <ele>792.856</ele>
        <time>2019-10-11T09:19:46.001Z</time>
      </trkpt>
      <trkpt lat="44.46491" lon="6.35777">
        <ele>794.098</ele>
        <time>2019-10-11T09:20:16Z</time>
      </trkpt>
      <trkpt lat="44.465" lon="6.36138">
        <ele>784.567</ele>
        <time>2019-10-11T09:20:49.001Z</time>
      </trkpt>
      <trkpt lat="44.46328" lon="6.36233">
        <ele>782.421</ele>
        <time>2019-10-11T09:21:19.001Z</time>
      </trkpt>
      <trkpt lat="44.46299" lon="6.36415">
        <ele>782.482</ele>
        <time>2019-10-11T09:21:49.001Z</time>
      </trkpt>
      <trkpt lat="44.46325" lon="6.36529">
        <ele>777.081</ele>
        <time>2019-10-11T09:22:19.001Z</time>
      </trkpt>
      <trkpt lat="44.46394" lon="6.36661">
        <ele>779.862</ele>
        <time>2019-10-11T09:22:49.001Z</time>
      </trkpt>
      <trkpt lat="44.46284" lon="6.36886">
        <ele>783.19</ele>
        <time>2019-10-11T09:23:19.001Z</time>
      </trkpt>
      <trkpt lat="44.46187" lon="6.37067">
        <ele>785.871</ele>
        <time>2019-10-11T09:23:49.001Z</time>
      </trkpt>
      <trkpt lat="44.46131" lon="6.37268">
        <ele>786.636</ele>
        <time>2019-10-11T09:24:19.001Z</time>
      </trkpt>
      <trkpt lat="44.46028" lon="6.37435">
        <ele>782.326</ele>
        <time>2019-10-11T09:24:49.001Z</time>
      </trkpt>
      <trkpt lat="44.45971" lon="6.37612">
        <ele>780.273</ele>
        <time>2019-10-11T09:25:19.001Z</time>
      </trkpt>
      <trkpt lat="44.45918" lon="6.37754">
        <ele>782.53</ele>
        <time>2019-10-11T09:25:49.001Z</time>
      </trkpt>
      <trkpt lat="44.45846" lon="6.37859">
        <ele>790.63</ele>
        <time>2019-10-11T09:26:19.001Z</time>
      </trkpt>
      <trkpt lat="44.45848" lon="6.37854">
        <ele>790.246</ele>
        <time>2019-10-11T09:27:34.001Z</time>
      </trkpt>
      <trkpt lat="44.45733" lon="6.38143">
        <ele>785.193</ele>
        <time>2019-10-11T09:46:23.001Z</time>
      </trkpt>
      <trkpt lat="44.45727" lon="6.38267">
        <ele>797.607</ele>
        <time>2019-10-11T09:46:53.001Z</time>
      </trkpt>
      <trkpt lat="44.45728" lon="6.38381">
        <ele>800.221</ele>
        <time>2019-10-11T09:47:23.001Z</time>
      </trkpt>
      <trkpt lat="44.45626" lon="6.38667">
        <ele>808.415</ele>
        <time>2019-10-11T09:48:57.001Z</time>
      </trkpt>
      <trkpt lat="44.45578" lon="6.38752">
        <ele>813.197</ele>
        <time>2019-10-11T09:49:27.001Z</time>
      </trkpt>
      <trkpt lat="44.45551" lon="6.38848">
        <ele>810.247</ele>
        <time>2019-10-11T09:49:57.001Z</time>
      </trkpt>
      <trkpt lat="44.45533" lon="6.38952">
        <ele>814.971</ele>
        <time>2019-10-11T09:50:27.001Z</time>
      </trkpt>
      <trkpt lat="44.45522" lon="6.39063">
        <ele>812.695</ele>
        <time>2019-10-11T09:50:57.001Z</time>
      </trkpt>
      <trkpt lat="44.45496" lon="6.3916">
        <ele>812.004</ele>
        <time>2019-10-11T09:51:27.001Z</time>
      </trkpt>
      <trkpt lat="44.45235" lon="6.39716">
        <ele>822.897</ele>
        <time>2019-10-11T09:56:19.001Z</time>
      </trkpt>
      <trkpt lat="44.45182" lon="6.39808">
        <ele>825.666</ele>
        <time>2019-10-11T09:56:52.001Z</time>
      </trkpt>
      <trkpt lat="44.45165" lon="6.39851">
        <ele>827.285</ele>
        <time>2019-10-11T09:57:43.001Z</time>
      </trkpt>
      <trkpt lat="44.45153" lon="6.39895">
        <ele>830.247</ele>
        <time>2019-10-11T09:59:49.001Z</time>
      </trkpt>
      <trkpt lat="44.45145" lon="6.39932">
        <ele>830.695</ele>
        <time>2019-10-11T10:00:31.001Z</time>
      </trkpt>
      <trkpt lat="44.45133" lon="6.39978">
        <ele>831.337</ele>
        <time>2019-10-11T10:01:13.001Z</time>
      </trkpt>
      <trkpt lat="44.45081" lon="6.40328">
        <ele>838.082</ele>
        <time>2019-10-11T10:04:55.001Z</time>
      </trkpt>
      <trkpt lat="44.45062" lon="6.40369">
        <ele>844.182</ele>
        <time>2019-10-11T10:07:55.001Z</time>
      </trkpt>
      <trkpt lat="44.45047" lon="6.40402">
        <ele>841.175</ele>
        <time>2019-10-11T10:10:34.001Z</time>
      </trkpt>
      <trkpt lat="44.45023" lon="6.40458">
        <ele>839.307</ele>
        <time>2019-10-11T10:13:35.001Z</time>
      </trkpt>
      <trkpt lat="44.44986" lon="6.40523">
        <ele>842.638</ele>
        <time>2019-10-11T10:14:08.001Z</time>
      </trkpt>
      <trkpt lat="44.44947" lon="6.40585">
        <ele>844.539</ele>
        <time>2019-10-11T10:14:38.001Z</time>
      </trkpt>
      <trkpt lat="44.44908" lon="6.40658">
        <ele>848.067</ele>
        <time>2019-10-11T10:15:14.001Z</time>
      </trkpt>
      <trkpt lat="44.44876" lon="6.40722">
        <ele>852.522</ele>
        <time>2019-10-11T10:15:44.001Z</time>
      </trkpt>
      <trkpt lat="44.4484" lon="6.40786">
        <ele>851.992</ele>
        <time>2019-10-11T10:16:17.001Z</time>
      </trkpt>
      <trkpt lat="44.44812" lon="6.4087">
        <ele>851.109</ele>
        <time>2019-10-11T10:16:50.001Z</time>
      </trkpt>
      <trkpt lat="44.44797" lon="6.40956">
        <ele>852.763</ele>
        <time>2019-10-11T10:17:20.001Z</time>
      </trkpt>
      <trkpt lat="44.44802" lon="6.4104">
        <ele>855.867</ele>
        <time>2019-10-11T10:17:53.001Z</time>
      </trkpt>
      <trkpt lat="44.43704" lon="6.4232">
        <ele>892.909</ele>
        <time>2019-10-11T10:33:18.001Z</time>
      </trkpt>
      <trkpt lat="44.43693" lon="6.42333">
        <ele>882.714</ele>
        <time>2019-10-11T10:35:03.001Z</time>
      </trkpt>
      <trkpt lat="44.43647" lon="6.42384">
        <ele>874.934</ele>
        <time>2019-10-11T10:35:36.001Z</time>
      </trkpt>
      <trkpt lat="44.43606" lon="6.42421">
        <ele>875.826</ele>
        <time>2019-10-11T10:38:22.001Z</time>
      </trkpt>
      <trkpt lat="44.4355" lon="6.42474">
        <ele>880.011</ele>
        <time>2019-10-11T10:38:52.001Z</time>
      </trkpt>
      <trkpt lat="44.43492" lon="6.42541">
        <ele>886.502</ele>
        <time>2019-10-11T10:39:22.001Z</time>
      </trkpt>
      <trkpt lat="44.4344" lon="6.4264">
        <ele>891.685</ele>
        <time>2019-10-11T10:39:58.001Z</time>
      </trkpt>
      <trkpt lat="44.43397" lon="6.42714">
        <ele>892.602</ele>
        <time>2019-10-11T10:40:28.001Z</time>
      </trkpt>
      <trkpt lat="44.4334" lon="6.42797">
        <ele>889.682</ele>
        <time>2019-10-11T10:40:58.001Z</time>
      </trkpt>
      <trkpt lat="44.43274" lon="6.42846">
        <ele>892.485</ele>
        <time>2019-10-11T10:41:28.001Z</time>
      </trkpt>
      <trkpt lat="44.432" lon="6.42897">
        <ele>886.123</ele>
        <time>2019-10-11T10:41:58.001Z</time>
      </trkpt>
      <trkpt lat="44.43152" lon="6.42936">
        <ele>892.488</ele>
        <time>2019-10-11T10:43:01.001Z</time>
      </trkpt>
      <trkpt lat="44.43073" lon="6.42982">
        <ele>894.831</ele>
        <time>2019-10-11T10:43:31.001Z</time>
      </trkpt>
      <trkpt lat="44.43012" lon="6.43028">
        <ele>899.274</ele>
        <time>2019-10-11T10:44:01.001Z</time>
      </trkpt>
      <trkpt lat="44.42933" lon="6.43097">
        <ele>899.324</ele>
        <time>2019-10-11T10:44:31.001Z</time>
      </trkpt>
      <trkpt lat="44.42886" lon="6.43195">
        <ele>900.133</ele>
        <time>2019-10-11T10:45:01.001Z</time>
      </trkpt>
      <trkpt lat="44.42843" lon="6.43313">
        <ele>899.69</ele>
        <time>2019-10-11T10:45:31.001Z</time>
      </trkpt>
      <trkpt lat="44.42802" lon="6.43453">
        <ele>898.97</ele>
        <time>2019-10-11T10:46:04.001Z</time>
      </trkpt>
      <trkpt lat="44.42782" lon="6.43504">
        <ele>898.26</ele>
        <time>2019-10-11T10:46:52.001Z</time>
      </trkpt>
      <trkpt lat="44.42776" lon="6.43491">
        <ele>896.835</ele>
        <time>2019-10-11T11:06:01.001Z</time>
      </trkpt>
      <trkpt lat="44.42786" lon="6.43513">
        <ele>899.595</ele>
        <time>2019-10-11T11:11:34.001Z</time>
      </trkpt>
      <trkpt lat="44.4273" lon="6.43608">
        <ele>905.641</ele>
        <time>2019-10-11T11:12:04.001Z</time>
      </trkpt>
      <trkpt lat="44.42653" lon="6.43676">
        <ele>907.725</ele>
        <time>2019-10-11T11:12:34.001Z</time>
      </trkpt>
      <trkpt lat="44.42578" lon="6.43719">
        <ele>901.335</ele>
        <time>2019-10-11T11:13:07.001Z</time>
      </trkpt>
      <trkpt lat="44.42508" lon="6.43829">
        <ele>906.038</ele>
        <time>2019-10-11T11:13:43.001Z</time>
      </trkpt>
      <trkpt lat="44.424" lon="6.43975">
        <ele>904.627</ele>
        <time>2019-10-11T11:14:13.001Z</time>
      </trkpt>
      <trkpt lat="44.42335" lon="6.44106">
        <ele>905.916</ele>
        <time>2019-10-11T11:14:43.001Z</time>
      </trkpt>
      <trkpt lat="44.42285" lon="6.44228">
        <ele>909.011</ele>
        <time>2019-10-11T11:15:13.001Z</time>
      </trkpt>
      <trkpt lat="44.42199" lon="6.44322">
        <ele>913.304</ele>
        <time>2019-10-11T11:15:46.001Z</time>
      </trkpt>
      <trkpt lat="44.42112" lon="6.44379">
        <ele>910.627</ele>
        <time>2019-10-11T11:16:16Z</time>
      </trkpt>
      <trkpt lat="44.42023" lon="6.44432">
        <ele>913.274</ele>
        <time>2019-10-11T11:16:46.001Z</time>
      </trkpt>
      <trkpt lat="44.41951" lon="6.44525">
        <ele>917.23</ele>
        <time>2019-10-11T11:17:16Z</time>
      </trkpt>
      <trkpt lat="44.41875" lon="6.44608">
        <ele>925.024</ele>
        <time>2019-10-11T11:17:46.001Z</time>
      </trkpt>
      <trkpt lat="44.41788" lon="6.44656">
        <ele>929.628</ele>
        <time>2019-10-11T11:18:16Z</time>
      </trkpt>
      <trkpt lat="44.41697" lon="6.44695">
        <ele>929.073</ele>
        <time>2019-10-11T11:18:46.001Z</time>
      </trkpt>
      <trkpt lat="44.41609" lon="6.44733">
        <ele>928.855</ele>
        <time>2019-10-11T11:19:16Z</time>
      </trkpt>
      <trkpt lat="44.41513" lon="6.44761">
        <ele>932.447</ele>
        <time>2019-10-11T11:19:46.001Z</time>
      </trkpt>
      <trkpt lat="44.41418" lon="6.44778">
        <ele>931.728</ele>
        <time>2019-10-11T11:20:16Z</time>
      </trkpt>
      <trkpt lat="44.41326" lon="6.44813">
        <ele>931.442</ele>
        <time>2019-10-11T11:20:46.001Z</time>
      </trkpt>
      <trkpt lat="44.41244" lon="6.44874">
        <ele>930.537</ele>
        <time>2019-10-11T11:21:16Z</time>
      </trkpt>
      <trkpt lat="44.41181" lon="6.45007">
        <ele>936.069</ele>
        <time>2019-10-11T11:21:49.001Z</time>
      </trkpt>
      <trkpt lat="44.41131" lon="6.45162">
        <ele>942.282</ele>
        <time>2019-10-11T11:22:19.001Z</time>
      </trkpt>
      <trkpt lat="44.41027" lon="6.45328">
        <ele>939.655</ele>
        <time>2019-10-11T11:22:49.001Z</time>
      </trkpt>
      <trkpt lat="44.40796" lon="6.45494">
        <ele>933.262</ele>
        <time>2019-10-11T11:23:19.001Z</time>
      </trkpt>
      <trkpt lat="44.40678" lon="6.45675">
        <ele>930.671</ele>
        <time>2019-10-11T11:23:49.001Z</time>
      </trkpt>
      <trkpt lat="44.40602" lon="6.4583">
        <ele>932.414</ele>
        <time>2019-10-11T11:24:19.001Z</time>
      </trkpt>
      <trkpt lat="44.40547" lon="6.45931">
        <ele>934.612</ele>
        <time>2019-10-11T11:24:49.001Z</time>
      </trkpt>
      <trkpt lat="44.40507" lon="6.46026">
        <ele>938.374</ele>
        <time>2019-10-11T11:25:19.001Z</time>
      </trkpt>
      <trkpt lat="44.40471" lon="6.46125">
        <ele>937.465</ele>
        <time>2019-10-11T11:25:49.001Z</time>
      </trkpt>
      <trkpt lat="44.40422" lon="6.4622">
        <ele>939.636</ele>
        <time>2019-10-11T11:26:19.001Z</time>
      </trkpt>
      <trkpt lat="44.40354" lon="6.46279">
        <ele>953.058</ele>
        <time>2019-10-11T11:26:49.001Z</time>
      </trkpt>
      <trkpt lat="44.40269" lon="6.46389">
        <ele>954.593</ele>
        <time>2019-10-11T11:27:22.001Z</time>
      </trkpt>
      <trkpt lat="44.40221" lon="6.46639">
        <ele>951.011</ele>
        <time>2019-10-11T11:27:52.001Z</time>
      </trkpt>
      <trkpt lat="44.40168" lon="6.46841">
        <ele>939.681</ele>
        <time>2019-10-11T11:28:22.001Z</time>
      </trkpt>
      <trkpt lat="44.40125" lon="6.46926">
        <ele>950.646</ele>
        <time>2019-10-11T11:28:52.001Z</time>
      </trkpt>
      <trkpt lat="44.40077" lon="6.47003">
        <ele>962.466</ele>
        <time>2019-10-11T11:29:22.001Z</time>
      </trkpt>
      <trkpt lat="44.40016" lon="6.47045">
        <ele>966.176</ele>
        <time>2019-10-11T11:29:52.001Z</time>
      </trkpt>
      <trkpt lat="44.39947" lon="6.47073">
        <ele>962.379</ele>
        <time>2019-10-11T11:30:22.001Z</time>
      </trkpt>
      <trkpt lat="44.39887" lon="6.47131">
        <ele>964.571</ele>
        <time>2019-10-11T11:30:52.001Z</time>
      </trkpt>
      <trkpt lat="44.39845" lon="6.47224">
        <ele>969.631</ele>
        <time>2019-10-11T11:31:22.001Z</time>
      </trkpt>
      <trkpt lat="44.39802" lon="6.47329">
        <ele>970.461</ele>
        <time>2019-10-11T11:31:52.001Z</time>
      </trkpt>
      <trkpt lat="44.39741" lon="6.47435">
        <ele>970.481</ele>
        <time>2019-10-11T11:32:22.001Z</time>
      </trkpt>
      <trkpt lat="44.39673" lon="6.47607">
        <ele>970.05</ele>
        <time>2019-10-11T11:32:55.001Z</time>
      </trkpt>
      <trkpt lat="44.39694" lon="6.47924">
        <ele>966.211</ele>
        <time>2019-10-11T11:33:25.001Z</time>
      </trkpt>
      <trkpt lat="44.39701" lon="6.48285">
        <ele>962.636</ele>
        <time>2019-10-11T11:33:55.001Z</time>
      </trkpt>
      <trkpt lat="44.39671" lon="6.48511">
        <ele>961.379</ele>
        <time>2019-10-11T11:34:25.001Z</time>
      </trkpt>
      <trkpt lat="44.39736" lon="6.4866">
        <ele>958.709</ele>
        <time>2019-10-11T11:34:55.001Z</time>
      </trkpt>
      <trkpt lat="44.39795" lon="6.48747">
        <ele>964.013</ele>
        <time>2019-10-11T11:35:25.001Z</time>
      </trkpt>
      <trkpt lat="44.39818" lon="6.48844">
        <ele>973.002</ele>
        <time>2019-10-11T11:35:55.001Z</time>
      </trkpt>
      <trkpt lat="44.39827" lon="6.48939">
        <ele>978.163</ele>
        <time>2019-10-11T11:36:25.001Z</time>
      </trkpt>
      <trkpt lat="44.39837" lon="6.49038">
        <ele>984.406</ele>
        <time>2019-10-11T11:36:55.001Z</time>
      </trkpt>
      <trkpt lat="44.3985" lon="6.49147">
        <ele>987.41</ele>
        <time>2019-10-11T11:37:25.001Z</time>
      </trkpt>
      <trkpt lat="44.3986" lon="6.4926">
        <ele>989.847</ele>
        <time>2019-10-11T11:37:55.001Z</time>
      </trkpt>
      <trkpt lat="44.39866" lon="6.49368">
        <ele>991.705</ele>
        <time>2019-10-11T11:38:25.001Z</time>
      </trkpt>
      <trkpt lat="44.39923" lon="6.49447">
        <ele>990.418</ele>
        <time>2019-10-11T11:38:58.001Z</time>
      </trkpt>
      <trkpt lat="44.39984" lon="6.49493">
        <ele>998.372</ele>
        <time>2019-10-11T11:39:28.001Z</time>
      </trkpt>
      <trkpt lat="44.4003" lon="6.49581">
        <ele>1001.824</ele>
        <time>2019-10-11T11:39:58.001Z</time>
      </trkpt>
      <trkpt lat="44.40052" lon="6.49681">
        <ele>1005.63</ele>
        <time>2019-10-11T11:40:28.001Z</time>
      </trkpt>
      <trkpt lat="44.40058" lon="6.49788">
        <ele>1003.953</ele>
        <time>2019-10-11T11:40:58.001Z</time>
      </trkpt>
      <trkpt lat="44.40054" lon="6.49895">
        <ele>1012.909</ele>
        <time>2019-10-11T11:41:28.001Z</time>
      </trkpt>
      <trkpt lat="44.40072" lon="6.49998">
        <ele>1017.199</ele>
        <time>2019-10-11T11:41:58.001Z</time>
      </trkpt>
      <trkpt lat="44.40069" lon="6.5011">
        <ele>1023.304</ele>
        <time>2019-10-11T11:42:28.001Z</time>
      </trkpt>
      <trkpt lat="44.40054" lon="6.50212">
        <ele>1023.118</ele>
        <time>2019-10-11T11:42:58.001Z</time>
      </trkpt>
      <trkpt lat="44.4001" lon="6.50291">
        <ele>1023.299</ele>
        <time>2019-10-11T11:43:28.001Z</time>
      </trkpt>
      <trkpt lat="44.39976" lon="6.50382">
        <ele>1022.05</ele>
        <time>2019-10-11T11:43:58.001Z</time>
      </trkpt>
      <trkpt lat="44.40011" lon="6.50476">
        <ele>1023.122</ele>
        <time>2019-10-11T11:44:31.001Z</time>
      </trkpt>
      <trkpt lat="44.40078" lon="6.50526">
        <ele>1025.913</ele>
        <time>2019-10-11T11:45:01.001Z</time>
      </trkpt>
      <trkpt lat="44.40124" lon="6.50614">
        <ele>1030.024</ele>
        <time>2019-10-11T11:45:31.001Z</time>
      </trkpt>
      <trkpt lat="44.40143" lon="6.50722">
        <ele>1035.81</ele>
        <time>2019-10-11T11:46:01.001Z</time>
      </trkpt>
      <trkpt lat="44.40165" lon="6.50832">
        <ele>1034.987</ele>
        <time>2019-10-11T11:46:31.001Z</time>
      </trkpt>
      <trkpt lat="44.40152" lon="6.50943">
        <ele>1042.404</ele>
        <time>2019-10-11T11:47:01.001Z</time>
      </trkpt>
      <trkpt lat="44.40159" lon="6.51066">
        <ele>1048.102</ele>
        <time>2019-10-11T11:47:31.001Z</time>
      </trkpt>
      <trkpt lat="44.40145" lon="6.51233">
        <ele>1041.941</ele>
        <time>2019-10-11T11:48:01.001Z</time>
      </trkpt>
      <trkpt lat="44.40103" lon="6.51391">
        <ele>1041.587</ele>
        <time>2019-10-11T11:48:31.001Z</time>
      </trkpt>
      <trkpt lat="44.40099" lon="6.51535">
        <ele>1042.411</ele>
        <time>2019-10-11T11:49:01.001Z</time>
      </trkpt>
      <trkpt lat="44.40064" lon="6.51673">
        <ele>1043.269</ele>
        <time>2019-10-11T11:49:31.001Z</time>
      </trkpt>
      <trkpt lat="44.40079" lon="6.51834">
        <ele>1049.158</ele>
        <time>2019-10-11T11:50:04.001Z</time>
      </trkpt>
      <trkpt lat="44.40066" lon="6.51976">
        <ele>1045.553</ele>
        <time>2019-10-11T11:50:34.001Z</time>
      </trkpt>
      <trkpt lat="44.40048" lon="6.52119">
        <ele>1040.993</ele>
        <time>2019-10-11T11:51:04.001Z</time>
      </trkpt>
      <trkpt lat="44.40057" lon="6.52261">
        <ele>1045.735</ele>
        <time>2019-10-11T11:51:34.001Z</time>
      </trkpt>
      <trkpt lat="44.40091" lon="6.52393">
        <ele>1050.113</ele>
        <time>2019-10-11T11:52:04.001Z</time>
      </trkpt>
      <trkpt lat="44.40116" lon="6.52518">
        <ele>1056.175</ele>
        <time>2019-10-11T11:52:34.001Z</time>
      </trkpt>
      <trkpt lat="44.40138" lon="6.52635">
        <ele>1057.283</ele>
        <time>2019-10-11T11:53:04.001Z</time>
      </trkpt>
      <trkpt lat="44.40133" lon="6.52746">
        <ele>1057.832</ele>
        <time>2019-10-11T11:53:34.001Z</time>
      </trkpt>
      <trkpt lat="44.40094" lon="6.52846">
        <ele>1067.022</ele>
        <time>2019-10-11T11:54:04.001Z</time>
      </trkpt>
      <trkpt lat="44.40039" lon="6.52941">
        <ele>1074.114</ele>
        <time>2019-10-11T11:54:34.001Z</time>
      </trkpt>
      <trkpt lat="44.39976" lon="6.53031">
        <ele>1075.277</ele>
        <time>2019-10-11T11:55:04.001Z</time>
      </trkpt>
      <trkpt lat="44.39955" lon="6.53213">
        <ele>1073.603</ele>
        <time>2019-10-11T11:55:34.001Z</time>
      </trkpt>
      <trkpt lat="44.39874" lon="6.53447">
        <ele>1069.753</ele>
        <time>2019-10-11T11:56:07.001Z</time>
      </trkpt>
      <trkpt lat="44.39937" lon="6.53698">
        <ele>1064.402</ele>
        <time>2019-10-11T11:56:37.001Z</time>
      </trkpt>
      <trkpt lat="44.39974" lon="6.53881">
        <ele>1062.813</ele>
        <time>2019-10-11T11:57:07.001Z</time>
      </trkpt>
      <trkpt lat="44.39973" lon="6.5405">
        <ele>1061.494</ele>
        <time>2019-10-11T11:57:37.001Z</time>
      </trkpt>
      <trkpt lat="44.39956" lon="6.54215">
        <ele>1065.408</ele>
        <time>2019-10-11T11:58:07.001Z</time>
      </trkpt>
      <trkpt lat="44.39898" lon="6.54321">
        <ele>1069.605</ele>
        <time>2019-10-11T11:58:37.001Z</time>
      </trkpt>
      <trkpt lat="44.3985" lon="6.54438">
        <ele>1067.763</ele>
        <time>2019-10-11T11:59:07.001Z</time>
      </trkpt>
      <trkpt lat="44.39778" lon="6.5451">
        <ele>1070.985</ele>
        <time>2019-10-11T11:59:37.001Z</time>
      </trkpt>
      <trkpt lat="44.39699" lon="6.54568">
        <ele>1075.301</ele>
        <time>2019-10-11T12:00:07.001Z</time>
      </trkpt>
      <trkpt lat="44.39651" lon="6.54675">
        <ele>1075.733</ele>
        <time>2019-10-11T12:00:37.001Z</time>
      </trkpt>
      <trkpt lat="44.39591" lon="6.54796">
        <ele>1078.028</ele>
        <time>2019-10-11T12:01:07.001Z</time>
      </trkpt>
      <trkpt lat="44.39495" lon="6.54926">
        <ele>1079.318</ele>
        <time>2019-10-11T12:01:40.001Z</time>
      </trkpt>
      <trkpt lat="44.39423" lon="6.55068">
        <ele>1081.4</ele>
        <time>2019-10-11T12:02:10.001Z</time>
      </trkpt>
      <trkpt lat="44.39376" lon="6.55243">
        <ele>1080.282</ele>
        <time>2019-10-11T12:02:40.001Z</time>
      </trkpt>
      <trkpt lat="44.39343" lon="6.55444">
        <ele>1078.991</ele>
        <time>2019-10-11T12:03:10.001Z</time>
      </trkpt>
      <trkpt lat="44.39309" lon="6.55583">
        <ele>1080.094</ele>
        <time>2019-10-11T12:03:40.001Z</time>
      </trkpt>
      <trkpt lat="44.39323" lon="6.55723">
        <ele>1081.647</ele>
        <time>2019-10-11T12:04:10.001Z</time>
      </trkpt>
      <trkpt lat="44.39353" lon="6.55854">
        <ele>1084.194</ele>
        <time>2019-10-11T12:04:40.001Z</time>
      </trkpt>
      <trkpt lat="44.39341" lon="6.55971">
        <ele>1093.372</ele>
        <time>2019-10-11T12:05:10.001Z</time>
      </trkpt>
      <trkpt lat="44.39317" lon="6.56078">
        <ele>1095.859</ele>
        <time>2019-10-11T12:05:40.001Z</time>
      </trkpt>
      <trkpt lat="44.39294" lon="6.56189">
        <ele>1096.32</ele>
        <time>2019-10-11T12:06:10.001Z</time>
      </trkpt>
      <trkpt lat="44.39268" lon="6.56298">
        <ele>1100.944</ele>
        <time>2019-10-11T12:06:40.001Z</time>
      </trkpt>
      <trkpt lat="44.39249" lon="6.56415">
        <ele>1104.079</ele>
        <time>2019-10-11T12:07:13.001Z</time>
      </trkpt>
      <trkpt lat="44.39243" lon="6.56519">
        <ele>1108.166</ele>
        <time>2019-10-11T12:07:43.001Z</time>
      </trkpt>
      <trkpt lat="44.39257" lon="6.56628">
        <ele>1112.857</ele>
        <time>2019-10-11T12:08:13.001Z</time>
      </trkpt>
      <trkpt lat="44.39281" lon="6.56771">
        <ele>1113.031</ele>
        <time>2019-10-11T12:08:43.001Z</time>
      </trkpt>
      <trkpt lat="44.3931" lon="6.56948">
        <ele>1112.842</ele>
        <time>2019-10-11T12:09:13.001Z</time>
      </trkpt>
      <trkpt lat="44.39353" lon="6.57219">
        <ele>1109.992</ele>
        <time>2019-10-11T12:09:43.001Z</time>
      </trkpt>
      <trkpt lat="44.39295" lon="6.57552">
        <ele>1095.472</ele>
        <time>2019-10-11T12:10:13.001Z</time>
      </trkpt>
      <trkpt lat="44.39203" lon="6.57751">
        <ele>1101.777</ele>
        <time>2019-10-11T12:10:43.001Z</time>
      </trkpt>
      <trkpt lat="44.39146" lon="6.57867">
        <ele>1099.789</ele>
        <time>2019-10-11T12:11:13.001Z</time>
      </trkpt>
      <trkpt lat="44.39092" lon="6.57966">
        <ele>1099.683</ele>
        <time>2019-10-11T12:11:43.001Z</time>
      </trkpt>
      <trkpt lat="44.3904" lon="6.58061">
        <ele>1109.185</ele>
        <time>2019-10-11T12:12:13.001Z</time>
      </trkpt>
      <trkpt lat="44.38998" lon="6.5818">
        <ele>1106.422</ele>
        <time>2019-10-11T12:12:43.001Z</time>
      </trkpt>
      <trkpt lat="44.38986" lon="6.5838">
        <ele>1104.832</ele>
        <time>2019-10-11T12:13:16Z</time>
      </trkpt>
      <trkpt lat="44.39012" lon="6.58605">
        <ele>1102.054</ele>
        <time>2019-10-11T12:13:46.001Z</time>
      </trkpt>
      <trkpt lat="44.39076" lon="6.58922">
        <ele>1097.317</ele>
        <time>2019-10-11T12:14:16Z</time>
      </trkpt>
      <trkpt lat="44.39012" lon="6.59156">
        <ele>1103.464</ele>
        <time>2019-10-11T12:14:46.001Z</time>
      </trkpt>
      <trkpt lat="44.3896" lon="6.59287">
        <ele>1109.526</ele>
        <time>2019-10-11T12:15:16Z</time>
      </trkpt>
      <trkpt lat="44.38914" lon="6.59401">
        <ele>1115.875</ele>
        <time>2019-10-11T12:15:46.001Z</time>
      </trkpt>
      <trkpt lat="44.38868" lon="6.59517">
        <ele>1118.075</ele>
        <time>2019-10-11T12:16:16Z</time>
      </trkpt>
      <trkpt lat="44.38822" lon="6.59645">
        <ele>1116.723</ele>
        <time>2019-10-11T12:16:46.001Z</time>
      </trkpt>
      <trkpt lat="44.38783" lon="6.59778">
        <ele>1119.252</ele>
        <time>2019-10-11T12:17:16Z</time>
      </trkpt>
      <trkpt lat="44.38743" lon="6.59924">
        <ele>1117.492</ele>
        <time>2019-10-11T12:17:46.001Z</time>
      </trkpt>
      <trkpt lat="44.387" lon="6.60061">
        <ele>1118.743</ele>
        <time>2019-10-11T12:18:16Z</time>
      </trkpt>
      <trkpt lat="44.38655" lon="6.60221">
        <ele>1116.331</ele>
        <time>2019-10-11T12:18:49.001Z</time>
      </trkpt>
      <trkpt lat="44.3861" lon="6.60365">
        <ele>1120.659</ele>
        <time>2019-10-11T12:19:19.001Z</time>
      </trkpt>
      <trkpt lat="44.38568" lon="6.60528">
        <ele>1126.291</ele>
        <time>2019-10-11T12:19:49.001Z</time>
      </trkpt>
      <trkpt lat="44.38539" lon="6.60706">
        <ele>1120.924</ele>
        <time>2019-10-11T12:20:19.001Z</time>
      </trkpt>
      <trkpt lat="44.38532" lon="6.60897">
        <ele>1118.874</ele>
        <time>2019-10-11T12:20:49.001Z</time>
      </trkpt>
      <trkpt lat="44.38541" lon="6.61083">
        <ele>1117.872</ele>
        <time>2019-10-11T12:21:19.001Z</time>
      </trkpt>
      <trkpt lat="44.38571" lon="6.61278">
        <ele>1117.828</ele>
        <time>2019-10-11T12:21:49.001Z</time>
      </trkpt>
      <trkpt lat="44.38625" lon="6.61524">
        <ele>1118.392</ele>
        <time>2019-10-11T12:22:19.001Z</time>
      </trkpt>
      <trkpt lat="44.38626" lon="6.61772">
        <ele>1113.985</ele>
        <time>2019-10-11T12:22:49.001Z</time>
      </trkpt>
      <trkpt lat="44.38626" lon="6.61981">
        <ele>1116.414</ele>
        <time>2019-10-11T12:23:19.001Z</time>
      </trkpt>
      <trkpt lat="44.38626" lon="6.62187">
        <ele>1115.414</ele>
        <time>2019-10-11T12:23:49.001Z</time>
      </trkpt>
      <trkpt lat="44.38623" lon="6.62415">
        <ele>1119.018</ele>
        <time>2019-10-11T12:24:22.001Z</time>
      </trkpt>
      <trkpt lat="44.3862" lon="6.62609">
        <ele>1121.049</ele>
        <time>2019-10-11T12:24:52.001Z</time>
      </trkpt>
      <trkpt lat="44.38623" lon="6.62805">
        <ele>1122.725</ele>
        <time>2019-10-11T12:25:22.001Z</time>
      </trkpt>
      <trkpt lat="44.38626" lon="6.62999">
        <ele>1125.899</ele>
        <time>2019-10-11T12:25:52.001Z</time>
      </trkpt>
      <trkpt lat="44.3862" lon="6.63184">
        <ele>1126.645</ele>
        <time>2019-10-11T12:26:22.001Z</time>
      </trkpt>
      <trkpt lat="44.38626" lon="6.63392">
        <ele>1126.303</ele>
        <time>2019-10-11T12:26:52.001Z</time>
      </trkpt>
      <trkpt lat="44.38625" lon="6.63588">
        <ele>1123.19</ele>
        <time>2019-10-11T12:27:22.001Z</time>
      </trkpt>
      <trkpt lat="44.38622" lon="6.63777">
        <ele>1126.611</ele>
        <time>2019-10-11T12:27:52.001Z</time>
      </trkpt>
      <trkpt lat="44.38627" lon="6.63979">
        <ele>1126.369</ele>
        <time>2019-10-11T12:28:22.001Z</time>
      </trkpt>
      <trkpt lat="44.38626" lon="6.64178">
        <ele>1127.267</ele>
        <time>2019-10-11T12:28:52.001Z</time>
      </trkpt>
      <trkpt lat="44.38595" lon="6.64373">
        <ele>1130.275</ele>
        <time>2019-10-11T12:29:22.001Z</time>
      </trkpt>
      <trkpt lat="44.38556" lon="6.64588">
        <ele>1132.325</ele>
        <time>2019-10-11T12:29:55.001Z</time>
      </trkpt>
      <trkpt lat="44.38514" lon="6.64772">
        <ele>1133.887</ele>
        <time>2019-10-11T12:30:25.001Z</time>
      </trkpt>
      <trkpt lat="44.38506" lon="6.64893">
        <ele>1133.397</ele>
        <time>2019-10-11T12:30:55.001Z</time>
      </trkpt>
      <trkpt lat="44.38582" lon="6.65072">
        <ele>1132.568</ele>
        <time>2019-10-11T12:31:25.001Z</time>
      </trkpt>
      <trkpt lat="44.38522" lon="6.65134">
        <ele>1132.092</ele>
        <time>2019-10-11T12:31:55.001Z</time>
      </trkpt>
      <trkpt lat="44.38522" lon="6.65195">
        <ele>1135.204</ele>
        <time>2019-10-11T12:55:19.001Z</time>
      </trkpt>
      <trkpt lat="44.38487" lon="6.65234">
        <ele>1137.543</ele>
        <time>2019-10-11T12:56:04.001Z</time>
      </trkpt>
      <trkpt lat="44.38513" lon="6.65373">
        <ele>1140.358</ele>
        <time>2019-10-11T12:56:34.001Z</time>
      </trkpt>
      <trkpt lat="44.38516" lon="6.65457">
        <ele>1136.149</ele>
        <time>2019-10-11T12:57:10.001Z</time>
      </trkpt>
      <trkpt lat="44.38522" lon="6.65598">
        <ele>1140.375</ele>
        <time>2019-10-11T12:57:40.001Z</time>
      </trkpt>
      <trkpt lat="44.38519" lon="6.65743">
        <ele>1142.942</ele>
        <time>2019-10-11T12:58:10.001Z</time>
      </trkpt>
      <trkpt lat="44.38615" lon="6.65757">
        <ele>1141.843</ele>
        <time>2019-10-11T12:58:40.001Z</time>
      </trkpt>
      <trkpt lat="44.38749" lon="6.65728">
        <ele>1140.918</ele>
        <time>2019-10-11T12:59:13.001Z</time>
      </trkpt>
      <trkpt lat="44.388" lon="6.65843">
        <ele>1139.708</ele>
        <time>2019-10-11T12:59:43.001Z</time>
      </trkpt>
      <trkpt lat="44.3882" lon="6.66008">
        <ele>1142.254</ele>
        <time>2019-10-11T13:00:13.001Z</time>
      </trkpt>
      <trkpt lat="44.38837" lon="6.6618">
        <ele>1140.634</ele>
        <time>2019-10-11T13:00:43.001Z</time>
      </trkpt>
      <trkpt lat="44.3888" lon="6.66342">
        <ele>1143.284</ele>
        <time>2019-10-11T13:01:13.001Z</time>
      </trkpt>
      <trkpt lat="44.38946" lon="6.66481">
        <ele>1152.23</ele>
        <time>2019-10-11T13:01:43.001Z</time>
      </trkpt>
      <trkpt lat="44.39005" lon="6.66623">
        <ele>1144.448</ele>
        <time>2019-10-11T13:02:13.001Z</time>
      </trkpt>
      <trkpt lat="44.38995" lon="6.66781">
        <ele>1145.354</ele>
        <time>2019-10-11T13:02:43.001Z</time>
      </trkpt>
      <trkpt lat="44.39026" lon="6.66931">
        <ele>1147.847</ele>
        <time>2019-10-11T13:03:13.001Z</time>
      </trkpt>
      <trkpt lat="44.39111" lon="6.67055">
        <ele>1149.088</ele>
        <time>2019-10-11T13:03:43.001Z</time>
      </trkpt>
      <trkpt lat="44.39135" lon="6.67212">
        <ele>1151.537</ele>
        <time>2019-10-11T13:04:13.001Z</time>
      </trkpt>
      <trkpt lat="44.39136" lon="6.6739">
        <ele>1157.829</ele>
        <time>2019-10-11T13:04:46.001Z</time>
      </trkpt>
      <trkpt lat="44.39138" lon="6.67548">
        <ele>1161.046</ele>
        <time>2019-10-11T13:05:16Z</time>
      </trkpt>
      <trkpt lat="44.39146" lon="6.6771">
        <ele>1162.126</ele>
        <time>2019-10-11T13:05:46.001Z</time>
      </trkpt>
      <trkpt lat="44.3915" lon="6.67869">
        <ele>1160.471</ele>
        <time>2019-10-11T13:06:16Z</time>
      </trkpt>
      <trkpt lat="44.39152" lon="6.68036">
        <ele>1160.232</ele>
        <time>2019-10-11T13:06:46.001Z</time>
      </trkpt>
      <trkpt lat="44.39157" lon="6.68201">
        <ele>1164.004</ele>
        <time>2019-10-11T13:07:16Z</time>
      </trkpt>
      <trkpt lat="44.39176" lon="6.68372">
        <ele>1163.675</ele>
        <time>2019-10-11T13:07:46.001Z</time>
      </trkpt>
      <trkpt lat="44.39223" lon="6.68544">
        <ele>1166.367</ele>
        <time>2019-10-11T13:08:16Z</time>
      </trkpt>
      <trkpt lat="44.39287" lon="6.68701">
        <ele>1165.311</ele>
        <time>2019-10-11T13:08:46.001Z</time>
      </trkpt>
      <trkpt lat="44.39359" lon="6.6882">
        <ele>1165.498</ele>
        <time>2019-10-11T13:09:16Z</time>
      </trkpt>
      <trkpt lat="44.3945" lon="6.68962">
        <ele>1167.255</ele>
        <time>2019-10-11T13:09:46.001Z</time>
      </trkpt>
      <trkpt lat="44.39568" lon="6.69102">
        <ele>1169.301</ele>
        <time>2019-10-11T13:10:19.001Z</time>
      </trkpt>
      <trkpt lat="44.39674" lon="6.69195">
        <ele>1179.269</ele>
        <time>2019-10-11T13:10:49.001Z</time>
      </trkpt>
      <trkpt lat="44.39786" lon="6.69288">
        <ele>1175.99</ele>
        <time>2019-10-11T13:11:19.001Z</time>
      </trkpt>
      <trkpt lat="44.39909" lon="6.69391">
        <ele>1173.427</ele>
        <time>2019-10-11T13:11:49.001Z</time>
      </trkpt>
      <trkpt lat="44.39986" lon="6.69532">
        <ele>1174.482</ele>
        <time>2019-10-11T13:12:19.001Z</time>
      </trkpt>
      <trkpt lat="44.40041" lon="6.69692">
        <ele>1176.944</ele>
        <time>2019-10-11T13:12:49.001Z</time>
      </trkpt>
      <trkpt lat="44.40096" lon="6.69847">
        <ele>1177.231</ele>
        <time>2019-10-11T13:13:19.001Z</time>
      </trkpt>
      <trkpt lat="44.40152" lon="6.7001">
        <ele>1180.415</ele>
        <time>2019-10-11T13:13:49.001Z</time>
      </trkpt>
      <trkpt lat="44.40232" lon="6.70151">
        <ele>1181.322</ele>
        <time>2019-10-11T13:14:19.001Z</time>
      </trkpt>
      <trkpt lat="44.4039" lon="6.7024">
        <ele>1180.353</ele>
        <time>2019-10-11T13:14:49.001Z</time>
      </trkpt>
      <trkpt lat="44.40456" lon="6.70479">
        <ele>1174.602</ele>
        <time>2019-10-11T13:15:19.001Z</time>
      </trkpt>
      <trkpt lat="44.4048" lon="6.70579">
        <ele>1177.224</ele>
        <time>2019-10-11T13:16:01.001Z</time>
      </trkpt>
      <trkpt lat="44.40484" lon="6.70796">
        <ele>1179.357</ele>
        <time>2019-10-11T13:16:34.001Z</time>
      </trkpt>
      <trkpt lat="44.40482" lon="6.70971">
        <ele>1182.878</ele>
        <time>2019-10-11T13:17:04.001Z</time>
      </trkpt>
      <trkpt lat="44.40483" lon="6.71128">
        <ele>1185.677</ele>
        <time>2019-10-11T13:17:34.001Z</time>
      </trkpt>
      <trkpt lat="44.40502" lon="6.71279">
        <ele>1190.741</ele>
        <time>2019-10-11T13:18:04.001Z</time>
      </trkpt>
      <trkpt lat="44.40527" lon="6.71426">
        <ele>1192.442</ele>
        <time>2019-10-11T13:18:34.001Z</time>
      </trkpt>
      <trkpt lat="44.40548" lon="6.71574">
        <ele>1197.765</ele>
        <time>2019-10-11T13:19:04.001Z</time>
      </trkpt>
      <trkpt lat="44.40573" lon="6.71724">
        <ele>1199.104</ele>
        <time>2019-10-11T13:19:34.001Z</time>
      </trkpt>
      <trkpt lat="44.406" lon="6.7186">
        <ele>1205.341</ele>
        <time>2019-10-11T13:20:04.001Z</time>
      </trkpt>
      <trkpt lat="44.40644" lon="6.72">
        <ele>1203.08</ele>
        <time>2019-10-11T13:20:34.001Z</time>
      </trkpt>
      <trkpt lat="44.40686" lon="6.72148">
        <ele>1205.308</ele>
        <time>2019-10-11T13:21:04.001Z</time>
      </trkpt>
      <trkpt lat="44.40752" lon="6.72308">
        <ele>1205.493</ele>
        <time>2019-10-11T13:21:34.001Z</time>
      </trkpt>
      <trkpt lat="44.40838" lon="6.72488">
        <ele>1207.036</ele>
        <time>2019-10-11T13:22:07.001Z</time>
      </trkpt>
      <trkpt lat="44.40919" lon="6.7265">
        <ele>1204.673</ele>
        <time>2019-10-11T13:22:37.001Z</time>
      </trkpt>
      <trkpt lat="44.41015" lon="6.72786">
        <ele>1207.96</ele>
        <time>2019-10-11T13:23:07.001Z</time>
      </trkpt>
      <trkpt lat="44.41174" lon="6.72884">
        <ele>1209.93</ele>
        <time>2019-10-11T13:23:37.001Z</time>
      </trkpt>
      <trkpt lat="44.4134" lon="6.72896">
        <ele>1206.105</ele>
        <time>2019-10-11T13:24:07.001Z</time>
      </trkpt>
      <trkpt lat="44.41357" lon="6.72857">
        <ele>1212.609</ele>
        <time>2019-10-11T13:26:07.001Z</time>
      </trkpt>
      <trkpt lat="44.41363" lon="6.72849">
        <ele>1212.118</ele>
        <time>2019-10-11T13:48:01.001Z</time>
      </trkpt>
      <trkpt lat="44.41376" lon="6.72871">
        <ele>1211.24</ele>
        <time>2019-10-11T13:52:25.001Z</time>
      </trkpt>
      <trkpt lat="44.41367" lon="6.72854">
        <ele>1214.105</ele>
        <time>2019-10-11T13:57:22.001Z</time>
      </trkpt>
      <trkpt lat="44.41367" lon="6.7285">
        <ele>1213.555</ele>
        <time>2019-10-11T14:00:43.001Z</time>
      </trkpt>
      <trkpt lat="44.41363" lon="6.72872">
        <ele>1212.184</ele>
        <time>2019-10-11T14:02:01.001Z</time>
      </trkpt>
      <trkpt lat="44.41369" lon="6.7288">
        <ele>1211.085</ele>
        <time>2019-10-11T14:04:16Z</time>
      </trkpt>
      <trkpt lat="44.41368" lon="6.72881">
        <ele>1211.325</ele>
        <time>2019-10-11T14:05:07.001Z</time>
      </trkpt>
      <trkpt lat="44.41369" lon="6.72877">
        <ele>1211.084</ele>
        <time>2019-10-11T14:06:19.001Z</time>
      </trkpt>
      <trkpt lat="44.41363" lon="6.72858">
        <ele>1211.36</ele>
        <time>2019-10-11T14:13:30.001Z</time>
      </trkpt>
      <trkpt lat="44.41374" lon="6.72853">
        <ele>1212.2</ele>
        <time>2019-10-11T14:21:18.001Z</time>
      </trkpt>
      <trkpt lat="44.4136" lon="6.72864">
        <ele>1224.991</ele>
        <time>2019-10-11T14:22:06.001Z</time>
      </trkpt>
    </trkseg>
  </trk>
  <trk>
    <name><![CDATA[Tracé 20191012-093644]]></name>
    <trkseg>
      <trkpt lat="44.41359" lon="6.72849">
        <ele>1225.409</ele>
        <time>2019-10-12T07:37:44Z</time>
      </trkpt>
      <trkpt lat="44.41355" lon="6.72875">
        <ele>1221.23</ele>
        <time>2019-10-12T07:45:47Z</time>
      </trkpt>
      <trkpt lat="44.41417" lon="6.72873">
        <ele>1215.863</ele>
        <time>2019-10-12T07:46:17Z</time>
      </trkpt>
      <trkpt lat="44.41562" lon="6.72831">
        <ele>1212.18</ele>
        <time>2019-10-12T07:46:47Z</time>
      </trkpt>
      <trkpt lat="44.41703" lon="6.72923">
        <ele>1214.36</ele>
        <time>2019-10-12T07:47:20Z</time>
      </trkpt>
      <trkpt lat="44.41806" lon="6.73074">
        <ele>1210.651</ele>
        <time>2019-10-12T07:47:50Z</time>
      </trkpt>
      <trkpt lat="44.41864" lon="6.73255">
        <ele>1216.102</ele>
        <time>2019-10-12T07:48:20Z</time>
      </trkpt>
      <trkpt lat="44.41954" lon="6.73408">
        <ele>1217.834</ele>
        <time>2019-10-12T07:48:50Z</time>
      </trkpt>
      <trkpt lat="44.42011" lon="6.73577">
        <ele>1220.558</ele>
        <time>2019-10-12T07:49:20Z</time>
      </trkpt>
      <trkpt lat="44.42027" lon="6.73739">
        <ele>1217.208</ele>
        <time>2019-10-12T07:49:50Z</time>
      </trkpt>
      <trkpt lat="44.42" lon="6.73918">
        <ele>1217.885</ele>
        <time>2019-10-12T07:50:20Z</time>
      </trkpt>
      <trkpt lat="44.4189" lon="6.74046">
        <ele>1216.806</ele>
        <time>2019-10-12T07:50:50Z</time>
      </trkpt>
      <trkpt lat="44.4178" lon="6.74135">
        <ele>1223.35</ele>
        <time>2019-10-12T07:51:23Z</time>
      </trkpt>
      <trkpt lat="44.41705" lon="6.74212">
        <ele>1228.263</ele>
        <time>2019-10-12T07:51:53Z</time>
      </trkpt>
      <trkpt lat="44.41627" lon="6.74308">
        <ele>1232.244</ele>
        <time>2019-10-12T07:52:23Z</time>
      </trkpt>
      <trkpt lat="44.41562" lon="6.74397">
        <ele>1233.955</ele>
        <time>2019-10-12T07:52:53Z</time>
      </trkpt>
      <trkpt lat="44.41528" lon="6.74511">
        <ele>1240.772</ele>
        <time>2019-10-12T07:53:23Z</time>
      </trkpt>
      <trkpt lat="44.41512" lon="6.74622">
        <ele>1250.19</ele>
        <time>2019-10-12T07:53:53Z</time>
      </trkpt>
      <trkpt lat="44.41486" lon="6.74722">
        <ele>1256.374</ele>
        <time>2019-10-12T07:54:23Z</time>
      </trkpt>
      <trkpt lat="44.41454" lon="6.7483">
        <ele>1263.977</ele>
        <time>2019-10-12T07:54:56Z</time>
      </trkpt>
      <trkpt lat="44.41478" lon="6.7492">
        <ele>1266.761</ele>
        <time>2019-10-12T07:55:26Z</time>
      </trkpt>
      <trkpt lat="44.41521" lon="6.75017">
        <ele>1266.261</ele>
        <time>2019-10-12T07:55:56Z</time>
      </trkpt>
      <trkpt lat="44.41548" lon="6.75097">
        <ele>1273.42</ele>
        <time>2019-10-12T07:56:26Z</time>
      </trkpt>
      <trkpt lat="44.41477" lon="6.75138">
        <ele>1272.842</ele>
        <time>2019-10-12T07:56:56Z</time>
      </trkpt>
      <trkpt lat="44.4148" lon="6.7521">
        <ele>1284.466</ele>
        <time>2019-10-12T07:57:26Z</time>
      </trkpt>
      <trkpt lat="44.41486" lon="6.75279">
        <ele>1288.835</ele>
        <time>2019-10-12T07:57:56Z</time>
      </trkpt>
      <trkpt lat="44.41436" lon="6.752">
        <ele>1300.948</ele>
        <time>2019-10-12T07:58:32Z</time>
      </trkpt>
      <trkpt lat="44.41363" lon="6.75149">
        <ele>1299.818</ele>
        <time>2019-10-12T07:59:05Z</time>
      </trkpt>
      <trkpt lat="44.41299" lon="6.7511">
        <ele>1302.176</ele>
        <time>2019-10-12T07:59:35Z</time>
      </trkpt>
      <trkpt lat="44.41305" lon="6.75148">
        <ele>1312.3</ele>
        <time>2019-10-12T08:00:05Z</time>
      </trkpt>
      <trkpt lat="44.41332" lon="6.75216">
        <ele>1320.006</ele>
        <time>2019-10-12T08:00:35Z</time>
      </trkpt>
      <trkpt lat="44.41354" lon="6.75295">
        <ele>1323.954</ele>
        <time>2019-10-12T08:01:05Z</time>
      </trkpt>
      <trkpt lat="44.41363" lon="6.75392">
        <ele>1328.94</ele>
        <time>2019-10-12T08:01:35Z</time>
      </trkpt>
      <trkpt lat="44.41327" lon="6.7536">
        <ele>1331.002</ele>
        <time>2019-10-12T08:02:05Z</time>
      </trkpt>
      <trkpt lat="44.41283" lon="6.75294">
        <ele>1340.439</ele>
        <time>2019-10-12T08:02:38Z</time>
      </trkpt>
      <trkpt lat="44.41244" lon="6.75313">
        <ele>1346.083</ele>
        <time>2019-10-12T08:03:11Z</time>
      </trkpt>
      <trkpt lat="44.4127" lon="6.75381">
        <ele>1354.669</ele>
        <time>2019-10-12T08:03:41Z</time>
      </trkpt>
      <trkpt lat="44.41299" lon="6.75464">
        <ele>1354.672</ele>
        <time>2019-10-12T08:04:11Z</time>
      </trkpt>
      <trkpt lat="44.41299" lon="6.75548">
        <ele>1359.046</ele>
        <time>2019-10-12T08:04:41Z</time>
      </trkpt>
      <trkpt lat="44.41266" lon="6.75566">
        <ele>1358.72</ele>
        <time>2019-10-12T08:05:11Z</time>
      </trkpt>
      <trkpt lat="44.41271" lon="6.75492">
        <ele>1367.83</ele>
        <time>2019-10-12T08:05:41Z</time>
      </trkpt>
      <trkpt lat="44.41234" lon="6.75429">
        <ele>1366.072</ele>
        <time>2019-10-12T08:06:11Z</time>
      </trkpt>
      <trkpt lat="44.41184" lon="6.75363">
        <ele>1372.789</ele>
        <time>2019-10-12T08:06:44Z</time>
      </trkpt>
      <trkpt lat="44.4114" lon="6.75304">
        <ele>1376.646</ele>
        <time>2019-10-12T08:07:14Z</time>
      </trkpt>
      <trkpt lat="44.41126" lon="6.7523">
        <ele>1386.085</ele>
        <time>2019-10-12T08:07:44Z</time>
      </trkpt>
      <trkpt lat="44.41119" lon="6.75144">
        <ele>1390.766</ele>
        <time>2019-10-12T08:08:14Z</time>
      </trkpt>
      <trkpt lat="44.41097" lon="6.75108">
        <ele>1392.047</ele>
        <time>2019-10-12T08:08:44Z</time>
      </trkpt>
      <trkpt lat="44.41088" lon="6.75195">
        <ele>1399.938</ele>
        <time>2019-10-12T08:09:14Z</time>
      </trkpt>
      <trkpt lat="44.41067" lon="6.75274">
        <ele>1401.226</ele>
        <time>2019-10-12T08:09:44Z</time>
      </trkpt>
      <trkpt lat="44.41015" lon="6.7532">
        <ele>1402.442</ele>
        <time>2019-10-12T08:10:14Z</time>
      </trkpt>
      <trkpt lat="44.40947" lon="6.7534">
        <ele>1406.862</ele>
        <time>2019-10-12T08:10:47Z</time>
      </trkpt>
      <trkpt lat="44.40889" lon="6.75349">
        <ele>1413.633</ele>
        <time>2019-10-12T08:11:17Z</time>
      </trkpt>
      <trkpt lat="44.40843" lon="6.75396">
        <ele>1418.401</ele>
        <time>2019-10-12T08:11:47Z</time>
      </trkpt>
      <trkpt lat="44.40784" lon="6.75412">
        <ele>1424.203</ele>
        <time>2019-10-12T08:12:20Z</time>
      </trkpt>
      <trkpt lat="44.40734" lon="6.75448">
        <ele>1430.083</ele>
        <time>2019-10-12T08:12:50Z</time>
      </trkpt>
      <trkpt lat="44.40715" lon="6.75519">
        <ele>1434.917</ele>
        <time>2019-10-12T08:13:20Z</time>
      </trkpt>
      <trkpt lat="44.40667" lon="6.7552">
        <ele>1440.75</ele>
        <time>2019-10-12T08:13:50Z</time>
      </trkpt>
      <trkpt lat="44.40626" lon="6.75456">
        <ele>1444.191</ele>
        <time>2019-10-12T08:14:20Z</time>
      </trkpt>
      <trkpt lat="44.40567" lon="6.75493">
        <ele>1448.799</ele>
        <time>2019-10-12T08:14:53Z</time>
      </trkpt>
      <trkpt lat="44.4056" lon="6.75593">
        <ele>1449.036</ele>
        <time>2019-10-12T08:15:23Z</time>
      </trkpt>
      <trkpt lat="44.40539" lon="6.7568">
        <ele>1453.595</ele>
        <time>2019-10-12T08:15:53Z</time>
      </trkpt>
      <trkpt lat="44.40502" lon="6.75755">
        <ele>1457.563</ele>
        <time>2019-10-12T08:16:23Z</time>
      </trkpt>
      <trkpt lat="44.40512" lon="6.75846">
        <ele>1460.08</ele>
        <time>2019-10-12T08:16:53Z</time>
      </trkpt>
      <trkpt lat="44.40504" lon="6.75929">
        <ele>1465.716</ele>
        <time>2019-10-12T08:17:23Z</time>
      </trkpt>
      <trkpt lat="44.40468" lon="6.76004">
        <ele>1472.484</ele>
        <time>2019-10-12T08:17:53Z</time>
      </trkpt>
      <trkpt lat="44.40418" lon="6.76054">
        <ele>1478.942</ele>
        <time>2019-10-12T08:18:26Z</time>
      </trkpt>
      <trkpt lat="44.40361" lon="6.76088">
        <ele>1481.087</ele>
        <time>2019-10-12T08:18:56Z</time>
      </trkpt>
      <trkpt lat="44.40342" lon="6.76179">
        <ele>1481.178</ele>
        <time>2019-10-12T08:19:26Z</time>
      </trkpt>
      <trkpt lat="44.40331" lon="6.76267">
        <ele>1486.176</ele>
        <time>2019-10-12T08:19:56Z</time>
      </trkpt>
      <trkpt lat="44.40302" lon="6.76351">
        <ele>1492.927</ele>
        <time>2019-10-12T08:20:26Z</time>
      </trkpt>
      <trkpt lat="44.4027" lon="6.7643">
        <ele>1497.714</ele>
        <time>2019-10-12T08:20:56Z</time>
      </trkpt>
      <trkpt lat="44.4025" lon="6.76516">
        <ele>1500.066</ele>
        <time>2019-10-12T08:21:26Z</time>
      </trkpt>
      <trkpt lat="44.40233" lon="6.7659">
        <ele>1501.371</ele>
        <time>2019-10-12T08:21:56Z</time>
      </trkpt>
      <trkpt lat="44.40167" lon="6.76592">
        <ele>1504.696</ele>
        <time>2019-10-12T08:22:29Z</time>
      </trkpt>
      <trkpt lat="44.40117" lon="6.7663">
        <ele>1516.043</ele>
        <time>2019-10-12T08:22:59Z</time>
      </trkpt>
      <trkpt lat="44.40081" lon="6.76692">
        <ele>1521.715</ele>
        <time>2019-10-12T08:23:29Z</time>
      </trkpt>
      <trkpt lat="44.40039" lon="6.76746">
        <ele>1523.787</ele>
        <time>2019-10-12T08:23:59Z</time>
      </trkpt>
      <trkpt lat="44.39992" lon="6.7679">
        <ele>1529.689</ele>
        <time>2019-10-12T08:24:29Z</time>
      </trkpt>
      <trkpt lat="44.39935" lon="6.76824">
        <ele>1537.781</ele>
        <time>2019-10-12T08:25:05Z</time>
      </trkpt>
      <trkpt lat="44.39891" lon="6.7688">
        <ele>1542.031</ele>
        <time>2019-10-12T08:25:35Z</time>
      </trkpt>
      <trkpt lat="44.39835" lon="6.76885">
        <ele>1547.553</ele>
        <time>2019-10-12T08:26:05Z</time>
      </trkpt>
      <trkpt lat="44.39791" lon="6.76826">
        <ele>1555.577</ele>
        <time>2019-10-12T08:26:41Z</time>
      </trkpt>
      <trkpt lat="44.39752" lon="6.76766">
        <ele>1559.748</ele>
        <time>2019-10-12T08:27:14Z</time>
      </trkpt>
      <trkpt lat="44.39701" lon="6.76734">
        <ele>1560.619</ele>
        <time>2019-10-12T08:27:47Z</time>
      </trkpt>
      <trkpt lat="44.3965" lon="6.76739">
        <ele>1566.364</ele>
        <time>2019-10-12T08:28:17Z</time>
      </trkpt>
      <trkpt lat="44.39593" lon="6.76734">
        <ele>1571.023</ele>
        <time>2019-10-12T08:28:50Z</time>
      </trkpt>
      <trkpt lat="44.39544" lon="6.76762">
        <ele>1576.304</ele>
        <time>2019-10-12T08:29:23Z</time>
      </trkpt>
      <trkpt lat="44.395" lon="6.76812">
        <ele>1582.608</ele>
        <time>2019-10-12T08:38:17Z</time>
      </trkpt>
      <trkpt lat="44.39469" lon="6.76877">
        <ele>1587.115</ele>
        <time>2019-10-12T08:38:47Z</time>
      </trkpt>
      <trkpt lat="44.39452" lon="6.76954">
        <ele>1589.951</ele>
        <time>2019-10-12T08:39:20Z</time>
      </trkpt>
      <trkpt lat="44.39434" lon="6.77027">
        <ele>1596.886</ele>
        <time>2019-10-12T08:39:50Z</time>
      </trkpt>
      <trkpt lat="44.39401" lon="6.77085">
        <ele>1599.688</ele>
        <time>2019-10-12T08:40:20Z</time>
      </trkpt>
      <trkpt lat="44.39361" lon="6.77133">
        <ele>1603.837</ele>
        <time>2019-10-12T08:40:50Z</time>
      </trkpt>
      <trkpt lat="44.39324" lon="6.77188">
        <ele>1608.709</ele>
        <time>2019-10-12T08:41:20Z</time>
      </trkpt>
      <trkpt lat="44.39293" lon="6.77255">
        <ele>1615.041</ele>
        <time>2019-10-12T08:41:53Z</time>
      </trkpt>
      <trkpt lat="44.39274" lon="6.77331">
        <ele>1623.145</ele>
        <time>2019-10-12T08:42:26Z</time>
      </trkpt>
      <trkpt lat="44.39243" lon="6.77398">
        <ele>1626.085</ele>
        <time>2019-10-12T08:42:59Z</time>
      </trkpt>
      <trkpt lat="44.39214" lon="6.77465">
        <ele>1630.002</ele>
        <time>2019-10-12T08:43:32Z</time>
      </trkpt>
      <trkpt lat="44.3917" lon="6.77513">
        <ele>1635.523</ele>
        <time>2019-10-12T08:44:05Z</time>
      </trkpt>
      <trkpt lat="44.39149" lon="6.77584">
        <ele>1638.483</ele>
        <time>2019-10-12T08:44:35Z</time>
      </trkpt>
      <trkpt lat="44.39131" lon="6.77657">
        <ele>1643.432</ele>
        <time>2019-10-12T08:45:05Z</time>
      </trkpt>
      <trkpt lat="44.39105" lon="6.77726">
        <ele>1647.725</ele>
        <time>2019-10-12T08:45:35Z</time>
      </trkpt>
      <trkpt lat="44.39058" lon="6.77766">
        <ele>1658.006</ele>
        <time>2019-10-12T08:46:05Z</time>
      </trkpt>
      <trkpt lat="44.39008" lon="6.77796">
        <ele>1660.269</ele>
        <time>2019-10-12T08:46:35Z</time>
      </trkpt>
      <trkpt lat="44.38945" lon="6.77821">
        <ele>1663.355</ele>
        <time>2019-10-12T08:47:17Z</time>
      </trkpt>
      <trkpt lat="44.38898" lon="6.7779">
        <ele>1664.092</ele>
        <time>2019-10-12T08:47:47Z</time>
      </trkpt>
      <trkpt lat="44.38851" lon="6.77814">
        <ele>1669.621</ele>
        <time>2019-10-12T08:48:17Z</time>
      </trkpt>
      <trkpt lat="44.38808" lon="6.77855">
        <ele>1674.698</ele>
        <time>2019-10-12T08:48:50Z</time>
      </trkpt>
      <trkpt lat="44.38853" lon="6.77854">
        <ele>1675.602</ele>
        <time>2019-10-12T08:49:23Z</time>
      </trkpt>
      <trkpt lat="44.38897" lon="6.77833">
        <ele>1680.172</ele>
        <time>2019-10-12T08:49:53Z</time>
      </trkpt>
      <trkpt lat="44.3893" lon="6.77904">
        <ele>1690.495</ele>
        <time>2019-10-12T08:50:29Z</time>
      </trkpt>
      <trkpt lat="44.3892" lon="6.77922">
        <ele>1694.812</ele>
        <time>2019-10-12T08:51:05Z</time>
      </trkpt>
      <trkpt lat="44.38867" lon="6.77911">
        <ele>1703.518</ele>
        <time>2019-10-12T08:51:41Z</time>
      </trkpt>
      <trkpt lat="44.38836" lon="6.77968">
        <ele>1707.85</ele>
        <time>2019-10-12T08:52:14Z</time>
      </trkpt>
      <trkpt lat="44.38775" lon="6.77971">
        <ele>1709.793</ele>
        <time>2019-10-12T08:52:56Z</time>
      </trkpt>
      <trkpt lat="44.38775" lon="6.77993">
        <ele>1719.619</ele>
        <time>2019-10-12T08:53:32Z</time>
      </trkpt>
      <trkpt lat="44.38833" lon="6.78008">
        <ele>1729.751</ele>
        <time>2019-10-12T08:54:08Z</time>
      </trkpt>
      <trkpt lat="44.38891" lon="6.78029">
        <ele>1722.335</ele>
        <time>2019-10-12T08:54:41Z</time>
      </trkpt>
      <trkpt lat="44.38916" lon="6.78078">
        <ele>1730.201</ele>
        <time>2019-10-12T08:55:14Z</time>
      </trkpt>
      <trkpt lat="44.38865" lon="6.78058">
        <ele>1737.713</ele>
        <time>2019-10-12T08:55:47Z</time>
      </trkpt>
      <trkpt lat="44.38811" lon="6.7806">
        <ele>1741.731</ele>
        <time>2019-10-12T08:56:20Z</time>
      </trkpt>
      <trkpt lat="44.38751" lon="6.78074">
        <ele>1752.29</ele>
        <time>2019-10-12T08:56:59Z</time>
      </trkpt>
      <trkpt lat="44.38692" lon="6.78097">
        <ele>1757.763</ele>
        <time>2019-10-12T08:57:38Z</time>
      </trkpt>
      <trkpt lat="44.38638" lon="6.78062">
        <ele>1764.065</ele>
        <time>2019-10-12T08:58:20Z</time>
      </trkpt>
      <trkpt lat="44.38569" lon="6.78041">
        <ele>1768.572</ele>
        <time>2019-10-12T08:59:02Z</time>
      </trkpt>
      <trkpt lat="44.38504" lon="6.78031">
        <ele>1779.235</ele>
        <time>2019-10-12T08:59:44Z</time>
      </trkpt>
      <trkpt lat="44.38455" lon="6.77991">
        <ele>1782.19</ele>
        <time>2019-10-12T09:00:26Z</time>
      </trkpt>
      <trkpt lat="44.38392" lon="6.78026">
        <ele>1783.263</ele>
        <time>2019-10-12T09:01:08Z</time>
      </trkpt>
      <trkpt lat="44.38333" lon="6.78041">
        <ele>1789.676</ele>
        <time>2019-10-12T09:01:53Z</time>
      </trkpt>
      <trkpt lat="44.3828" lon="6.78056">
        <ele>1784.001</ele>
        <time>2019-10-12T09:02:26Z</time>
      </trkpt>
      <trkpt lat="44.3823" lon="6.78029">
        <ele>1789.473</ele>
        <time>2019-10-12T09:02:59Z</time>
      </trkpt>
      <trkpt lat="44.3818" lon="6.78039">
        <ele>1792.614</ele>
        <time>2019-10-12T09:03:29Z</time>
      </trkpt>
      <trkpt lat="44.38113" lon="6.78039">
        <ele>1803.819</ele>
        <time>2019-10-12T09:04:14Z</time>
      </trkpt>
      <trkpt lat="44.38058" lon="6.78069">
        <ele>1813.78</ele>
        <time>2019-10-12T09:04:59Z</time>
      </trkpt>
      <trkpt lat="44.38116" lon="6.78085">
        <ele>1825.796</ele>
        <time>2019-10-12T09:05:35Z</time>
      </trkpt>
      <trkpt lat="44.38166" lon="6.78127">
        <ele>1823.945</ele>
        <time>2019-10-12T09:06:14Z</time>
      </trkpt>
      <trkpt lat="44.38161" lon="6.78152">
        <ele>1827.938</ele>
        <time>2019-10-12T09:06:44Z</time>
      </trkpt>
      <trkpt lat="44.38102" lon="6.78148">
        <ele>1833.789</ele>
        <time>2019-10-12T09:07:23Z</time>
      </trkpt>
      <trkpt lat="44.38049" lon="6.78165">
        <ele>1839.496</ele>
        <time>2019-10-12T09:07:56Z</time>
      </trkpt>
      <trkpt lat="44.37996" lon="6.78184">
        <ele>1843.297</ele>
        <time>2019-10-12T09:08:29Z</time>
      </trkpt>
      <trkpt lat="44.37943" lon="6.78189">
        <ele>1846.857</ele>
        <time>2019-10-12T09:09:02Z</time>
      </trkpt>
      <trkpt lat="44.37885" lon="6.78184">
        <ele>1852.422</ele>
        <time>2019-10-12T09:09:38Z</time>
      </trkpt>
      <trkpt lat="44.37828" lon="6.78182">
        <ele>1854.832</ele>
        <time>2019-10-12T09:10:14Z</time>
      </trkpt>
      <trkpt lat="44.37778" lon="6.78144">
        <ele>1861.2</ele>
        <time>2019-10-12T09:10:50Z</time>
      </trkpt>
      <trkpt lat="44.37724" lon="6.7811">
        <ele>1866.041</ele>
        <time>2019-10-12T09:11:29Z</time>
      </trkpt>
      <trkpt lat="44.37667" lon="6.78127">
        <ele>1877.257</ele>
        <time>2019-10-12T09:12:08Z</time>
      </trkpt>
      <trkpt lat="44.37616" lon="6.7819">
        <ele>1882.867</ele>
        <time>2019-10-12T09:12:50Z</time>
      </trkpt>
      <trkpt lat="44.37556" lon="6.78222">
        <ele>1883.924</ele>
        <time>2019-10-12T09:13:32Z</time>
      </trkpt>
      <trkpt lat="44.37505" lon="6.7825">
        <ele>1889.8</ele>
        <time>2019-10-12T09:14:05Z</time>
      </trkpt>
      <trkpt lat="44.37469" lon="6.78252">
        <ele>1895.497</ele>
        <time>2019-10-12T09:23:20Z</time>
      </trkpt>
      <trkpt lat="44.37405" lon="6.78252">
        <ele>1893.408</ele>
        <time>2019-10-12T09:26:47Z</time>
      </trkpt>
      <trkpt lat="44.37348" lon="6.78244">
        <ele>1901.68</ele>
        <time>2019-10-12T09:27:23Z</time>
      </trkpt>
      <trkpt lat="44.37254" lon="6.78194">
        <ele>1907.474</ele>
        <time>2019-10-12T09:28:26Z</time>
      </trkpt>
      <trkpt lat="44.37174" lon="6.78219">
        <ele>1910.485</ele>
        <time>2019-10-12T09:29:14Z</time>
      </trkpt>
      <trkpt lat="44.37062" lon="6.78301">
        <ele>1935.742</ele>
        <time>2019-10-12T09:30:44Z</time>
      </trkpt>
      <trkpt lat="44.36963" lon="6.78452">
        <ele>1952.394</ele>
        <time>2019-10-12T09:32:17Z</time>
      </trkpt>
      <trkpt lat="44.36915" lon="6.78517">
        <ele>1960.391</ele>
        <time>2019-10-12T09:32:59Z</time>
      </trkpt>
      <trkpt lat="44.36859" lon="6.78552">
        <ele>1965.224</ele>
        <time>2019-10-12T09:33:41Z</time>
      </trkpt>
      <trkpt lat="44.36733" lon="6.78634">
        <ele>1973.667</ele>
        <time>2019-10-12T09:35:08Z</time>
      </trkpt>
      <trkpt lat="44.36666" lon="6.7865">
        <ele>1980.127</ele>
        <time>2019-10-12T09:35:56Z</time>
      </trkpt>
      <trkpt lat="44.36689" lon="6.78674">
        <ele>1988.713</ele>
        <time>2019-10-12T09:36:38Z</time>
      </trkpt>
      <trkpt lat="44.36742" lon="6.78692">
        <ele>1993.899</ele>
        <time>2019-10-12T09:37:11Z</time>
      </trkpt>
      <trkpt lat="44.36794" lon="6.78681">
        <ele>1994.826</ele>
        <time>2019-10-12T09:37:44Z</time>
      </trkpt>
      <trkpt lat="44.36849" lon="6.78685">
        <ele>1999.69</ele>
        <time>2019-10-12T09:38:17Z</time>
      </trkpt>
      <trkpt lat="44.3685" lon="6.78701">
        <ele>2007.008</ele>
        <time>2019-10-12T09:39:02Z</time>
      </trkpt>
      <trkpt lat="44.36785" lon="6.78734">
        <ele>2010.56</ele>
        <time>2019-10-12T09:39:44Z</time>
      </trkpt>
      <trkpt lat="44.36709" lon="6.78794">
        <ele>2018.8</ele>
        <time>2019-10-12T09:40:53Z</time>
      </trkpt>
      <trkpt lat="44.36646" lon="6.78846">
        <ele>2025.726</ele>
        <time>2019-10-12T09:41:32Z</time>
      </trkpt>
      <trkpt lat="44.36585" lon="6.78863">
        <ele>2029.487</ele>
        <time>2019-10-12T09:42:17Z</time>
      </trkpt>
      <trkpt lat="44.365" lon="6.7883">
        <ele>2044.476</ele>
        <time>2019-10-12T09:43:23Z</time>
      </trkpt>
      <trkpt lat="44.36419" lon="6.78804">
        <ele>2049.251</ele>
        <time>2019-10-12T09:44:14Z</time>
      </trkpt>
      <trkpt lat="44.36326" lon="6.78812">
        <ele>2049.004</ele>
        <time>2019-10-12T09:45:05Z</time>
      </trkpt>
      <trkpt lat="44.36184" lon="6.78749">
        <ele>2051.481</ele>
        <time>2019-10-12T09:45:35Z</time>
      </trkpt>
      <trkpt lat="44.36129" lon="6.78678">
        <ele>2066.96</ele>
        <time>2019-10-12T09:46:11Z</time>
      </trkpt>
      <trkpt lat="44.36099" lon="6.78605">
        <ele>2081.054</ele>
        <time>2019-10-12T09:46:50Z</time>
      </trkpt>
      <trkpt lat="44.36055" lon="6.78559">
        <ele>2075.062</ele>
        <time>2019-10-12T09:47:29Z</time>
      </trkpt>
      <trkpt lat="44.36021" lon="6.78504">
        <ele>2077.733</ele>
        <time>2019-10-12T09:48:05Z</time>
      </trkpt>
      <trkpt lat="44.36" lon="6.78434">
        <ele>2084.941</ele>
        <time>2019-10-12T09:48:41Z</time>
      </trkpt>
      <trkpt lat="44.35952" lon="6.78376">
        <ele>2089.956</ele>
        <time>2019-10-12T09:49:26Z</time>
      </trkpt>
      <trkpt lat="44.35908" lon="6.78323">
        <ele>2097.27</ele>
        <time>2019-10-12T09:50:02Z</time>
      </trkpt>
      <trkpt lat="44.35857" lon="6.78298">
        <ele>2097.714</ele>
        <time>2019-10-12T09:50:32Z</time>
      </trkpt>
      <trkpt lat="44.35805" lon="6.78361">
        <ele>2095.357</ele>
        <time>2019-10-12T09:51:05Z</time>
      </trkpt>
      <trkpt lat="44.35749" lon="6.78349">
        <ele>2097.906</ele>
        <time>2019-10-12T09:51:35Z</time>
      </trkpt>
      <trkpt lat="44.35694" lon="6.78336">
        <ele>2101.162</ele>
        <time>2019-10-12T09:52:05Z</time>
      </trkpt>
      <trkpt lat="44.35647" lon="6.783">
        <ele>2108.242</ele>
        <time>2019-10-12T09:52:35Z</time>
      </trkpt>
      <trkpt lat="44.35597" lon="6.78264">
        <ele>2116.5</ele>
        <time>2019-10-12T09:53:05Z</time>
      </trkpt>
      <trkpt lat="44.35535" lon="6.78256">
        <ele>2113.396</ele>
        <time>2019-10-12T09:53:47Z</time>
      </trkpt>
      <trkpt lat="44.35479" lon="6.78283">
        <ele>2121.652</ele>
        <time>2019-10-12T09:54:23Z</time>
      </trkpt>
      <trkpt lat="44.35432" lon="6.78335">
        <ele>2125.157</ele>
        <time>2019-10-12T09:55:02Z</time>
      </trkpt>
      <trkpt lat="44.35354" lon="6.78356">
        <ele>2134.547</ele>
        <time>2019-10-12T09:55:59Z</time>
      </trkpt>
      <trkpt lat="44.35292" lon="6.78342">
        <ele>2140.955</ele>
        <time>2019-10-12T09:56:41Z</time>
      </trkpt>
      <trkpt lat="44.35246" lon="6.78304">
        <ele>2147.534</ele>
        <time>2019-10-12T09:57:14Z</time>
      </trkpt>
      <trkpt lat="44.35181" lon="6.78266">
        <ele>2153.37</ele>
        <time>2019-10-12T09:58:02Z</time>
      </trkpt>
      <trkpt lat="44.35149" lon="6.78308">
        <ele>2152.773</ele>
        <time>2019-10-12T10:10:11Z</time>
      </trkpt>
      <trkpt lat="44.35152" lon="6.78391">
        <ele>2162.22</ele>
        <time>2019-10-12T10:11:08Z</time>
      </trkpt>
      <trkpt lat="44.35138" lon="6.78447">
        <ele>2166.774</ele>
        <time>2019-10-12T10:12:26Z</time>
      </trkpt>
      <trkpt lat="44.35171" lon="6.78505">
        <ele>2170.466</ele>
        <time>2019-10-12T10:12:59Z</time>
      </trkpt>
      <trkpt lat="44.35117" lon="6.7849">
        <ele>2177.019</ele>
        <time>2019-10-12T10:13:35Z</time>
      </trkpt>
      <trkpt lat="44.35053" lon="6.78449">
        <ele>2187.56</ele>
        <time>2019-10-12T10:14:23Z</time>
      </trkpt>
      <trkpt lat="44.35034" lon="6.78368">
        <ele>2196.613</ele>
        <time>2019-10-12T10:15:05Z</time>
      </trkpt>
      <trkpt lat="44.34973" lon="6.78353">
        <ele>2200.197</ele>
        <time>2019-10-12T10:15:53Z</time>
      </trkpt>
      <trkpt lat="44.34897" lon="6.78355">
        <ele>2207.345</ele>
        <time>2019-10-12T10:16:47Z</time>
      </trkpt>
      <trkpt lat="44.34864" lon="6.78393">
        <ele>2210.655</ele>
        <time>2019-10-12T10:17:26Z</time>
      </trkpt>
      <trkpt lat="44.349" lon="6.78446">
        <ele>2215.872</ele>
        <time>2019-10-12T10:17:56Z</time>
      </trkpt>
      <trkpt lat="44.3495" lon="6.78489">
        <ele>2220.662</ele>
        <time>2019-10-12T10:18:32Z</time>
      </trkpt>
      <trkpt lat="44.3499" lon="6.78525">
        <ele>2228.014</ele>
        <time>2019-10-12T10:19:02Z</time>
      </trkpt>
      <trkpt lat="44.34946" lon="6.78512">
        <ele>2231.22</ele>
        <time>2019-10-12T10:19:32Z</time>
      </trkpt>
      <trkpt lat="44.34878" lon="6.7849">
        <ele>2240.059</ele>
        <time>2019-10-12T10:20:23Z</time>
      </trkpt>
      <trkpt lat="44.34828" lon="6.78446">
        <ele>2247.139</ele>
        <time>2019-10-12T10:21:14Z</time>
      </trkpt>
      <trkpt lat="44.34794" lon="6.78483">
        <ele>2255.565</ele>
        <time>2019-10-12T10:22:11.001Z</time>
      </trkpt>
      <trkpt lat="44.34768" lon="6.78551">
        <ele>2261.366</ele>
        <time>2019-10-12T10:22:53Z</time>
      </trkpt>
      <trkpt lat="44.34829" lon="6.78554">
        <ele>2264.208</ele>
        <time>2019-10-12T10:23:23Z</time>
      </trkpt>
      <trkpt lat="44.34801" lon="6.78613">
        <ele>2267.305</ele>
        <time>2019-10-12T10:23:59Z</time>
      </trkpt>
      <trkpt lat="44.34745" lon="6.78673">
        <ele>2276.583</ele>
        <time>2019-10-12T10:24:50Z</time>
      </trkpt>
      <trkpt lat="44.34689" lon="6.78712">
        <ele>2281.278</ele>
        <time>2019-10-12T10:25:32Z</time>
      </trkpt>
      <trkpt lat="44.34636" lon="6.78677">
        <ele>2284.039</ele>
        <time>2019-10-12T10:26:02Z</time>
      </trkpt>
      <trkpt lat="44.34587" lon="6.78646">
        <ele>2288.225</ele>
        <time>2019-10-12T10:26:32Z</time>
      </trkpt>
      <trkpt lat="44.34541" lon="6.78592">
        <ele>2292.627</ele>
        <time>2019-10-12T10:27:11Z</time>
      </trkpt>
      <trkpt lat="44.34495" lon="6.78532">
        <ele>2300.382</ele>
        <time>2019-10-12T10:27:56Z</time>
      </trkpt>
      <trkpt lat="44.34474" lon="6.7845">
        <ele>2306.891</ele>
        <time>2019-10-12T10:28:47Z</time>
      </trkpt>
      <trkpt lat="44.34409" lon="6.78441">
        <ele>2312.964</ele>
        <time>2019-10-12T10:29:29Z</time>
      </trkpt>
      <trkpt lat="44.3435" lon="6.78464">
        <ele>2317.578</ele>
        <time>2019-10-12T10:30:11Z</time>
      </trkpt>
      <trkpt lat="44.34311" lon="6.78429">
        <ele>2321.969</ele>
        <time>2019-10-12T10:30:41Z</time>
      </trkpt>
      <trkpt lat="44.34318" lon="6.78347">
        <ele>2325.429</ele>
        <time>2019-10-12T10:31:17Z</time>
      </trkpt>
      <trkpt lat="44.343" lon="6.78273">
        <ele>2329.724</ele>
        <time>2019-10-12T10:31:47Z</time>
      </trkpt>
      <trkpt lat="44.34252" lon="6.78221">
        <ele>2332.74</ele>
        <time>2019-10-12T10:32:17Z</time>
      </trkpt>
      <trkpt lat="44.34201" lon="6.78214">
        <ele>2335.324</ele>
        <time>2019-10-12T10:32:47Z</time>
      </trkpt>
      <trkpt lat="44.34135" lon="6.78245">
        <ele>2339.701</ele>
        <time>2019-10-12T10:33:23Z</time>
      </trkpt>
      <trkpt lat="44.34083" lon="6.7826">
        <ele>2343.427</ele>
        <time>2019-10-12T10:33:53Z</time>
      </trkpt>
      <trkpt lat="44.34029" lon="6.7827">
        <ele>2346.604</ele>
        <time>2019-10-12T10:34:26Z</time>
      </trkpt>
      <trkpt lat="44.33978" lon="6.78249">
        <ele>2353.266</ele>
        <time>2019-10-12T10:35:02Z</time>
      </trkpt>
      <trkpt lat="44.33914" lon="6.78289">
        <ele>2358.612</ele>
        <time>2019-10-12T10:35:53Z</time>
      </trkpt>
      <trkpt lat="44.33879" lon="6.78352">
        <ele>2360.599</ele>
        <time>2019-10-12T10:36:29Z</time>
      </trkpt>
      <trkpt lat="44.33845" lon="6.78414">
        <ele>2366.48</ele>
        <time>2019-10-12T10:37:05Z</time>
      </trkpt>
      <trkpt lat="44.33798" lon="6.78454">
        <ele>2370.118</ele>
        <time>2019-10-12T10:37:35Z</time>
      </trkpt>
      <trkpt lat="44.33845" lon="6.78516">
        <ele>2370.936</ele>
        <time>2019-10-12T10:38:08Z</time>
      </trkpt>
      <trkpt lat="44.3384" lon="6.78614">
        <ele>2371.448</ele>
        <time>2019-10-12T10:38:38Z</time>
      </trkpt>
      <trkpt lat="44.33797" lon="6.78673">
        <ele>2377.477</ele>
        <time>2019-10-12T10:39:08Z</time>
      </trkpt>
      <trkpt lat="44.33752" lon="6.78752">
        <ele>2383.082</ele>
        <time>2019-10-12T10:39:53Z</time>
      </trkpt>
      <trkpt lat="44.3377" lon="6.78821">
        <ele>2386.148</ele>
        <time>2019-10-12T10:40:26Z</time>
      </trkpt>
      <trkpt lat="44.33761" lon="6.78902">
        <ele>2388.337</ele>
        <time>2019-10-12T10:40:56Z</time>
      </trkpt>
      <trkpt lat="44.33779" lon="6.78977">
        <ele>2389.454</ele>
        <time>2019-10-12T10:41:26Z</time>
      </trkpt>
      <trkpt lat="44.33782" lon="6.79036">
        <ele>2393.155</ele>
        <time>2019-10-12T10:50:11Z</time>
      </trkpt>
      <trkpt lat="44.33788" lon="6.79122">
        <ele>2396.446</ele>
        <time>2019-10-12T10:50:44Z</time>
      </trkpt>
      <trkpt lat="44.33799" lon="6.79195">
        <ele>2400.004</ele>
        <time>2019-10-12T10:51:14Z</time>
      </trkpt>
      <trkpt lat="44.33857" lon="6.79191">
        <ele>2406.419</ele>
        <time>2019-10-12T10:51:47Z</time>
      </trkpt>
      <trkpt lat="44.33908" lon="6.79168">
        <ele>2409.888</ele>
        <time>2019-10-12T10:52:17Z</time>
      </trkpt>
      <trkpt lat="44.33964" lon="6.79159">
        <ele>2416.348</ele>
        <time>2019-10-12T10:52:53Z</time>
      </trkpt>
      <trkpt lat="44.34023" lon="6.79094">
        <ele>2421.538</ele>
        <time>2019-10-12T10:53:50Z</time>
      </trkpt>
      <trkpt lat="44.3404" lon="6.79015">
        <ele>2426.588</ele>
        <time>2019-10-12T10:54:29Z</time>
      </trkpt>
      <trkpt lat="44.34083" lon="6.78917">
        <ele>2436.344</ele>
        <time>2019-10-12T10:55:26Z</time>
      </trkpt>
      <trkpt lat="44.34073" lon="6.78979">
        <ele>2438.493</ele>
        <time>2019-10-12T10:56:05Z</time>
      </trkpt>
      <trkpt lat="44.34081" lon="6.79056">
        <ele>2443.723</ele>
        <time>2019-10-12T10:56:41Z</time>
      </trkpt>
      <trkpt lat="44.34077" lon="6.79168">
        <ele>2454.28</ele>
        <time>2019-10-12T10:57:41Z</time>
      </trkpt>
      <trkpt lat="44.34036" lon="6.79246">
        <ele>2460.682</ele>
        <time>2019-10-12T10:58:32Z</time>
      </trkpt>
      <trkpt lat="44.33997" lon="6.79314">
        <ele>2468.828</ele>
        <time>2019-10-12T10:59:14Z</time>
      </trkpt>
      <trkpt lat="44.34039" lon="6.79358">
        <ele>2477.166</ele>
        <time>2019-10-12T10:59:56Z</time>
      </trkpt>
      <trkpt lat="44.34093" lon="6.79393">
        <ele>2482.726</ele>
        <time>2019-10-12T11:00:44Z</time>
      </trkpt>
      <trkpt lat="44.34137" lon="6.79483">
        <ele>2491.849</ele>
        <time>2019-10-12T11:01:44Z</time>
      </trkpt>
      <trkpt lat="44.34194" lon="6.79465">
        <ele>2496.365</ele>
        <time>2019-10-12T11:02:26Z</time>
      </trkpt>
      <trkpt lat="44.34264" lon="6.79438">
        <ele>2503.379</ele>
        <time>2019-10-12T11:03:20Z</time>
      </trkpt>
      <trkpt lat="44.34341" lon="6.79432">
        <ele>2512.214</ele>
        <time>2019-10-12T11:04:17Z</time>
      </trkpt>
      <trkpt lat="44.34392" lon="6.79449">
        <ele>2512.525</ele>
        <time>2019-10-12T11:04:50Z</time>
      </trkpt>
      <trkpt lat="44.34342" lon="6.79467">
        <ele>2516.511</ele>
        <time>2019-10-12T11:05:29Z</time>
      </trkpt>
      <trkpt lat="44.3428" lon="6.79529">
        <ele>2525.88</ele>
        <time>2019-10-12T11:06:26Z</time>
      </trkpt>
      <trkpt lat="44.34263" lon="6.79573">
        <ele>2535.014</ele>
        <time>2019-10-12T11:07:17Z</time>
      </trkpt>
      <trkpt lat="44.34313" lon="6.79642">
        <ele>2536.121</ele>
        <time>2019-10-12T11:08:05Z</time>
      </trkpt>
      <trkpt lat="44.34335" lon="6.79702">
        <ele>2536.827</ele>
        <time>2019-10-12T11:08:35Z</time>
      </trkpt>
      <trkpt lat="44.34364" lon="6.79776">
        <ele>2542.934</ele>
        <time>2019-10-12T11:09:14Z</time>
      </trkpt>
      <trkpt lat="44.34396" lon="6.79819">
        <ele>2547.249</ele>
        <time>2019-10-12T11:09:56Z</time>
      </trkpt>
      <trkpt lat="44.34404" lon="6.79745">
        <ele>2550.875</ele>
        <time>2019-10-12T11:10:29Z</time>
      </trkpt>
      <trkpt lat="44.34397" lon="6.79683">
        <ele>2556.167</ele>
        <time>2019-10-12T11:10:59Z</time>
      </trkpt>
      <trkpt lat="44.34426" lon="6.79745">
        <ele>2562.122</ele>
        <time>2019-10-12T11:11:32Z</time>
      </trkpt>
      <trkpt lat="44.3449" lon="6.79786">
        <ele>2569.028</ele>
        <time>2019-10-12T11:12:26Z</time>
      </trkpt>
      <trkpt lat="44.34496" lon="6.79811">
        <ele>2574.344</ele>
        <time>2019-10-12T11:13:23Z</time>
      </trkpt>
      <trkpt lat="44.34436" lon="6.79864">
        <ele>2582.839</ele>
        <time>2019-10-12T11:14:14Z</time>
      </trkpt>
      <trkpt lat="44.3443" lon="6.79944">
        <ele>2588.225</ele>
        <time>2019-10-12T11:14:56Z</time>
      </trkpt>
      <trkpt lat="44.34412" lon="6.80018">
        <ele>2589.24</ele>
        <time>2019-10-12T11:15:26Z</time>
      </trkpt>
      <trkpt lat="44.34382" lon="6.80085">
        <ele>2591.568</ele>
        <time>2019-10-12T11:15:59Z</time>
      </trkpt>
      <trkpt lat="44.34348" lon="6.80139">
        <ele>2595.299</ele>
        <time>2019-10-12T11:16:29Z</time>
      </trkpt>
      <trkpt lat="44.34293" lon="6.80182">
        <ele>2598.881</ele>
        <time>2019-10-12T11:16:59Z</time>
      </trkpt>
      <trkpt lat="44.34222" lon="6.80196">
        <ele>2602.246</ele>
        <time>2019-10-12T11:17:32Z</time>
      </trkpt>
      <trkpt lat="44.34171" lon="6.80208">
        <ele>2606.009</ele>
        <time>2019-10-12T11:18:02Z</time>
      </trkpt>
      <trkpt lat="44.3412" lon="6.80193">
        <ele>2611.284</ele>
        <time>2019-10-12T11:18:32Z</time>
      </trkpt>
      <trkpt lat="44.34067" lon="6.80174">
        <ele>2613.643</ele>
        <time>2019-10-12T11:19:05Z</time>
      </trkpt>
      <trkpt lat="44.34017" lon="6.80144">
        <ele>2621.107</ele>
        <time>2019-10-12T11:19:38Z</time>
      </trkpt>
      <trkpt lat="44.33966" lon="6.80181">
        <ele>2626.728</ele>
        <time>2019-10-12T11:20:26Z</time>
      </trkpt>
      <trkpt lat="44.33924" lon="6.80227">
        <ele>2628.226</ele>
        <time>2019-10-12T11:34:59Z</time>
      </trkpt>
      <trkpt lat="44.33865" lon="6.80249">
        <ele>2633.355</ele>
        <time>2019-10-12T11:35:35Z</time>
      </trkpt>
      <trkpt lat="44.3381" lon="6.8021">
        <ele>2644.188</ele>
        <time>2019-10-12T11:36:14Z</time>
      </trkpt>
      <trkpt lat="44.33753" lon="6.80178">
        <ele>2650.028</ele>
        <time>2019-10-12T11:36:50Z</time>
      </trkpt>
      <trkpt lat="44.33693" lon="6.80128">
        <ele>2650.55</ele>
        <time>2019-10-12T11:37:35Z</time>
      </trkpt>
      <trkpt lat="44.33668" lon="6.80199">
        <ele>2655.244</ele>
        <time>2019-10-12T11:38:14Z</time>
      </trkpt>
      <trkpt lat="44.3367" lon="6.8027">
        <ele>2663.121</ele>
        <time>2019-10-12T11:38:44Z</time>
      </trkpt>
      <trkpt lat="44.33667" lon="6.80352">
        <ele>2663.341</ele>
        <time>2019-10-12T11:39:14Z</time>
      </trkpt>
      <trkpt lat="44.33659" lon="6.80438">
        <ele>2670.72</ele>
        <time>2019-10-12T11:39:44Z</time>
      </trkpt>
      <trkpt lat="44.33657" lon="6.80532">
        <ele>2669.71</ele>
        <time>2019-10-12T11:40:17Z</time>
      </trkpt>
      <trkpt lat="44.33644" lon="6.80648">
        <ele>2669.912</ele>
        <time>2019-10-12T11:40:47Z</time>
      </trkpt>
      <trkpt lat="44.33627" lon="6.80782">
        <ele>2669.48</ele>
        <time>2019-10-12T11:41:17Z</time>
      </trkpt>
      <trkpt lat="44.33563" lon="6.80902">
        <ele>2671.266</ele>
        <time>2019-10-12T11:41:47Z</time>
      </trkpt>
      <trkpt lat="44.33486" lon="6.81001">
        <ele>2673.075</ele>
        <time>2019-10-12T11:42:17Z</time>
      </trkpt>
      <trkpt lat="44.33414" lon="6.81036">
        <ele>2678.032</ele>
        <time>2019-10-12T11:42:47Z</time>
      </trkpt>
      <trkpt lat="44.33356" lon="6.81062">
        <ele>2681.165</ele>
        <time>2019-10-12T11:43:17Z</time>
      </trkpt>
      <trkpt lat="44.33295" lon="6.81067">
        <ele>2683.447</ele>
        <time>2019-10-12T11:43:47Z</time>
      </trkpt>
      <trkpt lat="44.33232" lon="6.8108">
        <ele>2686.773</ele>
        <time>2019-10-12T11:44:20Z</time>
      </trkpt>
      <trkpt lat="44.33177" lon="6.81054">
        <ele>2691.131</ele>
        <time>2019-10-12T11:44:50Z</time>
      </trkpt>
      <trkpt lat="44.33136" lon="6.80998">
        <ele>2697.541</ele>
        <time>2019-10-12T11:45:20Z</time>
      </trkpt>
      <trkpt lat="44.33093" lon="6.8095">
        <ele>2700.164</ele>
        <time>2019-10-12T11:45:50Z</time>
      </trkpt>
      <trkpt lat="44.33049" lon="6.80901">
        <ele>2702.506</ele>
        <time>2019-10-12T11:46:20Z</time>
      </trkpt>
      <trkpt lat="44.32986" lon="6.80829">
        <ele>2703.233</ele>
        <time>2019-10-12T11:46:50Z</time>
      </trkpt>
      <trkpt lat="44.32889" lon="6.80782">
        <ele>2702.295</ele>
        <time>2019-10-12T11:47:20Z</time>
      </trkpt>
      <trkpt lat="44.32778" lon="6.80798">
        <ele>2703.05</ele>
        <time>2019-10-12T11:47:50Z</time>
      </trkpt>
      <trkpt lat="44.32675" lon="6.80742">
        <ele>2707.409</ele>
        <time>2019-10-12T11:48:23Z</time>
      </trkpt>
      <trkpt lat="44.32588" lon="6.80642">
        <ele>2707.646</ele>
        <time>2019-10-12T11:48:53Z</time>
      </trkpt>
      <trkpt lat="44.32524" lon="6.80637">
        <ele>2711.431</ele>
        <time>2019-10-12T11:49:23Z</time>
      </trkpt>
      <trkpt lat="44.32467" lon="6.8064">
        <ele>2716.515</ele>
        <time>2019-10-12T11:49:59Z</time>
      </trkpt>
      <trkpt lat="44.32419" lon="6.80619">
        <ele>2721.499</ele>
        <time>2019-10-12T11:51:20Z</time>
      </trkpt>
      <trkpt lat="44.32355" lon="6.80603">
        <ele>2729.752</ele>
        <time>2019-10-12T11:52:20Z</time>
      </trkpt>
      <trkpt lat="44.32303" lon="6.80555">
        <ele>2736.371</ele>
        <time>2019-10-12T11:53:20Z</time>
      </trkpt>
      <trkpt lat="44.3225" lon="6.80531">
        <ele>2746.17</ele>
        <time>2019-10-12T11:54:26Z</time>
      </trkpt>
      <trkpt lat="44.3221" lon="6.80464">
        <ele>2755.461</ele>
        <time>2019-10-12T11:55:32Z</time>
      </trkpt>
      <trkpt lat="44.32157" lon="6.80457">
        <ele>2761.483</ele>
        <time>2019-10-12T11:56:32Z</time>
      </trkpt>
      <trkpt lat="44.321" lon="6.80455">
        <ele>2767.698</ele>
        <time>2019-10-12T11:57:32Z</time>
      </trkpt>
      <trkpt lat="44.32046" lon="6.80433">
        <ele>2770.85</ele>
        <time>2019-10-12T11:58:32Z</time>
      </trkpt>
      <trkpt lat="44.32035" lon="6.80465">
        <ele>2777.278</ele>
        <time>2019-10-12T11:59:32Z</time>
      </trkpt>
      <trkpt lat="44.32047" lon="6.80519">
        <ele>2781.807</ele>
        <time>2019-10-12T12:00:29Z</time>
      </trkpt>
      <trkpt lat="44.32058" lon="6.80574">
        <ele>2784.553</ele>
        <time>2019-10-12T12:01:17Z</time>
      </trkpt>
      <trkpt lat="44.32073" lon="6.80619">
        <ele>2793.78</ele>
        <time>2019-10-12T12:02:02Z</time>
      </trkpt>
      <trkpt lat="44.32061" lon="6.80677">
        <ele>2797.709</ele>
        <time>2019-10-12T12:02:53Z</time>
      </trkpt>
      <trkpt lat="44.32043" lon="6.80736">
        <ele>2796.271</ele>
        <time>2019-10-12T12:03:53Z</time>
      </trkpt>
      <trkpt lat="44.32046" lon="6.80737">
        <ele>2795.287</ele>
        <time>2019-10-12T12:10:26Z</time>
      </trkpt>
      <trkpt lat="44.32075" lon="6.8078">
        <ele>2794.187</ele>
        <time>2019-10-12T12:11:14Z</time>
      </trkpt>
      <trkpt lat="44.32081" lon="6.80773">
        <ele>2798.666</ele>
        <time>2019-10-12T12:12:41Z</time>
      </trkpt>
      <trkpt lat="44.32075" lon="6.80707">
        <ele>2804.934</ele>
        <time>2019-10-12T12:13:53Z</time>
      </trkpt>
      <trkpt lat="44.32108" lon="6.80649">
        <ele>2814.093</ele>
        <time>2019-10-12T12:15:02Z</time>
      </trkpt>
      <trkpt lat="44.3213" lon="6.80576">
        <ele>2821.748</ele>
        <time>2019-10-12T12:16:23Z</time>
      </trkpt>
      <trkpt lat="44.32129" lon="6.80621">
        <ele>2833.093</ele>
        <time>2019-10-12T12:17:29Z</time>
      </trkpt>
      <trkpt lat="44.32129" lon="6.80653">
        <ele>2834.643</ele>
        <time>2019-10-12T12:18:47Z</time>
      </trkpt>
      <trkpt lat="44.32133" lon="6.80722">
        <ele>2845.251</ele>
        <time>2019-10-12T12:19:44Z</time>
      </trkpt>
      <trkpt lat="44.32158" lon="6.80721">
        <ele>2843.928</ele>
        <time>2019-10-12T12:20:35Z</time>
      </trkpt>
      <trkpt lat="44.32154" lon="6.80679">
        <ele>2846.976</ele>
        <time>2019-10-12T12:21:32Z</time>
      </trkpt>
      <trkpt lat="44.32156" lon="6.80683">
        <ele>2849.823</ele>
        <time>2019-10-12T12:24:26Z</time>
      </trkpt>
      <trkpt lat="44.32154" lon="6.80702">
        <ele>2850.706</ele>
        <time>2019-10-12T12:25:05Z</time>
      </trkpt>
      <trkpt lat="44.32157" lon="6.80708">
        <ele>2849.666</ele>
        <time>2019-10-12T12:34:29Z</time>
      </trkpt>
      <trkpt lat="44.32129" lon="6.80709">
        <ele>2847.732</ele>
        <time>2019-10-12T12:35:41Z</time>
      </trkpt>
      <trkpt lat="44.32131" lon="6.80636">
        <ele>2831.146</ele>
        <time>2019-10-12T12:36:44Z</time>
      </trkpt>
      <trkpt lat="44.32122" lon="6.80583">
        <ele>2828.766</ele>
        <time>2019-10-12T12:37:59Z</time>
      </trkpt>
      <trkpt lat="44.32114" lon="6.80638">
        <ele>2823.961</ele>
        <time>2019-10-12T12:39:02Z</time>
      </trkpt>
      <trkpt lat="44.32081" lon="6.80701">
        <ele>2818.539</ele>
        <time>2019-10-12T12:40:23Z</time>
      </trkpt>
      <trkpt lat="44.3208" lon="6.80753">
        <ele>2808.571</ele>
        <time>2019-10-12T12:41:59Z</time>
      </trkpt>
      <trkpt lat="44.32068" lon="6.80771">
        <ele>2796.081</ele>
        <time>2019-10-12T12:43:11Z</time>
      </trkpt>
      <trkpt lat="44.32044" lon="6.80735">
        <ele>2797.93</ele>
        <time>2019-10-12T12:45:56Z</time>
      </trkpt>
      <trkpt lat="44.32066" lon="6.80775">
        <ele>2798.051</ele>
        <time>2019-10-12T12:54:41Z</time>
      </trkpt>
      <trkpt lat="44.32146" lon="6.80942">
        <ele>2782.293</ele>
        <time>2019-10-12T12:55:11Z</time>
      </trkpt>
      <trkpt lat="44.32266" lon="6.80795">
        <ele>2766.819</ele>
        <time>2019-10-12T12:56:44Z</time>
      </trkpt>
      <trkpt lat="44.32495" lon="6.80671">
        <ele>2722.683</ele>
        <time>2019-10-12T12:57:14Z</time>
      </trkpt>
      <trkpt lat="44.32689" lon="6.80783">
        <ele>2702.947</ele>
        <time>2019-10-12T12:57:44Z</time>
      </trkpt>
      <trkpt lat="44.32894" lon="6.81005">
        <ele>2684.734</ele>
        <time>2019-10-12T12:58:14Z</time>
      </trkpt>
      <trkpt lat="44.33079" lon="6.81329">
        <ele>2657.252</ele>
        <time>2019-10-12T12:58:47Z</time>
      </trkpt>
      <trkpt lat="44.33072" lon="6.81707">
        <ele>2633.916</ele>
        <time>2019-10-12T12:59:17Z</time>
      </trkpt>
      <trkpt lat="44.33063" lon="6.82022">
        <ele>2618.024</ele>
        <time>2019-10-12T12:59:47Z</time>
      </trkpt>
      <trkpt lat="44.33104" lon="6.82333">
        <ele>2593.367</ele>
        <time>2019-10-12T13:00:17Z</time>
      </trkpt>
      <trkpt lat="44.33187" lon="6.82622">
        <ele>2573.979</ele>
        <time>2019-10-12T13:00:47Z</time>
      </trkpt>
      <trkpt lat="44.33375" lon="6.8258">
        <ele>2565.251</ele>
        <time>2019-10-12T13:01:17Z</time>
      </trkpt>
      <trkpt lat="44.336" lon="6.82746">
        <ele>2552.093</ele>
        <time>2019-10-12T13:01:47Z</time>
      </trkpt>
      <trkpt lat="44.33805" lon="6.83048">
        <ele>2531.805</ele>
        <time>2019-10-12T13:02:17Z</time>
      </trkpt>
      <trkpt lat="44.34052" lon="6.83204">
        <ele>2513.658</ele>
        <time>2019-10-12T13:02:50Z</time>
      </trkpt>
      <trkpt lat="44.34009" lon="6.83486">
        <ele>2503.572</ele>
        <time>2019-10-12T13:03:20Z</time>
      </trkpt>
      <trkpt lat="44.34086" lon="6.83801">
        <ele>2490.114</ele>
        <time>2019-10-12T13:03:50Z</time>
      </trkpt>
      <trkpt lat="44.34055" lon="6.84115">
        <ele>2475.084</ele>
        <time>2019-10-12T13:04:20Z</time>
      </trkpt>
      <trkpt lat="44.34145" lon="6.84402">
        <ele>2454.689</ele>
        <time>2019-10-12T13:04:50Z</time>
      </trkpt>
      <trkpt lat="44.34167" lon="6.84676">
        <ele>2436.638</ele>
        <time>2019-10-12T13:05:20Z</time>
      </trkpt>
      <trkpt lat="44.34025" lon="6.84863">
        <ele>2431.765</ele>
        <time>2019-10-12T13:05:50Z</time>
      </trkpt>
      <trkpt lat="44.33859" lon="6.85025">
        <ele>2416.62</ele>
        <time>2019-10-12T13:06:20Z</time>
      </trkpt>
      <trkpt lat="44.33605" lon="6.85041">
        <ele>2391.587</ele>
        <time>2019-10-12T13:06:53Z</time>
      </trkpt>
      <trkpt lat="44.33385" lon="6.85036">
        <ele>2366.004</ele>
        <time>2019-10-12T13:07:23Z</time>
      </trkpt>
      <trkpt lat="44.33276" lon="6.85212">
        <ele>2335.857</ele>
        <time>2019-10-12T13:07:53Z</time>
      </trkpt>
      <trkpt lat="44.3321" lon="6.85477">
        <ele>2311.669</ele>
        <time>2019-10-12T13:08:23Z</time>
      </trkpt>
      <trkpt lat="44.33231" lon="6.85804">
        <ele>2301.769</ele>
        <time>2019-10-12T13:08:53Z</time>
      </trkpt>
      <trkpt lat="44.33171" lon="6.86087">
        <ele>2286.439</ele>
        <time>2019-10-12T13:09:23Z</time>
      </trkpt>
      <trkpt lat="44.33391" lon="6.86365">
        <ele>2263.074</ele>
        <time>2019-10-12T13:09:53Z</time>
      </trkpt>
      <trkpt lat="44.33377" lon="6.86582">
        <ele>2259.476</ele>
        <time>2019-10-12T13:12:41Z</time>
      </trkpt>
      <trkpt lat="44.33331" lon="6.86781">
        <ele>2254.645</ele>
        <time>2019-10-12T13:13:11Z</time>
      </trkpt>
      <trkpt lat="44.33261" lon="6.86733">
        <ele>2235.759</ele>
        <time>2019-10-12T13:13:41Z</time>
      </trkpt>
      <trkpt lat="44.33178" lon="6.868">
        <ele>2215.758</ele>
        <time>2019-10-12T13:14:11Z</time>
      </trkpt>
      <trkpt lat="44.32904" lon="6.86835">
        <ele>2190.646</ele>
        <time>2019-10-12T13:14:41Z</time>
      </trkpt>
      <trkpt lat="44.32981" lon="6.86805">
        <ele>2179.373</ele>
        <time>2019-10-12T13:15:11Z</time>
      </trkpt>
      <trkpt lat="44.32919" lon="6.86525">
        <ele>2163.163</ele>
        <time>2019-10-12T13:15:41Z</time>
      </trkpt>
      <trkpt lat="44.32883" lon="6.86277">
        <ele>2141.836</ele>
        <time>2019-10-12T13:16:11Z</time>
      </trkpt>
      <trkpt lat="44.32707" lon="6.86498">
        <ele>2124.278</ele>
        <time>2019-10-12T13:16:44Z</time>
      </trkpt>
      <trkpt lat="44.32735" lon="6.86306">
        <ele>2103.196</ele>
        <time>2019-10-12T13:17:14Z</time>
      </trkpt>
      <trkpt lat="44.32814" lon="6.86017">
        <ele>2085.484</ele>
        <time>2019-10-12T13:17:44Z</time>
      </trkpt>
      <trkpt lat="44.32731" lon="6.86157">
        <ele>2072.391</ele>
        <time>2019-10-12T13:18:14Z</time>
      </trkpt>
      <trkpt lat="44.32634" lon="6.86213">
        <ele>2055.268</ele>
        <time>2019-10-12T13:18:44Z</time>
      </trkpt>
      <trkpt lat="44.32707" lon="6.85992">
        <ele>2037.424</ele>
        <time>2019-10-12T13:19:14Z</time>
      </trkpt>
      <trkpt lat="44.32697" lon="6.85775">
        <ele>2021.78</ele>
        <time>2019-10-12T13:19:44Z</time>
      </trkpt>
      <trkpt lat="44.32722" lon="6.85633">
        <ele>2016.233</ele>
        <time>2019-10-12T13:20:14Z</time>
      </trkpt>
      <trkpt lat="44.3274" lon="6.85495">
        <ele>2008.409</ele>
        <time>2019-10-12T13:20:47Z</time>
      </trkpt>
      <trkpt lat="44.32665" lon="6.85282">
        <ele>1997.316</ele>
        <time>2019-10-12T13:21:17Z</time>
      </trkpt>
      <trkpt lat="44.32597" lon="6.85413">
        <ele>1984.666</ele>
        <time>2019-10-12T13:21:47Z</time>
      </trkpt>
      <trkpt lat="44.32466" lon="6.85698">
        <ele>1962.762</ele>
        <time>2019-10-12T13:22:17Z</time>
      </trkpt>
      <trkpt lat="44.32365" lon="6.86015">
        <ele>1936.177</ele>
        <time>2019-10-12T13:22:47Z</time>
      </trkpt>
      <trkpt lat="44.32285" lon="6.86226">
        <ele>1921.02</ele>
        <time>2019-10-12T13:23:17Z</time>
      </trkpt>
      <trkpt lat="44.32254" lon="6.8635">
        <ele>1902.688</ele>
        <time>2019-10-12T13:23:47Z</time>
      </trkpt>
      <trkpt lat="44.32168" lon="6.86137">
        <ele>1880.912</ele>
        <time>2019-10-12T13:24:20Z</time>
      </trkpt>
      <trkpt lat="44.32214" lon="6.86078">
        <ele>1881.63</ele>
        <time>2019-10-12T13:28:47Z</time>
      </trkpt>
      <trkpt lat="44.32243" lon="6.85935">
        <ele>1874.177</ele>
        <time>2019-10-12T13:29:17Z</time>
      </trkpt>
      <trkpt lat="44.32108" lon="6.86129">
        <ele>1856.702</ele>
        <time>2019-10-12T13:29:47Z</time>
      </trkpt>
      <trkpt lat="44.32099" lon="6.86474">
        <ele>1833.398</ele>
        <time>2019-10-12T13:30:17Z</time>
      </trkpt>
      <trkpt lat="44.3202" lon="6.86781">
        <ele>1807.762</ele>
        <time>2019-10-12T13:30:47Z</time>
      </trkpt>
      <trkpt lat="44.32006" lon="6.86696">
        <ele>1789.941</ele>
        <time>2019-10-12T13:31:17Z</time>
      </trkpt>
      <trkpt lat="44.31973" lon="6.86807">
        <ele>1775.787</ele>
        <time>2019-10-12T13:31:47Z</time>
      </trkpt>
      <trkpt lat="44.31963" lon="6.87158">
        <ele>1758.232</ele>
        <time>2019-10-12T13:32:20Z</time>
      </trkpt>
      <trkpt lat="44.32009" lon="6.87491">
        <ele>1740.318</ele>
        <time>2019-10-12T13:32:50Z</time>
      </trkpt>
      <trkpt lat="44.32102" lon="6.87767">
        <ele>1717.146</ele>
        <time>2019-10-12T13:33:20Z</time>
      </trkpt>
      <trkpt lat="44.32185" lon="6.88045">
        <ele>1700.455</ele>
        <time>2019-10-12T13:33:50Z</time>
      </trkpt>
      <trkpt lat="44.32288" lon="6.88263">
        <ele>1683.705</ele>
        <time>2019-10-12T13:34:20Z</time>
      </trkpt>
      <trkpt lat="44.32306" lon="6.88508">
        <ele>1669.573</ele>
        <time>2019-10-12T13:34:50Z</time>
      </trkpt>
      <trkpt lat="44.32128" lon="6.88829">
        <ele>1655.141</ele>
        <time>2019-10-12T13:35:20Z</time>
      </trkpt>
      <trkpt lat="44.32053" lon="6.8913">
        <ele>1641.173</ele>
        <time>2019-10-12T13:35:50Z</time>
      </trkpt>
      <trkpt lat="44.31956" lon="6.89439">
        <ele>1625.478</ele>
        <time>2019-10-12T13:36:23Z</time>
      </trkpt>
      <trkpt lat="44.31859" lon="6.8972">
        <ele>1617.91</ele>
        <time>2019-10-12T13:36:53Z</time>
      </trkpt>
      <trkpt lat="44.31687" lon="6.89969">
        <ele>1601.425</ele>
        <time>2019-10-12T13:37:23Z</time>
      </trkpt>
      <trkpt lat="44.31474" lon="6.9007">
        <ele>1583.854</ele>
        <time>2019-10-12T13:37:53Z</time>
      </trkpt>
      <trkpt lat="44.31245" lon="6.90051">
        <ele>1566.127</ele>
        <time>2019-10-12T13:38:23Z</time>
      </trkpt>
      <trkpt lat="44.31052" lon="6.90101">
        <ele>1541.469</ele>
        <time>2019-10-12T13:38:53Z</time>
      </trkpt>
      <trkpt lat="44.30848" lon="6.90206">
        <ele>1523.718</ele>
        <time>2019-10-12T13:39:23Z</time>
      </trkpt>
      <trkpt lat="44.30636" lon="6.90314">
        <ele>1510.749</ele>
        <time>2019-10-12T13:39:56Z</time>
      </trkpt>
      <trkpt lat="44.30558" lon="6.90486">
        <ele>1501.595</ele>
        <time>2019-10-12T13:40:26Z</time>
      </trkpt>
      <trkpt lat="44.30547" lon="6.90358">
        <ele>1497.824</ele>
        <time>2019-10-12T13:40:56Z</time>
      </trkpt>
      <trkpt lat="44.30522" lon="6.90466">
        <ele>1497.304</ele>
        <time>2019-10-12T13:42:02Z</time>
      </trkpt>
      <trkpt lat="44.30526" lon="6.90469">
        <ele>1514.44</ele>
        <time>2019-10-12T13:42:53Z</time>
      </trkpt>
      <trkpt lat="44.30534" lon="6.90468">
        <ele>1527.425</ele>
        <time>2019-10-12T13:44:32Z</time>
      </trkpt>
      <trkpt lat="44.30488" lon="6.90425">
        <ele>1530.536</ele>
        <time>2019-10-12T13:45:44Z</time>
      </trkpt>
      <trkpt lat="44.30278" lon="6.90323">
        <ele>1492.456</ele>
        <time>2019-10-12T13:46:14Z</time>
      </trkpt>
      <trkpt lat="44.30105" lon="6.90248">
        <ele>1453.107</ele>
        <time>2019-10-12T13:46:47Z</time>
      </trkpt>
      <trkpt lat="44.29895" lon="6.90193">
        <ele>1428.043</ele>
        <time>2019-10-12T13:47:17Z</time>
      </trkpt>
      <trkpt lat="44.29684" lon="6.90163">
        <ele>1414.423</ele>
        <time>2019-10-12T13:47:47Z</time>
      </trkpt>
      <trkpt lat="44.29496" lon="6.9018">
        <ele>1402.716</ele>
        <time>2019-10-12T13:48:17Z</time>
      </trkpt>
      <trkpt lat="44.2931" lon="6.90152">
        <ele>1389.113</ele>
        <time>2019-10-12T13:48:47Z</time>
      </trkpt>
      <trkpt lat="44.29135" lon="6.90109">
        <ele>1382.548</ele>
        <time>2019-10-12T13:49:17Z</time>
      </trkpt>
      <trkpt lat="44.28995" lon="6.90009">
        <ele>1379.442</ele>
        <time>2019-10-12T13:49:47Z</time>
      </trkpt>
      <trkpt lat="44.28835" lon="6.89961">
        <ele>1363.558</ele>
        <time>2019-10-12T13:50:17Z</time>
      </trkpt>
      <trkpt lat="44.28678" lon="6.89935">
        <ele>1357.869</ele>
        <time>2019-10-12T13:50:50Z</time>
      </trkpt>
      <trkpt lat="44.28557" lon="6.90052">
        <ele>1340.446</ele>
        <time>2019-10-12T13:51:20Z</time>
      </trkpt>
      <trkpt lat="44.28364" lon="6.90187">
        <ele>1323.123</ele>
        <time>2019-10-12T13:51:50Z</time>
      </trkpt>
      <trkpt lat="44.28168" lon="6.90318">
        <ele>1310.193</ele>
        <time>2019-10-12T13:52:20Z</time>
      </trkpt>
      <trkpt lat="44.27984" lon="6.90511">
        <ele>1290.076</ele>
        <time>2019-10-12T13:52:50Z</time>
      </trkpt>
      <trkpt lat="44.27857" lon="6.90779">
        <ele>1285.051</ele>
        <time>2019-10-12T13:53:20Z</time>
      </trkpt>
      <trkpt lat="44.27713" lon="6.91026">
        <ele>1275.159</ele>
        <time>2019-10-12T13:53:50Z</time>
      </trkpt>
      <trkpt lat="44.27559" lon="6.91311">
        <ele>1255.689</ele>
        <time>2019-10-12T13:54:20Z</time>
      </trkpt>
      <trkpt lat="44.27378" lon="6.91654">
        <ele>1242.707</ele>
        <time>2019-10-12T13:54:53Z</time>
      </trkpt>
      <trkpt lat="44.27147" lon="6.91888">
        <ele>1231.251</ele>
        <time>2019-10-12T13:55:23Z</time>
      </trkpt>
      <trkpt lat="44.26937" lon="6.92115">
        <ele>1220.64</ele>
        <time>2019-10-12T13:55:53Z</time>
      </trkpt>
      <trkpt lat="44.26761" lon="6.92083">
        <ele>1216.435</ele>
        <time>2019-10-12T13:56:23Z</time>
      </trkpt>
      <trkpt lat="44.26604" lon="6.9214">
        <ele>1212.744</ele>
        <time>2019-10-12T13:56:53Z</time>
      </trkpt>
      <trkpt lat="44.26405" lon="6.92144">
        <ele>1206.733</ele>
        <time>2019-10-12T13:57:23Z</time>
      </trkpt>
      <trkpt lat="44.26245" lon="6.92144">
        <ele>1199.428</ele>
        <time>2019-10-12T13:57:53Z</time>
      </trkpt>
      <trkpt lat="44.26043" lon="6.92201">
        <ele>1175.408</ele>
        <time>2019-10-12T13:58:26Z</time>
      </trkpt>
      <trkpt lat="44.25951" lon="6.92422">
        <ele>1160.484</ele>
        <time>2019-10-12T13:58:56Z</time>
      </trkpt>
      <trkpt lat="44.25866" lon="6.92599">
        <ele>1151.316</ele>
        <time>2019-10-12T13:59:26Z</time>
      </trkpt>
      <trkpt lat="44.25789" lon="6.9251">
        <ele>1145.36</ele>
        <time>2019-10-12T13:59:56Z</time>
      </trkpt>
      <trkpt lat="44.25736" lon="6.92585">
        <ele>1148.536</ele>
        <time>2019-10-12T14:02:32Z</time>
      </trkpt>
      <trkpt lat="44.25631" lon="6.92631">
        <ele>1151.688</ele>
        <time>2019-10-12T14:03:02Z</time>
      </trkpt>
      <trkpt lat="44.25566" lon="6.92572">
        <ele>1162.183</ele>
        <time>2019-10-12T14:03:32Z</time>
      </trkpt>
      <trkpt lat="44.25488" lon="6.92511">
        <ele>1169.936</ele>
        <time>2019-10-12T14:04:02Z</time>
      </trkpt>
      <trkpt lat="44.25428" lon="6.92479">
        <ele>1170.591</ele>
        <time>2019-10-12T14:04:41Z</time>
      </trkpt>
      <trkpt lat="44.25353" lon="6.92573">
        <ele>1175.023</ele>
        <time>2019-10-12T14:05:11Z</time>
      </trkpt>
      <trkpt lat="44.25258" lon="6.92659">
        <ele>1168.724</ele>
        <time>2019-10-12T14:05:41Z</time>
      </trkpt>
      <trkpt lat="44.25181" lon="6.92695">
        <ele>1173.131</ele>
        <time>2019-10-12T14:06:11Z</time>
      </trkpt>
      <trkpt lat="44.2513" lon="6.92725">
        <ele>1165.113</ele>
        <time>2019-10-12T14:07:26Z</time>
      </trkpt>
      <trkpt lat="44.25088" lon="6.92771">
        <ele>1163.458</ele>
        <time>2019-10-12T14:08:26Z</time>
      </trkpt>
      <trkpt lat="44.25004" lon="6.92838">
        <ele>1169.866</ele>
        <time>2019-10-12T14:08:56Z</time>
      </trkpt>
      <trkpt lat="44.24944" lon="6.92898">
        <ele>1184.85</ele>
        <time>2019-10-12T14:09:26Z</time>
      </trkpt>
      <trkpt lat="44.24858" lon="6.92991">
        <ele>1194.648</ele>
        <time>2019-10-12T14:09:59Z</time>
      </trkpt>
      <trkpt lat="44.24757" lon="6.93154">
        <ele>1183.245</ele>
        <time>2019-10-12T14:10:29Z</time>
      </trkpt>
      <trkpt lat="44.24651" lon="6.93343">
        <ele>1173.567</ele>
        <time>2019-10-12T14:10:59Z</time>
      </trkpt>
      <trkpt lat="44.24551" lon="6.9339">
        <ele>1178.291</ele>
        <time>2019-10-12T14:11:29Z</time>
      </trkpt>
      <trkpt lat="44.24479" lon="6.93388">
        <ele>1184.248</ele>
        <time>2019-10-12T14:11:59Z</time>
      </trkpt>
      <trkpt lat="44.24466" lon="6.93477">
        <ele>1186.709</ele>
        <time>2019-10-12T14:12:29Z</time>
      </trkpt>
      <trkpt lat="44.24433" lon="6.93543">
        <ele>1196.878</ele>
        <time>2019-10-12T14:12:59Z</time>
      </trkpt>
      <trkpt lat="44.24381" lon="6.93603">
        <ele>1201.387</ele>
        <time>2019-10-12T14:13:32Z</time>
      </trkpt>
      <trkpt lat="44.24338" lon="6.93662">
        <ele>1203.997</ele>
        <time>2019-10-12T14:14:02Z</time>
      </trkpt>
      <trkpt lat="44.24281" lon="6.93693">
        <ele>1207.67</ele>
        <time>2019-10-12T14:14:35Z</time>
      </trkpt>
      <trkpt lat="44.24168" lon="6.93778">
        <ele>1207.172</ele>
        <time>2019-10-12T14:15:05Z</time>
      </trkpt>
      <trkpt lat="44.23942" lon="6.93979">
        <ele>1187.225</ele>
        <time>2019-10-12T14:15:35Z</time>
      </trkpt>
      <trkpt lat="44.23842" lon="6.94202">
        <ele>1166.879</ele>
        <time>2019-10-12T14:16:05Z</time>
      </trkpt>
      <trkpt lat="44.24051" lon="6.93972">
        <ele>1144.877</ele>
        <time>2019-10-12T14:16:35Z</time>
      </trkpt>
      <trkpt lat="44.23895" lon="6.9431">
        <ele>1124.232</ele>
        <time>2019-10-12T14:17:05Z</time>
      </trkpt>
      <trkpt lat="44.23565" lon="6.94653">
        <ele>1099.037</ele>
        <time>2019-10-12T14:17:38Z</time>
      </trkpt>
      <trkpt lat="44.23306" lon="6.95063">
        <ele>1072.667</ele>
        <time>2019-10-12T14:18:08Z</time>
      </trkpt>
      <trkpt lat="44.23172" lon="6.95377">
        <ele>1062.554</ele>
        <time>2019-10-12T14:18:38Z</time>
      </trkpt>
      <trkpt lat="44.23034" lon="6.95595">
        <ele>1063.058</ele>
        <time>2019-10-12T14:19:08Z</time>
      </trkpt>
      <trkpt lat="44.22912" lon="6.95782">
        <ele>1061.428</ele>
        <time>2019-10-12T14:19:38Z</time>
      </trkpt>
      <trkpt lat="44.2275" lon="6.95869">
        <ele>1058.205</ele>
        <time>2019-10-12T14:20:08Z</time>
      </trkpt>
      <trkpt lat="44.22586" lon="6.9597">
        <ele>1060.794</ele>
        <time>2019-10-12T14:20:38Z</time>
      </trkpt>
      <trkpt lat="44.22504" lon="6.96206">
        <ele>1059.889</ele>
        <time>2019-10-12T14:21:08Z</time>
      </trkpt>
      <trkpt lat="44.22362" lon="6.96395">
        <ele>1054.191</ele>
        <time>2019-10-12T14:21:41Z</time>
      </trkpt>
      <trkpt lat="44.22202" lon="6.96518">
        <ele>1043.042</ele>
        <time>2019-10-12T14:22:11Z</time>
      </trkpt>
      <trkpt lat="44.22052" lon="6.96631">
        <ele>1046.163</ele>
        <time>2019-10-12T14:22:41Z</time>
      </trkpt>
      <trkpt lat="44.21891" lon="6.9681">
        <ele>1047.393</ele>
        <time>2019-10-12T14:23:11Z</time>
      </trkpt>
      <trkpt lat="44.21717" lon="6.97">
        <ele>1044.302</ele>
        <time>2019-10-12T14:23:41Z</time>
      </trkpt>
      <trkpt lat="44.21521" lon="6.97132">
        <ele>1037.729</ele>
        <time>2019-10-12T14:24:11Z</time>
      </trkpt>
      <trkpt lat="44.2133" lon="6.97357">
        <ele>1035.413</ele>
        <time>2019-10-12T14:24:41Z</time>
      </trkpt>
      <trkpt lat="44.21095" lon="6.97518">
        <ele>1017.939</ele>
        <time>2019-10-12T14:25:14Z</time>
      </trkpt>
      <trkpt lat="44.20931" lon="6.97679">
        <ele>1013.575</ele>
        <time>2019-10-12T14:25:44Z</time>
      </trkpt>
      <trkpt lat="44.20806" lon="6.97874">
        <ele>1009.779</ele>
        <time>2019-10-12T14:26:14Z</time>
      </trkpt>
      <trkpt lat="44.20714" lon="6.9799">
        <ele>1011.167</ele>
        <time>2019-10-12T14:26:44Z</time>
      </trkpt>
      <trkpt lat="44.20677" lon="6.98249">
        <ele>1007.481</ele>
        <time>2019-10-12T14:27:14Z</time>
      </trkpt>
      <trkpt lat="44.20524" lon="6.98506">
        <ele>1004.565</ele>
        <time>2019-10-12T14:27:44Z</time>
      </trkpt>
      <trkpt lat="44.20401" lon="6.98718">
        <ele>994.525</ele>
        <time>2019-10-12T14:28:14Z</time>
      </trkpt>
      <trkpt lat="44.20281" lon="6.98933">
        <ele>988.857</ele>
        <time>2019-10-12T14:28:44Z</time>
      </trkpt>
      <trkpt lat="44.20146" lon="6.99108">
        <ele>985.187</ele>
        <time>2019-10-12T14:29:17Z</time>
      </trkpt>
      <trkpt lat="44.20114" lon="6.99415">
        <ele>984.227</ele>
        <time>2019-10-12T14:29:47Z</time>
      </trkpt>
      <trkpt lat="44.20002" lon="6.99711">
        <ele>980.421</ele>
        <time>2019-10-12T14:30:17Z</time>
      </trkpt>
      <trkpt lat="44.19921" lon="6.99982">
        <ele>976.72</ele>
        <time>2019-10-12T14:30:47Z</time>
      </trkpt>
      <trkpt lat="44.19804" lon="7.00226">
        <ele>975.127</ele>
        <time>2019-10-12T14:31:17Z</time>
      </trkpt>
      <trkpt lat="44.19739" lon="7.00487">
        <ele>964.906</ele>
        <time>2019-10-12T14:31:47Z</time>
      </trkpt>
      <trkpt lat="44.19598" lon="7.00674">
        <ele>960.45</ele>
        <time>2019-10-12T14:32:17Z</time>
      </trkpt>
      <trkpt lat="44.19457" lon="7.0083">
        <ele>953.198</ele>
        <time>2019-10-12T14:32:47Z</time>
      </trkpt>
      <trkpt lat="44.19343" lon="7.0113">
        <ele>953.208</ele>
        <time>2019-10-12T14:33:20Z</time>
      </trkpt>
      <trkpt lat="44.19155" lon="7.01478">
        <ele>939.128</ele>
        <time>2019-10-12T14:33:50Z</time>
      </trkpt>
      <trkpt lat="44.1899" lon="7.01798">
        <ele>928.294</ele>
        <time>2019-10-12T14:34:20Z</time>
      </trkpt>
      <trkpt lat="44.18949" lon="7.02106">
        <ele>919.371</ele>
        <time>2019-10-12T14:34:50Z</time>
      </trkpt>
      <trkpt lat="44.18913" lon="7.02455">
        <ele>911.173</ele>
        <time>2019-10-12T14:35:20Z</time>
      </trkpt>
      <trkpt lat="44.18968" lon="7.02713">
        <ele>900.04</ele>
        <time>2019-10-12T14:35:50Z</time>
      </trkpt>
      <trkpt lat="44.19039" lon="7.02975">
        <ele>894.576</ele>
        <time>2019-10-12T14:36:20Z</time>
      </trkpt>
      <trkpt lat="44.19041" lon="7.03224">
        <ele>897.996</ele>
        <time>2019-10-12T14:36:50Z</time>
      </trkpt>
      <trkpt lat="44.18983" lon="7.03522">
        <ele>892.049</ele>
        <time>2019-10-12T14:37:23Z</time>
      </trkpt>
      <trkpt lat="44.18932" lon="7.03779">
        <ele>895.962</ele>
        <time>2019-10-12T14:37:53Z</time>
      </trkpt>
      <trkpt lat="44.18934" lon="7.03729">
        <ele>892.484</ele>
        <time>2019-10-12T14:40:05Z</time>
      </trkpt>
      <trkpt lat="44.18937" lon="7.03731">
        <ele>895.918</ele>
        <time>2019-10-12T14:46:20Z</time>
      </trkpt>
      <trkpt lat="44.18938" lon="7.03735">
        <ele>893.673</ele>
        <time>2019-10-12T14:47:44Z</time>
      </trkpt>
      <trkpt lat="44.1893" lon="7.03793">
        <ele>893.035</ele>
        <time>2019-10-12T14:53:59Z</time>
      </trkpt>
      <trkpt lat="44.18894" lon="7.04032">
        <ele>888.58</ele>
        <time>2019-10-12T14:54:29Z</time>
      </trkpt>
      <trkpt lat="44.18802" lon="7.04365">
        <ele>888.556</ele>
        <time>2019-10-12T14:55:02Z</time>
      </trkpt>
      <trkpt lat="44.18681" lon="7.04624">
        <ele>880.161</ele>
        <time>2019-10-12T14:55:32Z</time>
      </trkpt>
      <trkpt lat="44.18585" lon="7.04841">
        <ele>869.353</ele>
        <time>2019-10-12T14:56:02Z</time>
      </trkpt>
      <trkpt lat="44.18502" lon="7.05065">
        <ele>869.975</ele>
        <time>2019-10-12T14:56:32Z</time>
      </trkpt>
      <trkpt lat="44.18435" lon="7.05286">
        <ele>866.858</ele>
        <time>2019-10-12T14:57:02Z</time>
      </trkpt>
      <trkpt lat="44.18509" lon="7.05327">
        <ele>865.953</ele>
        <time>2019-10-12T14:57:35Z</time>
      </trkpt>
      <trkpt lat="44.18455" lon="7.05489">
        <ele>867.081</ele>
        <time>2019-10-12T14:58:05Z</time>
      </trkpt>
      <trkpt lat="44.18291" lon="7.05808">
        <ele>861.961</ele>
        <time>2019-10-12T14:58:35Z</time>
      </trkpt>
      <trkpt lat="44.18108" lon="7.06056">
        <ele>855.241</ele>
        <time>2019-10-12T14:59:08Z</time>
      </trkpt>
      <trkpt lat="44.17967" lon="7.06301">
        <ele>847.569</ele>
        <time>2019-10-12T14:59:38Z</time>
      </trkpt>
      <trkpt lat="44.17892" lon="7.06547">
        <ele>852.165</ele>
        <time>2019-10-12T15:00:08Z</time>
      </trkpt>
      <trkpt lat="44.17758" lon="7.06761">
        <ele>845.733</ele>
        <time>2019-10-12T15:00:38Z</time>
      </trkpt>
      <trkpt lat="44.17645" lon="7.07006">
        <ele>831.669</ele>
        <time>2019-10-12T15:01:08Z</time>
      </trkpt>
      <trkpt lat="44.17609" lon="7.07266">
        <ele>824.867</ele>
        <time>2019-10-12T15:01:38Z</time>
      </trkpt>
      <trkpt lat="44.17587" lon="7.07494">
        <ele>826.517</ele>
        <time>2019-10-12T15:02:08Z</time>
      </trkpt>
      <trkpt lat="44.17517" lon="7.07732">
        <ele>836.584</ele>
        <time>2019-10-12T15:02:38Z</time>
      </trkpt>
      <trkpt lat="44.1731" lon="7.0803">
        <ele>830.694</ele>
        <time>2019-10-12T15:03:11Z</time>
      </trkpt>
      <trkpt lat="44.17219" lon="7.08339">
        <ele>824.181</ele>
        <time>2019-10-12T15:03:41Z</time>
      </trkpt>
      <trkpt lat="44.17086" lon="7.08529">
        <ele>827.703</ele>
        <time>2019-10-12T15:04:11Z</time>
      </trkpt>
      <trkpt lat="44.16901" lon="7.08698">
        <ele>824.004</ele>
        <time>2019-10-12T15:04:41Z</time>
      </trkpt>
      <trkpt lat="44.16608" lon="7.08811">
        <ele>827.563</ele>
        <time>2019-10-12T15:05:11Z</time>
      </trkpt>
      <trkpt lat="44.16276" lon="7.09001">
        <ele>834.938</ele>
        <time>2019-10-12T15:05:41Z</time>
      </trkpt>
      <trkpt lat="44.15929" lon="7.09084">
        <ele>820.666</ele>
        <time>2019-10-12T15:06:11Z</time>
      </trkpt>
      <trkpt lat="44.15602" lon="7.09034">
        <ele>810.94</ele>
        <time>2019-10-12T15:06:44Z</time>
      </trkpt>
      <trkpt lat="44.15428" lon="7.09222">
        <ele>765.331</ele>
        <time>2019-10-12T15:07:14Z</time>
      </trkpt>
      <trkpt lat="44.15217" lon="7.09401">
        <ele>740.716</ele>
        <time>2019-10-12T15:07:44Z</time>
      </trkpt>
      <trkpt lat="44.1507" lon="7.09574">
        <ele>724.641</ele>
        <time>2019-10-12T15:08:14Z</time>
      </trkpt>
      <trkpt lat="44.14893" lon="7.09651">
        <ele>714.909</ele>
        <time>2019-10-12T15:08:44Z</time>
      </trkpt>
      <trkpt lat="44.14678" lon="7.0967">
        <ele>712.629</ele>
        <time>2019-10-12T15:09:14Z</time>
      </trkpt>
      <trkpt lat="44.14498" lon="7.09805">
        <ele>722.562</ele>
        <time>2019-10-12T15:09:44Z</time>
      </trkpt>
      <trkpt lat="44.14331" lon="7.09761">
        <ele>720.676</ele>
        <time>2019-10-12T15:10:14Z</time>
      </trkpt>
      <trkpt lat="44.14141" lon="7.09847">
        <ele>739.821</ele>
        <time>2019-10-12T15:10:47Z</time>
      </trkpt>
      <trkpt lat="44.13982" lon="7.09895">
        <ele>735.239</ele>
        <time>2019-10-12T15:11:17Z</time>
      </trkpt>
      <trkpt lat="44.13816" lon="7.10033">
        <ele>748.867</ele>
        <time>2019-10-12T15:11:47Z</time>
      </trkpt>
      <trkpt lat="44.13562" lon="7.10028">
        <ele>741.098</ele>
        <time>2019-10-12T15:12:17Z</time>
      </trkpt>
      <trkpt lat="44.13332" lon="7.10101">
        <ele>748.518</ele>
        <time>2019-10-12T15:12:47Z</time>
      </trkpt>
      <trkpt lat="44.13057" lon="7.1002">
        <ele>726.782</ele>
        <time>2019-10-12T15:13:17Z</time>
      </trkpt>
      <trkpt lat="44.12837" lon="7.09727">
        <ele>685.522</ele>
        <time>2019-10-12T15:13:47Z</time>
      </trkpt>
      <trkpt lat="44.12699" lon="7.09484">
        <ele>661.077</ele>
        <time>2019-10-12T15:14:17Z</time>
      </trkpt>
      <trkpt lat="44.12537" lon="7.09365">
        <ele>646.205</ele>
        <time>2019-10-12T15:14:50Z</time>
      </trkpt>
      <trkpt lat="44.12306" lon="7.09212">
        <ele>648.393</ele>
        <time>2019-10-12T15:15:20Z</time>
      </trkpt>
      <trkpt lat="44.12074" lon="7.09206">
        <ele>656.412</ele>
        <time>2019-10-12T15:15:50Z</time>
      </trkpt>
      <trkpt lat="44.11898" lon="7.09249">
        <ele>663.632</ele>
        <time>2019-10-12T15:16:20Z</time>
      </trkpt>
      <trkpt lat="44.11691" lon="7.0924">
        <ele>658.698</ele>
        <time>2019-10-12T15:16:50Z</time>
      </trkpt>
      <trkpt lat="44.11547" lon="7.09404">
        <ele>640.966</ele>
        <time>2019-10-12T15:17:20Z</time>
      </trkpt>
      <trkpt lat="44.11405" lon="7.0962">
        <ele>636.548</ele>
        <time>2019-10-12T15:17:50Z</time>
      </trkpt>
      <trkpt lat="44.11181" lon="7.09751">
        <ele>628.406</ele>
        <time>2019-10-12T15:18:23Z</time>
      </trkpt>
      <trkpt lat="44.11022" lon="7.09906">
        <ele>608.701</ele>
        <time>2019-10-12T15:18:53Z</time>
      </trkpt>
      <trkpt lat="44.10891" lon="7.10151">
        <ele>604.194</ele>
        <time>2019-10-12T15:19:23Z</time>
      </trkpt>
      <trkpt lat="44.10655" lon="7.1021">
        <ele>605.365</ele>
        <time>2019-10-12T15:19:53Z</time>
      </trkpt>
      <trkpt lat="44.10429" lon="7.1024">
        <ele>598.941</ele>
        <time>2019-10-12T15:20:23Z</time>
      </trkpt>
      <trkpt lat="44.10201" lon="7.10306">
        <ele>590.97</ele>
        <time>2019-10-12T15:20:53Z</time>
      </trkpt>
      <trkpt lat="44.09921" lon="7.10362">
        <ele>581.132</ele>
        <time>2019-10-12T15:21:23Z</time>
      </trkpt>
      <trkpt lat="44.09654" lon="7.10498">
        <ele>568.129</ele>
        <time>2019-10-12T15:21:53Z</time>
      </trkpt>
      <trkpt lat="44.09297" lon="7.10679">
        <ele>548.397</ele>
        <time>2019-10-12T15:22:26Z</time>
      </trkpt>
      <trkpt lat="44.08998" lon="7.10734">
        <ele>534.646</ele>
        <time>2019-10-12T15:22:56Z</time>
      </trkpt>
      <trkpt lat="44.08716" lon="7.1065">
        <ele>515.753</ele>
        <time>2019-10-12T15:23:26Z</time>
      </trkpt>
      <trkpt lat="44.08467" lon="7.10625">
        <ele>494.945</ele>
        <time>2019-10-12T15:23:56Z</time>
      </trkpt>
      <trkpt lat="44.08355" lon="7.10529">
        <ele>481.968</ele>
        <time>2019-10-12T15:24:26Z</time>
      </trkpt>
      <trkpt lat="44.08212" lon="7.10636">
        <ele>481.406</ele>
        <time>2019-10-12T15:24:56Z</time>
      </trkpt>
      <trkpt lat="44.0804" lon="7.10657">
        <ele>488.375</ele>
        <time>2019-10-12T15:25:26Z</time>
      </trkpt>
      <trkpt lat="44.07881" lon="7.10513">
        <ele>477.154</ele>
        <time>2019-10-12T15:25:56Z</time>
      </trkpt>
      <trkpt lat="44.07713" lon="7.106">
        <ele>471.143</ele>
        <time>2019-10-12T15:26:29Z</time>
      </trkpt>
      <trkpt lat="44.07595" lon="7.10783">
        <ele>476.986</ele>
        <time>2019-10-12T15:26:59Z</time>
      </trkpt>
      <trkpt lat="44.07443" lon="7.10907">
        <ele>474.767</ele>
        <time>2019-10-12T15:27:29Z</time>
      </trkpt>
      <trkpt lat="44.07257" lon="7.1097">
        <ele>463.239</ele>
        <time>2019-10-12T15:27:59Z</time>
      </trkpt>
      <trkpt lat="44.07084" lon="7.10996">
        <ele>471.083</ele>
        <time>2019-10-12T15:28:29Z</time>
      </trkpt>
      <trkpt lat="44.06938" lon="7.11135">
        <ele>474.16</ele>
        <time>2019-10-12T15:28:59Z</time>
      </trkpt>
      <trkpt lat="44.06852" lon="7.11321">
        <ele>466.87</ele>
        <time>2019-10-12T15:29:29Z</time>
      </trkpt>
      <trkpt lat="44.06716" lon="7.11478">
        <ele>469.185</ele>
        <time>2019-10-12T15:29:59Z</time>
      </trkpt>
      <trkpt lat="44.0653" lon="7.11453">
        <ele>471.416</ele>
        <time>2019-10-12T15:30:32Z</time>
      </trkpt>
      <trkpt lat="44.06455" lon="7.11655">
        <ele>459.363</ele>
        <time>2019-10-12T15:31:02Z</time>
      </trkpt>
      <trkpt lat="44.06334" lon="7.11719">
        <ele>470.477</ele>
        <time>2019-10-12T15:31:32Z</time>
      </trkpt>
      <trkpt lat="44.06218" lon="7.11783">
        <ele>473.645</ele>
        <time>2019-10-12T15:32:02Z</time>
      </trkpt>
      <trkpt lat="44.06087" lon="7.11781">
        <ele>476.105</ele>
        <time>2019-10-12T15:32:32Z</time>
      </trkpt>
      <trkpt lat="44.0597" lon="7.11808">
        <ele>473.967</ele>
        <time>2019-10-12T15:33:02Z</time>
      </trkpt>
      <trkpt lat="44.05851" lon="7.11867">
        <ele>469.149</ele>
        <time>2019-10-12T15:33:32Z</time>
      </trkpt>
      <trkpt lat="44.05727" lon="7.11895">
        <ele>473.458</ele>
        <time>2019-10-12T15:34:05Z</time>
      </trkpt>
      <trkpt lat="44.05609" lon="7.11918">
        <ele>475.535</ele>
        <time>2019-10-12T15:34:35Z</time>
      </trkpt>
      <trkpt lat="44.05499" lon="7.11885">
        <ele>469.299</ele>
        <time>2019-10-12T15:35:05Z</time>
      </trkpt>
      <trkpt lat="44.05465" lon="7.11968">
        <ele>469.869</ele>
        <time>2019-10-12T15:35:35Z</time>
      </trkpt>
      <trkpt lat="44.05467" lon="7.12098">
        <ele>477.595</ele>
        <time>2019-10-12T15:40:44Z</time>
      </trkpt>
      <trkpt lat="44.05457" lon="7.12208">
        <ele>468.995</ele>
        <time>2019-10-12T15:41:14Z</time>
      </trkpt>
      <trkpt lat="44.05274" lon="7.12452">
        <ele>460.629</ele>
        <time>2019-10-12T15:42:06Z</time>
      </trkpt>
      <trkpt lat="44.0508" lon="7.12693">
        <ele>452.736</ele>
        <time>2019-10-12T15:42:36Z</time>
      </trkpt>
      <trkpt lat="44.04811" lon="7.12926">
        <ele>432.78</ele>
        <time>2019-10-12T15:43:09Z</time>
      </trkpt>
      <trkpt lat="44.04485" lon="7.12868">
        <ele>422.035</ele>
        <time>2019-10-12T15:43:39Z</time>
      </trkpt>
      <trkpt lat="44.04343" lon="7.12822">
        <ele>427.415</ele>
        <time>2019-10-12T15:44:09Z</time>
      </trkpt>
      <trkpt lat="44.04195" lon="7.129">
        <ele>431.323</ele>
        <time>2019-10-12T15:44:39Z</time>
      </trkpt>
      <trkpt lat="44.04002" lon="7.1283">
        <ele>428.815</ele>
        <time>2019-10-12T15:45:09Z</time>
      </trkpt>
      <trkpt lat="44.03789" lon="7.12763">
        <ele>411.969</ele>
        <time>2019-10-12T15:45:39Z</time>
      </trkpt>
      <trkpt lat="44.03612" lon="7.12905">
        <ele>400.86</ele>
        <time>2019-10-12T15:46:09Z</time>
      </trkpt>
      <trkpt lat="44.03466" lon="7.13175">
        <ele>398.439</ele>
        <time>2019-10-12T15:46:39Z</time>
      </trkpt>
      <trkpt lat="44.03094" lon="7.13218">
        <ele>378.222</ele>
        <time>2019-10-12T15:47:12Z</time>
      </trkpt>
      <trkpt lat="44.02738" lon="7.13114">
        <ele>362.161</ele>
        <time>2019-10-12T15:47:42Z</time>
      </trkpt>
      <trkpt lat="44.02485" lon="7.13171">
        <ele>354.001</ele>
        <time>2019-10-12T15:48:12Z</time>
      </trkpt>
      <trkpt lat="44.02307" lon="7.13126">
        <ele>347.084</ele>
        <time>2019-10-12T15:48:42Z</time>
      </trkpt>
      <trkpt lat="44.02174" lon="7.13111">
        <ele>347.116</ele>
        <time>2019-10-12T15:49:12Z</time>
      </trkpt>
      <trkpt lat="44.02006" lon="7.13151">
        <ele>344.769</ele>
        <time>2019-10-12T15:49:42Z</time>
      </trkpt>
      <trkpt lat="44.01779" lon="7.13137">
        <ele>345.708</ele>
        <time>2019-10-12T15:50:12Z</time>
      </trkpt>
      <trkpt lat="44.01536" lon="7.13094">
        <ele>341.053</ele>
        <time>2019-10-12T15:50:45Z</time>
      </trkpt>
      <trkpt lat="44.01318" lon="7.13161">
        <ele>335.779</ele>
        <time>2019-10-12T15:51:15Z</time>
      </trkpt>
      <trkpt lat="44.01097" lon="7.13177">
        <ele>339.955</ele>
        <time>2019-10-12T15:51:45Z</time>
      </trkpt>
      <trkpt lat="44.00905" lon="7.13311">
        <ele>344.837</ele>
        <time>2019-10-12T15:52:15Z</time>
      </trkpt>
      <trkpt lat="44.00739" lon="7.13472">
        <ele>347.628</ele>
        <time>2019-10-12T15:52:45Z</time>
      </trkpt>
      <trkpt lat="44.00608" lon="7.13643">
        <ele>332.585</ele>
        <time>2019-10-12T15:53:15Z</time>
      </trkpt>
      <trkpt lat="44.00503" lon="7.13714">
        <ele>332.739</ele>
        <time>2019-10-12T15:53:45Z</time>
      </trkpt>
      <trkpt lat="44.00389" lon="7.13781">
        <ele>328.658</ele>
        <time>2019-10-12T15:54:15Z</time>
      </trkpt>
      <trkpt lat="44.00263" lon="7.13833">
        <ele>337.982</ele>
        <time>2019-10-12T15:54:48Z</time>
      </trkpt>
      <trkpt lat="44.00122" lon="7.13811">
        <ele>350.988</ele>
        <time>2019-10-12T15:55:18Z</time>
      </trkpt>
      <trkpt lat="43.99996" lon="7.13732">
        <ele>355.514</ele>
        <time>2019-10-12T15:55:48Z</time>
      </trkpt>
      <trkpt lat="43.99841" lon="7.13725">
        <ele>348.921</ele>
        <time>2019-10-12T15:56:18Z</time>
      </trkpt>
      <trkpt lat="43.99682" lon="7.13777">
        <ele>343.01</ele>
        <time>2019-10-12T15:56:48Z</time>
      </trkpt>
      <trkpt lat="43.99491" lon="7.13711">
        <ele>345.703</ele>
        <time>2019-10-12T15:57:18Z</time>
      </trkpt>
      <trkpt lat="43.99296" lon="7.13696">
        <ele>338.638</ele>
        <time>2019-10-12T15:57:48Z</time>
      </trkpt>
      <trkpt lat="43.99085" lon="7.13693">
        <ele>330.602</ele>
        <time>2019-10-12T15:58:18Z</time>
      </trkpt>
      <trkpt lat="43.98848" lon="7.13648">
        <ele>332.268</ele>
        <time>2019-10-12T15:58:51Z</time>
      </trkpt>
      <trkpt lat="43.98635" lon="7.13639">
        <ele>331.956</ele>
        <time>2019-10-12T15:59:21Z</time>
      </trkpt>
      <trkpt lat="43.98401" lon="7.13771">
        <ele>317.143</ele>
        <time>2019-10-12T15:59:51Z</time>
      </trkpt>
      <trkpt lat="43.98143" lon="7.13945">
        <ele>305.676</ele>
        <time>2019-10-12T16:00:21Z</time>
      </trkpt>
      <trkpt lat="43.979" lon="7.1401">
        <ele>298.988</ele>
        <time>2019-10-12T16:00:51Z</time>
      </trkpt>
      <trkpt lat="43.97745" lon="7.14055">
        <ele>300.823</ele>
        <time>2019-10-12T16:01:21Z</time>
      </trkpt>
      <trkpt lat="43.97674" lon="7.14033">
        <ele>300.744</ele>
        <time>2019-10-12T16:09:24Z</time>
      </trkpt>
      <trkpt lat="43.97687" lon="7.13971">
        <ele>295.547</ele>
        <time>2019-10-12T16:10:00Z</time>
      </trkpt>
      <trkpt lat="43.9769" lon="7.13991">
        <ele>299.114</ele>
        <time>2019-10-12T16:24:28Z</time>
      </trkpt>
      <trkpt lat="43.97647" lon="7.13985">
        <ele>296.658</ele>
        <time>2019-10-12T16:24:58Z</time>
      </trkpt>
      <trkpt lat="43.97564" lon="7.13946">
        <ele>298.411</ele>
        <time>2019-10-12T16:25:28Z</time>
      </trkpt>
      <trkpt lat="43.97493" lon="7.13987">
        <ele>297.744</ele>
        <time>2019-10-12T16:26:16Z</time>
      </trkpt>
      <trkpt lat="43.97454" lon="7.14058">
        <ele>293.213</ele>
        <time>2019-10-12T16:26:49Z</time>
      </trkpt>
      <trkpt lat="43.9745" lon="7.14052">
        <ele>294.943</ele>
        <time>2019-10-12T16:29:43Z</time>
      </trkpt>
      <trkpt lat="43.97461" lon="7.14035">
        <ele>303.161</ele>
        <time>2019-10-12T16:33:36Z</time>
      </trkpt>
      <trkpt lat="43.97451" lon="7.14066">
        <ele>292.005</ele>
        <time>2019-10-12T16:35:06Z</time>
      </trkpt>
      <trkpt lat="43.97444" lon="7.14055">
        <ele>281.171</ele>
        <time>2019-10-12T16:54:27Z</time>
      </trkpt>
      <trkpt lat="43.97486" lon="7.14073">
        <ele>257.946</ele>
        <time>2019-10-12T17:19:17Z</time>
      </trkpt>
      <trkpt lat="43.97455" lon="7.14085">
        <ele>297.76</ele>
        <time>2019-10-12T17:23:02Z</time>
      </trkpt>
    </trkseg>
  </trk>
  <trk>
    <name><![CDATA[Tracé 20191013-075210]]></name>
    <trkseg>
      <trkpt lat="43.97447" lon="7.14035">
        <ele>321.351</ele>
        <time>2019-10-13T05:55:16Z</time>
      </trkpt>
      <trkpt lat="43.97337" lon="7.14102">
        <ele>308.995</ele>
        <time>2019-10-13T05:55:49Z</time>
      </trkpt>
      <trkpt lat="43.97281" lon="7.14309">
        <ele>301.304</ele>
        <time>2019-10-13T05:56:22Z</time>
      </trkpt>
      <trkpt lat="43.97248" lon="7.1455">
        <ele>300.734</ele>
        <time>2019-10-13T05:56:55Z</time>
      </trkpt>
      <trkpt lat="43.97151" lon="7.147">
        <ele>293.629</ele>
        <time>2019-10-13T05:57:28Z</time>
      </trkpt>
      <trkpt lat="43.97" lon="7.14833">
        <ele>287.443</ele>
        <time>2019-10-13T05:57:58Z</time>
      </trkpt>
      <trkpt lat="43.96826" lon="7.15021">
        <ele>284.833</ele>
        <time>2019-10-13T05:58:31Z</time>
      </trkpt>
      <trkpt lat="43.96621" lon="7.15155">
        <ele>284.291</ele>
        <time>2019-10-13T05:59:04Z</time>
      </trkpt>
      <trkpt lat="43.96418" lon="7.15262">
        <ele>287.036</ele>
        <time>2019-10-13T05:59:37Z</time>
      </trkpt>
      <trkpt lat="43.96267" lon="7.15361">
        <ele>296.065</ele>
        <time>2019-10-13T06:00:10Z</time>
      </trkpt>
      <trkpt lat="43.96087" lon="7.15477">
        <ele>295.28</ele>
        <time>2019-10-13T06:00:43Z</time>
      </trkpt>
      <trkpt lat="43.95908" lon="7.15631">
        <ele>286.196</ele>
        <time>2019-10-13T06:01:13Z</time>
      </trkpt>
      <trkpt lat="43.95684" lon="7.15755">
        <ele>274.036</ele>
        <time>2019-10-13T06:01:46Z</time>
      </trkpt>
      <trkpt lat="43.95429" lon="7.15874">
        <ele>267.61</ele>
        <time>2019-10-13T06:02:19Z</time>
      </trkpt>
      <trkpt lat="43.95181" lon="7.15961">
        <ele>258.223</ele>
        <time>2019-10-13T06:02:52Z</time>
      </trkpt>
      <trkpt lat="43.94981" lon="7.16032">
        <ele>256.907</ele>
        <time>2019-10-13T06:03:25Z</time>
      </trkpt>
      <trkpt lat="43.9479" lon="7.1601">
        <ele>256.964</ele>
        <time>2019-10-13T06:03:55Z</time>
      </trkpt>
      <trkpt lat="43.94607" lon="7.16177">
        <ele>251.254</ele>
        <time>2019-10-13T06:04:28Z</time>
      </trkpt>
      <trkpt lat="43.94381" lon="7.16288">
        <ele>245.813</ele>
        <time>2019-10-13T06:05:01Z</time>
      </trkpt>
      <trkpt lat="43.94186" lon="7.16179">
        <ele>250.289</ele>
        <time>2019-10-13T06:05:34Z</time>
      </trkpt>
      <trkpt lat="43.93989" lon="7.1611">
        <ele>239.023</ele>
        <time>2019-10-13T06:06:07Z</time>
      </trkpt>
      <trkpt lat="43.93834" lon="7.16282">
        <ele>229.479</ele>
        <time>2019-10-13T06:06:40Z</time>
      </trkpt>
      <trkpt lat="43.93794" lon="7.16534">
        <ele>233.316</ele>
        <time>2019-10-13T06:07:10Z</time>
      </trkpt>
      <trkpt lat="43.93777" lon="7.16816">
        <ele>235.649</ele>
        <time>2019-10-13T06:07:43Z</time>
      </trkpt>
      <trkpt lat="43.93835" lon="7.17077">
        <ele>243.741</ele>
        <time>2019-10-13T06:08:16Z</time>
      </trkpt>
      <trkpt lat="43.93592" lon="7.1719">
        <ele>247.981</ele>
        <time>2019-10-13T06:08:49Z</time>
      </trkpt>
      <trkpt lat="43.93397" lon="7.17242">
        <ele>242.771</ele>
        <time>2019-10-13T06:09:22Z</time>
      </trkpt>
      <trkpt lat="43.93281" lon="7.17371">
        <ele>237.936</ele>
        <time>2019-10-13T06:09:52Z</time>
      </trkpt>
      <trkpt lat="43.93193" lon="7.17568">
        <ele>242.955</ele>
        <time>2019-10-13T06:10:25Z</time>
      </trkpt>
      <trkpt lat="43.9311" lon="7.17762">
        <ele>247.667</ele>
        <time>2019-10-13T06:10:58Z</time>
      </trkpt>
      <trkpt lat="43.93015" lon="7.17986">
        <ele>242.689</ele>
        <time>2019-10-13T06:11:31Z</time>
      </trkpt>
      <trkpt lat="43.92857" lon="7.18091">
        <ele>231.125</ele>
        <time>2019-10-13T06:12:04Z</time>
      </trkpt>
      <trkpt lat="43.92702" lon="7.18193">
        <ele>233.081</ele>
        <time>2019-10-13T06:12:37Z</time>
      </trkpt>
      <trkpt lat="43.92597" lon="7.18368">
        <ele>227.135</ele>
        <time>2019-10-13T06:13:07Z</time>
      </trkpt>
      <trkpt lat="43.9252" lon="7.18582">
        <ele>227.306</ele>
        <time>2019-10-13T06:13:40Z</time>
      </trkpt>
      <trkpt lat="43.9235" lon="7.18631">
        <ele>226.094</ele>
        <time>2019-10-13T06:14:13Z</time>
      </trkpt>
      <trkpt lat="43.9211" lon="7.18675">
        <ele>229.295</ele>
        <time>2019-10-13T06:14:46Z</time>
      </trkpt>
      <trkpt lat="43.91881" lon="7.18924">
        <ele>227.765</ele>
        <time>2019-10-13T06:15:19Z</time>
      </trkpt>
      <trkpt lat="43.91656" lon="7.18928">
        <ele>241.356</ele>
        <time>2019-10-13T06:15:49Z</time>
      </trkpt>
      <trkpt lat="43.91499" lon="7.18729">
        <ele>208.927</ele>
        <time>2019-10-13T06:16:22Z</time>
      </trkpt>
      <trkpt lat="43.91322" lon="7.18809">
        <ele>187.351</ele>
        <time>2019-10-13T06:16:55Z</time>
      </trkpt>
      <trkpt lat="43.91194" lon="7.18585">
        <ele>201.595</ele>
        <time>2019-10-13T06:17:28Z</time>
      </trkpt>
      <trkpt lat="43.91137" lon="7.18579">
        <ele>201.177</ele>
        <time>2019-10-13T06:19:22Z</time>
      </trkpt>
      <trkpt lat="43.91028" lon="7.18597">
        <ele>209.29</ele>
        <time>2019-10-13T06:19:55Z</time>
      </trkpt>
      <trkpt lat="43.8989" lon="7.18899">
        <ele>184.201</ele>
        <time>2019-10-13T06:22:23Z</time>
      </trkpt>
      <trkpt lat="43.89366" lon="7.18857">
        <ele>166.251</ele>
        <time>2019-10-13T06:23:37Z</time>
      </trkpt>
      <trkpt lat="43.89121" lon="7.18918">
        <ele>160.592</ele>
        <time>2019-10-13T06:24:10Z</time>
      </trkpt>
      <trkpt lat="43.88906" lon="7.18804">
        <ele>154.051</ele>
        <time>2019-10-13T06:24:43Z</time>
      </trkpt>
      <trkpt lat="43.88712" lon="7.18919">
        <ele>160.997</ele>
        <time>2019-10-13T06:25:16Z</time>
      </trkpt>
      <trkpt lat="43.8849" lon="7.19045">
        <ele>159.178</ele>
        <time>2019-10-13T06:25:46Z</time>
      </trkpt>
      <trkpt lat="43.88256" lon="7.19021">
        <ele>156.154</ele>
        <time>2019-10-13T06:26:19Z</time>
      </trkpt>
      <trkpt lat="43.88026" lon="7.18969">
        <ele>162.736</ele>
        <time>2019-10-13T06:26:52Z</time>
      </trkpt>
      <trkpt lat="43.87813" lon="7.19095">
        <ele>154.946</ele>
        <time>2019-10-13T06:27:25Z</time>
      </trkpt>
      <trkpt lat="43.8763" lon="7.19286">
        <ele>149.662</ele>
        <time>2019-10-13T06:27:58Z</time>
      </trkpt>
      <trkpt lat="43.87416" lon="7.19295">
        <ele>149.521</ele>
        <time>2019-10-13T06:28:31Z</time>
      </trkpt>
      <trkpt lat="43.87279" lon="7.19507">
        <ele>144.272</ele>
        <time>2019-10-13T06:29:01Z</time>
      </trkpt>
      <trkpt lat="43.87087" lon="7.19703">
        <ele>143.712</ele>
        <time>2019-10-13T06:29:34Z</time>
      </trkpt>
      <trkpt lat="43.86869" lon="7.19834">
        <ele>145.564</ele>
        <time>2019-10-13T06:30:07Z</time>
      </trkpt>
      <trkpt lat="43.8663" lon="7.19876">
        <ele>142.457</ele>
        <time>2019-10-13T06:30:40Z</time>
      </trkpt>
      <trkpt lat="43.86387" lon="7.1987">
        <ele>145.058</ele>
        <time>2019-10-13T06:31:13Z</time>
      </trkpt>
      <trkpt lat="43.86166" lon="7.19842">
        <ele>147.893</ele>
        <time>2019-10-13T06:31:43Z</time>
      </trkpt>
      <trkpt lat="43.86002" lon="7.19771">
        <ele>151.831</ele>
        <time>2019-10-13T06:32:16Z</time>
      </trkpt>
      <trkpt lat="43.85799" lon="7.19611">
        <ele>147.19</ele>
        <time>2019-10-13T06:32:49Z</time>
      </trkpt>
      <trkpt lat="43.8557" lon="7.19645">
        <ele>143.162</ele>
        <time>2019-10-13T06:33:22Z</time>
      </trkpt>
      <trkpt lat="43.85368" lon="7.19782">
        <ele>140.378</ele>
        <time>2019-10-13T06:33:55Z</time>
      </trkpt>
      <trkpt lat="43.85134" lon="7.19791">
        <ele>134.347</ele>
        <time>2019-10-13T06:34:28Z</time>
      </trkpt>
      <trkpt lat="43.84924" lon="7.19752">
        <ele>129.789</ele>
        <time>2019-10-13T06:34:58Z</time>
      </trkpt>
      <trkpt lat="43.84714" lon="7.19706">
        <ele>135.22</ele>
        <time>2019-10-13T06:35:31Z</time>
      </trkpt>
      <trkpt lat="43.84504" lon="7.19674">
        <ele>138.09</ele>
        <time>2019-10-13T06:36:04Z</time>
      </trkpt>
      <trkpt lat="43.84282" lon="7.19594">
        <ele>139.682</ele>
        <time>2019-10-13T06:36:37Z</time>
      </trkpt>
      <trkpt lat="43.84064" lon="7.19516">
        <ele>131.157</ele>
        <time>2019-10-13T06:37:10Z</time>
      </trkpt>
      <trkpt lat="43.83881" lon="7.19454">
        <ele>124.287</ele>
        <time>2019-10-13T06:37:40Z</time>
      </trkpt>
      <trkpt lat="43.83804" lon="7.19303">
        <ele>125.458</ele>
        <time>2019-10-13T06:38:13Z</time>
      </trkpt>
      <trkpt lat="43.83833" lon="7.19115">
        <ele>126.883</ele>
        <time>2019-10-13T06:38:46Z</time>
      </trkpt>
      <trkpt lat="43.83697" lon="7.19101">
        <ele>125.888</ele>
        <time>2019-10-13T06:39:19Z</time>
      </trkpt>
      <trkpt lat="43.83609" lon="7.19068">
        <ele>125.746</ele>
        <time>2019-10-13T06:39:55Z</time>
      </trkpt>
      <trkpt lat="43.83437" lon="7.19005">
        <ele>123.881</ele>
        <time>2019-10-13T06:40:28Z</time>
      </trkpt>
      <trkpt lat="43.83269" lon="7.18942">
        <ele>125.136</ele>
        <time>2019-10-13T06:40:58Z</time>
      </trkpt>
      <trkpt lat="43.83087" lon="7.18876">
        <ele>119.887</ele>
        <time>2019-10-13T06:41:31Z</time>
      </trkpt>
      <trkpt lat="43.82907" lon="7.18812">
        <ele>118.98</ele>
        <time>2019-10-13T06:42:04Z</time>
      </trkpt>
      <trkpt lat="43.82723" lon="7.18747">
        <ele>117.511</ele>
        <time>2019-10-13T06:42:37Z</time>
      </trkpt>
      <trkpt lat="43.82535" lon="7.18678">
        <ele>114.95</ele>
        <time>2019-10-13T06:43:10Z</time>
      </trkpt>
      <trkpt lat="43.824" lon="7.18564">
        <ele>114.448</ele>
        <time>2019-10-13T06:43:40Z</time>
      </trkpt>
      <trkpt lat="43.82491" lon="7.184">
        <ele>114.097</ele>
        <time>2019-10-13T06:44:13Z</time>
      </trkpt>
      <trkpt lat="43.82626" lon="7.18304">
        <ele>114.536</ele>
        <time>2019-10-13T06:44:46Z</time>
      </trkpt>
      <trkpt lat="43.82609" lon="7.18209">
        <ele>119.813</ele>
        <time>2019-10-13T06:45:19Z</time>
      </trkpt>
      <trkpt lat="43.82502" lon="7.18222">
        <ele>121.222</ele>
        <time>2019-10-13T06:45:55Z</time>
      </trkpt>
      <trkpt lat="43.82425" lon="7.18271">
        <ele>114.316</ele>
        <time>2019-10-13T06:48:04Z</time>
      </trkpt>
      <trkpt lat="43.82359" lon="7.18304">
        <ele>113.275</ele>
        <time>2019-10-13T06:50:46Z</time>
      </trkpt>
      <trkpt lat="43.82188" lon="7.18371">
        <ele>115.401</ele>
        <time>2019-10-13T06:51:19Z</time>
      </trkpt>
      <trkpt lat="43.82004" lon="7.1841">
        <ele>114.255</ele>
        <time>2019-10-13T06:51:52Z</time>
      </trkpt>
      <trkpt lat="43.81814" lon="7.18434">
        <ele>110.065</ele>
        <time>2019-10-13T06:52:25Z</time>
      </trkpt>
      <trkpt lat="43.81613" lon="7.18454">
        <ele>108.179</ele>
        <time>2019-10-13T06:52:58Z</time>
      </trkpt>
      <trkpt lat="43.81433" lon="7.18487">
        <ele>106.981</ele>
        <time>2019-10-13T06:53:28Z</time>
      </trkpt>
      <trkpt lat="43.81245" lon="7.18566">
        <ele>107.475</ele>
        <time>2019-10-13T06:54:01Z</time>
      </trkpt>
      <trkpt lat="43.81041" lon="7.18713">
        <ele>99.944</ele>
        <time>2019-10-13T06:54:34Z</time>
      </trkpt>
      <trkpt lat="43.80877" lon="7.18884">
        <ele>97.193</ele>
        <time>2019-10-13T06:55:07Z</time>
      </trkpt>
      <trkpt lat="43.80717" lon="7.19068">
        <ele>95.949</ele>
        <time>2019-10-13T06:55:40Z</time>
      </trkpt>
      <trkpt lat="43.80559" lon="7.19245">
        <ele>97.645</ele>
        <time>2019-10-13T06:56:13Z</time>
      </trkpt>
      <trkpt lat="43.80416" lon="7.19417">
        <ele>95.58</ele>
        <time>2019-10-13T06:56:43Z</time>
      </trkpt>
      <trkpt lat="43.80257" lon="7.19601">
        <ele>92.949</ele>
        <time>2019-10-13T06:57:16Z</time>
      </trkpt>
      <trkpt lat="43.80098" lon="7.19778">
        <ele>92.36</ele>
        <time>2019-10-13T06:57:49Z</time>
      </trkpt>
      <trkpt lat="43.79935" lon="7.19962">
        <ele>90.468</ele>
        <time>2019-10-13T06:58:22Z</time>
      </trkpt>
      <trkpt lat="43.79759" lon="7.20155">
        <ele>89.411</ele>
        <time>2019-10-13T06:58:55Z</time>
      </trkpt>
      <trkpt lat="43.79601" lon="7.20336">
        <ele>86.755</ele>
        <time>2019-10-13T06:59:25Z</time>
      </trkpt>
      <trkpt lat="43.79422" lon="7.20541">
        <ele>85.735</ele>
        <time>2019-10-13T06:59:58Z</time>
      </trkpt>
      <trkpt lat="43.79244" lon="7.20746">
        <ele>84.744</ele>
        <time>2019-10-13T07:00:31Z</time>
      </trkpt>
      <trkpt lat="43.79069" lon="7.20949">
        <ele>83.729</ele>
        <time>2019-10-13T07:01:04Z</time>
      </trkpt>
      <trkpt lat="43.78884" lon="7.21138">
        <ele>80.439</ele>
        <time>2019-10-13T07:01:37Z</time>
      </trkpt>
      <trkpt lat="43.78681" lon="7.21281">
        <ele>80.705</ele>
        <time>2019-10-13T07:02:10Z</time>
      </trkpt>
      <trkpt lat="43.78488" lon="7.21372">
        <ele>81.894</ele>
        <time>2019-10-13T07:02:40Z</time>
      </trkpt>
      <trkpt lat="43.78261" lon="7.21421">
        <ele>80.787</ele>
        <time>2019-10-13T07:03:13Z</time>
      </trkpt>
      <trkpt lat="43.78024" lon="7.21421">
        <ele>77.641</ele>
        <time>2019-10-13T07:03:46Z</time>
      </trkpt>
      <trkpt lat="43.77802" lon="7.21366">
        <ele>78.316</ele>
        <time>2019-10-13T07:04:19Z</time>
      </trkpt>
      <trkpt lat="43.77591" lon="7.21259">
        <ele>75.522</ele>
        <time>2019-10-13T07:04:52Z</time>
      </trkpt>
      <trkpt lat="43.7741" lon="7.21127">
        <ele>73.735</ele>
        <time>2019-10-13T07:05:22Z</time>
      </trkpt>
      <trkpt lat="43.7723" lon="7.20945">
        <ele>68.417</ele>
        <time>2019-10-13T07:05:55Z</time>
      </trkpt>
      <trkpt lat="43.77049" lon="7.20785">
        <ele>68.07</ele>
        <time>2019-10-13T07:06:28Z</time>
      </trkpt>
      <trkpt lat="43.76927" lon="7.20671">
        <ele>76.937</ele>
        <time>2019-10-13T07:07:01Z</time>
      </trkpt>
      <trkpt lat="43.76822" lon="7.20499">
        <ele>75.398</ele>
        <time>2019-10-13T07:07:34Z</time>
      </trkpt>
      <trkpt lat="43.7666" lon="7.20296">
        <ele>69.216</ele>
        <time>2019-10-13T07:08:07Z</time>
      </trkpt>
      <trkpt lat="43.76552" lon="7.20175">
        <ele>67.058</ele>
        <time>2019-10-13T07:08:40Z</time>
      </trkpt>
      <trkpt lat="43.76545" lon="7.20235">
        <ele>70.713</ele>
        <time>2019-10-13T07:09:22Z</time>
      </trkpt>
      <trkpt lat="43.76476" lon="7.20358">
        <ele>72.922</ele>
        <time>2019-10-13T07:09:55Z</time>
      </trkpt>
      <trkpt lat="43.76411" lon="7.20476">
        <ele>76.304</ele>
        <time>2019-10-13T07:10:28Z</time>
      </trkpt>
      <trkpt lat="43.76334" lon="7.20435">
        <ele>71.66</ele>
        <time>2019-10-13T07:11:31Z</time>
      </trkpt>
      <trkpt lat="43.76199" lon="7.20294">
        <ele>65.29</ele>
        <time>2019-10-13T07:12:01Z</time>
      </trkpt>
      <trkpt lat="43.76022" lon="7.20112">
        <ele>61.118</ele>
        <time>2019-10-13T07:12:34Z</time>
      </trkpt>
      <trkpt lat="43.75833" lon="7.19921">
        <ele>57.946</ele>
        <time>2019-10-13T07:13:07Z</time>
      </trkpt>
      <trkpt lat="43.75639" lon="7.19745">
        <ele>60.546</ele>
        <time>2019-10-13T07:13:40Z</time>
      </trkpt>
      <trkpt lat="43.75457" lon="7.19554">
        <ele>59.324</ele>
        <time>2019-10-13T07:14:13Z</time>
      </trkpt>
      <trkpt lat="43.75276" lon="7.19365">
        <ele>58.03</ele>
        <time>2019-10-13T07:14:46Z</time>
      </trkpt>
      <trkpt lat="43.751" lon="7.19183">
        <ele>55.626</ele>
        <time>2019-10-13T07:15:16Z</time>
      </trkpt>
      <trkpt lat="43.74895" lon="7.18969">
        <ele>55.46</ele>
        <time>2019-10-13T07:15:49Z</time>
      </trkpt>
      <trkpt lat="43.74687" lon="7.1877">
        <ele>54.538</ele>
        <time>2019-10-13T07:16:22Z</time>
      </trkpt>
      <trkpt lat="43.74462" lon="7.18608">
        <ele>51.246</ele>
        <time>2019-10-13T07:16:55Z</time>
      </trkpt>
      <trkpt lat="43.74217" lon="7.18486">
        <ele>49.149</ele>
        <time>2019-10-13T07:17:28Z</time>
      </trkpt>
      <trkpt lat="43.73991" lon="7.1842">
        <ele>48.468</ele>
        <time>2019-10-13T07:17:58Z</time>
      </trkpt>
      <trkpt lat="43.73725" lon="7.18395">
        <ele>48.621</ele>
        <time>2019-10-13T07:18:31Z</time>
      </trkpt>
      <trkpt lat="43.73464" lon="7.1842">
        <ele>47.704</ele>
        <time>2019-10-13T07:19:04Z</time>
      </trkpt>
      <trkpt lat="43.73204" lon="7.18456">
        <ele>44.923</ele>
        <time>2019-10-13T07:19:37Z</time>
      </trkpt>
      <trkpt lat="43.72942" lon="7.18497">
        <ele>44.658</ele>
        <time>2019-10-13T07:20:10Z</time>
      </trkpt>
      <trkpt lat="43.72678" lon="7.18533">
        <ele>44.877</ele>
        <time>2019-10-13T07:20:43Z</time>
      </trkpt>
      <trkpt lat="43.72447" lon="7.18563">
        <ele>41.8</ele>
        <time>2019-10-13T07:21:13Z</time>
      </trkpt>
      <trkpt lat="43.72238" lon="7.18605">
        <ele>45.567</ele>
        <time>2019-10-13T07:21:46Z</time>
      </trkpt>
      <trkpt lat="43.71989" lon="7.18619">
        <ele>41.792</ele>
        <time>2019-10-13T07:22:19Z</time>
      </trkpt>
      <trkpt lat="43.7172" lon="7.18656">
        <ele>39.708</ele>
        <time>2019-10-13T07:22:52Z</time>
      </trkpt>
      <trkpt lat="43.71462" lon="7.18692">
        <ele>37.954</ele>
        <time>2019-10-13T07:23:25Z</time>
      </trkpt>
      <trkpt lat="43.71236" lon="7.18726">
        <ele>37.7</ele>
        <time>2019-10-13T07:23:55Z</time>
      </trkpt>
      <trkpt lat="43.70945" lon="7.18777">
        <ele>33.527</ele>
        <time>2019-10-13T07:24:28Z</time>
      </trkpt>
      <trkpt lat="43.70674" lon="7.1881">
        <ele>32.266</ele>
        <time>2019-10-13T07:25:01Z</time>
      </trkpt>
      <trkpt lat="43.70401" lon="7.18893">
        <ele>29.957</ele>
        <time>2019-10-13T07:25:34Z</time>
      </trkpt>
      <trkpt lat="43.70172" lon="7.18873">
        <ele>29.097</ele>
        <time>2019-10-13T07:26:07Z</time>
      </trkpt>
      <trkpt lat="43.69953" lon="7.18946">
        <ele>28.502</ele>
        <time>2019-10-13T07:26:40Z</time>
      </trkpt>
      <trkpt lat="43.69754" lon="7.19046">
        <ele>30.377</ele>
        <time>2019-10-13T07:27:10Z</time>
      </trkpt>
      <trkpt lat="43.69584" lon="7.19186">
        <ele>26.012</ele>
        <time>2019-10-13T07:27:43Z</time>
      </trkpt>
      <trkpt lat="43.69571" lon="7.1919">
        <ele>26.093</ele>
        <time>2019-10-13T07:28:16Z</time>
      </trkpt>
      <trkpt lat="43.69365" lon="7.19367">
        <ele>27.013</ele>
        <time>2019-10-13T07:28:49Z</time>
      </trkpt>
      <trkpt lat="43.69166" lon="7.19524">
        <ele>26.342</ele>
        <time>2019-10-13T07:29:22Z</time>
      </trkpt>
      <trkpt lat="43.69087" lon="7.19575">
        <ele>27.363</ele>
        <time>2019-10-13T07:30:52Z</time>
      </trkpt>
      <trkpt lat="43.69141" lon="7.19735">
        <ele>27.121</ele>
        <time>2019-10-13T07:31:25Z</time>
      </trkpt>
      <trkpt lat="43.6922" lon="7.19907">
        <ele>33.878</ele>
        <time>2019-10-13T07:31:58Z</time>
      </trkpt>
      <trkpt lat="43.69112" lon="7.19995">
        <ele>30.851</ele>
        <time>2019-10-13T07:32:31Z</time>
      </trkpt>
      <trkpt lat="43.68959" lon="7.20072">
        <ele>26.64</ele>
        <time>2019-10-13T07:33:04Z</time>
      </trkpt>
      <trkpt lat="43.68801" lon="7.20135">
        <ele>42.352</ele>
        <time>2019-10-13T07:33:37Z</time>
      </trkpt>
      <trkpt lat="43.68627" lon="7.2019">
        <ele>52.589</ele>
        <time>2019-10-13T07:34:07Z</time>
      </trkpt>
      <trkpt lat="43.68462" lon="7.20267">
        <ele>61.308</ele>
        <time>2019-10-13T07:34:40Z</time>
      </trkpt>
      <trkpt lat="43.68295" lon="7.20318">
        <ele>51.895</ele>
        <time>2019-10-13T07:35:13Z</time>
      </trkpt>
      <trkpt lat="43.6812" lon="7.2036">
        <ele>25.384</ele>
        <time>2019-10-13T07:35:46Z</time>
      </trkpt>
      <trkpt lat="43.67946" lon="7.20436">
        <ele>21.373</ele>
        <time>2019-10-13T07:36:19Z</time>
      </trkpt>
      <trkpt lat="43.67812" lon="7.20491">
        <ele>18.727</ele>
        <time>2019-10-13T07:36:49Z</time>
      </trkpt>
      <trkpt lat="43.67645" lon="7.20607">
        <ele>20.069</ele>
        <time>2019-10-13T07:37:22Z</time>
      </trkpt>
      <trkpt lat="43.67538" lon="7.20687">
        <ele>24.436</ele>
        <time>2019-10-13T07:37:55Z</time>
      </trkpt>
      <trkpt lat="43.67522" lon="7.20706">
        <ele>27.847</ele>
        <time>2019-10-13T07:48:01Z</time>
      </trkpt>
      <trkpt lat="43.67381" lon="7.20821">
        <ele>30.21</ele>
        <time>2019-10-13T07:48:34Z</time>
      </trkpt>
      <trkpt lat="43.67192" lon="7.20969">
        <ele>22.807</ele>
        <time>2019-10-13T07:49:07Z</time>
      </trkpt>
      <trkpt lat="43.67121" lon="7.2098">
        <ele>14.492</ele>
        <time>2019-10-13T07:49:40Z</time>
      </trkpt>
      <trkpt lat="43.67052" lon="7.21125">
        <ele>12.803</ele>
        <time>2019-10-13T07:50:13Z</time>
      </trkpt>
      <trkpt lat="43.67016" lon="7.21395">
        <ele>6.255</ele>
        <time>2019-10-13T07:50:46Z</time>
      </trkpt>
      <trkpt lat="43.66984" lon="7.21671">
        <ele>22.555</ele>
        <time>2019-10-13T07:51:19Z</time>
      </trkpt>
      <trkpt lat="43.66952" lon="7.21918">
        <ele>19.19</ele>
        <time>2019-10-13T07:51:52Z</time>
      </trkpt>
      <trkpt lat="43.66914" lon="7.22013">
        <ele>16.643</ele>
        <time>2019-10-13T07:52:55Z</time>
      </trkpt>
      <trkpt lat="43.66876" lon="7.22096">
        <ele>20.554</ele>
        <time>2019-10-13T07:54:07Z</time>
      </trkpt>
      <trkpt lat="43.66939" lon="7.22224">
        <ele>16.009</ele>
        <time>2019-10-13T07:54:40Z</time>
      </trkpt>
      <trkpt lat="43.67073" lon="7.22408">
        <ele>12.056</ele>
        <time>2019-10-13T07:55:13Z</time>
      </trkpt>
      <trkpt lat="43.67208" lon="7.22582">
        <ele>10.699</ele>
        <time>2019-10-13T07:55:46Z</time>
      </trkpt>
      <trkpt lat="43.67371" lon="7.2272">
        <ele>7.411</ele>
        <time>2019-10-13T07:56:19Z</time>
      </trkpt>
      <trkpt lat="43.67497" lon="7.22811">
        <ele>11.048</ele>
        <time>2019-10-13T07:56:49Z</time>
      </trkpt>
      <trkpt lat="43.67654" lon="7.22916">
        <ele>8.823</ele>
        <time>2019-10-13T07:57:22Z</time>
      </trkpt>
      <trkpt lat="43.67799" lon="7.22953">
        <ele>9.966</ele>
        <time>2019-10-13T07:57:55Z</time>
      </trkpt>
      <trkpt lat="43.67938" lon="7.23053">
        <ele>13.533</ele>
        <time>2019-10-13T07:58:28Z</time>
      </trkpt>
      <trkpt lat="43.68078" lon="7.23164">
        <ele>13.867</ele>
        <time>2019-10-13T07:59:01Z</time>
      </trkpt>
      <trkpt lat="43.6821" lon="7.23306">
        <ele>12.088</ele>
        <time>2019-10-13T07:59:31Z</time>
      </trkpt>
      <trkpt lat="43.6836" lon="7.23469">
        <ele>12.678</ele>
        <time>2019-10-13T08:00:04Z</time>
      </trkpt>
      <trkpt lat="43.68497" lon="7.23619">
        <ele>14.602</ele>
        <time>2019-10-13T08:00:37Z</time>
      </trkpt>
      <trkpt lat="43.68618" lon="7.23765">
        <ele>11.438</ele>
        <time>2019-10-13T08:01:10Z</time>
      </trkpt>
      <trkpt lat="43.68748" lon="7.23949">
        <ele>10.939</ele>
        <time>2019-10-13T08:01:43Z</time>
      </trkpt>
      <trkpt lat="43.68862" lon="7.24152">
        <ele>8.657</ele>
        <time>2019-10-13T08:02:16Z</time>
      </trkpt>
      <trkpt lat="43.68962" lon="7.24334">
        <ele>10.968</ele>
        <time>2019-10-13T08:02:46Z</time>
      </trkpt>
      <trkpt lat="43.69037" lon="7.24523">
        <ele>14.02</ele>
        <time>2019-10-13T08:03:19Z</time>
      </trkpt>
      <trkpt lat="43.69113" lon="7.24743">
        <ele>11.459</ele>
        <time>2019-10-13T08:03:52Z</time>
      </trkpt>
      <trkpt lat="43.69189" lon="7.24964">
        <ele>9.781</ele>
        <time>2019-10-13T08:04:25Z</time>
      </trkpt>
      <trkpt lat="43.6927" lon="7.25182">
        <ele>11.733</ele>
        <time>2019-10-13T08:04:58Z</time>
      </trkpt>
      <trkpt lat="43.69291" lon="7.2533">
        <ele>12.821</ele>
        <time>2019-10-13T08:05:28Z</time>
      </trkpt>
      <trkpt lat="43.69266" lon="7.25208">
        <ele>10.068</ele>
        <time>2019-10-13T08:06:01Z</time>
      </trkpt>
      <trkpt lat="43.69305" lon="7.25348">
        <ele>8.697</ele>
        <time>2019-10-13T08:42:34Z</time>
      </trkpt>
      <trkpt lat="43.69343" lon="7.2554">
        <ele>7.097</ele>
        <time>2019-10-13T08:43:07Z</time>
      </trkpt>
      <trkpt lat="43.69387" lon="7.25728">
        <ele>7.082</ele>
        <time>2019-10-13T08:43:40Z</time>
      </trkpt>
      <trkpt lat="43.69424" lon="7.25908">
        <ele>9.042</ele>
        <time>2019-10-13T08:44:13Z</time>
      </trkpt>
      <trkpt lat="43.69457" lon="7.26111">
        <ele>9.159</ele>
        <time>2019-10-13T08:44:43Z</time>
      </trkpt>
      <trkpt lat="43.69472" lon="7.26311">
        <ele>12.185</ele>
        <time>2019-10-13T08:45:16Z</time>
      </trkpt>
      <trkpt lat="43.6948" lon="7.26524">
        <ele>11.962</ele>
        <time>2019-10-13T08:45:49Z</time>
      </trkpt>
      <trkpt lat="43.69482" lon="7.26605">
        <ele>9.018</ele>
        <time>2019-10-13T08:46:25Z</time>
      </trkpt>
      <trkpt lat="43.69484" lon="7.26635">
        <ele>13.227</ele>
        <time>2019-10-13T08:47:49Z</time>
      </trkpt>
      <trkpt lat="43.69485" lon="7.26692">
        <ele>24.574</ele>
        <time>2019-10-13T08:48:19Z</time>
      </trkpt>
      <trkpt lat="43.69497" lon="7.2685">
        <ele>13.278</ele>
        <time>2019-10-13T08:48:52Z</time>
      </trkpt>
      <trkpt lat="43.69506" lon="7.26996">
        <ele>8.783</ele>
        <time>2019-10-13T08:49:31Z</time>
      </trkpt>
      <trkpt lat="43.69501" lon="7.27182">
        <ele>14.912</ele>
        <time>2019-10-13T08:50:04Z</time>
      </trkpt>
      <trkpt lat="43.69504" lon="7.2741">
        <ele>13.938</ele>
        <time>2019-10-13T08:50:37Z</time>
      </trkpt>
      <trkpt lat="43.69493" lon="7.27632">
        <ele>9.909</ele>
        <time>2019-10-13T08:51:10Z</time>
      </trkpt>
      <trkpt lat="43.69472" lon="7.27809">
        <ele>9.707</ele>
        <time>2019-10-13T08:51:40Z</time>
      </trkpt>
      <trkpt lat="43.69387" lon="7.27913">
        <ele>20.052</ele>
        <time>2019-10-13T08:52:13Z</time>
      </trkpt>
      <trkpt lat="43.69322" lon="7.28049">
        <ele>23.601</ele>
        <time>2019-10-13T08:52:46Z</time>
      </trkpt>
      <trkpt lat="43.69334" lon="7.28215">
        <ele>17.242</ele>
        <time>2019-10-13T08:53:19Z</time>
      </trkpt>
      <trkpt lat="43.69417" lon="7.28295">
        <ele>16.266</ele>
        <time>2019-10-13T08:53:55Z</time>
      </trkpt>
      <trkpt lat="43.69556" lon="7.28342">
        <ele>13.081</ele>
        <time>2019-10-13T08:54:25Z</time>
      </trkpt>
      <trkpt lat="43.69668" lon="7.28359">
        <ele>22.648</ele>
        <time>2019-10-13T08:55:01Z</time>
      </trkpt>
      <trkpt lat="43.6975" lon="7.28373">
        <ele>27.767</ele>
        <time>2019-10-13T08:55:34Z</time>
      </trkpt>
      <trkpt lat="43.69851" lon="7.28391">
        <ele>27.73</ele>
        <time>2019-10-13T08:56:07Z</time>
      </trkpt>
      <trkpt lat="43.69838" lon="7.28572">
        <ele>35.581</ele>
        <time>2019-10-13T08:56:40Z</time>
      </trkpt>
      <trkpt lat="43.69777" lon="7.28627">
        <ele>28.247</ele>
        <time>2019-10-13T08:57:13Z</time>
      </trkpt>
      <trkpt lat="43.69685" lon="7.28615">
        <ele>19.735</ele>
        <time>2019-10-13T08:57:46Z</time>
      </trkpt>
      <trkpt lat="43.69607" lon="7.28589">
        <ele>8.682</ele>
        <time>2019-10-13T08:58:37Z</time>
      </trkpt>
      <trkpt lat="43.69523" lon="7.28571">
        <ele>9.792</ele>
        <time>2019-10-13T08:59:16Z</time>
      </trkpt>
      <trkpt lat="43.69464" lon="7.28582">
        <ele>5.652</ele>
        <time>2019-10-13T08:59:52Z</time>
      </trkpt>
      <trkpt lat="43.69449" lon="7.28577">
        <ele>10.297</ele>
        <time>2019-10-13T09:02:25Z</time>
      </trkpt>
      <trkpt lat="43.6944" lon="7.28578">
        <ele>14.594</ele>
        <time>2019-10-13T09:08:46Z</time>
      </trkpt>
      <trkpt lat="43.6944" lon="7.28578">
        <ele>15.256</ele>
        <time>2019-10-13T09:10:55Z</time>
      </trkpt>
      <trkpt lat="43.6942" lon="7.28599">
        <ele>0.136</ele>
        <time>2019-10-13T09:12:55Z</time>
      </trkpt>
      <trkpt lat="43.69422" lon="7.28662">
        <ele>1.001</ele>
        <time>2019-10-13T09:14:16Z</time>
      </trkpt>
      <trkpt lat="43.69475" lon="7.28639">
        <ele>1.712</ele>
        <time>2019-10-13T09:15:28Z</time>
      </trkpt>
      <trkpt lat="43.69419" lon="7.28662">
        <ele>0.14</ele>
        <time>2019-10-13T09:17:22Z</time>
      </trkpt>
      <trkpt lat="43.694" lon="7.2876">
        <ele>2.488</ele>
        <time>2019-10-13T09:17:55Z</time>
      </trkpt>
      <trkpt lat="43.69361" lon="7.2888">
        <ele>11.704</ele>
        <time>2019-10-13T09:18:28Z</time>
      </trkpt>
      <trkpt lat="43.6934" lon="7.28909">
        <ele>6.216</ele>
        <time>2019-10-13T09:19:13Z</time>
      </trkpt>
      <trkpt lat="43.69351" lon="7.289">
        <ele>3.772</ele>
        <time>2019-10-13T09:21:01Z</time>
      </trkpt>
      <trkpt lat="43.6937" lon="7.28884">
        <ele>3.384</ele>
        <time>2019-10-13T09:27:10Z</time>
      </trkpt>
      <trkpt lat="43.69363" lon="7.28881">
        <ele>0.994</ele>
        <time>2019-10-13T09:45:19.001Z</time>
      </trkpt>
      <trkpt lat="43.69372" lon="7.28884">
        <ele>1.047</ele>
        <time>2019-10-13T09:47:16Z</time>
      </trkpt>
      <trkpt lat="43.69366" lon="7.28874">
        <ele>13</ele>
        <time>2019-10-13T09:55:10.001Z</time>
      </trkpt>
      <trkpt lat="43.69402" lon="7.28906">
        <ele>15.7</ele>
        <time>2019-10-13T09:59:56.001Z</time>
      </trkpt>
      <trkpt lat="43.69375" lon="7.28889">
        <ele>13.1</ele>
        <time>2019-10-13T10:00:53.001Z</time>
      </trkpt>
      <trkpt lat="43.69364" lon="7.2887">
        <ele>7.888</ele>
        <time>2019-10-13T10:06:43.001Z</time>
      </trkpt>
      <trkpt lat="43.69371" lon="7.28877">
        <ele>5.4</ele>
        <time>2019-10-13T10:24:01.001Z</time>
      </trkpt>
      <trkpt lat="43.69371" lon="7.2888">
        <ele>4.348</ele>
        <time>2019-10-13T10:31:10.001Z</time>
      </trkpt>
      <trkpt lat="43.69378" lon="7.28879">
        <ele>2.07</ele>
        <time>2019-10-13T10:32:10.001Z</time>
      </trkpt>
      <trkpt lat="43.6937" lon="7.28881">
        <ele>4.145</ele>
        <time>2019-10-13T10:36:37.001Z</time>
      </trkpt>
      <trkpt lat="43.69369" lon="7.28877">
        <ele>3.925</ele>
        <time>2019-10-13T10:38:04.001Z</time>
      </trkpt>
      <trkpt lat="43.69391" lon="7.28813">
        <ele>5.61</ele>
        <time>2019-10-13T10:39:49.001Z</time>
      </trkpt>
      <trkpt lat="43.6941" lon="7.28725">
        <ele>5.498</ele>
        <time>2019-10-13T10:40:58.001Z</time>
      </trkpt>
      <trkpt lat="43.6942" lon="7.28635">
        <ele>7.514</ele>
        <time>2019-10-13T10:42:04.001Z</time>
      </trkpt>
      <trkpt lat="43.69428" lon="7.28568">
        <ele>7.294</ele>
        <time>2019-10-13T10:43:13.001Z</time>
      </trkpt>
      <trkpt lat="43.69432" lon="7.28577">
        <ele>7.294</ele>
        <time>2019-10-13T10:49:25.001Z</time>
      </trkpt>
      <trkpt lat="43.69429" lon="7.28576">
        <ele>7.05</ele>
        <time>2019-10-13T11:12:43.001Z</time>
      </trkpt>
      <trkpt lat="43.6943" lon="7.28575">
        <ele>7.357</ele>
        <time>2019-10-13T11:16:49.001Z</time>
      </trkpt>
      <trkpt lat="43.69407" lon="7.28568">
        <ele>4.648</ele>
        <time>2019-10-13T11:18:22.001Z</time>
      </trkpt>
      <trkpt lat="43.69381" lon="7.28555">
        <ele>3.47</ele>
        <time>2019-10-13T11:21:13.001Z</time>
      </trkpt>
      <trkpt lat="43.69379" lon="7.2856">
        <ele>3.889</ele>
        <time>2019-10-13T11:22:13.001Z</time>
      </trkpt>
      <trkpt lat="43.69379" lon="7.28557">
        <ele>1.513</ele>
        <time>2019-10-13T11:26:31.001Z</time>
      </trkpt>
      <trkpt lat="43.69368" lon="7.28628">
        <ele>3.6</ele>
        <time>2019-10-13T11:27:22.001Z</time>
      </trkpt>
      <trkpt lat="43.6934" lon="7.28659">
        <ele>15.991</ele>
        <time>2019-10-13T11:28:52.001Z</time>
      </trkpt>
      <trkpt lat="43.69411" lon="7.28685">
        <ele>7.6</ele>
        <time>2019-10-13T11:33:22.001Z</time>
      </trkpt>
      <trkpt lat="43.69381" lon="7.28693">
        <ele>8.8</ele>
        <time>2019-10-13T11:35:30.001Z</time>
      </trkpt>
      <trkpt lat="43.6923" lon="7.28702">
        <time>2019-10-13T11:42:51.001Z</time>
      </trkpt>
      <trkpt lat="43.69171" lon="7.28785">
        <ele>6</ele>
        <time>2019-10-13T11:43:33.001Z</time>
      </trkpt>
      <trkpt lat="43.6909" lon="7.28879">
        <ele>2</ele>
        <time>2019-10-13T11:44:06.001Z</time>
      </trkpt>
      <trkpt lat="43.69" lon="7.2899">
        <time>2019-10-13T11:44:39.001Z</time>
      </trkpt>
      <trkpt lat="43.68902" lon="7.29033">
        <time>2019-10-13T11:45:12.001Z</time>
      </trkpt>
      <trkpt lat="43.68786" lon="7.29004">
        <time>2019-10-13T11:45:45.001Z</time>
      </trkpt>
      <trkpt lat="43.68669" lon="7.28928">
        <time>2019-10-13T11:46:18.001Z</time>
      </trkpt>
      <trkpt lat="43.68551" lon="7.28854">
        <time>2019-10-13T11:46:48.001Z</time>
      </trkpt>
      <trkpt lat="43.6841" lon="7.2877">
        <time>2019-10-13T11:47:21.001Z</time>
      </trkpt>
      <trkpt lat="43.68266" lon="7.2869">
        <time>2019-10-13T11:47:54.001Z</time>
      </trkpt>
      <trkpt lat="43.68136" lon="7.28617">
        <time>2019-10-13T11:48:27.001Z</time>
      </trkpt>
      <trkpt lat="43.67985" lon="7.28552">
        <time>2019-10-13T11:49:00.001Z</time>
      </trkpt>
      <trkpt lat="43.67806" lon="7.28524">
        <time>2019-10-13T11:49:33.001Z</time>
      </trkpt>
      <trkpt lat="43.67649" lon="7.28574">
        <time>2019-10-13T11:50:03.001Z</time>
      </trkpt>
      <trkpt lat="43.67461" lon="7.28688">
        <time>2019-10-13T11:50:36.001Z</time>
      </trkpt>
      <trkpt lat="43.67256" lon="7.28868">
        <time>2019-10-13T11:51:09.001Z</time>
      </trkpt>
      <trkpt lat="43.67075" lon="7.29077">
        <time>2019-10-13T11:51:42.001Z</time>
      </trkpt>
      <trkpt lat="43.66881" lon="7.29356">
        <time>2019-10-13T11:52:15.001Z</time>
      </trkpt>
      <trkpt lat="43.66737" lon="7.29631">
        <time>2019-10-13T11:52:45.001Z</time>
      </trkpt>
      <trkpt lat="43.66604" lon="7.29954">
        <time>2019-10-13T11:53:18.001Z</time>
      </trkpt>
      <trkpt lat="43.66473" lon="7.30322">
        <time>2019-10-13T11:53:51.001Z</time>
      </trkpt>
      <trkpt lat="43.66351" lon="7.30658">
        <time>2019-10-13T11:54:24.001Z</time>
      </trkpt>
      <trkpt lat="43.66228" lon="7.31017">
        <time>2019-10-13T11:54:57.001Z</time>
      </trkpt>
      <trkpt lat="43.66093" lon="7.31374">
        <time>2019-10-13T11:55:30.001Z</time>
      </trkpt>
      <trkpt lat="43.65986" lon="7.317">
        <time>2019-10-13T11:56:00.001Z</time>
      </trkpt>
      <trkpt lat="43.65853" lon="7.32058">
        <time>2019-10-13T11:56:33.001Z</time>
      </trkpt>
      <trkpt lat="43.65735" lon="7.32424">
        <time>2019-10-13T11:57:06.001Z</time>
      </trkpt>
      <trkpt lat="43.65607" lon="7.3279">
        <time>2019-10-13T11:57:39.001Z</time>
      </trkpt>
      <trkpt lat="43.65491" lon="7.33138">
        <ele>0.287</ele>
        <time>2019-10-13T11:58:12.001Z</time>
      </trkpt>
      <trkpt lat="43.65369" lon="7.33482">
        <time>2019-10-13T11:58:42.001Z</time>
      </trkpt>
      <trkpt lat="43.65245" lon="7.3384">
        <time>2019-10-13T11:59:15.001Z</time>
      </trkpt>
      <trkpt lat="43.65113" lon="7.34205">
        <time>2019-10-13T11:59:48.001Z</time>
      </trkpt>
      <trkpt lat="43.64989" lon="7.34555">
        <time>2019-10-13T12:00:21.001Z</time>
      </trkpt>
      <trkpt lat="43.64871" lon="7.34912">
        <time>2019-10-13T12:00:54.001Z</time>
      </trkpt>
      <trkpt lat="43.64748" lon="7.3526">
        <time>2019-10-13T12:01:27.001Z</time>
      </trkpt>
      <trkpt lat="43.64648" lon="7.35596">
        <time>2019-10-13T12:01:57.001Z</time>
      </trkpt>
      <trkpt lat="43.64526" lon="7.35945">
        <time>2019-10-13T12:02:30.001Z</time>
      </trkpt>
      <trkpt lat="43.64384" lon="7.36303">
        <time>2019-10-13T12:03:03.001Z</time>
      </trkpt>
      <trkpt lat="43.64268" lon="7.36643">
        <ele>2.692</ele>
        <time>2019-10-13T12:03:36.001Z</time>
      </trkpt>
      <trkpt lat="43.64124" lon="7.3702">
        <ele>0.66</ele>
        <time>2019-10-13T12:04:09.001Z</time>
      </trkpt>
      <trkpt lat="43.64007" lon="7.37338">
        <time>2019-10-13T12:04:39.001Z</time>
      </trkpt>
      <trkpt lat="43.63885" lon="7.37679">
        <time>2019-10-13T12:05:12.001Z</time>
      </trkpt>
      <trkpt lat="43.63751" lon="7.38039">
        <time>2019-10-13T12:05:45.001Z</time>
      </trkpt>
      <trkpt lat="43.63619" lon="7.38387">
        <time>2019-10-13T12:06:18.001Z</time>
      </trkpt>
      <trkpt lat="43.63504" lon="7.38732">
        <time>2019-10-13T12:06:51.001Z</time>
      </trkpt>
      <trkpt lat="43.63366" lon="7.39094">
        <time>2019-10-13T12:07:24.001Z</time>
      </trkpt>
      <trkpt lat="43.63253" lon="7.39394">
        <time>2019-10-13T12:07:54.001Z</time>
      </trkpt>
      <trkpt lat="43.63133" lon="7.39745">
        <ele>0.69</ele>
        <time>2019-10-13T12:08:27.001Z</time>
      </trkpt>
      <trkpt lat="43.62999" lon="7.40097">
        <ele>6.746</ele>
        <time>2019-10-13T12:09:00.001Z</time>
      </trkpt>
      <trkpt lat="43.62877" lon="7.40452">
        <ele>9.146</ele>
        <time>2019-10-13T12:09:33.001Z</time>
      </trkpt>
      <trkpt lat="43.62751" lon="7.40795">
        <ele>3.719</ele>
        <time>2019-10-13T12:10:06.001Z</time>
      </trkpt>
      <trkpt lat="43.62635" lon="7.41111">
        <time>2019-10-13T12:10:36.001Z</time>
      </trkpt>
      <trkpt lat="43.62516" lon="7.41444">
        <time>2019-10-13T12:11:09.001Z</time>
      </trkpt>
      <trkpt lat="43.62391" lon="7.41773">
        <time>2019-10-13T12:11:42.001Z</time>
      </trkpt>
      <trkpt lat="43.62257" lon="7.42127">
        <time>2019-10-13T12:12:15.001Z</time>
      </trkpt>
      <trkpt lat="43.62131" lon="7.42467">
        <time>2019-10-13T12:12:48.001Z</time>
      </trkpt>
      <trkpt lat="43.62001" lon="7.42801">
        <time>2019-10-13T12:13:21.001Z</time>
      </trkpt>
      <trkpt lat="43.61878" lon="7.4311">
        <time>2019-10-13T12:13:51.001Z</time>
      </trkpt>
      <trkpt lat="43.61729" lon="7.43448">
        <time>2019-10-13T12:14:24.001Z</time>
      </trkpt>
      <trkpt lat="43.61588" lon="7.43792">
        <time>2019-10-13T12:14:57.001Z</time>
      </trkpt>
      <trkpt lat="43.6146" lon="7.44114">
        <ele>2.491</ele>
        <time>2019-10-13T12:15:30.001Z</time>
      </trkpt>
      <trkpt lat="43.61332" lon="7.44447">
        <ele>17.779</ele>
        <time>2019-10-13T12:16:03.001Z</time>
      </trkpt>
      <trkpt lat="43.61187" lon="7.44768">
        <ele>13.232</ele>
        <time>2019-10-13T12:16:33.001Z</time>
      </trkpt>
      <trkpt lat="43.61053" lon="7.4509">
        <ele>12.865</ele>
        <time>2019-10-13T12:17:06.001Z</time>
      </trkpt>
      <trkpt lat="43.60912" lon="7.45422">
        <ele>5.224</ele>
        <time>2019-10-13T12:17:39.001Z</time>
      </trkpt>
      <trkpt lat="43.60776" lon="7.45751">
        <time>2019-10-13T12:18:12.001Z</time>
      </trkpt>
      <trkpt lat="43.6063" lon="7.46075">
        <time>2019-10-13T12:18:45.001Z</time>
      </trkpt>
      <trkpt lat="43.60475" lon="7.46412">
        <time>2019-10-13T12:19:18.001Z</time>
      </trkpt>
      <trkpt lat="43.60352" lon="7.46711">
        <time>2019-10-13T12:19:48.001Z</time>
      </trkpt>
      <trkpt lat="43.60211" lon="7.47042">
        <time>2019-10-13T12:20:21.001Z</time>
      </trkpt>
      <trkpt lat="43.60069" lon="7.47384">
        <time>2019-10-13T12:20:54.001Z</time>
      </trkpt>
      <trkpt lat="43.59931" lon="7.47715">
        <time>2019-10-13T12:21:27.001Z</time>
      </trkpt>
      <trkpt lat="43.59808" lon="7.4806">
        <ele>3.768</ele>
        <time>2019-10-13T12:22:00.001Z</time>
      </trkpt>
      <trkpt lat="43.59705" lon="7.48375">
        <time>2019-10-13T12:22:30.001Z</time>
      </trkpt>
      <trkpt lat="43.59593" lon="7.48731">
        <time>2019-10-13T12:23:03.001Z</time>
      </trkpt>
      <trkpt lat="43.59489" lon="7.49078">
        <time>2019-10-13T12:23:36.001Z</time>
      </trkpt>
      <trkpt lat="43.59383" lon="7.49442">
        <time>2019-10-13T12:24:09.001Z</time>
      </trkpt>
      <trkpt lat="43.59279" lon="7.49789">
        <time>2019-10-13T12:24:42.001Z</time>
      </trkpt>
      <trkpt lat="43.59177" lon="7.50149">
        <time>2019-10-13T12:25:15.001Z</time>
      </trkpt>
      <trkpt lat="43.59077" lon="7.50474">
        <time>2019-10-13T12:25:45.001Z</time>
      </trkpt>
      <trkpt lat="43.58973" lon="7.50835">
        <time>2019-10-13T12:26:18.001Z</time>
      </trkpt>
      <trkpt lat="43.58871" lon="7.51192">
        <time>2019-10-13T12:26:51.001Z</time>
      </trkpt>
      <trkpt lat="43.58762" lon="7.5155">
        <time>2019-10-13T12:27:24.001Z</time>
      </trkpt>
      <trkpt lat="43.58655" lon="7.519">
        <time>2019-10-13T12:27:57.001Z</time>
      </trkpt>
      <trkpt lat="43.58556" lon="7.52215">
        <time>2019-10-13T12:28:27.001Z</time>
      </trkpt>
      <trkpt lat="43.58442" lon="7.52548">
        <time>2019-10-13T12:29:00.001Z</time>
      </trkpt>
      <trkpt lat="43.58353" lon="7.52898">
        <time>2019-10-13T12:29:33.001Z</time>
      </trkpt>
      <trkpt lat="43.58268" lon="7.53252">
        <time>2019-10-13T12:30:06.001Z</time>
      </trkpt>
      <trkpt lat="43.58188" lon="7.536">
        <time>2019-10-13T12:30:39.001Z</time>
      </trkpt>
      <trkpt lat="43.58096" lon="7.53972">
        <time>2019-10-13T12:31:12.001Z</time>
      </trkpt>
      <trkpt lat="43.58011" lon="7.54286">
        <ele>5.494</ele>
        <time>2019-10-13T12:31:42.001Z</time>
      </trkpt>
      <trkpt lat="43.57925" lon="7.54662">
        <ele>12.366</ele>
        <time>2019-10-13T12:32:15.001Z</time>
      </trkpt>
      <trkpt lat="43.57836" lon="7.55022">
        <ele>19.345</ele>
        <time>2019-10-13T12:32:48.001Z</time>
      </trkpt>
      <trkpt lat="43.57743" lon="7.55384">
        <ele>13.967</ele>
        <time>2019-10-13T12:33:21.001Z</time>
      </trkpt>
      <trkpt lat="43.57654" lon="7.55739">
        <ele>15.962</ele>
        <time>2019-10-13T12:33:54.001Z</time>
      </trkpt>
      <trkpt lat="43.57571" lon="7.56081">
        <ele>30.195</ele>
        <time>2019-10-13T12:34:24.001Z</time>
      </trkpt>
      <trkpt lat="43.57479" lon="7.56418">
        <ele>28.591</ele>
        <time>2019-10-13T12:34:57.001Z</time>
      </trkpt>
      <trkpt lat="43.57391" lon="7.56761">
        <ele>25.152</ele>
        <time>2019-10-13T12:35:30.001Z</time>
      </trkpt>
      <trkpt lat="43.57316" lon="7.57128">
        <ele>20.343</ele>
        <time>2019-10-13T12:36:03.001Z</time>
      </trkpt>
      <trkpt lat="43.57221" lon="7.57484">
        <ele>14.758</ele>
        <time>2019-10-13T12:36:36.001Z</time>
      </trkpt>
      <trkpt lat="43.57112" lon="7.57828">
        <ele>9.556</ele>
        <time>2019-10-13T12:37:09.001Z</time>
      </trkpt>
      <trkpt lat="43.57031" lon="7.5817">
        <ele>11.278</ele>
        <time>2019-10-13T12:37:39.001Z</time>
      </trkpt>
      <trkpt lat="43.56931" lon="7.58531">
        <time>2019-10-13T12:38:12.001Z</time>
      </trkpt>
      <trkpt lat="43.56846" lon="7.58896">
        <time>2019-10-13T12:38:45.001Z</time>
      </trkpt>
      <trkpt lat="43.56748" lon="7.59257">
        <time>2019-10-13T12:39:18.001Z</time>
      </trkpt>
      <trkpt lat="43.56659" lon="7.5961">
        <time>2019-10-13T12:39:51.001Z</time>
      </trkpt>
      <trkpt lat="43.56572" lon="7.59951">
        <time>2019-10-13T12:40:21.001Z</time>
      </trkpt>
      <trkpt lat="43.56482" lon="7.60307">
        <time>2019-10-13T12:40:54.001Z</time>
      </trkpt>
      <trkpt lat="43.56387" lon="7.60656">
        <time>2019-10-13T12:41:27.001Z</time>
      </trkpt>
      <trkpt lat="43.563" lon="7.61029">
        <time>2019-10-13T12:42:00.001Z</time>
      </trkpt>
      <trkpt lat="43.56203" lon="7.61394">
        <time>2019-10-13T12:42:33.001Z</time>
      </trkpt>
      <trkpt lat="43.56126" lon="7.61735">
        <time>2019-10-13T12:43:06.001Z</time>
      </trkpt>
      <trkpt lat="43.56042" lon="7.62076">
        <time>2019-10-13T12:43:36.001Z</time>
      </trkpt>
      <trkpt lat="43.55945" lon="7.62438">
        <time>2019-10-13T12:44:09.001Z</time>
      </trkpt>
      <trkpt lat="43.55861" lon="7.62801">
        <ele>6.91</ele>
        <time>2019-10-13T12:44:42.001Z</time>
      </trkpt>
      <trkpt lat="43.55773" lon="7.63169">
        <ele>11.433</ele>
        <time>2019-10-13T12:45:15.001Z</time>
      </trkpt>
      <trkpt lat="43.55686" lon="7.63523">
        <ele>15.236</ele>
        <time>2019-10-13T12:45:48.001Z</time>
      </trkpt>
      <trkpt lat="43.55607" lon="7.63855">
        <ele>18.154</ele>
        <time>2019-10-13T12:46:18.001Z</time>
      </trkpt>
      <trkpt lat="43.55509" lon="7.6421">
        <ele>15.299</ele>
        <time>2019-10-13T12:46:51.001Z</time>
      </trkpt>
      <trkpt lat="43.5543" lon="7.64567">
        <ele>6.186</ele>
        <time>2019-10-13T12:47:24.001Z</time>
      </trkpt>
      <trkpt lat="43.55325" lon="7.64941">
        <time>2019-10-13T12:47:57.001Z</time>
      </trkpt>
      <trkpt lat="43.55232" lon="7.65299">
        <time>2019-10-13T12:48:30.001Z</time>
      </trkpt>
      <trkpt lat="43.55142" lon="7.6565">
        <time>2019-10-13T12:49:03.001Z</time>
      </trkpt>
      <trkpt lat="43.55059" lon="7.65986">
        <time>2019-10-13T12:49:33.001Z</time>
      </trkpt>
      <trkpt lat="43.54953" lon="7.66386">
        <time>2019-10-13T12:50:06.001Z</time>
      </trkpt>
      <trkpt lat="43.54865" lon="7.66737">
        <time>2019-10-13T12:50:39.001Z</time>
      </trkpt>
      <trkpt lat="43.54775" lon="7.6712">
        <time>2019-10-13T12:51:12.001Z</time>
      </trkpt>
      <trkpt lat="43.54685" lon="7.67462">
        <time>2019-10-13T12:51:45.001Z</time>
      </trkpt>
      <trkpt lat="43.54593" lon="7.67819">
        <time>2019-10-13T12:52:15.001Z</time>
      </trkpt>
      <trkpt lat="43.54492" lon="7.68196">
        <time>2019-10-13T12:52:48.001Z</time>
      </trkpt>
      <trkpt lat="43.54401" lon="7.68541">
        <time>2019-10-13T12:53:21.001Z</time>
      </trkpt>
      <trkpt lat="43.54306" lon="7.68915">
        <time>2019-10-13T12:53:54.001Z</time>
      </trkpt>
      <trkpt lat="43.54225" lon="7.69269">
        <time>2019-10-13T12:54:27.001Z</time>
      </trkpt>
      <trkpt lat="43.54133" lon="7.69643">
        <time>2019-10-13T12:55:00.001Z</time>
      </trkpt>
      <trkpt lat="43.54048" lon="7.69977">
        <time>2019-10-13T12:55:30.001Z</time>
      </trkpt>
      <trkpt lat="43.53951" lon="7.70355">
        <time>2019-10-13T12:56:03.001Z</time>
      </trkpt>
      <trkpt lat="43.53876" lon="7.70685">
        <time>2019-10-13T12:56:36.001Z</time>
      </trkpt>
      <trkpt lat="43.53768" lon="7.71092">
        <time>2019-10-13T12:57:09.001Z</time>
      </trkpt>
      <trkpt lat="43.53685" lon="7.71447">
        <time>2019-10-13T12:57:42.001Z</time>
      </trkpt>
      <trkpt lat="43.536" lon="7.71794">
        <time>2019-10-13T12:58:12.001Z</time>
      </trkpt>
      <trkpt lat="43.535" lon="7.72158">
        <time>2019-10-13T12:58:45.001Z</time>
      </trkpt>
      <trkpt lat="43.53412" lon="7.72494">
        <time>2019-10-13T12:59:18.001Z</time>
      </trkpt>
      <trkpt lat="43.53317" lon="7.72876">
        <time>2019-10-13T12:59:51.001Z</time>
      </trkpt>
      <trkpt lat="43.53224" lon="7.73236">
        <time>2019-10-13T13:00:24.001Z</time>
      </trkpt>
      <trkpt lat="43.53145" lon="7.73571">
        <time>2019-10-13T13:00:57.001Z</time>
      </trkpt>
      <trkpt lat="43.53074" lon="7.73867">
        <time>2019-10-13T13:01:27.001Z</time>
      </trkpt>
      <trkpt lat="43.52948" lon="7.74318">
        <time>2019-10-13T13:02:00.001Z</time>
      </trkpt>
      <trkpt lat="43.52865" lon="7.74651">
        <time>2019-10-13T13:02:33.001Z</time>
      </trkpt>
      <trkpt lat="43.52768" lon="7.75046">
        <time>2019-10-13T13:03:06.001Z</time>
      </trkpt>
      <trkpt lat="43.52675" lon="7.75415">
        <time>2019-10-13T13:03:39.001Z</time>
      </trkpt>
      <trkpt lat="43.52594" lon="7.75745">
        <time>2019-10-13T13:04:09.001Z</time>
      </trkpt>
      <trkpt lat="43.52495" lon="7.76122">
        <time>2019-10-13T13:04:42.001Z</time>
      </trkpt>
      <trkpt lat="43.52405" lon="7.76468">
        <time>2019-10-13T13:05:15.001Z</time>
      </trkpt>
      <trkpt lat="43.52302" lon="7.76857">
        <time>2019-10-13T13:05:48.001Z</time>
      </trkpt>
      <trkpt lat="43.52217" lon="7.77213">
        <time>2019-10-13T13:06:21.001Z</time>
      </trkpt>
      <trkpt lat="43.52117" lon="7.77623">
        <time>2019-10-13T13:06:54.001Z</time>
      </trkpt>
      <trkpt lat="43.52029" lon="7.77957">
        <time>2019-10-13T13:07:24.001Z</time>
      </trkpt>
      <trkpt lat="43.51936" lon="7.78327">
        <time>2019-10-13T13:07:57.001Z</time>
      </trkpt>
      <trkpt lat="43.5184" lon="7.78714">
        <time>2019-10-13T13:08:30.001Z</time>
      </trkpt>
      <trkpt lat="43.51744" lon="7.79078">
        <time>2019-10-13T13:09:03.001Z</time>
      </trkpt>
      <trkpt lat="43.51653" lon="7.79449">
        <time>2019-10-13T13:09:36.001Z</time>
      </trkpt>
      <trkpt lat="43.51577" lon="7.79789">
        <time>2019-10-13T13:10:06.001Z</time>
      </trkpt>
      <trkpt lat="43.51479" lon="7.80159">
        <time>2019-10-13T13:10:39.001Z</time>
      </trkpt>
      <trkpt lat="43.5138" lon="7.80531">
        <time>2019-10-13T13:11:12.001Z</time>
      </trkpt>
      <trkpt lat="43.51292" lon="7.80903">
        <time>2019-10-13T13:11:45.001Z</time>
      </trkpt>
      <trkpt lat="43.51195" lon="7.81276">
        <time>2019-10-13T13:12:18.001Z</time>
      </trkpt>
      <trkpt lat="43.51101" lon="7.81658">
        <time>2019-10-13T13:12:51.001Z</time>
      </trkpt>
      <trkpt lat="43.51021" lon="7.81975">
        <time>2019-10-13T13:13:21.001Z</time>
      </trkpt>
      <trkpt lat="43.50932" lon="7.82352">
        <time>2019-10-13T13:13:54.001Z</time>
      </trkpt>
      <trkpt lat="43.50822" lon="7.82729">
        <time>2019-10-13T13:14:27.001Z</time>
      </trkpt>
      <trkpt lat="43.50722" lon="7.83102">
        <time>2019-10-13T13:15:00.001Z</time>
      </trkpt>
      <trkpt lat="43.50623" lon="7.83454">
        <time>2019-10-13T13:15:33.001Z</time>
      </trkpt>
      <trkpt lat="43.50536" lon="7.83786">
        <time>2019-10-13T13:16:03.001Z</time>
      </trkpt>
      <trkpt lat="43.50429" lon="7.84147">
        <time>2019-10-13T13:16:36.001Z</time>
      </trkpt>
      <trkpt lat="43.50329" lon="7.84519">
        <time>2019-10-13T13:17:09.001Z</time>
      </trkpt>
      <trkpt lat="43.50227" lon="7.84907">
        <time>2019-10-13T13:17:42.002Z</time>
      </trkpt>
      <trkpt lat="43.50125" lon="7.85291">
        <time>2019-10-13T13:18:15.001Z</time>
      </trkpt>
      <trkpt lat="43.50019" lon="7.85675">
        <time>2019-10-13T13:18:48.001Z</time>
      </trkpt>
      <trkpt lat="43.49906" lon="7.86003">
        <time>2019-10-13T13:19:18.001Z</time>
      </trkpt>
      <trkpt lat="43.49824" lon="7.8638">
        <time>2019-10-13T13:19:51.001Z</time>
      </trkpt>
      <trkpt lat="43.4972" lon="7.86776">
        <ele>0.525</ele>
        <time>2019-10-13T13:20:24.001Z</time>
      </trkpt>
      <trkpt lat="43.49601" lon="7.87131">
        <ele>22.225</ele>
        <time>2019-10-13T13:20:57.001Z</time>
      </trkpt>
      <trkpt lat="43.49492" lon="7.87507">
        <ele>28.201</ele>
        <time>2019-10-13T13:21:30.001Z</time>
      </trkpt>
      <trkpt lat="43.49402" lon="7.87847">
        <ele>29.598</ele>
        <time>2019-10-13T13:22:00.001Z</time>
      </trkpt>
      <trkpt lat="43.49282" lon="7.88219">
        <ele>33.695</ele>
        <time>2019-10-13T13:22:33.001Z</time>
      </trkpt>
      <trkpt lat="43.48455" lon="7.91132">
        <ele>27.492</ele>
        <time>2019-10-13T13:26:55.001Z</time>
      </trkpt>
      <trkpt lat="43.48149" lon="7.92227">
        <ele>28.983</ele>
        <time>2019-10-13T13:28:31.001Z</time>
      </trkpt>
      <trkpt lat="43.48046" lon="7.9258">
        <time>2019-10-13T13:29:04.001Z</time>
      </trkpt>
      <trkpt lat="43.47938" lon="7.92949">
        <time>2019-10-13T13:29:37.001Z</time>
      </trkpt>
      <trkpt lat="43.47833" lon="7.93292">
        <time>2019-10-13T13:30:07.001Z</time>
      </trkpt>
      <trkpt lat="43.4771" lon="7.93648">
        <time>2019-10-13T13:30:40.001Z</time>
      </trkpt>
      <trkpt lat="43.47585" lon="7.94015">
        <ele>6.398</ele>
        <time>2019-10-13T13:31:13.001Z</time>
      </trkpt>
      <trkpt lat="43.47465" lon="7.94376">
        <ele>5.784</ele>
        <time>2019-10-13T13:31:46.001Z</time>
      </trkpt>
      <trkpt lat="43.47348" lon="7.94756">
        <ele>10.791</ele>
        <time>2019-10-13T13:32:19.001Z</time>
      </trkpt>
      <trkpt lat="43.4723" lon="7.95092">
        <ele>16.895</ele>
        <time>2019-10-13T13:32:49.001Z</time>
      </trkpt>
      <trkpt lat="43.47147" lon="7.95445">
        <ele>4.935</ele>
        <time>2019-10-13T13:33:22.001Z</time>
      </trkpt>
      <trkpt lat="43.47038" lon="7.95809">
        <time>2019-10-13T13:33:55.001Z</time>
      </trkpt>
      <trkpt lat="43.4689" lon="7.9617">
        <time>2019-10-13T13:34:28.001Z</time>
      </trkpt>
      <trkpt lat="43.46785" lon="7.96515">
        <time>2019-10-13T13:35:01.001Z</time>
      </trkpt>
      <trkpt lat="43.46682" lon="7.96881">
        <time>2019-10-13T13:35:34.001Z</time>
      </trkpt>
      <trkpt lat="43.46567" lon="7.97235">
        <time>2019-10-13T13:36:04.001Z</time>
      </trkpt>
      <trkpt lat="43.46459" lon="7.97586">
        <time>2019-10-13T13:36:37.001Z</time>
      </trkpt>
      <trkpt lat="43.46342" lon="7.97958">
        <time>2019-10-13T13:37:10.001Z</time>
      </trkpt>
      <trkpt lat="43.46231" lon="7.98322">
        <time>2019-10-13T13:37:43.001Z</time>
      </trkpt>
      <trkpt lat="43.46127" lon="7.98703">
        <time>2019-10-13T13:38:16Z</time>
      </trkpt>
      <trkpt lat="43.46036" lon="7.99032">
        <time>2019-10-13T13:38:46.001Z</time>
      </trkpt>
      <trkpt lat="43.45934" lon="7.99392">
        <time>2019-10-13T13:39:19.001Z</time>
      </trkpt>
      <trkpt lat="43.45828" lon="7.9977">
        <time>2019-10-13T13:39:52.001Z</time>
      </trkpt>
      <trkpt lat="43.45724" lon="8.00122">
        <time>2019-10-13T13:40:25.001Z</time>
      </trkpt>
      <trkpt lat="43.45608" lon="8.00501">
        <time>2019-10-13T13:40:58.001Z</time>
      </trkpt>
      <trkpt lat="43.45507" lon="8.00891">
        <time>2019-10-13T13:41:31.001Z</time>
      </trkpt>
      <trkpt lat="43.45413" lon="8.01224">
        <time>2019-10-13T13:42:01.001Z</time>
      </trkpt>
      <trkpt lat="43.45311" lon="8.01593">
        <time>2019-10-13T13:42:34.001Z</time>
      </trkpt>
      <trkpt lat="43.45206" lon="8.01964">
        <time>2019-10-13T13:43:07.001Z</time>
      </trkpt>
      <trkpt lat="43.45102" lon="8.02326">
        <ele>0.329</ele>
        <time>2019-10-13T13:43:40.001Z</time>
      </trkpt>
      <trkpt lat="43.44998" lon="8.02699">
        <time>2019-10-13T13:44:13.001Z</time>
      </trkpt>
      <trkpt lat="43.44889" lon="8.03022">
        <time>2019-10-13T13:44:43.001Z</time>
      </trkpt>
      <trkpt lat="43.44784" lon="8.03381">
        <time>2019-10-13T13:45:16Z</time>
      </trkpt>
      <trkpt lat="43.44679" lon="8.03778">
        <time>2019-10-13T13:45:49.001Z</time>
      </trkpt>
      <trkpt lat="43.44584" lon="8.04136">
        <time>2019-10-13T13:46:22.002Z</time>
      </trkpt>
      <trkpt lat="43.4446" lon="8.04485">
        <time>2019-10-13T13:46:55.001Z</time>
      </trkpt>
      <trkpt lat="43.44369" lon="8.0488">
        <time>2019-10-13T13:47:28.001Z</time>
      </trkpt>
      <trkpt lat="43.4427" lon="8.05225">
        <time>2019-10-13T13:47:58.001Z</time>
      </trkpt>
      <trkpt lat="43.44178" lon="8.05602">
        <time>2019-10-13T13:48:31.001Z</time>
      </trkpt>
      <trkpt lat="43.44068" lon="8.05957">
        <time>2019-10-13T13:49:04.001Z</time>
      </trkpt>
      <trkpt lat="43.43971" lon="8.06337">
        <time>2019-10-13T13:49:37.001Z</time>
      </trkpt>
      <trkpt lat="43.43879" lon="8.067">
        <time>2019-10-13T13:50:10.001Z</time>
      </trkpt>
      <trkpt lat="43.43781" lon="8.0702">
        <time>2019-10-13T13:50:40.001Z</time>
      </trkpt>
      <trkpt lat="43.43668" lon="8.07389">
        <time>2019-10-13T13:51:13.001Z</time>
      </trkpt>
      <trkpt lat="43.43551" lon="8.0775">
        <time>2019-10-13T13:51:46.001Z</time>
      </trkpt>
      <trkpt lat="43.43469" lon="8.08136">
        <ele>5.752</ele>
        <time>2019-10-13T13:52:19.001Z</time>
      </trkpt>
      <trkpt lat="43.43364" lon="8.08499">
        <ele>0.81</ele>
        <time>2019-10-13T13:52:52.001Z</time>
      </trkpt>
      <trkpt lat="43.43286" lon="8.08862">
        <time>2019-10-13T13:53:22.001Z</time>
      </trkpt>
      <trkpt lat="43.4316" lon="8.09229">
        <time>2019-10-13T13:53:55.001Z</time>
      </trkpt>
      <trkpt lat="43.4307" lon="8.09616">
        <time>2019-10-13T13:54:28.001Z</time>
      </trkpt>
      <trkpt lat="43.42983" lon="8.09969">
        <time>2019-10-13T13:55:01.001Z</time>
      </trkpt>
      <trkpt lat="43.42867" lon="8.10315">
        <time>2019-10-13T13:55:34.001Z</time>
      </trkpt>
      <trkpt lat="43.42748" lon="8.10703">
        <time>2019-10-13T13:56:07.001Z</time>
      </trkpt>
      <trkpt lat="43.42653" lon="8.11012">
        <time>2019-10-13T13:56:37.001Z</time>
      </trkpt>
      <trkpt lat="43.42562" lon="8.11383">
        <time>2019-10-13T13:57:10.001Z</time>
      </trkpt>
      <trkpt lat="43.42471" lon="8.11743">
        <time>2019-10-13T13:57:43.001Z</time>
      </trkpt>
      <trkpt lat="43.42355" lon="8.12127">
        <time>2019-10-13T13:58:16Z</time>
      </trkpt>
      <trkpt lat="43.42247" lon="8.12472">
        <time>2019-10-13T13:58:49.001Z</time>
      </trkpt>
      <trkpt lat="43.42158" lon="8.12802">
        <time>2019-10-13T13:59:19.001Z</time>
      </trkpt>
      <trkpt lat="43.42062" lon="8.13197">
        <time>2019-10-13T13:59:52.001Z</time>
      </trkpt>
      <trkpt lat="43.41942" lon="8.13558">
        <time>2019-10-13T14:00:25.001Z</time>
      </trkpt>
      <trkpt lat="43.41843" lon="8.13949">
        <time>2019-10-13T14:00:58.001Z</time>
      </trkpt>
      <trkpt lat="43.41739" lon="8.14297">
        <time>2019-10-13T14:01:31.001Z</time>
      </trkpt>
      <trkpt lat="43.41624" lon="8.14676">
        <time>2019-10-13T14:02:04.001Z</time>
      </trkpt>
      <trkpt lat="43.41544" lon="8.15011">
        <time>2019-10-13T14:02:34.001Z</time>
      </trkpt>
      <trkpt lat="43.41444" lon="8.15366">
        <time>2019-10-13T14:03:07.001Z</time>
      </trkpt>
      <trkpt lat="43.41334" lon="8.15756">
        <time>2019-10-13T14:03:40.001Z</time>
      </trkpt>
      <trkpt lat="43.41235" lon="8.16115">
        <time>2019-10-13T14:04:13.001Z</time>
      </trkpt>
      <trkpt lat="43.41144" lon="8.16477">
        <time>2019-10-13T14:04:46.001Z</time>
      </trkpt>
      <trkpt lat="43.4106" lon="8.16815">
        <time>2019-10-13T14:05:16Z</time>
      </trkpt>
      <trkpt lat="43.40956" lon="8.17202">
        <time>2019-10-13T14:05:49.001Z</time>
      </trkpt>
      <trkpt lat="43.40857" lon="8.1756">
        <time>2019-10-13T14:06:22.001Z</time>
      </trkpt>
      <trkpt lat="43.40747" lon="8.17943">
        <time>2019-10-13T14:06:55.001Z</time>
      </trkpt>
      <trkpt lat="43.40651" lon="8.18293">
        <time>2019-10-13T14:07:28.001Z</time>
      </trkpt>
      <trkpt lat="43.4056" lon="8.18682">
        <time>2019-10-13T14:08:01.001Z</time>
      </trkpt>
      <trkpt lat="43.40456" lon="8.19017">
        <time>2019-10-13T14:08:31.001Z</time>
      </trkpt>
      <trkpt lat="43.40352" lon="8.19377">
        <time>2019-10-13T14:09:04.001Z</time>
      </trkpt>
      <trkpt lat="43.40259" lon="8.19755">
        <time>2019-10-13T14:09:37.001Z</time>
      </trkpt>
      <trkpt lat="43.4015" lon="8.20122">
        <time>2019-10-13T14:10:10.001Z</time>
      </trkpt>
      <trkpt lat="43.40055" lon="8.20492">
        <time>2019-10-13T14:10:43.001Z</time>
      </trkpt>
      <trkpt lat="43.39959" lon="8.20832">
        <time>2019-10-13T14:11:13.001Z</time>
      </trkpt>
      <trkpt lat="43.39857" lon="8.21205">
        <time>2019-10-13T14:11:46.001Z</time>
      </trkpt>
      <trkpt lat="43.39748" lon="8.21582">
        <time>2019-10-13T14:12:19.001Z</time>
      </trkpt>
      <trkpt lat="43.39656" lon="8.21938">
        <time>2019-10-13T14:12:52.001Z</time>
      </trkpt>
      <trkpt lat="43.39549" lon="8.22316">
        <time>2019-10-13T14:13:25.001Z</time>
      </trkpt>
      <trkpt lat="43.39444" lon="8.22673">
        <time>2019-10-13T14:13:58.001Z</time>
      </trkpt>
      <trkpt lat="43.39366" lon="8.22996">
        <time>2019-10-13T14:14:28.001Z</time>
      </trkpt>
      <trkpt lat="43.39258" lon="8.23371">
        <time>2019-10-13T14:15:01.001Z</time>
      </trkpt>
      <trkpt lat="43.39157" lon="8.23751">
        <time>2019-10-13T14:15:34.001Z</time>
      </trkpt>
      <trkpt lat="43.3906" lon="8.24123">
        <ele>8.927</ele>
        <time>2019-10-13T14:16:07.001Z</time>
      </trkpt>
      <trkpt lat="43.38955" lon="8.24478">
        <ele>12.366</ele>
        <time>2019-10-13T14:16:40.001Z</time>
      </trkpt>
      <trkpt lat="43.38857" lon="8.24823">
        <ele>10.297</ele>
        <time>2019-10-13T14:17:10.001Z</time>
      </trkpt>
      <trkpt lat="43.38758" lon="8.25181">
        <ele>5.519</ele>
        <time>2019-10-13T14:17:43.001Z</time>
      </trkpt>
      <trkpt lat="43.38666" lon="8.25545">
        <ele>1.633</ele>
        <time>2019-10-13T14:18:16Z</time>
      </trkpt>
      <trkpt lat="43.38577" lon="8.25898">
        <time>2019-10-13T14:18:49.001Z</time>
      </trkpt>
      <trkpt lat="43.38455" lon="8.26275">
        <time>2019-10-13T14:19:22.001Z</time>
      </trkpt>
      <trkpt lat="43.38353" lon="8.26641">
        <time>2019-10-13T14:19:55.001Z</time>
      </trkpt>
      <trkpt lat="43.38266" lon="8.26977">
        <time>2019-10-13T14:20:25.001Z</time>
      </trkpt>
      <trkpt lat="43.3817" lon="8.27343">
        <time>2019-10-13T14:20:58.001Z</time>
      </trkpt>
      <trkpt lat="43.38067" lon="8.27704">
        <time>2019-10-13T14:21:31.001Z</time>
      </trkpt>
      <trkpt lat="43.37968" lon="8.28081">
        <time>2019-10-13T14:22:04.001Z</time>
      </trkpt>
      <trkpt lat="43.37865" lon="8.28457">
        <time>2019-10-13T14:22:37.001Z</time>
      </trkpt>
      <trkpt lat="43.37784" lon="8.28786">
        <time>2019-10-13T14:23:07.001Z</time>
      </trkpt>
      <trkpt lat="43.37679" lon="8.29151">
        <time>2019-10-13T14:23:40.001Z</time>
      </trkpt>
      <trkpt lat="43.37584" lon="8.29508">
        <time>2019-10-13T14:24:13.001Z</time>
      </trkpt>
      <trkpt lat="43.37488" lon="8.2989">
        <time>2019-10-13T14:24:46.001Z</time>
      </trkpt>
      <trkpt lat="43.37395" lon="8.30247">
        <time>2019-10-13T14:25:19.001Z</time>
      </trkpt>
      <trkpt lat="43.37294" lon="8.30615">
        <time>2019-10-13T14:25:52.001Z</time>
      </trkpt>
      <trkpt lat="43.37223" lon="8.30954">
        <time>2019-10-13T14:26:22.001Z</time>
      </trkpt>
      <trkpt lat="43.37126" lon="8.31322">
        <time>2019-10-13T14:26:55.001Z</time>
      </trkpt>
      <trkpt lat="43.37032" lon="8.31682">
        <time>2019-10-13T14:27:28.001Z</time>
      </trkpt>
      <trkpt lat="43.36937" lon="8.32065">
        <time>2019-10-13T14:28:01.001Z</time>
      </trkpt>
      <trkpt lat="43.36845" lon="8.32436">
        <time>2019-10-13T14:28:34.001Z</time>
      </trkpt>
      <trkpt lat="43.36754" lon="8.3277">
        <time>2019-10-13T14:29:04.001Z</time>
      </trkpt>
      <trkpt lat="43.36663" lon="8.33135">
        <time>2019-10-13T14:29:37.001Z</time>
      </trkpt>
      <trkpt lat="43.36573" lon="8.33511">
        <time>2019-10-13T14:30:10.001Z</time>
      </trkpt>
      <trkpt lat="43.36475" lon="8.33874">
        <time>2019-10-13T14:30:43.001Z</time>
      </trkpt>
      <trkpt lat="43.36387" lon="8.34245">
        <time>2019-10-13T14:31:16Z</time>
      </trkpt>
      <trkpt lat="43.36338" lon="8.34617">
        <time>2019-10-13T14:31:49.001Z</time>
      </trkpt>
      <trkpt lat="43.36203" lon="8.34967">
        <time>2019-10-13T14:32:19.001Z</time>
      </trkpt>
      <trkpt lat="43.36111" lon="8.3532">
        <time>2019-10-13T14:32:52.001Z</time>
      </trkpt>
      <trkpt lat="43.3601" lon="8.35711">
        <time>2019-10-13T14:33:25.001Z</time>
      </trkpt>
      <trkpt lat="43.35922" lon="8.36079">
        <time>2019-10-13T14:33:58.001Z</time>
      </trkpt>
      <trkpt lat="43.35832" lon="8.36446">
        <time>2019-10-13T14:34:31.001Z</time>
      </trkpt>
      <trkpt lat="43.35746" lon="8.36787">
        <time>2019-10-13T14:35:01.001Z</time>
      </trkpt>
      <trkpt lat="43.35656" lon="8.37148">
        <time>2019-10-13T14:35:34.001Z</time>
      </trkpt>
      <trkpt lat="43.35565" lon="8.37528">
        <time>2019-10-13T14:36:07.001Z</time>
      </trkpt>
      <trkpt lat="43.35472" lon="8.37879">
        <time>2019-10-13T14:36:40.001Z</time>
      </trkpt>
      <trkpt lat="43.3537" lon="8.38285">
        <time>2019-10-13T14:37:13.001Z</time>
      </trkpt>
      <trkpt lat="43.35297" lon="8.38685">
        <time>2019-10-13T14:37:46.001Z</time>
      </trkpt>
      <trkpt lat="43.35197" lon="8.39028">
        <time>2019-10-13T14:38:19.001Z</time>
      </trkpt>
      <trkpt lat="43.35091" lon="8.39401">
        <time>2019-10-13T14:38:52.001Z</time>
      </trkpt>
      <trkpt lat="43.35037" lon="8.39781">
        <time>2019-10-13T14:39:25.001Z</time>
      </trkpt>
      <trkpt lat="43.34933" lon="8.40155">
        <time>2019-10-13T14:39:58.001Z</time>
      </trkpt>
      <trkpt lat="43.34855" lon="8.40542">
        <time>2019-10-13T14:40:31.001Z</time>
      </trkpt>
      <trkpt lat="43.34774" lon="8.40868">
        <time>2019-10-13T14:41:01.001Z</time>
      </trkpt>
      <trkpt lat="43.347" lon="8.41254">
        <time>2019-10-13T14:41:34.001Z</time>
      </trkpt>
      <trkpt lat="43.34625" lon="8.41624">
        <ele>6.645</ele>
        <time>2019-10-13T14:42:07.001Z</time>
      </trkpt>
      <trkpt lat="43.34522" lon="8.41998">
        <time>2019-10-13T14:42:40.001Z</time>
      </trkpt>
      <trkpt lat="43.34442" lon="8.42363">
        <time>2019-10-13T14:43:13.001Z</time>
      </trkpt>
      <trkpt lat="43.34362" lon="8.42727">
        <time>2019-10-13T14:43:46.001Z</time>
      </trkpt>
      <trkpt lat="43.34275" lon="8.43075">
        <time>2019-10-13T14:44:16Z</time>
      </trkpt>
      <trkpt lat="43.34192" lon="8.43437">
        <time>2019-10-13T14:44:49.001Z</time>
      </trkpt>
      <trkpt lat="43.34093" lon="8.43801">
        <time>2019-10-13T14:45:22.001Z</time>
      </trkpt>
      <trkpt lat="43.34015" lon="8.44182">
        <time>2019-10-13T14:45:55.001Z</time>
      </trkpt>
      <trkpt lat="43.33941" lon="8.44535">
        <time>2019-10-13T14:46:28.001Z</time>
      </trkpt>
      <trkpt lat="43.33865" lon="8.44879">
        <time>2019-10-13T14:46:58.001Z</time>
      </trkpt>
      <trkpt lat="43.33754" lon="8.45244">
        <time>2019-10-13T14:47:31.001Z</time>
      </trkpt>
      <trkpt lat="43.337" lon="8.4563">
        <time>2019-10-13T14:48:04.001Z</time>
      </trkpt>
      <trkpt lat="43.3358" lon="8.45979">
        <time>2019-10-13T14:48:37.001Z</time>
      </trkpt>
      <trkpt lat="43.3349" lon="8.46357">
        <time>2019-10-13T14:49:10.001Z</time>
      </trkpt>
      <trkpt lat="43.33388" lon="8.46718">
        <time>2019-10-13T14:49:43.001Z</time>
      </trkpt>
      <trkpt lat="43.33304" lon="8.47069">
        <time>2019-10-13T14:50:13.001Z</time>
      </trkpt>
      <trkpt lat="43.33235" lon="8.47429">
        <ele>5.378</ele>
        <time>2019-10-13T14:50:46.001Z</time>
      </trkpt>
      <trkpt lat="43.3315" lon="8.47784">
        <ele>14.979</ele>
        <time>2019-10-13T14:51:19.001Z</time>
      </trkpt>
      <trkpt lat="43.33062" lon="8.48155">
        <ele>4.139</ele>
        <time>2019-10-13T14:51:52.001Z</time>
      </trkpt>
      <trkpt lat="43.32972" lon="8.4852">
        <ele>10.265</ele>
        <time>2019-10-13T14:52:25.001Z</time>
      </trkpt>
      <trkpt lat="43.32903" lon="8.48852">
        <ele>17.096</ele>
        <time>2019-10-13T14:52:55.001Z</time>
      </trkpt>
      <trkpt lat="43.32819" lon="8.49211">
        <ele>12.783</ele>
        <time>2019-10-13T14:53:28.001Z</time>
      </trkpt>
      <trkpt lat="43.32737" lon="8.49586">
        <time>2019-10-13T14:54:01.001Z</time>
      </trkpt>
      <trkpt lat="43.32634" lon="8.49949">
        <time>2019-10-13T14:54:34.001Z</time>
      </trkpt>
      <trkpt lat="43.3253" lon="8.5032">
        <time>2019-10-13T14:55:07.001Z</time>
      </trkpt>
      <trkpt lat="43.3245" lon="8.50682">
        <time>2019-10-13T14:55:40.001Z</time>
      </trkpt>
      <trkpt lat="43.3237" lon="8.51012">
        <time>2019-10-13T14:56:10.001Z</time>
      </trkpt>
      <trkpt lat="43.32285" lon="8.51378">
        <time>2019-10-13T14:56:43.001Z</time>
      </trkpt>
      <trkpt lat="43.32203" lon="8.51736">
        <ele>5.158</ele>
        <time>2019-10-13T14:57:16Z</time>
      </trkpt>
      <trkpt lat="43.32133" lon="8.52107">
        <ele>8.685</ele>
        <time>2019-10-13T14:57:49.001Z</time>
      </trkpt>
      <trkpt lat="43.32031" lon="8.52476">
        <ele>4.893</ele>
        <time>2019-10-13T14:58:22.001Z</time>
      </trkpt>
      <trkpt lat="43.31953" lon="8.52811">
        <time>2019-10-13T14:58:52.001Z</time>
      </trkpt>
      <trkpt lat="43.31863" lon="8.53183">
        <time>2019-10-13T14:59:25.001Z</time>
      </trkpt>
      <trkpt lat="43.31761" lon="8.5354">
        <time>2019-10-13T14:59:58.001Z</time>
      </trkpt>
      <trkpt lat="43.3168" lon="8.53914">
        <time>2019-10-13T15:00:31.001Z</time>
      </trkpt>
      <trkpt lat="43.31605" lon="8.54282">
        <ele>1.876</ele>
        <time>2019-10-13T15:01:04.001Z</time>
      </trkpt>
      <trkpt lat="43.31504" lon="8.54642">
        <ele>20.875</ele>
        <time>2019-10-13T15:01:37.001Z</time>
      </trkpt>
      <trkpt lat="43.31477" lon="8.54979">
        <ele>38.176</ele>
        <time>2019-10-13T15:02:07.001Z</time>
      </trkpt>
      <trkpt lat="43.31384" lon="8.55336">
        <ele>42.961</ele>
        <time>2019-10-13T15:02:40.001Z</time>
      </trkpt>
      <trkpt lat="43.31266" lon="8.5571">
        <ele>38.004</ele>
        <time>2019-10-13T15:03:13.001Z</time>
      </trkpt>
      <trkpt lat="43.3118" lon="8.56069">
        <ele>16.573</ele>
        <time>2019-10-13T15:03:46.001Z</time>
      </trkpt>
      <trkpt lat="43.3107" lon="8.56439">
        <ele>6.182</ele>
        <time>2019-10-13T15:04:19.001Z</time>
      </trkpt>
      <trkpt lat="43.30972" lon="8.56771">
        <ele>3.907</ele>
        <time>2019-10-13T15:04:49.001Z</time>
      </trkpt>
      <trkpt lat="43.30868" lon="8.57136">
        <ele>9.219</ele>
        <time>2019-10-13T15:05:22.001Z</time>
      </trkpt>
      <trkpt lat="43.30799" lon="8.57507">
        <ele>19.421</ele>
        <time>2019-10-13T15:05:55.001Z</time>
      </trkpt>
      <trkpt lat="43.3072" lon="8.57871">
        <ele>20.394</ele>
        <time>2019-10-13T15:06:28.001Z</time>
      </trkpt>
      <trkpt lat="43.30617" lon="8.58235">
        <ele>16.478</ele>
        <time>2019-10-13T15:07:01.001Z</time>
      </trkpt>
      <trkpt lat="43.3054" lon="8.58599">
        <ele>7.665</ele>
        <time>2019-10-13T15:07:34.001Z</time>
      </trkpt>
      <trkpt lat="43.30406" lon="8.58917">
        <ele>7.539</ele>
        <time>2019-10-13T15:08:04.001Z</time>
      </trkpt>
      <trkpt lat="43.30317" lon="8.59293">
        <ele>1.968</ele>
        <time>2019-10-13T15:08:37.001Z</time>
      </trkpt>
      <trkpt lat="43.30235" lon="8.59653">
        <ele>5.458</ele>
        <time>2019-10-13T15:09:10.001Z</time>
      </trkpt>
      <trkpt lat="43.30123" lon="8.60023">
        <ele>6.639</ele>
        <time>2019-10-13T15:09:43.001Z</time>
      </trkpt>
      <trkpt lat="43.30054" lon="8.60395">
        <ele>19.15</ele>
        <time>2019-10-13T15:10:16Z</time>
      </trkpt>
      <trkpt lat="43.29962" lon="8.60721">
        <ele>21.094</ele>
        <time>2019-10-13T15:10:46.001Z</time>
      </trkpt>
      <trkpt lat="43.2989" lon="8.61089">
        <ele>6.609</ele>
        <time>2019-10-13T15:11:19.001Z</time>
      </trkpt>
      <trkpt lat="43.29773" lon="8.61453">
        <ele>0.074</ele>
        <time>2019-10-13T15:11:52.001Z</time>
      </trkpt>
      <trkpt lat="43.29673" lon="8.61834">
        <ele>1.215</ele>
        <time>2019-10-13T15:12:25.001Z</time>
      </trkpt>
      <trkpt lat="43.29595" lon="8.62196">
        <ele>10.027</ele>
        <time>2019-10-13T15:12:58.001Z</time>
      </trkpt>
      <trkpt lat="43.295" lon="8.62564">
        <ele>8.09</ele>
        <time>2019-10-13T15:13:31.001Z</time>
      </trkpt>
      <trkpt lat="43.29427" lon="8.62897">
        <ele>0.159</ele>
        <time>2019-10-13T15:14:01.001Z</time>
      </trkpt>
      <trkpt lat="43.29304" lon="8.63272">
        <time>2019-10-13T15:14:34.001Z</time>
      </trkpt>
      <trkpt lat="43.29208" lon="8.6365">
        <time>2019-10-13T15:15:07.001Z</time>
      </trkpt>
      <trkpt lat="43.291" lon="8.6401">
        <time>2019-10-13T15:15:40.001Z</time>
      </trkpt>
      <trkpt lat="43.2903" lon="8.64377">
        <time>2019-10-13T15:16:13.001Z</time>
      </trkpt>
      <trkpt lat="43.28933" lon="8.64721">
        <time>2019-10-13T15:16:43.001Z</time>
      </trkpt>
      <trkpt lat="43.28838" lon="8.65089">
        <time>2019-10-13T15:17:16Z</time>
      </trkpt>
      <trkpt lat="43.28764" lon="8.65451">
        <ele>1.774</ele>
        <time>2019-10-13T15:17:49.001Z</time>
      </trkpt>
      <trkpt lat="43.28658" lon="8.65822">
        <ele>8.673</ele>
        <time>2019-10-13T15:18:22.001Z</time>
      </trkpt>
      <trkpt lat="43.27881" lon="8.68628">
        <ele>5.934</ele>
        <time>2019-10-13T15:22:31.001Z</time>
      </trkpt>
      <trkpt lat="43.2781" lon="8.68994">
        <ele>22.994</ele>
        <time>2019-10-13T15:23:04.001Z</time>
      </trkpt>
      <trkpt lat="43.27808" lon="8.69361">
        <ele>7.482</ele>
        <time>2019-10-13T15:23:34.001Z</time>
      </trkpt>
      <trkpt lat="43.2772" lon="8.69749">
        <time>2019-10-13T15:24:07.001Z</time>
      </trkpt>
      <trkpt lat="43.27591" lon="8.70129">
        <time>2019-10-13T15:24:40.001Z</time>
      </trkpt>
      <trkpt lat="43.27465" lon="8.70493">
        <time>2019-10-13T15:25:13.001Z</time>
      </trkpt>
      <trkpt lat="43.27363" lon="8.70871">
        <time>2019-10-13T15:25:46.001Z</time>
      </trkpt>
      <trkpt lat="43.27326" lon="8.71229">
        <time>2019-10-13T15:26:16Z</time>
      </trkpt>
      <trkpt lat="43.27219" lon="8.71604">
        <time>2019-10-13T15:26:49.001Z</time>
      </trkpt>
      <trkpt lat="43.27091" lon="8.71968">
        <time>2019-10-13T15:27:22.001Z</time>
      </trkpt>
      <trkpt lat="43.27033" lon="8.72355">
        <time>2019-10-13T15:27:55.001Z</time>
      </trkpt>
      <trkpt lat="43.26977" lon="8.72734">
        <time>2019-10-13T15:28:28.001Z</time>
      </trkpt>
      <trkpt lat="43.26881" lon="8.73115">
        <time>2019-10-13T15:29:01.001Z</time>
      </trkpt>
      <trkpt lat="43.26804" lon="8.73458">
        <ele>1.974</ele>
        <time>2019-10-13T15:29:31.001Z</time>
      </trkpt>
      <trkpt lat="43.26738" lon="8.73827">
        <ele>1.437</ele>
        <time>2019-10-13T15:30:04.001Z</time>
      </trkpt>
      <trkpt lat="43.26622" lon="8.74218">
        <time>2019-10-13T15:30:37.001Z</time>
      </trkpt>
      <trkpt lat="43.26531" lon="8.74589">
        <time>2019-10-13T15:31:10.001Z</time>
      </trkpt>
      <trkpt lat="43.26438" lon="8.74964">
        <time>2019-10-13T15:31:43.001Z</time>
      </trkpt>
      <trkpt lat="43.26358" lon="8.75318">
        <time>2019-10-13T15:32:13.001Z</time>
      </trkpt>
      <trkpt lat="43.2626" lon="8.75703">
        <time>2019-10-13T15:32:46.001Z</time>
      </trkpt>
      <trkpt lat="43.26185" lon="8.76083">
        <time>2019-10-13T15:33:19.001Z</time>
      </trkpt>
      <trkpt lat="43.26098" lon="8.76464">
        <time>2019-10-13T15:33:52.001Z</time>
      </trkpt>
      <trkpt lat="43.26008" lon="8.7684">
        <time>2019-10-13T15:34:25.001Z</time>
      </trkpt>
      <trkpt lat="43.2591" lon="8.77232">
        <time>2019-10-13T15:34:58.001Z</time>
      </trkpt>
      <trkpt lat="43.25831" lon="8.77562">
        <time>2019-10-13T15:35:28.001Z</time>
      </trkpt>
      <trkpt lat="43.25743" lon="8.77945">
        <time>2019-10-13T15:36:01.001Z</time>
      </trkpt>
      <trkpt lat="43.25662" lon="8.78332">
        <time>2019-10-13T15:36:34.001Z</time>
      </trkpt>
      <trkpt lat="43.25583" lon="8.78702">
        <time>2019-10-13T15:37:07.001Z</time>
      </trkpt>
      <trkpt lat="43.25493" lon="8.79089">
        <time>2019-10-13T15:37:40.001Z</time>
      </trkpt>
      <trkpt lat="43.25428" lon="8.79434">
        <time>2019-10-13T15:38:10.001Z</time>
      </trkpt>
      <trkpt lat="43.25343" lon="8.79803">
        <time>2019-10-13T15:38:43.001Z</time>
      </trkpt>
      <trkpt lat="43.25271" lon="8.80195">
        <time>2019-10-13T15:39:16Z</time>
      </trkpt>
      <trkpt lat="43.2518" lon="8.80574">
        <time>2019-10-13T15:39:49.001Z</time>
      </trkpt>
      <trkpt lat="43.251" lon="8.8095">
        <time>2019-10-13T15:40:22.001Z</time>
      </trkpt>
      <trkpt lat="43.25013" lon="8.81347">
        <ele>5.163</ele>
        <time>2019-10-13T15:40:55.001Z</time>
      </trkpt>
      <trkpt lat="43.24952" lon="8.81691">
        <ele>12.673</ele>
        <time>2019-10-13T15:41:25.001Z</time>
      </trkpt>
      <trkpt lat="43.24888" lon="8.82073">
        <ele>13.79</ele>
        <time>2019-10-13T15:41:58.001Z</time>
      </trkpt>
      <trkpt lat="43.24804" lon="8.8246">
        <ele>1.057</ele>
        <time>2019-10-13T15:42:31.001Z</time>
      </trkpt>
      <trkpt lat="43.24713" lon="8.82851">
        <time>2019-10-13T15:43:04.001Z</time>
      </trkpt>
      <trkpt lat="43.24625" lon="8.83227">
        <ele>4.219</ele>
        <time>2019-10-13T15:43:37.001Z</time>
      </trkpt>
      <trkpt lat="43.24553" lon="8.83572">
        <ele>13.281</ele>
        <time>2019-10-13T15:44:07.001Z</time>
      </trkpt>
      <trkpt lat="43.24432" lon="8.8397">
        <ele>14.195</ele>
        <time>2019-10-13T15:44:40.001Z</time>
      </trkpt>
      <trkpt lat="43.24368" lon="8.84358">
        <ele>7.191</ele>
        <time>2019-10-13T15:45:13.001Z</time>
      </trkpt>
      <trkpt lat="43.24294" lon="8.8474">
        <ele>14.705</ele>
        <time>2019-10-13T15:45:46.001Z</time>
      </trkpt>
      <trkpt lat="43.24202" lon="8.85098">
        <ele>28.734</ele>
        <time>2019-10-13T15:46:19.001Z</time>
      </trkpt>
      <trkpt lat="43.24129" lon="8.85492">
        <ele>43.508</ele>
        <time>2019-10-13T15:46:52.001Z</time>
      </trkpt>
      <trkpt lat="43.24049" lon="8.85843">
        <ele>47.633</ele>
        <time>2019-10-13T15:47:22.001Z</time>
      </trkpt>
      <trkpt lat="43.23952" lon="8.86218">
        <ele>14.083</ele>
        <time>2019-10-13T15:47:55.001Z</time>
      </trkpt>
      <trkpt lat="43.23833" lon="8.86589">
        <time>2019-10-13T15:48:28.001Z</time>
      </trkpt>
      <trkpt lat="43.23738" lon="8.86963">
        <time>2019-10-13T15:49:01.001Z</time>
      </trkpt>
      <trkpt lat="43.2365" lon="8.87332">
        <time>2019-10-13T15:49:34.001Z</time>
      </trkpt>
      <trkpt lat="43.23571" lon="8.87677">
        <time>2019-10-13T15:50:04.001Z</time>
      </trkpt>
      <trkpt lat="43.23479" lon="8.8806">
        <ele>5.68</ele>
        <time>2019-10-13T15:50:37.001Z</time>
      </trkpt>
      <trkpt lat="43.23397" lon="8.8842">
        <ele>3.429</ele>
        <time>2019-10-13T15:51:10.001Z</time>
      </trkpt>
      <trkpt lat="43.23288" lon="8.88796">
        <ele>3.499</ele>
        <time>2019-10-13T15:51:43.001Z</time>
      </trkpt>
      <trkpt lat="43.23194" lon="8.8916">
        <ele>9.211</ele>
        <time>2019-10-13T15:52:16Z</time>
      </trkpt>
      <trkpt lat="43.23113" lon="8.89532">
        <ele>9.318</ele>
        <time>2019-10-13T15:52:49.001Z</time>
      </trkpt>
      <trkpt lat="43.23" lon="8.89859">
        <ele>9.114</ele>
        <time>2019-10-13T15:53:19.001Z</time>
      </trkpt>
      <trkpt lat="43.229" lon="8.90233">
        <ele>7.572</ele>
        <time>2019-10-13T15:53:52.001Z</time>
      </trkpt>
      <trkpt lat="43.22326" lon="8.92861">
        <ele>109.733</ele>
        <time>2019-10-13T15:57:45.001Z</time>
      </trkpt>
      <trkpt lat="43.22113" lon="8.93215">
        <time>2019-10-13T15:58:18.001Z</time>
      </trkpt>
      <trkpt lat="43.21992" lon="8.93575">
        <time>2019-10-13T15:58:51.001Z</time>
      </trkpt>
      <trkpt lat="43.21877" lon="8.93914">
        <time>2019-10-13T15:59:21.001Z</time>
      </trkpt>
      <trkpt lat="43.21736" lon="8.94285">
        <time>2019-10-13T15:59:54.001Z</time>
      </trkpt>
      <trkpt lat="43.21685" lon="8.94651">
        <time>2019-10-13T16:00:27.001Z</time>
      </trkpt>
      <trkpt lat="43.21571" lon="8.95022">
        <time>2019-10-13T16:01:00.001Z</time>
      </trkpt>
      <trkpt lat="43.21518" lon="8.9539">
        <time>2019-10-13T16:01:33.001Z</time>
      </trkpt>
      <trkpt lat="43.21401" lon="8.9577">
        <time>2019-10-13T16:02:06.001Z</time>
      </trkpt>
      <trkpt lat="43.21314" lon="8.9609">
        <time>2019-10-13T16:02:36.001Z</time>
      </trkpt>
      <trkpt lat="43.21203" lon="8.96469">
        <time>2019-10-13T16:03:09.001Z</time>
      </trkpt>
      <trkpt lat="43.21142" lon="8.96886">
        <ele>1.416</ele>
        <time>2019-10-13T16:03:42.001Z</time>
      </trkpt>
      <trkpt lat="43.21017" lon="8.97204">
        <ele>2.48</ele>
        <time>2019-10-13T16:04:15.001Z</time>
      </trkpt>
      <trkpt lat="43.20921" lon="8.97594">
        <ele>0.164</ele>
        <time>2019-10-13T16:04:48.001Z</time>
      </trkpt>
      <trkpt lat="43.20812" lon="8.97943">
        <time>2019-10-13T16:05:18.001Z</time>
      </trkpt>
      <trkpt lat="43.20793" lon="8.98338">
        <ele>7.467</ele>
        <time>2019-10-13T16:05:51.001Z</time>
      </trkpt>
      <trkpt lat="43.2062" lon="8.98706">
        <time>2019-10-13T16:06:24.001Z</time>
      </trkpt>
      <trkpt lat="43.20521" lon="8.99072">
        <ele>0.226</ele>
        <time>2019-10-13T16:06:57.001Z</time>
      </trkpt>
      <trkpt lat="43.20404" lon="8.99441">
        <time>2019-10-13T16:07:30.001Z</time>
      </trkpt>
      <trkpt lat="43.20302" lon="8.99805">
        <time>2019-10-13T16:08:03.001Z</time>
      </trkpt>
      <trkpt lat="43.20184" lon="9.00107">
        <time>2019-10-13T16:08:33.001Z</time>
      </trkpt>
      <trkpt lat="43.20101" lon="9.00502">
        <time>2019-10-13T16:09:06.001Z</time>
      </trkpt>
      <trkpt lat="43.19986" lon="9.00861">
        <time>2019-10-13T16:09:39.001Z</time>
      </trkpt>
      <trkpt lat="43.19887" lon="9.01235">
        <time>2019-10-13T16:10:12.001Z</time>
      </trkpt>
      <trkpt lat="43.19754" lon="9.01587">
        <time>2019-10-13T16:10:45.001Z</time>
      </trkpt>
      <trkpt lat="43.19712" lon="9.01951">
        <time>2019-10-13T16:11:15.001Z</time>
      </trkpt>
      <trkpt lat="43.19578" lon="9.02301">
        <time>2019-10-13T16:11:48.001Z</time>
      </trkpt>
      <trkpt lat="43.195" lon="9.02676">
        <time>2019-10-13T16:12:21.001Z</time>
      </trkpt>
      <trkpt lat="43.19443" lon="9.03067">
        <time>2019-10-13T16:12:54.001Z</time>
      </trkpt>
      <trkpt lat="43.19248" lon="9.03376">
        <time>2019-10-13T16:13:27.001Z</time>
      </trkpt>
      <trkpt lat="43.17123" lon="9.11198">
        <time>2019-10-13T16:25:17.001Z</time>
      </trkpt>
      <trkpt lat="43.17046" lon="9.11544">
        <time>2019-10-13T16:25:47.001Z</time>
      </trkpt>
      <trkpt lat="43.16951" lon="9.11908">
        <ele>5.368</ele>
        <time>2019-10-13T16:26:20.001Z</time>
      </trkpt>
      <trkpt lat="43.16849" lon="9.12255">
        <time>2019-10-13T16:26:53.001Z</time>
      </trkpt>
      <trkpt lat="43.16751" lon="9.12616">
        <time>2019-10-13T16:27:26.001Z</time>
      </trkpt>
      <trkpt lat="43.16658" lon="9.12968">
        <time>2019-10-13T16:27:59.001Z</time>
      </trkpt>
      <trkpt lat="43.16571" lon="9.13294">
        <time>2019-10-13T16:28:29.001Z</time>
      </trkpt>
      <trkpt lat="43.16479" lon="9.13642">
        <time>2019-10-13T16:29:02Z</time>
      </trkpt>
      <trkpt lat="43.16374" lon="9.14002">
        <ele>7.613</ele>
        <time>2019-10-13T16:29:35.001Z</time>
      </trkpt>
      <trkpt lat="43.16291" lon="9.14408">
        <ele>5.464</ele>
        <time>2019-10-13T16:30:08.001Z</time>
      </trkpt>
      <trkpt lat="43.16208" lon="9.14778">
        <ele>0.98</ele>
        <time>2019-10-13T16:30:41.001Z</time>
      </trkpt>
      <trkpt lat="43.16106" lon="9.15159">
        <time>2019-10-13T16:31:14.001Z</time>
      </trkpt>
      <trkpt lat="43.16022" lon="9.15481">
        <time>2019-10-13T16:31:44.001Z</time>
      </trkpt>
      <trkpt lat="43.15926" lon="9.15851">
        <time>2019-10-13T16:32:17.001Z</time>
      </trkpt>
      <trkpt lat="43.15829" lon="9.16209">
        <time>2019-10-13T16:32:50.001Z</time>
      </trkpt>
      <trkpt lat="43.15732" lon="9.1658">
        <time>2019-10-13T16:33:23.001Z</time>
      </trkpt>
      <trkpt lat="43.15633" lon="9.16947">
        <time>2019-10-13T16:33:56.001Z</time>
      </trkpt>
      <trkpt lat="43.15543" lon="9.17292">
        <time>2019-10-13T16:34:26.001Z</time>
      </trkpt>
      <trkpt lat="43.15449" lon="9.17653">
        <time>2019-10-13T16:34:59.001Z</time>
      </trkpt>
      <trkpt lat="43.15361" lon="9.1801">
        <time>2019-10-13T16:35:32.001Z</time>
      </trkpt>
      <trkpt lat="43.15261" lon="9.18392">
        <time>2019-10-13T16:36:05.001Z</time>
      </trkpt>
      <trkpt lat="43.15174" lon="9.18745">
        <time>2019-10-13T16:36:38.001Z</time>
      </trkpt>
      <trkpt lat="43.15081" lon="9.19102">
        <time>2019-10-13T16:37:11.001Z</time>
      </trkpt>
      <trkpt lat="43.1498" lon="9.19479">
        <time>2019-10-13T16:37:41.001Z</time>
      </trkpt>
      <trkpt lat="43.1489" lon="9.19828">
        <time>2019-10-13T16:38:14.001Z</time>
      </trkpt>
      <trkpt lat="43.14787" lon="9.20192">
        <time>2019-10-13T16:38:47.001Z</time>
      </trkpt>
      <trkpt lat="43.14677" lon="9.20538">
        <ele>4.279</ele>
        <time>2019-10-13T16:39:20.001Z</time>
      </trkpt>
      <trkpt lat="43.14581" lon="9.20898">
        <ele>9.626</ele>
        <time>2019-10-13T16:39:53.001Z</time>
      </trkpt>
      <trkpt lat="43.14475" lon="9.21248">
        <ele>8.727</ele>
        <time>2019-10-13T16:40:23.001Z</time>
      </trkpt>
      <trkpt lat="43.14381" lon="9.21613">
        <time>2019-10-13T16:40:56.001Z</time>
      </trkpt>
      <trkpt lat="43.14279" lon="9.21988">
        <time>2019-10-13T16:41:29.001Z</time>
      </trkpt>
      <trkpt lat="43.14181" lon="9.22341">
        <time>2019-10-13T16:42:02Z</time>
      </trkpt>
      <trkpt lat="43.14076" lon="9.22696">
        <time>2019-10-13T16:42:35.001Z</time>
      </trkpt>
      <trkpt lat="43.13963" lon="9.23054">
        <time>2019-10-13T16:43:08.001Z</time>
      </trkpt>
      <trkpt lat="43.13874" lon="9.23373">
        <time>2019-10-13T16:43:38.001Z</time>
      </trkpt>
      <trkpt lat="43.13763" lon="9.23756">
        <time>2019-10-13T16:44:11.001Z</time>
      </trkpt>
      <trkpt lat="43.13661" lon="9.24105">
        <time>2019-10-13T16:44:44.001Z</time>
      </trkpt>
      <trkpt lat="43.13557" lon="9.24471">
        <time>2019-10-13T16:45:17.001Z</time>
      </trkpt>
      <trkpt lat="43.13447" lon="9.24833">
        <ele>4.5</ele>
        <time>2019-10-13T16:45:50.001Z</time>
      </trkpt>
      <trkpt lat="43.13344" lon="9.25168">
        <ele>11.532</ele>
        <time>2019-10-13T16:46:20.001Z</time>
      </trkpt>
      <trkpt lat="43.1322" lon="9.25534">
        <time>2019-10-13T16:46:53.001Z</time>
      </trkpt>
      <trkpt lat="43.13125" lon="9.25908">
        <time>2019-10-13T16:47:26.001Z</time>
      </trkpt>
      <trkpt lat="43.13015" lon="9.26264">
        <time>2019-10-13T16:47:59.001Z</time>
      </trkpt>
      <trkpt lat="43.12908" lon="9.26615">
        <time>2019-10-13T16:48:32.001Z</time>
      </trkpt>
      <trkpt lat="43.12797" lon="9.26984">
        <time>2019-10-13T16:49:05.001Z</time>
      </trkpt>
      <trkpt lat="43.12705" lon="9.27311">
        <time>2019-10-13T16:49:35.001Z</time>
      </trkpt>
      <trkpt lat="43.12594" lon="9.27668">
        <time>2019-10-13T16:50:08.001Z</time>
      </trkpt>
      <trkpt lat="43.12478" lon="9.28032">
        <time>2019-10-13T16:50:41.001Z</time>
      </trkpt>
      <trkpt lat="43.12372" lon="9.28419">
        <time>2019-10-13T16:51:14.001Z</time>
      </trkpt>
      <trkpt lat="43.12297" lon="9.28759">
        <time>2019-10-13T16:51:47.001Z</time>
      </trkpt>
      <trkpt lat="43.12158" lon="9.29063">
        <time>2019-10-13T16:52:17.001Z</time>
      </trkpt>
      <trkpt lat="43.12069" lon="9.29436">
        <ele>1.135</ele>
        <time>2019-10-13T16:52:50.001Z</time>
      </trkpt>
      <trkpt lat="43.11943" lon="9.29828">
        <ele>6.252</ele>
        <time>2019-10-13T16:53:23.001Z</time>
      </trkpt>
      <trkpt lat="43.11892" lon="9.3019">
        <ele>3.451</ele>
        <time>2019-10-13T16:53:56.001Z</time>
      </trkpt>
      <trkpt lat="43.11735" lon="9.30535">
        <ele>0.845</ele>
        <time>2019-10-13T16:54:29.001Z</time>
      </trkpt>
      <trkpt lat="43.11652" lon="9.30911">
        <time>2019-10-13T16:55:02Z</time>
      </trkpt>
      <trkpt lat="43.11523" lon="9.31234">
        <time>2019-10-13T16:55:32.001Z</time>
      </trkpt>
      <trkpt lat="43.11394" lon="9.31593">
        <time>2019-10-13T16:56:05.001Z</time>
      </trkpt>
      <trkpt lat="43.11295" lon="9.3196">
        <time>2019-10-13T16:56:38.001Z</time>
      </trkpt>
      <trkpt lat="43.11181" lon="9.32317">
        <time>2019-10-13T16:57:11.001Z</time>
      </trkpt>
      <trkpt lat="43.11055" lon="9.32687">
        <time>2019-10-13T16:57:44.001Z</time>
      </trkpt>
      <trkpt lat="43.10995" lon="9.33026">
        <time>2019-10-13T16:58:14.001Z</time>
      </trkpt>
      <trkpt lat="43.10903" lon="9.33398">
        <time>2019-10-13T16:58:47.001Z</time>
      </trkpt>
      <trkpt lat="43.10761" lon="9.3374">
        <time>2019-10-13T16:59:20.001Z</time>
      </trkpt>
      <trkpt lat="43.10644" lon="9.34105">
        <time>2019-10-13T16:59:53.001Z</time>
      </trkpt>
      <trkpt lat="43.1052" lon="9.34454">
        <time>2019-10-13T17:00:26.001Z</time>
      </trkpt>
      <trkpt lat="43.10411" lon="9.3483">
        <time>2019-10-13T17:00:59.001Z</time>
      </trkpt>
      <trkpt lat="43.10314" lon="9.35169">
        <time>2019-10-13T17:01:29.001Z</time>
      </trkpt>
      <trkpt lat="43.10176" lon="9.35514">
        <time>2019-10-13T17:02:02Z</time>
      </trkpt>
      <trkpt lat="43.10072" lon="9.35873">
        <time>2019-10-13T17:02:35.001Z</time>
      </trkpt>
      <trkpt lat="43.0995" lon="9.36227">
        <time>2019-10-13T17:03:08.001Z</time>
      </trkpt>
      <trkpt lat="43.09827" lon="9.36596">
        <time>2019-10-13T17:03:41.001Z</time>
      </trkpt>
      <trkpt lat="43.09723" lon="9.3693">
        <time>2019-10-13T17:04:11.001Z</time>
      </trkpt>
      <trkpt lat="43.09599" lon="9.37273">
        <time>2019-10-13T17:04:44.001Z</time>
      </trkpt>
      <trkpt lat="43.0949" lon="9.37635">
        <time>2019-10-13T17:05:17.001Z</time>
      </trkpt>
      <trkpt lat="43.09356" lon="9.38007">
        <time>2019-10-13T17:05:50.001Z</time>
      </trkpt>
      <trkpt lat="43.09189" lon="9.38353">
        <time>2019-10-13T17:06:23.001Z</time>
      </trkpt>
      <trkpt lat="43.09175" lon="9.38686">
        <time>2019-10-13T17:06:56.001Z</time>
      </trkpt>
      <trkpt lat="43.09036" lon="9.39039">
        <time>2019-10-13T17:07:26.001Z</time>
      </trkpt>
      <trkpt lat="43.08898" lon="9.39403">
        <time>2019-10-13T17:07:59.001Z</time>
      </trkpt>
      <trkpt lat="43.08821" lon="9.3975">
        <time>2019-10-13T17:08:32.001Z</time>
      </trkpt>
      <trkpt lat="43.087" lon="9.40122">
        <time>2019-10-13T17:09:05.001Z</time>
      </trkpt>
      <trkpt lat="43.0859" lon="9.40457">
        <time>2019-10-13T17:09:38.001Z</time>
      </trkpt>
      <trkpt lat="43.08527" lon="9.4075">
        <time>2019-10-13T17:10:08.001Z</time>
      </trkpt>
      <trkpt lat="43.08357" lon="9.41115">
        <time>2019-10-13T17:10:41.001Z</time>
      </trkpt>
      <trkpt lat="43.08276" lon="9.41426">
        <time>2019-10-13T17:11:14.001Z</time>
      </trkpt>
      <trkpt lat="43.08174" lon="9.41703">
        <time>2019-10-13T17:11:47.001Z</time>
      </trkpt>
      <trkpt lat="43.08118" lon="9.42018">
        <time>2019-10-13T17:12:20.001Z</time>
      </trkpt>
      <trkpt lat="43.07935" lon="9.42229">
        <time>2019-10-13T17:12:53.001Z</time>
      </trkpt>
      <trkpt lat="43.07742" lon="9.4247">
        <time>2019-10-13T17:13:23.001Z</time>
      </trkpt>
      <trkpt lat="43.07633" lon="9.42748">
        <ele>10.878</ele>
        <time>2019-10-13T17:13:56.001Z</time>
      </trkpt>
      <trkpt lat="43.07488" lon="9.42992">
        <time>2019-10-13T17:14:29.001Z</time>
      </trkpt>
      <trkpt lat="43.07294" lon="9.43261">
        <time>2019-10-13T17:15:02Z</time>
      </trkpt>
      <trkpt lat="43.07147" lon="9.43517">
        <time>2019-10-13T17:15:35.001Z</time>
      </trkpt>
      <trkpt lat="43.06976" lon="9.43777">
        <time>2019-10-13T17:16:05.001Z</time>
      </trkpt>
      <trkpt lat="43.06817" lon="9.44057">
        <time>2019-10-13T17:16:38.001Z</time>
      </trkpt>
      <trkpt lat="43.0659" lon="9.44358">
        <time>2019-10-13T17:17:11.001Z</time>
      </trkpt>
      <trkpt lat="43.06442" lon="9.44662">
        <time>2019-10-13T17:17:44.001Z</time>
      </trkpt>
      <trkpt lat="43.063" lon="9.44984">
        <time>2019-10-13T17:18:17.001Z</time>
      </trkpt>
      <trkpt lat="43.06108" lon="9.45294">
        <time>2019-10-13T17:18:50.001Z</time>
      </trkpt>
      <trkpt lat="43.05923" lon="9.45553">
        <time>2019-10-13T17:19:20.001Z</time>
      </trkpt>
      <trkpt lat="43.05754" lon="9.45839">
        <time>2019-10-13T17:19:53.001Z</time>
      </trkpt>
      <trkpt lat="43.05525" lon="9.46133">
        <ele>2.142</ele>
        <time>2019-10-13T17:20:26.001Z</time>
      </trkpt>
      <trkpt lat="43.05333" lon="9.46436">
        <ele>3.659</ele>
        <time>2019-10-13T17:20:59.001Z</time>
      </trkpt>
      <trkpt lat="43.05136" lon="9.46695">
        <ele>5.666</ele>
        <time>2019-10-13T17:21:32.001Z</time>
      </trkpt>
      <trkpt lat="43.04948" lon="9.46994">
        <ele>1.387</ele>
        <time>2019-10-13T17:22:02Z</time>
      </trkpt>
      <trkpt lat="43.0473" lon="9.47279">
        <time>2019-10-13T17:22:35.001Z</time>
      </trkpt>
      <trkpt lat="43.04546" lon="9.4754">
        <time>2019-10-13T17:23:08.001Z</time>
      </trkpt>
      <trkpt lat="43.04355" lon="9.47835">
        <time>2019-10-13T17:23:41.001Z</time>
      </trkpt>
      <trkpt lat="43.0418" lon="9.4809">
        <ele>2.89</ele>
        <time>2019-10-13T17:24:14.001Z</time>
      </trkpt>
      <trkpt lat="43.03945" lon="9.48413">
        <ele>35.976</ele>
        <time>2019-10-13T17:24:47.001Z</time>
      </trkpt>
      <trkpt lat="43.03774" lon="9.48668">
        <ele>43.075</ele>
        <time>2019-10-13T17:25:17.001Z</time>
      </trkpt>
      <trkpt lat="43.03569" lon="9.48964">
        <ele>47.867</ele>
        <time>2019-10-13T17:25:50.001Z</time>
      </trkpt>
      <trkpt lat="43.03369" lon="9.49232">
        <ele>42.038</ele>
        <time>2019-10-13T17:26:23.001Z</time>
      </trkpt>
      <trkpt lat="43.03196" lon="9.4952">
        <ele>24.548</ele>
        <time>2019-10-13T17:26:56.001Z</time>
      </trkpt>
      <trkpt lat="43.02995" lon="9.49809">
        <time>2019-10-13T17:27:29.001Z</time>
      </trkpt>
      <trkpt lat="43.02809" lon="9.50046">
        <time>2019-10-13T17:27:59.001Z</time>
      </trkpt>
      <trkpt lat="43.02617" lon="9.50321">
        <time>2019-10-13T17:28:32.001Z</time>
      </trkpt>
      <trkpt lat="43.02431" lon="9.50582">
        <time>2019-10-13T17:29:05.001Z</time>
      </trkpt>
      <trkpt lat="43.022" lon="9.50873">
        <time>2019-10-13T17:29:38.001Z</time>
      </trkpt>
      <trkpt lat="43.02019" lon="9.51121">
        <time>2019-10-13T17:30:11.001Z</time>
      </trkpt>
      <trkpt lat="43.01808" lon="9.51422">
        <time>2019-10-13T17:30:44.001Z</time>
      </trkpt>
      <trkpt lat="43.01577" lon="9.51841">
        <time>2019-10-13T17:31:29.001Z</time>
      </trkpt>
      <trkpt lat="43.01383" lon="9.52012">
        <time>2019-10-13T17:32:02Z</time>
      </trkpt>
      <trkpt lat="43.01178" lon="9.52309">
        <time>2019-10-13T17:32:35.001Z</time>
      </trkpt>
      <trkpt lat="43.00944" lon="9.52581">
        <time>2019-10-13T17:33:08.001Z</time>
      </trkpt>
      <trkpt lat="43.00748" lon="9.52828">
        <time>2019-10-13T17:33:41.001Z</time>
      </trkpt>
      <trkpt lat="43.00573" lon="9.52997">
        <time>2019-10-13T17:34:11.001Z</time>
      </trkpt>
      <trkpt lat="43.00366" lon="9.53195">
        <time>2019-10-13T17:34:44.001Z</time>
      </trkpt>
      <trkpt lat="43.00137" lon="9.53373">
        <time>2019-10-13T17:35:17.001Z</time>
      </trkpt>
      <trkpt lat="42.99826" lon="9.53607">
        <time>2019-10-13T17:35:50.001Z</time>
      </trkpt>
      <trkpt lat="42.99566" lon="9.53725">
        <time>2019-10-13T17:36:23.001Z</time>
      </trkpt>
      <trkpt lat="42.99293" lon="9.53806">
        <time>2019-10-13T17:36:56.001Z</time>
      </trkpt>
      <trkpt lat="42.99048" lon="9.53847">
        <time>2019-10-13T17:37:26.001Z</time>
      </trkpt>
      <trkpt lat="42.98775" lon="9.53916">
        <time>2019-10-13T17:37:59.001Z</time>
      </trkpt>
      <trkpt lat="42.9851" lon="9.53975">
        <time>2019-10-13T17:38:32.001Z</time>
      </trkpt>
      <trkpt lat="42.9824" lon="9.54019">
        <time>2019-10-13T17:39:05.001Z</time>
      </trkpt>
      <trkpt lat="42.97969" lon="9.54073">
        <time>2019-10-13T17:39:38.001Z</time>
      </trkpt>
      <trkpt lat="42.9772" lon="9.54128">
        <time>2019-10-13T17:40:08.001Z</time>
      </trkpt>
      <trkpt lat="42.97445" lon="9.54181">
        <time>2019-10-13T17:40:41.001Z</time>
      </trkpt>
      <trkpt lat="42.97181" lon="9.54252">
        <time>2019-10-13T17:41:14.001Z</time>
      </trkpt>
      <trkpt lat="42.96916" lon="9.54301">
        <time>2019-10-13T17:41:47.001Z</time>
      </trkpt>
      <trkpt lat="42.96642" lon="9.54356">
        <time>2019-10-13T17:42:20.001Z</time>
      </trkpt>
      <trkpt lat="42.96353" lon="9.54398">
        <time>2019-10-13T17:42:53.001Z</time>
      </trkpt>
      <trkpt lat="42.96109" lon="9.54449">
        <time>2019-10-13T17:43:23.001Z</time>
      </trkpt>
      <trkpt lat="42.9585" lon="9.54509">
        <time>2019-10-13T17:43:56.001Z</time>
      </trkpt>
      <trkpt lat="42.95557" lon="9.54554">
        <time>2019-10-13T17:44:29.001Z</time>
      </trkpt>
      <trkpt lat="42.95292" lon="9.54603">
        <time>2019-10-13T17:45:02Z</time>
      </trkpt>
      <trkpt lat="42.95005" lon="9.54653">
        <time>2019-10-13T17:45:35.001Z</time>
      </trkpt>
      <trkpt lat="42.94766" lon="9.54709">
        <time>2019-10-13T17:46:05.001Z</time>
      </trkpt>
      <trkpt lat="42.94491" lon="9.54795">
        <time>2019-10-13T17:46:38.001Z</time>
      </trkpt>
      <trkpt lat="42.94228" lon="9.54845">
        <time>2019-10-13T17:47:11.001Z</time>
      </trkpt>
      <trkpt lat="42.93934" lon="9.54876">
        <time>2019-10-13T17:47:44.001Z</time>
      </trkpt>
      <trkpt lat="42.93659" lon="9.54902">
        <time>2019-10-13T17:48:17.001Z</time>
      </trkpt>
      <trkpt lat="42.93379" lon="9.54954">
        <ele>1.346</ele>
        <time>2019-10-13T17:48:50.001Z</time>
      </trkpt>
      <trkpt lat="42.93127" lon="9.55025">
        <ele>13.01</ele>
        <time>2019-10-13T17:49:20.001Z</time>
      </trkpt>
      <trkpt lat="42.92841" lon="9.55054">
        <ele>12.719</ele>
        <time>2019-10-13T17:49:53.001Z</time>
      </trkpt>
      <trkpt lat="42.92594" lon="9.55144">
        <ele>13.274</ele>
        <time>2019-10-13T17:50:26.001Z</time>
      </trkpt>
      <trkpt lat="42.9232" lon="9.55184">
        <ele>10.642</ele>
        <time>2019-10-13T17:50:59.001Z</time>
      </trkpt>
      <trkpt lat="42.92057" lon="9.55223">
        <time>2019-10-13T17:51:32.001Z</time>
      </trkpt>
      <trkpt lat="42.9182" lon="9.55283">
        <time>2019-10-13T17:52:02Z</time>
      </trkpt>
      <trkpt lat="42.91539" lon="9.55345">
        <ele>3.26</ele>
        <time>2019-10-13T17:52:35.001Z</time>
      </trkpt>
      <trkpt lat="42.91269" lon="9.55387">
        <ele>7.825</ele>
        <time>2019-10-13T17:53:08.001Z</time>
      </trkpt>
      <trkpt lat="42.90996" lon="9.55447">
        <ele>4.175</ele>
        <time>2019-10-13T17:53:41.001Z</time>
      </trkpt>
      <trkpt lat="42.90743" lon="9.55472">
        <time>2019-10-13T17:54:14.001Z</time>
      </trkpt>
      <trkpt lat="42.90474" lon="9.55509">
        <time>2019-10-13T17:54:47.001Z</time>
      </trkpt>
      <trkpt lat="42.90229" lon="9.55589">
        <time>2019-10-13T17:55:17.001Z</time>
      </trkpt>
      <trkpt lat="42.89947" lon="9.55631">
        <time>2019-10-13T17:55:50.001Z</time>
      </trkpt>
      <trkpt lat="42.89674" lon="9.55709">
        <time>2019-10-13T17:56:23.001Z</time>
      </trkpt>
      <trkpt lat="42.89398" lon="9.5575">
        <time>2019-10-13T17:56:56.001Z</time>
      </trkpt>
      <trkpt lat="42.89118" lon="9.5582">
        <time>2019-10-13T17:57:29.001Z</time>
      </trkpt>
      <trkpt lat="42.88875" lon="9.55871">
        <ele>15.532</ele>
        <time>2019-10-13T17:57:59.001Z</time>
      </trkpt>
      <trkpt lat="42.8859" lon="9.55924">
        <ele>21.876</ele>
        <time>2019-10-13T17:58:32.001Z</time>
      </trkpt>
      <trkpt lat="42.88349" lon="9.5598">
        <ele>23.572</ele>
        <time>2019-10-13T17:59:05.001Z</time>
      </trkpt>
      <trkpt lat="42.88058" lon="9.56031">
        <ele>21.851</ele>
        <time>2019-10-13T17:59:38.001Z</time>
      </trkpt>
      <trkpt lat="42.87782" lon="9.56096">
        <ele>17.67</ele>
        <time>2019-10-13T18:00:11.001Z</time>
      </trkpt>
      <trkpt lat="42.87539" lon="9.56156">
        <ele>5.768</ele>
        <time>2019-10-13T18:00:44.001Z</time>
      </trkpt>
      <trkpt lat="42.87286" lon="9.56245">
        <time>2019-10-13T18:01:14.001Z</time>
      </trkpt>
      <trkpt lat="42.86997" lon="9.56274">
        <time>2019-10-13T18:01:47.001Z</time>
      </trkpt>
      <trkpt lat="42.86721" lon="9.56314">
        <time>2019-10-13T18:02:20.001Z</time>
      </trkpt>
      <trkpt lat="42.86451" lon="9.56363">
        <time>2019-10-13T18:02:53.001Z</time>
      </trkpt>
      <trkpt lat="42.86172" lon="9.56435">
        <ele>7.227</ele>
        <time>2019-10-13T18:03:26.001Z</time>
      </trkpt>
      <trkpt lat="42.85935" lon="9.56487">
        <ele>3.454</ele>
        <time>2019-10-13T18:03:56.001Z</time>
      </trkpt>
      <trkpt lat="42.82045" lon="9.5728">
        <time>2019-10-13T18:11:47Z</time>
      </trkpt>
      <trkpt lat="42.75797" lon="9.53495">
        <time>2019-10-13T18:25:44Z</time>
      </trkpt>
      <trkpt lat="42.75561" lon="9.5326">
        <time>2019-10-13T18:26:17Z</time>
      </trkpt>
      <trkpt lat="42.75331" lon="9.53041">
        <time>2019-10-13T18:26:50Z</time>
      </trkpt>
      <trkpt lat="42.75106" lon="9.52808">
        <time>2019-10-13T18:27:23Z</time>
      </trkpt>
      <trkpt lat="42.7489" lon="9.5262">
        <time>2019-10-13T18:27:53Z</time>
      </trkpt>
      <trkpt lat="42.74659" lon="9.52388">
        <time>2019-10-13T18:28:26Z</time>
      </trkpt>
      <trkpt lat="42.74422" lon="9.52178">
        <time>2019-10-13T18:28:59Z</time>
      </trkpt>
      <trkpt lat="42.74194" lon="9.51931">
        <time>2019-10-13T18:29:32Z</time>
      </trkpt>
      <trkpt lat="42.73962" lon="9.51719">
        <time>2019-10-13T18:30:05Z</time>
      </trkpt>
      <trkpt lat="42.73758" lon="9.5151">
        <time>2019-10-13T18:30:35Z</time>
      </trkpt>
      <trkpt lat="42.73533" lon="9.5129">
        <time>2019-10-13T18:31:08Z</time>
      </trkpt>
      <trkpt lat="42.73306" lon="9.51071">
        <time>2019-10-13T18:31:41Z</time>
      </trkpt>
      <trkpt lat="42.7309" lon="9.50848">
        <time>2019-10-13T18:32:14Z</time>
      </trkpt>
      <trkpt lat="42.72872" lon="9.50631">
        <time>2019-10-13T18:32:47Z</time>
      </trkpt>
      <trkpt lat="42.72655" lon="9.50414">
        <time>2019-10-13T18:33:20Z</time>
      </trkpt>
      <trkpt lat="42.72467" lon="9.50227">
        <time>2019-10-13T18:33:50Z</time>
      </trkpt>
      <trkpt lat="42.72262" lon="9.50012">
        <time>2019-10-13T18:34:23Z</time>
      </trkpt>
      <trkpt lat="42.72054" lon="9.49818">
        <time>2019-10-13T18:34:56Z</time>
      </trkpt>
      <trkpt lat="42.7186" lon="9.49591">
        <time>2019-10-13T18:35:29Z</time>
      </trkpt>
      <trkpt lat="42.71697" lon="9.49368">
        <time>2019-10-13T18:36:02Z</time>
      </trkpt>
      <trkpt lat="42.71569" lon="9.49122">
        <time>2019-10-13T18:36:32Z</time>
      </trkpt>
      <trkpt lat="42.71439" lon="9.48894">
        <time>2019-10-13T18:37:05Z</time>
      </trkpt>
      <trkpt lat="42.71308" lon="9.48666">
        <time>2019-10-13T18:37:38Z</time>
      </trkpt>
      <trkpt lat="42.71182" lon="9.48467">
        <time>2019-10-13T18:38:11Z</time>
      </trkpt>
      <trkpt lat="42.71068" lon="9.48278">
        <time>2019-10-13T18:38:44Z</time>
      </trkpt>
      <trkpt lat="42.70967" lon="9.48071">
        <time>2019-10-13T18:39:17Z</time>
      </trkpt>
      <trkpt lat="42.70873" lon="9.47908">
        <time>2019-10-13T18:39:47Z</time>
      </trkpt>
      <trkpt lat="42.70778" lon="9.47737">
        <time>2019-10-13T18:40:20Z</time>
      </trkpt>
      <trkpt lat="42.70698" lon="9.47545">
        <time>2019-10-13T18:40:53Z</time>
      </trkpt>
      <trkpt lat="42.70611" lon="9.47345">
        <time>2019-10-13T18:41:26Z</time>
      </trkpt>
      <trkpt lat="42.70522" lon="9.47169">
        <time>2019-10-13T18:41:59Z</time>
      </trkpt>
      <trkpt lat="42.70446" lon="9.47001">
        <time>2019-10-13T18:42:29Z</time>
      </trkpt>
      <trkpt lat="42.70355" lon="9.46818">
        <time>2019-10-13T18:43:02Z</time>
      </trkpt>
      <trkpt lat="42.70271" lon="9.46647">
        <time>2019-10-13T18:43:35Z</time>
      </trkpt>
      <trkpt lat="42.70183" lon="9.46482">
        <time>2019-10-13T18:44:08Z</time>
      </trkpt>
      <trkpt lat="42.70081" lon="9.46299">
        <time>2019-10-13T18:44:41Z</time>
      </trkpt>
      <trkpt lat="42.70001" lon="9.46151">
        <time>2019-10-13T18:45:14Z</time>
      </trkpt>
      <trkpt lat="42.69915" lon="9.46027">
        <time>2019-10-13T18:45:44Z</time>
      </trkpt>
      <trkpt lat="42.69834" lon="9.45883">
        <time>2019-10-13T18:46:17Z</time>
      </trkpt>
      <trkpt lat="42.69776" lon="9.45772">
        <time>2019-10-13T18:46:50Z</time>
      </trkpt>
      <trkpt lat="42.69728" lon="9.45711">
        <time>2019-10-13T18:47:26Z</time>
      </trkpt>
      <trkpt lat="42.69673" lon="9.45663">
        <time>2019-10-13T18:48:14Z</time>
      </trkpt>
      <trkpt lat="42.69695" lon="9.45573">
        <time>2019-10-13T18:49:45Z</time>
      </trkpt>
      <trkpt lat="42.6971" lon="9.45531">
        <time>2019-10-13T18:50:30Z</time>
      </trkpt>
      <trkpt lat="42.69796" lon="9.45516">
        <time>2019-10-13T18:51:27Z</time>
      </trkpt>
      <trkpt lat="42.69879" lon="9.45388">
        <time>2019-10-13T18:52:30Z</time>
      </trkpt>
      <trkpt lat="42.70049" lon="9.452">
        <ele>6.935</ele>
        <time>2019-10-13T18:58:14Z</time>
      </trkpt>
      <trkpt lat="42.70064" lon="9.45215">
        <ele>22.692</ele>
        <time>2019-10-13T18:59:41Z</time>
      </trkpt>
      <trkpt lat="42.70093" lon="9.45215">
        <ele>33.776</ele>
        <time>2019-10-13T19:00:17Z</time>
      </trkpt>
      <trkpt lat="42.70104" lon="9.45213">
        <ele>23.01</ele>
        <time>2019-10-13T19:01:08Z</time>
      </trkpt>
      <trkpt lat="42.70105" lon="9.45245">
        <ele>4.645</ele>
        <time>2019-10-13T19:02:11Z</time>
      </trkpt>
      <trkpt lat="42.70172" lon="9.45279">
        <ele>4.797</ele>
        <time>2019-10-13T19:03:05Z</time>
      </trkpt>
      <trkpt lat="42.70235" lon="9.4532">
        <ele>9</ele>
        <time>2019-10-13T19:04:11Z</time>
      </trkpt>
      <trkpt lat="42.70349" lon="9.45376">
        <ele>3.219</ele>
        <time>2019-10-13T19:04:41Z</time>
      </trkpt>
      <trkpt lat="42.70451" lon="9.45427">
        <ele>9.659</ele>
        <time>2019-10-13T19:05:14Z</time>
      </trkpt>
      <trkpt lat="42.70484" lon="9.45478">
        <ele>11.77</ele>
        <time>2019-10-13T19:05:50Z</time>
      </trkpt>
      <trkpt lat="42.70571" lon="9.45506">
        <ele>10.639</ele>
        <time>2019-10-13T19:06:29Z</time>
      </trkpt>
      <trkpt lat="42.70668" lon="9.45401">
        <ele>3.027</ele>
        <time>2019-10-13T19:07:02Z</time>
      </trkpt>
      <trkpt lat="42.70642" lon="9.45281">
        <ele>5.033</ele>
        <time>2019-10-13T19:07:35Z</time>
      </trkpt>
      <trkpt lat="42.70514" lon="9.45371">
        <ele>7.8</ele>
        <time>2019-10-13T19:08:05Z</time>
      </trkpt>
      <trkpt lat="42.70369" lon="9.45324">
        <ele>12.4</ele>
        <time>2019-10-13T19:08:38Z</time>
      </trkpt>
      <trkpt lat="42.70298" lon="9.45185">
        <ele>15.4</ele>
        <time>2019-10-13T19:09:11Z</time>
      </trkpt>
      <trkpt lat="42.7023" lon="9.4508">
        <ele>11.375</ele>
        <time>2019-10-13T19:09:44Z</time>
      </trkpt>
      <trkpt lat="42.70229" lon="9.45017">
        <ele>10.287</ele>
        <time>2019-10-13T19:10:23Z</time>
      </trkpt>
    </trkseg>
  </trk>
  <trk>
    <name><![CDATA[Tracé 20191014-093134]]></name>
    <trkseg>
      <trkpt lat="42.74909" lon="9.46359">
        <ele>6.325</ele>
        <time>2019-10-14T07:31:49Z</time>
      </trkpt>
      <trkpt lat="42.74996" lon="9.46392">
        <ele>14.878</ele>
        <time>2019-10-14T07:32:19Z</time>
      </trkpt>
      <trkpt lat="42.75078" lon="9.46508">
        <ele>14.46</ele>
        <time>2019-10-14T07:32:49Z</time>
      </trkpt>
      <trkpt lat="42.75166" lon="9.46622">
        <ele>15.881</ele>
        <time>2019-10-14T07:33:19Z</time>
      </trkpt>
      <trkpt lat="42.7525" lon="9.46723">
        <ele>19.15</ele>
        <time>2019-10-14T07:33:49Z</time>
      </trkpt>
      <trkpt lat="42.75338" lon="9.46771">
        <ele>18.351</ele>
        <time>2019-10-14T07:34:19Z</time>
      </trkpt>
      <trkpt lat="42.75485" lon="9.46725">
        <ele>17.747</ele>
        <time>2019-10-14T07:34:52Z</time>
      </trkpt>
      <trkpt lat="42.75651" lon="9.46574">
        <ele>9.467</ele>
        <time>2019-10-14T07:35:22Z</time>
      </trkpt>
      <trkpt lat="42.75812" lon="9.4654">
        <ele>5.079</ele>
        <time>2019-10-14T07:35:52Z</time>
      </trkpt>
      <trkpt lat="42.75932" lon="9.46635">
        <ele>5.257</ele>
        <time>2019-10-14T07:36:22Z</time>
      </trkpt>
      <trkpt lat="42.76055" lon="9.46638">
        <ele>10.863</ele>
        <time>2019-10-14T07:36:52Z</time>
      </trkpt>
      <trkpt lat="42.76164" lon="9.46693">
        <ele>17.08</ele>
        <time>2019-10-14T07:37:22Z</time>
      </trkpt>
      <trkpt lat="42.76252" lon="9.46711">
        <ele>21.83</ele>
        <time>2019-10-14T07:37:52Z</time>
      </trkpt>
      <trkpt lat="42.76363" lon="9.46765">
        <ele>22.103</ele>
        <time>2019-10-14T07:38:22Z</time>
      </trkpt>
      <trkpt lat="42.76459" lon="9.46778">
        <ele>26.437</ele>
        <time>2019-10-14T07:38:52Z</time>
      </trkpt>
      <trkpt lat="42.76529" lon="9.46861">
        <ele>33.436</ele>
        <time>2019-10-14T07:39:22Z</time>
      </trkpt>
      <trkpt lat="42.76608" lon="9.46875">
        <ele>32.086</ele>
        <time>2019-10-14T07:39:52Z</time>
      </trkpt>
      <trkpt lat="42.76649" lon="9.46869">
        <ele>34.692</ele>
        <time>2019-10-14T07:41:16Z</time>
      </trkpt>
      <trkpt lat="42.76783" lon="9.46933">
        <ele>31.078</ele>
        <time>2019-10-14T07:41:46Z</time>
      </trkpt>
      <trkpt lat="42.76901" lon="9.47075">
        <ele>27.826</ele>
        <time>2019-10-14T07:42:16Z</time>
      </trkpt>
      <trkpt lat="42.77077" lon="9.47158">
        <ele>22.918</ele>
        <time>2019-10-14T07:42:46Z</time>
      </trkpt>
      <trkpt lat="42.77185" lon="9.47273">
        <ele>20.567</ele>
        <time>2019-10-14T07:43:16Z</time>
      </trkpt>
      <trkpt lat="42.77366" lon="9.47444">
        <ele>16.216</ele>
        <time>2019-10-14T07:43:46Z</time>
      </trkpt>
      <trkpt lat="42.77472" lon="9.47545">
        <ele>20.752</ele>
        <time>2019-10-14T07:44:16Z</time>
      </trkpt>
      <trkpt lat="42.77578" lon="9.47635">
        <ele>18.309</ele>
        <time>2019-10-14T07:44:46Z</time>
      </trkpt>
      <trkpt lat="42.77685" lon="9.47777">
        <ele>3.935</ele>
        <time>2019-10-14T07:45:16Z</time>
      </trkpt>
      <trkpt lat="42.77804" lon="9.47842">
        <ele>8.768</ele>
        <time>2019-10-14T07:45:46Z</time>
      </trkpt>
      <trkpt lat="42.77912" lon="9.4788">
        <ele>11.555</ele>
        <time>2019-10-14T07:46:16Z</time>
      </trkpt>
      <trkpt lat="42.78" lon="9.47799">
        <ele>17.569</ele>
        <time>2019-10-14T07:46:49Z</time>
      </trkpt>
      <trkpt lat="42.78063" lon="9.47874">
        <ele>22.114</ele>
        <time>2019-10-14T07:47:19Z</time>
      </trkpt>
      <trkpt lat="42.78113" lon="9.47973">
        <ele>23.872</ele>
        <time>2019-10-14T07:47:49Z</time>
      </trkpt>
      <trkpt lat="42.78117" lon="9.48106">
        <ele>29.8</ele>
        <time>2019-10-14T07:48:19Z</time>
      </trkpt>
      <trkpt lat="42.78206" lon="9.48157">
        <ele>31.569</ele>
        <time>2019-10-14T07:48:49Z</time>
      </trkpt>
      <trkpt lat="42.78278" lon="9.48245">
        <ele>35.176</ele>
        <time>2019-10-14T07:49:19Z</time>
      </trkpt>
      <trkpt lat="42.78365" lon="9.48235">
        <ele>37.199</ele>
        <time>2019-10-14T07:49:49Z</time>
      </trkpt>
      <trkpt lat="42.78455" lon="9.48263">
        <ele>41.211</ele>
        <time>2019-10-14T07:50:19Z</time>
      </trkpt>
      <trkpt lat="42.78524" lon="9.48317">
        <ele>42.859</ele>
        <time>2019-10-14T07:50:49Z</time>
      </trkpt>
      <trkpt lat="42.78603" lon="9.48362">
        <ele>48.72</ele>
        <time>2019-10-14T07:51:19Z</time>
      </trkpt>
      <trkpt lat="42.78695" lon="9.48344">
        <ele>46.018</ele>
        <time>2019-10-14T07:51:49Z</time>
      </trkpt>
      <trkpt lat="42.78843" lon="9.48378">
        <ele>44.27</ele>
        <time>2019-10-14T07:52:22Z</time>
      </trkpt>
      <trkpt lat="42.78837" lon="9.48578">
        <ele>43.63</ele>
        <time>2019-10-14T07:52:52Z</time>
      </trkpt>
      <trkpt lat="42.7908" lon="9.48687">
        <ele>34.471</ele>
        <time>2019-10-14T07:53:22Z</time>
      </trkpt>
      <trkpt lat="42.79259" lon="9.48805">
        <ele>34.017</ele>
        <time>2019-10-14T07:53:52Z</time>
      </trkpt>
      <trkpt lat="42.7937" lon="9.48874">
        <ele>34.297</ele>
        <time>2019-10-14T07:54:22Z</time>
      </trkpt>
      <trkpt lat="42.79504" lon="9.48888">
        <ele>36.822</ele>
        <time>2019-10-14T07:54:52Z</time>
      </trkpt>
      <trkpt lat="42.79602" lon="9.48974">
        <ele>40.338</ele>
        <time>2019-10-14T07:55:22Z</time>
      </trkpt>
      <trkpt lat="42.79694" lon="9.49037">
        <ele>45.162</ele>
        <time>2019-10-14T07:55:52Z</time>
      </trkpt>
      <trkpt lat="42.79773" lon="9.49063">
        <ele>53.244</ele>
        <time>2019-10-14T07:56:22Z</time>
      </trkpt>
      <trkpt lat="42.79856" lon="9.49067">
        <ele>52.609</ele>
        <time>2019-10-14T07:56:52Z</time>
      </trkpt>
      <trkpt lat="42.7997" lon="9.49065">
        <ele>50.662</ele>
        <time>2019-10-14T07:57:22Z</time>
      </trkpt>
      <trkpt lat="42.8024" lon="9.4912">
        <ele>39.538</ele>
        <time>2019-10-14T07:57:55Z</time>
      </trkpt>
      <trkpt lat="42.80546" lon="9.49117">
        <ele>25.362</ele>
        <time>2019-10-14T07:58:25Z</time>
      </trkpt>
      <trkpt lat="42.80769" lon="9.49166">
        <ele>14.88</ele>
        <time>2019-10-14T07:58:55Z</time>
      </trkpt>
      <trkpt lat="42.80821" lon="9.48871">
        <ele>7.307</ele>
        <time>2019-10-14T07:59:25Z</time>
      </trkpt>
      <trkpt lat="42.80994" lon="9.48898">
        <ele>6.477</ele>
        <time>2019-10-14T07:59:55Z</time>
      </trkpt>
      <trkpt lat="42.81129" lon="9.48933">
        <ele>5.811</ele>
        <time>2019-10-14T08:00:25Z</time>
      </trkpt>
      <trkpt lat="42.81234" lon="9.48982">
        <ele>8.351</ele>
        <time>2019-10-14T08:00:55Z</time>
      </trkpt>
      <trkpt lat="42.81299" lon="9.48948">
        <ele>14.126</ele>
        <time>2019-10-14T08:01:25Z</time>
      </trkpt>
      <trkpt lat="42.81354" lon="9.49003">
        <ele>17.674</ele>
        <time>2019-10-14T08:01:55Z</time>
      </trkpt>
      <trkpt lat="42.81436" lon="9.48988">
        <ele>19.236</ele>
        <time>2019-10-14T08:02:25Z</time>
      </trkpt>
      <trkpt lat="42.81522" lon="9.48904">
        <ele>20.018</ele>
        <time>2019-10-14T08:02:55Z</time>
      </trkpt>
      <trkpt lat="42.81643" lon="9.48858">
        <ele>18.832</ele>
        <time>2019-10-14T08:03:28Z</time>
      </trkpt>
      <trkpt lat="42.81757" lon="9.4883">
        <ele>24.636</ele>
        <time>2019-10-14T08:03:58Z</time>
      </trkpt>
      <trkpt lat="42.81842" lon="9.48733">
        <ele>28.116</ele>
        <time>2019-10-14T08:04:28Z</time>
      </trkpt>
      <trkpt lat="42.8193" lon="9.48674">
        <ele>28.217</ele>
        <time>2019-10-14T08:04:58Z</time>
      </trkpt>
      <trkpt lat="42.82022" lon="9.48634">
        <ele>31.269</ele>
        <time>2019-10-14T08:05:28Z</time>
      </trkpt>
      <trkpt lat="42.82143" lon="9.48634">
        <ele>35.862</ele>
        <time>2019-10-14T08:05:58Z</time>
      </trkpt>
      <trkpt lat="42.82321" lon="9.48656">
        <ele>29.124</ele>
        <time>2019-10-14T08:06:28Z</time>
      </trkpt>
      <trkpt lat="42.82572" lon="9.48613">
        <ele>17.165</ele>
        <time>2019-10-14T08:06:58Z</time>
      </trkpt>
      <trkpt lat="42.82693" lon="9.48673">
        <ele>15.778</ele>
        <time>2019-10-14T08:07:28Z</time>
      </trkpt>
      <trkpt lat="42.82775" lon="9.48596">
        <ele>21.914</ele>
        <time>2019-10-14T08:07:58Z</time>
      </trkpt>
      <trkpt lat="42.82968" lon="9.48585">
        <ele>18.835</ele>
        <time>2019-10-14T08:08:28Z</time>
      </trkpt>
      <trkpt lat="42.83153" lon="9.48456">
        <ele>7.023</ele>
        <time>2019-10-14T08:09:01Z</time>
      </trkpt>
      <trkpt lat="42.83232" lon="9.48552">
        <ele>7.415</ele>
        <time>2019-10-14T08:09:31Z</time>
      </trkpt>
      <trkpt lat="42.83321" lon="9.48539">
        <ele>12.351</ele>
        <time>2019-10-14T08:10:01Z</time>
      </trkpt>
      <trkpt lat="42.83418" lon="9.48497">
        <ele>12.887</ele>
        <time>2019-10-14T08:10:31Z</time>
      </trkpt>
      <trkpt lat="42.83553" lon="9.48332">
        <ele>9.437</ele>
        <time>2019-10-14T08:11:01Z</time>
      </trkpt>
      <trkpt lat="42.83575" lon="9.48087">
        <ele>4.859</ele>
        <time>2019-10-14T08:11:31Z</time>
      </trkpt>
      <trkpt lat="42.83656" lon="9.47919">
        <ele>1</ele>
        <time>2019-10-14T08:12:01Z</time>
      </trkpt>
      <trkpt lat="42.83832" lon="9.47848">
        <ele>1.8</ele>
        <time>2019-10-14T08:12:31Z</time>
      </trkpt>
      <trkpt lat="42.83993" lon="9.4784">
        <ele>1.1</ele>
        <time>2019-10-14T08:13:01Z</time>
      </trkpt>
      <trkpt lat="42.84109" lon="9.47907">
        <ele>2.169</ele>
        <time>2019-10-14T08:13:31Z</time>
      </trkpt>
      <trkpt lat="42.84105" lon="9.48032">
        <ele>7.064</ele>
        <time>2019-10-14T08:14:01Z</time>
      </trkpt>
      <trkpt lat="42.84121" lon="9.4815">
        <ele>11.79</ele>
        <time>2019-10-14T08:14:34Z</time>
      </trkpt>
      <trkpt lat="42.8414" lon="9.48249">
        <ele>13.891</ele>
        <time>2019-10-14T08:15:04Z</time>
      </trkpt>
      <trkpt lat="42.84169" lon="9.48335">
        <ele>17.326</ele>
        <time>2019-10-14T08:15:34Z</time>
      </trkpt>
      <trkpt lat="42.84239" lon="9.48346">
        <ele>19.278</ele>
        <time>2019-10-14T08:16:04Z</time>
      </trkpt>
      <trkpt lat="42.84335" lon="9.48288">
        <ele>19.455</ele>
        <time>2019-10-14T08:16:34Z</time>
      </trkpt>
      <trkpt lat="42.84452" lon="9.48254">
        <ele>20.387</ele>
        <time>2019-10-14T08:17:04Z</time>
      </trkpt>
      <trkpt lat="42.84574" lon="9.48304">
        <ele>21.5</ele>
        <time>2019-10-14T08:17:34Z</time>
      </trkpt>
      <trkpt lat="42.84695" lon="9.48242">
        <ele>22.27</ele>
        <time>2019-10-14T08:18:04Z</time>
      </trkpt>
      <trkpt lat="42.84819" lon="9.48195">
        <ele>23.886</ele>
        <time>2019-10-14T08:18:34Z</time>
      </trkpt>
      <trkpt lat="42.84942" lon="9.48262">
        <ele>25.075</ele>
        <time>2019-10-14T08:19:04Z</time>
      </trkpt>
      <trkpt lat="42.85071" lon="9.48303">
        <ele>24.398</ele>
        <time>2019-10-14T08:19:34Z</time>
      </trkpt>
      <trkpt lat="42.85119" lon="9.4848">
        <ele>25.091</ele>
        <time>2019-10-14T08:20:07Z</time>
      </trkpt>
      <trkpt lat="42.85232" lon="9.48458">
        <ele>23.94</ele>
        <time>2019-10-14T08:20:37Z</time>
      </trkpt>
      <trkpt lat="42.85318" lon="9.48337">
        <ele>26.367</ele>
        <time>2019-10-14T08:21:07Z</time>
      </trkpt>
      <trkpt lat="42.85437" lon="9.48287">
        <ele>26.681</ele>
        <time>2019-10-14T08:21:37Z</time>
      </trkpt>
      <trkpt lat="42.85547" lon="9.48272">
        <ele>28.443</ele>
        <time>2019-10-14T08:22:07Z</time>
      </trkpt>
      <trkpt lat="42.85663" lon="9.48216">
        <ele>30.637</ele>
        <time>2019-10-14T08:22:37Z</time>
      </trkpt>
      <trkpt lat="42.85807" lon="9.48134">
        <ele>27.63</ele>
        <time>2019-10-14T08:23:07Z</time>
      </trkpt>
      <trkpt lat="42.85922" lon="9.48037">
        <ele>18.399</ele>
        <time>2019-10-14T08:23:37Z</time>
      </trkpt>
      <trkpt lat="42.86072" lon="9.48037">
        <ele>15.662</ele>
        <time>2019-10-14T08:24:07Z</time>
      </trkpt>
      <trkpt lat="42.86179" lon="9.48117">
        <ele>14.314</ele>
        <time>2019-10-14T08:24:37Z</time>
      </trkpt>
      <trkpt lat="42.86314" lon="9.48134">
        <ele>14.187</ele>
        <time>2019-10-14T08:25:07Z</time>
      </trkpt>
      <trkpt lat="42.86424" lon="9.48186">
        <ele>16.043</ele>
        <time>2019-10-14T08:25:37Z</time>
      </trkpt>
      <trkpt lat="42.86571" lon="9.48085">
        <ele>16.326</ele>
        <time>2019-10-14T08:26:10Z</time>
      </trkpt>
      <trkpt lat="42.8675" lon="9.48092">
        <ele>17.275</ele>
        <time>2019-10-14T08:26:40Z</time>
      </trkpt>
      <trkpt lat="42.8691" lon="9.47888">
        <ele>14.655</ele>
        <time>2019-10-14T08:27:10Z</time>
      </trkpt>
      <trkpt lat="42.87034" lon="9.47699">
        <ele>12.005</ele>
        <time>2019-10-14T08:27:40Z</time>
      </trkpt>
      <trkpt lat="42.8709" lon="9.47735">
        <ele>13.314</ele>
        <time>2019-10-14T08:28:10Z</time>
      </trkpt>
      <trkpt lat="42.87156" lon="9.47776">
        <ele>19.498</ele>
        <time>2019-10-14T08:28:40Z</time>
      </trkpt>
      <trkpt lat="42.87229" lon="9.4765">
        <ele>15.629</ele>
        <time>2019-10-14T08:29:10Z</time>
      </trkpt>
      <trkpt lat="42.87303" lon="9.47447">
        <ele>12.409</ele>
        <time>2019-10-14T08:29:40Z</time>
      </trkpt>
      <trkpt lat="42.87469" lon="9.47208">
        <ele>3.545</ele>
        <time>2019-10-14T08:30:10Z</time>
      </trkpt>
      <trkpt lat="42.87683" lon="9.47262">
        <ele>1</ele>
        <time>2019-10-14T08:30:40Z</time>
      </trkpt>
      <trkpt lat="42.87823" lon="9.47331">
        <ele>8.4</ele>
        <time>2019-10-14T08:31:10Z</time>
      </trkpt>
      <trkpt lat="42.87811" lon="9.47456">
        <ele>8.644</ele>
        <time>2019-10-14T08:31:43Z</time>
      </trkpt>
      <trkpt lat="42.87806" lon="9.47565">
        <ele>14.423</ele>
        <time>2019-10-14T08:32:13Z</time>
      </trkpt>
      <trkpt lat="42.87859" lon="9.47689">
        <ele>13.539</ele>
        <time>2019-10-14T08:32:43Z</time>
      </trkpt>
      <trkpt lat="42.87989" lon="9.47755">
        <ele>8.243</ele>
        <time>2019-10-14T08:33:13Z</time>
      </trkpt>
      <trkpt lat="42.88183" lon="9.47723">
        <ele>3.708</ele>
        <time>2019-10-14T08:33:43Z</time>
      </trkpt>
      <trkpt lat="42.88374" lon="9.47585">
        <ele>0.615</ele>
        <time>2019-10-14T08:34:13Z</time>
      </trkpt>
      <trkpt lat="42.88517" lon="9.47421">
        <ele>2.982</ele>
        <time>2019-10-14T08:34:43Z</time>
      </trkpt>
      <trkpt lat="42.88677" lon="9.47316">
        <ele>3.307</ele>
        <time>2019-10-14T08:35:13Z</time>
      </trkpt>
      <trkpt lat="42.88852" lon="9.47335">
        <ele>4.625</ele>
        <time>2019-10-14T08:35:43Z</time>
      </trkpt>
      <trkpt lat="42.89011" lon="9.47359">
        <ele>1.117</ele>
        <time>2019-10-14T08:36:13Z</time>
      </trkpt>
      <trkpt lat="42.89143" lon="9.47388">
        <ele>9.2</ele>
        <time>2019-10-14T08:36:43Z</time>
      </trkpt>
      <trkpt lat="42.8929" lon="9.47415">
        <ele>13.6</ele>
        <time>2019-10-14T08:37:16Z</time>
      </trkpt>
      <trkpt lat="42.89431" lon="9.4733">
        <ele>3.34</ele>
        <time>2019-10-14T08:37:46Z</time>
      </trkpt>
      <trkpt lat="42.89552" lon="9.47256">
        <ele>5.108</ele>
        <time>2019-10-14T08:38:16Z</time>
      </trkpt>
      <trkpt lat="42.89679" lon="9.47233">
        <ele>4.313</ele>
        <time>2019-10-14T08:38:46Z</time>
      </trkpt>
      <trkpt lat="42.89819" lon="9.47233">
        <ele>6.69</ele>
        <time>2019-10-14T08:39:16Z</time>
      </trkpt>
      <trkpt lat="42.89954" lon="9.47295">
        <ele>4.91</ele>
        <time>2019-10-14T08:39:46Z</time>
      </trkpt>
      <trkpt lat="42.90083" lon="9.47288">
        <ele>8.306</ele>
        <time>2019-10-14T08:40:16Z</time>
      </trkpt>
      <trkpt lat="42.9022" lon="9.47231">
        <ele>11.745</ele>
        <time>2019-10-14T08:40:46Z</time>
      </trkpt>
      <trkpt lat="42.90332" lon="9.47101">
        <ele>10.09</ele>
        <time>2019-10-14T08:41:16Z</time>
      </trkpt>
      <trkpt lat="42.90482" lon="9.46869">
        <ele>8.05</ele>
        <time>2019-10-14T08:41:46Z</time>
      </trkpt>
      <trkpt lat="42.90635" lon="9.46708">
        <ele>4.42</ele>
        <time>2019-10-14T08:42:16Z</time>
      </trkpt>
      <trkpt lat="42.90752" lon="9.46757">
        <ele>3.548</ele>
        <time>2019-10-14T08:42:49Z</time>
      </trkpt>
      <trkpt lat="42.90828" lon="9.46849">
        <ele>4.898</ele>
        <time>2019-10-14T08:43:19Z</time>
      </trkpt>
      <trkpt lat="42.90888" lon="9.46934">
        <ele>8.566</ele>
        <time>2019-10-14T08:43:49Z</time>
      </trkpt>
      <trkpt lat="42.90943" lon="9.47018">
        <ele>13.269</ele>
        <time>2019-10-14T08:44:19Z</time>
      </trkpt>
      <trkpt lat="42.90975" lon="9.47125">
        <ele>20.237</ele>
        <time>2019-10-14T08:44:49Z</time>
      </trkpt>
      <trkpt lat="42.91066" lon="9.47148">
        <ele>19.386</ele>
        <time>2019-10-14T08:45:19Z</time>
      </trkpt>
      <trkpt lat="42.91173" lon="9.47023">
        <ele>18.863</ele>
        <time>2019-10-14T08:45:49Z</time>
      </trkpt>
      <trkpt lat="42.91342" lon="9.46977">
        <ele>15.358</ele>
        <time>2019-10-14T08:46:19Z</time>
      </trkpt>
      <trkpt lat="42.91547" lon="9.47024">
        <ele>13.736</ele>
        <time>2019-10-14T08:46:49Z</time>
      </trkpt>
      <trkpt lat="42.91749" lon="9.4703">
        <ele>14.09</ele>
        <time>2019-10-14T08:47:19Z</time>
      </trkpt>
      <trkpt lat="42.9194" lon="9.47103">
        <ele>10.354</ele>
        <time>2019-10-14T08:47:49Z</time>
      </trkpt>
      <trkpt lat="42.92123" lon="9.46961">
        <ele>12.079</ele>
        <time>2019-10-14T08:48:22Z</time>
      </trkpt>
      <trkpt lat="42.92272" lon="9.47023">
        <ele>7.153</ele>
        <time>2019-10-14T08:48:52Z</time>
      </trkpt>
      <trkpt lat="42.92361" lon="9.47144">
        <ele>9.162</ele>
        <time>2019-10-14T08:49:22Z</time>
      </trkpt>
      <trkpt lat="42.92484" lon="9.47077">
        <ele>10.229</ele>
        <time>2019-10-14T08:49:52Z</time>
      </trkpt>
      <trkpt lat="42.92542" lon="9.46872">
        <ele>9.939</ele>
        <time>2019-10-14T08:50:22Z</time>
      </trkpt>
      <trkpt lat="42.92611" lon="9.46667">
        <ele>10.163</ele>
        <time>2019-10-14T08:50:52Z</time>
      </trkpt>
      <trkpt lat="42.92714" lon="9.4665">
        <ele>11.664</ele>
        <time>2019-10-14T08:51:22Z</time>
      </trkpt>
      <trkpt lat="42.928" lon="9.46698">
        <ele>13.353</ele>
        <time>2019-10-14T08:51:52Z</time>
      </trkpt>
      <trkpt lat="42.92902" lon="9.46703">
        <ele>11.525</ele>
        <time>2019-10-14T08:52:22Z</time>
      </trkpt>
      <trkpt lat="42.93045" lon="9.46577">
        <ele>13.061</ele>
        <time>2019-10-14T08:52:52Z</time>
      </trkpt>
      <trkpt lat="42.93205" lon="9.46457">
        <ele>5.806</ele>
        <time>2019-10-14T08:53:22Z</time>
      </trkpt>
      <trkpt lat="42.93392" lon="9.46431">
        <ele>6.16</ele>
        <time>2019-10-14T08:53:55Z</time>
      </trkpt>
      <trkpt lat="42.93486" lon="9.46577">
        <ele>6.2</ele>
        <time>2019-10-14T08:54:25Z</time>
      </trkpt>
      <trkpt lat="42.93514" lon="9.46666">
        <ele>6.954</ele>
        <time>2019-10-14T08:54:55Z</time>
      </trkpt>
      <trkpt lat="42.93516" lon="9.46747">
        <ele>18.336</ele>
        <time>2019-10-14T08:55:25Z</time>
      </trkpt>
      <trkpt lat="42.93541" lon="9.46826">
        <ele>25.769</ele>
        <time>2019-10-14T08:55:55Z</time>
      </trkpt>
      <trkpt lat="42.936" lon="9.46871">
        <ele>26.732</ele>
        <time>2019-10-14T08:56:25Z</time>
      </trkpt>
      <trkpt lat="42.93668" lon="9.468">
        <ele>26.117</ele>
        <time>2019-10-14T08:56:55Z</time>
      </trkpt>
      <trkpt lat="42.93772" lon="9.46778">
        <ele>20.711</ele>
        <time>2019-10-14T08:57:25Z</time>
      </trkpt>
      <trkpt lat="42.9387" lon="9.46711">
        <ele>21.479</ele>
        <time>2019-10-14T08:57:55Z</time>
      </trkpt>
      <trkpt lat="42.93953" lon="9.46608">
        <ele>23.192</ele>
        <time>2019-10-14T08:58:25Z</time>
      </trkpt>
      <trkpt lat="42.94075" lon="9.46523">
        <ele>20.648</ele>
        <time>2019-10-14T08:58:56Z</time>
      </trkpt>
      <trkpt lat="42.9428" lon="9.46397">
        <ele>23.246</ele>
        <time>2019-10-14T08:59:29Z</time>
      </trkpt>
      <trkpt lat="42.94404" lon="9.46187">
        <ele>17.014</ele>
        <time>2019-10-14T08:59:59Z</time>
      </trkpt>
      <trkpt lat="42.94502" lon="9.46229">
        <ele>13.194</ele>
        <time>2019-10-14T09:00:29Z</time>
      </trkpt>
      <trkpt lat="42.94553" lon="9.46128">
        <ele>17.806</ele>
        <time>2019-10-14T09:00:59Z</time>
      </trkpt>
      <trkpt lat="42.94635" lon="9.46063">
        <ele>18.327</ele>
        <time>2019-10-14T09:01:29Z</time>
      </trkpt>
      <trkpt lat="42.94729" lon="9.45953">
        <ele>20.217</ele>
        <time>2019-10-14T09:01:59Z</time>
      </trkpt>
      <trkpt lat="42.94838" lon="9.45787">
        <ele>13.755</ele>
        <time>2019-10-14T09:02:29Z</time>
      </trkpt>
      <trkpt lat="42.94944" lon="9.45611">
        <ele>13.826</ele>
        <time>2019-10-14T09:02:59Z</time>
      </trkpt>
      <trkpt lat="42.95112" lon="9.4551">
        <ele>12.535</ele>
        <time>2019-10-14T09:03:29Z</time>
      </trkpt>
      <trkpt lat="42.95212" lon="9.45618">
        <ele>16.853</ele>
        <time>2019-10-14T09:03:59Z</time>
      </trkpt>
      <trkpt lat="42.95319" lon="9.45619">
        <ele>17.331</ele>
        <time>2019-10-14T09:04:29Z</time>
      </trkpt>
      <trkpt lat="42.95575" lon="9.45549">
        <ele>8.797</ele>
        <time>2019-10-14T09:05:02Z</time>
      </trkpt>
      <trkpt lat="42.9576" lon="9.45471">
        <ele>1.279</ele>
        <time>2019-10-14T09:05:32Z</time>
      </trkpt>
      <trkpt lat="42.9587" lon="9.45336">
        <ele>7.98</ele>
        <time>2019-10-14T09:06:02Z</time>
      </trkpt>
      <trkpt lat="42.95893" lon="9.45219">
        <ele>7.813</ele>
        <time>2019-10-14T09:06:32Z</time>
      </trkpt>
      <trkpt lat="42.95902" lon="9.45186">
        <ele>7.48</ele>
        <time>2019-10-14T09:07:02Z</time>
      </trkpt>
      <trkpt lat="42.95902" lon="9.45183">
        <ele>5.213</ele>
        <time>2019-10-14T09:12:20Z</time>
      </trkpt>
      <trkpt lat="42.95904" lon="9.4522">
        <ele>9.746</ele>
        <time>2019-10-14T09:21:41Z</time>
      </trkpt>
      <trkpt lat="42.95903" lon="9.45222">
        <ele>11.073</ele>
        <time>2019-10-14T09:22:59Z</time>
      </trkpt>
      <trkpt lat="42.959" lon="9.452">
        <ele>3.293</ele>
        <time>2019-10-14T09:24:20Z</time>
      </trkpt>
      <trkpt lat="42.95903" lon="9.45188">
        <ele>5.035</ele>
        <time>2019-10-14T09:26:05Z</time>
      </trkpt>
      <trkpt lat="42.95874" lon="9.45128">
        <ele>9.735</ele>
        <time>2019-10-14T09:26:56Z</time>
      </trkpt>
      <trkpt lat="42.9584" lon="9.4504">
        <ele>17.908</ele>
        <time>2019-10-14T09:31:05Z</time>
      </trkpt>
      <trkpt lat="42.95798" lon="9.44932">
        <ele>26.672</ele>
        <time>2019-10-14T09:31:35Z</time>
      </trkpt>
      <trkpt lat="42.95757" lon="9.4482">
        <ele>25.559</ele>
        <time>2019-10-14T09:32:05Z</time>
      </trkpt>
      <trkpt lat="42.95717" lon="9.44711">
        <ele>33.306</ele>
        <time>2019-10-14T09:32:35Z</time>
      </trkpt>
      <trkpt lat="42.95676" lon="9.44599">
        <ele>36.546</ele>
        <time>2019-10-14T09:33:05Z</time>
      </trkpt>
      <trkpt lat="42.95644" lon="9.4449">
        <ele>31.158</ele>
        <time>2019-10-14T09:33:35Z</time>
      </trkpt>
      <trkpt lat="42.95614" lon="9.44385">
        <ele>33.483</ele>
        <time>2019-10-14T09:34:05Z</time>
      </trkpt>
      <trkpt lat="42.95589" lon="9.44297">
        <ele>38.965</ele>
        <time>2019-10-14T09:34:35Z</time>
      </trkpt>
      <trkpt lat="42.95586" lon="9.44206">
        <ele>43.609</ele>
        <time>2019-10-14T09:35:05Z</time>
      </trkpt>
      <trkpt lat="42.9558" lon="9.4413">
        <ele>49.563</ele>
        <time>2019-10-14T09:35:38Z</time>
      </trkpt>
      <trkpt lat="42.95567" lon="9.44075">
        <ele>46.97</ele>
        <time>2019-10-14T09:38:59Z</time>
      </trkpt>
      <trkpt lat="42.95566" lon="9.43993">
        <ele>47.67</ele>
        <time>2019-10-14T09:39:29Z</time>
      </trkpt>
      <trkpt lat="42.95584" lon="9.43908">
        <ele>61.725</ele>
        <time>2019-10-14T09:40:02Z</time>
      </trkpt>
      <trkpt lat="42.95547" lon="9.4385">
        <ele>64.188</ele>
        <time>2019-10-14T09:40:32Z</time>
      </trkpt>
      <trkpt lat="42.95525" lon="9.43782">
        <ele>68.543</ele>
        <time>2019-10-14T09:41:02Z</time>
      </trkpt>
      <trkpt lat="42.95542" lon="9.437">
        <ele>70.212</ele>
        <time>2019-10-14T09:41:32Z</time>
      </trkpt>
      <trkpt lat="42.95539" lon="9.43643">
        <ele>79.788</ele>
        <time>2019-10-14T09:42:02Z</time>
      </trkpt>
      <trkpt lat="42.95511" lon="9.4358">
        <ele>79.298</ele>
        <time>2019-10-14T09:42:32Z</time>
      </trkpt>
      <trkpt lat="42.95514" lon="9.435">
        <ele>87.891</ele>
        <time>2019-10-14T09:43:02Z</time>
      </trkpt>
      <trkpt lat="42.95557" lon="9.43437">
        <ele>89.728</ele>
        <time>2019-10-14T09:43:32Z</time>
      </trkpt>
      <trkpt lat="42.95549" lon="9.43374">
        <ele>99.424</ele>
        <time>2019-10-14T09:44:05Z</time>
      </trkpt>
      <trkpt lat="42.95496" lon="9.43321">
        <ele>97.872</ele>
        <time>2019-10-14T09:44:41Z</time>
      </trkpt>
      <trkpt lat="42.95539" lon="9.4326">
        <ele>97.767</ele>
        <time>2019-10-14T09:45:11Z</time>
      </trkpt>
      <trkpt lat="42.95568" lon="9.43181">
        <ele>101.851</ele>
        <time>2019-10-14T09:45:44Z</time>
      </trkpt>
      <trkpt lat="42.95586" lon="9.43098">
        <ele>111.923</ele>
        <time>2019-10-14T09:46:14Z</time>
      </trkpt>
      <trkpt lat="42.95598" lon="9.43026">
        <ele>115.067</ele>
        <time>2019-10-14T09:46:44Z</time>
      </trkpt>
      <trkpt lat="42.9554" lon="9.4298">
        <ele>108.442</ele>
        <time>2019-10-14T09:47:20Z</time>
      </trkpt>
      <trkpt lat="42.95523" lon="9.42901">
        <ele>115.513</ele>
        <time>2019-10-14T09:47:50Z</time>
      </trkpt>
      <trkpt lat="42.95544" lon="9.42821">
        <ele>124.95</ele>
        <time>2019-10-14T09:48:20Z</time>
      </trkpt>
      <trkpt lat="42.95599" lon="9.42767">
        <ele>121.67</ele>
        <time>2019-10-14T09:48:50Z</time>
      </trkpt>
      <trkpt lat="42.95642" lon="9.42706">
        <ele>125.6</ele>
        <time>2019-10-14T09:49:23Z</time>
      </trkpt>
      <trkpt lat="42.95699" lon="9.42713">
        <ele>128.831</ele>
        <time>2019-10-14T09:49:53Z</time>
      </trkpt>
      <trkpt lat="42.95754" lon="9.42733">
        <ele>129.574</ele>
        <time>2019-10-14T09:50:23Z</time>
      </trkpt>
      <trkpt lat="42.95811" lon="9.42775">
        <ele>121.679</ele>
        <time>2019-10-14T09:50:53Z</time>
      </trkpt>
      <trkpt lat="42.95878" lon="9.42789">
        <ele>124.387</ele>
        <time>2019-10-14T09:51:26Z</time>
      </trkpt>
      <trkpt lat="42.95925" lon="9.42732">
        <ele>128.148</ele>
        <time>2019-10-14T09:51:56Z</time>
      </trkpt>
      <trkpt lat="42.95978" lon="9.42753">
        <ele>136.358</ele>
        <time>2019-10-14T09:52:26Z</time>
      </trkpt>
      <trkpt lat="42.9604" lon="9.42784">
        <ele>140.46</ele>
        <time>2019-10-14T09:52:56Z</time>
      </trkpt>
      <trkpt lat="42.96099" lon="9.42815">
        <ele>143.415</ele>
        <time>2019-10-14T09:53:26Z</time>
      </trkpt>
      <trkpt lat="42.96159" lon="9.42822">
        <ele>144.696</ele>
        <time>2019-10-14T09:53:56Z</time>
      </trkpt>
      <trkpt lat="42.96218" lon="9.42783">
        <ele>150.126</ele>
        <time>2019-10-14T09:54:29Z</time>
      </trkpt>
      <trkpt lat="42.96211" lon="9.42703">
        <ele>156.615</ele>
        <time>2019-10-14T09:54:59Z</time>
      </trkpt>
      <trkpt lat="42.96201" lon="9.4262">
        <ele>163.044</ele>
        <time>2019-10-14T09:55:32Z</time>
      </trkpt>
      <trkpt lat="42.9621" lon="9.42539">
        <ele>170.822</ele>
        <time>2019-10-14T09:56:02Z</time>
      </trkpt>
      <trkpt lat="42.96271" lon="9.42508">
        <ele>167.515</ele>
        <time>2019-10-14T09:56:35Z</time>
      </trkpt>
      <trkpt lat="42.96285" lon="9.42424">
        <ele>168.785</ele>
        <time>2019-10-14T09:57:08Z</time>
      </trkpt>
      <trkpt lat="42.96317" lon="9.42387">
        <ele>171.52</ele>
        <time>2019-10-14T09:57:38Z</time>
      </trkpt>
      <trkpt lat="42.96361" lon="9.42443">
        <ele>177.267</ele>
        <time>2019-10-14T09:58:08Z</time>
      </trkpt>
      <trkpt lat="42.96409" lon="9.42481">
        <ele>176.528</ele>
        <time>2019-10-14T09:58:38Z</time>
      </trkpt>
      <trkpt lat="42.96455" lon="9.42422">
        <ele>183.376</ele>
        <time>2019-10-14T09:59:14Z</time>
      </trkpt>
      <trkpt lat="42.96499" lon="9.42399">
        <ele>185.42</ele>
        <time>2019-10-14T09:59:44Z</time>
      </trkpt>
      <trkpt lat="42.96548" lon="9.42442">
        <ele>191.202</ele>
        <time>2019-10-14T10:00:20Z</time>
      </trkpt>
      <trkpt lat="42.96614" lon="9.42434">
        <ele>200.863</ele>
        <time>2019-10-14T10:00:56Z</time>
      </trkpt>
      <trkpt lat="42.9668" lon="9.42451">
        <ele>193.188</ele>
        <time>2019-10-14T10:01:26Z</time>
      </trkpt>
      <trkpt lat="42.96702" lon="9.42385">
        <ele>201.537</ele>
        <time>2019-10-14T10:01:56Z</time>
      </trkpt>
      <trkpt lat="42.96731" lon="9.42318">
        <ele>205.544</ele>
        <time>2019-10-14T10:02:26Z</time>
      </trkpt>
      <trkpt lat="42.96746" lon="9.42227">
        <ele>211.713</ele>
        <time>2019-10-14T10:02:59Z</time>
      </trkpt>
      <trkpt lat="42.96746" lon="9.42152">
        <ele>215.728</ele>
        <time>2019-10-14T10:03:29Z</time>
      </trkpt>
      <trkpt lat="42.96797" lon="9.421">
        <ele>216.94</ele>
        <time>2019-10-14T10:03:59Z</time>
      </trkpt>
      <trkpt lat="42.96809" lon="9.42032">
        <ele>223.528</ele>
        <time>2019-10-14T10:04:29Z</time>
      </trkpt>
      <trkpt lat="42.96835" lon="9.41967">
        <ele>223.468</ele>
        <time>2019-10-14T10:04:59Z</time>
      </trkpt>
      <trkpt lat="42.96855" lon="9.41891">
        <ele>230.888</ele>
        <time>2019-10-14T10:05:35Z</time>
      </trkpt>
      <trkpt lat="42.96843" lon="9.41817">
        <ele>237.452</ele>
        <time>2019-10-14T10:06:08Z</time>
      </trkpt>
      <trkpt lat="42.96844" lon="9.41727">
        <ele>233.996</ele>
        <time>2019-10-14T10:06:38Z</time>
      </trkpt>
      <trkpt lat="42.96816" lon="9.41653">
        <ele>235.621</ele>
        <time>2019-10-14T10:07:14Z</time>
      </trkpt>
      <trkpt lat="42.96806" lon="9.41568">
        <ele>241.836</ele>
        <time>2019-10-14T10:07:44Z</time>
      </trkpt>
      <trkpt lat="42.96799" lon="9.41486">
        <ele>240.359</ele>
        <time>2019-10-14T10:08:14Z</time>
      </trkpt>
      <trkpt lat="42.96832" lon="9.41412">
        <ele>244.165</ele>
        <time>2019-10-14T10:08:47Z</time>
      </trkpt>
      <trkpt lat="42.96822" lon="9.41329">
        <ele>242.678</ele>
        <time>2019-10-14T10:09:17Z</time>
      </trkpt>
      <trkpt lat="42.96762" lon="9.4126">
        <ele>248.714</ele>
        <time>2019-10-14T10:09:47Z</time>
      </trkpt>
      <trkpt lat="42.96729" lon="9.41194">
        <ele>251.2</ele>
        <time>2019-10-14T10:10:17Z</time>
      </trkpt>
      <trkpt lat="42.96735" lon="9.41074">
        <ele>249.823</ele>
        <time>2019-10-14T10:10:47Z</time>
      </trkpt>
      <trkpt lat="42.96702" lon="9.41003">
        <ele>250.454</ele>
        <time>2019-10-14T10:14:14Z</time>
      </trkpt>
      <trkpt lat="42.9664" lon="9.409">
        <ele>249.42</ele>
        <time>2019-10-14T10:14:44Z</time>
      </trkpt>
      <trkpt lat="42.96532" lon="9.40828">
        <ele>247.867</ele>
        <time>2019-10-14T10:15:14Z</time>
      </trkpt>
      <trkpt lat="42.96473" lon="9.40688">
        <ele>254.094</ele>
        <time>2019-10-14T10:15:44Z</time>
      </trkpt>
      <trkpt lat="42.96416" lon="9.40536">
        <ele>253.193</ele>
        <time>2019-10-14T10:16:14Z</time>
      </trkpt>
      <trkpt lat="42.96323" lon="9.40411">
        <ele>250.653</ele>
        <time>2019-10-14T10:16:44Z</time>
      </trkpt>
      <trkpt lat="42.96243" lon="9.40285">
        <ele>250.161</ele>
        <time>2019-10-14T10:17:17Z</time>
      </trkpt>
      <trkpt lat="42.9618" lon="9.40123">
        <ele>253.464</ele>
        <time>2019-10-14T10:17:47Z</time>
      </trkpt>
      <trkpt lat="42.96096" lon="9.4">
        <ele>251.487</ele>
        <time>2019-10-14T10:18:17Z</time>
      </trkpt>
      <trkpt lat="42.96075" lon="9.39837">
        <ele>254.51</ele>
        <time>2019-10-14T10:18:47Z</time>
      </trkpt>
      <trkpt lat="42.96044" lon="9.39678">
        <ele>256.576</ele>
        <time>2019-10-14T10:19:17Z</time>
      </trkpt>
      <trkpt lat="42.96047" lon="9.39509">
        <ele>260.354</ele>
        <time>2019-10-14T10:19:47Z</time>
      </trkpt>
      <trkpt lat="42.96125" lon="9.39387">
        <ele>261.3</ele>
        <time>2019-10-14T10:20:17Z</time>
      </trkpt>
      <trkpt lat="42.96026" lon="9.39247">
        <ele>257.366</ele>
        <time>2019-10-14T10:20:47Z</time>
      </trkpt>
      <trkpt lat="42.95889" lon="9.39178">
        <ele>253.156</ele>
        <time>2019-10-14T10:21:17Z</time>
      </trkpt>
      <trkpt lat="42.95789" lon="9.3906">
        <ele>256.976</ele>
        <time>2019-10-14T10:21:47Z</time>
      </trkpt>
      <trkpt lat="42.95862" lon="9.38982">
        <ele>258.529</ele>
        <time>2019-10-14T10:22:17Z</time>
      </trkpt>
      <trkpt lat="42.9596" lon="9.38955">
        <ele>259.22</ele>
        <time>2019-10-14T10:22:50Z</time>
      </trkpt>
      <trkpt lat="42.96048" lon="9.38941">
        <ele>263.024</ele>
        <time>2019-10-14T10:23:20Z</time>
      </trkpt>
      <trkpt lat="42.96132" lon="9.38915">
        <ele>261.311</ele>
        <time>2019-10-14T10:23:50Z</time>
      </trkpt>
      <trkpt lat="42.96193" lon="9.39004">
        <ele>266.338</ele>
        <time>2019-10-14T10:24:20Z</time>
      </trkpt>
      <trkpt lat="42.96273" lon="9.39016">
        <ele>269.972</ele>
        <time>2019-10-14T10:24:50Z</time>
      </trkpt>
      <trkpt lat="42.96349" lon="9.39045">
        <ele>273.138</ele>
        <time>2019-10-14T10:25:20Z</time>
      </trkpt>
      <trkpt lat="42.96425" lon="9.39101">
        <ele>273.443</ele>
        <time>2019-10-14T10:25:50Z</time>
      </trkpt>
      <trkpt lat="42.96494" lon="9.39163">
        <ele>278.038</ele>
        <time>2019-10-14T10:26:20Z</time>
      </trkpt>
      <trkpt lat="42.96573" lon="9.39203">
        <ele>281.15</ele>
        <time>2019-10-14T10:26:50Z</time>
      </trkpt>
      <trkpt lat="42.96631" lon="9.39148">
        <ele>284.761</ele>
        <time>2019-10-14T10:27:20Z</time>
      </trkpt>
      <trkpt lat="42.96689" lon="9.39132">
        <ele>291.842</ele>
        <time>2019-10-14T10:27:50Z</time>
      </trkpt>
      <trkpt lat="42.96743" lon="9.39223">
        <ele>289.277</ele>
        <time>2019-10-14T10:28:23Z</time>
      </trkpt>
      <trkpt lat="42.96821" lon="9.39191">
        <ele>291.539</ele>
        <time>2019-10-14T10:28:53Z</time>
      </trkpt>
      <trkpt lat="42.96884" lon="9.39122">
        <ele>294.763</ele>
        <time>2019-10-14T10:29:23Z</time>
      </trkpt>
      <trkpt lat="42.96959" lon="9.3906">
        <ele>300.383</ele>
        <time>2019-10-14T10:29:53Z</time>
      </trkpt>
      <trkpt lat="42.96986" lon="9.38959">
        <ele>305.278</ele>
        <time>2019-10-14T10:30:23Z</time>
      </trkpt>
      <trkpt lat="42.96974" lon="9.38847">
        <ele>311.832</ele>
        <time>2019-10-14T10:30:53Z</time>
      </trkpt>
      <trkpt lat="42.97012" lon="9.38747">
        <ele>315.812</ele>
        <time>2019-10-14T10:31:23Z</time>
      </trkpt>
      <trkpt lat="42.97095" lon="9.38682">
        <ele>310.559</ele>
        <time>2019-10-14T10:31:53Z</time>
      </trkpt>
      <trkpt lat="42.9719" lon="9.38645">
        <ele>312.545</ele>
        <time>2019-10-14T10:32:23Z</time>
      </trkpt>
      <trkpt lat="42.9732" lon="9.38608">
        <ele>310.725</ele>
        <time>2019-10-14T10:32:53Z</time>
      </trkpt>
      <trkpt lat="42.97445" lon="9.38537">
        <ele>312.107</ele>
        <time>2019-10-14T10:33:23Z</time>
      </trkpt>
      <trkpt lat="42.97563" lon="9.3847">
        <ele>313.289</ele>
        <time>2019-10-14T10:33:53Z</time>
      </trkpt>
      <trkpt lat="42.97667" lon="9.38387">
        <ele>311.433</ele>
        <time>2019-10-14T10:34:26Z</time>
      </trkpt>
      <trkpt lat="42.97653" lon="9.3824">
        <ele>314.395</ele>
        <time>2019-10-14T10:34:56Z</time>
      </trkpt>
      <trkpt lat="42.97647" lon="9.38117">
        <ele>318.773</ele>
        <time>2019-10-14T10:35:26Z</time>
      </trkpt>
      <trkpt lat="42.97659" lon="9.38206">
        <ele>318.968</ele>
        <time>2019-10-14T10:37:08Z</time>
      </trkpt>
      <trkpt lat="42.97688" lon="9.38233">
        <ele>311.962</ele>
        <time>2019-10-14T10:37:56Z</time>
      </trkpt>
      <trkpt lat="42.97712" lon="9.38312">
        <ele>304.528</ele>
        <time>2019-10-14T10:39:08Z</time>
      </trkpt>
      <trkpt lat="42.97681" lon="9.38499">
        <ele>286.185</ele>
        <time>2019-10-14T10:39:38Z</time>
      </trkpt>
      <trkpt lat="42.97475" lon="9.38624">
        <ele>272.77</ele>
        <time>2019-10-14T10:40:08Z</time>
      </trkpt>
      <trkpt lat="42.97301" lon="9.38862">
        <ele>256.155</ele>
        <time>2019-10-14T10:40:38Z</time>
      </trkpt>
      <trkpt lat="42.97351" lon="9.38894">
        <ele>237.041</ele>
        <time>2019-10-14T10:41:08Z</time>
      </trkpt>
      <trkpt lat="42.97555" lon="9.38778">
        <ele>222.697</ele>
        <time>2019-10-14T10:41:38Z</time>
      </trkpt>
      <trkpt lat="42.9761" lon="9.387">
        <ele>215.645</ele>
        <time>2019-10-14T10:42:11Z</time>
      </trkpt>
      <trkpt lat="42.97581" lon="9.38951">
        <ele>201.094</ele>
        <time>2019-10-14T10:42:41Z</time>
      </trkpt>
      <trkpt lat="42.97491" lon="9.39005">
        <ele>196.51</ele>
        <time>2019-10-14T10:43:14Z</time>
      </trkpt>
      <trkpt lat="42.97605" lon="9.39116">
        <ele>186.632</ele>
        <time>2019-10-14T10:43:44Z</time>
      </trkpt>
      <trkpt lat="42.97755" lon="9.39223">
        <ele>184.336</ele>
        <time>2019-10-14T10:44:14Z</time>
      </trkpt>
      <trkpt lat="42.97884" lon="9.39314">
        <ele>182.331</ele>
        <time>2019-10-14T10:44:44Z</time>
      </trkpt>
      <trkpt lat="42.97987" lon="9.39392">
        <ele>188.137</ele>
        <time>2019-10-14T10:45:14Z</time>
      </trkpt>
      <trkpt lat="42.98128" lon="9.39425">
        <ele>188.061</ele>
        <time>2019-10-14T10:45:44Z</time>
      </trkpt>
      <trkpt lat="42.98241" lon="9.39537">
        <ele>185.563</ele>
        <time>2019-10-14T10:46:14Z</time>
      </trkpt>
      <trkpt lat="42.98341" lon="9.39586">
        <ele>186.687</ele>
        <time>2019-10-14T10:46:44Z</time>
      </trkpt>
      <trkpt lat="42.98431" lon="9.39626">
        <ele>184.738</ele>
        <time>2019-10-14T10:47:14Z</time>
      </trkpt>
      <trkpt lat="42.98569" lon="9.39782">
        <ele>168.499</ele>
        <time>2019-10-14T10:47:47Z</time>
      </trkpt>
      <trkpt lat="42.98727" lon="9.40032">
        <ele>148.898</ele>
        <time>2019-10-14T10:48:17Z</time>
      </trkpt>
      <trkpt lat="42.98787" lon="9.40299">
        <ele>124.107</ele>
        <time>2019-10-14T10:48:47Z</time>
      </trkpt>
      <trkpt lat="42.9889" lon="9.40515">
        <ele>109.059</ele>
        <time>2019-10-14T10:49:17Z</time>
      </trkpt>
      <trkpt lat="42.98951" lon="9.40483">
        <ele>105.727</ele>
        <time>2019-10-14T10:50:56Z</time>
      </trkpt>
      <trkpt lat="42.98895" lon="9.40292">
        <ele>101.927</ele>
        <time>2019-10-14T10:51:26Z</time>
      </trkpt>
      <trkpt lat="42.99041" lon="9.40187">
        <ele>87.345</ele>
        <time>2019-10-14T10:51:56Z</time>
      </trkpt>
      <trkpt lat="42.99222" lon="9.39986">
        <ele>68.647</ele>
        <time>2019-10-14T10:52:26Z</time>
      </trkpt>
      <trkpt lat="42.99452" lon="9.39886">
        <ele>53.399</ele>
        <time>2019-10-14T10:52:56Z</time>
      </trkpt>
      <trkpt lat="42.9969" lon="9.39849">
        <ele>44.455</ele>
        <time>2019-10-14T10:53:26Z</time>
      </trkpt>
      <trkpt lat="42.99889" lon="9.39902">
        <ele>34.972</ele>
        <time>2019-10-14T10:53:56Z</time>
      </trkpt>
      <trkpt lat="43.00108" lon="9.39988">
        <ele>25.62</ele>
        <time>2019-10-14T10:54:29Z</time>
      </trkpt>
      <trkpt lat="43.00226" lon="9.40173">
        <ele>19.994</ele>
        <time>2019-10-14T10:54:59Z</time>
      </trkpt>
      <trkpt lat="43.00322" lon="9.40204">
        <ele>15.382</ele>
        <time>2019-10-14T10:55:29Z</time>
      </trkpt>
      <trkpt lat="43.00483" lon="9.40313">
        <ele>12.141</ele>
        <time>2019-10-14T10:55:59Z</time>
      </trkpt>
      <trkpt lat="43.00588" lon="9.40251">
        <ele>6.605</ele>
        <time>2019-10-14T10:56:29Z</time>
      </trkpt>
      <trkpt lat="43.00616" lon="9.40242">
        <ele>6.116</ele>
        <time>2019-10-14T10:58:05Z</time>
      </trkpt>
      <trkpt lat="43.00607" lon="9.40318">
        <ele>7.751</ele>
        <time>2019-10-14T10:59:32Z</time>
      </trkpt>
      <trkpt lat="43.00619" lon="9.40259">
        <ele>6.735</ele>
        <time>2019-10-14T11:01:11Z</time>
      </trkpt>
      <trkpt lat="43.00646" lon="9.4015">
        <ele>8.657</ele>
        <time>2019-10-14T11:01:41Z</time>
      </trkpt>
      <trkpt lat="43.00725" lon="9.4016">
        <ele>12.136</ele>
        <time>2019-10-14T11:02:11Z</time>
      </trkpt>
      <trkpt lat="43.00763" lon="9.40074">
        <ele>8.97</ele>
        <time>2019-10-14T11:02:41Z</time>
      </trkpt>
      <trkpt lat="43.00758" lon="9.39974">
        <ele>16.805</ele>
        <time>2019-10-14T11:03:14Z</time>
      </trkpt>
      <trkpt lat="43.00706" lon="9.39938">
        <ele>17.834</ele>
        <time>2019-10-14T11:03:44Z</time>
      </trkpt>
      <trkpt lat="43.00672" lon="9.39865">
        <ele>23.855</ele>
        <time>2019-10-14T11:04:14Z</time>
      </trkpt>
      <trkpt lat="43.00609" lon="9.39819">
        <ele>24.818</ele>
        <time>2019-10-14T11:04:44Z</time>
      </trkpt>
      <trkpt lat="43.00543" lon="9.39802">
        <ele>28.531</ele>
        <time>2019-10-14T11:05:14Z</time>
      </trkpt>
      <trkpt lat="43.00496" lon="9.39603">
        <ele>27.285</ele>
        <time>2019-10-14T11:05:44Z</time>
      </trkpt>
      <trkpt lat="43.00504" lon="9.39456">
        <ele>29.056</ele>
        <time>2019-10-14T11:06:14Z</time>
      </trkpt>
      <trkpt lat="43.00525" lon="9.39377">
        <ele>32.104</ele>
        <time>2019-10-14T11:06:44Z</time>
      </trkpt>
      <trkpt lat="43.00522" lon="9.39217">
        <ele>29.731</ele>
        <time>2019-10-14T11:07:14Z</time>
      </trkpt>
      <trkpt lat="43.00414" lon="9.39016">
        <ele>23.763</ele>
        <time>2019-10-14T11:07:44Z</time>
      </trkpt>
      <trkpt lat="43.00208" lon="9.38861">
        <ele>14.778</ele>
        <time>2019-10-14T11:08:14Z</time>
      </trkpt>
      <trkpt lat="43.00189" lon="9.38579">
        <ele>6.886</ele>
        <time>2019-10-14T11:08:47Z</time>
      </trkpt>
      <trkpt lat="43.00273" lon="9.38546">
        <ele>12.274</ele>
        <time>2019-10-14T11:09:17Z</time>
      </trkpt>
      <trkpt lat="43.00331" lon="9.38526">
        <ele>18.758</ele>
        <time>2019-10-14T11:09:47Z</time>
      </trkpt>
      <trkpt lat="43.00401" lon="9.38547">
        <ele>22.323</ele>
        <time>2019-10-14T11:10:17Z</time>
      </trkpt>
      <trkpt lat="43.00473" lon="9.38495">
        <ele>22.123</ele>
        <time>2019-10-14T11:10:47Z</time>
      </trkpt>
      <trkpt lat="43.00426" lon="9.38507">
        <ele>24.204</ele>
        <time>2019-10-14T11:17:38Z</time>
      </trkpt>
      <trkpt lat="43.00374" lon="9.38471">
        <ele>28.704</ele>
        <time>2019-10-14T11:18:08Z</time>
      </trkpt>
      <trkpt lat="43.0033" lon="9.3842">
        <ele>34.827</ele>
        <time>2019-10-14T11:18:38Z</time>
      </trkpt>
      <trkpt lat="43.00273" lon="9.38384">
        <ele>39.081</ele>
        <time>2019-10-14T11:19:08Z</time>
      </trkpt>
      <trkpt lat="43.00228" lon="9.38322">
        <ele>42.388</ele>
        <time>2019-10-14T11:19:38Z</time>
      </trkpt>
      <trkpt lat="43.00173" lon="9.38283">
        <ele>46.551</ele>
        <time>2019-10-14T11:20:08Z</time>
      </trkpt>
      <trkpt lat="43.00123" lon="9.38219">
        <ele>51.442</ele>
        <time>2019-10-14T11:20:41Z</time>
      </trkpt>
      <trkpt lat="43.00076" lon="9.38162">
        <ele>55.481</ele>
        <time>2019-10-14T11:21:11Z</time>
      </trkpt>
      <trkpt lat="43.00025" lon="9.38116">
        <ele>58.276</ele>
        <time>2019-10-14T11:21:41Z</time>
      </trkpt>
      <trkpt lat="42.99965" lon="9.38103">
        <ele>62.001</ele>
        <time>2019-10-14T11:22:11Z</time>
      </trkpt>
      <trkpt lat="42.99909" lon="9.38076">
        <ele>65.638</ele>
        <time>2019-10-14T11:22:41Z</time>
      </trkpt>
      <trkpt lat="42.99865" lon="9.38024">
        <ele>68.73</ele>
        <time>2019-10-14T11:23:11Z</time>
      </trkpt>
      <trkpt lat="42.99821" lon="9.37971">
        <ele>74.069</ele>
        <time>2019-10-14T11:23:41Z</time>
      </trkpt>
      <trkpt lat="42.99769" lon="9.37989">
        <ele>76.939</ele>
        <time>2019-10-14T11:24:11Z</time>
      </trkpt>
      <trkpt lat="42.99713" lon="9.3802">
        <ele>82.207</ele>
        <time>2019-10-14T11:24:41Z</time>
      </trkpt>
      <trkpt lat="42.99681" lon="9.38089">
        <ele>87.794</ele>
        <time>2019-10-14T11:25:11Z</time>
      </trkpt>
      <trkpt lat="42.99627" lon="9.38085">
        <ele>89.776</ele>
        <time>2019-10-14T11:25:41Z</time>
      </trkpt>
      <trkpt lat="42.99571" lon="9.38035">
        <ele>95.344</ele>
        <time>2019-10-14T11:26:14Z</time>
      </trkpt>
      <trkpt lat="42.99511" lon="9.38001">
        <ele>101.032</ele>
        <time>2019-10-14T11:26:44Z</time>
      </trkpt>
      <trkpt lat="42.99463" lon="9.3797">
        <ele>103.137</ele>
        <time>2019-10-14T11:27:14Z</time>
      </trkpt>
      <trkpt lat="42.99408" lon="9.37942">
        <ele>103.139</ele>
        <time>2019-10-14T11:27:44Z</time>
      </trkpt>
      <trkpt lat="42.99359" lon="9.37909">
        <ele>106.334</ele>
        <time>2019-10-14T11:28:14Z</time>
      </trkpt>
      <trkpt lat="42.99305" lon="9.37885">
        <ele>109.49</ele>
        <time>2019-10-14T11:28:44Z</time>
      </trkpt>
      <trkpt lat="42.99248" lon="9.37888">
        <ele>113.006</ele>
        <time>2019-10-14T11:29:14Z</time>
      </trkpt>
      <trkpt lat="42.99197" lon="9.37851">
        <ele>116.538</ele>
        <time>2019-10-14T11:29:44Z</time>
      </trkpt>
      <trkpt lat="42.99141" lon="9.3784">
        <ele>120.978</ele>
        <time>2019-10-14T11:30:14Z</time>
      </trkpt>
      <trkpt lat="42.99087" lon="9.37809">
        <ele>125.616</ele>
        <time>2019-10-14T11:30:44Z</time>
      </trkpt>
      <trkpt lat="42.99039" lon="9.3776">
        <ele>129.599</ele>
        <time>2019-10-14T11:31:14Z</time>
      </trkpt>
      <trkpt lat="42.98984" lon="9.3771">
        <ele>133.035</ele>
        <time>2019-10-14T11:31:47Z</time>
      </trkpt>
      <trkpt lat="42.9894" lon="9.37665">
        <ele>137.28</ele>
        <time>2019-10-14T11:32:17Z</time>
      </trkpt>
      <trkpt lat="42.98892" lon="9.37629">
        <ele>142.916</ele>
        <time>2019-10-14T11:32:47Z</time>
      </trkpt>
      <trkpt lat="42.98836" lon="9.37599">
        <ele>144.434</ele>
        <time>2019-10-14T11:33:17Z</time>
      </trkpt>
      <trkpt lat="42.98794" lon="9.37547">
        <ele>146.928</ele>
        <time>2019-10-14T11:33:47Z</time>
      </trkpt>
      <trkpt lat="42.98754" lon="9.37482">
        <ele>152.323</ele>
        <time>2019-10-14T11:34:17Z</time>
      </trkpt>
      <trkpt lat="42.9873" lon="9.37415">
        <ele>156.634</ele>
        <time>2019-10-14T11:34:47Z</time>
      </trkpt>
      <trkpt lat="42.98708" lon="9.37339">
        <ele>158.962</ele>
        <time>2019-10-14T11:35:20Z</time>
      </trkpt>
      <trkpt lat="42.98673" lon="9.37297">
        <ele>163.692</ele>
        <time>2019-10-14T11:35:50Z</time>
      </trkpt>
      <trkpt lat="42.98632" lon="9.37349">
        <ele>163.373</ele>
        <time>2019-10-14T11:36:26Z</time>
      </trkpt>
      <trkpt lat="42.9857" lon="9.3737">
        <ele>161.017</ele>
        <time>2019-10-14T11:36:56Z</time>
      </trkpt>
      <trkpt lat="42.98519" lon="9.3735">
        <ele>171.948</ele>
        <time>2019-10-14T11:37:26Z</time>
      </trkpt>
      <trkpt lat="42.98473" lon="9.37297">
        <ele>175.466</ele>
        <time>2019-10-14T11:37:59Z</time>
      </trkpt>
      <trkpt lat="42.98435" lon="9.37242">
        <ele>178.905</ele>
        <time>2019-10-14T11:38:29Z</time>
      </trkpt>
      <trkpt lat="42.98422" lon="9.37174">
        <ele>186.945</ele>
        <time>2019-10-14T11:38:59Z</time>
      </trkpt>
      <trkpt lat="42.98379" lon="9.37176">
        <ele>190.296</ele>
        <time>2019-10-14T11:39:35Z</time>
      </trkpt>
      <trkpt lat="42.98322" lon="9.37215">
        <ele>184.665</ele>
        <time>2019-10-14T11:40:05Z</time>
      </trkpt>
      <trkpt lat="42.98275" lon="9.37195">
        <ele>188.036</ele>
        <time>2019-10-14T11:40:35Z</time>
      </trkpt>
      <trkpt lat="42.98244" lon="9.37128">
        <ele>192.175</ele>
        <time>2019-10-14T11:41:05Z</time>
      </trkpt>
      <trkpt lat="42.98222" lon="9.37053">
        <ele>196.809</ele>
        <time>2019-10-14T11:41:35Z</time>
      </trkpt>
      <trkpt lat="42.98178" lon="9.36996">
        <ele>204.231</ele>
        <time>2019-10-14T11:42:11Z</time>
      </trkpt>
      <trkpt lat="42.98122" lon="9.36964">
        <ele>209.734</ele>
        <time>2019-10-14T11:42:47Z</time>
      </trkpt>
      <trkpt lat="42.98073" lon="9.36911">
        <ele>210.012</ele>
        <time>2019-10-14T11:43:17Z</time>
      </trkpt>
      <trkpt lat="42.98028" lon="9.36867">
        <ele>215.905</ele>
        <time>2019-10-14T11:43:50Z</time>
      </trkpt>
      <trkpt lat="42.97965" lon="9.36873">
        <ele>211.226</ele>
        <time>2019-10-14T11:44:23Z</time>
      </trkpt>
      <trkpt lat="42.97921" lon="9.36876">
        <ele>220.492</ele>
        <time>2019-10-14T11:44:56Z</time>
      </trkpt>
      <trkpt lat="42.97909" lon="9.36955">
        <ele>235.87</ele>
        <time>2019-10-14T11:45:35Z</time>
      </trkpt>
      <trkpt lat="42.9789" lon="9.37022">
        <ele>235.314</ele>
        <time>2019-10-14T11:46:05Z</time>
      </trkpt>
      <trkpt lat="42.97839" lon="9.3706">
        <ele>236.349</ele>
        <time>2019-10-14T11:46:35Z</time>
      </trkpt>
      <trkpt lat="42.97783" lon="9.37084">
        <ele>244.312</ele>
        <time>2019-10-14T11:47:11Z</time>
      </trkpt>
      <trkpt lat="42.97726" lon="9.3711">
        <ele>244.171</ele>
        <time>2019-10-14T11:47:41Z</time>
      </trkpt>
      <trkpt lat="42.97673" lon="9.37126">
        <ele>243.354</ele>
        <time>2019-10-14T11:48:11Z</time>
      </trkpt>
      <trkpt lat="42.97668" lon="9.37196">
        <ele>252.402</ele>
        <time>2019-10-14T11:48:47Z</time>
      </trkpt>
      <trkpt lat="42.97642" lon="9.3727">
        <ele>252.855</ele>
        <time>2019-10-14T11:49:17Z</time>
      </trkpt>
      <trkpt lat="42.97615" lon="9.37343">
        <ele>256.656</ele>
        <time>2019-10-14T11:49:50Z</time>
      </trkpt>
      <trkpt lat="42.97586" lon="9.37409">
        <ele>256.897</ele>
        <time>2019-10-14T11:50:20Z</time>
      </trkpt>
      <trkpt lat="42.97581" lon="9.37458">
        <ele>259.26</ele>
        <time>2019-10-14T11:55:23Z</time>
      </trkpt>
      <trkpt lat="42.97607" lon="9.37539">
        <ele>259.554</ele>
        <time>2019-10-14T11:55:53Z</time>
      </trkpt>
      <trkpt lat="42.97589" lon="9.37611">
        <ele>262.147</ele>
        <time>2019-10-14T11:56:23Z</time>
      </trkpt>
      <trkpt lat="42.97542" lon="9.37661">
        <ele>262.412</ele>
        <time>2019-10-14T11:56:53Z</time>
      </trkpt>
      <trkpt lat="42.97576" lon="9.37709">
        <ele>266.318</ele>
        <time>2019-10-14T11:57:23Z</time>
      </trkpt>
      <trkpt lat="42.97622" lon="9.37762">
        <ele>273.771</ele>
        <time>2019-10-14T11:57:53Z</time>
      </trkpt>
      <trkpt lat="42.97619" lon="9.37837">
        <ele>277.91</ele>
        <time>2019-10-14T11:58:23Z</time>
      </trkpt>
      <trkpt lat="42.97617" lon="9.37913">
        <ele>286.499</ele>
        <time>2019-10-14T11:58:59Z</time>
      </trkpt>
      <trkpt lat="42.97648" lon="9.37974">
        <ele>287.437</ele>
        <time>2019-10-14T11:59:29Z</time>
      </trkpt>
      <trkpt lat="42.97694" lon="9.38029">
        <ele>286.415</ele>
        <time>2019-10-14T12:00:02Z</time>
      </trkpt>
      <trkpt lat="42.97694" lon="9.38106">
        <ele>293.745</ele>
        <time>2019-10-14T12:00:35Z</time>
      </trkpt>
      <trkpt lat="42.97678" lon="9.38177">
        <ele>299.604</ele>
        <time>2019-10-14T12:01:05Z</time>
      </trkpt>
      <trkpt lat="42.9769" lon="9.38254">
        <ele>308.452</ele>
        <time>2019-10-14T12:01:35Z</time>
      </trkpt>
      <trkpt lat="42.97677" lon="9.38253">
        <ele>302.818</ele>
        <time>2019-10-14T12:02:05Z</time>
      </trkpt>
      <trkpt lat="42.97656" lon="9.38182">
        <ele>306.465</ele>
        <time>2019-10-14T12:02:35Z</time>
      </trkpt>
      <trkpt lat="42.97641" lon="9.38105">
        <ele>314.077</ele>
        <time>2019-10-14T12:03:05Z</time>
      </trkpt>
      <trkpt lat="42.97587" lon="9.38028">
        <ele>315.908</ele>
        <time>2019-10-14T12:03:35Z</time>
      </trkpt>
      <trkpt lat="42.97527" lon="9.37974">
        <ele>313.226</ele>
        <time>2019-10-14T12:04:05Z</time>
      </trkpt>
      <trkpt lat="42.97495" lon="9.37902">
        <ele>318.847</ele>
        <time>2019-10-14T12:04:35Z</time>
      </trkpt>
      <trkpt lat="42.97453" lon="9.37848">
        <ele>324.288</ele>
        <time>2019-10-14T12:05:05Z</time>
      </trkpt>
      <trkpt lat="42.97398" lon="9.37794">
        <ele>328.068</ele>
        <time>2019-10-14T12:05:38Z</time>
      </trkpt>
      <trkpt lat="42.97375" lon="9.37721">
        <ele>331.601</ele>
        <time>2019-10-14T12:06:08Z</time>
      </trkpt>
      <trkpt lat="42.97361" lon="9.37645">
        <ele>333.82</ele>
        <time>2019-10-14T12:06:38Z</time>
      </trkpt>
      <trkpt lat="42.97351" lon="9.37564">
        <ele>338.289</ele>
        <time>2019-10-14T12:07:08Z</time>
      </trkpt>
      <trkpt lat="42.97317" lon="9.37483">
        <ele>343.103</ele>
        <time>2019-10-14T12:07:38Z</time>
      </trkpt>
      <trkpt lat="42.97313" lon="9.37403">
        <ele>346.215</ele>
        <time>2019-10-14T12:08:08Z</time>
      </trkpt>
      <trkpt lat="42.97355" lon="9.37333">
        <ele>352.661</ele>
        <time>2019-10-14T12:08:38Z</time>
      </trkpt>
      <trkpt lat="42.97364" lon="9.37252">
        <ele>356.182</ele>
        <time>2019-10-14T12:09:08Z</time>
      </trkpt>
      <trkpt lat="42.97343" lon="9.37147">
        <ele>356.677</ele>
        <time>2019-10-14T12:09:38Z</time>
      </trkpt>
      <trkpt lat="42.97313" lon="9.37037">
        <ele>352.113</ele>
        <time>2019-10-14T12:10:08Z</time>
      </trkpt>
      <trkpt lat="42.9731" lon="9.36922">
        <ele>354.264</ele>
        <time>2019-10-14T12:10:38Z</time>
      </trkpt>
      <trkpt lat="42.97339" lon="9.36793">
        <ele>360.237</ele>
        <time>2019-10-14T12:11:11Z</time>
      </trkpt>
      <trkpt lat="42.97351" lon="9.36687">
        <ele>361.869</ele>
        <time>2019-10-14T12:11:41Z</time>
      </trkpt>
      <trkpt lat="42.97312" lon="9.36712">
        <ele>361.658</ele>
        <time>2019-10-14T12:14:26Z</time>
      </trkpt>
      <trkpt lat="42.97313" lon="9.36699">
        <ele>357.79</ele>
        <time>2019-10-14T12:15:35Z</time>
      </trkpt>
      <trkpt lat="42.97317" lon="9.36704">
        <ele>360.451</ele>
        <time>2019-10-14T12:16:38Z</time>
      </trkpt>
      <trkpt lat="42.97302" lon="9.36726">
        <ele>359.769</ele>
        <time>2019-10-14T12:19:59Z</time>
      </trkpt>
      <trkpt lat="42.97131" lon="9.36852">
        <ele>352.717</ele>
        <time>2019-10-14T12:20:29Z</time>
      </trkpt>
      <trkpt lat="42.96964" lon="9.37054">
        <ele>334.72</ele>
        <time>2019-10-14T12:20:59Z</time>
      </trkpt>
      <trkpt lat="42.96803" lon="9.3736">
        <ele>321.985</ele>
        <time>2019-10-14T12:21:29Z</time>
      </trkpt>
      <trkpt lat="42.96513" lon="9.37381">
        <ele>302.079</ele>
        <time>2019-10-14T12:21:59Z</time>
      </trkpt>
      <trkpt lat="42.96289" lon="9.37529">
        <ele>283.72</ele>
        <time>2019-10-14T12:22:29Z</time>
      </trkpt>
      <trkpt lat="42.96255" lon="9.37194">
        <ele>262.141</ele>
        <time>2019-10-14T12:23:02Z</time>
      </trkpt>
      <trkpt lat="42.96056" lon="9.36983">
        <ele>240.476</ele>
        <time>2019-10-14T12:23:32Z</time>
      </trkpt>
      <trkpt lat="42.95967" lon="9.36785">
        <ele>226.619</ele>
        <time>2019-10-14T12:24:02Z</time>
      </trkpt>
      <trkpt lat="42.96068" lon="9.36777">
        <ele>220.302</ele>
        <time>2019-10-14T12:24:32Z</time>
      </trkpt>
      <trkpt lat="42.96125" lon="9.36927">
        <ele>214.941</ele>
        <time>2019-10-14T12:25:02Z</time>
      </trkpt>
      <trkpt lat="42.96261" lon="9.36989">
        <ele>206.117</ele>
        <time>2019-10-14T12:25:32Z</time>
      </trkpt>
      <trkpt lat="42.96334" lon="9.37168">
        <ele>203.531</ele>
        <time>2019-10-14T12:26:02Z</time>
      </trkpt>
      <trkpt lat="42.96445" lon="9.37092">
        <ele>200.956</ele>
        <time>2019-10-14T12:26:32Z</time>
      </trkpt>
      <trkpt lat="42.96567" lon="9.37006">
        <ele>189.55</ele>
        <time>2019-10-14T12:27:02Z</time>
      </trkpt>
      <trkpt lat="42.96618" lon="9.36829">
        <ele>187.154</ele>
        <time>2019-10-14T12:27:32Z</time>
      </trkpt>
      <trkpt lat="42.9663" lon="9.36621">
        <ele>174.656</ele>
        <time>2019-10-14T12:28:02Z</time>
      </trkpt>
      <trkpt lat="42.96709" lon="9.36412">
        <ele>155.647</ele>
        <time>2019-10-14T12:28:35Z</time>
      </trkpt>
      <trkpt lat="42.96741" lon="9.36388">
        <ele>138.438</ele>
        <time>2019-10-14T12:29:05Z</time>
      </trkpt>
      <trkpt lat="42.96605" lon="9.36471">
        <ele>125.148</ele>
        <time>2019-10-14T12:29:35Z</time>
      </trkpt>
      <trkpt lat="42.96456" lon="9.36602">
        <ele>112.592</ele>
        <time>2019-10-14T12:30:05Z</time>
      </trkpt>
      <trkpt lat="42.96365" lon="9.36454">
        <ele>99.244</ele>
        <time>2019-10-14T12:30:35Z</time>
      </trkpt>
      <trkpt lat="42.96194" lon="9.36252">
        <ele>89.134</ele>
        <time>2019-10-14T12:31:05Z</time>
      </trkpt>
      <trkpt lat="42.96352" lon="9.36194">
        <ele>80.086</ele>
        <time>2019-10-14T12:31:35Z</time>
      </trkpt>
      <trkpt lat="42.9647" lon="9.36151">
        <ele>63.721</ele>
        <time>2019-10-14T12:32:05Z</time>
      </trkpt>
      <trkpt lat="42.96567" lon="9.35873">
        <ele>50.052</ele>
        <time>2019-10-14T12:32:35Z</time>
      </trkpt>
      <trkpt lat="42.96583" lon="9.35586">
        <ele>39.468</ele>
        <time>2019-10-14T12:33:05Z</time>
      </trkpt>
      <trkpt lat="42.96587" lon="9.35418">
        <ele>29.909</ele>
        <time>2019-10-14T12:33:35Z</time>
      </trkpt>
      <trkpt lat="42.96605" lon="9.35235">
        <ele>15.914</ele>
        <time>2019-10-14T12:34:08Z</time>
      </trkpt>
      <trkpt lat="42.96594" lon="9.35105">
        <ele>0.362</ele>
        <time>2019-10-14T12:34:41Z</time>
      </trkpt>
      <trkpt lat="42.96584" lon="9.35013">
        <ele>7</ele>
        <time>2019-10-14T12:35:11Z</time>
      </trkpt>
      <trkpt lat="42.96551" lon="9.34945">
        <ele>4.186</ele>
        <time>2019-10-14T12:35:41Z</time>
      </trkpt>
      <trkpt lat="42.96556" lon="9.34907">
        <ele>5.535</ele>
        <time>2019-10-14T12:41:05.001Z</time>
      </trkpt>
      <trkpt lat="42.96559" lon="9.34903">
        <ele>11.6</ele>
        <time>2019-10-14T12:42:14.001Z</time>
      </trkpt>
    </trkseg>
  </trk>
  <trk>
    <name><![CDATA[Tracé 20190916-131917]]></name>
    <trkseg>
      <trkpt lat="50.46492" lon="1.57765">
        <ele>24.079</ele>
        <time>2019-09-16T11:21:17.000Z</time>
      </trkpt>
      <trkpt lat="50.46433" lon="1.57804">
        <ele>20.549</ele>
        <time>2019-09-16T11:25:14.000Z</time>
      </trkpt>
      <trkpt lat="50.46317" lon="1.57879">
        <ele>15.648</ele>
        <time>2019-09-16T11:25:44.000Z</time>
      </trkpt>
      <trkpt lat="50.46242" lon="1.58006">
        <ele>14.88</ele>
        <time>2019-09-16T11:26:14.000Z</time>
      </trkpt>
      <trkpt lat="50.46162" lon="1.58072">
        <ele>16.306</ele>
        <time>2019-09-16T11:26:44.000Z</time>
      </trkpt>
      <trkpt lat="50.46124" lon="1.58301">
        <ele>15.089</ele>
        <time>2019-09-16T11:27:14.000Z</time>
      </trkpt>
      <trkpt lat="50.46086" lon="1.58569">
        <ele>15.742</ele>
        <time>2019-09-16T11:27:44.000Z</time>
      </trkpt>
      <trkpt lat="50.46042" lon="1.58832">
        <ele>14.749</ele>
        <time>2019-09-16T11:28:14.000Z</time>
      </trkpt>
      <trkpt lat="50.46002" lon="1.59097">
        <ele>15.734</ele>
        <time>2019-09-16T11:28:44.000Z</time>
      </trkpt>
      <trkpt lat="50.45955" lon="1.59394">
        <ele>11.88</ele>
        <time>2019-09-16T11:29:17.000Z</time>
      </trkpt>
      <trkpt lat="50.45914" lon="1.59655">
        <ele>15.347</ele>
        <time>2019-09-16T11:29:47.000Z</time>
      </trkpt>
      <trkpt lat="50.45874" lon="1.59901">
        <ele>15.862</ele>
        <time>2019-09-16T11:30:17.000Z</time>
      </trkpt>
      <trkpt lat="50.45835" lon="1.60138">
        <ele>14.158</ele>
        <time>2019-09-16T11:30:47.000Z</time>
      </trkpt>
      <trkpt lat="50.45826" lon="1.60179">
        <ele>13.861</ele>
        <time>2019-09-16T11:31:59.000Z</time>
      </trkpt>
      <trkpt lat="50.45794" lon="1.60287">
        <ele>13.296</ele>
        <time>2019-09-16T11:33:11.000Z</time>
      </trkpt>
      <trkpt lat="50.45716" lon="1.60435">
        <ele>14.158</ele>
        <time>2019-09-16T11:33:41.000Z</time>
      </trkpt>
      <trkpt lat="50.45623" lon="1.60606">
        <ele>16.861</ele>
        <time>2019-09-16T11:34:11.000Z</time>
      </trkpt>
      <trkpt lat="50.45582" lon="1.6085">
        <ele>16.182</ele>
        <time>2019-09-16T11:34:41.000Z</time>
      </trkpt>
      <trkpt lat="50.45557" lon="1.61153">
        <ele>14.52</ele>
        <time>2019-09-16T11:35:11.000Z</time>
      </trkpt>
      <trkpt lat="50.45591" lon="1.61378">
        <ele>14.389</ele>
        <time>2019-09-16T11:35:41.000Z</time>
      </trkpt>
      <trkpt lat="50.45665" lon="1.61612">
        <ele>14.505</ele>
        <time>2019-09-16T11:36:11.000Z</time>
      </trkpt>
      <trkpt lat="50.45745" lon="1.61866">
        <ele>16.567</ele>
        <time>2019-09-16T11:36:41.000Z</time>
      </trkpt>
      <trkpt lat="50.45806" lon="1.62134">
        <ele>12.475</ele>
        <time>2019-09-16T11:37:11.000Z</time>
      </trkpt>
      <trkpt lat="50.45862" lon="1.62395">
        <ele>14.449</ele>
        <time>2019-09-16T11:37:41.000Z</time>
      </trkpt>
      <trkpt lat="50.45964" lon="1.62632">
        <ele>8.806</ele>
        <time>2019-09-16T11:38:11.000Z</time>
      </trkpt>
      <trkpt lat="50.45994" lon="1.62896">
        <ele>7.818</ele>
        <time>2019-09-16T11:38:41.000Z</time>
      </trkpt>
      <trkpt lat="50.46002" lon="1.63189">
        <ele>12.158</ele>
        <time>2019-09-16T11:39:14.000Z</time>
      </trkpt>
      <trkpt lat="50.46064" lon="1.63442">
        <ele>14.647</ele>
        <time>2019-09-16T11:39:44.000Z</time>
      </trkpt>
      <trkpt lat="50.4617" lon="1.63654">
        <ele>13.949</ele>
        <time>2019-09-16T11:40:14.000Z</time>
      </trkpt>
      <trkpt lat="50.46242" lon="1.63896">
        <ele>13.683</ele>
        <time>2019-09-16T11:40:44.000Z</time>
      </trkpt>
      <trkpt lat="50.46264" lon="1.64165">
        <ele>12.245</ele>
        <time>2019-09-16T11:41:14.000Z</time>
      </trkpt>
      <trkpt lat="50.46283" lon="1.64432">
        <ele>8.29</ele>
        <time>2019-09-16T11:41:44.000Z</time>
      </trkpt>
      <trkpt lat="50.46302" lon="1.64672">
        <ele>10.915</ele>
        <time>2019-09-16T11:42:14.000Z</time>
      </trkpt>
      <trkpt lat="50.46322" lon="1.64856">
        <ele>16.533</ele>
        <time>2019-09-16T11:42:44.000Z</time>
      </trkpt>
      <trkpt lat="50.46318" lon="1.65067">
        <ele>16.604</ele>
        <time>2019-09-16T11:43:14.000Z</time>
      </trkpt>
      <trkpt lat="50.46328" lon="1.65309">
        <ele>17.01</ele>
        <time>2019-09-16T11:43:44.000Z</time>
      </trkpt>
      <trkpt lat="50.46384" lon="1.65549">
        <ele>18.116</ele>
        <time>2019-09-16T11:44:14.000Z</time>
      </trkpt>
      <trkpt lat="50.4645" lon="1.65769">
        <ele>16.807</ele>
        <time>2019-09-16T11:44:44.000Z</time>
      </trkpt>
      <trkpt lat="50.46519" lon="1.65955">
        <ele>19.261</ele>
        <time>2019-09-16T11:45:14.000Z</time>
      </trkpt>
      <trkpt lat="50.46581" lon="1.66091">
        <ele>27.641</ele>
        <time>2019-09-16T11:45:44.000Z</time>
      </trkpt>
      <trkpt lat="50.46625" lon="1.66243">
        <ele>33.529</ele>
        <time>2019-09-16T11:46:14.000Z</time>
      </trkpt>
      <trkpt lat="50.46628" lon="1.66375">
        <ele>34.175</ele>
        <time>2019-09-16T11:46:44.000Z</time>
      </trkpt>
      <trkpt lat="50.46675" lon="1.664">
        <ele>42.674</ele>
        <time>2019-09-16T11:47:14.000Z</time>
      </trkpt>
      <trkpt lat="50.46763" lon="1.66332">
        <ele>51.109</ele>
        <time>2019-09-16T11:47:47.000Z</time>
      </trkpt>
      <trkpt lat="50.46903" lon="1.66353">
        <ele>50.83</ele>
        <time>2019-09-16T11:48:17.000Z</time>
      </trkpt>
      <trkpt lat="50.47048" lon="1.66351">
        <ele>43.219</ele>
        <time>2019-09-16T11:48:47.000Z</time>
      </trkpt>
      <trkpt lat="50.47299" lon="1.66569">
        <ele>27.465</ele>
        <time>2019-09-16T11:49:17.000Z</time>
      </trkpt>
      <trkpt lat="50.47477" lon="1.66677">
        <ele>21.803</ele>
        <time>2019-09-16T11:49:47.000Z</time>
      </trkpt>
      <trkpt lat="50.4752" lon="1.66808">
        <ele>25.959</ele>
        <time>2019-09-16T11:50:17.000Z</time>
      </trkpt>
      <trkpt lat="50.47577" lon="1.66918">
        <ele>33.748</ele>
        <time>2019-09-16T11:50:47.000Z</time>
      </trkpt>
      <trkpt lat="50.47674" lon="1.67013">
        <ele>37.541</ele>
        <time>2019-09-16T11:51:17.000Z</time>
      </trkpt>
      <trkpt lat="50.47799" lon="1.67277">
        <ele>31.542</ele>
        <time>2019-09-16T11:51:47.000Z</time>
      </trkpt>
      <trkpt lat="50.47839" lon="1.67536">
        <ele>23.228</ele>
        <time>2019-09-16T11:52:17.000Z</time>
      </trkpt>
      <trkpt lat="50.47948" lon="1.67814">
        <ele>17.853</ele>
        <time>2019-09-16T11:52:47.000Z</time>
      </trkpt>
      <trkpt lat="50.47889" lon="1.68143">
        <ele>7.8</ele>
        <time>2019-09-16T11:53:17.000Z</time>
      </trkpt>
      <trkpt lat="50.47977" lon="1.68323">
        <ele>12.113</ele>
        <time>2019-09-16T11:53:47.000Z</time>
      </trkpt>
      <trkpt lat="50.48109" lon="1.68426">
        <ele>21.27</ele>
        <time>2019-09-16T11:54:17.000Z</time>
      </trkpt>
      <trkpt lat="50.48177" lon="1.68617">
        <ele>21.562</ele>
        <time>2019-09-16T11:54:47.000Z</time>
      </trkpt>
      <trkpt lat="50.48198" lon="1.68934">
        <ele>18.851</ele>
        <time>2019-09-16T11:55:17.000Z</time>
      </trkpt>
      <trkpt lat="50.48292" lon="1.69145">
        <ele>9.812</ele>
        <time>2019-09-16T11:55:47.000Z</time>
      </trkpt>
      <trkpt lat="50.48473" lon="1.69196">
        <ele>7.146</ele>
        <time>2019-09-16T11:56:20.000Z</time>
      </trkpt>
      <trkpt lat="50.48588" lon="1.6939">
        <ele>3.969</ele>
        <time>2019-09-16T11:56:50.000Z</time>
      </trkpt>
      <trkpt lat="50.48758" lon="1.69435">
        <ele>9.352</ele>
        <time>2019-09-16T11:57:20.000Z</time>
      </trkpt>
      <trkpt lat="50.48934" lon="1.69493">
        <ele>9.481</ele>
        <time>2019-09-16T11:57:50.000Z</time>
      </trkpt>
      <trkpt lat="50.49033" lon="1.69627">
        <ele>7.843</ele>
        <time>2019-09-16T11:58:20.000Z</time>
      </trkpt>
      <trkpt lat="50.48983" lon="1.69872">
        <ele>9.368</ele>
        <time>2019-09-16T11:58:50.000Z</time>
      </trkpt>
      <trkpt lat="50.4897" lon="1.70125">
        <ele>6.642</ele>
        <time>2019-09-16T11:59:20.000Z</time>
      </trkpt>
      <trkpt lat="50.49015" lon="1.70372">
        <ele>5.021</ele>
        <time>2019-09-16T11:59:50.000Z</time>
      </trkpt>
      <trkpt lat="50.48947" lon="1.70608">
        <ele>5.568</ele>
        <time>2019-09-16T12:00:20.000Z</time>
      </trkpt>
      <trkpt lat="50.4884" lon="1.708">
        <ele>6.637</ele>
        <time>2019-09-16T12:00:50.000Z</time>
      </trkpt>
      <trkpt lat="50.48786" lon="1.71036">
        <ele>9.037</ele>
        <time>2019-09-16T12:01:20.000Z</time>
      </trkpt>
      <trkpt lat="50.48809" lon="1.71289">
        <ele>11.211</ele>
        <time>2019-09-16T12:01:50.000Z</time>
      </trkpt>
      <trkpt lat="50.48774" lon="1.715">
        <ele>7.619</ele>
        <time>2019-09-16T12:02:20.000Z</time>
      </trkpt>
      <trkpt lat="50.48773" lon="1.7175">
        <ele>7.376</ele>
        <time>2019-09-16T12:02:50.000Z</time>
      </trkpt>
      <trkpt lat="50.48767" lon="1.72003">
        <ele>7.456</ele>
        <time>2019-09-16T12:03:20.000Z</time>
      </trkpt>
      <trkpt lat="50.48742" lon="1.72266">
        <ele>8.73</ele>
        <time>2019-09-16T12:03:50.000Z</time>
      </trkpt>
      <trkpt lat="50.48737" lon="1.72452">
        <ele>5.676</ele>
        <time>2019-09-16T12:04:20.000Z</time>
      </trkpt>
      <trkpt lat="50.48873" lon="1.72407">
        <ele>5.754</ele>
        <time>2019-09-16T12:04:50.000Z</time>
      </trkpt>
      <trkpt lat="50.49014" lon="1.72404">
        <ele>7.703</ele>
        <time>2019-09-16T12:05:23.000Z</time>
      </trkpt>
      <trkpt lat="50.49073" lon="1.72504">
        <ele>10.059</ele>
        <time>2019-09-16T12:05:53.000Z</time>
      </trkpt>
      <trkpt lat="50.4907" lon="1.7274">
        <ele>9.109</ele>
        <time>2019-09-16T12:06:23.000Z</time>
      </trkpt>
      <trkpt lat="50.49033" lon="1.72994">
        <ele>8.29</ele>
        <time>2019-09-16T12:06:53.000Z</time>
      </trkpt>
      <trkpt lat="50.48987" lon="1.73266">
        <ele>11.025</ele>
        <time>2019-09-16T12:07:23.000Z</time>
      </trkpt>
      <trkpt lat="50.48913" lon="1.73522">
        <ele>9.351</ele>
        <time>2019-09-16T12:07:53.000Z</time>
      </trkpt>
      <trkpt lat="50.48833" lon="1.73772">
        <ele>10.612</ele>
        <time>2019-09-16T12:08:23.000Z</time>
      </trkpt>
      <trkpt lat="50.48824" lon="1.74054">
        <ele>11.688</ele>
        <time>2019-09-16T12:08:53.000Z</time>
      </trkpt>
      <trkpt lat="50.48712" lon="1.74261">
        <ele>7.841</ele>
        <time>2019-09-16T12:09:23.000Z</time>
      </trkpt>
      <trkpt lat="50.48729" lon="1.74419">
        <ele>11.094</ele>
        <time>2019-09-16T12:09:53.000Z</time>
      </trkpt>
      <trkpt lat="50.48673" lon="1.74592">
        <ele>14.447</ele>
        <time>2019-09-16T12:10:23.000Z</time>
      </trkpt>
      <trkpt lat="50.48582" lon="1.74786">
        <ele>15.063</ele>
        <time>2019-09-16T12:10:53.000Z</time>
      </trkpt>
      <trkpt lat="50.48504" lon="1.75013">
        <ele>13.657</ele>
        <time>2019-09-16T12:11:23.000Z</time>
      </trkpt>
      <trkpt lat="50.48402" lon="1.7521">
        <ele>12.386</ele>
        <time>2019-09-16T12:11:53.000Z</time>
      </trkpt>
      <trkpt lat="50.48359" lon="1.75361">
        <ele>16.379</ele>
        <time>2019-09-16T12:12:23.000Z</time>
      </trkpt>
      <trkpt lat="50.48322" lon="1.75505">
        <ele>22.318</ele>
        <time>2019-09-16T12:12:53.000Z</time>
      </trkpt>
      <trkpt lat="50.48288" lon="1.75719">
        <ele>18.99</ele>
        <time>2019-09-16T12:13:23.000Z</time>
      </trkpt>
      <trkpt lat="50.48248" lon="1.76035">
        <ele>14.712</ele>
        <time>2019-09-16T12:13:56.000Z</time>
      </trkpt>
      <trkpt lat="50.48136" lon="1.76381">
        <ele>7.604</ele>
        <time>2019-09-16T12:14:26.000Z</time>
      </trkpt>
      <trkpt lat="50.47988" lon="1.76561">
        <ele>6.415</ele>
        <time>2019-09-16T12:14:56.000Z</time>
      </trkpt>
      <trkpt lat="50.4792" lon="1.76748">
        <ele>6.182</ele>
        <time>2019-09-16T12:15:26.000Z</time>
      </trkpt>
      <trkpt lat="50.47812" lon="1.76928">
        <ele>9.771</ele>
        <time>2019-09-16T12:15:56.000Z</time>
      </trkpt>
      <trkpt lat="50.47709" lon="1.77075">
        <ele>10.783</ele>
        <time>2019-09-16T12:16:26.000Z</time>
      </trkpt>
      <trkpt lat="50.47615" lon="1.77195">
        <ele>19.028</ele>
        <time>2019-09-16T12:16:56.000Z</time>
      </trkpt>
      <trkpt lat="50.47569" lon="1.77342">
        <ele>23.36</ele>
        <time>2019-09-16T12:17:26.000Z</time>
      </trkpt>
      <trkpt lat="50.47521" lon="1.77553">
        <ele>30.369</ele>
        <time>2019-09-16T12:17:56.000Z</time>
      </trkpt>
      <trkpt lat="50.47496" lon="1.77741">
        <ele>20.481</ele>
        <time>2019-09-16T12:18:26.000Z</time>
      </trkpt>
      <trkpt lat="50.47487" lon="1.77874">
        <ele>22.551</ele>
        <time>2019-09-16T12:18:56.000Z</time>
      </trkpt>
      <trkpt lat="50.47451" lon="1.78035">
        <ele>21.536</ele>
        <time>2019-09-16T12:19:26.000Z</time>
      </trkpt>
      <trkpt lat="50.47343" lon="1.78347">
        <ele>11.249</ele>
        <time>2019-09-16T12:19:56.000Z</time>
      </trkpt>
      <trkpt lat="50.47275" lon="1.78516">
        <ele>13.298</ele>
        <time>2019-09-16T12:20:26.000Z</time>
      </trkpt>
      <trkpt lat="50.47226" lon="1.78643">
        <ele>18.103</ele>
        <time>2019-09-16T12:20:56.000Z</time>
      </trkpt>
      <trkpt lat="50.47161" lon="1.78801">
        <ele>23.197</ele>
        <time>2019-09-16T12:21:26.000Z</time>
      </trkpt>
      <trkpt lat="50.4706" lon="1.78917">
        <ele>23.847</ele>
        <time>2019-09-16T12:21:56.000Z</time>
      </trkpt>
      <trkpt lat="50.46942" lon="1.79137">
        <ele>21.721</ele>
        <time>2019-09-16T12:22:29.000Z</time>
      </trkpt>
      <trkpt lat="50.4683" lon="1.79397">
        <ele>16.177</ele>
        <time>2019-09-16T12:22:59.000Z</time>
      </trkpt>
      <trkpt lat="50.46762" lon="1.79691">
        <ele>9.69</ele>
        <time>2019-09-16T12:23:29.000Z</time>
      </trkpt>
      <trkpt lat="50.4671" lon="1.79915">
        <ele>9.69</ele>
        <time>2019-09-16T12:23:59.000Z</time>
      </trkpt>
      <trkpt lat="50.46659" lon="1.80155">
        <ele>12.665</ele>
        <time>2019-09-16T12:24:29.000Z</time>
      </trkpt>
      <trkpt lat="50.46584" lon="1.80388">
        <ele>16.52</ele>
        <time>2019-09-16T12:24:59.000Z</time>
      </trkpt>
      <trkpt lat="50.46512" lon="1.80628">
        <ele>13.683</ele>
        <time>2019-09-16T12:25:29.000Z</time>
      </trkpt>
      <trkpt lat="50.4643" lon="1.80896">
        <ele>9.371</ele>
        <time>2019-09-16T12:25:59.000Z</time>
      </trkpt>
      <trkpt lat="50.46343" lon="1.81158">
        <ele>13.486</ele>
        <time>2019-09-16T12:26:29.000Z</time>
      </trkpt>
      <trkpt lat="50.46259" lon="1.81384">
        <ele>14.999</ele>
        <time>2019-09-16T12:26:59.000Z</time>
      </trkpt>
      <trkpt lat="50.46222" lon="1.81537">
        <ele>18.51</ele>
        <time>2019-09-16T12:27:29.000Z</time>
      </trkpt>
      <trkpt lat="50.46177" lon="1.8167">
        <ele>21.166</ele>
        <time>2019-09-16T12:27:59.000Z</time>
      </trkpt>
      <trkpt lat="50.46091" lon="1.81886">
        <ele>20.052</ele>
        <time>2019-09-16T12:28:29.000Z</time>
      </trkpt>
      <trkpt lat="50.46046" lon="1.82036">
        <ele>24.149</ele>
        <time>2019-09-16T12:28:59.000Z</time>
      </trkpt>
      <trkpt lat="50.46002" lon="1.82202">
        <ele>26.951</ele>
        <time>2019-09-16T12:29:29.000Z</time>
      </trkpt>
      <trkpt lat="50.45954" lon="1.82372">
        <ele>26.946</ele>
        <time>2019-09-16T12:29:59.000Z</time>
      </trkpt>
      <trkpt lat="50.45913" lon="1.8255">
        <ele>30.952</ele>
        <time>2019-09-16T12:30:29.000Z</time>
      </trkpt>
      <trkpt lat="50.45756" lon="1.82692">
        <ele>22.153</ele>
        <time>2019-09-16T12:30:59.000Z</time>
      </trkpt>
      <trkpt lat="50.45576" lon="1.82721">
        <ele>7.107</ele>
        <time>2019-09-16T12:31:32.000Z</time>
      </trkpt>
      <trkpt lat="50.45506" lon="1.8296">
        <ele>5.705</ele>
        <time>2019-09-16T12:32:02.000Z</time>
      </trkpt>
      <trkpt lat="50.45435" lon="1.83161">
        <ele>6.33</ele>
        <time>2019-09-16T12:32:32.000Z</time>
      </trkpt>
      <trkpt lat="50.45418" lon="1.83296">
        <ele>9.736</ele>
        <time>2019-09-16T12:52:08.001Z</time>
      </trkpt>
      <trkpt lat="50.45392" lon="1.83395">
        <ele>13.064</ele>
        <time>2019-09-16T12:56:44.001Z</time>
      </trkpt>
      <trkpt lat="50.45367" lon="1.83576">
        <ele>11.868</ele>
        <time>2019-09-16T12:57:14.001Z</time>
      </trkpt>
      <trkpt lat="50.45338" lon="1.83785">
        <ele>15.584</ele>
        <time>2019-09-16T12:57:44.001Z</time>
      </trkpt>
      <trkpt lat="50.45305" lon="1.84046">
        <ele>12.516</ele>
        <time>2019-09-16T12:58:14.001Z</time>
      </trkpt>
      <trkpt lat="50.45262" lon="1.84269">
        <ele>10.262</ele>
        <time>2019-09-16T12:58:44.001Z</time>
      </trkpt>
      <trkpt lat="50.45188" lon="1.84497">
        <ele>9.628</ele>
        <time>2019-09-16T12:59:14.001Z</time>
      </trkpt>
      <trkpt lat="50.45077" lon="1.84722">
        <ele>9.172</ele>
        <time>2019-09-16T12:59:44.001Z</time>
      </trkpt>
      <trkpt lat="50.45" lon="1.849">
        <ele>10.898</ele>
        <time>2019-09-16T13:00:14.001Z</time>
      </trkpt>
      <trkpt lat="50.44938" lon="1.85104">
        <ele>11.356</ele>
        <time>2019-09-16T13:00:44.001Z</time>
      </trkpt>
      <trkpt lat="50.44882" lon="1.85188">
        <ele>19.57</ele>
        <time>2019-09-16T13:01:14.001Z</time>
      </trkpt>
      <trkpt lat="50.44836" lon="1.85283">
        <ele>24.364</ele>
        <time>2019-09-16T13:01:44.001Z</time>
      </trkpt>
      <trkpt lat="50.44811" lon="1.85398">
        <ele>30.248</ele>
        <time>2019-09-16T13:02:14.001Z</time>
      </trkpt>
      <trkpt lat="50.44799" lon="1.85547">
        <ele>32.009</ele>
        <time>2019-09-16T13:02:44.001Z</time>
      </trkpt>
      <trkpt lat="50.44762" lon="1.85788">
        <ele>27.398</ele>
        <time>2019-09-16T13:03:17.001Z</time>
      </trkpt>
      <trkpt lat="50.44737" lon="1.86022">
        <ele>26.745</ele>
        <time>2019-09-16T13:03:47.001Z</time>
      </trkpt>
      <trkpt lat="50.44689" lon="1.86212">
        <ele>25.743</ele>
        <time>2019-09-16T13:04:17.001Z</time>
      </trkpt>
      <trkpt lat="50.44636" lon="1.8644">
        <ele>30.333</ele>
        <time>2019-09-16T13:04:47.001Z</time>
      </trkpt>
      <trkpt lat="50.446" lon="1.86703">
        <ele>28.618</ele>
        <time>2019-09-16T13:05:17.001Z</time>
      </trkpt>
      <trkpt lat="50.44609" lon="1.87041">
        <ele>19.171</ele>
        <time>2019-09-16T13:05:47.001Z</time>
      </trkpt>
      <trkpt lat="50.44593" lon="1.8735">
        <ele>15.793</ele>
        <time>2019-09-16T13:06:17.001Z</time>
      </trkpt>
      <trkpt lat="50.44443" lon="1.87378">
        <ele>14.429</ele>
        <time>2019-09-16T13:06:47.001Z</time>
      </trkpt>
      <trkpt lat="50.44275" lon="1.87449">
        <ele>13.939</ele>
        <time>2019-09-16T13:07:17.001Z</time>
      </trkpt>
      <trkpt lat="50.44159" lon="1.87619">
        <ele>16.315</ele>
        <time>2019-09-16T13:07:47.001Z</time>
      </trkpt>
      <trkpt lat="50.44076" lon="1.87771">
        <ele>18.74</ele>
        <time>2019-09-16T13:08:17.001Z</time>
      </trkpt>
      <trkpt lat="50.44007" lon="1.88005">
        <ele>21.637</ele>
        <time>2019-09-16T13:08:47.001Z</time>
      </trkpt>
      <trkpt lat="50.43901" lon="1.88283">
        <ele>14.456</ele>
        <time>2019-09-16T13:09:17.001Z</time>
      </trkpt>
      <trkpt lat="50.43827" lon="1.88567">
        <ele>14.442</ele>
        <time>2019-09-16T13:09:47.001Z</time>
      </trkpt>
      <trkpt lat="50.43744" lon="1.88757">
        <ele>17.79</ele>
        <time>2019-09-16T13:10:17.001Z</time>
      </trkpt>
      <trkpt lat="50.43663" lon="1.88942">
        <ele>19.287</ele>
        <time>2019-09-16T13:10:47.001Z</time>
      </trkpt>
      <trkpt lat="50.4361" lon="1.89095">
        <ele>23.152</ele>
        <time>2019-09-16T13:11:17.001Z</time>
      </trkpt>
      <trkpt lat="50.4356" lon="1.89241">
        <ele>29.518</ele>
        <time>2019-09-16T13:11:50.001Z</time>
      </trkpt>
      <trkpt lat="50.43515" lon="1.89367">
        <ele>33.09</ele>
        <time>2019-09-16T13:12:20.001Z</time>
      </trkpt>
      <trkpt lat="50.43342" lon="1.8957">
        <ele>23.909</ele>
        <time>2019-09-16T13:12:50.001Z</time>
      </trkpt>
      <trkpt lat="50.43157" lon="1.89825">
        <ele>12.265</ele>
        <time>2019-09-16T13:13:20.001Z</time>
      </trkpt>
      <trkpt lat="50.43094" lon="1.90149">
        <ele>13.059</ele>
        <time>2019-09-16T13:13:50.001Z</time>
      </trkpt>
      <trkpt lat="50.43063" lon="1.90477">
        <ele>10.539</ele>
        <time>2019-09-16T13:14:20.001Z</time>
      </trkpt>
      <trkpt lat="50.43024" lon="1.9074">
        <ele>11.931</ele>
        <time>2019-09-16T13:14:50.001Z</time>
      </trkpt>
      <trkpt lat="50.42958" lon="1.90971">
        <ele>12.156</ele>
        <time>2019-09-16T13:15:20.001Z</time>
      </trkpt>
      <trkpt lat="50.42862" lon="1.90938">
        <ele>15.643</ele>
        <time>2019-09-16T13:15:50.001Z</time>
      </trkpt>
      <trkpt lat="50.42745" lon="1.90919">
        <ele>16.203</ele>
        <time>2019-09-16T13:16:20.001Z</time>
      </trkpt>
      <trkpt lat="50.42636" lon="1.90973">
        <ele>20.516</ele>
        <time>2019-09-16T13:16:50.001Z</time>
      </trkpt>
      <trkpt lat="50.42571" lon="1.91197">
        <ele>17.972</ele>
        <time>2019-09-16T13:17:20.001Z</time>
      </trkpt>
      <trkpt lat="50.42507" lon="1.91395">
        <ele>17.338</ele>
        <time>2019-09-16T13:17:50.001Z</time>
      </trkpt>
      <trkpt lat="50.42459" lon="1.91566">
        <ele>21.515</ele>
        <time>2019-09-16T13:18:20.001Z</time>
      </trkpt>
      <trkpt lat="50.42394" lon="1.91742">
        <ele>20.04</ele>
        <time>2019-09-16T13:18:50.001Z</time>
      </trkpt>
      <trkpt lat="50.42309" lon="1.91957">
        <ele>16.348</ele>
        <time>2019-09-16T13:19:20.001Z</time>
      </trkpt>
      <trkpt lat="50.42247" lon="1.92225">
        <ele>15.704</ele>
        <time>2019-09-16T13:19:50.001Z</time>
      </trkpt>
      <trkpt lat="50.42131" lon="1.92486">
        <ele>18.307</ele>
        <time>2019-09-16T13:20:23.001Z</time>
      </trkpt>
      <trkpt lat="50.42075" lon="1.92722">
        <ele>17.7</ele>
        <time>2019-09-16T13:20:53.001Z</time>
      </trkpt>
      <trkpt lat="50.42016" lon="1.92925">
        <ele>18.556</ele>
        <time>2019-09-16T13:21:23.001Z</time>
      </trkpt>
      <trkpt lat="50.41951" lon="1.93112">
        <ele>21.195</ele>
        <time>2019-09-16T13:21:53.001Z</time>
      </trkpt>
      <trkpt lat="50.41894" lon="1.93302">
        <ele>24.165</ele>
        <time>2019-09-16T13:22:23.001Z</time>
      </trkpt>
      <trkpt lat="50.4182" lon="1.93548">
        <ele>22.679</ele>
        <time>2019-09-16T13:22:53.001Z</time>
      </trkpt>
      <trkpt lat="50.41737" lon="1.93856">
        <ele>18.093</ele>
        <time>2019-09-16T13:23:23.001Z</time>
      </trkpt>
      <trkpt lat="50.41663" lon="1.94066">
        <ele>20.662</ele>
        <time>2019-09-16T13:23:53.001Z</time>
      </trkpt>
      <trkpt lat="50.4164" lon="1.94204">
        <ele>29.028</ele>
        <time>2019-09-16T13:24:23.001Z</time>
      </trkpt>
      <trkpt lat="50.41616" lon="1.94343">
        <ele>32.797</ele>
        <time>2019-09-16T13:24:53.001Z</time>
      </trkpt>
      <trkpt lat="50.41597" lon="1.94496">
        <ele>33.739</ele>
        <time>2019-09-16T13:25:23.001Z</time>
      </trkpt>
      <trkpt lat="50.41564" lon="1.94654">
        <ele>35.323</ele>
        <time>2019-09-16T13:25:53.001Z</time>
      </trkpt>
      <trkpt lat="50.41516" lon="1.94832">
        <ele>34.389</ele>
        <time>2019-09-16T13:26:23.001Z</time>
      </trkpt>
      <trkpt lat="50.41366" lon="1.95104">
        <ele>27.989</ele>
        <time>2019-09-16T13:26:53.001Z</time>
      </trkpt>
      <trkpt lat="50.41146" lon="1.95393">
        <ele>15.785</ele>
        <time>2019-09-16T13:27:23.001Z</time>
      </trkpt>
      <trkpt lat="50.41014" lon="1.95672">
        <ele>17.167</ele>
        <time>2019-09-16T13:27:53.001Z</time>
      </trkpt>
      <trkpt lat="50.40929" lon="1.9594">
        <ele>19.367</ele>
        <time>2019-09-16T13:28:23.001Z</time>
      </trkpt>
      <trkpt lat="50.40839" lon="1.9619">
        <ele>23.157</ele>
        <time>2019-09-16T13:28:53.001Z</time>
      </trkpt>
      <trkpt lat="50.4073" lon="1.96447">
        <ele>19.393</ele>
        <time>2019-09-16T13:29:26.001Z</time>
      </trkpt>
      <trkpt lat="50.40674" lon="1.9665">
        <ele>23.75</ele>
        <time>2019-09-16T13:29:56.001Z</time>
      </trkpt>
      <trkpt lat="50.40536" lon="1.96797">
        <ele>19.805</ele>
        <time>2019-09-16T13:30:26.001Z</time>
      </trkpt>
      <trkpt lat="50.40457" lon="1.97039">
        <ele>21.623</ele>
        <time>2019-09-16T13:30:56.001Z</time>
      </trkpt>
      <trkpt lat="50.40409" lon="1.97265">
        <ele>21.959</ele>
        <time>2019-09-16T13:31:26.001Z</time>
      </trkpt>
      <trkpt lat="50.40417" lon="1.9751">
        <ele>20.358</ele>
        <time>2019-09-16T13:31:56.001Z</time>
      </trkpt>
      <trkpt lat="50.40364" lon="1.97651">
        <ele>24.516</ele>
        <time>2019-09-16T13:32:26.001Z</time>
      </trkpt>
      <trkpt lat="50.40317" lon="1.97724">
        <ele>32.413</ele>
        <time>2019-09-16T13:32:56.001Z</time>
      </trkpt>
      <trkpt lat="50.40244" lon="1.97772">
        <ele>33.983</ele>
        <time>2019-09-16T13:33:26.001Z</time>
      </trkpt>
      <trkpt lat="50.40021" lon="1.97749">
        <ele>26.536</ele>
        <time>2019-09-16T13:33:56.001Z</time>
      </trkpt>
      <trkpt lat="50.39908" lon="1.97937">
        <ele>21.418</ele>
        <time>2019-09-16T13:34:26.001Z</time>
      </trkpt>
      <trkpt lat="50.39825" lon="1.98071">
        <ele>24.288</ele>
        <time>2019-09-16T13:34:56.001Z</time>
      </trkpt>
      <trkpt lat="50.39773" lon="1.98229">
        <ele>26.999</ele>
        <time>2019-09-16T13:35:26.001Z</time>
      </trkpt>
      <trkpt lat="50.39707" lon="1.98381">
        <ele>27.729</ele>
        <time>2019-09-16T13:35:56.001Z</time>
      </trkpt>
      <trkpt lat="50.39601" lon="1.9855">
        <ele>24.053</ele>
        <time>2019-09-16T13:36:26.001Z</time>
      </trkpt>
      <trkpt lat="50.3951" lon="1.98733">
        <ele>26.17</ele>
        <time>2019-09-16T13:36:56.001Z</time>
      </trkpt>
      <trkpt lat="50.39415" lon="1.98909">
        <ele>25.2</ele>
        <time>2019-09-16T13:37:26.001Z</time>
      </trkpt>
      <trkpt lat="50.39343" lon="1.99152">
        <ele>26.728</ele>
        <time>2019-09-16T13:37:59.001Z</time>
      </trkpt>
      <trkpt lat="50.39234" lon="1.99395">
        <ele>28.176</ele>
        <time>2019-09-16T13:38:29.001Z</time>
      </trkpt>
      <trkpt lat="50.39135" lon="1.99717">
        <ele>29.973</ele>
        <time>2019-09-16T13:38:59.001Z</time>
      </trkpt>
      <trkpt lat="50.39057" lon="1.99892">
        <ele>26.893</ele>
        <time>2019-09-16T13:39:29.001Z</time>
      </trkpt>
      <trkpt lat="50.38975" lon="2.00006">
        <ele>28.664</ele>
        <time>2019-09-16T13:39:59.001Z</time>
      </trkpt>
      <trkpt lat="50.38848" lon="2.00229">
        <ele>27.631</ele>
        <time>2019-09-16T13:40:29.001Z</time>
      </trkpt>
      <trkpt lat="50.38746" lon="2.00403">
        <ele>27.599</ele>
        <time>2019-09-16T13:40:59.001Z</time>
      </trkpt>
      <trkpt lat="50.38653" lon="2.00559">
        <ele>27.305</ele>
        <time>2019-09-16T13:41:29.001Z</time>
      </trkpt>
      <trkpt lat="50.38559" lon="2.00747">
        <ele>27.532</ele>
        <time>2019-09-16T13:41:59.001Z</time>
      </trkpt>
      <trkpt lat="50.38483" lon="2.00943">
        <ele>27.905</ele>
        <time>2019-09-16T13:42:29.001Z</time>
      </trkpt>
      <trkpt lat="50.38348" lon="2.01133">
        <ele>24.325</ele>
        <time>2019-09-16T13:42:59.001Z</time>
      </trkpt>
      <trkpt lat="50.38199" lon="2.0136">
        <ele>21.158</ele>
        <time>2019-09-16T13:43:29.001Z</time>
      </trkpt>
      <trkpt lat="50.38171" lon="2.01665">
        <ele>21.195</ele>
        <time>2019-09-16T13:43:59.001Z</time>
      </trkpt>
      <trkpt lat="50.38171" lon="2.01962">
        <ele>22.191</ele>
        <time>2019-09-16T13:44:29.001Z</time>
      </trkpt>
      <trkpt lat="50.3821" lon="2.0224">
        <ele>21.868</ele>
        <time>2019-09-16T13:44:59.001Z</time>
      </trkpt>
      <trkpt lat="50.38194" lon="2.02499">
        <ele>20.879</ele>
        <time>2019-09-16T13:45:29.001Z</time>
      </trkpt>
      <trkpt lat="50.38143" lon="2.0269">
        <ele>27.159</ele>
        <time>2019-09-16T13:45:59.001Z</time>
      </trkpt>
      <trkpt lat="50.38103" lon="2.02936">
        <ele>22.825</ele>
        <time>2019-09-16T13:46:32.001Z</time>
      </trkpt>
      <trkpt lat="50.38136" lon="2.0314">
        <ele>23.596</ele>
        <time>2019-09-16T13:47:02.000Z</time>
      </trkpt>
      <trkpt lat="50.38164" lon="2.03366">
        <ele>28.724</ele>
        <time>2019-09-16T13:47:32.001Z</time>
      </trkpt>
      <trkpt lat="50.38129" lon="2.03593">
        <ele>27.906</ele>
        <time>2019-09-16T13:48:02.000Z</time>
      </trkpt>
      <trkpt lat="50.38091" lon="2.03765">
        <ele>32.466</ele>
        <time>2019-09-16T13:48:32.001Z</time>
      </trkpt>
      <trkpt lat="50.38038" lon="2.03818">
        <ele>28.384</ele>
        <time>2019-09-16T13:49:23.001Z</time>
      </trkpt>
      <trkpt lat="50.38071" lon="2.03789">
        <ele>28.258</ele>
        <time>2019-09-16T13:50:35.001Z</time>
      </trkpt>
      <trkpt lat="50.38071" lon="2.03783">
        <ele>31.897</ele>
        <time>2019-09-16T13:51:38.001Z</time>
      </trkpt>
      <trkpt lat="50.37999" lon="2.03778">
        <ele>27.949</ele>
        <time>2019-09-16T13:52:08.001Z</time>
      </trkpt>
      <trkpt lat="50.37885" lon="2.03686">
        <ele>26.219</ele>
        <time>2019-09-16T13:52:38.001Z</time>
      </trkpt>
      <trkpt lat="50.37894" lon="2.03877">
        <ele>35.412</ele>
        <time>2019-09-16T13:53:08.001Z</time>
      </trkpt>
      <trkpt lat="50.37935" lon="2.04092">
        <ele>31.299</ele>
        <time>2019-09-16T13:53:38.001Z</time>
      </trkpt>
      <trkpt lat="50.3797" lon="2.04269">
        <ele>31.019</ele>
        <time>2019-09-16T13:54:08.001Z</time>
      </trkpt>
      <trkpt lat="50.37979" lon="2.04302">
        <ele>32.866</ele>
        <time>2019-09-16T13:57:41.001Z</time>
      </trkpt>
      <trkpt lat="50.37992" lon="2.04461">
        <ele>29.655</ele>
        <time>2019-09-16T13:58:11.001Z</time>
      </trkpt>
      <trkpt lat="50.37995" lon="2.04644">
        <ele>33.866</ele>
        <time>2019-09-16T13:58:41.001Z</time>
      </trkpt>
      <trkpt lat="50.37978" lon="2.04811">
        <ele>34.014</ele>
        <time>2019-09-16T13:59:11.001Z</time>
      </trkpt>
      <trkpt lat="50.37949" lon="2.04999">
        <ele>34.532</ele>
        <time>2019-09-16T13:59:44.001Z</time>
      </trkpt>
      <trkpt lat="50.37985" lon="2.05173">
        <ele>32.805</ele>
        <time>2019-09-16T14:00:14.001Z</time>
      </trkpt>
      <trkpt lat="50.38017" lon="2.05335">
        <ele>27.162</ele>
        <time>2019-09-16T14:00:44.001Z</time>
      </trkpt>
      <trkpt lat="50.3805" lon="2.05506">
        <ele>26.186</ele>
        <time>2019-09-16T14:01:14.001Z</time>
      </trkpt>
      <trkpt lat="50.38108" lon="2.05666">
        <ele>27.982</ele>
        <time>2019-09-16T14:01:44.001Z</time>
      </trkpt>
      <trkpt lat="50.38171" lon="2.05826">
        <ele>26.358</ele>
        <time>2019-09-16T14:02:14.001Z</time>
      </trkpt>
      <trkpt lat="50.38248" lon="2.05996">
        <ele>30.891</ele>
        <time>2019-09-16T14:02:44.001Z</time>
      </trkpt>
      <trkpt lat="50.38339" lon="2.06155">
        <ele>34.652</ele>
        <time>2019-09-16T14:03:14.001Z</time>
      </trkpt>
      <trkpt lat="50.38445" lon="2.06306">
        <ele>29.813</ele>
        <time>2019-09-16T14:03:44.001Z</time>
      </trkpt>
      <trkpt lat="50.38452" lon="2.06458">
        <ele>27.464</ele>
        <time>2019-09-16T14:04:14.001Z</time>
      </trkpt>
      <trkpt lat="50.38367" lon="2.06612">
        <ele>31.417</ele>
        <time>2019-09-16T14:04:44.001Z</time>
      </trkpt>
      <trkpt lat="50.3829" lon="2.06763">
        <ele>35.235</ele>
        <time>2019-09-16T14:05:14.001Z</time>
      </trkpt>
      <trkpt lat="50.38216" lon="2.06899">
        <ele>32.636</ele>
        <time>2019-09-16T14:05:44.001Z</time>
      </trkpt>
      <trkpt lat="50.38155" lon="2.07011">
        <ele>35.207</ele>
        <time>2019-09-16T14:06:14.001Z</time>
      </trkpt>
      <trkpt lat="50.38132" lon="2.07043">
        <ele>35.566</ele>
        <time>2019-09-16T14:11:08.001Z</time>
      </trkpt>
      <trkpt lat="50.38112" lon="2.07027">
        <ele>37.069</ele>
        <time>2019-09-16T14:12:02.000Z</time>
      </trkpt>
      <trkpt lat="50.38116" lon="2.07045">
        <ele>36.866</ele>
        <time>2019-09-16T14:12:50.001Z</time>
      </trkpt>
      <trkpt lat="50.38122" lon="2.07057">
        <ele>33.828</ele>
        <time>2019-09-16T14:15:20.001Z</time>
      </trkpt>
      <trkpt lat="50.38134" lon="2.071">
        <ele>30.701</ele>
        <time>2019-09-16T14:30:23.001Z</time>
      </trkpt>
      <trkpt lat="50.38205" lon="2.07235">
        <ele>33.334</ele>
        <time>2019-09-16T14:30:53.001Z</time>
      </trkpt>
      <trkpt lat="50.3828" lon="2.07384">
        <ele>35.919</ele>
        <time>2019-09-16T14:31:23.001Z</time>
      </trkpt>
      <trkpt lat="50.38341" lon="2.07508">
        <ele>41.482</ele>
        <time>2019-09-16T14:31:53.001Z</time>
      </trkpt>
      <trkpt lat="50.38402" lon="2.07627">
        <ele>41.432</ele>
        <time>2019-09-16T14:32:23.001Z</time>
      </trkpt>
      <trkpt lat="50.38501" lon="2.07788">
        <ele>34.21</ele>
        <time>2019-09-16T14:32:53.001Z</time>
      </trkpt>
      <trkpt lat="50.38658" lon="2.0806">
        <ele>29.801</ele>
        <time>2019-09-16T14:33:23.001Z</time>
      </trkpt>
      <trkpt lat="50.388" lon="2.08307">
        <ele>22.388</ele>
        <time>2019-09-16T14:33:53.001Z</time>
      </trkpt>
      <trkpt lat="50.3893" lon="2.08583">
        <ele>20.372</ele>
        <time>2019-09-16T14:34:23.001Z</time>
      </trkpt>
      <trkpt lat="50.39038" lon="2.08865">
        <ele>18.627</ele>
        <time>2019-09-16T14:34:53.001Z</time>
      </trkpt>
      <trkpt lat="50.39114" lon="2.09072">
        <ele>20.881</ele>
        <time>2019-09-16T14:35:23.001Z</time>
      </trkpt>
      <trkpt lat="50.39195" lon="2.09259">
        <ele>25.737</ele>
        <time>2019-09-16T14:35:53.001Z</time>
      </trkpt>
      <trkpt lat="50.39275" lon="2.09442">
        <ele>28.952</ele>
        <time>2019-09-16T14:36:23.001Z</time>
      </trkpt>
      <trkpt lat="50.39334" lon="2.09626">
        <ele>35.532</ele>
        <time>2019-09-16T14:36:53.001Z</time>
      </trkpt>
      <trkpt lat="50.39406" lon="2.09832">
        <ele>36.351</ele>
        <time>2019-09-16T14:37:23.001Z</time>
      </trkpt>
      <trkpt lat="50.39514" lon="2.10043">
        <ele>32.175</ele>
        <time>2019-09-16T14:37:53.001Z</time>
      </trkpt>
      <trkpt lat="50.39592" lon="2.10227">
        <ele>31.259</ele>
        <time>2019-09-16T14:38:23.001Z</time>
      </trkpt>
      <trkpt lat="50.39696" lon="2.10354">
        <ele>24.726</ele>
        <time>2019-09-16T14:38:56.001Z</time>
      </trkpt>
      <trkpt lat="50.39823" lon="2.10233">
        <ele>30.002</ele>
        <time>2019-09-16T14:39:26.001Z</time>
      </trkpt>
      <trkpt lat="50.39939" lon="2.10242">
        <ele>35.917</ele>
        <time>2019-09-16T14:39:56.001Z</time>
      </trkpt>
      <trkpt lat="50.40002" lon="2.10214">
        <ele>33.752</ele>
        <time>2019-09-16T14:48:50.001Z</time>
      </trkpt>
      <trkpt lat="50.39998" lon="2.10222">
        <ele>35.872</ele>
        <time>2019-09-16T14:50:23.001Z</time>
      </trkpt>
      <trkpt lat="50.39956" lon="2.10219">
        <ele>35.382</ele>
        <time>2019-09-16T14:52:20.001Z</time>
      </trkpt>
      <trkpt lat="50.39919" lon="2.10206">
        <ele>34.206</ele>
        <time>2019-09-16T14:52:56.001Z</time>
      </trkpt>
      <trkpt lat="50.39902" lon="2.10201">
        <ele>35.861</ele>
        <time>2019-09-16T14:56:53.001Z</time>
      </trkpt>
      <trkpt lat="50.39837" lon="2.10223">
        <ele>40.226</ele>
        <time>2019-09-16T14:57:32.001Z</time>
      </trkpt>
      <trkpt lat="50.39742" lon="2.10292">
        <ele>34.116</ele>
        <time>2019-09-16T14:58:02.000Z</time>
      </trkpt>
      <trkpt lat="50.39747" lon="2.10292">
        <ele>34.796</ele>
        <time>2019-09-16T15:04:44.001Z</time>
      </trkpt>
      <trkpt lat="50.39665" lon="2.10369">
        <ele>36.742</ele>
        <time>2019-09-16T15:05:14.001Z</time>
      </trkpt>
      <trkpt lat="50.39693" lon="2.10509">
        <ele>36.683</ele>
        <time>2019-09-16T15:05:44.001Z</time>
      </trkpt>
      <trkpt lat="50.39731" lon="2.10745">
        <ele>40.584</ele>
        <time>2019-09-16T15:06:14.001Z</time>
      </trkpt>
      <trkpt lat="50.39771" lon="2.11041">
        <ele>38.031</ele>
        <time>2019-09-16T15:06:44.001Z</time>
      </trkpt>
      <trkpt lat="50.39783" lon="2.11294">
        <ele>36.962</ele>
        <time>2019-09-16T15:07:14.001Z</time>
      </trkpt>
      <trkpt lat="50.39803" lon="2.11517">
        <ele>40.361</ele>
        <time>2019-09-16T15:07:44.001Z</time>
      </trkpt>
      <trkpt lat="50.39851" lon="2.11727">
        <ele>38.387</ele>
        <time>2019-09-16T15:08:17.001Z</time>
      </trkpt>
      <trkpt lat="50.39941" lon="2.1196">
        <ele>42.544</ele>
        <time>2019-09-16T15:08:47.001Z</time>
      </trkpt>
      <trkpt lat="50.40015" lon="2.12141">
        <ele>39.414</ele>
        <time>2019-09-16T15:09:17.001Z</time>
      </trkpt>
      <trkpt lat="50.40093" lon="2.12287">
        <ele>40.313</ele>
        <time>2019-09-16T15:09:47.001Z</time>
      </trkpt>
      <trkpt lat="50.40201" lon="2.12537">
        <ele>37.517</ele>
        <time>2019-09-16T15:10:17.001Z</time>
      </trkpt>
      <trkpt lat="50.40263" lon="2.12789">
        <ele>41.712</ele>
        <time>2019-09-16T15:10:47.001Z</time>
      </trkpt>
      <trkpt lat="50.40336" lon="2.13028">
        <ele>43.746</ele>
        <time>2019-09-16T15:11:17.001Z</time>
      </trkpt>
      <trkpt lat="50.40421" lon="2.13274">
        <ele>38.952</ele>
        <time>2019-09-16T15:11:47.001Z</time>
      </trkpt>
      <trkpt lat="50.40489" lon="2.13506">
        <ele>41.263</ele>
        <time>2019-09-16T15:12:17.001Z</time>
      </trkpt>
      <trkpt lat="50.40553" lon="2.13727">
        <ele>40.398</ele>
        <time>2019-09-16T15:12:47.001Z</time>
      </trkpt>
      <trkpt lat="50.40599" lon="2.13987">
        <ele>41.493</ele>
        <time>2019-09-16T15:13:17.001Z</time>
      </trkpt>
      <trkpt lat="50.40629" lon="2.14229">
        <ele>42.526</ele>
        <time>2019-09-16T15:13:47.001Z</time>
      </trkpt>
      <trkpt lat="50.40646" lon="2.14487">
        <ele>41.197</ele>
        <time>2019-09-16T15:14:17.001Z</time>
      </trkpt>
      <trkpt lat="50.40653" lon="2.14761">
        <ele>40.808</ele>
        <time>2019-09-16T15:14:47.001Z</time>
      </trkpt>
      <trkpt lat="50.4066" lon="2.14949">
        <ele>45.943</ele>
        <time>2019-09-16T15:15:17.001Z</time>
      </trkpt>
      <trkpt lat="50.40699" lon="2.15113">
        <ele>50.748</ele>
        <time>2019-09-16T15:15:47.001Z</time>
      </trkpt>
      <trkpt lat="50.40779" lon="2.15312">
        <ele>46.477</ele>
        <time>2019-09-16T15:16:17.001Z</time>
      </trkpt>
      <trkpt lat="50.4092" lon="2.15499">
        <ele>44.013</ele>
        <time>2019-09-16T15:16:47.001Z</time>
      </trkpt>
      <trkpt lat="50.41054" lon="2.15678">
        <ele>45.725</ele>
        <time>2019-09-16T15:17:20.001Z</time>
      </trkpt>
      <trkpt lat="50.41201" lon="2.15883">
        <ele>41.188</ele>
        <time>2019-09-16T15:17:50.001Z</time>
      </trkpt>
      <trkpt lat="50.4132" lon="2.16047">
        <ele>44.591</ele>
        <time>2019-09-16T15:18:20.001Z</time>
      </trkpt>
      <trkpt lat="50.41426" lon="2.16188">
        <ele>44.716</ele>
        <time>2019-09-16T15:18:50.001Z</time>
      </trkpt>
      <trkpt lat="50.41528" lon="2.16324">
        <ele>45.563</ele>
        <time>2019-09-16T15:19:20.001Z</time>
      </trkpt>
      <trkpt lat="50.41645" lon="2.16417">
        <ele>41.665</ele>
        <time>2019-09-16T15:19:50.001Z</time>
      </trkpt>
      <trkpt lat="50.41793" lon="2.16458">
        <ele>47.128</ele>
        <time>2019-09-16T15:20:20.001Z</time>
      </trkpt>
      <trkpt lat="50.41955" lon="2.16499">
        <ele>49.94</ele>
        <time>2019-09-16T15:20:50.001Z</time>
      </trkpt>
      <trkpt lat="50.4207" lon="2.16618">
        <ele>49.836</ele>
        <time>2019-09-16T15:21:20.001Z</time>
      </trkpt>
      <trkpt lat="50.42168" lon="2.16779">
        <ele>50.474</ele>
        <time>2019-09-16T15:21:50.001Z</time>
      </trkpt>
      <trkpt lat="50.42093" lon="2.16868">
        <ele>50.191</ele>
        <time>2019-09-16T15:22:23.001Z</time>
      </trkpt>
      <trkpt lat="50.41997" lon="2.16938">
        <ele>53.299</ele>
        <time>2019-09-16T15:22:53.001Z</time>
      </trkpt>
      <trkpt lat="50.41895" lon="2.16983">
        <ele>51.276</ele>
        <time>2019-09-16T15:23:23.001Z</time>
      </trkpt>
      <trkpt lat="50.41807" lon="2.1699">
        <ele>54.872</ele>
        <time>2019-09-16T15:23:53.001Z</time>
      </trkpt>
      <trkpt lat="50.41722" lon="2.17008">
        <ele>61.522</ele>
        <time>2019-09-16T15:24:23.001Z</time>
      </trkpt>
      <trkpt lat="50.41645" lon="2.17025">
        <ele>66.582</ele>
        <time>2019-09-16T15:24:53.001Z</time>
      </trkpt>
      <trkpt lat="50.41574" lon="2.17057">
        <ele>67.912</ele>
        <time>2019-09-16T15:25:23.001Z</time>
      </trkpt>
      <trkpt lat="50.415" lon="2.17109">
        <ele>69.942</ele>
        <time>2019-09-16T15:25:56.001Z</time>
      </trkpt>
      <trkpt lat="50.41435" lon="2.17159">
        <ele>70.563</ele>
        <time>2019-09-16T15:26:26.001Z</time>
      </trkpt>
      <trkpt lat="50.41367" lon="2.17204">
        <ele>72.59</ele>
        <time>2019-09-16T15:26:56.001Z</time>
      </trkpt>
      <trkpt lat="50.41292" lon="2.17206">
        <ele>74.092</ele>
        <time>2019-09-16T15:27:26.001Z</time>
      </trkpt>
      <trkpt lat="50.41208" lon="2.17196">
        <ele>75.149</ele>
        <time>2019-09-16T15:27:56.001Z</time>
      </trkpt>
      <trkpt lat="50.41118" lon="2.17212">
        <ele>79.025</ele>
        <time>2019-09-16T15:28:26.001Z</time>
      </trkpt>
      <trkpt lat="50.4103" lon="2.17226">
        <ele>81.075</ele>
        <time>2019-09-16T15:28:56.001Z</time>
      </trkpt>
      <trkpt lat="50.40944" lon="2.17261">
        <ele>84.152</ele>
        <time>2019-09-16T15:29:26.001Z</time>
      </trkpt>
      <trkpt lat="50.40858" lon="2.1732">
        <ele>85.89</ele>
        <time>2019-09-16T15:29:56.001Z</time>
      </trkpt>
      <trkpt lat="50.40769" lon="2.17368">
        <ele>88.11</ele>
        <time>2019-09-16T15:30:26.001Z</time>
      </trkpt>
      <trkpt lat="50.40693" lon="2.17403">
        <ele>90.391</ele>
        <time>2019-09-16T15:30:56.001Z</time>
      </trkpt>
      <trkpt lat="50.40612" lon="2.17442">
        <ele>91.56</ele>
        <time>2019-09-16T15:31:26.001Z</time>
      </trkpt>
      <trkpt lat="50.40548" lon="2.17496">
        <ele>96.945</ele>
        <time>2019-09-16T15:31:56.001Z</time>
      </trkpt>
      <trkpt lat="50.40488" lon="2.17552">
        <ele>97.805</ele>
        <time>2019-09-16T15:32:29.001Z</time>
      </trkpt>
      <trkpt lat="50.40422" lon="2.17595">
        <ele>102.727</ele>
        <time>2019-09-16T15:33:02.000Z</time>
      </trkpt>
      <trkpt lat="50.40357" lon="2.176">
        <ele>107.76</ele>
        <time>2019-09-16T15:33:32.001Z</time>
      </trkpt>
      <trkpt lat="50.40291" lon="2.17604">
        <ele>110.026</ele>
        <time>2019-09-16T15:34:02.000Z</time>
      </trkpt>
      <trkpt lat="50.40222" lon="2.17592">
        <ele>110.931</ele>
        <time>2019-09-16T15:34:35.001Z</time>
      </trkpt>
      <trkpt lat="50.4016" lon="2.17577">
        <ele>115.924</ele>
        <time>2019-09-16T15:35:05.001Z</time>
      </trkpt>
      <trkpt lat="50.40098" lon="2.17617">
        <ele>121.972</ele>
        <time>2019-09-16T15:35:38.001Z</time>
      </trkpt>
      <trkpt lat="50.40016" lon="2.17673">
        <ele>120.054</ele>
        <time>2019-09-16T15:36:08.001Z</time>
      </trkpt>
      <trkpt lat="50.39897" lon="2.17779">
        <ele>114.577</ele>
        <time>2019-09-16T15:36:38.001Z</time>
      </trkpt>
      <trkpt lat="50.39937" lon="2.17981">
        <ele>113.468</ele>
        <time>2019-09-16T15:37:08.001Z</time>
      </trkpt>
      <trkpt lat="50.39949" lon="2.18171">
        <ele>116.074</ele>
        <time>2019-09-16T15:37:38.001Z</time>
      </trkpt>
      <trkpt lat="50.39976" lon="2.18365">
        <ele>118.701</ele>
        <time>2019-09-16T15:38:08.001Z</time>
      </trkpt>
      <trkpt lat="50.39996" lon="2.1857">
        <ele>119.692</ele>
        <time>2019-09-16T15:38:38.001Z</time>
      </trkpt>
      <trkpt lat="50.39992" lon="2.18773">
        <ele>115.636</ele>
        <time>2019-09-16T15:39:08.001Z</time>
      </trkpt>
      <trkpt lat="50.39999" lon="2.18977">
        <ele>113.602</ele>
        <time>2019-09-16T15:39:38.001Z</time>
      </trkpt>
      <trkpt lat="50.4005" lon="2.19197">
        <ele>109.638</ele>
        <time>2019-09-16T15:40:08.001Z</time>
      </trkpt>
      <trkpt lat="50.40081" lon="2.19497">
        <ele>107.809</ele>
        <time>2019-09-16T15:40:38.001Z</time>
      </trkpt>
      <trkpt lat="50.40105" lon="2.19775">
        <ele>105.401</ele>
        <time>2019-09-16T15:41:08.001Z</time>
      </trkpt>
      <trkpt lat="50.40172" lon="2.20003">
        <ele>104.685</ele>
        <time>2019-09-16T15:41:38.001Z</time>
      </trkpt>
      <trkpt lat="50.40235" lon="2.20215">
        <ele>104.953</ele>
        <time>2019-09-16T15:42:08.001Z</time>
      </trkpt>
      <trkpt lat="50.40284" lon="2.20396">
        <ele>105.48</ele>
        <time>2019-09-16T15:42:38.001Z</time>
      </trkpt>
      <trkpt lat="50.40342" lon="2.20566">
        <ele>107.88</ele>
        <time>2019-09-16T15:43:11.001Z</time>
      </trkpt>
      <trkpt lat="50.40403" lon="2.20686">
        <ele>112.577</ele>
        <time>2019-09-16T15:43:41.001Z</time>
      </trkpt>
      <trkpt lat="50.40444" lon="2.20762">
        <ele>114.226</ele>
        <time>2019-09-16T15:44:26.001Z</time>
      </trkpt>
      <trkpt lat="50.40457" lon="2.20777">
        <ele>112.837</ele>
        <time>2019-09-16T15:46:35.001Z</time>
      </trkpt>
      <trkpt lat="50.40504" lon="2.20896">
        <ele>119.036</ele>
        <time>2019-09-16T15:47:05.001Z</time>
      </trkpt>
      <trkpt lat="50.40526" lon="2.2102">
        <ele>119.093</ele>
        <time>2019-09-16T15:47:35.001Z</time>
      </trkpt>
      <trkpt lat="50.40545" lon="2.21128">
        <ele>119.573</ele>
        <time>2019-09-16T15:48:05.001Z</time>
      </trkpt>
      <trkpt lat="50.4048" lon="2.21203">
        <ele>125.415</ele>
        <time>2019-09-16T15:48:35.001Z</time>
      </trkpt>
      <trkpt lat="50.40435" lon="2.21269">
        <ele>126.901</ele>
        <time>2019-09-16T15:49:14.001Z</time>
      </trkpt>
    </trkseg>
  </trk>
  <trk>
    <name><![CDATA[Tracé 20190917-090509]]></name>
    <trkseg>
      <trkpt lat="50.40433" lon="2.2126">
        <ele>128.463</ele>
        <time>2019-09-17T07:08:27.001Z</time>
      </trkpt>
      <trkpt lat="50.4039" lon="2.21325">
        <ele>130.243</ele>
        <time>2019-09-17T07:12:27.001Z</time>
      </trkpt>
      <trkpt lat="50.40385" lon="2.21502">
        <ele>124.815</ele>
        <time>2019-09-17T07:12:57.001Z</time>
      </trkpt>
      <trkpt lat="50.40434" lon="2.21709">
        <ele>122.99</ele>
        <time>2019-09-17T07:13:27.001Z</time>
      </trkpt>
      <trkpt lat="50.40505" lon="2.21862">
        <ele>122.965</ele>
        <time>2019-09-17T07:13:57.001Z</time>
      </trkpt>
      <trkpt lat="50.40542" lon="2.21998">
        <ele>127.897</ele>
        <time>2019-09-17T07:14:27.001Z</time>
      </trkpt>
      <trkpt lat="50.40621" lon="2.22052">
        <ele>130.414</ele>
        <time>2019-09-17T07:14:57.001Z</time>
      </trkpt>
      <trkpt lat="50.40729" lon="2.22062">
        <ele>130.257</ele>
        <time>2019-09-17T07:15:27.001Z</time>
      </trkpt>
      <trkpt lat="50.4084" lon="2.22132">
        <ele>129.549</ele>
        <time>2019-09-17T07:15:57.001Z</time>
      </trkpt>
      <trkpt lat="50.40897" lon="2.22263">
        <ele>130.116</ele>
        <time>2019-09-17T07:16:27.001Z</time>
      </trkpt>
      <trkpt lat="50.40833" lon="2.22453">
        <ele>135.67</ele>
        <time>2019-09-17T07:17:00.000Z</time>
      </trkpt>
      <trkpt lat="50.40779" lon="2.22648">
        <ele>136.49</ele>
        <time>2019-09-17T07:17:30.001Z</time>
      </trkpt>
      <trkpt lat="50.40733" lon="2.22834">
        <ele>138.408</ele>
        <time>2019-09-17T07:18:00.000Z</time>
      </trkpt>
      <trkpt lat="50.40672" lon="2.22988">
        <ele>137.196</ele>
        <time>2019-09-17T07:18:30.001Z</time>
      </trkpt>
      <trkpt lat="50.40637" lon="2.23181">
        <ele>138.41</ele>
        <time>2019-09-17T07:19:00.000Z</time>
      </trkpt>
      <trkpt lat="50.40659" lon="2.23423">
        <ele>138.204</ele>
        <time>2019-09-17T07:19:30.001Z</time>
      </trkpt>
      <trkpt lat="50.40589" lon="2.23698">
        <ele>136.215</ele>
        <time>2019-09-17T07:20:00.000Z</time>
      </trkpt>
      <trkpt lat="50.40566" lon="2.23954">
        <ele>132.199</ele>
        <time>2019-09-17T07:20:30.001Z</time>
      </trkpt>
      <trkpt lat="50.40543" lon="2.24135">
        <ele>135.474</ele>
        <time>2019-09-17T07:21:00.000Z</time>
      </trkpt>
      <trkpt lat="50.40512" lon="2.24313">
        <ele>141.374</ele>
        <time>2019-09-17T07:21:30.001Z</time>
      </trkpt>
      <trkpt lat="50.40463" lon="2.24535">
        <ele>140.84</ele>
        <time>2019-09-17T07:22:00.000Z</time>
      </trkpt>
      <trkpt lat="50.40465" lon="2.24796">
        <ele>136.762</ele>
        <time>2019-09-17T07:22:30.001Z</time>
      </trkpt>
      <trkpt lat="50.40475" lon="2.25078">
        <ele>132.385</ele>
        <time>2019-09-17T07:23:00.000Z</time>
      </trkpt>
      <trkpt lat="50.4048" lon="2.25355">
        <ele>131.56</ele>
        <time>2019-09-17T07:23:30.001Z</time>
      </trkpt>
      <trkpt lat="50.4059" lon="2.25646">
        <ele>129.108</ele>
        <time>2019-09-17T07:24:00.000Z</time>
      </trkpt>
      <trkpt lat="50.40748" lon="2.26034">
        <ele>115.017</ele>
        <time>2019-09-17T07:24:30.001Z</time>
      </trkpt>
      <trkpt lat="50.40809" lon="2.26473">
        <ele>102.066</ele>
        <time>2019-09-17T07:25:00.000Z</time>
      </trkpt>
      <trkpt lat="50.4081" lon="2.26844">
        <ele>95.853</ele>
        <time>2019-09-17T07:25:30.001Z</time>
      </trkpt>
      <trkpt lat="50.40859" lon="2.26915">
        <ele>100.895</ele>
        <time>2019-09-17T07:26:00.000Z</time>
      </trkpt>
      <trkpt lat="50.40899" lon="2.26968">
        <ele>104.65</ele>
        <time>2019-09-17T07:40:54.001Z</time>
      </trkpt>
      <trkpt lat="50.40904" lon="2.26973">
        <ele>105.056</ele>
        <time>2019-09-17T07:42:57.001Z</time>
      </trkpt>
      <trkpt lat="50.40888" lon="2.27051">
        <ele>106.901</ele>
        <time>2019-09-17T07:43:27.001Z</time>
      </trkpt>
      <trkpt lat="50.40843" lon="2.27105">
        <ele>110.726</ele>
        <time>2019-09-17T07:44:00.000Z</time>
      </trkpt>
      <trkpt lat="50.40788" lon="2.27164">
        <ele>116.395</ele>
        <time>2019-09-17T07:44:30.001Z</time>
      </trkpt>
      <trkpt lat="50.40758" lon="2.27196">
        <ele>117.338</ele>
        <time>2019-09-17T07:47:09.001Z</time>
      </trkpt>
      <trkpt lat="50.40779" lon="2.27173">
        <ele>118.283</ele>
        <time>2019-09-17T07:48:30.001Z</time>
      </trkpt>
      <trkpt lat="50.40895" lon="2.27042">
        <ele>109.354</ele>
        <time>2019-09-17T07:49:00.000Z</time>
      </trkpt>
      <trkpt lat="50.40967" lon="2.26981">
        <ele>100.963</ele>
        <time>2019-09-17T07:49:30.001Z</time>
      </trkpt>
      <trkpt lat="50.41155" lon="2.27091">
        <ele>98.703</ele>
        <time>2019-09-17T07:50:00.000Z</time>
      </trkpt>
      <trkpt lat="50.41254" lon="2.27336">
        <ele>86.921</ele>
        <time>2019-09-17T07:50:30.001Z</time>
      </trkpt>
      <trkpt lat="50.41267" lon="2.2749">
        <ele>90.526</ele>
        <time>2019-09-17T07:51:00.000Z</time>
      </trkpt>
      <trkpt lat="50.41292" lon="2.27586">
        <ele>97.678</ele>
        <time>2019-09-17T07:51:30.001Z</time>
      </trkpt>
      <trkpt lat="50.41318" lon="2.27682">
        <ele>106.919</ele>
        <time>2019-09-17T07:52:00.000Z</time>
      </trkpt>
      <trkpt lat="50.41348" lon="2.27766">
        <ele>111.489</ele>
        <time>2019-09-17T07:52:30.001Z</time>
      </trkpt>
      <trkpt lat="50.41397" lon="2.27888">
        <ele>112.7</ele>
        <time>2019-09-17T07:53:00.000Z</time>
      </trkpt>
      <trkpt lat="50.41418" lon="2.28043">
        <ele>109.205</ele>
        <time>2019-09-17T07:53:30.001Z</time>
      </trkpt>
      <trkpt lat="50.41534" lon="2.28243">
        <ele>103.928</ele>
        <time>2019-09-17T07:54:00.000Z</time>
      </trkpt>
      <trkpt lat="50.41526" lon="2.28522">
        <ele>90.772</ele>
        <time>2019-09-17T07:54:30.001Z</time>
      </trkpt>
      <trkpt lat="50.4155" lon="2.28635">
        <ele>92.654</ele>
        <time>2019-09-17T07:55:00.000Z</time>
      </trkpt>
      <trkpt lat="50.41559" lon="2.28733">
        <ele>101.47</ele>
        <time>2019-09-17T07:55:30.001Z</time>
      </trkpt>
      <trkpt lat="50.4156" lon="2.28889">
        <ele>100.8</ele>
        <time>2019-09-17T07:56:03.001Z</time>
      </trkpt>
      <trkpt lat="50.41558" lon="2.29249">
        <ele>89.431</ele>
        <time>2019-09-17T07:56:33.001Z</time>
      </trkpt>
      <trkpt lat="50.41651" lon="2.2944">
        <ele>81.152</ele>
        <time>2019-09-17T07:57:06.001Z</time>
      </trkpt>
      <trkpt lat="50.41746" lon="2.29529">
        <ele>72.023</ele>
        <time>2019-09-17T07:57:36.001Z</time>
      </trkpt>
      <trkpt lat="50.4185" lon="2.29709">
        <ele>72.885</ele>
        <time>2019-09-17T07:58:06.001Z</time>
      </trkpt>
      <trkpt lat="50.41801" lon="2.29993">
        <ele>67.931</ele>
        <time>2019-09-17T07:58:36.001Z</time>
      </trkpt>
      <trkpt lat="50.41861" lon="2.30226">
        <ele>68.755</ele>
        <time>2019-09-17T07:59:06.001Z</time>
      </trkpt>
      <trkpt lat="50.41949" lon="2.304">
        <ele>69</ele>
        <time>2019-09-17T07:59:36.001Z</time>
      </trkpt>
      <trkpt lat="50.41946" lon="2.30626">
        <ele>72.99</ele>
        <time>2019-09-17T08:00:06.001Z</time>
      </trkpt>
      <trkpt lat="50.41967" lon="2.30846">
        <ele>71.086</ele>
        <time>2019-09-17T08:00:36.001Z</time>
      </trkpt>
      <trkpt lat="50.41959" lon="2.31026">
        <ele>77.388</ele>
        <time>2019-09-17T08:01:06.001Z</time>
      </trkpt>
      <trkpt lat="50.41933" lon="2.31235">
        <ele>81.05</ele>
        <time>2019-09-17T08:01:36.001Z</time>
      </trkpt>
      <trkpt lat="50.41899" lon="2.31441">
        <ele>81.396</ele>
        <time>2019-09-17T08:02:06.001Z</time>
      </trkpt>
      <trkpt lat="50.41859" lon="2.31643">
        <ele>81.695</ele>
        <time>2019-09-17T08:02:36.001Z</time>
      </trkpt>
      <trkpt lat="50.41894" lon="2.31871">
        <ele>79.382</ele>
        <time>2019-09-17T08:03:06.001Z</time>
      </trkpt>
      <trkpt lat="50.41837" lon="2.32093">
        <ele>80.901</ele>
        <time>2019-09-17T08:03:36.001Z</time>
      </trkpt>
      <trkpt lat="50.41746" lon="2.32272">
        <ele>82.481</ele>
        <time>2019-09-17T08:04:06.001Z</time>
      </trkpt>
      <trkpt lat="50.41664" lon="2.32458">
        <ele>81.728</ele>
        <time>2019-09-17T08:04:36.001Z</time>
      </trkpt>
      <trkpt lat="50.41658" lon="2.32663">
        <ele>86.865</ele>
        <time>2019-09-17T08:05:06.001Z</time>
      </trkpt>
      <trkpt lat="50.41635" lon="2.32875">
        <ele>85.585</ele>
        <time>2019-09-17T08:05:36.001Z</time>
      </trkpt>
      <trkpt lat="50.41606" lon="2.33106">
        <ele>85.205</ele>
        <time>2019-09-17T08:06:09.001Z</time>
      </trkpt>
      <trkpt lat="50.41596" lon="2.33307">
        <ele>85.417</ele>
        <time>2019-09-17T08:06:39.001Z</time>
      </trkpt>
      <trkpt lat="50.41626" lon="2.33485">
        <ele>93.117</ele>
        <time>2019-09-17T08:07:09.001Z</time>
      </trkpt>
      <trkpt lat="50.41641" lon="2.33684">
        <ele>97.926</ele>
        <time>2019-09-17T08:07:39.001Z</time>
      </trkpt>
      <trkpt lat="50.41612" lon="2.33858">
        <ele>95.478</ele>
        <time>2019-09-17T08:08:09.001Z</time>
      </trkpt>
      <trkpt lat="50.41577" lon="2.34025">
        <ele>94.361</ele>
        <time>2019-09-17T08:08:39.001Z</time>
      </trkpt>
      <trkpt lat="50.41544" lon="2.34184">
        <ele>96.427</ele>
        <time>2019-09-17T08:09:09.001Z</time>
      </trkpt>
      <trkpt lat="50.41533" lon="2.34253">
        <ele>99.955</ele>
        <time>2019-09-17T08:10:48.001Z</time>
      </trkpt>
      <trkpt lat="50.4152" lon="2.34343">
        <ele>99.096</ele>
        <time>2019-09-17T08:12:18.001Z</time>
      </trkpt>
      <trkpt lat="50.41519" lon="2.34389">
        <ele>102.694</ele>
        <time>2019-09-17T08:12:57.001Z</time>
      </trkpt>
      <trkpt lat="50.41556" lon="2.34245">
        <ele>103.731</ele>
        <time>2019-09-17T08:13:27.001Z</time>
      </trkpt>
      <trkpt lat="50.41602" lon="2.34183">
        <ele>105.281</ele>
        <time>2019-09-17T08:13:57.001Z</time>
      </trkpt>
      <trkpt lat="50.41644" lon="2.34125">
        <ele>113.34</ele>
        <time>2019-09-17T08:14:27.001Z</time>
      </trkpt>
      <trkpt lat="50.41709" lon="2.34123">
        <ele>125.004</ele>
        <time>2019-09-17T08:15:00.000Z</time>
      </trkpt>
      <trkpt lat="50.41783" lon="2.34145">
        <ele>128.205</ele>
        <time>2019-09-17T08:15:30.001Z</time>
      </trkpt>
      <trkpt lat="50.41851" lon="2.34174">
        <ele>125.874</ele>
        <time>2019-09-17T08:16:00.000Z</time>
      </trkpt>
      <trkpt lat="50.4193" lon="2.3423">
        <ele>119.306</ele>
        <time>2019-09-17T08:16:30.001Z</time>
      </trkpt>
      <trkpt lat="50.41993" lon="2.34289">
        <ele>121.463</ele>
        <time>2019-09-17T08:17:00.000Z</time>
      </trkpt>
      <trkpt lat="50.42071" lon="2.34342">
        <ele>119.686</ele>
        <time>2019-09-17T08:17:30.001Z</time>
      </trkpt>
      <trkpt lat="50.42136" lon="2.34396">
        <ele>121.793</ele>
        <time>2019-09-17T08:18:03.001Z</time>
      </trkpt>
      <trkpt lat="50.42211" lon="2.34477">
        <ele>118.241</ele>
        <time>2019-09-17T08:18:36.001Z</time>
      </trkpt>
      <trkpt lat="50.42273" lon="2.34555">
        <ele>115.356</ele>
        <time>2019-09-17T08:19:06.001Z</time>
      </trkpt>
      <trkpt lat="50.4232" lon="2.34639">
        <ele>120.986</ele>
        <time>2019-09-17T08:19:39.001Z</time>
      </trkpt>
      <trkpt lat="50.4237" lon="2.3471">
        <ele>124.73</ele>
        <time>2019-09-17T08:20:12.001Z</time>
      </trkpt>
      <trkpt lat="50.42427" lon="2.34789">
        <ele>128.042</ele>
        <time>2019-09-17T08:20:42.001Z</time>
      </trkpt>
      <trkpt lat="50.42467" lon="2.34839">
        <ele>130.041</ele>
        <time>2019-09-17T08:21:12.001Z</time>
      </trkpt>
      <trkpt lat="50.4249" lon="2.34855">
        <ele>132.555</ele>
        <time>2019-09-17T08:22:45.001Z</time>
      </trkpt>
      <trkpt lat="50.42522" lon="2.34882">
        <ele>134.326</ele>
        <time>2019-09-17T08:23:18.001Z</time>
      </trkpt>
      <trkpt lat="50.4255" lon="2.34898">
        <ele>127.153</ele>
        <time>2019-09-17T08:23:51.001Z</time>
      </trkpt>
      <trkpt lat="50.42583" lon="2.34927">
        <ele>127.048</ele>
        <time>2019-09-17T08:25:42.001Z</time>
      </trkpt>
      <trkpt lat="50.42633" lon="2.34995">
        <ele>126.104</ele>
        <time>2019-09-17T08:26:12.001Z</time>
      </trkpt>
      <trkpt lat="50.42668" lon="2.35061">
        <ele>128.594</ele>
        <time>2019-09-17T08:26:45.001Z</time>
      </trkpt>
      <trkpt lat="50.42678" lon="2.3512">
        <ele>133.733</ele>
        <time>2019-09-17T08:27:33.001Z</time>
      </trkpt>
      <trkpt lat="50.42689" lon="2.35179">
        <ele>136.039</ele>
        <time>2019-09-17T08:28:27.001Z</time>
      </trkpt>
      <trkpt lat="50.42706" lon="2.35233">
        <ele>139.275</ele>
        <time>2019-09-17T08:29:09.001Z</time>
      </trkpt>
      <trkpt lat="50.42718" lon="2.35272">
        <ele>136.726</ele>
        <time>2019-09-17T08:38:54.001Z</time>
      </trkpt>
      <trkpt lat="50.42757" lon="2.35362">
        <ele>144.237</ele>
        <time>2019-09-17T08:39:27.001Z</time>
      </trkpt>
      <trkpt lat="50.42808" lon="2.35469">
        <ele>148.497</ele>
        <time>2019-09-17T08:39:57.001Z</time>
      </trkpt>
      <trkpt lat="50.42862" lon="2.35579">
        <ele>153.046</ele>
        <time>2019-09-17T08:40:27.001Z</time>
      </trkpt>
      <trkpt lat="50.42864" lon="2.35696">
        <ele>154.358</ele>
        <time>2019-09-17T08:40:57.001Z</time>
      </trkpt>
      <trkpt lat="50.42884" lon="2.3584">
        <ele>155.452</ele>
        <time>2019-09-17T08:41:30.001Z</time>
      </trkpt>
      <trkpt lat="50.42959" lon="2.35953">
        <ele>156.614</ele>
        <time>2019-09-17T08:42:00.000Z</time>
      </trkpt>
      <trkpt lat="50.43007" lon="2.36088">
        <ele>158.024</ele>
        <time>2019-09-17T08:42:30.001Z</time>
      </trkpt>
      <trkpt lat="50.43047" lon="2.3623">
        <ele>156.524</ele>
        <time>2019-09-17T08:43:00.000Z</time>
      </trkpt>
      <trkpt lat="50.43105" lon="2.36341">
        <ele>157.135</ele>
        <time>2019-09-17T08:43:30.001Z</time>
      </trkpt>
      <trkpt lat="50.43189" lon="2.36412">
        <ele>159.258</ele>
        <time>2019-09-17T08:44:00.000Z</time>
      </trkpt>
      <trkpt lat="50.43272" lon="2.36517">
        <ele>161.158</ele>
        <time>2019-09-17T08:44:30.001Z</time>
      </trkpt>
      <trkpt lat="50.43344" lon="2.36646">
        <ele>161.775</ele>
        <time>2019-09-17T08:45:00.000Z</time>
      </trkpt>
      <trkpt lat="50.43407" lon="2.36771">
        <ele>163.086</ele>
        <time>2019-09-17T08:45:30.001Z</time>
      </trkpt>
      <trkpt lat="50.43488" lon="2.36919">
        <ele>163.568</ele>
        <time>2019-09-17T08:46:00.000Z</time>
      </trkpt>
      <trkpt lat="50.43423" lon="2.37136">
        <ele>160.252</ele>
        <time>2019-09-17T08:46:30.001Z</time>
      </trkpt>
      <trkpt lat="50.43511" lon="2.37401">
        <ele>160.594</ele>
        <time>2019-09-17T08:47:00.000Z</time>
      </trkpt>
      <trkpt lat="50.43502" lon="2.37553">
        <ele>157.26</ele>
        <time>2019-09-17T08:47:30.001Z</time>
      </trkpt>
      <trkpt lat="50.43484" lon="2.37577">
        <ele>157.339</ele>
        <time>2019-09-17T08:49:24.001Z</time>
      </trkpt>
      <trkpt lat="50.43579" lon="2.37614">
        <ele>161.189</ele>
        <time>2019-09-17T08:49:57.001Z</time>
      </trkpt>
      <trkpt lat="50.43732" lon="2.37813">
        <ele>155.157</ele>
        <time>2019-09-17T08:50:27.001Z</time>
      </trkpt>
      <trkpt lat="50.43885" lon="2.38004">
        <ele>149.577</ele>
        <time>2019-09-17T08:50:57.001Z</time>
      </trkpt>
      <trkpt lat="50.44021" lon="2.38172">
        <ele>147.317</ele>
        <time>2019-09-17T08:51:27.001Z</time>
      </trkpt>
      <trkpt lat="50.44119" lon="2.38355">
        <ele>150.315</ele>
        <time>2019-09-17T08:51:57.001Z</time>
      </trkpt>
      <trkpt lat="50.44182" lon="2.3853">
        <ele>151.729</ele>
        <time>2019-09-17T08:52:27.001Z</time>
      </trkpt>
      <trkpt lat="50.44253" lon="2.38724">
        <ele>153.092</ele>
        <time>2019-09-17T08:53:00.000Z</time>
      </trkpt>
      <trkpt lat="50.44337" lon="2.38919">
        <ele>152.415</ele>
        <time>2019-09-17T08:53:30.001Z</time>
      </trkpt>
      <trkpt lat="50.44415" lon="2.39121">
        <ele>152.686</ele>
        <time>2019-09-17T08:54:00.000Z</time>
      </trkpt>
      <trkpt lat="50.44487" lon="2.39337">
        <ele>151.142</ele>
        <time>2019-09-17T08:54:30.001Z</time>
      </trkpt>
      <trkpt lat="50.44563" lon="2.39545">
        <ele>149.608</ele>
        <time>2019-09-17T08:55:00.000Z</time>
      </trkpt>
      <trkpt lat="50.44639" lon="2.39799">
        <ele>145.29</ele>
        <time>2019-09-17T08:55:30.001Z</time>
      </trkpt>
      <trkpt lat="50.44743" lon="2.40073">
        <ele>141.232</ele>
        <time>2019-09-17T08:56:00.000Z</time>
      </trkpt>
      <trkpt lat="50.44893" lon="2.40456">
        <ele>127.92</ele>
        <time>2019-09-17T08:56:30.001Z</time>
      </trkpt>
      <trkpt lat="50.45139" lon="2.40749">
        <ele>113.144</ele>
        <time>2019-09-17T08:57:00.000Z</time>
      </trkpt>
      <trkpt lat="50.45266" lon="2.40755">
        <ele>107.179</ele>
        <time>2019-09-17T08:57:30.001Z</time>
      </trkpt>
      <trkpt lat="50.45385" lon="2.4067">
        <ele>116.067</ele>
        <time>2019-09-17T08:58:00.000Z</time>
      </trkpt>
      <trkpt lat="50.45507" lon="2.40603">
        <ele>117.96</ele>
        <time>2019-09-17T08:58:30.001Z</time>
      </trkpt>
      <trkpt lat="50.45648" lon="2.40698">
        <ele>108.642</ele>
        <time>2019-09-17T08:59:00.000Z</time>
      </trkpt>
      <trkpt lat="50.45831" lon="2.4083">
        <ele>103.042</ele>
        <time>2019-09-17T08:59:30.001Z</time>
      </trkpt>
      <trkpt lat="50.45972" lon="2.40957">
        <ele>96.934</ele>
        <time>2019-09-17T09:00:00.000Z</time>
      </trkpt>
      <trkpt lat="50.45984" lon="2.40939">
        <ele>98.836</ele>
        <time>2019-09-17T09:02:30.001Z</time>
      </trkpt>
      <trkpt lat="50.46119" lon="2.40717">
        <ele>98.487</ele>
        <time>2019-09-17T09:03:00.000Z</time>
      </trkpt>
      <trkpt lat="50.46223" lon="2.40769">
        <ele>97.677</ele>
        <time>2019-09-17T09:03:30.001Z</time>
      </trkpt>
      <trkpt lat="50.46353" lon="2.40912">
        <ele>92.403</ele>
        <time>2019-09-17T09:04:00.000Z</time>
      </trkpt>
      <trkpt lat="50.46541" lon="2.41029">
        <ele>87.521</ele>
        <time>2019-09-17T09:04:30.001Z</time>
      </trkpt>
      <trkpt lat="50.46677" lon="2.41221">
        <ele>88.643</ele>
        <time>2019-09-17T09:05:03.001Z</time>
      </trkpt>
      <trkpt lat="50.46751" lon="2.4147">
        <ele>90.633</ele>
        <time>2019-09-17T09:05:33.001Z</time>
      </trkpt>
      <trkpt lat="50.46898" lon="2.41527">
        <ele>85.179</ele>
        <time>2019-09-17T09:06:03.001Z</time>
      </trkpt>
      <trkpt lat="50.47049" lon="2.41619">
        <ele>84.083</ele>
        <time>2019-09-17T09:06:33.001Z</time>
      </trkpt>
      <trkpt lat="50.47215" lon="2.41675">
        <ele>78.984</ele>
        <time>2019-09-17T09:07:03.001Z</time>
      </trkpt>
      <trkpt lat="50.47327" lon="2.41741">
        <ele>84.539</ele>
        <time>2019-09-17T09:07:33.001Z</time>
      </trkpt>
      <trkpt lat="50.47458" lon="2.41897">
        <ele>87.114</ele>
        <time>2019-09-17T09:08:03.001Z</time>
      </trkpt>
      <trkpt lat="50.47617" lon="2.42126">
        <ele>83.637</ele>
        <time>2019-09-17T09:08:33.001Z</time>
      </trkpt>
      <trkpt lat="50.47774" lon="2.42251">
        <ele>77.934</ele>
        <time>2019-09-17T09:09:03.001Z</time>
      </trkpt>
      <trkpt lat="50.47888" lon="2.42335">
        <ele>79.21</ele>
        <time>2019-09-17T09:09:33.001Z</time>
      </trkpt>
      <trkpt lat="50.47981" lon="2.4247">
        <ele>81.305</ele>
        <time>2019-09-17T09:10:03.001Z</time>
      </trkpt>
      <trkpt lat="50.48094" lon="2.42664">
        <ele>85.714</ele>
        <time>2019-09-17T09:10:33.001Z</time>
      </trkpt>
      <trkpt lat="50.48174" lon="2.42878">
        <ele>85.908</ele>
        <time>2019-09-17T09:11:03.001Z</time>
      </trkpt>
      <trkpt lat="50.48188" lon="2.42902">
        <ele>79.57</ele>
        <time>2019-09-17T09:11:51.001Z</time>
      </trkpt>
      <trkpt lat="50.48197" lon="2.43127">
        <ele>78.987</ele>
        <time>2019-09-17T09:12:21.001Z</time>
      </trkpt>
      <trkpt lat="50.48212" lon="2.4338">
        <ele>76.721</ele>
        <time>2019-09-17T09:12:51.001Z</time>
      </trkpt>
      <trkpt lat="50.48167" lon="2.43645">
        <ele>73.772</ele>
        <time>2019-09-17T09:13:21.001Z</time>
      </trkpt>
      <trkpt lat="50.48133" lon="2.43915">
        <ele>75.566</ele>
        <time>2019-09-17T09:13:51.001Z</time>
      </trkpt>
      <trkpt lat="50.48128" lon="2.44185">
        <ele>75.261</ele>
        <time>2019-09-17T09:14:21.001Z</time>
      </trkpt>
      <trkpt lat="50.48115" lon="2.44446">
        <ele>72.822</ele>
        <time>2019-09-17T09:14:51.001Z</time>
      </trkpt>
      <trkpt lat="50.48089" lon="2.44716">
        <ele>71.836</ele>
        <time>2019-09-17T09:15:24.001Z</time>
      </trkpt>
      <trkpt lat="50.4805" lon="2.44956">
        <ele>71.298</ele>
        <time>2019-09-17T09:15:54.001Z</time>
      </trkpt>
      <trkpt lat="50.47983" lon="2.45174">
        <ele>72.3</ele>
        <time>2019-09-17T09:16:24.001Z</time>
      </trkpt>
      <trkpt lat="50.47935" lon="2.45393">
        <ele>75.507</ele>
        <time>2019-09-17T09:16:54.001Z</time>
      </trkpt>
      <trkpt lat="50.4793" lon="2.45615">
        <ele>78.459</ele>
        <time>2019-09-17T09:17:24.001Z</time>
      </trkpt>
      <trkpt lat="50.47967" lon="2.45853">
        <ele>74.628</ele>
        <time>2019-09-17T09:17:54.001Z</time>
      </trkpt>
      <trkpt lat="50.48023" lon="2.46102">
        <ele>73.774</ele>
        <time>2019-09-17T09:18:24.001Z</time>
      </trkpt>
      <trkpt lat="50.48073" lon="2.46359">
        <ele>72.692</ele>
        <time>2019-09-17T09:18:54.001Z</time>
      </trkpt>
      <trkpt lat="50.48077" lon="2.46599">
        <ele>68.04</ele>
        <time>2019-09-17T09:19:24.001Z</time>
      </trkpt>
      <trkpt lat="50.4815" lon="2.4684">
        <ele>71.829</ele>
        <time>2019-09-17T09:19:54.001Z</time>
      </trkpt>
      <trkpt lat="50.48206" lon="2.47123">
        <ele>69.466</ele>
        <time>2019-09-17T09:20:24.001Z</time>
      </trkpt>
      <trkpt lat="50.48287" lon="2.4734">
        <ele>69.862</ele>
        <time>2019-09-17T09:20:54.001Z</time>
      </trkpt>
      <trkpt lat="50.48293" lon="2.47343">
        <ele>71.472</ele>
        <time>2019-09-17T09:23:00.000Z</time>
      </trkpt>
      <trkpt lat="50.48293" lon="2.47338">
        <ele>69.932</ele>
        <time>2019-09-17T09:24:48.001Z</time>
      </trkpt>
      <trkpt lat="50.48335" lon="2.4744">
        <ele>70.476</ele>
        <time>2019-09-17T09:29:45.001Z</time>
      </trkpt>
      <trkpt lat="50.48464" lon="2.47495">
        <ele>67.482</ele>
        <time>2019-09-17T09:30:15.001Z</time>
      </trkpt>
      <trkpt lat="50.48638" lon="2.47598">
        <ele>61.71</ele>
        <time>2019-09-17T09:30:45.001Z</time>
      </trkpt>
      <trkpt lat="50.48741" lon="2.47698">
        <ele>58.831</ele>
        <time>2019-09-17T09:31:15.001Z</time>
      </trkpt>
      <trkpt lat="50.48816" lon="2.47791">
        <ele>64.82</ele>
        <time>2019-09-17T09:31:45.001Z</time>
      </trkpt>
      <trkpt lat="50.48887" lon="2.47891">
        <ele>65.803</ele>
        <time>2019-09-17T09:32:15.001Z</time>
      </trkpt>
      <trkpt lat="50.48964" lon="2.48028">
        <ele>67.484</ele>
        <time>2019-09-17T09:32:48.001Z</time>
      </trkpt>
      <trkpt lat="50.49024" lon="2.48171">
        <ele>73.997</ele>
        <time>2019-09-17T09:33:18.001Z</time>
      </trkpt>
      <trkpt lat="50.49096" lon="2.48324">
        <ele>71.633</ele>
        <time>2019-09-17T09:33:48.001Z</time>
      </trkpt>
      <trkpt lat="50.49165" lon="2.48486">
        <ele>73.017</ele>
        <time>2019-09-17T09:34:18.001Z</time>
      </trkpt>
      <trkpt lat="50.49204" lon="2.48577">
        <ele>70.55</ele>
        <time>2019-09-17T09:35:06.001Z</time>
      </trkpt>
      <trkpt lat="50.49281" lon="2.48756">
        <ele>74.234</ele>
        <time>2019-09-17T09:35:36.001Z</time>
      </trkpt>
      <trkpt lat="50.49357" lon="2.48988">
        <ele>72.642</ele>
        <time>2019-09-17T09:36:06.001Z</time>
      </trkpt>
      <trkpt lat="50.49424" lon="2.49238">
        <ele>65.401</ele>
        <time>2019-09-17T09:36:36.001Z</time>
      </trkpt>
      <trkpt lat="50.49487" lon="2.49472">
        <ele>66.959</ele>
        <time>2019-09-17T09:37:06.001Z</time>
      </trkpt>
      <trkpt lat="50.49555" lon="2.49667">
        <ele>67.681</ele>
        <time>2019-09-17T09:37:36.001Z</time>
      </trkpt>
      <trkpt lat="50.49663" lon="2.49942">
        <ele>69.685</ele>
        <time>2019-09-17T09:38:06.001Z</time>
      </trkpt>
      <trkpt lat="50.49845" lon="2.50295">
        <ele>55.906</ele>
        <time>2019-09-17T09:38:36.001Z</time>
      </trkpt>
      <trkpt lat="50.50014" lon="2.50503">
        <ele>52.803</ele>
        <time>2019-09-17T09:39:06.001Z</time>
      </trkpt>
      <trkpt lat="50.50149" lon="2.50644">
        <ele>54.131</ele>
        <time>2019-09-17T09:39:36.001Z</time>
      </trkpt>
      <trkpt lat="50.50266" lon="2.50769">
        <ele>55.036</ele>
        <time>2019-09-17T09:40:06.001Z</time>
      </trkpt>
      <trkpt lat="50.50401" lon="2.51042">
        <ele>54.908</ele>
        <time>2019-09-17T09:40:36.001Z</time>
      </trkpt>
      <trkpt lat="50.50528" lon="2.51235">
        <ele>45.878</ele>
        <time>2019-09-17T09:41:06.001Z</time>
      </trkpt>
      <trkpt lat="50.5062" lon="2.51445">
        <ele>52.586</ele>
        <time>2019-09-17T09:41:36.001Z</time>
      </trkpt>
      <trkpt lat="50.50675" lon="2.51623">
        <ele>48.044</ele>
        <time>2019-09-17T09:42:06.001Z</time>
      </trkpt>
      <trkpt lat="50.50756" lon="2.51792">
        <ele>52.108</ele>
        <time>2019-09-17T09:42:36.001Z</time>
      </trkpt>
      <trkpt lat="50.50886" lon="2.51966">
        <ele>46.752</ele>
        <time>2019-09-17T09:43:09.001Z</time>
      </trkpt>
      <trkpt lat="50.51007" lon="2.52182">
        <ele>42.31</ele>
        <time>2019-09-17T09:43:39.001Z</time>
      </trkpt>
      <trkpt lat="50.51122" lon="2.52432">
        <ele>42.179</ele>
        <time>2019-09-17T09:44:09.001Z</time>
      </trkpt>
      <trkpt lat="50.51221" lon="2.52675">
        <ele>42.565</ele>
        <time>2019-09-17T09:44:39.001Z</time>
      </trkpt>
      <trkpt lat="50.51309" lon="2.52914">
        <ele>40.767</ele>
        <time>2019-09-17T09:45:09.001Z</time>
      </trkpt>
      <trkpt lat="50.51384" lon="2.53161">
        <ele>41.108</ele>
        <time>2019-09-17T09:45:39.001Z</time>
      </trkpt>
      <trkpt lat="50.51482" lon="2.53362">
        <ele>48.543</ele>
        <time>2019-09-17T09:46:09.001Z</time>
      </trkpt>
      <trkpt lat="50.51549" lon="2.53584">
        <ele>51.039</ele>
        <time>2019-09-17T09:46:39.001Z</time>
      </trkpt>
      <trkpt lat="50.5158" lon="2.53847">
        <ele>51.353</ele>
        <time>2019-09-17T09:47:09.001Z</time>
      </trkpt>
      <trkpt lat="50.5162" lon="2.54114">
        <ele>44.945</ele>
        <time>2019-09-17T09:47:39.001Z</time>
      </trkpt>
      <trkpt lat="50.51716" lon="2.54384">
        <ele>41.131</ele>
        <time>2019-09-17T09:48:09.001Z</time>
      </trkpt>
      <trkpt lat="50.51828" lon="2.5463">
        <ele>37.667</ele>
        <time>2019-09-17T09:48:39.001Z</time>
      </trkpt>
      <trkpt lat="50.5193" lon="2.5484">
        <ele>40.759</ele>
        <time>2019-09-17T09:49:09.001Z</time>
      </trkpt>
      <trkpt lat="50.52039" lon="2.55027">
        <ele>39.933</ele>
        <time>2019-09-17T09:49:39.001Z</time>
      </trkpt>
      <trkpt lat="50.52149" lon="2.55209">
        <ele>40.523</ele>
        <time>2019-09-17T09:50:09.001Z</time>
      </trkpt>
      <trkpt lat="50.52257" lon="2.55406">
        <ele>35.256</ele>
        <time>2019-09-17T09:50:39.001Z</time>
      </trkpt>
      <trkpt lat="50.52359" lon="2.556">
        <ele>33.726</ele>
        <time>2019-09-17T09:51:09.001Z</time>
      </trkpt>
      <trkpt lat="50.52486" lon="2.55765">
        <ele>31.368</ele>
        <time>2019-09-17T09:51:39.001Z</time>
      </trkpt>
      <trkpt lat="50.52623" lon="2.55917">
        <ele>32.884</ele>
        <time>2019-09-17T09:52:09.001Z</time>
      </trkpt>
      <trkpt lat="50.52734" lon="2.56056">
        <ele>27.545</ele>
        <time>2019-09-17T09:52:39.001Z</time>
      </trkpt>
      <trkpt lat="50.52855" lon="2.56207">
        <ele>26.056</ele>
        <time>2019-09-17T09:53:12.001Z</time>
      </trkpt>
      <trkpt lat="50.52972" lon="2.56343">
        <ele>23.023</ele>
        <time>2019-09-17T09:53:42.001Z</time>
      </trkpt>
      <trkpt lat="50.53097" lon="2.56488">
        <ele>31.49</ele>
        <time>2019-09-17T09:54:12.001Z</time>
      </trkpt>
      <trkpt lat="50.5321" lon="2.56639">
        <ele>32.342</ele>
        <time>2019-09-17T09:54:42.001Z</time>
      </trkpt>
      <trkpt lat="50.53319" lon="2.56789">
        <ele>34.381</ele>
        <time>2019-09-17T09:55:12.001Z</time>
      </trkpt>
      <trkpt lat="50.53452" lon="2.56911">
        <ele>40.185</ele>
        <time>2019-09-17T09:55:42.001Z</time>
      </trkpt>
      <trkpt lat="50.53594" lon="2.56983">
        <ele>36.491</ele>
        <time>2019-09-17T09:56:12.001Z</time>
      </trkpt>
      <trkpt lat="50.53698" lon="2.57078">
        <ele>40.045</ele>
        <time>2019-09-17T09:56:42.001Z</time>
      </trkpt>
      <trkpt lat="50.53706" lon="2.57184">
        <ele>34.622</ele>
        <time>2019-09-17T09:57:12.001Z</time>
      </trkpt>
      <trkpt lat="50.53749" lon="2.57279">
        <ele>34.679</ele>
        <time>2019-09-17T09:57:45.001Z</time>
      </trkpt>
      <trkpt lat="50.53762" lon="2.57456">
        <ele>36.583</ele>
        <time>2019-09-17T09:58:15.001Z</time>
      </trkpt>
      <trkpt lat="50.53758" lon="2.57587">
        <ele>37.604</ele>
        <time>2019-09-17T09:58:45.001Z</time>
      </trkpt>
      <trkpt lat="50.53758" lon="2.57716">
        <ele>42.167</ele>
        <time>2019-09-17T09:59:15.001Z</time>
      </trkpt>
      <trkpt lat="50.5376" lon="2.57844">
        <ele>42.174</ele>
        <time>2019-09-17T09:59:45.001Z</time>
      </trkpt>
      <trkpt lat="50.5376" lon="2.57961">
        <ele>50.794</ele>
        <time>2019-09-17T10:00:15.001Z</time>
      </trkpt>
      <trkpt lat="50.53764" lon="2.58083">
        <ele>65.022</ele>
        <time>2019-09-17T10:00:45.001Z</time>
      </trkpt>
      <trkpt lat="50.53797" lon="2.58237">
        <ele>57.015</ele>
        <time>2019-09-17T10:01:15.001Z</time>
      </trkpt>
      <trkpt lat="50.53813" lon="2.58387">
        <ele>51.45</ele>
        <time>2019-09-17T10:01:45.001Z</time>
      </trkpt>
      <trkpt lat="50.53832" lon="2.5855">
        <ele>50.395</ele>
        <time>2019-09-17T10:02:15.001Z</time>
      </trkpt>
      <trkpt lat="50.53858" lon="2.58752">
        <ele>47.248</ele>
        <time>2019-09-17T10:02:45.001Z</time>
      </trkpt>
      <trkpt lat="50.53886" lon="2.58935">
        <ele>45.479</ele>
        <time>2019-09-17T10:03:18.001Z</time>
      </trkpt>
      <trkpt lat="50.53869" lon="2.5906">
        <ele>47.471</ele>
        <time>2019-09-17T10:03:48.001Z</time>
      </trkpt>
      <trkpt lat="50.53843" lon="2.59212">
        <ele>46.383</ele>
        <time>2019-09-17T10:04:30.001Z</time>
      </trkpt>
      <trkpt lat="50.53851" lon="2.59123">
        <ele>45.64</ele>
        <time>2019-09-17T10:05:24.001Z</time>
      </trkpt>
      <trkpt lat="50.53902" lon="2.59127">
        <ele>45.671</ele>
        <time>2019-09-17T10:05:54.001Z</time>
      </trkpt>
      <trkpt lat="50.53903" lon="2.59401">
        <ele>40.124</ele>
        <time>2019-09-17T10:06:24.001Z</time>
      </trkpt>
      <trkpt lat="50.53951" lon="2.59716">
        <ele>39.8</ele>
        <time>2019-09-17T10:06:54.001Z</time>
      </trkpt>
      <trkpt lat="50.53985" lon="2.60027">
        <ele>40.267</ele>
        <time>2019-09-17T10:07:24.001Z</time>
      </trkpt>
      <trkpt lat="50.53977" lon="2.60324">
        <ele>41.977</ele>
        <time>2019-09-17T10:07:54.001Z</time>
      </trkpt>
      <trkpt lat="50.54012" lon="2.60542">
        <ele>40.776</ele>
        <time>2019-09-17T10:08:24.001Z</time>
      </trkpt>
      <trkpt lat="50.54031" lon="2.6078">
        <ele>41.494</ele>
        <time>2019-09-17T10:08:54.001Z</time>
      </trkpt>
      <trkpt lat="50.54032" lon="2.61001">
        <ele>41.98</ele>
        <time>2019-09-17T10:09:24.001Z</time>
      </trkpt>
      <trkpt lat="50.54038" lon="2.61227">
        <ele>43.987</ele>
        <time>2019-09-17T10:09:54.001Z</time>
      </trkpt>
      <trkpt lat="50.54037" lon="2.61487">
        <ele>46.851</ele>
        <time>2019-09-17T10:10:24.001Z</time>
      </trkpt>
      <trkpt lat="50.53993" lon="2.61783">
        <ele>39.58</ele>
        <time>2019-09-17T10:10:54.001Z</time>
      </trkpt>
      <trkpt lat="50.53937" lon="2.62123">
        <ele>39.713</ele>
        <time>2019-09-17T10:11:24.001Z</time>
      </trkpt>
      <trkpt lat="50.53927" lon="2.62469">
        <ele>38.842</ele>
        <time>2019-09-17T10:11:54.001Z</time>
      </trkpt>
      <trkpt lat="50.53943" lon="2.62773">
        <ele>36.15</ele>
        <time>2019-09-17T10:12:24.001Z</time>
      </trkpt>
      <trkpt lat="50.54019" lon="2.62961">
        <ele>26.32</ele>
        <time>2019-09-17T10:12:54.001Z</time>
      </trkpt>
      <trkpt lat="50.54145" lon="2.63094">
        <ele>29.672</ele>
        <time>2019-09-17T10:13:24.001Z</time>
      </trkpt>
      <trkpt lat="50.54253" lon="2.63296">
        <ele>29.773</ele>
        <time>2019-09-17T10:13:57.001Z</time>
      </trkpt>
      <trkpt lat="50.54354" lon="2.63488">
        <ele>27.595</ele>
        <time>2019-09-17T10:14:27.001Z</time>
      </trkpt>
      <trkpt lat="50.54477" lon="2.6365">
        <ele>25.393</ele>
        <time>2019-09-17T10:14:57.001Z</time>
      </trkpt>
      <trkpt lat="50.54541" lon="2.63795">
        <ele>29.68</ele>
        <time>2019-09-17T10:15:27.001Z</time>
      </trkpt>
      <trkpt lat="50.54561" lon="2.63967">
        <ele>34.366</ele>
        <time>2019-09-17T10:15:57.001Z</time>
      </trkpt>
      <trkpt lat="50.54551" lon="2.64226">
        <ele>31.762</ele>
        <time>2019-09-17T10:16:27.001Z</time>
      </trkpt>
      <trkpt lat="50.54473" lon="2.64447">
        <ele>31.291</ele>
        <time>2019-09-17T10:16:57.001Z</time>
      </trkpt>
      <trkpt lat="50.54353" lon="2.64673">
        <ele>28.408</ele>
        <time>2019-09-17T10:17:27.001Z</time>
      </trkpt>
      <trkpt lat="50.54226" lon="2.64857">
        <ele>32.94</ele>
        <time>2019-09-17T10:17:57.001Z</time>
      </trkpt>
      <trkpt lat="50.54095" lon="2.65036">
        <ele>31.399</ele>
        <time>2019-09-17T10:18:27.001Z</time>
      </trkpt>
      <trkpt lat="50.5414" lon="2.65035">
        <ele>25.408</ele>
        <time>2019-09-17T10:18:57.001Z</time>
      </trkpt>
      <trkpt lat="50.54136" lon="2.65114">
        <ele>24.106</ele>
        <time>2019-09-17T10:19:27.001Z</time>
      </trkpt>
      <trkpt lat="50.54261" lon="2.65121">
        <ele>27.453</ele>
        <time>2019-09-17T10:19:57.001Z</time>
      </trkpt>
      <trkpt lat="50.54348" lon="2.65241">
        <ele>24.495</ele>
        <time>2019-09-17T10:20:27.001Z</time>
      </trkpt>
      <trkpt lat="50.54406" lon="2.65339">
        <ele>26.175</ele>
        <time>2019-09-17T10:20:57.001Z</time>
      </trkpt>
      <trkpt lat="50.54481" lon="2.65459">
        <ele>29.387</ele>
        <time>2019-09-17T10:21:27.001Z</time>
      </trkpt>
      <trkpt lat="50.54447" lon="2.65747">
        <ele>26.987</ele>
        <time>2019-09-17T10:21:57.001Z</time>
      </trkpt>
      <trkpt lat="50.54524" lon="2.6597">
        <ele>23.419</ele>
        <time>2019-09-17T10:22:27.001Z</time>
      </trkpt>
      <trkpt lat="50.54595" lon="2.6603">
        <ele>24.905</ele>
        <time>2019-09-17T10:22:57.001Z</time>
      </trkpt>
      <trkpt lat="50.54612" lon="2.66019">
        <ele>28.865</ele>
        <time>2019-09-17T10:34:39.001Z</time>
      </trkpt>
      <trkpt lat="50.54583" lon="2.66039">
        <ele>29.011</ele>
        <time>2019-09-17T10:49:21.001Z</time>
      </trkpt>
      <trkpt lat="50.54581" lon="2.66106">
        <ele>24.436</ele>
        <time>2019-09-17T10:50:06.001Z</time>
      </trkpt>
      <trkpt lat="50.54649" lon="2.66267">
        <ele>22.906</ele>
        <time>2019-09-17T10:50:36.001Z</time>
      </trkpt>
      <trkpt lat="50.54723" lon="2.66439">
        <ele>25.713</ele>
        <time>2019-09-17T10:51:06.001Z</time>
      </trkpt>
      <trkpt lat="50.54619" lon="2.666">
        <ele>22.567</ele>
        <time>2019-09-17T10:51:36.001Z</time>
      </trkpt>
      <trkpt lat="50.54502" lon="2.66749">
        <ele>20.923</ele>
        <time>2019-09-17T10:52:06.001Z</time>
      </trkpt>
      <trkpt lat="50.54365" lon="2.66828">
        <ele>21.803</ele>
        <time>2019-09-17T10:52:36.001Z</time>
      </trkpt>
      <trkpt lat="50.54213" lon="2.66863">
        <ele>23.401</ele>
        <time>2019-09-17T10:53:06.001Z</time>
      </trkpt>
      <trkpt lat="50.54077" lon="2.66987">
        <ele>18.864</ele>
        <time>2019-09-17T10:53:36.001Z</time>
      </trkpt>
      <trkpt lat="50.53936" lon="2.67108">
        <ele>17.532</ele>
        <time>2019-09-17T10:54:06.001Z</time>
      </trkpt>
      <trkpt lat="50.53818" lon="2.67274">
        <ele>17.107</ele>
        <time>2019-09-17T10:54:36.001Z</time>
      </trkpt>
      <trkpt lat="50.5376" lon="2.67446">
        <ele>17.826</ele>
        <time>2019-09-17T10:55:06.001Z</time>
      </trkpt>
      <trkpt lat="50.53727" lon="2.67649">
        <ele>18.218</ele>
        <time>2019-09-17T10:55:36.001Z</time>
      </trkpt>
      <trkpt lat="50.53729" lon="2.67859">
        <ele>17.069</ele>
        <time>2019-09-17T10:56:06.001Z</time>
      </trkpt>
      <trkpt lat="50.53706" lon="2.68071">
        <ele>14.762</ele>
        <time>2019-09-17T10:56:36.001Z</time>
      </trkpt>
      <trkpt lat="50.53718" lon="2.68293">
        <ele>12.923</ele>
        <time>2019-09-17T10:57:06.001Z</time>
      </trkpt>
      <trkpt lat="50.53728" lon="2.68508">
        <ele>11.054</ele>
        <time>2019-09-17T10:57:36.001Z</time>
      </trkpt>
      <trkpt lat="50.53728" lon="2.68732">
        <ele>13.188</ele>
        <time>2019-09-17T10:58:06.001Z</time>
      </trkpt>
      <trkpt lat="50.53698" lon="2.68951">
        <ele>16.533</ele>
        <time>2019-09-17T10:58:36.001Z</time>
      </trkpt>
      <trkpt lat="50.53641" lon="2.69152">
        <ele>15.513</ele>
        <time>2019-09-17T10:59:06.001Z</time>
      </trkpt>
      <trkpt lat="50.53588" lon="2.69372">
        <ele>16.736</ele>
        <time>2019-09-17T10:59:39.001Z</time>
      </trkpt>
      <trkpt lat="50.53534" lon="2.69567">
        <ele>19.422</ele>
        <time>2019-09-17T11:00:09.001Z</time>
      </trkpt>
      <trkpt lat="50.53491" lon="2.6977">
        <ele>19.583</ele>
        <time>2019-09-17T11:00:39.001Z</time>
      </trkpt>
      <trkpt lat="50.53431" lon="2.69967">
        <ele>21.038</ele>
        <time>2019-09-17T11:01:09.001Z</time>
      </trkpt>
      <trkpt lat="50.53378" lon="2.70163">
        <ele>19.196</ele>
        <time>2019-09-17T11:01:39.001Z</time>
      </trkpt>
      <trkpt lat="50.53326" lon="2.70367">
        <ele>14.645</ele>
        <time>2019-09-17T11:02:09.001Z</time>
      </trkpt>
      <trkpt lat="50.53267" lon="2.70578">
        <ele>16.722</ele>
        <time>2019-09-17T11:02:39.001Z</time>
      </trkpt>
      <trkpt lat="50.53211" lon="2.70788">
        <ele>17.845</ele>
        <time>2019-09-17T11:03:09.001Z</time>
      </trkpt>
      <trkpt lat="50.53172" lon="2.70953">
        <ele>18.276</ele>
        <time>2019-09-17T11:03:39.001Z</time>
      </trkpt>
      <trkpt lat="50.5312" lon="2.71146">
        <ele>18.152</ele>
        <time>2019-09-17T11:04:09.001Z</time>
      </trkpt>
      <trkpt lat="50.53084" lon="2.71271">
        <ele>23.889</ele>
        <time>2019-09-17T11:04:39.001Z</time>
      </trkpt>
      <trkpt lat="50.53019" lon="2.71507">
        <ele>21.472</ele>
        <time>2019-09-17T11:05:09.001Z</time>
      </trkpt>
      <trkpt lat="50.52963" lon="2.71728">
        <ele>15.986</ele>
        <time>2019-09-17T11:05:39.001Z</time>
      </trkpt>
      <trkpt lat="50.52909" lon="2.71943">
        <ele>12.467</ele>
        <time>2019-09-17T11:06:09.001Z</time>
      </trkpt>
      <trkpt lat="50.5285" lon="2.72152">
        <ele>16.682</ele>
        <time>2019-09-17T11:06:39.001Z</time>
      </trkpt>
      <trkpt lat="50.52794" lon="2.72364">
        <ele>18.018</ele>
        <time>2019-09-17T11:07:09.001Z</time>
      </trkpt>
      <trkpt lat="50.52737" lon="2.72577">
        <ele>16.847</ele>
        <time>2019-09-17T11:07:39.001Z</time>
      </trkpt>
      <trkpt lat="50.52681" lon="2.72785">
        <ele>17.767</ele>
        <time>2019-09-17T11:08:09.001Z</time>
      </trkpt>
      <trkpt lat="50.52627" lon="2.72988">
        <ele>18.142</ele>
        <time>2019-09-17T11:08:39.001Z</time>
      </trkpt>
      <trkpt lat="50.52573" lon="2.73184">
        <ele>20.468</ele>
        <time>2019-09-17T11:09:09.001Z</time>
      </trkpt>
      <trkpt lat="50.52512" lon="2.7342">
        <ele>18.312</ele>
        <time>2019-09-17T11:09:42.001Z</time>
      </trkpt>
      <trkpt lat="50.52455" lon="2.73631">
        <ele>17.99</ele>
        <time>2019-09-17T11:10:12.001Z</time>
      </trkpt>
      <trkpt lat="50.524" lon="2.73839">
        <ele>16.221</ele>
        <time>2019-09-17T11:10:42.001Z</time>
      </trkpt>
      <trkpt lat="50.52355" lon="2.7406">
        <ele>18.343</ele>
        <time>2019-09-17T11:11:12.001Z</time>
      </trkpt>
      <trkpt lat="50.52322" lon="2.74275">
        <ele>21.413</ele>
        <time>2019-09-17T11:11:42.001Z</time>
      </trkpt>
      <trkpt lat="50.52303" lon="2.74502">
        <ele>20.789</ele>
        <time>2019-09-17T11:12:12.001Z</time>
      </trkpt>
      <trkpt lat="50.52294" lon="2.74725">
        <ele>19.453</ele>
        <time>2019-09-17T11:12:42.001Z</time>
      </trkpt>
      <trkpt lat="50.52291" lon="2.74946">
        <ele>19.875</ele>
        <time>2019-09-17T11:13:12.001Z</time>
      </trkpt>
      <trkpt lat="50.52281" lon="2.7517">
        <ele>17.729</ele>
        <time>2019-09-17T11:13:42.001Z</time>
      </trkpt>
      <trkpt lat="50.52272" lon="2.7536">
        <ele>16.774</ele>
        <time>2019-09-17T11:14:12.001Z</time>
      </trkpt>
      <trkpt lat="50.52258" lon="2.75544">
        <ele>22.721</ele>
        <time>2019-09-17T11:14:42.001Z</time>
      </trkpt>
      <trkpt lat="50.52254" lon="2.75739">
        <ele>24.801</ele>
        <time>2019-09-17T11:15:12.001Z</time>
      </trkpt>
      <trkpt lat="50.52248" lon="2.75956">
        <ele>26.853</ele>
        <time>2019-09-17T11:15:42.001Z</time>
      </trkpt>
      <trkpt lat="50.52235" lon="2.76169">
        <ele>27.454</ele>
        <time>2019-09-17T11:16:12.001Z</time>
      </trkpt>
      <trkpt lat="50.5222" lon="2.76371">
        <ele>25.645</ele>
        <time>2019-09-17T11:16:42.001Z</time>
      </trkpt>
      <trkpt lat="50.52201" lon="2.76592">
        <ele>35.101</ele>
        <time>2019-09-17T11:17:12.001Z</time>
      </trkpt>
      <trkpt lat="50.52188" lon="2.76823">
        <ele>29.018</ele>
        <time>2019-09-17T11:17:42.001Z</time>
      </trkpt>
      <trkpt lat="50.52168" lon="2.7706">
        <ele>25.504</ele>
        <time>2019-09-17T11:18:12.001Z</time>
      </trkpt>
      <trkpt lat="50.52159" lon="2.77282">
        <ele>25.411</ele>
        <time>2019-09-17T11:18:42.001Z</time>
      </trkpt>
      <trkpt lat="50.5216" lon="2.77515">
        <ele>27.822</ele>
        <time>2019-09-17T11:19:12.001Z</time>
      </trkpt>
      <trkpt lat="50.52176" lon="2.77768">
        <ele>27.184</ele>
        <time>2019-09-17T11:19:45.001Z</time>
      </trkpt>
      <trkpt lat="50.52193" lon="2.77979">
        <ele>31.16</ele>
        <time>2019-09-17T11:20:15.001Z</time>
      </trkpt>
      <trkpt lat="50.52206" lon="2.78195">
        <ele>40.089</ele>
        <time>2019-09-17T11:20:45.001Z</time>
      </trkpt>
      <trkpt lat="50.52229" lon="2.78425">
        <ele>32.026</ele>
        <time>2019-09-17T11:21:15.001Z</time>
      </trkpt>
      <trkpt lat="50.52247" lon="2.78647">
        <ele>31.888</ele>
        <time>2019-09-17T11:21:45.001Z</time>
      </trkpt>
      <trkpt lat="50.52267" lon="2.78867">
        <ele>26.733</ele>
        <time>2019-09-17T11:22:15.001Z</time>
      </trkpt>
      <trkpt lat="50.52285" lon="2.79086">
        <ele>24.489</ele>
        <time>2019-09-17T11:22:45.001Z</time>
      </trkpt>
      <trkpt lat="50.5233" lon="2.79247">
        <ele>25.998</ele>
        <time>2019-09-17T11:23:15.001Z</time>
      </trkpt>
      <trkpt lat="50.52404" lon="2.79365">
        <ele>20.362</ele>
        <time>2019-09-17T11:23:45.001Z</time>
      </trkpt>
      <trkpt lat="50.52485" lon="2.79521">
        <ele>22.002</ele>
        <time>2019-09-17T11:24:15.001Z</time>
      </trkpt>
      <trkpt lat="50.52571" lon="2.79672">
        <ele>22.751</ele>
        <time>2019-09-17T11:24:45.001Z</time>
      </trkpt>
      <trkpt lat="50.52656" lon="2.79826">
        <ele>24.013</ele>
        <time>2019-09-17T11:25:15.001Z</time>
      </trkpt>
      <trkpt lat="50.52717" lon="2.7995">
        <ele>21.925</ele>
        <time>2019-09-17T11:25:45.001Z</time>
      </trkpt>
      <trkpt lat="50.52763" lon="2.80111">
        <ele>19.95</ele>
        <time>2019-09-17T11:26:15.001Z</time>
      </trkpt>
      <trkpt lat="50.52809" lon="2.80276">
        <ele>22.282</ele>
        <time>2019-09-17T11:26:45.001Z</time>
      </trkpt>
      <trkpt lat="50.52863" lon="2.8046">
        <ele>20.801</ele>
        <time>2019-09-17T11:27:15.001Z</time>
      </trkpt>
      <trkpt lat="50.52917" lon="2.8063">
        <ele>24.955</ele>
        <time>2019-09-17T11:27:45.001Z</time>
      </trkpt>
      <trkpt lat="50.5296" lon="2.80774">
        <ele>29.379</ele>
        <time>2019-09-17T11:28:15.001Z</time>
      </trkpt>
      <trkpt lat="50.5297" lon="2.80935">
        <ele>32.509</ele>
        <time>2019-09-17T11:28:45.001Z</time>
      </trkpt>
      <trkpt lat="50.52942" lon="2.81109">
        <ele>33.874</ele>
        <time>2019-09-17T11:29:15.001Z</time>
      </trkpt>
      <trkpt lat="50.52915" lon="2.81248">
        <ele>26.214</ele>
        <time>2019-09-17T11:29:48.001Z</time>
      </trkpt>
      <trkpt lat="50.52853" lon="2.81423">
        <ele>25.677</ele>
        <time>2019-09-17T11:30:18.001Z</time>
      </trkpt>
      <trkpt lat="50.52801" lon="2.81603">
        <ele>21.976</ele>
        <time>2019-09-17T11:30:48.001Z</time>
      </trkpt>
      <trkpt lat="50.5275" lon="2.81798">
        <ele>22.882</ele>
        <time>2019-09-17T11:31:18.001Z</time>
      </trkpt>
      <trkpt lat="50.527" lon="2.82002">
        <ele>21.233</ele>
        <time>2019-09-17T11:31:48.001Z</time>
      </trkpt>
      <trkpt lat="50.5265" lon="2.82204">
        <ele>23.014</ele>
        <time>2019-09-17T11:32:18.001Z</time>
      </trkpt>
      <trkpt lat="50.52594" lon="2.82402">
        <ele>28.583</ele>
        <time>2019-09-17T11:32:48.001Z</time>
      </trkpt>
      <trkpt lat="50.52576" lon="2.8263">
        <ele>24.804</ele>
        <time>2019-09-17T11:33:18.001Z</time>
      </trkpt>
      <trkpt lat="50.52592" lon="2.82834">
        <ele>22.945</ele>
        <time>2019-09-17T11:33:48.001Z</time>
      </trkpt>
      <trkpt lat="50.5262" lon="2.83052">
        <ele>24.723</ele>
        <time>2019-09-17T11:34:18.001Z</time>
      </trkpt>
      <trkpt lat="50.52647" lon="2.83269">
        <ele>22.207</ele>
        <time>2019-09-17T11:34:48.001Z</time>
      </trkpt>
      <trkpt lat="50.52678" lon="2.83483">
        <ele>19.799</ele>
        <time>2019-09-17T11:35:18.001Z</time>
      </trkpt>
      <trkpt lat="50.527" lon="2.83687">
        <ele>23.831</ele>
        <time>2019-09-17T11:35:48.001Z</time>
      </trkpt>
      <trkpt lat="50.52728" lon="2.83901">
        <ele>23.023</ele>
        <time>2019-09-17T11:36:18.001Z</time>
      </trkpt>
      <trkpt lat="50.5275" lon="2.8409">
        <ele>20.874</ele>
        <time>2019-09-17T11:36:48.001Z</time>
      </trkpt>
      <trkpt lat="50.52781" lon="2.84298">
        <ele>21.759</ele>
        <time>2019-09-17T11:37:18.001Z</time>
      </trkpt>
      <trkpt lat="50.5281" lon="2.8449">
        <ele>20.148</ele>
        <time>2019-09-17T11:37:48.001Z</time>
      </trkpt>
      <trkpt lat="50.52838" lon="2.84669">
        <ele>20.325</ele>
        <time>2019-09-17T11:38:18.001Z</time>
      </trkpt>
      <trkpt lat="50.52875" lon="2.84709">
        <ele>19.96</ele>
        <time>2019-09-17T11:42:39.001Z</time>
      </trkpt>
      <trkpt lat="50.5293" lon="2.84625">
        <ele>22.172</ele>
        <time>2019-09-17T11:43:09.001Z</time>
      </trkpt>
      <trkpt lat="50.52988" lon="2.84526">
        <ele>20.047</ele>
        <time>2019-09-17T11:43:42.001Z</time>
      </trkpt>
      <trkpt lat="50.5311" lon="2.84456">
        <ele>22.77</ele>
        <time>2019-09-17T11:44:12.001Z</time>
      </trkpt>
      <trkpt lat="50.53156" lon="2.84587">
        <ele>24.074</ele>
        <time>2019-09-17T11:44:42.001Z</time>
      </trkpt>
      <trkpt lat="50.53178" lon="2.84825">
        <ele>22.762</ele>
        <time>2019-09-17T11:45:12.001Z</time>
      </trkpt>
      <trkpt lat="50.53265" lon="2.84929">
        <ele>19.074</ele>
        <time>2019-09-17T11:45:42.001Z</time>
      </trkpt>
      <trkpt lat="50.53338" lon="2.84978">
        <ele>20.338</ele>
        <time>2019-09-17T11:46:12.001Z</time>
      </trkpt>
      <trkpt lat="50.53329" lon="2.85084">
        <ele>21.031</ele>
        <time>2019-09-17T11:47:45.001Z</time>
      </trkpt>
      <trkpt lat="50.53319" lon="2.85259">
        <ele>18.518</ele>
        <time>2019-09-17T11:48:15.001Z</time>
      </trkpt>
      <trkpt lat="50.53334" lon="2.85415">
        <ele>18.671</ele>
        <time>2019-09-17T11:48:45.001Z</time>
      </trkpt>
      <trkpt lat="50.5329" lon="2.8556">
        <ele>19.078</ele>
        <time>2019-09-17T11:49:15.001Z</time>
      </trkpt>
      <trkpt lat="50.53274" lon="2.85722">
        <ele>20.789</ele>
        <time>2019-09-17T11:49:45.001Z</time>
      </trkpt>
      <trkpt lat="50.53304" lon="2.85869">
        <ele>20.945</ele>
        <time>2019-09-17T11:50:15.001Z</time>
      </trkpt>
      <trkpt lat="50.53322" lon="2.8601">
        <ele>22.788</ele>
        <time>2019-09-17T11:50:45.001Z</time>
      </trkpt>
      <trkpt lat="50.53344" lon="2.86138">
        <ele>24.212</ele>
        <time>2019-09-17T11:51:15.001Z</time>
      </trkpt>
      <trkpt lat="50.53391" lon="2.86264">
        <ele>26.144</ele>
        <time>2019-09-17T11:51:45.001Z</time>
      </trkpt>
      <trkpt lat="50.5329" lon="2.86419">
        <ele>23.93</ele>
        <time>2019-09-17T11:52:15.001Z</time>
      </trkpt>
      <trkpt lat="50.5329" lon="2.86625">
        <ele>25.636</ele>
        <time>2019-09-17T11:52:45.001Z</time>
      </trkpt>
      <trkpt lat="50.53368" lon="2.8684">
        <ele>24.509</ele>
        <time>2019-09-17T11:53:15.001Z</time>
      </trkpt>
      <trkpt lat="50.53454" lon="2.87042">
        <ele>24.305</ele>
        <time>2019-09-17T11:53:45.001Z</time>
      </trkpt>
      <trkpt lat="50.53499" lon="2.87162">
        <ele>30.524</ele>
        <time>2019-09-17T11:54:15.001Z</time>
      </trkpt>
      <trkpt lat="50.53568" lon="2.87364">
        <ele>19.953</ele>
        <time>2019-09-17T11:54:48.001Z</time>
      </trkpt>
      <trkpt lat="50.53645" lon="2.87551">
        <ele>25.136</ele>
        <time>2019-09-17T11:55:18.001Z</time>
      </trkpt>
      <trkpt lat="50.53709" lon="2.87724">
        <ele>25.598</ele>
        <time>2019-09-17T11:55:48.001Z</time>
      </trkpt>
      <trkpt lat="50.53731" lon="2.87804">
        <ele>24.861</ele>
        <time>2019-09-17T11:57:36.001Z</time>
      </trkpt>
      <trkpt lat="50.53628" lon="2.87893">
        <ele>23.384</ele>
        <time>2019-09-17T11:58:09.001Z</time>
      </trkpt>
      <trkpt lat="50.53475" lon="2.87972">
        <ele>21.556</ele>
        <time>2019-09-17T11:58:39.001Z</time>
      </trkpt>
      <trkpt lat="50.53319" lon="2.87966">
        <ele>20.581</ele>
        <time>2019-09-17T11:59:09.001Z</time>
      </trkpt>
      <trkpt lat="50.53178" lon="2.88009">
        <ele>21.022</ele>
        <time>2019-09-17T11:59:39.001Z</time>
      </trkpt>
      <trkpt lat="50.53175" lon="2.88111">
        <ele>17.867</ele>
        <time>2019-09-17T12:00:09.001Z</time>
      </trkpt>
      <trkpt lat="50.53181" lon="2.88247">
        <ele>18.905</ele>
        <time>2019-09-17T12:00:39.001Z</time>
      </trkpt>
      <trkpt lat="50.53107" lon="2.88304">
        <ele>20.106</ele>
        <time>2019-09-17T12:01:09.001Z</time>
      </trkpt>
      <trkpt lat="50.53099" lon="2.88402">
        <ele>22.596</ele>
        <time>2019-09-17T12:01:39.001Z</time>
      </trkpt>
      <trkpt lat="50.53167" lon="2.88493">
        <ele>23.176</ele>
        <time>2019-09-17T12:02:09.001Z</time>
      </trkpt>
      <trkpt lat="50.53234" lon="2.88585">
        <ele>28.955</ele>
        <time>2019-09-17T12:02:39.001Z</time>
      </trkpt>
      <trkpt lat="50.53247" lon="2.88609">
        <ele>32.096</ele>
        <time>2019-09-17T12:03:21.001Z</time>
      </trkpt>
      <trkpt lat="50.53263" lon="2.88661">
        <ele>22.506</ele>
        <time>2019-09-17T12:06:39.001Z</time>
      </trkpt>
      <trkpt lat="50.53336" lon="2.88721">
        <ele>15.584</ele>
        <time>2019-09-17T12:07:09.001Z</time>
      </trkpt>
      <trkpt lat="50.53402" lon="2.88789">
        <ele>18.182</ele>
        <time>2019-09-17T12:07:39.001Z</time>
      </trkpt>
      <trkpt lat="50.53468" lon="2.88864">
        <ele>19.302</ele>
        <time>2019-09-17T12:08:09.001Z</time>
      </trkpt>
      <trkpt lat="50.53531" lon="2.88926">
        <ele>19.144</ele>
        <time>2019-09-17T12:08:39.001Z</time>
      </trkpt>
      <trkpt lat="50.5361" lon="2.88986">
        <ele>18.286</ele>
        <time>2019-09-17T12:09:12.001Z</time>
      </trkpt>
      <trkpt lat="50.53686" lon="2.8904">
        <ele>21.344</ele>
        <time>2019-09-17T12:09:42.001Z</time>
      </trkpt>
      <trkpt lat="50.53745" lon="2.89131">
        <ele>20.058</ele>
        <time>2019-09-17T12:10:12.001Z</time>
      </trkpt>
      <trkpt lat="50.53785" lon="2.89231">
        <ele>20.295</ele>
        <time>2019-09-17T12:10:42.001Z</time>
      </trkpt>
      <trkpt lat="50.53802" lon="2.8933">
        <ele>19.96</ele>
        <time>2019-09-17T12:11:12.001Z</time>
      </trkpt>
      <trkpt lat="50.53862" lon="2.89426">
        <ele>19.767</ele>
        <time>2019-09-17T12:11:42.001Z</time>
      </trkpt>
      <trkpt lat="50.53862" lon="2.89499">
        <ele>19.063</ele>
        <time>2019-09-17T12:12:12.001Z</time>
      </trkpt>
      <trkpt lat="50.53802" lon="2.8959">
        <ele>20.374</ele>
        <time>2019-09-17T12:12:42.001Z</time>
      </trkpt>
      <trkpt lat="50.53741" lon="2.89696">
        <ele>19.121</ele>
        <time>2019-09-17T12:13:12.001Z</time>
      </trkpt>
      <trkpt lat="50.5369" lon="2.89788">
        <ele>20.991</ele>
        <time>2019-09-17T12:13:42.001Z</time>
      </trkpt>
      <trkpt lat="50.53631" lon="2.89911">
        <ele>23.534</ele>
        <time>2019-09-17T12:14:12.001Z</time>
      </trkpt>
      <trkpt lat="50.53594" lon="2.90022">
        <ele>22.157</ele>
        <time>2019-09-17T12:14:42.001Z</time>
      </trkpt>
      <trkpt lat="50.53658" lon="2.90116">
        <ele>24.956</ele>
        <time>2019-09-17T12:15:12.001Z</time>
      </trkpt>
      <trkpt lat="50.53765" lon="2.9024">
        <ele>21.575</ele>
        <time>2019-09-17T12:15:42.001Z</time>
      </trkpt>
      <trkpt lat="50.53888" lon="2.90355">
        <ele>24.018</ele>
        <time>2019-09-17T12:16:12.001Z</time>
      </trkpt>
      <trkpt lat="50.54018" lon="2.90484">
        <ele>21.489</ele>
        <time>2019-09-17T12:16:42.001Z</time>
      </trkpt>
      <trkpt lat="50.54145" lon="2.90609">
        <ele>21.12</ele>
        <time>2019-09-17T12:17:12.001Z</time>
      </trkpt>
      <trkpt lat="50.54264" lon="2.90735">
        <ele>28.622</ele>
        <time>2019-09-17T12:17:42.001Z</time>
      </trkpt>
      <trkpt lat="50.54402" lon="2.90865">
        <ele>20.837</ele>
        <time>2019-09-17T12:18:12.001Z</time>
      </trkpt>
      <trkpt lat="50.54522" lon="2.90984">
        <ele>19.055</ele>
        <time>2019-09-17T12:18:42.001Z</time>
      </trkpt>
      <trkpt lat="50.54656" lon="2.9111">
        <ele>22.582</ele>
        <time>2019-09-17T12:19:15.001Z</time>
      </trkpt>
      <trkpt lat="50.54793" lon="2.91173">
        <ele>18.132</ele>
        <time>2019-09-17T12:19:45.001Z</time>
      </trkpt>
      <trkpt lat="50.5493" lon="2.91196">
        <ele>21.763</ele>
        <time>2019-09-17T12:20:15.001Z</time>
      </trkpt>
      <trkpt lat="50.55007" lon="2.9123">
        <ele>22.298</ele>
        <time>2019-09-17T12:22:18.001Z</time>
      </trkpt>
      <trkpt lat="50.55047" lon="2.91409">
        <ele>21.902</ele>
        <time>2019-09-17T12:22:48.001Z</time>
      </trkpt>
      <trkpt lat="50.55076" lon="2.91629">
        <ele>24.735</ele>
        <time>2019-09-17T12:23:18.001Z</time>
      </trkpt>
      <trkpt lat="50.55103" lon="2.91834">
        <ele>24.19</ele>
        <time>2019-09-17T12:23:48.001Z</time>
      </trkpt>
      <trkpt lat="50.55092" lon="2.91829">
        <ele>27.523</ele>
        <time>2019-09-17T12:24:51.001Z</time>
      </trkpt>
      <trkpt lat="50.5498" lon="2.91758">
        <ele>26.474</ele>
        <time>2019-09-17T12:25:21.001Z</time>
      </trkpt>
      <trkpt lat="50.54877" lon="2.91773">
        <ele>35.135</ele>
        <time>2019-09-17T12:25:51.001Z</time>
      </trkpt>
      <trkpt lat="50.54812" lon="2.92004">
        <ele>36.151</ele>
        <time>2019-09-17T12:26:21.001Z</time>
      </trkpt>
      <trkpt lat="50.5468" lon="2.92051">
        <ele>26.079</ele>
        <time>2019-09-17T12:26:51.001Z</time>
      </trkpt>
      <trkpt lat="50.54513" lon="2.92086">
        <ele>23.037</ele>
        <time>2019-09-17T12:27:21.001Z</time>
      </trkpt>
      <trkpt lat="50.54343" lon="2.92107">
        <ele>23.465</ele>
        <time>2019-09-17T12:27:51.001Z</time>
      </trkpt>
      <trkpt lat="50.54323" lon="2.92007">
        <ele>22.232</ele>
        <time>2019-09-17T12:34:09.001Z</time>
      </trkpt>
      <trkpt lat="50.54389" lon="2.91906">
        <ele>21.845</ele>
        <time>2019-09-17T12:34:39.001Z</time>
      </trkpt>
      <trkpt lat="50.54496" lon="2.91918">
        <ele>22.937</ele>
        <time>2019-09-17T12:35:09.002Z</time>
      </trkpt>
      <trkpt lat="50.54558" lon="2.91924">
        <ele>21.057</ele>
        <time>2019-09-17T12:36:21.001Z</time>
      </trkpt>
      <trkpt lat="50.54621" lon="2.91998">
        <ele>22.063</ele>
        <time>2019-09-17T12:36:51.001Z</time>
      </trkpt>
      <trkpt lat="50.54659" lon="2.92211">
        <ele>18.901</ele>
        <time>2019-09-17T12:37:21.001Z</time>
      </trkpt>
      <trkpt lat="50.54712" lon="2.92416">
        <ele>17.62</ele>
        <time>2019-09-17T12:37:54.001Z</time>
      </trkpt>
      <trkpt lat="50.54772" lon="2.92585">
        <ele>23.416</ele>
        <time>2019-09-17T12:38:24.001Z</time>
      </trkpt>
      <trkpt lat="50.54835" lon="2.92734">
        <ele>24.455</ele>
        <time>2019-09-17T12:38:54.001Z</time>
      </trkpt>
      <trkpt lat="50.54905" lon="2.92941">
        <ele>22.185</ele>
        <time>2019-09-17T12:39:24.001Z</time>
      </trkpt>
      <trkpt lat="50.54978" lon="2.93156">
        <ele>22.021</ele>
        <time>2019-09-17T12:39:54.001Z</time>
      </trkpt>
      <trkpt lat="50.5505" lon="2.93371">
        <ele>21.651</ele>
        <time>2019-09-17T12:40:24.001Z</time>
      </trkpt>
      <trkpt lat="50.55118" lon="2.93579">
        <ele>21.664</ele>
        <time>2019-09-17T12:40:54.001Z</time>
      </trkpt>
      <trkpt lat="50.55186" lon="2.93791">
        <ele>17.682</ele>
        <time>2019-09-17T12:41:24.001Z</time>
      </trkpt>
      <trkpt lat="50.55248" lon="2.93989">
        <ele>18.316</ele>
        <time>2019-09-17T12:41:54.001Z</time>
      </trkpt>
      <trkpt lat="50.55298" lon="2.94128">
        <ele>20.636</ele>
        <time>2019-09-17T12:42:24.001Z</time>
      </trkpt>
      <trkpt lat="50.55362" lon="2.94303">
        <ele>21.506</ele>
        <time>2019-09-17T12:42:54.001Z</time>
      </trkpt>
      <trkpt lat="50.55415" lon="2.94493">
        <ele>22.343</ele>
        <time>2019-09-17T12:43:24.001Z</time>
      </trkpt>
      <trkpt lat="50.5546" lon="2.94647">
        <ele>22.092</ele>
        <time>2019-09-17T12:43:54.001Z</time>
      </trkpt>
      <trkpt lat="50.55543" lon="2.94691">
        <ele>24.019</ele>
        <time>2019-09-17T12:44:24.001Z</time>
      </trkpt>
      <trkpt lat="50.5561" lon="2.94827">
        <ele>18.932</ele>
        <time>2019-09-17T12:44:54.001Z</time>
      </trkpt>
      <trkpt lat="50.55684" lon="2.94983">
        <ele>17.828</ele>
        <time>2019-09-17T12:45:24.001Z</time>
      </trkpt>
      <trkpt lat="50.55754" lon="2.95119">
        <ele>17.836</ele>
        <time>2019-09-17T12:45:54.001Z</time>
      </trkpt>
      <trkpt lat="50.55834" lon="2.95262">
        <ele>18.7</ele>
        <time>2019-09-17T12:46:24.001Z</time>
      </trkpt>
      <trkpt lat="50.55919" lon="2.95379">
        <ele>18.508</ele>
        <time>2019-09-17T12:46:54.001Z</time>
      </trkpt>
      <trkpt lat="50.56014" lon="2.95479">
        <ele>21.131</ele>
        <time>2019-09-17T12:47:24.001Z</time>
      </trkpt>
      <trkpt lat="50.56127" lon="2.95578">
        <ele>20.084</ele>
        <time>2019-09-17T12:47:57.001Z</time>
      </trkpt>
      <trkpt lat="50.56227" lon="2.95673">
        <ele>17.366</ele>
        <time>2019-09-17T12:48:27.001Z</time>
      </trkpt>
      <trkpt lat="50.56323" lon="2.95779">
        <ele>19.007</ele>
        <time>2019-09-17T12:48:57.001Z</time>
      </trkpt>
      <trkpt lat="50.56418" lon="2.95903">
        <ele>17.741</ele>
        <time>2019-09-17T12:49:27.001Z</time>
      </trkpt>
      <trkpt lat="50.56506" lon="2.96039">
        <ele>19.334</ele>
        <time>2019-09-17T12:49:57.001Z</time>
      </trkpt>
      <trkpt lat="50.56592" lon="2.96181">
        <ele>18.225</ele>
        <time>2019-09-17T12:50:27.001Z</time>
      </trkpt>
      <trkpt lat="50.56682" lon="2.96324">
        <ele>19.458</ele>
        <time>2019-09-17T12:50:57.001Z</time>
      </trkpt>
      <trkpt lat="50.5677" lon="2.9646">
        <ele>20.199</ele>
        <time>2019-09-17T12:51:27.001Z</time>
      </trkpt>
      <trkpt lat="50.56858" lon="2.96579">
        <ele>19.388</ele>
        <time>2019-09-17T12:51:57.001Z</time>
      </trkpt>
      <trkpt lat="50.56924" lon="2.96647">
        <ele>21.547</ele>
        <time>2019-09-17T12:52:27.001Z</time>
      </trkpt>
      <trkpt lat="50.56967" lon="2.96769">
        <ele>18.417</ele>
        <time>2019-09-17T12:52:57.001Z</time>
      </trkpt>
      <trkpt lat="50.5695" lon="2.96933">
        <ele>21.671</ele>
        <time>2019-09-17T12:53:27.001Z</time>
      </trkpt>
      <trkpt lat="50.56952" lon="2.97128">
        <ele>23.967</ele>
        <time>2019-09-17T12:53:57.001Z</time>
      </trkpt>
      <trkpt lat="50.56943" lon="2.97348">
        <ele>18.236</ele>
        <time>2019-09-17T12:54:27.001Z</time>
      </trkpt>
      <trkpt lat="50.56943" lon="2.97516">
        <ele>21.014</ele>
        <time>2019-09-17T12:54:57.001Z</time>
      </trkpt>
      <trkpt lat="50.56973" lon="2.97794">
        <ele>18.963</ele>
        <time>2019-09-17T12:55:27.001Z</time>
      </trkpt>
      <trkpt lat="50.57061" lon="2.97996">
        <ele>17.756</ele>
        <time>2019-09-17T12:55:57.001Z</time>
      </trkpt>
      <trkpt lat="50.57152" lon="2.98135">
        <ele>24.081</ele>
        <time>2019-09-17T12:56:27.001Z</time>
      </trkpt>
      <trkpt lat="50.57245" lon="2.98299">
        <ele>26.978</ele>
        <time>2019-09-17T12:56:57.001Z</time>
      </trkpt>
      <trkpt lat="50.57275" lon="2.98487">
        <ele>23.608</ele>
        <time>2019-09-17T12:57:27.001Z</time>
      </trkpt>
      <trkpt lat="50.5738" lon="2.98648">
        <ele>22.175</ele>
        <time>2019-09-17T12:58:00.000Z</time>
      </trkpt>
      <trkpt lat="50.57418" lon="2.98828">
        <ele>20.672</ele>
        <time>2019-09-17T12:58:30.001Z</time>
      </trkpt>
      <trkpt lat="50.57371" lon="2.99047">
        <ele>22.252</ele>
        <time>2019-09-17T12:59:00.000Z</time>
      </trkpt>
      <trkpt lat="50.57378" lon="2.99126">
        <ele>26.045</ele>
        <time>2019-09-17T13:00:57.001Z</time>
      </trkpt>
      <trkpt lat="50.57398" lon="2.99154">
        <ele>22.46</ele>
        <time>2019-09-17T13:03:06.001Z</time>
      </trkpt>
      <trkpt lat="50.57446" lon="2.99296">
        <ele>25.62</ele>
        <time>2019-09-17T13:03:36.001Z</time>
      </trkpt>
      <trkpt lat="50.57388" lon="2.99475">
        <ele>19.878</ele>
        <time>2019-09-17T13:04:06.001Z</time>
      </trkpt>
      <trkpt lat="50.57368" lon="2.9964">
        <ele>25.685</ele>
        <time>2019-09-17T13:04:36.001Z</time>
      </trkpt>
      <trkpt lat="50.57487" lon="2.99782">
        <ele>24.269</ele>
        <time>2019-09-17T13:05:06.001Z</time>
      </trkpt>
      <trkpt lat="50.5758" lon="2.99959">
        <ele>20.388</ele>
        <time>2019-09-17T13:05:36.001Z</time>
      </trkpt>
      <trkpt lat="50.57584" lon="3.00179">
        <ele>19.981</ele>
        <time>2019-09-17T13:06:06.001Z</time>
      </trkpt>
      <trkpt lat="50.57569" lon="3.00372">
        <ele>20.452</ele>
        <time>2019-09-17T13:06:36.001Z</time>
      </trkpt>
      <trkpt lat="50.57591" lon="3.00565">
        <ele>19.211</ele>
        <time>2019-09-17T13:07:06.001Z</time>
      </trkpt>
      <trkpt lat="50.57575" lon="3.00804">
        <ele>19.295</ele>
        <time>2019-09-17T13:07:36.001Z</time>
      </trkpt>
      <trkpt lat="50.57565" lon="3.01044">
        <ele>20.137</ele>
        <time>2019-09-17T13:08:06.001Z</time>
      </trkpt>
      <trkpt lat="50.57554" lon="3.01278">
        <ele>21.319</ele>
        <time>2019-09-17T13:08:36.001Z</time>
      </trkpt>
      <trkpt lat="50.57609" lon="3.01472">
        <ele>24.934</ele>
        <time>2019-09-17T13:09:06.001Z</time>
      </trkpt>
      <trkpt lat="50.57603" lon="3.01692">
        <ele>27.412</ele>
        <time>2019-09-17T13:09:36.001Z</time>
      </trkpt>
      <trkpt lat="50.57584" lon="3.01871">
        <ele>22.649</ele>
        <time>2019-09-17T13:10:06.001Z</time>
      </trkpt>
      <trkpt lat="50.57542" lon="3.02055">
        <ele>29.578</ele>
        <time>2019-09-17T13:10:36.001Z</time>
      </trkpt>
      <trkpt lat="50.57511" lon="3.02279">
        <ele>28.706</ele>
        <time>2019-09-17T13:11:09.001Z</time>
      </trkpt>
      <trkpt lat="50.57481" lon="3.02475">
        <ele>26.782</ele>
        <time>2019-09-17T13:11:39.001Z</time>
      </trkpt>
      <trkpt lat="50.57408" lon="3.02645">
        <ele>23.376</ele>
        <time>2019-09-17T13:12:09.001Z</time>
      </trkpt>
      <trkpt lat="50.5736" lon="3.02724">
        <ele>21.032</ele>
        <time>2019-09-17T13:13:06.001Z</time>
      </trkpt>
      <trkpt lat="50.57379" lon="3.02701">
        <ele>23.725</ele>
        <time>2019-09-17T13:15:15.001Z</time>
      </trkpt>
      <trkpt lat="50.57456" lon="3.02814">
        <ele>25.886</ele>
        <time>2019-09-17T13:15:45.001Z</time>
      </trkpt>
      <trkpt lat="50.57555" lon="3.02929">
        <ele>25.514</ele>
        <time>2019-09-17T13:16:15.001Z</time>
      </trkpt>
      <trkpt lat="50.5764" lon="3.03041">
        <ele>22.121</ele>
        <time>2019-09-17T13:16:45.001Z</time>
      </trkpt>
      <trkpt lat="50.57723" lon="3.03159">
        <ele>22.806</ele>
        <time>2019-09-17T13:17:15.001Z</time>
      </trkpt>
      <trkpt lat="50.57802" lon="3.03284">
        <ele>27.875</ele>
        <time>2019-09-17T13:17:45.001Z</time>
      </trkpt>
      <trkpt lat="50.57917" lon="3.03388">
        <ele>32.049</ele>
        <time>2019-09-17T13:18:15.001Z</time>
      </trkpt>
      <trkpt lat="50.58006" lon="3.03387">
        <ele>32.764</ele>
        <time>2019-09-17T13:18:51.001Z</time>
      </trkpt>
      <trkpt lat="50.58118" lon="3.03375">
        <ele>30.024</ele>
        <time>2019-09-17T13:19:21.001Z</time>
      </trkpt>
      <trkpt lat="50.58249" lon="3.03364">
        <ele>27.885</ele>
        <time>2019-09-17T13:19:51.001Z</time>
      </trkpt>
      <trkpt lat="50.5837" lon="3.03353">
        <ele>27.703</ele>
        <time>2019-09-17T13:20:21.001Z</time>
      </trkpt>
      <trkpt lat="50.58478" lon="3.03395">
        <ele>26.929</ele>
        <time>2019-09-17T13:20:51.001Z</time>
      </trkpt>
      <trkpt lat="50.58579" lon="3.03435">
        <ele>29.018</ele>
        <time>2019-09-17T13:21:21.001Z</time>
      </trkpt>
      <trkpt lat="50.58676" lon="3.03437">
        <ele>34.375</ele>
        <time>2019-09-17T13:21:51.001Z</time>
      </trkpt>
      <trkpt lat="50.5877" lon="3.03419">
        <ele>38.585</ele>
        <time>2019-09-17T13:22:21.001Z</time>
      </trkpt>
      <trkpt lat="50.58858" lon="3.03436">
        <ele>37.156</ele>
        <time>2019-09-17T13:22:51.001Z</time>
      </trkpt>
      <trkpt lat="50.58959" lon="3.0347">
        <ele>37.498</ele>
        <time>2019-09-17T13:23:24.001Z</time>
      </trkpt>
      <trkpt lat="50.59046" lon="3.03513">
        <ele>37.707</ele>
        <time>2019-09-17T13:23:54.001Z</time>
      </trkpt>
      <trkpt lat="50.59152" lon="3.03549">
        <ele>36.812</ele>
        <time>2019-09-17T13:24:24.001Z</time>
      </trkpt>
      <trkpt lat="50.59262" lon="3.03613">
        <ele>34.027</ele>
        <time>2019-09-17T13:24:54.001Z</time>
      </trkpt>
      <trkpt lat="50.59369" lon="3.03669">
        <ele>36.545</ele>
        <time>2019-09-17T13:25:24.001Z</time>
      </trkpt>
      <trkpt lat="50.59473" lon="3.03719">
        <ele>38.842</ele>
        <time>2019-09-17T13:25:54.001Z</time>
      </trkpt>
      <trkpt lat="50.59578" lon="3.03761">
        <ele>40.47</ele>
        <time>2019-09-17T13:26:24.001Z</time>
      </trkpt>
      <trkpt lat="50.59672" lon="3.038">
        <ele>42.564</ele>
        <time>2019-09-17T13:26:54.001Z</time>
      </trkpt>
      <trkpt lat="50.59775" lon="3.0383">
        <ele>45.492</ele>
        <time>2019-09-17T13:27:24.001Z</time>
      </trkpt>
      <trkpt lat="50.59895" lon="3.03864">
        <ele>47.063</ele>
        <time>2019-09-17T13:27:54.001Z</time>
      </trkpt>
      <trkpt lat="50.60057" lon="3.03926">
        <ele>42.942</ele>
        <time>2019-09-17T13:28:24.001Z</time>
      </trkpt>
      <trkpt lat="50.60147" lon="3.03962">
        <ele>44.372</ele>
        <time>2019-09-17T13:29:09.001Z</time>
      </trkpt>
      <trkpt lat="50.60263" lon="3.04032">
        <ele>46.939</ele>
        <time>2019-09-17T13:29:39.001Z</time>
      </trkpt>
      <trkpt lat="50.60399" lon="3.04123">
        <ele>53.461</ele>
        <time>2019-09-17T13:30:09.001Z</time>
      </trkpt>
      <trkpt lat="50.60539" lon="3.04206">
        <ele>55.831</ele>
        <time>2019-09-17T13:30:39.001Z</time>
      </trkpt>
      <trkpt lat="50.60668" lon="3.04295">
        <ele>52.884</ele>
        <time>2019-09-17T13:31:09.001Z</time>
      </trkpt>
      <trkpt lat="50.60747" lon="3.04342">
        <ele>57.361</ele>
        <time>2019-09-17T13:32:00.000Z</time>
      </trkpt>
      <trkpt lat="50.6089" lon="3.04438">
        <ele>55.422</ele>
        <time>2019-09-17T13:32:30.001Z</time>
      </trkpt>
      <trkpt lat="50.61037" lon="3.04525">
        <ele>55.801</ele>
        <time>2019-09-17T13:33:00.000Z</time>
      </trkpt>
      <trkpt lat="50.61165" lon="3.04608">
        <ele>52.892</ele>
        <time>2019-09-17T13:33:30.001Z</time>
      </trkpt>
      <trkpt lat="50.61249" lon="3.0467">
        <ele>54.592</ele>
        <time>2019-09-17T13:34:36.001Z</time>
      </trkpt>
      <trkpt lat="50.61406" lon="3.04774">
        <ele>54.487</ele>
        <time>2019-09-17T13:35:06.001Z</time>
      </trkpt>
      <trkpt lat="50.61521" lon="3.04842">
        <ele>51.02</ele>
        <time>2019-09-17T13:35:36.001Z</time>
      </trkpt>
      <trkpt lat="50.61662" lon="3.04825">
        <ele>42.675</ele>
        <time>2019-09-17T13:36:06.001Z</time>
      </trkpt>
      <trkpt lat="50.61787" lon="3.04994">
        <ele>37.593</ele>
        <time>2019-09-17T13:36:36.001Z</time>
      </trkpt>
      <trkpt lat="50.61805" lon="3.05229">
        <ele>29.852</ele>
        <time>2019-09-17T13:37:06.001Z</time>
      </trkpt>
      <trkpt lat="50.61788" lon="3.05484">
        <ele>30.277</ele>
        <time>2019-09-17T13:37:36.001Z</time>
      </trkpt>
      <trkpt lat="50.61772" lon="3.05751">
        <ele>35.32</ele>
        <time>2019-09-17T13:38:06.001Z</time>
      </trkpt>
      <trkpt lat="50.61752" lon="3.06005">
        <ele>38.606</ele>
        <time>2019-09-17T13:38:36.001Z</time>
      </trkpt>
      <trkpt lat="50.6174" lon="3.06242">
        <ele>34.253</ele>
        <time>2019-09-17T13:39:06.001Z</time>
      </trkpt>
      <trkpt lat="50.61756" lon="3.06552">
        <ele>37.251</ele>
        <time>2019-09-17T13:39:36.001Z</time>
      </trkpt>
      <trkpt lat="50.61758" lon="3.06783">
        <ele>42.405</ele>
        <time>2019-09-17T13:40:06.001Z</time>
      </trkpt>
      <trkpt lat="50.6177" lon="3.07051">
        <ele>40.944</ele>
        <time>2019-09-17T13:40:36.001Z</time>
      </trkpt>
      <trkpt lat="50.61793" lon="3.07281">
        <ele>53.384</ele>
        <time>2019-09-17T13:41:06.001Z</time>
      </trkpt>
      <trkpt lat="50.61811" lon="3.07387">
        <ele>52.98</ele>
        <time>2019-09-17T13:42:15.001Z</time>
      </trkpt>
      <trkpt lat="50.61859" lon="3.0758">
        <ele>51.265</ele>
        <time>2019-09-17T13:42:45.001Z</time>
      </trkpt>
      <trkpt lat="50.61931" lon="3.07767">
        <ele>51.162</ele>
        <time>2019-09-17T13:43:15.001Z</time>
      </trkpt>
      <trkpt lat="50.62053" lon="3.07891">
        <ele>47.123</ele>
        <time>2019-09-17T13:43:45.001Z</time>
      </trkpt>
      <trkpt lat="50.62192" lon="3.07934">
        <ele>48.717</ele>
        <time>2019-09-17T13:44:15.001Z</time>
      </trkpt>
      <trkpt lat="50.62304" lon="3.0803">
        <ele>56.114</ele>
        <time>2019-09-17T13:44:45.001Z</time>
      </trkpt>
      <trkpt lat="50.62379" lon="3.08105">
        <ele>78.22</ele>
        <time>2019-09-17T13:45:18.001Z</time>
      </trkpt>
      <trkpt lat="50.62346" lon="3.08324">
        <ele>59.277</ele>
        <time>2019-09-17T13:45:48.001Z</time>
      </trkpt>
      <trkpt lat="50.62299" lon="3.08382">
        <ele>47.021</ele>
        <time>2019-09-17T13:46:33.001Z</time>
      </trkpt>
      <trkpt lat="50.6221" lon="3.08517">
        <ele>32.3</ele>
        <time>2019-09-17T13:47:03.001Z</time>
      </trkpt>
      <trkpt lat="50.62162" lon="3.08597">
        <ele>31.844</ele>
        <time>2019-09-17T13:47:33.001Z</time>
      </trkpt>
      <trkpt lat="50.62132" lon="3.08689">
        <ele>35.273</ele>
        <time>2019-09-17T13:48:27.001Z</time>
      </trkpt>
      <trkpt lat="50.62186" lon="3.08865">
        <ele>34.47</ele>
        <time>2019-09-17T13:48:57.001Z</time>
      </trkpt>
      <trkpt lat="50.62245" lon="3.09053">
        <ele>36.649</ele>
        <time>2019-09-17T13:49:27.001Z</time>
      </trkpt>
      <trkpt lat="50.6228" lon="3.09169">
        <ele>39.138</ele>
        <time>2019-09-17T13:50:21.001Z</time>
      </trkpt>
      <trkpt lat="50.62369" lon="3.09418">
        <ele>54.344</ele>
        <time>2019-09-17T13:50:51.001Z</time>
      </trkpt>
      <trkpt lat="50.62435" lon="3.09661">
        <ele>54.159</ele>
        <time>2019-09-17T13:51:21.001Z</time>
      </trkpt>
      <trkpt lat="50.62478" lon="3.09907">
        <ele>48.73</ele>
        <time>2019-09-17T13:51:51.001Z</time>
      </trkpt>
      <trkpt lat="50.6251" lon="3.10121">
        <ele>49.149</ele>
        <time>2019-09-17T13:52:21.001Z</time>
      </trkpt>
      <trkpt lat="50.62552" lon="3.10339">
        <ele>44.791</ele>
        <time>2019-09-17T13:52:51.001Z</time>
      </trkpt>
      <trkpt lat="50.62619" lon="3.10558">
        <ele>48.522</ele>
        <time>2019-09-17T13:53:21.001Z</time>
      </trkpt>
      <trkpt lat="50.62698" lon="3.10747">
        <ele>55.382</ele>
        <time>2019-09-17T13:53:51.001Z</time>
      </trkpt>
      <trkpt lat="50.62726" lon="3.10806">
        <ele>49.93</ele>
        <time>2019-09-17T13:54:45.001Z</time>
      </trkpt>
      <trkpt lat="50.62705" lon="3.1092">
        <ele>40.951</ele>
        <time>2019-09-17T13:55:15.001Z</time>
      </trkpt>
      <trkpt lat="50.62632" lon="3.11108">
        <ele>42.256</ele>
        <time>2019-09-17T13:55:45.001Z</time>
      </trkpt>
      <trkpt lat="50.62565" lon="3.11307">
        <ele>52.781</ele>
        <time>2019-09-17T13:56:15.001Z</time>
      </trkpt>
      <trkpt lat="50.62547" lon="3.11531">
        <ele>55.311</ele>
        <time>2019-09-17T13:56:48.001Z</time>
      </trkpt>
      <trkpt lat="50.62476" lon="3.11728">
        <ele>48.911</ele>
        <time>2019-09-17T13:57:18.001Z</time>
      </trkpt>
      <trkpt lat="50.62433" lon="3.11927">
        <ele>44.843</ele>
        <time>2019-09-17T13:57:48.001Z</time>
      </trkpt>
      <trkpt lat="50.62432" lon="3.12054">
        <ele>37.012</ele>
        <time>2019-09-17T13:58:18.001Z</time>
      </trkpt>
      <trkpt lat="50.62424" lon="3.12196">
        <ele>38.172</ele>
        <time>2019-09-17T13:58:48.001Z</time>
      </trkpt>
      <trkpt lat="50.6241" lon="3.12333">
        <ele>38.91</ele>
        <time>2019-09-17T13:59:18.001Z</time>
      </trkpt>
      <trkpt lat="50.62367" lon="3.12489">
        <ele>43.195</ele>
        <time>2019-09-17T13:59:48.001Z</time>
      </trkpt>
      <trkpt lat="50.62303" lon="3.12767">
        <ele>42.71</ele>
        <time>2019-09-17T14:00:18.001Z</time>
      </trkpt>
      <trkpt lat="50.62299" lon="3.12807">
        <ele>38.515</ele>
        <time>2019-09-17T14:01:30.001Z</time>
      </trkpt>
      <trkpt lat="50.62225" lon="3.12823">
        <ele>37.902</ele>
        <time>2019-09-17T14:02:21.001Z</time>
      </trkpt>
      <trkpt lat="50.62193" lon="3.13033">
        <ele>49.313</ele>
        <time>2019-09-17T14:02:51.001Z</time>
      </trkpt>
      <trkpt lat="50.62179" lon="3.13261">
        <ele>58.79</ele>
        <time>2019-09-17T14:03:21.001Z</time>
      </trkpt>
      <trkpt lat="50.62128" lon="3.13523">
        <ele>48.197</ele>
        <time>2019-09-17T14:03:51.001Z</time>
      </trkpt>
      <trkpt lat="50.62054" lon="3.13722">
        <ele>37.631</ele>
        <time>2019-09-17T14:04:21.001Z</time>
      </trkpt>
      <trkpt lat="50.61999" lon="3.13893">
        <ele>38.858</ele>
        <time>2019-09-17T14:04:51.001Z</time>
      </trkpt>
      <trkpt lat="50.61949" lon="3.1407">
        <ele>35.346</ele>
        <time>2019-09-17T14:05:21.001Z</time>
      </trkpt>
      <trkpt lat="50.61905" lon="3.14213">
        <ele>35.941</ele>
        <time>2019-09-17T14:05:51.001Z</time>
      </trkpt>
      <trkpt lat="50.61858" lon="3.14339">
        <ele>35.18</ele>
        <time>2019-09-17T14:06:48.001Z</time>
      </trkpt>
      <trkpt lat="50.61793" lon="3.14531">
        <ele>34.703</ele>
        <time>2019-09-17T14:07:18.001Z</time>
      </trkpt>
      <trkpt lat="50.61749" lon="3.1471">
        <ele>37.496</ele>
        <time>2019-09-17T14:07:48.001Z</time>
      </trkpt>
      <trkpt lat="50.61695" lon="3.14908">
        <ele>38.665</ele>
        <time>2019-09-17T14:08:21.001Z</time>
      </trkpt>
      <trkpt lat="50.61635" lon="3.15085">
        <ele>36.294</ele>
        <time>2019-09-17T14:08:51.001Z</time>
      </trkpt>
      <trkpt lat="50.61571" lon="3.15257">
        <ele>39.855</ele>
        <time>2019-09-17T14:09:21.001Z</time>
      </trkpt>
      <trkpt lat="50.61514" lon="3.1543">
        <ele>46.151</ele>
        <time>2019-09-17T14:09:51.001Z</time>
      </trkpt>
      <trkpt lat="50.61443" lon="3.15597">
        <ele>44.58</ele>
        <time>2019-09-17T14:10:21.001Z</time>
      </trkpt>
      <trkpt lat="50.61365" lon="3.15751">
        <ele>51.385</ele>
        <time>2019-09-17T14:10:51.001Z</time>
      </trkpt>
      <trkpt lat="50.61275" lon="3.15913">
        <ele>51.427</ele>
        <time>2019-09-17T14:11:21.001Z</time>
      </trkpt>
      <trkpt lat="50.61191" lon="3.16044">
        <ele>48.44</ele>
        <time>2019-09-17T14:11:51.001Z</time>
      </trkpt>
      <trkpt lat="50.61144" lon="3.16113">
        <ele>48.659</ele>
        <time>2019-09-17T14:12:30.001Z</time>
      </trkpt>
      <trkpt lat="50.61062" lon="3.16258">
        <ele>49.338</ele>
        <time>2019-09-17T14:13:00.000Z</time>
      </trkpt>
      <trkpt lat="50.60983" lon="3.16423">
        <ele>42.582</ele>
        <time>2019-09-17T14:13:30.001Z</time>
      </trkpt>
      <trkpt lat="50.60929" lon="3.16572">
        <ele>36.952</ele>
        <time>2019-09-17T14:14:00.000Z</time>
      </trkpt>
      <trkpt lat="50.60894" lon="3.16778">
        <ele>39</ele>
        <time>2019-09-17T14:14:30.001Z</time>
      </trkpt>
      <trkpt lat="50.60877" lon="3.17003">
        <ele>38.365</ele>
        <time>2019-09-17T14:15:00.000Z</time>
      </trkpt>
      <trkpt lat="50.60876" lon="3.17214">
        <ele>41.152</ele>
        <time>2019-09-17T14:15:30.001Z</time>
      </trkpt>
      <trkpt lat="50.60882" lon="3.17402">
        <ele>39.771</ele>
        <time>2019-09-17T14:16:00.000Z</time>
      </trkpt>
      <trkpt lat="50.60901" lon="3.17601">
        <ele>35.949</ele>
        <time>2019-09-17T14:16:30.001Z</time>
      </trkpt>
      <trkpt lat="50.60923" lon="3.17796">
        <ele>35.287</ele>
        <time>2019-09-17T14:17:00.000Z</time>
      </trkpt>
      <trkpt lat="50.60937" lon="3.17993">
        <ele>35.494</ele>
        <time>2019-09-17T14:17:30.001Z</time>
      </trkpt>
      <trkpt lat="50.60961" lon="3.18189">
        <ele>35.805</ele>
        <time>2019-09-17T14:18:00.000Z</time>
      </trkpt>
      <trkpt lat="50.61011" lon="3.18418">
        <ele>37.071</ele>
        <time>2019-09-17T14:18:33.001Z</time>
      </trkpt>
      <trkpt lat="50.61074" lon="3.18609">
        <ele>33.901</ele>
        <time>2019-09-17T14:19:03.001Z</time>
      </trkpt>
      <trkpt lat="50.61128" lon="3.18828">
        <ele>34.613</ele>
        <time>2019-09-17T14:19:33.001Z</time>
      </trkpt>
      <trkpt lat="50.61147" lon="3.19022">
        <ele>40.002</ele>
        <time>2019-09-17T14:20:03.001Z</time>
      </trkpt>
      <trkpt lat="50.6116" lon="3.19257">
        <ele>36.269</ele>
        <time>2019-09-17T14:20:33.001Z</time>
      </trkpt>
      <trkpt lat="50.61158" lon="3.19499">
        <ele>27.955</ele>
        <time>2019-09-17T14:21:03.001Z</time>
      </trkpt>
      <trkpt lat="50.6114" lon="3.19716">
        <ele>35.506</ele>
        <time>2019-09-17T14:21:33.001Z</time>
      </trkpt>
      <trkpt lat="50.61134" lon="3.19882">
        <ele>42.466</ele>
        <time>2019-09-17T14:22:03.001Z</time>
      </trkpt>
      <trkpt lat="50.61119" lon="3.20066">
        <ele>43.511</ele>
        <time>2019-09-17T14:22:33.001Z</time>
      </trkpt>
      <trkpt lat="50.61117" lon="3.20251">
        <ele>42.957</ele>
        <time>2019-09-17T14:23:03.001Z</time>
      </trkpt>
      <trkpt lat="50.61067" lon="3.20412">
        <ele>37.892</ele>
        <time>2019-09-17T14:23:33.001Z</time>
      </trkpt>
      <trkpt lat="50.6105" lon="3.20597">
        <ele>36.796</ele>
        <time>2019-09-17T14:24:03.001Z</time>
      </trkpt>
      <trkpt lat="50.6105" lon="3.20822">
        <ele>37.948</ele>
        <time>2019-09-17T14:24:33.001Z</time>
      </trkpt>
      <trkpt lat="50.61026" lon="3.21016">
        <ele>39.05</ele>
        <time>2019-09-17T14:25:03.001Z</time>
      </trkpt>
      <trkpt lat="50.60981" lon="3.21206">
        <ele>40.696</ele>
        <time>2019-09-17T14:25:33.001Z</time>
      </trkpt>
      <trkpt lat="50.60978" lon="3.21435">
        <ele>34.895</ele>
        <time>2019-09-17T14:26:03.001Z</time>
      </trkpt>
      <trkpt lat="50.60975" lon="3.21687">
        <ele>32.112</ele>
        <time>2019-09-17T14:26:33.001Z</time>
      </trkpt>
      <trkpt lat="50.60981" lon="3.21918">
        <ele>33.182</ele>
        <time>2019-09-17T14:27:03.001Z</time>
      </trkpt>
      <trkpt lat="50.60988" lon="3.22132">
        <ele>31.447</ele>
        <time>2019-09-17T14:27:33.001Z</time>
      </trkpt>
      <trkpt lat="50.61017" lon="3.22365">
        <ele>34.466</ele>
        <time>2019-09-17T14:28:03.001Z</time>
      </trkpt>
      <trkpt lat="50.61014" lon="3.22597">
        <ele>31.711</ele>
        <time>2019-09-17T14:28:36.001Z</time>
      </trkpt>
      <trkpt lat="50.60993" lon="3.22809">
        <ele>37.478</ele>
        <time>2019-09-17T14:29:06.001Z</time>
      </trkpt>
      <trkpt lat="50.60981" lon="3.2296">
        <ele>42.983</ele>
        <time>2019-09-17T14:29:36.001Z</time>
      </trkpt>
      <trkpt lat="50.61138" lon="3.2298">
        <ele>42.43</ele>
        <time>2019-09-17T14:30:06.001Z</time>
      </trkpt>
      <trkpt lat="50.61307" lon="3.23021">
        <ele>33.991</ele>
        <time>2019-09-17T14:30:36.001Z</time>
      </trkpt>
      <trkpt lat="50.61451" lon="3.23097">
        <ele>26.976</ele>
        <time>2019-09-17T14:31:06.001Z</time>
      </trkpt>
      <trkpt lat="50.61565" lon="3.23243">
        <ele>28.03</ele>
        <time>2019-09-17T14:31:36.001Z</time>
      </trkpt>
      <trkpt lat="50.61578" lon="3.23446">
        <ele>38.626</ele>
        <time>2019-09-17T14:32:06.001Z</time>
      </trkpt>
      <trkpt lat="50.61524" lon="3.23667">
        <ele>33.191</ele>
        <time>2019-09-17T14:32:36.001Z</time>
      </trkpt>
      <trkpt lat="50.6151" lon="3.23869">
        <ele>24.132</ele>
        <time>2019-09-17T14:33:06.001Z</time>
      </trkpt>
      <trkpt lat="50.61448" lon="3.23996">
        <ele>25.903</ele>
        <time>2019-09-17T14:33:36.001Z</time>
      </trkpt>
      <trkpt lat="50.61332" lon="3.24003">
        <ele>23.106</ele>
        <time>2019-09-17T14:34:06.001Z</time>
      </trkpt>
      <trkpt lat="50.61281" lon="3.24042">
        <ele>25.493</ele>
        <time>2019-09-17T14:34:51.001Z</time>
      </trkpt>
      <trkpt lat="50.61224" lon="3.2411">
        <ele>29.197</ele>
        <time>2019-09-17T14:39:48.001Z</time>
      </trkpt>
      <trkpt lat="50.61175" lon="3.24192">
        <ele>31.787</ele>
        <time>2019-09-17T14:41:03.001Z</time>
      </trkpt>
      <trkpt lat="50.611" lon="3.24343">
        <ele>30.424</ele>
        <time>2019-09-17T14:41:33.001Z</time>
      </trkpt>
      <trkpt lat="50.6106" lon="3.24516">
        <ele>30.222</ele>
        <time>2019-09-17T14:42:03.001Z</time>
      </trkpt>
      <trkpt lat="50.61025" lon="3.24661">
        <ele>30.935</ele>
        <time>2019-09-17T14:42:33.001Z</time>
      </trkpt>
      <trkpt lat="50.61142" lon="3.24784">
        <ele>27.513</ele>
        <time>2019-09-17T14:43:03.001Z</time>
      </trkpt>
      <trkpt lat="50.61269" lon="3.24894">
        <ele>32.271</ele>
        <time>2019-09-17T14:43:33.001Z</time>
      </trkpt>
      <trkpt lat="50.61264" lon="3.25102">
        <ele>26.429</ele>
        <time>2019-09-17T14:44:06.001Z</time>
      </trkpt>
      <trkpt lat="50.61215" lon="3.25274">
        <ele>28.374</ele>
        <time>2019-09-17T14:44:36.001Z</time>
      </trkpt>
      <trkpt lat="50.61165" lon="3.25453">
        <ele>31.456</ele>
        <time>2019-09-17T14:45:06.001Z</time>
      </trkpt>
      <trkpt lat="50.61106" lon="3.2562">
        <ele>29.535</ele>
        <time>2019-09-17T14:45:36.001Z</time>
      </trkpt>
      <trkpt lat="50.60996" lon="3.25515">
        <ele>34.463</ele>
        <time>2019-09-17T14:46:06.001Z</time>
      </trkpt>
      <trkpt lat="50.60887" lon="3.25416">
        <ele>36.886</ele>
        <time>2019-09-17T14:46:36.001Z</time>
      </trkpt>
      <trkpt lat="50.60848" lon="3.2538">
        <ele>38.43</ele>
        <time>2019-09-17T14:50:30.001Z</time>
      </trkpt>
      <trkpt lat="50.60819" lon="3.25364">
        <ele>37.1</ele>
        <time>2019-09-17T14:51:48.001Z</time>
      </trkpt>
      <trkpt lat="50.6081" lon="3.25363">
        <ele>35.669</ele>
        <time>2019-09-17T14:53:21.001Z</time>
      </trkpt>
      <trkpt lat="50.60811" lon="3.25365">
        <ele>35.427</ele>
        <time>2019-09-17T14:54:18.001Z</time>
      </trkpt>
    </trkseg>
  </trk>
  <trk>
    <name><![CDATA[Tracé 20190918-144508]]></name>
    <trkseg>
      <trkpt lat="50.60828" lon="3.25373">
        <ele>31.575</ele>
        <time>2019-09-18T12:46:32.000Z</time>
      </trkpt>
      <trkpt lat="50.60823" lon="3.25318">
        <ele>34.327</ele>
        <time>2019-09-18T12:49:23.000Z</time>
      </trkpt>
      <trkpt lat="50.60719" lon="3.25376">
        <ele>40.035</ele>
        <time>2019-09-18T12:49:56.000Z</time>
      </trkpt>
      <trkpt lat="50.60659" lon="3.25567">
        <ele>38.469</ele>
        <time>2019-09-18T12:50:26.000Z</time>
      </trkpt>
      <trkpt lat="50.60663" lon="3.25767">
        <ele>38.842</ele>
        <time>2019-09-18T12:50:56.000Z</time>
      </trkpt>
      <trkpt lat="50.60684" lon="3.25977">
        <ele>36.549</ele>
        <time>2019-09-18T12:51:26.000Z</time>
      </trkpt>
      <trkpt lat="50.60713" lon="3.26228">
        <ele>34.794</ele>
        <time>2019-09-18T12:51:56.000Z</time>
      </trkpt>
      <trkpt lat="50.60751" lon="3.265">
        <ele>36.666</ele>
        <time>2019-09-18T12:52:29.000Z</time>
      </trkpt>
      <trkpt lat="50.60787" lon="3.26735">
        <ele>36.249</ele>
        <time>2019-09-18T12:52:59.000Z</time>
      </trkpt>
      <trkpt lat="50.60792" lon="3.26966">
        <ele>36.824</ele>
        <time>2019-09-18T12:53:29.000Z</time>
      </trkpt>
      <trkpt lat="50.60791" lon="3.27195">
        <ele>35.62</ele>
        <time>2019-09-18T12:53:59.000Z</time>
      </trkpt>
      <trkpt lat="50.60816" lon="3.27454">
        <ele>37.856</ele>
        <time>2019-09-18T12:54:32.000Z</time>
      </trkpt>
      <trkpt lat="50.60813" lon="3.27704">
        <ele>35.88</ele>
        <time>2019-09-18T12:55:02.000Z</time>
      </trkpt>
      <trkpt lat="50.60802" lon="3.27935">
        <ele>35.543</ele>
        <time>2019-09-18T12:55:32.000Z</time>
      </trkpt>
      <trkpt lat="50.60806" lon="3.28154">
        <ele>37.616</ele>
        <time>2019-09-18T12:56:02.000Z</time>
      </trkpt>
      <trkpt lat="50.60807" lon="3.28376">
        <ele>37.277</ele>
        <time>2019-09-18T12:56:35.000Z</time>
      </trkpt>
      <trkpt lat="50.60808" lon="3.2858">
        <ele>37.329</ele>
        <time>2019-09-18T12:57:05.000Z</time>
      </trkpt>
      <trkpt lat="50.60809" lon="3.28795">
        <ele>38.689</ele>
        <time>2019-09-18T12:57:35.000Z</time>
      </trkpt>
      <trkpt lat="50.60816" lon="3.29017">
        <ele>38.895</ele>
        <time>2019-09-18T12:58:05.000Z</time>
      </trkpt>
      <trkpt lat="50.60723" lon="3.29082">
        <ele>42.474</ele>
        <time>2019-09-18T12:58:35.000Z</time>
      </trkpt>
      <trkpt lat="50.60715" lon="3.29247">
        <ele>39.977</ele>
        <time>2019-09-18T12:59:08.000Z</time>
      </trkpt>
      <trkpt lat="50.60753" lon="3.29415">
        <ele>43.732</ele>
        <time>2019-09-18T12:59:38.000Z</time>
      </trkpt>
      <trkpt lat="50.60785" lon="3.29635">
        <ele>43.75</ele>
        <time>2019-09-18T13:00:08.000Z</time>
      </trkpt>
      <trkpt lat="50.6081" lon="3.29869">
        <ele>43.921</ele>
        <time>2019-09-18T13:00:38.000Z</time>
      </trkpt>
      <trkpt lat="50.6083" lon="3.30123">
        <ele>45.249</ele>
        <time>2019-09-18T13:01:11.000Z</time>
      </trkpt>
      <trkpt lat="50.60823" lon="3.30349">
        <ele>46.697</ele>
        <time>2019-09-18T13:01:41.000Z</time>
      </trkpt>
      <trkpt lat="50.60808" lon="3.30582">
        <ele>43.329</ele>
        <time>2019-09-18T13:02:11.000Z</time>
      </trkpt>
      <trkpt lat="50.60752" lon="3.30832">
        <ele>44.36</ele>
        <time>2019-09-18T13:02:41.000Z</time>
      </trkpt>
      <trkpt lat="50.60682" lon="3.31146">
        <ele>42.528</ele>
        <time>2019-09-18T13:03:11.000Z</time>
      </trkpt>
      <trkpt lat="50.60613" lon="3.31444">
        <ele>39.252</ele>
        <time>2019-09-18T13:03:44.000Z</time>
      </trkpt>
      <trkpt lat="50.60525" lon="3.31674">
        <ele>36.899</ele>
        <time>2019-09-18T13:04:14.000Z</time>
      </trkpt>
      <trkpt lat="50.60444" lon="3.31905">
        <ele>38.765</ele>
        <time>2019-09-18T13:04:44.000Z</time>
      </trkpt>
      <trkpt lat="50.60412" lon="3.3214">
        <ele>38.802</ele>
        <time>2019-09-18T13:05:14.000Z</time>
      </trkpt>
      <trkpt lat="50.60422" lon="3.32397">
        <ele>41.776</ele>
        <time>2019-09-18T13:05:47.000Z</time>
      </trkpt>
      <trkpt lat="50.60424" lon="3.32605">
        <ele>44.725</ele>
        <time>2019-09-18T13:06:17.000Z</time>
      </trkpt>
      <trkpt lat="50.60429" lon="3.32839">
        <ele>42.918</ele>
        <time>2019-09-18T13:06:47.000Z</time>
      </trkpt>
      <trkpt lat="50.60431" lon="3.33067">
        <ele>42.893</ele>
        <time>2019-09-18T13:07:17.000Z</time>
      </trkpt>
      <trkpt lat="50.60433" lon="3.33289">
        <ele>47.215</ele>
        <time>2019-09-18T13:07:50.000Z</time>
      </trkpt>
      <trkpt lat="50.60414" lon="3.33502">
        <ele>48.217</ele>
        <time>2019-09-18T13:08:20.000Z</time>
      </trkpt>
      <trkpt lat="50.60393" lon="3.33696">
        <ele>47.348</ele>
        <time>2019-09-18T13:08:50.000Z</time>
      </trkpt>
      <trkpt lat="50.60365" lon="3.33913">
        <ele>49.163</ele>
        <time>2019-09-18T13:09:20.000Z</time>
      </trkpt>
      <trkpt lat="50.60349" lon="3.34196">
        <ele>46.447</ele>
        <time>2019-09-18T13:09:50.000Z</time>
      </trkpt>
      <trkpt lat="50.60331" lon="3.34509">
        <ele>42.319</ele>
        <time>2019-09-18T13:10:23.000Z</time>
      </trkpt>
      <trkpt lat="50.60367" lon="3.34722">
        <ele>47.266</ele>
        <time>2019-09-18T13:10:53.000Z</time>
      </trkpt>
      <trkpt lat="50.604" lon="3.3497">
        <ele>46.191</ele>
        <time>2019-09-18T13:11:23.000Z</time>
      </trkpt>
      <trkpt lat="50.60434" lon="3.35253">
        <ele>44.832</ele>
        <time>2019-09-18T13:11:53.000Z</time>
      </trkpt>
      <trkpt lat="50.60431" lon="3.35546">
        <ele>45.87</ele>
        <time>2019-09-18T13:12:26.000Z</time>
      </trkpt>
      <trkpt lat="50.60447" lon="3.35792">
        <ele>43.24</ele>
        <time>2019-09-18T13:12:56.000Z</time>
      </trkpt>
      <trkpt lat="50.60455" lon="3.36045">
        <ele>43.184</ele>
        <time>2019-09-18T13:13:26.000Z</time>
      </trkpt>
      <trkpt lat="50.6048" lon="3.36314">
        <ele>42.429</ele>
        <time>2019-09-18T13:13:56.000Z</time>
      </trkpt>
      <trkpt lat="50.60498" lon="3.36604">
        <ele>41.215</ele>
        <time>2019-09-18T13:14:26.000Z</time>
      </trkpt>
      <trkpt lat="50.60455" lon="3.36906">
        <ele>41.109</ele>
        <time>2019-09-18T13:14:59.000Z</time>
      </trkpt>
      <trkpt lat="50.60475" lon="3.3721">
        <ele>34.568</ele>
        <time>2019-09-18T13:15:29.001Z</time>
      </trkpt>
      <trkpt lat="50.60508" lon="3.37446">
        <ele>40.082</ele>
        <time>2019-09-18T13:15:59.001Z</time>
      </trkpt>
      <trkpt lat="50.6055" lon="3.37695">
        <ele>36.39</ele>
        <time>2019-09-18T13:16:29.001Z</time>
      </trkpt>
      <trkpt lat="50.60619" lon="3.37969">
        <ele>31.795</ele>
        <time>2019-09-18T13:17:02.000Z</time>
      </trkpt>
      <trkpt lat="50.6058" lon="3.38035">
        <ele>33.023</ele>
        <time>2019-09-18T13:18:05.001Z</time>
      </trkpt>
      <trkpt lat="50.60487" lon="3.38139">
        <ele>33.152</ele>
        <time>2019-09-18T13:18:35.001Z</time>
      </trkpt>
      <trkpt lat="50.60411" lon="3.38228">
        <ele>40.932</ele>
        <time>2019-09-18T13:19:05.001Z</time>
      </trkpt>
      <trkpt lat="50.60357" lon="3.38287">
        <ele>37.878</ele>
        <time>2019-09-18T13:20:17.001Z</time>
      </trkpt>
      <trkpt lat="50.60272" lon="3.38374">
        <ele>43.075</ele>
        <time>2019-09-18T13:20:47.001Z</time>
      </trkpt>
      <trkpt lat="50.6019" lon="3.38452">
        <ele>46.524</ele>
        <time>2019-09-18T13:21:17.001Z</time>
      </trkpt>
      <trkpt lat="50.60095" lon="3.38559">
        <ele>51.443</ele>
        <time>2019-09-18T13:21:47.001Z</time>
      </trkpt>
      <trkpt lat="50.60056" lon="3.38684">
        <ele>60.196</ele>
        <time>2019-09-18T13:22:17.001Z</time>
      </trkpt>
      <trkpt lat="50.6001" lon="3.38803">
        <ele>45.266</ele>
        <time>2019-09-18T13:23:02.000Z</time>
      </trkpt>
      <trkpt lat="50.60025" lon="3.38969">
        <ele>42.818</ele>
        <time>2019-09-18T13:23:47.001Z</time>
      </trkpt>
      <trkpt lat="50.60045" lon="3.39285">
        <ele>38.073</ele>
        <time>2019-09-18T13:24:17.001Z</time>
      </trkpt>
      <trkpt lat="50.6004" lon="3.39633">
        <ele>34.647</ele>
        <time>2019-09-18T13:24:47.001Z</time>
      </trkpt>
      <trkpt lat="50.59959" lon="3.39976">
        <ele>23.218</ele>
        <time>2019-09-18T13:25:20.001Z</time>
      </trkpt>
      <trkpt lat="50.59816" lon="3.40129">
        <ele>25.939</ele>
        <time>2019-09-18T13:25:50.001Z</time>
      </trkpt>
      <trkpt lat="50.59708" lon="3.4011">
        <ele>29.66</ele>
        <time>2019-09-18T13:26:20.001Z</time>
      </trkpt>
      <trkpt lat="50.59615" lon="3.40078">
        <ele>36.976</ele>
        <time>2019-09-18T13:26:50.001Z</time>
      </trkpt>
      <trkpt lat="50.5948" lon="3.40024">
        <ele>37.723</ele>
        <time>2019-09-18T13:27:20.001Z</time>
      </trkpt>
      <trkpt lat="50.59225" lon="3.40135">
        <ele>27.145</ele>
        <time>2019-09-18T13:27:53.001Z</time>
      </trkpt>
      <trkpt lat="50.59008" lon="3.40255">
        <ele>23.116</ele>
        <time>2019-09-18T13:28:23.001Z</time>
      </trkpt>
      <trkpt lat="50.58913" lon="3.40309">
        <ele>28.943</ele>
        <time>2019-09-18T13:28:53.001Z</time>
      </trkpt>
      <trkpt lat="50.58835" lon="3.40361">
        <ele>38.922</ele>
        <time>2019-09-18T13:29:23.001Z</time>
      </trkpt>
      <trkpt lat="50.58753" lon="3.40425">
        <ele>43.77</ele>
        <time>2019-09-18T13:29:56.001Z</time>
      </trkpt>
      <trkpt lat="50.58668" lon="3.40508">
        <ele>43.783</ele>
        <time>2019-09-18T13:30:26.001Z</time>
      </trkpt>
      <trkpt lat="50.58579" lon="3.40618">
        <ele>45.679</ele>
        <time>2019-09-18T13:30:56.001Z</time>
      </trkpt>
      <trkpt lat="50.58493" lon="3.40748">
        <ele>44.015</ele>
        <time>2019-09-18T13:31:26.001Z</time>
      </trkpt>
      <trkpt lat="50.58386" lon="3.40895">
        <ele>43.542</ele>
        <time>2019-09-18T13:31:59.001Z</time>
      </trkpt>
      <trkpt lat="50.58268" lon="3.40977">
        <ele>44.814</ele>
        <time>2019-09-18T13:32:29.001Z</time>
      </trkpt>
      <trkpt lat="50.58124" lon="3.41039">
        <ele>44.566</ele>
        <time>2019-09-18T13:32:59.001Z</time>
      </trkpt>
      <trkpt lat="50.5798" lon="3.41095">
        <ele>45.871</ele>
        <time>2019-09-18T13:33:29.001Z</time>
      </trkpt>
      <trkpt lat="50.5783" lon="3.4115">
        <ele>42.94</ele>
        <time>2019-09-18T13:33:59.001Z</time>
      </trkpt>
      <trkpt lat="50.57634" lon="3.41221">
        <ele>40.999</ele>
        <time>2019-09-18T13:34:32.001Z</time>
      </trkpt>
      <trkpt lat="50.57465" lon="3.41342">
        <ele>41.056</ele>
        <time>2019-09-18T13:35:02.000Z</time>
      </trkpt>
      <trkpt lat="50.57324" lon="3.41471">
        <ele>42.142</ele>
        <time>2019-09-18T13:35:32.001Z</time>
      </trkpt>
      <trkpt lat="50.57202" lon="3.41592">
        <ele>44.727</ele>
        <time>2019-09-18T13:36:02.000Z</time>
      </trkpt>
      <trkpt lat="50.57056" lon="3.41765">
        <ele>41.512</ele>
        <time>2019-09-18T13:36:35.001Z</time>
      </trkpt>
      <trkpt lat="50.56976" lon="3.41905">
        <ele>43.18</ele>
        <time>2019-09-18T13:37:05.001Z</time>
      </trkpt>
      <trkpt lat="50.56909" lon="3.4202">
        <ele>50.972</ele>
        <time>2019-09-18T13:37:35.001Z</time>
      </trkpt>
      <trkpt lat="50.56842" lon="3.42108">
        <ele>57.06</ele>
        <time>2019-09-18T13:38:05.001Z</time>
      </trkpt>
      <trkpt lat="50.56728" lon="3.42192">
        <ele>55.724</ele>
        <time>2019-09-18T13:38:35.001Z</time>
      </trkpt>
      <trkpt lat="50.56489" lon="3.42261">
        <ele>44.104</ele>
        <time>2019-09-18T13:39:08.001Z</time>
      </trkpt>
      <trkpt lat="50.56213" lon="3.42339">
        <ele>31.963</ele>
        <time>2019-09-18T13:39:38.001Z</time>
      </trkpt>
      <trkpt lat="50.55943" lon="3.42553">
        <ele>25.059</ele>
        <time>2019-09-18T13:40:08.001Z</time>
      </trkpt>
      <trkpt lat="50.55718" lon="3.42775">
        <ele>18.336</ele>
        <time>2019-09-18T13:40:38.001Z</time>
      </trkpt>
      <trkpt lat="50.5554" lon="3.42924">
        <ele>17.373</ele>
        <time>2019-09-18T13:41:11.001Z</time>
      </trkpt>
      <trkpt lat="50.55556" lon="3.43146">
        <ele>14.91</ele>
        <time>2019-09-18T13:41:41.001Z</time>
      </trkpt>
      <trkpt lat="50.55463" lon="3.43243">
        <ele>13.684</ele>
        <time>2019-09-18T13:42:11.001Z</time>
      </trkpt>
      <trkpt lat="50.55342" lon="3.43277">
        <ele>14.673</ele>
        <time>2019-09-18T13:42:41.001Z</time>
      </trkpt>
      <trkpt lat="50.55196" lon="3.43353">
        <ele>13.752</ele>
        <time>2019-09-18T13:43:14.001Z</time>
      </trkpt>
      <trkpt lat="50.55064" lon="3.43471">
        <ele>15.147</ele>
        <time>2019-09-18T13:43:44.001Z</time>
      </trkpt>
      <trkpt lat="50.54944" lon="3.43551">
        <ele>15.935</ele>
        <time>2019-09-18T13:44:14.001Z</time>
      </trkpt>
      <trkpt lat="50.54801" lon="3.43613">
        <ele>14.837</ele>
        <time>2019-09-18T13:44:44.001Z</time>
      </trkpt>
      <trkpt lat="50.54647" lon="3.43637">
        <ele>15.994</ele>
        <time>2019-09-18T13:45:14.001Z</time>
      </trkpt>
      <trkpt lat="50.54507" lon="3.43621">
        <ele>15.563</ele>
        <time>2019-09-18T13:45:47.001Z</time>
      </trkpt>
      <trkpt lat="50.54373" lon="3.43566">
        <ele>14.94</ele>
        <time>2019-09-18T13:46:17.001Z</time>
      </trkpt>
      <trkpt lat="50.54272" lon="3.43516">
        <ele>11.872</ele>
        <time>2019-09-18T13:46:47.001Z</time>
      </trkpt>
      <trkpt lat="50.54193" lon="3.43435">
        <ele>11.366</ele>
        <time>2019-09-18T13:49:32.001Z</time>
      </trkpt>
      <trkpt lat="50.54082" lon="3.43344">
        <ele>14.466</ele>
        <time>2019-09-18T13:50:08.001Z</time>
      </trkpt>
      <trkpt lat="50.53937" lon="3.43227">
        <ele>10.636</ele>
        <time>2019-09-18T13:50:38.001Z</time>
      </trkpt>
      <trkpt lat="50.53796" lon="3.43116">
        <ele>14.393</ele>
        <time>2019-09-18T13:51:08.001Z</time>
      </trkpt>
      <trkpt lat="50.53643" lon="3.43008">
        <ele>13.384</ele>
        <time>2019-09-18T13:51:38.001Z</time>
      </trkpt>
      <trkpt lat="50.5351" lon="3.42954">
        <ele>12.547</ele>
        <time>2019-09-18T13:52:08.001Z</time>
      </trkpt>
      <trkpt lat="50.5334" lon="3.42925">
        <ele>14.505</ele>
        <time>2019-09-18T13:52:41.001Z</time>
      </trkpt>
      <trkpt lat="50.53201" lon="3.42937">
        <ele>15.622</ele>
        <time>2019-09-18T13:53:11.001Z</time>
      </trkpt>
      <trkpt lat="50.53222" lon="3.42935">
        <ele>17.66</ele>
        <time>2019-09-18T13:54:38.001Z</time>
      </trkpt>
      <trkpt lat="50.53341" lon="3.42923">
        <ele>20.14</ele>
        <time>2019-09-18T13:55:08.001Z</time>
      </trkpt>
      <trkpt lat="50.53484" lon="3.42946">
        <ele>20.321</ele>
        <time>2019-09-18T13:55:41.001Z</time>
      </trkpt>
      <trkpt lat="50.53602" lon="3.42989">
        <ele>12.526</ele>
        <time>2019-09-18T13:56:11.001Z</time>
      </trkpt>
      <trkpt lat="50.53677" lon="3.42893">
        <ele>14.228</ele>
        <time>2019-09-18T13:56:41.001Z</time>
      </trkpt>
      <trkpt lat="50.53637" lon="3.42854">
        <ele>17.269</ele>
        <time>2019-09-18T14:00:29.001Z</time>
      </trkpt>
      <trkpt lat="50.53624" lon="3.42717">
        <ele>14.731</ele>
        <time>2019-09-18T14:01:02.000Z</time>
      </trkpt>
      <trkpt lat="50.53632" lon="3.42624">
        <ele>19.984</ele>
        <time>2019-09-18T14:01:32.001Z</time>
      </trkpt>
      <trkpt lat="50.53563" lon="3.42604">
        <ele>27.936</ele>
        <time>2019-09-18T14:02:32.001Z</time>
      </trkpt>
      <trkpt lat="50.53441" lon="3.42598">
        <ele>27.671</ele>
        <time>2019-09-18T14:03:02.000Z</time>
      </trkpt>
      <trkpt lat="50.53306" lon="3.42582">
        <ele>27.284</ele>
        <time>2019-09-18T14:03:32.001Z</time>
      </trkpt>
      <trkpt lat="50.53168" lon="3.42561">
        <ele>27.207</ele>
        <time>2019-09-18T14:04:05.001Z</time>
      </trkpt>
      <trkpt lat="50.53052" lon="3.42506">
        <ele>29.531</ele>
        <time>2019-09-18T14:04:35.001Z</time>
      </trkpt>
      <trkpt lat="50.529" lon="3.42428">
        <ele>28.726</ele>
        <time>2019-09-18T14:05:05.001Z</time>
      </trkpt>
      <trkpt lat="50.52707" lon="3.42348">
        <ele>26.286</ele>
        <time>2019-09-18T14:05:35.001Z</time>
      </trkpt>
      <trkpt lat="50.5247" lon="3.42257">
        <ele>22.344</ele>
        <time>2019-09-18T14:06:08.001Z</time>
      </trkpt>
      <trkpt lat="50.5229" lon="3.42188">
        <ele>21.031</ele>
        <time>2019-09-18T14:06:38.001Z</time>
      </trkpt>
      <trkpt lat="50.52117" lon="3.42111">
        <ele>18.356</ele>
        <time>2019-09-18T14:07:08.001Z</time>
      </trkpt>
      <trkpt lat="50.51938" lon="3.42025">
        <ele>18.145</ele>
        <time>2019-09-18T14:07:38.001Z</time>
      </trkpt>
      <trkpt lat="50.51759" lon="3.42085">
        <ele>17.74</ele>
        <time>2019-09-18T14:08:08.001Z</time>
      </trkpt>
      <trkpt lat="50.51638" lon="3.42224">
        <ele>20.733</ele>
        <time>2019-09-18T14:08:41.001Z</time>
      </trkpt>
      <trkpt lat="50.51498" lon="3.42291">
        <ele>19.739</ele>
        <time>2019-09-18T14:09:11.001Z</time>
      </trkpt>
      <trkpt lat="50.51363" lon="3.42411">
        <ele>16.983</ele>
        <time>2019-09-18T14:09:41.001Z</time>
      </trkpt>
      <trkpt lat="50.51217" lon="3.4259">
        <ele>15.941</ele>
        <time>2019-09-18T14:10:11.001Z</time>
      </trkpt>
      <trkpt lat="50.51073" lon="3.42813">
        <ele>13.08</ele>
        <time>2019-09-18T14:10:44.001Z</time>
      </trkpt>
      <trkpt lat="50.5094" lon="3.43019">
        <ele>14.92</ele>
        <time>2019-09-18T14:11:14.001Z</time>
      </trkpt>
      <trkpt lat="50.50808" lon="3.43219">
        <ele>12.977</ele>
        <time>2019-09-18T14:11:44.001Z</time>
      </trkpt>
      <trkpt lat="50.50709" lon="3.43374">
        <ele>15.661</ele>
        <time>2019-09-18T14:12:14.001Z</time>
      </trkpt>
      <trkpt lat="50.50614" lon="3.43514">
        <ele>14.303</ele>
        <time>2019-09-18T14:12:47.001Z</time>
      </trkpt>
      <trkpt lat="50.5053" lon="3.43637">
        <ele>17.067</ele>
        <time>2019-09-18T14:13:17.001Z</time>
      </trkpt>
      <trkpt lat="50.50451" lon="3.43749">
        <ele>18.077</ele>
        <time>2019-09-18T14:13:47.001Z</time>
      </trkpt>
      <trkpt lat="50.5036" lon="3.43884">
        <ele>16.166</ele>
        <time>2019-09-18T14:14:17.001Z</time>
      </trkpt>
      <trkpt lat="50.50291" lon="3.43991">
        <ele>15.865</ele>
        <time>2019-09-18T14:14:47.001Z</time>
      </trkpt>
      <trkpt lat="50.50215" lon="3.44132">
        <ele>16.077</ele>
        <time>2019-09-18T14:15:20.001Z</time>
      </trkpt>
      <trkpt lat="50.50191" lon="3.44182">
        <ele>15.023</ele>
        <time>2019-09-18T14:17:17.001Z</time>
      </trkpt>
      <trkpt lat="50.50247" lon="3.44076">
        <ele>12.749</ele>
        <time>2019-09-18T14:17:47.001Z</time>
      </trkpt>
      <trkpt lat="50.5025" lon="3.43959">
        <ele>13.462</ele>
        <time>2019-09-18T14:18:17.001Z</time>
      </trkpt>
      <trkpt lat="50.50184" lon="3.43838">
        <ele>15.702</ele>
        <time>2019-09-18T14:18:50.001Z</time>
      </trkpt>
      <trkpt lat="50.50131" lon="3.43703">
        <ele>15.02</ele>
        <time>2019-09-18T14:19:20.001Z</time>
      </trkpt>
      <trkpt lat="50.5007" lon="3.43665">
        <ele>18.566</ele>
        <time>2019-09-18T14:19:50.001Z</time>
      </trkpt>
      <trkpt lat="50.49979" lon="3.4379">
        <ele>26.092</ele>
        <time>2019-09-18T14:20:20.001Z</time>
      </trkpt>
      <trkpt lat="50.49867" lon="3.43962">
        <ele>24.964</ele>
        <time>2019-09-18T14:20:50.001Z</time>
      </trkpt>
      <trkpt lat="50.49711" lon="3.441">
        <ele>26.129</ele>
        <time>2019-09-18T14:21:23.001Z</time>
      </trkpt>
      <trkpt lat="50.49603" lon="3.44289">
        <ele>28.022</ele>
        <time>2019-09-18T14:21:53.001Z</time>
      </trkpt>
      <trkpt lat="50.49688" lon="3.44444">
        <ele>21.859</ele>
        <time>2019-09-18T14:22:23.001Z</time>
      </trkpt>
      <trkpt lat="50.49763" lon="3.44657">
        <ele>18.14</ele>
        <time>2019-09-18T14:22:53.001Z</time>
      </trkpt>
      <trkpt lat="50.49842" lon="3.44888">
        <ele>17.227</ele>
        <time>2019-09-18T14:23:26.001Z</time>
      </trkpt>
      <trkpt lat="50.49829" lon="3.44995">
        <ele>26.878</ele>
        <time>2019-09-18T14:23:56.001Z</time>
      </trkpt>
      <trkpt lat="50.4976" lon="3.45103">
        <ele>23.938</ele>
        <time>2019-09-18T14:24:26.001Z</time>
      </trkpt>
      <trkpt lat="50.49622" lon="3.45164">
        <ele>18.895</ele>
        <time>2019-09-18T14:24:56.001Z</time>
      </trkpt>
      <trkpt lat="50.49475" lon="3.45216">
        <ele>18.653</ele>
        <time>2019-09-18T14:25:29.001Z</time>
      </trkpt>
      <trkpt lat="50.49371" lon="3.45323">
        <ele>18.704</ele>
        <time>2019-09-18T14:25:59.001Z</time>
      </trkpt>
      <trkpt lat="50.4927" lon="3.45429">
        <ele>22.485</ele>
        <time>2019-09-18T14:26:29.001Z</time>
      </trkpt>
      <trkpt lat="50.49161" lon="3.45539">
        <ele>29.648</ele>
        <time>2019-09-18T14:26:59.001Z</time>
      </trkpt>
      <trkpt lat="50.49047" lon="3.45652">
        <ele>33.987</ele>
        <time>2019-09-18T14:27:29.001Z</time>
      </trkpt>
      <trkpt lat="50.48916" lon="3.45797">
        <ele>20.955</ele>
        <time>2019-09-18T14:28:02.000Z</time>
      </trkpt>
      <trkpt lat="50.48807" lon="3.4591">
        <ele>19.903</ele>
        <time>2019-09-18T14:28:32.001Z</time>
      </trkpt>
      <trkpt lat="50.4869" lon="3.46038">
        <ele>26.779</ele>
        <time>2019-09-18T14:29:02.000Z</time>
      </trkpt>
      <trkpt lat="50.48579" lon="3.46159">
        <ele>22.058</ele>
        <time>2019-09-18T14:29:32.001Z</time>
      </trkpt>
      <trkpt lat="50.48454" lon="3.46295">
        <ele>24.089</ele>
        <time>2019-09-18T14:30:05.001Z</time>
      </trkpt>
      <trkpt lat="50.48374" lon="3.46378">
        <ele>21.235</ele>
        <time>2019-09-18T14:32:38.001Z</time>
      </trkpt>
      <trkpt lat="50.48284" lon="3.46475">
        <ele>19.654</ele>
        <time>2019-09-18T14:33:08.001Z</time>
      </trkpt>
      <trkpt lat="50.48225" lon="3.46634">
        <ele>14.767</ele>
        <time>2019-09-18T14:33:38.001Z</time>
      </trkpt>
      <trkpt lat="50.48112" lon="3.46624">
        <ele>15.216</ele>
        <time>2019-09-18T14:34:08.001Z</time>
      </trkpt>
      <trkpt lat="50.48025" lon="3.46744">
        <ele>19.9</ele>
        <time>2019-09-18T14:34:41.001Z</time>
      </trkpt>
      <trkpt lat="50.47949" lon="3.46847">
        <ele>24.013</ele>
        <time>2019-09-18T14:35:11.001Z</time>
      </trkpt>
      <trkpt lat="50.47868" lon="3.46948">
        <ele>27.552</ele>
        <time>2019-09-18T14:35:41.001Z</time>
      </trkpt>
      <trkpt lat="50.47773" lon="3.47074">
        <ele>24.134</ele>
        <time>2019-09-18T14:36:11.001Z</time>
      </trkpt>
      <trkpt lat="50.47648" lon="3.47241">
        <ele>22.339</ele>
        <time>2019-09-18T14:36:44.001Z</time>
      </trkpt>
      <trkpt lat="50.4753" lon="3.47394">
        <ele>20.866</ele>
        <time>2019-09-18T14:37:14.001Z</time>
      </trkpt>
      <trkpt lat="50.47421" lon="3.4755">
        <ele>21.342</ele>
        <time>2019-09-18T14:37:44.001Z</time>
      </trkpt>
      <trkpt lat="50.47323" lon="3.47687">
        <ele>27.251</ele>
        <time>2019-09-18T14:38:14.001Z</time>
      </trkpt>
      <trkpt lat="50.47209" lon="3.47837">
        <ele>27.837</ele>
        <time>2019-09-18T14:38:47.001Z</time>
      </trkpt>
      <trkpt lat="50.47095" lon="3.47985">
        <ele>27.398</ele>
        <time>2019-09-18T14:39:17.001Z</time>
      </trkpt>
      <trkpt lat="50.46989" lon="3.48129">
        <ele>32.399</ele>
        <time>2019-09-18T14:39:47.001Z</time>
      </trkpt>
      <trkpt lat="50.46883" lon="3.48245">
        <ele>27.846</ele>
        <time>2019-09-18T14:40:17.001Z</time>
      </trkpt>
      <trkpt lat="50.46791" lon="3.48356">
        <ele>34.829</ele>
        <time>2019-09-18T14:40:47.001Z</time>
      </trkpt>
      <trkpt lat="50.4667" lon="3.48548">
        <ele>32.865</ele>
        <time>2019-09-18T14:41:20.001Z</time>
      </trkpt>
      <trkpt lat="50.46536" lon="3.48738">
        <ele>25.182</ele>
        <time>2019-09-18T14:41:50.001Z</time>
      </trkpt>
      <trkpt lat="50.46399" lon="3.48926">
        <ele>26.044</ele>
        <time>2019-09-18T14:42:20.001Z</time>
      </trkpt>
      <trkpt lat="50.46279" lon="3.49117">
        <ele>25.193</ele>
        <time>2019-09-18T14:42:50.001Z</time>
      </trkpt>
      <trkpt lat="50.46157" lon="3.49278">
        <ele>26.4</ele>
        <time>2019-09-18T14:43:23.001Z</time>
      </trkpt>
      <trkpt lat="50.46048" lon="3.49416">
        <ele>29.788</ele>
        <time>2019-09-18T14:43:53.001Z</time>
      </trkpt>
      <trkpt lat="50.45967" lon="3.49488">
        <ele>27.844</ele>
        <time>2019-09-18T14:44:23.001Z</time>
      </trkpt>
      <trkpt lat="50.45963" lon="3.49517">
        <ele>28.527</ele>
        <time>2019-09-18T14:46:59.001Z</time>
      </trkpt>
      <trkpt lat="50.45916" lon="3.49593">
        <ele>30.057</ele>
        <time>2019-09-18T14:47:29.001Z</time>
      </trkpt>
      <trkpt lat="50.45864" lon="3.49664">
        <ele>29.915</ele>
        <time>2019-09-18T14:48:05.001Z</time>
      </trkpt>
      <trkpt lat="50.45838" lon="3.49695">
        <ele>25.346</ele>
        <time>2019-09-18T14:49:05.001Z</time>
      </trkpt>
      <trkpt lat="50.45817" lon="3.49725">
        <ele>26.549</ele>
        <time>2019-09-18T14:49:35.001Z</time>
      </trkpt>
      <trkpt lat="50.45801" lon="3.49749">
        <ele>26.291</ele>
        <time>2019-09-18T14:50:08.001Z</time>
      </trkpt>
      <trkpt lat="50.45771" lon="3.49791">
        <ele>31.333</ele>
        <time>2019-09-18T14:51:05.001Z</time>
      </trkpt>
      <trkpt lat="50.45748" lon="3.49802">
        <ele>32.229</ele>
        <time>2019-09-18T14:52:11.001Z</time>
      </trkpt>
      <trkpt lat="50.45675" lon="3.4973">
        <ele>36.3</ele>
        <time>2019-09-18T15:03:14.001Z</time>
      </trkpt>
      <trkpt lat="50.45568" lon="3.49627">
        <ele>39.857</ele>
        <time>2019-09-18T15:03:44.001Z</time>
      </trkpt>
      <trkpt lat="50.45463" lon="3.49527">
        <ele>40.879</ele>
        <time>2019-09-18T15:04:17.001Z</time>
      </trkpt>
      <trkpt lat="50.45392" lon="3.49472">
        <ele>40.135</ele>
        <time>2019-09-18T15:04:47.001Z</time>
      </trkpt>
      <trkpt lat="50.45325" lon="3.49398">
        <ele>38.196</ele>
        <time>2019-09-18T15:05:17.001Z</time>
      </trkpt>
      <trkpt lat="50.45259" lon="3.49329">
        <ele>41.524</ele>
        <time>2019-09-18T15:05:47.001Z</time>
      </trkpt>
      <trkpt lat="50.45184" lon="3.49254">
        <ele>47.782</ele>
        <time>2019-09-18T15:06:17.001Z</time>
      </trkpt>
      <trkpt lat="50.4512" lon="3.49187">
        <ele>48.275</ele>
        <time>2019-09-18T15:06:50.001Z</time>
      </trkpt>
      <trkpt lat="50.45053" lon="3.49126">
        <ele>47.906</ele>
        <time>2019-09-18T15:07:20.001Z</time>
      </trkpt>
      <trkpt lat="50.44973" lon="3.49053">
        <ele>46.095</ele>
        <time>2019-09-18T15:07:50.001Z</time>
      </trkpt>
      <trkpt lat="50.44904" lon="3.48986">
        <ele>52.507</ele>
        <time>2019-09-18T15:08:20.001Z</time>
      </trkpt>
      <trkpt lat="50.44829" lon="3.48915">
        <ele>49.923</ele>
        <time>2019-09-18T15:08:53.001Z</time>
      </trkpt>
      <trkpt lat="50.44759" lon="3.48842">
        <ele>44.085</ele>
        <time>2019-09-18T15:09:23.001Z</time>
      </trkpt>
      <trkpt lat="50.44685" lon="3.4877">
        <ele>40.381</ele>
        <time>2019-09-18T15:09:53.001Z</time>
      </trkpt>
      <trkpt lat="50.44611" lon="3.48697">
        <ele>41.053</ele>
        <time>2019-09-18T15:10:23.001Z</time>
      </trkpt>
      <trkpt lat="50.4453" lon="3.48616">
        <ele>45.042</ele>
        <time>2019-09-18T15:10:53.001Z</time>
      </trkpt>
      <trkpt lat="50.44438" lon="3.4853">
        <ele>44.581</ele>
        <time>2019-09-18T15:11:26.001Z</time>
      </trkpt>
      <trkpt lat="50.44356" lon="3.48458">
        <ele>45.348</ele>
        <time>2019-09-18T15:11:56.001Z</time>
      </trkpt>
      <trkpt lat="50.44277" lon="3.48381">
        <ele>45.243</ele>
        <time>2019-09-18T15:12:26.001Z</time>
      </trkpt>
      <trkpt lat="50.4421" lon="3.4837">
        <ele>38.736</ele>
        <time>2019-09-18T15:15:20.001Z</time>
      </trkpt>
      <trkpt lat="50.44164" lon="3.48562">
        <ele>37.367</ele>
        <time>2019-09-18T15:15:53.001Z</time>
      </trkpt>
      <trkpt lat="50.44124" lon="3.48763">
        <ele>30.715</ele>
        <time>2019-09-18T15:16:23.001Z</time>
      </trkpt>
      <trkpt lat="50.44084" lon="3.48969">
        <ele>28.327</ele>
        <time>2019-09-18T15:16:53.001Z</time>
      </trkpt>
      <trkpt lat="50.44061" lon="3.4909">
        <ele>28.573</ele>
        <time>2019-09-18T15:18:38.001Z</time>
      </trkpt>
      <trkpt lat="50.44037" lon="3.49238">
        <ele>32.373</ele>
        <time>2019-09-18T15:19:14.001Z</time>
      </trkpt>
      <trkpt lat="50.43991" lon="3.49477">
        <ele>35.285</ele>
        <time>2019-09-18T15:19:44.001Z</time>
      </trkpt>
      <trkpt lat="50.43942" lon="3.49719">
        <ele>36.102</ele>
        <time>2019-09-18T15:20:14.001Z</time>
      </trkpt>
      <trkpt lat="50.43902" lon="3.49922">
        <ele>38.753</ele>
        <time>2019-09-18T15:20:44.001Z</time>
      </trkpt>
      <trkpt lat="50.4386" lon="3.50125">
        <ele>38.962</ele>
        <time>2019-09-18T15:21:14.001Z</time>
      </trkpt>
      <trkpt lat="50.43812" lon="3.50364">
        <ele>36.54</ele>
        <time>2019-09-18T15:21:47.001Z</time>
      </trkpt>
      <trkpt lat="50.43722" lon="3.5057">
        <ele>34.283</ele>
        <time>2019-09-18T15:22:17.001Z</time>
      </trkpt>
      <trkpt lat="50.43619" lon="3.50649">
        <ele>35.974</ele>
        <time>2019-09-18T15:22:47.001Z</time>
      </trkpt>
      <trkpt lat="50.43504" lon="3.50695">
        <ele>45.394</ele>
        <time>2019-09-18T15:23:17.001Z</time>
      </trkpt>
      <trkpt lat="50.43376" lon="3.5075">
        <ele>44.969</ele>
        <time>2019-09-18T15:23:50.001Z</time>
      </trkpt>
      <trkpt lat="50.43271" lon="3.50794">
        <ele>46.693</ele>
        <time>2019-09-18T15:24:20.001Z</time>
      </trkpt>
      <trkpt lat="50.43184" lon="3.50838">
        <ele>45.147</ele>
        <time>2019-09-18T15:24:50.001Z</time>
      </trkpt>
      <trkpt lat="50.43061" lon="3.50892">
        <ele>48.324</ele>
        <time>2019-09-18T15:25:20.001Z</time>
      </trkpt>
      <trkpt lat="50.42932" lon="3.50892">
        <ele>43.228</ele>
        <time>2019-09-18T15:25:50.001Z</time>
      </trkpt>
      <trkpt lat="50.42801" lon="3.50782">
        <ele>50.945</ele>
        <time>2019-09-18T15:26:23.001Z</time>
      </trkpt>
      <trkpt lat="50.42645" lon="3.50668">
        <ele>49.448</ele>
        <time>2019-09-18T15:26:53.001Z</time>
      </trkpt>
      <trkpt lat="50.42484" lon="3.50544">
        <ele>48.096</ele>
        <time>2019-09-18T15:27:23.001Z</time>
      </trkpt>
      <trkpt lat="50.42303" lon="3.50405">
        <ele>43.338</ele>
        <time>2019-09-18T15:27:53.001Z</time>
      </trkpt>
      <trkpt lat="50.42129" lon="3.50269">
        <ele>48.773</ele>
        <time>2019-09-18T15:28:26.001Z</time>
      </trkpt>
      <trkpt lat="50.41982" lon="3.50157">
        <ele>54.185</ele>
        <time>2019-09-18T15:28:56.001Z</time>
      </trkpt>
      <trkpt lat="50.41841" lon="3.50062">
        <ele>56.442</ele>
        <time>2019-09-18T15:29:26.001Z</time>
      </trkpt>
      <trkpt lat="50.41792" lon="3.50061">
        <ele>44.9</ele>
        <time>2019-09-18T15:32:08.001Z</time>
      </trkpt>
      <trkpt lat="50.41721" lon="3.50096">
        <ele>46.723</ele>
        <time>2019-09-18T15:32:41.001Z</time>
      </trkpt>
      <trkpt lat="50.41637" lon="3.50137">
        <ele>50.179</ele>
        <time>2019-09-18T15:33:11.001Z</time>
      </trkpt>
      <trkpt lat="50.41581" lon="3.50156">
        <ele>48.639</ele>
        <time>2019-09-18T15:34:23.001Z</time>
      </trkpt>
      <trkpt lat="50.41534" lon="3.5018">
        <ele>40.844</ele>
        <time>2019-09-18T15:35:23.001Z</time>
      </trkpt>
      <trkpt lat="50.41504" lon="3.50189">
        <ele>39.35</ele>
        <time>2019-09-18T15:36:56.001Z</time>
      </trkpt>
      <trkpt lat="50.41433" lon="3.50223">
        <ele>40.674</ele>
        <time>2019-09-18T15:38:14.001Z</time>
      </trkpt>
      <trkpt lat="50.41374" lon="3.50248">
        <ele>39.664</ele>
        <time>2019-09-18T15:39:26.001Z</time>
      </trkpt>
      <trkpt lat="50.41333" lon="3.50265">
        <ele>39.906</ele>
        <time>2019-09-18T15:40:50.001Z</time>
      </trkpt>
      <trkpt lat="50.41269" lon="3.50299">
        <ele>46.114</ele>
        <time>2019-09-18T15:41:23.001Z</time>
      </trkpt>
      <trkpt lat="50.41197" lon="3.50335">
        <ele>41.926</ele>
        <time>2019-09-18T15:41:59.001Z</time>
      </trkpt>
      <trkpt lat="50.41134" lon="3.50363">
        <ele>38.608</ele>
        <time>2019-09-18T15:42:29.001Z</time>
      </trkpt>
      <trkpt lat="50.411" lon="3.50378">
        <ele>40.293</ele>
        <time>2019-09-18T15:47:23.001Z</time>
      </trkpt>
      <trkpt lat="50.41016" lon="3.50314">
        <ele>40.953</ele>
        <time>2019-09-18T15:52:23.001Z</time>
      </trkpt>
      <trkpt lat="50.40961" lon="3.50357">
        <ele>48.026</ele>
        <time>2019-09-18T15:52:53.001Z</time>
      </trkpt>
      <trkpt lat="50.40904" lon="3.50413">
        <ele>52.253</ele>
        <time>2019-09-18T15:53:26.001Z</time>
      </trkpt>
      <trkpt lat="50.40853" lon="3.50472">
        <ele>52.718</ele>
        <time>2019-09-18T15:53:56.001Z</time>
      </trkpt>
      <trkpt lat="50.40782" lon="3.50465">
        <ele>39.956</ele>
        <time>2019-09-18T15:54:29.001Z</time>
      </trkpt>
      <trkpt lat="50.40724" lon="3.50543">
        <ele>30.534</ele>
        <time>2019-09-18T15:54:59.001Z</time>
      </trkpt>
      <trkpt lat="50.40616" lon="3.50594">
        <ele>23.366</ele>
        <time>2019-09-18T15:55:32.001Z</time>
      </trkpt>
      <trkpt lat="50.40496" lon="3.50649">
        <ele>22.009</ele>
        <time>2019-09-18T15:56:02.000Z</time>
      </trkpt>
      <trkpt lat="50.40433" lon="3.50677">
        <ele>22.536</ele>
        <time>2019-09-18T15:57:11.001Z</time>
      </trkpt>
      <trkpt lat="50.40393" lon="3.50851">
        <ele>20.98</ele>
        <time>2019-09-18T15:57:41.001Z</time>
      </trkpt>
      <trkpt lat="50.40282" lon="3.51006">
        <ele>27.063</ele>
        <time>2019-09-18T15:58:14.001Z</time>
      </trkpt>
      <trkpt lat="50.40168" lon="3.51154">
        <ele>30.178</ele>
        <time>2019-09-18T15:58:44.001Z</time>
      </trkpt>
      <trkpt lat="50.40102" lon="3.51356">
        <ele>25.406</ele>
        <time>2019-09-18T15:59:14.001Z</time>
      </trkpt>
      <trkpt lat="50.4005" lon="3.51543">
        <ele>21.61</ele>
        <time>2019-09-18T15:59:44.001Z</time>
      </trkpt>
      <trkpt lat="50.39978" lon="3.51731">
        <ele>25.783</ele>
        <time>2019-09-18T16:00:14.001Z</time>
      </trkpt>
      <trkpt lat="50.39901" lon="3.51926">
        <ele>24.475</ele>
        <time>2019-09-18T16:00:47.001Z</time>
      </trkpt>
      <trkpt lat="50.39926" lon="3.52112">
        <ele>22.525</ele>
        <time>2019-09-18T16:01:17.001Z</time>
      </trkpt>
      <trkpt lat="50.3994" lon="3.52308">
        <ele>17.877</ele>
        <time>2019-09-18T16:01:47.001Z</time>
      </trkpt>
      <trkpt lat="50.39927" lon="3.52476">
        <ele>24.091</ele>
        <time>2019-09-18T16:02:17.001Z</time>
      </trkpt>
      <trkpt lat="50.39873" lon="3.52686">
        <ele>28.131</ele>
        <time>2019-09-18T16:02:50.001Z</time>
      </trkpt>
      <trkpt lat="50.39755" lon="3.52815">
        <ele>30.993</ele>
        <time>2019-09-18T16:03:20.001Z</time>
      </trkpt>
      <trkpt lat="50.39627" lon="3.52942">
        <ele>28.307</ele>
        <time>2019-09-18T16:03:50.001Z</time>
      </trkpt>
      <trkpt lat="50.39489" lon="3.52832">
        <ele>25.965</ele>
        <time>2019-09-18T16:04:20.001Z</time>
      </trkpt>
      <trkpt lat="50.39362" lon="3.52734">
        <ele>28.862</ele>
        <time>2019-09-18T16:04:50.001Z</time>
      </trkpt>
      <trkpt lat="50.39282" lon="3.52634">
        <ele>19.889</ele>
        <time>2019-09-18T16:05:23.001Z</time>
      </trkpt>
      <trkpt lat="50.39139" lon="3.52571">
        <ele>20.35</ele>
        <time>2019-09-18T16:05:53.001Z</time>
      </trkpt>
      <trkpt lat="50.39094" lon="3.5252">
        <ele>16.651</ele>
        <time>2019-09-18T16:06:23.001Z</time>
      </trkpt>
      <trkpt lat="50.38932" lon="3.52449">
        <ele>15.876</ele>
        <time>2019-09-18T16:06:53.001Z</time>
      </trkpt>
      <trkpt lat="50.38748" lon="3.52365">
        <ele>12.447</ele>
        <time>2019-09-18T16:07:26.001Z</time>
      </trkpt>
      <trkpt lat="50.38626" lon="3.52285">
        <ele>16.356</ele>
        <time>2019-09-18T16:07:56.001Z</time>
      </trkpt>
      <trkpt lat="50.38515" lon="3.52234">
        <ele>22.428</ele>
        <time>2019-09-18T16:08:26.001Z</time>
      </trkpt>
      <trkpt lat="50.38456" lon="3.52388">
        <ele>30.026</ele>
        <time>2019-09-18T16:08:56.001Z</time>
      </trkpt>
      <trkpt lat="50.38318" lon="3.52313">
        <ele>26.306</ele>
        <time>2019-09-18T16:09:29.001Z</time>
      </trkpt>
      <trkpt lat="50.3821" lon="3.52353">
        <ele>26.723</ele>
        <time>2019-09-18T16:09:59.001Z</time>
      </trkpt>
      <trkpt lat="50.3811" lon="3.52302">
        <ele>25.558</ele>
        <time>2019-09-18T16:10:29.001Z</time>
      </trkpt>
      <trkpt lat="50.3805" lon="3.52167">
        <ele>31.617</ele>
        <time>2019-09-18T16:10:59.001Z</time>
      </trkpt>
      <trkpt lat="50.37937" lon="3.52015">
        <ele>30.772</ele>
        <time>2019-09-18T16:11:29.001Z</time>
      </trkpt>
      <trkpt lat="50.37816" lon="3.51914">
        <ele>37.316</ele>
        <time>2019-09-18T16:12:02.000Z</time>
      </trkpt>
      <trkpt lat="50.37686" lon="3.51825">
        <ele>37.63</ele>
        <time>2019-09-18T16:12:32.001Z</time>
      </trkpt>
      <trkpt lat="50.37574" lon="3.51737">
        <ele>43.069</ele>
        <time>2019-09-18T16:13:02.000Z</time>
      </trkpt>
      <trkpt lat="50.3749" lon="3.51672">
        <ele>45.84</ele>
        <time>2019-09-18T16:13:32.001Z</time>
      </trkpt>
      <trkpt lat="50.37336" lon="3.51556">
        <ele>38.723</ele>
        <time>2019-09-18T16:14:05.001Z</time>
      </trkpt>
      <trkpt lat="50.37212" lon="3.51458">
        <ele>37.395</ele>
        <time>2019-09-18T16:14:35.001Z</time>
      </trkpt>
      <trkpt lat="50.37081" lon="3.51366">
        <ele>47.184</ele>
        <time>2019-09-18T16:15:05.001Z</time>
      </trkpt>
      <trkpt lat="50.36966" lon="3.51274">
        <ele>48.937</ele>
        <time>2019-09-18T16:15:35.001Z</time>
      </trkpt>
      <trkpt lat="50.368" lon="3.51156">
        <ele>46.28</ele>
        <time>2019-09-18T16:16:05.001Z</time>
      </trkpt>
      <trkpt lat="50.36678" lon="3.51068">
        <ele>53.072</ele>
        <time>2019-09-18T16:16:38.001Z</time>
      </trkpt>
      <trkpt lat="50.36539" lon="3.50983">
        <ele>47.335</ele>
        <time>2019-09-18T16:17:08.001Z</time>
      </trkpt>
      <trkpt lat="50.36408" lon="3.50904">
        <ele>51.017</ele>
        <time>2019-09-18T16:17:38.001Z</time>
      </trkpt>
      <trkpt lat="50.36286" lon="3.5082">
        <ele>50.5</ele>
        <time>2019-09-18T16:18:08.001Z</time>
      </trkpt>
      <trkpt lat="50.36151" lon="3.50736">
        <ele>56.039</ele>
        <time>2019-09-18T16:18:41.001Z</time>
      </trkpt>
      <trkpt lat="50.36038" lon="3.5067">
        <ele>55.216</ele>
        <time>2019-09-18T16:19:11.001Z</time>
      </trkpt>
      <trkpt lat="50.35907" lon="3.50583">
        <ele>54.526</ele>
        <time>2019-09-18T16:19:41.001Z</time>
      </trkpt>
      <trkpt lat="50.35763" lon="3.50502">
        <ele>54.49</ele>
        <time>2019-09-18T16:20:11.001Z</time>
      </trkpt>
      <trkpt lat="50.35678" lon="3.50443">
        <ele>56.491</ele>
        <time>2019-09-18T16:20:44.001Z</time>
      </trkpt>
      <trkpt lat="50.35571" lon="3.50633">
        <ele>50.65</ele>
        <time>2019-09-18T16:21:14.001Z</time>
      </trkpt>
      <trkpt lat="50.35464" lon="3.50538">
        <ele>42.758</ele>
        <time>2019-09-18T16:21:44.001Z</time>
      </trkpt>
      <trkpt lat="50.35383" lon="3.50416">
        <ele>46.435</ele>
        <time>2019-09-18T16:22:14.001Z</time>
      </trkpt>
      <trkpt lat="50.3536" lon="3.50344">
        <ele>54.093</ele>
        <time>2019-09-18T16:23:02.000Z</time>
      </trkpt>
      <trkpt lat="50.35377" lon="3.50398">
        <ele>60.211</ele>
        <time>2019-09-18T16:24:11.001Z</time>
      </trkpt>
      <trkpt lat="50.35364" lon="3.50419">
        <ele>52.838</ele>
        <time>2019-09-18T16:24:59.001Z</time>
      </trkpt>
    </trkseg>
  </trk>
  <trk>
    <name><![CDATA[Tracé 20190919-092252]]></name>
    <trkseg>
      <trkpt lat="50.35378" lon="3.50409">
        <ele>57.373</ele>
        <time>2019-09-19T07:26:28.000Z</time>
      </trkpt>
      <trkpt lat="50.35341" lon="3.50608">
        <ele>53.723</ele>
        <time>2019-09-19T07:26:58.000Z</time>
      </trkpt>
      <trkpt lat="50.35282" lon="3.5083">
        <ele>38.918</ele>
        <time>2019-09-19T07:27:28.000Z</time>
      </trkpt>
      <trkpt lat="50.35363" lon="3.50972">
        <ele>37.523</ele>
        <time>2019-09-19T07:27:58.000Z</time>
      </trkpt>
      <trkpt lat="50.35326" lon="3.51219">
        <ele>31.811</ele>
        <time>2019-09-19T07:28:28.000Z</time>
      </trkpt>
      <trkpt lat="50.35319" lon="3.51505">
        <ele>27.495</ele>
        <time>2019-09-19T07:28:58.000Z</time>
      </trkpt>
      <trkpt lat="50.3542" lon="3.5162">
        <ele>28.448</ele>
        <time>2019-09-19T07:29:28.000Z</time>
      </trkpt>
      <trkpt lat="50.35422" lon="3.51822">
        <ele>29.523</ele>
        <time>2019-09-19T07:29:58.000Z</time>
      </trkpt>
      <trkpt lat="50.35358" lon="3.52053">
        <ele>30.769</ele>
        <time>2019-09-19T07:30:28.000Z</time>
      </trkpt>
      <trkpt lat="50.35271" lon="3.522">
        <ele>34.916</ele>
        <time>2019-09-19T07:30:58.000Z</time>
      </trkpt>
      <trkpt lat="50.35172" lon="3.52213">
        <ele>30.736</ele>
        <time>2019-09-19T07:31:37.000Z</time>
      </trkpt>
      <trkpt lat="50.35178" lon="3.52344">
        <ele>36.25</ele>
        <time>2019-09-19T07:32:10.000Z</time>
      </trkpt>
      <trkpt lat="50.35084" lon="3.52407">
        <ele>42.753</ele>
        <time>2019-09-19T07:32:40.000Z</time>
      </trkpt>
      <trkpt lat="50.34981" lon="3.52454">
        <ele>51.334</ele>
        <time>2019-09-19T07:33:10.000Z</time>
      </trkpt>
      <trkpt lat="50.34888" lon="3.52461">
        <ele>49.876</ele>
        <time>2019-09-19T07:33:40.000Z</time>
      </trkpt>
      <trkpt lat="50.34799" lon="3.52478">
        <ele>51.362</ele>
        <time>2019-09-19T07:34:10.000Z</time>
      </trkpt>
      <trkpt lat="50.3471" lon="3.52499">
        <ele>57.648</ele>
        <time>2019-09-19T07:34:40.000Z</time>
      </trkpt>
      <trkpt lat="50.34626" lon="3.52522">
        <ele>57.564</ele>
        <time>2019-09-19T07:35:10.000Z</time>
      </trkpt>
      <trkpt lat="50.3453" lon="3.52568">
        <ele>64.4</ele>
        <time>2019-09-19T07:35:40.000Z</time>
      </trkpt>
      <trkpt lat="50.34418" lon="3.52586">
        <ele>60.723</ele>
        <time>2019-09-19T07:36:10.000Z</time>
      </trkpt>
      <trkpt lat="50.34304" lon="3.52585">
        <ele>63.143</ele>
        <time>2019-09-19T07:36:40.000Z</time>
      </trkpt>
      <trkpt lat="50.3418" lon="3.52583">
        <ele>61.633</ele>
        <time>2019-09-19T07:37:10.000Z</time>
      </trkpt>
      <trkpt lat="50.34138" lon="3.526">
        <ele>64.268</ele>
        <time>2019-09-19T07:37:49.000Z</time>
      </trkpt>
      <trkpt lat="50.34011" lon="3.5264">
        <ele>57.4</ele>
        <time>2019-09-19T07:38:19.000Z</time>
      </trkpt>
      <trkpt lat="50.33883" lon="3.52699">
        <ele>55.755</ele>
        <time>2019-09-19T07:38:49.000Z</time>
      </trkpt>
      <trkpt lat="50.33732" lon="3.5273">
        <ele>53.548</ele>
        <time>2019-09-19T07:39:19.000Z</time>
      </trkpt>
      <trkpt lat="50.33595" lon="3.52748">
        <ele>59.166</ele>
        <time>2019-09-19T07:39:49.000Z</time>
      </trkpt>
      <trkpt lat="50.33455" lon="3.52775">
        <ele>62.691</ele>
        <time>2019-09-19T07:40:19.000Z</time>
      </trkpt>
      <trkpt lat="50.33301" lon="3.52815">
        <ele>60.638</ele>
        <time>2019-09-19T07:40:49.000Z</time>
      </trkpt>
      <trkpt lat="50.33289" lon="3.52902">
        <ele>48.166</ele>
        <time>2019-09-19T07:43:25.000Z</time>
      </trkpt>
      <trkpt lat="50.33286" lon="3.5282">
        <ele>50.191</ele>
        <time>2019-09-19T07:44:10.000Z</time>
      </trkpt>
      <trkpt lat="50.3314" lon="3.52877">
        <ele>53.641</ele>
        <time>2019-09-19T07:44:40.000Z</time>
      </trkpt>
      <trkpt lat="50.3304" lon="3.52818">
        <ele>57.516</ele>
        <time>2019-09-19T07:45:10.000Z</time>
      </trkpt>
      <trkpt lat="50.32918" lon="3.52747">
        <ele>54.998</ele>
        <time>2019-09-19T07:45:40.000Z</time>
      </trkpt>
      <trkpt lat="50.328" lon="3.52693">
        <ele>49.973</ele>
        <time>2019-09-19T07:46:10.000Z</time>
      </trkpt>
      <trkpt lat="50.32662" lon="3.52656">
        <ele>52.934</ele>
        <time>2019-09-19T07:46:40.000Z</time>
      </trkpt>
      <trkpt lat="50.32503" lon="3.52704">
        <ele>45.865</ele>
        <time>2019-09-19T07:47:10.000Z</time>
      </trkpt>
      <trkpt lat="50.32351" lon="3.52732">
        <ele>41.17</ele>
        <time>2019-09-19T07:47:40.000Z</time>
      </trkpt>
      <trkpt lat="50.32212" lon="3.5273">
        <ele>41.136</ele>
        <time>2019-09-19T07:48:10.000Z</time>
      </trkpt>
      <trkpt lat="50.32073" lon="3.52763">
        <ele>39.946</ele>
        <time>2019-09-19T07:48:40.000Z</time>
      </trkpt>
      <trkpt lat="50.31943" lon="3.52816">
        <ele>39.535</ele>
        <time>2019-09-19T07:49:10.000Z</time>
      </trkpt>
      <trkpt lat="50.31821" lon="3.52868">
        <ele>40.765</ele>
        <time>2019-09-19T07:49:40.000Z</time>
      </trkpt>
      <trkpt lat="50.31706" lon="3.52976">
        <ele>42.452</ele>
        <time>2019-09-19T07:50:10.000Z</time>
      </trkpt>
      <trkpt lat="50.316" lon="3.5309">
        <ele>40.97</ele>
        <time>2019-09-19T07:50:40.000Z</time>
      </trkpt>
      <trkpt lat="50.31501" lon="3.53241">
        <ele>41.027</ele>
        <time>2019-09-19T07:51:10.000Z</time>
      </trkpt>
      <trkpt lat="50.31395" lon="3.53349">
        <ele>44.128</ele>
        <time>2019-09-19T07:51:40.000Z</time>
      </trkpt>
      <trkpt lat="50.31319" lon="3.53426">
        <ele>46.073</ele>
        <time>2019-09-19T07:52:10.000Z</time>
      </trkpt>
      <trkpt lat="50.31224" lon="3.53505">
        <ele>47.882</ele>
        <time>2019-09-19T07:52:40.000Z</time>
      </trkpt>
      <trkpt lat="50.31152" lon="3.53581">
        <ele>52.024</ele>
        <time>2019-09-19T07:53:10.000Z</time>
      </trkpt>
      <trkpt lat="50.31072" lon="3.53642">
        <ele>54.959</ele>
        <time>2019-09-19T07:53:40.000Z</time>
      </trkpt>
      <trkpt lat="50.30991" lon="3.53679">
        <ele>57.453</ele>
        <time>2019-09-19T07:54:10.000Z</time>
      </trkpt>
      <trkpt lat="50.30903" lon="3.53742">
        <ele>60.842</ele>
        <time>2019-09-19T07:54:40.000Z</time>
      </trkpt>
      <trkpt lat="50.30822" lon="3.53803">
        <ele>61.958</ele>
        <time>2019-09-19T07:55:10.000Z</time>
      </trkpt>
      <trkpt lat="50.30743" lon="3.53828">
        <ele>63.992</ele>
        <time>2019-09-19T07:55:40.001Z</time>
      </trkpt>
      <trkpt lat="50.3066" lon="3.5386">
        <ele>67.81</ele>
        <time>2019-09-19T07:56:10.001Z</time>
      </trkpt>
      <trkpt lat="50.3048" lon="3.53899">
        <ele>62.875</ele>
        <time>2019-09-19T07:56:40.001Z</time>
      </trkpt>
      <trkpt lat="50.30316" lon="3.53888">
        <ele>58.502</ele>
        <time>2019-09-19T07:57:10.001Z</time>
      </trkpt>
      <trkpt lat="50.30154" lon="3.53841">
        <ele>54.326</ele>
        <time>2019-09-19T07:57:40.001Z</time>
      </trkpt>
      <trkpt lat="50.30003" lon="3.53865">
        <ele>56.353</ele>
        <time>2019-09-19T07:58:10.001Z</time>
      </trkpt>
      <trkpt lat="50.29869" lon="3.53871">
        <ele>61.275</ele>
        <time>2019-09-19T07:58:40.001Z</time>
      </trkpt>
      <trkpt lat="50.29734" lon="3.54037">
        <ele>65.794</ele>
        <time>2019-09-19T07:59:10.001Z</time>
      </trkpt>
      <trkpt lat="50.29676" lon="3.54233">
        <ele>61.06</ele>
        <time>2019-09-19T07:59:40.001Z</time>
      </trkpt>
      <trkpt lat="50.29733" lon="3.54449">
        <ele>53.495</ele>
        <time>2019-09-19T08:00:10.001Z</time>
      </trkpt>
      <trkpt lat="50.29741" lon="3.54515">
        <ele>54.722</ele>
        <time>2019-09-19T08:02:28.001Z</time>
      </trkpt>
      <trkpt lat="50.2972" lon="3.54327">
        <ele>54.258</ele>
        <time>2019-09-19T08:02:58.001Z</time>
      </trkpt>
      <trkpt lat="50.29664" lon="3.54193">
        <ele>54.277</ele>
        <time>2019-09-19T08:03:28.001Z</time>
      </trkpt>
      <trkpt lat="50.29584" lon="3.54131">
        <ele>63.249</ele>
        <time>2019-09-19T08:03:58.001Z</time>
      </trkpt>
      <trkpt lat="50.29486" lon="3.54064">
        <ele>69.944</ele>
        <time>2019-09-19T08:04:28.001Z</time>
      </trkpt>
      <trkpt lat="50.29387" lon="3.54088">
        <ele>70.696</ele>
        <time>2019-09-19T08:04:58.001Z</time>
      </trkpt>
      <trkpt lat="50.29308" lon="3.54072">
        <ele>73.354</ele>
        <time>2019-09-19T08:05:28.001Z</time>
      </trkpt>
      <trkpt lat="50.29269" lon="3.53978">
        <ele>80.655</ele>
        <time>2019-09-19T08:05:58.001Z</time>
      </trkpt>
      <trkpt lat="50.2918" lon="3.5392">
        <ele>79.26</ele>
        <time>2019-09-19T08:06:28.001Z</time>
      </trkpt>
      <trkpt lat="50.29095" lon="3.53992">
        <ele>79.382</ele>
        <time>2019-09-19T08:06:58.001Z</time>
      </trkpt>
      <trkpt lat="50.29023" lon="3.54114">
        <ele>77.33</ele>
        <time>2019-09-19T08:07:28.001Z</time>
      </trkpt>
      <trkpt lat="50.28928" lon="3.5422">
        <ele>77.93</ele>
        <time>2019-09-19T08:07:58.001Z</time>
      </trkpt>
      <trkpt lat="50.28852" lon="3.54323">
        <ele>83.234</ele>
        <time>2019-09-19T08:08:28.001Z</time>
      </trkpt>
      <trkpt lat="50.28793" lon="3.54421">
        <ele>89.969</ele>
        <time>2019-09-19T08:08:58.001Z</time>
      </trkpt>
      <trkpt lat="50.28718" lon="3.54541">
        <ele>87.994</ele>
        <time>2019-09-19T08:09:28.001Z</time>
      </trkpt>
      <trkpt lat="50.28591" lon="3.54723">
        <ele>77.31</ele>
        <time>2019-09-19T08:09:58.001Z</time>
      </trkpt>
      <trkpt lat="50.28534" lon="3.54919">
        <ele>81.893</ele>
        <time>2019-09-19T08:10:28.001Z</time>
      </trkpt>
      <trkpt lat="50.28391" lon="3.55144">
        <ele>75.556</ele>
        <time>2019-09-19T08:10:58.001Z</time>
      </trkpt>
      <trkpt lat="50.28285" lon="3.55305">
        <ele>79.103</ele>
        <time>2019-09-19T08:11:28.001Z</time>
      </trkpt>
      <trkpt lat="50.28227" lon="3.5546">
        <ele>83.725</ele>
        <time>2019-09-19T08:11:58.001Z</time>
      </trkpt>
      <trkpt lat="50.2818" lon="3.55607">
        <ele>88.063</ele>
        <time>2019-09-19T08:12:28.001Z</time>
      </trkpt>
      <trkpt lat="50.28255" lon="3.55858">
        <ele>86.858</ele>
        <time>2019-09-19T08:12:58.001Z</time>
      </trkpt>
      <trkpt lat="50.28196" lon="3.56104">
        <ele>82.876</ele>
        <time>2019-09-19T08:13:28.001Z</time>
      </trkpt>
      <trkpt lat="50.28286" lon="3.56375">
        <ele>75.645</ele>
        <time>2019-09-19T08:14:01.001Z</time>
      </trkpt>
      <trkpt lat="50.2817" lon="3.56379">
        <ele>75.419</ele>
        <time>2019-09-19T08:14:31.001Z</time>
      </trkpt>
      <trkpt lat="50.28058" lon="3.5634">
        <ele>80.81</ele>
        <time>2019-09-19T08:15:01.001Z</time>
      </trkpt>
      <trkpt lat="50.27945" lon="3.56294">
        <ele>84.223</ele>
        <time>2019-09-19T08:15:31.001Z</time>
      </trkpt>
      <trkpt lat="50.27865" lon="3.56354">
        <ele>87.462</ele>
        <time>2019-09-19T08:16:01.001Z</time>
      </trkpt>
      <trkpt lat="50.27754" lon="3.56418">
        <ele>90.888</ele>
        <time>2019-09-19T08:16:31.001Z</time>
      </trkpt>
      <trkpt lat="50.27662" lon="3.56471">
        <ele>88.043</ele>
        <time>2019-09-19T08:17:01.001Z</time>
      </trkpt>
      <trkpt lat="50.27588" lon="3.56545">
        <ele>85.839</ele>
        <time>2019-09-19T08:17:31.001Z</time>
      </trkpt>
      <trkpt lat="50.27498" lon="3.56652">
        <ele>85.964</ele>
        <time>2019-09-19T08:18:01.001Z</time>
      </trkpt>
      <trkpt lat="50.27403" lon="3.56767">
        <ele>87.098</ele>
        <time>2019-09-19T08:18:31.001Z</time>
      </trkpt>
      <trkpt lat="50.27311" lon="3.56886">
        <ele>88.552</ele>
        <time>2019-09-19T08:19:01.001Z</time>
      </trkpt>
      <trkpt lat="50.27217" lon="3.57003">
        <ele>89.845</ele>
        <time>2019-09-19T08:19:31.001Z</time>
      </trkpt>
      <trkpt lat="50.27121" lon="3.57113">
        <ele>91.091</ele>
        <time>2019-09-19T08:20:01.001Z</time>
      </trkpt>
      <trkpt lat="50.2704" lon="3.57233">
        <ele>93.145</ele>
        <time>2019-09-19T08:20:31.001Z</time>
      </trkpt>
      <trkpt lat="50.26969" lon="3.57354">
        <ele>95.722</ele>
        <time>2019-09-19T08:21:01.001Z</time>
      </trkpt>
      <trkpt lat="50.26905" lon="3.57426">
        <ele>100.39</ele>
        <time>2019-09-19T08:21:31.001Z</time>
      </trkpt>
      <trkpt lat="50.26849" lon="3.57503">
        <ele>103.561</ele>
        <time>2019-09-19T08:22:01.001Z</time>
      </trkpt>
      <trkpt lat="50.26789" lon="3.57583">
        <ele>104.808</ele>
        <time>2019-09-19T08:22:31.001Z</time>
      </trkpt>
      <trkpt lat="50.26689" lon="3.57706">
        <ele>104.477</ele>
        <time>2019-09-19T08:23:01.001Z</time>
      </trkpt>
      <trkpt lat="50.26563" lon="3.57849">
        <ele>105.662</ele>
        <time>2019-09-19T08:23:31.001Z</time>
      </trkpt>
      <trkpt lat="50.26444" lon="3.57947">
        <ele>106.835</ele>
        <time>2019-09-19T08:24:01.001Z</time>
      </trkpt>
      <trkpt lat="50.26331" lon="3.5804">
        <ele>107.072</ele>
        <time>2019-09-19T08:24:31.001Z</time>
      </trkpt>
      <trkpt lat="50.26217" lon="3.5819">
        <ele>106.994</ele>
        <time>2019-09-19T08:25:01.001Z</time>
      </trkpt>
      <trkpt lat="50.26106" lon="3.58309">
        <ele>107.762</ele>
        <time>2019-09-19T08:25:31.001Z</time>
      </trkpt>
      <trkpt lat="50.25958" lon="3.584">
        <ele>107.521</ele>
        <time>2019-09-19T08:26:01.001Z</time>
      </trkpt>
      <trkpt lat="50.25851" lon="3.58448">
        <ele>108.999</ele>
        <time>2019-09-19T08:26:31.001Z</time>
      </trkpt>
      <trkpt lat="50.25873" lon="3.58682">
        <ele>106.262</ele>
        <time>2019-09-19T08:27:01.001Z</time>
      </trkpt>
      <trkpt lat="50.25846" lon="3.58894">
        <ele>106.424</ele>
        <time>2019-09-19T08:27:31.001Z</time>
      </trkpt>
      <trkpt lat="50.25805" lon="3.59071">
        <ele>103.7</ele>
        <time>2019-09-19T08:28:01.001Z</time>
      </trkpt>
      <trkpt lat="50.25775" lon="3.59265">
        <ele>104.385</ele>
        <time>2019-09-19T08:28:31.001Z</time>
      </trkpt>
      <trkpt lat="50.25738" lon="3.59449">
        <ele>109.326</ele>
        <time>2019-09-19T08:29:01.001Z</time>
      </trkpt>
      <trkpt lat="50.25714" lon="3.59618">
        <ele>112.059</ele>
        <time>2019-09-19T08:29:31.001Z</time>
      </trkpt>
      <trkpt lat="50.25669" lon="3.59792">
        <ele>113.541</ele>
        <time>2019-09-19T08:30:01.001Z</time>
      </trkpt>
      <trkpt lat="50.25624" lon="3.59953">
        <ele>114.597</ele>
        <time>2019-09-19T08:30:31.001Z</time>
      </trkpt>
      <trkpt lat="50.25569" lon="3.60089">
        <ele>117.271</ele>
        <time>2019-09-19T08:31:01.001Z</time>
      </trkpt>
      <trkpt lat="50.25495" lon="3.60225">
        <ele>112.567</ele>
        <time>2019-09-19T08:31:31.001Z</time>
      </trkpt>
      <trkpt lat="50.25444" lon="3.60397">
        <ele>112.042</ele>
        <time>2019-09-19T08:32:01.001Z</time>
      </trkpt>
      <trkpt lat="50.25388" lon="3.60556">
        <ele>112.618</ele>
        <time>2019-09-19T08:32:31.001Z</time>
      </trkpt>
      <trkpt lat="50.25327" lon="3.60707">
        <ele>115.114</ele>
        <time>2019-09-19T08:33:01.001Z</time>
      </trkpt>
      <trkpt lat="50.25283" lon="3.60866">
        <ele>115.253</ele>
        <time>2019-09-19T08:33:31.001Z</time>
      </trkpt>
      <trkpt lat="50.25256" lon="3.61042">
        <ele>116.156</ele>
        <time>2019-09-19T08:34:01.001Z</time>
      </trkpt>
      <trkpt lat="50.25227" lon="3.61239">
        <ele>113.645</ele>
        <time>2019-09-19T08:34:31.001Z</time>
      </trkpt>
      <trkpt lat="50.25202" lon="3.61442">
        <ele>111.734</ele>
        <time>2019-09-19T08:35:01.001Z</time>
      </trkpt>
      <trkpt lat="50.25179" lon="3.61663">
        <ele>114.16</ele>
        <time>2019-09-19T08:35:31.001Z</time>
      </trkpt>
      <trkpt lat="50.25167" lon="3.61875">
        <ele>112.662</ele>
        <time>2019-09-19T08:36:01.001Z</time>
      </trkpt>
      <trkpt lat="50.25142" lon="3.62082">
        <ele>112.78</ele>
        <time>2019-09-19T08:36:31.001Z</time>
      </trkpt>
      <trkpt lat="50.25101" lon="3.62257">
        <ele>112.293</ele>
        <time>2019-09-19T08:37:01.001Z</time>
      </trkpt>
      <trkpt lat="50.25062" lon="3.62417">
        <ele>119.971</ele>
        <time>2019-09-19T08:37:31.001Z</time>
      </trkpt>
      <trkpt lat="50.24983" lon="3.62482">
        <ele>118.843</ele>
        <time>2019-09-19T08:38:01.001Z</time>
      </trkpt>
      <trkpt lat="50.24994" lon="3.62614">
        <ele>120.239</ele>
        <time>2019-09-19T08:38:31.001Z</time>
      </trkpt>
      <trkpt lat="50.24975" lon="3.62813">
        <ele>121.828</ele>
        <time>2019-09-19T08:39:01.001Z</time>
      </trkpt>
      <trkpt lat="50.24906" lon="3.63023">
        <ele>120.573</ele>
        <time>2019-09-19T08:39:31.001Z</time>
      </trkpt>
      <trkpt lat="50.24856" lon="3.63188">
        <ele>121.377</ele>
        <time>2019-09-19T08:40:01.001Z</time>
      </trkpt>
      <trkpt lat="50.24802" lon="3.63329">
        <ele>128.415</ele>
        <time>2019-09-19T08:40:31.001Z</time>
      </trkpt>
      <trkpt lat="50.24753" lon="3.63462">
        <ele>135.397</ele>
        <time>2019-09-19T08:41:01.001Z</time>
      </trkpt>
      <trkpt lat="50.24698" lon="3.63616">
        <ele>138.05</ele>
        <time>2019-09-19T08:41:31.001Z</time>
      </trkpt>
      <trkpt lat="50.24676" lon="3.63713">
        <ele>148.199</ele>
        <time>2019-09-19T08:42:07.001Z</time>
      </trkpt>
      <trkpt lat="50.24697" lon="3.63738">
        <ele>146.116</ele>
        <time>2019-09-19T08:47:28.001Z</time>
      </trkpt>
      <trkpt lat="50.24726" lon="3.63787">
        <ele>140.682</ele>
        <time>2019-09-19T09:13:07.001Z</time>
      </trkpt>
      <trkpt lat="50.24771" lon="3.63899">
        <ele>138.922</ele>
        <time>2019-09-19T09:13:37.001Z</time>
      </trkpt>
      <trkpt lat="50.2475" lon="3.64044">
        <ele>132.321</ele>
        <time>2019-09-19T09:14:07.001Z</time>
      </trkpt>
      <trkpt lat="50.24784" lon="3.64146">
        <ele>139.157</ele>
        <time>2019-09-19T09:14:37.001Z</time>
      </trkpt>
      <trkpt lat="50.24846" lon="3.64107">
        <ele>138.767</ele>
        <time>2019-09-19T09:16:49.001Z</time>
      </trkpt>
      <trkpt lat="50.24914" lon="3.6428">
        <ele>135.958</ele>
        <time>2019-09-19T09:17:19.001Z</time>
      </trkpt>
      <trkpt lat="50.24983" lon="3.64468">
        <ele>132.732</ele>
        <time>2019-09-19T09:17:49.001Z</time>
      </trkpt>
      <trkpt lat="50.24947" lon="3.64654">
        <ele>122.033</ele>
        <time>2019-09-19T09:18:19.001Z</time>
      </trkpt>
      <trkpt lat="50.24851" lon="3.64833">
        <ele>123.365</ele>
        <time>2019-09-19T09:18:49.001Z</time>
      </trkpt>
      <trkpt lat="50.24754" lon="3.64987">
        <ele>130.007</ele>
        <time>2019-09-19T09:19:19.001Z</time>
      </trkpt>
      <trkpt lat="50.24656" lon="3.65111">
        <ele>133.617</ele>
        <time>2019-09-19T09:19:49.001Z</time>
      </trkpt>
      <trkpt lat="50.24564" lon="3.65216">
        <ele>137.353</ele>
        <time>2019-09-19T09:20:19.001Z</time>
      </trkpt>
      <trkpt lat="50.24502" lon="3.65353">
        <ele>132.56</ele>
        <time>2019-09-19T09:20:49.001Z</time>
      </trkpt>
      <trkpt lat="50.24493" lon="3.65344">
        <ele>128.711</ele>
        <time>2019-09-19T09:22:40.001Z</time>
      </trkpt>
      <trkpt lat="50.24378" lon="3.65198">
        <ele>127.736</ele>
        <time>2019-09-19T09:23:10.001Z</time>
      </trkpt>
      <trkpt lat="50.243" lon="3.64987">
        <ele>129.195</ele>
        <time>2019-09-19T09:23:40.001Z</time>
      </trkpt>
      <trkpt lat="50.24222" lon="3.64815">
        <ele>127.759</ele>
        <time>2019-09-19T09:24:10.001Z</time>
      </trkpt>
      <trkpt lat="50.24155" lon="3.6499">
        <ele>127.069</ele>
        <time>2019-09-19T09:24:40.001Z</time>
      </trkpt>
      <trkpt lat="50.24067" lon="3.6514">
        <ele>129.039</ele>
        <time>2019-09-19T09:25:10.001Z</time>
      </trkpt>
      <trkpt lat="50.23986" lon="3.6528">
        <ele>133.464</ele>
        <time>2019-09-19T09:25:40.001Z</time>
      </trkpt>
      <trkpt lat="50.23899" lon="3.65418">
        <ele>130.886</ele>
        <time>2019-09-19T09:26:10.001Z</time>
      </trkpt>
      <trkpt lat="50.23803" lon="3.65591">
        <ele>129.582</ele>
        <time>2019-09-19T09:26:40.001Z</time>
      </trkpt>
      <trkpt lat="50.23698" lon="3.65765">
        <ele>128.259</ele>
        <time>2019-09-19T09:27:10.001Z</time>
      </trkpt>
      <trkpt lat="50.23603" lon="3.65927">
        <ele>130.045</ele>
        <time>2019-09-19T09:27:40.001Z</time>
      </trkpt>
      <trkpt lat="50.23515" lon="3.66078">
        <ele>132.06</ele>
        <time>2019-09-19T09:28:10.001Z</time>
      </trkpt>
      <trkpt lat="50.23431" lon="3.6622">
        <ele>133.86</ele>
        <time>2019-09-19T09:28:40.001Z</time>
      </trkpt>
      <trkpt lat="50.23356" lon="3.66352">
        <ele>137.11</ele>
        <time>2019-09-19T09:29:10.001Z</time>
      </trkpt>
      <trkpt lat="50.23278" lon="3.66489">
        <ele>139.277</ele>
        <time>2019-09-19T09:29:40.001Z</time>
      </trkpt>
      <trkpt lat="50.232" lon="3.66628">
        <ele>142.271</ele>
        <time>2019-09-19T09:30:10.001Z</time>
      </trkpt>
      <trkpt lat="50.23147" lon="3.66789">
        <ele>140.753</ele>
        <time>2019-09-19T09:30:40.001Z</time>
      </trkpt>
      <trkpt lat="50.23106" lon="3.66973">
        <ele>145.053</ele>
        <time>2019-09-19T09:31:10.001Z</time>
      </trkpt>
      <trkpt lat="50.23087" lon="3.67176">
        <ele>140.659</ele>
        <time>2019-09-19T09:31:40.001Z</time>
      </trkpt>
      <trkpt lat="50.23021" lon="3.6735">
        <ele>143.685</ele>
        <time>2019-09-19T09:32:10.001Z</time>
      </trkpt>
      <trkpt lat="50.2292" lon="3.67483">
        <ele>143.603</ele>
        <time>2019-09-19T09:32:40.001Z</time>
      </trkpt>
      <trkpt lat="50.22829" lon="3.67605">
        <ele>147.881</ele>
        <time>2019-09-19T09:33:10.001Z</time>
      </trkpt>
      <trkpt lat="50.22722" lon="3.67736">
        <ele>145.067</ele>
        <time>2019-09-19T09:33:40.001Z</time>
      </trkpt>
      <trkpt lat="50.22589" lon="3.67905">
        <ele>142.651</ele>
        <time>2019-09-19T09:34:10.001Z</time>
      </trkpt>
      <trkpt lat="50.22451" lon="3.68064">
        <ele>144.038</ele>
        <time>2019-09-19T09:34:40.001Z</time>
      </trkpt>
      <trkpt lat="50.22343" lon="3.68148">
        <ele>142.329</ele>
        <time>2019-09-19T09:35:10.001Z</time>
      </trkpt>
      <trkpt lat="50.22233" lon="3.68233">
        <ele>144.96</ele>
        <time>2019-09-19T09:35:40.001Z</time>
      </trkpt>
      <trkpt lat="50.22125" lon="3.68345">
        <ele>144.456</ele>
        <time>2019-09-19T09:36:10.001Z</time>
      </trkpt>
      <trkpt lat="50.22028" lon="3.68464">
        <ele>146.021</ele>
        <time>2019-09-19T09:36:40.001Z</time>
      </trkpt>
      <trkpt lat="50.21934" lon="3.68572">
        <ele>156.684</ele>
        <time>2019-09-19T09:37:10.001Z</time>
      </trkpt>
      <trkpt lat="50.21841" lon="3.68682">
        <ele>156.193</ele>
        <time>2019-09-19T09:37:40.001Z</time>
      </trkpt>
      <trkpt lat="50.21758" lon="3.68772">
        <ele>164.803</ele>
        <time>2019-09-19T09:38:10.001Z</time>
      </trkpt>
      <trkpt lat="50.21674" lon="3.68858">
        <ele>167.486</ele>
        <time>2019-09-19T09:38:40.001Z</time>
      </trkpt>
      <trkpt lat="50.21587" lon="3.68943">
        <ele>160.103</ele>
        <time>2019-09-19T09:39:10.001Z</time>
      </trkpt>
      <trkpt lat="50.21518" lon="3.6904">
        <ele>160.569</ele>
        <time>2019-09-19T09:39:40.001Z</time>
      </trkpt>
      <trkpt lat="50.21451" lon="3.69223">
        <ele>166.964</ele>
        <time>2019-09-19T09:40:10.001Z</time>
      </trkpt>
      <trkpt lat="50.21405" lon="3.6947">
        <ele>166.295</ele>
        <time>2019-09-19T09:40:40.001Z</time>
      </trkpt>
      <trkpt lat="50.21373" lon="3.6967">
        <ele>169.94</ele>
        <time>2019-09-19T09:41:10.001Z</time>
      </trkpt>
      <trkpt lat="50.21267" lon="3.69857">
        <ele>161.735</ele>
        <time>2019-09-19T09:41:40.001Z</time>
      </trkpt>
      <trkpt lat="50.21147" lon="3.69921">
        <ele>154.253</ele>
        <time>2019-09-19T09:42:10.001Z</time>
      </trkpt>
      <trkpt lat="50.21044" lon="3.69956">
        <ele>158.98</ele>
        <time>2019-09-19T09:42:40.001Z</time>
      </trkpt>
      <trkpt lat="50.20917" lon="3.69984">
        <ele>160.067</ele>
        <time>2019-09-19T09:43:10.001Z</time>
      </trkpt>
      <trkpt lat="50.20683" lon="3.70028">
        <ele>154.252</ele>
        <time>2019-09-19T09:43:40.001Z</time>
      </trkpt>
      <trkpt lat="50.20537" lon="3.70143">
        <ele>150.969</ele>
        <time>2019-09-19T09:44:10.001Z</time>
      </trkpt>
      <trkpt lat="50.2045" lon="3.70273">
        <ele>154.554</ele>
        <time>2019-09-19T09:44:40.001Z</time>
      </trkpt>
      <trkpt lat="50.20355" lon="3.70393">
        <ele>155.155</ele>
        <time>2019-09-19T09:45:10.001Z</time>
      </trkpt>
      <trkpt lat="50.20244" lon="3.70558">
        <ele>156.682</ele>
        <time>2019-09-19T09:45:40.001Z</time>
      </trkpt>
      <trkpt lat="50.20178" lon="3.70693">
        <ele>156.861</ele>
        <time>2019-09-19T09:46:10.001Z</time>
      </trkpt>
      <trkpt lat="50.20125" lon="3.70808">
        <ele>157.381</ele>
        <time>2019-09-19T09:46:40.001Z</time>
      </trkpt>
      <trkpt lat="50.20083" lon="3.70978">
        <ele>157.227</ele>
        <time>2019-09-19T09:47:10.001Z</time>
      </trkpt>
      <trkpt lat="50.20016" lon="3.71245">
        <ele>152.657</ele>
        <time>2019-09-19T09:47:40.001Z</time>
      </trkpt>
      <trkpt lat="50.19956" lon="3.71416">
        <ele>154.305</ele>
        <time>2019-09-19T09:48:10.001Z</time>
      </trkpt>
      <trkpt lat="50.19869" lon="3.71624">
        <ele>153.494</ele>
        <time>2019-09-19T09:48:40.001Z</time>
      </trkpt>
      <trkpt lat="50.1984" lon="3.71768">
        <ele>160.975</ele>
        <time>2019-09-19T09:49:10.001Z</time>
      </trkpt>
      <trkpt lat="50.19722" lon="3.7179">
        <ele>161.218</ele>
        <time>2019-09-19T09:49:40.001Z</time>
      </trkpt>
      <trkpt lat="50.19611" lon="3.71775">
        <ele>160.664</ele>
        <time>2019-09-19T09:50:10.001Z</time>
      </trkpt>
      <trkpt lat="50.19495" lon="3.71759">
        <ele>159.959</ele>
        <time>2019-09-19T09:50:40.001Z</time>
      </trkpt>
      <trkpt lat="50.19376" lon="3.71801">
        <ele>165.742</ele>
        <time>2019-09-19T09:51:10.001Z</time>
      </trkpt>
      <trkpt lat="50.19249" lon="3.71856">
        <ele>176.576</ele>
        <time>2019-09-19T09:51:40.001Z</time>
      </trkpt>
      <trkpt lat="50.19113" lon="3.71911">
        <ele>177.868</ele>
        <time>2019-09-19T09:52:10.001Z</time>
      </trkpt>
      <trkpt lat="50.19018" lon="3.7195">
        <ele>180.515</ele>
        <time>2019-09-19T09:52:40.001Z</time>
      </trkpt>
      <trkpt lat="50.18942" lon="3.71971">
        <ele>176.757</ele>
        <time>2019-09-19T09:53:13.001Z</time>
      </trkpt>
      <trkpt lat="50.1889" lon="3.72032">
        <ele>170.51</ele>
        <time>2019-09-19T09:59:37.001Z</time>
      </trkpt>
      <trkpt lat="50.18737" lon="3.72208">
        <ele>158.581</ele>
        <time>2019-09-19T10:00:07.001Z</time>
      </trkpt>
      <trkpt lat="50.18649" lon="3.72289">
        <ele>164.115</ele>
        <time>2019-09-19T10:00:37.001Z</time>
      </trkpt>
      <trkpt lat="50.18564" lon="3.72374">
        <ele>165.207</ele>
        <time>2019-09-19T10:01:07.001Z</time>
      </trkpt>
      <trkpt lat="50.18381" lon="3.72562">
        <ele>157.468</ele>
        <time>2019-09-19T10:01:37.001Z</time>
      </trkpt>
      <trkpt lat="50.18294" lon="3.72655">
        <ele>161.734</ele>
        <time>2019-09-19T10:02:07.001Z</time>
      </trkpt>
      <trkpt lat="50.18232" lon="3.72719">
        <ele>163.837</ele>
        <time>2019-09-19T10:02:37.001Z</time>
      </trkpt>
      <trkpt lat="50.18154" lon="3.72795">
        <ele>172.555</ele>
        <time>2019-09-19T10:03:07.001Z</time>
      </trkpt>
      <trkpt lat="50.18035" lon="3.72919">
        <ele>171.017</ele>
        <time>2019-09-19T10:03:37.001Z</time>
      </trkpt>
      <trkpt lat="50.1786" lon="3.73094">
        <ele>161.424</ele>
        <time>2019-09-19T10:04:07.001Z</time>
      </trkpt>
      <trkpt lat="50.17723" lon="3.73241">
        <ele>162.436</ele>
        <time>2019-09-19T10:04:37.001Z</time>
      </trkpt>
      <trkpt lat="50.1761" lon="3.73355">
        <ele>166.662</ele>
        <time>2019-09-19T10:05:07.001Z</time>
      </trkpt>
      <trkpt lat="50.1749" lon="3.73481">
        <ele>167.624</ele>
        <time>2019-09-19T10:05:37.001Z</time>
      </trkpt>
      <trkpt lat="50.17345" lon="3.73568">
        <ele>168.029</ele>
        <time>2019-09-19T10:06:07.001Z</time>
      </trkpt>
      <trkpt lat="50.17111" lon="3.73632">
        <ele>163.794</ele>
        <time>2019-09-19T10:06:37.001Z</time>
      </trkpt>
      <trkpt lat="50.16904" lon="3.73846">
        <ele>151.755</ele>
        <time>2019-09-19T10:07:07.001Z</time>
      </trkpt>
      <trkpt lat="50.16684" lon="3.74081">
        <ele>141.412</ele>
        <time>2019-09-19T10:07:37.001Z</time>
      </trkpt>
      <trkpt lat="50.1652" lon="3.74259">
        <ele>144.013</ele>
        <time>2019-09-19T10:08:07.001Z</time>
      </trkpt>
      <trkpt lat="50.16298" lon="3.74377">
        <ele>137.189</ele>
        <time>2019-09-19T10:08:37.001Z</time>
      </trkpt>
      <trkpt lat="50.16086" lon="3.74355">
        <ele>134.418</ele>
        <time>2019-09-19T10:09:07.001Z</time>
      </trkpt>
      <trkpt lat="50.15873" lon="3.74312">
        <ele>129.529</ele>
        <time>2019-09-19T10:09:37.001Z</time>
      </trkpt>
      <trkpt lat="50.15701" lon="3.74334">
        <ele>134.305</ele>
        <time>2019-09-19T10:10:07.001Z</time>
      </trkpt>
      <trkpt lat="50.15581" lon="3.74375">
        <ele>134.262</ele>
        <time>2019-09-19T10:10:37.001Z</time>
      </trkpt>
      <trkpt lat="50.15431" lon="3.74544">
        <ele>132.799</ele>
        <time>2019-09-19T10:11:07.001Z</time>
      </trkpt>
      <trkpt lat="50.15304" lon="3.74704">
        <ele>129.216</ele>
        <time>2019-09-19T10:11:37.001Z</time>
      </trkpt>
      <trkpt lat="50.15182" lon="3.74856">
        <ele>128.895</ele>
        <time>2019-09-19T10:12:07.001Z</time>
      </trkpt>
      <trkpt lat="50.15085" lon="3.75017">
        <ele>132.104</ele>
        <time>2019-09-19T10:12:37.001Z</time>
      </trkpt>
      <trkpt lat="50.15023" lon="3.75203">
        <ele>131.731</ele>
        <time>2019-09-19T10:13:07.001Z</time>
      </trkpt>
      <trkpt lat="50.14952" lon="3.75394">
        <ele>131.449</ele>
        <time>2019-09-19T10:13:37.001Z</time>
      </trkpt>
      <trkpt lat="50.14833" lon="3.75501">
        <ele>133.449</ele>
        <time>2019-09-19T10:14:07.001Z</time>
      </trkpt>
      <trkpt lat="50.14718" lon="3.75521">
        <ele>134.279</ele>
        <time>2019-09-19T10:14:37.001Z</time>
      </trkpt>
      <trkpt lat="50.14639" lon="3.75571">
        <ele>139.112</ele>
        <time>2019-09-19T10:15:07.001Z</time>
      </trkpt>
      <trkpt lat="50.14562" lon="3.75626">
        <ele>144.016</ele>
        <time>2019-09-19T10:15:37.001Z</time>
      </trkpt>
      <trkpt lat="50.14479" lon="3.75671">
        <ele>143.899</ele>
        <time>2019-09-19T10:16:07.001Z</time>
      </trkpt>
      <trkpt lat="50.14395" lon="3.75712">
        <ele>146.962</ele>
        <time>2019-09-19T10:16:37.001Z</time>
      </trkpt>
      <trkpt lat="50.14313" lon="3.75739">
        <ele>148.309</ele>
        <time>2019-09-19T10:17:07.001Z</time>
      </trkpt>
      <trkpt lat="50.14228" lon="3.75766">
        <ele>149.36</ele>
        <time>2019-09-19T10:17:37.001Z</time>
      </trkpt>
      <trkpt lat="50.14149" lon="3.75868">
        <ele>152.071</ele>
        <time>2019-09-19T10:18:07.001Z</time>
      </trkpt>
      <trkpt lat="50.14095" lon="3.7599">
        <ele>156.085</ele>
        <time>2019-09-19T10:18:37.001Z</time>
      </trkpt>
      <trkpt lat="50.14036" lon="3.76096">
        <ele>155.498</ele>
        <time>2019-09-19T10:19:07.001Z</time>
      </trkpt>
      <trkpt lat="50.13976" lon="3.7622">
        <ele>158.648</ele>
        <time>2019-09-19T10:19:40.001Z</time>
      </trkpt>
      <trkpt lat="50.13956" lon="3.76276">
        <ele>161.226</ele>
        <time>2019-09-19T10:22:34.001Z</time>
      </trkpt>
      <trkpt lat="50.13879" lon="3.76362">
        <ele>159.296</ele>
        <time>2019-09-19T10:23:04.001Z</time>
      </trkpt>
      <trkpt lat="50.13724" lon="3.76294">
        <ele>160.131</ele>
        <time>2019-09-19T10:23:34.001Z</time>
      </trkpt>
      <trkpt lat="50.13566" lon="3.76176">
        <ele>160.015</ele>
        <time>2019-09-19T10:24:04.001Z</time>
      </trkpt>
      <trkpt lat="50.13445" lon="3.76051">
        <ele>166.778</ele>
        <time>2019-09-19T10:24:34.001Z</time>
      </trkpt>
      <trkpt lat="50.13426" lon="3.76069">
        <ele>159.191</ele>
        <time>2019-09-19T10:30:07.001Z</time>
      </trkpt>
      <trkpt lat="50.13439" lon="3.76089">
        <ele>152.018</ele>
        <time>2019-09-19T10:47:34.001Z</time>
      </trkpt>
      <trkpt lat="50.13432" lon="3.76079">
        <ele>146.25</ele>
        <time>2019-09-19T10:49:07.001Z</time>
      </trkpt>
      <trkpt lat="50.13436" lon="3.76077">
        <ele>146.755</ele>
        <time>2019-09-19T10:51:46.001Z</time>
      </trkpt>
      <trkpt lat="50.13389" lon="3.75889">
        <ele>149.9</ele>
        <time>2019-09-19T10:54:22.001Z</time>
      </trkpt>
      <trkpt lat="50.1327" lon="3.75829">
        <ele>142.131</ele>
        <time>2019-09-19T10:54:52.001Z</time>
      </trkpt>
      <trkpt lat="50.13223" lon="3.75908">
        <ele>134.041</ele>
        <time>2019-09-19T10:56:04.001Z</time>
      </trkpt>
      <trkpt lat="50.13121" lon="3.75977">
        <ele>135.899</ele>
        <time>2019-09-19T10:56:34.001Z</time>
      </trkpt>
      <trkpt lat="50.12991" lon="3.76004">
        <ele>135.809</ele>
        <time>2019-09-19T10:57:04.001Z</time>
      </trkpt>
      <trkpt lat="50.12862" lon="3.75982">
        <ele>135.795</ele>
        <time>2019-09-19T10:57:34.001Z</time>
      </trkpt>
      <trkpt lat="50.12751" lon="3.75869">
        <ele>137.285</ele>
        <time>2019-09-19T10:58:04.001Z</time>
      </trkpt>
      <trkpt lat="50.12625" lon="3.75895">
        <ele>137.55</ele>
        <time>2019-09-19T10:58:34.001Z</time>
      </trkpt>
      <trkpt lat="50.12505" lon="3.75862">
        <ele>141.351</ele>
        <time>2019-09-19T10:59:04.001Z</time>
      </trkpt>
      <trkpt lat="50.12365" lon="3.75774">
        <ele>137.248</ele>
        <time>2019-09-19T10:59:34.001Z</time>
      </trkpt>
      <trkpt lat="50.12251" lon="3.75674">
        <ele>136.469</ele>
        <time>2019-09-19T11:00:04.001Z</time>
      </trkpt>
      <trkpt lat="50.12194" lon="3.75789">
        <ele>141.32</ele>
        <time>2019-09-19T11:00:34.001Z</time>
      </trkpt>
      <trkpt lat="50.12109" lon="3.75947">
        <ele>140.448</ele>
        <time>2019-09-19T11:01:04.001Z</time>
      </trkpt>
      <trkpt lat="50.12005" lon="3.76122">
        <ele>137.119</ele>
        <time>2019-09-19T11:01:34.001Z</time>
      </trkpt>
      <trkpt lat="50.11947" lon="3.7627">
        <ele>139.832</ele>
        <time>2019-09-19T11:02:04.001Z</time>
      </trkpt>
      <trkpt lat="50.11995" lon="3.76517">
        <ele>139.181</ele>
        <time>2019-09-19T11:02:34.001Z</time>
      </trkpt>
      <trkpt lat="50.12018" lon="3.76732">
        <ele>138.452</ele>
        <time>2019-09-19T11:03:04.001Z</time>
      </trkpt>
      <trkpt lat="50.11982" lon="3.76988">
        <ele>134.854</ele>
        <time>2019-09-19T11:03:34.001Z</time>
      </trkpt>
      <trkpt lat="50.11975" lon="3.7719">
        <ele>137.282</ele>
        <time>2019-09-19T11:04:04.001Z</time>
      </trkpt>
      <trkpt lat="50.12001" lon="3.77338">
        <ele>141.177</ele>
        <time>2019-09-19T11:04:34.001Z</time>
      </trkpt>
      <trkpt lat="50.12031" lon="3.7752">
        <ele>140.779</ele>
        <time>2019-09-19T11:05:04.001Z</time>
      </trkpt>
      <trkpt lat="50.12008" lon="3.77695">
        <ele>141.338</ele>
        <time>2019-09-19T11:05:34.001Z</time>
      </trkpt>
      <trkpt lat="50.11976" lon="3.77861">
        <ele>143.431</ele>
        <time>2019-09-19T11:06:04.001Z</time>
      </trkpt>
      <trkpt lat="50.11926" lon="3.78118">
        <ele>137.971</ele>
        <time>2019-09-19T11:06:34.001Z</time>
      </trkpt>
      <trkpt lat="50.11901" lon="3.78417">
        <ele>132.714</ele>
        <time>2019-09-19T11:07:04.001Z</time>
      </trkpt>
      <trkpt lat="50.11834" lon="3.78643">
        <ele>134.43</ele>
        <time>2019-09-19T11:07:34.001Z</time>
      </trkpt>
      <trkpt lat="50.11777" lon="3.78848">
        <ele>133.038</ele>
        <time>2019-09-19T11:08:04.001Z</time>
      </trkpt>
      <trkpt lat="50.11728" lon="3.7907">
        <ele>133.387</ele>
        <time>2019-09-19T11:08:34.001Z</time>
      </trkpt>
      <trkpt lat="50.11699" lon="3.79298">
        <ele>135.825</ele>
        <time>2019-09-19T11:09:04.001Z</time>
      </trkpt>
      <trkpt lat="50.11666" lon="3.79521">
        <ele>135.779</ele>
        <time>2019-09-19T11:09:34.001Z</time>
      </trkpt>
      <trkpt lat="50.11602" lon="3.79731">
        <ele>135.468</ele>
        <time>2019-09-19T11:10:04.001Z</time>
      </trkpt>
      <trkpt lat="50.1153" lon="3.79895">
        <ele>141.344</ele>
        <time>2019-09-19T11:10:34.001Z</time>
      </trkpt>
      <trkpt lat="50.1144" lon="3.8004">
        <ele>141.529</ele>
        <time>2019-09-19T11:11:04.001Z</time>
      </trkpt>
      <trkpt lat="50.11377" lon="3.80204">
        <ele>138.252</ele>
        <time>2019-09-19T11:11:34.001Z</time>
      </trkpt>
      <trkpt lat="50.11289" lon="3.80343">
        <ele>136.628</ele>
        <time>2019-09-19T11:12:04.001Z</time>
      </trkpt>
      <trkpt lat="50.11238" lon="3.80501">
        <ele>141.611</ele>
        <time>2019-09-19T11:12:34.001Z</time>
      </trkpt>
      <trkpt lat="50.11147" lon="3.80672">
        <ele>140.231</ele>
        <time>2019-09-19T11:13:04.001Z</time>
      </trkpt>
      <trkpt lat="50.11095" lon="3.80866">
        <ele>137.98</ele>
        <time>2019-09-19T11:13:34.001Z</time>
      </trkpt>
      <trkpt lat="50.10999" lon="3.80973">
        <ele>143.271</ele>
        <time>2019-09-19T11:14:04.001Z</time>
      </trkpt>
      <trkpt lat="50.10984" lon="3.81177">
        <ele>141.811</ele>
        <time>2019-09-19T11:14:34.001Z</time>
      </trkpt>
      <trkpt lat="50.10968" lon="3.81386">
        <ele>137.153</ele>
        <time>2019-09-19T11:15:04.001Z</time>
      </trkpt>
      <trkpt lat="50.10887" lon="3.81493">
        <ele>142.73</ele>
        <time>2019-09-19T11:15:34.001Z</time>
      </trkpt>
      <trkpt lat="50.10799" lon="3.81607">
        <ele>143.526</ele>
        <time>2019-09-19T11:16:04.001Z</time>
      </trkpt>
      <trkpt lat="50.10705" lon="3.81728">
        <ele>145.491</ele>
        <time>2019-09-19T11:16:34.001Z</time>
      </trkpt>
      <trkpt lat="50.10559" lon="3.81818">
        <ele>141.797</ele>
        <time>2019-09-19T11:17:04.001Z</time>
      </trkpt>
      <trkpt lat="50.10398" lon="3.81946">
        <ele>140.225</ele>
        <time>2019-09-19T11:17:34.001Z</time>
      </trkpt>
      <trkpt lat="50.10268" lon="3.82097">
        <ele>140.098</ele>
        <time>2019-09-19T11:18:04.001Z</time>
      </trkpt>
      <trkpt lat="50.10165" lon="3.82245">
        <ele>139.989</ele>
        <time>2019-09-19T11:18:34.001Z</time>
      </trkpt>
      <trkpt lat="50.10057" lon="3.82352">
        <ele>141.883</ele>
        <time>2019-09-19T11:19:04.001Z</time>
      </trkpt>
      <trkpt lat="50.09942" lon="3.82423">
        <ele>144.31</ele>
        <time>2019-09-19T11:19:34.001Z</time>
      </trkpt>
      <trkpt lat="50.09844" lon="3.8257">
        <ele>140.415</ele>
        <time>2019-09-19T11:20:04.001Z</time>
      </trkpt>
      <trkpt lat="50.09823" lon="3.82786">
        <ele>140.033</ele>
        <time>2019-09-19T11:20:34.001Z</time>
      </trkpt>
      <trkpt lat="50.09777" lon="3.82957">
        <ele>146.029</ele>
        <time>2019-09-19T11:21:04.001Z</time>
      </trkpt>
      <trkpt lat="50.09738" lon="3.83143">
        <ele>150.113</ele>
        <time>2019-09-19T11:21:34.001Z</time>
      </trkpt>
      <trkpt lat="50.09711" lon="3.83359">
        <ele>143.651</ele>
        <time>2019-09-19T11:22:04.001Z</time>
      </trkpt>
      <trkpt lat="50.09585" lon="3.83504">
        <ele>141.38</ele>
        <time>2019-09-19T11:22:34.001Z</time>
      </trkpt>
      <trkpt lat="50.09456" lon="3.83506">
        <ele>144.344</ele>
        <time>2019-09-19T11:23:04.001Z</time>
      </trkpt>
      <trkpt lat="50.09363" lon="3.83438">
        <ele>148.107</ele>
        <time>2019-09-19T11:23:34.001Z</time>
      </trkpt>
      <trkpt lat="50.09279" lon="3.83521">
        <ele>150.833</ele>
        <time>2019-09-19T11:24:04.001Z</time>
      </trkpt>
      <trkpt lat="50.09213" lon="3.83655">
        <ele>150.674</ele>
        <time>2019-09-19T11:24:34.001Z</time>
      </trkpt>
      <trkpt lat="50.0917" lon="3.83861">
        <ele>147.259</ele>
        <time>2019-09-19T11:25:04.001Z</time>
      </trkpt>
      <trkpt lat="50.09112" lon="3.84147">
        <ele>143.91</ele>
        <time>2019-09-19T11:25:34.001Z</time>
      </trkpt>
      <trkpt lat="50.09199" lon="3.84333">
        <ele>145.951</ele>
        <time>2019-09-19T11:26:04.001Z</time>
      </trkpt>
      <trkpt lat="50.09268" lon="3.84487">
        <ele>143.047</ele>
        <time>2019-09-19T11:26:34.001Z</time>
      </trkpt>
      <trkpt lat="50.09279" lon="3.84614">
        <ele>146.255</ele>
        <time>2019-09-19T11:27:04.001Z</time>
      </trkpt>
      <trkpt lat="50.09226" lon="3.84731">
        <ele>149.717</ele>
        <time>2019-09-19T11:27:34.001Z</time>
      </trkpt>
      <trkpt lat="50.09189" lon="3.84828">
        <ele>150.71</ele>
        <time>2019-09-19T11:28:04.001Z</time>
      </trkpt>
      <trkpt lat="50.09108" lon="3.85">
        <ele>151.403</ele>
        <time>2019-09-19T11:28:34.001Z</time>
      </trkpt>
      <trkpt lat="50.08995" lon="3.8516">
        <ele>147.945</ele>
        <time>2019-09-19T11:29:04.001Z</time>
      </trkpt>
      <trkpt lat="50.08848" lon="3.85333">
        <ele>147.327</ele>
        <time>2019-09-19T11:29:34.001Z</time>
      </trkpt>
      <trkpt lat="50.08713" lon="3.85538">
        <ele>140.906</ele>
        <time>2019-09-19T11:30:04.001Z</time>
      </trkpt>
      <trkpt lat="50.0861" lon="3.85636">
        <ele>142.65</ele>
        <time>2019-09-19T11:30:34.001Z</time>
      </trkpt>
      <trkpt lat="50.08517" lon="3.85635">
        <ele>148.506</ele>
        <time>2019-09-19T11:31:04.001Z</time>
      </trkpt>
      <trkpt lat="50.08438" lon="3.85655">
        <ele>153.372</ele>
        <time>2019-09-19T11:31:34.001Z</time>
      </trkpt>
      <trkpt lat="50.08377" lon="3.85741">
        <ele>155.542</ele>
        <time>2019-09-19T11:32:04.001Z</time>
      </trkpt>
      <trkpt lat="50.08324" lon="3.85851">
        <ele>153.375</ele>
        <time>2019-09-19T11:32:34.001Z</time>
      </trkpt>
      <trkpt lat="50.08263" lon="3.85951">
        <ele>158.921</ele>
        <time>2019-09-19T11:33:04.001Z</time>
      </trkpt>
      <trkpt lat="50.08186" lon="3.861">
        <ele>156.111</ele>
        <time>2019-09-19T11:33:34.001Z</time>
      </trkpt>
      <trkpt lat="50.08154" lon="3.86307">
        <ele>156.226</ele>
        <time>2019-09-19T11:34:04.001Z</time>
      </trkpt>
      <trkpt lat="50.08115" lon="3.86481">
        <ele>157.206</ele>
        <time>2019-09-19T11:34:34.001Z</time>
      </trkpt>
      <trkpt lat="50.08063" lon="3.86593">
        <ele>161.115</ele>
        <time>2019-09-19T11:35:04.001Z</time>
      </trkpt>
      <trkpt lat="50.08016" lon="3.86701">
        <ele>162.526</ele>
        <time>2019-09-19T11:35:34.001Z</time>
      </trkpt>
      <trkpt lat="50.07982" lon="3.86859">
        <ele>163.116</ele>
        <time>2019-09-19T11:36:04.001Z</time>
      </trkpt>
      <trkpt lat="50.07958" lon="3.87041">
        <ele>161.005</ele>
        <time>2019-09-19T11:36:34.001Z</time>
      </trkpt>
      <trkpt lat="50.07916" lon="3.87194">
        <ele>162.1</ele>
        <time>2019-09-19T11:37:04.001Z</time>
      </trkpt>
      <trkpt lat="50.07846" lon="3.87344">
        <ele>163.01</ele>
        <time>2019-09-19T11:37:34.001Z</time>
      </trkpt>
      <trkpt lat="50.07868" lon="3.87554">
        <ele>159.984</ele>
        <time>2019-09-19T11:38:04.001Z</time>
      </trkpt>
      <trkpt lat="50.07912" lon="3.878">
        <ele>155.903</ele>
        <time>2019-09-19T11:38:34.001Z</time>
      </trkpt>
      <trkpt lat="50.07892" lon="3.87945">
        <ele>159.484</ele>
        <time>2019-09-19T11:39:04.001Z</time>
      </trkpt>
      <trkpt lat="50.07976" lon="3.88091">
        <ele>158.693</ele>
        <time>2019-09-19T11:39:34.001Z</time>
      </trkpt>
      <trkpt lat="50.08056" lon="3.88337">
        <ele>152.928</ele>
        <time>2019-09-19T11:40:04.001Z</time>
      </trkpt>
      <trkpt lat="50.0802" lon="3.88643">
        <ele>145.632</ele>
        <time>2019-09-19T11:40:34.001Z</time>
      </trkpt>
      <trkpt lat="50.08055" lon="3.88871">
        <ele>146.228</ele>
        <time>2019-09-19T11:41:04.001Z</time>
      </trkpt>
      <trkpt lat="50.08091" lon="3.89081">
        <ele>144.399</ele>
        <time>2019-09-19T11:41:34.001Z</time>
      </trkpt>
      <trkpt lat="50.08073" lon="3.8925">
        <ele>147.316</ele>
        <time>2019-09-19T11:42:04.001Z</time>
      </trkpt>
      <trkpt lat="50.08003" lon="3.89361">
        <ele>150.865</ele>
        <time>2019-09-19T11:42:34.001Z</time>
      </trkpt>
      <trkpt lat="50.07931" lon="3.89414">
        <ele>159.609</ele>
        <time>2019-09-19T11:43:04.001Z</time>
      </trkpt>
      <trkpt lat="50.07876" lon="3.89502">
        <ele>162.629</ele>
        <time>2019-09-19T11:43:34.001Z</time>
      </trkpt>
      <trkpt lat="50.07841" lon="3.89618">
        <ele>167.108</ele>
        <time>2019-09-19T11:44:04.001Z</time>
      </trkpt>
      <trkpt lat="50.07774" lon="3.89755">
        <ele>163.168</ele>
        <time>2019-09-19T11:44:34.001Z</time>
      </trkpt>
      <trkpt lat="50.07749" lon="3.89939">
        <ele>160.801</ele>
        <time>2019-09-19T11:45:04.001Z</time>
      </trkpt>
      <trkpt lat="50.07587" lon="3.90169">
        <ele>149.512</ele>
        <time>2019-09-19T11:45:34.001Z</time>
      </trkpt>
      <trkpt lat="50.07614" lon="3.90422">
        <ele>145.971</ele>
        <time>2019-09-19T11:46:04.001Z</time>
      </trkpt>
      <trkpt lat="50.07641" lon="3.90613">
        <ele>148.378</ele>
        <time>2019-09-19T11:46:34.001Z</time>
      </trkpt>
      <trkpt lat="50.07621" lon="3.90806">
        <ele>152.838</ele>
        <time>2019-09-19T11:47:04.001Z</time>
      </trkpt>
      <trkpt lat="50.07625" lon="3.90982">
        <ele>151.657</ele>
        <time>2019-09-19T11:47:34.001Z</time>
      </trkpt>
      <trkpt lat="50.07633" lon="3.91164">
        <ele>151.909</ele>
        <time>2019-09-19T11:48:04.001Z</time>
      </trkpt>
      <trkpt lat="50.07617" lon="3.91356">
        <ele>150.189</ele>
        <time>2019-09-19T11:48:34.001Z</time>
      </trkpt>
      <trkpt lat="50.07622" lon="3.91544">
        <ele>152.471</ele>
        <time>2019-09-19T11:49:04.001Z</time>
      </trkpt>
      <trkpt lat="50.07537" lon="3.91647">
        <ele>152.317</ele>
        <time>2019-09-19T11:49:34.001Z</time>
      </trkpt>
      <trkpt lat="50.07386" lon="3.91688">
        <ele>149.993</ele>
        <time>2019-09-19T11:50:04.001Z</time>
      </trkpt>
      <trkpt lat="50.07318" lon="3.91865">
        <ele>150.172</ele>
        <time>2019-09-19T11:50:34.001Z</time>
      </trkpt>
      <trkpt lat="50.07248" lon="3.92054">
        <ele>150.571</ele>
        <time>2019-09-19T11:51:04.001Z</time>
      </trkpt>
      <trkpt lat="50.07193" lon="3.92244">
        <ele>151.219</ele>
        <time>2019-09-19T11:51:34.001Z</time>
      </trkpt>
      <trkpt lat="50.0716" lon="3.92446">
        <ele>150.16</ele>
        <time>2019-09-19T11:52:04.001Z</time>
      </trkpt>
      <trkpt lat="50.07062" lon="3.92592">
        <ele>151.01</ele>
        <time>2019-09-19T11:52:34.001Z</time>
      </trkpt>
      <trkpt lat="50.06949" lon="3.92709">
        <ele>151.903</ele>
        <time>2019-09-19T11:53:04.001Z</time>
      </trkpt>
      <trkpt lat="50.06831" lon="3.92793">
        <ele>151.737</ele>
        <time>2019-09-19T11:53:34.001Z</time>
      </trkpt>
      <trkpt lat="50.06793" lon="3.92849">
        <ele>154.693</ele>
        <time>2019-09-19T11:55:16.000Z</time>
      </trkpt>
      <trkpt lat="50.06697" lon="3.92876">
        <ele>155.204</ele>
        <time>2019-09-19T11:55:49.001Z</time>
      </trkpt>
      <trkpt lat="50.06567" lon="3.92894">
        <ele>156.021</ele>
        <time>2019-09-19T11:56:19.001Z</time>
      </trkpt>
      <trkpt lat="50.0643" lon="3.92912">
        <ele>156.806</ele>
        <time>2019-09-19T11:56:49.001Z</time>
      </trkpt>
      <trkpt lat="50.06305" lon="3.9293">
        <ele>156.392</ele>
        <time>2019-09-19T11:57:19.001Z</time>
      </trkpt>
      <trkpt lat="50.06151" lon="3.92914">
        <ele>154.098</ele>
        <time>2019-09-19T11:57:49.001Z</time>
      </trkpt>
      <trkpt lat="50.06105" lon="3.92907">
        <ele>156.827</ele>
        <time>2019-09-19T12:01:49.001Z</time>
      </trkpt>
      <trkpt lat="50.06069" lon="3.92887">
        <ele>155.075</ele>
        <time>2019-09-19T12:02:34.001Z</time>
      </trkpt>
      <trkpt lat="50.0604" lon="3.92861">
        <ele>152.415</ele>
        <time>2019-09-19T12:06:43.001Z</time>
      </trkpt>
      <trkpt lat="50.06048" lon="3.92859">
        <ele>151.265</ele>
        <time>2019-09-19T12:07:28.001Z</time>
      </trkpt>
      <trkpt lat="50.06048" lon="3.92859">
        <ele>151.265</ele>
        <time>2019-09-19T12:08:52.001Z</time>
      </trkpt>
      <trkpt lat="50.06043" lon="3.92857">
        <ele>151.57</ele>
        <time>2019-09-19T12:12:49.001Z</time>
      </trkpt>
      <trkpt lat="50.06037" lon="3.92854">
        <ele>151.799</ele>
        <time>2019-09-19T12:30:52.001Z</time>
      </trkpt>
      <trkpt lat="50.06009" lon="3.92845">
        <ele>155.043</ele>
        <time>2019-09-19T12:31:46.001Z</time>
      </trkpt>
      <trkpt lat="50.06047" lon="3.92863">
        <ele>154.64</ele>
        <time>2019-09-19T12:32:58.001Z</time>
      </trkpt>
      <trkpt lat="50.06048" lon="3.92865">
        <ele>156.503</ele>
        <time>2019-09-19T12:36:13.001Z</time>
      </trkpt>
      <trkpt lat="50.06043" lon="3.92854">
        <ele>157.523</ele>
        <time>2019-09-19T12:37:37.001Z</time>
      </trkpt>
      <trkpt lat="50.06043" lon="3.92858">
        <ele>156.732</ele>
        <time>2019-09-19T12:41:49.001Z</time>
      </trkpt>
      <trkpt lat="50.06044" lon="3.92853">
        <ele>154.291</ele>
        <time>2019-09-19T12:43:01.001Z</time>
      </trkpt>
      <trkpt lat="50.06044" lon="3.92853">
        <ele>154.291</ele>
        <time>2019-09-19T12:44:10.001Z</time>
      </trkpt>
      <trkpt lat="50.06044" lon="3.92853">
        <ele>154.291</ele>
        <time>2019-09-19T12:55:40.001Z</time>
      </trkpt>
      <trkpt lat="50.06043" lon="3.92853">
        <ele>154.897</ele>
        <time>2019-09-19T13:00:40.001Z</time>
      </trkpt>
      <trkpt lat="50.06122" lon="3.9291">
        <ele>156.38</ele>
        <time>2019-09-19T13:02:10.001Z</time>
      </trkpt>
      <trkpt lat="50.06127" lon="3.93094">
        <ele>161.596</ele>
        <time>2019-09-19T13:02:40.001Z</time>
      </trkpt>
      <trkpt lat="50.0613" lon="3.93268">
        <ele>161.238</ele>
        <time>2019-09-19T13:03:10.001Z</time>
      </trkpt>
      <trkpt lat="50.06196" lon="3.93427">
        <ele>149.841</ele>
        <time>2019-09-19T13:03:40.001Z</time>
      </trkpt>
      <trkpt lat="50.06229" lon="3.93597">
        <ele>154.994</ele>
        <time>2019-09-19T13:04:10.001Z</time>
      </trkpt>
      <trkpt lat="50.06229" lon="3.93753">
        <ele>159.68</ele>
        <time>2019-09-19T13:04:40.001Z</time>
      </trkpt>
      <trkpt lat="50.06236" lon="3.93871">
        <ele>165.289</ele>
        <time>2019-09-19T13:05:10.001Z</time>
      </trkpt>
      <trkpt lat="50.06241" lon="3.93977">
        <ele>168.826</ele>
        <time>2019-09-19T13:05:40.001Z</time>
      </trkpt>
      <trkpt lat="50.0624" lon="3.94086">
        <ele>171.112</ele>
        <time>2019-09-19T13:06:10.001Z</time>
      </trkpt>
      <trkpt lat="50.06245" lon="3.94243">
        <ele>173.355</ele>
        <time>2019-09-19T13:06:40.001Z</time>
      </trkpt>
      <trkpt lat="50.06305" lon="3.94524">
        <ele>160.225</ele>
        <time>2019-09-19T13:07:10.001Z</time>
      </trkpt>
      <trkpt lat="50.06248" lon="3.94732">
        <ele>156.646</ele>
        <time>2019-09-19T13:07:40.001Z</time>
      </trkpt>
      <trkpt lat="50.06178" lon="3.94898">
        <ele>159.887</ele>
        <time>2019-09-19T13:08:10.001Z</time>
      </trkpt>
      <trkpt lat="50.06098" lon="3.95072">
        <ele>162.826</ele>
        <time>2019-09-19T13:08:40.001Z</time>
      </trkpt>
      <trkpt lat="50.06057" lon="3.95191">
        <ele>163.672</ele>
        <time>2019-09-19T13:09:10.001Z</time>
      </trkpt>
      <trkpt lat="50.06034" lon="3.95312">
        <ele>166.681</ele>
        <time>2019-09-19T13:09:40.001Z</time>
      </trkpt>
      <trkpt lat="50.06016" lon="3.95399">
        <ele>175.117</ele>
        <time>2019-09-19T13:10:10.001Z</time>
      </trkpt>
      <trkpt lat="50.05999" lon="3.95487">
        <ele>179.057</ele>
        <time>2019-09-19T13:10:40.001Z</time>
      </trkpt>
      <trkpt lat="50.05993" lon="3.95591">
        <ele>183.287</ele>
        <time>2019-09-19T13:11:10.001Z</time>
      </trkpt>
      <trkpt lat="50.0603" lon="3.95726">
        <ele>183.323</ele>
        <time>2019-09-19T13:11:40.001Z</time>
      </trkpt>
      <trkpt lat="50.06146" lon="3.95998">
        <ele>171.487</ele>
        <time>2019-09-19T13:12:10.001Z</time>
      </trkpt>
      <trkpt lat="50.06105" lon="3.96405">
        <ele>156.407</ele>
        <time>2019-09-19T13:12:40.001Z</time>
      </trkpt>
      <trkpt lat="50.05975" lon="3.96474">
        <ele>159.845</ele>
        <time>2019-09-19T13:13:13.001Z</time>
      </trkpt>
      <trkpt lat="50.05843" lon="3.96581">
        <ele>161.509</ele>
        <time>2019-09-19T13:13:43.001Z</time>
      </trkpt>
      <trkpt lat="50.05768" lon="3.96688">
        <ele>166.186</ele>
        <time>2019-09-19T13:14:13.001Z</time>
      </trkpt>
      <trkpt lat="50.05719" lon="3.96837">
        <ele>168.648</ele>
        <time>2019-09-19T13:14:43.001Z</time>
      </trkpt>
      <trkpt lat="50.05617" lon="3.97015">
        <ele>165.686</ele>
        <time>2019-09-19T13:15:13.001Z</time>
      </trkpt>
      <trkpt lat="50.05547" lon="3.97222">
        <ele>166.361</ele>
        <time>2019-09-19T13:15:43.001Z</time>
      </trkpt>
      <trkpt lat="50.05535" lon="3.97375">
        <ele>172.084</ele>
        <time>2019-09-19T13:16:13.001Z</time>
      </trkpt>
      <trkpt lat="50.05528" lon="3.976">
        <ele>174.822</ele>
        <time>2019-09-19T13:16:43.001Z</time>
      </trkpt>
      <trkpt lat="50.05511" lon="3.97847">
        <ele>179.915</ele>
        <time>2019-09-19T13:17:13.001Z</time>
      </trkpt>
      <trkpt lat="50.05474" lon="3.98091">
        <ele>177.527</ele>
        <time>2019-09-19T13:17:43.001Z</time>
      </trkpt>
      <trkpt lat="50.05568" lon="3.98363">
        <ele>170.139</ele>
        <time>2019-09-19T13:18:13.001Z</time>
      </trkpt>
      <trkpt lat="50.05654" lon="3.98511">
        <ele>163.033</ele>
        <time>2019-09-19T13:18:43.001Z</time>
      </trkpt>
      <trkpt lat="50.05635" lon="3.98654">
        <ele>164.626</ele>
        <time>2019-09-19T13:19:13.001Z</time>
      </trkpt>
      <trkpt lat="50.05628" lon="3.988">
        <ele>163.302</ele>
        <time>2019-09-19T13:19:43.001Z</time>
      </trkpt>
      <trkpt lat="50.05582" lon="3.99021">
        <ele>162.637</ele>
        <time>2019-09-19T13:20:13.001Z</time>
      </trkpt>
      <trkpt lat="50.05526" lon="3.99162">
        <ele>162.64</ele>
        <time>2019-09-19T13:20:43.001Z</time>
      </trkpt>
      <trkpt lat="50.05455" lon="3.99319">
        <ele>164.292</ele>
        <time>2019-09-19T13:21:13.001Z</time>
      </trkpt>
      <trkpt lat="50.05422" lon="3.9942">
        <ele>171.405</ele>
        <time>2019-09-19T13:21:43.001Z</time>
      </trkpt>
      <trkpt lat="50.05392" lon="3.9952">
        <ele>176.51</ele>
        <time>2019-09-19T13:22:13.001Z</time>
      </trkpt>
      <trkpt lat="50.05363" lon="3.99636">
        <ele>178.596</ele>
        <time>2019-09-19T13:22:43.001Z</time>
      </trkpt>
      <trkpt lat="50.05309" lon="3.99907">
        <ele>172.539</ele>
        <time>2019-09-19T13:23:13.001Z</time>
      </trkpt>
      <trkpt lat="50.0524" lon="4.00202">
        <ele>166.263</ele>
        <time>2019-09-19T13:23:43.001Z</time>
      </trkpt>
      <trkpt lat="50.05154" lon="4.00378">
        <ele>163.162</ele>
        <time>2019-09-19T13:24:13.001Z</time>
      </trkpt>
      <trkpt lat="50.05044" lon="4.00526">
        <ele>161.064</ele>
        <time>2019-09-19T13:24:43.001Z</time>
      </trkpt>
      <trkpt lat="50.0501" lon="4.00723">
        <ele>162.078</ele>
        <time>2019-09-19T13:25:13.001Z</time>
      </trkpt>
      <trkpt lat="50.04975" lon="4.00895">
        <ele>164.756</ele>
        <time>2019-09-19T13:25:43.001Z</time>
      </trkpt>
      <trkpt lat="50.04986" lon="4.0105">
        <ele>167.725</ele>
        <time>2019-09-19T13:26:13.001Z</time>
      </trkpt>
      <trkpt lat="50.04994" lon="4.0122">
        <ele>170.251</ele>
        <time>2019-09-19T13:26:43.001Z</time>
      </trkpt>
      <trkpt lat="50.04969" lon="4.01425">
        <ele>165.978</ele>
        <time>2019-09-19T13:27:13.001Z</time>
      </trkpt>
      <trkpt lat="50.04939" lon="4.01588">
        <ele>168.419</ele>
        <time>2019-09-19T13:27:43.001Z</time>
      </trkpt>
      <trkpt lat="50.04892" lon="4.01738">
        <ele>169.687</ele>
        <time>2019-09-19T13:28:13.001Z</time>
      </trkpt>
      <trkpt lat="50.04818" lon="4.01844">
        <ele>171.54</ele>
        <time>2019-09-19T13:28:43.001Z</time>
      </trkpt>
      <trkpt lat="50.0469" lon="4.02021">
        <ele>168.024</ele>
        <time>2019-09-19T13:29:13.001Z</time>
      </trkpt>
      <trkpt lat="50.04614" lon="4.02151">
        <ele>174.568</ele>
        <time>2019-09-19T13:29:43.001Z</time>
      </trkpt>
      <trkpt lat="50.04567" lon="4.0225">
        <ele>185.265</ele>
        <time>2019-09-19T13:30:13.001Z</time>
      </trkpt>
      <trkpt lat="50.04522" lon="4.02375">
        <ele>194.008</ele>
        <time>2019-09-19T13:30:43.001Z</time>
      </trkpt>
      <trkpt lat="50.04479" lon="4.025">
        <ele>185.337</ele>
        <time>2019-09-19T13:31:13.001Z</time>
      </trkpt>
      <trkpt lat="50.04363" lon="4.02564">
        <ele>178.629</ele>
        <time>2019-09-19T13:31:43.001Z</time>
      </trkpt>
      <trkpt lat="50.04313" lon="4.02594">
        <ele>176.864</ele>
        <time>2019-09-19T13:34:01.001Z</time>
      </trkpt>
      <trkpt lat="50.04235" lon="4.0266">
        <ele>179.829</ele>
        <time>2019-09-19T13:34:31.001Z</time>
      </trkpt>
      <trkpt lat="50.04171" lon="4.02685">
        <ele>186.172</ele>
        <time>2019-09-19T13:35:01.001Z</time>
      </trkpt>
      <trkpt lat="50.0411" lon="4.02738">
        <ele>191.731</ele>
        <time>2019-09-19T13:35:34.001Z</time>
      </trkpt>
      <trkpt lat="50.04115" lon="4.02939">
        <ele>187.265</ele>
        <time>2019-09-19T13:36:04.001Z</time>
      </trkpt>
      <trkpt lat="50.04105" lon="4.0313">
        <ele>188.105</ele>
        <time>2019-09-19T13:36:34.001Z</time>
      </trkpt>
      <trkpt lat="50.04093" lon="4.03328">
        <ele>188.557</ele>
        <time>2019-09-19T13:37:04.001Z</time>
      </trkpt>
      <trkpt lat="50.04085" lon="4.0347">
        <ele>193.129</ele>
        <time>2019-09-19T13:37:34.001Z</time>
      </trkpt>
      <trkpt lat="50.04057" lon="4.03615">
        <ele>192.176</ele>
        <time>2019-09-19T13:38:04.001Z</time>
      </trkpt>
      <trkpt lat="50.04032" lon="4.03799">
        <ele>191.94</ele>
        <time>2019-09-19T13:38:34.001Z</time>
      </trkpt>
      <trkpt lat="50.04022" lon="4.03924">
        <ele>197.687</ele>
        <time>2019-09-19T13:39:04.001Z</time>
      </trkpt>
      <trkpt lat="50.04051" lon="4.04123">
        <ele>203.226</ele>
        <time>2019-09-19T13:39:34.001Z</time>
      </trkpt>
      <trkpt lat="50.04092" lon="4.04439">
        <ele>201.017</ele>
        <time>2019-09-19T13:40:04.001Z</time>
      </trkpt>
      <trkpt lat="50.0408" lon="4.04644">
        <ele>202.123</ele>
        <time>2019-09-19T13:40:34.001Z</time>
      </trkpt>
      <trkpt lat="50.04024" lon="4.0473">
        <ele>196.358</ele>
        <time>2019-09-19T13:41:04.001Z</time>
      </trkpt>
      <trkpt lat="50.03989" lon="4.04838">
        <ele>206.865</ele>
        <time>2019-09-19T13:41:34.001Z</time>
      </trkpt>
      <trkpt lat="50.03964" lon="4.04968">
        <ele>220.182</ele>
        <time>2019-09-19T13:42:04.001Z</time>
      </trkpt>
      <trkpt lat="50.03941" lon="4.05103">
        <ele>225.895</ele>
        <time>2019-09-19T13:42:34.001Z</time>
      </trkpt>
      <trkpt lat="50.03905" lon="4.05232">
        <ele>210.84</ele>
        <time>2019-09-19T13:43:04.001Z</time>
      </trkpt>
      <trkpt lat="50.03859" lon="4.05315">
        <ele>210.887</ele>
        <time>2019-09-19T13:43:34.001Z</time>
      </trkpt>
      <trkpt lat="50.03804" lon="4.05376">
        <ele>215.559</ele>
        <time>2019-09-19T13:44:04.001Z</time>
      </trkpt>
      <trkpt lat="50.0375" lon="4.0544">
        <ele>220.201</ele>
        <time>2019-09-19T13:44:34.001Z</time>
      </trkpt>
      <trkpt lat="50.03727" lon="4.05559">
        <ele>221.313</ele>
        <time>2019-09-19T13:45:04.001Z</time>
      </trkpt>
      <trkpt lat="50.03826" lon="4.05708">
        <ele>214.397</ele>
        <time>2019-09-19T13:45:34.001Z</time>
      </trkpt>
      <trkpt lat="50.03821" lon="4.05956">
        <ele>207.76</ele>
        <time>2019-09-19T13:46:04.001Z</time>
      </trkpt>
      <trkpt lat="50.03775" lon="4.06041">
        <ele>212.7</ele>
        <time>2019-09-19T13:46:34.001Z</time>
      </trkpt>
      <trkpt lat="50.03722" lon="4.06108">
        <ele>219.803</ele>
        <time>2019-09-19T13:47:04.001Z</time>
      </trkpt>
      <trkpt lat="50.03695" lon="4.06216">
        <ele>222.137</ele>
        <time>2019-09-19T13:47:34.001Z</time>
      </trkpt>
      <trkpt lat="50.03693" lon="4.06338">
        <ele>230.524</ele>
        <time>2019-09-19T13:48:04.001Z</time>
      </trkpt>
      <trkpt lat="50.03711" lon="4.06463">
        <ele>228.286</ele>
        <time>2019-09-19T13:48:34.001Z</time>
      </trkpt>
      <trkpt lat="50.03727" lon="4.06585">
        <ele>233.361</ele>
        <time>2019-09-19T13:49:04.001Z</time>
      </trkpt>
      <trkpt lat="50.03742" lon="4.06716">
        <ele>236.653</ele>
        <time>2019-09-19T13:49:34.001Z</time>
      </trkpt>
      <trkpt lat="50.03732" lon="4.06842">
        <ele>236.92</ele>
        <time>2019-09-19T13:50:04.001Z</time>
      </trkpt>
      <trkpt lat="50.0373" lon="4.06919">
        <ele>232.542</ele>
        <time>2019-09-19T13:52:22.001Z</time>
      </trkpt>
      <trkpt lat="50.03781" lon="4.07061">
        <ele>231.384</ele>
        <time>2019-09-19T13:52:52.001Z</time>
      </trkpt>
      <trkpt lat="50.03921" lon="4.07154">
        <ele>221.539</ele>
        <time>2019-09-19T13:53:22.001Z</time>
      </trkpt>
      <trkpt lat="50.04019" lon="4.07356">
        <ele>219.781</ele>
        <time>2019-09-19T13:53:52.001Z</time>
      </trkpt>
      <trkpt lat="50.04072" lon="4.07476">
        <ele>224.048</ele>
        <time>2019-09-19T13:54:22.001Z</time>
      </trkpt>
      <trkpt lat="50.04181" lon="4.07497">
        <ele>224.169</ele>
        <time>2019-09-19T13:54:52.001Z</time>
      </trkpt>
      <trkpt lat="50.04175" lon="4.07496">
        <ele>224.039</ele>
        <time>2019-09-19T13:55:22.001Z</time>
      </trkpt>
      <trkpt lat="50.04115" lon="4.07565">
        <ele>227.445</ele>
        <time>2019-09-19T13:55:52.001Z</time>
      </trkpt>
      <trkpt lat="50.0413" lon="4.077">
        <ele>228.958</ele>
        <time>2019-09-19T13:56:22.001Z</time>
      </trkpt>
      <trkpt lat="50.04143" lon="4.07814">
        <ele>233.608</ele>
        <time>2019-09-19T13:56:52.001Z</time>
      </trkpt>
      <trkpt lat="50.04143" lon="4.07825">
        <ele>231.637</ele>
        <time>2019-09-19T14:00:16.000Z</time>
      </trkpt>
      <trkpt lat="50.04116" lon="4.07582">
        <ele>228.27</ele>
        <time>2019-09-19T14:00:46.001Z</time>
      </trkpt>
      <trkpt lat="50.0424" lon="4.07521">
        <ele>223.139</ele>
        <time>2019-09-19T14:01:16.000Z</time>
      </trkpt>
      <trkpt lat="50.04342" lon="4.07633">
        <ele>222.606</ele>
        <time>2019-09-19T14:01:46.001Z</time>
      </trkpt>
      <trkpt lat="50.04437" lon="4.07753">
        <ele>225.128</ele>
        <time>2019-09-19T14:02:16.000Z</time>
      </trkpt>
      <trkpt lat="50.04481" lon="4.07934">
        <ele>221.24</ele>
        <time>2019-09-19T14:02:46.001Z</time>
      </trkpt>
      <trkpt lat="50.04538" lon="4.08139">
        <ele>219.2</ele>
        <time>2019-09-19T14:03:16.000Z</time>
      </trkpt>
      <trkpt lat="50.04622" lon="4.08272">
        <ele>221.895</ele>
        <time>2019-09-19T14:03:46.001Z</time>
      </trkpt>
      <trkpt lat="50.04659" lon="4.08463">
        <ele>219.89</ele>
        <time>2019-09-19T14:04:16.000Z</time>
      </trkpt>
      <trkpt lat="50.04547" lon="4.08423">
        <ele>219.28</ele>
        <time>2019-09-19T14:04:46.001Z</time>
      </trkpt>
      <trkpt lat="50.04444" lon="4.08373">
        <ele>219.825</ele>
        <time>2019-09-19T14:05:16.000Z</time>
      </trkpt>
      <trkpt lat="50.04357" lon="4.08332">
        <ele>228.205</ele>
        <time>2019-09-19T14:05:46.001Z</time>
      </trkpt>
      <trkpt lat="50.04275" lon="4.08364">
        <ele>229.808</ele>
        <time>2019-09-19T14:06:16.000Z</time>
      </trkpt>
      <trkpt lat="50.04252" lon="4.08504">
        <ele>228.066</ele>
        <time>2019-09-19T14:06:46.001Z</time>
      </trkpt>
      <trkpt lat="50.04238" lon="4.08622">
        <ele>231.446</ele>
        <time>2019-09-19T14:07:16.000Z</time>
      </trkpt>
      <trkpt lat="50.04232" lon="4.08823">
        <ele>233.287</ele>
        <time>2019-09-19T14:07:46.001Z</time>
      </trkpt>
      <trkpt lat="50.0424" lon="4.09037">
        <ele>228.269</ele>
        <time>2019-09-19T14:08:16.000Z</time>
      </trkpt>
      <trkpt lat="50.04168" lon="4.09063">
        <ele>232.692</ele>
        <time>2019-09-19T14:08:46.001Z</time>
      </trkpt>
      <trkpt lat="50.04105" lon="4.09091">
        <ele>235.094</ele>
        <time>2019-09-19T14:09:16.000Z</time>
      </trkpt>
      <trkpt lat="50.0408" lon="4.09185">
        <ele>246.601</ele>
        <time>2019-09-19T14:09:46.001Z</time>
      </trkpt>
      <trkpt lat="50.04095" lon="4.09325">
        <ele>243.879</ele>
        <time>2019-09-19T14:10:16.000Z</time>
      </trkpt>
      <trkpt lat="50.0412" lon="4.0951">
        <ele>245.931</ele>
        <time>2019-09-19T14:10:46.001Z</time>
      </trkpt>
      <trkpt lat="50.04109" lon="4.09645">
        <ele>241.497</ele>
        <time>2019-09-19T14:11:16.000Z</time>
      </trkpt>
      <trkpt lat="50.04055" lon="4.09756">
        <ele>245.428</ele>
        <time>2019-09-19T14:11:46.001Z</time>
      </trkpt>
      <trkpt lat="50.03991" lon="4.09814">
        <ele>245.311</ele>
        <time>2019-09-19T14:13:31.001Z</time>
      </trkpt>
      <trkpt lat="50.03897" lon="4.09791">
        <ele>246.562</ele>
        <time>2019-09-19T14:14:01.001Z</time>
      </trkpt>
      <trkpt lat="50.0379" lon="4.0976">
        <ele>244.469</ele>
        <time>2019-09-19T14:14:31.001Z</time>
      </trkpt>
      <trkpt lat="50.03692" lon="4.09659">
        <ele>246.367</ele>
        <time>2019-09-19T14:15:01.001Z</time>
      </trkpt>
      <trkpt lat="50.03608" lon="4.09576">
        <ele>254.492</ele>
        <time>2019-09-19T14:15:31.001Z</time>
      </trkpt>
      <trkpt lat="50.03546" lon="4.09659">
        <ele>264.384</ele>
        <time>2019-09-19T14:16:01.001Z</time>
      </trkpt>
      <trkpt lat="50.03496" lon="4.09899">
        <ele>266.824</ele>
        <time>2019-09-19T14:16:31.001Z</time>
      </trkpt>
      <trkpt lat="50.03458" lon="4.10135">
        <ele>256.957</ele>
        <time>2019-09-19T14:17:01.001Z</time>
      </trkpt>
      <trkpt lat="50.03494" lon="4.10301">
        <ele>251.004</ele>
        <time>2019-09-19T14:17:31.001Z</time>
      </trkpt>
      <trkpt lat="50.03527" lon="4.10436">
        <ele>246.152</ele>
        <time>2019-09-19T14:18:01.001Z</time>
      </trkpt>
      <trkpt lat="50.03496" lon="4.10513">
        <ele>248.209</ele>
        <time>2019-09-19T14:18:31.001Z</time>
      </trkpt>
      <trkpt lat="50.03335" lon="4.10547">
        <ele>244.331</ele>
        <time>2019-09-19T14:19:01.001Z</time>
      </trkpt>
      <trkpt lat="50.03212" lon="4.1055">
        <ele>244.229</ele>
        <time>2019-09-19T14:19:31.001Z</time>
      </trkpt>
      <trkpt lat="50.03041" lon="4.10524">
        <ele>240.757</ele>
        <time>2019-09-19T14:20:01.001Z</time>
      </trkpt>
      <trkpt lat="50.02885" lon="4.10476">
        <ele>234.506</ele>
        <time>2019-09-19T14:20:31.001Z</time>
      </trkpt>
      <trkpt lat="50.02818" lon="4.10678">
        <ele>230.378</ele>
        <time>2019-09-19T14:21:01.001Z</time>
      </trkpt>
      <trkpt lat="50.02749" lon="4.1078">
        <ele>233.73</ele>
        <time>2019-09-19T14:21:31.001Z</time>
      </trkpt>
      <trkpt lat="50.02728" lon="4.10879">
        <ele>238.816</ele>
        <time>2019-09-19T14:22:01.001Z</time>
      </trkpt>
      <trkpt lat="50.02721" lon="4.10991">
        <ele>240.096</ele>
        <time>2019-09-19T14:22:31.001Z</time>
      </trkpt>
      <trkpt lat="50.02749" lon="4.11086">
        <ele>238.963</ele>
        <time>2019-09-19T14:23:01.001Z</time>
      </trkpt>
      <trkpt lat="50.02778" lon="4.1119">
        <ele>245.069</ele>
        <time>2019-09-19T14:23:31.001Z</time>
      </trkpt>
      <trkpt lat="50.02815" lon="4.11318">
        <ele>248.065</ele>
        <time>2019-09-19T14:24:01.001Z</time>
      </trkpt>
      <trkpt lat="50.02852" lon="4.11459">
        <ele>244.743</ele>
        <time>2019-09-19T14:24:31.001Z</time>
      </trkpt>
      <trkpt lat="50.02917" lon="4.11562">
        <ele>249.198</ele>
        <time>2019-09-19T14:25:01.001Z</time>
      </trkpt>
      <trkpt lat="50.02993" lon="4.11673">
        <ele>245.138</ele>
        <time>2019-09-19T14:25:31.001Z</time>
      </trkpt>
      <trkpt lat="50.03075" lon="4.11793">
        <ele>246.264</ele>
        <time>2019-09-19T14:26:01.001Z</time>
      </trkpt>
      <trkpt lat="50.03152" lon="4.119">
        <ele>246.725</ele>
        <time>2019-09-19T14:26:31.001Z</time>
      </trkpt>
      <trkpt lat="50.03239" lon="4.11981">
        <ele>247.234</ele>
        <time>2019-09-19T14:27:01.001Z</time>
      </trkpt>
      <trkpt lat="50.03346" lon="4.12035">
        <ele>247.378</ele>
        <time>2019-09-19T14:27:31.001Z</time>
      </trkpt>
      <trkpt lat="50.03416" lon="4.12164">
        <ele>243.325</ele>
        <time>2019-09-19T14:28:01.001Z</time>
      </trkpt>
      <trkpt lat="50.03511" lon="4.12255">
        <ele>246.066</ele>
        <time>2019-09-19T14:28:31.001Z</time>
      </trkpt>
      <trkpt lat="50.03621" lon="4.1232">
        <ele>246.989</ele>
        <time>2019-09-19T14:29:01.001Z</time>
      </trkpt>
      <trkpt lat="50.0358" lon="4.12515">
        <ele>249.816</ele>
        <time>2019-09-19T14:29:31.001Z</time>
      </trkpt>
      <trkpt lat="50.03509" lon="4.12732">
        <ele>246.715</ele>
        <time>2019-09-19T14:30:01.001Z</time>
      </trkpt>
      <trkpt lat="50.0342" lon="4.12913">
        <ele>245.202</ele>
        <time>2019-09-19T14:30:31.001Z</time>
      </trkpt>
      <trkpt lat="50.03325" lon="4.13033">
        <ele>245.645</ele>
        <time>2019-09-19T14:31:01.001Z</time>
      </trkpt>
      <trkpt lat="50.03217" lon="4.1308">
        <ele>248.613</ele>
        <time>2019-09-19T14:31:31.001Z</time>
      </trkpt>
      <trkpt lat="50.0312" lon="4.13201">
        <ele>248.125</ele>
        <time>2019-09-19T14:32:01.001Z</time>
      </trkpt>
      <trkpt lat="50.0308" lon="4.13449">
        <ele>247.151</ele>
        <time>2019-09-19T14:32:31.001Z</time>
      </trkpt>
      <trkpt lat="50.03013" lon="4.13669">
        <ele>244.213</ele>
        <time>2019-09-19T14:33:01.001Z</time>
      </trkpt>
      <trkpt lat="50.02966" lon="4.13845">
        <ele>243.616</ele>
        <time>2019-09-19T14:33:31.001Z</time>
      </trkpt>
      <trkpt lat="50.02935" lon="4.14002">
        <ele>249.952</ele>
        <time>2019-09-19T14:34:01.001Z</time>
      </trkpt>
      <trkpt lat="50.02852" lon="4.14023">
        <ele>255.052</ele>
        <time>2019-09-19T14:34:31.001Z</time>
      </trkpt>
      <trkpt lat="50.02748" lon="4.13974">
        <ele>260.934</ele>
        <time>2019-09-19T14:35:01.001Z</time>
      </trkpt>
      <trkpt lat="50.02791" lon="4.13994">
        <ele>263.132</ele>
        <time>2019-09-19T14:36:55.001Z</time>
      </trkpt>
      <trkpt lat="50.02859" lon="4.14057">
        <ele>258.408</ele>
        <time>2019-09-19T14:37:25.001Z</time>
      </trkpt>
      <trkpt lat="50.02797" lon="4.14097">
        <ele>261.934</ele>
        <time>2019-09-19T14:37:55.001Z</time>
      </trkpt>
      <trkpt lat="50.02744" lon="4.14199">
        <ele>256.664</ele>
        <time>2019-09-19T14:38:25.001Z</time>
      </trkpt>
      <trkpt lat="50.02707" lon="4.14377">
        <ele>247.998</ele>
        <time>2019-09-19T14:38:55.001Z</time>
      </trkpt>
      <trkpt lat="50.02686" lon="4.14536">
        <ele>252.939</ele>
        <time>2019-09-19T14:39:25.001Z</time>
      </trkpt>
      <trkpt lat="50.02661" lon="4.14715">
        <ele>251.459</ele>
        <time>2019-09-19T14:39:55.001Z</time>
      </trkpt>
      <trkpt lat="50.02596" lon="4.1484">
        <ele>251.104</ele>
        <time>2019-09-19T14:40:25.001Z</time>
      </trkpt>
      <trkpt lat="50.0256" lon="4.14934">
        <ele>255.545</ele>
        <time>2019-09-19T14:40:58.001Z</time>
      </trkpt>
      <trkpt lat="50.0257" lon="4.15093">
        <ele>256.082</ele>
        <time>2019-09-19T14:41:28.001Z</time>
      </trkpt>
      <trkpt lat="50.02577" lon="4.15281">
        <ele>264.559</ele>
        <time>2019-09-19T14:41:58.001Z</time>
      </trkpt>
      <trkpt lat="50.02586" lon="4.15455">
        <ele>280.596</ele>
        <time>2019-09-19T14:42:28.001Z</time>
      </trkpt>
      <trkpt lat="50.02595" lon="4.15653">
        <ele>271.454</ele>
        <time>2019-09-19T14:42:58.001Z</time>
      </trkpt>
      <trkpt lat="50.02604" lon="4.15839">
        <ele>272.968</ele>
        <time>2019-09-19T14:43:28.001Z</time>
      </trkpt>
      <trkpt lat="50.02608" lon="4.15943">
        <ele>269.661</ele>
        <time>2019-09-19T14:45:52.001Z</time>
      </trkpt>
      <trkpt lat="50.02699" lon="4.16021">
        <ele>267.075</ele>
        <time>2019-09-19T14:46:25.001Z</time>
      </trkpt>
      <trkpt lat="50.02848" lon="4.16162">
        <ele>256.703</ele>
        <time>2019-09-19T14:46:55.001Z</time>
      </trkpt>
      <trkpt lat="50.02952" lon="4.16326">
        <ele>253.02</ele>
        <time>2019-09-19T14:47:25.001Z</time>
      </trkpt>
      <trkpt lat="50.02991" lon="4.16512">
        <ele>260.422</ele>
        <time>2019-09-19T14:47:55.001Z</time>
      </trkpt>
      <trkpt lat="50.02974" lon="4.16605">
        <ele>257.326</ele>
        <time>2019-09-19T14:49:04.001Z</time>
      </trkpt>
      <trkpt lat="50.02968" lon="4.16599">
        <ele>260.478</ele>
        <time>2019-09-19T14:50:43.001Z</time>
      </trkpt>
      <trkpt lat="50.02966" lon="4.16598">
        <ele>259.683</ele>
        <time>2019-09-19T14:52:34.001Z</time>
      </trkpt>
      <trkpt lat="50.02952" lon="4.16598">
        <ele>251.139</ele>
        <time>2019-09-19T16:23:48.000Z</time>
      </trkpt>
      <trkpt lat="50.02951" lon="4.16598">
        <ele>251.707</ele>
        <time>2019-09-19T16:24:51.000Z</time>
      </trkpt>
      <trkpt lat="50.02951" lon="4.16598">
        <ele>251.707</ele>
        <time>2019-09-19T16:25:57.000Z</time>
      </trkpt>
      <trkpt lat="50.02987" lon="4.16562">
        <ele>252.792</ele>
        <time>2019-09-19T16:27:30.000Z</time>
      </trkpt>
      <trkpt lat="50.031" lon="4.16637">
        <ele>247.733</ele>
        <time>2019-09-19T16:28:00.000Z</time>
      </trkpt>
      <trkpt lat="50.03155" lon="4.16785">
        <ele>243.201</ele>
        <time>2019-09-19T16:28:30.000Z</time>
      </trkpt>
      <trkpt lat="50.03146" lon="4.168">
        <ele>245.003</ele>
        <time>2019-09-19T16:29:30.000Z</time>
      </trkpt>
      <trkpt lat="50.03147" lon="4.16798">
        <ele>239.734</ele>
        <time>2019-09-19T16:30:51.000Z</time>
      </trkpt>
      <trkpt lat="50.03123" lon="4.16837">
        <ele>239.451</ele>
        <time>2019-09-19T16:32:03.000Z</time>
      </trkpt>
      <trkpt lat="50.03191" lon="4.16797">
        <ele>243.634</ele>
        <time>2019-09-19T16:32:51.000Z</time>
      </trkpt>
      <trkpt lat="50.03153" lon="4.16814">
        <ele>243.613</ele>
        <time>2019-09-19T16:33:36.000Z</time>
      </trkpt>
      <trkpt lat="50.03161" lon="4.16809">
        <ele>246.412</ele>
        <time>2019-09-19T16:36:00.000Z</time>
      </trkpt>
      <trkpt lat="50.03149" lon="4.16795">
        <ele>246.66</ele>
        <time>2019-09-19T16:38:48.000Z</time>
      </trkpt>
      <trkpt lat="50.03143" lon="4.16794">
        <ele>248.091</ele>
        <time>2019-09-19T16:40:00.000Z</time>
      </trkpt>
      <trkpt lat="50.03143" lon="4.1679">
        <ele>248.821</ele>
        <time>2019-09-19T16:41:12.000Z</time>
      </trkpt>
      <trkpt lat="50.03155" lon="4.16778">
        <ele>245.641</ele>
        <time>2019-09-19T16:42:51.000Z</time>
      </trkpt>
      <trkpt lat="50.03109" lon="4.16661">
        <ele>251.58</ele>
        <time>2019-09-19T16:43:21.000Z</time>
      </trkpt>
      <trkpt lat="50.03027" lon="4.1657">
        <ele>255.152</ele>
        <time>2019-09-19T16:43:51.000Z</time>
      </trkpt>
      <trkpt lat="50.03007" lon="4.1658">
        <ele>256.075</ele>
        <time>2019-09-19T16:44:27.000Z</time>
      </trkpt>
      <trkpt lat="50.03006" lon="4.16582">
        <ele>256.063</ele>
        <time>2019-09-19T16:45:30.000Z</time>
      </trkpt>
      <trkpt lat="50.03023" lon="4.16553">
        <ele>251.26</ele>
        <time>2019-09-19T16:47:21.000Z</time>
      </trkpt>
      <trkpt lat="50.03" lon="4.16572">
        <ele>261.596</ele>
        <time>2019-09-19T16:48:03.000Z</time>
      </trkpt>
      <trkpt lat="50.02998" lon="4.16568">
        <ele>262.657</ele>
        <time>2019-09-19T16:49:54.000Z</time>
      </trkpt>
      <trkpt lat="50.03003" lon="4.16566">
        <ele>256.522</ele>
        <time>2019-09-19T17:13:00.000Z</time>
      </trkpt>
      <trkpt lat="50.03003" lon="4.16573">
        <ele>252.63</ele>
        <time>2019-09-19T17:14:21.001Z</time>
      </trkpt>
      <trkpt lat="50.03008" lon="4.16588">
        <ele>249.529</ele>
        <time>2019-09-19T17:15:45.001Z</time>
      </trkpt>
      <trkpt lat="50.02989" lon="4.16571">
        <ele>249.575</ele>
        <time>2019-09-19T17:16:42.001Z</time>
      </trkpt>
      <trkpt lat="50.02937" lon="4.16726">
        <ele>244.869</ele>
        <time>2019-09-19T17:17:15.001Z</time>
      </trkpt>
      <trkpt lat="50.02875" lon="4.16864">
        <ele>251.851</ele>
        <time>2019-09-19T17:17:45.001Z</time>
      </trkpt>
      <trkpt lat="50.02797" lon="4.16913">
        <ele>260.778</ele>
        <time>2019-09-19T17:18:15.001Z</time>
      </trkpt>
      <trkpt lat="50.02718" lon="4.16984">
        <ele>258.347</ele>
        <time>2019-09-19T17:18:45.001Z</time>
      </trkpt>
      <trkpt lat="50.02663" lon="4.17067">
        <ele>262.329</ele>
        <time>2019-09-19T17:19:18.001Z</time>
      </trkpt>
      <trkpt lat="50.02668" lon="4.17246">
        <ele>262.155</ele>
        <time>2019-09-19T17:19:51.002Z</time>
      </trkpt>
      <trkpt lat="50.0268" lon="4.17403">
        <ele>274.251</ele>
        <time>2019-09-19T17:20:21.001Z</time>
      </trkpt>
      <trkpt lat="50.02684" lon="4.1753">
        <ele>267.371</ele>
        <time>2019-09-19T17:20:51.001Z</time>
      </trkpt>
      <trkpt lat="50.02688" lon="4.17654">
        <ele>264.421</ele>
        <time>2019-09-19T17:21:24.001Z</time>
      </trkpt>
      <trkpt lat="50.02698" lon="4.17839">
        <ele>266.211</ele>
        <time>2019-09-19T17:21:54.001Z</time>
      </trkpt>
      <trkpt lat="50.02707" lon="4.18069">
        <ele>269.282</ele>
        <time>2019-09-19T17:22:24.001Z</time>
      </trkpt>
      <trkpt lat="50.0272" lon="4.18293">
        <ele>269.851</ele>
        <time>2019-09-19T17:22:54.001Z</time>
      </trkpt>
      <trkpt lat="50.0273" lon="4.18524">
        <ele>264.661</ele>
        <time>2019-09-19T17:23:24.001Z</time>
      </trkpt>
      <trkpt lat="50.02739" lon="4.18753">
        <ele>267.311</ele>
        <time>2019-09-19T17:23:54.001Z</time>
      </trkpt>
      <trkpt lat="50.02729" lon="4.1896">
        <ele>269.445</ele>
        <time>2019-09-19T17:24:24.001Z</time>
      </trkpt>
      <trkpt lat="50.02699" lon="4.19153">
        <ele>279.538</ele>
        <time>2019-09-19T17:24:54.001Z</time>
      </trkpt>
      <trkpt lat="50.02673" lon="4.1936">
        <ele>277.399</ele>
        <time>2019-09-19T17:25:24.001Z</time>
      </trkpt>
      <trkpt lat="50.02656" lon="4.19539">
        <ele>272.057</ele>
        <time>2019-09-19T17:25:54.001Z</time>
      </trkpt>
      <trkpt lat="50.02629" lon="4.19717">
        <ele>278.408</ele>
        <time>2019-09-19T17:26:24.001Z</time>
      </trkpt>
      <trkpt lat="50.02611" lon="4.19898">
        <ele>279.852</ele>
        <time>2019-09-19T17:26:54.001Z</time>
      </trkpt>
      <trkpt lat="50.02581" lon="4.20111">
        <ele>279.878</ele>
        <time>2019-09-19T17:27:24.001Z</time>
      </trkpt>
      <trkpt lat="50.02571" lon="4.20238">
        <ele>281.629</ele>
        <time>2019-09-19T17:27:54.001Z</time>
      </trkpt>
      <trkpt lat="50.02542" lon="4.20411">
        <ele>275.254</ele>
        <time>2019-09-19T17:28:24.001Z</time>
      </trkpt>
      <trkpt lat="50.02522" lon="4.20619">
        <ele>278.88</ele>
        <time>2019-09-19T17:28:54.001Z</time>
      </trkpt>
      <trkpt lat="50.02492" lon="4.20819">
        <ele>282.3</ele>
        <time>2019-09-19T17:29:24.001Z</time>
      </trkpt>
      <trkpt lat="50.02457" lon="4.21054">
        <ele>282.693</ele>
        <time>2019-09-19T17:29:54.001Z</time>
      </trkpt>
      <trkpt lat="50.02399" lon="4.21247">
        <ele>277.132</ele>
        <time>2019-09-19T17:32:12.001Z</time>
      </trkpt>
      <trkpt lat="50.02324" lon="4.21427">
        <ele>269.367</ele>
        <time>2019-09-19T17:32:42.001Z</time>
      </trkpt>
      <trkpt lat="50.02258" lon="4.21565">
        <ele>273.199</ele>
        <time>2019-09-19T17:33:12.001Z</time>
      </trkpt>
      <trkpt lat="50.02248" lon="4.21559">
        <ele>274.694</ele>
        <time>2019-09-19T17:33:54.001Z</time>
      </trkpt>
      <trkpt lat="50.02244" lon="4.21528">
        <ele>276.742</ele>
        <time>2019-09-19T17:35:30.001Z</time>
      </trkpt>
      <trkpt lat="50.02235" lon="4.21532">
        <ele>282.525</ele>
        <time>2019-09-19T17:39:27.001Z</time>
      </trkpt>
      <trkpt lat="50.02239" lon="4.21533">
        <ele>280.576</ele>
        <time>2019-09-19T17:40:06.001Z</time>
      </trkpt>
      <trkpt lat="50.02227" lon="4.21558">
        <ele>284.845</ele>
        <time>2019-09-19T17:41:24.001Z</time>
      </trkpt>
      <trkpt lat="50.02249" lon="4.21535">
        <ele>276.487</ele>
        <time>2019-09-19T17:48:00.000Z</time>
      </trkpt>
      <trkpt lat="50.0224" lon="4.21521">
        <ele>279.949</ele>
        <time>2019-09-19T17:52:48.001Z</time>
      </trkpt>
      <trkpt lat="50.02238" lon="4.21544">
        <ele>273.383</ele>
        <time>2019-09-19T17:54:21.001Z</time>
      </trkpt>
      <trkpt lat="50.0225" lon="4.21532">
        <ele>268.147</ele>
        <time>2019-09-19T17:55:33.001Z</time>
      </trkpt>
      <trkpt lat="50.02239" lon="4.21532">
        <ele>276.579</ele>
        <time>2019-09-19T17:57:27.001Z</time>
      </trkpt>
      <trkpt lat="50.02242" lon="4.21541">
        <ele>278.129</ele>
        <time>2019-09-19T17:58:30.001Z</time>
      </trkpt>
      <trkpt lat="50.02238" lon="4.21535">
        <ele>277.073</ele>
        <time>2019-09-19T17:59:12.001Z</time>
      </trkpt>
      <trkpt lat="50.02236" lon="4.21533">
        <ele>276.27</ele>
        <time>2019-09-19T18:00:30.001Z</time>
      </trkpt>
      <trkpt lat="50.02235" lon="4.21539">
        <ele>274.916</ele>
        <time>2019-09-19T18:02:21.001Z</time>
      </trkpt>
      <trkpt lat="50.0224" lon="4.21529">
        <ele>278.713</ele>
        <time>2019-09-19T18:03:45.001Z</time>
      </trkpt>
      <trkpt lat="50.02243" lon="4.21526">
        <ele>273.181</ele>
        <time>2019-09-19T18:05:57.001Z</time>
      </trkpt>
      <trkpt lat="50.02246" lon="4.21542">
        <ele>265.347</ele>
        <time>2019-09-19T18:07:33.001Z</time>
      </trkpt>
      <trkpt lat="50.02242" lon="4.21542">
        <ele>268.507</ele>
        <time>2019-09-19T18:08:09.001Z</time>
      </trkpt>
      <trkpt lat="50.02244" lon="4.21534">
        <ele>271.723</ele>
        <time>2019-09-19T18:09:24.001Z</time>
      </trkpt>
      <trkpt lat="50.02245" lon="4.21525">
        <ele>280.913</ele>
        <time>2019-09-19T18:11:03.001Z</time>
      </trkpt>
      <trkpt lat="50.02239" lon="4.21534">
        <ele>280.231</ele>
        <time>2019-09-19T18:13:48.001Z</time>
      </trkpt>
      <trkpt lat="50.02245" lon="4.2154">
        <ele>282.76</ele>
        <time>2019-09-19T18:16:21.001Z</time>
      </trkpt>
      <trkpt lat="50.02249" lon="4.21539">
        <ele>288.453</ele>
        <time>2019-09-19T18:22:00.000Z</time>
      </trkpt>
      <trkpt lat="50.02246" lon="4.21527">
        <ele>287.017</ele>
        <time>2019-09-19T18:23:03.001Z</time>
      </trkpt>
      <trkpt lat="50.02238" lon="4.21539">
        <ele>288.259</ele>
        <time>2019-09-19T18:25:03.001Z</time>
      </trkpt>
      <trkpt lat="50.02241" lon="4.21544">
        <ele>284.602</ele>
        <time>2019-09-19T18:26:45.001Z</time>
      </trkpt>
      <trkpt lat="50.02249" lon="4.21536">
        <ele>280.117</ele>
        <time>2019-09-19T18:27:57.001Z</time>
      </trkpt>
      <trkpt lat="50.02247" lon="4.21519">
        <ele>278.518</ele>
        <time>2019-09-19T18:29:03.001Z</time>
      </trkpt>
      <trkpt lat="50.02246" lon="4.21529">
        <ele>278.26</ele>
        <time>2019-09-19T18:31:33.001Z</time>
      </trkpt>
      <trkpt lat="50.02244" lon="4.21534">
        <ele>280.008</ele>
        <time>2019-09-19T18:32:18.001Z</time>
      </trkpt>
      <trkpt lat="50.0225" lon="4.21531">
        <ele>277.607</ele>
        <time>2019-09-19T18:33:27.001Z</time>
      </trkpt>
      <trkpt lat="50.02228" lon="4.21525">
        <ele>282.37</ele>
        <time>2019-09-19T18:37:12.001Z</time>
      </trkpt>
    </trkseg>
  </trk>
  <trk>
    <name><![CDATA[Tracé 20190920-100951]]></name>
    <trkseg>
      <trkpt lat="50.0223" lon="4.21626">
        <ele>283.132</ele>
        <time>2019-09-20T08:15:54.000Z</time>
      </trkpt>
      <trkpt lat="50.02175" lon="4.21765">
        <ele>285.662</ele>
        <time>2019-09-20T08:16:24.000Z</time>
      </trkpt>
      <trkpt lat="50.02102" lon="4.21925">
        <ele>287.172</ele>
        <time>2019-09-20T08:16:54.000Z</time>
      </trkpt>
      <trkpt lat="50.02029" lon="4.22083">
        <ele>288.282</ele>
        <time>2019-09-20T08:17:24.000Z</time>
      </trkpt>
      <trkpt lat="50.01955" lon="4.22259">
        <ele>288.143</ele>
        <time>2019-09-20T08:17:54.000Z</time>
      </trkpt>
      <trkpt lat="50.01886" lon="4.22417">
        <ele>289.076</ele>
        <time>2019-09-20T08:18:24.000Z</time>
      </trkpt>
      <trkpt lat="50.01814" lon="4.22583">
        <ele>288.579</ele>
        <time>2019-09-20T08:18:54.000Z</time>
      </trkpt>
      <trkpt lat="50.01757" lon="4.22751">
        <ele>293.928</ele>
        <time>2019-09-20T08:19:24.000Z</time>
      </trkpt>
      <trkpt lat="50.01721" lon="4.22989">
        <ele>298.13</ele>
        <time>2019-09-20T08:19:54.000Z</time>
      </trkpt>
      <trkpt lat="50.01703" lon="4.23249">
        <ele>299.228</ele>
        <time>2019-09-20T08:20:24.000Z</time>
      </trkpt>
      <trkpt lat="50.01738" lon="4.23514">
        <ele>298.858</ele>
        <time>2019-09-20T08:20:54.000Z</time>
      </trkpt>
      <trkpt lat="50.018" lon="4.23734">
        <ele>282.635</ele>
        <time>2019-09-20T08:21:24.000Z</time>
      </trkpt>
      <trkpt lat="50.01917" lon="4.23966">
        <ele>282.001</ele>
        <time>2019-09-20T08:21:54.000Z</time>
      </trkpt>
      <trkpt lat="50.02051" lon="4.24165">
        <ele>282.151</ele>
        <time>2019-09-20T08:22:24.000Z</time>
      </trkpt>
      <trkpt lat="50.02191" lon="4.2438">
        <ele>282.771</ele>
        <time>2019-09-20T08:22:54.000Z</time>
      </trkpt>
      <trkpt lat="50.02326" lon="4.2459">
        <ele>281.295</ele>
        <time>2019-09-20T08:23:24.000Z</time>
      </trkpt>
      <trkpt lat="50.02465" lon="4.24799">
        <ele>278.268</ele>
        <time>2019-09-20T08:23:54.000Z</time>
      </trkpt>
      <trkpt lat="50.02606" lon="4.25002">
        <ele>278.528</ele>
        <time>2019-09-20T08:24:24.000Z</time>
      </trkpt>
      <trkpt lat="50.02729" lon="4.25187">
        <ele>271.867</ele>
        <time>2019-09-20T08:24:54.000Z</time>
      </trkpt>
      <trkpt lat="50.02844" lon="4.25429">
        <ele>267.542</ele>
        <time>2019-09-20T08:25:24.000Z</time>
      </trkpt>
      <trkpt lat="50.02957" lon="4.2567">
        <ele>262.689</ele>
        <time>2019-09-20T08:25:54.000Z</time>
      </trkpt>
      <trkpt lat="50.03083" lon="4.259">
        <ele>257.911</ele>
        <time>2019-09-20T08:26:24.000Z</time>
      </trkpt>
      <trkpt lat="50.03155" lon="4.25975">
        <ele>254.562</ele>
        <time>2019-09-20T08:26:57.000Z</time>
      </trkpt>
      <trkpt lat="50.03254" lon="4.26093">
        <ele>258.388</ele>
        <time>2019-09-20T08:27:27.000Z</time>
      </trkpt>
      <trkpt lat="50.03381" lon="4.26302">
        <ele>254.571</ele>
        <time>2019-09-20T08:27:57.000Z</time>
      </trkpt>
      <trkpt lat="50.03435" lon="4.26431">
        <ele>250.031</ele>
        <time>2019-09-20T08:28:27.000Z</time>
      </trkpt>
      <trkpt lat="50.03505" lon="4.26641">
        <ele>246.867</ele>
        <time>2019-09-20T08:28:57.000Z</time>
      </trkpt>
      <trkpt lat="50.03565" lon="4.26895">
        <ele>243.218</ele>
        <time>2019-09-20T08:29:27.000Z</time>
      </trkpt>
      <trkpt lat="50.03609" lon="4.27153">
        <ele>244.375</ele>
        <time>2019-09-20T08:29:57.000Z</time>
      </trkpt>
      <trkpt lat="50.03658" lon="4.27424">
        <ele>244.667</ele>
        <time>2019-09-20T08:30:27.000Z</time>
      </trkpt>
      <trkpt lat="50.03705" lon="4.27675">
        <ele>244.008</ele>
        <time>2019-09-20T08:30:57.000Z</time>
      </trkpt>
      <trkpt lat="50.03744" lon="4.27893">
        <ele>242.351</ele>
        <time>2019-09-20T08:31:27.000Z</time>
      </trkpt>
      <trkpt lat="50.03787" lon="4.28133">
        <ele>243.447</ele>
        <time>2019-09-20T08:31:57.000Z</time>
      </trkpt>
      <trkpt lat="50.03833" lon="4.28383">
        <ele>241.706</ele>
        <time>2019-09-20T08:32:27.000Z</time>
      </trkpt>
      <trkpt lat="50.03874" lon="4.28615">
        <ele>242.163</ele>
        <time>2019-09-20T08:32:57.000Z</time>
      </trkpt>
      <trkpt lat="50.03917" lon="4.28847">
        <ele>242.306</ele>
        <time>2019-09-20T08:33:27.000Z</time>
      </trkpt>
      <trkpt lat="50.03978" lon="4.2909">
        <ele>238.78</ele>
        <time>2019-09-20T08:33:57.000Z</time>
      </trkpt>
      <trkpt lat="50.04022" lon="4.29246">
        <ele>234.215</ele>
        <time>2019-09-20T08:34:27.000Z</time>
      </trkpt>
      <trkpt lat="50.04087" lon="4.29464">
        <ele>232.257</ele>
        <time>2019-09-20T08:34:57.000Z</time>
      </trkpt>
      <trkpt lat="50.04166" lon="4.29699">
        <ele>229.47</ele>
        <time>2019-09-20T08:35:27.000Z</time>
      </trkpt>
      <trkpt lat="50.0421" lon="4.29842">
        <ele>230.23</ele>
        <time>2019-09-20T08:35:57.000Z</time>
      </trkpt>
      <trkpt lat="50.04288" lon="4.30083">
        <ele>228.414</ele>
        <time>2019-09-20T08:36:27.000Z</time>
      </trkpt>
      <trkpt lat="50.0436" lon="4.30337">
        <ele>227.962</ele>
        <time>2019-09-20T08:36:57.000Z</time>
      </trkpt>
      <trkpt lat="50.0442" lon="4.30564">
        <ele>229.574</ele>
        <time>2019-09-20T08:37:27.000Z</time>
      </trkpt>
      <trkpt lat="50.04475" lon="4.30755">
        <ele>230.939</ele>
        <time>2019-09-20T08:37:57.000Z</time>
      </trkpt>
      <trkpt lat="50.04519" lon="4.30925">
        <ele>233.24</ele>
        <time>2019-09-20T08:38:27.000Z</time>
      </trkpt>
      <trkpt lat="50.04569" lon="4.31093">
        <ele>242.729</ele>
        <time>2019-09-20T08:38:57.000Z</time>
      </trkpt>
      <trkpt lat="50.04607" lon="4.31258">
        <ele>238.145</ele>
        <time>2019-09-20T08:39:27.000Z</time>
      </trkpt>
      <trkpt lat="50.04645" lon="4.31379">
        <ele>235.253</ele>
        <time>2019-09-20T08:39:57.000Z</time>
      </trkpt>
      <trkpt lat="50.04681" lon="4.31516">
        <ele>235.055</ele>
        <time>2019-09-20T08:40:27.000Z</time>
      </trkpt>
      <trkpt lat="50.0472" lon="4.31637">
        <ele>238.139</ele>
        <time>2019-09-20T08:40:57.000Z</time>
      </trkpt>
      <trkpt lat="50.04744" lon="4.31709">
        <ele>241.965</ele>
        <time>2019-09-20T08:41:36.000Z</time>
      </trkpt>
      <trkpt lat="50.04772" lon="4.31832">
        <ele>244.529</ele>
        <time>2019-09-20T08:42:06.000Z</time>
      </trkpt>
      <trkpt lat="50.04758" lon="4.31806">
        <ele>244.868</ele>
        <time>2019-09-20T08:45:18.001Z</time>
      </trkpt>
      <trkpt lat="50.04701" lon="4.31805">
        <ele>248.643</ele>
        <time>2019-09-20T08:45:48.001Z</time>
      </trkpt>
      <trkpt lat="50.04723" lon="4.32002">
        <ele>249.847</ele>
        <time>2019-09-20T08:46:18.001Z</time>
      </trkpt>
      <trkpt lat="50.04697" lon="4.32166">
        <ele>248.765</ele>
        <time>2019-09-20T08:46:48.001Z</time>
      </trkpt>
      <trkpt lat="50.04622" lon="4.32274">
        <ele>256.958</ele>
        <time>2019-09-20T08:47:18.001Z</time>
      </trkpt>
      <trkpt lat="50.04552" lon="4.32364">
        <ele>264.056</ele>
        <time>2019-09-20T08:47:48.001Z</time>
      </trkpt>
      <trkpt lat="50.04478" lon="4.32445">
        <ele>262.6</ele>
        <time>2019-09-20T08:48:18.001Z</time>
      </trkpt>
      <trkpt lat="50.04404" lon="4.32532">
        <ele>266.137</ele>
        <time>2019-09-20T08:48:48.001Z</time>
      </trkpt>
      <trkpt lat="50.04332" lon="4.32614">
        <ele>265.311</ele>
        <time>2019-09-20T08:49:18.001Z</time>
      </trkpt>
      <trkpt lat="50.04249" lon="4.3274">
        <ele>265.764</ele>
        <time>2019-09-20T08:49:48.001Z</time>
      </trkpt>
      <trkpt lat="50.04154" lon="4.32911">
        <ele>261.841</ele>
        <time>2019-09-20T08:50:18.001Z</time>
      </trkpt>
      <trkpt lat="50.04038" lon="4.33097">
        <ele>258.801</ele>
        <time>2019-09-20T08:50:48.001Z</time>
      </trkpt>
      <trkpt lat="50.03923" lon="4.33216">
        <ele>256.775</ele>
        <time>2019-09-20T08:51:18.001Z</time>
      </trkpt>
      <trkpt lat="50.03822" lon="4.33316">
        <ele>260.597</ele>
        <time>2019-09-20T08:51:48.001Z</time>
      </trkpt>
      <trkpt lat="50.03667" lon="4.33466">
        <ele>254.395</ele>
        <time>2019-09-20T08:52:18.001Z</time>
      </trkpt>
      <trkpt lat="50.03421" lon="4.33642">
        <ele>245.918</ele>
        <time>2019-09-20T08:52:48.001Z</time>
      </trkpt>
      <trkpt lat="50.03292" lon="4.33686">
        <ele>247.21</ele>
        <time>2019-09-20T08:53:18.001Z</time>
      </trkpt>
      <trkpt lat="50.03207" lon="4.33735">
        <ele>250.166</ele>
        <time>2019-09-20T08:53:48.001Z</time>
      </trkpt>
      <trkpt lat="50.03102" lon="4.3383">
        <ele>250.126</ele>
        <time>2019-09-20T08:54:18.001Z</time>
      </trkpt>
      <trkpt lat="50.0299" lon="4.33932">
        <ele>251.852</ele>
        <time>2019-09-20T08:54:48.001Z</time>
      </trkpt>
      <trkpt lat="50.02871" lon="4.34038">
        <ele>251.91</ele>
        <time>2019-09-20T08:55:18.001Z</time>
      </trkpt>
      <trkpt lat="50.02749" lon="4.3409">
        <ele>259.12</ele>
        <time>2019-09-20T08:55:48.001Z</time>
      </trkpt>
      <trkpt lat="50.02741" lon="4.34226">
        <ele>260.36</ele>
        <time>2019-09-20T08:56:18.001Z</time>
      </trkpt>
      <trkpt lat="50.02777" lon="4.34368">
        <ele>261.159</ele>
        <time>2019-09-20T08:56:48.001Z</time>
      </trkpt>
      <trkpt lat="50.02812" lon="4.34502">
        <ele>260.752</ele>
        <time>2019-09-20T08:57:18.001Z</time>
      </trkpt>
      <trkpt lat="50.02834" lon="4.34667">
        <ele>259.73</ele>
        <time>2019-09-20T08:57:48.001Z</time>
      </trkpt>
      <trkpt lat="50.02846" lon="4.3493">
        <ele>254.736</ele>
        <time>2019-09-20T08:58:18.001Z</time>
      </trkpt>
      <trkpt lat="50.02856" lon="4.35151">
        <ele>255.649</ele>
        <time>2019-09-20T08:58:48.001Z</time>
      </trkpt>
      <trkpt lat="50.02863" lon="4.35323">
        <ele>258.732</ele>
        <time>2019-09-20T08:59:18.001Z</time>
      </trkpt>
      <trkpt lat="50.02859" lon="4.35502">
        <ele>260.456</ele>
        <time>2019-09-20T08:59:48.001Z</time>
      </trkpt>
      <trkpt lat="50.02851" lon="4.35712">
        <ele>261.38</ele>
        <time>2019-09-20T09:00:18.001Z</time>
      </trkpt>
      <trkpt lat="50.02834" lon="4.35903">
        <ele>257.942</ele>
        <time>2019-09-20T09:00:48.001Z</time>
      </trkpt>
      <trkpt lat="50.02818" lon="4.36117">
        <ele>258.551</ele>
        <time>2019-09-20T09:01:18.001Z</time>
      </trkpt>
      <trkpt lat="50.02858" lon="4.36304">
        <ele>258.865</ele>
        <time>2019-09-20T09:01:48.001Z</time>
      </trkpt>
      <trkpt lat="50.0288" lon="4.36459">
        <ele>261.405</ele>
        <time>2019-09-20T09:02:18.001Z</time>
      </trkpt>
      <trkpt lat="50.02901" lon="4.36606">
        <ele>265.076</ele>
        <time>2019-09-20T09:02:48.001Z</time>
      </trkpt>
      <trkpt lat="50.02922" lon="4.36755">
        <ele>269.927</ele>
        <time>2019-09-20T09:03:18.001Z</time>
      </trkpt>
      <trkpt lat="50.02945" lon="4.36981">
        <ele>264.13</ele>
        <time>2019-09-20T09:03:48.001Z</time>
      </trkpt>
      <trkpt lat="50.02962" lon="4.37217">
        <ele>259.447</ele>
        <time>2019-09-20T09:04:18.001Z</time>
      </trkpt>
      <trkpt lat="50.02948" lon="4.37443">
        <ele>262.021</ele>
        <time>2019-09-20T09:04:48.001Z</time>
      </trkpt>
      <trkpt lat="50.02893" lon="4.37603">
        <ele>266.142</ele>
        <time>2019-09-20T09:05:18.001Z</time>
      </trkpt>
      <trkpt lat="50.0279" lon="4.37565">
        <ele>270.04</ele>
        <time>2019-09-20T09:05:48.001Z</time>
      </trkpt>
      <trkpt lat="50.02718" lon="4.37484">
        <ele>267.994</ele>
        <time>2019-09-20T09:06:18.001Z</time>
      </trkpt>
      <trkpt lat="50.0266" lon="4.37409">
        <ele>275.943</ele>
        <time>2019-09-20T09:06:48.001Z</time>
      </trkpt>
      <trkpt lat="50.02593" lon="4.3741">
        <ele>277.974</ele>
        <time>2019-09-20T09:07:18.001Z</time>
      </trkpt>
      <trkpt lat="50.02529" lon="4.3742">
        <ele>279.581</ele>
        <time>2019-09-20T09:07:48.001Z</time>
      </trkpt>
      <trkpt lat="50.02461" lon="4.37431">
        <ele>288.62</ele>
        <time>2019-09-20T09:08:24.001Z</time>
      </trkpt>
      <trkpt lat="50.02403" lon="4.37438">
        <ele>291.988</ele>
        <time>2019-09-20T09:08:54.001Z</time>
      </trkpt>
      <trkpt lat="50.02331" lon="4.37445">
        <ele>300.419</ele>
        <time>2019-09-20T09:09:30.001Z</time>
      </trkpt>
      <trkpt lat="50.02267" lon="4.37411">
        <ele>305.689</ele>
        <time>2019-09-20T09:10:00.000Z</time>
      </trkpt>
      <trkpt lat="50.0221" lon="4.37373">
        <ele>303.952</ele>
        <time>2019-09-20T09:10:30.001Z</time>
      </trkpt>
      <trkpt lat="50.02146" lon="4.37343">
        <ele>307.404</ele>
        <time>2019-09-20T09:11:00.000Z</time>
      </trkpt>
      <trkpt lat="50.02078" lon="4.37305">
        <ele>311.876</ele>
        <time>2019-09-20T09:11:30.001Z</time>
      </trkpt>
      <trkpt lat="50.02" lon="4.3723">
        <ele>313.396</ele>
        <time>2019-09-20T09:12:00.000Z</time>
      </trkpt>
      <trkpt lat="50.01922" lon="4.37212">
        <ele>310.554</ele>
        <time>2019-09-20T09:17:30.001Z</time>
      </trkpt>
      <trkpt lat="50.01754" lon="4.37219">
        <ele>302.016</ele>
        <time>2019-09-20T09:18:00.000Z</time>
      </trkpt>
      <trkpt lat="50.01602" lon="4.37254">
        <ele>297.702</ele>
        <time>2019-09-20T09:18:30.001Z</time>
      </trkpt>
      <trkpt lat="50.0149" lon="4.37339">
        <ele>299.792</ele>
        <time>2019-09-20T09:19:00.000Z</time>
      </trkpt>
      <trkpt lat="50.01417" lon="4.3739">
        <ele>312.787</ele>
        <time>2019-09-20T09:19:30.001Z</time>
      </trkpt>
      <trkpt lat="50.01357" lon="4.37436">
        <ele>322.301</ele>
        <time>2019-09-20T09:20:00.000Z</time>
      </trkpt>
      <trkpt lat="50.01297" lon="4.37479">
        <ele>328.206</ele>
        <time>2019-09-20T09:20:30.001Z</time>
      </trkpt>
      <trkpt lat="50.01244" lon="4.37516">
        <ele>331.144</ele>
        <time>2019-09-20T09:21:00.000Z</time>
      </trkpt>
      <trkpt lat="50.01179" lon="4.37561">
        <ele>334.014</ele>
        <time>2019-09-20T09:21:30.001Z</time>
      </trkpt>
      <trkpt lat="50.01092" lon="4.37627">
        <ele>337.502</ele>
        <time>2019-09-20T09:22:00.000Z</time>
      </trkpt>
      <trkpt lat="50.00894" lon="4.37763">
        <ele>325.656</ele>
        <time>2019-09-20T09:22:30.001Z</time>
      </trkpt>
      <trkpt lat="50.00652" lon="4.37933">
        <ele>304.124</ele>
        <time>2019-09-20T09:23:00.000Z</time>
      </trkpt>
      <trkpt lat="50.00388" lon="4.38128">
        <ele>296.973</ele>
        <time>2019-09-20T09:23:30.001Z</time>
      </trkpt>
      <trkpt lat="50.00248" lon="4.38441">
        <ele>283.469</ele>
        <time>2019-09-20T09:24:00.000Z</time>
      </trkpt>
      <trkpt lat="50.00192" lon="4.38561">
        <ele>291.678</ele>
        <time>2019-09-20T09:24:30.001Z</time>
      </trkpt>
      <trkpt lat="49.99901" lon="4.38337">
        <ele>281.664</ele>
        <time>2019-09-20T09:25:00.000Z</time>
      </trkpt>
      <trkpt lat="49.99643" lon="4.3834">
        <ele>267.207</ele>
        <time>2019-09-20T09:25:30.001Z</time>
      </trkpt>
      <trkpt lat="49.99521" lon="4.38418">
        <ele>273.925</ele>
        <time>2019-09-20T09:26:00.000Z</time>
      </trkpt>
      <trkpt lat="49.99398" lon="4.38493">
        <ele>282.135</ele>
        <time>2019-09-20T09:26:30.001Z</time>
      </trkpt>
      <trkpt lat="49.99268" lon="4.38558">
        <ele>287.342</ele>
        <time>2019-09-20T09:27:00.000Z</time>
      </trkpt>
      <trkpt lat="49.99148" lon="4.38554">
        <ele>281.344</ele>
        <time>2019-09-20T09:27:30.001Z</time>
      </trkpt>
      <trkpt lat="49.99073" lon="4.38516">
        <ele>286.555</ele>
        <time>2019-09-20T09:28:00.000Z</time>
      </trkpt>
      <trkpt lat="49.98969" lon="4.38439">
        <ele>286.183</ele>
        <time>2019-09-20T09:28:30.001Z</time>
      </trkpt>
      <trkpt lat="49.98838" lon="4.38404">
        <ele>283.266</ele>
        <time>2019-09-20T09:29:00.000Z</time>
      </trkpt>
      <trkpt lat="49.98693" lon="4.38364">
        <ele>287.683</ele>
        <time>2019-09-20T09:29:30.001Z</time>
      </trkpt>
      <trkpt lat="49.98525" lon="4.38313">
        <ele>280.212</ele>
        <time>2019-09-20T09:30:00.000Z</time>
      </trkpt>
      <trkpt lat="49.98427" lon="4.38352">
        <ele>284.979</ele>
        <time>2019-09-20T09:30:30.001Z</time>
      </trkpt>
      <trkpt lat="49.98331" lon="4.38349">
        <ele>289.311</ele>
        <time>2019-09-20T09:31:00.000Z</time>
      </trkpt>
      <trkpt lat="49.98242" lon="4.3834">
        <ele>292.369</ele>
        <time>2019-09-20T09:31:30.001Z</time>
      </trkpt>
      <trkpt lat="49.98147" lon="4.38355">
        <ele>288.89</ele>
        <time>2019-09-20T09:32:00.000Z</time>
      </trkpt>
      <trkpt lat="49.98035" lon="4.38363">
        <ele>289.592</ele>
        <time>2019-09-20T09:32:30.001Z</time>
      </trkpt>
      <trkpt lat="49.97914" lon="4.38318">
        <ele>299.676</ele>
        <time>2019-09-20T09:33:00.000Z</time>
      </trkpt>
      <trkpt lat="49.97801" lon="4.38207">
        <ele>304.449</ele>
        <time>2019-09-20T09:33:30.001Z</time>
      </trkpt>
      <trkpt lat="49.97684" lon="4.38082">
        <ele>311.518</ele>
        <time>2019-09-20T09:34:00.000Z</time>
      </trkpt>
      <trkpt lat="49.97566" lon="4.37955">
        <ele>299.317</ele>
        <time>2019-09-20T09:34:30.001Z</time>
      </trkpt>
      <trkpt lat="49.97412" lon="4.37788">
        <ele>287.432</ele>
        <time>2019-09-20T09:35:00.000Z</time>
      </trkpt>
      <trkpt lat="49.97268" lon="4.37638">
        <ele>281.61</ele>
        <time>2019-09-20T09:35:30.001Z</time>
      </trkpt>
      <trkpt lat="49.97135" lon="4.3754">
        <ele>290.712</ele>
        <time>2019-09-20T09:36:00.000Z</time>
      </trkpt>
      <trkpt lat="49.96992" lon="4.37491">
        <ele>295.417</ele>
        <time>2019-09-20T09:36:30.001Z</time>
      </trkpt>
      <trkpt lat="49.9688" lon="4.37564">
        <ele>291.819</ele>
        <time>2019-09-20T09:37:00.000Z</time>
      </trkpt>
      <trkpt lat="49.96777" lon="4.37657">
        <ele>284.785</ele>
        <time>2019-09-20T09:37:30.001Z</time>
      </trkpt>
      <trkpt lat="49.96687" lon="4.37725">
        <ele>288.879</ele>
        <time>2019-09-20T09:38:00.000Z</time>
      </trkpt>
      <trkpt lat="49.96599" lon="4.37786">
        <ele>291.439</ele>
        <time>2019-09-20T09:38:30.001Z</time>
      </trkpt>
      <trkpt lat="49.9651" lon="4.37832">
        <ele>292.747</ele>
        <time>2019-09-20T09:39:00.000Z</time>
      </trkpt>
      <trkpt lat="49.96417" lon="4.3785">
        <ele>291.855</ele>
        <time>2019-09-20T09:39:30.001Z</time>
      </trkpt>
      <trkpt lat="49.96323" lon="4.37863">
        <ele>295.141</ele>
        <time>2019-09-20T09:40:00.000Z</time>
      </trkpt>
      <trkpt lat="49.96239" lon="4.37902">
        <ele>302.166</ele>
        <time>2019-09-20T09:40:30.001Z</time>
      </trkpt>
      <trkpt lat="49.96165" lon="4.37977">
        <ele>304.215</ele>
        <time>2019-09-20T09:41:00.000Z</time>
      </trkpt>
      <trkpt lat="49.96074" lon="4.38041">
        <ele>310.346</ele>
        <time>2019-09-20T09:41:30.001Z</time>
      </trkpt>
      <trkpt lat="49.95911" lon="4.38094">
        <ele>304.978</ele>
        <time>2019-09-20T09:42:00.000Z</time>
      </trkpt>
      <trkpt lat="49.95779" lon="4.38134">
        <ele>302.685</ele>
        <time>2019-09-20T09:42:30.001Z</time>
      </trkpt>
      <trkpt lat="49.95716" lon="4.38192">
        <ele>305.307</ele>
        <time>2019-09-20T09:43:00.000Z</time>
      </trkpt>
      <trkpt lat="49.95664" lon="4.38266">
        <ele>310.175</ele>
        <time>2019-09-20T09:43:30.001Z</time>
      </trkpt>
      <trkpt lat="49.95567" lon="4.38395">
        <ele>308.943</ele>
        <time>2019-09-20T09:44:00.000Z</time>
      </trkpt>
      <trkpt lat="49.9544" lon="4.38521">
        <ele>306.608</ele>
        <time>2019-09-20T09:44:30.001Z</time>
      </trkpt>
      <trkpt lat="49.95333" lon="4.38601">
        <ele>307.972</ele>
        <time>2019-09-20T09:45:00.000Z</time>
      </trkpt>
      <trkpt lat="49.95242" lon="4.38695">
        <ele>308.045</ele>
        <time>2019-09-20T09:45:30.001Z</time>
      </trkpt>
      <trkpt lat="49.95151" lon="4.38807">
        <ele>312.601</ele>
        <time>2019-09-20T09:46:00.000Z</time>
      </trkpt>
      <trkpt lat="49.95055" lon="4.38922">
        <ele>311.014</ele>
        <time>2019-09-20T09:46:30.001Z</time>
      </trkpt>
      <trkpt lat="49.94958" lon="4.39051">
        <ele>311.354</ele>
        <time>2019-09-20T09:47:00.000Z</time>
      </trkpt>
      <trkpt lat="49.94913" lon="4.39175">
        <ele>309.244</ele>
        <time>2019-09-20T09:47:30.001Z</time>
      </trkpt>
      <trkpt lat="49.94904" lon="4.39317">
        <ele>311.758</ele>
        <time>2019-09-20T09:48:00.000Z</time>
      </trkpt>
      <trkpt lat="49.94962" lon="4.39611">
        <ele>304.926</ele>
        <time>2019-09-20T09:48:30.001Z</time>
      </trkpt>
      <trkpt lat="49.94965" lon="4.3982">
        <ele>303.791</ele>
        <time>2019-09-20T09:49:00.000Z</time>
      </trkpt>
      <trkpt lat="49.94953" lon="4.4001">
        <ele>308.252</ele>
        <time>2019-09-20T09:49:30.001Z</time>
      </trkpt>
      <trkpt lat="49.94964" lon="4.40241">
        <ele>315.452</ele>
        <time>2019-09-20T09:50:00.000Z</time>
      </trkpt>
      <trkpt lat="49.9496" lon="4.40469">
        <ele>305.692</ele>
        <time>2019-09-20T09:50:30.001Z</time>
      </trkpt>
      <trkpt lat="49.94965" lon="4.40643">
        <ele>307.874</ele>
        <time>2019-09-20T09:51:00.000Z</time>
      </trkpt>
      <trkpt lat="49.94976" lon="4.40816">
        <ele>314.919</ele>
        <time>2019-09-20T09:51:30.001Z</time>
      </trkpt>
      <trkpt lat="49.9495" lon="4.40999">
        <ele>311.62</ele>
        <time>2019-09-20T09:52:00.000Z</time>
      </trkpt>
      <trkpt lat="49.94894" lon="4.41174">
        <ele>316.364</ele>
        <time>2019-09-20T09:52:30.001Z</time>
      </trkpt>
      <trkpt lat="49.94859" lon="4.41347">
        <ele>311.933</ele>
        <time>2019-09-20T09:53:00.000Z</time>
      </trkpt>
      <trkpt lat="49.9486" lon="4.4156">
        <ele>307.639</ele>
        <time>2019-09-20T09:53:30.001Z</time>
      </trkpt>
      <trkpt lat="49.94867" lon="4.41777">
        <ele>309.234</ele>
        <time>2019-09-20T09:54:00.000Z</time>
      </trkpt>
      <trkpt lat="49.94835" lon="4.41946">
        <ele>309.455</ele>
        <time>2019-09-20T09:54:30.001Z</time>
      </trkpt>
      <trkpt lat="49.94764" lon="4.42063">
        <ele>311.54</ele>
        <time>2019-09-20T09:55:00.000Z</time>
      </trkpt>
      <trkpt lat="49.94675" lon="4.4218">
        <ele>314.846</ele>
        <time>2019-09-20T09:55:30.001Z</time>
      </trkpt>
      <trkpt lat="49.94591" lon="4.42309">
        <ele>318.685</ele>
        <time>2019-09-20T09:56:00.000Z</time>
      </trkpt>
      <trkpt lat="49.94539" lon="4.42484">
        <ele>326.176</ele>
        <time>2019-09-20T09:56:30.001Z</time>
      </trkpt>
      <trkpt lat="49.94514" lon="4.42668">
        <ele>318.66</ele>
        <time>2019-09-20T09:57:00.000Z</time>
      </trkpt>
      <trkpt lat="49.94518" lon="4.4281">
        <ele>317.123</ele>
        <time>2019-09-20T09:57:30.001Z</time>
      </trkpt>
      <trkpt lat="49.94508" lon="4.42948">
        <ele>319.271</ele>
        <time>2019-09-20T09:58:00.000Z</time>
      </trkpt>
      <trkpt lat="49.94486" lon="4.43072">
        <ele>324.997</ele>
        <time>2019-09-20T09:58:30.001Z</time>
      </trkpt>
      <trkpt lat="49.94418" lon="4.43194">
        <ele>323.486</ele>
        <time>2019-09-20T09:59:00.000Z</time>
      </trkpt>
      <trkpt lat="49.94289" lon="4.43351">
        <ele>317.544</ele>
        <time>2019-09-20T09:59:30.001Z</time>
      </trkpt>
      <trkpt lat="49.94171" lon="4.43495">
        <ele>318.211</ele>
        <time>2019-09-20T10:00:00.000Z</time>
      </trkpt>
      <trkpt lat="49.9406" lon="4.43406">
        <ele>324.658</ele>
        <time>2019-09-20T10:00:30.001Z</time>
      </trkpt>
      <trkpt lat="49.93993" lon="4.43335">
        <ele>323.945</ele>
        <time>2019-09-20T10:01:00.000Z</time>
      </trkpt>
      <trkpt lat="49.93954" lon="4.43242">
        <ele>328.295</ele>
        <time>2019-09-20T10:01:30.001Z</time>
      </trkpt>
      <trkpt lat="49.93904" lon="4.43168">
        <ele>331.623</ele>
        <time>2019-09-20T10:02:00.000Z</time>
      </trkpt>
      <trkpt lat="49.93841" lon="4.43105">
        <ele>335.294</ele>
        <time>2019-09-20T10:02:30.001Z</time>
      </trkpt>
      <trkpt lat="49.93789" lon="4.43052">
        <ele>341.657</ele>
        <time>2019-09-20T10:03:00.000Z</time>
      </trkpt>
      <trkpt lat="49.93725" lon="4.4299">
        <ele>345.661</ele>
        <time>2019-09-20T10:03:30.001Z</time>
      </trkpt>
      <trkpt lat="49.93647" lon="4.42945">
        <ele>344.274</ele>
        <time>2019-09-20T10:04:00.000Z</time>
      </trkpt>
      <trkpt lat="49.93557" lon="4.42915">
        <ele>346.066</ele>
        <time>2019-09-20T10:04:30.001Z</time>
      </trkpt>
      <trkpt lat="49.93446" lon="4.4291">
        <ele>340.316</ele>
        <time>2019-09-20T10:05:00.000Z</time>
      </trkpt>
      <trkpt lat="49.93361" lon="4.43038">
        <ele>344.973</ele>
        <time>2019-09-20T10:05:30.001Z</time>
      </trkpt>
      <trkpt lat="49.93273" lon="4.43104">
        <ele>342.339</ele>
        <time>2019-09-20T10:06:00.000Z</time>
      </trkpt>
      <trkpt lat="49.9323" lon="4.43226">
        <ele>344.759</ele>
        <time>2019-09-20T10:06:30.001Z</time>
      </trkpt>
      <trkpt lat="49.93203" lon="4.43372">
        <ele>345.363</ele>
        <time>2019-09-20T10:07:00.000Z</time>
      </trkpt>
      <trkpt lat="49.93169" lon="4.43553">
        <ele>344.905</ele>
        <time>2019-09-20T10:07:30.001Z</time>
      </trkpt>
      <trkpt lat="49.9313" lon="4.43775">
        <ele>344.258</ele>
        <time>2019-09-20T10:08:00.000Z</time>
      </trkpt>
      <trkpt lat="49.93094" lon="4.43969">
        <ele>341.722</ele>
        <time>2019-09-20T10:08:30.001Z</time>
      </trkpt>
      <trkpt lat="49.93063" lon="4.44127">
        <ele>344.569</ele>
        <time>2019-09-20T10:09:00.000Z</time>
      </trkpt>
      <trkpt lat="49.93034" lon="4.44297">
        <ele>345.183</ele>
        <time>2019-09-20T10:09:30.001Z</time>
      </trkpt>
      <trkpt lat="49.92994" lon="4.44498">
        <ele>343.967</ele>
        <time>2019-09-20T10:10:00.000Z</time>
      </trkpt>
      <trkpt lat="49.92931" lon="4.44676">
        <ele>344.718</ele>
        <time>2019-09-20T10:10:30.001Z</time>
      </trkpt>
      <trkpt lat="49.92865" lon="4.44821">
        <ele>348.171</ele>
        <time>2019-09-20T10:11:00.000Z</time>
      </trkpt>
      <trkpt lat="49.92795" lon="4.44964">
        <ele>345.209</ele>
        <time>2019-09-20T10:11:30.001Z</time>
      </trkpt>
      <trkpt lat="49.92692" lon="4.45181">
        <ele>340.183</ele>
        <time>2019-09-20T10:12:00.000Z</time>
      </trkpt>
      <trkpt lat="49.92626" lon="4.45328">
        <ele>348.607</ele>
        <time>2019-09-20T10:12:30.001Z</time>
      </trkpt>
      <trkpt lat="49.92553" lon="4.45483">
        <ele>350.505</ele>
        <time>2019-09-20T10:13:00.000Z</time>
      </trkpt>
      <trkpt lat="49.92495" lon="4.45672">
        <ele>349.659</ele>
        <time>2019-09-20T10:13:30.001Z</time>
      </trkpt>
      <trkpt lat="49.92488" lon="4.45822">
        <ele>348.718</ele>
        <time>2019-09-20T10:14:00.000Z</time>
      </trkpt>
      <trkpt lat="49.92482" lon="4.45937">
        <ele>350.25</ele>
        <time>2019-09-20T10:14:30.001Z</time>
      </trkpt>
      <trkpt lat="49.9249" lon="4.46043">
        <ele>352.853</ele>
        <time>2019-09-20T10:15:00.000Z</time>
      </trkpt>
      <trkpt lat="49.92487" lon="4.46165">
        <ele>354.88</ele>
        <time>2019-09-20T10:15:30.001Z</time>
      </trkpt>
      <trkpt lat="49.9248" lon="4.46332">
        <ele>356.187</ele>
        <time>2019-09-20T10:16:00.000Z</time>
      </trkpt>
      <trkpt lat="49.92487" lon="4.46531">
        <ele>353.625</ele>
        <time>2019-09-20T10:16:30.001Z</time>
      </trkpt>
      <trkpt lat="49.92462" lon="4.46812">
        <ele>347.896</ele>
        <time>2019-09-20T10:17:00.000Z</time>
      </trkpt>
      <trkpt lat="49.92379" lon="4.47094">
        <ele>345.016</ele>
        <time>2019-09-20T10:17:30.001Z</time>
      </trkpt>
      <trkpt lat="49.92327" lon="4.47227">
        <ele>349.223</ele>
        <time>2019-09-20T10:18:00.000Z</time>
      </trkpt>
      <trkpt lat="49.9229" lon="4.47359">
        <ele>355.343</ele>
        <time>2019-09-20T10:18:30.001Z</time>
      </trkpt>
      <trkpt lat="49.92248" lon="4.47488">
        <ele>359.573</ele>
        <time>2019-09-20T10:19:00.000Z</time>
      </trkpt>
      <trkpt lat="49.92201" lon="4.47613">
        <ele>359.071</ele>
        <time>2019-09-20T10:19:30.001Z</time>
      </trkpt>
      <trkpt lat="49.92153" lon="4.47799">
        <ele>359.529</ele>
        <time>2019-09-20T10:20:00.000Z</time>
      </trkpt>
      <trkpt lat="49.92109" lon="4.48091">
        <ele>354.102</ele>
        <time>2019-09-20T10:20:30.001Z</time>
      </trkpt>
      <trkpt lat="49.92131" lon="4.48289">
        <ele>355.531</ele>
        <time>2019-09-20T10:21:00.000Z</time>
      </trkpt>
      <trkpt lat="49.92143" lon="4.4846">
        <ele>355.045</ele>
        <time>2019-09-20T10:21:30.001Z</time>
      </trkpt>
      <trkpt lat="49.92133" lon="4.48629">
        <ele>355.745</ele>
        <time>2019-09-20T10:22:00.000Z</time>
      </trkpt>
      <trkpt lat="49.92079" lon="4.4883">
        <ele>356.789</ele>
        <time>2019-09-20T10:22:30.001Z</time>
      </trkpt>
      <trkpt lat="49.91982" lon="4.48998">
        <ele>359.364</ele>
        <time>2019-09-20T10:23:00.000Z</time>
      </trkpt>
      <trkpt lat="49.92039" lon="4.49157">
        <ele>352.954</ele>
        <time>2019-09-20T10:23:30.001Z</time>
      </trkpt>
      <trkpt lat="49.9208" lon="4.49271">
        <ele>354.281</ele>
        <time>2019-09-20T10:24:00.000Z</time>
      </trkpt>
      <trkpt lat="49.9212" lon="4.4938">
        <ele>357.502</ele>
        <time>2019-09-20T10:24:30.001Z</time>
      </trkpt>
      <trkpt lat="49.92161" lon="4.49486">
        <ele>363.607</ele>
        <time>2019-09-20T10:25:00.000Z</time>
      </trkpt>
      <trkpt lat="49.9219" lon="4.496">
        <ele>364.587</ele>
        <time>2019-09-20T10:25:30.001Z</time>
      </trkpt>
      <trkpt lat="49.92221" lon="4.49711">
        <ele>365.688</ele>
        <time>2019-09-20T10:26:00.000Z</time>
      </trkpt>
      <trkpt lat="49.92256" lon="4.49843">
        <ele>371.688</ele>
        <time>2019-09-20T10:26:30.001Z</time>
      </trkpt>
      <trkpt lat="49.92286" lon="4.49971">
        <ele>370.76</ele>
        <time>2019-09-20T10:27:00.000Z</time>
      </trkpt>
      <trkpt lat="49.92303" lon="4.50113">
        <ele>372.292</ele>
        <time>2019-09-20T10:27:30.001Z</time>
      </trkpt>
      <trkpt lat="49.92283" lon="4.50271">
        <ele>373.925</ele>
        <time>2019-09-20T10:28:00.000Z</time>
      </trkpt>
      <trkpt lat="49.92261" lon="4.50433">
        <ele>375.078</ele>
        <time>2019-09-20T10:28:30.001Z</time>
      </trkpt>
      <trkpt lat="49.9224" lon="4.50596">
        <ele>381.038</ele>
        <time>2019-09-20T10:29:00.000Z</time>
      </trkpt>
      <trkpt lat="49.9221" lon="4.50762">
        <ele>383.429</ele>
        <time>2019-09-20T10:29:30.001Z</time>
      </trkpt>
      <trkpt lat="49.92168" lon="4.50903">
        <ele>383.244</ele>
        <time>2019-09-20T10:30:00.000Z</time>
      </trkpt>
      <trkpt lat="49.92153" lon="4.51056">
        <ele>383.601</ele>
        <time>2019-09-20T10:30:30.001Z</time>
      </trkpt>
      <trkpt lat="49.92141" lon="4.51223">
        <ele>381.903</ele>
        <time>2019-09-20T10:31:00.000Z</time>
      </trkpt>
      <trkpt lat="49.92143" lon="4.51383">
        <ele>378.797</ele>
        <time>2019-09-20T10:31:30.001Z</time>
      </trkpt>
      <trkpt lat="49.92167" lon="4.51541">
        <ele>383.499</ele>
        <time>2019-09-20T10:32:00.000Z</time>
      </trkpt>
      <trkpt lat="49.92222" lon="4.51686">
        <ele>384.568</ele>
        <time>2019-09-20T10:32:30.001Z</time>
      </trkpt>
      <trkpt lat="49.92289" lon="4.5181">
        <ele>384.706</ele>
        <time>2019-09-20T10:33:00.000Z</time>
      </trkpt>
      <trkpt lat="49.92407" lon="4.51911">
        <ele>382.171</ele>
        <time>2019-09-20T10:33:30.001Z</time>
      </trkpt>
      <trkpt lat="49.92473" lon="4.52011">
        <ele>390.185</ele>
        <time>2019-09-20T10:34:00.000Z</time>
      </trkpt>
      <trkpt lat="49.92525" lon="4.52052">
        <ele>390.619</ele>
        <time>2019-09-20T10:34:30.001Z</time>
      </trkpt>
      <trkpt lat="49.92524" lon="4.52049">
        <ele>389.725</ele>
        <time>2019-09-20T11:05:57.001Z</time>
      </trkpt>
      <trkpt lat="49.92526" lon="4.52063">
        <ele>389.396</ele>
        <time>2019-09-20T11:14:36.001Z</time>
      </trkpt>
      <trkpt lat="49.92533" lon="4.52054">
        <ele>388.981</ele>
        <time>2019-09-20T11:16:27.001Z</time>
      </trkpt>
      <trkpt lat="49.92525" lon="4.52053">
        <ele>397.377</ele>
        <time>2019-09-20T11:23:15.001Z</time>
      </trkpt>
      <trkpt lat="49.92513" lon="4.52035">
        <ele>399.16</ele>
        <time>2019-09-20T11:26:00.000Z</time>
      </trkpt>
      <trkpt lat="49.9245" lon="4.51969">
        <ele>393.342</ele>
        <time>2019-09-20T11:26:30.001Z</time>
      </trkpt>
      <trkpt lat="49.92363" lon="4.51847">
        <ele>384.785</ele>
        <time>2019-09-20T11:27:00.000Z</time>
      </trkpt>
      <trkpt lat="49.92298" lon="4.51808">
        <ele>382.469</ele>
        <time>2019-09-20T11:28:51.001Z</time>
      </trkpt>
      <trkpt lat="49.9224" lon="4.51794">
        <ele>385.333</ele>
        <time>2019-09-20T11:29:24.001Z</time>
      </trkpt>
      <trkpt lat="49.92146" lon="4.51901">
        <ele>387.463</ele>
        <time>2019-09-20T11:29:54.001Z</time>
      </trkpt>
      <trkpt lat="49.92044" lon="4.52011">
        <ele>382.778</ele>
        <time>2019-09-20T11:30:24.001Z</time>
      </trkpt>
      <trkpt lat="49.92034" lon="4.52191">
        <ele>382.494</ele>
        <time>2019-09-20T11:30:54.001Z</time>
      </trkpt>
      <trkpt lat="49.91939" lon="4.52331">
        <ele>380.16</ele>
        <time>2019-09-20T11:31:24.001Z</time>
      </trkpt>
      <trkpt lat="49.91845" lon="4.52477">
        <ele>382.125</ele>
        <time>2019-09-20T11:31:54.001Z</time>
      </trkpt>
      <trkpt lat="49.91736" lon="4.52673">
        <ele>385.235</ele>
        <time>2019-09-20T11:32:24.001Z</time>
      </trkpt>
      <trkpt lat="49.91577" lon="4.52915">
        <ele>375.699</ele>
        <time>2019-09-20T11:32:54.001Z</time>
      </trkpt>
      <trkpt lat="49.91337" lon="4.52959">
        <ele>368.477</ele>
        <time>2019-09-20T11:33:24.001Z</time>
      </trkpt>
      <trkpt lat="49.91178" lon="4.52899">
        <ele>367.581</ele>
        <time>2019-09-20T11:33:54.001Z</time>
      </trkpt>
      <trkpt lat="49.91046" lon="4.52925">
        <ele>370.109</ele>
        <time>2019-09-20T11:34:24.001Z</time>
      </trkpt>
      <trkpt lat="49.90839" lon="4.52976">
        <ele>365.612</ele>
        <time>2019-09-20T11:34:54.001Z</time>
      </trkpt>
      <trkpt lat="49.90641" lon="4.53097">
        <ele>359.83</ele>
        <time>2019-09-20T11:35:24.001Z</time>
      </trkpt>
      <trkpt lat="49.90416" lon="4.53232">
        <ele>348.647</ele>
        <time>2019-09-20T11:35:54.001Z</time>
      </trkpt>
      <trkpt lat="49.90131" lon="4.5337">
        <ele>338.801</ele>
        <time>2019-09-20T11:36:24.001Z</time>
      </trkpt>
      <trkpt lat="49.8998" lon="4.53543">
        <ele>337.99</ele>
        <time>2019-09-20T11:36:54.001Z</time>
      </trkpt>
      <trkpt lat="49.89911" lon="4.53602">
        <ele>343.419</ele>
        <time>2019-09-20T11:37:24.001Z</time>
      </trkpt>
      <trkpt lat="49.89853" lon="4.5365">
        <ele>351.906</ele>
        <time>2019-09-20T11:37:54.001Z</time>
      </trkpt>
      <trkpt lat="49.89795" lon="4.53694">
        <ele>356.274</ele>
        <time>2019-09-20T11:38:24.001Z</time>
      </trkpt>
      <trkpt lat="49.89736" lon="4.53729">
        <ele>357.48</ele>
        <time>2019-09-20T11:38:54.001Z</time>
      </trkpt>
      <trkpt lat="49.89678" lon="4.5375">
        <ele>359.154</ele>
        <time>2019-09-20T11:39:24.001Z</time>
      </trkpt>
      <trkpt lat="49.89618" lon="4.53758">
        <ele>364.276</ele>
        <time>2019-09-20T11:39:57.001Z</time>
      </trkpt>
      <trkpt lat="49.89566" lon="4.5376">
        <ele>371.351</ele>
        <time>2019-09-20T11:40:27.001Z</time>
      </trkpt>
      <trkpt lat="49.89499" lon="4.53762">
        <ele>376.062</ele>
        <time>2019-09-20T11:40:57.001Z</time>
      </trkpt>
      <trkpt lat="49.89416" lon="4.53763">
        <ele>379.514</ele>
        <time>2019-09-20T11:41:27.001Z</time>
      </trkpt>
      <trkpt lat="49.89329" lon="4.538">
        <ele>376.61</ele>
        <time>2019-09-20T11:41:57.001Z</time>
      </trkpt>
      <trkpt lat="49.89247" lon="4.53964">
        <ele>373.426</ele>
        <time>2019-09-20T11:42:27.001Z</time>
      </trkpt>
      <trkpt lat="49.8908" lon="4.53915">
        <ele>371.645</ele>
        <time>2019-09-20T11:42:57.001Z</time>
      </trkpt>
      <trkpt lat="49.88927" lon="4.54022">
        <ele>361.013</ele>
        <time>2019-09-20T11:43:27.001Z</time>
      </trkpt>
      <trkpt lat="49.8885" lon="4.54026">
        <ele>366.077</ele>
        <time>2019-09-20T11:43:57.001Z</time>
      </trkpt>
      <trkpt lat="49.88775" lon="4.54054">
        <ele>366.814</ele>
        <time>2019-09-20T11:44:27.001Z</time>
      </trkpt>
      <trkpt lat="49.88685" lon="4.54108">
        <ele>368.021</ele>
        <time>2019-09-20T11:44:57.001Z</time>
      </trkpt>
      <trkpt lat="49.88587" lon="4.54155">
        <ele>371.911</ele>
        <time>2019-09-20T11:45:27.001Z</time>
      </trkpt>
      <trkpt lat="49.88371" lon="4.5421">
        <ele>362.194</ele>
        <time>2019-09-20T11:45:57.001Z</time>
      </trkpt>
      <trkpt lat="49.88077" lon="4.54048">
        <ele>349.185</ele>
        <time>2019-09-20T11:46:27.001Z</time>
      </trkpt>
      <trkpt lat="49.87859" lon="4.54084">
        <ele>342.166</ele>
        <time>2019-09-20T11:46:57.001Z</time>
      </trkpt>
      <trkpt lat="49.87673" lon="4.54114">
        <ele>341.838</ele>
        <time>2019-09-20T11:47:27.001Z</time>
      </trkpt>
      <trkpt lat="49.87575" lon="4.54131">
        <ele>350.985</ele>
        <time>2019-09-20T11:47:57.001Z</time>
      </trkpt>
      <trkpt lat="49.8749" lon="4.54144">
        <ele>355.167</ele>
        <time>2019-09-20T11:48:27.001Z</time>
      </trkpt>
      <trkpt lat="49.87417" lon="4.54158">
        <ele>362.742</ele>
        <time>2019-09-20T11:48:57.001Z</time>
      </trkpt>
      <trkpt lat="49.87343" lon="4.54171">
        <ele>372.089</ele>
        <time>2019-09-20T11:49:27.001Z</time>
      </trkpt>
      <trkpt lat="49.87256" lon="4.5418">
        <ele>374.892</ele>
        <time>2019-09-20T11:49:57.001Z</time>
      </trkpt>
      <trkpt lat="49.87063" lon="4.54213">
        <ele>374.178</ele>
        <time>2019-09-20T11:50:27.001Z</time>
      </trkpt>
      <trkpt lat="49.86741" lon="4.54264">
        <ele>349.372</ele>
        <time>2019-09-20T11:50:57.001Z</time>
      </trkpt>
      <trkpt lat="49.86414" lon="4.5431">
        <ele>324.251</ele>
        <time>2019-09-20T11:51:27.001Z</time>
      </trkpt>
      <trkpt lat="49.86234" lon="4.54385">
        <ele>323.879</ele>
        <time>2019-09-20T11:51:57.001Z</time>
      </trkpt>
      <trkpt lat="49.86192" lon="4.54486">
        <ele>332.973</ele>
        <time>2019-09-20T11:52:27.001Z</time>
      </trkpt>
      <trkpt lat="49.86144" lon="4.54554">
        <ele>349.965</ele>
        <time>2019-09-20T11:52:57.001Z</time>
      </trkpt>
      <trkpt lat="49.8608" lon="4.54594">
        <ele>359.369</ele>
        <time>2019-09-20T11:53:27.001Z</time>
      </trkpt>
      <trkpt lat="49.86005" lon="4.5462">
        <ele>358.471</ele>
        <time>2019-09-20T11:53:57.001Z</time>
      </trkpt>
      <trkpt lat="49.85816" lon="4.54621">
        <ele>340.112</ele>
        <time>2019-09-20T11:54:27.001Z</time>
      </trkpt>
      <trkpt lat="49.85646" lon="4.55073">
        <ele>315.296</ele>
        <time>2019-09-20T11:54:57.001Z</time>
      </trkpt>
      <trkpt lat="49.8548" lon="4.55621">
        <ele>282.567</ele>
        <time>2019-09-20T11:55:27.001Z</time>
      </trkpt>
      <trkpt lat="49.85143" lon="4.55731">
        <ele>259.01</ele>
        <time>2019-09-20T11:55:57.001Z</time>
      </trkpt>
      <trkpt lat="49.85033" lon="4.55762">
        <ele>268.84</ele>
        <time>2019-09-20T11:56:27.001Z</time>
      </trkpt>
      <trkpt lat="49.85" lon="4.55877">
        <ele>274.202</ele>
        <time>2019-09-20T11:56:57.001Z</time>
      </trkpt>
      <trkpt lat="49.84972" lon="4.55994">
        <ele>279.325</ele>
        <time>2019-09-20T11:57:27.001Z</time>
      </trkpt>
      <trkpt lat="49.84951" lon="4.56111">
        <ele>281.682</ele>
        <time>2019-09-20T11:57:57.001Z</time>
      </trkpt>
      <trkpt lat="49.84931" lon="4.56229">
        <ele>284.83</ele>
        <time>2019-09-20T11:58:27.001Z</time>
      </trkpt>
      <trkpt lat="49.84905" lon="4.56349">
        <ele>285.321</ele>
        <time>2019-09-20T11:58:57.001Z</time>
      </trkpt>
      <trkpt lat="49.84865" lon="4.56462">
        <ele>289.827</ele>
        <time>2019-09-20T11:59:27.001Z</time>
      </trkpt>
      <trkpt lat="49.84776" lon="4.56592">
        <ele>303.198</ele>
        <time>2019-09-20T11:59:57.001Z</time>
      </trkpt>
      <trkpt lat="49.84641" lon="4.56824">
        <ele>281.536</ele>
        <time>2019-09-20T12:00:27.001Z</time>
      </trkpt>
      <trkpt lat="49.84536" lon="4.57049">
        <ele>274.343</ele>
        <time>2019-09-20T12:00:57.001Z</time>
      </trkpt>
      <trkpt lat="49.84436" lon="4.57312">
        <ele>268.986</ele>
        <time>2019-09-20T12:01:27.001Z</time>
      </trkpt>
      <trkpt lat="49.84406" lon="4.57505">
        <ele>273.244</ele>
        <time>2019-09-20T12:01:57.001Z</time>
      </trkpt>
      <trkpt lat="49.84394" lon="4.57719">
        <ele>278.622</ele>
        <time>2019-09-20T12:02:27.001Z</time>
      </trkpt>
      <trkpt lat="49.84351" lon="4.57929">
        <ele>279.677</ele>
        <time>2019-09-20T12:02:57.001Z</time>
      </trkpt>
      <trkpt lat="49.84311" lon="4.58177">
        <ele>275.353</ele>
        <time>2019-09-20T12:03:27.001Z</time>
      </trkpt>
      <trkpt lat="49.8428" lon="4.58423">
        <ele>280.267</ele>
        <time>2019-09-20T12:03:57.001Z</time>
      </trkpt>
      <trkpt lat="49.84262" lon="4.5861">
        <ele>273.82</ele>
        <time>2019-09-20T12:04:27.001Z</time>
      </trkpt>
      <trkpt lat="49.84263" lon="4.58738">
        <ele>276.987</ele>
        <time>2019-09-20T12:04:57.001Z</time>
      </trkpt>
      <trkpt lat="49.84262" lon="4.5886">
        <ele>279.26</ele>
        <time>2019-09-20T12:05:27.001Z</time>
      </trkpt>
      <trkpt lat="49.84274" lon="4.5898">
        <ele>281.963</ele>
        <time>2019-09-20T12:05:57.001Z</time>
      </trkpt>
      <trkpt lat="49.84291" lon="4.59103">
        <ele>283.844</ele>
        <time>2019-09-20T12:06:27.001Z</time>
      </trkpt>
      <trkpt lat="49.84278" lon="4.59217">
        <ele>286.893</ele>
        <time>2019-09-20T12:06:57.001Z</time>
      </trkpt>
      <trkpt lat="49.84213" lon="4.59413">
        <ele>285.781</ele>
        <time>2019-09-20T12:07:27.001Z</time>
      </trkpt>
      <trkpt lat="49.84157" lon="4.59678">
        <ele>282.615</ele>
        <time>2019-09-20T12:07:57.001Z</time>
      </trkpt>
      <trkpt lat="49.8416" lon="4.60055">
        <ele>270.204</ele>
        <time>2019-09-20T12:08:27.001Z</time>
      </trkpt>
      <trkpt lat="49.84042" lon="4.60194">
        <ele>271.35</ele>
        <time>2019-09-20T12:08:57.001Z</time>
      </trkpt>
      <trkpt lat="49.83969" lon="4.60221">
        <ele>282.092</ele>
        <time>2019-09-20T12:09:27.001Z</time>
      </trkpt>
      <trkpt lat="49.83892" lon="4.60256">
        <ele>289.745</ele>
        <time>2019-09-20T12:09:57.001Z</time>
      </trkpt>
      <trkpt lat="49.83765" lon="4.60334">
        <ele>283.969</ele>
        <time>2019-09-20T12:10:27.001Z</time>
      </trkpt>
      <trkpt lat="49.8362" lon="4.60378">
        <ele>279.402</ele>
        <time>2019-09-20T12:10:57.001Z</time>
      </trkpt>
      <trkpt lat="49.83553" lon="4.60495">
        <ele>278.39</ele>
        <time>2019-09-20T12:11:27.001Z</time>
      </trkpt>
      <trkpt lat="49.83537" lon="4.60642">
        <ele>281.017</ele>
        <time>2019-09-20T12:11:57.001Z</time>
      </trkpt>
      <trkpt lat="49.83519" lon="4.60781">
        <ele>283.362</ele>
        <time>2019-09-20T12:12:27.001Z</time>
      </trkpt>
      <trkpt lat="49.83511" lon="4.6104">
        <ele>278.065</ele>
        <time>2019-09-20T12:12:57.001Z</time>
      </trkpt>
      <trkpt lat="49.83466" lon="4.61298">
        <ele>270.086</ele>
        <time>2019-09-20T12:13:27.001Z</time>
      </trkpt>
      <trkpt lat="49.83402" lon="4.61617">
        <ele>264.86</ele>
        <time>2019-09-20T12:13:57.001Z</time>
      </trkpt>
      <trkpt lat="49.83337" lon="4.61911">
        <ele>257.948</ele>
        <time>2019-09-20T12:14:27.001Z</time>
      </trkpt>
      <trkpt lat="49.83301" lon="4.62178">
        <ele>254.677</ele>
        <time>2019-09-20T12:14:57.001Z</time>
      </trkpt>
      <trkpt lat="49.83292" lon="4.62355">
        <ele>258.869</ele>
        <time>2019-09-20T12:15:27.001Z</time>
      </trkpt>
      <trkpt lat="49.83363" lon="4.6255">
        <ele>261.292</ele>
        <time>2019-09-20T12:15:57.001Z</time>
      </trkpt>
      <trkpt lat="49.83286" lon="4.62655">
        <ele>263.868</ele>
        <time>2019-09-20T12:16:27.001Z</time>
      </trkpt>
      <trkpt lat="49.83179" lon="4.6286">
        <ele>258.973</ele>
        <time>2019-09-20T12:16:57.001Z</time>
      </trkpt>
      <trkpt lat="49.83051" lon="4.62879">
        <ele>261.852</ele>
        <time>2019-09-20T12:17:27.001Z</time>
      </trkpt>
      <trkpt lat="49.83047" lon="4.62831">
        <ele>255.061</ele>
        <time>2019-09-20T12:18:03.001Z</time>
      </trkpt>
      <trkpt lat="49.83044" lon="4.62874">
        <ele>255.092</ele>
        <time>2019-09-20T12:20:00.000Z</time>
      </trkpt>
      <trkpt lat="49.82951" lon="4.62885">
        <ele>258.693</ele>
        <time>2019-09-20T12:20:36.001Z</time>
      </trkpt>
      <trkpt lat="49.82913" lon="4.62983">
        <ele>258.36</ele>
        <time>2019-09-20T12:21:06.001Z</time>
      </trkpt>
      <trkpt lat="49.82875" lon="4.63089">
        <ele>257.937</ele>
        <time>2019-09-20T12:21:36.001Z</time>
      </trkpt>
      <trkpt lat="49.82851" lon="4.63292">
        <ele>254.519</ele>
        <time>2019-09-20T12:22:06.001Z</time>
      </trkpt>
      <trkpt lat="49.82829" lon="4.63546">
        <ele>254.353</ele>
        <time>2019-09-20T12:22:36.001Z</time>
      </trkpt>
      <trkpt lat="49.82804" lon="4.63736">
        <ele>253.275</ele>
        <time>2019-09-20T12:23:06.001Z</time>
      </trkpt>
      <trkpt lat="49.827" lon="4.6428">
        <ele>221.818</ele>
        <time>2019-09-20T12:23:36.001Z</time>
      </trkpt>
      <trkpt lat="49.82557" lon="4.64644">
        <ele>195.271</ele>
        <time>2019-09-20T12:24:06.001Z</time>
      </trkpt>
      <trkpt lat="49.82511" lon="4.64705">
        <ele>205.049</ele>
        <time>2019-09-20T12:24:36.001Z</time>
      </trkpt>
      <trkpt lat="49.82487" lon="4.6479">
        <ele>224.484</ele>
        <time>2019-09-20T12:25:12.001Z</time>
      </trkpt>
      <trkpt lat="49.82457" lon="4.64871">
        <ele>234.86</ele>
        <time>2019-09-20T12:25:51.001Z</time>
      </trkpt>
      <trkpt lat="49.82435" lon="4.64968">
        <ele>247.217</ele>
        <time>2019-09-20T12:26:36.001Z</time>
      </trkpt>
      <trkpt lat="49.82411" lon="4.65056">
        <ele>247.268</ele>
        <time>2019-09-20T12:27:15.001Z</time>
      </trkpt>
      <trkpt lat="49.82374" lon="4.65133">
        <ele>251.642</ele>
        <time>2019-09-20T12:27:51.001Z</time>
      </trkpt>
      <trkpt lat="49.8236" lon="4.65224">
        <ele>254.683</ele>
        <time>2019-09-20T12:28:21.001Z</time>
      </trkpt>
      <trkpt lat="49.82362" lon="4.65338">
        <ele>259.106</ele>
        <time>2019-09-20T12:28:51.001Z</time>
      </trkpt>
      <trkpt lat="49.82334" lon="4.65431">
        <ele>259.69</ele>
        <time>2019-09-20T12:29:21.001Z</time>
      </trkpt>
      <trkpt lat="49.8229" lon="4.65501">
        <ele>265.053</ele>
        <time>2019-09-20T12:29:51.001Z</time>
      </trkpt>
      <trkpt lat="49.82245" lon="4.6558">
        <ele>264.281</ele>
        <time>2019-09-20T12:30:21.001Z</time>
      </trkpt>
      <trkpt lat="49.82216" lon="4.65675">
        <ele>264.767</ele>
        <time>2019-09-20T12:30:51.001Z</time>
      </trkpt>
      <trkpt lat="49.82186" lon="4.65784">
        <ele>267.852</ele>
        <time>2019-09-20T12:31:21.001Z</time>
      </trkpt>
      <trkpt lat="49.82148" lon="4.65923">
        <ele>269.605</ele>
        <time>2019-09-20T12:31:51.001Z</time>
      </trkpt>
      <trkpt lat="49.82104" lon="4.66083">
        <ele>268.396</ele>
        <time>2019-09-20T12:32:21.001Z</time>
      </trkpt>
      <trkpt lat="49.82075" lon="4.66254">
        <ele>269.567</ele>
        <time>2019-09-20T12:32:51.001Z</time>
      </trkpt>
      <trkpt lat="49.82056" lon="4.66379">
        <ele>274.155</ele>
        <time>2019-09-20T12:33:21.001Z</time>
      </trkpt>
      <trkpt lat="49.81966" lon="4.66583">
        <ele>268.851</ele>
        <time>2019-09-20T12:33:51.001Z</time>
      </trkpt>
      <trkpt lat="49.81835" lon="4.6669">
        <ele>262.293</ele>
        <time>2019-09-20T12:34:21.001Z</time>
      </trkpt>
      <trkpt lat="49.8162" lon="4.66798">
        <ele>247.55</ele>
        <time>2019-09-20T12:34:51.001Z</time>
      </trkpt>
      <trkpt lat="49.81451" lon="4.66761">
        <ele>243.057</ele>
        <time>2019-09-20T12:35:21.001Z</time>
      </trkpt>
      <trkpt lat="49.81358" lon="4.66801">
        <ele>248.976</ele>
        <time>2019-09-20T12:35:51.001Z</time>
      </trkpt>
      <trkpt lat="49.8118" lon="4.66918">
        <ele>234.466</ele>
        <time>2019-09-20T12:36:21.001Z</time>
      </trkpt>
      <trkpt lat="49.80982" lon="4.67018">
        <ele>212.255</ele>
        <time>2019-09-20T12:36:51.001Z</time>
      </trkpt>
      <trkpt lat="49.80892" lon="4.67001">
        <ele>217.374</ele>
        <time>2019-09-20T12:37:21.001Z</time>
      </trkpt>
      <trkpt lat="49.80827" lon="4.66964">
        <ele>228.904</ele>
        <time>2019-09-20T12:37:54.001Z</time>
      </trkpt>
      <trkpt lat="49.80755" lon="4.66921">
        <ele>235.85</ele>
        <time>2019-09-20T12:38:24.001Z</time>
      </trkpt>
      <trkpt lat="49.80677" lon="4.66893">
        <ele>229.454</ele>
        <time>2019-09-20T12:38:54.001Z</time>
      </trkpt>
      <trkpt lat="49.80451" lon="4.66918">
        <ele>216.713</ele>
        <time>2019-09-20T12:39:24.001Z</time>
      </trkpt>
      <trkpt lat="49.80325" lon="4.66894">
        <ele>218.704</ele>
        <time>2019-09-20T12:39:54.001Z</time>
      </trkpt>
      <trkpt lat="49.80224" lon="4.66963">
        <ele>218.002</ele>
        <time>2019-09-20T12:40:24.001Z</time>
      </trkpt>
      <trkpt lat="49.80085" lon="4.67034">
        <ele>216.441</ele>
        <time>2019-09-20T12:40:54.001Z</time>
      </trkpt>
      <trkpt lat="49.79887" lon="4.67021">
        <ele>214.992</ele>
        <time>2019-09-20T12:41:24.001Z</time>
      </trkpt>
      <trkpt lat="49.79643" lon="4.66976">
        <ele>201.821</ele>
        <time>2019-09-20T12:41:54.001Z</time>
      </trkpt>
      <trkpt lat="49.79636" lon="4.66973">
        <ele>201.017</ele>
        <time>2019-09-20T12:43:15.001Z</time>
      </trkpt>
      <trkpt lat="49.79572" lon="4.66982">
        <ele>201.828</ele>
        <time>2019-09-20T12:43:54.001Z</time>
      </trkpt>
      <trkpt lat="49.79459" lon="4.67094">
        <ele>200.348</ele>
        <time>2019-09-20T12:44:24.001Z</time>
      </trkpt>
      <trkpt lat="49.7932" lon="4.67277">
        <ele>195.571</ele>
        <time>2019-09-20T12:44:54.001Z</time>
      </trkpt>
      <trkpt lat="49.79214" lon="4.67413">
        <ele>197.613</ele>
        <time>2019-09-20T12:45:24.001Z</time>
      </trkpt>
      <trkpt lat="49.79048" lon="4.67486">
        <ele>194.967</ele>
        <time>2019-09-20T12:45:54.001Z</time>
      </trkpt>
      <trkpt lat="49.78902" lon="4.67472">
        <ele>196.416</ele>
        <time>2019-09-20T12:46:24.001Z</time>
      </trkpt>
      <trkpt lat="49.78703" lon="4.67674">
        <ele>190.398</ele>
        <time>2019-09-20T12:46:54.001Z</time>
      </trkpt>
      <trkpt lat="49.78589" lon="4.67805">
        <ele>185.934</ele>
        <time>2019-09-20T12:47:24.001Z</time>
      </trkpt>
      <trkpt lat="49.7854" lon="4.67974">
        <ele>189.373</ele>
        <time>2019-09-20T12:47:54.001Z</time>
      </trkpt>
      <trkpt lat="49.78472" lon="4.68145">
        <ele>191.109</ele>
        <time>2019-09-20T12:48:24.001Z</time>
      </trkpt>
      <trkpt lat="49.78382" lon="4.68345">
        <ele>189.686</ele>
        <time>2019-09-20T12:48:54.001Z</time>
      </trkpt>
      <trkpt lat="49.78301" lon="4.68524">
        <ele>185.89</ele>
        <time>2019-09-20T12:49:24.001Z</time>
      </trkpt>
      <trkpt lat="49.7821" lon="4.68725">
        <ele>178.782</ele>
        <time>2019-09-20T12:49:54.001Z</time>
      </trkpt>
      <trkpt lat="49.78133" lon="4.68901">
        <ele>176.225</ele>
        <time>2019-09-20T12:50:24.001Z</time>
      </trkpt>
      <trkpt lat="49.7804" lon="4.69109">
        <ele>170.896</ele>
        <time>2019-09-20T12:50:54.001Z</time>
      </trkpt>
      <trkpt lat="49.77978" lon="4.69243">
        <ele>167.927</ele>
        <time>2019-09-20T12:51:27.001Z</time>
      </trkpt>
      <trkpt lat="49.77893" lon="4.69415">
        <ele>169.444</ele>
        <time>2019-09-20T12:51:57.001Z</time>
      </trkpt>
      <trkpt lat="49.77856" lon="4.69486">
        <ele>168.035</ele>
        <time>2019-09-20T12:52:39.001Z</time>
      </trkpt>
      <trkpt lat="49.77783" lon="4.69637">
        <ele>173.298</ele>
        <time>2019-09-20T12:53:09.001Z</time>
      </trkpt>
      <trkpt lat="49.77729" lon="4.6974">
        <ele>176.905</ele>
        <time>2019-09-20T12:53:39.001Z</time>
      </trkpt>
      <trkpt lat="49.77682" lon="4.69837">
        <ele>183.616</ele>
        <time>2019-09-20T12:54:09.001Z</time>
      </trkpt>
      <trkpt lat="49.77625" lon="4.69945">
        <ele>188.411</ele>
        <time>2019-09-20T12:54:39.001Z</time>
      </trkpt>
      <trkpt lat="49.77562" lon="4.70081">
        <ele>187.564</ele>
        <time>2019-09-20T12:55:09.001Z</time>
      </trkpt>
      <trkpt lat="49.77487" lon="4.70231">
        <ele>183.447</ele>
        <time>2019-09-20T12:55:39.001Z</time>
      </trkpt>
      <trkpt lat="49.77416" lon="4.70371">
        <ele>181.287</ele>
        <time>2019-09-20T12:56:09.001Z</time>
      </trkpt>
      <trkpt lat="49.77358" lon="4.70495">
        <ele>183.303</ele>
        <time>2019-09-20T12:56:39.001Z</time>
      </trkpt>
      <trkpt lat="49.77262" lon="4.70685">
        <ele>186.739</ele>
        <time>2019-09-20T12:57:09.001Z</time>
      </trkpt>
      <trkpt lat="49.77138" lon="4.70916">
        <ele>179.195</ele>
        <time>2019-09-20T12:57:39.001Z</time>
      </trkpt>
      <trkpt lat="49.77063" lon="4.71083">
        <ele>169.541</ele>
        <time>2019-09-20T12:58:09.001Z</time>
      </trkpt>
      <trkpt lat="49.76919" lon="4.70882">
        <ele>155.992</ele>
        <time>2019-09-20T12:58:39.001Z</time>
      </trkpt>
      <trkpt lat="49.76736" lon="4.70678">
        <ele>149.538</ele>
        <time>2019-09-20T12:59:09.001Z</time>
      </trkpt>
      <trkpt lat="49.76521" lon="4.70517">
        <ele>143.204</ele>
        <time>2019-09-20T12:59:39.001Z</time>
      </trkpt>
      <trkpt lat="49.76437" lon="4.70295">
        <ele>141.469</ele>
        <time>2019-09-20T13:00:09.001Z</time>
      </trkpt>
      <trkpt lat="49.76442" lon="4.70097">
        <ele>144.223</ele>
        <time>2019-09-20T13:00:39.001Z</time>
      </trkpt>
      <trkpt lat="49.76352" lon="4.70064">
        <ele>153.419</ele>
        <time>2019-09-20T13:01:09.001Z</time>
      </trkpt>
      <trkpt lat="49.76304" lon="4.70176">
        <ele>156.775</ele>
        <time>2019-09-20T13:01:39.001Z</time>
      </trkpt>
      <trkpt lat="49.76255" lon="4.70376">
        <ele>154.282</ele>
        <time>2019-09-20T13:02:09.001Z</time>
      </trkpt>
      <trkpt lat="49.76209" lon="4.70565">
        <ele>159.042</ele>
        <time>2019-09-20T13:02:39.001Z</time>
      </trkpt>
      <trkpt lat="49.76179" lon="4.70679">
        <ele>157.615</ele>
        <time>2019-09-20T13:08:42.001Z</time>
      </trkpt>
      <trkpt lat="49.76163" lon="4.70824">
        <ele>159.811</ele>
        <time>2019-09-20T13:09:12.001Z</time>
      </trkpt>
      <trkpt lat="49.7615" lon="4.70978">
        <ele>165.041</ele>
        <time>2019-09-20T13:09:42.001Z</time>
      </trkpt>
      <trkpt lat="49.76139" lon="4.71147">
        <ele>162.411</ele>
        <time>2019-09-20T13:10:12.001Z</time>
      </trkpt>
      <trkpt lat="49.76129" lon="4.71329">
        <ele>168.894</ele>
        <time>2019-09-20T13:10:42.001Z</time>
      </trkpt>
      <trkpt lat="49.76068" lon="4.71481">
        <ele>163.992</ele>
        <time>2019-09-20T13:11:12.001Z</time>
      </trkpt>
      <trkpt lat="49.75984" lon="4.71698">
        <ele>151.868</ele>
        <time>2019-09-20T13:11:42.001Z</time>
      </trkpt>
      <trkpt lat="49.7588" lon="4.71751">
        <ele>144.491</ele>
        <time>2019-09-20T13:12:12.001Z</time>
      </trkpt>
      <trkpt lat="49.75852" lon="4.71866">
        <ele>154.394</ele>
        <time>2019-09-20T13:12:42.001Z</time>
      </trkpt>
      <trkpt lat="49.75961" lon="4.71916">
        <ele>152.586</ele>
        <time>2019-09-20T13:13:12.001Z</time>
      </trkpt>
      <trkpt lat="49.75969" lon="4.72041">
        <ele>163.537</ele>
        <time>2019-09-20T13:13:42.001Z</time>
      </trkpt>
      <trkpt lat="49.75894" lon="4.72176">
        <ele>158.707</ele>
        <time>2019-09-20T13:14:12.001Z</time>
      </trkpt>
      <trkpt lat="49.75862" lon="4.72269">
        <ele>156.181</ele>
        <time>2019-09-20T13:14:45.001Z</time>
      </trkpt>
      <trkpt lat="49.75834" lon="4.72453">
        <ele>158.389</ele>
        <time>2019-09-20T13:15:15.001Z</time>
      </trkpt>
      <trkpt lat="49.75858" lon="4.72607">
        <ele>149.617</ele>
        <time>2019-09-20T13:15:45.001Z</time>
      </trkpt>
      <trkpt lat="49.7587" lon="4.72643">
        <ele>152.296</ele>
        <time>2019-09-20T13:16:51.001Z</time>
      </trkpt>
      <trkpt lat="49.75797" lon="4.7264">
        <ele>150.196</ele>
        <time>2019-09-20T13:17:21.001Z</time>
      </trkpt>
      <trkpt lat="49.75785" lon="4.72622">
        <ele>148.72</ele>
        <time>2019-09-20T13:21:57.001Z</time>
      </trkpt>
      <trkpt lat="49.75781" lon="4.72626">
        <ele>147.002</ele>
        <time>2019-09-20T13:35:21.001Z</time>
      </trkpt>
      <trkpt lat="49.75811" lon="4.7268">
        <ele>150.43</ele>
        <time>2019-09-20T13:47:09.001Z</time>
      </trkpt>
      <trkpt lat="49.75894" lon="4.72743">
        <ele>152.591</ele>
        <time>2019-09-20T13:47:39.001Z</time>
      </trkpt>
      <trkpt lat="49.75871" lon="4.72883">
        <ele>146.779</ele>
        <time>2019-09-20T13:48:09.001Z</time>
      </trkpt>
      <trkpt lat="49.75756" lon="4.72922">
        <ele>150.121</ele>
        <time>2019-09-20T13:48:39.001Z</time>
      </trkpt>
      <trkpt lat="49.75673" lon="4.73074">
        <ele>141.374</ele>
        <time>2019-09-20T13:49:09.001Z</time>
      </trkpt>
      <trkpt lat="49.75637" lon="4.73219">
        <ele>138.266</ele>
        <time>2019-09-20T13:49:39.001Z</time>
      </trkpt>
      <trkpt lat="49.75595" lon="4.73448">
        <ele>144.956</ele>
        <time>2019-09-20T13:50:09.001Z</time>
      </trkpt>
      <trkpt lat="49.75585" lon="4.73689">
        <ele>137.923</ele>
        <time>2019-09-20T13:50:39.001Z</time>
      </trkpt>
      <trkpt lat="49.7562" lon="4.73928">
        <ele>130.126</ele>
        <time>2019-09-20T13:51:09.001Z</time>
      </trkpt>
      <trkpt lat="49.75651" lon="4.74166">
        <ele>130.555</ele>
        <time>2019-09-20T13:51:39.001Z</time>
      </trkpt>
      <trkpt lat="49.75649" lon="4.74414">
        <ele>130.854</ele>
        <time>2019-09-20T13:52:09.001Z</time>
      </trkpt>
      <trkpt lat="49.75636" lon="4.74674">
        <ele>132.271</ele>
        <time>2019-09-20T13:52:39.001Z</time>
      </trkpt>
      <trkpt lat="49.7562" lon="4.74922">
        <ele>129.058</ele>
        <time>2019-09-20T13:53:09.001Z</time>
      </trkpt>
      <trkpt lat="49.75604" lon="4.75151">
        <ele>138.314</ele>
        <time>2019-09-20T13:53:39.001Z</time>
      </trkpt>
      <trkpt lat="49.75575" lon="4.75386">
        <ele>146.391</ele>
        <time>2019-09-20T13:54:09.001Z</time>
      </trkpt>
      <trkpt lat="49.75526" lon="4.75643">
        <ele>144.71</ele>
        <time>2019-09-20T13:54:39.001Z</time>
      </trkpt>
      <trkpt lat="49.75452" lon="4.75837">
        <ele>140.654</ele>
        <time>2019-09-20T13:55:09.001Z</time>
      </trkpt>
      <trkpt lat="49.75366" lon="4.7599">
        <ele>142.862</ele>
        <time>2019-09-20T13:55:39.001Z</time>
      </trkpt>
      <trkpt lat="49.75291" lon="4.76128">
        <ele>141.92</ele>
        <time>2019-09-20T13:56:09.001Z</time>
      </trkpt>
      <trkpt lat="49.75208" lon="4.76298">
        <ele>142.482</ele>
        <time>2019-09-20T13:56:39.001Z</time>
      </trkpt>
      <trkpt lat="49.75108" lon="4.76478">
        <ele>136.919</ele>
        <time>2019-09-20T13:57:09.001Z</time>
      </trkpt>
      <trkpt lat="49.75038" lon="4.76666">
        <ele>143.552</ele>
        <time>2019-09-20T13:57:39.001Z</time>
      </trkpt>
      <trkpt lat="49.74959" lon="4.76856">
        <ele>141.48</ele>
        <time>2019-09-20T13:58:09.001Z</time>
      </trkpt>
      <trkpt lat="49.74882" lon="4.77063">
        <ele>141.788</ele>
        <time>2019-09-20T13:58:39.001Z</time>
      </trkpt>
      <trkpt lat="49.74801" lon="4.77267">
        <ele>139.466</ele>
        <time>2019-09-20T13:59:09.001Z</time>
      </trkpt>
      <trkpt lat="49.74727" lon="4.77459">
        <ele>147.06</ele>
        <time>2019-09-20T13:59:39.001Z</time>
      </trkpt>
      <trkpt lat="49.74655" lon="4.77644">
        <ele>141.439</ele>
        <time>2019-09-20T14:00:09.001Z</time>
      </trkpt>
      <trkpt lat="49.74565" lon="4.77822">
        <ele>139.852</ele>
        <time>2019-09-20T14:00:39.001Z</time>
      </trkpt>
      <trkpt lat="49.74434" lon="4.77919">
        <ele>145.839</ele>
        <time>2019-09-20T14:01:09.001Z</time>
      </trkpt>
      <trkpt lat="49.74289" lon="4.77797">
        <ele>145.324</ele>
        <time>2019-09-20T14:01:39.001Z</time>
      </trkpt>
      <trkpt lat="49.74153" lon="4.77632">
        <ele>140.205</ele>
        <time>2019-09-20T14:02:09.001Z</time>
      </trkpt>
      <trkpt lat="49.74009" lon="4.77573">
        <ele>138.882</ele>
        <time>2019-09-20T14:02:39.001Z</time>
      </trkpt>
      <trkpt lat="49.73877" lon="4.77548">
        <ele>145.183</ele>
        <time>2019-09-20T14:03:09.001Z</time>
      </trkpt>
      <trkpt lat="49.73734" lon="4.77565">
        <ele>148.144</ele>
        <time>2019-09-20T14:03:39.001Z</time>
      </trkpt>
      <trkpt lat="49.73593" lon="4.77592">
        <ele>148.744</ele>
        <time>2019-09-20T14:04:09.001Z</time>
      </trkpt>
      <trkpt lat="49.73458" lon="4.7765">
        <ele>145.85</ele>
        <time>2019-09-20T14:04:39.001Z</time>
      </trkpt>
      <trkpt lat="49.73349" lon="4.77814">
        <ele>143.017</ele>
        <time>2019-09-20T14:05:09.001Z</time>
      </trkpt>
      <trkpt lat="49.73441" lon="4.77949">
        <ele>155.374</ele>
        <time>2019-09-20T14:05:39.001Z</time>
      </trkpt>
      <trkpt lat="49.73419" lon="4.78074">
        <ele>147.724</ele>
        <time>2019-09-20T14:06:09.001Z</time>
      </trkpt>
      <trkpt lat="49.73344" lon="4.78223">
        <ele>145.552</ele>
        <time>2019-09-20T14:06:39.001Z</time>
      </trkpt>
      <trkpt lat="49.73248" lon="4.78329">
        <ele>140.698</ele>
        <time>2019-09-20T14:07:09.001Z</time>
      </trkpt>
      <trkpt lat="49.73162" lon="4.78411">
        <ele>144.082</ele>
        <time>2019-09-20T14:07:39.001Z</time>
      </trkpt>
      <trkpt lat="49.73034" lon="4.78484">
        <ele>147.415</ele>
        <time>2019-09-20T14:08:09.001Z</time>
      </trkpt>
      <trkpt lat="49.72896" lon="4.78515">
        <ele>149.228</ele>
        <time>2019-09-20T14:08:39.001Z</time>
      </trkpt>
      <trkpt lat="49.72757" lon="4.78501">
        <ele>150.333</ele>
        <time>2019-09-20T14:09:09.001Z</time>
      </trkpt>
      <trkpt lat="49.72598" lon="4.78469">
        <ele>148.915</ele>
        <time>2019-09-20T14:09:39.001Z</time>
      </trkpt>
      <trkpt lat="49.72451" lon="4.78351">
        <ele>147.652</ele>
        <time>2019-09-20T14:10:09.001Z</time>
      </trkpt>
      <trkpt lat="49.72282" lon="4.78304">
        <ele>147.878</ele>
        <time>2019-09-20T14:10:39.001Z</time>
      </trkpt>
      <trkpt lat="49.72143" lon="4.78279">
        <ele>146.967</ele>
        <time>2019-09-20T14:11:09.001Z</time>
      </trkpt>
      <trkpt lat="49.72007" lon="4.78257">
        <ele>145.171</ele>
        <time>2019-09-20T14:11:39.001Z</time>
      </trkpt>
      <trkpt lat="49.7186" lon="4.78216">
        <ele>147.641</ele>
        <time>2019-09-20T14:12:09.001Z</time>
      </trkpt>
      <trkpt lat="49.71694" lon="4.78194">
        <ele>146.068</ele>
        <time>2019-09-20T14:12:39.001Z</time>
      </trkpt>
      <trkpt lat="49.71595" lon="4.78029">
        <ele>142.07</ele>
        <time>2019-09-20T14:13:09.001Z</time>
      </trkpt>
      <trkpt lat="49.71482" lon="4.77838">
        <ele>140.275</ele>
        <time>2019-09-20T14:13:39.001Z</time>
      </trkpt>
      <trkpt lat="49.71379" lon="4.77752">
        <ele>147.579</ele>
        <time>2019-09-20T14:14:09.001Z</time>
      </trkpt>
      <trkpt lat="49.71351" lon="4.77737">
        <ele>147.832</ele>
        <time>2019-09-20T14:15:12.001Z</time>
      </trkpt>
      <trkpt lat="49.7122" lon="4.7771">
        <ele>148.434</ele>
        <time>2019-09-20T14:15:42.001Z</time>
      </trkpt>
      <trkpt lat="49.71067" lon="4.77785">
        <ele>147.098</ele>
        <time>2019-09-20T14:16:12.001Z</time>
      </trkpt>
      <trkpt lat="49.70921" lon="4.77854">
        <ele>146.224</ele>
        <time>2019-09-20T14:16:42.001Z</time>
      </trkpt>
      <trkpt lat="49.70774" lon="4.77911">
        <ele>148.499</ele>
        <time>2019-09-20T14:17:12.001Z</time>
      </trkpt>
      <trkpt lat="49.70639" lon="4.78013">
        <ele>146.115</ele>
        <time>2019-09-20T14:17:42.001Z</time>
      </trkpt>
      <trkpt lat="49.7053" lon="4.7817">
        <ele>144.148</ele>
        <time>2019-09-20T14:18:12.001Z</time>
      </trkpt>
      <trkpt lat="49.70404" lon="4.78294">
        <ele>146.715</ele>
        <time>2019-09-20T14:18:42.001Z</time>
      </trkpt>
      <trkpt lat="49.70257" lon="4.78337">
        <ele>143.972</ele>
        <time>2019-09-20T14:19:12.001Z</time>
      </trkpt>
      <trkpt lat="49.70122" lon="4.78403">
        <ele>143.634</ele>
        <time>2019-09-20T14:19:42.001Z</time>
      </trkpt>
      <trkpt lat="49.70003" lon="4.78523">
        <ele>142.266</ele>
        <time>2019-09-20T14:20:12.001Z</time>
      </trkpt>
      <trkpt lat="49.69889" lon="4.78671">
        <ele>142.129</ele>
        <time>2019-09-20T14:20:42.001Z</time>
      </trkpt>
      <trkpt lat="49.6984" lon="4.78891">
        <ele>142.312</ele>
        <time>2019-09-20T14:21:12.001Z</time>
      </trkpt>
      <trkpt lat="49.69796" lon="4.79101">
        <ele>144.738</ele>
        <time>2019-09-20T14:21:42.001Z</time>
      </trkpt>
      <trkpt lat="49.6975" lon="4.79185">
        <ele>153.132</ele>
        <time>2019-09-20T14:22:12.001Z</time>
      </trkpt>
      <trkpt lat="49.69592" lon="4.79177">
        <ele>149.852</ele>
        <time>2019-09-20T14:22:42.001Z</time>
      </trkpt>
      <trkpt lat="49.69545" lon="4.79175">
        <ele>146.87</ele>
        <time>2019-09-20T14:23:12.001Z</time>
      </trkpt>
      <trkpt lat="49.69544" lon="4.79332">
        <ele>148.743</ele>
        <time>2019-09-20T14:23:42.001Z</time>
      </trkpt>
      <trkpt lat="49.6952" lon="4.79556">
        <ele>151.163</ele>
        <time>2019-09-20T14:24:12.001Z</time>
      </trkpt>
      <trkpt lat="49.69502" lon="4.79779">
        <ele>150.345</ele>
        <time>2019-09-20T14:24:42.001Z</time>
      </trkpt>
      <trkpt lat="49.69494" lon="4.79994">
        <ele>149.782</ele>
        <time>2019-09-20T14:25:12.001Z</time>
      </trkpt>
      <trkpt lat="49.69495" lon="4.80201">
        <ele>148.717</ele>
        <time>2019-09-20T14:25:42.001Z</time>
      </trkpt>
      <trkpt lat="49.6951" lon="4.80407">
        <ele>147.04</ele>
        <time>2019-09-20T14:26:12.001Z</time>
      </trkpt>
      <trkpt lat="49.69545" lon="4.80605">
        <ele>144.576</ele>
        <time>2019-09-20T14:26:42.001Z</time>
      </trkpt>
      <trkpt lat="49.69565" lon="4.80812">
        <ele>142.166</ele>
        <time>2019-09-20T14:27:12.001Z</time>
      </trkpt>
      <trkpt lat="49.69556" lon="4.80996">
        <ele>143.157</ele>
        <time>2019-09-20T14:27:42.001Z</time>
      </trkpt>
      <trkpt lat="49.69515" lon="4.81169">
        <ele>144.257</ele>
        <time>2019-09-20T14:28:12.001Z</time>
      </trkpt>
      <trkpt lat="49.69447" lon="4.8132">
        <ele>138.57</ele>
        <time>2019-09-20T14:28:42.001Z</time>
      </trkpt>
      <trkpt lat="49.69385" lon="4.81481">
        <ele>141.129</ele>
        <time>2019-09-20T14:29:12.001Z</time>
      </trkpt>
      <trkpt lat="49.69352" lon="4.81677">
        <ele>142.95</ele>
        <time>2019-09-20T14:29:42.001Z</time>
      </trkpt>
      <trkpt lat="49.69326" lon="4.81915">
        <ele>143.277</ele>
        <time>2019-09-20T14:30:12.001Z</time>
      </trkpt>
      <trkpt lat="49.69316" lon="4.82153">
        <ele>145.585</ele>
        <time>2019-09-20T14:30:42.001Z</time>
      </trkpt>
      <trkpt lat="49.69316" lon="4.8237">
        <ele>143.39</ele>
        <time>2019-09-20T14:31:12.001Z</time>
      </trkpt>
      <trkpt lat="49.69334" lon="4.82583">
        <ele>144.218</ele>
        <time>2019-09-20T14:31:42.001Z</time>
      </trkpt>
      <trkpt lat="49.69353" lon="4.82805">
        <ele>145.321</ele>
        <time>2019-09-20T14:32:12.001Z</time>
      </trkpt>
      <trkpt lat="49.69351" lon="4.8292">
        <ele>147.885</ele>
        <time>2019-09-20T14:33:48.001Z</time>
      </trkpt>
      <trkpt lat="49.69424" lon="4.83046">
        <ele>151.135</ele>
        <time>2019-09-20T14:34:24.001Z</time>
      </trkpt>
      <trkpt lat="49.69511" lon="4.83228">
        <ele>144.61</ele>
        <time>2019-09-20T14:34:54.001Z</time>
      </trkpt>
      <trkpt lat="49.69605" lon="4.83376">
        <ele>141.444</ele>
        <time>2019-09-20T14:35:24.001Z</time>
      </trkpt>
      <trkpt lat="49.69685" lon="4.83545">
        <ele>141.598</ele>
        <time>2019-09-20T14:35:54.001Z</time>
      </trkpt>
      <trkpt lat="49.69743" lon="4.83746">
        <ele>142.75</ele>
        <time>2019-09-20T14:36:24.001Z</time>
      </trkpt>
      <trkpt lat="49.69717" lon="4.83962">
        <ele>146.96</ele>
        <time>2019-09-20T14:36:54.001Z</time>
      </trkpt>
      <trkpt lat="49.69733" lon="4.84178">
        <ele>150.571</ele>
        <time>2019-09-20T14:37:24.001Z</time>
      </trkpt>
      <trkpt lat="49.69757" lon="4.84414">
        <ele>150.597</ele>
        <time>2019-09-20T14:37:54.001Z</time>
      </trkpt>
      <trkpt lat="49.69726" lon="4.84648">
        <ele>148.506</ele>
        <time>2019-09-20T14:38:24.001Z</time>
      </trkpt>
      <trkpt lat="49.69705" lon="4.84875">
        <ele>147.562</ele>
        <time>2019-09-20T14:38:54.001Z</time>
      </trkpt>
      <trkpt lat="49.69725" lon="4.85106">
        <ele>149.724</ele>
        <time>2019-09-20T14:39:24.001Z</time>
      </trkpt>
      <trkpt lat="49.69798" lon="4.85302">
        <ele>149.164</ele>
        <time>2019-09-20T14:39:54.001Z</time>
      </trkpt>
      <trkpt lat="49.69843" lon="4.85499">
        <ele>146.363</ele>
        <time>2019-09-20T14:40:24.001Z</time>
      </trkpt>
      <trkpt lat="49.69776" lon="4.85695">
        <ele>148.161</ele>
        <time>2019-09-20T14:40:54.001Z</time>
      </trkpt>
      <trkpt lat="49.69652" lon="4.85794">
        <ele>146.494</ele>
        <time>2019-09-20T14:41:24.001Z</time>
      </trkpt>
      <trkpt lat="49.69525" lon="4.85908">
        <ele>142.973</ele>
        <time>2019-09-20T14:41:54.001Z</time>
      </trkpt>
      <trkpt lat="49.69411" lon="4.86051">
        <ele>143.675</ele>
        <time>2019-09-20T14:42:24.001Z</time>
      </trkpt>
      <trkpt lat="49.69329" lon="4.86232">
        <ele>141.76</ele>
        <time>2019-09-20T14:42:54.001Z</time>
      </trkpt>
      <trkpt lat="49.69296" lon="4.86443">
        <ele>151.026</ele>
        <time>2019-09-20T14:43:24.001Z</time>
      </trkpt>
      <trkpt lat="49.69302" lon="4.86667">
        <ele>148.864</ele>
        <time>2019-09-20T14:43:54.001Z</time>
      </trkpt>
      <trkpt lat="49.69304" lon="4.8686">
        <ele>147.366</ele>
        <time>2019-09-20T14:44:24.001Z</time>
      </trkpt>
      <trkpt lat="49.69266" lon="4.87061">
        <ele>147.981</ele>
        <time>2019-09-20T14:44:54.001Z</time>
      </trkpt>
      <trkpt lat="49.69224" lon="4.87273">
        <ele>151.77</ele>
        <time>2019-09-20T14:45:24.001Z</time>
      </trkpt>
      <trkpt lat="49.69209" lon="4.8751">
        <ele>154.077</ele>
        <time>2019-09-20T14:45:54.001Z</time>
      </trkpt>
      <trkpt lat="49.69218" lon="4.87699">
        <ele>151.969</ele>
        <time>2019-09-20T14:46:24.001Z</time>
      </trkpt>
      <trkpt lat="49.6928" lon="4.87921">
        <ele>150.521</ele>
        <time>2019-09-20T14:46:54.001Z</time>
      </trkpt>
      <trkpt lat="49.69311" lon="4.8815">
        <ele>145.43</ele>
        <time>2019-09-20T14:47:24.001Z</time>
      </trkpt>
      <trkpt lat="49.69278" lon="4.88369">
        <ele>143.52</ele>
        <time>2019-09-20T14:47:54.001Z</time>
      </trkpt>
      <trkpt lat="49.69259" lon="4.88584">
        <ele>148.71</ele>
        <time>2019-09-20T14:48:24.001Z</time>
      </trkpt>
      <trkpt lat="49.69246" lon="4.88809">
        <ele>150.827</ele>
        <time>2019-09-20T14:48:54.001Z</time>
      </trkpt>
      <trkpt lat="49.69238" lon="4.89013">
        <ele>151.522</ele>
        <time>2019-09-20T14:49:24.001Z</time>
      </trkpt>
      <trkpt lat="49.69239" lon="4.89216">
        <ele>151.527</ele>
        <time>2019-09-20T14:49:54.001Z</time>
      </trkpt>
      <trkpt lat="49.69258" lon="4.89416">
        <ele>148.603</ele>
        <time>2019-09-20T14:50:24.001Z</time>
      </trkpt>
      <trkpt lat="49.69305" lon="4.89609">
        <ele>148.958</ele>
        <time>2019-09-20T14:50:54.001Z</time>
      </trkpt>
      <trkpt lat="49.69402" lon="4.89784">
        <ele>146.216</ele>
        <time>2019-09-20T14:51:24.001Z</time>
      </trkpt>
      <trkpt lat="49.69559" lon="4.89889">
        <ele>147.223</ele>
        <time>2019-09-20T14:51:54.001Z</time>
      </trkpt>
      <trkpt lat="49.69725" lon="4.89924">
        <ele>144.946</ele>
        <time>2019-09-20T14:52:24.001Z</time>
      </trkpt>
      <trkpt lat="49.69881" lon="4.89957">
        <ele>153.547</ele>
        <time>2019-09-20T14:52:54.001Z</time>
      </trkpt>
      <trkpt lat="49.70034" lon="4.89999">
        <ele>167.792</ele>
        <time>2019-09-20T14:53:24.001Z</time>
      </trkpt>
      <trkpt lat="49.7015" lon="4.89837">
        <ele>162.948</ele>
        <time>2019-09-20T14:53:54.001Z</time>
      </trkpt>
      <trkpt lat="49.7027" lon="4.89678">
        <ele>155.64</ele>
        <time>2019-09-20T14:54:24.001Z</time>
      </trkpt>
      <trkpt lat="49.70419" lon="4.89715">
        <ele>149.221</ele>
        <time>2019-09-20T14:54:54.001Z</time>
      </trkpt>
      <trkpt lat="49.70544" lon="4.89787">
        <ele>150.945</ele>
        <time>2019-09-20T14:55:24.001Z</time>
      </trkpt>
      <trkpt lat="49.70661" lon="4.8981">
        <ele>154.279</ele>
        <time>2019-09-20T14:55:54.001Z</time>
      </trkpt>
      <trkpt lat="49.70752" lon="4.89919">
        <ele>154.839</ele>
        <time>2019-09-20T14:56:24.001Z</time>
      </trkpt>
      <trkpt lat="49.70796" lon="4.90069">
        <ele>153.189</ele>
        <time>2019-09-20T14:56:54.001Z</time>
      </trkpt>
      <trkpt lat="49.7081" lon="4.90212">
        <ele>152.217</ele>
        <time>2019-09-20T14:57:24.001Z</time>
      </trkpt>
      <trkpt lat="49.70802" lon="4.90241">
        <ele>151.545</ele>
        <time>2019-09-20T14:58:24.001Z</time>
      </trkpt>
      <trkpt lat="49.70874" lon="4.90161">
        <ele>149.513</ele>
        <time>2019-09-20T14:58:57.001Z</time>
      </trkpt>
      <trkpt lat="49.7089" lon="4.90183">
        <ele>156.004</ele>
        <time>2019-09-20T14:59:27.001Z</time>
      </trkpt>
      <trkpt lat="49.70956" lon="4.90382">
        <ele>150.542</ele>
        <time>2019-09-20T14:59:57.001Z</time>
      </trkpt>
      <trkpt lat="49.71031" lon="4.90604">
        <ele>149.745</ele>
        <time>2019-09-20T15:00:27.001Z</time>
      </trkpt>
      <trkpt lat="49.71105" lon="4.90821">
        <ele>152.004</ele>
        <time>2019-09-20T15:00:57.001Z</time>
      </trkpt>
      <trkpt lat="49.71173" lon="4.91024">
        <ele>150.801</ele>
        <time>2019-09-20T15:01:27.001Z</time>
      </trkpt>
      <trkpt lat="49.7123" lon="4.91186">
        <ele>156.087</ele>
        <time>2019-09-20T15:01:57.001Z</time>
      </trkpt>
      <trkpt lat="49.71224" lon="4.91319">
        <ele>156.179</ele>
        <time>2019-09-20T15:02:27.001Z</time>
      </trkpt>
      <trkpt lat="49.71284" lon="4.91543">
        <ele>152.698</ele>
        <time>2019-09-20T15:02:57.001Z</time>
      </trkpt>
      <trkpt lat="49.71303" lon="4.91764">
        <ele>155.242</ele>
        <time>2019-09-20T15:03:27.001Z</time>
      </trkpt>
      <trkpt lat="49.71271" lon="4.92025">
        <ele>151.219</ele>
        <time>2019-09-20T15:03:57.001Z</time>
      </trkpt>
      <trkpt lat="49.71213" lon="4.92226">
        <ele>150.693</ele>
        <time>2019-09-20T15:04:27.001Z</time>
      </trkpt>
      <trkpt lat="49.71159" lon="4.92402">
        <ele>157.749</ele>
        <time>2019-09-20T15:04:57.001Z</time>
      </trkpt>
      <trkpt lat="49.71081" lon="4.92604">
        <ele>158.696</ele>
        <time>2019-09-20T15:05:27.001Z</time>
      </trkpt>
      <trkpt lat="49.71018" lon="4.92806">
        <ele>156.593</ele>
        <time>2019-09-20T15:05:57.001Z</time>
      </trkpt>
      <trkpt lat="49.70961" lon="4.93019">
        <ele>153.415</ele>
        <time>2019-09-20T15:06:27.001Z</time>
      </trkpt>
      <trkpt lat="49.70883" lon="4.93213">
        <ele>154.143</ele>
        <time>2019-09-20T15:06:57.001Z</time>
      </trkpt>
      <trkpt lat="49.70732" lon="4.93308">
        <ele>150.79</ele>
        <time>2019-09-20T15:07:27.001Z</time>
      </trkpt>
      <trkpt lat="49.70579" lon="4.93369">
        <ele>153.477</ele>
        <time>2019-09-20T15:07:57.001Z</time>
      </trkpt>
      <trkpt lat="49.70456" lon="4.93492">
        <ele>149.895</ele>
        <time>2019-09-20T15:08:27.001Z</time>
      </trkpt>
      <trkpt lat="49.70336" lon="4.93517">
        <ele>150.916</ele>
        <time>2019-09-20T15:08:57.001Z</time>
      </trkpt>
      <trkpt lat="49.70266" lon="4.93372">
        <ele>155.671</ele>
        <time>2019-09-20T15:09:27.001Z</time>
      </trkpt>
      <trkpt lat="49.70196" lon="4.93318">
        <ele>162.493</ele>
        <time>2019-09-20T15:09:57.001Z</time>
      </trkpt>
      <trkpt lat="49.7014" lon="4.93204">
        <ele>166.714</ele>
        <time>2019-09-20T15:10:27.001Z</time>
      </trkpt>
      <trkpt lat="49.70076" lon="4.93045">
        <ele>166.791</ele>
        <time>2019-09-20T15:10:57.001Z</time>
      </trkpt>
      <trkpt lat="49.70001" lon="4.92929">
        <ele>165.046</ele>
        <time>2019-09-20T15:11:27.001Z</time>
      </trkpt>
      <trkpt lat="49.6997" lon="4.92892">
        <ele>162.051</ele>
        <time>2019-09-20T15:12:03.001Z</time>
      </trkpt>
      <trkpt lat="49.69924" lon="4.92799">
        <ele>161.707</ele>
        <time>2019-09-20T15:12:39.001Z</time>
      </trkpt>
      <trkpt lat="49.69867" lon="4.92693">
        <ele>156.026</ele>
        <time>2019-09-20T15:13:09.001Z</time>
      </trkpt>
      <trkpt lat="49.69831" lon="4.92703">
        <ele>161.69</ele>
        <time>2019-09-20T15:14:09.001Z</time>
      </trkpt>
      <trkpt lat="49.69835" lon="4.92745">
        <ele>162.038</ele>
        <time>2019-09-20T15:15:06.001Z</time>
      </trkpt>
      <trkpt lat="49.69834" lon="4.92762">
        <ele>159.199</ele>
        <time>2019-09-20T15:15:42.001Z</time>
      </trkpt>
      <trkpt lat="49.69832" lon="4.92762">
        <ele>159.288</ele>
        <time>2019-09-20T15:16:36.001Z</time>
      </trkpt>
      <trkpt lat="49.69833" lon="4.92756">
        <ele>161.902</ele>
        <time>2019-09-20T15:18:12.001Z</time>
      </trkpt>
      <trkpt lat="49.69836" lon="4.92761">
        <ele>151.853</ele>
        <time>2019-09-20T15:19:06.001Z</time>
      </trkpt>
      <trkpt lat="49.69837" lon="4.92789">
        <ele>161.167</ele>
        <time>2019-09-20T15:20:57.001Z</time>
      </trkpt>
      <trkpt lat="49.69772" lon="4.9288">
        <ele>173.523</ele>
        <time>2019-09-20T15:21:39.001Z</time>
      </trkpt>
      <trkpt lat="49.69641" lon="4.92959">
        <ele>165.219</ele>
        <time>2019-09-20T15:22:09.001Z</time>
      </trkpt>
      <trkpt lat="49.69537" lon="4.93044">
        <ele>171.449</ele>
        <time>2019-09-20T15:22:39.001Z</time>
      </trkpt>
      <trkpt lat="49.69533" lon="4.93245">
        <ele>165.468</ele>
        <time>2019-09-20T15:23:09.001Z</time>
      </trkpt>
      <trkpt lat="49.6958" lon="4.93433">
        <ele>154.658</ele>
        <time>2019-09-20T15:23:39.001Z</time>
      </trkpt>
      <trkpt lat="49.6962" lon="4.93666">
        <ele>158.179</ele>
        <time>2019-09-20T15:24:09.001Z</time>
      </trkpt>
      <trkpt lat="49.69663" lon="4.93849">
        <ele>167.469</ele>
        <time>2019-09-20T15:24:39.001Z</time>
      </trkpt>
      <trkpt lat="49.697" lon="4.94047">
        <ele>179.155</ele>
        <time>2019-09-20T15:25:09.001Z</time>
      </trkpt>
      <trkpt lat="49.69739" lon="4.94259">
        <ele>179.324</ele>
        <time>2019-09-20T15:25:39.001Z</time>
      </trkpt>
      <trkpt lat="49.69757" lon="4.94358">
        <ele>174.59</ele>
        <time>2019-09-20T15:26:15.001Z</time>
      </trkpt>
      <trkpt lat="49.69789" lon="4.94521">
        <ele>176.774</ele>
        <time>2019-09-20T15:26:45.001Z</time>
      </trkpt>
      <trkpt lat="49.69833" lon="4.9474">
        <ele>166.378</ele>
        <time>2019-09-20T15:27:15.001Z</time>
      </trkpt>
      <trkpt lat="49.6986" lon="4.94867">
        <ele>173.634</ele>
        <time>2019-09-20T15:28:06.001Z</time>
      </trkpt>
      <trkpt lat="49.699" lon="4.95069">
        <ele>177.235</ele>
        <time>2019-09-20T15:28:36.001Z</time>
      </trkpt>
      <trkpt lat="49.6985" lon="4.95186">
        <ele>168.387</ele>
        <time>2019-09-20T15:29:06.001Z</time>
      </trkpt>
      <trkpt lat="49.69758" lon="4.95359">
        <ele>159.446</ele>
        <time>2019-09-20T15:29:36.001Z</time>
      </trkpt>
      <trkpt lat="49.69655" lon="4.95488">
        <ele>161.465</ele>
        <time>2019-09-20T15:30:06.001Z</time>
      </trkpt>
      <trkpt lat="49.69533" lon="4.95579">
        <ele>164.68</ele>
        <time>2019-09-20T15:30:36.001Z</time>
      </trkpt>
      <trkpt lat="49.69423" lon="4.95684">
        <ele>170.203</ele>
        <time>2019-09-20T15:31:06.001Z</time>
      </trkpt>
      <trkpt lat="49.69366" lon="4.95753">
        <ele>168.657</ele>
        <time>2019-09-20T15:31:57.001Z</time>
      </trkpt>
      <trkpt lat="49.69297" lon="4.9591">
        <ele>170.969</ele>
        <time>2019-09-20T15:32:27.001Z</time>
      </trkpt>
      <trkpt lat="49.69225" lon="4.96055">
        <ele>178.785</ele>
        <time>2019-09-20T15:32:57.001Z</time>
      </trkpt>
      <trkpt lat="49.69143" lon="4.96158">
        <ele>185.268</ele>
        <time>2019-09-20T15:33:27.001Z</time>
      </trkpt>
      <trkpt lat="49.69055" lon="4.96289">
        <ele>179.491</ele>
        <time>2019-09-20T15:33:57.001Z</time>
      </trkpt>
      <trkpt lat="49.68977" lon="4.96411">
        <ele>171.531</ele>
        <time>2019-09-20T15:34:27.001Z</time>
      </trkpt>
      <trkpt lat="49.68965" lon="4.9643">
        <ele>169.255</ele>
        <time>2019-09-20T15:36:48.001Z</time>
      </trkpt>
      <trkpt lat="49.68902" lon="4.96548">
        <ele>171.009</ele>
        <time>2019-09-20T15:37:21.001Z</time>
      </trkpt>
      <trkpt lat="49.68799" lon="4.96715">
        <ele>160.866</ele>
        <time>2019-09-20T15:37:51.001Z</time>
      </trkpt>
      <trkpt lat="49.6875" lon="4.96878">
        <ele>161.456</ele>
        <time>2019-09-20T15:38:21.001Z</time>
      </trkpt>
      <trkpt lat="49.68791" lon="4.97015">
        <ele>163.717</ele>
        <time>2019-09-20T15:38:51.001Z</time>
      </trkpt>
      <trkpt lat="49.68786" lon="4.97115">
        <ele>172.473</ele>
        <time>2019-09-20T15:39:21.001Z</time>
      </trkpt>
      <trkpt lat="49.68794" lon="4.97226">
        <ele>177.784</ele>
        <time>2019-09-20T15:39:51.001Z</time>
      </trkpt>
      <trkpt lat="49.68813" lon="4.97337">
        <ele>181.062</ele>
        <time>2019-09-20T15:40:21.001Z</time>
      </trkpt>
      <trkpt lat="49.68829" lon="4.97452">
        <ele>182.483</ele>
        <time>2019-09-20T15:40:51.001Z</time>
      </trkpt>
      <trkpt lat="49.68842" lon="4.97567">
        <ele>187.01</ele>
        <time>2019-09-20T15:41:21.001Z</time>
      </trkpt>
      <trkpt lat="49.6886" lon="4.97674">
        <ele>186.208</ele>
        <time>2019-09-20T15:41:51.001Z</time>
      </trkpt>
      <trkpt lat="49.68875" lon="4.97792">
        <ele>187.479</ele>
        <time>2019-09-20T15:42:21.001Z</time>
      </trkpt>
      <trkpt lat="49.68861" lon="4.97918">
        <ele>189.738</ele>
        <time>2019-09-20T15:42:51.001Z</time>
      </trkpt>
      <trkpt lat="49.68814" lon="4.98213">
        <ele>176.381</ele>
        <time>2019-09-20T15:43:21.001Z</time>
      </trkpt>
      <trkpt lat="49.6886" lon="4.98376">
        <ele>164.671</ele>
        <time>2019-09-20T15:43:51.001Z</time>
      </trkpt>
      <trkpt lat="49.68957" lon="4.98447">
        <ele>168.308</ele>
        <time>2019-09-20T15:44:21.001Z</time>
      </trkpt>
      <trkpt lat="49.68992" lon="4.9857">
        <ele>168.658</ele>
        <time>2019-09-20T15:44:51.001Z</time>
      </trkpt>
      <trkpt lat="49.68951" lon="4.98715">
        <ele>164.215</ele>
        <time>2019-09-20T15:45:21.001Z</time>
      </trkpt>
      <trkpt lat="49.68952" lon="4.9881">
        <ele>168.208</ele>
        <time>2019-09-20T15:45:51.001Z</time>
      </trkpt>
      <trkpt lat="49.68919" lon="4.98883">
        <ele>177.714</ele>
        <time>2019-09-20T15:46:24.001Z</time>
      </trkpt>
      <trkpt lat="49.6893" lon="4.98894">
        <ele>173.56</ele>
        <time>2019-09-20T15:49:00.000Z</time>
      </trkpt>
    </trkseg>
  </trk>
  <trk>
    <name><![CDATA[Tracé 20190921-090206]]></name>
    <trkseg>
      <trkpt lat="49.68101" lon="4.9784">
        <ele>210.2</ele>
        <time>2019-09-21T07:03:09.000Z</time>
      </trkpt>
      <trkpt lat="49.68012" lon="4.97763">
        <ele>193.76</ele>
        <time>2019-09-21T07:03:42.000Z</time>
      </trkpt>
      <trkpt lat="49.67895" lon="4.97735">
        <ele>176.878</ele>
        <time>2019-09-21T07:04:12.000Z</time>
      </trkpt>
      <trkpt lat="49.67727" lon="4.97812">
        <ele>175.544</ele>
        <time>2019-09-21T07:04:42.000Z</time>
      </trkpt>
      <trkpt lat="49.67573" lon="4.97847">
        <ele>177.704</ele>
        <time>2019-09-21T07:05:12.000Z</time>
      </trkpt>
      <trkpt lat="49.6738" lon="4.9785">
        <ele>172.221</ele>
        <time>2019-09-21T07:05:42.000Z</time>
      </trkpt>
      <trkpt lat="49.67311" lon="4.98015">
        <ele>159.769</ele>
        <time>2019-09-21T07:06:12.000Z</time>
      </trkpt>
      <trkpt lat="49.67296" lon="4.98069">
        <ele>158.305</ele>
        <time>2019-09-21T07:07:54.000Z</time>
      </trkpt>
      <trkpt lat="49.67257" lon="4.98229">
        <ele>156.4</ele>
        <time>2019-09-21T07:08:24.000Z</time>
      </trkpt>
      <trkpt lat="49.67154" lon="4.98364">
        <ele>160.07</ele>
        <time>2019-09-21T07:08:54.000Z</time>
      </trkpt>
      <trkpt lat="49.67009" lon="4.9836">
        <ele>159.073</ele>
        <time>2019-09-21T07:09:24.000Z</time>
      </trkpt>
      <trkpt lat="49.66855" lon="4.98331">
        <ele>157.948</ele>
        <time>2019-09-21T07:09:54.000Z</time>
      </trkpt>
      <trkpt lat="49.66728" lon="4.9827">
        <ele>152.653</ele>
        <time>2019-09-21T07:10:24.000Z</time>
      </trkpt>
      <trkpt lat="49.66641" lon="4.98223">
        <ele>157.543</ele>
        <time>2019-09-21T07:10:54.000Z</time>
      </trkpt>
      <trkpt lat="49.66459" lon="4.98273">
        <ele>152.642</ele>
        <time>2019-09-21T07:11:24.000Z</time>
      </trkpt>
      <trkpt lat="49.66315" lon="4.98348">
        <ele>152.217</ele>
        <time>2019-09-21T07:11:54.000Z</time>
      </trkpt>
      <trkpt lat="49.66199" lon="4.98475">
        <ele>152.549</ele>
        <time>2019-09-21T07:12:24.000Z</time>
      </trkpt>
      <trkpt lat="49.66101" lon="4.98624">
        <ele>151.232</ele>
        <time>2019-09-21T07:12:54.000Z</time>
      </trkpt>
      <trkpt lat="49.66019" lon="4.98565">
        <ele>153.571</ele>
        <time>2019-09-21T07:13:24.000Z</time>
      </trkpt>
      <trkpt lat="49.65943" lon="4.98554">
        <ele>157.487</ele>
        <time>2019-09-21T07:13:54.000Z</time>
      </trkpt>
      <trkpt lat="49.65834" lon="4.98773">
        <ele>157.819</ele>
        <time>2019-09-21T07:14:24.000Z</time>
      </trkpt>
      <trkpt lat="49.65743" lon="4.98943">
        <ele>154.523</ele>
        <time>2019-09-21T07:14:54.000Z</time>
      </trkpt>
      <trkpt lat="49.65644" lon="4.99105">
        <ele>153.525</ele>
        <time>2019-09-21T07:15:24.000Z</time>
      </trkpt>
      <trkpt lat="49.65551" lon="4.99265">
        <ele>157.086</ele>
        <time>2019-09-21T07:15:54.000Z</time>
      </trkpt>
      <trkpt lat="49.65457" lon="4.99427">
        <ele>156.229</ele>
        <time>2019-09-21T07:16:24.000Z</time>
      </trkpt>
      <trkpt lat="49.65365" lon="4.99582">
        <ele>156.897</ele>
        <time>2019-09-21T07:16:54.000Z</time>
      </trkpt>
      <trkpt lat="49.65288" lon="4.99752">
        <ele>159.581</ele>
        <time>2019-09-21T07:17:24.000Z</time>
      </trkpt>
      <trkpt lat="49.6523" lon="4.99877">
        <ele>161.7</ele>
        <time>2019-09-21T07:17:54.000Z</time>
      </trkpt>
      <trkpt lat="49.65181" lon="4.99938">
        <ele>160.989</ele>
        <time>2019-09-21T07:19:18.000Z</time>
      </trkpt>
      <trkpt lat="49.65097" lon="4.99856">
        <ele>157.94</ele>
        <time>2019-09-21T07:19:51.000Z</time>
      </trkpt>
      <trkpt lat="49.65027" lon="4.9993">
        <ele>164.248</ele>
        <time>2019-09-21T07:20:21.000Z</time>
      </trkpt>
      <trkpt lat="49.64957" lon="5.00078">
        <ele>166.448</ele>
        <time>2019-09-21T07:20:51.000Z</time>
      </trkpt>
      <trkpt lat="49.64885" lon="5.00231">
        <ele>161.357</ele>
        <time>2019-09-21T07:21:21.000Z</time>
      </trkpt>
      <trkpt lat="49.64811" lon="5.00388">
        <ele>162.871</ele>
        <time>2019-09-21T07:21:51.000Z</time>
      </trkpt>
      <trkpt lat="49.64744" lon="5.00556">
        <ele>163.11</ele>
        <time>2019-09-21T07:22:21.000Z</time>
      </trkpt>
      <trkpt lat="49.64685" lon="5.00682">
        <ele>161.902</ele>
        <time>2019-09-21T07:22:51.000Z</time>
      </trkpt>
      <trkpt lat="49.6463" lon="5.00803">
        <ele>164.666</ele>
        <time>2019-09-21T07:23:21.000Z</time>
      </trkpt>
      <trkpt lat="49.64575" lon="5.00921">
        <ele>165.886</ele>
        <time>2019-09-21T07:23:51.000Z</time>
      </trkpt>
      <trkpt lat="49.64499" lon="5.01056">
        <ele>170.15</ele>
        <time>2019-09-21T07:24:21.000Z</time>
      </trkpt>
      <trkpt lat="49.64425" lon="5.0122">
        <ele>166.683</ele>
        <time>2019-09-21T07:24:51.000Z</time>
      </trkpt>
      <trkpt lat="49.64394" lon="5.01476">
        <ele>166.276</ele>
        <time>2019-09-21T07:25:21.000Z</time>
      </trkpt>
      <trkpt lat="49.64362" lon="5.01728">
        <ele>161.966</ele>
        <time>2019-09-21T07:25:51.000Z</time>
      </trkpt>
      <trkpt lat="49.64345" lon="5.01863">
        <ele>164.958</ele>
        <time>2019-09-21T07:26:21.000Z</time>
      </trkpt>
      <trkpt lat="49.64329" lon="5.01988">
        <ele>165.885</ele>
        <time>2019-09-21T07:26:51.000Z</time>
      </trkpt>
      <trkpt lat="49.64309" lon="5.02113">
        <ele>171.126</ele>
        <time>2019-09-21T07:27:21.000Z</time>
      </trkpt>
      <trkpt lat="49.64274" lon="5.02211">
        <ele>175.602</ele>
        <time>2019-09-21T07:27:51.000Z</time>
      </trkpt>
      <trkpt lat="49.64223" lon="5.02304">
        <ele>177.952</ele>
        <time>2019-09-21T07:28:21.000Z</time>
      </trkpt>
      <trkpt lat="49.64149" lon="5.02408">
        <ele>180.966</ele>
        <time>2019-09-21T07:28:51.000Z</time>
      </trkpt>
      <trkpt lat="49.64057" lon="5.02485">
        <ele>177.244</ele>
        <time>2019-09-21T07:29:21.000Z</time>
      </trkpt>
      <trkpt lat="49.63973" lon="5.02522">
        <ele>178.809</ele>
        <time>2019-09-21T07:29:51.000Z</time>
      </trkpt>
      <trkpt lat="49.63905" lon="5.02535">
        <ele>181.657</ele>
        <time>2019-09-21T07:30:21.000Z</time>
      </trkpt>
      <trkpt lat="49.63838" lon="5.02546">
        <ele>183.971</ele>
        <time>2019-09-21T07:30:51.000Z</time>
      </trkpt>
      <trkpt lat="49.63737" lon="5.02561">
        <ele>188.161</ele>
        <time>2019-09-21T07:31:21.000Z</time>
      </trkpt>
      <trkpt lat="49.63536" lon="5.02612">
        <ele>176.541</ele>
        <time>2019-09-21T07:31:51.000Z</time>
      </trkpt>
      <trkpt lat="49.63257" lon="5.02698">
        <ele>162.907</ele>
        <time>2019-09-21T07:32:21.000Z</time>
      </trkpt>
      <trkpt lat="49.63099" lon="5.0283">
        <ele>160.376</ele>
        <time>2019-09-21T07:32:51.000Z</time>
      </trkpt>
      <trkpt lat="49.62938" lon="5.02855">
        <ele>159.492</ele>
        <time>2019-09-21T07:33:21.000Z</time>
      </trkpt>
      <trkpt lat="49.62795" lon="5.02862">
        <ele>159.602</ele>
        <time>2019-09-21T07:33:51.000Z</time>
      </trkpt>
      <trkpt lat="49.62655" lon="5.02871">
        <ele>159.887</ele>
        <time>2019-09-21T07:34:21.000Z</time>
      </trkpt>
      <trkpt lat="49.62516" lon="5.02878">
        <ele>159.871</ele>
        <time>2019-09-21T07:34:51.000Z</time>
      </trkpt>
      <trkpt lat="49.62388" lon="5.02917">
        <ele>160.36</ele>
        <time>2019-09-21T07:35:21.000Z</time>
      </trkpt>
      <trkpt lat="49.62246" lon="5.0294">
        <ele>162.278</ele>
        <time>2019-09-21T07:35:51.000Z</time>
      </trkpt>
      <trkpt lat="49.6212" lon="5.02968">
        <ele>157.692</ele>
        <time>2019-09-21T07:36:21.000Z</time>
      </trkpt>
      <trkpt lat="49.61987" lon="5.02968">
        <ele>156.578</ele>
        <time>2019-09-21T07:36:51.000Z</time>
      </trkpt>
      <trkpt lat="49.61875" lon="5.03059">
        <ele>155.126</ele>
        <time>2019-09-21T07:37:21.000Z</time>
      </trkpt>
      <trkpt lat="49.61777" lon="5.03168">
        <ele>158.455</ele>
        <time>2019-09-21T07:37:51.000Z</time>
      </trkpt>
      <trkpt lat="49.61673" lon="5.03249">
        <ele>157.012</ele>
        <time>2019-09-21T07:38:21.000Z</time>
      </trkpt>
      <trkpt lat="49.6159" lon="5.03347">
        <ele>159.93</ele>
        <time>2019-09-21T07:38:51.000Z</time>
      </trkpt>
      <trkpt lat="49.61629" lon="5.03551">
        <ele>159.793</ele>
        <time>2019-09-21T07:39:21.000Z</time>
      </trkpt>
      <trkpt lat="49.61591" lon="5.03775">
        <ele>155.374</ele>
        <time>2019-09-21T07:39:51.000Z</time>
      </trkpt>
      <trkpt lat="49.61538" lon="5.03954">
        <ele>153.541</ele>
        <time>2019-09-21T07:40:21.000Z</time>
      </trkpt>
      <trkpt lat="49.61484" lon="5.04141">
        <ele>155.591</ele>
        <time>2019-09-21T07:40:51.000Z</time>
      </trkpt>
      <trkpt lat="49.6139" lon="5.04281">
        <ele>156.629</ele>
        <time>2019-09-21T07:41:21.000Z</time>
      </trkpt>
      <trkpt lat="49.61285" lon="5.04388">
        <ele>157.101</ele>
        <time>2019-09-21T07:41:51.000Z</time>
      </trkpt>
      <trkpt lat="49.61187" lon="5.04494">
        <ele>156.149</ele>
        <time>2019-09-21T07:42:21.000Z</time>
      </trkpt>
      <trkpt lat="49.61081" lon="5.04599">
        <ele>156.301</ele>
        <time>2019-09-21T07:42:51.000Z</time>
      </trkpt>
      <trkpt lat="49.60974" lon="5.04707">
        <ele>154.324</ele>
        <time>2019-09-21T07:43:21.000Z</time>
      </trkpt>
      <trkpt lat="49.60871" lon="5.04823">
        <ele>155.713</ele>
        <time>2019-09-21T07:43:51.000Z</time>
      </trkpt>
      <trkpt lat="49.60779" lon="5.04945">
        <ele>157.328</ele>
        <time>2019-09-21T07:44:21.000Z</time>
      </trkpt>
      <trkpt lat="49.60683" lon="5.05088">
        <ele>157.563</ele>
        <time>2019-09-21T07:44:51.000Z</time>
      </trkpt>
      <trkpt lat="49.60594" lon="5.05235">
        <ele>157.106</ele>
        <time>2019-09-21T07:45:21.000Z</time>
      </trkpt>
      <trkpt lat="49.60524" lon="5.05397">
        <ele>156.162</ele>
        <time>2019-09-21T07:45:51.000Z</time>
      </trkpt>
      <trkpt lat="49.60457" lon="5.05553">
        <ele>155.749</ele>
        <time>2019-09-21T07:46:21.000Z</time>
      </trkpt>
      <trkpt lat="49.60403" lon="5.05727">
        <ele>154.866</ele>
        <time>2019-09-21T07:46:51.000Z</time>
      </trkpt>
      <trkpt lat="49.60366" lon="5.05906">
        <ele>153.639</ele>
        <time>2019-09-21T07:47:21.000Z</time>
      </trkpt>
      <trkpt lat="49.60313" lon="5.06073">
        <ele>157.887</ele>
        <time>2019-09-21T07:47:51.000Z</time>
      </trkpt>
      <trkpt lat="49.60221" lon="5.06193">
        <ele>155.645</ele>
        <time>2019-09-21T07:48:21.000Z</time>
      </trkpt>
      <trkpt lat="49.60122" lon="5.06295">
        <ele>157.75</ele>
        <time>2019-09-21T07:48:51.000Z</time>
      </trkpt>
      <trkpt lat="49.6004" lon="5.06253">
        <ele>168.026</ele>
        <time>2019-09-21T07:49:24.000Z</time>
      </trkpt>
      <trkpt lat="49.59996" lon="5.06135">
        <ele>178.999</ele>
        <time>2019-09-21T07:49:54.000Z</time>
      </trkpt>
      <trkpt lat="49.59929" lon="5.0608">
        <ele>175.941</ele>
        <time>2019-09-21T07:50:24.000Z</time>
      </trkpt>
      <trkpt lat="49.59828" lon="5.06113">
        <ele>171.406</ele>
        <time>2019-09-21T07:50:54.000Z</time>
      </trkpt>
      <trkpt lat="49.59722" lon="5.06149">
        <ele>164.76</ele>
        <time>2019-09-21T07:51:24.000Z</time>
      </trkpt>
      <trkpt lat="49.59651" lon="5.06172">
        <ele>165.901</ele>
        <time>2019-09-21T08:03:45.000Z</time>
      </trkpt>
      <trkpt lat="49.59549" lon="5.06181">
        <ele>165.975</ele>
        <time>2019-09-21T08:04:15.000Z</time>
      </trkpt>
      <trkpt lat="49.59455" lon="5.0607">
        <ele>170.341</ele>
        <time>2019-09-21T08:04:45.000Z</time>
      </trkpt>
      <trkpt lat="49.59371" lon="5.05947">
        <ele>170.593</ele>
        <time>2019-09-21T08:05:15.000Z</time>
      </trkpt>
      <trkpt lat="49.59299" lon="5.05844">
        <ele>172.441</ele>
        <time>2019-09-21T08:05:45.000Z</time>
      </trkpt>
      <trkpt lat="49.59237" lon="5.05699">
        <ele>171.652</ele>
        <time>2019-09-21T08:06:15.000Z</time>
      </trkpt>
      <trkpt lat="49.59177" lon="5.05548">
        <ele>172</ele>
        <time>2019-09-21T08:06:45.000Z</time>
      </trkpt>
      <trkpt lat="49.59116" lon="5.05416">
        <ele>175.001</ele>
        <time>2019-09-21T08:07:15.000Z</time>
      </trkpt>
      <trkpt lat="49.59059" lon="5.05297">
        <ele>177.52</ele>
        <time>2019-09-21T08:07:45.000Z</time>
      </trkpt>
      <trkpt lat="49.58997" lon="5.05139">
        <ele>176.945</ele>
        <time>2019-09-21T08:08:15.000Z</time>
      </trkpt>
      <trkpt lat="49.58893" lon="5.04901">
        <ele>172.806</ele>
        <time>2019-09-21T08:08:45.000Z</time>
      </trkpt>
      <trkpt lat="49.58786" lon="5.04686">
        <ele>168.629</ele>
        <time>2019-09-21T08:09:15.000Z</time>
      </trkpt>
      <trkpt lat="49.58665" lon="5.04501">
        <ele>169.266</ele>
        <time>2019-09-21T08:09:45.000Z</time>
      </trkpt>
      <trkpt lat="49.58568" lon="5.04305">
        <ele>170.806</ele>
        <time>2019-09-21T08:10:15.000Z</time>
      </trkpt>
      <trkpt lat="49.58479" lon="5.04211">
        <ele>172.728</ele>
        <time>2019-09-21T08:10:45.000Z</time>
      </trkpt>
      <trkpt lat="49.58396" lon="5.04113">
        <ele>174.526</ele>
        <time>2019-09-21T08:11:15.000Z</time>
      </trkpt>
      <trkpt lat="49.58339" lon="5.03936">
        <ele>174.678</ele>
        <time>2019-09-21T08:11:45.000Z</time>
      </trkpt>
      <trkpt lat="49.58287" lon="5.03803">
        <ele>177.786</ele>
        <time>2019-09-21T08:12:15.000Z</time>
      </trkpt>
      <trkpt lat="49.58248" lon="5.03671">
        <ele>179.65</ele>
        <time>2019-09-21T08:12:45.000Z</time>
      </trkpt>
      <trkpt lat="49.58213" lon="5.035">
        <ele>184.099</ele>
        <time>2019-09-21T08:13:15.000Z</time>
      </trkpt>
      <trkpt lat="49.58199" lon="5.03364">
        <ele>189.249</ele>
        <time>2019-09-21T08:13:45.000Z</time>
      </trkpt>
      <trkpt lat="49.58159" lon="5.03277">
        <ele>189.821</ele>
        <time>2019-09-21T08:14:15.000Z</time>
      </trkpt>
      <trkpt lat="49.58083" lon="5.03193">
        <ele>188.548</ele>
        <time>2019-09-21T08:14:45.000Z</time>
      </trkpt>
      <trkpt lat="49.5799" lon="5.03141">
        <ele>190.39</ele>
        <time>2019-09-21T08:15:15.000Z</time>
      </trkpt>
      <trkpt lat="49.57886" lon="5.03113">
        <ele>189.942</ele>
        <time>2019-09-21T08:15:45.000Z</time>
      </trkpt>
      <trkpt lat="49.57743" lon="5.02996">
        <ele>187.588</ele>
        <time>2019-09-21T08:16:15.000Z</time>
      </trkpt>
      <trkpt lat="49.57616" lon="5.02798">
        <ele>182.304</ele>
        <time>2019-09-21T08:16:45.000Z</time>
      </trkpt>
      <trkpt lat="49.57487" lon="5.02645">
        <ele>184.913</ele>
        <time>2019-09-21T08:17:15.000Z</time>
      </trkpt>
      <trkpt lat="49.57358" lon="5.0252">
        <ele>186.17</ele>
        <time>2019-09-21T08:17:45.000Z</time>
      </trkpt>
      <trkpt lat="49.57239" lon="5.02411">
        <ele>186.351</ele>
        <time>2019-09-21T08:18:15.000Z</time>
      </trkpt>
      <trkpt lat="49.57056" lon="5.02255">
        <ele>180.056</ele>
        <time>2019-09-21T08:18:45.000Z</time>
      </trkpt>
      <trkpt lat="49.56825" lon="5.02012">
        <ele>173.9</ele>
        <time>2019-09-21T08:19:15.000Z</time>
      </trkpt>
      <trkpt lat="49.5674" lon="5.01888">
        <ele>176.297</ele>
        <time>2019-09-21T08:19:45.000Z</time>
      </trkpt>
      <trkpt lat="49.56669" lon="5.01703">
        <ele>189.859</ele>
        <time>2019-09-21T08:20:15.000Z</time>
      </trkpt>
      <trkpt lat="49.56638" lon="5.01492">
        <ele>192.621</ele>
        <time>2019-09-21T08:20:45.000Z</time>
      </trkpt>
      <trkpt lat="49.56566" lon="5.01343">
        <ele>184.465</ele>
        <time>2019-09-21T08:21:15.000Z</time>
      </trkpt>
      <trkpt lat="49.56496" lon="5.01349">
        <ele>184.654</ele>
        <time>2019-09-21T08:21:45.000Z</time>
      </trkpt>
      <trkpt lat="49.56426" lon="5.01346">
        <ele>189.264</ele>
        <time>2019-09-21T08:22:15.000Z</time>
      </trkpt>
      <trkpt lat="49.56328" lon="5.01263">
        <ele>185.065</ele>
        <time>2019-09-21T08:22:45.000Z</time>
      </trkpt>
      <trkpt lat="49.56207" lon="5.01146">
        <ele>183.013</ele>
        <time>2019-09-21T08:23:15.000Z</time>
      </trkpt>
      <trkpt lat="49.56056" lon="5.0099">
        <ele>177.482</ele>
        <time>2019-09-21T08:23:45.000Z</time>
      </trkpt>
      <trkpt lat="49.55877" lon="5.00925">
        <ele>176.174</ele>
        <time>2019-09-21T08:24:15.000Z</time>
      </trkpt>
      <trkpt lat="49.55715" lon="5.00952">
        <ele>175.871</ele>
        <time>2019-09-21T08:24:45.000Z</time>
      </trkpt>
      <trkpt lat="49.55601" lon="5.01069">
        <ele>176.35</ele>
        <time>2019-09-21T08:25:15.000Z</time>
      </trkpt>
      <trkpt lat="49.55514" lon="5.0118">
        <ele>177.509</ele>
        <time>2019-09-21T08:25:45.000Z</time>
      </trkpt>
      <trkpt lat="49.55425" lon="5.01206">
        <ele>180.04</ele>
        <time>2019-09-21T08:26:15.000Z</time>
      </trkpt>
      <trkpt lat="49.55357" lon="5.01185">
        <ele>186.317</ele>
        <time>2019-09-21T08:26:45.000Z</time>
      </trkpt>
      <trkpt lat="49.55241" lon="5.01152">
        <ele>184.345</ele>
        <time>2019-09-21T08:27:15.000Z</time>
      </trkpt>
      <trkpt lat="49.55112" lon="5.01117">
        <ele>182.756</ele>
        <time>2019-09-21T08:27:45.000Z</time>
      </trkpt>
      <trkpt lat="49.54996" lon="5.00971">
        <ele>182.836</ele>
        <time>2019-09-21T08:28:15.000Z</time>
      </trkpt>
      <trkpt lat="49.54851" lon="5.00827">
        <ele>186.275</ele>
        <time>2019-09-21T08:28:45.000Z</time>
      </trkpt>
      <trkpt lat="49.54702" lon="5.00804">
        <ele>187.478</ele>
        <time>2019-09-21T08:29:15.000Z</time>
      </trkpt>
      <trkpt lat="49.546" lon="5.00794">
        <ele>192.62</ele>
        <time>2019-09-21T08:29:45.000Z</time>
      </trkpt>
      <trkpt lat="49.54524" lon="5.00782">
        <ele>202.981</ele>
        <time>2019-09-21T08:30:15.000Z</time>
      </trkpt>
      <trkpt lat="49.54441" lon="5.00804">
        <ele>198.643</ele>
        <time>2019-09-21T08:30:48.000Z</time>
      </trkpt>
      <trkpt lat="49.54422" lon="5.00886">
        <ele>196.641</ele>
        <time>2019-09-21T08:31:18.000Z</time>
      </trkpt>
      <trkpt lat="49.54408" lon="5.00961">
        <ele>201.693</ele>
        <time>2019-09-21T08:31:48.000Z</time>
      </trkpt>
      <trkpt lat="49.54392" lon="5.01041">
        <ele>205.788</ele>
        <time>2019-09-21T08:32:21.000Z</time>
      </trkpt>
      <trkpt lat="49.54381" lon="5.01123">
        <ele>206.306</ele>
        <time>2019-09-21T08:32:51.000Z</time>
      </trkpt>
      <trkpt lat="49.54366" lon="5.01227">
        <ele>212.416</ele>
        <time>2019-09-21T08:33:21.000Z</time>
      </trkpt>
      <trkpt lat="49.54358" lon="5.01358">
        <ele>208.725</ele>
        <time>2019-09-21T08:33:51.000Z</time>
      </trkpt>
      <trkpt lat="49.54347" lon="5.01488">
        <ele>208.07</ele>
        <time>2019-09-21T08:34:21.000Z</time>
      </trkpt>
      <trkpt lat="49.54336" lon="5.01602">
        <ele>210.416</ele>
        <time>2019-09-21T08:34:51.000Z</time>
      </trkpt>
      <trkpt lat="49.5434" lon="5.01689">
        <ele>214.884</ele>
        <time>2019-09-21T08:35:24.000Z</time>
      </trkpt>
      <trkpt lat="49.54349" lon="5.01767">
        <ele>217.647</ele>
        <time>2019-09-21T08:35:54.000Z</time>
      </trkpt>
      <trkpt lat="49.54356" lon="5.01848">
        <ele>220.471</ele>
        <time>2019-09-21T08:36:24.000Z</time>
      </trkpt>
      <trkpt lat="49.54365" lon="5.01941">
        <ele>222.422</ele>
        <time>2019-09-21T08:36:54.000Z</time>
      </trkpt>
      <trkpt lat="49.54383" lon="5.02044">
        <ele>227.524</ele>
        <time>2019-09-21T08:37:24.000Z</time>
      </trkpt>
      <trkpt lat="49.54391" lon="5.02183">
        <ele>229.631</ele>
        <time>2019-09-21T08:53:36.000Z</time>
      </trkpt>
      <trkpt lat="49.54398" lon="5.02482">
        <ele>212.235</ele>
        <time>2019-09-21T08:54:06.000Z</time>
      </trkpt>
      <trkpt lat="49.54351" lon="5.02769">
        <ele>202.604</ele>
        <time>2019-09-21T08:54:36.000Z</time>
      </trkpt>
      <trkpt lat="49.54338" lon="5.02876">
        <ele>208.39</ele>
        <time>2019-09-21T08:55:06.000Z</time>
      </trkpt>
      <trkpt lat="49.54318" lon="5.02988">
        <ele>213.487</ele>
        <time>2019-09-21T08:55:36.000Z</time>
      </trkpt>
      <trkpt lat="49.54291" lon="5.0317">
        <ele>209.283</ele>
        <time>2019-09-21T08:56:06.000Z</time>
      </trkpt>
      <trkpt lat="49.54252" lon="5.03419">
        <ele>202.719</ele>
        <time>2019-09-21T08:56:36.000Z</time>
      </trkpt>
      <trkpt lat="49.54236" lon="5.03529">
        <ele>207.338</ele>
        <time>2019-09-21T08:57:06.000Z</time>
      </trkpt>
      <trkpt lat="49.54222" lon="5.03613">
        <ele>212.906</ele>
        <time>2019-09-21T08:57:36.000Z</time>
      </trkpt>
      <trkpt lat="49.54209" lon="5.03697">
        <ele>217.199</ele>
        <time>2019-09-21T08:58:06.000Z</time>
      </trkpt>
      <trkpt lat="49.5419" lon="5.03807">
        <ele>218.147</ele>
        <time>2019-09-21T08:58:36.000Z</time>
      </trkpt>
      <trkpt lat="49.54147" lon="5.04092">
        <ele>209.604</ele>
        <time>2019-09-21T08:59:06.000Z</time>
      </trkpt>
      <trkpt lat="49.54096" lon="5.04447">
        <ele>204.203</ele>
        <time>2019-09-21T08:59:36.000Z</time>
      </trkpt>
      <trkpt lat="49.54008" lon="5.04813">
        <ele>192.609</ele>
        <time>2019-09-21T09:00:06.000Z</time>
      </trkpt>
      <trkpt lat="49.53869" lon="5.05262">
        <ele>177.624</ele>
        <time>2019-09-21T09:00:36.000Z</time>
      </trkpt>
      <trkpt lat="49.53848" lon="5.055">
        <ele>172.762</ele>
        <time>2019-09-21T09:01:06.000Z</time>
      </trkpt>
      <trkpt lat="49.53841" lon="5.05601">
        <ele>180.51</ele>
        <time>2019-09-21T09:01:36.000Z</time>
      </trkpt>
      <trkpt lat="49.53835" lon="5.05657">
        <ele>188.651</ele>
        <time>2019-09-21T09:06:18.000Z</time>
      </trkpt>
      <trkpt lat="49.53851" lon="5.05697">
        <ele>189.186</ele>
        <time>2019-09-21T09:08:18.000Z</time>
      </trkpt>
      <trkpt lat="49.53826" lon="5.05781">
        <ele>196.352</ele>
        <time>2019-09-21T09:08:48.000Z</time>
      </trkpt>
      <trkpt lat="49.53883" lon="5.05986">
        <ele>190.18</ele>
        <time>2019-09-21T09:09:18.000Z</time>
      </trkpt>
      <trkpt lat="49.53971" lon="5.0618">
        <ele>178.181</ele>
        <time>2019-09-21T09:09:48.000Z</time>
      </trkpt>
      <trkpt lat="49.54047" lon="5.06329">
        <ele>173.733</ele>
        <time>2019-09-21T09:10:18.000Z</time>
      </trkpt>
      <trkpt lat="49.54109" lon="5.06461">
        <ele>174.93</ele>
        <time>2019-09-21T09:10:48.000Z</time>
      </trkpt>
      <trkpt lat="49.54172" lon="5.06622">
        <ele>172.567</ele>
        <time>2019-09-21T09:11:18.000Z</time>
      </trkpt>
      <trkpt lat="49.54233" lon="5.06775">
        <ele>172.95</ele>
        <time>2019-09-21T09:11:48.000Z</time>
      </trkpt>
      <trkpt lat="49.54293" lon="5.06931">
        <ele>171.816</ele>
        <time>2019-09-21T09:12:18.000Z</time>
      </trkpt>
      <trkpt lat="49.54375" lon="5.07146">
        <ele>168.985</ele>
        <time>2019-09-21T09:12:48.000Z</time>
      </trkpt>
      <trkpt lat="49.54403" lon="5.07294">
        <ele>169.828</ele>
        <time>2019-09-21T09:13:18.000Z</time>
      </trkpt>
      <trkpt lat="49.54433" lon="5.07496">
        <ele>169.023</ele>
        <time>2019-09-21T09:13:48.000Z</time>
      </trkpt>
      <trkpt lat="49.54432" lon="5.07654">
        <ele>169.028</ele>
        <time>2019-09-21T09:14:18.000Z</time>
      </trkpt>
      <trkpt lat="49.54457" lon="5.07797">
        <ele>170.713</ele>
        <time>2019-09-21T09:14:48.000Z</time>
      </trkpt>
      <trkpt lat="49.54498" lon="5.08009">
        <ele>171.23</ele>
        <time>2019-09-21T09:15:18.000Z</time>
      </trkpt>
      <trkpt lat="49.54476" lon="5.08229">
        <ele>177.184</ele>
        <time>2019-09-21T09:15:48.000Z</time>
      </trkpt>
      <trkpt lat="49.54375" lon="5.08269">
        <ele>171.841</ele>
        <time>2019-09-21T09:16:18.000Z</time>
      </trkpt>
      <trkpt lat="49.54291" lon="5.08312">
        <ele>172.924</ele>
        <time>2019-09-21T09:16:48.000Z</time>
      </trkpt>
      <trkpt lat="49.54249" lon="5.08369">
        <ele>177.41</ele>
        <time>2019-09-21T09:17:21.000Z</time>
      </trkpt>
      <trkpt lat="49.54188" lon="5.08406">
        <ele>180.536</ele>
        <time>2019-09-21T09:17:51.000Z</time>
      </trkpt>
      <trkpt lat="49.53993" lon="5.08547">
        <ele>178.307</ele>
        <time>2019-09-21T09:18:21.000Z</time>
      </trkpt>
      <trkpt lat="49.53839" lon="5.08648">
        <ele>167.833</ele>
        <time>2019-09-21T09:18:51.000Z</time>
      </trkpt>
      <trkpt lat="49.53706" lon="5.08735">
        <ele>167.712</ele>
        <time>2019-09-21T09:19:21.000Z</time>
      </trkpt>
      <trkpt lat="49.53624" lon="5.0879">
        <ele>166.271</ele>
        <time>2019-09-21T09:19:51.000Z</time>
      </trkpt>
      <trkpt lat="49.53497" lon="5.08883">
        <ele>165.055</ele>
        <time>2019-09-21T09:20:21.000Z</time>
      </trkpt>
      <trkpt lat="49.53368" lon="5.08972">
        <ele>167.615</ele>
        <time>2019-09-21T09:20:51.000Z</time>
      </trkpt>
      <trkpt lat="49.53264" lon="5.09075">
        <ele>168.927</ele>
        <time>2019-09-21T09:21:21.000Z</time>
      </trkpt>
      <trkpt lat="49.53146" lon="5.09173">
        <ele>170.198</ele>
        <time>2019-09-21T09:21:54.000Z</time>
      </trkpt>
      <trkpt lat="49.53066" lon="5.09208">
        <ele>174.767</ele>
        <time>2019-09-21T09:22:24.000Z</time>
      </trkpt>
      <trkpt lat="49.52991" lon="5.09255">
        <ele>180.075</ele>
        <time>2019-09-21T09:22:54.000Z</time>
      </trkpt>
      <trkpt lat="49.52881" lon="5.09268">
        <ele>178.201</ele>
        <time>2019-09-21T09:23:24.000Z</time>
      </trkpt>
      <trkpt lat="49.52731" lon="5.09116">
        <ele>171.921</ele>
        <time>2019-09-21T09:23:54.000Z</time>
      </trkpt>
      <trkpt lat="49.52576" lon="5.08924">
        <ele>168.939</ele>
        <time>2019-09-21T09:24:24.000Z</time>
      </trkpt>
      <trkpt lat="49.52417" lon="5.08869">
        <ele>161.45</ele>
        <time>2019-09-21T09:24:54.000Z</time>
      </trkpt>
      <trkpt lat="49.52309" lon="5.08805">
        <ele>167.063</ele>
        <time>2019-09-21T09:25:24.000Z</time>
      </trkpt>
      <trkpt lat="49.52188" lon="5.08759">
        <ele>168.738</ele>
        <time>2019-09-21T09:25:54.000Z</time>
      </trkpt>
      <trkpt lat="49.52105" lon="5.08929">
        <ele>170.569</ele>
        <time>2019-09-21T09:26:24.000Z</time>
      </trkpt>
      <trkpt lat="49.52022" lon="5.0903">
        <ele>172.258</ele>
        <time>2019-09-21T09:26:54.000Z</time>
      </trkpt>
      <trkpt lat="49.52039" lon="5.09054">
        <ele>173.919</ele>
        <time>2019-09-21T09:27:24.000Z</time>
      </trkpt>
      <trkpt lat="49.52133" lon="5.09086">
        <ele>173.142</ele>
        <time>2019-09-21T09:27:54.000Z</time>
      </trkpt>
      <trkpt lat="49.52189" lon="5.09133">
        <ele>178.815</ele>
        <time>2019-09-21T09:28:24.000Z</time>
      </trkpt>
      <trkpt lat="49.52234" lon="5.09187">
        <ele>179.934</ele>
        <time>2019-09-21T09:28:54.000Z</time>
      </trkpt>
      <trkpt lat="49.52282" lon="5.09236">
        <ele>185.199</ele>
        <time>2019-09-21T09:29:24.000Z</time>
      </trkpt>
      <trkpt lat="49.52335" lon="5.09302">
        <ele>188.547</ele>
        <time>2019-09-21T09:29:54.000Z</time>
      </trkpt>
      <trkpt lat="49.52469" lon="5.09506">
        <ele>180.654</ele>
        <time>2019-09-21T09:30:24.000Z</time>
      </trkpt>
      <trkpt lat="49.52611" lon="5.0976">
        <ele>168.081</ele>
        <time>2019-09-21T09:30:54.000Z</time>
      </trkpt>
      <trkpt lat="49.52648" lon="5.09908">
        <ele>170.975</ele>
        <time>2019-09-21T09:31:24.000Z</time>
      </trkpt>
      <trkpt lat="49.52683" lon="5.09982">
        <ele>182.326</ele>
        <time>2019-09-21T09:32:03.000Z</time>
      </trkpt>
      <trkpt lat="49.52722" lon="5.10066">
        <ele>189.997</ele>
        <time>2019-09-21T09:32:48.000Z</time>
      </trkpt>
      <trkpt lat="49.52754" lon="5.10133">
        <ele>192.562</ele>
        <time>2019-09-21T09:33:21.000Z</time>
      </trkpt>
      <trkpt lat="49.52786" lon="5.10202">
        <ele>196.984</ele>
        <time>2019-09-21T09:33:51.000Z</time>
      </trkpt>
      <trkpt lat="49.52843" lon="5.10296">
        <ele>195.35</ele>
        <time>2019-09-21T09:34:21.000Z</time>
      </trkpt>
      <trkpt lat="49.52955" lon="5.10536">
        <ele>196.571</ele>
        <time>2019-09-21T09:34:51.000Z</time>
      </trkpt>
      <trkpt lat="49.53101" lon="5.1091">
        <ele>186</ele>
        <time>2019-09-21T09:35:21.000Z</time>
      </trkpt>
      <trkpt lat="49.53186" lon="5.11118">
        <ele>180.582</ele>
        <time>2019-09-21T09:35:51.000Z</time>
      </trkpt>
      <trkpt lat="49.53247" lon="5.11272">
        <ele>181.165</ele>
        <time>2019-09-21T09:36:21.000Z</time>
      </trkpt>
      <trkpt lat="49.53288" lon="5.11396">
        <ele>191.82</ele>
        <time>2019-09-21T09:36:51.000Z</time>
      </trkpt>
      <trkpt lat="49.53328" lon="5.11515">
        <ele>197.641</ele>
        <time>2019-09-21T09:37:21.000Z</time>
      </trkpt>
      <trkpt lat="49.53372" lon="5.11629">
        <ele>197.736</ele>
        <time>2019-09-21T09:37:51.000Z</time>
      </trkpt>
      <trkpt lat="49.53428" lon="5.11752">
        <ele>197.948</ele>
        <time>2019-09-21T09:38:21.000Z</time>
      </trkpt>
      <trkpt lat="49.5348" lon="5.11877">
        <ele>200.544</ele>
        <time>2019-09-21T09:38:51.000Z</time>
      </trkpt>
      <trkpt lat="49.53648" lon="5.11935">
        <ele>189.86</ele>
        <time>2019-09-21T09:39:21.000Z</time>
      </trkpt>
      <trkpt lat="49.5367" lon="5.11971">
        <ele>173.413</ele>
        <time>2019-09-21T09:39:54.000Z</time>
      </trkpt>
      <trkpt lat="49.53705" lon="5.12068">
        <ele>174.459</ele>
        <time>2019-09-21T09:40:24.000Z</time>
      </trkpt>
      <trkpt lat="49.53749" lon="5.12172">
        <ele>176.032</ele>
        <time>2019-09-21T09:40:54.000Z</time>
      </trkpt>
      <trkpt lat="49.53799" lon="5.12285">
        <ele>178.055</ele>
        <time>2019-09-21T09:41:24.000Z</time>
      </trkpt>
      <trkpt lat="49.53838" lon="5.12405">
        <ele>181.265</ele>
        <time>2019-09-21T09:41:54.000Z</time>
      </trkpt>
      <trkpt lat="49.53865" lon="5.12514">
        <ele>184.974</ele>
        <time>2019-09-21T09:42:24.000Z</time>
      </trkpt>
      <trkpt lat="49.53885" lon="5.12605">
        <ele>190.7</ele>
        <time>2019-09-21T09:42:54.000Z</time>
      </trkpt>
      <trkpt lat="49.53903" lon="5.12686">
        <ele>192.939</ele>
        <time>2019-09-21T09:43:24.000Z</time>
      </trkpt>
      <trkpt lat="49.5392" lon="5.12766">
        <ele>194.792</ele>
        <time>2019-09-21T09:43:54.000Z</time>
      </trkpt>
      <trkpt lat="49.53937" lon="5.12848">
        <ele>196.237</ele>
        <time>2019-09-21T09:44:24.000Z</time>
      </trkpt>
      <trkpt lat="49.53956" lon="5.1293">
        <ele>200.256</ele>
        <time>2019-09-21T09:44:54.000Z</time>
      </trkpt>
      <trkpt lat="49.53974" lon="5.13009">
        <ele>206.328</ele>
        <time>2019-09-21T09:45:24.000Z</time>
      </trkpt>
      <trkpt lat="49.53989" lon="5.13092">
        <ele>215.722</ele>
        <time>2019-09-21T09:46:00.000Z</time>
      </trkpt>
      <trkpt lat="49.54011" lon="5.1318">
        <ele>226.516</ele>
        <time>2019-09-21T09:46:30.000Z</time>
      </trkpt>
      <trkpt lat="49.54042" lon="5.13292">
        <ele>228.564</ele>
        <time>2019-09-21T09:47:00.000Z</time>
      </trkpt>
      <trkpt lat="49.54041" lon="5.13424">
        <ele>230.766</ele>
        <time>2019-09-21T09:47:30.000Z</time>
      </trkpt>
      <trkpt lat="49.53998" lon="5.1354">
        <ele>228.177</ele>
        <time>2019-09-21T09:48:00.000Z</time>
      </trkpt>
      <trkpt lat="49.5393" lon="5.1362">
        <ele>230.999</ele>
        <time>2019-09-21T09:48:30.000Z</time>
      </trkpt>
      <trkpt lat="49.53887" lon="5.13746">
        <ele>232.583</ele>
        <time>2019-09-21T09:49:00.000Z</time>
      </trkpt>
      <trkpt lat="49.53949" lon="5.13891">
        <ele>222.756</ele>
        <time>2019-09-21T09:49:30.000Z</time>
      </trkpt>
      <trkpt lat="49.53976" lon="5.14068">
        <ele>228.056</ele>
        <time>2019-09-21T09:50:00.000Z</time>
      </trkpt>
      <trkpt lat="49.53949" lon="5.14237">
        <ele>236.004</ele>
        <time>2019-09-21T09:50:30.000Z</time>
      </trkpt>
      <trkpt lat="49.53879" lon="5.1442">
        <ele>232.575</ele>
        <time>2019-09-21T09:51:00.000Z</time>
      </trkpt>
      <trkpt lat="49.53778" lon="5.1456">
        <ele>231.831</ele>
        <time>2019-09-21T09:51:30.000Z</time>
      </trkpt>
      <trkpt lat="49.5371" lon="5.14999">
        <ele>206.832</ele>
        <time>2019-09-21T09:52:03.000Z</time>
      </trkpt>
      <trkpt lat="49.53623" lon="5.15275">
        <ele>181.76</ele>
        <time>2019-09-21T09:52:33.000Z</time>
      </trkpt>
      <trkpt lat="49.53513" lon="5.15513">
        <ele>175.583</ele>
        <time>2019-09-21T09:53:03.000Z</time>
      </trkpt>
      <trkpt lat="49.53387" lon="5.15692">
        <ele>170.883</ele>
        <time>2019-09-21T09:53:33.000Z</time>
      </trkpt>
      <trkpt lat="49.53292" lon="5.15749">
        <ele>172.323</ele>
        <time>2019-09-21T09:54:03.000Z</time>
      </trkpt>
      <trkpt lat="49.53185" lon="5.15747">
        <ele>173.505</ele>
        <time>2019-09-21T09:54:33.000Z</time>
      </trkpt>
      <trkpt lat="49.5305" lon="5.15771">
        <ele>172.661</ele>
        <time>2019-09-21T09:55:03.000Z</time>
      </trkpt>
      <trkpt lat="49.52876" lon="5.1582">
        <ele>163.007</ele>
        <time>2019-09-21T09:55:33.000Z</time>
      </trkpt>
      <trkpt lat="49.52719" lon="5.15811">
        <ele>162.781</ele>
        <time>2019-09-21T09:56:03.000Z</time>
      </trkpt>
      <trkpt lat="49.52586" lon="5.15758">
        <ele>162.865</ele>
        <time>2019-09-21T09:56:33.000Z</time>
      </trkpt>
      <trkpt lat="49.52527" lon="5.15664">
        <ele>168.405</ele>
        <time>2019-09-21T09:57:03.000Z</time>
      </trkpt>
      <trkpt lat="49.52471" lon="5.15613">
        <ele>176.03</ele>
        <time>2019-09-21T09:57:33.000Z</time>
      </trkpt>
      <trkpt lat="49.52343" lon="5.15644">
        <ele>182.816</ele>
        <time>2019-09-21T09:58:03.000Z</time>
      </trkpt>
      <trkpt lat="49.52242" lon="5.15646">
        <ele>182.883</ele>
        <time>2019-09-21T09:58:33.000Z</time>
      </trkpt>
      <trkpt lat="49.52137" lon="5.15631">
        <ele>180.133</ele>
        <time>2019-09-21T09:59:03.000Z</time>
      </trkpt>
      <trkpt lat="49.51988" lon="5.15586">
        <ele>171.951</ele>
        <time>2019-09-21T09:59:33.000Z</time>
      </trkpt>
      <trkpt lat="49.51839" lon="5.15548">
        <ele>165.975</ele>
        <time>2019-09-21T10:00:03.000Z</time>
      </trkpt>
      <trkpt lat="49.51711" lon="5.15579">
        <ele>166.54</ele>
        <time>2019-09-21T10:00:33.000Z</time>
      </trkpt>
      <trkpt lat="49.51563" lon="5.15635">
        <ele>165.659</ele>
        <time>2019-09-21T10:01:03.000Z</time>
      </trkpt>
      <trkpt lat="49.51431" lon="5.15764">
        <ele>167.47</ele>
        <time>2019-09-21T10:01:33.000Z</time>
      </trkpt>
      <trkpt lat="49.51396" lon="5.15934">
        <ele>172.049</ele>
        <time>2019-09-21T10:02:03.000Z</time>
      </trkpt>
      <trkpt lat="49.51288" lon="5.15949">
        <ele>170.399</ele>
        <time>2019-09-21T10:02:33.000Z</time>
      </trkpt>
      <trkpt lat="49.51254" lon="5.15831">
        <ele>176.841</ele>
        <time>2019-09-21T10:03:03.000Z</time>
      </trkpt>
      <trkpt lat="49.51137" lon="5.15872">
        <ele>180.57</ele>
        <time>2019-09-21T10:03:33.000Z</time>
      </trkpt>
      <trkpt lat="49.5101" lon="5.15966">
        <ele>178.082</ele>
        <time>2019-09-21T10:04:03.000Z</time>
      </trkpt>
      <trkpt lat="49.50906" lon="5.15867">
        <ele>170.729</ele>
        <time>2019-09-21T10:04:33.000Z</time>
      </trkpt>
      <trkpt lat="49.50813" lon="5.15811">
        <ele>171.104</ele>
        <time>2019-09-21T10:05:03.000Z</time>
      </trkpt>
      <trkpt lat="49.50721" lon="5.15793">
        <ele>170.062</ele>
        <time>2019-09-21T10:05:33.000Z</time>
      </trkpt>
      <trkpt lat="49.50617" lon="5.15779">
        <ele>169.806</ele>
        <time>2019-09-21T10:06:03.000Z</time>
      </trkpt>
      <trkpt lat="49.50504" lon="5.15773">
        <ele>170.034</ele>
        <time>2019-09-21T10:06:33.000Z</time>
      </trkpt>
      <trkpt lat="49.50384" lon="5.15675">
        <ele>171.313</ele>
        <time>2019-09-21T10:07:03.000Z</time>
      </trkpt>
      <trkpt lat="49.50265" lon="5.15613">
        <ele>170.734</ele>
        <time>2019-09-21T10:07:33.000Z</time>
      </trkpt>
      <trkpt lat="49.50169" lon="5.15647">
        <ele>169.494</ele>
        <time>2019-09-21T10:08:03.000Z</time>
      </trkpt>
      <trkpt lat="49.50069" lon="5.15693">
        <ele>169.287</ele>
        <time>2019-09-21T10:08:33.000Z</time>
      </trkpt>
      <trkpt lat="49.49959" lon="5.15732">
        <ele>168.816</ele>
        <time>2019-09-21T10:09:03.000Z</time>
      </trkpt>
      <trkpt lat="49.49853" lon="5.15779">
        <ele>170.556</ele>
        <time>2019-09-21T10:09:33.000Z</time>
      </trkpt>
      <trkpt lat="49.49751" lon="5.15831">
        <ele>170.608</ele>
        <time>2019-09-21T10:10:03.000Z</time>
      </trkpt>
      <trkpt lat="49.49638" lon="5.15888">
        <ele>172.079</ele>
        <time>2019-09-21T10:10:33.000Z</time>
      </trkpt>
      <trkpt lat="49.49547" lon="5.16016">
        <ele>170.741</ele>
        <time>2019-09-21T10:11:03.000Z</time>
      </trkpt>
      <trkpt lat="49.49432" lon="5.16059">
        <ele>169.835</ele>
        <time>2019-09-21T10:11:33.000Z</time>
      </trkpt>
      <trkpt lat="49.49307" lon="5.16139">
        <ele>173.639</ele>
        <time>2019-09-21T10:12:03.000Z</time>
      </trkpt>
      <trkpt lat="49.49175" lon="5.16245">
        <ele>181.245</ele>
        <time>2019-09-21T10:12:33.000Z</time>
      </trkpt>
      <trkpt lat="49.49082" lon="5.16315">
        <ele>181.696</ele>
        <time>2019-09-21T10:13:03.000Z</time>
      </trkpt>
      <trkpt lat="49.49" lon="5.16152">
        <ele>181.329</ele>
        <time>2019-09-21T10:13:33.000Z</time>
      </trkpt>
      <trkpt lat="49.48876" lon="5.16166">
        <ele>178.366</ele>
        <time>2019-09-21T10:14:03.000Z</time>
      </trkpt>
      <trkpt lat="49.48745" lon="5.16209">
        <ele>173.083</ele>
        <time>2019-09-21T10:14:33.000Z</time>
      </trkpt>
      <trkpt lat="49.48622" lon="5.1625">
        <ele>172.635</ele>
        <time>2019-09-21T10:15:03.000Z</time>
      </trkpt>
      <trkpt lat="49.4854" lon="5.16273">
        <ele>176.071</ele>
        <time>2019-09-21T10:21:03.000Z</time>
      </trkpt>
      <trkpt lat="49.48652" lon="5.16245">
        <ele>167.574</ele>
        <time>2019-09-21T10:21:39.000Z</time>
      </trkpt>
      <trkpt lat="49.48811" lon="5.1618">
        <ele>164.421</ele>
        <time>2019-09-21T10:22:09.000Z</time>
      </trkpt>
      <trkpt lat="49.4896" lon="5.16132">
        <ele>166.784</ele>
        <time>2019-09-21T10:22:39.000Z</time>
      </trkpt>
      <trkpt lat="49.49021" lon="5.16246">
        <ele>170.442</ele>
        <time>2019-09-21T10:23:09.000Z</time>
      </trkpt>
      <trkpt lat="49.4913" lon="5.16399">
        <ele>171.819</ele>
        <time>2019-09-21T10:23:39.000Z</time>
      </trkpt>
      <trkpt lat="49.49254" lon="5.16543">
        <ele>170.864</ele>
        <time>2019-09-21T10:24:09.000Z</time>
      </trkpt>
      <trkpt lat="49.49322" lon="5.16728">
        <ele>164</ele>
        <time>2019-09-21T10:24:39.000Z</time>
      </trkpt>
      <trkpt lat="49.49305" lon="5.16895">
        <ele>164.532</ele>
        <time>2019-09-21T10:25:09.000Z</time>
      </trkpt>
      <trkpt lat="49.4927" lon="5.17002">
        <ele>168.158</ele>
        <time>2019-09-21T10:25:39.000Z</time>
      </trkpt>
      <trkpt lat="49.49244" lon="5.17125">
        <ele>167.944</ele>
        <time>2019-09-21T10:26:09.000Z</time>
      </trkpt>
      <trkpt lat="49.49187" lon="5.17359">
        <ele>166.083</ele>
        <time>2019-09-21T10:26:39.000Z</time>
      </trkpt>
      <trkpt lat="49.49086" lon="5.17591">
        <ele>160.464</ele>
        <time>2019-09-21T10:27:12.000Z</time>
      </trkpt>
      <trkpt lat="49.49005" lon="5.17765">
        <ele>160.694</ele>
        <time>2019-09-21T10:27:42.000Z</time>
      </trkpt>
      <trkpt lat="49.48932" lon="5.17924">
        <ele>165.119</ele>
        <time>2019-09-21T10:28:12.000Z</time>
      </trkpt>
      <trkpt lat="49.48895" lon="5.18084">
        <ele>170.368</ele>
        <time>2019-09-21T10:28:42.000Z</time>
      </trkpt>
      <trkpt lat="49.48907" lon="5.18258">
        <ele>171.861</ele>
        <time>2019-09-21T10:29:12.000Z</time>
      </trkpt>
      <trkpt lat="49.49027" lon="5.18413">
        <ele>169.229</ele>
        <time>2019-09-21T10:29:42.000Z</time>
      </trkpt>
      <trkpt lat="49.4913" lon="5.1854">
        <ele>170.904</ele>
        <time>2019-09-21T10:30:12.000Z</time>
      </trkpt>
      <trkpt lat="49.49275" lon="5.18518">
        <ele>171.3</ele>
        <time>2019-09-21T10:30:42.000Z</time>
      </trkpt>
      <trkpt lat="49.49416" lon="5.18538">
        <ele>169.699</ele>
        <time>2019-09-21T10:31:12.000Z</time>
      </trkpt>
      <trkpt lat="49.49492" lon="5.18631">
        <ele>177.012</ele>
        <time>2019-09-21T10:31:42.000Z</time>
      </trkpt>
      <trkpt lat="49.49501" lon="5.18694">
        <ele>174.761</ele>
        <time>2019-09-21T10:32:12.000Z</time>
      </trkpt>
      <trkpt lat="49.49466" lon="5.18704">
        <ele>174.381</ele>
        <time>2019-09-21T10:34:27.000Z</time>
      </trkpt>
      <trkpt lat="49.49417" lon="5.18704">
        <ele>180.037</ele>
        <time>2019-09-21T10:36:36.000Z</time>
      </trkpt>
      <trkpt lat="49.49324" lon="5.18706">
        <ele>183.428</ele>
        <time>2019-09-21T10:37:09.000Z</time>
      </trkpt>
      <trkpt lat="49.49228" lon="5.18743">
        <ele>185.476</ele>
        <time>2019-09-21T10:37:39.000Z</time>
      </trkpt>
      <trkpt lat="49.49189" lon="5.18819">
        <ele>182.666</ele>
        <time>2019-09-21T10:38:12.000Z</time>
      </trkpt>
      <trkpt lat="49.49206" lon="5.18935">
        <ele>186.395</ele>
        <time>2019-09-21T10:38:42.000Z</time>
      </trkpt>
      <trkpt lat="49.49211" lon="5.19042">
        <ele>189.197</ele>
        <time>2019-09-21T10:39:12.000Z</time>
      </trkpt>
      <trkpt lat="49.49218" lon="5.19151">
        <ele>191.652</ele>
        <time>2019-09-21T10:39:42.000Z</time>
      </trkpt>
      <trkpt lat="49.49222" lon="5.19203">
        <ele>193.682</ele>
        <time>2019-09-21T10:43:03.000Z</time>
      </trkpt>
      <trkpt lat="49.49188" lon="5.19275">
        <ele>188.991</ele>
        <time>2019-09-21T10:44:00.000Z</time>
      </trkpt>
      <trkpt lat="49.49092" lon="5.19344">
        <ele>187.647</ele>
        <time>2019-09-21T10:44:30.000Z</time>
      </trkpt>
      <trkpt lat="49.48993" lon="5.19405">
        <ele>187.29</ele>
        <time>2019-09-21T10:45:00.000Z</time>
      </trkpt>
      <trkpt lat="49.48886" lon="5.19474">
        <ele>186.814</ele>
        <time>2019-09-21T10:45:30.000Z</time>
      </trkpt>
      <trkpt lat="49.48813" lon="5.19529">
        <ele>190.011</ele>
        <time>2019-09-21T10:46:00.000Z</time>
      </trkpt>
      <trkpt lat="49.48752" lon="5.19575">
        <ele>192.803</ele>
        <time>2019-09-21T10:46:30.000Z</time>
      </trkpt>
      <trkpt lat="49.48678" lon="5.19631">
        <ele>197.288</ele>
        <time>2019-09-21T10:47:00.000Z</time>
      </trkpt>
      <trkpt lat="49.48538" lon="5.19735">
        <ele>193.718</ele>
        <time>2019-09-21T10:47:30.000Z</time>
      </trkpt>
      <trkpt lat="49.48414" lon="5.19829">
        <ele>192.487</ele>
        <time>2019-09-21T10:48:00.000Z</time>
      </trkpt>
      <trkpt lat="49.4827" lon="5.19933">
        <ele>187.955</ele>
        <time>2019-09-21T10:48:30.000Z</time>
      </trkpt>
      <trkpt lat="49.4825" lon="5.20047">
        <ele>189.376</ele>
        <time>2019-09-21T10:49:00.000Z</time>
      </trkpt>
      <trkpt lat="49.48328" lon="5.20117">
        <ele>193.345</ele>
        <time>2019-09-21T10:49:30.000Z</time>
      </trkpt>
      <trkpt lat="49.48366" lon="5.20239">
        <ele>197.628</ele>
        <time>2019-09-21T10:50:00.000Z</time>
      </trkpt>
      <trkpt lat="49.4841" lon="5.20258">
        <ele>196.858</ele>
        <time>2019-09-21T11:19:00.000Z</time>
      </trkpt>
      <trkpt lat="49.4841" lon="5.20259">
        <ele>196.866</ele>
        <time>2019-09-21T11:25:27.000Z</time>
      </trkpt>
      <trkpt lat="49.48413" lon="5.20257">
        <ele>196.027</ele>
        <time>2019-09-21T11:26:24.000Z</time>
      </trkpt>
      <trkpt lat="49.48397" lon="5.20286">
        <ele>200.16</ele>
        <time>2019-09-21T11:41:09.000Z</time>
      </trkpt>
      <trkpt lat="49.4841" lon="5.20259">
        <ele>199.115</ele>
        <time>2019-09-21T11:42:39.000Z</time>
      </trkpt>
      <trkpt lat="49.48411" lon="5.20252">
        <ele>200.409</ele>
        <time>2019-09-21T11:47:27.000Z</time>
      </trkpt>
      <trkpt lat="49.48414" lon="5.20255">
        <ele>200.162</ele>
        <time>2019-09-21T12:03:54.000Z</time>
      </trkpt>
      <trkpt lat="49.48413" lon="5.20255">
        <ele>200.129</ele>
        <time>2019-09-21T12:10:33.000Z</time>
      </trkpt>
      <trkpt lat="49.48389" lon="5.20293">
        <ele>201.041</ele>
        <time>2019-09-21T12:11:06.000Z</time>
      </trkpt>
      <trkpt lat="49.48339" lon="5.20131">
        <ele>200.499</ele>
        <time>2019-09-21T12:11:36.000Z</time>
      </trkpt>
      <trkpt lat="49.48257" lon="5.20054">
        <ele>193.106</ele>
        <time>2019-09-21T12:12:06.000Z</time>
      </trkpt>
      <trkpt lat="49.4817" lon="5.20005">
        <ele>186.999</ele>
        <time>2019-09-21T12:12:36.000Z</time>
      </trkpt>
      <trkpt lat="49.4801" lon="5.20124">
        <ele>182.335</ele>
        <time>2019-09-21T12:13:06.000Z</time>
      </trkpt>
      <trkpt lat="49.47834" lon="5.20257">
        <ele>177.088</ele>
        <time>2019-09-21T12:13:36.000Z</time>
      </trkpt>
      <trkpt lat="49.47671" lon="5.20384">
        <ele>172.068</ele>
        <time>2019-09-21T12:14:06.000Z</time>
      </trkpt>
      <trkpt lat="49.47567" lon="5.20457">
        <ele>173.231</ele>
        <time>2019-09-21T12:14:36.000Z</time>
      </trkpt>
      <trkpt lat="49.47467" lon="5.20535">
        <ele>175.365</ele>
        <time>2019-09-21T12:15:06.000Z</time>
      </trkpt>
      <trkpt lat="49.47358" lon="5.20623">
        <ele>175.427</ele>
        <time>2019-09-21T12:15:36.000Z</time>
      </trkpt>
      <trkpt lat="49.47245" lon="5.20711">
        <ele>173.561</ele>
        <time>2019-09-21T12:16:06.000Z</time>
      </trkpt>
      <trkpt lat="49.47151" lon="5.20781">
        <ele>175.276</ele>
        <time>2019-09-21T12:16:36.000Z</time>
      </trkpt>
      <trkpt lat="49.47052" lon="5.20853">
        <ele>175.149</ele>
        <time>2019-09-21T12:17:06.000Z</time>
      </trkpt>
      <trkpt lat="49.46907" lon="5.20955">
        <ele>170.852</ele>
        <time>2019-09-21T12:17:36.000Z</time>
      </trkpt>
      <trkpt lat="49.46801" lon="5.21031">
        <ele>171.013</ele>
        <time>2019-09-21T12:18:06.000Z</time>
      </trkpt>
      <trkpt lat="49.46686" lon="5.21114">
        <ele>176.876</ele>
        <time>2019-09-21T12:18:36.000Z</time>
      </trkpt>
      <trkpt lat="49.46563" lon="5.21197">
        <ele>177.724</ele>
        <time>2019-09-21T12:19:06.000Z</time>
      </trkpt>
      <trkpt lat="49.46461" lon="5.21329">
        <ele>180.963</ele>
        <time>2019-09-21T12:19:36.000Z</time>
      </trkpt>
      <trkpt lat="49.46315" lon="5.21527">
        <ele>176.129</ele>
        <time>2019-09-21T12:20:09.000Z</time>
      </trkpt>
      <trkpt lat="49.46181" lon="5.21637">
        <ele>170.828</ele>
        <time>2019-09-21T12:20:39.000Z</time>
      </trkpt>
      <trkpt lat="49.46045" lon="5.21635">
        <ele>163.479</ele>
        <time>2019-09-21T12:21:09.000Z</time>
      </trkpt>
      <trkpt lat="49.45905" lon="5.21564">
        <ele>161.969</ele>
        <time>2019-09-21T12:21:39.000Z</time>
      </trkpt>
      <trkpt lat="49.45778" lon="5.21501">
        <ele>165.447</ele>
        <time>2019-09-21T12:22:09.000Z</time>
      </trkpt>
      <trkpt lat="49.45655" lon="5.21438">
        <ele>164.768</ele>
        <time>2019-09-21T12:22:39.000Z</time>
      </trkpt>
      <trkpt lat="49.45518" lon="5.21371">
        <ele>163.716</ele>
        <time>2019-09-21T12:23:09.000Z</time>
      </trkpt>
      <trkpt lat="49.45382" lon="5.21304">
        <ele>164.155</ele>
        <time>2019-09-21T12:23:39.000Z</time>
      </trkpt>
      <trkpt lat="49.45236" lon="5.21238">
        <ele>163.226</ele>
        <time>2019-09-21T12:24:09.000Z</time>
      </trkpt>
      <trkpt lat="49.45103" lon="5.21181">
        <ele>165.399</ele>
        <time>2019-09-21T12:24:39.000Z</time>
      </trkpt>
      <trkpt lat="49.44976" lon="5.21128">
        <ele>165.72</ele>
        <time>2019-09-21T12:25:09.000Z</time>
      </trkpt>
      <trkpt lat="49.44852" lon="5.21075">
        <ele>164.788</ele>
        <time>2019-09-21T12:25:39.000Z</time>
      </trkpt>
      <trkpt lat="49.44726" lon="5.21016">
        <ele>165.595</ele>
        <time>2019-09-21T12:26:09.000Z</time>
      </trkpt>
      <trkpt lat="49.44596" lon="5.2096">
        <ele>165.62</ele>
        <time>2019-09-21T12:26:39.000Z</time>
      </trkpt>
      <trkpt lat="49.44469" lon="5.20903">
        <ele>164.538</ele>
        <time>2019-09-21T12:27:09.000Z</time>
      </trkpt>
      <trkpt lat="49.44347" lon="5.20849">
        <ele>166.082</ele>
        <time>2019-09-21T12:27:39.000Z</time>
      </trkpt>
      <trkpt lat="49.44218" lon="5.20792">
        <ele>165.517</ele>
        <time>2019-09-21T12:28:09.000Z</time>
      </trkpt>
      <trkpt lat="49.44098" lon="5.20739">
        <ele>167.661</ele>
        <time>2019-09-21T12:28:39.000Z</time>
      </trkpt>
      <trkpt lat="49.43979" lon="5.20684">
        <ele>168.781</ele>
        <time>2019-09-21T12:29:09.000Z</time>
      </trkpt>
      <trkpt lat="49.43856" lon="5.20623">
        <ele>169.661</ele>
        <time>2019-09-21T12:29:39.000Z</time>
      </trkpt>
      <trkpt lat="49.43725" lon="5.2056">
        <ele>168.211</ele>
        <time>2019-09-21T12:30:09.000Z</time>
      </trkpt>
      <trkpt lat="49.436" lon="5.20498">
        <ele>167.506</ele>
        <time>2019-09-21T12:30:39.000Z</time>
      </trkpt>
      <trkpt lat="49.43485" lon="5.20439">
        <ele>167.328</ele>
        <time>2019-09-21T12:31:09.000Z</time>
      </trkpt>
      <trkpt lat="49.43355" lon="5.20378">
        <ele>167.72</ele>
        <time>2019-09-21T12:31:39.000Z</time>
      </trkpt>
      <trkpt lat="49.43232" lon="5.20316">
        <ele>168.46</ele>
        <time>2019-09-21T12:32:09.000Z</time>
      </trkpt>
      <trkpt lat="49.43103" lon="5.20275">
        <ele>169.626</ele>
        <time>2019-09-21T12:32:39.000Z</time>
      </trkpt>
      <trkpt lat="49.42977" lon="5.2025">
        <ele>168.15</ele>
        <time>2019-09-21T12:33:09.000Z</time>
      </trkpt>
      <trkpt lat="49.42849" lon="5.20225">
        <ele>168.029</ele>
        <time>2019-09-21T12:33:39.000Z</time>
      </trkpt>
      <trkpt lat="49.42717" lon="5.202">
        <ele>168.642</ele>
        <time>2019-09-21T12:34:09.000Z</time>
      </trkpt>
      <trkpt lat="49.42586" lon="5.2018">
        <ele>171.517</ele>
        <time>2019-09-21T12:34:39.000Z</time>
      </trkpt>
      <trkpt lat="49.42452" lon="5.20174">
        <ele>170.388</ele>
        <time>2019-09-21T12:35:09.000Z</time>
      </trkpt>
      <trkpt lat="49.42317" lon="5.20166">
        <ele>170.598</ele>
        <time>2019-09-21T12:35:39.000Z</time>
      </trkpt>
      <trkpt lat="49.42184" lon="5.20158">
        <ele>170.71</ele>
        <time>2019-09-21T12:36:09.000Z</time>
      </trkpt>
      <trkpt lat="49.42053" lon="5.2015">
        <ele>169.515</ele>
        <time>2019-09-21T12:36:39.000Z</time>
      </trkpt>
      <trkpt lat="49.4192" lon="5.20141">
        <ele>169.716</ele>
        <time>2019-09-21T12:37:09.000Z</time>
      </trkpt>
      <trkpt lat="49.41782" lon="5.20133">
        <ele>169.88</ele>
        <time>2019-09-21T12:37:39.000Z</time>
      </trkpt>
      <trkpt lat="49.41649" lon="5.20096">
        <ele>169.327</ele>
        <time>2019-09-21T12:38:09.000Z</time>
      </trkpt>
      <trkpt lat="49.41527" lon="5.2005">
        <ele>169.051</ele>
        <time>2019-09-21T12:38:39.000Z</time>
      </trkpt>
      <trkpt lat="49.41403" lon="5.20003">
        <ele>168.322</ele>
        <time>2019-09-21T12:39:09.000Z</time>
      </trkpt>
      <trkpt lat="49.4128" lon="5.19953">
        <ele>168.244</ele>
        <time>2019-09-21T12:39:39.000Z</time>
      </trkpt>
      <trkpt lat="49.41154" lon="5.19904">
        <ele>170.684</ele>
        <time>2019-09-21T12:40:09.000Z</time>
      </trkpt>
      <trkpt lat="49.41039" lon="5.19859">
        <ele>171.156</ele>
        <time>2019-09-21T12:40:39.000Z</time>
      </trkpt>
      <trkpt lat="49.41023" lon="5.19743">
        <ele>170.413</ele>
        <time>2019-09-21T12:41:09.000Z</time>
      </trkpt>
      <trkpt lat="49.41152" lon="5.19564">
        <ele>167.52</ele>
        <time>2019-09-21T12:41:39.000Z</time>
      </trkpt>
      <trkpt lat="49.4126" lon="5.19413">
        <ele>168.198</ele>
        <time>2019-09-21T12:42:09.000Z</time>
      </trkpt>
      <trkpt lat="49.41332" lon="5.19265">
        <ele>170.063</ele>
        <time>2019-09-21T12:42:39.000Z</time>
      </trkpt>
      <trkpt lat="49.41342" lon="5.19111">
        <ele>175.249</ele>
        <time>2019-09-21T12:43:09.000Z</time>
      </trkpt>
      <trkpt lat="49.41308" lon="5.18968">
        <ele>172.882</ele>
        <time>2019-09-21T12:43:39.000Z</time>
      </trkpt>
      <trkpt lat="49.41176" lon="5.19052">
        <ele>173.528</ele>
        <time>2019-09-21T12:44:09.000Z</time>
      </trkpt>
      <trkpt lat="49.41085" lon="5.19072">
        <ele>177.143</ele>
        <time>2019-09-21T12:44:39.000Z</time>
      </trkpt>
      <trkpt lat="49.4102" lon="5.19088">
        <ele>179.651</ele>
        <time>2019-09-21T12:45:09.000Z</time>
      </trkpt>
      <trkpt lat="49.40928" lon="5.19099">
        <ele>179.932</ele>
        <time>2019-09-21T12:45:39.000Z</time>
      </trkpt>
      <trkpt lat="49.40782" lon="5.19071">
        <ele>175.147</ele>
        <time>2019-09-21T12:46:09.000Z</time>
      </trkpt>
      <trkpt lat="49.4065" lon="5.18968">
        <ele>175.055</ele>
        <time>2019-09-21T12:46:39.000Z</time>
      </trkpt>
      <trkpt lat="49.40528" lon="5.18895">
        <ele>177.351</ele>
        <time>2019-09-21T12:47:09.000Z</time>
      </trkpt>
      <trkpt lat="49.40388" lon="5.18793">
        <ele>173.176</ele>
        <time>2019-09-21T12:47:39.000Z</time>
      </trkpt>
      <trkpt lat="49.40248" lon="5.18679">
        <ele>169.975</ele>
        <time>2019-09-21T12:48:09.000Z</time>
      </trkpt>
      <trkpt lat="49.40148" lon="5.1852">
        <ele>170.653</ele>
        <time>2019-09-21T12:48:39.000Z</time>
      </trkpt>
      <trkpt lat="49.40065" lon="5.18359">
        <ele>171.691</ele>
        <time>2019-09-21T12:49:09.000Z</time>
      </trkpt>
      <trkpt lat="49.39976" lon="5.1819">
        <ele>173.568</ele>
        <time>2019-09-21T12:49:42.000Z</time>
      </trkpt>
      <trkpt lat="49.39897" lon="5.18037">
        <ele>177.274</ele>
        <time>2019-09-21T12:50:12.000Z</time>
      </trkpt>
      <trkpt lat="49.3982" lon="5.17888">
        <ele>178.516</ele>
        <time>2019-09-21T12:50:42.000Z</time>
      </trkpt>
      <trkpt lat="49.39742" lon="5.1773">
        <ele>177.762</ele>
        <time>2019-09-21T12:51:12.000Z</time>
      </trkpt>
      <trkpt lat="49.39687" lon="5.17614">
        <ele>181.145</ele>
        <time>2019-09-21T12:51:42.000Z</time>
      </trkpt>
      <trkpt lat="49.39631" lon="5.17504">
        <ele>185.168</ele>
        <time>2019-09-21T12:52:12.000Z</time>
      </trkpt>
      <trkpt lat="49.39566" lon="5.17373">
        <ele>187.493</ele>
        <time>2019-09-21T12:52:42.000Z</time>
      </trkpt>
      <trkpt lat="49.39464" lon="5.17217">
        <ele>180.032</ele>
        <time>2019-09-21T12:53:12.000Z</time>
      </trkpt>
      <trkpt lat="49.39353" lon="5.17054">
        <ele>178.378</ele>
        <time>2019-09-21T12:53:42.000Z</time>
      </trkpt>
      <trkpt lat="49.39307" lon="5.16837">
        <ele>177.129</ele>
        <time>2019-09-21T12:54:12.000Z</time>
      </trkpt>
      <trkpt lat="49.39196" lon="5.16684">
        <ele>174.98</ele>
        <time>2019-09-21T12:54:42.000Z</time>
      </trkpt>
      <trkpt lat="49.39022" lon="5.16672">
        <ele>173.883</ele>
        <time>2019-09-21T12:55:12.000Z</time>
      </trkpt>
      <trkpt lat="49.38906" lon="5.16676">
        <ele>175.1</ele>
        <time>2019-09-21T12:55:42.000Z</time>
      </trkpt>
      <trkpt lat="49.38829" lon="5.16691">
        <ele>178.587</ele>
        <time>2019-09-21T12:56:12.000Z</time>
      </trkpt>
      <trkpt lat="49.38685" lon="5.16709">
        <ele>174.102</ele>
        <time>2019-09-21T12:56:42.000Z</time>
      </trkpt>
      <trkpt lat="49.38527" lon="5.1669">
        <ele>171.573</ele>
        <time>2019-09-21T12:57:12.000Z</time>
      </trkpt>
      <trkpt lat="49.38411" lon="5.1671">
        <ele>171.473</ele>
        <time>2019-09-21T12:57:42.000Z</time>
      </trkpt>
      <trkpt lat="49.38316" lon="5.16761">
        <ele>173.705</ele>
        <time>2019-09-21T12:58:12.000Z</time>
      </trkpt>
      <trkpt lat="49.38241" lon="5.16824">
        <ele>179.056</ele>
        <time>2019-09-21T12:58:42.000Z</time>
      </trkpt>
      <trkpt lat="49.38151" lon="5.16895">
        <ele>183.116</ele>
        <time>2019-09-21T12:59:12.000Z</time>
      </trkpt>
      <trkpt lat="49.3806" lon="5.16892">
        <ele>180.799</ele>
        <time>2019-09-21T12:59:42.000Z</time>
      </trkpt>
      <trkpt lat="49.37955" lon="5.16973">
        <ele>183.035</ele>
        <time>2019-09-21T13:00:12.000Z</time>
      </trkpt>
      <trkpt lat="49.37844" lon="5.17073">
        <ele>179.687</ele>
        <time>2019-09-21T13:00:42.000Z</time>
      </trkpt>
      <trkpt lat="49.37777" lon="5.1714">
        <ele>182.623</ele>
        <time>2019-09-21T13:01:12.000Z</time>
      </trkpt>
      <trkpt lat="49.37693" lon="5.17214">
        <ele>184.546</ele>
        <time>2019-09-21T13:01:42.000Z</time>
      </trkpt>
      <trkpt lat="49.37579" lon="5.17381">
        <ele>178.818</ele>
        <time>2019-09-21T13:02:12.000Z</time>
      </trkpt>
      <trkpt lat="49.37494" lon="5.17584">
        <ele>173.732</ele>
        <time>2019-09-21T13:02:42.000Z</time>
      </trkpt>
      <trkpt lat="49.37381" lon="5.1771">
        <ele>171.303</ele>
        <time>2019-09-21T13:03:12.000Z</time>
      </trkpt>
      <trkpt lat="49.37251" lon="5.17769">
        <ele>172.96</ele>
        <time>2019-09-21T13:03:42.000Z</time>
      </trkpt>
      <trkpt lat="49.37133" lon="5.17824">
        <ele>173.762</ele>
        <time>2019-09-21T13:04:12.000Z</time>
      </trkpt>
      <trkpt lat="49.37016" lon="5.17875">
        <ele>172.282</ele>
        <time>2019-09-21T13:04:42.000Z</time>
      </trkpt>
      <trkpt lat="49.36897" lon="5.17904">
        <ele>176.688</ele>
        <time>2019-09-21T13:05:12.000Z</time>
      </trkpt>
      <trkpt lat="49.36776" lon="5.17929">
        <ele>179.942</ele>
        <time>2019-09-21T13:05:42.000Z</time>
      </trkpt>
      <trkpt lat="49.36691" lon="5.17936">
        <ele>183.9</ele>
        <time>2019-09-21T13:06:12.000Z</time>
      </trkpt>
      <trkpt lat="49.36642" lon="5.17979">
        <ele>190.457</ele>
        <time>2019-09-21T13:06:45.000Z</time>
      </trkpt>
      <trkpt lat="49.36594" lon="5.18031">
        <ele>194.74</ele>
        <time>2019-09-21T13:07:21.000Z</time>
      </trkpt>
      <trkpt lat="49.36546" lon="5.18079">
        <ele>197.054</ele>
        <time>2019-09-21T13:07:57.000Z</time>
      </trkpt>
      <trkpt lat="49.36495" lon="5.18118">
        <ele>201.863</ele>
        <time>2019-09-21T13:08:30.000Z</time>
      </trkpt>
      <trkpt lat="49.3644" lon="5.18139">
        <ele>201.762</ele>
        <time>2019-09-21T13:09:00.000Z</time>
      </trkpt>
      <trkpt lat="49.36373" lon="5.18148">
        <ele>201.855</ele>
        <time>2019-09-21T13:09:30.000Z</time>
      </trkpt>
      <trkpt lat="49.36258" lon="5.18142">
        <ele>200.513</ele>
        <time>2019-09-21T13:10:00.000Z</time>
      </trkpt>
      <trkpt lat="49.36057" lon="5.18127">
        <ele>193.217</ele>
        <time>2019-09-21T13:10:30.000Z</time>
      </trkpt>
      <trkpt lat="49.35853" lon="5.17909">
        <ele>184.347</ele>
        <time>2019-09-21T13:11:00.000Z</time>
      </trkpt>
      <trkpt lat="49.35653" lon="5.17887">
        <ele>181.217</ele>
        <time>2019-09-21T13:11:30.000Z</time>
      </trkpt>
      <trkpt lat="49.35574" lon="5.17889">
        <ele>185.245</ele>
        <time>2019-09-21T13:12:00.000Z</time>
      </trkpt>
      <trkpt lat="49.35487" lon="5.17875">
        <ele>187.169</ele>
        <time>2019-09-21T13:12:30.000Z</time>
      </trkpt>
      <trkpt lat="49.35283" lon="5.17837">
        <ele>181.411</ele>
        <time>2019-09-21T13:13:00.000Z</time>
      </trkpt>
      <trkpt lat="49.35075" lon="5.17827">
        <ele>177.396</ele>
        <time>2019-09-21T13:13:30.000Z</time>
      </trkpt>
      <trkpt lat="49.34923" lon="5.17851">
        <ele>176.647</ele>
        <time>2019-09-21T13:14:00.000Z</time>
      </trkpt>
      <trkpt lat="49.34778" lon="5.17885">
        <ele>176.293</ele>
        <time>2019-09-21T13:14:30.000Z</time>
      </trkpt>
      <trkpt lat="49.34649" lon="5.17916">
        <ele>177.358</ele>
        <time>2019-09-21T13:15:00.000Z</time>
      </trkpt>
      <trkpt lat="49.34533" lon="5.17943">
        <ele>180</ele>
        <time>2019-09-21T13:15:30.000Z</time>
      </trkpt>
      <trkpt lat="49.34416" lon="5.17967">
        <ele>176.658</ele>
        <time>2019-09-21T13:16:00.000Z</time>
      </trkpt>
      <trkpt lat="49.34292" lon="5.18032">
        <ele>175.597</ele>
        <time>2019-09-21T13:16:30.000Z</time>
      </trkpt>
      <trkpt lat="49.34169" lon="5.18104">
        <ele>176.238</ele>
        <time>2019-09-21T13:17:00.000Z</time>
      </trkpt>
      <trkpt lat="49.34063" lon="5.18204">
        <ele>176.377</ele>
        <time>2019-09-21T13:17:30.000Z</time>
      </trkpt>
      <trkpt lat="49.33957" lon="5.18312">
        <ele>177.73</ele>
        <time>2019-09-21T13:18:00.000Z</time>
      </trkpt>
      <trkpt lat="49.33847" lon="5.18415">
        <ele>176.278</ele>
        <time>2019-09-21T13:18:30.000Z</time>
      </trkpt>
      <trkpt lat="49.33737" lon="5.18517">
        <ele>175.984</ele>
        <time>2019-09-21T13:19:00.000Z</time>
      </trkpt>
      <trkpt lat="49.33619" lon="5.18627">
        <ele>174.32</ele>
        <time>2019-09-21T13:19:33.000Z</time>
      </trkpt>
      <trkpt lat="49.3354" lon="5.18693">
        <ele>175.976</ele>
        <time>2019-09-21T13:20:03.000Z</time>
      </trkpt>
      <trkpt lat="49.33542" lon="5.18694">
        <ele>176.015</ele>
        <time>2019-09-21T13:23:21.000Z</time>
      </trkpt>
      <trkpt lat="49.33542" lon="5.18691">
        <ele>176.428</ele>
        <time>2019-09-21T13:39:27.000Z</time>
      </trkpt>
      <trkpt lat="49.33542" lon="5.18691">
        <ele>176.428</ele>
        <time>2019-09-21T13:43:09.000Z</time>
      </trkpt>
      <trkpt lat="49.33521" lon="5.18718">
        <ele>177.988</ele>
        <time>2019-09-21T13:46:21.000Z</time>
      </trkpt>
      <trkpt lat="49.33446" lon="5.18816">
        <ele>179.095</ele>
        <time>2019-09-21T13:46:51.000Z</time>
      </trkpt>
      <trkpt lat="49.33371" lon="5.18919">
        <ele>177.404</ele>
        <time>2019-09-21T13:47:21.000Z</time>
      </trkpt>
      <trkpt lat="49.33295" lon="5.18988">
        <ele>178.59</ele>
        <time>2019-09-21T13:47:51.000Z</time>
      </trkpt>
      <trkpt lat="49.33213" lon="5.19136">
        <ele>179.945</ele>
        <time>2019-09-21T13:48:21.000Z</time>
      </trkpt>
      <trkpt lat="49.33149" lon="5.19263">
        <ele>182.239</ele>
        <time>2019-09-21T13:48:51.000Z</time>
      </trkpt>
      <trkpt lat="49.33076" lon="5.19449">
        <ele>180.486</ele>
        <time>2019-09-21T13:49:21.000Z</time>
      </trkpt>
      <trkpt lat="49.33" lon="5.19648">
        <ele>182.809</ele>
        <time>2019-09-21T13:49:51.000Z</time>
      </trkpt>
      <trkpt lat="49.32939" lon="5.19842">
        <ele>178.956</ele>
        <time>2019-09-21T13:50:21.000Z</time>
      </trkpt>
      <trkpt lat="49.32877" lon="5.20052">
        <ele>181.687</ele>
        <time>2019-09-21T13:50:51.000Z</time>
      </trkpt>
      <trkpt lat="49.32815" lon="5.20231">
        <ele>182.645</ele>
        <time>2019-09-21T13:51:21.000Z</time>
      </trkpt>
      <trkpt lat="49.32748" lon="5.20407">
        <ele>184.965</ele>
        <time>2019-09-21T13:51:51.000Z</time>
      </trkpt>
      <trkpt lat="49.32686" lon="5.20562">
        <ele>179.901</ele>
        <time>2019-09-21T13:52:21.000Z</time>
      </trkpt>
      <trkpt lat="49.32645" lon="5.2072">
        <ele>185.849</ele>
        <time>2019-09-21T13:52:51.000Z</time>
      </trkpt>
      <trkpt lat="49.32607" lon="5.20859">
        <ele>189.157</ele>
        <time>2019-09-21T13:53:21.000Z</time>
      </trkpt>
      <trkpt lat="49.32544" lon="5.21018">
        <ele>187.439</ele>
        <time>2019-09-21T13:53:51.001Z</time>
      </trkpt>
      <trkpt lat="49.3247" lon="5.21214">
        <ele>180.697</ele>
        <time>2019-09-21T13:54:21.000Z</time>
      </trkpt>
      <trkpt lat="49.32416" lon="5.21402">
        <ele>178.79</ele>
        <time>2019-09-21T13:54:51.000Z</time>
      </trkpt>
      <trkpt lat="49.32378" lon="5.21608">
        <ele>176.313</ele>
        <time>2019-09-21T13:55:21.000Z</time>
      </trkpt>
      <trkpt lat="49.32352" lon="5.21822">
        <ele>176.916</ele>
        <time>2019-09-21T13:55:51.000Z</time>
      </trkpt>
      <trkpt lat="49.32331" lon="5.22011">
        <ele>183.216</ele>
        <time>2019-09-21T13:56:21.000Z</time>
      </trkpt>
      <trkpt lat="49.32322" lon="5.2222">
        <ele>193.169</ele>
        <time>2019-09-21T13:56:51.000Z</time>
      </trkpt>
      <trkpt lat="49.32317" lon="5.22434">
        <ele>188.528</ele>
        <time>2019-09-21T13:57:21.000Z</time>
      </trkpt>
      <trkpt lat="49.32311" lon="5.22638">
        <ele>184.56</ele>
        <time>2019-09-21T13:57:51.000Z</time>
      </trkpt>
      <trkpt lat="49.3231" lon="5.22837">
        <ele>181.712</ele>
        <time>2019-09-21T13:58:21.000Z</time>
      </trkpt>
      <trkpt lat="49.32328" lon="5.23047">
        <ele>178.098</ele>
        <time>2019-09-21T13:58:51.000Z</time>
      </trkpt>
      <trkpt lat="49.32347" lon="5.23252">
        <ele>176.312</ele>
        <time>2019-09-21T13:59:21.000Z</time>
      </trkpt>
      <trkpt lat="49.32365" lon="5.2345">
        <ele>178.056</ele>
        <time>2019-09-21T13:59:51.000Z</time>
      </trkpt>
      <trkpt lat="49.32387" lon="5.23652">
        <ele>178.272</ele>
        <time>2019-09-21T14:00:21.000Z</time>
      </trkpt>
      <trkpt lat="49.32413" lon="5.23859">
        <ele>180.213</ele>
        <time>2019-09-21T14:00:51.000Z</time>
      </trkpt>
      <trkpt lat="49.32432" lon="5.24033">
        <ele>179.958</ele>
        <time>2019-09-21T14:01:21.000Z</time>
      </trkpt>
      <trkpt lat="49.32453" lon="5.242">
        <ele>181.039</ele>
        <time>2019-09-21T14:01:51.000Z</time>
      </trkpt>
      <trkpt lat="49.32474" lon="5.24371">
        <ele>181.19</ele>
        <time>2019-09-21T14:02:21.000Z</time>
      </trkpt>
      <trkpt lat="49.32494" lon="5.24536">
        <ele>182.887</ele>
        <time>2019-09-21T14:02:51.000Z</time>
      </trkpt>
      <trkpt lat="49.32509" lon="5.24687">
        <ele>187.013</ele>
        <time>2019-09-21T14:03:21.000Z</time>
      </trkpt>
      <trkpt lat="49.3253" lon="5.24844">
        <ele>183.429</ele>
        <time>2019-09-21T14:03:51.000Z</time>
      </trkpt>
      <trkpt lat="49.32546" lon="5.24991">
        <ele>185.222</ele>
        <time>2019-09-21T14:04:21.000Z</time>
      </trkpt>
      <trkpt lat="49.32563" lon="5.25124">
        <ele>190.1</ele>
        <time>2019-09-21T14:04:51.000Z</time>
      </trkpt>
      <trkpt lat="49.32576" lon="5.25245">
        <ele>191.276</ele>
        <time>2019-09-21T14:05:21.000Z</time>
      </trkpt>
      <trkpt lat="49.32566" lon="5.25381">
        <ele>190.429</ele>
        <time>2019-09-21T14:05:51.000Z</time>
      </trkpt>
      <trkpt lat="49.32483" lon="5.25456">
        <ele>188.56</ele>
        <time>2019-09-21T14:06:21.000Z</time>
      </trkpt>
      <trkpt lat="49.3231" lon="5.25436">
        <ele>190.158</ele>
        <time>2019-09-21T14:06:51.000Z</time>
      </trkpt>
      <trkpt lat="49.32076" lon="5.25374">
        <ele>180.783</ele>
        <time>2019-09-21T14:07:21.000Z</time>
      </trkpt>
      <trkpt lat="49.31922" lon="5.25299">
        <ele>178.087</ele>
        <time>2019-09-21T14:07:51.000Z</time>
      </trkpt>
      <trkpt lat="49.31788" lon="5.25222">
        <ele>178.72</ele>
        <time>2019-09-21T14:08:21.000Z</time>
      </trkpt>
      <trkpt lat="49.31652" lon="5.25182">
        <ele>179.762</ele>
        <time>2019-09-21T14:08:51.000Z</time>
      </trkpt>
      <trkpt lat="49.31498" lon="5.25169">
        <ele>179.602</ele>
        <time>2019-09-21T14:09:21.000Z</time>
      </trkpt>
      <trkpt lat="49.31365" lon="5.25208">
        <ele>178.158</ele>
        <time>2019-09-21T14:09:51.000Z</time>
      </trkpt>
      <trkpt lat="49.31245" lon="5.25248">
        <ele>179.473</ele>
        <time>2019-09-21T14:10:21.000Z</time>
      </trkpt>
      <trkpt lat="49.31083" lon="5.25303">
        <ele>180.96</ele>
        <time>2019-09-21T14:10:51.000Z</time>
      </trkpt>
      <trkpt lat="49.30975" lon="5.25341">
        <ele>182.406</ele>
        <time>2019-09-21T14:11:21.000Z</time>
      </trkpt>
      <trkpt lat="49.30882" lon="5.2537">
        <ele>186.599</ele>
        <time>2019-09-21T14:11:51.000Z</time>
      </trkpt>
      <trkpt lat="49.30692" lon="5.25348">
        <ele>184.169</ele>
        <time>2019-09-21T14:12:21.000Z</time>
      </trkpt>
      <trkpt lat="49.3057" lon="5.25369">
        <ele>180.365</ele>
        <time>2019-09-21T14:12:51.000Z</time>
      </trkpt>
      <trkpt lat="49.30488" lon="5.25422">
        <ele>179.171</ele>
        <time>2019-09-21T14:13:24.000Z</time>
      </trkpt>
      <trkpt lat="49.30422" lon="5.25471">
        <ele>182.934</ele>
        <time>2019-09-21T14:13:54.000Z</time>
      </trkpt>
      <trkpt lat="49.30356" lon="5.2552">
        <ele>186.638</ele>
        <time>2019-09-21T14:14:24.000Z</time>
      </trkpt>
      <trkpt lat="49.30274" lon="5.25576">
        <ele>191.112</ele>
        <time>2019-09-21T14:14:54.000Z</time>
      </trkpt>
      <trkpt lat="49.3018" lon="5.25638">
        <ele>192.791</ele>
        <time>2019-09-21T14:15:24.000Z</time>
      </trkpt>
      <trkpt lat="49.30082" lon="5.25707">
        <ele>192.23</ele>
        <time>2019-09-21T14:15:54.000Z</time>
      </trkpt>
      <trkpt lat="49.29977" lon="5.25781">
        <ele>195.765</ele>
        <time>2019-09-21T14:16:24.000Z</time>
      </trkpt>
      <trkpt lat="49.29878" lon="5.25857">
        <ele>196.685</ele>
        <time>2019-09-21T14:16:54.000Z</time>
      </trkpt>
      <trkpt lat="49.29779" lon="5.25928">
        <ele>191.962</ele>
        <time>2019-09-21T14:17:24.000Z</time>
      </trkpt>
      <trkpt lat="49.29701" lon="5.25993">
        <ele>198.878</ele>
        <time>2019-09-21T14:17:54.000Z</time>
      </trkpt>
      <trkpt lat="49.29636" lon="5.26053">
        <ele>202.878</ele>
        <time>2019-09-21T14:18:24.000Z</time>
      </trkpt>
      <trkpt lat="49.29571" lon="5.26111">
        <ele>205.412</ele>
        <time>2019-09-21T14:18:54.000Z</time>
      </trkpt>
      <trkpt lat="49.29498" lon="5.26177">
        <ele>205.6</ele>
        <time>2019-09-21T14:19:24.000Z</time>
      </trkpt>
      <trkpt lat="49.2941" lon="5.26246">
        <ele>205.535</ele>
        <time>2019-09-21T14:19:54.000Z</time>
      </trkpt>
      <trkpt lat="49.29305" lon="5.26328">
        <ele>207.403</ele>
        <time>2019-09-21T14:20:24.000Z</time>
      </trkpt>
      <trkpt lat="49.29208" lon="5.2641">
        <ele>207.804</ele>
        <time>2019-09-21T14:20:54.000Z</time>
      </trkpt>
      <trkpt lat="49.29115" lon="5.26489">
        <ele>206.229</ele>
        <time>2019-09-21T14:21:24.000Z</time>
      </trkpt>
      <trkpt lat="49.29012" lon="5.26554">
        <ele>207.692</ele>
        <time>2019-09-21T14:21:54.000Z</time>
      </trkpt>
      <trkpt lat="49.28915" lon="5.26642">
        <ele>208.892</ele>
        <time>2019-09-21T14:22:24.000Z</time>
      </trkpt>
      <trkpt lat="49.28808" lon="5.26775">
        <ele>208.42</ele>
        <time>2019-09-21T14:22:54.000Z</time>
      </trkpt>
      <trkpt lat="49.28613" lon="5.26974">
        <ele>203.492</ele>
        <time>2019-09-21T14:23:24.000Z</time>
      </trkpt>
      <trkpt lat="49.28427" lon="5.27272">
        <ele>187.088</ele>
        <time>2019-09-21T14:23:54.000Z</time>
      </trkpt>
      <trkpt lat="49.28232" lon="5.27466">
        <ele>180.744</ele>
        <time>2019-09-21T14:24:24.000Z</time>
      </trkpt>
      <trkpt lat="49.28234" lon="5.27652">
        <ele>182.864</ele>
        <time>2019-09-21T14:24:54.000Z</time>
      </trkpt>
      <trkpt lat="49.28287" lon="5.27821">
        <ele>183.278</ele>
        <time>2019-09-21T14:25:24.000Z</time>
      </trkpt>
      <trkpt lat="49.28335" lon="5.2798">
        <ele>183.613</ele>
        <time>2019-09-21T14:25:54.000Z</time>
      </trkpt>
      <trkpt lat="49.28394" lon="5.28138">
        <ele>184.014</ele>
        <time>2019-09-21T14:26:24.000Z</time>
      </trkpt>
      <trkpt lat="49.28458" lon="5.28249">
        <ele>185.53</ele>
        <time>2019-09-21T14:26:54.000Z</time>
      </trkpt>
      <trkpt lat="49.28418" lon="5.28304">
        <ele>187.322</ele>
        <time>2019-09-21T14:32:15.000Z</time>
      </trkpt>
      <trkpt lat="49.28365" lon="5.28391">
        <ele>187.244</ele>
        <time>2019-09-21T14:32:45.000Z</time>
      </trkpt>
    </trkseg>
  </trk>
  <trk>
    <name><![CDATA[Tracé 20190922-094848]]></name>
    <trkseg>
      <trkpt lat="49.28374" lon="5.28388">
        <ele>189.808</ele>
        <time>2019-09-22T08:01:55.000Z</time>
      </trkpt>
      <trkpt lat="49.28451" lon="5.28225">
        <ele>188.875</ele>
        <time>2019-09-22T08:05:49.000Z</time>
      </trkpt>
      <trkpt lat="49.28374" lon="5.2808">
        <ele>186.703</ele>
        <time>2019-09-22T08:06:19.000Z</time>
      </trkpt>
      <trkpt lat="49.28323" lon="5.27911">
        <ele>185.795</ele>
        <time>2019-09-22T08:06:49.000Z</time>
      </trkpt>
      <trkpt lat="49.28269" lon="5.27739">
        <ele>184.9</ele>
        <time>2019-09-22T08:07:19.000Z</time>
      </trkpt>
      <trkpt lat="49.28212" lon="5.27554">
        <ele>185.341</ele>
        <time>2019-09-22T08:07:49.000Z</time>
      </trkpt>
      <trkpt lat="49.28119" lon="5.27565">
        <ele>186.287</ele>
        <time>2019-09-22T08:08:19.000Z</time>
      </trkpt>
      <trkpt lat="49.28013" lon="5.27661">
        <ele>185.165</ele>
        <time>2019-09-22T08:08:49.000Z</time>
      </trkpt>
      <trkpt lat="49.27908" lon="5.27741">
        <ele>191</ele>
        <time>2019-09-22T08:09:19.000Z</time>
      </trkpt>
      <trkpt lat="49.27787" lon="5.2783">
        <ele>191.48</ele>
        <time>2019-09-22T08:09:49.000Z</time>
      </trkpt>
      <trkpt lat="49.27655" lon="5.27938">
        <ele>191.506</ele>
        <time>2019-09-22T08:10:19.000Z</time>
      </trkpt>
      <trkpt lat="49.27496" lon="5.28053">
        <ele>186.897</ele>
        <time>2019-09-22T08:10:49.000Z</time>
      </trkpt>
      <trkpt lat="49.27363" lon="5.28182">
        <ele>184.562</ele>
        <time>2019-09-22T08:11:19.000Z</time>
      </trkpt>
      <trkpt lat="49.27235" lon="5.28305">
        <ele>184.273</ele>
        <time>2019-09-22T08:11:49.000Z</time>
      </trkpt>
      <trkpt lat="49.2711" lon="5.28426">
        <ele>184.591</ele>
        <time>2019-09-22T08:12:19.000Z</time>
      </trkpt>
      <trkpt lat="49.27015" lon="5.28556">
        <ele>187.483</ele>
        <time>2019-09-22T08:12:49.000Z</time>
      </trkpt>
      <trkpt lat="49.2693" lon="5.28672">
        <ele>189.504</ele>
        <time>2019-09-22T08:13:19.000Z</time>
      </trkpt>
      <trkpt lat="49.26851" lon="5.28788">
        <ele>192.408</ele>
        <time>2019-09-22T08:13:49.000Z</time>
      </trkpt>
      <trkpt lat="49.26762" lon="5.289">
        <ele>190.959</ele>
        <time>2019-09-22T08:14:19.000Z</time>
      </trkpt>
      <trkpt lat="49.26668" lon="5.29007">
        <ele>192.361</ele>
        <time>2019-09-22T08:14:49.000Z</time>
      </trkpt>
      <trkpt lat="49.26564" lon="5.29074">
        <ele>193.518</ele>
        <time>2019-09-22T08:15:19.000Z</time>
      </trkpt>
      <trkpt lat="49.26442" lon="5.29072">
        <ele>196.666</ele>
        <time>2019-09-22T08:15:49.000Z</time>
      </trkpt>
      <trkpt lat="49.26332" lon="5.29083">
        <ele>192.791</ele>
        <time>2019-09-22T08:18:10.000Z</time>
      </trkpt>
      <trkpt lat="49.26182" lon="5.29143">
        <ele>191.39</ele>
        <time>2019-09-22T08:18:40.000Z</time>
      </trkpt>
      <trkpt lat="49.26053" lon="5.29164">
        <ele>188.561</ele>
        <time>2019-09-22T08:19:10.000Z</time>
      </trkpt>
      <trkpt lat="49.25932" lon="5.29087">
        <ele>187.065</ele>
        <time>2019-09-22T08:19:40.000Z</time>
      </trkpt>
      <trkpt lat="49.25983" lon="5.29249">
        <ele>184.894</ele>
        <time>2019-09-22T08:20:10.000Z</time>
      </trkpt>
      <trkpt lat="49.26071" lon="5.29429">
        <ele>189.183</ele>
        <time>2019-09-22T08:20:40.000Z</time>
      </trkpt>
      <trkpt lat="49.26146" lon="5.29621">
        <ele>186.487</ele>
        <time>2019-09-22T08:21:10.000Z</time>
      </trkpt>
      <trkpt lat="49.26196" lon="5.29834">
        <ele>186.355</ele>
        <time>2019-09-22T08:21:40.000Z</time>
      </trkpt>
      <trkpt lat="49.26244" lon="5.30054">
        <ele>185.066</ele>
        <time>2019-09-22T08:22:10.000Z</time>
      </trkpt>
      <trkpt lat="49.26226" lon="5.30258">
        <ele>185.16</ele>
        <time>2019-09-22T08:22:40.000Z</time>
      </trkpt>
      <trkpt lat="49.26129" lon="5.30395">
        <ele>183.91</ele>
        <time>2019-09-22T08:23:10.000Z</time>
      </trkpt>
      <trkpt lat="49.26051" lon="5.30559">
        <ele>183.682</ele>
        <time>2019-09-22T08:23:40.000Z</time>
      </trkpt>
      <trkpt lat="49.25997" lon="5.30749">
        <ele>181.98</ele>
        <time>2019-09-22T08:24:10.000Z</time>
      </trkpt>
      <trkpt lat="49.25954" lon="5.30948">
        <ele>183.822</ele>
        <time>2019-09-22T08:24:40.000Z</time>
      </trkpt>
      <trkpt lat="49.25926" lon="5.31155">
        <ele>184.199</ele>
        <time>2019-09-22T08:25:10.000Z</time>
      </trkpt>
      <trkpt lat="49.25895" lon="5.31355">
        <ele>183.892</ele>
        <time>2019-09-22T08:25:40.000Z</time>
      </trkpt>
      <trkpt lat="49.25855" lon="5.31554">
        <ele>184.932</ele>
        <time>2019-09-22T08:26:10.000Z</time>
      </trkpt>
      <trkpt lat="49.25818" lon="5.31752">
        <ele>183.907</ele>
        <time>2019-09-22T08:26:40.000Z</time>
      </trkpt>
      <trkpt lat="49.25797" lon="5.31939">
        <ele>183.549</ele>
        <time>2019-09-22T08:27:10.000Z</time>
      </trkpt>
      <trkpt lat="49.25772" lon="5.32143">
        <ele>182.688</ele>
        <time>2019-09-22T08:27:40.000Z</time>
      </trkpt>
      <trkpt lat="49.25695" lon="5.32313">
        <ele>184.406</ele>
        <time>2019-09-22T08:28:10.000Z</time>
      </trkpt>
      <trkpt lat="49.25592" lon="5.32448">
        <ele>183.86</ele>
        <time>2019-09-22T08:28:40.000Z</time>
      </trkpt>
      <trkpt lat="49.25481" lon="5.32541">
        <ele>187.097</ele>
        <time>2019-09-22T08:29:10.000Z</time>
      </trkpt>
      <trkpt lat="49.25381" lon="5.32591">
        <ele>191.672</ele>
        <time>2019-09-22T08:29:40.000Z</time>
      </trkpt>
      <trkpt lat="49.25345" lon="5.32783">
        <ele>189.758</ele>
        <time>2019-09-22T08:30:10.000Z</time>
      </trkpt>
      <trkpt lat="49.25285" lon="5.32983">
        <ele>183.756</ele>
        <time>2019-09-22T08:30:40.000Z</time>
      </trkpt>
      <trkpt lat="49.25238" lon="5.33137">
        <ele>187.818</ele>
        <time>2019-09-22T08:31:10.000Z</time>
      </trkpt>
      <trkpt lat="49.25312" lon="5.33358">
        <ele>184.658</ele>
        <time>2019-09-22T08:31:40.000Z</time>
      </trkpt>
      <trkpt lat="49.25359" lon="5.33542">
        <ele>185.179</ele>
        <time>2019-09-22T08:32:10.000Z</time>
      </trkpt>
      <trkpt lat="49.25295" lon="5.33645">
        <ele>187.472</ele>
        <time>2019-09-22T08:32:40.000Z</time>
      </trkpt>
      <trkpt lat="49.25184" lon="5.3374">
        <ele>187.426</ele>
        <time>2019-09-22T08:33:10.000Z</time>
      </trkpt>
      <trkpt lat="49.25068" lon="5.33794">
        <ele>193.11</ele>
        <time>2019-09-22T08:33:40.000Z</time>
      </trkpt>
      <trkpt lat="49.24934" lon="5.3381">
        <ele>191.213</ele>
        <time>2019-09-22T08:34:10.000Z</time>
      </trkpt>
      <trkpt lat="49.24806" lon="5.33802">
        <ele>187.49</ele>
        <time>2019-09-22T08:34:40.000Z</time>
      </trkpt>
      <trkpt lat="49.24677" lon="5.33778">
        <ele>187.508</ele>
        <time>2019-09-22T08:35:10.000Z</time>
      </trkpt>
      <trkpt lat="49.2456" lon="5.33695">
        <ele>188.294</ele>
        <time>2019-09-22T08:35:40.000Z</time>
      </trkpt>
      <trkpt lat="49.24461" lon="5.33573">
        <ele>189.593</ele>
        <time>2019-09-22T08:36:10.000Z</time>
      </trkpt>
      <trkpt lat="49.24357" lon="5.3344">
        <ele>187.423</ele>
        <time>2019-09-22T08:36:40.000Z</time>
      </trkpt>
      <trkpt lat="49.24258" lon="5.33312">
        <ele>185.062</ele>
        <time>2019-09-22T08:37:10.000Z</time>
      </trkpt>
      <trkpt lat="49.24169" lon="5.33164">
        <ele>184.835</ele>
        <time>2019-09-22T08:37:40.000Z</time>
      </trkpt>
      <trkpt lat="49.24081" lon="5.33014">
        <ele>185.066</ele>
        <time>2019-09-22T08:38:10.000Z</time>
      </trkpt>
      <trkpt lat="49.23994" lon="5.32864">
        <ele>186.563</ele>
        <time>2019-09-22T08:38:40.000Z</time>
      </trkpt>
      <trkpt lat="49.23898" lon="5.32701">
        <ele>186.607</ele>
        <time>2019-09-22T08:39:13.000Z</time>
      </trkpt>
      <trkpt lat="49.2381" lon="5.32561">
        <ele>188.149</ele>
        <time>2019-09-22T08:39:43.000Z</time>
      </trkpt>
      <trkpt lat="49.23723" lon="5.32399">
        <ele>189.502</ele>
        <time>2019-09-22T08:40:13.000Z</time>
      </trkpt>
      <trkpt lat="49.23638" lon="5.32248">
        <ele>187.072</ele>
        <time>2019-09-22T08:40:43.000Z</time>
      </trkpt>
      <trkpt lat="49.23549" lon="5.32095">
        <ele>186.79</ele>
        <time>2019-09-22T08:41:13.000Z</time>
      </trkpt>
      <trkpt lat="49.23485" lon="5.31904">
        <ele>184.255</ele>
        <time>2019-09-22T08:41:43.000Z</time>
      </trkpt>
      <trkpt lat="49.23468" lon="5.31696">
        <ele>185.635</ele>
        <time>2019-09-22T08:42:13.000Z</time>
      </trkpt>
      <trkpt lat="49.23455" lon="5.31482">
        <ele>187.318</ele>
        <time>2019-09-22T08:42:43.000Z</time>
      </trkpt>
      <trkpt lat="49.23444" lon="5.31287">
        <ele>186.571</ele>
        <time>2019-09-22T08:43:13.000Z</time>
      </trkpt>
      <trkpt lat="49.23412" lon="5.3108">
        <ele>186.1</ele>
        <time>2019-09-22T08:43:43.000Z</time>
      </trkpt>
      <trkpt lat="49.23361" lon="5.30895">
        <ele>187.256</ele>
        <time>2019-09-22T08:44:13.000Z</time>
      </trkpt>
      <trkpt lat="49.23308" lon="5.30707">
        <ele>187.704</ele>
        <time>2019-09-22T08:44:43.000Z</time>
      </trkpt>
      <trkpt lat="49.23254" lon="5.30512">
        <ele>187.892</ele>
        <time>2019-09-22T08:45:13.000Z</time>
      </trkpt>
      <trkpt lat="49.23205" lon="5.30338">
        <ele>186.786</ele>
        <time>2019-09-22T08:45:43.000Z</time>
      </trkpt>
      <trkpt lat="49.23168" lon="5.30233">
        <ele>188.673</ele>
        <time>2019-09-22T08:46:13.000Z</time>
      </trkpt>
      <trkpt lat="49.23129" lon="5.30075">
        <ele>194.054</ele>
        <time>2019-09-22T08:46:43.000Z</time>
      </trkpt>
      <trkpt lat="49.23061" lon="5.29899">
        <ele>190.015</ele>
        <time>2019-09-22T08:47:13.000Z</time>
      </trkpt>
      <trkpt lat="49.22941" lon="5.29788">
        <ele>191.855</ele>
        <time>2019-09-22T08:47:43.000Z</time>
      </trkpt>
      <trkpt lat="49.22795" lon="5.29738">
        <ele>189.678</ele>
        <time>2019-09-22T08:48:13.000Z</time>
      </trkpt>
      <trkpt lat="49.2265" lon="5.29726">
        <ele>190.516</ele>
        <time>2019-09-22T08:48:43.000Z</time>
      </trkpt>
      <trkpt lat="49.22509" lon="5.29757">
        <ele>192.655</ele>
        <time>2019-09-22T08:49:13.000Z</time>
      </trkpt>
      <trkpt lat="49.22377" lon="5.29861">
        <ele>192.172</ele>
        <time>2019-09-22T08:49:43.000Z</time>
      </trkpt>
      <trkpt lat="49.22289" lon="5.30012">
        <ele>190.902</ele>
        <time>2019-09-22T08:50:13.000Z</time>
      </trkpt>
      <trkpt lat="49.22242" lon="5.30198">
        <ele>192.989</ele>
        <time>2019-09-22T08:50:43.000Z</time>
      </trkpt>
      <trkpt lat="49.22201" lon="5.30409">
        <ele>197.245</ele>
        <time>2019-09-22T08:51:13.000Z</time>
      </trkpt>
      <trkpt lat="49.22182" lon="5.30617">
        <ele>193.713</ele>
        <time>2019-09-22T08:51:43.000Z</time>
      </trkpt>
      <trkpt lat="49.22182" lon="5.30828">
        <ele>187.077</ele>
        <time>2019-09-22T08:52:13.000Z</time>
      </trkpt>
      <trkpt lat="49.22192" lon="5.31044">
        <ele>190.118</ele>
        <time>2019-09-22T08:52:43.000Z</time>
      </trkpt>
      <trkpt lat="49.22211" lon="5.31241">
        <ele>193.925</ele>
        <time>2019-09-22T08:53:13.000Z</time>
      </trkpt>
      <trkpt lat="49.22231" lon="5.31465">
        <ele>195.746</ele>
        <time>2019-09-22T08:53:43.000Z</time>
      </trkpt>
      <trkpt lat="49.22254" lon="5.31671">
        <ele>195.45</ele>
        <time>2019-09-22T08:54:13.000Z</time>
      </trkpt>
      <trkpt lat="49.22277" lon="5.31881">
        <ele>192.664</ele>
        <time>2019-09-22T08:54:43.000Z</time>
      </trkpt>
      <trkpt lat="49.22298" lon="5.32086">
        <ele>191.38</ele>
        <time>2019-09-22T08:55:13.000Z</time>
      </trkpt>
      <trkpt lat="49.2232" lon="5.32291">
        <ele>195.027</ele>
        <time>2019-09-22T08:55:43.000Z</time>
      </trkpt>
      <trkpt lat="49.22355" lon="5.32493">
        <ele>192.524</ele>
        <time>2019-09-22T08:56:13.000Z</time>
      </trkpt>
      <trkpt lat="49.22392" lon="5.32686">
        <ele>193.071</ele>
        <time>2019-09-22T08:56:43.000Z</time>
      </trkpt>
      <trkpt lat="49.22429" lon="5.32888">
        <ele>195.679</ele>
        <time>2019-09-22T08:57:13.000Z</time>
      </trkpt>
      <trkpt lat="49.22463" lon="5.33087">
        <ele>196.082</ele>
        <time>2019-09-22T08:57:43.000Z</time>
      </trkpt>
      <trkpt lat="49.22484" lon="5.33292">
        <ele>192.254</ele>
        <time>2019-09-22T08:58:13.000Z</time>
      </trkpt>
      <trkpt lat="49.22498" lon="5.33503">
        <ele>193.486</ele>
        <time>2019-09-22T08:58:43.000Z</time>
      </trkpt>
      <trkpt lat="49.22515" lon="5.33708">
        <ele>191.87</ele>
        <time>2019-09-22T08:59:13.000Z</time>
      </trkpt>
      <trkpt lat="49.22529" lon="5.3391">
        <ele>192.159</ele>
        <time>2019-09-22T08:59:43.000Z</time>
      </trkpt>
      <trkpt lat="49.22539" lon="5.34118">
        <ele>195.912</ele>
        <time>2019-09-22T09:00:13.000Z</time>
      </trkpt>
      <trkpt lat="49.22524" lon="5.34323">
        <ele>194.399</ele>
        <time>2019-09-22T09:00:43.000Z</time>
      </trkpt>
      <trkpt lat="49.22498" lon="5.34524">
        <ele>194.057</ele>
        <time>2019-09-22T09:01:13.000Z</time>
      </trkpt>
      <trkpt lat="49.22471" lon="5.34723">
        <ele>196.993</ele>
        <time>2019-09-22T09:01:43.000Z</time>
      </trkpt>
      <trkpt lat="49.22443" lon="5.3492">
        <ele>197.286</ele>
        <time>2019-09-22T09:02:13.000Z</time>
      </trkpt>
      <trkpt lat="49.22388" lon="5.35111">
        <ele>197.277</ele>
        <time>2019-09-22T09:02:43.000Z</time>
      </trkpt>
      <trkpt lat="49.22304" lon="5.3528">
        <ele>193.954</ele>
        <time>2019-09-22T09:03:13.000Z</time>
      </trkpt>
      <trkpt lat="49.22194" lon="5.35418">
        <ele>193.268</ele>
        <time>2019-09-22T09:03:43.000Z</time>
      </trkpt>
      <trkpt lat="49.22091" lon="5.35532">
        <ele>195.536</ele>
        <time>2019-09-22T09:04:13.000Z</time>
      </trkpt>
      <trkpt lat="49.22018" lon="5.35695">
        <ele>194.475</ele>
        <time>2019-09-22T09:04:43.000Z</time>
      </trkpt>
      <trkpt lat="49.22071" lon="5.35771">
        <ele>193.962</ele>
        <time>2019-09-22T09:05:13.000Z</time>
      </trkpt>
      <trkpt lat="49.22056" lon="5.3578">
        <ele>194.848</ele>
        <time>2019-09-22T09:16:52.000Z</time>
      </trkpt>
      <trkpt lat="49.22036" lon="5.35987">
        <ele>189.269</ele>
        <time>2019-09-22T09:17:22.000Z</time>
      </trkpt>
      <trkpt lat="49.22081" lon="5.36177">
        <ele>190.622</ele>
        <time>2019-09-22T09:17:52.000Z</time>
      </trkpt>
      <trkpt lat="49.22065" lon="5.364">
        <ele>187.866</ele>
        <time>2019-09-22T09:18:22.000Z</time>
      </trkpt>
      <trkpt lat="49.21976" lon="5.36561">
        <ele>194.265</ele>
        <time>2019-09-22T09:18:52.000Z</time>
      </trkpt>
      <trkpt lat="49.21865" lon="5.36685">
        <ele>198.449</ele>
        <time>2019-09-22T09:19:22.000Z</time>
      </trkpt>
      <trkpt lat="49.21737" lon="5.36772">
        <ele>202.676</ele>
        <time>2019-09-22T09:19:52.000Z</time>
      </trkpt>
      <trkpt lat="49.21601" lon="5.36859">
        <ele>203.326</ele>
        <time>2019-09-22T09:20:22.000Z</time>
      </trkpt>
      <trkpt lat="49.21461" lon="5.36946">
        <ele>200.116</ele>
        <time>2019-09-22T09:20:52.000Z</time>
      </trkpt>
      <trkpt lat="49.21316" lon="5.37035">
        <ele>194.602</ele>
        <time>2019-09-22T09:21:22.000Z</time>
      </trkpt>
      <trkpt lat="49.21174" lon="5.37108">
        <ele>194.673</ele>
        <time>2019-09-22T09:21:52.001Z</time>
      </trkpt>
      <trkpt lat="49.21027" lon="5.3719">
        <ele>196.095</ele>
        <time>2019-09-22T09:22:22.001Z</time>
      </trkpt>
      <trkpt lat="49.20881" lon="5.37272">
        <ele>195.364</ele>
        <time>2019-09-22T09:22:52.001Z</time>
      </trkpt>
      <trkpt lat="49.20761" lon="5.37339">
        <ele>195.778</ele>
        <time>2019-09-22T09:23:22.001Z</time>
      </trkpt>
      <trkpt lat="49.20694" lon="5.37345">
        <ele>200.947</ele>
        <time>2019-09-22T09:23:52.001Z</time>
      </trkpt>
      <trkpt lat="49.20555" lon="5.37363">
        <ele>203.291</ele>
        <time>2019-09-22T09:24:22.001Z</time>
      </trkpt>
      <trkpt lat="49.20404" lon="5.37309">
        <ele>198.453</ele>
        <time>2019-09-22T09:24:52.001Z</time>
      </trkpt>
      <trkpt lat="49.20254" lon="5.37255">
        <ele>195.707</ele>
        <time>2019-09-22T09:25:22.001Z</time>
      </trkpt>
      <trkpt lat="49.20101" lon="5.37198">
        <ele>196.126</ele>
        <time>2019-09-22T09:25:52.001Z</time>
      </trkpt>
      <trkpt lat="49.1996" lon="5.37145">
        <ele>196.818</ele>
        <time>2019-09-22T09:26:22.001Z</time>
      </trkpt>
      <trkpt lat="49.19818" lon="5.37093">
        <ele>196.535</ele>
        <time>2019-09-22T09:26:52.001Z</time>
      </trkpt>
      <trkpt lat="49.19677" lon="5.37036">
        <ele>196.894</ele>
        <time>2019-09-22T09:27:22.001Z</time>
      </trkpt>
      <trkpt lat="49.19533" lon="5.36985">
        <ele>201.292</ele>
        <time>2019-09-22T09:27:52.001Z</time>
      </trkpt>
      <trkpt lat="49.19421" lon="5.36864">
        <ele>206.018</ele>
        <time>2019-09-22T09:28:22.001Z</time>
      </trkpt>
      <trkpt lat="49.19299" lon="5.36638">
        <ele>193.337</ele>
        <time>2019-09-22T09:28:52.001Z</time>
      </trkpt>
      <trkpt lat="49.19198" lon="5.36439">
        <ele>192.912</ele>
        <time>2019-09-22T09:29:22.001Z</time>
      </trkpt>
      <trkpt lat="49.19103" lon="5.36254">
        <ele>191.145</ele>
        <time>2019-09-22T09:29:52.001Z</time>
      </trkpt>
      <trkpt lat="49.19011" lon="5.36074">
        <ele>195.365</ele>
        <time>2019-09-22T09:30:22.001Z</time>
      </trkpt>
      <trkpt lat="49.18913" lon="5.35886">
        <ele>193.753</ele>
        <time>2019-09-22T09:30:52.001Z</time>
      </trkpt>
      <trkpt lat="49.18802" lon="5.35705">
        <ele>192.856</ele>
        <time>2019-09-22T09:31:22.001Z</time>
      </trkpt>
      <trkpt lat="49.18688" lon="5.3559">
        <ele>195.874</ele>
        <time>2019-09-22T09:31:52.001Z</time>
      </trkpt>
      <trkpt lat="49.18543" lon="5.355">
        <ele>196.393</ele>
        <time>2019-09-22T09:32:22.001Z</time>
      </trkpt>
      <trkpt lat="49.18397" lon="5.35467">
        <ele>195.601</ele>
        <time>2019-09-22T09:32:52.001Z</time>
      </trkpt>
      <trkpt lat="49.1824" lon="5.3544">
        <ele>193.891</ele>
        <time>2019-09-22T09:33:22.001Z</time>
      </trkpt>
      <trkpt lat="49.18092" lon="5.35477">
        <ele>198.035</ele>
        <time>2019-09-22T09:33:52.001Z</time>
      </trkpt>
      <trkpt lat="49.17957" lon="5.35619">
        <ele>195.924</ele>
        <time>2019-09-22T09:34:22.001Z</time>
      </trkpt>
      <trkpt lat="49.17887" lon="5.35821">
        <ele>193.587</ele>
        <time>2019-09-22T09:34:52.001Z</time>
      </trkpt>
      <trkpt lat="49.17859" lon="5.36026">
        <ele>199.075</ele>
        <time>2019-09-22T09:35:22.001Z</time>
      </trkpt>
      <trkpt lat="49.17837" lon="5.36227">
        <ele>203.069</ele>
        <time>2019-09-22T09:35:52.001Z</time>
      </trkpt>
      <trkpt lat="49.17802" lon="5.3646">
        <ele>203.477</ele>
        <time>2019-09-22T09:36:22.001Z</time>
      </trkpt>
      <trkpt lat="49.1777" lon="5.36699">
        <ele>199.198</ele>
        <time>2019-09-22T09:36:52.001Z</time>
      </trkpt>
      <trkpt lat="49.17742" lon="5.36924">
        <ele>196.103</ele>
        <time>2019-09-22T09:37:22.001Z</time>
      </trkpt>
      <trkpt lat="49.17699" lon="5.37153">
        <ele>196.569</ele>
        <time>2019-09-22T09:37:52.001Z</time>
      </trkpt>
      <trkpt lat="49.17657" lon="5.3738">
        <ele>199.92</ele>
        <time>2019-09-22T09:38:22.001Z</time>
      </trkpt>
      <trkpt lat="49.17636" lon="5.37609">
        <ele>195.394</ele>
        <time>2019-09-22T09:38:52.001Z</time>
      </trkpt>
      <trkpt lat="49.17583" lon="5.37812">
        <ele>195.037</ele>
        <time>2019-09-22T09:39:22.001Z</time>
      </trkpt>
      <trkpt lat="49.17436" lon="5.37874">
        <ele>200.389</ele>
        <time>2019-09-22T09:39:52.001Z</time>
      </trkpt>
      <trkpt lat="49.17306" lon="5.37941">
        <ele>199.233</ele>
        <time>2019-09-22T09:40:22.001Z</time>
      </trkpt>
      <trkpt lat="49.17284" lon="5.3806">
        <ele>199.841</ele>
        <time>2019-09-22T09:40:52.001Z</time>
      </trkpt>
      <trkpt lat="49.17209" lon="5.3828">
        <ele>201.613</ele>
        <time>2019-09-22T09:41:22.001Z</time>
      </trkpt>
      <trkpt lat="49.17105" lon="5.38434">
        <ele>197.747</ele>
        <time>2019-09-22T09:41:52.001Z</time>
      </trkpt>
      <trkpt lat="49.16983" lon="5.38558">
        <ele>198.066</ele>
        <time>2019-09-22T09:42:22.001Z</time>
      </trkpt>
      <trkpt lat="49.16844" lon="5.38637">
        <ele>198.147</ele>
        <time>2019-09-22T09:42:52.001Z</time>
      </trkpt>
      <trkpt lat="49.16688" lon="5.38683">
        <ele>199.488</ele>
        <time>2019-09-22T09:43:22.001Z</time>
      </trkpt>
      <trkpt lat="49.16538" lon="5.38739">
        <ele>200.101</ele>
        <time>2019-09-22T09:43:52.001Z</time>
      </trkpt>
      <trkpt lat="49.16428" lon="5.38757">
        <ele>196.823</ele>
        <time>2019-09-22T09:44:22.001Z</time>
      </trkpt>
      <trkpt lat="49.16361" lon="5.38755">
        <ele>194.596</ele>
        <time>2019-09-22T09:44:55.001Z</time>
      </trkpt>
      <trkpt lat="49.16281" lon="5.38745">
        <ele>204.841</ele>
        <time>2019-09-22T09:45:25.001Z</time>
      </trkpt>
      <trkpt lat="49.16208" lon="5.38738">
        <ele>196.38</ele>
        <time>2019-09-22T09:45:58.001Z</time>
      </trkpt>
      <trkpt lat="49.16147" lon="5.38743">
        <ele>196.605</ele>
        <time>2019-09-22T09:48:07.001Z</time>
      </trkpt>
      <trkpt lat="49.16052" lon="5.38678">
        <ele>205.932</ele>
        <time>2019-09-22T09:48:37.001Z</time>
      </trkpt>
      <trkpt lat="49.15969" lon="5.38599">
        <ele>208.927</ele>
        <time>2019-09-22T09:49:07.001Z</time>
      </trkpt>
      <trkpt lat="49.15939" lon="5.38563">
        <ele>201.573</ele>
        <time>2019-09-22T09:52:40.001Z</time>
      </trkpt>
      <trkpt lat="49.16009" lon="5.3863">
        <ele>201.953</ele>
        <time>2019-09-22T09:53:13.001Z</time>
      </trkpt>
      <trkpt lat="49.1604" lon="5.3866">
        <ele>198.623</ele>
        <time>2019-09-22T09:54:07.001Z</time>
      </trkpt>
      <trkpt lat="49.15972" lon="5.38596">
        <ele>197.211</ele>
        <time>2019-09-22T09:54:40.001Z</time>
      </trkpt>
      <trkpt lat="49.15893" lon="5.38514">
        <ele>199.949</ele>
        <time>2019-09-22T09:55:10.001Z</time>
      </trkpt>
      <trkpt lat="49.15802" lon="5.38615">
        <ele>203.211</ele>
        <time>2019-09-22T09:55:40.001Z</time>
      </trkpt>
      <trkpt lat="49.15679" lon="5.38643">
        <ele>202.479</ele>
        <time>2019-09-22T09:56:10.001Z</time>
      </trkpt>
      <trkpt lat="49.15574" lon="5.38546">
        <ele>208.306</ele>
        <time>2019-09-22T09:56:40.001Z</time>
      </trkpt>
      <trkpt lat="49.15452" lon="5.38481">
        <ele>196.987</ele>
        <time>2019-09-22T09:57:10.001Z</time>
      </trkpt>
      <trkpt lat="49.1536" lon="5.38405">
        <ele>197.048</ele>
        <time>2019-09-22T09:57:40.001Z</time>
      </trkpt>
      <trkpt lat="49.15323" lon="5.38382">
        <ele>194.069</ele>
        <time>2019-09-22T09:59:13.001Z</time>
      </trkpt>
      <trkpt lat="49.15316" lon="5.38372">
        <ele>190.024</ele>
        <time>2019-09-22T10:00:46.001Z</time>
      </trkpt>
      <trkpt lat="49.15237" lon="5.38328">
        <ele>196.224</ele>
        <time>2019-09-22T10:01:19.001Z</time>
      </trkpt>
      <trkpt lat="49.15157" lon="5.38155">
        <ele>201.74</ele>
        <time>2019-09-22T10:01:52.001Z</time>
      </trkpt>
      <trkpt lat="49.15096" lon="5.37955">
        <ele>199.213</ele>
        <time>2019-09-22T10:02:22.001Z</time>
      </trkpt>
      <trkpt lat="49.1503" lon="5.37779">
        <ele>198.147</ele>
        <time>2019-09-22T10:02:52.001Z</time>
      </trkpt>
      <trkpt lat="49.14946" lon="5.37628">
        <ele>197.355</ele>
        <time>2019-09-22T10:03:22.001Z</time>
      </trkpt>
      <trkpt lat="49.14828" lon="5.37642">
        <ele>192.819</ele>
        <time>2019-09-22T10:03:52.001Z</time>
      </trkpt>
      <trkpt lat="49.14717" lon="5.3769">
        <ele>196.693</ele>
        <time>2019-09-22T10:04:22.001Z</time>
      </trkpt>
      <trkpt lat="49.14589" lon="5.37737">
        <ele>196.349</ele>
        <time>2019-09-22T10:04:52.001Z</time>
      </trkpt>
      <trkpt lat="49.14465" lon="5.37823">
        <ele>196.743</ele>
        <time>2019-09-22T10:05:22.001Z</time>
      </trkpt>
      <trkpt lat="49.14348" lon="5.37898">
        <ele>195.545</ele>
        <time>2019-09-22T10:05:52.001Z</time>
      </trkpt>
      <trkpt lat="49.14221" lon="5.37946">
        <ele>195.799</ele>
        <time>2019-09-22T10:06:22.001Z</time>
      </trkpt>
      <trkpt lat="49.14134" lon="5.38085">
        <ele>198.332</ele>
        <time>2019-09-22T10:06:52.001Z</time>
      </trkpt>
      <trkpt lat="49.14083" lon="5.3827">
        <ele>196.495</ele>
        <time>2019-09-22T10:07:22.001Z</time>
      </trkpt>
      <trkpt lat="49.14046" lon="5.38468">
        <ele>198.61</ele>
        <time>2019-09-22T10:07:52.001Z</time>
      </trkpt>
      <trkpt lat="49.1402" lon="5.38666">
        <ele>200.555</ele>
        <time>2019-09-22T10:08:22.001Z</time>
      </trkpt>
      <trkpt lat="49.14012" lon="5.38861">
        <ele>202.16</ele>
        <time>2019-09-22T10:08:52.001Z</time>
      </trkpt>
      <trkpt lat="49.14022" lon="5.39075">
        <ele>199.479</ele>
        <time>2019-09-22T10:09:22.001Z</time>
      </trkpt>
      <trkpt lat="49.1403" lon="5.3927">
        <ele>203.914</ele>
        <time>2019-09-22T10:09:52.001Z</time>
      </trkpt>
      <trkpt lat="49.14038" lon="5.39473">
        <ele>203.882</ele>
        <time>2019-09-22T10:10:22.001Z</time>
      </trkpt>
      <trkpt lat="49.14046" lon="5.39673">
        <ele>201.523</ele>
        <time>2019-09-22T10:10:52.001Z</time>
      </trkpt>
      <trkpt lat="49.14043" lon="5.39835">
        <ele>200.506</ele>
        <time>2019-09-22T10:11:22.001Z</time>
      </trkpt>
      <trkpt lat="49.14007" lon="5.39844">
        <ele>198.968</ele>
        <time>2019-09-22T10:15:01.001Z</time>
      </trkpt>
      <trkpt lat="49.13872" lon="5.39892">
        <ele>195.85</ele>
        <time>2019-09-22T10:15:31.001Z</time>
      </trkpt>
      <trkpt lat="49.13723" lon="5.3995">
        <ele>193.114</ele>
        <time>2019-09-22T10:16:01.001Z</time>
      </trkpt>
      <trkpt lat="49.13586" lon="5.40004">
        <ele>189.679</ele>
        <time>2019-09-22T10:16:31.001Z</time>
      </trkpt>
      <trkpt lat="49.13427" lon="5.40035">
        <ele>194.299</ele>
        <time>2019-09-22T10:17:01.001Z</time>
      </trkpt>
      <trkpt lat="49.13299" lon="5.40023">
        <ele>196.217</ele>
        <time>2019-09-22T10:17:31.001Z</time>
      </trkpt>
      <trkpt lat="49.13163" lon="5.40029">
        <ele>199.67</ele>
        <time>2019-09-22T10:18:01.001Z</time>
      </trkpt>
      <trkpt lat="49.13052" lon="5.40019">
        <ele>198.918</ele>
        <time>2019-09-22T10:18:31.001Z</time>
      </trkpt>
      <trkpt lat="49.12953" lon="5.40011">
        <ele>203.624</ele>
        <time>2019-09-22T10:19:01.001Z</time>
      </trkpt>
      <trkpt lat="49.12866" lon="5.40001">
        <ele>208.335</ele>
        <time>2019-09-22T10:19:31.001Z</time>
      </trkpt>
      <trkpt lat="49.1278" lon="5.39999">
        <ele>208.963</ele>
        <time>2019-09-22T10:20:01.001Z</time>
      </trkpt>
      <trkpt lat="49.12704" lon="5.39989">
        <ele>213.599</ele>
        <time>2019-09-22T10:20:31.001Z</time>
      </trkpt>
      <trkpt lat="49.12636" lon="5.39962">
        <ele>216.714</ele>
        <time>2019-09-22T10:21:01.001Z</time>
      </trkpt>
      <trkpt lat="49.12571" lon="5.39914">
        <ele>218.492</ele>
        <time>2019-09-22T10:21:31.001Z</time>
      </trkpt>
      <trkpt lat="49.12504" lon="5.39839">
        <ele>220.902</ele>
        <time>2019-09-22T10:22:01.001Z</time>
      </trkpt>
      <trkpt lat="49.12441" lon="5.39765">
        <ele>223.047</ele>
        <time>2019-09-22T10:22:31.001Z</time>
      </trkpt>
      <trkpt lat="49.12381" lon="5.39681">
        <ele>223.032</ele>
        <time>2019-09-22T10:23:01.001Z</time>
      </trkpt>
      <trkpt lat="49.12326" lon="5.39576">
        <ele>224.618</ele>
        <time>2019-09-22T10:23:31.001Z</time>
      </trkpt>
      <trkpt lat="49.12261" lon="5.39454">
        <ele>226.201</ele>
        <time>2019-09-22T10:24:01.001Z</time>
      </trkpt>
      <trkpt lat="49.12181" lon="5.39328">
        <ele>229.022</ele>
        <time>2019-09-22T10:24:31.001Z</time>
      </trkpt>
      <trkpt lat="49.12102" lon="5.39202">
        <ele>225.092</ele>
        <time>2019-09-22T10:25:01.001Z</time>
      </trkpt>
      <trkpt lat="49.1205" lon="5.39059">
        <ele>226.417</ele>
        <time>2019-09-22T10:25:31.001Z</time>
      </trkpt>
      <trkpt lat="49.12002" lon="5.38853">
        <ele>228.822</ele>
        <time>2019-09-22T10:26:01.001Z</time>
      </trkpt>
      <trkpt lat="49.11968" lon="5.38695">
        <ele>228.947</ele>
        <time>2019-09-22T10:26:31.001Z</time>
      </trkpt>
      <trkpt lat="49.11927" lon="5.38596">
        <ele>229.863</ele>
        <time>2019-09-22T10:27:01.001Z</time>
      </trkpt>
      <trkpt lat="49.11813" lon="5.38676">
        <ele>229.208</ele>
        <time>2019-09-22T10:27:31.001Z</time>
      </trkpt>
      <trkpt lat="49.11698" lon="5.38706">
        <ele>232.225</ele>
        <time>2019-09-22T10:28:01.001Z</time>
      </trkpt>
      <trkpt lat="49.11514" lon="5.38677">
        <ele>227.211</ele>
        <time>2019-09-22T10:28:31.001Z</time>
      </trkpt>
      <trkpt lat="49.11261" lon="5.38644">
        <ele>218.515</ele>
        <time>2019-09-22T10:29:01.001Z</time>
      </trkpt>
      <trkpt lat="49.1106" lon="5.38585">
        <ele>211.036</ele>
        <time>2019-09-22T10:29:31.001Z</time>
      </trkpt>
      <trkpt lat="49.10894" lon="5.38551">
        <ele>206.025</ele>
        <time>2019-09-22T10:30:01.001Z</time>
      </trkpt>
      <trkpt lat="49.10719" lon="5.38512">
        <ele>200.512</ele>
        <time>2019-09-22T10:30:31.001Z</time>
      </trkpt>
      <trkpt lat="49.10529" lon="5.38469">
        <ele>199.465</ele>
        <time>2019-09-22T10:31:01.001Z</time>
      </trkpt>
      <trkpt lat="49.10397" lon="5.38436">
        <ele>199.543</ele>
        <time>2019-09-22T10:31:31.001Z</time>
      </trkpt>
      <trkpt lat="49.10268" lon="5.38467">
        <ele>196.487</ele>
        <time>2019-09-22T10:32:01.001Z</time>
      </trkpt>
      <trkpt lat="49.10145" lon="5.38554">
        <ele>196.381</ele>
        <time>2019-09-22T10:32:31.001Z</time>
      </trkpt>
      <trkpt lat="49.1003" lon="5.38671">
        <ele>201.119</ele>
        <time>2019-09-22T10:33:01.001Z</time>
      </trkpt>
      <trkpt lat="49.09915" lon="5.38785">
        <ele>198.323</ele>
        <time>2019-09-22T10:33:31.001Z</time>
      </trkpt>
      <trkpt lat="49.09809" lon="5.38896">
        <ele>198.102</ele>
        <time>2019-09-22T10:34:01.001Z</time>
      </trkpt>
      <trkpt lat="49.09695" lon="5.38996">
        <ele>197.617</ele>
        <time>2019-09-22T10:34:31.001Z</time>
      </trkpt>
      <trkpt lat="49.0957" lon="5.39064">
        <ele>197.552</ele>
        <time>2019-09-22T10:35:01.001Z</time>
      </trkpt>
      <trkpt lat="49.09451" lon="5.39126">
        <ele>197.072</ele>
        <time>2019-09-22T10:35:31.001Z</time>
      </trkpt>
      <trkpt lat="49.09323" lon="5.39199">
        <ele>196.544</ele>
        <time>2019-09-22T10:36:01.001Z</time>
      </trkpt>
      <trkpt lat="49.09207" lon="5.39251">
        <ele>196.345</ele>
        <time>2019-09-22T10:36:31.001Z</time>
      </trkpt>
      <trkpt lat="49.09092" lon="5.39366">
        <ele>198.962</ele>
        <time>2019-09-22T10:37:01.001Z</time>
      </trkpt>
      <trkpt lat="49.08977" lon="5.39456">
        <ele>196.935</ele>
        <time>2019-09-22T10:37:31.001Z</time>
      </trkpt>
      <trkpt lat="49.08871" lon="5.39542">
        <ele>198.278</ele>
        <time>2019-09-22T10:38:01.001Z</time>
      </trkpt>
      <trkpt lat="49.0876" lon="5.39639">
        <ele>202.223</ele>
        <time>2019-09-22T10:38:31.001Z</time>
      </trkpt>
      <trkpt lat="49.0866" lon="5.39757">
        <ele>201.66</ele>
        <time>2019-09-22T10:39:01.001Z</time>
      </trkpt>
      <trkpt lat="49.08556" lon="5.39887">
        <ele>202.341</ele>
        <time>2019-09-22T10:39:31.001Z</time>
      </trkpt>
      <trkpt lat="49.08457" lon="5.40013">
        <ele>202.421</ele>
        <time>2019-09-22T10:40:01.001Z</time>
      </trkpt>
      <trkpt lat="49.08353" lon="5.40142">
        <ele>201.461</ele>
        <time>2019-09-22T10:40:31.001Z</time>
      </trkpt>
      <trkpt lat="49.08238" lon="5.40247">
        <ele>200.082</ele>
        <time>2019-09-22T10:41:01.001Z</time>
      </trkpt>
      <trkpt lat="49.08119" lon="5.40349">
        <ele>200.007</ele>
        <time>2019-09-22T10:41:31.001Z</time>
      </trkpt>
      <trkpt lat="49.08" lon="5.40448">
        <ele>198.287</ele>
        <time>2019-09-22T10:42:01.001Z</time>
      </trkpt>
      <trkpt lat="49.07878" lon="5.40557">
        <ele>199.502</ele>
        <time>2019-09-22T10:42:31.001Z</time>
      </trkpt>
      <trkpt lat="49.07758" lon="5.4066">
        <ele>198.943</ele>
        <time>2019-09-22T10:43:01.001Z</time>
      </trkpt>
      <trkpt lat="49.07632" lon="5.4077">
        <ele>201.144</ele>
        <time>2019-09-22T10:43:31.001Z</time>
      </trkpt>
      <trkpt lat="49.07507" lon="5.40873">
        <ele>198.268</ele>
        <time>2019-09-22T10:44:01.001Z</time>
      </trkpt>
      <trkpt lat="49.07375" lon="5.40947">
        <ele>197.518</ele>
        <time>2019-09-22T10:44:31.001Z</time>
      </trkpt>
      <trkpt lat="49.0724" lon="5.40951">
        <ele>195.046</ele>
        <time>2019-09-22T10:45:01.001Z</time>
      </trkpt>
      <trkpt lat="49.07106" lon="5.40948">
        <ele>202.201</ele>
        <time>2019-09-22T10:45:31.001Z</time>
      </trkpt>
      <trkpt lat="49.0696" lon="5.40944">
        <ele>203.597</ele>
        <time>2019-09-22T10:46:01.001Z</time>
      </trkpt>
      <trkpt lat="49.0683" lon="5.40903">
        <ele>199.984</ele>
        <time>2019-09-22T10:46:31.001Z</time>
      </trkpt>
      <trkpt lat="49.06705" lon="5.40864">
        <ele>199.307</ele>
        <time>2019-09-22T10:47:01.001Z</time>
      </trkpt>
      <trkpt lat="49.06575" lon="5.40857">
        <ele>200.848</ele>
        <time>2019-09-22T10:47:31.001Z</time>
      </trkpt>
      <trkpt lat="49.06453" lon="5.40842">
        <ele>201.552</ele>
        <time>2019-09-22T10:48:01.001Z</time>
      </trkpt>
      <trkpt lat="49.06336" lon="5.40823">
        <ele>203.613</ele>
        <time>2019-09-22T10:48:31.001Z</time>
      </trkpt>
      <trkpt lat="49.06227" lon="5.40785">
        <ele>202.723</ele>
        <time>2019-09-22T10:49:01.001Z</time>
      </trkpt>
      <trkpt lat="49.06098" lon="5.40754">
        <ele>204.143</ele>
        <time>2019-09-22T10:49:31.001Z</time>
      </trkpt>
      <trkpt lat="49.05947" lon="5.40792">
        <ele>202.642</ele>
        <time>2019-09-22T10:50:01.001Z</time>
      </trkpt>
      <trkpt lat="49.05806" lon="5.40827">
        <ele>199.068</ele>
        <time>2019-09-22T10:50:31.001Z</time>
      </trkpt>
      <trkpt lat="49.05661" lon="5.40858">
        <ele>197.155</ele>
        <time>2019-09-22T10:51:01.001Z</time>
      </trkpt>
      <trkpt lat="49.05526" lon="5.40928">
        <ele>194.624</ele>
        <time>2019-09-22T10:51:31.001Z</time>
      </trkpt>
      <trkpt lat="49.05409" lon="5.41019">
        <ele>200.592</ele>
        <time>2019-09-22T10:52:01.001Z</time>
      </trkpt>
      <trkpt lat="49.05298" lon="5.41084">
        <ele>200.745</ele>
        <time>2019-09-22T10:52:31.001Z</time>
      </trkpt>
      <trkpt lat="49.05185" lon="5.41148">
        <ele>201.726</ele>
        <time>2019-09-22T10:53:01.001Z</time>
      </trkpt>
      <trkpt lat="49.05068" lon="5.41198">
        <ele>198.421</ele>
        <time>2019-09-22T10:53:31.001Z</time>
      </trkpt>
      <trkpt lat="49.04969" lon="5.41246">
        <ele>201.966</ele>
        <time>2019-09-22T10:54:01.001Z</time>
      </trkpt>
      <trkpt lat="49.04955" lon="5.41236">
        <ele>201.821</ele>
        <time>2019-09-22T10:54:40.001Z</time>
      </trkpt>
      <trkpt lat="49.04954" lon="5.41214">
        <ele>202.229</ele>
        <time>2019-09-22T11:22:19.001Z</time>
      </trkpt>
      <trkpt lat="49.04953" lon="5.41212">
        <ele>202.197</ele>
        <time>2019-09-22T11:34:04.001Z</time>
      </trkpt>
      <trkpt lat="49.0493" lon="5.41259">
        <ele>203.965</ele>
        <time>2019-09-22T11:35:52.001Z</time>
      </trkpt>
      <trkpt lat="49.04819" lon="5.41324">
        <ele>202.27</ele>
        <time>2019-09-22T11:36:22.001Z</time>
      </trkpt>
      <trkpt lat="49.04718" lon="5.41363">
        <ele>206.474</ele>
        <time>2019-09-22T11:36:52.001Z</time>
      </trkpt>
      <trkpt lat="49.04591" lon="5.41405">
        <ele>206.985</ele>
        <time>2019-09-22T11:37:22.001Z</time>
      </trkpt>
      <trkpt lat="49.04452" lon="5.41451">
        <ele>208.326</ele>
        <time>2019-09-22T11:37:52.001Z</time>
      </trkpt>
      <trkpt lat="49.04307" lon="5.41475">
        <ele>209.695</ele>
        <time>2019-09-22T11:38:22.001Z</time>
      </trkpt>
      <trkpt lat="49.04157" lon="5.4146">
        <ele>202.321</ele>
        <time>2019-09-22T11:38:52.001Z</time>
      </trkpt>
      <trkpt lat="49.04019" lon="5.41424">
        <ele>203.146</ele>
        <time>2019-09-22T11:39:22.001Z</time>
      </trkpt>
      <trkpt lat="49.03896" lon="5.41371">
        <ele>204.526</ele>
        <time>2019-09-22T11:39:52.001Z</time>
      </trkpt>
      <trkpt lat="49.03767" lon="5.41323">
        <ele>207.566</ele>
        <time>2019-09-22T11:40:22.001Z</time>
      </trkpt>
      <trkpt lat="49.0364" lon="5.41266">
        <ele>206.016</ele>
        <time>2019-09-22T11:40:52.001Z</time>
      </trkpt>
      <trkpt lat="49.03506" lon="5.41233">
        <ele>206.112</ele>
        <time>2019-09-22T11:41:22.001Z</time>
      </trkpt>
      <trkpt lat="49.03372" lon="5.41213">
        <ele>205.111</ele>
        <time>2019-09-22T11:41:52.001Z</time>
      </trkpt>
      <trkpt lat="49.03236" lon="5.41204">
        <ele>208.263</ele>
        <time>2019-09-22T11:42:22.001Z</time>
      </trkpt>
      <trkpt lat="49.03101" lon="5.41194">
        <ele>207.765</ele>
        <time>2019-09-22T11:42:52.001Z</time>
      </trkpt>
      <trkpt lat="49.02959" lon="5.41239">
        <ele>207.106</ele>
        <time>2019-09-22T11:43:22.001Z</time>
      </trkpt>
      <trkpt lat="49.0281" lon="5.4128">
        <ele>205.32</ele>
        <time>2019-09-22T11:43:52.001Z</time>
      </trkpt>
      <trkpt lat="49.02676" lon="5.4131">
        <ele>204.903</ele>
        <time>2019-09-22T11:44:22.001Z</time>
      </trkpt>
      <trkpt lat="49.02542" lon="5.41365">
        <ele>204.388</ele>
        <time>2019-09-22T11:44:52.001Z</time>
      </trkpt>
      <trkpt lat="49.02436" lon="5.41414">
        <ele>215.036</ele>
        <time>2019-09-22T11:45:22.001Z</time>
      </trkpt>
      <trkpt lat="49.02307" lon="5.41466">
        <ele>221.685</ele>
        <time>2019-09-22T11:45:52.001Z</time>
      </trkpt>
      <trkpt lat="49.02164" lon="5.41547">
        <ele>214.304</ele>
        <time>2019-09-22T11:46:22.001Z</time>
      </trkpt>
      <trkpt lat="49.02034" lon="5.41617">
        <ele>205.646</ele>
        <time>2019-09-22T11:46:52.001Z</time>
      </trkpt>
      <trkpt lat="49.01898" lon="5.417">
        <ele>208.478</ele>
        <time>2019-09-22T11:47:22.001Z</time>
      </trkpt>
      <trkpt lat="49.01776" lon="5.41808">
        <ele>207.438</ele>
        <time>2019-09-22T11:47:52.001Z</time>
      </trkpt>
      <trkpt lat="49.01643" lon="5.41901">
        <ele>204.433</ele>
        <time>2019-09-22T11:48:22.001Z</time>
      </trkpt>
      <trkpt lat="49.01498" lon="5.42004">
        <ele>206.244</ele>
        <time>2019-09-22T11:48:55.001Z</time>
      </trkpt>
      <trkpt lat="49.01365" lon="5.42094">
        <ele>205.813</ele>
        <time>2019-09-22T11:49:25.001Z</time>
      </trkpt>
      <trkpt lat="49.0124" lon="5.42181">
        <ele>206.134</ele>
        <time>2019-09-22T11:49:55.001Z</time>
      </trkpt>
      <trkpt lat="49.01124" lon="5.42299">
        <ele>206.049</ele>
        <time>2019-09-22T11:50:25.001Z</time>
      </trkpt>
      <trkpt lat="49.01016" lon="5.42446">
        <ele>206.344</ele>
        <time>2019-09-22T11:50:55.001Z</time>
      </trkpt>
      <trkpt lat="49.00927" lon="5.42592">
        <ele>205.683</ele>
        <time>2019-09-22T11:51:25.001Z</time>
      </trkpt>
      <trkpt lat="49.00867" lon="5.42756">
        <ele>207.978</ele>
        <time>2019-09-22T11:51:55.001Z</time>
      </trkpt>
      <trkpt lat="49.00797" lon="5.42916">
        <ele>207.78</ele>
        <time>2019-09-22T11:52:25.001Z</time>
      </trkpt>
      <trkpt lat="49.00711" lon="5.4308">
        <ele>205.862</ele>
        <time>2019-09-22T11:52:55.001Z</time>
      </trkpt>
      <trkpt lat="49.00631" lon="5.43232">
        <ele>206.061</ele>
        <time>2019-09-22T11:53:25.001Z</time>
      </trkpt>
      <trkpt lat="49.00556" lon="5.43392">
        <ele>205.499</ele>
        <time>2019-09-22T11:53:55.001Z</time>
      </trkpt>
      <trkpt lat="49.00486" lon="5.4355">
        <ele>206.103</ele>
        <time>2019-09-22T11:54:25.001Z</time>
      </trkpt>
      <trkpt lat="49.00425" lon="5.43689">
        <ele>209.365</ele>
        <time>2019-09-22T11:54:55.001Z</time>
      </trkpt>
      <trkpt lat="49.00368" lon="5.43815">
        <ele>211.554</ele>
        <time>2019-09-22T11:55:25.001Z</time>
      </trkpt>
      <trkpt lat="49.00295" lon="5.43982">
        <ele>213.533</ele>
        <time>2019-09-22T11:55:55.001Z</time>
      </trkpt>
      <trkpt lat="49.00175" lon="5.44118">
        <ele>210.176</ele>
        <time>2019-09-22T11:56:25.001Z</time>
      </trkpt>
      <trkpt lat="49.00061" lon="5.44272">
        <ele>209.351</ele>
        <time>2019-09-22T11:56:55.001Z</time>
      </trkpt>
      <trkpt lat="48.99957" lon="5.44414">
        <ele>206.542</ele>
        <time>2019-09-22T11:57:25.001Z</time>
      </trkpt>
      <trkpt lat="48.99876" lon="5.44524">
        <ele>207.564</ele>
        <time>2019-09-22T11:57:55.001Z</time>
      </trkpt>
      <trkpt lat="48.99801" lon="5.44625">
        <ele>209.326</ele>
        <time>2019-09-22T11:58:25.001Z</time>
      </trkpt>
      <trkpt lat="48.99728" lon="5.44719">
        <ele>210.136</ele>
        <time>2019-09-22T11:58:55.001Z</time>
      </trkpt>
      <trkpt lat="48.99624" lon="5.44813">
        <ele>210.991</ele>
        <time>2019-09-22T11:59:25.001Z</time>
      </trkpt>
      <trkpt lat="48.99501" lon="5.44913">
        <ele>209.509</ele>
        <time>2019-09-22T11:59:55.001Z</time>
      </trkpt>
      <trkpt lat="48.99392" lon="5.44998">
        <ele>210.881</ele>
        <time>2019-09-22T12:00:25.001Z</time>
      </trkpt>
      <trkpt lat="48.993" lon="5.45071">
        <ele>213.078</ele>
        <time>2019-09-22T12:00:55.001Z</time>
      </trkpt>
      <trkpt lat="48.99222" lon="5.45136">
        <ele>217.867</ele>
        <time>2019-09-22T12:01:25.001Z</time>
      </trkpt>
      <trkpt lat="48.9913" lon="5.4521">
        <ele>217.823</ele>
        <time>2019-09-22T12:01:55.001Z</time>
      </trkpt>
      <trkpt lat="48.98991" lon="5.45348">
        <ele>214.623</ele>
        <time>2019-09-22T12:02:25.001Z</time>
      </trkpt>
      <trkpt lat="48.98805" lon="5.45501">
        <ele>206.134</ele>
        <time>2019-09-22T12:02:55.001Z</time>
      </trkpt>
      <trkpt lat="48.98663" lon="5.45595">
        <ele>205.591</ele>
        <time>2019-09-22T12:03:25.001Z</time>
      </trkpt>
      <trkpt lat="48.98531" lon="5.45717">
        <ele>206.034</ele>
        <time>2019-09-22T12:03:55.001Z</time>
      </trkpt>
      <trkpt lat="48.98423" lon="5.45851">
        <ele>204.449</ele>
        <time>2019-09-22T12:04:25.001Z</time>
      </trkpt>
      <trkpt lat="48.98322" lon="5.45991">
        <ele>208.043</ele>
        <time>2019-09-22T12:04:55.001Z</time>
      </trkpt>
      <trkpt lat="48.9822" lon="5.46137">
        <ele>208.239</ele>
        <time>2019-09-22T12:05:25.001Z</time>
      </trkpt>
      <trkpt lat="48.98115" lon="5.46275">
        <ele>207.351</ele>
        <time>2019-09-22T12:05:55.001Z</time>
      </trkpt>
      <trkpt lat="48.98012" lon="5.46413">
        <ele>208.452</ele>
        <time>2019-09-22T12:06:25.001Z</time>
      </trkpt>
      <trkpt lat="48.97912" lon="5.46552">
        <ele>208.138</ele>
        <time>2019-09-22T12:06:55.001Z</time>
      </trkpt>
      <trkpt lat="48.97813" lon="5.46681">
        <ele>209.32</ele>
        <time>2019-09-22T12:07:25.001Z</time>
      </trkpt>
      <trkpt lat="48.97716" lon="5.46814">
        <ele>211.765</ele>
        <time>2019-09-22T12:07:55.001Z</time>
      </trkpt>
      <trkpt lat="48.97632" lon="5.46972">
        <ele>206.801</ele>
        <time>2019-09-22T12:08:25.001Z</time>
      </trkpt>
      <trkpt lat="48.97594" lon="5.47164">
        <ele>209.794</ele>
        <time>2019-09-22T12:08:55.001Z</time>
      </trkpt>
      <trkpt lat="48.97554" lon="5.47368">
        <ele>208.17</ele>
        <time>2019-09-22T12:09:25.001Z</time>
      </trkpt>
      <trkpt lat="48.97512" lon="5.4758">
        <ele>208.388</ele>
        <time>2019-09-22T12:09:55.001Z</time>
      </trkpt>
      <trkpt lat="48.97473" lon="5.47779">
        <ele>208.972</ele>
        <time>2019-09-22T12:10:25.001Z</time>
      </trkpt>
      <trkpt lat="48.97435" lon="5.47987">
        <ele>209.627</ele>
        <time>2019-09-22T12:10:55.001Z</time>
      </trkpt>
      <trkpt lat="48.97396" lon="5.48197">
        <ele>213.542</ele>
        <time>2019-09-22T12:11:25.001Z</time>
      </trkpt>
      <trkpt lat="48.97358" lon="5.4841">
        <ele>211.252</ele>
        <time>2019-09-22T12:11:55.001Z</time>
      </trkpt>
      <trkpt lat="48.97333" lon="5.48612">
        <ele>214.232</ele>
        <time>2019-09-22T12:12:25.001Z</time>
      </trkpt>
      <trkpt lat="48.973" lon="5.48817">
        <ele>213.789</ele>
        <time>2019-09-22T12:12:55.001Z</time>
      </trkpt>
      <trkpt lat="48.97277" lon="5.48989">
        <ele>217.004</ele>
        <time>2019-09-22T12:13:25.001Z</time>
      </trkpt>
      <trkpt lat="48.97227" lon="5.49183">
        <ele>214.325</ele>
        <time>2019-09-22T12:13:55.001Z</time>
      </trkpt>
      <trkpt lat="48.97159" lon="5.49366">
        <ele>209.248</ele>
        <time>2019-09-22T12:14:25.001Z</time>
      </trkpt>
      <trkpt lat="48.97086" lon="5.49563">
        <ele>210.71</ele>
        <time>2019-09-22T12:14:55.001Z</time>
      </trkpt>
      <trkpt lat="48.97021" lon="5.49731">
        <ele>212.381</ele>
        <time>2019-09-22T12:15:25.001Z</time>
      </trkpt>
      <trkpt lat="48.96954" lon="5.49903">
        <ele>212.846</ele>
        <time>2019-09-22T12:15:55.001Z</time>
      </trkpt>
      <trkpt lat="48.9685" lon="5.50028">
        <ele>213.393</ele>
        <time>2019-09-22T12:16:25.001Z</time>
      </trkpt>
      <trkpt lat="48.96739" lon="5.50085">
        <ele>211.71</ele>
        <time>2019-09-22T12:16:55.001Z</time>
      </trkpt>
      <trkpt lat="48.96598" lon="5.5014">
        <ele>211.194</ele>
        <time>2019-09-22T12:17:25.001Z</time>
      </trkpt>
      <trkpt lat="48.96468" lon="5.50151">
        <ele>213.148</ele>
        <time>2019-09-22T12:17:55.001Z</time>
      </trkpt>
      <trkpt lat="48.96366" lon="5.50111">
        <ele>213.222</ele>
        <time>2019-09-22T12:18:25.001Z</time>
      </trkpt>
      <trkpt lat="48.96285" lon="5.50041">
        <ele>215.488</ele>
        <time>2019-09-22T12:18:55.001Z</time>
      </trkpt>
      <trkpt lat="48.962" lon="5.49978">
        <ele>217.963</ele>
        <time>2019-09-22T12:19:25.001Z</time>
      </trkpt>
      <trkpt lat="48.9609" lon="5.49911">
        <ele>217.724</ele>
        <time>2019-09-22T12:19:55.001Z</time>
      </trkpt>
      <trkpt lat="48.95949" lon="5.49826">
        <ele>215.772</ele>
        <time>2019-09-22T12:20:25.001Z</time>
      </trkpt>
      <trkpt lat="48.95819" lon="5.49806">
        <ele>215.15</ele>
        <time>2019-09-22T12:20:55.001Z</time>
      </trkpt>
      <trkpt lat="48.95714" lon="5.49817">
        <ele>218.507</ele>
        <time>2019-09-22T12:21:25.001Z</time>
      </trkpt>
      <trkpt lat="48.95568" lon="5.4988">
        <ele>214.354</ele>
        <time>2019-09-22T12:21:55.001Z</time>
      </trkpt>
      <trkpt lat="48.95448" lon="5.49945">
        <ele>215.245</ele>
        <time>2019-09-22T12:22:25.001Z</time>
      </trkpt>
      <trkpt lat="48.95348" lon="5.49952">
        <ele>219.006</ele>
        <time>2019-09-22T12:22:55.001Z</time>
      </trkpt>
      <trkpt lat="48.95238" lon="5.4992">
        <ele>220.095</ele>
        <time>2019-09-22T12:23:25.001Z</time>
      </trkpt>
      <trkpt lat="48.95117" lon="5.49877">
        <ele>217.501</ele>
        <time>2019-09-22T12:23:55.001Z</time>
      </trkpt>
      <trkpt lat="48.94987" lon="5.49831">
        <ele>218.015</ele>
        <time>2019-09-22T12:24:25.001Z</time>
      </trkpt>
      <trkpt lat="48.94843" lon="5.49803">
        <ele>216.862</ele>
        <time>2019-09-22T12:24:55.001Z</time>
      </trkpt>
      <trkpt lat="48.94679" lon="5.49787">
        <ele>215.555</ele>
        <time>2019-09-22T12:25:25.001Z</time>
      </trkpt>
      <trkpt lat="48.94536" lon="5.49748">
        <ele>213.838</ele>
        <time>2019-09-22T12:25:55.001Z</time>
      </trkpt>
      <trkpt lat="48.94385" lon="5.4968">
        <ele>210.936</ele>
        <time>2019-09-22T12:26:25.001Z</time>
      </trkpt>
      <trkpt lat="48.94243" lon="5.49614">
        <ele>210.128</ele>
        <time>2019-09-22T12:26:55.001Z</time>
      </trkpt>
      <trkpt lat="48.94101" lon="5.49547">
        <ele>212.539</ele>
        <time>2019-09-22T12:27:25.001Z</time>
      </trkpt>
      <trkpt lat="48.93955" lon="5.49468">
        <ele>213.047</ele>
        <time>2019-09-22T12:27:55.001Z</time>
      </trkpt>
      <trkpt lat="48.93832" lon="5.49371">
        <ele>215.814</ele>
        <time>2019-09-22T12:28:25.001Z</time>
      </trkpt>
      <trkpt lat="48.93719" lon="5.49288">
        <ele>215.084</ele>
        <time>2019-09-22T12:28:55.001Z</time>
      </trkpt>
      <trkpt lat="48.93602" lon="5.49223">
        <ele>213.094</ele>
        <time>2019-09-22T12:29:25.001Z</time>
      </trkpt>
      <trkpt lat="48.93482" lon="5.49163">
        <ele>212.068</ele>
        <time>2019-09-22T12:29:55.001Z</time>
      </trkpt>
      <trkpt lat="48.93353" lon="5.49102">
        <ele>212.42</ele>
        <time>2019-09-22T12:30:25.001Z</time>
      </trkpt>
      <trkpt lat="48.93226" lon="5.49035">
        <ele>213.581</ele>
        <time>2019-09-22T12:30:55.001Z</time>
      </trkpt>
      <trkpt lat="48.93113" lon="5.48995">
        <ele>215.504</ele>
        <time>2019-09-22T12:31:25.001Z</time>
      </trkpt>
      <trkpt lat="48.92982" lon="5.49018">
        <ele>215.499</ele>
        <time>2019-09-22T12:31:55.001Z</time>
      </trkpt>
      <trkpt lat="48.92832" lon="5.48999">
        <ele>214.741</ele>
        <time>2019-09-22T12:32:25.001Z</time>
      </trkpt>
      <trkpt lat="48.92705" lon="5.48996">
        <ele>209.08</ele>
        <time>2019-09-22T12:32:55.001Z</time>
      </trkpt>
      <trkpt lat="48.9258" lon="5.49069">
        <ele>209.243</ele>
        <time>2019-09-22T12:33:25.001Z</time>
      </trkpt>
      <trkpt lat="48.92468" lon="5.49192">
        <ele>215.537</ele>
        <time>2019-09-22T12:33:55.001Z</time>
      </trkpt>
      <trkpt lat="48.92373" lon="5.49307">
        <ele>219.52</ele>
        <time>2019-09-22T12:34:25.001Z</time>
      </trkpt>
      <trkpt lat="48.92254" lon="5.49435">
        <ele>216.514</ele>
        <time>2019-09-22T12:34:55.001Z</time>
      </trkpt>
      <trkpt lat="48.92152" lon="5.49541">
        <ele>212.331</ele>
        <time>2019-09-22T12:35:25.001Z</time>
      </trkpt>
      <trkpt lat="48.92051" lon="5.49631">
        <ele>213.662</ele>
        <time>2019-09-22T12:35:55.001Z</time>
      </trkpt>
      <trkpt lat="48.9192" lon="5.49757">
        <ele>213.853</ele>
        <time>2019-09-22T12:36:25.001Z</time>
      </trkpt>
      <trkpt lat="48.91826" lon="5.49891">
        <ele>217.127</ele>
        <time>2019-09-22T12:36:55.001Z</time>
      </trkpt>
      <trkpt lat="48.91756" lon="5.50011">
        <ele>223.156</ele>
        <time>2019-09-22T12:37:25.001Z</time>
      </trkpt>
      <trkpt lat="48.91708" lon="5.50105">
        <ele>229.828</ele>
        <time>2019-09-22T12:37:55.001Z</time>
      </trkpt>
      <trkpt lat="48.91645" lon="5.50203">
        <ele>231.483</ele>
        <time>2019-09-22T12:38:25.001Z</time>
      </trkpt>
      <trkpt lat="48.91507" lon="5.50346">
        <ele>223.559</ele>
        <time>2019-09-22T12:38:55.001Z</time>
      </trkpt>
      <trkpt lat="48.91396" lon="5.50448">
        <ele>217.419</ele>
        <time>2019-09-22T12:39:25.001Z</time>
      </trkpt>
      <trkpt lat="48.91301" lon="5.50583">
        <ele>220.978</ele>
        <time>2019-09-22T12:39:55.001Z</time>
      </trkpt>
      <trkpt lat="48.91184" lon="5.50764">
        <ele>221.795</ele>
        <time>2019-09-22T12:40:25.001Z</time>
      </trkpt>
      <trkpt lat="48.91074" lon="5.50935">
        <ele>221.77</ele>
        <time>2019-09-22T12:40:55.001Z</time>
      </trkpt>
      <trkpt lat="48.90971" lon="5.51108">
        <ele>220.714</ele>
        <time>2019-09-22T12:41:25.001Z</time>
      </trkpt>
      <trkpt lat="48.90846" lon="5.51315">
        <ele>218.37</ele>
        <time>2019-09-22T12:41:55.001Z</time>
      </trkpt>
      <trkpt lat="48.90729" lon="5.51448">
        <ele>217.255</ele>
        <time>2019-09-22T12:42:25.001Z</time>
      </trkpt>
      <trkpt lat="48.90604" lon="5.51587">
        <ele>215.118</ele>
        <time>2019-09-22T12:42:55.001Z</time>
      </trkpt>
      <trkpt lat="48.90485" lon="5.5172">
        <ele>214.376</ele>
        <time>2019-09-22T12:43:25.001Z</time>
      </trkpt>
      <trkpt lat="48.90382" lon="5.5185">
        <ele>216.654</ele>
        <time>2019-09-22T12:43:55.001Z</time>
      </trkpt>
      <trkpt lat="48.9032" lon="5.51938">
        <ele>217.456</ele>
        <time>2019-09-22T12:44:25.001Z</time>
      </trkpt>
      <trkpt lat="48.90271" lon="5.52006">
        <ele>218.134</ele>
        <time>2019-09-22T12:44:55.001Z</time>
      </trkpt>
      <trkpt lat="48.90229" lon="5.52155">
        <ele>224.898</ele>
        <time>2019-09-22T12:45:25.001Z</time>
      </trkpt>
      <trkpt lat="48.9017" lon="5.52322">
        <ele>229.281</ele>
        <time>2019-09-22T12:45:55.001Z</time>
      </trkpt>
      <trkpt lat="48.90086" lon="5.52556">
        <ele>224.037</ele>
        <time>2019-09-22T12:46:25.001Z</time>
      </trkpt>
      <trkpt lat="48.89992" lon="5.5281">
        <ele>223.042</ele>
        <time>2019-09-22T12:46:55.001Z</time>
      </trkpt>
      <trkpt lat="48.8992" lon="5.52991">
        <ele>223.855</ele>
        <time>2019-09-22T12:47:25.001Z</time>
      </trkpt>
      <trkpt lat="48.89856" lon="5.53122">
        <ele>227.911</ele>
        <time>2019-09-22T12:47:58.001Z</time>
      </trkpt>
      <trkpt lat="48.89807" lon="5.53211">
        <ele>227.19</ele>
        <time>2019-09-22T12:55:10.001Z</time>
      </trkpt>
      <trkpt lat="48.89742" lon="5.53336">
        <ele>226.362</ele>
        <time>2019-09-22T12:55:40.001Z</time>
      </trkpt>
      <trkpt lat="48.89661" lon="5.53491">
        <ele>225.993</ele>
        <time>2019-09-22T12:56:10.001Z</time>
      </trkpt>
      <trkpt lat="48.89556" lon="5.5366">
        <ele>224.188</ele>
        <time>2019-09-22T12:56:40.001Z</time>
      </trkpt>
      <trkpt lat="48.89438" lon="5.5373">
        <ele>217.673</ele>
        <time>2019-09-22T12:57:10.001Z</time>
      </trkpt>
      <trkpt lat="48.89433" lon="5.53688">
        <ele>215.852</ele>
        <time>2019-09-22T13:02:01.001Z</time>
      </trkpt>
      <trkpt lat="48.89432" lon="5.53692">
        <ele>217.094</ele>
        <time>2019-09-22T13:03:55.001Z</time>
      </trkpt>
      <trkpt lat="48.89432" lon="5.53691">
        <ele>216.837</ele>
        <time>2019-09-22T13:11:01.001Z</time>
      </trkpt>
      <trkpt lat="48.89433" lon="5.53692">
        <ele>216.837</ele>
        <time>2019-09-22T13:13:46.001Z</time>
      </trkpt>
      <trkpt lat="48.89435" lon="5.53692">
        <ele>218.901</ele>
        <time>2019-09-22T13:28:01.001Z</time>
      </trkpt>
      <trkpt lat="48.89432" lon="5.53695">
        <ele>219.716</ele>
        <time>2019-09-22T13:32:46.001Z</time>
      </trkpt>
      <trkpt lat="48.89406" lon="5.53745">
        <ele>222.591</ele>
        <time>2019-09-22T13:36:34.001Z</time>
      </trkpt>
      <trkpt lat="48.89363" lon="5.53838">
        <ele>225.035</ele>
        <time>2019-09-22T13:37:04.001Z</time>
      </trkpt>
      <trkpt lat="48.89284" lon="5.54002">
        <ele>224.471</ele>
        <time>2019-09-22T13:37:34.001Z</time>
      </trkpt>
      <trkpt lat="48.89228" lon="5.54099">
        <ele>229.152</ele>
        <time>2019-09-22T13:42:28.001Z</time>
      </trkpt>
      <trkpt lat="48.89127" lon="5.5408">
        <ele>232.641</ele>
        <time>2019-09-22T13:42:58.001Z</time>
      </trkpt>
      <trkpt lat="48.88995" lon="5.54091">
        <ele>235.523</ele>
        <time>2019-09-22T13:43:28.001Z</time>
      </trkpt>
      <trkpt lat="48.88887" lon="5.54036">
        <ele>226.084</ele>
        <time>2019-09-22T13:43:58.001Z</time>
      </trkpt>
      <trkpt lat="48.88837" lon="5.54163">
        <ele>235.59</ele>
        <time>2019-09-22T13:44:28.001Z</time>
      </trkpt>
      <trkpt lat="48.88797" lon="5.54349">
        <ele>239.666</ele>
        <time>2019-09-22T13:44:58.001Z</time>
      </trkpt>
      <trkpt lat="48.88799" lon="5.54531">
        <ele>235.539</ele>
        <time>2019-09-22T13:45:28.001Z</time>
      </trkpt>
      <trkpt lat="48.88817" lon="5.54714">
        <ele>239.985</ele>
        <time>2019-09-22T13:45:58.001Z</time>
      </trkpt>
      <trkpt lat="48.88793" lon="5.54908">
        <ele>242.34</ele>
        <time>2019-09-22T13:46:28.001Z</time>
      </trkpt>
      <trkpt lat="48.88766" lon="5.55075">
        <ele>249.338</ele>
        <time>2019-09-22T13:46:58.001Z</time>
      </trkpt>
      <trkpt lat="48.88775" lon="5.55251">
        <ele>236.042</ele>
        <time>2019-09-22T13:47:28.001Z</time>
      </trkpt>
      <trkpt lat="48.8877" lon="5.55425">
        <ele>233.915</ele>
        <time>2019-09-22T13:47:58.001Z</time>
      </trkpt>
      <trkpt lat="48.88709" lon="5.55587">
        <ele>230.644</ele>
        <time>2019-09-22T13:48:28.001Z</time>
      </trkpt>
      <trkpt lat="48.8868" lon="5.55726">
        <ele>235.37</ele>
        <time>2019-09-22T13:48:58.001Z</time>
      </trkpt>
      <trkpt lat="48.8868" lon="5.55828">
        <ele>243.277</ele>
        <time>2019-09-22T13:49:28.001Z</time>
      </trkpt>
      <trkpt lat="48.88677" lon="5.55905">
        <ele>250.879</ele>
        <time>2019-09-22T13:49:58.001Z</time>
      </trkpt>
      <trkpt lat="48.88666" lon="5.55999">
        <ele>253.679</ele>
        <time>2019-09-22T13:50:28.001Z</time>
      </trkpt>
      <trkpt lat="48.88629" lon="5.5607">
        <ele>253.275</ele>
        <time>2019-09-22T13:51:01.001Z</time>
      </trkpt>
      <trkpt lat="48.88592" lon="5.56126">
        <ele>255.923</ele>
        <time>2019-09-22T13:51:34.001Z</time>
      </trkpt>
      <trkpt lat="48.88554" lon="5.56186">
        <ele>259.27</ele>
        <time>2019-09-22T13:52:07.001Z</time>
      </trkpt>
      <trkpt lat="48.88508" lon="5.56256">
        <ele>269.743</ele>
        <time>2019-09-22T13:52:37.001Z</time>
      </trkpt>
      <trkpt lat="48.88461" lon="5.56331">
        <ele>269.733</ele>
        <time>2019-09-22T13:53:07.001Z</time>
      </trkpt>
      <trkpt lat="48.88422" lon="5.56392">
        <ele>270.805</ele>
        <time>2019-09-22T13:53:37.001Z</time>
      </trkpt>
      <trkpt lat="48.88386" lon="5.56447">
        <ele>273.393</ele>
        <time>2019-09-22T13:54:07.001Z</time>
      </trkpt>
      <trkpt lat="48.88346" lon="5.56504">
        <ele>277.399</ele>
        <time>2019-09-22T13:54:40.001Z</time>
      </trkpt>
      <trkpt lat="48.88306" lon="5.5657">
        <ele>277.435</ele>
        <time>2019-09-22T13:55:16.000Z</time>
      </trkpt>
      <trkpt lat="48.88262" lon="5.56635">
        <ele>281.341</ele>
        <time>2019-09-22T13:55:46.001Z</time>
      </trkpt>
      <trkpt lat="48.882" lon="5.56732">
        <ele>285.011</ele>
        <time>2019-09-22T13:56:16.000Z</time>
      </trkpt>
      <trkpt lat="48.8812" lon="5.56829">
        <ele>286.232</ele>
        <time>2019-09-22T13:56:46.001Z</time>
      </trkpt>
      <trkpt lat="48.88052" lon="5.56905">
        <ele>287.437</ele>
        <time>2019-09-22T13:57:16.000Z</time>
      </trkpt>
      <trkpt lat="48.87997" lon="5.56965">
        <ele>292.303</ele>
        <time>2019-09-22T13:57:46.001Z</time>
      </trkpt>
      <trkpt lat="48.87945" lon="5.5702">
        <ele>295.642</ele>
        <time>2019-09-22T13:58:16.000Z</time>
      </trkpt>
      <trkpt lat="48.87892" lon="5.57079">
        <ele>298.462</ele>
        <time>2019-09-22T13:58:46.001Z</time>
      </trkpt>
      <trkpt lat="48.87839" lon="5.57138">
        <ele>302.709</ele>
        <time>2019-09-22T13:59:16.000Z</time>
      </trkpt>
      <trkpt lat="48.87786" lon="5.57197">
        <ele>307.52</ele>
        <time>2019-09-22T13:59:46.001Z</time>
      </trkpt>
      <trkpt lat="48.87733" lon="5.57257">
        <ele>308.404</ele>
        <time>2019-09-22T14:00:16.000Z</time>
      </trkpt>
      <trkpt lat="48.87675" lon="5.57318">
        <ele>308.962</ele>
        <time>2019-09-22T14:00:46.001Z</time>
      </trkpt>
      <trkpt lat="48.87623" lon="5.57375">
        <ele>313.61</ele>
        <time>2019-09-22T14:01:16.000Z</time>
      </trkpt>
      <trkpt lat="48.87576" lon="5.57428">
        <ele>316.358</ele>
        <time>2019-09-22T14:01:46.001Z</time>
      </trkpt>
      <trkpt lat="48.8753" lon="5.57476">
        <ele>321.21</ele>
        <time>2019-09-22T14:02:16.000Z</time>
      </trkpt>
      <trkpt lat="48.87487" lon="5.57523">
        <ele>325.405</ele>
        <time>2019-09-22T14:02:46.001Z</time>
      </trkpt>
      <trkpt lat="48.87447" lon="5.57567">
        <ele>328.336</ele>
        <time>2019-09-22T14:03:16.000Z</time>
      </trkpt>
      <trkpt lat="48.87402" lon="5.57616">
        <ele>331.322</ele>
        <time>2019-09-22T14:03:46.001Z</time>
      </trkpt>
      <trkpt lat="48.87309" lon="5.57718">
        <ele>332.813</ele>
        <time>2019-09-22T14:04:16.000Z</time>
      </trkpt>
      <trkpt lat="48.87212" lon="5.57825">
        <ele>328.011</ele>
        <time>2019-09-22T14:04:46.001Z</time>
      </trkpt>
      <trkpt lat="48.87189" lon="5.57971">
        <ele>329.346</ele>
        <time>2019-09-22T14:05:16.000Z</time>
      </trkpt>
      <trkpt lat="48.87128" lon="5.5792">
        <ele>335.185</ele>
        <time>2019-09-22T14:05:46.001Z</time>
      </trkpt>
      <trkpt lat="48.87084" lon="5.57865">
        <ele>341.909</ele>
        <time>2019-09-22T14:06:16.000Z</time>
      </trkpt>
      <trkpt lat="48.87036" lon="5.57802">
        <ele>351.44</ele>
        <time>2019-09-22T14:06:46.001Z</time>
      </trkpt>
      <trkpt lat="48.86979" lon="5.57735">
        <ele>359.403</ele>
        <time>2019-09-22T14:07:16.000Z</time>
      </trkpt>
      <trkpt lat="48.86918" lon="5.57624">
        <ele>345.594</ele>
        <time>2019-09-22T14:07:46.001Z</time>
      </trkpt>
      <trkpt lat="48.86858" lon="5.57491">
        <ele>340.661</ele>
        <time>2019-09-22T14:08:16.000Z</time>
      </trkpt>
      <trkpt lat="48.86808" lon="5.57347">
        <ele>341.004</ele>
        <time>2019-09-22T14:08:46.001Z</time>
      </trkpt>
      <trkpt lat="48.8676" lon="5.57194">
        <ele>336.81</ele>
        <time>2019-09-22T14:09:16.000Z</time>
      </trkpt>
      <trkpt lat="48.86712" lon="5.57029">
        <ele>335.698</ele>
        <time>2019-09-22T14:09:46.001Z</time>
      </trkpt>
      <trkpt lat="48.86724" lon="5.56787">
        <ele>333.757</ele>
        <time>2019-09-22T14:10:16.000Z</time>
      </trkpt>
      <trkpt lat="48.86776" lon="5.56578">
        <ele>330.968</ele>
        <time>2019-09-22T14:10:46.001Z</time>
      </trkpt>
      <trkpt lat="48.86741" lon="5.56357">
        <ele>324.275</ele>
        <time>2019-09-22T14:11:16.000Z</time>
      </trkpt>
      <trkpt lat="48.86806" lon="5.56027">
        <ele>308.453</ele>
        <time>2019-09-22T14:11:46.001Z</time>
      </trkpt>
      <trkpt lat="48.86717" lon="5.55958">
        <ele>299.205</ele>
        <time>2019-09-22T14:12:16.000Z</time>
      </trkpt>
      <trkpt lat="48.86618" lon="5.55813">
        <ele>289.228</ele>
        <time>2019-09-22T14:12:46.001Z</time>
      </trkpt>
      <trkpt lat="48.86828" lon="5.55709">
        <ele>277.081</ele>
        <time>2019-09-22T14:13:16.000Z</time>
      </trkpt>
      <trkpt lat="48.86876" lon="5.55456">
        <ele>262.771</ele>
        <time>2019-09-22T14:13:46.001Z</time>
      </trkpt>
      <trkpt lat="48.86982" lon="5.55187">
        <ele>247.478</ele>
        <time>2019-09-22T14:14:16.000Z</time>
      </trkpt>
      <trkpt lat="48.86964" lon="5.54972">
        <ele>232.653</ele>
        <time>2019-09-22T14:14:46.001Z</time>
      </trkpt>
      <trkpt lat="48.86864" lon="5.54981">
        <ele>227.069</ele>
        <time>2019-09-22T14:15:16.000Z</time>
      </trkpt>
      <trkpt lat="48.86778" lon="5.55139">
        <ele>229.418</ele>
        <time>2019-09-22T14:15:46.001Z</time>
      </trkpt>
      <trkpt lat="48.86652" lon="5.55247">
        <ele>221.606</ele>
        <time>2019-09-22T14:16:16.000Z</time>
      </trkpt>
      <trkpt lat="48.8652" lon="5.55312">
        <ele>221.133</ele>
        <time>2019-09-22T14:16:46.001Z</time>
      </trkpt>
      <trkpt lat="48.86393" lon="5.55364">
        <ele>221.813</ele>
        <time>2019-09-22T14:17:16.000Z</time>
      </trkpt>
      <trkpt lat="48.86257" lon="5.55367">
        <ele>223.754</ele>
        <time>2019-09-22T14:17:46.001Z</time>
      </trkpt>
      <trkpt lat="48.86126" lon="5.55331">
        <ele>223.865</ele>
        <time>2019-09-22T14:18:16.000Z</time>
      </trkpt>
      <trkpt lat="48.86013" lon="5.55248">
        <ele>225.499</ele>
        <time>2019-09-22T14:18:46.001Z</time>
      </trkpt>
      <trkpt lat="48.85904" lon="5.55157">
        <ele>226.23</ele>
        <time>2019-09-22T14:19:16.000Z</time>
      </trkpt>
      <trkpt lat="48.85798" lon="5.55051">
        <ele>226.599</ele>
        <time>2019-09-22T14:19:46.001Z</time>
      </trkpt>
      <trkpt lat="48.85698" lon="5.54944">
        <ele>225.831</ele>
        <time>2019-09-22T14:20:16.000Z</time>
      </trkpt>
      <trkpt lat="48.85598" lon="5.5484">
        <ele>223.869</ele>
        <time>2019-09-22T14:20:46.001Z</time>
      </trkpt>
      <trkpt lat="48.85499" lon="5.5473">
        <ele>227.578</ele>
        <time>2019-09-22T14:21:16.000Z</time>
      </trkpt>
      <trkpt lat="48.85411" lon="5.54596">
        <ele>225.433</ele>
        <time>2019-09-22T14:21:46.001Z</time>
      </trkpt>
      <trkpt lat="48.8535" lon="5.54435">
        <ele>223.697</ele>
        <time>2019-09-22T14:22:16.000Z</time>
      </trkpt>
      <trkpt lat="48.8529" lon="5.54266">
        <ele>222.54</ele>
        <time>2019-09-22T14:22:46.001Z</time>
      </trkpt>
      <trkpt lat="48.85233" lon="5.54091">
        <ele>221.903</ele>
        <time>2019-09-22T14:23:16.000Z</time>
      </trkpt>
      <trkpt lat="48.85176" lon="5.53913">
        <ele>220.136</ele>
        <time>2019-09-22T14:23:46.001Z</time>
      </trkpt>
      <trkpt lat="48.85121" lon="5.53746">
        <ele>219.612</ele>
        <time>2019-09-22T14:24:16.000Z</time>
      </trkpt>
      <trkpt lat="48.85068" lon="5.53577">
        <ele>222.21</ele>
        <time>2019-09-22T14:24:46.001Z</time>
      </trkpt>
      <trkpt lat="48.85005" lon="5.53393">
        <ele>220.953</ele>
        <time>2019-09-22T14:25:16.000Z</time>
      </trkpt>
      <trkpt lat="48.84922" lon="5.53228">
        <ele>222.687</ele>
        <time>2019-09-22T14:25:46.001Z</time>
      </trkpt>
      <trkpt lat="48.84836" lon="5.5308">
        <ele>226.708</ele>
        <time>2019-09-22T14:26:16.000Z</time>
      </trkpt>
      <trkpt lat="48.84776" lon="5.52937">
        <ele>230.859</ele>
        <time>2019-09-22T14:26:46.001Z</time>
      </trkpt>
      <trkpt lat="48.84699" lon="5.52799">
        <ele>230.571</ele>
        <time>2019-09-22T14:27:16.000Z</time>
      </trkpt>
      <trkpt lat="48.84666" lon="5.52749">
        <ele>228.895</ele>
        <time>2019-09-22T14:34:46.001Z</time>
      </trkpt>
      <trkpt lat="48.84573" lon="5.52699">
        <ele>229.373</ele>
        <time>2019-09-22T14:35:16.000Z</time>
      </trkpt>
      <trkpt lat="48.84497" lon="5.52806">
        <ele>232.783</ele>
        <time>2019-09-22T14:35:46.001Z</time>
      </trkpt>
      <trkpt lat="48.84432" lon="5.529">
        <ele>229.876</ele>
        <time>2019-09-22T14:36:16.000Z</time>
      </trkpt>
      <trkpt lat="48.84386" lon="5.52965">
        <ele>235.338</ele>
        <time>2019-09-22T14:36:46.001Z</time>
      </trkpt>
      <trkpt lat="48.84339" lon="5.53022">
        <ele>238.54</ele>
        <time>2019-09-22T14:37:16.000Z</time>
      </trkpt>
      <trkpt lat="48.84293" lon="5.53078">
        <ele>240.888</ele>
        <time>2019-09-22T14:37:46.001Z</time>
      </trkpt>
      <trkpt lat="48.84241" lon="5.5313">
        <ele>243.164</ele>
        <time>2019-09-22T14:38:16.000Z</time>
      </trkpt>
      <trkpt lat="48.84182" lon="5.53182">
        <ele>246.613</ele>
        <time>2019-09-22T14:38:46.001Z</time>
      </trkpt>
      <trkpt lat="48.84117" lon="5.53219">
        <ele>251.358</ele>
        <time>2019-09-22T14:39:16.000Z</time>
      </trkpt>
      <trkpt lat="48.84049" lon="5.53256">
        <ele>254.245</ele>
        <time>2019-09-22T14:39:46.001Z</time>
      </trkpt>
      <trkpt lat="48.83982" lon="5.53299">
        <ele>257.076</ele>
        <time>2019-09-22T14:40:16.000Z</time>
      </trkpt>
      <trkpt lat="48.83908" lon="5.53349">
        <ele>258.053</ele>
        <time>2019-09-22T14:40:46.001Z</time>
      </trkpt>
      <trkpt lat="48.83809" lon="5.53405">
        <ele>257.758</ele>
        <time>2019-09-22T14:41:16.000Z</time>
      </trkpt>
      <trkpt lat="48.83707" lon="5.53485">
        <ele>257.986</ele>
        <time>2019-09-22T14:41:46.001Z</time>
      </trkpt>
      <trkpt lat="48.83617" lon="5.53576">
        <ele>258.591</ele>
        <time>2019-09-22T14:42:16.000Z</time>
      </trkpt>
      <trkpt lat="48.83495" lon="5.536">
        <ele>262.072</ele>
        <time>2019-09-22T14:42:46.001Z</time>
      </trkpt>
      <trkpt lat="48.83401" lon="5.53632">
        <ele>263.98</ele>
        <time>2019-09-22T14:43:16.000Z</time>
      </trkpt>
      <trkpt lat="48.8332" lon="5.53659">
        <ele>266.757</ele>
        <time>2019-09-22T14:43:46.001Z</time>
      </trkpt>
      <trkpt lat="48.8325" lon="5.53689">
        <ele>270.08</ele>
        <time>2019-09-22T14:44:16.000Z</time>
      </trkpt>
      <trkpt lat="48.83154" lon="5.53767">
        <ele>268.86</ele>
        <time>2019-09-22T14:44:46.001Z</time>
      </trkpt>
      <trkpt lat="48.8298" lon="5.53825">
        <ele>264.344</ele>
        <time>2019-09-22T14:45:16.000Z</time>
      </trkpt>
      <trkpt lat="48.82734" lon="5.537">
        <ele>247.897</ele>
        <time>2019-09-22T14:45:46.001Z</time>
      </trkpt>
      <trkpt lat="48.8259" lon="5.53665">
        <ele>233.824</ele>
        <time>2019-09-22T14:46:16.000Z</time>
      </trkpt>
      <trkpt lat="48.82407" lon="5.53692">
        <ele>227.129</ele>
        <time>2019-09-22T14:46:46.001Z</time>
      </trkpt>
      <trkpt lat="48.82263" lon="5.53712">
        <ele>226.677</ele>
        <time>2019-09-22T14:47:16.000Z</time>
      </trkpt>
      <trkpt lat="48.82117" lon="5.53734">
        <ele>227.283</ele>
        <time>2019-09-22T14:47:46.001Z</time>
      </trkpt>
      <trkpt lat="48.81972" lon="5.53755">
        <ele>228.419</ele>
        <time>2019-09-22T14:48:16.000Z</time>
      </trkpt>
      <trkpt lat="48.81844" lon="5.53773">
        <ele>227.793</ele>
        <time>2019-09-22T14:48:46.001Z</time>
      </trkpt>
      <trkpt lat="48.81723" lon="5.53791">
        <ele>231.399</ele>
        <time>2019-09-22T14:49:16.000Z</time>
      </trkpt>
      <trkpt lat="48.81628" lon="5.53808">
        <ele>232.984</ele>
        <time>2019-09-22T14:49:46.001Z</time>
      </trkpt>
      <trkpt lat="48.81549" lon="5.53834">
        <ele>235.812</ele>
        <time>2019-09-22T14:50:16.000Z</time>
      </trkpt>
      <trkpt lat="48.81484" lon="5.53891">
        <ele>240.196</ele>
        <time>2019-09-22T14:50:46.001Z</time>
      </trkpt>
      <trkpt lat="48.8135" lon="5.53942">
        <ele>238.946</ele>
        <time>2019-09-22T14:51:19.001Z</time>
      </trkpt>
      <trkpt lat="48.81195" lon="5.53971">
        <ele>237.321</ele>
        <time>2019-09-22T14:51:49.001Z</time>
      </trkpt>
      <trkpt lat="48.81057" lon="5.53998">
        <ele>237.87</ele>
        <time>2019-09-22T14:52:19.001Z</time>
      </trkpt>
      <trkpt lat="48.80874" lon="5.54035">
        <ele>232.118</ele>
        <time>2019-09-22T14:52:49.001Z</time>
      </trkpt>
      <trkpt lat="48.80759" lon="5.54058">
        <ele>232.249</ele>
        <time>2019-09-22T14:53:19.001Z</time>
      </trkpt>
      <trkpt lat="48.80669" lon="5.54086">
        <ele>235.699</ele>
        <time>2019-09-22T14:53:49.001Z</time>
      </trkpt>
      <trkpt lat="48.8058" lon="5.54131">
        <ele>236.724</ele>
        <time>2019-09-22T14:54:19.001Z</time>
      </trkpt>
      <trkpt lat="48.80464" lon="5.54218">
        <ele>238.469</ele>
        <time>2019-09-22T14:54:49.001Z</time>
      </trkpt>
      <trkpt lat="48.80337" lon="5.54349">
        <ele>235.961</ele>
        <time>2019-09-22T14:55:19.001Z</time>
      </trkpt>
      <trkpt lat="48.80241" lon="5.5452">
        <ele>237.108</ele>
        <time>2019-09-22T14:55:49.001Z</time>
      </trkpt>
      <trkpt lat="48.80133" lon="5.54669">
        <ele>234.606</ele>
        <time>2019-09-22T14:56:19.001Z</time>
      </trkpt>
      <trkpt lat="48.79967" lon="5.54593">
        <ele>231.487</ele>
        <time>2019-09-22T14:56:49.001Z</time>
      </trkpt>
      <trkpt lat="48.79838" lon="5.54505">
        <ele>228.464</ele>
        <time>2019-09-22T14:57:19.001Z</time>
      </trkpt>
      <trkpt lat="48.79722" lon="5.54424">
        <ele>230.518</ele>
        <time>2019-09-22T14:57:49.001Z</time>
      </trkpt>
      <trkpt lat="48.79635" lon="5.54361">
        <ele>236.796</ele>
        <time>2019-09-22T14:58:19.001Z</time>
      </trkpt>
      <trkpt lat="48.79577" lon="5.54321">
        <ele>239.384</ele>
        <time>2019-09-22T14:59:04.001Z</time>
      </trkpt>
      <trkpt lat="48.79497" lon="5.54525">
        <ele>228.466</ele>
        <time>2019-09-22T14:59:34.001Z</time>
      </trkpt>
      <trkpt lat="48.79429" lon="5.54742">
        <ele>226.455</ele>
        <time>2019-09-22T15:00:04.001Z</time>
      </trkpt>
      <trkpt lat="48.79374" lon="5.54956">
        <ele>229.431</ele>
        <time>2019-09-22T15:00:34.001Z</time>
      </trkpt>
      <trkpt lat="48.79314" lon="5.55179">
        <ele>228.968</ele>
        <time>2019-09-22T15:01:04.001Z</time>
      </trkpt>
      <trkpt lat="48.79249" lon="5.55422">
        <ele>226.179</ele>
        <time>2019-09-22T15:01:34.001Z</time>
      </trkpt>
      <trkpt lat="48.79184" lon="5.5565">
        <ele>227.549</ele>
        <time>2019-09-22T15:02:04.001Z</time>
      </trkpt>
      <trkpt lat="48.79112" lon="5.55856">
        <ele>228.359</ele>
        <time>2019-09-22T15:02:34.001Z</time>
      </trkpt>
      <trkpt lat="48.79005" lon="5.56057">
        <ele>229.968</ele>
        <time>2019-09-22T15:03:04.001Z</time>
      </trkpt>
      <trkpt lat="48.78897" lon="5.56227">
        <ele>230.034</ele>
        <time>2019-09-22T15:03:34.001Z</time>
      </trkpt>
      <trkpt lat="48.78784" lon="5.56413">
        <ele>231.351</ele>
        <time>2019-09-22T15:04:04.001Z</time>
      </trkpt>
      <trkpt lat="48.78666" lon="5.56591">
        <ele>231.722</ele>
        <time>2019-09-22T15:04:34.001Z</time>
      </trkpt>
      <trkpt lat="48.7851" lon="5.56662">
        <ele>230.775</ele>
        <time>2019-09-22T15:05:04.001Z</time>
      </trkpt>
      <trkpt lat="48.7835" lon="5.56682">
        <ele>231.74</ele>
        <time>2019-09-22T15:05:34.001Z</time>
      </trkpt>
      <trkpt lat="48.78194" lon="5.56687">
        <ele>238.784</ele>
        <time>2019-09-22T15:06:04.001Z</time>
      </trkpt>
      <trkpt lat="48.78036" lon="5.56716">
        <ele>237.517</ele>
        <time>2019-09-22T15:06:34.001Z</time>
      </trkpt>
      <trkpt lat="48.77881" lon="5.56773">
        <ele>236.738</ele>
        <time>2019-09-22T15:07:04.001Z</time>
      </trkpt>
      <trkpt lat="48.77733" lon="5.56863">
        <ele>231.877</ele>
        <time>2019-09-22T15:07:34.001Z</time>
      </trkpt>
      <trkpt lat="48.7759" lon="5.5697">
        <ele>228.16</ele>
        <time>2019-09-22T15:08:04.001Z</time>
      </trkpt>
      <trkpt lat="48.77451" lon="5.57109">
        <ele>229.297</ele>
        <time>2019-09-22T15:08:34.001Z</time>
      </trkpt>
      <trkpt lat="48.77328" lon="5.57268">
        <ele>230.49</ele>
        <time>2019-09-22T15:09:04.001Z</time>
      </trkpt>
      <trkpt lat="48.77215" lon="5.57445">
        <ele>229.051</ele>
        <time>2019-09-22T15:09:34.001Z</time>
      </trkpt>
      <trkpt lat="48.77143" lon="5.57648">
        <ele>230.991</ele>
        <time>2019-09-22T15:10:04.001Z</time>
      </trkpt>
      <trkpt lat="48.77083" lon="5.57893">
        <ele>231.623</ele>
        <time>2019-09-22T15:10:34.001Z</time>
      </trkpt>
      <trkpt lat="48.77029" lon="5.5813">
        <ele>241.35</ele>
        <time>2019-09-22T15:11:04.001Z</time>
      </trkpt>
      <trkpt lat="48.76985" lon="5.58329">
        <ele>233.984</ele>
        <time>2019-09-22T15:11:34.001Z</time>
      </trkpt>
      <trkpt lat="48.76951" lon="5.58516">
        <ele>232.997</ele>
        <time>2019-09-22T15:12:04.001Z</time>
      </trkpt>
      <trkpt lat="48.76893" lon="5.58756">
        <ele>233.868</ele>
        <time>2019-09-22T15:12:34.001Z</time>
      </trkpt>
      <trkpt lat="48.76833" lon="5.59005">
        <ele>232.872</ele>
        <time>2019-09-22T15:13:04.001Z</time>
      </trkpt>
      <trkpt lat="48.76737" lon="5.59257">
        <ele>235.878</ele>
        <time>2019-09-22T15:13:34.001Z</time>
      </trkpt>
      <trkpt lat="48.7661" lon="5.59471">
        <ele>236.571</ele>
        <time>2019-09-22T15:14:04.001Z</time>
      </trkpt>
      <trkpt lat="48.76467" lon="5.59627">
        <ele>232.405</ele>
        <time>2019-09-22T15:14:34.001Z</time>
      </trkpt>
      <trkpt lat="48.76336" lon="5.59769">
        <ele>229.652</ele>
        <time>2019-09-22T15:15:04.001Z</time>
      </trkpt>
      <trkpt lat="48.76212" lon="5.59926">
        <ele>233.254</ele>
        <time>2019-09-22T15:15:34.001Z</time>
      </trkpt>
      <trkpt lat="48.76111" lon="5.60135">
        <ele>242.788</ele>
        <time>2019-09-22T15:16:04.001Z</time>
      </trkpt>
      <trkpt lat="48.76009" lon="5.60325">
        <ele>245.595</ele>
        <time>2019-09-22T15:16:34.001Z</time>
      </trkpt>
      <trkpt lat="48.75912" lon="5.60509">
        <ele>238.711</ele>
        <time>2019-09-22T15:17:04.001Z</time>
      </trkpt>
      <trkpt lat="48.75818" lon="5.60698">
        <ele>238.975</ele>
        <time>2019-09-22T15:17:34.001Z</time>
      </trkpt>
      <trkpt lat="48.75729" lon="5.60903">
        <ele>237.291</ele>
        <time>2019-09-22T15:18:04.001Z</time>
      </trkpt>
      <trkpt lat="48.75647" lon="5.6111">
        <ele>236.596</ele>
        <time>2019-09-22T15:18:34.001Z</time>
      </trkpt>
      <trkpt lat="48.7557" lon="5.61305">
        <ele>236.589</ele>
        <time>2019-09-22T15:19:04.001Z</time>
      </trkpt>
      <trkpt lat="48.75486" lon="5.61513">
        <ele>236.799</ele>
        <time>2019-09-22T15:19:34.001Z</time>
      </trkpt>
      <trkpt lat="48.75407" lon="5.61718">
        <ele>234.456</ele>
        <time>2019-09-22T15:20:04.001Z</time>
      </trkpt>
      <trkpt lat="48.75316" lon="5.6193">
        <ele>232.412</ele>
        <time>2019-09-22T15:20:34.001Z</time>
      </trkpt>
      <trkpt lat="48.75225" lon="5.62097">
        <ele>238.746</ele>
        <time>2019-09-22T15:21:04.001Z</time>
      </trkpt>
      <trkpt lat="48.75153" lon="5.62223">
        <ele>244.017</ele>
        <time>2019-09-22T15:21:34.001Z</time>
      </trkpt>
      <trkpt lat="48.75075" lon="5.62346">
        <ele>251.783</ele>
        <time>2019-09-22T15:22:04.001Z</time>
      </trkpt>
      <trkpt lat="48.74967" lon="5.62442">
        <ele>252.93</ele>
        <time>2019-09-22T15:22:34.001Z</time>
      </trkpt>
      <trkpt lat="48.74958" lon="5.62459">
        <ele>253.553</ele>
        <time>2019-09-22T15:25:55.001Z</time>
      </trkpt>
    </trkseg>
  </trk>
  <trk>
    <name><![CDATA[Tracé 20190923-100551]]></name>
    <trkseg>
      <trkpt lat="48.74962" lon="5.62447">
        <ele>248.342</ele>
        <time>2019-09-23T08:07:06.000Z</time>
      </trkpt>
      <trkpt lat="48.74872" lon="5.62501">
        <ele>249.417</ele>
        <time>2019-09-23T08:10:06.000Z</time>
      </trkpt>
      <trkpt lat="48.74798" lon="5.62632">
        <ele>253.325</ele>
        <time>2019-09-23T08:10:36.000Z</time>
      </trkpt>
      <trkpt lat="48.74729" lon="5.62773">
        <ele>251.409</ele>
        <time>2019-09-23T08:11:06.000Z</time>
      </trkpt>
      <trkpt lat="48.74641" lon="5.62928">
        <ele>247.696</ele>
        <time>2019-09-23T08:11:36.000Z</time>
      </trkpt>
      <trkpt lat="48.74536" lon="5.63131">
        <ele>243.046</ele>
        <time>2019-09-23T08:12:06.000Z</time>
      </trkpt>
      <trkpt lat="48.74429" lon="5.6333">
        <ele>240.284</ele>
        <time>2019-09-23T08:12:36.000Z</time>
      </trkpt>
      <trkpt lat="48.74322" lon="5.63543">
        <ele>238.954</ele>
        <time>2019-09-23T08:13:06.000Z</time>
      </trkpt>
      <trkpt lat="48.74234" lon="5.63654">
        <ele>237.445</ele>
        <time>2019-09-23T08:13:36.000Z</time>
      </trkpt>
      <trkpt lat="48.7407" lon="5.63578">
        <ele>235.258</ele>
        <time>2019-09-23T08:14:06.000Z</time>
      </trkpt>
      <trkpt lat="48.73922" lon="5.63512">
        <ele>233.154</ele>
        <time>2019-09-23T08:14:36.000Z</time>
      </trkpt>
      <trkpt lat="48.73775" lon="5.63446">
        <ele>232.862</ele>
        <time>2019-09-23T08:15:06.000Z</time>
      </trkpt>
      <trkpt lat="48.7365" lon="5.63382">
        <ele>236.526</ele>
        <time>2019-09-23T08:15:36.000Z</time>
      </trkpt>
      <trkpt lat="48.73552" lon="5.63423">
        <ele>244.681</ele>
        <time>2019-09-23T08:16:06.000Z</time>
      </trkpt>
      <trkpt lat="48.73489" lon="5.63556">
        <ele>248.718</ele>
        <time>2019-09-23T08:16:36.000Z</time>
      </trkpt>
      <trkpt lat="48.73453" lon="5.63668">
        <ele>244.459</ele>
        <time>2019-09-23T08:17:06.000Z</time>
      </trkpt>
      <trkpt lat="48.73339" lon="5.6363">
        <ele>244.309</ele>
        <time>2019-09-23T08:17:36.000Z</time>
      </trkpt>
      <trkpt lat="48.73222" lon="5.63628">
        <ele>246.231</ele>
        <time>2019-09-23T08:18:06.000Z</time>
      </trkpt>
      <trkpt lat="48.73073" lon="5.63444">
        <ele>238.632</ele>
        <time>2019-09-23T08:18:36.000Z</time>
      </trkpt>
      <trkpt lat="48.72893" lon="5.63487">
        <ele>230.271</ele>
        <time>2019-09-23T08:19:06.000Z</time>
      </trkpt>
      <trkpt lat="48.72766" lon="5.63517">
        <ele>231.648</ele>
        <time>2019-09-23T08:19:36.000Z</time>
      </trkpt>
      <trkpt lat="48.72638" lon="5.63546">
        <ele>233.414</ele>
        <time>2019-09-23T08:20:06.000Z</time>
      </trkpt>
      <trkpt lat="48.72508" lon="5.63579">
        <ele>233.885</ele>
        <time>2019-09-23T08:20:36.000Z</time>
      </trkpt>
      <trkpt lat="48.72379" lon="5.63611">
        <ele>231.402</ele>
        <time>2019-09-23T08:21:06.000Z</time>
      </trkpt>
      <trkpt lat="48.72253" lon="5.63641">
        <ele>232.29</ele>
        <time>2019-09-23T08:21:36.000Z</time>
      </trkpt>
      <trkpt lat="48.72143" lon="5.63668">
        <ele>236.573</ele>
        <time>2019-09-23T08:22:06.000Z</time>
      </trkpt>
      <trkpt lat="48.71992" lon="5.63688">
        <ele>234.232</ele>
        <time>2019-09-23T08:22:36.000Z</time>
      </trkpt>
      <trkpt lat="48.71883" lon="5.63589">
        <ele>241.484</ele>
        <time>2019-09-23T08:23:06.000Z</time>
      </trkpt>
      <trkpt lat="48.7177" lon="5.6356">
        <ele>245.218</ele>
        <time>2019-09-23T08:23:36.000Z</time>
      </trkpt>
      <trkpt lat="48.71639" lon="5.63545">
        <ele>244.897</ele>
        <time>2019-09-23T08:24:06.000Z</time>
      </trkpt>
      <trkpt lat="48.71503" lon="5.63521">
        <ele>241.577</ele>
        <time>2019-09-23T08:24:36.000Z</time>
      </trkpt>
      <trkpt lat="48.71382" lon="5.63447">
        <ele>244.216</ele>
        <time>2019-09-23T08:25:06.000Z</time>
      </trkpt>
      <trkpt lat="48.71276" lon="5.63462">
        <ele>251.599</ele>
        <time>2019-09-23T08:25:36.000Z</time>
      </trkpt>
      <trkpt lat="48.71168" lon="5.63418">
        <ele>258.725</ele>
        <time>2019-09-23T08:26:06.000Z</time>
      </trkpt>
      <trkpt lat="48.711" lon="5.63224">
        <ele>250.59</ele>
        <time>2019-09-23T08:26:36.000Z</time>
      </trkpt>
      <trkpt lat="48.71047" lon="5.63036">
        <ele>240.656</ele>
        <time>2019-09-23T08:27:06.000Z</time>
      </trkpt>
      <trkpt lat="48.71063" lon="5.62803">
        <ele>232.911</ele>
        <time>2019-09-23T08:27:39.000Z</time>
      </trkpt>
      <trkpt lat="48.70965" lon="5.62708">
        <ele>232.04</ele>
        <time>2019-09-23T08:28:09.000Z</time>
      </trkpt>
      <trkpt lat="48.70836" lon="5.62659">
        <ele>233.76</ele>
        <time>2019-09-23T08:28:39.000Z</time>
      </trkpt>
      <trkpt lat="48.70709" lon="5.62611">
        <ele>233.344</ele>
        <time>2019-09-23T08:29:09.000Z</time>
      </trkpt>
      <trkpt lat="48.70581" lon="5.62562">
        <ele>232.142</ele>
        <time>2019-09-23T08:29:39.000Z</time>
      </trkpt>
      <trkpt lat="48.70462" lon="5.62517">
        <ele>233.564</ele>
        <time>2019-09-23T08:30:09.000Z</time>
      </trkpt>
      <trkpt lat="48.70342" lon="5.62471">
        <ele>233.064</ele>
        <time>2019-09-23T08:30:39.000Z</time>
      </trkpt>
      <trkpt lat="48.70216" lon="5.62423">
        <ele>235.519</ele>
        <time>2019-09-23T08:31:09.000Z</time>
      </trkpt>
      <trkpt lat="48.70091" lon="5.62399">
        <ele>234.297</ele>
        <time>2019-09-23T08:31:39.000Z</time>
      </trkpt>
      <trkpt lat="48.6997" lon="5.62394">
        <ele>233.432</ele>
        <time>2019-09-23T08:32:09.000Z</time>
      </trkpt>
      <trkpt lat="48.69849" lon="5.62386">
        <ele>232.541</ele>
        <time>2019-09-23T08:32:39.000Z</time>
      </trkpt>
      <trkpt lat="48.69725" lon="5.62379">
        <ele>234.172</ele>
        <time>2019-09-23T08:33:09.000Z</time>
      </trkpt>
      <trkpt lat="48.69603" lon="5.62372">
        <ele>236.238</ele>
        <time>2019-09-23T08:33:39.000Z</time>
      </trkpt>
      <trkpt lat="48.69482" lon="5.6237">
        <ele>238.338</ele>
        <time>2019-09-23T08:34:09.000Z</time>
      </trkpt>
      <trkpt lat="48.69351" lon="5.62354">
        <ele>237.624</ele>
        <time>2019-09-23T08:34:39.000Z</time>
      </trkpt>
      <trkpt lat="48.69239" lon="5.62293">
        <ele>237.472</ele>
        <time>2019-09-23T08:35:09.000Z</time>
      </trkpt>
      <trkpt lat="48.69132" lon="5.62248">
        <ele>238.01</ele>
        <time>2019-09-23T08:35:39.000Z</time>
      </trkpt>
      <trkpt lat="48.69054" lon="5.62165">
        <ele>243.934</ele>
        <time>2019-09-23T08:36:12.000Z</time>
      </trkpt>
      <trkpt lat="48.69012" lon="5.62223">
        <ele>241.85</ele>
        <time>2019-09-23T08:36:42.000Z</time>
      </trkpt>
      <trkpt lat="48.68899" lon="5.62181">
        <ele>241.115</ele>
        <time>2019-09-23T08:37:12.000Z</time>
      </trkpt>
      <trkpt lat="48.68805" lon="5.62142">
        <ele>245.493</ele>
        <time>2019-09-23T08:37:42.000Z</time>
      </trkpt>
      <trkpt lat="48.68792" lon="5.62119">
        <ele>246.071</ele>
        <time>2019-09-23T08:46:21.000Z</time>
      </trkpt>
      <trkpt lat="48.68724" lon="5.62132">
        <ele>249.207</ele>
        <time>2019-09-23T08:46:54.000Z</time>
      </trkpt>
      <trkpt lat="48.68653" lon="5.62126">
        <ele>249.868</ele>
        <time>2019-09-23T08:47:24.000Z</time>
      </trkpt>
      <trkpt lat="48.6855" lon="5.62115">
        <ele>251.356</ele>
        <time>2019-09-23T08:47:54.000Z</time>
      </trkpt>
      <trkpt lat="48.68444" lon="5.62115">
        <ele>256.582</ele>
        <time>2019-09-23T08:48:24.000Z</time>
      </trkpt>
      <trkpt lat="48.68571" lon="5.62084">
        <ele>255.228</ele>
        <time>2019-09-23T08:48:54.000Z</time>
      </trkpt>
      <trkpt lat="48.68662" lon="5.62277">
        <ele>249.92</ele>
        <time>2019-09-23T08:49:24.000Z</time>
      </trkpt>
      <trkpt lat="48.68716" lon="5.6242">
        <ele>253.467</ele>
        <time>2019-09-23T08:49:54.000Z</time>
      </trkpt>
      <trkpt lat="48.68733" lon="5.62614">
        <ele>262.18</ele>
        <time>2019-09-23T08:50:24.000Z</time>
      </trkpt>
      <trkpt lat="48.68682" lon="5.62796">
        <ele>261.119</ele>
        <time>2019-09-23T08:50:54.000Z</time>
      </trkpt>
      <trkpt lat="48.68573" lon="5.63034">
        <ele>251.251</ele>
        <time>2019-09-23T08:51:24.000Z</time>
      </trkpt>
      <trkpt lat="48.68443" lon="5.63181">
        <ele>248.289</ele>
        <time>2019-09-23T08:51:54.000Z</time>
      </trkpt>
      <trkpt lat="48.68351" lon="5.63355">
        <ele>243.263</ele>
        <time>2019-09-23T08:52:24.000Z</time>
      </trkpt>
      <trkpt lat="48.68254" lon="5.63499">
        <ele>245.792</ele>
        <time>2019-09-23T08:52:54.000Z</time>
      </trkpt>
      <trkpt lat="48.68164" lon="5.63613">
        <ele>248.62</ele>
        <time>2019-09-23T08:53:24.000Z</time>
      </trkpt>
      <trkpt lat="48.68098" lon="5.63724">
        <ele>250.344</ele>
        <time>2019-09-23T08:53:54.000Z</time>
      </trkpt>
      <trkpt lat="48.68036" lon="5.63823">
        <ele>251.093</ele>
        <time>2019-09-23T08:54:24.000Z</time>
      </trkpt>
      <trkpt lat="48.67969" lon="5.63935">
        <ele>253.866</ele>
        <time>2019-09-23T08:54:54.000Z</time>
      </trkpt>
      <trkpt lat="48.67893" lon="5.64068">
        <ele>254.131</ele>
        <time>2019-09-23T08:55:24.000Z</time>
      </trkpt>
      <trkpt lat="48.6782" lon="5.64187">
        <ele>255.966</ele>
        <time>2019-09-23T08:55:54.000Z</time>
      </trkpt>
      <trkpt lat="48.67757" lon="5.64307">
        <ele>259.146</ele>
        <time>2019-09-23T08:56:24.000Z</time>
      </trkpt>
      <trkpt lat="48.67715" lon="5.6443">
        <ele>261.55</ele>
        <time>2019-09-23T08:56:54.000Z</time>
      </trkpt>
      <trkpt lat="48.67689" lon="5.64549">
        <ele>261.163</ele>
        <time>2019-09-23T08:57:24.000Z</time>
      </trkpt>
      <trkpt lat="48.67658" lon="5.64664">
        <ele>266.334</ele>
        <time>2019-09-23T08:57:54.000Z</time>
      </trkpt>
      <trkpt lat="48.67622" lon="5.6477">
        <ele>270.74</ele>
        <time>2019-09-23T08:58:24.000Z</time>
      </trkpt>
      <trkpt lat="48.67592" lon="5.64865">
        <ele>273.255</ele>
        <time>2019-09-23T08:58:54.000Z</time>
      </trkpt>
      <trkpt lat="48.67564" lon="5.64946">
        <ele>277.261</ele>
        <time>2019-09-23T08:59:24.000Z</time>
      </trkpt>
      <trkpt lat="48.67541" lon="5.65022">
        <ele>280.106</ele>
        <time>2019-09-23T08:59:54.000Z</time>
      </trkpt>
      <trkpt lat="48.67504" lon="5.65099">
        <ele>282.869</ele>
        <time>2019-09-23T09:00:24.000Z</time>
      </trkpt>
      <trkpt lat="48.67449" lon="5.65147">
        <ele>287.314</ele>
        <time>2019-09-23T09:00:54.000Z</time>
      </trkpt>
      <trkpt lat="48.67387" lon="5.65155">
        <ele>293.44</ele>
        <time>2019-09-23T09:01:24.000Z</time>
      </trkpt>
      <trkpt lat="48.67322" lon="5.65148">
        <ele>295.971</ele>
        <time>2019-09-23T09:01:54.000Z</time>
      </trkpt>
      <trkpt lat="48.67265" lon="5.65142">
        <ele>300.255</ele>
        <time>2019-09-23T09:02:24.000Z</time>
      </trkpt>
      <trkpt lat="48.67205" lon="5.65139">
        <ele>306.569</ele>
        <time>2019-09-23T09:02:54.000Z</time>
      </trkpt>
      <trkpt lat="48.67155" lon="5.6521">
        <ele>311.402</ele>
        <time>2019-09-23T09:03:27.000Z</time>
      </trkpt>
      <trkpt lat="48.67164" lon="5.653">
        <ele>313.183</ele>
        <time>2019-09-23T09:03:57.000Z</time>
      </trkpt>
      <trkpt lat="48.6718" lon="5.65382">
        <ele>316.138</ele>
        <time>2019-09-23T09:04:27.000Z</time>
      </trkpt>
      <trkpt lat="48.67195" lon="5.65463">
        <ele>322.926</ele>
        <time>2019-09-23T09:04:57.000Z</time>
      </trkpt>
      <trkpt lat="48.67208" lon="5.65559">
        <ele>331.498</ele>
        <time>2019-09-23T09:05:27.000Z</time>
      </trkpt>
      <trkpt lat="48.6721" lon="5.6564">
        <ele>330.852</ele>
        <time>2019-09-23T09:05:57.000Z</time>
      </trkpt>
      <trkpt lat="48.6721" lon="5.65731">
        <ele>333.102</ele>
        <time>2019-09-23T09:06:27.000Z</time>
      </trkpt>
      <trkpt lat="48.6721" lon="5.65831">
        <ele>334.625</ele>
        <time>2019-09-23T09:06:57.000Z</time>
      </trkpt>
      <trkpt lat="48.67205" lon="5.6594">
        <ele>337.062</ele>
        <time>2019-09-23T09:07:27.000Z</time>
      </trkpt>
      <trkpt lat="48.67193" lon="5.66033">
        <ele>336.648</ele>
        <time>2019-09-23T09:07:57.000Z</time>
      </trkpt>
      <trkpt lat="48.67166" lon="5.66125">
        <ele>341.173</ele>
        <time>2019-09-23T09:08:27.000Z</time>
      </trkpt>
      <trkpt lat="48.67135" lon="5.66217">
        <ele>342.614</ele>
        <time>2019-09-23T09:08:57.000Z</time>
      </trkpt>
      <trkpt lat="48.67078" lon="5.66364">
        <ele>341.484</ele>
        <time>2019-09-23T09:09:27.000Z</time>
      </trkpt>
      <trkpt lat="48.66875" lon="5.66472">
        <ele>336.783</ele>
        <time>2019-09-23T09:09:57.000Z</time>
      </trkpt>
      <trkpt lat="48.66713" lon="5.66779">
        <ele>325.328</ele>
        <time>2019-09-23T09:10:27.000Z</time>
      </trkpt>
      <trkpt lat="48.66679" lon="5.67208">
        <ele>312.537</ele>
        <time>2019-09-23T09:10:57.000Z</time>
      </trkpt>
      <trkpt lat="48.66742" lon="5.67776">
        <ele>286.336</ele>
        <time>2019-09-23T09:11:30.000Z</time>
      </trkpt>
      <trkpt lat="48.66668" lon="5.68188">
        <ele>277.927</ele>
        <time>2019-09-23T09:12:00.000Z</time>
      </trkpt>
      <trkpt lat="48.66498" lon="5.68398">
        <ele>271.976</ele>
        <time>2019-09-23T09:12:30.000Z</time>
      </trkpt>
      <trkpt lat="48.66271" lon="5.68499">
        <ele>262.84</ele>
        <time>2019-09-23T09:13:00.000Z</time>
      </trkpt>
      <trkpt lat="48.66019" lon="5.68558">
        <ele>251.562</ele>
        <time>2019-09-23T09:13:30.000Z</time>
      </trkpt>
      <trkpt lat="48.65892" lon="5.6866">
        <ele>246.524</ele>
        <time>2019-09-23T09:14:24.000Z</time>
      </trkpt>
      <trkpt lat="48.65869" lon="5.68615">
        <ele>244.651</ele>
        <time>2019-09-23T09:14:57.000Z</time>
      </trkpt>
      <trkpt lat="48.65799" lon="5.68512">
        <ele>243.82</ele>
        <time>2019-09-23T09:16:06.000Z</time>
      </trkpt>
      <trkpt lat="48.65675" lon="5.68453">
        <ele>243.454</ele>
        <time>2019-09-23T09:16:36.000Z</time>
      </trkpt>
      <trkpt lat="48.65549" lon="5.68404">
        <ele>243.642</ele>
        <time>2019-09-23T09:17:06.000Z</time>
      </trkpt>
      <trkpt lat="48.65422" lon="5.68354">
        <ele>244.627</ele>
        <time>2019-09-23T09:17:36.000Z</time>
      </trkpt>
      <trkpt lat="48.65291" lon="5.68301">
        <ele>244.439</ele>
        <time>2019-09-23T09:18:06.000Z</time>
      </trkpt>
      <trkpt lat="48.65161" lon="5.68251">
        <ele>243.567</ele>
        <time>2019-09-23T09:18:36.000Z</time>
      </trkpt>
      <trkpt lat="48.65039" lon="5.68199">
        <ele>243.962</ele>
        <time>2019-09-23T09:19:06.000Z</time>
      </trkpt>
      <trkpt lat="48.6493" lon="5.68203">
        <ele>245.543</ele>
        <time>2019-09-23T09:19:36.000Z</time>
      </trkpt>
      <trkpt lat="48.6491" lon="5.68388">
        <ele>245.845</ele>
        <time>2019-09-23T09:20:06.000Z</time>
      </trkpt>
      <trkpt lat="48.64898" lon="5.68551">
        <ele>247.998</ele>
        <time>2019-09-23T09:20:36.000Z</time>
      </trkpt>
      <trkpt lat="48.64894" lon="5.68668">
        <ele>249.238</ele>
        <time>2019-09-23T09:21:06.000Z</time>
      </trkpt>
      <trkpt lat="48.64889" lon="5.68765">
        <ele>258.372</ele>
        <time>2019-09-23T09:21:36.000Z</time>
      </trkpt>
      <trkpt lat="48.64889" lon="5.6887">
        <ele>262.279</ele>
        <time>2019-09-23T09:22:06.000Z</time>
      </trkpt>
      <trkpt lat="48.64898" lon="5.68996">
        <ele>265.733</ele>
        <time>2019-09-23T09:22:36.000Z</time>
      </trkpt>
      <trkpt lat="48.64894" lon="5.69117">
        <ele>269.312</ele>
        <time>2019-09-23T09:23:06.000Z</time>
      </trkpt>
      <trkpt lat="48.6482" lon="5.69218">
        <ele>265.647</ele>
        <time>2019-09-23T09:23:36.000Z</time>
      </trkpt>
      <trkpt lat="48.64808" lon="5.69467">
        <ele>258.999</ele>
        <time>2019-09-23T09:24:06.000Z</time>
      </trkpt>
      <trkpt lat="48.64812" lon="5.69805">
        <ele>250.785</ele>
        <time>2019-09-23T09:24:36.000Z</time>
      </trkpt>
      <trkpt lat="48.64798" lon="5.70143">
        <ele>247.996</ele>
        <time>2019-09-23T09:25:06.000Z</time>
      </trkpt>
      <trkpt lat="48.6473" lon="5.70382">
        <ele>248.88</ele>
        <time>2019-09-23T09:25:36.000Z</time>
      </trkpt>
      <trkpt lat="48.64626" lon="5.70532">
        <ele>248.613</ele>
        <time>2019-09-23T09:26:06.000Z</time>
      </trkpt>
      <trkpt lat="48.64518" lon="5.70669">
        <ele>246.896</ele>
        <time>2019-09-23T09:26:36.000Z</time>
      </trkpt>
      <trkpt lat="48.64387" lon="5.70662">
        <ele>244.991</ele>
        <time>2019-09-23T09:27:06.000Z</time>
      </trkpt>
      <trkpt lat="48.64262" lon="5.70548">
        <ele>244.868</ele>
        <time>2019-09-23T09:27:36.000Z</time>
      </trkpt>
      <trkpt lat="48.64139" lon="5.7047">
        <ele>247.636</ele>
        <time>2019-09-23T09:28:06.000Z</time>
      </trkpt>
      <trkpt lat="48.63999" lon="5.70535">
        <ele>255.372</ele>
        <time>2019-09-23T09:28:36.000Z</time>
      </trkpt>
      <trkpt lat="48.6386" lon="5.70535">
        <ele>257.25</ele>
        <time>2019-09-23T09:29:06.000Z</time>
      </trkpt>
      <trkpt lat="48.63732" lon="5.70475">
        <ele>260.764</ele>
        <time>2019-09-23T09:29:36.000Z</time>
      </trkpt>
      <trkpt lat="48.63606" lon="5.704">
        <ele>257.184</ele>
        <time>2019-09-23T09:30:06.000Z</time>
      </trkpt>
      <trkpt lat="48.63462" lon="5.70284">
        <ele>253.638</ele>
        <time>2019-09-23T09:30:36.000Z</time>
      </trkpt>
      <trkpt lat="48.63322" lon="5.70188">
        <ele>253.768</ele>
        <time>2019-09-23T09:31:06.000Z</time>
      </trkpt>
      <trkpt lat="48.63197" lon="5.70067">
        <ele>252.15</ele>
        <time>2019-09-23T09:31:36.000Z</time>
      </trkpt>
      <trkpt lat="48.63108" lon="5.69899">
        <ele>256.513</ele>
        <time>2019-09-23T09:32:06.000Z</time>
      </trkpt>
      <trkpt lat="48.63022" lon="5.69709">
        <ele>265.008</ele>
        <time>2019-09-23T09:32:36.000Z</time>
      </trkpt>
      <trkpt lat="48.62952" lon="5.69523">
        <ele>261.619</ele>
        <time>2019-09-23T09:33:06.000Z</time>
      </trkpt>
      <trkpt lat="48.62895" lon="5.69311">
        <ele>260.414</ele>
        <time>2019-09-23T09:33:36.000Z</time>
      </trkpt>
      <trkpt lat="48.62872" lon="5.69109">
        <ele>250.081</ele>
        <time>2019-09-23T09:34:06.000Z</time>
      </trkpt>
      <trkpt lat="48.62848" lon="5.68893">
        <ele>247.679</ele>
        <time>2019-09-23T09:34:36.000Z</time>
      </trkpt>
      <trkpt lat="48.62814" lon="5.68662">
        <ele>247.6</ele>
        <time>2019-09-23T09:35:06.000Z</time>
      </trkpt>
      <trkpt lat="48.62769" lon="5.68472">
        <ele>250.749</ele>
        <time>2019-09-23T09:35:36.000Z</time>
      </trkpt>
      <trkpt lat="48.62729" lon="5.68329">
        <ele>252.248</ele>
        <time>2019-09-23T09:36:06.000Z</time>
      </trkpt>
      <trkpt lat="48.62658" lon="5.68157">
        <ele>247.617</ele>
        <time>2019-09-23T09:36:36.000Z</time>
      </trkpt>
      <trkpt lat="48.62537" lon="5.68029">
        <ele>248.662</ele>
        <time>2019-09-23T09:37:06.000Z</time>
      </trkpt>
      <trkpt lat="48.62415" lon="5.6792">
        <ele>249.462</ele>
        <time>2019-09-23T09:37:36.000Z</time>
      </trkpt>
      <trkpt lat="48.62297" lon="5.6781">
        <ele>252.971</ele>
        <time>2019-09-23T09:38:06.000Z</time>
      </trkpt>
      <trkpt lat="48.62168" lon="5.67705">
        <ele>250.296</ele>
        <time>2019-09-23T09:38:36.000Z</time>
      </trkpt>
      <trkpt lat="48.62045" lon="5.67599">
        <ele>250.331</ele>
        <time>2019-09-23T09:39:06.000Z</time>
      </trkpt>
      <trkpt lat="48.61923" lon="5.67492">
        <ele>251.512</ele>
        <time>2019-09-23T09:39:36.000Z</time>
      </trkpt>
      <trkpt lat="48.61789" lon="5.67374">
        <ele>249.141</ele>
        <time>2019-09-23T09:40:06.000Z</time>
      </trkpt>
      <trkpt lat="48.61676" lon="5.67277">
        <ele>252.897</ele>
        <time>2019-09-23T09:40:36.000Z</time>
      </trkpt>
      <trkpt lat="48.61565" lon="5.67181">
        <ele>253.101</ele>
        <time>2019-09-23T09:41:06.000Z</time>
      </trkpt>
      <trkpt lat="48.6145" lon="5.67081">
        <ele>257.04</ele>
        <time>2019-09-23T09:41:36.000Z</time>
      </trkpt>
      <trkpt lat="48.6133" lon="5.66979">
        <ele>250.039</ele>
        <time>2019-09-23T09:42:06.000Z</time>
      </trkpt>
      <trkpt lat="48.61214" lon="5.66878">
        <ele>252.106</ele>
        <time>2019-09-23T09:42:36.000Z</time>
      </trkpt>
      <trkpt lat="48.61094" lon="5.66774">
        <ele>247.637</ele>
        <time>2019-09-23T09:43:06.000Z</time>
      </trkpt>
      <trkpt lat="48.60973" lon="5.66701">
        <ele>247.286</ele>
        <time>2019-09-23T09:43:36.000Z</time>
      </trkpt>
      <trkpt lat="48.60886" lon="5.66625">
        <ele>250.78</ele>
        <time>2019-09-23T09:44:06.000Z</time>
      </trkpt>
      <trkpt lat="48.60732" lon="5.66657">
        <ele>249.855</ele>
        <time>2019-09-23T09:44:36.000Z</time>
      </trkpt>
      <trkpt lat="48.60588" lon="5.66715">
        <ele>249.862</ele>
        <time>2019-09-23T09:45:06.000Z</time>
      </trkpt>
      <trkpt lat="48.60522" lon="5.66785">
        <ele>251.069</ele>
        <time>2019-09-23T09:45:36.000Z</time>
      </trkpt>
      <trkpt lat="48.6048" lon="5.66818">
        <ele>251.499</ele>
        <time>2019-09-23T10:09:54.000Z</time>
      </trkpt>
      <trkpt lat="48.60409" lon="5.66881">
        <ele>251.121</ele>
        <time>2019-09-23T10:10:24.000Z</time>
      </trkpt>
      <trkpt lat="48.60336" lon="5.6694">
        <ele>248.966</ele>
        <time>2019-09-23T10:10:54.000Z</time>
      </trkpt>
      <trkpt lat="48.60272" lon="5.66967">
        <ele>249.554</ele>
        <time>2019-09-23T10:11:24.000Z</time>
      </trkpt>
      <trkpt lat="48.60209" lon="5.66963">
        <ele>253.948</ele>
        <time>2019-09-23T10:11:54.000Z</time>
      </trkpt>
      <trkpt lat="48.60202" lon="5.67173">
        <ele>254.584</ele>
        <time>2019-09-23T10:12:27.000Z</time>
      </trkpt>
      <trkpt lat="48.60187" lon="5.67359">
        <ele>254.593</ele>
        <time>2019-09-23T10:12:57.000Z</time>
      </trkpt>
      <trkpt lat="48.60169" lon="5.67558">
        <ele>252.809</ele>
        <time>2019-09-23T10:13:27.000Z</time>
      </trkpt>
      <trkpt lat="48.60166" lon="5.67757">
        <ele>254.409</ele>
        <time>2019-09-23T10:13:57.000Z</time>
      </trkpt>
      <trkpt lat="48.60203" lon="5.67923">
        <ele>255.63</ele>
        <time>2019-09-23T10:14:27.000Z</time>
      </trkpt>
      <trkpt lat="48.60242" lon="5.68062">
        <ele>255.538</ele>
        <time>2019-09-23T10:14:57.000Z</time>
      </trkpt>
      <trkpt lat="48.60231" lon="5.68137">
        <ele>266.761</ele>
        <time>2019-09-23T10:15:27.000Z</time>
      </trkpt>
      <trkpt lat="48.60177" lon="5.68159">
        <ele>270.163</ele>
        <time>2019-09-23T10:15:57.000Z</time>
      </trkpt>
      <trkpt lat="48.60122" lon="5.68211">
        <ele>271.954</ele>
        <time>2019-09-23T10:16:27.000Z</time>
      </trkpt>
      <trkpt lat="48.60041" lon="5.68281">
        <ele>273.809</ele>
        <time>2019-09-23T10:16:57.000Z</time>
      </trkpt>
      <trkpt lat="48.59932" lon="5.68432">
        <ele>271.486</ele>
        <time>2019-09-23T10:17:27.000Z</time>
      </trkpt>
      <trkpt lat="48.59689" lon="5.68589">
        <ele>261.567</ele>
        <time>2019-09-23T10:17:57.000Z</time>
      </trkpt>
      <trkpt lat="48.59562" lon="5.687">
        <ele>257.464</ele>
        <time>2019-09-23T10:18:27.000Z</time>
      </trkpt>
      <trkpt lat="48.59483" lon="5.68743">
        <ele>261.332</ele>
        <time>2019-09-23T10:18:57.000Z</time>
      </trkpt>
      <trkpt lat="48.59402" lon="5.68785">
        <ele>265.197</ele>
        <time>2019-09-23T10:19:27.000Z</time>
      </trkpt>
      <trkpt lat="48.59323" lon="5.68834">
        <ele>271.169</ele>
        <time>2019-09-23T10:19:57.000Z</time>
      </trkpt>
      <trkpt lat="48.59253" lon="5.68899">
        <ele>270.518</ele>
        <time>2019-09-23T10:20:27.000Z</time>
      </trkpt>
      <trkpt lat="48.59196" lon="5.68966">
        <ele>275.66</ele>
        <time>2019-09-23T10:20:57.000Z</time>
      </trkpt>
      <trkpt lat="48.59142" lon="5.69026">
        <ele>280.421</ele>
        <time>2019-09-23T10:21:27.000Z</time>
      </trkpt>
      <trkpt lat="48.59074" lon="5.69082">
        <ele>280.624</ele>
        <time>2019-09-23T10:21:57.000Z</time>
      </trkpt>
      <trkpt lat="48.58919" lon="5.6915">
        <ele>274.81</ele>
        <time>2019-09-23T10:22:27.000Z</time>
      </trkpt>
      <trkpt lat="48.58799" lon="5.69168">
        <ele>277.129</ele>
        <time>2019-09-23T10:22:57.000Z</time>
      </trkpt>
      <trkpt lat="48.58673" lon="5.69186">
        <ele>277.578</ele>
        <time>2019-09-23T10:23:27.000Z</time>
      </trkpt>
      <trkpt lat="48.58559" lon="5.69203">
        <ele>274.548</ele>
        <time>2019-09-23T10:33:45.000Z</time>
      </trkpt>
      <trkpt lat="48.58491" lon="5.69213">
        <ele>274.433</ele>
        <time>2019-09-23T10:34:27.000Z</time>
      </trkpt>
      <trkpt lat="48.58392" lon="5.69209">
        <ele>276.07</ele>
        <time>2019-09-23T10:34:57.000Z</time>
      </trkpt>
      <trkpt lat="48.58257" lon="5.69189">
        <ele>273.307</ele>
        <time>2019-09-23T10:35:27.000Z</time>
      </trkpt>
      <trkpt lat="48.58107" lon="5.69166">
        <ele>270.839</ele>
        <time>2019-09-23T10:35:57.000Z</time>
      </trkpt>
      <trkpt lat="48.57943" lon="5.69142">
        <ele>269.031</ele>
        <time>2019-09-23T10:36:27.000Z</time>
      </trkpt>
      <trkpt lat="48.57791" lon="5.69118">
        <ele>271.859</ele>
        <time>2019-09-23T10:36:57.000Z</time>
      </trkpt>
      <trkpt lat="48.57679" lon="5.69101">
        <ele>275.178</ele>
        <time>2019-09-23T10:37:27.000Z</time>
      </trkpt>
      <trkpt lat="48.57561" lon="5.69077">
        <ele>274.102</ele>
        <time>2019-09-23T10:37:57.000Z</time>
      </trkpt>
      <trkpt lat="48.57361" lon="5.69027">
        <ele>261.805</ele>
        <time>2019-09-23T10:38:27.000Z</time>
      </trkpt>
      <trkpt lat="48.57208" lon="5.68987">
        <ele>261.133</ele>
        <time>2019-09-23T10:38:57.000Z</time>
      </trkpt>
      <trkpt lat="48.57062" lon="5.68951">
        <ele>261.109</ele>
        <time>2019-09-23T10:39:27.000Z</time>
      </trkpt>
      <trkpt lat="48.5692" lon="5.68914">
        <ele>264.479</ele>
        <time>2019-09-23T10:39:57.000Z</time>
      </trkpt>
      <trkpt lat="48.56785" lon="5.6888">
        <ele>263.789</ele>
        <time>2019-09-23T10:40:27.000Z</time>
      </trkpt>
      <trkpt lat="48.56647" lon="5.68843">
        <ele>262.955</ele>
        <time>2019-09-23T10:40:57.000Z</time>
      </trkpt>
      <trkpt lat="48.56524" lon="5.68812">
        <ele>263.317</ele>
        <time>2019-09-23T10:41:27.000Z</time>
      </trkpt>
      <trkpt lat="48.56413" lon="5.68782">
        <ele>267.082</ele>
        <time>2019-09-23T10:41:57.000Z</time>
      </trkpt>
      <trkpt lat="48.56312" lon="5.68754">
        <ele>267.778</ele>
        <time>2019-09-23T10:42:27.000Z</time>
      </trkpt>
      <trkpt lat="48.56218" lon="5.68726">
        <ele>270.156</ele>
        <time>2019-09-23T10:42:57.000Z</time>
      </trkpt>
      <trkpt lat="48.56111" lon="5.68689">
        <ele>267.494</ele>
        <time>2019-09-23T10:43:27.000Z</time>
      </trkpt>
      <trkpt lat="48.55991" lon="5.6865">
        <ele>267.981</ele>
        <time>2019-09-23T10:43:57.000Z</time>
      </trkpt>
      <trkpt lat="48.55804" lon="5.68646">
        <ele>260.39</ele>
        <time>2019-09-23T10:44:27.000Z</time>
      </trkpt>
      <trkpt lat="48.5577" lon="5.6866">
        <ele>261.469</ele>
        <time>2019-09-23T10:48:42.000Z</time>
      </trkpt>
      <trkpt lat="48.55661" lon="5.68693">
        <ele>262.617</ele>
        <time>2019-09-23T10:49:12.000Z</time>
      </trkpt>
      <trkpt lat="48.55549" lon="5.6873">
        <ele>261.477</ele>
        <time>2019-09-23T10:49:42.000Z</time>
      </trkpt>
      <trkpt lat="48.55456" lon="5.68761">
        <ele>266.368</ele>
        <time>2019-09-23T10:50:12.000Z</time>
      </trkpt>
      <trkpt lat="48.55369" lon="5.68775">
        <ele>267.333</ele>
        <time>2019-09-23T10:50:42.000Z</time>
      </trkpt>
      <trkpt lat="48.55278" lon="5.68787">
        <ele>269.226</ele>
        <time>2019-09-23T10:51:12.000Z</time>
      </trkpt>
      <trkpt lat="48.55188" lon="5.688">
        <ele>271.318</ele>
        <time>2019-09-23T10:51:42.000Z</time>
      </trkpt>
      <trkpt lat="48.55109" lon="5.68824">
        <ele>272.288</ele>
        <time>2019-09-23T10:52:12.000Z</time>
      </trkpt>
      <trkpt lat="48.55029" lon="5.6886">
        <ele>275.538</ele>
        <time>2019-09-23T10:52:42.000Z</time>
      </trkpt>
      <trkpt lat="48.54954" lon="5.68891">
        <ele>277.668</ele>
        <time>2019-09-23T10:53:12.000Z</time>
      </trkpt>
      <trkpt lat="48.54814" lon="5.68896">
        <ele>275.933</ele>
        <time>2019-09-23T10:53:42.000Z</time>
      </trkpt>
      <trkpt lat="48.54658" lon="5.69232">
        <ele>259.466</ele>
        <time>2019-09-23T10:54:12.000Z</time>
      </trkpt>
      <trkpt lat="48.54592" lon="5.69438">
        <ele>257.873</ele>
        <time>2019-09-23T10:54:42.000Z</time>
      </trkpt>
      <trkpt lat="48.54421" lon="5.69565">
        <ele>257.101</ele>
        <time>2019-09-23T10:55:12.000Z</time>
      </trkpt>
      <trkpt lat="48.54315" lon="5.69646">
        <ele>258.14</ele>
        <time>2019-09-23T10:55:42.000Z</time>
      </trkpt>
      <trkpt lat="48.54257" lon="5.69842">
        <ele>256.432</ele>
        <time>2019-09-23T10:56:12.000Z</time>
      </trkpt>
      <trkpt lat="48.54243" lon="5.70045">
        <ele>254.877</ele>
        <time>2019-09-23T10:56:42.000Z</time>
      </trkpt>
      <trkpt lat="48.54211" lon="5.70148">
        <ele>259.366</ele>
        <time>2019-09-23T10:57:12.000Z</time>
      </trkpt>
      <trkpt lat="48.54156" lon="5.702">
        <ele>263.518</ele>
        <time>2019-09-23T10:57:42.000Z</time>
      </trkpt>
      <trkpt lat="48.541" lon="5.70229">
        <ele>274.065</ele>
        <time>2019-09-23T10:58:12.000Z</time>
      </trkpt>
      <trkpt lat="48.5404" lon="5.7024">
        <ele>282.804</ele>
        <time>2019-09-23T10:58:42.000Z</time>
      </trkpt>
      <trkpt lat="48.53979" lon="5.70249">
        <ele>287.489</ele>
        <time>2019-09-23T10:59:12.000Z</time>
      </trkpt>
      <trkpt lat="48.53915" lon="5.70263">
        <ele>288.811</ele>
        <time>2019-09-23T10:59:42.000Z</time>
      </trkpt>
      <trkpt lat="48.53877" lon="5.70332">
        <ele>285.604</ele>
        <time>2019-09-23T11:00:12.000Z</time>
      </trkpt>
      <trkpt lat="48.53937" lon="5.7037">
        <ele>289.508</ele>
        <time>2019-09-23T11:00:42.000Z</time>
      </trkpt>
      <trkpt lat="48.54019" lon="5.70435">
        <ele>289.83</ele>
        <time>2019-09-23T11:01:12.000Z</time>
      </trkpt>
      <trkpt lat="48.54184" lon="5.70692">
        <ele>280.565</ele>
        <time>2019-09-23T11:01:45.000Z</time>
      </trkpt>
      <trkpt lat="48.54291" lon="5.71097">
        <ele>271.29</ele>
        <time>2019-09-23T11:02:15.000Z</time>
      </trkpt>
      <trkpt lat="48.543" lon="5.71372">
        <ele>267.237</ele>
        <time>2019-09-23T11:02:45.000Z</time>
      </trkpt>
      <trkpt lat="48.54279" lon="5.71564">
        <ele>267.96</ele>
        <time>2019-09-23T11:03:15.000Z</time>
      </trkpt>
      <trkpt lat="48.54194" lon="5.71797">
        <ele>265.424</ele>
        <time>2019-09-23T11:03:45.000Z</time>
      </trkpt>
      <trkpt lat="48.54059" lon="5.71976">
        <ele>263.61</ele>
        <time>2019-09-23T11:04:15.000Z</time>
      </trkpt>
      <trkpt lat="48.5395" lon="5.72076">
        <ele>262.551</ele>
        <time>2019-09-23T11:04:45.000Z</time>
      </trkpt>
      <trkpt lat="48.53831" lon="5.72204">
        <ele>257.732</ele>
        <time>2019-09-23T11:05:15.000Z</time>
      </trkpt>
      <trkpt lat="48.53718" lon="5.72324">
        <ele>257.386</ele>
        <time>2019-09-23T11:05:45.000Z</time>
      </trkpt>
      <trkpt lat="48.53611" lon="5.72439">
        <ele>258.888</ele>
        <time>2019-09-23T11:06:15.000Z</time>
      </trkpt>
      <trkpt lat="48.53503" lon="5.72549">
        <ele>258.792</ele>
        <time>2019-09-23T11:06:45.000Z</time>
      </trkpt>
      <trkpt lat="48.53404" lon="5.72682">
        <ele>258.601</ele>
        <time>2019-09-23T11:07:15.000Z</time>
      </trkpt>
      <trkpt lat="48.53329" lon="5.72868">
        <ele>258.383</ele>
        <time>2019-09-23T11:07:45.000Z</time>
      </trkpt>
      <trkpt lat="48.53281" lon="5.73046">
        <ele>261.048</ele>
        <time>2019-09-23T11:08:15.000Z</time>
      </trkpt>
      <trkpt lat="48.53279" lon="5.73239">
        <ele>265.59</ele>
        <time>2019-09-23T11:08:45.000Z</time>
      </trkpt>
      <trkpt lat="48.53281" lon="5.73489">
        <ele>262.983</ele>
        <time>2019-09-23T11:09:15.000Z</time>
      </trkpt>
      <trkpt lat="48.53253" lon="5.73718">
        <ele>261.703</ele>
        <time>2019-09-23T11:09:45.000Z</time>
      </trkpt>
      <trkpt lat="48.5321" lon="5.73945">
        <ele>256.322</ele>
        <time>2019-09-23T11:10:15.000Z</time>
      </trkpt>
      <trkpt lat="48.53107" lon="5.74127">
        <ele>258.611</ele>
        <time>2019-09-23T11:10:45.000Z</time>
      </trkpt>
      <trkpt lat="48.53001" lon="5.7423">
        <ele>264.208</ele>
        <time>2019-09-23T11:11:15.000Z</time>
      </trkpt>
      <trkpt lat="48.52933" lon="5.74295">
        <ele>270.269</ele>
        <time>2019-09-23T11:11:45.000Z</time>
      </trkpt>
      <trkpt lat="48.52873" lon="5.74359">
        <ele>272.175</ele>
        <time>2019-09-23T11:12:15.000Z</time>
      </trkpt>
      <trkpt lat="48.52788" lon="5.74357">
        <ele>270.909</ele>
        <time>2019-09-23T11:12:45.000Z</time>
      </trkpt>
      <trkpt lat="48.52629" lon="5.74292">
        <ele>266.321</ele>
        <time>2019-09-23T11:13:15.000Z</time>
      </trkpt>
      <trkpt lat="48.52503" lon="5.74224">
        <ele>264.364</ele>
        <time>2019-09-23T11:13:45.000Z</time>
      </trkpt>
      <trkpt lat="48.52402" lon="5.74141">
        <ele>266.088</ele>
        <time>2019-09-23T11:14:15.000Z</time>
      </trkpt>
      <trkpt lat="48.52304" lon="5.74007">
        <ele>267.647</ele>
        <time>2019-09-23T11:14:45.000Z</time>
      </trkpt>
      <trkpt lat="48.52235" lon="5.73788">
        <ele>263.872</ele>
        <time>2019-09-23T11:15:15.000Z</time>
      </trkpt>
      <trkpt lat="48.52187" lon="5.73576">
        <ele>262.154</ele>
        <time>2019-09-23T11:15:45.000Z</time>
      </trkpt>
      <trkpt lat="48.52136" lon="5.73379">
        <ele>262.37</ele>
        <time>2019-09-23T11:16:15.000Z</time>
      </trkpt>
      <trkpt lat="48.52084" lon="5.73204">
        <ele>266.864</ele>
        <time>2019-09-23T11:16:45.000Z</time>
      </trkpt>
      <trkpt lat="48.5203" lon="5.73032">
        <ele>267.312</ele>
        <time>2019-09-23T11:17:15.000Z</time>
      </trkpt>
      <trkpt lat="48.51994" lon="5.72847">
        <ele>269.051</ele>
        <time>2019-09-23T11:17:45.000Z</time>
      </trkpt>
      <trkpt lat="48.51949" lon="5.72675">
        <ele>280.514</ele>
        <time>2019-09-23T11:18:15.000Z</time>
      </trkpt>
      <trkpt lat="48.51887" lon="5.72552">
        <ele>278.799</ele>
        <time>2019-09-23T11:18:45.000Z</time>
      </trkpt>
      <trkpt lat="48.51828" lon="5.72434">
        <ele>274.729</ele>
        <time>2019-09-23T11:19:15.000Z</time>
      </trkpt>
      <trkpt lat="48.51743" lon="5.72291">
        <ele>270.277</ele>
        <time>2019-09-23T11:19:45.000Z</time>
      </trkpt>
      <trkpt lat="48.51632" lon="5.72206">
        <ele>273.054</ele>
        <time>2019-09-23T11:20:15.000Z</time>
      </trkpt>
      <trkpt lat="48.51541" lon="5.72163">
        <ele>277.363</ele>
        <time>2019-09-23T11:20:45.000Z</time>
      </trkpt>
      <trkpt lat="48.51446" lon="5.72113">
        <ele>278.312</ele>
        <time>2019-09-23T11:21:15.000Z</time>
      </trkpt>
      <trkpt lat="48.51279" lon="5.7202">
        <ele>277.63</ele>
        <time>2019-09-23T11:21:45.000Z</time>
      </trkpt>
      <trkpt lat="48.51114" lon="5.71989">
        <ele>271.311</ele>
        <time>2019-09-23T11:22:15.000Z</time>
      </trkpt>
      <trkpt lat="48.50971" lon="5.71969">
        <ele>267.917</ele>
        <time>2019-09-23T11:22:45.000Z</time>
      </trkpt>
      <trkpt lat="48.50836" lon="5.71949">
        <ele>270.268</ele>
        <time>2019-09-23T11:23:15.000Z</time>
      </trkpt>
      <trkpt lat="48.50692" lon="5.71931">
        <ele>272.87</ele>
        <time>2019-09-23T11:23:45.000Z</time>
      </trkpt>
      <trkpt lat="48.50548" lon="5.71907">
        <ele>271.092</ele>
        <time>2019-09-23T11:24:15.000Z</time>
      </trkpt>
      <trkpt lat="48.50387" lon="5.7188">
        <ele>268.563</ele>
        <time>2019-09-23T11:24:45.000Z</time>
      </trkpt>
      <trkpt lat="48.50245" lon="5.71857">
        <ele>270.423</ele>
        <time>2019-09-23T11:25:15.000Z</time>
      </trkpt>
      <trkpt lat="48.50097" lon="5.7174">
        <ele>271.656</ele>
        <time>2019-09-23T11:25:45.000Z</time>
      </trkpt>
      <trkpt lat="48.49936" lon="5.71601">
        <ele>276.291</ele>
        <time>2019-09-23T11:26:15.000Z</time>
      </trkpt>
      <trkpt lat="48.49812" lon="5.71546">
        <ele>276.313</ele>
        <time>2019-09-23T11:26:45.000Z</time>
      </trkpt>
      <trkpt lat="48.49669" lon="5.71574">
        <ele>268.343</ele>
        <time>2019-09-23T11:27:15.000Z</time>
      </trkpt>
      <trkpt lat="48.49536" lon="5.71655">
        <ele>267.76</ele>
        <time>2019-09-23T11:27:45.000Z</time>
      </trkpt>
      <trkpt lat="48.49426" lon="5.71746">
        <ele>260.632</ele>
        <time>2019-09-23T11:28:15.000Z</time>
      </trkpt>
      <trkpt lat="48.4929" lon="5.71743">
        <ele>262.011</ele>
        <time>2019-09-23T11:28:45.000Z</time>
      </trkpt>
      <trkpt lat="48.49154" lon="5.71718">
        <ele>261.975</ele>
        <time>2019-09-23T11:29:15.000Z</time>
      </trkpt>
      <trkpt lat="48.49031" lon="5.7165">
        <ele>262.126</ele>
        <time>2019-09-23T11:29:45.000Z</time>
      </trkpt>
      <trkpt lat="48.48913" lon="5.71585">
        <ele>264.575</ele>
        <time>2019-09-23T11:30:15.000Z</time>
      </trkpt>
      <trkpt lat="48.48783" lon="5.7153">
        <ele>262.651</ele>
        <time>2019-09-23T11:30:45.000Z</time>
      </trkpt>
      <trkpt lat="48.48648" lon="5.71508">
        <ele>260.704</ele>
        <time>2019-09-23T11:31:15.000Z</time>
      </trkpt>
      <trkpt lat="48.48534" lon="5.71473">
        <ele>262.226</ele>
        <time>2019-09-23T11:31:45.000Z</time>
      </trkpt>
      <trkpt lat="48.48444" lon="5.71377">
        <ele>264.431</ele>
        <time>2019-09-23T11:32:15.000Z</time>
      </trkpt>
      <trkpt lat="48.48355" lon="5.71302">
        <ele>267.313</ele>
        <time>2019-09-23T11:32:45.000Z</time>
      </trkpt>
      <trkpt lat="48.48273" lon="5.71239">
        <ele>270.569</ele>
        <time>2019-09-23T11:33:15.000Z</time>
      </trkpt>
      <trkpt lat="48.4819" lon="5.71185">
        <ele>271.295</ele>
        <time>2019-09-23T11:33:45.000Z</time>
      </trkpt>
      <trkpt lat="48.48087" lon="5.7117">
        <ele>271.936</ele>
        <time>2019-09-23T11:34:15.000Z</time>
      </trkpt>
      <trkpt lat="48.48036" lon="5.7129">
        <ele>274.344</ele>
        <time>2019-09-23T11:34:45.000Z</time>
      </trkpt>
      <trkpt lat="48.47992" lon="5.71404">
        <ele>276.313</ele>
        <time>2019-09-23T11:35:15.000Z</time>
      </trkpt>
      <trkpt lat="48.47954" lon="5.71519">
        <ele>278.94</ele>
        <time>2019-09-23T11:35:45.000Z</time>
      </trkpt>
      <trkpt lat="48.4791" lon="5.71617">
        <ele>282.428</ele>
        <time>2019-09-23T11:36:15.000Z</time>
      </trkpt>
      <trkpt lat="48.47842" lon="5.71661">
        <ele>285.457</ele>
        <time>2019-09-23T11:36:45.000Z</time>
      </trkpt>
      <trkpt lat="48.47772" lon="5.71647">
        <ele>289.41</ele>
        <time>2019-09-23T11:37:18.000Z</time>
      </trkpt>
      <trkpt lat="48.47717" lon="5.71591">
        <ele>292.62</ele>
        <time>2019-09-23T11:37:48.000Z</time>
      </trkpt>
      <trkpt lat="48.47685" lon="5.71514">
        <ele>296.614</ele>
        <time>2019-09-23T11:38:18.000Z</time>
      </trkpt>
      <trkpt lat="48.47652" lon="5.71432">
        <ele>302.128</ele>
        <time>2019-09-23T11:38:48.000Z</time>
      </trkpt>
      <trkpt lat="48.47593" lon="5.71387">
        <ele>304.662</ele>
        <time>2019-09-23T11:39:18.000Z</time>
      </trkpt>
      <trkpt lat="48.47532" lon="5.71382">
        <ele>308.084</ele>
        <time>2019-09-23T11:39:48.000Z</time>
      </trkpt>
      <trkpt lat="48.47473" lon="5.71386">
        <ele>312.286</ele>
        <time>2019-09-23T11:40:18.000Z</time>
      </trkpt>
      <trkpt lat="48.47413" lon="5.71415">
        <ele>318.259</ele>
        <time>2019-09-23T11:40:48.000Z</time>
      </trkpt>
      <trkpt lat="48.47329" lon="5.71407">
        <ele>320.382</ele>
        <time>2019-09-23T11:41:18.000Z</time>
      </trkpt>
      <trkpt lat="48.47237" lon="5.71374">
        <ele>317.674</ele>
        <time>2019-09-23T11:41:48.000Z</time>
      </trkpt>
      <trkpt lat="48.47144" lon="5.71335">
        <ele>318.053</ele>
        <time>2019-09-23T11:42:18.000Z</time>
      </trkpt>
      <trkpt lat="48.47044" lon="5.71283">
        <ele>319.708</ele>
        <time>2019-09-23T11:42:48.000Z</time>
      </trkpt>
      <trkpt lat="48.46942" lon="5.71218">
        <ele>317.918</ele>
        <time>2019-09-23T11:43:18.000Z</time>
      </trkpt>
      <trkpt lat="48.46846" lon="5.71161">
        <ele>319.146</ele>
        <time>2019-09-23T11:43:48.000Z</time>
      </trkpt>
      <trkpt lat="48.46755" lon="5.71108">
        <ele>321.321</ele>
        <time>2019-09-23T11:44:18.000Z</time>
      </trkpt>
      <trkpt lat="48.4668" lon="5.71063">
        <ele>318.695</ele>
        <time>2019-09-23T11:46:39.000Z</time>
      </trkpt>
      <trkpt lat="48.46535" lon="5.70995">
        <ele>314.417</ele>
        <time>2019-09-23T11:47:09.000Z</time>
      </trkpt>
      <trkpt lat="48.46349" lon="5.70944">
        <ele>305.474</ele>
        <time>2019-09-23T11:47:39.000Z</time>
      </trkpt>
      <trkpt lat="48.46202" lon="5.70945">
        <ele>302.767</ele>
        <time>2019-09-23T11:48:09.000Z</time>
      </trkpt>
      <trkpt lat="48.46065" lon="5.7089">
        <ele>300.943</ele>
        <time>2019-09-23T11:48:39.000Z</time>
      </trkpt>
      <trkpt lat="48.45923" lon="5.70738">
        <ele>296.436</ele>
        <time>2019-09-23T11:49:09.000Z</time>
      </trkpt>
      <trkpt lat="48.45803" lon="5.70612">
        <ele>295.854</ele>
        <time>2019-09-23T11:49:39.000Z</time>
      </trkpt>
      <trkpt lat="48.45733" lon="5.70545">
        <ele>296.767</ele>
        <time>2019-09-23T11:50:09.000Z</time>
      </trkpt>
      <trkpt lat="48.45673" lon="5.70483">
        <ele>301.551</ele>
        <time>2019-09-23T11:50:39.000Z</time>
      </trkpt>
      <trkpt lat="48.45611" lon="5.7042">
        <ele>305.811</ele>
        <time>2019-09-23T11:51:09.000Z</time>
      </trkpt>
      <trkpt lat="48.45546" lon="5.70356">
        <ele>304.36</ele>
        <time>2019-09-23T11:51:39.000Z</time>
      </trkpt>
      <trkpt lat="48.45464" lon="5.70276">
        <ele>304.257</ele>
        <time>2019-09-23T11:52:09.000Z</time>
      </trkpt>
      <trkpt lat="48.45412" lon="5.70099">
        <ele>297.321</ele>
        <time>2019-09-23T11:52:39.000Z</time>
      </trkpt>
      <trkpt lat="48.45266" lon="5.69891">
        <ele>277.047</ele>
        <time>2019-09-23T11:53:09.000Z</time>
      </trkpt>
      <trkpt lat="48.45096" lon="5.69732">
        <ele>271.506</ele>
        <time>2019-09-23T11:53:39.000Z</time>
      </trkpt>
      <trkpt lat="48.45194" lon="5.69554">
        <ele>269.483</ele>
        <time>2019-09-23T11:54:09.000Z</time>
      </trkpt>
      <trkpt lat="48.45242" lon="5.69387">
        <ele>266.996</ele>
        <time>2019-09-23T11:54:39.000Z</time>
      </trkpt>
      <trkpt lat="48.45266" lon="5.69158">
        <ele>267.162</ele>
        <time>2019-09-23T11:55:09.000Z</time>
      </trkpt>
      <trkpt lat="48.45224" lon="5.68956">
        <ele>266.678</ele>
        <time>2019-09-23T11:55:39.000Z</time>
      </trkpt>
      <trkpt lat="48.45177" lon="5.68789">
        <ele>267.506</ele>
        <time>2019-09-23T11:56:09.000Z</time>
      </trkpt>
      <trkpt lat="48.45147" lon="5.6862">
        <ele>267.707</ele>
        <time>2019-09-23T11:56:39.000Z</time>
      </trkpt>
      <trkpt lat="48.45103" lon="5.68478">
        <ele>270.142</ele>
        <time>2019-09-23T11:57:09.000Z</time>
      </trkpt>
      <trkpt lat="48.4503" lon="5.68345">
        <ele>273.84</ele>
        <time>2019-09-23T11:57:39.000Z</time>
      </trkpt>
      <trkpt lat="48.45002" lon="5.68163">
        <ele>269.852</ele>
        <time>2019-09-23T11:58:09.000Z</time>
      </trkpt>
      <trkpt lat="48.45007" lon="5.67988">
        <ele>268.298</ele>
        <time>2019-09-23T11:58:39.000Z</time>
      </trkpt>
      <trkpt lat="48.44936" lon="5.67898">
        <ele>269.547</ele>
        <time>2019-09-23T11:59:09.000Z</time>
      </trkpt>
      <trkpt lat="48.44827" lon="5.67815">
        <ele>266.799</ele>
        <time>2019-09-23T11:59:39.000Z</time>
      </trkpt>
      <trkpt lat="48.44777" lon="5.67698">
        <ele>269.837</ele>
        <time>2019-09-23T12:00:09.000Z</time>
      </trkpt>
      <trkpt lat="48.44768" lon="5.67622">
        <ele>275.209</ele>
        <time>2019-09-23T12:00:51.000Z</time>
      </trkpt>
      <trkpt lat="48.44772" lon="5.67617">
        <ele>274.236</ele>
        <time>2019-09-23T12:12:54.000Z</time>
      </trkpt>
      <trkpt lat="48.44772" lon="5.67617">
        <ele>274.471</ele>
        <time>2019-09-23T12:19:00.000Z</time>
      </trkpt>
      <trkpt lat="48.44771" lon="5.6762">
        <ele>272.381</ele>
        <time>2019-09-23T12:23:00.000Z</time>
      </trkpt>
      <trkpt lat="48.44769" lon="5.67617">
        <ele>268.599</ele>
        <time>2019-09-23T12:25:30.000Z</time>
      </trkpt>
      <trkpt lat="48.44771" lon="5.67616">
        <ele>269.919</ele>
        <time>2019-09-23T12:29:14.000Z</time>
      </trkpt>
      <trkpt lat="48.44772" lon="5.67615">
        <ele>270.548</ele>
        <time>2019-09-23T12:31:38.001Z</time>
      </trkpt>
      <trkpt lat="48.44723" lon="5.67625">
        <ele>265.999</ele>
        <time>2019-09-23T12:32:56.001Z</time>
      </trkpt>
      <trkpt lat="48.44606" lon="5.67601">
        <ele>267.555</ele>
        <time>2019-09-23T12:33:26.001Z</time>
      </trkpt>
      <trkpt lat="48.44498" lon="5.67577">
        <ele>266.464</ele>
        <time>2019-09-23T12:33:56.001Z</time>
      </trkpt>
      <trkpt lat="48.44377" lon="5.6755">
        <ele>271.227</ele>
        <time>2019-09-23T12:34:26.001Z</time>
      </trkpt>
      <trkpt lat="48.44305" lon="5.6749">
        <ele>272.681</ele>
        <time>2019-09-23T12:34:56.001Z</time>
      </trkpt>
      <trkpt lat="48.44238" lon="5.67391">
        <ele>273.124</ele>
        <time>2019-09-23T12:35:26.001Z</time>
      </trkpt>
      <trkpt lat="48.44138" lon="5.67331">
        <ele>268.379</ele>
        <time>2019-09-23T12:35:56.001Z</time>
      </trkpt>
      <trkpt lat="48.44124" lon="5.67287">
        <ele>269.043</ele>
        <time>2019-09-23T12:37:17.001Z</time>
      </trkpt>
      <trkpt lat="48.44099" lon="5.67359">
        <ele>269.822</ele>
        <time>2019-09-23T12:37:53.001Z</time>
      </trkpt>
      <trkpt lat="48.43995" lon="5.6732">
        <ele>269.849</ele>
        <time>2019-09-23T12:38:23.001Z</time>
      </trkpt>
      <trkpt lat="48.43911" lon="5.67319">
        <ele>268.395</ele>
        <time>2019-09-23T12:38:53.001Z</time>
      </trkpt>
      <trkpt lat="48.43797" lon="5.67313">
        <ele>272.164</ele>
        <time>2019-09-23T12:39:23.001Z</time>
      </trkpt>
      <trkpt lat="48.43748" lon="5.6726">
        <ele>277.859</ele>
        <time>2019-09-23T12:39:53.001Z</time>
      </trkpt>
      <trkpt lat="48.43695" lon="5.67198">
        <ele>287.599</ele>
        <time>2019-09-23T12:40:29.001Z</time>
      </trkpt>
      <trkpt lat="48.43636" lon="5.67167">
        <ele>294.405</ele>
        <time>2019-09-23T12:41:05.001Z</time>
      </trkpt>
      <trkpt lat="48.43579" lon="5.67144">
        <ele>296.297</ele>
        <time>2019-09-23T12:41:35.001Z</time>
      </trkpt>
      <trkpt lat="48.43517" lon="5.67135">
        <ele>295.379</ele>
        <time>2019-09-23T12:42:05.001Z</time>
      </trkpt>
      <trkpt lat="48.43458" lon="5.67117">
        <ele>296.024</ele>
        <time>2019-09-23T12:42:38.001Z</time>
      </trkpt>
      <trkpt lat="48.43377" lon="5.67114">
        <ele>297.255</ele>
        <time>2019-09-23T12:43:08.001Z</time>
      </trkpt>
      <trkpt lat="48.43298" lon="5.6712">
        <ele>300.009</ele>
        <time>2019-09-23T12:43:38.001Z</time>
      </trkpt>
      <trkpt lat="48.43221" lon="5.67113">
        <ele>305.723</ele>
        <time>2019-09-23T12:44:08.001Z</time>
      </trkpt>
      <trkpt lat="48.43138" lon="5.67104">
        <ele>306.688</ele>
        <time>2019-09-23T12:44:38.001Z</time>
      </trkpt>
      <trkpt lat="48.43045" lon="5.67086">
        <ele>308.976</ele>
        <time>2019-09-23T12:45:11.001Z</time>
      </trkpt>
      <trkpt lat="48.42961" lon="5.67058">
        <ele>310.607</ele>
        <time>2019-09-23T12:45:41.001Z</time>
      </trkpt>
      <trkpt lat="48.42889" lon="5.67035">
        <ele>315.444</ele>
        <time>2019-09-23T12:46:11.001Z</time>
      </trkpt>
      <trkpt lat="48.42817" lon="5.67071">
        <ele>318.166</ele>
        <time>2019-09-23T12:46:41.001Z</time>
      </trkpt>
      <trkpt lat="48.42758" lon="5.67051">
        <ele>320.874</ele>
        <time>2019-09-23T12:48:38.001Z</time>
      </trkpt>
      <trkpt lat="48.42671" lon="5.66995">
        <ele>323.4</ele>
        <time>2019-09-23T12:50:38.001Z</time>
      </trkpt>
      <trkpt lat="48.42529" lon="5.66954">
        <ele>320.43</ele>
        <time>2019-09-23T12:51:08.001Z</time>
      </trkpt>
      <trkpt lat="48.42323" lon="5.66906">
        <ele>313.512</ele>
        <time>2019-09-23T12:51:38.001Z</time>
      </trkpt>
      <trkpt lat="48.42043" lon="5.66852">
        <ele>308.707</ele>
        <time>2019-09-23T12:52:08.001Z</time>
      </trkpt>
      <trkpt lat="48.41687" lon="5.66785">
        <ele>280.207</ele>
        <time>2019-09-23T12:52:38.001Z</time>
      </trkpt>
      <trkpt lat="48.41486" lon="5.66799">
        <ele>271.558</ele>
        <time>2019-09-23T12:53:08.001Z</time>
      </trkpt>
      <trkpt lat="48.41353" lon="5.66837">
        <ele>271.757</ele>
        <time>2019-09-23T12:53:38.001Z</time>
      </trkpt>
      <trkpt lat="48.41199" lon="5.66918">
        <ele>269.874</ele>
        <time>2019-09-23T12:54:08.001Z</time>
      </trkpt>
      <trkpt lat="48.41043" lon="5.66996">
        <ele>272.415</ele>
        <time>2019-09-23T12:54:38.001Z</time>
      </trkpt>
      <trkpt lat="48.40903" lon="5.67107">
        <ele>275.985</ele>
        <time>2019-09-23T12:55:08.001Z</time>
      </trkpt>
      <trkpt lat="48.40771" lon="5.67235">
        <ele>277.277</ele>
        <time>2019-09-23T12:55:38.001Z</time>
      </trkpt>
      <trkpt lat="48.40697" lon="5.67408">
        <ele>271.361</ele>
        <time>2019-09-23T12:56:08.001Z</time>
      </trkpt>
      <trkpt lat="48.40684" lon="5.67645">
        <ele>264.362</ele>
        <time>2019-09-23T12:56:38.001Z</time>
      </trkpt>
      <trkpt lat="48.4068" lon="5.67866">
        <ele>263.135</ele>
        <time>2019-09-23T12:57:08.001Z</time>
      </trkpt>
      <trkpt lat="48.4072" lon="5.68081">
        <ele>264.611</ele>
        <time>2019-09-23T12:57:38.001Z</time>
      </trkpt>
      <trkpt lat="48.40736" lon="5.68278">
        <ele>268.583</ele>
        <time>2019-09-23T12:58:08.001Z</time>
      </trkpt>
      <trkpt lat="48.40625" lon="5.68369">
        <ele>276.26</ele>
        <time>2019-09-23T12:58:38.001Z</time>
      </trkpt>
      <trkpt lat="48.40641" lon="5.68479">
        <ele>278.82</ele>
        <time>2019-09-23T12:59:08.001Z</time>
      </trkpt>
      <trkpt lat="48.40649" lon="5.68585">
        <ele>282.58</ele>
        <time>2019-09-23T12:59:38.001Z</time>
      </trkpt>
      <trkpt lat="48.40667" lon="5.68681">
        <ele>288.15</ele>
        <time>2019-09-23T13:00:08.001Z</time>
      </trkpt>
      <trkpt lat="48.40695" lon="5.68794">
        <ele>292.747</ele>
        <time>2019-09-23T13:00:38.001Z</time>
      </trkpt>
      <trkpt lat="48.40715" lon="5.68892">
        <ele>295.002</ele>
        <time>2019-09-23T13:01:20.001Z</time>
      </trkpt>
      <trkpt lat="48.40715" lon="5.68876">
        <ele>292.118</ele>
        <time>2019-09-23T13:03:53.001Z</time>
      </trkpt>
      <trkpt lat="48.40686" lon="5.68743">
        <ele>286.484</ele>
        <time>2019-09-23T13:07:56.001Z</time>
      </trkpt>
      <trkpt lat="48.40638" lon="5.68466">
        <ele>277.887</ele>
        <time>2019-09-23T13:08:26.001Z</time>
      </trkpt>
      <trkpt lat="48.40545" lon="5.68444">
        <ele>276.357</ele>
        <time>2019-09-23T13:08:56.001Z</time>
      </trkpt>
      <trkpt lat="48.4038" lon="5.68527">
        <ele>273.154</ele>
        <time>2019-09-23T13:09:26.001Z</time>
      </trkpt>
      <trkpt lat="48.40266" lon="5.68593">
        <ele>274.429</ele>
        <time>2019-09-23T13:09:56.001Z</time>
      </trkpt>
      <trkpt lat="48.40178" lon="5.68647">
        <ele>278.099</ele>
        <time>2019-09-23T13:10:26.001Z</time>
      </trkpt>
      <trkpt lat="48.40094" lon="5.68702">
        <ele>281.009</ele>
        <time>2019-09-23T13:10:56.001Z</time>
      </trkpt>
      <trkpt lat="48.40011" lon="5.68714">
        <ele>285.853</ele>
        <time>2019-09-23T13:11:26.001Z</time>
      </trkpt>
      <trkpt lat="48.39935" lon="5.68656">
        <ele>281.213</ele>
        <time>2019-09-23T13:11:56.001Z</time>
      </trkpt>
      <trkpt lat="48.39845" lon="5.68589">
        <ele>278.315</ele>
        <time>2019-09-23T13:12:26.001Z</time>
      </trkpt>
      <trkpt lat="48.39732" lon="5.68532">
        <ele>280.271</ele>
        <time>2019-09-23T13:12:56.001Z</time>
      </trkpt>
      <trkpt lat="48.39624" lon="5.68513">
        <ele>282.314</ele>
        <time>2019-09-23T13:13:26.001Z</time>
      </trkpt>
      <trkpt lat="48.39517" lon="5.68519">
        <ele>282.633</ele>
        <time>2019-09-23T13:13:56.001Z</time>
      </trkpt>
      <trkpt lat="48.39441" lon="5.68549">
        <ele>281.422</ele>
        <time>2019-09-23T13:14:26.001Z</time>
      </trkpt>
      <trkpt lat="48.39347" lon="5.68587">
        <ele>279.454</ele>
        <time>2019-09-23T13:14:56.001Z</time>
      </trkpt>
      <trkpt lat="48.39247" lon="5.68678">
        <ele>277.068</ele>
        <time>2019-09-23T13:15:26.001Z</time>
      </trkpt>
      <trkpt lat="48.39166" lon="5.68754">
        <ele>275.847</ele>
        <time>2019-09-23T13:15:56.001Z</time>
      </trkpt>
      <trkpt lat="48.39118" lon="5.68646">
        <ele>275.217</ele>
        <time>2019-09-23T13:16:26.001Z</time>
      </trkpt>
      <trkpt lat="48.39109" lon="5.68399">
        <ele>271.005</ele>
        <time>2019-09-23T13:16:56.001Z</time>
      </trkpt>
      <trkpt lat="48.39138" lon="5.68129">
        <ele>271.955</ele>
        <time>2019-09-23T13:17:26.001Z</time>
      </trkpt>
      <trkpt lat="48.39137" lon="5.679">
        <ele>271.931</ele>
        <time>2019-09-23T13:17:56.001Z</time>
      </trkpt>
      <trkpt lat="48.39139" lon="5.67691">
        <ele>272.167</ele>
        <time>2019-09-23T13:18:26.001Z</time>
      </trkpt>
      <trkpt lat="48.39086" lon="5.67662">
        <ele>273.145</ele>
        <time>2019-09-23T13:21:26.001Z</time>
      </trkpt>
      <trkpt lat="48.38996" lon="5.67755">
        <ele>274.788</ele>
        <time>2019-09-23T13:21:56.001Z</time>
      </trkpt>
      <trkpt lat="48.38918" lon="5.67733">
        <ele>274.798</ele>
        <time>2019-09-23T13:22:26.001Z</time>
      </trkpt>
      <trkpt lat="48.38852" lon="5.67708">
        <ele>275.623</ele>
        <time>2019-09-23T13:22:56.001Z</time>
      </trkpt>
      <trkpt lat="48.3878" lon="5.67682">
        <ele>281.012</ele>
        <time>2019-09-23T13:23:26.001Z</time>
      </trkpt>
      <trkpt lat="48.38706" lon="5.67655">
        <ele>280.889</ele>
        <time>2019-09-23T13:23:56.001Z</time>
      </trkpt>
      <trkpt lat="48.38602" lon="5.67625">
        <ele>283.034</ele>
        <time>2019-09-23T13:24:26.001Z</time>
      </trkpt>
      <trkpt lat="48.38485" lon="5.67602">
        <ele>286.209</ele>
        <time>2019-09-23T13:24:56.001Z</time>
      </trkpt>
      <trkpt lat="48.38365" lon="5.67596">
        <ele>284.007</ele>
        <time>2019-09-23T13:25:26.001Z</time>
      </trkpt>
      <trkpt lat="48.38244" lon="5.67652">
        <ele>285.496</ele>
        <time>2019-09-23T13:25:56.001Z</time>
      </trkpt>
      <trkpt lat="48.38138" lon="5.67643">
        <ele>287.816</ele>
        <time>2019-09-23T13:26:26.001Z</time>
      </trkpt>
      <trkpt lat="48.38054" lon="5.67618">
        <ele>289.375</ele>
        <time>2019-09-23T13:26:56.001Z</time>
      </trkpt>
      <trkpt lat="48.37981" lon="5.67603">
        <ele>292.112</ele>
        <time>2019-09-23T13:27:26.001Z</time>
      </trkpt>
      <trkpt lat="48.37906" lon="5.67605">
        <ele>295.809</ele>
        <time>2019-09-23T13:27:56.001Z</time>
      </trkpt>
      <trkpt lat="48.37822" lon="5.67622">
        <ele>300.348</ele>
        <time>2019-09-23T13:28:26.001Z</time>
      </trkpt>
      <trkpt lat="48.37701" lon="5.67656">
        <ele>300.639</ele>
        <time>2019-09-23T13:28:56.001Z</time>
      </trkpt>
      <trkpt lat="48.37528" lon="5.67721">
        <ele>294.39</ele>
        <time>2019-09-23T13:29:26.001Z</time>
      </trkpt>
      <trkpt lat="48.37311" lon="5.67842">
        <ele>285.437</ele>
        <time>2019-09-23T13:29:56.001Z</time>
      </trkpt>
      <trkpt lat="48.37096" lon="5.67964">
        <ele>279.54</ele>
        <time>2019-09-23T13:30:26.001Z</time>
      </trkpt>
      <trkpt lat="48.36951" lon="5.68093">
        <ele>278</ele>
        <time>2019-09-23T13:30:56.001Z</time>
      </trkpt>
      <trkpt lat="48.36887" lon="5.68302">
        <ele>274.58</ele>
        <time>2019-09-23T13:31:26.001Z</time>
      </trkpt>
      <trkpt lat="48.36803" lon="5.68567">
        <ele>275.237</ele>
        <time>2019-09-23T13:31:59.001Z</time>
      </trkpt>
      <trkpt lat="48.36739" lon="5.68747">
        <ele>273.535</ele>
        <time>2019-09-23T13:32:29.001Z</time>
      </trkpt>
      <trkpt lat="48.36675" lon="5.68898">
        <ele>275.654</ele>
        <time>2019-09-23T13:32:59.001Z</time>
      </trkpt>
      <trkpt lat="48.36537" lon="5.68947">
        <ele>275.049</ele>
        <time>2019-09-23T13:33:29.001Z</time>
      </trkpt>
      <trkpt lat="48.36395" lon="5.68956">
        <ele>278.958</ele>
        <time>2019-09-23T13:33:59.001Z</time>
      </trkpt>
      <trkpt lat="48.36257" lon="5.68938">
        <ele>285.559</ele>
        <time>2019-09-23T13:34:29.001Z</time>
      </trkpt>
      <trkpt lat="48.36177" lon="5.69071">
        <ele>281.048</ele>
        <time>2019-09-23T13:34:59.001Z</time>
      </trkpt>
      <trkpt lat="48.36113" lon="5.69183">
        <ele>280.502</ele>
        <time>2019-09-23T13:35:29.001Z</time>
      </trkpt>
      <trkpt lat="48.36073" lon="5.69339">
        <ele>284.2</ele>
        <time>2019-09-23T13:35:59.001Z</time>
      </trkpt>
      <trkpt lat="48.36004" lon="5.6937">
        <ele>279.833</ele>
        <time>2019-09-23T13:36:32.001Z</time>
      </trkpt>
      <trkpt lat="48.35917" lon="5.69278">
        <ele>280.96</ele>
        <time>2019-09-23T13:37:02.000Z</time>
      </trkpt>
      <trkpt lat="48.35887" lon="5.69148">
        <ele>282.402</ele>
        <time>2019-09-23T13:37:32.001Z</time>
      </trkpt>
      <trkpt lat="48.35768" lon="5.69136">
        <ele>281.779</ele>
        <time>2019-09-23T13:38:02.000Z</time>
      </trkpt>
      <trkpt lat="48.35721" lon="5.69213">
        <ele>283.345</ele>
        <time>2019-09-23T13:38:47.001Z</time>
      </trkpt>
      <trkpt lat="48.35678" lon="5.69327">
        <ele>287.171</ele>
        <time>2019-09-23T13:39:17.001Z</time>
      </trkpt>
      <trkpt lat="48.3558" lon="5.69398">
        <ele>284.424</ele>
        <time>2019-09-23T13:39:47.001Z</time>
      </trkpt>
      <trkpt lat="48.35479" lon="5.69416">
        <ele>291.566</ele>
        <time>2019-09-23T13:40:17.001Z</time>
      </trkpt>
      <trkpt lat="48.35494" lon="5.6953">
        <ele>296.982</ele>
        <time>2019-09-23T13:40:50.001Z</time>
      </trkpt>
      <trkpt lat="48.35508" lon="5.69638">
        <ele>303.528</ele>
        <time>2019-09-23T13:41:20.001Z</time>
      </trkpt>
      <trkpt lat="48.3543" lon="5.6964">
        <ele>309.263</ele>
        <time>2019-09-23T13:41:50.001Z</time>
      </trkpt>
      <trkpt lat="48.35416" lon="5.69479">
        <ele>305.056</ele>
        <time>2019-09-23T13:42:20.001Z</time>
      </trkpt>
      <trkpt lat="48.35429" lon="5.69338">
        <ele>297.94</ele>
        <time>2019-09-23T13:42:50.001Z</time>
      </trkpt>
      <trkpt lat="48.3533" lon="5.69514">
        <ele>288.864</ele>
        <time>2019-09-23T13:43:20.001Z</time>
      </trkpt>
      <trkpt lat="48.35246" lon="5.69671">
        <ele>285.983</ele>
        <time>2019-09-23T13:43:50.001Z</time>
      </trkpt>
      <trkpt lat="48.35167" lon="5.69644">
        <ele>284.333</ele>
        <time>2019-09-23T13:44:20.001Z</time>
      </trkpt>
      <trkpt lat="48.35088" lon="5.69578">
        <ele>279.803</ele>
        <time>2019-09-23T13:44:50.001Z</time>
      </trkpt>
      <trkpt lat="48.35009" lon="5.69455">
        <ele>281.246</ele>
        <time>2019-09-23T13:45:20.001Z</time>
      </trkpt>
      <trkpt lat="48.34963" lon="5.69455">
        <ele>285.263</ele>
        <time>2019-09-23T13:45:56.001Z</time>
      </trkpt>
      <trkpt lat="48.34906" lon="5.69535">
        <ele>293.175</ele>
        <time>2019-09-23T13:46:26.001Z</time>
      </trkpt>
      <trkpt lat="48.34898" lon="5.69557">
        <ele>293.889</ele>
        <time>2019-09-23T13:48:29.001Z</time>
      </trkpt>
      <trkpt lat="48.34977" lon="5.69436">
        <ele>291.761</ele>
        <time>2019-09-23T13:51:14.001Z</time>
      </trkpt>
      <trkpt lat="48.35097" lon="5.69587">
        <ele>283.269</ele>
        <time>2019-09-23T13:51:44.001Z</time>
      </trkpt>
      <trkpt lat="48.35194" lon="5.69686">
        <ele>278.856</ele>
        <time>2019-09-23T13:52:14.001Z</time>
      </trkpt>
      <trkpt lat="48.35271" lon="5.69617">
        <ele>278.318</ele>
        <time>2019-09-23T13:52:44.001Z</time>
      </trkpt>
      <trkpt lat="48.35365" lon="5.69457">
        <ele>274.817</ele>
        <time>2019-09-23T13:53:14.001Z</time>
      </trkpt>
      <trkpt lat="48.35388" lon="5.69301">
        <ele>272.006</ele>
        <time>2019-09-23T13:53:44.001Z</time>
      </trkpt>
    </trkseg>
  </trk>
  <trk>
    <name><![CDATA[Tracé 20190924-092318]]></name>
    <trkseg>
      <trkpt lat="48.35398" lon="5.69299">
        <ele>282.844</ele>
        <time>2019-09-24T09:24:00Z</time>
      </trkpt>
      <trkpt lat="48.35387" lon="5.69378">
        <ele>293.13</ele>
        <time>2019-09-24T09:24:33Z</time>
      </trkpt>
      <trkpt lat="48.35297" lon="5.6956">
        <ele>293.824</ele>
        <time>2019-09-24T09:25:03Z</time>
      </trkpt>
      <trkpt lat="48.35221" lon="5.6972">
        <ele>289.53</ele>
        <time>2019-09-24T09:25:33Z</time>
      </trkpt>
      <trkpt lat="48.35134" lon="5.69623">
        <ele>291.257</ele>
        <time>2019-09-24T09:26:03Z</time>
      </trkpt>
      <trkpt lat="48.35043" lon="5.69485">
        <ele>291.965</ele>
        <time>2019-09-24T09:26:33Z</time>
      </trkpt>
      <trkpt lat="48.34993" lon="5.69429">
        <ele>289.077</ele>
        <time>2019-09-24T09:27:06Z</time>
      </trkpt>
      <trkpt lat="48.34963" lon="5.69452">
        <ele>291.387</ele>
        <time>2019-09-24T09:27:42Z</time>
      </trkpt>
      <trkpt lat="48.34899" lon="5.69542">
        <ele>295.061</ele>
        <time>2019-09-24T09:28:12Z</time>
      </trkpt>
      <trkpt lat="48.34838" lon="5.6964">
        <ele>299.321</ele>
        <time>2019-09-24T09:28:42Z</time>
      </trkpt>
      <trkpt lat="48.34773" lon="5.69709">
        <ele>306.252</ele>
        <time>2019-09-24T09:29:12Z</time>
      </trkpt>
      <trkpt lat="48.34696" lon="5.69719">
        <ele>310.718</ele>
        <time>2019-09-24T09:29:45Z</time>
      </trkpt>
      <trkpt lat="48.34631" lon="5.6966">
        <ele>316.268</ele>
        <time>2019-09-24T09:30:15Z</time>
      </trkpt>
      <trkpt lat="48.34599" lon="5.69573">
        <ele>316.738</ele>
        <time>2019-09-24T09:30:45Z</time>
      </trkpt>
      <trkpt lat="48.34578" lon="5.69473">
        <ele>318.688</ele>
        <time>2019-09-24T09:31:15Z</time>
      </trkpt>
      <trkpt lat="48.34551" lon="5.6938">
        <ele>320.473</ele>
        <time>2019-09-24T09:31:45Z</time>
      </trkpt>
      <trkpt lat="48.34515" lon="5.69287">
        <ele>323.124</ele>
        <time>2019-09-24T09:32:15Z</time>
      </trkpt>
      <trkpt lat="48.34472" lon="5.69212">
        <ele>326.693</ele>
        <time>2019-09-24T09:32:45Z</time>
      </trkpt>
      <trkpt lat="48.34399" lon="5.69203">
        <ele>325.736</ele>
        <time>2019-09-24T09:33:15Z</time>
      </trkpt>
      <trkpt lat="48.34316" lon="5.69229">
        <ele>328.706</ele>
        <time>2019-09-24T09:33:45Z</time>
      </trkpt>
      <trkpt lat="48.34231" lon="5.69262">
        <ele>336.799</ele>
        <time>2019-09-24T09:34:15Z</time>
      </trkpt>
      <trkpt lat="48.3416" lon="5.69293">
        <ele>336.498</ele>
        <time>2019-09-24T09:34:45Z</time>
      </trkpt>
      <trkpt lat="48.34055" lon="5.69298">
        <ele>331.434</ele>
        <time>2019-09-24T09:35:15Z</time>
      </trkpt>
      <trkpt lat="48.33934" lon="5.69291">
        <ele>330.845</ele>
        <time>2019-09-24T09:35:45Z</time>
      </trkpt>
      <trkpt lat="48.33786" lon="5.69281">
        <ele>331.726</ele>
        <time>2019-09-24T09:36:15Z</time>
      </trkpt>
      <trkpt lat="48.33656" lon="5.69272">
        <ele>331.817</ele>
        <time>2019-09-24T09:36:45Z</time>
      </trkpt>
      <trkpt lat="48.33558" lon="5.69266">
        <ele>333.873</ele>
        <time>2019-09-24T09:37:15Z</time>
      </trkpt>
      <trkpt lat="48.33471" lon="5.6926">
        <ele>340.276</ele>
        <time>2019-09-24T09:37:46Z</time>
      </trkpt>
      <trkpt lat="48.334" lon="5.69255">
        <ele>344.393</ele>
        <time>2019-09-24T09:38:16Z</time>
      </trkpt>
      <trkpt lat="48.33321" lon="5.69252">
        <ele>345.044</ele>
        <time>2019-09-24T09:38:46Z</time>
      </trkpt>
      <trkpt lat="48.3321" lon="5.69244">
        <ele>346.261</ele>
        <time>2019-09-24T09:39:16Z</time>
      </trkpt>
      <trkpt lat="48.33133" lon="5.69237">
        <ele>351.526</ele>
        <time>2019-09-24T09:39:46Z</time>
      </trkpt>
      <trkpt lat="48.33071" lon="5.69234">
        <ele>355.668</ele>
        <time>2019-09-24T09:40:16Z</time>
      </trkpt>
      <trkpt lat="48.33007" lon="5.69229">
        <ele>361.643</ele>
        <time>2019-09-24T09:40:46Z</time>
      </trkpt>
      <trkpt lat="48.32933" lon="5.69226">
        <ele>360.931</ele>
        <time>2019-09-24T09:41:19Z</time>
      </trkpt>
      <trkpt lat="48.32825" lon="5.69219">
        <ele>357.443</ele>
        <time>2019-09-24T09:41:49Z</time>
      </trkpt>
      <trkpt lat="48.32651" lon="5.69207">
        <ele>356.405</ele>
        <time>2019-09-24T09:42:19Z</time>
      </trkpt>
      <trkpt lat="48.32537" lon="5.692">
        <ele>361.073</ele>
        <time>2019-09-24T09:42:49Z</time>
      </trkpt>
      <trkpt lat="48.32447" lon="5.69193">
        <ele>362.001</ele>
        <time>2019-09-24T09:43:19Z</time>
      </trkpt>
      <trkpt lat="48.32351" lon="5.69187">
        <ele>364.761</ele>
        <time>2019-09-24T09:43:49Z</time>
      </trkpt>
      <trkpt lat="48.32275" lon="5.69183">
        <ele>366.304</ele>
        <time>2019-09-24T09:44:19Z</time>
      </trkpt>
      <trkpt lat="48.32201" lon="5.69179">
        <ele>369.325</ele>
        <time>2019-09-24T09:44:49Z</time>
      </trkpt>
      <trkpt lat="48.3213" lon="5.69173">
        <ele>372.531</ele>
        <time>2019-09-24T09:45:19Z</time>
      </trkpt>
      <trkpt lat="48.32052" lon="5.69168">
        <ele>375.027</ele>
        <time>2019-09-24T09:45:49Z</time>
      </trkpt>
      <trkpt lat="48.31976" lon="5.69162">
        <ele>378.905</ele>
        <time>2019-09-24T09:46:19Z</time>
      </trkpt>
      <trkpt lat="48.31891" lon="5.69156">
        <ele>382.035</ele>
        <time>2019-09-24T09:46:49Z</time>
      </trkpt>
      <trkpt lat="48.31796" lon="5.6915">
        <ele>383.828</ele>
        <time>2019-09-24T09:47:19Z</time>
      </trkpt>
      <trkpt lat="48.31698" lon="5.69148">
        <ele>384.125</ele>
        <time>2019-09-24T09:47:49Z</time>
      </trkpt>
      <trkpt lat="48.31598" lon="5.6914">
        <ele>387.821</ele>
        <time>2019-09-24T09:48:19Z</time>
      </trkpt>
      <trkpt lat="48.31499" lon="5.6913">
        <ele>390.831</ele>
        <time>2019-09-24T09:48:49Z</time>
      </trkpt>
      <trkpt lat="48.31393" lon="5.69126">
        <ele>391.472</ele>
        <time>2019-09-24T09:49:19Z</time>
      </trkpt>
      <trkpt lat="48.31273" lon="5.69117">
        <ele>393.529</ele>
        <time>2019-09-24T09:49:49Z</time>
      </trkpt>
      <trkpt lat="48.3115" lon="5.69108">
        <ele>395.032</ele>
        <time>2019-09-24T09:50:19Z</time>
      </trkpt>
      <trkpt lat="48.31013" lon="5.6907">
        <ele>392.731</ele>
        <time>2019-09-24T09:50:49Z</time>
      </trkpt>
      <trkpt lat="48.30883" lon="5.69034">
        <ele>390.849</ele>
        <time>2019-09-24T09:51:19Z</time>
      </trkpt>
      <trkpt lat="48.30837" lon="5.69389">
        <ele>372.796</ele>
        <time>2019-09-24T09:51:49Z</time>
      </trkpt>
      <trkpt lat="48.3078" lon="5.69854">
        <ele>345.311</ele>
        <time>2019-09-24T09:52:19Z</time>
      </trkpt>
      <trkpt lat="48.30768" lon="5.70387">
        <ele>313.813</ele>
        <time>2019-09-24T09:52:52Z</time>
      </trkpt>
      <trkpt lat="48.30716" lon="5.70639">
        <ele>313.399</ele>
        <time>2019-09-24T09:53:22Z</time>
      </trkpt>
      <trkpt lat="48.3067" lon="5.70766">
        <ele>320.862</ele>
        <time>2019-09-24T09:53:52Z</time>
      </trkpt>
      <trkpt lat="48.30577" lon="5.70746">
        <ele>324.002</ele>
        <time>2019-09-24T09:54:22Z</time>
      </trkpt>
      <trkpt lat="48.30404" lon="5.70546">
        <ele>323.489</ele>
        <time>2019-09-24T09:54:52Z</time>
      </trkpt>
      <trkpt lat="48.30169" lon="5.7045">
        <ele>323.073</ele>
        <time>2019-09-24T09:55:22Z</time>
      </trkpt>
      <trkpt lat="48.29969" lon="5.70482">
        <ele>298.699</ele>
        <time>2019-09-24T09:55:52Z</time>
      </trkpt>
      <trkpt lat="48.29865" lon="5.70617">
        <ele>303.668</ele>
        <time>2019-09-24T09:56:22Z</time>
      </trkpt>
      <trkpt lat="48.29801" lon="5.70758">
        <ele>308.749</ele>
        <time>2019-09-24T09:56:52Z</time>
      </trkpt>
      <trkpt lat="48.29791" lon="5.70942">
        <ele>310.717</ele>
        <time>2019-09-24T09:57:22Z</time>
      </trkpt>
      <trkpt lat="48.29733" lon="5.71142">
        <ele>308.993</ele>
        <time>2019-09-24T09:57:52Z</time>
      </trkpt>
      <trkpt lat="48.29619" lon="5.7109">
        <ele>307.406</ele>
        <time>2019-09-24T07:58:22.001Z</time>
      </trkpt>
      <trkpt lat="48.29498" lon="5.71043">
        <ele>304.795</ele>
        <time>2019-09-24T07:58:52.001Z</time>
      </trkpt>
      <trkpt lat="48.29355" lon="5.71028">
        <ele>302.723</ele>
        <time>2019-09-24T07:59:22.001Z</time>
      </trkpt>
      <trkpt lat="48.29261" lon="5.71188">
        <ele>307.101</ele>
        <time>2019-09-24T07:59:52.001Z</time>
      </trkpt>
      <trkpt lat="48.29162" lon="5.71341">
        <ele>310.407</ele>
        <time>2019-09-24T08:00:22.001Z</time>
      </trkpt>
      <trkpt lat="48.29032" lon="5.71403">
        <ele>304.77</ele>
        <time>2019-09-24T08:00:52.001Z</time>
      </trkpt>
      <trkpt lat="48.28907" lon="5.71352">
        <ele>308.377</ele>
        <time>2019-09-24T08:01:22.001Z</time>
      </trkpt>
      <trkpt lat="48.28781" lon="5.71239">
        <ele>310.354</ele>
        <time>2019-09-24T08:01:52.001Z</time>
      </trkpt>
      <trkpt lat="48.28678" lon="5.71109">
        <ele>311.427</ele>
        <time>2019-09-24T08:02:22.001Z</time>
      </trkpt>
      <trkpt lat="48.2858" lon="5.70952">
        <ele>312.309</ele>
        <time>2019-09-24T08:02:52.001Z</time>
      </trkpt>
      <trkpt lat="48.28513" lon="5.70785">
        <ele>315.616</ele>
        <time>2019-09-24T08:03:22.001Z</time>
      </trkpt>
      <trkpt lat="48.28464" lon="5.70609">
        <ele>307.683</ele>
        <time>2019-09-24T08:03:52.001Z</time>
      </trkpt>
      <trkpt lat="48.28402" lon="5.70415">
        <ele>312.629</ele>
        <time>2019-09-24T08:04:25.001Z</time>
      </trkpt>
      <trkpt lat="48.28345" lon="5.70234">
        <ele>314.025</ele>
        <time>2019-09-24T08:04:55.001Z</time>
      </trkpt>
      <trkpt lat="48.28271" lon="5.70102">
        <ele>323.549</ele>
        <time>2019-09-24T08:05:25.001Z</time>
      </trkpt>
      <trkpt lat="48.28183" lon="5.69924">
        <ele>313.874</ele>
        <time>2019-09-24T08:05:55.001Z</time>
      </trkpt>
      <trkpt lat="48.28171" lon="5.69734">
        <ele>330.163</ele>
        <time>2019-09-24T08:06:25.001Z</time>
      </trkpt>
      <trkpt lat="48.28205" lon="5.69529">
        <ele>335.518</ele>
        <time>2019-09-24T08:06:55.001Z</time>
      </trkpt>
      <trkpt lat="48.2827" lon="5.69335">
        <ele>333.413</ele>
        <time>2019-09-24T08:07:25.001Z</time>
      </trkpt>
      <trkpt lat="48.28145" lon="5.69299">
        <ele>323.485</ele>
        <time>2019-09-24T08:07:55.001Z</time>
      </trkpt>
      <trkpt lat="48.28009" lon="5.6926">
        <ele>327.31</ele>
        <time>2019-09-24T08:08:25.001Z</time>
      </trkpt>
      <trkpt lat="48.27858" lon="5.69215">
        <ele>326.602</ele>
        <time>2019-09-24T08:08:55.001Z</time>
      </trkpt>
      <trkpt lat="48.27721" lon="5.69195">
        <ele>321.322</ele>
        <time>2019-09-24T08:09:25.001Z</time>
      </trkpt>
      <trkpt lat="48.27591" lon="5.69158">
        <ele>323.162</ele>
        <time>2019-09-24T08:09:55.001Z</time>
      </trkpt>
      <trkpt lat="48.27476" lon="5.69048">
        <ele>337.018</ele>
        <time>2019-09-24T08:10:25.001Z</time>
      </trkpt>
      <trkpt lat="48.2742" lon="5.6886">
        <ele>341.888</ele>
        <time>2019-09-24T08:10:55.001Z</time>
      </trkpt>
      <trkpt lat="48.27423" lon="5.68654">
        <ele>348.431</ele>
        <time>2019-09-24T08:11:25.001Z</time>
      </trkpt>
      <trkpt lat="48.2738" lon="5.68491">
        <ele>336.055</ele>
        <time>2019-09-24T08:11:55.001Z</time>
      </trkpt>
      <trkpt lat="48.27231" lon="5.68563">
        <ele>322.2</ele>
        <time>2019-09-24T08:12:25.001Z</time>
      </trkpt>
      <trkpt lat="48.27064" lon="5.68636">
        <ele>317.438</ele>
        <time>2019-09-24T08:12:55.001Z</time>
      </trkpt>
      <trkpt lat="48.26909" lon="5.68589">
        <ele>313.506</ele>
        <time>2019-09-24T08:13:25.001Z</time>
      </trkpt>
      <trkpt lat="48.26768" lon="5.68489">
        <ele>313.688</ele>
        <time>2019-09-24T08:13:55.001Z</time>
      </trkpt>
      <trkpt lat="48.26644" lon="5.6836">
        <ele>315.374</ele>
        <time>2019-09-24T08:14:25.001Z</time>
      </trkpt>
      <trkpt lat="48.26546" lon="5.68178">
        <ele>312.753</ele>
        <time>2019-09-24T08:14:55.001Z</time>
      </trkpt>
      <trkpt lat="48.26454" lon="5.68005">
        <ele>311.922</ele>
        <time>2019-09-24T08:15:25.001Z</time>
      </trkpt>
      <trkpt lat="48.26337" lon="5.67836">
        <ele>313.714</ele>
        <time>2019-09-24T08:15:58.001Z</time>
      </trkpt>
      <trkpt lat="48.26221" lon="5.67701">
        <ele>311.575</ele>
        <time>2019-09-24T08:16:28.001Z</time>
      </trkpt>
      <trkpt lat="48.26103" lon="5.67568">
        <ele>312.947</ele>
        <time>2019-09-24T08:16:58.001Z</time>
      </trkpt>
      <trkpt lat="48.26032" lon="5.67358">
        <ele>311.63</ele>
        <time>2019-09-24T08:17:28.001Z</time>
      </trkpt>
      <trkpt lat="48.2591" lon="5.67281">
        <ele>318.796</ele>
        <time>2019-09-24T08:17:58.001Z</time>
      </trkpt>
      <trkpt lat="48.25773" lon="5.67225">
        <ele>317.617</ele>
        <time>2019-09-24T08:18:28.001Z</time>
      </trkpt>
      <trkpt lat="48.25627" lon="5.67212">
        <ele>313.278</ele>
        <time>2019-09-24T08:18:58.001Z</time>
      </trkpt>
      <trkpt lat="48.2548" lon="5.67234">
        <ele>311.615</ele>
        <time>2019-09-24T08:19:28.001Z</time>
      </trkpt>
      <trkpt lat="48.2535" lon="5.67283">
        <ele>315.063</ele>
        <time>2019-09-24T08:19:58.001Z</time>
      </trkpt>
      <trkpt lat="48.25266" lon="5.67317">
        <ele>317.413</ele>
        <time>2019-09-24T08:20:28.001Z</time>
      </trkpt>
      <trkpt lat="48.25193" lon="5.67345">
        <ele>318.985</ele>
        <time>2019-09-24T08:20:58.001Z</time>
      </trkpt>
      <trkpt lat="48.25117" lon="5.67377">
        <ele>321.746</ele>
        <time>2019-09-24T08:21:28.001Z</time>
      </trkpt>
      <trkpt lat="48.25021" lon="5.67415">
        <ele>324.022</ele>
        <time>2019-09-24T08:21:58.001Z</time>
      </trkpt>
      <trkpt lat="48.24896" lon="5.67466">
        <ele>326.343</ele>
        <time>2019-09-24T08:22:28.001Z</time>
      </trkpt>
      <trkpt lat="48.24712" lon="5.67536">
        <ele>320.695</ele>
        <time>2019-09-24T08:22:58.001Z</time>
      </trkpt>
      <trkpt lat="48.24559" lon="5.67563">
        <ele>322.975</ele>
        <time>2019-09-24T08:23:28.001Z</time>
      </trkpt>
      <trkpt lat="48.24425" lon="5.67492">
        <ele>329.526</ele>
        <time>2019-09-24T08:23:58.001Z</time>
      </trkpt>
      <trkpt lat="48.24278" lon="5.67415">
        <ele>321.49</ele>
        <time>2019-09-24T08:24:28.001Z</time>
      </trkpt>
      <trkpt lat="48.24147" lon="5.67357">
        <ele>317.627</ele>
        <time>2019-09-24T08:24:58.001Z</time>
      </trkpt>
      <trkpt lat="48.24032" lon="5.67307">
        <ele>318.127</ele>
        <time>2019-09-24T08:25:28.001Z</time>
      </trkpt>
      <trkpt lat="48.23901" lon="5.67249">
        <ele>318.823</ele>
        <time>2019-09-24T08:25:58.001Z</time>
      </trkpt>
      <trkpt lat="48.23788" lon="5.67198">
        <ele>320.214</ele>
        <time>2019-09-24T08:26:28.001Z</time>
      </trkpt>
      <trkpt lat="48.23677" lon="5.6715">
        <ele>321.468</ele>
        <time>2019-09-24T08:26:58.001Z</time>
      </trkpt>
      <trkpt lat="48.23521" lon="5.67079">
        <ele>316.909</ele>
        <time>2019-09-24T08:27:31.001Z</time>
      </trkpt>
      <trkpt lat="48.23366" lon="5.67013">
        <ele>315.286</ele>
        <time>2019-09-24T08:28:01.001Z</time>
      </trkpt>
      <trkpt lat="48.23224" lon="5.66947">
        <ele>317.747</ele>
        <time>2019-09-24T08:28:31.001Z</time>
      </trkpt>
      <trkpt lat="48.23082" lon="5.66884">
        <ele>316.8</ele>
        <time>2019-09-24T08:29:01.001Z</time>
      </trkpt>
      <trkpt lat="48.22957" lon="5.66829">
        <ele>319.438</ele>
        <time>2019-09-24T08:29:31.001Z</time>
      </trkpt>
      <trkpt lat="48.2287" lon="5.6679">
        <ele>322.782</ele>
        <time>2019-09-24T08:30:01.001Z</time>
      </trkpt>
      <trkpt lat="48.22753" lon="5.66761">
        <ele>322.133</ele>
        <time>2019-09-24T08:30:31.001Z</time>
      </trkpt>
      <trkpt lat="48.22614" lon="5.66734">
        <ele>318.976</ele>
        <time>2019-09-24T08:31:01.001Z</time>
      </trkpt>
      <trkpt lat="48.22488" lon="5.66562">
        <ele>313.426</ele>
        <time>2019-09-24T08:31:31.001Z</time>
      </trkpt>
      <trkpt lat="48.22452" lon="5.66348">
        <ele>314.156</ele>
        <time>2019-09-24T08:32:01.001Z</time>
      </trkpt>
      <trkpt lat="48.22529" lon="5.66241">
        <ele>322.273</ele>
        <time>2019-09-24T08:32:31.001Z</time>
      </trkpt>
      <trkpt lat="48.22576" lon="5.66184">
        <ele>325.853</ele>
        <time>2019-09-24T08:33:01.001Z</time>
      </trkpt>
      <trkpt lat="48.22582" lon="5.66077">
        <ele>331.817</ele>
        <time>2019-09-24T08:33:31.001Z</time>
      </trkpt>
      <trkpt lat="48.2263" lon="5.66052">
        <ele>336.542</ele>
        <time>2019-09-24T08:34:01.001Z</time>
      </trkpt>
      <trkpt lat="48.22681" lon="5.66064">
        <ele>335.74</ele>
        <time>2019-09-24T08:42:52.001Z</time>
      </trkpt>
      <trkpt lat="48.22808" lon="5.66097">
        <ele>336.253</ele>
        <time>2019-09-24T08:43:22.001Z</time>
      </trkpt>
      <trkpt lat="48.2289" lon="5.66126">
        <ele>335.938</ele>
        <time>2019-09-24T08:43:52.001Z</time>
      </trkpt>
      <trkpt lat="48.22957" lon="5.66114">
        <ele>338.318</ele>
        <time>2019-09-24T08:44:22.001Z</time>
      </trkpt>
      <trkpt lat="48.2301" lon="5.66077">
        <ele>342.275</ele>
        <time>2019-09-24T08:44:52.001Z</time>
      </trkpt>
      <trkpt lat="48.23057" lon="5.66035">
        <ele>348.15</ele>
        <time>2019-09-24T08:45:22.001Z</time>
      </trkpt>
      <trkpt lat="48.23116" lon="5.65992">
        <ele>348.559</ele>
        <time>2019-09-24T08:45:52.001Z</time>
      </trkpt>
      <trkpt lat="48.23169" lon="5.6596">
        <ele>353.677</ele>
        <time>2019-09-24T08:46:22.001Z</time>
      </trkpt>
      <trkpt lat="48.23215" lon="5.65918">
        <ele>358.739</ele>
        <time>2019-09-24T08:46:52.001Z</time>
      </trkpt>
      <trkpt lat="48.23178" lon="5.65859">
        <ele>366.614</ele>
        <time>2019-09-24T08:47:31.001Z</time>
      </trkpt>
      <trkpt lat="48.23116" lon="5.65861">
        <ele>374.462</ele>
        <time>2019-09-24T08:48:10.001Z</time>
      </trkpt>
      <trkpt lat="48.23053" lon="5.65849">
        <ele>379.915</ele>
        <time>2019-09-24T08:48:49.001Z</time>
      </trkpt>
      <trkpt lat="48.22999" lon="5.6583">
        <ele>387.233</ele>
        <time>2019-09-24T08:49:22.001Z</time>
      </trkpt>
      <trkpt lat="48.22938" lon="5.65786">
        <ele>390.033</ele>
        <time>2019-09-24T08:50:04.001Z</time>
      </trkpt>
      <trkpt lat="48.22884" lon="5.65726">
        <ele>397.172</ele>
        <time>2019-09-24T08:50:46.001Z</time>
      </trkpt>
      <trkpt lat="48.22835" lon="5.65663">
        <ele>402.359</ele>
        <time>2019-09-24T08:51:25.001Z</time>
      </trkpt>
      <trkpt lat="48.22796" lon="5.65608">
        <ele>400.731</ele>
        <time>2019-09-24T08:51:55.001Z</time>
      </trkpt>
      <trkpt lat="48.2277" lon="5.65517">
        <ele>405.755</ele>
        <time>2019-09-24T08:52:37.001Z</time>
      </trkpt>
      <trkpt lat="48.2276" lon="5.65434">
        <ele>407.442</ele>
        <time>2019-09-24T08:53:07.001Z</time>
      </trkpt>
      <trkpt lat="48.22747" lon="5.65345">
        <ele>415.129</ele>
        <time>2019-09-24T08:53:46.001Z</time>
      </trkpt>
      <trkpt lat="48.22731" lon="5.65271">
        <ele>419.722</ele>
        <time>2019-09-24T08:54:19.001Z</time>
      </trkpt>
      <trkpt lat="48.22709" lon="5.65193">
        <ele>421.097</ele>
        <time>2019-09-24T08:54:55.001Z</time>
      </trkpt>
      <trkpt lat="48.2267" lon="5.65126">
        <ele>420.208</ele>
        <time>2019-09-24T08:55:25.001Z</time>
      </trkpt>
      <trkpt lat="48.22634" lon="5.65071">
        <ele>418.929</ele>
        <time>2019-09-24T08:55:55.001Z</time>
      </trkpt>
      <trkpt lat="48.22607" lon="5.64998">
        <ele>418.943</ele>
        <time>2019-09-24T08:56:28.001Z</time>
      </trkpt>
      <trkpt lat="48.22608" lon="5.64921">
        <ele>426.344</ele>
        <time>2019-09-24T08:57:01.001Z</time>
      </trkpt>
      <trkpt lat="48.22644" lon="5.6483">
        <ele>437.956</ele>
        <time>2019-09-24T08:57:46.001Z</time>
      </trkpt>
      <trkpt lat="48.22667" lon="5.64745">
        <ele>436.449</ele>
        <time>2019-09-24T10:58:16Z</time>
      </trkpt>
      <trkpt lat="48.22673" lon="5.64658">
        <ele>436.207</ele>
        <time>2019-09-24T08:58:49.001Z</time>
      </trkpt>
      <trkpt lat="48.22675" lon="5.64654">
        <ele>435.01</ele>
        <time>2019-09-24T09:02:37.001Z</time>
      </trkpt>
      <trkpt lat="48.22677" lon="5.64479">
        <ele>435.746</ele>
        <time>2019-09-24T09:03:07.001Z</time>
      </trkpt>
      <trkpt lat="48.2281" lon="5.64112">
        <ele>430.165</ele>
        <time>2019-09-24T09:03:37.001Z</time>
      </trkpt>
      <trkpt lat="48.22807" lon="5.63506">
        <ele>403.049</ele>
        <time>2019-09-24T09:04:10.001Z</time>
      </trkpt>
      <trkpt lat="48.22838" lon="5.63017">
        <ele>383.632</ele>
        <time>2019-09-24T09:04:40.001Z</time>
      </trkpt>
      <trkpt lat="48.22853" lon="5.62497">
        <ele>363.706</ele>
        <time>2019-09-24T09:05:10.001Z</time>
      </trkpt>
      <trkpt lat="48.23064" lon="5.62028">
        <ele>345.081</ele>
        <time>2019-09-24T09:05:40.001Z</time>
      </trkpt>
      <trkpt lat="48.23109" lon="5.61619">
        <ele>333.865</ele>
        <time>2019-09-24T09:06:10.001Z</time>
      </trkpt>
      <trkpt lat="48.23382" lon="5.61318">
        <ele>319.192</ele>
        <time>2019-09-24T09:06:40.001Z</time>
      </trkpt>
      <trkpt lat="48.23585" lon="5.61294">
        <ele>311.461</ele>
        <time>2019-09-24T09:07:10.001Z</time>
      </trkpt>
      <trkpt lat="48.23782" lon="5.61185">
        <ele>305.608</ele>
        <time>2019-09-24T09:07:40.001Z</time>
      </trkpt>
      <trkpt lat="48.23788" lon="5.60984">
        <ele>307.198</ele>
        <time>2019-09-24T09:08:10.001Z</time>
      </trkpt>
      <trkpt lat="48.23787" lon="5.60937">
        <ele>310.17</ele>
        <time>2019-09-24T09:08:43.001Z</time>
      </trkpt>
      <trkpt lat="48.23786" lon="5.60944">
        <ele>308.342</ele>
        <time>2019-09-24T09:10:25.001Z</time>
      </trkpt>
      <trkpt lat="48.23783" lon="5.61133">
        <ele>311.132</ele>
        <time>2019-09-24T09:10:58.001Z</time>
      </trkpt>
      <trkpt lat="48.23703" lon="5.61237">
        <ele>306.389</ele>
        <time>2019-09-24T09:11:28.001Z</time>
      </trkpt>
      <trkpt lat="48.23649" lon="5.61254">
        <ele>307.397</ele>
        <time>2019-09-24T09:12:49.001Z</time>
      </trkpt>
      <trkpt lat="48.236" lon="5.61284">
        <ele>308.396</ele>
        <time>2019-09-24T09:13:31.001Z</time>
      </trkpt>
      <trkpt lat="48.23529" lon="5.61301">
        <ele>313.648</ele>
        <time>2019-09-24T09:14:01.001Z</time>
      </trkpt>
      <trkpt lat="48.23458" lon="5.61328">
        <ele>316.036</ele>
        <time>2019-09-24T09:14:34.001Z</time>
      </trkpt>
      <trkpt lat="48.23395" lon="5.61257">
        <ele>314.299</ele>
        <time>2019-09-24T09:15:04.001Z</time>
      </trkpt>
      <trkpt lat="48.2328" lon="5.61169">
        <ele>311.009</ele>
        <time>2019-09-24T09:15:34.001Z</time>
      </trkpt>
      <trkpt lat="48.23184" lon="5.61106">
        <ele>312.817</ele>
        <time>2019-09-24T09:16:04.001Z</time>
      </trkpt>
      <trkpt lat="48.23087" lon="5.61054">
        <ele>313.204</ele>
        <time>2019-09-24T09:16:34.001Z</time>
      </trkpt>
      <trkpt lat="48.23" lon="5.6101">
        <ele>317.057</ele>
        <time>2019-09-24T09:17:04.001Z</time>
      </trkpt>
      <trkpt lat="48.22871" lon="5.60978">
        <ele>314.926</ele>
        <time>2019-09-24T09:17:34.001Z</time>
      </trkpt>
      <trkpt lat="48.22763" lon="5.60982">
        <ele>314.378</ele>
        <time>2019-09-24T09:18:07.001Z</time>
      </trkpt>
      <trkpt lat="48.22669" lon="5.61004">
        <ele>316.416</ele>
        <time>2019-09-24T09:18:37.001Z</time>
      </trkpt>
      <trkpt lat="48.22554" lon="5.61027">
        <ele>315.359</ele>
        <time>2019-09-24T09:19:07.001Z</time>
      </trkpt>
      <trkpt lat="48.22442" lon="5.61023">
        <ele>315.119</ele>
        <time>2019-09-24T09:19:37.001Z</time>
      </trkpt>
      <trkpt lat="48.22322" lon="5.60985">
        <ele>314.562</ele>
        <time>2019-09-24T09:20:07.001Z</time>
      </trkpt>
      <trkpt lat="48.22211" lon="5.60908">
        <ele>315.787</ele>
        <time>2019-09-24T09:20:37.001Z</time>
      </trkpt>
      <trkpt lat="48.22107" lon="5.608">
        <ele>314.666</ele>
        <time>2019-09-24T09:21:07.001Z</time>
      </trkpt>
      <trkpt lat="48.22036" lon="5.60685">
        <ele>312.426</ele>
        <time>2019-09-24T09:21:37.001Z</time>
      </trkpt>
      <trkpt lat="48.22004" lon="5.60609">
        <ele>319.125</ele>
        <time>2019-09-24T09:22:07.001Z</time>
      </trkpt>
      <trkpt lat="48.21959" lon="5.60516">
        <ele>318.546</ele>
        <time>2019-09-24T09:22:37.001Z</time>
      </trkpt>
      <trkpt lat="48.21917" lon="5.6042">
        <ele>320.462</ele>
        <time>2019-09-24T09:23:07.001Z</time>
      </trkpt>
      <trkpt lat="48.21859" lon="5.60295">
        <ele>318.939</ele>
        <time>2019-09-24T09:23:37.001Z</time>
      </trkpt>
      <trkpt lat="48.21804" lon="5.60197">
        <ele>320.383</ele>
        <time>2019-09-24T09:24:07.001Z</time>
      </trkpt>
      <trkpt lat="48.21746" lon="5.60123">
        <ele>320.886</ele>
        <time>2019-09-24T09:24:37.001Z</time>
      </trkpt>
      <trkpt lat="48.21672" lon="5.60052">
        <ele>320.501</ele>
        <time>2019-09-24T09:25:07.001Z</time>
      </trkpt>
      <trkpt lat="48.21574" lon="5.59985">
        <ele>320.054</ele>
        <time>2019-09-24T09:25:37.001Z</time>
      </trkpt>
      <trkpt lat="48.21484" lon="5.59945">
        <ele>323.484</ele>
        <time>2019-09-24T09:26:07.001Z</time>
      </trkpt>
      <trkpt lat="48.21396" lon="5.59932">
        <ele>325.033</ele>
        <time>2019-09-24T09:26:37.001Z</time>
      </trkpt>
      <trkpt lat="48.21302" lon="5.5992">
        <ele>323.364</ele>
        <time>2019-09-24T09:27:07.001Z</time>
      </trkpt>
      <trkpt lat="48.21219" lon="5.59907">
        <ele>325.338</ele>
        <time>2019-09-24T09:27:37.001Z</time>
      </trkpt>
      <trkpt lat="48.21133" lon="5.59868">
        <ele>326.531</ele>
        <time>2019-09-24T09:28:07.001Z</time>
      </trkpt>
      <trkpt lat="48.21152" lon="5.5975">
        <ele>318.52</ele>
        <time>2019-09-24T09:28:37.001Z</time>
      </trkpt>
      <trkpt lat="48.20973" lon="5.59681">
        <ele>315.933</ele>
        <time>2019-09-24T09:29:07.001Z</time>
      </trkpt>
      <trkpt lat="48.20842" lon="5.59648">
        <ele>312.086</ele>
        <time>2019-09-24T09:29:40.001Z</time>
      </trkpt>
      <trkpt lat="48.20713" lon="5.59591">
        <ele>312.021</ele>
        <time>2019-09-24T09:30:10.001Z</time>
      </trkpt>
      <trkpt lat="48.20625" lon="5.59545">
        <ele>316.582</ele>
        <time>2019-09-24T09:30:40.001Z</time>
      </trkpt>
      <trkpt lat="48.20523" lon="5.59456">
        <ele>316.751</ele>
        <time>2019-09-24T09:31:10.001Z</time>
      </trkpt>
      <trkpt lat="48.20392" lon="5.59356">
        <ele>316.162</ele>
        <time>2019-09-24T09:31:40.001Z</time>
      </trkpt>
      <trkpt lat="48.20306" lon="5.59342">
        <ele>320.65</ele>
        <time>2019-09-24T11:32:16Z</time>
      </trkpt>
      <trkpt lat="48.2025" lon="5.59332">
        <ele>324.931</ele>
        <time>2019-09-24T11:33:16Z</time>
      </trkpt>
      <trkpt lat="48.20228" lon="5.59329">
        <ele>327.354</ele>
        <time>2019-09-24T09:35:13.001Z</time>
      </trkpt>
      <trkpt lat="48.20182" lon="5.59345">
        <ele>330.039</ele>
        <time>2019-09-24T09:40:19.001Z</time>
      </trkpt>
      <trkpt lat="48.20125" lon="5.59365">
        <ele>332.45</ele>
        <time>2019-09-24T09:40:49.001Z</time>
      </trkpt>
      <trkpt lat="48.20061" lon="5.59391">
        <ele>334.057</ele>
        <time>2019-09-24T09:41:19.001Z</time>
      </trkpt>
      <trkpt lat="48.19986" lon="5.59385">
        <ele>336.792</ele>
        <time>2019-09-24T09:41:49.001Z</time>
      </trkpt>
      <trkpt lat="48.19917" lon="5.59343">
        <ele>338.077</ele>
        <time>2019-09-24T09:42:19.001Z</time>
      </trkpt>
      <trkpt lat="48.19945" lon="5.59228">
        <ele>337.861</ele>
        <time>2019-09-24T09:42:49.001Z</time>
      </trkpt>
      <trkpt lat="48.20012" lon="5.59091">
        <ele>334.248</ele>
        <time>2019-09-24T09:43:19.001Z</time>
      </trkpt>
      <trkpt lat="48.19962" lon="5.58956">
        <ele>335.798</ele>
        <time>2019-09-24T09:43:49.001Z</time>
      </trkpt>
      <trkpt lat="48.1999" lon="5.58753">
        <ele>329.747</ele>
        <time>2019-09-24T09:44:19.001Z</time>
      </trkpt>
      <trkpt lat="48.20046" lon="5.58603">
        <ele>325.717</ele>
        <time>2019-09-24T09:44:49.001Z</time>
      </trkpt>
      <trkpt lat="48.19991" lon="5.58456">
        <ele>322.373</ele>
        <time>2019-09-24T09:45:19.001Z</time>
      </trkpt>
      <trkpt lat="48.19919" lon="5.58484">
        <ele>327.147</ele>
        <time>2019-09-24T09:45:49.001Z</time>
      </trkpt>
      <trkpt lat="48.19881" lon="5.58547">
        <ele>336.105</ele>
        <time>2019-09-24T09:46:22.001Z</time>
      </trkpt>
      <trkpt lat="48.19879" lon="5.58549">
        <ele>334.759</ele>
        <time>2019-09-24T09:51:25.001Z</time>
      </trkpt>
      <trkpt lat="48.19878" lon="5.58548">
        <ele>334.623</ele>
        <time>2019-09-24T09:53:10.001Z</time>
      </trkpt>
      <trkpt lat="48.1988" lon="5.58548">
        <ele>334.7</ele>
        <time>2019-09-24T09:59:40.001Z</time>
      </trkpt>
      <trkpt lat="48.19879" lon="5.58549">
        <ele>335.043</ele>
        <time>2019-09-24T10:06:55.001Z</time>
      </trkpt>
      <trkpt lat="48.19878" lon="5.58549">
        <ele>331.642</ele>
        <time>2019-09-24T10:09:19.001Z</time>
      </trkpt>
      <trkpt lat="48.19878" lon="5.58551">
        <ele>331.817</ele>
        <time>2019-09-24T10:10:40.001Z</time>
      </trkpt>
      <trkpt lat="48.19828" lon="5.58487">
        <ele>334.895</ele>
        <time>2019-09-24T10:11:55.001Z</time>
      </trkpt>
      <trkpt lat="48.19756" lon="5.58451">
        <ele>337.375</ele>
        <time>2019-09-24T10:12:25.001Z</time>
      </trkpt>
      <trkpt lat="48.19688" lon="5.58422">
        <ele>345.23</ele>
        <time>2019-09-24T10:12:55.001Z</time>
      </trkpt>
      <trkpt lat="48.19624" lon="5.58392">
        <ele>347.878</ele>
        <time>2019-09-24T10:13:25.001Z</time>
      </trkpt>
      <trkpt lat="48.19564" lon="5.58366">
        <ele>350.288</ele>
        <time>2019-09-24T10:13:55.001Z</time>
      </trkpt>
      <trkpt lat="48.19502" lon="5.58337">
        <ele>350.629</ele>
        <time>2019-09-24T10:14:25.001Z</time>
      </trkpt>
      <trkpt lat="48.19442" lon="5.58309">
        <ele>355.649</ele>
        <time>2019-09-24T10:14:55.001Z</time>
      </trkpt>
      <trkpt lat="48.19383" lon="5.58283">
        <ele>359.224</ele>
        <time>2019-09-24T10:15:25.001Z</time>
      </trkpt>
      <trkpt lat="48.19328" lon="5.58259">
        <ele>362.81</ele>
        <time>2019-09-24T10:15:55.001Z</time>
      </trkpt>
      <trkpt lat="48.19266" lon="5.58236">
        <ele>366.752</ele>
        <time>2019-09-24T10:16:25.001Z</time>
      </trkpt>
      <trkpt lat="48.19204" lon="5.58213">
        <ele>368.444</ele>
        <time>2019-09-24T10:16:55.001Z</time>
      </trkpt>
      <trkpt lat="48.19142" lon="5.58201">
        <ele>369.873</ele>
        <time>2019-09-24T10:17:25.001Z</time>
      </trkpt>
      <trkpt lat="48.19078" lon="5.58207">
        <ele>377.261</ele>
        <time>2019-09-24T10:17:55.001Z</time>
      </trkpt>
      <trkpt lat="48.18987" lon="5.5816">
        <ele>379.127</ele>
        <time>2019-09-24T10:18:25.001Z</time>
      </trkpt>
      <trkpt lat="48.18719" lon="5.58131">
        <ele>365.18</ele>
        <time>2019-09-24T10:18:55.001Z</time>
      </trkpt>
      <trkpt lat="48.18397" lon="5.58283">
        <ele>339.787</ele>
        <time>2019-09-24T10:19:25.001Z</time>
      </trkpt>
      <trkpt lat="48.18061" lon="5.58113">
        <ele>311.424</ele>
        <time>2019-09-24T10:19:55.001Z</time>
      </trkpt>
      <trkpt lat="48.1788" lon="5.58081">
        <ele>310.076</ele>
        <time>2019-09-24T10:20:25.001Z</time>
      </trkpt>
      <trkpt lat="48.17855" lon="5.5792">
        <ele>316.211</ele>
        <time>2019-09-24T10:20:55.001Z</time>
      </trkpt>
      <trkpt lat="48.17738" lon="5.57805">
        <ele>313.953</ele>
        <time>2019-09-24T10:21:28.001Z</time>
      </trkpt>
      <trkpt lat="48.17595" lon="5.57757">
        <ele>314.765</ele>
        <time>2019-09-24T10:21:58.001Z</time>
      </trkpt>
      <trkpt lat="48.17467" lon="5.57685">
        <ele>315.307</ele>
        <time>2019-09-24T10:22:28.001Z</time>
      </trkpt>
      <trkpt lat="48.17347" lon="5.57615">
        <ele>311.026</ele>
        <time>2019-09-24T10:22:58.001Z</time>
      </trkpt>
      <trkpt lat="48.17252" lon="5.57519">
        <ele>311.052</ele>
        <time>2019-09-24T10:23:28.001Z</time>
      </trkpt>
      <trkpt lat="48.17148" lon="5.57403">
        <ele>314.693</ele>
        <time>2019-09-24T10:23:58.001Z</time>
      </trkpt>
      <trkpt lat="48.17041" lon="5.57314">
        <ele>317.51</ele>
        <time>2019-09-24T10:24:28.001Z</time>
      </trkpt>
      <trkpt lat="48.16908" lon="5.57311">
        <ele>315.335</ele>
        <time>2019-09-24T10:24:58.001Z</time>
      </trkpt>
      <trkpt lat="48.16795" lon="5.57337">
        <ele>315.582</ele>
        <time>2019-09-24T10:25:28.001Z</time>
      </trkpt>
      <trkpt lat="48.16688" lon="5.57348">
        <ele>317.917</ele>
        <time>2019-09-24T10:25:58.001Z</time>
      </trkpt>
      <trkpt lat="48.16611" lon="5.57399">
        <ele>320.851</ele>
        <time>2019-09-24T10:26:28.001Z</time>
      </trkpt>
      <trkpt lat="48.16538" lon="5.57406">
        <ele>322.885</ele>
        <time>2019-09-24T10:26:58.001Z</time>
      </trkpt>
      <trkpt lat="48.16465" lon="5.57414">
        <ele>329.074</ele>
        <time>2019-09-24T10:27:28.001Z</time>
      </trkpt>
      <trkpt lat="48.16372" lon="5.57411">
        <ele>337.281</ele>
        <time>2019-09-24T10:27:58.001Z</time>
      </trkpt>
      <trkpt lat="48.16256" lon="5.57253">
        <ele>333.074</ele>
        <time>2019-09-24T10:28:28.001Z</time>
      </trkpt>
      <trkpt lat="48.16057" lon="5.57159">
        <ele>314.31</ele>
        <time>2019-09-24T10:28:58.001Z</time>
      </trkpt>
      <trkpt lat="48.1589" lon="5.57085">
        <ele>312.613</ele>
        <time>2019-09-24T10:29:28.001Z</time>
      </trkpt>
      <trkpt lat="48.15749" lon="5.57007">
        <ele>314.306</ele>
        <time>2019-09-24T10:29:58.001Z</time>
      </trkpt>
      <trkpt lat="48.15622" lon="5.56921">
        <ele>317.348</ele>
        <time>2019-09-24T10:30:28.001Z</time>
      </trkpt>
      <trkpt lat="48.15505" lon="5.5684">
        <ele>317.391</ele>
        <time>2019-09-24T10:30:58.001Z</time>
      </trkpt>
      <trkpt lat="48.15397" lon="5.56772">
        <ele>320.653</ele>
        <time>2019-09-24T10:31:28.001Z</time>
      </trkpt>
      <trkpt lat="48.15288" lon="5.56731">
        <ele>321.601</ele>
        <time>2019-09-24T10:31:58.001Z</time>
      </trkpt>
      <trkpt lat="48.15166" lon="5.56698">
        <ele>323.709</ele>
        <time>2019-09-24T10:32:28.001Z</time>
      </trkpt>
      <trkpt lat="48.15072" lon="5.56751">
        <ele>322.66</ele>
        <time>2019-09-24T10:33:01.001Z</time>
      </trkpt>
      <trkpt lat="48.15057" lon="5.5685">
        <ele>327.623</ele>
        <time>2019-09-24T10:33:31.001Z</time>
      </trkpt>
      <trkpt lat="48.15013" lon="5.56928">
        <ele>331.583</ele>
        <time>2019-09-24T10:34:01.001Z</time>
      </trkpt>
      <trkpt lat="48.14948" lon="5.57036">
        <ele>335.817</ele>
        <time>2019-09-24T10:34:31.001Z</time>
      </trkpt>
      <trkpt lat="48.14899" lon="5.57178">
        <ele>339.021</ele>
        <time>2019-09-24T10:35:01.001Z</time>
      </trkpt>
      <trkpt lat="48.14813" lon="5.57146">
        <ele>340.374</ele>
        <time>2019-09-24T10:35:31.001Z</time>
      </trkpt>
      <trkpt lat="48.14715" lon="5.56771">
        <ele>314.018</ele>
        <time>2019-09-24T10:36:01.001Z</time>
      </trkpt>
      <trkpt lat="48.14681" lon="5.56537">
        <ele>311.498</ele>
        <time>2019-09-24T10:36:31.001Z</time>
      </trkpt>
      <trkpt lat="48.14606" lon="5.56383">
        <ele>317.502</ele>
        <time>2019-09-24T10:37:01.001Z</time>
      </trkpt>
      <trkpt lat="48.14514" lon="5.56281">
        <ele>320.778</ele>
        <time>2019-09-24T10:37:31.001Z</time>
      </trkpt>
      <trkpt lat="48.14432" lon="5.56163">
        <ele>327.483</ele>
        <time>2019-09-24T10:38:01.001Z</time>
      </trkpt>
      <trkpt lat="48.14297" lon="5.56007">
        <ele>321.675</ele>
        <time>2019-09-24T10:38:31.001Z</time>
      </trkpt>
      <trkpt lat="48.14175" lon="5.55975">
        <ele>319.292</ele>
        <time>2019-09-24T10:39:01.001Z</time>
      </trkpt>
      <trkpt lat="48.14125" lon="5.56048">
        <ele>323.189</ele>
        <time>2019-09-24T10:39:31.001Z</time>
      </trkpt>
      <trkpt lat="48.14066" lon="5.56084">
        <ele>328.867</ele>
        <time>2019-09-24T10:40:01.001Z</time>
      </trkpt>
      <trkpt lat="48.13972" lon="5.56184">
        <ele>324.393</ele>
        <time>2019-09-24T10:40:31.001Z</time>
      </trkpt>
      <trkpt lat="48.13923" lon="5.56278">
        <ele>329.087</ele>
        <time>2019-09-24T10:41:01.001Z</time>
      </trkpt>
      <trkpt lat="48.13867" lon="5.5638">
        <ele>335.456</ele>
        <time>2019-09-24T10:41:31.001Z</time>
      </trkpt>
      <trkpt lat="48.13795" lon="5.56444">
        <ele>338.191</ele>
        <time>2019-09-24T10:42:01.001Z</time>
      </trkpt>
      <trkpt lat="48.13717" lon="5.56502">
        <ele>337.55</ele>
        <time>2019-09-24T10:42:31.001Z</time>
      </trkpt>
      <trkpt lat="48.13606" lon="5.56596">
        <ele>337.122</ele>
        <time>2019-09-24T10:43:01.001Z</time>
      </trkpt>
      <trkpt lat="48.13458" lon="5.56672">
        <ele>329.164</ele>
        <time>2019-09-24T10:43:31.001Z</time>
      </trkpt>
      <trkpt lat="48.13284" lon="5.56755">
        <ele>325.422</ele>
        <time>2019-09-24T10:44:01.001Z</time>
      </trkpt>
      <trkpt lat="48.13085" lon="5.56823">
        <ele>317.558</ele>
        <time>2019-09-24T10:44:34.001Z</time>
      </trkpt>
      <trkpt lat="48.12986" lon="5.56846">
        <ele>317.135</ele>
        <time>2019-09-24T10:45:04.001Z</time>
      </trkpt>
      <trkpt lat="48.12897" lon="5.56863">
        <ele>318.866</ele>
        <time>2019-09-24T10:45:34.001Z</time>
      </trkpt>
      <trkpt lat="48.12823" lon="5.56871">
        <ele>320.133</ele>
        <time>2019-09-24T10:46:04.001Z</time>
      </trkpt>
      <trkpt lat="48.12755" lon="5.56875">
        <ele>321.31</ele>
        <time>2019-09-24T10:46:34.001Z</time>
      </trkpt>
      <trkpt lat="48.127" lon="5.56842">
        <ele>329.715</ele>
        <time>2019-09-24T10:47:04.001Z</time>
      </trkpt>
      <trkpt lat="48.12623" lon="5.56794">
        <ele>340.873</ele>
        <time>2019-09-24T10:47:34.001Z</time>
      </trkpt>
      <trkpt lat="48.12449" lon="5.56744">
        <ele>336.604</ele>
        <time>2019-09-24T10:48:04.001Z</time>
      </trkpt>
      <trkpt lat="48.12328" lon="5.56828">
        <ele>321.616</ele>
        <time>2019-09-24T10:48:34.001Z</time>
      </trkpt>
      <trkpt lat="48.12224" lon="5.56969">
        <ele>324.794</ele>
        <time>2019-09-24T10:49:04.001Z</time>
      </trkpt>
      <trkpt lat="48.12152" lon="5.57173">
        <ele>330.778</ele>
        <time>2019-09-24T10:49:34.001Z</time>
      </trkpt>
      <trkpt lat="48.12101" lon="5.57359">
        <ele>331.59</ele>
        <time>2019-09-24T10:50:04.001Z</time>
      </trkpt>
      <trkpt lat="48.12044" lon="5.5757">
        <ele>328.596</ele>
        <time>2019-09-24T10:50:34.001Z</time>
      </trkpt>
      <trkpt lat="48.11977" lon="5.57797">
        <ele>327.214</ele>
        <time>2019-09-24T10:51:04.001Z</time>
      </trkpt>
      <trkpt lat="48.11925" lon="5.58002">
        <ele>326.945</ele>
        <time>2019-09-24T10:51:34.001Z</time>
      </trkpt>
      <trkpt lat="48.11873" lon="5.58186">
        <ele>327.445</ele>
        <time>2019-09-24T10:52:04.001Z</time>
      </trkpt>
      <trkpt lat="48.11815" lon="5.58353">
        <ele>327.675</ele>
        <time>2019-09-24T10:52:34.001Z</time>
      </trkpt>
      <trkpt lat="48.11742" lon="5.58481">
        <ele>329.144</ele>
        <time>2019-09-24T10:53:04.001Z</time>
      </trkpt>
      <trkpt lat="48.11648" lon="5.58587">
        <ele>327.682</ele>
        <time>2019-09-24T10:53:34.001Z</time>
      </trkpt>
      <trkpt lat="48.11539" lon="5.58655">
        <ele>329.947</ele>
        <time>2019-09-24T10:54:04.001Z</time>
      </trkpt>
      <trkpt lat="48.11388" lon="5.58704">
        <ele>324.096</ele>
        <time>2019-09-24T10:54:34.001Z</time>
      </trkpt>
      <trkpt lat="48.11214" lon="5.58791">
        <ele>319.918</ele>
        <time>2019-09-24T10:55:04.001Z</time>
      </trkpt>
      <trkpt lat="48.11134" lon="5.58891">
        <ele>325.442</ele>
        <time>2019-09-24T10:55:34.001Z</time>
      </trkpt>
      <trkpt lat="48.11076" lon="5.59032">
        <ele>326.867</ele>
        <time>2019-09-24T10:56:07.001Z</time>
      </trkpt>
      <trkpt lat="48.1104" lon="5.59164">
        <ele>330.185</ele>
        <time>2019-09-24T10:56:37.001Z</time>
      </trkpt>
      <trkpt lat="48.11003" lon="5.59281">
        <ele>331.159</ele>
        <time>2019-09-24T10:57:07.001Z</time>
      </trkpt>
      <trkpt lat="48.10962" lon="5.59387">
        <ele>332.749</ele>
        <time>2019-09-24T10:57:37.001Z</time>
      </trkpt>
      <trkpt lat="48.10873" lon="5.59447">
        <ele>333.286</ele>
        <time>2019-09-24T10:58:07.001Z</time>
      </trkpt>
      <trkpt lat="48.10728" lon="5.59555">
        <ele>330.649</ele>
        <time>2019-09-24T10:58:37.001Z</time>
      </trkpt>
      <trkpt lat="48.10598" lon="5.59667">
        <ele>326.877</ele>
        <time>2019-09-24T10:59:07.001Z</time>
      </trkpt>
      <trkpt lat="48.10523" lon="5.59792">
        <ele>328.926</ele>
        <time>2019-09-24T10:59:37.001Z</time>
      </trkpt>
      <trkpt lat="48.1045" lon="5.59872">
        <ele>329.845</ele>
        <time>2019-09-24T11:00:07.001Z</time>
      </trkpt>
      <trkpt lat="48.10391" lon="5.59937">
        <ele>335.739</ele>
        <time>2019-09-24T11:00:37.001Z</time>
      </trkpt>
      <trkpt lat="48.10334" lon="5.59983">
        <ele>339.432</ele>
        <time>2019-09-24T11:01:07.001Z</time>
      </trkpt>
      <trkpt lat="48.10264" lon="5.60007">
        <ele>339.74</ele>
        <time>2019-09-24T11:01:37.001Z</time>
      </trkpt>
      <trkpt lat="48.10187" lon="5.60037">
        <ele>341.033</ele>
        <time>2019-09-24T11:02:07.001Z</time>
      </trkpt>
      <trkpt lat="48.10083" lon="5.60112">
        <ele>342.5</ele>
        <time>2019-09-24T11:02:37.001Z</time>
      </trkpt>
      <trkpt lat="48.09829" lon="5.60331">
        <ele>330.42</ele>
        <time>2019-09-24T11:03:07.001Z</time>
      </trkpt>
      <trkpt lat="48.09637" lon="5.60427">
        <ele>326.955</ele>
        <time>2019-09-24T11:03:37.001Z</time>
      </trkpt>
      <trkpt lat="48.09519" lon="5.60371">
        <ele>324.596</ele>
        <time>2019-09-24T11:04:07.001Z</time>
      </trkpt>
      <trkpt lat="48.09471" lon="5.60305">
        <ele>321.581</ele>
        <time>2019-09-24T11:06:10.001Z</time>
      </trkpt>
      <trkpt lat="48.0939" lon="5.60206">
        <ele>322.298</ele>
        <time>2019-09-24T11:06:40.001Z</time>
      </trkpt>
      <trkpt lat="48.09325" lon="5.60076">
        <ele>324.733</ele>
        <time>2019-09-24T11:07:10.001Z</time>
      </trkpt>
      <trkpt lat="48.09299" lon="5.59928">
        <ele>326.13</ele>
        <time>2019-09-24T11:07:40.001Z</time>
      </trkpt>
      <trkpt lat="48.0921" lon="5.59765">
        <ele>323.844</ele>
        <time>2019-09-24T11:08:10.001Z</time>
      </trkpt>
      <trkpt lat="48.09158" lon="5.59571">
        <ele>321.376</ele>
        <time>2019-09-24T11:08:40.001Z</time>
      </trkpt>
      <trkpt lat="48.09112" lon="5.59447">
        <ele>323.503</ele>
        <time>2019-09-24T11:09:13.001Z</time>
      </trkpt>
      <trkpt lat="48.09111" lon="5.59446">
        <ele>325.555</ele>
        <time>2019-09-24T11:18:22.001Z</time>
      </trkpt>
      <trkpt lat="48.09078" lon="5.59407">
        <ele>328.242</ele>
        <time>2019-09-24T11:19:04.001Z</time>
      </trkpt>
      <trkpt lat="48.09079" lon="5.59404">
        <ele>326.723</ele>
        <time>2019-09-24T11:20:22.001Z</time>
      </trkpt>
      <trkpt lat="48.09069" lon="5.59393">
        <ele>328.407</ele>
        <time>2019-09-24T11:22:19.001Z</time>
      </trkpt>
      <trkpt lat="48.09008" lon="5.59326">
        <ele>330.876</ele>
        <time>2019-09-24T11:22:49.001Z</time>
      </trkpt>
      <trkpt lat="48.08943" lon="5.59279">
        <ele>333.484</ele>
        <time>2019-09-24T11:23:19.001Z</time>
      </trkpt>
      <trkpt lat="48.08878" lon="5.59239">
        <ele>336.034</ele>
        <time>2019-09-24T11:23:49.001Z</time>
      </trkpt>
      <trkpt lat="48.08822" lon="5.59173">
        <ele>338.211</ele>
        <time>2019-09-24T11:24:19.001Z</time>
      </trkpt>
      <trkpt lat="48.08762" lon="5.59095">
        <ele>341.943</ele>
        <time>2019-09-24T11:24:49.001Z</time>
      </trkpt>
      <trkpt lat="48.0865" lon="5.58924">
        <ele>338.08</ele>
        <time>2019-09-24T11:25:19.001Z</time>
      </trkpt>
      <trkpt lat="48.08517" lon="5.58685">
        <ele>329.644</ele>
        <time>2019-09-24T11:25:49.001Z</time>
      </trkpt>
      <trkpt lat="48.08456" lon="5.58507">
        <ele>324.303</ele>
        <time>2019-09-24T11:26:19.001Z</time>
      </trkpt>
      <trkpt lat="48.08402" lon="5.58347">
        <ele>325.793</ele>
        <time>2019-09-24T11:26:49.001Z</time>
      </trkpt>
      <trkpt lat="48.08355" lon="5.58206">
        <ele>326.256</ele>
        <time>2019-09-24T11:27:19.001Z</time>
      </trkpt>
      <trkpt lat="48.08309" lon="5.5805">
        <ele>327.725</ele>
        <time>2019-09-24T11:27:49.001Z</time>
      </trkpt>
      <trkpt lat="48.08264" lon="5.57898">
        <ele>329.326</ele>
        <time>2019-09-24T11:28:19.001Z</time>
      </trkpt>
      <trkpt lat="48.08199" lon="5.57774">
        <ele>332.508</ele>
        <time>2019-09-24T11:28:49.001Z</time>
      </trkpt>
      <trkpt lat="48.08119" lon="5.5767">
        <ele>332.53</ele>
        <time>2019-09-24T11:29:19.001Z</time>
      </trkpt>
      <trkpt lat="48.08023" lon="5.57591">
        <ele>332.934</ele>
        <time>2019-09-24T11:29:49.001Z</time>
      </trkpt>
      <trkpt lat="48.07926" lon="5.57534">
        <ele>334.904</ele>
        <time>2019-09-24T11:30:19.001Z</time>
      </trkpt>
      <trkpt lat="48.07826" lon="5.57484">
        <ele>335.823</ele>
        <time>2019-09-24T11:30:49.001Z</time>
      </trkpt>
      <trkpt lat="48.07728" lon="5.57455">
        <ele>336.016</ele>
        <time>2019-09-24T11:31:19.001Z</time>
      </trkpt>
      <trkpt lat="48.07627" lon="5.57338">
        <ele>335.818</ele>
        <time>2019-09-24T11:31:52.001Z</time>
      </trkpt>
      <trkpt lat="48.07531" lon="5.57224">
        <ele>333.611</ele>
        <time>2019-09-24T11:32:22.001Z</time>
      </trkpt>
      <trkpt lat="48.07438" lon="5.57129">
        <ele>338.317</ele>
        <time>2019-09-24T11:32:52.001Z</time>
      </trkpt>
      <trkpt lat="48.07356" lon="5.57043">
        <ele>340.681</ele>
        <time>2019-09-24T11:33:22.001Z</time>
      </trkpt>
      <trkpt lat="48.07302" lon="5.56938">
        <ele>341.595</ele>
        <time>2019-09-24T11:33:52.001Z</time>
      </trkpt>
      <trkpt lat="48.07221" lon="5.56822">
        <ele>341.294</ele>
        <time>2019-09-24T11:34:22.001Z</time>
      </trkpt>
      <trkpt lat="48.07131" lon="5.56642">
        <ele>340.816</ele>
        <time>2019-09-24T11:34:52.001Z</time>
      </trkpt>
      <trkpt lat="48.0705" lon="5.56482">
        <ele>342.672</ele>
        <time>2019-09-24T11:35:22.001Z</time>
      </trkpt>
      <trkpt lat="48.07003" lon="5.56334">
        <ele>342.584</ele>
        <time>2019-09-24T11:35:52.001Z</time>
      </trkpt>
      <trkpt lat="48.06975" lon="5.56183">
        <ele>341.176</ele>
        <time>2019-09-24T11:36:22.001Z</time>
      </trkpt>
      <trkpt lat="48.06881" lon="5.56061">
        <ele>343.623</ele>
        <time>2019-09-24T11:36:52.001Z</time>
      </trkpt>
      <trkpt lat="48.06783" lon="5.55895">
        <ele>345.872</ele>
        <time>2019-09-24T11:37:22.001Z</time>
      </trkpt>
      <trkpt lat="48.06724" lon="5.55681">
        <ele>339.437</ele>
        <time>2019-09-24T11:37:52.001Z</time>
      </trkpt>
      <trkpt lat="48.06676" lon="5.55454">
        <ele>339.14</ele>
        <time>2019-09-24T11:38:22.001Z</time>
      </trkpt>
      <trkpt lat="48.06529" lon="5.55448">
        <ele>329.97</ele>
        <time>2019-09-24T11:38:52.001Z</time>
      </trkpt>
      <trkpt lat="48.06395" lon="5.55456">
        <ele>328.326</ele>
        <time>2019-09-24T11:39:22.001Z</time>
      </trkpt>
      <trkpt lat="48.06321" lon="5.55275">
        <ele>325.801</ele>
        <time>2019-09-24T11:39:52.001Z</time>
      </trkpt>
      <trkpt lat="48.06218" lon="5.55172">
        <ele>326.558</ele>
        <time>2019-09-24T11:40:22.001Z</time>
      </trkpt>
      <trkpt lat="48.06136" lon="5.55103">
        <ele>329.824</ele>
        <time>2019-09-24T11:40:52.001Z</time>
      </trkpt>
      <trkpt lat="48.06055" lon="5.55029">
        <ele>332.607</ele>
        <time>2019-09-24T11:41:22.001Z</time>
      </trkpt>
      <trkpt lat="48.06013" lon="5.54893">
        <ele>329.143</ele>
        <time>2019-09-24T11:41:52.001Z</time>
      </trkpt>
      <trkpt lat="48.05944" lon="5.54754">
        <ele>330.55</ele>
        <time>2019-09-24T11:42:22.001Z</time>
      </trkpt>
      <trkpt lat="48.05907" lon="5.54604">
        <ele>328.586</ele>
        <time>2019-09-24T11:42:52.001Z</time>
      </trkpt>
      <trkpt lat="48.05793" lon="5.54557">
        <ele>328.211</ele>
        <time>2019-09-24T11:43:25.001Z</time>
      </trkpt>
      <trkpt lat="48.05708" lon="5.54542">
        <ele>331.972</ele>
        <time>2019-09-24T11:43:55.001Z</time>
      </trkpt>
      <trkpt lat="48.0564" lon="5.54544">
        <ele>335.969</ele>
        <time>2019-09-24T11:44:25.001Z</time>
      </trkpt>
      <trkpt lat="48.0557" lon="5.5455">
        <ele>339.639</ele>
        <time>2019-09-24T11:44:55.001Z</time>
      </trkpt>
      <trkpt lat="48.05496" lon="5.54553">
        <ele>346.149</ele>
        <time>2019-09-24T11:45:25.001Z</time>
      </trkpt>
      <trkpt lat="48.054" lon="5.54511">
        <ele>350.617</ele>
        <time>2019-09-24T11:45:55.001Z</time>
      </trkpt>
      <trkpt lat="48.05275" lon="5.5453">
        <ele>347.916</ele>
        <time>2019-09-24T11:46:25.001Z</time>
      </trkpt>
      <trkpt lat="48.05154" lon="5.54482">
        <ele>344.481</ele>
        <time>2019-09-24T11:46:55.001Z</time>
      </trkpt>
      <trkpt lat="48.0503" lon="5.54432">
        <ele>342.557</ele>
        <time>2019-09-24T11:47:25.001Z</time>
      </trkpt>
      <trkpt lat="48.04936" lon="5.54411">
        <ele>342.419</ele>
        <time>2019-09-24T11:47:55.001Z</time>
      </trkpt>
      <trkpt lat="48.04843" lon="5.54385">
        <ele>342.731</ele>
        <time>2019-09-24T11:48:25.001Z</time>
      </trkpt>
      <trkpt lat="48.04746" lon="5.54363">
        <ele>344.303</ele>
        <time>2019-09-24T11:48:55.001Z</time>
      </trkpt>
      <trkpt lat="48.04613" lon="5.54327">
        <ele>340.118</ele>
        <time>2019-09-24T11:49:25.001Z</time>
      </trkpt>
      <trkpt lat="48.04395" lon="5.54153">
        <ele>326.761</ele>
        <time>2019-09-24T11:49:55.001Z</time>
      </trkpt>
      <trkpt lat="48.04277" lon="5.54083">
        <ele>326.649</ele>
        <time>2019-09-24T11:50:25.001Z</time>
      </trkpt>
      <trkpt lat="48.04164" lon="5.54117">
        <ele>328.045</ele>
        <time>2019-09-24T11:50:55.001Z</time>
      </trkpt>
      <trkpt lat="48.04058" lon="5.54224">
        <ele>327.7</ele>
        <time>2019-09-24T11:51:25.001Z</time>
      </trkpt>
      <trkpt lat="48.03953" lon="5.54324">
        <ele>328.337</ele>
        <time>2019-09-24T11:51:55.001Z</time>
      </trkpt>
      <trkpt lat="48.03845" lon="5.5442">
        <ele>331.599</ele>
        <time>2019-09-24T11:52:25.001Z</time>
      </trkpt>
      <trkpt lat="48.03726" lon="5.54455">
        <ele>329.611</ele>
        <time>2019-09-24T11:52:55.001Z</time>
      </trkpt>
      <trkpt lat="48.03613" lon="5.54401">
        <ele>330.609</ele>
        <time>2019-09-24T11:53:25.001Z</time>
      </trkpt>
      <trkpt lat="48.03507" lon="5.54401">
        <ele>334.164</ele>
        <time>2019-09-24T11:53:55.001Z</time>
      </trkpt>
      <trkpt lat="48.034" lon="5.54406">
        <ele>336.37</ele>
        <time>2019-09-24T11:54:25.001Z</time>
      </trkpt>
      <trkpt lat="48.03282" lon="5.54392">
        <ele>336.753</ele>
        <time>2019-09-24T11:54:58.001Z</time>
      </trkpt>
      <trkpt lat="48.0319" lon="5.54358">
        <ele>336.682</ele>
        <time>2019-09-24T11:55:28.001Z</time>
      </trkpt>
      <trkpt lat="48.03098" lon="5.54367">
        <ele>336.704</ele>
        <time>2019-09-24T11:55:58.001Z</time>
      </trkpt>
      <trkpt lat="48.02985" lon="5.54385">
        <ele>335.479</ele>
        <time>2019-09-24T11:56:28.001Z</time>
      </trkpt>
      <trkpt lat="48.02879" lon="5.54217">
        <ele>331.842</ele>
        <time>2019-09-24T11:56:58.001Z</time>
      </trkpt>
      <trkpt lat="48.02771" lon="5.53992">
        <ele>330.822</ele>
        <time>2019-09-24T11:57:28.001Z</time>
      </trkpt>
      <trkpt lat="48.0269" lon="5.53846">
        <ele>328.459</ele>
        <time>2019-09-24T11:57:58.001Z</time>
      </trkpt>
      <trkpt lat="48.02605" lon="5.53717">
        <ele>329.37</ele>
        <time>2019-09-24T11:58:28.001Z</time>
      </trkpt>
      <trkpt lat="48.02547" lon="5.5357">
        <ele>327.21</ele>
        <time>2019-09-24T11:58:58.001Z</time>
      </trkpt>
      <trkpt lat="48.02588" lon="5.53385">
        <ele>325.439</ele>
        <time>2019-09-24T11:59:28.001Z</time>
      </trkpt>
      <trkpt lat="48.02572" lon="5.53243">
        <ele>331.38</ele>
        <time>2019-09-24T11:59:58.001Z</time>
      </trkpt>
      <trkpt lat="48.02543" lon="5.53045">
        <ele>329.416</ele>
        <time>2019-09-24T12:00:28.001Z</time>
      </trkpt>
      <trkpt lat="48.0247" lon="5.52871">
        <ele>331.022</ele>
        <time>2019-09-24T12:00:58.001Z</time>
      </trkpt>
      <trkpt lat="48.02371" lon="5.52779">
        <ele>333.172</ele>
        <time>2019-09-24T12:01:28.001Z</time>
      </trkpt>
      <trkpt lat="48.02278" lon="5.52676">
        <ele>333.494</ele>
        <time>2019-09-24T12:01:58.001Z</time>
      </trkpt>
      <trkpt lat="48.02204" lon="5.52546">
        <ele>333.86</ele>
        <time>2019-09-24T12:02:28.001Z</time>
      </trkpt>
      <trkpt lat="48.02121" lon="5.52444">
        <ele>335.592</ele>
        <time>2019-09-24T12:02:58.001Z</time>
      </trkpt>
      <trkpt lat="48.0204" lon="5.52284">
        <ele>333.521</ele>
        <time>2019-09-24T12:03:28.001Z</time>
      </trkpt>
      <trkpt lat="48.01916" lon="5.5222">
        <ele>331.104</ele>
        <time>2019-09-24T12:03:58.001Z</time>
      </trkpt>
      <trkpt lat="48.01834" lon="5.52336">
        <ele>330.156</ele>
        <time>2019-09-24T12:04:28.001Z</time>
      </trkpt>
      <trkpt lat="48.01804" lon="5.52448">
        <ele>336.115</ele>
        <time>2019-09-24T12:04:58.001Z</time>
      </trkpt>
      <trkpt lat="48.01777" lon="5.52539">
        <ele>343.062</ele>
        <time>2019-09-24T12:05:28.001Z</time>
      </trkpt>
      <trkpt lat="48.01733" lon="5.52625">
        <ele>346.494</ele>
        <time>2019-09-24T12:05:58.001Z</time>
      </trkpt>
      <trkpt lat="48.01662" lon="5.52745">
        <ele>344.558</ele>
        <time>2019-09-24T12:06:31.001Z</time>
      </trkpt>
      <trkpt lat="48.01611" lon="5.52828">
        <ele>342.403</ele>
        <time>2019-09-24T12:16:49.001Z</time>
      </trkpt>
      <trkpt lat="48.01511" lon="5.52874">
        <ele>342.385</ele>
        <time>2019-09-24T12:17:19.001Z</time>
      </trkpt>
      <trkpt lat="48.01422" lon="5.52857">
        <ele>345.704</ele>
        <time>2019-09-24T12:17:49.001Z</time>
      </trkpt>
      <trkpt lat="48.0133" lon="5.52778">
        <ele>347.737</ele>
        <time>2019-09-24T12:18:19.001Z</time>
      </trkpt>
      <trkpt lat="48.01242" lon="5.52673">
        <ele>347.304</ele>
        <time>2019-09-24T12:18:49.001Z</time>
      </trkpt>
      <trkpt lat="48.01089" lon="5.52718">
        <ele>340.793</ele>
        <time>2019-09-24T12:19:19.001Z</time>
      </trkpt>
      <trkpt lat="48.00993" lon="5.52838">
        <ele>343.895</ele>
        <time>2019-09-24T12:19:49.001Z</time>
      </trkpt>
      <trkpt lat="48.01043" lon="5.52974">
        <ele>346.199</ele>
        <time>2019-09-24T12:20:19.001Z</time>
      </trkpt>
      <trkpt lat="48.01132" lon="5.53256">
        <ele>339.958</ele>
        <time>2019-09-24T12:20:49.001Z</time>
      </trkpt>
      <trkpt lat="48.01298" lon="5.53447">
        <ele>332.818</ele>
        <time>2019-09-24T12:21:19.001Z</time>
      </trkpt>
      <trkpt lat="48.01388" lon="5.53696">
        <ele>327.815</ele>
        <time>2019-09-24T12:21:49.001Z</time>
      </trkpt>
      <trkpt lat="48.01428" lon="5.53808">
        <ele>337.243</ele>
        <time>2019-09-24T12:22:19.001Z</time>
      </trkpt>
      <trkpt lat="48.01453" lon="5.53909">
        <ele>342.48</ele>
        <time>2019-09-24T12:22:49.001Z</time>
      </trkpt>
      <trkpt lat="48.01473" lon="5.54018">
        <ele>342.116</ele>
        <time>2019-09-24T12:23:19.001Z</time>
      </trkpt>
      <trkpt lat="48.01492" lon="5.5413">
        <ele>346.215</ele>
        <time>2019-09-24T12:23:49.001Z</time>
      </trkpt>
      <trkpt lat="48.01509" lon="5.54276">
        <ele>350.109</ele>
        <time>2019-09-24T12:24:19.001Z</time>
      </trkpt>
      <trkpt lat="48.01522" lon="5.54447">
        <ele>347.313</ele>
        <time>2019-09-24T12:24:49.002Z</time>
      </trkpt>
      <trkpt lat="48.01518" lon="5.54583">
        <ele>345.266</ele>
        <time>2019-09-24T12:25:19.001Z</time>
      </trkpt>
      <trkpt lat="48.01489" lon="5.54708">
        <ele>347.062</ele>
        <time>2019-09-24T12:25:49.001Z</time>
      </trkpt>
      <trkpt lat="48.01475" lon="5.54827">
        <ele>351.946</ele>
        <time>2019-09-24T12:26:19.001Z</time>
      </trkpt>
      <trkpt lat="48.01481" lon="5.54951">
        <ele>354.749</ele>
        <time>2019-09-24T12:26:49.001Z</time>
      </trkpt>
      <trkpt lat="48.01481" lon="5.55102">
        <ele>354.798</ele>
        <time>2019-09-24T12:27:19.001Z</time>
      </trkpt>
      <trkpt lat="48.01431" lon="5.55244">
        <ele>355.51</ele>
        <time>2019-09-24T12:27:52.001Z</time>
      </trkpt>
      <trkpt lat="48.01371" lon="5.55377">
        <ele>359.209</ele>
        <time>2019-09-24T12:28:22.001Z</time>
      </trkpt>
      <trkpt lat="48.01358" lon="5.55502">
        <ele>359.86</ele>
        <time>2019-09-24T12:28:52.001Z</time>
      </trkpt>
      <trkpt lat="48.01366" lon="5.55625">
        <ele>362.955</ele>
        <time>2019-09-24T12:29:22.001Z</time>
      </trkpt>
      <trkpt lat="48.01381" lon="5.55753">
        <ele>365.212</ele>
        <time>2019-09-24T12:29:52.001Z</time>
      </trkpt>
      <trkpt lat="48.01405" lon="5.55896">
        <ele>366.412</ele>
        <time>2019-09-24T12:30:22.001Z</time>
      </trkpt>
      <trkpt lat="48.01505" lon="5.56028">
        <ele>365.272</ele>
        <time>2019-09-24T12:30:52.001Z</time>
      </trkpt>
      <trkpt lat="48.01549" lon="5.56226">
        <ele>364.629</ele>
        <time>2019-09-24T12:31:22.001Z</time>
      </trkpt>
      <trkpt lat="48.0154" lon="5.56368">
        <ele>369.747</ele>
        <time>2019-09-24T12:31:52.001Z</time>
      </trkpt>
      <trkpt lat="48.01514" lon="5.56517">
        <ele>370.209</ele>
        <time>2019-09-24T12:32:22.001Z</time>
      </trkpt>
      <trkpt lat="48.01489" lon="5.56664">
        <ele>372.537</ele>
        <time>2019-09-24T12:32:52.001Z</time>
      </trkpt>
      <trkpt lat="48.01454" lon="5.56821">
        <ele>370.829</ele>
        <time>2019-09-24T12:33:22.001Z</time>
      </trkpt>
      <trkpt lat="48.01426" lon="5.5694">
        <ele>371.88</ele>
        <time>2019-09-24T12:33:52.001Z</time>
      </trkpt>
      <trkpt lat="48.01407" lon="5.57051">
        <ele>373.98</ele>
        <time>2019-09-24T12:34:22.001Z</time>
      </trkpt>
      <trkpt lat="48.01397" lon="5.57157">
        <ele>377.245</ele>
        <time>2019-09-24T12:34:52.001Z</time>
      </trkpt>
      <trkpt lat="48.01398" lon="5.57269">
        <ele>380.72</ele>
        <time>2019-09-24T12:35:22.001Z</time>
      </trkpt>
      <trkpt lat="48.01459" lon="5.57381">
        <ele>381.062</ele>
        <time>2019-09-24T12:35:52.001Z</time>
      </trkpt>
      <trkpt lat="48.0154" lon="5.5757">
        <ele>376.079</ele>
        <time>2019-09-24T12:36:22.001Z</time>
      </trkpt>
      <trkpt lat="48.01618" lon="5.57738">
        <ele>374.291</ele>
        <time>2019-09-24T12:36:52.001Z</time>
      </trkpt>
      <trkpt lat="48.01714" lon="5.57935">
        <ele>372.525</ele>
        <time>2019-09-24T12:37:22.001Z</time>
      </trkpt>
      <trkpt lat="48.01736" lon="5.5814">
        <ele>371.454</ele>
        <time>2019-09-24T12:37:52.001Z</time>
      </trkpt>
      <trkpt lat="48.01702" lon="5.5831">
        <ele>368.708</ele>
        <time>2019-09-24T12:38:22.001Z</time>
      </trkpt>
      <trkpt lat="48.01696" lon="5.58484">
        <ele>368.133</ele>
        <time>2019-09-24T12:38:52.001Z</time>
      </trkpt>
      <trkpt lat="48.01798" lon="5.58615">
        <ele>374.027</ele>
        <time>2019-09-24T12:39:25.001Z</time>
      </trkpt>
      <trkpt lat="48.01807" lon="5.58846">
        <ele>371.893</ele>
        <time>2019-09-24T12:39:55.001Z</time>
      </trkpt>
      <trkpt lat="48.01747" lon="5.58972">
        <ele>372.497</ele>
        <time>2019-09-24T12:40:25.001Z</time>
      </trkpt>
      <trkpt lat="48.01672" lon="5.59061">
        <ele>373.971</ele>
        <time>2019-09-24T12:40:55.001Z</time>
      </trkpt>
      <trkpt lat="48.0161" lon="5.59168">
        <ele>373.601</ele>
        <time>2019-09-24T12:41:25.001Z</time>
      </trkpt>
      <trkpt lat="48.01537" lon="5.59234">
        <ele>376.642</ele>
        <time>2019-09-24T12:41:55.001Z</time>
      </trkpt>
      <trkpt lat="48.01469" lon="5.59316">
        <ele>373.896</ele>
        <time>2019-09-24T12:42:25.001Z</time>
      </trkpt>
      <trkpt lat="48.0142" lon="5.59381">
        <ele>381.664</ele>
        <time>2019-09-24T12:42:55.001Z</time>
      </trkpt>
      <trkpt lat="48.01396" lon="5.59423">
        <ele>381.881</ele>
        <time>2019-09-24T12:45:34.001Z</time>
      </trkpt>
      <trkpt lat="48.01325" lon="5.5951">
        <ele>381.768</ele>
        <time>2019-09-24T12:46:04.001Z</time>
      </trkpt>
      <trkpt lat="48.01241" lon="5.59577">
        <ele>380.693</ele>
        <time>2019-09-24T12:46:34.001Z</time>
      </trkpt>
      <trkpt lat="48.01148" lon="5.59613">
        <ele>379.641</ele>
        <time>2019-09-24T12:47:04.001Z</time>
      </trkpt>
      <trkpt lat="48.01048" lon="5.59617">
        <ele>381.759</ele>
        <time>2019-09-24T12:47:34.001Z</time>
      </trkpt>
      <trkpt lat="48.00906" lon="5.59635">
        <ele>383.03</ele>
        <time>2019-09-24T12:48:04.001Z</time>
      </trkpt>
      <trkpt lat="48.00796" lon="5.5974">
        <ele>383.16</ele>
        <time>2019-09-24T12:48:34.001Z</time>
      </trkpt>
      <trkpt lat="48.00749" lon="5.59803">
        <ele>388.077</ele>
        <time>2019-09-24T12:49:04.001Z</time>
      </trkpt>
      <trkpt lat="48.00734" lon="5.59928">
        <ele>389.59</ele>
        <time>2019-09-24T12:49:34.001Z</time>
      </trkpt>
      <trkpt lat="48.00701" lon="5.60107">
        <ele>386.544</ele>
        <time>2019-09-24T12:50:04.001Z</time>
      </trkpt>
      <trkpt lat="48.00681" lon="5.60278">
        <ele>388.096</ele>
        <time>2019-09-24T12:50:34.001Z</time>
      </trkpt>
      <trkpt lat="48.00672" lon="5.60431">
        <ele>388.904</ele>
        <time>2019-09-24T12:51:04.001Z</time>
      </trkpt>
      <trkpt lat="48.00617" lon="5.60566">
        <ele>395.215</ele>
        <time>2019-09-24T12:51:34.001Z</time>
      </trkpt>
      <trkpt lat="48.0054" lon="5.60637">
        <ele>390.705</ele>
        <time>2019-09-24T12:52:04.001Z</time>
      </trkpt>
      <trkpt lat="48.00464" lon="5.60701">
        <ele>394.926</ele>
        <time>2019-09-24T12:52:34.001Z</time>
      </trkpt>
      <trkpt lat="48.00359" lon="5.60777">
        <ele>395.917</ele>
        <time>2019-09-24T12:53:07.001Z</time>
      </trkpt>
      <trkpt lat="48.0022" lon="5.60953">
        <ele>387.622</ele>
        <time>2019-09-24T12:53:37.001Z</time>
      </trkpt>
      <trkpt lat="48.00066" lon="5.6109">
        <ele>386.792</ele>
        <time>2019-09-24T12:54:07.001Z</time>
      </trkpt>
      <trkpt lat="47.99955" lon="5.61174">
        <ele>382.785</ele>
        <time>2019-09-24T12:54:37.001Z</time>
      </trkpt>
      <trkpt lat="47.99805" lon="5.61249">
        <ele>383.918</ele>
        <time>2019-09-24T12:55:07.001Z</time>
      </trkpt>
      <trkpt lat="47.99722" lon="5.61438">
        <ele>385.41</ele>
        <time>2019-09-24T12:55:37.001Z</time>
      </trkpt>
      <trkpt lat="47.99662" lon="5.61433">
        <ele>386.068</ele>
        <time>2019-09-24T12:56:07.001Z</time>
      </trkpt>
      <trkpt lat="47.99589" lon="5.61407">
        <ele>389.48</ele>
        <time>2019-09-24T12:56:37.001Z</time>
      </trkpt>
      <trkpt lat="47.99514" lon="5.61442">
        <ele>388.586</ele>
        <time>2019-09-24T12:57:07.001Z</time>
      </trkpt>
      <trkpt lat="47.99382" lon="5.61508">
        <ele>386.37</ele>
        <time>2019-09-24T12:57:37.001Z</time>
      </trkpt>
      <trkpt lat="47.99246" lon="5.61596">
        <ele>383.766</ele>
        <time>2019-09-24T12:58:07.001Z</time>
      </trkpt>
      <trkpt lat="47.99158" lon="5.61695">
        <ele>384.323</ele>
        <time>2019-09-24T12:58:37.001Z</time>
      </trkpt>
      <trkpt lat="47.99098" lon="5.61786">
        <ele>385.482</ele>
        <time>2019-09-24T12:59:07.001Z</time>
      </trkpt>
      <trkpt lat="47.99028" lon="5.61869">
        <ele>385.675</ele>
        <time>2019-09-24T12:59:37.001Z</time>
      </trkpt>
      <trkpt lat="47.98918" lon="5.61939">
        <ele>385.096</ele>
        <time>2019-09-24T13:00:07.001Z</time>
      </trkpt>
      <trkpt lat="47.98764" lon="5.6198">
        <ele>380.928</ele>
        <time>2019-09-24T13:00:37.001Z</time>
      </trkpt>
      <trkpt lat="47.98667" lon="5.62111">
        <ele>381.34</ele>
        <time>2019-09-24T13:01:07.001Z</time>
      </trkpt>
      <trkpt lat="47.98609" lon="5.62208">
        <ele>385.284</ele>
        <time>2019-09-24T13:01:37.001Z</time>
      </trkpt>
      <trkpt lat="47.98547" lon="5.62311">
        <ele>388.19</ele>
        <time>2019-09-24T13:02:07.001Z</time>
      </trkpt>
      <trkpt lat="47.98482" lon="5.62413">
        <ele>389.16</ele>
        <time>2019-09-24T13:02:37.001Z</time>
      </trkpt>
      <trkpt lat="47.98427" lon="5.62501">
        <ele>391.612</ele>
        <time>2019-09-24T13:03:07.001Z</time>
      </trkpt>
      <trkpt lat="47.9838" lon="5.62596">
        <ele>393.463</ele>
        <time>2019-09-24T13:03:37.001Z</time>
      </trkpt>
      <trkpt lat="47.98338" lon="5.62716">
        <ele>395.195</ele>
        <time>2019-09-24T13:04:07.001Z</time>
      </trkpt>
      <trkpt lat="47.98291" lon="5.62806">
        <ele>396.395</ele>
        <time>2019-09-24T13:04:40.001Z</time>
      </trkpt>
      <trkpt lat="47.98204" lon="5.62788">
        <ele>396.056</ele>
        <time>2019-09-24T13:05:10.001Z</time>
      </trkpt>
      <trkpt lat="47.98138" lon="5.62895">
        <ele>400.896</ele>
        <time>2019-09-24T13:05:40.001Z</time>
      </trkpt>
      <trkpt lat="47.98128" lon="5.62901">
        <ele>395.375</ele>
        <time>2019-09-24T13:11:13.001Z</time>
      </trkpt>
      <trkpt lat="47.98129" lon="5.62894">
        <ele>393.476</ele>
        <time>2019-09-24T15:15:16Z</time>
      </trkpt>
      <trkpt lat="47.98129" lon="5.62894">
        <ele>393.968</ele>
        <time>2019-09-24T13:17:43.001Z</time>
      </trkpt>
      <trkpt lat="47.98129" lon="5.62893">
        <ele>393.942</ele>
        <time>2019-09-24T13:19:19.001Z</time>
      </trkpt>
      <trkpt lat="47.98123" lon="5.62922">
        <ele>395.476</ele>
        <time>2019-09-24T13:30:10.001Z</time>
      </trkpt>
      <trkpt lat="47.98163" lon="5.63038">
        <ele>399.624</ele>
        <time>2019-09-24T13:30:40.001Z</time>
      </trkpt>
      <trkpt lat="47.98145" lon="5.63175">
        <ele>397.894</ele>
        <time>2019-09-24T13:31:10.001Z</time>
      </trkpt>
      <trkpt lat="47.98157" lon="5.63312">
        <ele>399.561</ele>
        <time>2019-09-24T13:31:40.002Z</time>
      </trkpt>
      <trkpt lat="47.98167" lon="5.6344">
        <ele>404.045</ele>
        <time>2019-09-24T13:32:10.001Z</time>
      </trkpt>
      <trkpt lat="47.98174" lon="5.63586">
        <ele>405.958</ele>
        <time>2019-09-24T13:32:40.001Z</time>
      </trkpt>
      <trkpt lat="47.98166" lon="5.6372">
        <ele>407.119</ele>
        <time>2019-09-24T13:33:10.001Z</time>
      </trkpt>
      <trkpt lat="47.98189" lon="5.63866">
        <ele>407.174</ele>
        <time>2019-09-24T13:33:40.001Z</time>
      </trkpt>
      <trkpt lat="47.98216" lon="5.64023">
        <ele>405.524</ele>
        <time>2019-09-24T13:34:10.001Z</time>
      </trkpt>
      <trkpt lat="47.98257" lon="5.642">
        <ele>405.961</ele>
        <time>2019-09-24T13:34:40.001Z</time>
      </trkpt>
      <trkpt lat="47.98311" lon="5.644">
        <ele>404.22</ele>
        <time>2019-09-24T13:35:10.001Z</time>
      </trkpt>
      <trkpt lat="47.98413" lon="5.64584">
        <ele>403.076</ele>
        <time>2019-09-24T13:35:40.001Z</time>
      </trkpt>
      <trkpt lat="47.98439" lon="5.64942">
        <ele>392.118</ele>
        <time>2019-09-24T13:36:10.001Z</time>
      </trkpt>
      <trkpt lat="47.98587" lon="5.65245">
        <ele>381.125</ele>
        <time>2019-09-24T13:36:40.001Z</time>
      </trkpt>
      <trkpt lat="47.98711" lon="5.656">
        <ele>366.768</ele>
        <time>2019-09-24T13:37:10.001Z</time>
      </trkpt>
      <trkpt lat="47.98855" lon="5.65773">
        <ele>341.587</ele>
        <time>2019-09-24T13:37:40.001Z</time>
      </trkpt>
      <trkpt lat="47.98654" lon="5.65944">
        <ele>321.196</ele>
        <time>2019-09-24T13:38:13.001Z</time>
      </trkpt>
      <trkpt lat="47.9863" lon="5.66329">
        <ele>304.999</ele>
        <time>2019-09-24T13:38:43.001Z</time>
      </trkpt>
      <trkpt lat="47.98549" lon="5.66472">
        <ele>303.28</ele>
        <time>2019-09-24T13:39:13.001Z</time>
      </trkpt>
      <trkpt lat="47.98487" lon="5.66741">
        <ele>302.153</ele>
        <time>2019-09-24T13:39:43.001Z</time>
      </trkpt>
      <trkpt lat="47.98487" lon="5.67028">
        <ele>301.971</ele>
        <time>2019-09-24T13:40:13.001Z</time>
      </trkpt>
      <trkpt lat="47.98427" lon="5.67227">
        <ele>301.922</ele>
        <time>2019-09-24T13:40:43.001Z</time>
      </trkpt>
      <trkpt lat="47.98359" lon="5.67427">
        <ele>297.651</ele>
        <time>2019-09-24T13:41:13.001Z</time>
      </trkpt>
      <trkpt lat="47.98323" lon="5.67736">
        <ele>296.889</ele>
        <time>2019-09-24T13:41:43.001Z</time>
      </trkpt>
      <trkpt lat="47.98359" lon="5.67956">
        <ele>302.152</ele>
        <time>2019-09-24T13:42:13.001Z</time>
      </trkpt>
      <trkpt lat="47.98386" lon="5.68189">
        <ele>298.753</ele>
        <time>2019-09-24T13:42:43.001Z</time>
      </trkpt>
      <trkpt lat="47.98408" lon="5.68359">
        <ele>304.142</ele>
        <time>2019-09-24T13:43:13.001Z</time>
      </trkpt>
      <trkpt lat="47.98489" lon="5.68459">
        <ele>301.411</ele>
        <time>2019-09-24T13:43:43.001Z</time>
      </trkpt>
      <trkpt lat="47.98608" lon="5.68507">
        <ele>305.166</ele>
        <time>2019-09-24T13:44:13.001Z</time>
      </trkpt>
      <trkpt lat="47.98677" lon="5.68676">
        <ele>310.602</ele>
        <time>2019-09-24T13:44:43.001Z</time>
      </trkpt>
      <trkpt lat="47.98627" lon="5.68907">
        <ele>296.029</ele>
        <time>2019-09-24T13:45:13.001Z</time>
      </trkpt>
      <trkpt lat="47.98558" lon="5.69002">
        <ele>298.968</ele>
        <time>2019-09-24T13:45:43.001Z</time>
      </trkpt>
      <trkpt lat="47.98563" lon="5.69121">
        <ele>305.012</ele>
        <time>2019-09-24T13:46:13.001Z</time>
      </trkpt>
      <trkpt lat="47.98561" lon="5.69288">
        <ele>302.131</ele>
        <time>2019-09-24T13:46:43.001Z</time>
      </trkpt>
      <trkpt lat="47.9846" lon="5.69573">
        <ele>292.728</ele>
        <time>2019-09-24T13:47:13.001Z</time>
      </trkpt>
      <trkpt lat="47.98341" lon="5.6992">
        <ele>278.27</ele>
        <time>2019-09-24T13:47:43.001Z</time>
      </trkpt>
      <trkpt lat="47.98172" lon="5.70162">
        <ele>271.981</ele>
        <time>2019-09-24T13:48:13.001Z</time>
      </trkpt>
      <trkpt lat="47.98047" lon="5.70271">
        <ele>272.997</ele>
        <time>2019-09-24T13:48:43.001Z</time>
      </trkpt>
      <trkpt lat="47.97888" lon="5.70245">
        <ele>278.743</ele>
        <time>2019-09-24T13:49:13.001Z</time>
      </trkpt>
      <trkpt lat="47.97734" lon="5.70395">
        <ele>277.303</ele>
        <time>2019-09-24T13:49:46.001Z</time>
      </trkpt>
      <trkpt lat="47.9761" lon="5.70527">
        <ele>277.626</ele>
        <time>2019-09-24T15:50:16Z</time>
      </trkpt>
      <trkpt lat="47.97484" lon="5.70635">
        <ele>277.679</ele>
        <time>2019-09-24T13:50:46.001Z</time>
      </trkpt>
      <trkpt lat="47.97386" lon="5.70789">
        <ele>275.167</ele>
        <time>2019-09-24T15:51:16Z</time>
      </trkpt>
      <trkpt lat="47.97308" lon="5.70956">
        <ele>287.874</ele>
        <time>2019-09-24T13:51:46.001Z</time>
      </trkpt>
      <trkpt lat="47.97253" lon="5.71175">
        <ele>294.596</ele>
        <time>2019-09-24T15:52:16Z</time>
      </trkpt>
      <trkpt lat="47.97215" lon="5.7143">
        <ele>296.171</ele>
        <time>2019-09-24T13:52:46.001Z</time>
      </trkpt>
      <trkpt lat="47.97184" lon="5.7162">
        <ele>278.315</ele>
        <time>2019-09-24T15:53:16Z</time>
      </trkpt>
      <trkpt lat="47.97187" lon="5.71708">
        <ele>272.203</ele>
        <time>2019-09-24T13:54:46.001Z</time>
      </trkpt>
      <trkpt lat="47.9722" lon="5.71898">
        <ele>274.236</ele>
        <time>2019-09-24T15:55:16Z</time>
      </trkpt>
      <trkpt lat="47.97289" lon="5.72135">
        <ele>288.311</ele>
        <time>2019-09-24T13:55:46.001Z</time>
      </trkpt>
      <trkpt lat="47.9729" lon="5.72421">
        <ele>267.287</ele>
        <time>2019-09-24T15:56:16Z</time>
      </trkpt>
      <trkpt lat="47.97269" lon="5.72659">
        <ele>267.207</ele>
        <time>2019-09-24T13:56:46.001Z</time>
      </trkpt>
      <trkpt lat="47.97231" lon="5.72892">
        <ele>277.488</ele>
        <time>2019-09-24T15:57:16Z</time>
      </trkpt>
      <trkpt lat="47.97129" lon="5.7311">
        <ele>260.153</ele>
        <time>2019-09-24T13:57:46.001Z</time>
      </trkpt>
      <trkpt lat="47.97008" lon="5.73235">
        <ele>261.607</ele>
        <time>2019-09-24T15:58:16Z</time>
      </trkpt>
      <trkpt lat="47.9686" lon="5.73358">
        <ele>261.888</ele>
        <time>2019-09-24T13:58:46.001Z</time>
      </trkpt>
      <trkpt lat="47.9677" lon="5.73573">
        <ele>262.668</ele>
        <time>2019-09-24T15:59:16Z</time>
      </trkpt>
      <trkpt lat="47.9673" lon="5.73824">
        <ele>262.8</ele>
        <time>2019-09-24T13:59:46.001Z</time>
      </trkpt>
      <trkpt lat="47.96668" lon="5.74065">
        <ele>258.009</ele>
        <time>2019-09-24T16:00:16Z</time>
      </trkpt>
      <trkpt lat="47.96541" lon="5.74212">
        <ele>258.435</ele>
        <time>2019-09-24T14:00:46.001Z</time>
      </trkpt>
      <trkpt lat="47.96413" lon="5.74306">
        <ele>260.412</ele>
        <time>2019-09-24T16:01:16Z</time>
      </trkpt>
      <trkpt lat="47.96301" lon="5.7445">
        <ele>259.309</ele>
        <time>2019-09-24T14:01:46.001Z</time>
      </trkpt>
      <trkpt lat="47.96156" lon="5.74557">
        <ele>257.885</ele>
        <time>2019-09-24T14:02:19.001Z</time>
      </trkpt>
      <trkpt lat="47.96013" lon="5.74637">
        <ele>259.747</ele>
        <time>2019-09-24T14:02:49.001Z</time>
      </trkpt>
      <trkpt lat="47.95962" lon="5.74571">
        <ele>261.325</ele>
        <time>2019-09-24T14:03:19.001Z</time>
      </trkpt>
      <trkpt lat="47.95989" lon="5.7436">
        <ele>261.457</ele>
        <time>2019-09-24T14:03:49.001Z</time>
      </trkpt>
      <trkpt lat="47.95894" lon="5.74281">
        <ele>263.156</ele>
        <time>2019-09-24T14:04:19.001Z</time>
      </trkpt>
      <trkpt lat="47.95826" lon="5.74229">
        <ele>270.512</ele>
        <time>2019-09-24T14:04:49.001Z</time>
      </trkpt>
      <trkpt lat="47.95757" lon="5.74212">
        <ele>277.497</ele>
        <time>2019-09-24T14:05:19.001Z</time>
      </trkpt>
      <trkpt lat="47.95735" lon="5.74126">
        <ele>281.625</ele>
        <time>2019-09-24T14:05:49.001Z</time>
      </trkpt>
      <trkpt lat="47.95731" lon="5.74017">
        <ele>283.1</ele>
        <time>2019-09-24T14:06:19.001Z</time>
      </trkpt>
      <trkpt lat="47.95693" lon="5.73998">
        <ele>279.376</ele>
        <time>2019-09-24T14:17:58.001Z</time>
      </trkpt>
      <trkpt lat="47.95692" lon="5.74003">
        <ele>280.662</ele>
        <time>2019-09-24T14:25:19.001Z</time>
      </trkpt>
    </trkseg>
  </trk>
  <trk>
    <name><![CDATA[Tracé 20190925-095458]]></name>
    <trkseg>
      <trkpt lat="47.95733" lon="5.74034">
        <ele>276.345</ele>
        <time>2019-09-25T09:58:23Z</time>
      </trkpt>
      <trkpt lat="47.95731" lon="5.74187">
        <ele>284.608</ele>
        <time>2019-09-25T09:58:53Z</time>
      </trkpt>
      <trkpt lat="47.95718" lon="5.7439">
        <ele>281.953</ele>
        <time>2019-09-25T09:59:23Z</time>
      </trkpt>
      <trkpt lat="47.9566" lon="5.74535">
        <ele>280.411</ele>
        <time>2019-09-25T09:59:53Z</time>
      </trkpt>
      <trkpt lat="47.95576" lon="5.74537">
        <ele>280.007</ele>
        <time>2019-09-25T10:00:23Z</time>
      </trkpt>
      <trkpt lat="47.9552" lon="5.74538">
        <ele>282.121</ele>
        <time>2019-09-25T10:00:56Z</time>
      </trkpt>
      <trkpt lat="47.95515" lon="5.74707">
        <ele>286.174</ele>
        <time>2019-09-25T10:01:32Z</time>
      </trkpt>
      <trkpt lat="47.95504" lon="5.75043">
        <ele>268.772</ele>
        <time>2019-09-25T10:02:02Z</time>
      </trkpt>
      <trkpt lat="47.95379" lon="5.75234">
        <ele>262.184</ele>
        <time>2019-09-25T10:02:32Z</time>
      </trkpt>
      <trkpt lat="47.95226" lon="5.75223">
        <ele>265.612</ele>
        <time>2019-09-25T10:03:02Z</time>
      </trkpt>
      <trkpt lat="47.95211" lon="5.754">
        <ele>268.811</ele>
        <time>2019-09-25T10:03:32Z</time>
      </trkpt>
      <trkpt lat="47.95093" lon="5.75507">
        <ele>266.395</ele>
        <time>2019-09-25T10:04:02Z</time>
      </trkpt>
      <trkpt lat="47.9496" lon="5.75623">
        <ele>264.837</ele>
        <time>2019-09-25T10:04:32Z</time>
      </trkpt>
      <trkpt lat="47.94787" lon="5.75653">
        <ele>263.313</ele>
        <time>2019-09-25T10:05:02Z</time>
      </trkpt>
      <trkpt lat="47.94629" lon="5.75651">
        <ele>261.369</ele>
        <time>2019-09-25T10:05:32Z</time>
      </trkpt>
      <trkpt lat="47.94472" lon="5.75733">
        <ele>258.098</ele>
        <time>2019-09-25T10:06:02Z</time>
      </trkpt>
      <trkpt lat="47.94345" lon="5.75894">
        <ele>263.002</ele>
        <time>2019-09-25T10:06:32Z</time>
      </trkpt>
      <trkpt lat="47.94233" lon="5.76075">
        <ele>261.699</ele>
        <time>2019-09-25T10:07:02Z</time>
      </trkpt>
      <trkpt lat="47.94088" lon="5.76234">
        <ele>258.98</ele>
        <time>2019-09-25T10:07:35Z</time>
      </trkpt>
      <trkpt lat="47.93943" lon="5.76345">
        <ele>257.348</ele>
        <time>2019-09-25T10:08:05Z</time>
      </trkpt>
      <trkpt lat="47.93812" lon="5.76484">
        <ele>262.617</ele>
        <time>2019-09-25T10:08:35Z</time>
      </trkpt>
      <trkpt lat="47.93675" lon="5.76618">
        <ele>263.346</ele>
        <time>2019-09-25T10:09:05Z</time>
      </trkpt>
      <trkpt lat="47.93537" lon="5.76647">
        <ele>260.872</ele>
        <time>2019-09-25T10:09:35Z</time>
      </trkpt>
      <trkpt lat="47.93421" lon="5.76615">
        <ele>259.256</ele>
        <time>2019-09-25T10:10:05Z</time>
      </trkpt>
      <trkpt lat="47.93329" lon="5.76498">
        <ele>270.699</ele>
        <time>2019-09-25T10:10:35Z</time>
      </trkpt>
      <trkpt lat="47.93241" lon="5.7637">
        <ele>271.189</ele>
        <time>2019-09-25T10:11:05Z</time>
      </trkpt>
      <trkpt lat="47.93147" lon="5.76268">
        <ele>273.038</ele>
        <time>2019-09-25T10:11:35Z</time>
      </trkpt>
      <trkpt lat="47.93038" lon="5.76203">
        <ele>268.052</ele>
        <time>2019-09-25T10:12:05Z</time>
      </trkpt>
      <trkpt lat="47.9293" lon="5.76163">
        <ele>270.769</ele>
        <time>2019-09-25T10:12:35Z</time>
      </trkpt>
      <trkpt lat="47.92819" lon="5.76129">
        <ele>268.613</ele>
        <time>2019-09-25T10:13:05Z</time>
      </trkpt>
      <trkpt lat="47.92708" lon="5.76093">
        <ele>270.4</ele>
        <time>2019-09-25T10:13:38Z</time>
      </trkpt>
      <trkpt lat="47.92637" lon="5.76068">
        <ele>269.842</ele>
        <time>2019-09-25T10:20:38Z</time>
      </trkpt>
      <trkpt lat="47.9256" lon="5.76049">
        <ele>269.704</ele>
        <time>2019-09-25T10:21:11Z</time>
      </trkpt>
      <trkpt lat="47.92462" lon="5.76013">
        <ele>272.377</ele>
        <time>2019-09-25T10:21:41Z</time>
      </trkpt>
      <trkpt lat="47.92365" lon="5.75947">
        <ele>274.119</ele>
        <time>2019-09-25T10:22:11Z</time>
      </trkpt>
      <trkpt lat="47.92288" lon="5.75861">
        <ele>281.906</ele>
        <time>2019-09-25T10:22:41Z</time>
      </trkpt>
      <trkpt lat="47.92212" lon="5.75752">
        <ele>298.611</ele>
        <time>2019-09-25T10:23:11Z</time>
      </trkpt>
      <trkpt lat="47.92132" lon="5.75623">
        <ele>303.807</ele>
        <time>2019-09-25T10:23:41Z</time>
      </trkpt>
      <trkpt lat="47.92088" lon="5.75502">
        <ele>293.696</ele>
        <time>2019-09-25T10:24:11Z</time>
      </trkpt>
      <trkpt lat="47.92071" lon="5.75384">
        <ele>287.525</ele>
        <time>2019-09-25T10:24:41Z</time>
      </trkpt>
      <trkpt lat="47.92034" lon="5.75272">
        <ele>286.18</ele>
        <time>2019-09-25T10:25:11Z</time>
      </trkpt>
      <trkpt lat="47.91983" lon="5.75177">
        <ele>287.353</ele>
        <time>2019-09-25T10:25:41Z</time>
      </trkpt>
      <trkpt lat="47.91915" lon="5.75094">
        <ele>291.784</ele>
        <time>2019-09-25T10:26:14Z</time>
      </trkpt>
      <trkpt lat="47.91844" lon="5.75044">
        <ele>295.276</ele>
        <time>2019-09-25T10:26:44Z</time>
      </trkpt>
      <trkpt lat="47.9177" lon="5.75004">
        <ele>296.066</ele>
        <time>2019-09-25T10:27:14Z</time>
      </trkpt>
      <trkpt lat="47.91696" lon="5.74975">
        <ele>300.446</ele>
        <time>2019-09-25T10:27:44Z</time>
      </trkpt>
      <trkpt lat="47.9163" lon="5.74942">
        <ele>304.592</ele>
        <time>2019-09-25T08:28:14.001Z</time>
      </trkpt>
      <trkpt lat="47.91566" lon="5.74909">
        <ele>310.344</ele>
        <time>2019-09-25T08:28:44.001Z</time>
      </trkpt>
      <trkpt lat="47.91497" lon="5.74876">
        <ele>311.975</ele>
        <time>2019-09-25T08:29:14.001Z</time>
      </trkpt>
      <trkpt lat="47.91425" lon="5.74838">
        <ele>309.358</ele>
        <time>2019-09-25T08:29:44.001Z</time>
      </trkpt>
      <trkpt lat="47.91364" lon="5.74889">
        <ele>310.415</ele>
        <time>2019-09-25T08:30:14.001Z</time>
      </trkpt>
      <trkpt lat="47.91284" lon="5.74971">
        <ele>312.873</ele>
        <time>2019-09-25T08:30:44.001Z</time>
      </trkpt>
      <trkpt lat="47.9121" lon="5.74978">
        <ele>314.588</ele>
        <time>2019-09-25T08:31:14.001Z</time>
      </trkpt>
      <trkpt lat="47.91144" lon="5.74984">
        <ele>316.267</ele>
        <time>2019-09-25T08:31:44.001Z</time>
      </trkpt>
      <trkpt lat="47.90976" lon="5.7505">
        <ele>311.612</ele>
        <time>2019-09-25T08:32:17.001Z</time>
      </trkpt>
      <trkpt lat="47.9078" lon="5.75246">
        <ele>302.586</ele>
        <time>2019-09-25T08:32:47.001Z</time>
      </trkpt>
      <trkpt lat="47.90675" lon="5.75533">
        <ele>298.516</ele>
        <time>2019-09-25T08:33:17.001Z</time>
      </trkpt>
      <trkpt lat="47.90551" lon="5.75868">
        <ele>293.16</ele>
        <time>2019-09-25T08:33:47.001Z</time>
      </trkpt>
      <trkpt lat="47.90483" lon="5.76199">
        <ele>281.937</ele>
        <time>2019-09-25T08:34:17.001Z</time>
      </trkpt>
      <trkpt lat="47.90535" lon="5.76499">
        <ele>280.988</ele>
        <time>2019-09-25T08:34:47.001Z</time>
      </trkpt>
      <trkpt lat="47.90462" lon="5.76713">
        <ele>282.365</ele>
        <time>2019-09-25T08:35:17.001Z</time>
      </trkpt>
      <trkpt lat="47.90344" lon="5.76908">
        <ele>278.267</ele>
        <time>2019-09-25T08:35:47.001Z</time>
      </trkpt>
      <trkpt lat="47.90212" lon="5.77129">
        <ele>273.623</ele>
        <time>2019-09-25T08:36:17.001Z</time>
      </trkpt>
      <trkpt lat="47.90059" lon="5.77263">
        <ele>274.512</ele>
        <time>2019-09-25T08:36:47.001Z</time>
      </trkpt>
      <trkpt lat="47.89887" lon="5.7737">
        <ele>275.42</ele>
        <time>2019-09-25T08:37:17.001Z</time>
      </trkpt>
      <trkpt lat="47.8972" lon="5.77479">
        <ele>276.913</ele>
        <time>2019-09-25T08:37:47.001Z</time>
      </trkpt>
      <trkpt lat="47.89559" lon="5.77685">
        <ele>275.148</ele>
        <time>2019-09-25T08:38:20.001Z</time>
      </trkpt>
      <trkpt lat="47.89417" lon="5.7781">
        <ele>270.325</ele>
        <time>2019-09-25T08:38:50.001Z</time>
      </trkpt>
      <trkpt lat="47.8928" lon="5.77929">
        <ele>268.634</ele>
        <time>2019-09-25T08:39:20.001Z</time>
      </trkpt>
      <trkpt lat="47.89109" lon="5.78037">
        <ele>262.018</ele>
        <time>2019-09-25T08:39:50.001Z</time>
      </trkpt>
      <trkpt lat="47.88947" lon="5.78129">
        <ele>265.061</ele>
        <time>2019-09-25T08:40:20.001Z</time>
      </trkpt>
      <trkpt lat="47.88782" lon="5.78223">
        <ele>259.571</ele>
        <time>2019-09-25T08:40:50.001Z</time>
      </trkpt>
      <trkpt lat="47.88606" lon="5.78234">
        <ele>257.776</ele>
        <time>2019-09-25T08:41:20.001Z</time>
      </trkpt>
      <trkpt lat="47.88436" lon="5.78275">
        <ele>254.342</ele>
        <time>2019-09-25T08:41:50.001Z</time>
      </trkpt>
      <trkpt lat="47.88233" lon="5.78333">
        <ele>255.136</ele>
        <time>2019-09-25T08:42:20.001Z</time>
      </trkpt>
      <trkpt lat="47.88124" lon="5.78454">
        <ele>253.339</ele>
        <time>2019-09-25T08:42:50.001Z</time>
      </trkpt>
      <trkpt lat="47.88049" lon="5.78543">
        <ele>252.791</ele>
        <time>2019-09-25T08:43:20.001Z</time>
      </trkpt>
      <trkpt lat="47.87975" lon="5.78656">
        <ele>251.261</ele>
        <time>2019-09-25T08:43:50.001Z</time>
      </trkpt>
      <trkpt lat="47.8791" lon="5.78761">
        <ele>249.835</ele>
        <time>2019-09-25T08:44:23.001Z</time>
      </trkpt>
      <trkpt lat="47.87859" lon="5.78831">
        <ele>259.414</ele>
        <time>2019-09-25T08:44:53.001Z</time>
      </trkpt>
      <trkpt lat="47.87771" lon="5.78966">
        <ele>262.637</ele>
        <time>2019-09-25T08:45:23.001Z</time>
      </trkpt>
      <trkpt lat="47.87646" lon="5.79062">
        <ele>257.136</ele>
        <time>2019-09-25T08:45:53.001Z</time>
      </trkpt>
      <trkpt lat="47.87509" lon="5.79245">
        <ele>253.787</ele>
        <time>2019-09-25T08:46:23.001Z</time>
      </trkpt>
      <trkpt lat="47.87378" lon="5.79429">
        <ele>253.164</ele>
        <time>2019-09-25T08:46:53.001Z</time>
      </trkpt>
      <trkpt lat="47.87178" lon="5.79587">
        <ele>242.361</ele>
        <time>2019-09-25T08:47:23.001Z</time>
      </trkpt>
      <trkpt lat="47.87089" lon="5.79837">
        <ele>240.097</ele>
        <time>2019-09-25T08:47:53.001Z</time>
      </trkpt>
      <trkpt lat="47.87064" lon="5.80086">
        <ele>235.401</ele>
        <time>2019-09-25T08:48:23.001Z</time>
      </trkpt>
      <trkpt lat="47.8697" lon="5.80292">
        <ele>232.351</ele>
        <time>2019-09-25T08:48:53.001Z</time>
      </trkpt>
      <trkpt lat="47.8687" lon="5.805">
        <ele>239.057</ele>
        <time>2019-09-25T08:49:23.001Z</time>
      </trkpt>
      <trkpt lat="47.86708" lon="5.80562">
        <ele>234.311</ele>
        <time>2019-09-25T08:49:53.001Z</time>
      </trkpt>
      <trkpt lat="47.86569" lon="5.80728">
        <ele>238.041</ele>
        <time>2019-09-25T08:50:26.001Z</time>
      </trkpt>
      <trkpt lat="47.86462" lon="5.809">
        <ele>243.078</ele>
        <time>2019-09-25T08:50:56.001Z</time>
      </trkpt>
      <trkpt lat="47.86347" lon="5.81073">
        <ele>240.845</ele>
        <time>2019-09-25T08:51:26.001Z</time>
      </trkpt>
      <trkpt lat="47.86284" lon="5.8128">
        <ele>232.246</ele>
        <time>2019-09-25T08:51:56.001Z</time>
      </trkpt>
      <trkpt lat="47.8622" lon="5.81509">
        <ele>230.519</ele>
        <time>2019-09-25T08:52:26.001Z</time>
      </trkpt>
      <trkpt lat="47.86085" lon="5.81584">
        <ele>229.095</ele>
        <time>2019-09-25T08:52:56.001Z</time>
      </trkpt>
      <trkpt lat="47.85949" lon="5.81565">
        <ele>229.162</ele>
        <time>2019-09-25T08:53:26.001Z</time>
      </trkpt>
      <trkpt lat="47.8581" lon="5.81535">
        <ele>231.112</ele>
        <time>2019-09-25T08:53:56.001Z</time>
      </trkpt>
      <trkpt lat="47.85746" lon="5.81625">
        <ele>234.5</ele>
        <time>2019-09-25T08:54:26.001Z</time>
      </trkpt>
      <trkpt lat="47.8578" lon="5.81862">
        <ele>234.89</ele>
        <time>2019-09-25T08:54:56.001Z</time>
      </trkpt>
      <trkpt lat="47.85818" lon="5.82139">
        <ele>232.153</ele>
        <time>2019-09-25T08:55:26.001Z</time>
      </trkpt>
      <trkpt lat="47.85846" lon="5.82389">
        <ele>233.535</ele>
        <time>2019-09-25T08:55:56.001Z</time>
      </trkpt>
      <trkpt lat="47.85886" lon="5.82656">
        <ele>231.148</ele>
        <time>2019-09-25T08:56:29.001Z</time>
      </trkpt>
      <trkpt lat="47.8592" lon="5.82884">
        <ele>226.139</ele>
        <time>2019-09-25T08:56:59.001Z</time>
      </trkpt>
      <trkpt lat="47.85944" lon="5.83058">
        <ele>231.976</ele>
        <time>2019-09-25T08:57:29.001Z</time>
      </trkpt>
      <trkpt lat="47.85963" lon="5.83203">
        <ele>235.501</ele>
        <time>2019-09-25T08:57:59.001Z</time>
      </trkpt>
      <trkpt lat="47.85982" lon="5.83332">
        <ele>235.841</ele>
        <time>2019-09-25T08:58:29.001Z</time>
      </trkpt>
      <trkpt lat="47.86001" lon="5.83465">
        <ele>240.297</ele>
        <time>2019-09-25T08:58:59.001Z</time>
      </trkpt>
      <trkpt lat="47.86064" lon="5.83667">
        <ele>238.12</ele>
        <time>2019-09-25T08:59:29.001Z</time>
      </trkpt>
      <trkpt lat="47.86147" lon="5.8392">
        <ele>233.236</ele>
        <time>2019-09-25T08:59:59.001Z</time>
      </trkpt>
      <trkpt lat="47.86205" lon="5.842">
        <ele>229.494</ele>
        <time>2019-09-25T09:00:29.001Z</time>
      </trkpt>
      <trkpt lat="47.86259" lon="5.84494">
        <ele>226.614</ele>
        <time>2019-09-25T09:00:59.001Z</time>
      </trkpt>
      <trkpt lat="47.86302" lon="5.84705">
        <ele>226.774</ele>
        <time>2019-09-25T09:01:29.001Z</time>
      </trkpt>
      <trkpt lat="47.86405" lon="5.84697">
        <ele>229.938</ele>
        <time>2019-09-25T09:01:59.001Z</time>
      </trkpt>
      <trkpt lat="47.86495" lon="5.84706">
        <ele>240.324</ele>
        <time>2019-09-25T09:02:32.001Z</time>
      </trkpt>
      <trkpt lat="47.8654" lon="5.84835">
        <ele>237.219</ele>
        <time>2019-09-25T11:03:02Z</time>
      </trkpt>
      <trkpt lat="47.86656" lon="5.84975">
        <ele>232.914</ele>
        <time>2019-09-25T09:03:32.001Z</time>
      </trkpt>
      <trkpt lat="47.86788" lon="5.85213">
        <ele>227.089</ele>
        <time>2019-09-25T11:04:02Z</time>
      </trkpt>
      <trkpt lat="47.8685" lon="5.85323">
        <ele>233.72</ele>
        <time>2019-09-25T09:04:32.001Z</time>
      </trkpt>
      <trkpt lat="47.86916" lon="5.85443">
        <ele>236.472</ele>
        <time>2019-09-25T11:05:02Z</time>
      </trkpt>
      <trkpt lat="47.86992" lon="5.85572">
        <ele>236.816</ele>
        <time>2019-09-25T09:05:32.001Z</time>
      </trkpt>
      <trkpt lat="47.87074" lon="5.85761">
        <ele>236.785</ele>
        <time>2019-09-25T11:06:02Z</time>
      </trkpt>
      <trkpt lat="47.87188" lon="5.85933">
        <ele>235.494</ele>
        <time>2019-09-25T09:06:32.001Z</time>
      </trkpt>
      <trkpt lat="47.87289" lon="5.86074">
        <ele>237.994</ele>
        <time>2019-09-25T11:07:02Z</time>
      </trkpt>
      <trkpt lat="47.87398" lon="5.86167">
        <ele>239.117</ele>
        <time>2019-09-25T09:07:32.001Z</time>
      </trkpt>
      <trkpt lat="47.87523" lon="5.86315">
        <ele>237.828</ele>
        <time>2019-09-25T11:08:02Z</time>
      </trkpt>
      <trkpt lat="47.87675" lon="5.86472">
        <ele>234.263</ele>
        <time>2019-09-25T09:08:35.001Z</time>
      </trkpt>
      <trkpt lat="47.87823" lon="5.86634">
        <ele>232.251</ele>
        <time>2019-09-25T09:09:05.001Z</time>
      </trkpt>
      <trkpt lat="47.87726" lon="5.86843">
        <ele>234.606</ele>
        <time>2019-09-25T09:09:35.001Z</time>
      </trkpt>
      <trkpt lat="47.87645" lon="5.86988">
        <ele>233.955</ele>
        <time>2019-09-25T09:10:05.001Z</time>
      </trkpt>
      <trkpt lat="47.87513" lon="5.86948">
        <ele>234.666</ele>
        <time>2019-09-25T09:10:35.001Z</time>
      </trkpt>
      <trkpt lat="47.8743" lon="5.86967">
        <ele>242.553</ele>
        <time>2019-09-25T09:11:08.001Z</time>
      </trkpt>
      <trkpt lat="47.87362" lon="5.86985">
        <ele>244.553</ele>
        <time>2019-09-25T09:11:38.001Z</time>
      </trkpt>
      <trkpt lat="47.87295" lon="5.87005">
        <ele>246.556</ele>
        <time>2019-09-25T09:12:08.001Z</time>
      </trkpt>
      <trkpt lat="47.8722" lon="5.87023">
        <ele>249.421</ele>
        <time>2019-09-25T09:12:38.001Z</time>
      </trkpt>
      <trkpt lat="47.87149" lon="5.87046">
        <ele>251.676</ele>
        <time>2019-09-25T09:13:08.001Z</time>
      </trkpt>
      <trkpt lat="47.87082" lon="5.87082">
        <ele>253.018</ele>
        <time>2019-09-25T09:13:38.001Z</time>
      </trkpt>
      <trkpt lat="47.87046" lon="5.87177">
        <ele>256.979</ele>
        <time>2019-09-25T09:14:08.001Z</time>
      </trkpt>
      <trkpt lat="47.87057" lon="5.87308">
        <ele>259.187</ele>
        <time>2019-09-25T09:14:41.001Z</time>
      </trkpt>
      <trkpt lat="47.87067" lon="5.87426">
        <ele>261.658</ele>
        <time>2019-09-25T09:15:11.001Z</time>
      </trkpt>
      <trkpt lat="47.87075" lon="5.87543">
        <ele>265.33</ele>
        <time>2019-09-25T09:15:41.001Z</time>
      </trkpt>
      <trkpt lat="47.87103" lon="5.87659">
        <ele>266.92</ele>
        <time>2019-09-25T09:16:11.001Z</time>
      </trkpt>
      <trkpt lat="47.87129" lon="5.87765">
        <ele>270.552</ele>
        <time>2019-09-25T09:16:41.001Z</time>
      </trkpt>
      <trkpt lat="47.87088" lon="5.87864">
        <ele>277.921</ele>
        <time>2019-09-25T09:17:11.001Z</time>
      </trkpt>
      <trkpt lat="47.87051" lon="5.87968">
        <ele>277.839</ele>
        <time>2019-09-25T09:17:41.001Z</time>
      </trkpt>
      <trkpt lat="47.8701" lon="5.8807">
        <ele>278.933</ele>
        <time>2019-09-25T09:18:11.001Z</time>
      </trkpt>
      <trkpt lat="47.86942" lon="5.88135">
        <ele>283.927</ele>
        <time>2019-09-25T09:18:41.001Z</time>
      </trkpt>
      <trkpt lat="47.86828" lon="5.88212">
        <ele>281.353</ele>
        <time>2019-09-25T09:19:11.001Z</time>
      </trkpt>
      <trkpt lat="47.86632" lon="5.88341">
        <ele>270.141</ele>
        <time>2019-09-25T09:19:41.001Z</time>
      </trkpt>
      <trkpt lat="47.86384" lon="5.8851">
        <ele>255.866</ele>
        <time>2019-09-25T09:20:11.001Z</time>
      </trkpt>
      <trkpt lat="47.862" lon="5.88637">
        <ele>251.482</ele>
        <time>2019-09-25T09:20:41.001Z</time>
      </trkpt>
      <trkpt lat="47.85975" lon="5.88591">
        <ele>240.746</ele>
        <time>2019-09-25T09:21:14.001Z</time>
      </trkpt>
      <trkpt lat="47.85758" lon="5.88696">
        <ele>225.417</ele>
        <time>2019-09-25T09:21:44.001Z</time>
      </trkpt>
      <trkpt lat="47.85614" lon="5.88786">
        <ele>221.713</ele>
        <time>2019-09-25T09:22:14.001Z</time>
      </trkpt>
      <trkpt lat="47.85489" lon="5.88861">
        <ele>224.241</ele>
        <time>2019-09-25T09:22:44.001Z</time>
      </trkpt>
      <trkpt lat="47.85414" lon="5.88904">
        <ele>228.075</ele>
        <time>2019-09-25T09:23:14.001Z</time>
      </trkpt>
      <trkpt lat="47.85347" lon="5.88945">
        <ele>232.24</ele>
        <time>2019-09-25T09:23:44.001Z</time>
      </trkpt>
      <trkpt lat="47.85268" lon="5.8899">
        <ele>235.309</ele>
        <time>2019-09-25T09:24:14.001Z</time>
      </trkpt>
      <trkpt lat="47.8512" lon="5.89074">
        <ele>230.856</ele>
        <time>2019-09-25T09:24:44.001Z</time>
      </trkpt>
      <trkpt lat="47.84964" lon="5.89164">
        <ele>226.207</ele>
        <time>2019-09-25T09:25:14.001Z</time>
      </trkpt>
      <trkpt lat="47.84865" lon="5.89222">
        <ele>231.56</ele>
        <time>2019-09-25T09:25:44.001Z</time>
      </trkpt>
      <trkpt lat="47.84792" lon="5.8927">
        <ele>246.39</ele>
        <time>2019-09-25T09:26:14.001Z</time>
      </trkpt>
      <trkpt lat="47.84716" lon="5.89304">
        <ele>252.042</ele>
        <time>2019-09-25T09:26:44.001Z</time>
      </trkpt>
      <trkpt lat="47.84621" lon="5.89361">
        <ele>241.188</ele>
        <time>2019-09-25T09:27:17.001Z</time>
      </trkpt>
      <trkpt lat="47.84523" lon="5.89417">
        <ele>238.507</ele>
        <time>2019-09-25T09:27:47.001Z</time>
      </trkpt>
      <trkpt lat="47.84393" lon="5.89495">
        <ele>238.698</ele>
        <time>2019-09-25T09:28:17.001Z</time>
      </trkpt>
      <trkpt lat="47.84199" lon="5.89631">
        <ele>231.317</ele>
        <time>2019-09-25T09:28:47.001Z</time>
      </trkpt>
      <trkpt lat="47.84097" lon="5.89732">
        <ele>232.535</ele>
        <time>2019-09-25T09:29:17.001Z</time>
      </trkpt>
      <trkpt lat="47.84034" lon="5.8979">
        <ele>238.291</ele>
        <time>2019-09-25T09:29:47.001Z</time>
      </trkpt>
      <trkpt lat="47.83926" lon="5.89877">
        <ele>237.597</ele>
        <time>2019-09-25T09:30:17.001Z</time>
      </trkpt>
      <trkpt lat="47.83749" lon="5.9012">
        <ele>227.059</ele>
        <time>2019-09-25T09:30:47.001Z</time>
      </trkpt>
      <trkpt lat="47.83743" lon="5.90398">
        <ele>226.651</ele>
        <time>2019-09-25T09:31:17.001Z</time>
      </trkpt>
      <trkpt lat="47.83729" lon="5.90643">
        <ele>224.444</ele>
        <time>2019-09-25T09:31:47.001Z</time>
      </trkpt>
      <trkpt lat="47.83712" lon="5.90872">
        <ele>226.799</ele>
        <time>2019-09-25T09:32:17.001Z</time>
      </trkpt>
      <trkpt lat="47.83768" lon="5.91039">
        <ele>228.2</ele>
        <time>2019-09-25T09:32:47.001Z</time>
      </trkpt>
      <trkpt lat="47.83816" lon="5.91198">
        <ele>233.418</ele>
        <time>2019-09-25T09:33:20.001Z</time>
      </trkpt>
      <trkpt lat="47.83866" lon="5.91351">
        <ele>232.582</ele>
        <time>2019-09-25T09:33:50.001Z</time>
      </trkpt>
      <trkpt lat="47.83947" lon="5.91533">
        <ele>229.948</ele>
        <time>2019-09-25T09:34:20.001Z</time>
      </trkpt>
      <trkpt lat="47.84057" lon="5.91782">
        <ele>224.357</ele>
        <time>2019-09-25T09:34:50.001Z</time>
      </trkpt>
      <trkpt lat="47.8412" lon="5.92063">
        <ele>221.541</ele>
        <time>2019-09-25T09:35:20.001Z</time>
      </trkpt>
      <trkpt lat="47.84183" lon="5.92295">
        <ele>222.721</ele>
        <time>2019-09-25T09:35:50.001Z</time>
      </trkpt>
      <trkpt lat="47.84241" lon="5.92456">
        <ele>225.744</ele>
        <time>2019-09-25T09:36:20.001Z</time>
      </trkpt>
      <trkpt lat="47.84271" lon="5.92569">
        <ele>233.988</ele>
        <time>2019-09-25T09:36:50.001Z</time>
      </trkpt>
      <trkpt lat="47.84274" lon="5.92608">
        <ele>232.881</ele>
        <time>2019-09-25T09:39:17.001Z</time>
      </trkpt>
      <trkpt lat="47.8425" lon="5.92765">
        <ele>232.941</ele>
        <time>2019-09-25T09:39:47.001Z</time>
      </trkpt>
      <trkpt lat="47.84234" lon="5.92949">
        <ele>228.185</ele>
        <time>2019-09-25T09:40:17.001Z</time>
      </trkpt>
      <trkpt lat="47.84151" lon="5.93051">
        <ele>234.297</ele>
        <time>2019-09-25T09:40:47.001Z</time>
      </trkpt>
      <trkpt lat="47.84099" lon="5.932">
        <ele>235.923</ele>
        <time>2019-09-25T09:41:20.001Z</time>
      </trkpt>
      <trkpt lat="47.84027" lon="5.93321">
        <ele>237.649</ele>
        <time>2019-09-25T09:41:50.001Z</time>
      </trkpt>
      <trkpt lat="47.83952" lon="5.93443">
        <ele>238.557</ele>
        <time>2019-09-25T09:42:20.001Z</time>
      </trkpt>
      <trkpt lat="47.83922" lon="5.93531">
        <ele>239.673</ele>
        <time>2019-09-25T09:42:50.001Z</time>
      </trkpt>
      <trkpt lat="47.83933" lon="5.93613">
        <ele>245.625</ele>
        <time>2019-09-25T09:43:20.001Z</time>
      </trkpt>
      <trkpt lat="47.83937" lon="5.93699">
        <ele>248.63</ele>
        <time>2019-09-25T09:43:50.001Z</time>
      </trkpt>
      <trkpt lat="47.83872" lon="5.93877">
        <ele>252.125</ele>
        <time>2019-09-25T09:44:20.001Z</time>
      </trkpt>
      <trkpt lat="47.83709" lon="5.94015">
        <ele>236.001</ele>
        <time>2019-09-25T09:44:50.001Z</time>
      </trkpt>
      <trkpt lat="47.83588" lon="5.94187">
        <ele>233.045</ele>
        <time>2019-09-25T09:45:20.001Z</time>
      </trkpt>
      <trkpt lat="47.83476" lon="5.9443">
        <ele>226.522</ele>
        <time>2019-09-25T09:45:50.001Z</time>
      </trkpt>
      <trkpt lat="47.83401" lon="5.9465">
        <ele>226.656</ele>
        <time>2019-09-25T09:46:20.001Z</time>
      </trkpt>
      <trkpt lat="47.83391" lon="5.94844">
        <ele>230.398</ele>
        <time>2019-09-25T09:46:50.001Z</time>
      </trkpt>
      <trkpt lat="47.83399" lon="5.94973">
        <ele>231.582</ele>
        <time>2019-09-25T09:47:23.001Z</time>
      </trkpt>
      <trkpt lat="47.83401" lon="5.95082">
        <ele>237.404</ele>
        <time>2019-09-25T09:47:53.001Z</time>
      </trkpt>
      <trkpt lat="47.83405" lon="5.95184">
        <ele>241.985</ele>
        <time>2019-09-25T09:48:23.001Z</time>
      </trkpt>
      <trkpt lat="47.83405" lon="5.95265">
        <ele>244.343</ele>
        <time>2019-09-25T09:48:53.001Z</time>
      </trkpt>
      <trkpt lat="47.83406" lon="5.95343">
        <ele>250.779</ele>
        <time>2019-09-25T09:49:23.001Z</time>
      </trkpt>
      <trkpt lat="47.83423" lon="5.95429">
        <ele>253.342</ele>
        <time>2019-09-25T09:49:53.001Z</time>
      </trkpt>
      <trkpt lat="47.8351" lon="5.9568">
        <ele>246.6</ele>
        <time>2019-09-25T09:50:23.001Z</time>
      </trkpt>
      <trkpt lat="47.83508" lon="5.9583">
        <ele>248.759</ele>
        <time>2019-09-25T09:50:53.001Z</time>
      </trkpt>
      <trkpt lat="47.83494" lon="5.95938">
        <ele>256.048</ele>
        <time>2019-09-25T09:51:23.001Z</time>
      </trkpt>
      <trkpt lat="47.8346" lon="5.96022">
        <ele>265.128</ele>
        <time>2019-09-25T09:51:53.001Z</time>
      </trkpt>
      <trkpt lat="47.83363" lon="5.96116">
        <ele>263.785</ele>
        <time>2019-09-25T09:52:23.001Z</time>
      </trkpt>
      <trkpt lat="47.83301" lon="5.9631">
        <ele>254.007</ele>
        <time>2019-09-25T09:52:53.001Z</time>
      </trkpt>
      <trkpt lat="47.83209" lon="5.9653">
        <ele>251.44</ele>
        <time>2019-09-25T09:53:26.001Z</time>
      </trkpt>
      <trkpt lat="47.82977" lon="5.96681">
        <ele>247.46</ele>
        <time>2019-09-25T09:53:56.001Z</time>
      </trkpt>
      <trkpt lat="47.8286" lon="5.96971">
        <ele>239.786</ele>
        <time>2019-09-25T09:54:26.001Z</time>
      </trkpt>
      <trkpt lat="47.82764" lon="5.97358">
        <ele>224.555</ele>
        <time>2019-09-25T09:54:56.001Z</time>
      </trkpt>
      <trkpt lat="47.82727" lon="5.97611">
        <ele>221.419</ele>
        <time>2019-09-25T09:55:26.001Z</time>
      </trkpt>
      <trkpt lat="47.82702" lon="5.97753">
        <ele>229.368</ele>
        <time>2019-09-25T09:55:56.001Z</time>
      </trkpt>
      <trkpt lat="47.82588" lon="5.97778">
        <ele>232.016</ele>
        <time>2019-09-25T09:56:26.001Z</time>
      </trkpt>
      <trkpt lat="47.82444" lon="5.97772">
        <ele>229.694</ele>
        <time>2019-09-25T09:56:56.001Z</time>
      </trkpt>
      <trkpt lat="47.82308" lon="5.97798">
        <ele>228.214</ele>
        <time>2019-09-25T09:57:26.001Z</time>
      </trkpt>
      <trkpt lat="47.82162" lon="5.97773">
        <ele>224.501</ele>
        <time>2019-09-25T09:57:56.001Z</time>
      </trkpt>
      <trkpt lat="47.82005" lon="5.97833">
        <ele>217.669</ele>
        <time>2019-09-25T09:58:26.001Z</time>
      </trkpt>
      <trkpt lat="47.81889" lon="5.97964">
        <ele>217.515</ele>
        <time>2019-09-25T09:58:56.001Z</time>
      </trkpt>
      <trkpt lat="47.81789" lon="5.9812">
        <ele>219.669</ele>
        <time>2019-09-25T09:59:29.001Z</time>
      </trkpt>
      <trkpt lat="47.81658" lon="5.98223">
        <ele>218.199</ele>
        <time>2019-09-25T09:59:59.001Z</time>
      </trkpt>
      <trkpt lat="47.81519" lon="5.98303">
        <ele>221.156</ele>
        <time>2019-09-25T10:00:29.001Z</time>
      </trkpt>
      <trkpt lat="47.81483" lon="5.98358">
        <ele>217.878</ele>
        <time>2019-09-25T10:06:29.001Z</time>
      </trkpt>
      <trkpt lat="47.81482" lon="5.98354">
        <ele>216.467</ele>
        <time>2019-09-25T10:24:44.001Z</time>
      </trkpt>
      <trkpt lat="47.81466" lon="5.98387">
        <ele>214.29</ele>
        <time>2019-09-25T10:31:20.001Z</time>
      </trkpt>
      <trkpt lat="47.81446" lon="5.98476">
        <ele>213.414</ele>
        <time>2019-09-25T10:33:59.001Z</time>
      </trkpt>
      <trkpt lat="47.8135" lon="5.98567">
        <ele>208.773</ele>
        <time>2019-09-25T10:34:29.001Z</time>
      </trkpt>
      <trkpt lat="47.81255" lon="5.98621">
        <ele>206.605</ele>
        <time>2019-09-25T10:34:59.001Z</time>
      </trkpt>
      <trkpt lat="47.81132" lon="5.98663">
        <ele>207.752</ele>
        <time>2019-09-25T10:35:29.001Z</time>
      </trkpt>
      <trkpt lat="47.81022" lon="5.98705">
        <ele>210.583</ele>
        <time>2019-09-25T10:35:59.001Z</time>
      </trkpt>
      <trkpt lat="47.80929" lon="5.98813">
        <ele>213.14</ele>
        <time>2019-09-25T10:36:29.001Z</time>
      </trkpt>
      <trkpt lat="47.80816" lon="5.98947">
        <ele>208.673</ele>
        <time>2019-09-25T12:37:02Z</time>
      </trkpt>
      <trkpt lat="47.80705" lon="5.99051">
        <ele>209.458</ele>
        <time>2019-09-25T10:37:32.001Z</time>
      </trkpt>
      <trkpt lat="47.80581" lon="5.99122">
        <ele>208.937</ele>
        <time>2019-09-25T12:38:02Z</time>
      </trkpt>
      <trkpt lat="47.80456" lon="5.99192">
        <ele>210.452</ele>
        <time>2019-09-25T10:38:32.001Z</time>
      </trkpt>
      <trkpt lat="47.80326" lon="5.99261">
        <ele>213.37</ele>
        <time>2019-09-25T12:39:02Z</time>
      </trkpt>
      <trkpt lat="47.80197" lon="5.99345">
        <ele>211.702</ele>
        <time>2019-09-25T10:39:32.001Z</time>
      </trkpt>
      <trkpt lat="47.80084" lon="5.99413">
        <ele>208.022</ele>
        <time>2019-09-25T12:40:02Z</time>
      </trkpt>
      <trkpt lat="47.7997" lon="5.99511">
        <ele>207.884</ele>
        <time>2019-09-25T10:40:32.001Z</time>
      </trkpt>
      <trkpt lat="47.7985" lon="5.99613">
        <ele>207.257</ele>
        <time>2019-09-25T12:41:02Z</time>
      </trkpt>
      <trkpt lat="47.79732" lon="5.99696">
        <ele>205.413</ele>
        <time>2019-09-25T10:41:32.001Z</time>
      </trkpt>
      <trkpt lat="47.79616" lon="5.99786">
        <ele>204.936</ele>
        <time>2019-09-25T12:42:02Z</time>
      </trkpt>
      <trkpt lat="47.79509" lon="5.99871">
        <ele>207.331</ele>
        <time>2019-09-25T10:42:32.001Z</time>
      </trkpt>
      <trkpt lat="47.79408" lon="5.99952">
        <ele>209.403</ele>
        <time>2019-09-25T10:43:05.001Z</time>
      </trkpt>
      <trkpt lat="47.79284" lon="6.00045">
        <ele>207.195</ele>
        <time>2019-09-25T10:43:35.001Z</time>
      </trkpt>
      <trkpt lat="47.79165" lon="6.00157">
        <ele>208.043</ele>
        <time>2019-09-25T10:44:05.001Z</time>
      </trkpt>
      <trkpt lat="47.79057" lon="6.00261">
        <ele>211.2</ele>
        <time>2019-09-25T10:44:35.001Z</time>
      </trkpt>
      <trkpt lat="47.78984" lon="6.0038">
        <ele>220.028</ele>
        <time>2019-09-25T10:45:05.001Z</time>
      </trkpt>
      <trkpt lat="47.78944" lon="6.00483">
        <ele>224.794</ele>
        <time>2019-09-25T10:45:35.001Z</time>
      </trkpt>
      <trkpt lat="47.78897" lon="6.00567">
        <ele>229.03</ele>
        <time>2019-09-25T10:46:05.001Z</time>
      </trkpt>
      <trkpt lat="47.78814" lon="6.00712">
        <ele>222.65</ele>
        <time>2019-09-25T10:46:35.001Z</time>
      </trkpt>
      <trkpt lat="47.7876" lon="6.00848">
        <ele>223.39</ele>
        <time>2019-09-25T10:47:05.001Z</time>
      </trkpt>
      <trkpt lat="47.78712" lon="6.00922">
        <ele>226.451</ele>
        <time>2019-09-25T10:47:35.001Z</time>
      </trkpt>
      <trkpt lat="47.78653" lon="6.01001">
        <ele>226.858</ele>
        <time>2019-09-25T10:48:05.001Z</time>
      </trkpt>
      <trkpt lat="47.78632" lon="6.01144">
        <ele>226.127</ele>
        <time>2019-09-25T10:48:35.001Z</time>
      </trkpt>
      <trkpt lat="47.78513" lon="6.01344">
        <ele>220.055</ele>
        <time>2019-09-25T10:49:08.001Z</time>
      </trkpt>
      <trkpt lat="47.78407" lon="6.01523">
        <ele>217.876</ele>
        <time>2019-09-25T10:49:38.001Z</time>
      </trkpt>
      <trkpt lat="47.78231" lon="6.01623">
        <ele>212.972</ele>
        <time>2019-09-25T10:50:08.001Z</time>
      </trkpt>
      <trkpt lat="47.78099" lon="6.01744">
        <ele>212.093</ele>
        <time>2019-09-25T10:50:38.001Z</time>
      </trkpt>
      <trkpt lat="47.77986" lon="6.01869">
        <ele>213.476</ele>
        <time>2019-09-25T10:51:08.001Z</time>
      </trkpt>
      <trkpt lat="47.77869" lon="6.01999">
        <ele>212.066</ele>
        <time>2019-09-25T10:51:38.001Z</time>
      </trkpt>
      <trkpt lat="47.77761" lon="6.02126">
        <ele>214.132</ele>
        <time>2019-09-25T10:52:08.001Z</time>
      </trkpt>
      <trkpt lat="47.77653" lon="6.02247">
        <ele>213.828</ele>
        <time>2019-09-25T10:52:38.001Z</time>
      </trkpt>
      <trkpt lat="47.7755" lon="6.024">
        <ele>217.631</ele>
        <time>2019-09-25T10:53:08.001Z</time>
      </trkpt>
      <trkpt lat="47.77441" lon="6.02555">
        <ele>213.198</ele>
        <time>2019-09-25T10:53:38.001Z</time>
      </trkpt>
      <trkpt lat="47.7734" lon="6.02703">
        <ele>210.637</ele>
        <time>2019-09-25T10:54:08.001Z</time>
      </trkpt>
      <trkpt lat="47.77257" lon="6.02864">
        <ele>209.727</ele>
        <time>2019-09-25T10:54:38.001Z</time>
      </trkpt>
      <trkpt lat="47.77186" lon="6.03024">
        <ele>212.436</ele>
        <time>2019-09-25T10:55:11.001Z</time>
      </trkpt>
      <trkpt lat="47.77129" lon="6.03138">
        <ele>219.002</ele>
        <time>2019-09-25T10:55:41.001Z</time>
      </trkpt>
      <trkpt lat="47.77024" lon="6.03223">
        <ele>219.012</ele>
        <time>2019-09-25T10:56:11.001Z</time>
      </trkpt>
      <trkpt lat="47.769" lon="6.03299">
        <ele>218.266</ele>
        <time>2019-09-25T10:56:41.001Z</time>
      </trkpt>
      <trkpt lat="47.76769" lon="6.03376">
        <ele>217.891</ele>
        <time>2019-09-25T10:57:11.001Z</time>
      </trkpt>
      <trkpt lat="47.76641" lon="6.03447">
        <ele>220.42</ele>
        <time>2019-09-25T10:57:41.001Z</time>
      </trkpt>
      <trkpt lat="47.76557" lon="6.03499">
        <ele>215.133</ele>
        <time>2019-09-25T11:00:53.001Z</time>
      </trkpt>
      <trkpt lat="47.76439" lon="6.03568">
        <ele>212.06</ele>
        <time>2019-09-25T11:01:23.001Z</time>
      </trkpt>
      <trkpt lat="47.7635" lon="6.03656">
        <ele>215.852</ele>
        <time>2019-09-25T11:01:53.001Z</time>
      </trkpt>
      <trkpt lat="47.76411" lon="6.03788">
        <ele>218.27</ele>
        <time>2019-09-25T11:02:23.001Z</time>
      </trkpt>
      <trkpt lat="47.76484" lon="6.03903">
        <ele>216.885</ele>
        <time>2019-09-25T11:02:53.001Z</time>
      </trkpt>
      <trkpt lat="47.76571" lon="6.04043">
        <ele>224.328</ele>
        <time>2019-09-25T11:03:23.001Z</time>
      </trkpt>
      <trkpt lat="47.76615" lon="6.04227">
        <ele>225.026</ele>
        <time>2019-09-25T11:03:56.001Z</time>
      </trkpt>
      <trkpt lat="47.76658" lon="6.04414">
        <ele>221.799</ele>
        <time>2019-09-25T11:04:26.001Z</time>
      </trkpt>
      <trkpt lat="47.76715" lon="6.04576">
        <ele>227.936</ele>
        <time>2019-09-25T11:04:56.001Z</time>
      </trkpt>
      <trkpt lat="47.76757" lon="6.04722">
        <ele>227.245</ele>
        <time>2019-09-25T11:05:26.001Z</time>
      </trkpt>
      <trkpt lat="47.76791" lon="6.04869">
        <ele>223.189</ele>
        <time>2019-09-25T11:05:56.001Z</time>
      </trkpt>
      <trkpt lat="47.76834" lon="6.05034">
        <ele>224.3</ele>
        <time>2019-09-25T11:06:26.001Z</time>
      </trkpt>
      <trkpt lat="47.76905" lon="6.05211">
        <ele>230.385</ele>
        <time>2019-09-25T11:06:56.001Z</time>
      </trkpt>
      <trkpt lat="47.7698" lon="6.0539">
        <ele>233.841</ele>
        <time>2019-09-25T11:07:26.001Z</time>
      </trkpt>
      <trkpt lat="47.77046" lon="6.056">
        <ele>233.862</ele>
        <time>2019-09-25T11:07:56.001Z</time>
      </trkpt>
      <trkpt lat="47.77091" lon="6.05835">
        <ele>222.798</ele>
        <time>2019-09-25T11:08:26.001Z</time>
      </trkpt>
      <trkpt lat="47.77136" lon="6.06036">
        <ele>221.78</ele>
        <time>2019-09-25T11:08:56.001Z</time>
      </trkpt>
      <trkpt lat="47.7719" lon="6.0624">
        <ele>226.537</ele>
        <time>2019-09-25T11:09:26.001Z</time>
      </trkpt>
      <trkpt lat="47.77256" lon="6.06452">
        <ele>231.689</ele>
        <time>2019-09-25T11:09:59.001Z</time>
      </trkpt>
      <trkpt lat="47.77314" lon="6.06651">
        <ele>230.978</ele>
        <time>2019-09-25T11:10:29.001Z</time>
      </trkpt>
      <trkpt lat="47.77358" lon="6.06836">
        <ele>232.019</ele>
        <time>2019-09-25T11:10:59.001Z</time>
      </trkpt>
      <trkpt lat="47.77406" lon="6.07013">
        <ele>236.488</ele>
        <time>2019-09-25T11:11:29.001Z</time>
      </trkpt>
      <trkpt lat="47.77467" lon="6.07172">
        <ele>235.379</ele>
        <time>2019-09-25T11:11:59.001Z</time>
      </trkpt>
      <trkpt lat="47.77536" lon="6.07317">
        <ele>236.114</ele>
        <time>2019-09-25T11:12:29.001Z</time>
      </trkpt>
      <trkpt lat="47.77593" lon="6.07437">
        <ele>239.134</ele>
        <time>2019-09-25T11:12:59.001Z</time>
      </trkpt>
      <trkpt lat="47.77558" lon="6.0755">
        <ele>235.367</ele>
        <time>2019-09-25T11:13:29.001Z</time>
      </trkpt>
      <trkpt lat="47.77391" lon="6.07638">
        <ele>230.457</ele>
        <time>2019-09-25T11:13:59.001Z</time>
      </trkpt>
      <trkpt lat="47.77198" lon="6.07764">
        <ele>226.056</ele>
        <time>2019-09-25T11:14:29.001Z</time>
      </trkpt>
      <trkpt lat="47.77109" lon="6.08032">
        <ele>221.697</ele>
        <time>2019-09-25T11:14:59.001Z</time>
      </trkpt>
      <trkpt lat="47.77071" lon="6.0822">
        <ele>226.548</ele>
        <time>2019-09-25T11:15:29.001Z</time>
      </trkpt>
      <trkpt lat="47.77031" lon="6.08359">
        <ele>230.873</ele>
        <time>2019-09-25T13:16:02Z</time>
      </trkpt>
      <trkpt lat="47.76986" lon="6.0849">
        <ele>234.647</ele>
        <time>2019-09-25T11:16:32.001Z</time>
      </trkpt>
      <trkpt lat="47.76931" lon="6.08615">
        <ele>235.803</ele>
        <time>2019-09-25T13:17:02Z</time>
      </trkpt>
      <trkpt lat="47.76837" lon="6.0879">
        <ele>231.342</ele>
        <time>2019-09-25T11:17:32.001Z</time>
      </trkpt>
      <trkpt lat="47.76725" lon="6.08945">
        <ele>230.341</ele>
        <time>2019-09-25T13:18:02Z</time>
      </trkpt>
      <trkpt lat="47.76631" lon="6.09199">
        <ele>223.693</ele>
        <time>2019-09-25T11:18:32.001Z</time>
      </trkpt>
      <trkpt lat="47.76615" lon="6.09441">
        <ele>224.144</ele>
        <time>2019-09-25T13:19:02Z</time>
      </trkpt>
      <trkpt lat="47.76614" lon="6.09712">
        <ele>221.363</ele>
        <time>2019-09-25T11:19:32.001Z</time>
      </trkpt>
      <trkpt lat="47.7662" lon="6.09981">
        <ele>216.654</ele>
        <time>2019-09-25T13:20:02Z</time>
      </trkpt>
      <trkpt lat="47.76621" lon="6.10221">
        <ele>217.337</ele>
        <time>2019-09-25T11:20:32.001Z</time>
      </trkpt>
      <trkpt lat="47.76484" lon="6.10304">
        <ele>222.788</ele>
        <time>2019-09-25T13:21:02Z</time>
      </trkpt>
      <trkpt lat="47.7633" lon="6.10325">
        <ele>223.802</ele>
        <time>2019-09-25T11:21:32.001Z</time>
      </trkpt>
      <trkpt lat="47.7617" lon="6.10334">
        <ele>224.878</ele>
        <time>2019-09-25T11:22:05.001Z</time>
      </trkpt>
      <trkpt lat="47.76065" lon="6.10392">
        <ele>219.977</ele>
        <time>2019-09-25T11:22:35.001Z</time>
      </trkpt>
      <trkpt lat="47.76064" lon="6.10556">
        <ele>216.917</ele>
        <time>2019-09-25T11:23:05.001Z</time>
      </trkpt>
      <trkpt lat="47.76129" lon="6.10729">
        <ele>219.449</ele>
        <time>2019-09-25T11:23:35.001Z</time>
      </trkpt>
      <trkpt lat="47.76198" lon="6.10881">
        <ele>223.116</ele>
        <time>2019-09-25T11:24:05.001Z</time>
      </trkpt>
      <trkpt lat="47.76242" lon="6.10972">
        <ele>226.277</ele>
        <time>2019-09-25T11:24:35.001Z</time>
      </trkpt>
      <trkpt lat="47.76282" lon="6.11056">
        <ele>231.684</ele>
        <time>2019-09-25T11:25:05.001Z</time>
      </trkpt>
      <trkpt lat="47.76346" lon="6.11202">
        <ele>236.166</ele>
        <time>2019-09-25T11:25:35.001Z</time>
      </trkpt>
      <trkpt lat="47.76395" lon="6.11411">
        <ele>240.368</ele>
        <time>2019-09-25T11:26:05.001Z</time>
      </trkpt>
      <trkpt lat="47.76387" lon="6.11622">
        <ele>237.357</ele>
        <time>2019-09-25T11:26:35.001Z</time>
      </trkpt>
      <trkpt lat="47.76356" lon="6.11796">
        <ele>227.328</ele>
        <time>2019-09-25T11:27:05.001Z</time>
      </trkpt>
      <trkpt lat="47.76297" lon="6.11961">
        <ele>230.113</ele>
        <time>2019-09-25T11:27:35.001Z</time>
      </trkpt>
      <trkpt lat="47.76217" lon="6.12058">
        <ele>229.89</ele>
        <time>2019-09-25T11:28:08.001Z</time>
      </trkpt>
      <trkpt lat="47.76153" lon="6.12137">
        <ele>233.912</ele>
        <time>2019-09-25T11:28:38.001Z</time>
      </trkpt>
      <trkpt lat="47.76027" lon="6.12288">
        <ele>229.578</ele>
        <time>2019-09-25T11:29:08.001Z</time>
      </trkpt>
      <trkpt lat="47.7591" lon="6.12498">
        <ele>226.429</ele>
        <time>2019-09-25T11:29:38.001Z</time>
      </trkpt>
      <trkpt lat="47.75901" lon="6.12749">
        <ele>227.837</ele>
        <time>2019-09-25T11:30:08.001Z</time>
      </trkpt>
      <trkpt lat="47.75782" lon="6.12876">
        <ele>222.429</ele>
        <time>2019-09-25T11:30:38.001Z</time>
      </trkpt>
      <trkpt lat="47.75671" lon="6.12977">
        <ele>227.458</ele>
        <time>2019-09-25T11:31:08.001Z</time>
      </trkpt>
      <trkpt lat="47.75588" lon="6.13088">
        <ele>234.562</ele>
        <time>2019-09-25T11:31:38.001Z</time>
      </trkpt>
      <trkpt lat="47.75494" lon="6.13175">
        <ele>229.697</ele>
        <time>2019-09-25T11:32:08.001Z</time>
      </trkpt>
      <trkpt lat="47.75406" lon="6.13245">
        <ele>232.096</ele>
        <time>2019-09-25T11:32:38.001Z</time>
      </trkpt>
      <trkpt lat="47.75329" lon="6.13315">
        <ele>234.793</ele>
        <time>2019-09-25T11:33:08.001Z</time>
      </trkpt>
      <trkpt lat="47.75268" lon="6.13397">
        <ele>235.738</ele>
        <time>2019-09-25T11:33:38.001Z</time>
      </trkpt>
      <trkpt lat="47.75203" lon="6.13454">
        <ele>240.458</ele>
        <time>2019-09-25T11:34:11.001Z</time>
      </trkpt>
      <trkpt lat="47.75189" lon="6.13478">
        <ele>242.346</ele>
        <time>2019-09-25T11:40:29.001Z</time>
      </trkpt>
      <trkpt lat="47.75319" lon="6.13397">
        <ele>241.323</ele>
        <time>2019-09-25T11:40:59.001Z</time>
      </trkpt>
      <trkpt lat="47.75427" lon="6.13356">
        <ele>243.974</ele>
        <time>2019-09-25T11:41:29.001Z</time>
      </trkpt>
      <trkpt lat="47.75543" lon="6.13318">
        <ele>243.616</ele>
        <time>2019-09-25T11:41:59.001Z</time>
      </trkpt>
      <trkpt lat="47.75641" lon="6.13266">
        <ele>244.53</ele>
        <time>2019-09-25T11:42:29.001Z</time>
      </trkpt>
      <trkpt lat="47.75747" lon="6.13188">
        <ele>248.167</ele>
        <time>2019-09-25T11:42:59.001Z</time>
      </trkpt>
      <trkpt lat="47.75803" lon="6.13285">
        <ele>246.06</ele>
        <time>2019-09-25T11:43:29.001Z</time>
      </trkpt>
      <trkpt lat="47.75845" lon="6.13384">
        <ele>248.794</ele>
        <time>2019-09-25T11:43:59.001Z</time>
      </trkpt>
      <trkpt lat="47.7592" lon="6.13492">
        <ele>247.444</ele>
        <time>2019-09-25T11:44:29.001Z</time>
      </trkpt>
      <trkpt lat="47.76017" lon="6.13599">
        <ele>247.997</ele>
        <time>2019-09-25T11:44:59.001Z</time>
      </trkpt>
      <trkpt lat="47.76097" lon="6.13701">
        <ele>253.637</ele>
        <time>2019-09-25T11:45:29.001Z</time>
      </trkpt>
      <trkpt lat="47.76166" lon="6.13872">
        <ele>252.77</ele>
        <time>2019-09-25T13:46:02Z</time>
      </trkpt>
      <trkpt lat="47.76178" lon="6.14164">
        <ele>246.691</ele>
        <time>2019-09-25T11:46:32.001Z</time>
      </trkpt>
      <trkpt lat="47.76168" lon="6.14376">
        <ele>247.118</ele>
        <time>2019-09-25T13:47:02Z</time>
      </trkpt>
      <trkpt lat="47.76162" lon="6.14519">
        <ele>250.852</ele>
        <time>2019-09-25T11:47:32.001Z</time>
      </trkpt>
      <trkpt lat="47.76155" lon="6.14647">
        <ele>254.77</ele>
        <time>2019-09-25T13:48:02Z</time>
      </trkpt>
      <trkpt lat="47.76131" lon="6.14835">
        <ele>254.135</ele>
        <time>2019-09-25T11:48:32.001Z</time>
      </trkpt>
      <trkpt lat="47.76154" lon="6.15104">
        <ele>249.689</ele>
        <time>2019-09-25T13:49:02Z</time>
      </trkpt>
      <trkpt lat="47.7618" lon="6.15257">
        <ele>253.871</ele>
        <time>2019-09-25T11:49:32.001Z</time>
      </trkpt>
      <trkpt lat="47.76182" lon="6.15404">
        <ele>259.288</ele>
        <time>2019-09-25T13:50:02Z</time>
      </trkpt>
      <trkpt lat="47.76177" lon="6.15595">
        <ele>257.065</ele>
        <time>2019-09-25T11:50:32.001Z</time>
      </trkpt>
      <trkpt lat="47.76195" lon="6.15814">
        <ele>254.665</ele>
        <time>2019-09-25T13:51:02Z</time>
      </trkpt>
      <trkpt lat="47.7622" lon="6.15988">
        <ele>256.635</ele>
        <time>2019-09-25T11:51:32.001Z</time>
      </trkpt>
      <trkpt lat="47.76277" lon="6.16133">
        <ele>261.24</ele>
        <time>2019-09-25T11:52:05.001Z</time>
      </trkpt>
      <trkpt lat="47.76295" lon="6.16368">
        <ele>261.871</ele>
        <time>2019-09-25T11:52:35.001Z</time>
      </trkpt>
      <trkpt lat="47.76329" lon="6.16557">
        <ele>260.136</ele>
        <time>2019-09-25T11:53:05.001Z</time>
      </trkpt>
      <trkpt lat="47.76371" lon="6.16664">
        <ele>262.607</ele>
        <time>2019-09-25T11:53:35.001Z</time>
      </trkpt>
      <trkpt lat="47.76414" lon="6.1677">
        <ele>265.525</ele>
        <time>2019-09-25T11:54:05.001Z</time>
      </trkpt>
      <trkpt lat="47.76479" lon="6.16879">
        <ele>267.599</ele>
        <time>2019-09-25T11:54:35.001Z</time>
      </trkpt>
      <trkpt lat="47.76562" lon="6.17004">
        <ele>271.495</ele>
        <time>2019-09-25T11:55:05.001Z</time>
      </trkpt>
      <trkpt lat="47.76631" lon="6.17096">
        <ele>274.017</ele>
        <time>2019-09-25T11:55:35.001Z</time>
      </trkpt>
      <trkpt lat="47.76703" lon="6.17207">
        <ele>273.924</ele>
        <time>2019-09-25T11:56:05.001Z</time>
      </trkpt>
      <trkpt lat="47.76762" lon="6.1734">
        <ele>272.489</ele>
        <time>2019-09-25T11:56:35.001Z</time>
      </trkpt>
      <trkpt lat="47.76851" lon="6.17553">
        <ele>271.365</ele>
        <time>2019-09-25T11:57:05.001Z</time>
      </trkpt>
      <trkpt lat="47.76933" lon="6.1781">
        <ele>268.508</ele>
        <time>2019-09-25T11:57:35.001Z</time>
      </trkpt>
      <trkpt lat="47.76905" lon="6.18022">
        <ele>270.337</ele>
        <time>2019-09-25T11:58:08.001Z</time>
      </trkpt>
      <trkpt lat="47.76894" lon="6.18186">
        <ele>272.708</ele>
        <time>2019-09-25T11:58:38.001Z</time>
      </trkpt>
      <trkpt lat="47.76886" lon="6.18343">
        <ele>274.999</ele>
        <time>2019-09-25T11:59:08.001Z</time>
      </trkpt>
      <trkpt lat="47.76876" lon="6.18472">
        <ele>277.091</ele>
        <time>2019-09-25T11:59:38.001Z</time>
      </trkpt>
      <trkpt lat="47.76867" lon="6.18611">
        <ele>283.53</ele>
        <time>2019-09-25T12:00:08.001Z</time>
      </trkpt>
      <trkpt lat="47.76876" lon="6.18779">
        <ele>281.511</ele>
        <time>2019-09-25T12:00:38.001Z</time>
      </trkpt>
      <trkpt lat="47.76893" lon="6.18954">
        <ele>280.83</ele>
        <time>2019-09-25T12:01:08.001Z</time>
      </trkpt>
      <trkpt lat="47.77017" lon="6.1918">
        <ele>274.214</ele>
        <time>2019-09-25T12:01:38.001Z</time>
      </trkpt>
      <trkpt lat="47.77097" lon="6.19604">
        <ele>262.534</ele>
        <time>2019-09-25T12:02:08.001Z</time>
      </trkpt>
      <trkpt lat="47.77148" lon="6.19858">
        <ele>261.549</ele>
        <time>2019-09-25T12:02:38.001Z</time>
      </trkpt>
      <trkpt lat="47.7715" lon="6.20083">
        <ele>262.149</ele>
        <time>2019-09-25T12:03:08.001Z</time>
      </trkpt>
      <trkpt lat="47.77136" lon="6.20204">
        <ele>268.229</ele>
        <time>2019-09-25T12:03:38.001Z</time>
      </trkpt>
      <trkpt lat="47.77128" lon="6.20312">
        <ele>270.418</ele>
        <time>2019-09-25T12:04:11.001Z</time>
      </trkpt>
      <trkpt lat="47.77122" lon="6.20403">
        <ele>279.15</ele>
        <time>2019-09-25T12:04:41.001Z</time>
      </trkpt>
      <trkpt lat="47.77103" lon="6.20547">
        <ele>271.525</ele>
        <time>2019-09-25T12:05:11.001Z</time>
      </trkpt>
      <trkpt lat="47.77087" lon="6.20848">
        <ele>263.696</ele>
        <time>2019-09-25T12:05:41.001Z</time>
      </trkpt>
      <trkpt lat="47.77052" lon="6.21093">
        <ele>260.605</ele>
        <time>2019-09-25T12:06:11.001Z</time>
      </trkpt>
      <trkpt lat="47.76995" lon="6.21418">
        <ele>256.495</ele>
        <time>2019-09-25T12:06:41.001Z</time>
      </trkpt>
      <trkpt lat="47.76947" lon="6.21696">
        <ele>253.558</ele>
        <time>2019-09-25T12:07:11.001Z</time>
      </trkpt>
      <trkpt lat="47.76922" lon="6.21845">
        <ele>260.029</ele>
        <time>2019-09-25T12:07:41.001Z</time>
      </trkpt>
      <trkpt lat="47.76903" lon="6.21953">
        <ele>261.987</ele>
        <time>2019-09-25T12:08:11.001Z</time>
      </trkpt>
      <trkpt lat="47.76825" lon="6.22209">
        <ele>253.867</ele>
        <time>2019-09-25T12:08:41.001Z</time>
      </trkpt>
      <trkpt lat="47.76832" lon="6.22539">
        <ele>247.947</ele>
        <time>2019-09-25T12:09:11.001Z</time>
      </trkpt>
      <trkpt lat="47.76894" lon="6.22727">
        <ele>250.022</ele>
        <time>2019-09-25T12:09:41.001Z</time>
      </trkpt>
      <trkpt lat="47.76954" lon="6.22916">
        <ele>254.762</ele>
        <time>2019-09-25T12:10:14.001Z</time>
      </trkpt>
      <trkpt lat="47.76991" lon="6.23035">
        <ele>259.696</ele>
        <time>2019-09-25T12:10:44.001Z</time>
      </trkpt>
      <trkpt lat="47.77042" lon="6.23152">
        <ele>261.483</ele>
        <time>2019-09-25T12:11:14.001Z</time>
      </trkpt>
      <trkpt lat="47.77122" lon="6.2336">
        <ele>254.615</ele>
        <time>2019-09-25T12:11:44.001Z</time>
      </trkpt>
      <trkpt lat="47.77164" lon="6.23459">
        <ele>260.327</ele>
        <time>2019-09-25T12:12:14.001Z</time>
      </trkpt>
      <trkpt lat="47.7719" lon="6.23561">
        <ele>265.339</ele>
        <time>2019-09-25T12:12:44.001Z</time>
      </trkpt>
      <trkpt lat="47.77219" lon="6.23721">
        <ele>265.374</ele>
        <time>2019-09-25T12:13:14.001Z</time>
      </trkpt>
      <trkpt lat="47.77267" lon="6.23867">
        <ele>261.649</ele>
        <time>2019-09-25T12:13:44.001Z</time>
      </trkpt>
      <trkpt lat="47.77303" lon="6.23971">
        <ele>263.801</ele>
        <time>2019-09-25T12:15:38.001Z</time>
      </trkpt>
      <trkpt lat="47.77348" lon="6.241">
        <ele>265.087</ele>
        <time>2019-09-25T12:16:08.001Z</time>
      </trkpt>
      <trkpt lat="47.77396" lon="6.24231">
        <ele>264.223</ele>
        <time>2019-09-25T12:16:38.001Z</time>
      </trkpt>
      <trkpt lat="47.77509" lon="6.24491">
        <ele>259.199</ele>
        <time>2019-09-25T12:17:08.001Z</time>
      </trkpt>
      <trkpt lat="47.77656" lon="6.24829">
        <ele>253.027</ele>
        <time>2019-09-25T12:17:41.001Z</time>
      </trkpt>
      <trkpt lat="47.77732" lon="6.25">
        <ele>258.085</ele>
        <time>2019-09-25T12:18:11.001Z</time>
      </trkpt>
      <trkpt lat="47.77776" lon="6.25102">
        <ele>264.899</ele>
        <time>2019-09-25T12:18:41.001Z</time>
      </trkpt>
      <trkpt lat="47.7783" lon="6.25233">
        <ele>266.548</ele>
        <time>2019-09-25T12:19:11.001Z</time>
      </trkpt>
      <trkpt lat="47.7792" lon="6.25468">
        <ele>262.12</ele>
        <time>2019-09-25T12:19:41.001Z</time>
      </trkpt>
      <trkpt lat="47.77976" lon="6.25606">
        <ele>262.435</ele>
        <time>2019-09-25T12:20:11.001Z</time>
      </trkpt>
      <trkpt lat="47.78026" lon="6.25735">
        <ele>264.788</ele>
        <time>2019-09-25T12:20:41.001Z</time>
      </trkpt>
      <trkpt lat="47.78074" lon="6.25857">
        <ele>268.618</ele>
        <time>2019-09-25T12:21:11.001Z</time>
      </trkpt>
      <trkpt lat="47.78121" lon="6.25974">
        <ele>271.798</ele>
        <time>2019-09-25T12:21:41.001Z</time>
      </trkpt>
      <trkpt lat="47.7817" lon="6.26098">
        <ele>276.317</ele>
        <time>2019-09-25T12:22:11.001Z</time>
      </trkpt>
      <trkpt lat="47.7822" lon="6.26223">
        <ele>284.903</ele>
        <time>2019-09-25T12:22:41.001Z</time>
      </trkpt>
      <trkpt lat="47.78272" lon="6.26358">
        <ele>283.296</ele>
        <time>2019-09-25T12:23:11.001Z</time>
      </trkpt>
      <trkpt lat="47.7833" lon="6.26505">
        <ele>282.183</ele>
        <time>2019-09-25T12:23:44.001Z</time>
      </trkpt>
      <trkpt lat="47.78382" lon="6.26771">
        <ele>280.141</ele>
        <time>2019-09-25T12:24:14.001Z</time>
      </trkpt>
      <trkpt lat="47.78451" lon="6.2712">
        <ele>271.883</ele>
        <time>2019-09-25T12:24:44.001Z</time>
      </trkpt>
      <trkpt lat="47.78502" lon="6.27396">
        <ele>268.546</ele>
        <time>2019-09-25T12:25:14.001Z</time>
      </trkpt>
      <trkpt lat="47.78549" lon="6.27635">
        <ele>273.938</ele>
        <time>2019-09-25T12:25:44.001Z</time>
      </trkpt>
      <trkpt lat="47.78578" lon="6.27788">
        <ele>276.763</ele>
        <time>2019-09-25T12:26:14.001Z</time>
      </trkpt>
      <trkpt lat="47.78581" lon="6.27941">
        <ele>278.535</ele>
        <time>2019-09-25T12:26:44.001Z</time>
      </trkpt>
      <trkpt lat="47.78567" lon="6.2812">
        <ele>278.669</ele>
        <time>2019-09-25T12:27:14.001Z</time>
      </trkpt>
      <trkpt lat="47.78546" lon="6.28409">
        <ele>271.784</ele>
        <time>2019-09-25T12:27:44.001Z</time>
      </trkpt>
      <trkpt lat="47.78534" lon="6.28688">
        <ele>271.907</ele>
        <time>2019-09-25T12:28:14.001Z</time>
      </trkpt>
      <trkpt lat="47.78506" lon="6.28968">
        <ele>264.437</ele>
        <time>2019-09-25T12:28:44.001Z</time>
      </trkpt>
      <trkpt lat="47.78423" lon="6.29139">
        <ele>266.63</ele>
        <time>2019-09-25T12:29:14.001Z</time>
      </trkpt>
      <trkpt lat="47.78288" lon="6.29374">
        <ele>259.141</ele>
        <time>2019-09-25T12:29:47.001Z</time>
      </trkpt>
      <trkpt lat="47.78288" lon="6.29615">
        <ele>256.226</ele>
        <time>2019-09-25T12:30:17.001Z</time>
      </trkpt>
      <trkpt lat="47.78279" lon="6.29908">
        <ele>256.79</ele>
        <time>2019-09-25T12:30:47.001Z</time>
      </trkpt>
      <trkpt lat="47.78294" lon="6.30115">
        <ele>257.15</ele>
        <time>2019-09-25T12:31:17.001Z</time>
      </trkpt>
      <trkpt lat="47.78444" lon="6.30356">
        <ele>248.574</ele>
        <time>2019-09-25T12:31:47.001Z</time>
      </trkpt>
      <trkpt lat="47.78585" lon="6.30557">
        <ele>249.282</ele>
        <time>2019-09-25T12:32:17.001Z</time>
      </trkpt>
      <trkpt lat="47.78719" lon="6.30755">
        <ele>251.018</ele>
        <time>2019-09-25T12:32:47.001Z</time>
      </trkpt>
      <trkpt lat="47.78818" lon="6.3098">
        <ele>251.137</ele>
        <time>2019-09-25T12:33:17.001Z</time>
      </trkpt>
      <trkpt lat="47.78899" lon="6.31212">
        <ele>254.19</ele>
        <time>2019-09-25T12:33:47.001Z</time>
      </trkpt>
      <trkpt lat="47.79022" lon="6.31381">
        <ele>252.892</ele>
        <time>2019-09-25T12:34:17.001Z</time>
      </trkpt>
      <trkpt lat="47.79142" lon="6.3152">
        <ele>249.697</ele>
        <time>2019-09-25T12:34:47.001Z</time>
      </trkpt>
      <trkpt lat="47.79263" lon="6.31667">
        <ele>251.191</ele>
        <time>2019-09-25T12:35:17.001Z</time>
      </trkpt>
      <trkpt lat="47.79171" lon="6.31843">
        <ele>252.019</ele>
        <time>2019-09-25T12:35:47.001Z</time>
      </trkpt>
      <trkpt lat="47.79069" lon="6.32017">
        <ele>252.701</ele>
        <time>2019-09-25T12:36:20.001Z</time>
      </trkpt>
      <trkpt lat="47.7898" lon="6.32175">
        <ele>253.469</ele>
        <time>2019-09-25T12:36:50.001Z</time>
      </trkpt>
      <trkpt lat="47.78894" lon="6.32343">
        <ele>254.635</ele>
        <time>2019-09-25T12:37:20.001Z</time>
      </trkpt>
      <trkpt lat="47.78797" lon="6.32496">
        <ele>251.476</ele>
        <time>2019-09-25T12:37:50.001Z</time>
      </trkpt>
      <trkpt lat="47.78702" lon="6.32655">
        <ele>252.585</ele>
        <time>2019-09-25T12:38:20.001Z</time>
      </trkpt>
      <trkpt lat="47.78617" lon="6.3282">
        <ele>254.068</ele>
        <time>2019-09-25T12:38:50.001Z</time>
      </trkpt>
      <trkpt lat="47.78525" lon="6.32985">
        <ele>255.476</ele>
        <time>2019-09-25T12:39:20.001Z</time>
      </trkpt>
      <trkpt lat="47.78427" lon="6.33142">
        <ele>258.633</ele>
        <time>2019-09-25T12:39:50.001Z</time>
      </trkpt>
      <trkpt lat="47.78339" lon="6.33321">
        <ele>258.829</ele>
        <time>2019-09-25T12:40:20.001Z</time>
      </trkpt>
      <trkpt lat="47.78241" lon="6.33487">
        <ele>262.074</ele>
        <time>2019-09-25T12:40:50.001Z</time>
      </trkpt>
      <trkpt lat="47.78129" lon="6.33634">
        <ele>259.582</ele>
        <time>2019-09-25T12:41:20.001Z</time>
      </trkpt>
      <trkpt lat="47.78025" lon="6.33796">
        <ele>258.681</ele>
        <time>2019-09-25T12:41:50.001Z</time>
      </trkpt>
      <trkpt lat="47.77917" lon="6.33991">
        <ele>260.331</ele>
        <time>2019-09-25T12:42:23.001Z</time>
      </trkpt>
      <trkpt lat="47.77817" lon="6.34137">
        <ele>261.514</ele>
        <time>2019-09-25T12:42:53.001Z</time>
      </trkpt>
      <trkpt lat="47.77713" lon="6.3425">
        <ele>262.157</ele>
        <time>2019-09-25T12:43:23.001Z</time>
      </trkpt>
      <trkpt lat="47.77738" lon="6.34449">
        <ele>262.778</ele>
        <time>2019-09-25T12:43:53.001Z</time>
      </trkpt>
      <trkpt lat="47.77764" lon="6.34562">
        <ele>261.532</ele>
        <time>2019-09-25T12:44:56.001Z</time>
      </trkpt>
      <trkpt lat="47.77751" lon="6.34755">
        <ele>267.165</ele>
        <time>2019-09-25T12:45:26.001Z</time>
      </trkpt>
      <trkpt lat="47.77719" lon="6.34937">
        <ele>267.951</ele>
        <time>2019-09-25T12:45:56.001Z</time>
      </trkpt>
      <trkpt lat="47.77714" lon="6.35115">
        <ele>265.728</ele>
        <time>2019-09-25T12:46:26.001Z</time>
      </trkpt>
      <trkpt lat="47.77668" lon="6.35284">
        <ele>261.761</ele>
        <time>2019-09-25T12:46:56.001Z</time>
      </trkpt>
      <trkpt lat="47.77592" lon="6.35451">
        <ele>260.488</ele>
        <time>2019-09-25T12:47:26.001Z</time>
      </trkpt>
      <trkpt lat="47.77517" lon="6.3562">
        <ele>258.282</ele>
        <time>2019-09-25T12:47:56.001Z</time>
      </trkpt>
      <trkpt lat="47.77451" lon="6.35781">
        <ele>258.067</ele>
        <time>2019-09-25T12:48:26.001Z</time>
      </trkpt>
      <trkpt lat="47.77471" lon="6.35988">
        <ele>260.405</ele>
        <time>2019-09-25T12:48:59.001Z</time>
      </trkpt>
      <trkpt lat="47.77381" lon="6.36124">
        <ele>261.796</ele>
        <time>2019-09-25T12:49:29.001Z</time>
      </trkpt>
      <trkpt lat="47.77348" lon="6.36212">
        <ele>259.484</ele>
        <time>2019-09-25T14:50:02Z</time>
      </trkpt>
      <trkpt lat="47.77314" lon="6.36391">
        <ele>260.535</ele>
        <time>2019-09-25T12:50:32.001Z</time>
      </trkpt>
      <trkpt lat="47.77232" lon="6.36555">
        <ele>262.415</ele>
        <time>2019-09-25T14:51:02Z</time>
      </trkpt>
      <trkpt lat="47.77115" lon="6.36639">
        <ele>268.182</ele>
        <time>2019-09-25T12:51:32.001Z</time>
      </trkpt>
      <trkpt lat="47.76996" lon="6.36567">
        <ele>261.036</ele>
        <time>2019-09-25T14:52:02Z</time>
      </trkpt>
      <trkpt lat="47.76973" lon="6.36563">
        <ele>261.621</ele>
        <time>2019-09-25T12:53:26.001Z</time>
      </trkpt>
      <trkpt lat="47.76963" lon="6.3655">
        <ele>261.394</ele>
        <time>2019-09-25T13:22:21.001Z</time>
      </trkpt>
      <trkpt lat="47.76868" lon="6.36506">
        <ele>263.745</ele>
        <time>2019-09-25T13:22:51.001Z</time>
      </trkpt>
      <trkpt lat="47.76763" lon="6.36449">
        <ele>259.852</ele>
        <time>2019-09-25T13:23:21.001Z</time>
      </trkpt>
      <trkpt lat="47.76656" lon="6.3639">
        <ele>258.805</ele>
        <time>2019-09-25T13:23:51.001Z</time>
      </trkpt>
      <trkpt lat="47.76541" lon="6.36346">
        <ele>259.035</ele>
        <time>2019-09-25T13:24:24.001Z</time>
      </trkpt>
      <trkpt lat="47.76398" lon="6.36317">
        <ele>264.173</ele>
        <time>2019-09-25T13:24:54.001Z</time>
      </trkpt>
      <trkpt lat="47.76281" lon="6.36336">
        <ele>270.178</ele>
        <time>2019-09-25T13:25:24.001Z</time>
      </trkpt>
      <trkpt lat="47.76146" lon="6.36362">
        <ele>273.74</ele>
        <time>2019-09-25T13:25:54.001Z</time>
      </trkpt>
      <trkpt lat="47.76022" lon="6.36372">
        <ele>264.676</ele>
        <time>2019-09-25T13:26:24.001Z</time>
      </trkpt>
      <trkpt lat="47.75941" lon="6.36423">
        <ele>267.998</ele>
        <time>2019-09-25T13:26:54.001Z</time>
      </trkpt>
      <trkpt lat="47.75905" lon="6.36545">
        <ele>272.62</ele>
        <time>2019-09-25T13:27:24.001Z</time>
      </trkpt>
      <trkpt lat="47.75859" lon="6.36629">
        <ele>280.18</ele>
        <time>2019-09-25T13:27:54.001Z</time>
      </trkpt>
      <trkpt lat="47.75784" lon="6.36662">
        <ele>277.512</ele>
        <time>2019-09-25T13:28:24.001Z</time>
      </trkpt>
      <trkpt lat="47.75676" lon="6.36646">
        <ele>277.373</ele>
        <time>2019-09-25T13:28:54.001Z</time>
      </trkpt>
      <trkpt lat="47.75572" lon="6.36866">
        <ele>274.712</ele>
        <time>2019-09-25T13:29:24.001Z</time>
      </trkpt>
      <trkpt lat="47.75619" lon="6.37114">
        <ele>271.193</ele>
        <time>2019-09-25T13:29:54.001Z</time>
      </trkpt>
      <trkpt lat="47.75658" lon="6.37408">
        <ele>271.754</ele>
        <time>2019-09-25T13:30:27.001Z</time>
      </trkpt>
      <trkpt lat="47.75663" lon="6.37632">
        <ele>276.991</ele>
        <time>2019-09-25T13:30:57.001Z</time>
      </trkpt>
      <trkpt lat="47.75667" lon="6.37792">
        <ele>279.513</ele>
        <time>2019-09-25T13:31:27.001Z</time>
      </trkpt>
      <trkpt lat="47.75666" lon="6.38008">
        <ele>280.252</ele>
        <time>2019-09-25T13:31:57.001Z</time>
      </trkpt>
      <trkpt lat="47.75646" lon="6.38198">
        <ele>279.1</ele>
        <time>2019-09-25T13:32:27.001Z</time>
      </trkpt>
      <trkpt lat="47.75628" lon="6.38336">
        <ele>283.028</ele>
        <time>2019-09-25T13:32:57.001Z</time>
      </trkpt>
      <trkpt lat="47.75602" lon="6.38461">
        <ele>285.469</ele>
        <time>2019-09-25T13:33:27.001Z</time>
      </trkpt>
      <trkpt lat="47.75626" lon="6.38645">
        <ele>287.53</ele>
        <time>2019-09-25T13:33:57.001Z</time>
      </trkpt>
      <trkpt lat="47.75622" lon="6.38698">
        <ele>280.688</ele>
        <time>2019-09-25T13:34:27.001Z</time>
      </trkpt>
      <trkpt lat="47.7582" lon="6.38734">
        <ele>269.761</ele>
        <time>2019-09-25T13:34:57.001Z</time>
      </trkpt>
      <trkpt lat="47.75858" lon="6.38986">
        <ele>265.708</ele>
        <time>2019-09-25T13:35:27.001Z</time>
      </trkpt>
      <trkpt lat="47.75806" lon="6.3919">
        <ele>270.5</ele>
        <time>2019-09-25T13:35:57.001Z</time>
      </trkpt>
      <trkpt lat="47.75761" lon="6.39408">
        <ele>285.138</ele>
        <time>2019-09-25T13:36:30.001Z</time>
      </trkpt>
      <trkpt lat="47.75681" lon="6.39604">
        <ele>282.15</ele>
        <time>2019-09-25T15:37:00Z</time>
      </trkpt>
      <trkpt lat="47.75595" lon="6.39797">
        <ele>274.941</ele>
        <time>2019-09-25T13:37:30.001Z</time>
      </trkpt>
      <trkpt lat="47.75507" lon="6.39983">
        <ele>269.571</ele>
        <time>2019-09-25T15:38:00Z</time>
      </trkpt>
      <trkpt lat="47.75423" lon="6.4017">
        <ele>269.772</ele>
        <time>2019-09-25T13:38:30.001Z</time>
      </trkpt>
      <trkpt lat="47.75344" lon="6.40345">
        <ele>272.145</ele>
        <time>2019-09-25T15:39:00Z</time>
      </trkpt>
      <trkpt lat="47.75259" lon="6.40508">
        <ele>273.706</ele>
        <time>2019-09-25T13:39:30.001Z</time>
      </trkpt>
      <trkpt lat="47.75169" lon="6.40671">
        <ele>275.497</ele>
        <time>2019-09-25T15:40:00Z</time>
      </trkpt>
      <trkpt lat="47.75115" lon="6.4087">
        <ele>275.1</ele>
        <time>2019-09-25T13:40:30.001Z</time>
      </trkpt>
      <trkpt lat="47.75063" lon="6.41058">
        <ele>277.867</ele>
        <time>2019-09-25T15:41:00Z</time>
      </trkpt>
      <trkpt lat="47.75016" lon="6.41269">
        <ele>280.356</ele>
        <time>2019-09-25T13:41:30.001Z</time>
      </trkpt>
      <trkpt lat="47.74974" lon="6.4147">
        <ele>280.891</ele>
        <time>2019-09-25T15:42:00Z</time>
      </trkpt>
      <trkpt lat="47.74933" lon="6.41687">
        <ele>280.595</ele>
        <time>2019-09-25T13:42:33.001Z</time>
      </trkpt>
      <trkpt lat="47.74981" lon="6.41858">
        <ele>281.034</ele>
        <time>2019-09-25T13:43:03.001Z</time>
      </trkpt>
      <trkpt lat="47.75081" lon="6.42032">
        <ele>278.957</ele>
        <time>2019-09-25T13:43:33.001Z</time>
      </trkpt>
      <trkpt lat="47.75102" lon="6.42204">
        <ele>283.024</ele>
        <time>2019-09-25T13:44:03.001Z</time>
      </trkpt>
      <trkpt lat="47.75109" lon="6.4231">
        <ele>280.329</ele>
        <time>2019-09-25T13:44:33.001Z</time>
      </trkpt>
      <trkpt lat="47.75097" lon="6.42483">
        <ele>280.981</ele>
        <time>2019-09-25T13:45:03.001Z</time>
      </trkpt>
      <trkpt lat="47.75115" lon="6.42688">
        <ele>277.45</ele>
        <time>2019-09-25T13:45:33.001Z</time>
      </trkpt>
      <trkpt lat="47.75106" lon="6.42896">
        <ele>281.764</ele>
        <time>2019-09-25T13:46:03.001Z</time>
      </trkpt>
      <trkpt lat="47.75085" lon="6.43093">
        <ele>279.986</ele>
        <time>2019-09-25T13:46:33.001Z</time>
      </trkpt>
      <trkpt lat="47.75057" lon="6.43274">
        <ele>282.452</ele>
        <time>2019-09-25T13:47:03.001Z</time>
      </trkpt>
      <trkpt lat="47.75022" lon="6.43448">
        <ele>282.001</ele>
        <time>2019-09-25T13:47:33.001Z</time>
      </trkpt>
      <trkpt lat="47.74968" lon="6.43603">
        <ele>282.244</ele>
        <time>2019-09-25T13:48:03.001Z</time>
      </trkpt>
      <trkpt lat="47.74941" lon="6.43837">
        <ele>282.607</ele>
        <time>2019-09-25T13:48:36.001Z</time>
      </trkpt>
      <trkpt lat="47.74997" lon="6.44034">
        <ele>281.189</ele>
        <time>2019-09-25T13:49:06.001Z</time>
      </trkpt>
      <trkpt lat="47.74977" lon="6.44226">
        <ele>284.86</ele>
        <time>2019-09-25T13:49:36.001Z</time>
      </trkpt>
      <trkpt lat="47.74991" lon="6.44398">
        <ele>279.597</ele>
        <time>2019-09-25T13:50:06.001Z</time>
      </trkpt>
      <trkpt lat="47.74954" lon="6.44544">
        <ele>286.842</ele>
        <time>2019-09-25T13:50:36.001Z</time>
      </trkpt>
      <trkpt lat="47.7501" lon="6.44678">
        <ele>289.707</ele>
        <time>2019-09-25T13:51:06.001Z</time>
      </trkpt>
      <trkpt lat="47.75027" lon="6.44792">
        <ele>291.241</ele>
        <time>2019-09-25T13:51:36.001Z</time>
      </trkpt>
      <trkpt lat="47.74922" lon="6.44789">
        <ele>286.973</ele>
        <time>2019-09-25T13:52:06.001Z</time>
      </trkpt>
      <trkpt lat="47.74807" lon="6.44868">
        <ele>288.194</ele>
        <time>2019-09-25T13:52:36.001Z</time>
      </trkpt>
      <trkpt lat="47.74702" lon="6.44935">
        <ele>291.5</ele>
        <time>2019-09-25T13:53:06.001Z</time>
      </trkpt>
      <trkpt lat="47.74625" lon="6.45056">
        <ele>290.801</ele>
        <time>2019-09-25T13:53:36.001Z</time>
      </trkpt>
      <trkpt lat="47.74523" lon="6.4519">
        <ele>290.007</ele>
        <time>2019-09-25T13:54:06.001Z</time>
      </trkpt>
      <trkpt lat="47.74369" lon="6.45203">
        <ele>291.592</ele>
        <time>2019-09-25T13:54:39.001Z</time>
      </trkpt>
      <trkpt lat="47.74239" lon="6.45225">
        <ele>296.729</ele>
        <time>2019-09-25T13:55:09.001Z</time>
      </trkpt>
      <trkpt lat="47.74122" lon="6.45257">
        <ele>291.667</ele>
        <time>2019-09-25T13:55:39.001Z</time>
      </trkpt>
      <trkpt lat="47.74016" lon="6.45289">
        <ele>290.296</ele>
        <time>2019-09-25T13:56:09.001Z</time>
      </trkpt>
      <trkpt lat="47.7395" lon="6.45322">
        <ele>289.616</ele>
        <time>2019-09-25T13:56:45.001Z</time>
      </trkpt>
      <trkpt lat="47.73945" lon="6.45509">
        <ele>293.286</ele>
        <time>2019-09-25T13:57:15.001Z</time>
      </trkpt>
      <trkpt lat="47.73963" lon="6.45707">
        <ele>292.595</ele>
        <time>2019-09-25T13:57:45.001Z</time>
      </trkpt>
      <trkpt lat="47.74017" lon="6.45903">
        <ele>296.177</ele>
        <time>2019-09-25T13:58:15.001Z</time>
      </trkpt>
      <trkpt lat="47.7414" lon="6.45937">
        <ele>291.263</ele>
        <time>2019-09-25T13:58:45.001Z</time>
      </trkpt>
      <trkpt lat="47.74276" lon="6.45974">
        <ele>286.784</ele>
        <time>2019-09-25T13:59:15.001Z</time>
      </trkpt>
      <trkpt lat="47.743" lon="6.46172">
        <ele>293.741</ele>
        <time>2019-09-25T13:59:45.001Z</time>
      </trkpt>
      <trkpt lat="47.74325" lon="6.46365">
        <ele>297.954</ele>
        <time>2019-09-25T14:00:15.001Z</time>
      </trkpt>
      <trkpt lat="47.74352" lon="6.46568">
        <ele>297.655</ele>
        <time>2019-09-25T14:00:48.001Z</time>
      </trkpt>
      <trkpt lat="47.74381" lon="6.46719">
        <ele>300.327</ele>
        <time>2019-09-25T14:01:18.001Z</time>
      </trkpt>
      <trkpt lat="47.744" lon="6.46816">
        <ele>308.872</ele>
        <time>2019-09-25T14:01:48.001Z</time>
      </trkpt>
      <trkpt lat="47.74429" lon="6.46915">
        <ele>312.59</ele>
        <time>2019-09-25T14:02:18.001Z</time>
      </trkpt>
      <trkpt lat="47.74454" lon="6.47033">
        <ele>315.208</ele>
        <time>2019-09-25T14:02:48.001Z</time>
      </trkpt>
      <trkpt lat="47.74474" lon="6.47274">
        <ele>311.958</ele>
        <time>2019-09-25T14:03:18.001Z</time>
      </trkpt>
      <trkpt lat="47.74456" lon="6.47522">
        <ele>306.821</ele>
        <time>2019-09-25T14:03:48.001Z</time>
      </trkpt>
      <trkpt lat="47.74467" lon="6.47806">
        <ele>306.28</ele>
        <time>2019-09-25T14:04:18.001Z</time>
      </trkpt>
      <trkpt lat="47.74441" lon="6.48007">
        <ele>309.173</ele>
        <time>2019-09-25T14:04:48.001Z</time>
      </trkpt>
      <trkpt lat="47.74399" lon="6.48182">
        <ele>307.26</ele>
        <time>2019-09-25T14:05:18.001Z</time>
      </trkpt>
      <trkpt lat="47.7435" lon="6.48325">
        <ele>309.65</ele>
        <time>2019-09-25T14:05:48.001Z</time>
      </trkpt>
      <trkpt lat="47.74369" lon="6.48331">
        <ele>306.627</ele>
        <time>2019-09-25T14:08:03.001Z</time>
      </trkpt>
      <trkpt lat="47.74373" lon="6.48335">
        <ele>308.945</ele>
        <time>2019-09-25T14:11:03.001Z</time>
      </trkpt>
      <trkpt lat="47.74372" lon="6.48336">
        <ele>314.934</ele>
        <time>2019-09-25T14:14:39.001Z</time>
      </trkpt>
      <trkpt lat="47.74402" lon="6.48377">
        <ele>316.709</ele>
        <time>2019-09-25T14:16:03.001Z</time>
      </trkpt>
      <trkpt lat="47.74446" lon="6.48526">
        <ele>308.048</ele>
        <time>2019-09-25T14:16:33.001Z</time>
      </trkpt>
      <trkpt lat="47.74482" lon="6.4869">
        <ele>307.591</ele>
        <time>2019-09-25T14:17:03.001Z</time>
      </trkpt>
      <trkpt lat="47.74485" lon="6.48871">
        <ele>307.652</ele>
        <time>2019-09-25T14:17:33.001Z</time>
      </trkpt>
      <trkpt lat="47.74468" lon="6.4903">
        <ele>310.95</ele>
        <time>2019-09-25T14:18:03.001Z</time>
      </trkpt>
      <trkpt lat="47.74449" lon="6.49154">
        <ele>315.212</ele>
        <time>2019-09-25T14:18:33.001Z</time>
      </trkpt>
      <trkpt lat="47.74501" lon="6.4924">
        <ele>313.705</ele>
        <time>2019-09-25T14:19:03.001Z</time>
      </trkpt>
      <trkpt lat="47.74628" lon="6.49334">
        <ele>313.411</ele>
        <time>2019-09-25T14:19:33.001Z</time>
      </trkpt>
      <trkpt lat="47.74793" lon="6.49351">
        <ele>311.894</ele>
        <time>2019-09-25T14:20:03.001Z</time>
      </trkpt>
      <trkpt lat="47.74882" lon="6.49519">
        <ele>309.031</ele>
        <time>2019-09-25T14:20:33.001Z</time>
      </trkpt>
      <trkpt lat="47.7487" lon="6.49678">
        <ele>314.987</ele>
        <time>2019-09-25T14:21:06.001Z</time>
      </trkpt>
      <trkpt lat="47.74889" lon="6.49815">
        <ele>319.205</ele>
        <time>2019-09-25T14:21:36.001Z</time>
      </trkpt>
      <trkpt lat="47.74901" lon="6.4987">
        <ele>321.826</ele>
        <time>2019-09-25T14:24:27.001Z</time>
      </trkpt>
      <trkpt lat="47.74883" lon="6.49795">
        <ele>322.415</ele>
        <time>2019-09-25T14:25:03.001Z</time>
      </trkpt>
      <trkpt lat="47.74929" lon="6.49617">
        <ele>319.784</ele>
        <time>2019-09-25T14:25:33.001Z</time>
      </trkpt>
      <trkpt lat="47.74969" lon="6.49622">
        <ele>320.503</ele>
        <time>2019-09-25T14:26:54.001Z</time>
      </trkpt>
    </trkseg>
  </trk>
  <trk>
    <name><![CDATA[Tracé 20190926-103144]]></name>
    <trkseg>
      <trkpt lat="47.74957" lon="6.49643">
        <ele>335.374</ele>
        <time>2019-09-26T10:32:02Z</time>
      </trkpt>
      <trkpt lat="47.74929" lon="6.49612">
        <ele>316.4</ele>
        <time>2019-09-26T10:35:05Z</time>
      </trkpt>
      <trkpt lat="47.74876" lon="6.49495">
        <ele>316.972</ele>
        <time>2019-09-26T10:35:38Z</time>
      </trkpt>
      <trkpt lat="47.74757" lon="6.49483">
        <ele>319.226</ele>
        <time>2019-09-26T10:36:11Z</time>
      </trkpt>
      <trkpt lat="47.74696" lon="6.49608">
        <ele>321.617</ele>
        <time>2019-09-26T10:36:41Z</time>
      </trkpt>
      <trkpt lat="47.74623" lon="6.49691">
        <ele>325.86</ele>
        <time>2019-09-26T10:37:14Z</time>
      </trkpt>
      <trkpt lat="47.74541" lon="6.49779">
        <ele>327.871</ele>
        <time>2019-09-26T10:37:44Z</time>
      </trkpt>
      <trkpt lat="47.7444" lon="6.49902">
        <ele>327.453</ele>
        <time>2019-09-26T10:38:17Z</time>
      </trkpt>
      <trkpt lat="47.74367" lon="6.50026">
        <ele>328.276</ele>
        <time>2019-09-26T10:38:47Z</time>
      </trkpt>
      <trkpt lat="47.74297" lon="6.50134">
        <ele>330.67</ele>
        <time>2019-09-26T10:39:20Z</time>
      </trkpt>
      <trkpt lat="47.74225" lon="6.50221">
        <ele>331.428</ele>
        <time>2019-09-26T10:39:50Z</time>
      </trkpt>
      <trkpt lat="47.74132" lon="6.50331">
        <ele>331.59</ele>
        <time>2019-09-26T10:40:20Z</time>
      </trkpt>
      <trkpt lat="47.74038" lon="6.50444">
        <ele>332.983</ele>
        <time>2019-09-26T10:40:53Z</time>
      </trkpt>
      <trkpt lat="47.7398" lon="6.50536">
        <ele>337.15</ele>
        <time>2019-09-26T10:41:23Z</time>
      </trkpt>
      <trkpt lat="47.73913" lon="6.50665">
        <ele>339.548</ele>
        <time>2019-09-26T10:41:56Z</time>
      </trkpt>
      <trkpt lat="47.73834" lon="6.50813">
        <ele>344.066</ele>
        <time>2019-09-26T10:42:26Z</time>
      </trkpt>
      <trkpt lat="47.73744" lon="6.50975">
        <ele>342.497</ele>
        <time>2019-09-26T10:42:59Z</time>
      </trkpt>
      <trkpt lat="47.73663" lon="6.51145">
        <ele>340.146</ele>
        <time>2019-09-26T10:43:29Z</time>
      </trkpt>
      <trkpt lat="47.73557" lon="6.5132">
        <ele>346.912</ele>
        <time>2019-09-26T10:44:02Z</time>
      </trkpt>
      <trkpt lat="47.73435" lon="6.51592">
        <ele>343.02</ele>
        <time>2019-09-26T10:44:32Z</time>
      </trkpt>
      <trkpt lat="47.73284" lon="6.52016">
        <ele>313.987</ele>
        <time>2019-09-26T10:45:05Z</time>
      </trkpt>
      <trkpt lat="47.73208" lon="6.52228">
        <ele>313.77</ele>
        <time>2019-09-26T10:45:35Z</time>
      </trkpt>
      <trkpt lat="47.73135" lon="6.52441">
        <ele>317.806</ele>
        <time>2019-09-26T10:46:08Z</time>
      </trkpt>
      <trkpt lat="47.73066" lon="6.52637">
        <ele>319.864</ele>
        <time>2019-09-26T10:46:38Z</time>
      </trkpt>
      <trkpt lat="47.73006" lon="6.52815">
        <ele>319.937</ele>
        <time>2019-09-26T10:47:11Z</time>
      </trkpt>
      <trkpt lat="47.72959" lon="6.52951">
        <ele>324.293</ele>
        <time>2019-09-26T10:47:41Z</time>
      </trkpt>
      <trkpt lat="47.7285" lon="6.53023">
        <ele>328.608</ele>
        <time>2019-09-26T10:48:14Z</time>
      </trkpt>
      <trkpt lat="47.7271" lon="6.53059">
        <ele>328.642</ele>
        <time>2019-09-26T10:48:44Z</time>
      </trkpt>
      <trkpt lat="47.72538" lon="6.53157">
        <ele>321.315</ele>
        <time>2019-09-26T10:49:17Z</time>
      </trkpt>
      <trkpt lat="47.72388" lon="6.53189">
        <ele>319.872</ele>
        <time>2019-09-26T10:49:47Z</time>
      </trkpt>
      <trkpt lat="47.72247" lon="6.53194">
        <ele>318.729</ele>
        <time>2019-09-26T10:50:20Z</time>
      </trkpt>
      <trkpt lat="47.72107" lon="6.53224">
        <ele>324.605</ele>
        <time>2019-09-26T10:50:50Z</time>
      </trkpt>
      <trkpt lat="47.71861" lon="6.5325">
        <ele>310.202</ele>
        <time>2019-09-26T10:51:23Z</time>
      </trkpt>
      <trkpt lat="47.71734" lon="6.5313">
        <ele>300.772</ele>
        <time>2019-09-26T10:51:53Z</time>
      </trkpt>
      <trkpt lat="47.71595" lon="6.53088">
        <ele>305.493</ele>
        <time>2019-09-26T10:52:23Z</time>
      </trkpt>
      <trkpt lat="47.71439" lon="6.53087">
        <ele>311.501</ele>
        <time>2019-09-26T10:52:56Z</time>
      </trkpt>
      <trkpt lat="47.71291" lon="6.53076">
        <ele>307.941</ele>
        <time>2019-09-26T10:53:26Z</time>
      </trkpt>
      <trkpt lat="47.71136" lon="6.53008">
        <ele>304.284</ele>
        <time>2019-09-26T10:53:59Z</time>
      </trkpt>
      <trkpt lat="47.71001" lon="6.53038">
        <ele>307.981</ele>
        <time>2019-09-26T10:54:29Z</time>
      </trkpt>
      <trkpt lat="47.70838" lon="6.53021">
        <ele>307.02</ele>
        <time>2019-09-26T10:55:02Z</time>
      </trkpt>
      <trkpt lat="47.70706" lon="6.53133">
        <ele>307.456</ele>
        <time>2019-09-26T10:55:32Z</time>
      </trkpt>
      <trkpt lat="47.70553" lon="6.53065">
        <ele>300.955</ele>
        <time>2019-09-26T10:56:05Z</time>
      </trkpt>
      <trkpt lat="47.70399" lon="6.53028">
        <ele>304.304</ele>
        <time>2019-09-26T10:56:35Z</time>
      </trkpt>
      <trkpt lat="47.70232" lon="6.53018">
        <ele>306.991</ele>
        <time>2019-09-26T10:57:08Z</time>
      </trkpt>
      <trkpt lat="47.70091" lon="6.52972">
        <ele>300.656</ele>
        <time>2019-09-26T10:57:38Z</time>
      </trkpt>
      <trkpt lat="47.69932" lon="6.529">
        <ele>299.847</ele>
        <time>2019-09-26T10:58:11Z</time>
      </trkpt>
      <trkpt lat="47.69798" lon="6.52829">
        <ele>302.661</ele>
        <time>2019-09-26T10:58:41Z</time>
      </trkpt>
      <trkpt lat="47.69631" lon="6.5279">
        <ele>300.629</ele>
        <time>2019-09-26T10:59:14Z</time>
      </trkpt>
      <trkpt lat="47.69488" lon="6.52781">
        <ele>304.99</ele>
        <time>2019-09-26T10:59:44Z</time>
      </trkpt>
      <trkpt lat="47.69342" lon="6.52692">
        <ele>303.073</ele>
        <time>2019-09-26T11:00:17Z</time>
      </trkpt>
      <trkpt lat="47.69254" lon="6.52562">
        <ele>300.156</ele>
        <time>2019-09-26T11:00:47Z</time>
      </trkpt>
      <trkpt lat="47.69149" lon="6.52391">
        <ele>303.725</ele>
        <time>2019-09-26T11:01:20Z</time>
      </trkpt>
      <trkpt lat="47.68992" lon="6.52316">
        <ele>300.457</ele>
        <time>2019-09-26T11:01:50Z</time>
      </trkpt>
      <trkpt lat="47.68849" lon="6.52185">
        <ele>300.668</ele>
        <time>2019-09-26T11:02:23Z</time>
      </trkpt>
      <trkpt lat="47.6874" lon="6.52028">
        <ele>298.393</ele>
        <time>2019-09-26T09:02:53.001Z</time>
      </trkpt>
      <trkpt lat="47.68612" lon="6.51919">
        <ele>302.016</ele>
        <time>2019-09-26T09:03:26.001Z</time>
      </trkpt>
      <trkpt lat="47.68519" lon="6.51915">
        <ele>300.752</ele>
        <time>2019-09-26T09:03:59.001Z</time>
      </trkpt>
      <trkpt lat="47.68393" lon="6.51918">
        <ele>301.075</ele>
        <time>2019-09-26T09:04:29.001Z</time>
      </trkpt>
      <trkpt lat="47.6828" lon="6.51783">
        <ele>305.711</ele>
        <time>2019-09-26T11:05:02Z</time>
      </trkpt>
      <trkpt lat="47.68172" lon="6.51693">
        <ele>306.633</ele>
        <time>2019-09-26T09:05:32.001Z</time>
      </trkpt>
      <trkpt lat="47.68035" lon="6.51746">
        <ele>301.482</ele>
        <time>2019-09-26T09:06:05.001Z</time>
      </trkpt>
      <trkpt lat="47.67911" lon="6.51795">
        <ele>301.134</ele>
        <time>2019-09-26T09:06:35.001Z</time>
      </trkpt>
      <trkpt lat="47.6779" lon="6.51893">
        <ele>301.777</ele>
        <time>2019-09-26T09:07:08.001Z</time>
      </trkpt>
      <trkpt lat="47.67783" lon="6.52111">
        <ele>300.224</ele>
        <time>2019-09-26T09:07:38.001Z</time>
      </trkpt>
      <trkpt lat="47.67665" lon="6.52234">
        <ele>297.729</ele>
        <time>2019-09-26T09:08:11.001Z</time>
      </trkpt>
      <trkpt lat="47.67565" lon="6.52267">
        <ele>298.998</ele>
        <time>2019-09-26T09:08:41.001Z</time>
      </trkpt>
      <trkpt lat="47.67562" lon="6.52524">
        <ele>300.168</ele>
        <time>2019-09-26T09:09:14.001Z</time>
      </trkpt>
      <trkpt lat="47.67528" lon="6.52723">
        <ele>304.941</ele>
        <time>2019-09-26T09:09:44.001Z</time>
      </trkpt>
      <trkpt lat="47.67494" lon="6.52952">
        <ele>304.746</ele>
        <time>2019-09-26T09:10:17.001Z</time>
      </trkpt>
      <trkpt lat="47.67461" lon="6.53163">
        <ele>302.42</ele>
        <time>2019-09-26T09:10:47.001Z</time>
      </trkpt>
      <trkpt lat="47.67361" lon="6.53327">
        <ele>301.097</ele>
        <time>2019-09-26T09:11:20.001Z</time>
      </trkpt>
      <trkpt lat="47.67354" lon="6.53522">
        <ele>303.799</ele>
        <time>2019-09-26T09:11:50.001Z</time>
      </trkpt>
      <trkpt lat="47.67339" lon="6.53737">
        <ele>301.837</ele>
        <time>2019-09-26T09:12:23.001Z</time>
      </trkpt>
      <trkpt lat="47.67231" lon="6.53861">
        <ele>301.514</ele>
        <time>2019-09-26T09:12:53.001Z</time>
      </trkpt>
      <trkpt lat="47.6711" lon="6.54001">
        <ele>300.773</ele>
        <time>2019-09-26T09:13:26.001Z</time>
      </trkpt>
      <trkpt lat="47.6701" lon="6.54141">
        <ele>303.844</ele>
        <time>2019-09-26T09:13:56.001Z</time>
      </trkpt>
      <trkpt lat="47.66877" lon="6.54219">
        <ele>303.417</ele>
        <time>2019-09-26T09:14:29.001Z</time>
      </trkpt>
      <trkpt lat="47.66793" lon="6.54403">
        <ele>300.96</ele>
        <time>2019-09-26T09:14:59.001Z</time>
      </trkpt>
      <trkpt lat="47.66679" lon="6.5448">
        <ele>303.028</ele>
        <time>2019-09-26T09:15:32.001Z</time>
      </trkpt>
      <trkpt lat="47.6655" lon="6.54556">
        <ele>302.1</ele>
        <time>2019-09-26T11:16:02Z</time>
      </trkpt>
      <trkpt lat="47.66448" lon="6.54683">
        <ele>302.033</ele>
        <time>2019-09-26T09:16:32.001Z</time>
      </trkpt>
      <trkpt lat="47.66337" lon="6.54819">
        <ele>299.459</ele>
        <time>2019-09-26T09:17:05.001Z</time>
      </trkpt>
      <trkpt lat="47.66258" lon="6.54894">
        <ele>303.968</ele>
        <time>2019-09-26T09:17:35.001Z</time>
      </trkpt>
      <trkpt lat="47.66164" lon="6.54914">
        <ele>307.321</ele>
        <time>2019-09-26T09:18:08.001Z</time>
      </trkpt>
      <trkpt lat="47.66062" lon="6.55062">
        <ele>304.741</ele>
        <time>2019-09-26T09:18:38.001Z</time>
      </trkpt>
      <trkpt lat="47.65954" lon="6.55175">
        <ele>306.336</ele>
        <time>2019-09-26T09:19:11.001Z</time>
      </trkpt>
      <trkpt lat="47.65853" lon="6.55248">
        <ele>310.893</ele>
        <time>2019-09-26T09:19:41.001Z</time>
      </trkpt>
      <trkpt lat="47.65745" lon="6.55237">
        <ele>310.244</ele>
        <time>2019-09-26T09:20:14.001Z</time>
      </trkpt>
      <trkpt lat="47.65644" lon="6.55258">
        <ele>311.202</ele>
        <time>2019-09-26T09:20:44.001Z</time>
      </trkpt>
      <trkpt lat="47.65546" lon="6.55334">
        <ele>315.138</ele>
        <time>2019-09-26T09:21:17.001Z</time>
      </trkpt>
      <trkpt lat="47.65458" lon="6.55346">
        <ele>318.761</ele>
        <time>2019-09-26T09:21:47.001Z</time>
      </trkpt>
      <trkpt lat="47.65425" lon="6.55471">
        <ele>322.831</ele>
        <time>2019-09-26T09:22:20.001Z</time>
      </trkpt>
      <trkpt lat="47.6543" lon="6.55444">
        <ele>322.484</ele>
        <time>2019-09-26T09:22:50.001Z</time>
      </trkpt>
      <trkpt lat="47.65397" lon="6.55324">
        <ele>317.469</ele>
        <time>2019-09-26T09:23:23.001Z</time>
      </trkpt>
      <trkpt lat="47.65293" lon="6.55297">
        <ele>321.387</ele>
        <time>2019-09-26T09:23:53.001Z</time>
      </trkpt>
      <trkpt lat="47.65141" lon="6.55252">
        <ele>309.414</ele>
        <time>2019-09-26T09:24:26.001Z</time>
      </trkpt>
      <trkpt lat="47.65073" lon="6.55252">
        <ele>309.361</ele>
        <time>2019-09-26T09:25:59.001Z</time>
      </trkpt>
      <trkpt lat="47.64889" lon="6.55247">
        <ele>304.598</ele>
        <time>2019-09-26T09:26:32.001Z</time>
      </trkpt>
      <trkpt lat="47.64806" lon="6.55163">
        <ele>310.857</ele>
        <time>2019-09-26T11:27:02Z</time>
      </trkpt>
      <trkpt lat="47.6474" lon="6.55127">
        <ele>312.813</ele>
        <time>2019-09-26T09:27:35.001Z</time>
      </trkpt>
      <trkpt lat="47.64653" lon="6.55103">
        <ele>315.862</ele>
        <time>2019-09-26T09:28:05.001Z</time>
      </trkpt>
      <trkpt lat="47.64513" lon="6.5511">
        <ele>309.506</ele>
        <time>2019-09-26T09:28:35.001Z</time>
      </trkpt>
      <trkpt lat="47.6434" lon="6.55112">
        <ele>302.057</ele>
        <time>2019-09-26T09:29:08.001Z</time>
      </trkpt>
      <trkpt lat="47.64228" lon="6.55129">
        <ele>302.451</ele>
        <time>2019-09-26T09:29:38.001Z</time>
      </trkpt>
      <trkpt lat="47.64111" lon="6.55128">
        <ele>305.92</ele>
        <time>2019-09-26T09:30:11.001Z</time>
      </trkpt>
      <trkpt lat="47.63974" lon="6.55111">
        <ele>301.875</ele>
        <time>2019-09-26T09:30:41.001Z</time>
      </trkpt>
      <trkpt lat="47.63844" lon="6.55049">
        <ele>301.614</ele>
        <time>2019-09-26T09:31:14.001Z</time>
      </trkpt>
      <trkpt lat="47.63679" lon="6.55005">
        <ele>296.79</ele>
        <time>2019-09-26T09:31:44.001Z</time>
      </trkpt>
      <trkpt lat="47.63508" lon="6.55029">
        <ele>290.858</ele>
        <time>2019-09-26T09:32:17.001Z</time>
      </trkpt>
      <trkpt lat="47.63345" lon="6.55134">
        <ele>292.499</ele>
        <time>2019-09-26T09:32:47.001Z</time>
      </trkpt>
      <trkpt lat="47.63188" lon="6.55229">
        <ele>288.658</ele>
        <time>2019-09-26T09:33:20.001Z</time>
      </trkpt>
      <trkpt lat="47.63063" lon="6.55233">
        <ele>291.31</ele>
        <time>2019-09-26T09:33:50.001Z</time>
      </trkpt>
      <trkpt lat="47.62958" lon="6.55197">
        <ele>298.879</ele>
        <time>2019-09-26T09:34:23.001Z</time>
      </trkpt>
      <trkpt lat="47.62912" lon="6.55132">
        <ele>306.804</ele>
        <time>2019-09-26T09:34:53.001Z</time>
      </trkpt>
      <trkpt lat="47.62881" lon="6.55059">
        <ele>310.994</ele>
        <time>2019-09-26T09:35:26.001Z</time>
      </trkpt>
      <trkpt lat="47.62822" lon="6.55055">
        <ele>313.774</ele>
        <time>2019-09-26T09:35:56.001Z</time>
      </trkpt>
      <trkpt lat="47.62738" lon="6.55016">
        <ele>318.781</ele>
        <time>2019-09-26T09:36:29.001Z</time>
      </trkpt>
      <trkpt lat="47.62674" lon="6.54962">
        <ele>315.749</ele>
        <time>2019-09-26T09:36:59.001Z</time>
      </trkpt>
      <trkpt lat="47.62609" lon="6.54901">
        <ele>316.652</ele>
        <time>2019-09-26T09:37:32.001Z</time>
      </trkpt>
      <trkpt lat="47.62548" lon="6.54846">
        <ele>322.643</ele>
        <time>2019-09-26T11:38:02Z</time>
      </trkpt>
      <trkpt lat="47.62492" lon="6.54759">
        <ele>327.249</ele>
        <time>2019-09-26T09:38:35.001Z</time>
      </trkpt>
      <trkpt lat="47.62421" lon="6.54636">
        <ele>325.433</ele>
        <time>2019-09-26T09:39:05.001Z</time>
      </trkpt>
      <trkpt lat="47.62313" lon="6.54448">
        <ele>315.846</ele>
        <time>2019-09-26T09:39:38.001Z</time>
      </trkpt>
      <trkpt lat="47.62188" lon="6.54239">
        <ele>313.111</ele>
        <time>2019-09-26T09:40:08.001Z</time>
      </trkpt>
      <trkpt lat="47.62037" lon="6.53993">
        <ele>306.779</ele>
        <time>2019-09-26T09:40:38.001Z</time>
      </trkpt>
      <trkpt lat="47.6186" lon="6.53734">
        <ele>300.153</ele>
        <time>2019-09-26T09:41:11.001Z</time>
      </trkpt>
      <trkpt lat="47.61729" lon="6.53539">
        <ele>297.656</ele>
        <time>2019-09-26T09:41:41.001Z</time>
      </trkpt>
      <trkpt lat="47.61553" lon="6.53324">
        <ele>292.236</ele>
        <time>2019-09-26T09:42:14.001Z</time>
      </trkpt>
      <trkpt lat="47.61372" lon="6.53141">
        <ele>287.716</ele>
        <time>2019-09-26T09:42:44.001Z</time>
      </trkpt>
      <trkpt lat="47.61343" lon="6.52922">
        <ele>280.6</ele>
        <time>2019-09-26T09:43:17.001Z</time>
      </trkpt>
      <trkpt lat="47.61343" lon="6.52729">
        <ele>281.77</ele>
        <time>2019-09-26T09:43:47.001Z</time>
      </trkpt>
      <trkpt lat="47.61261" lon="6.52506">
        <ele>280.849</ele>
        <time>2019-09-26T09:44:20.001Z</time>
      </trkpt>
      <trkpt lat="47.61147" lon="6.52408">
        <ele>282.36</ele>
        <time>2019-09-26T09:44:50.001Z</time>
      </trkpt>
      <trkpt lat="47.6103" lon="6.5234">
        <ele>288.094</ele>
        <time>2019-09-26T09:45:23.001Z</time>
      </trkpt>
      <trkpt lat="47.6096" lon="6.52305">
        <ele>294.092</ele>
        <time>2019-09-26T09:45:53.001Z</time>
      </trkpt>
      <trkpt lat="47.609" lon="6.52265">
        <ele>298.504</ele>
        <time>2019-09-26T09:46:26.001Z</time>
      </trkpt>
      <trkpt lat="47.60849" lon="6.52244">
        <ele>300.848</ele>
        <time>2019-09-26T09:46:56.001Z</time>
      </trkpt>
      <trkpt lat="47.60771" lon="6.52218">
        <ele>305.462</ele>
        <time>2019-09-26T09:47:29.001Z</time>
      </trkpt>
      <trkpt lat="47.60564" lon="6.52177">
        <ele>295.251</ele>
        <time>2019-09-26T09:47:59.001Z</time>
      </trkpt>
      <trkpt lat="47.60461" lon="6.5201">
        <ele>287.399</ele>
        <time>2019-09-26T09:48:32.001Z</time>
      </trkpt>
      <trkpt lat="47.60409" lon="6.5189">
        <ele>288.499</ele>
        <time>2019-09-26T11:49:02Z</time>
      </trkpt>
      <trkpt lat="47.60346" lon="6.51766">
        <ele>288.763</ele>
        <time>2019-09-26T09:49:35.001Z</time>
      </trkpt>
      <trkpt lat="47.60266" lon="6.51688">
        <ele>291.204</ele>
        <time>2019-09-26T09:50:05.001Z</time>
      </trkpt>
      <trkpt lat="47.60184" lon="6.51607">
        <ele>294.513</ele>
        <time>2019-09-26T09:50:38.001Z</time>
      </trkpt>
      <trkpt lat="47.60109" lon="6.51529">
        <ele>303.158</ele>
        <time>2019-09-26T09:51:08.001Z</time>
      </trkpt>
      <trkpt lat="47.60027" lon="6.51444">
        <ele>304.675</ele>
        <time>2019-09-26T09:51:41.001Z</time>
      </trkpt>
      <trkpt lat="47.59948" lon="6.5136">
        <ele>304.311</ele>
        <time>2019-09-26T09:52:11.001Z</time>
      </trkpt>
      <trkpt lat="47.59876" lon="6.51282">
        <ele>309.431</ele>
        <time>2019-09-26T09:52:41.001Z</time>
      </trkpt>
      <trkpt lat="47.59796" lon="6.51197">
        <ele>311.209</ele>
        <time>2019-09-26T09:53:14.001Z</time>
      </trkpt>
      <trkpt lat="47.59751" lon="6.5106">
        <ele>310.089</ele>
        <time>2019-09-26T09:53:44.001Z</time>
      </trkpt>
      <trkpt lat="47.59659" lon="6.50928">
        <ele>304.241</ele>
        <time>2019-09-26T09:54:17.001Z</time>
      </trkpt>
      <trkpt lat="47.59563" lon="6.50835">
        <ele>305.034</ele>
        <time>2019-09-26T09:54:47.001Z</time>
      </trkpt>
      <trkpt lat="47.59472" lon="6.50805">
        <ele>300.949</ele>
        <time>2019-09-26T09:55:20.001Z</time>
      </trkpt>
      <trkpt lat="47.59334" lon="6.50947">
        <ele>293.485</ele>
        <time>2019-09-26T09:55:50.001Z</time>
      </trkpt>
      <trkpt lat="47.59268" lon="6.51098">
        <ele>302.926</ele>
        <time>2019-09-26T09:56:23.001Z</time>
      </trkpt>
      <trkpt lat="47.59172" lon="6.51292">
        <ele>305.522</ele>
        <time>2019-09-26T09:56:53.001Z</time>
      </trkpt>
      <trkpt lat="47.59052" lon="6.5156">
        <ele>300.296</ele>
        <time>2019-09-26T09:57:26.001Z</time>
      </trkpt>
      <trkpt lat="47.58861" lon="6.51817">
        <ele>288.948</ele>
        <time>2019-09-26T09:57:56.001Z</time>
      </trkpt>
      <trkpt lat="47.58723" lon="6.52167">
        <ele>274.482</ele>
        <time>2019-09-26T09:58:29.001Z</time>
      </trkpt>
      <trkpt lat="47.58759" lon="6.52342">
        <ele>279.66</ele>
        <time>2019-09-26T09:58:59.001Z</time>
      </trkpt>
      <trkpt lat="47.58766" lon="6.52467">
        <ele>292.614</ele>
        <time>2019-09-26T09:59:32.001Z</time>
      </trkpt>
      <trkpt lat="47.58775" lon="6.52597">
        <ele>295.035</ele>
        <time>2019-09-26T12:00:02Z</time>
      </trkpt>
      <trkpt lat="47.58764" lon="6.52734">
        <ele>298.246</ele>
        <time>2019-09-26T10:00:35.001Z</time>
      </trkpt>
      <trkpt lat="47.58739" lon="6.52817">
        <ele>300.198</ele>
        <time>2019-09-26T10:01:05.001Z</time>
      </trkpt>
      <trkpt lat="47.58717" lon="6.52898">
        <ele>303.166</ele>
        <time>2019-09-26T10:01:38.001Z</time>
      </trkpt>
      <trkpt lat="47.58714" lon="6.52979">
        <ele>305.652</ele>
        <time>2019-09-26T10:02:08.001Z</time>
      </trkpt>
      <trkpt lat="47.58687" lon="6.53073">
        <ele>308.032</ele>
        <time>2019-09-26T10:02:41.001Z</time>
      </trkpt>
      <trkpt lat="47.58645" lon="6.5314">
        <ele>310.581</ele>
        <time>2019-09-26T10:03:11.001Z</time>
      </trkpt>
      <trkpt lat="47.58596" lon="6.53222">
        <ele>315.218</ele>
        <time>2019-09-26T10:03:44.001Z</time>
      </trkpt>
      <trkpt lat="47.58508" lon="6.53342">
        <ele>313.89</ele>
        <time>2019-09-26T10:04:14.001Z</time>
      </trkpt>
      <trkpt lat="47.58256" lon="6.53646">
        <ele>293.123</ele>
        <time>2019-09-26T10:04:44.001Z</time>
      </trkpt>
      <trkpt lat="47.58192" lon="6.53824">
        <ele>284.863</ele>
        <time>2019-09-26T10:05:17.001Z</time>
      </trkpt>
      <trkpt lat="47.58142" lon="6.53897">
        <ele>295.562</ele>
        <time>2019-09-26T10:05:47.001Z</time>
      </trkpt>
      <trkpt lat="47.58093" lon="6.53971">
        <ele>307.288</ele>
        <time>2019-09-26T10:06:20.001Z</time>
      </trkpt>
      <trkpt lat="47.58061" lon="6.54127">
        <ele>307.203</ele>
        <time>2019-09-26T10:06:50.001Z</time>
      </trkpt>
      <trkpt lat="47.57898" lon="6.54449">
        <ele>298.025</ele>
        <time>2019-09-26T10:07:23.001Z</time>
      </trkpt>
      <trkpt lat="47.57832" lon="6.54843">
        <ele>293.411</ele>
        <time>2019-09-26T10:07:53.001Z</time>
      </trkpt>
      <trkpt lat="47.57943" lon="6.55096">
        <ele>287.638</ele>
        <time>2019-09-26T10:08:26.001Z</time>
      </trkpt>
      <trkpt lat="47.58068" lon="6.55161">
        <ele>292.99</ele>
        <time>2019-09-26T10:08:56.001Z</time>
      </trkpt>
      <trkpt lat="47.58175" lon="6.55333">
        <ele>290.727</ele>
        <time>2019-09-26T10:09:29.001Z</time>
      </trkpt>
    </trkseg>
  </trk>
  <trk>
    <name><![CDATA[Tracé 20190930-091834]]></name>
    <trkseg>
      <trkpt lat="47.58184" lon="6.55366">
        <ele>290.239</ele>
        <time>2019-09-30T07:22:34Z</time>
      </trkpt>
      <trkpt lat="47.58113" lon="6.55239">
        <ele>289.644</ele>
        <time>2019-09-30T07:23:04Z</time>
      </trkpt>
      <trkpt lat="47.58019" lon="6.55119">
        <ele>288.99</ele>
        <time>2019-09-30T07:23:34Z</time>
      </trkpt>
      <trkpt lat="47.5789" lon="6.54996">
        <ele>291.041</ele>
        <time>2019-09-30T07:24:04Z</time>
      </trkpt>
      <trkpt lat="47.57808" lon="6.54837">
        <ele>283.979</ele>
        <time>2019-09-30T07:24:34Z</time>
      </trkpt>
      <trkpt lat="47.57656" lon="6.54868">
        <ele>284.194</ele>
        <time>2019-09-30T07:25:04Z</time>
      </trkpt>
      <trkpt lat="47.57535" lon="6.54912">
        <ele>288.407</ele>
        <time>2019-09-30T07:25:34Z</time>
      </trkpt>
      <trkpt lat="47.57463" lon="6.54863">
        <ele>295.288</ele>
        <time>2019-09-30T07:26:10Z</time>
      </trkpt>
      <trkpt lat="47.57381" lon="6.54657">
        <ele>292.118</ele>
        <time>2019-09-30T07:26:40Z</time>
      </trkpt>
      <trkpt lat="47.57315" lon="6.5447">
        <ele>291.396</ele>
        <time>2019-09-30T07:27:10Z</time>
      </trkpt>
      <trkpt lat="47.57242" lon="6.54306">
        <ele>287.866</ele>
        <time>2019-09-30T07:27:40Z</time>
      </trkpt>
      <trkpt lat="47.57161" lon="6.54157">
        <ele>288.925</ele>
        <time>2019-09-30T07:28:10Z</time>
      </trkpt>
      <trkpt lat="47.57029" lon="6.53918">
        <ele>285.462</ele>
        <time>2019-09-30T07:28:40Z</time>
      </trkpt>
      <trkpt lat="47.57012" lon="6.53667">
        <ele>287.678</ele>
        <time>2019-09-30T07:29:10Z</time>
      </trkpt>
      <trkpt lat="47.56939" lon="6.53469">
        <ele>302.791</ele>
        <time>2019-09-30T07:29:40Z</time>
      </trkpt>
      <trkpt lat="47.56866" lon="6.53304">
        <ele>291.979</ele>
        <time>2019-09-30T07:30:10Z</time>
      </trkpt>
      <trkpt lat="47.56797" lon="6.53211">
        <ele>293.845</ele>
        <time>2019-09-30T07:30:40Z</time>
      </trkpt>
      <trkpt lat="47.56726" lon="6.53134">
        <ele>294.182</ele>
        <time>2019-09-30T07:31:10Z</time>
      </trkpt>
      <trkpt lat="47.56638" lon="6.53064">
        <ele>299.156</ele>
        <time>2019-09-30T07:31:40Z</time>
      </trkpt>
      <trkpt lat="47.56614" lon="6.52799">
        <ele>296.672</ele>
        <time>2019-09-30T07:32:10Z</time>
      </trkpt>
      <trkpt lat="47.5659" lon="6.52652">
        <ele>295.53</ele>
        <time>2019-09-30T07:32:40Z</time>
      </trkpt>
      <trkpt lat="47.56729" lon="6.52501">
        <ele>288.612</ele>
        <time>2019-09-30T07:33:10Z</time>
      </trkpt>
      <trkpt lat="47.56843" lon="6.52294">
        <ele>275.581</ele>
        <time>2019-09-30T07:33:40Z</time>
      </trkpt>
      <trkpt lat="47.56967" lon="6.52212">
        <ele>278.445</ele>
        <time>2019-09-30T07:34:10Z</time>
      </trkpt>
      <trkpt lat="47.56994" lon="6.52034">
        <ele>289.663</ele>
        <time>2019-09-30T07:34:40Z</time>
      </trkpt>
      <trkpt lat="47.57054" lon="6.51904">
        <ele>304.618</ele>
        <time>2019-09-30T07:35:10Z</time>
      </trkpt>
      <trkpt lat="47.57125" lon="6.51765">
        <ele>303.736</ele>
        <time>2019-09-30T07:35:40Z</time>
      </trkpt>
      <trkpt lat="47.57228" lon="6.51566">
        <ele>286.539</ele>
        <time>2019-09-30T07:36:10Z</time>
      </trkpt>
      <trkpt lat="47.57325" lon="6.51367">
        <ele>282.495</ele>
        <time>2019-09-30T07:36:40Z</time>
      </trkpt>
      <trkpt lat="47.57409" lon="6.51205">
        <ele>292.913</ele>
        <time>2019-09-30T07:37:10Z</time>
      </trkpt>
      <trkpt lat="47.57519" lon="6.50985">
        <ele>297.965</ele>
        <time>2019-09-30T07:37:40Z</time>
      </trkpt>
      <trkpt lat="47.57631" lon="6.50759">
        <ele>296.488</ele>
        <time>2019-09-30T07:38:10Z</time>
      </trkpt>
      <trkpt lat="47.57726" lon="6.50567">
        <ele>282.496</ele>
        <time>2019-09-30T07:38:40Z</time>
      </trkpt>
      <trkpt lat="47.57786" lon="6.50386">
        <ele>282.188</ele>
        <time>2019-09-30T07:39:10Z</time>
      </trkpt>
      <trkpt lat="47.57788" lon="6.50277">
        <ele>295.898</ele>
        <time>2019-09-30T07:39:40Z</time>
      </trkpt>
      <trkpt lat="47.57808" lon="6.50184">
        <ele>295.28</ele>
        <time>2019-09-30T07:40:10Z</time>
      </trkpt>
      <trkpt lat="47.57874" lon="6.50145">
        <ele>299.216</ele>
        <time>2019-09-30T07:40:40Z</time>
      </trkpt>
      <trkpt lat="47.57923" lon="6.50093">
        <ele>304.851</ele>
        <time>2019-09-30T07:41:10Z</time>
      </trkpt>
      <trkpt lat="47.57906" lon="6.49949">
        <ele>305.157</ele>
        <time>2019-09-30T07:41:40Z</time>
      </trkpt>
      <trkpt lat="47.57885" lon="6.49696">
        <ele>296.354</ele>
        <time>2019-09-30T07:42:10Z</time>
      </trkpt>
      <trkpt lat="47.57854" lon="6.49509">
        <ele>292.874</ele>
        <time>2019-09-30T07:42:40Z</time>
      </trkpt>
      <trkpt lat="47.57835" lon="6.4938">
        <ele>299.364</ele>
        <time>2019-09-30T07:43:10Z</time>
      </trkpt>
      <trkpt lat="47.57838" lon="6.49229">
        <ele>291.872</ele>
        <time>2019-09-30T07:43:40Z</time>
      </trkpt>
      <trkpt lat="47.57883" lon="6.48848">
        <ele>278.288</ele>
        <time>2019-09-30T07:44:10Z</time>
      </trkpt>
      <trkpt lat="47.57898" lon="6.48751">
        <ele>280.687</ele>
        <time>2019-09-30T07:44:40Z</time>
      </trkpt>
      <trkpt lat="47.57922" lon="6.48663">
        <ele>284.821</ele>
        <time>2019-09-30T07:45:10Z</time>
      </trkpt>
      <trkpt lat="47.57979" lon="6.48516">
        <ele>286.648</ele>
        <time>2019-09-30T07:45:40Z</time>
      </trkpt>
      <trkpt lat="47.58012" lon="6.48214">
        <ele>281.112</ele>
        <time>2019-09-30T07:46:10Z</time>
      </trkpt>
      <trkpt lat="47.58021" lon="6.4805">
        <ele>284.348</ele>
        <time>2019-09-30T07:46:40Z</time>
      </trkpt>
      <trkpt lat="47.5801" lon="6.47926">
        <ele>291.182</ele>
        <time>2019-09-30T07:47:10Z</time>
      </trkpt>
      <trkpt lat="47.58028" lon="6.47689">
        <ele>288.004</ele>
        <time>2019-09-30T07:47:40Z</time>
      </trkpt>
      <trkpt lat="47.58125" lon="6.47433">
        <ele>277.317</ele>
        <time>2019-09-30T07:48:10Z</time>
      </trkpt>
      <trkpt lat="47.5811" lon="6.47239">
        <ele>284.882</ele>
        <time>2019-09-30T07:48:40Z</time>
      </trkpt>
      <trkpt lat="47.58144" lon="6.47179">
        <ele>290.92</ele>
        <time>2019-09-30T07:49:10Z</time>
      </trkpt>
      <trkpt lat="47.58034" lon="6.47136">
        <ele>283.063</ele>
        <time>2019-09-30T07:49:40Z</time>
      </trkpt>
      <trkpt lat="47.5788" lon="6.47133">
        <ele>275.879</ele>
        <time>2019-09-30T07:50:10Z</time>
      </trkpt>
      <trkpt lat="47.57719" lon="6.47138">
        <ele>272.938</ele>
        <time>2019-09-30T07:50:40Z</time>
      </trkpt>
      <trkpt lat="47.57575" lon="6.47057">
        <ele>269.89</ele>
        <time>2019-09-30T07:51:10Z</time>
      </trkpt>
      <trkpt lat="47.57487" lon="6.46849">
        <ele>268.024</ele>
        <time>2019-09-30T07:51:40Z</time>
      </trkpt>
      <trkpt lat="47.57383" lon="6.46682">
        <ele>268.016</ele>
        <time>2019-09-30T07:52:10Z</time>
      </trkpt>
      <trkpt lat="47.57241" lon="6.466">
        <ele>269.962</ele>
        <time>2019-09-30T07:52:40Z</time>
      </trkpt>
      <trkpt lat="47.57084" lon="6.46591">
        <ele>271.867</ele>
        <time>2019-09-30T07:53:10Z</time>
      </trkpt>
      <trkpt lat="47.57023" lon="6.46441">
        <ele>280.188</ele>
        <time>2019-09-30T07:53:40Z</time>
      </trkpt>
      <trkpt lat="47.56999" lon="6.46251">
        <ele>289.345</ele>
        <time>2019-09-30T07:54:10Z</time>
      </trkpt>
      <trkpt lat="47.56961" lon="6.45984">
        <ele>294.976</ele>
        <time>2019-09-30T07:54:40Z</time>
      </trkpt>
      <trkpt lat="47.56925" lon="6.45709">
        <ele>287.121</ele>
        <time>2019-09-30T07:55:10Z</time>
      </trkpt>
      <trkpt lat="47.56883" lon="6.45477">
        <ele>268.651</ele>
        <time>2019-09-30T07:55:40Z</time>
      </trkpt>
      <trkpt lat="47.56818" lon="6.45269">
        <ele>261.23</ele>
        <time>2019-09-30T07:56:10Z</time>
      </trkpt>
      <trkpt lat="47.56752" lon="6.45064">
        <ele>261.87</ele>
        <time>2019-09-30T07:56:40Z</time>
      </trkpt>
      <trkpt lat="47.56653" lon="6.44885">
        <ele>273.859</ele>
        <time>2019-09-30T07:57:10Z</time>
      </trkpt>
      <trkpt lat="47.56533" lon="6.44858">
        <ele>277.727</ele>
        <time>2019-09-30T07:57:40Z</time>
      </trkpt>
      <trkpt lat="47.56422" lon="6.4505">
        <ele>271.244</ele>
        <time>2019-09-30T07:58:10Z</time>
      </trkpt>
      <trkpt lat="47.56359" lon="6.45264">
        <ele>267.309</ele>
        <time>2019-09-30T07:58:40Z</time>
      </trkpt>
      <trkpt lat="47.56262" lon="6.45336">
        <ele>271.082</ele>
        <time>2019-09-30T07:59:10Z</time>
      </trkpt>
      <trkpt lat="47.56228" lon="6.45225">
        <ele>279.679</ele>
        <time>2019-09-30T07:59:40Z</time>
      </trkpt>
      <trkpt lat="47.56193" lon="6.4512">
        <ele>286.423</ele>
        <time>2019-09-30T08:00:10Z</time>
      </trkpt>
      <trkpt lat="47.56138" lon="6.45027">
        <ele>289.733</ele>
        <time>2019-09-30T08:00:40Z</time>
      </trkpt>
      <trkpt lat="47.56084" lon="6.44955">
        <ele>294.323</ele>
        <time>2019-09-30T08:01:10Z</time>
      </trkpt>
      <trkpt lat="47.56029" lon="6.44877">
        <ele>293.75</ele>
        <time>2019-09-30T08:01:40Z</time>
      </trkpt>
      <trkpt lat="47.55984" lon="6.44795">
        <ele>295.58</ele>
        <time>2019-09-30T08:02:10Z</time>
      </trkpt>
      <trkpt lat="47.5592" lon="6.44718">
        <ele>295.514</ele>
        <time>2019-09-30T08:02:40Z</time>
      </trkpt>
      <trkpt lat="47.5586" lon="6.44587">
        <ele>293.74</ele>
        <time>2019-09-30T08:03:10Z</time>
      </trkpt>
      <trkpt lat="47.5577" lon="6.44386">
        <ele>294.72</ele>
        <time>2019-09-30T08:03:40Z</time>
      </trkpt>
      <trkpt lat="47.55673" lon="6.44234">
        <ele>293.759</ele>
        <time>2019-09-30T08:04:10Z</time>
      </trkpt>
      <trkpt lat="47.55566" lon="6.44032">
        <ele>289.848</ele>
        <time>2019-09-30T08:04:40Z</time>
      </trkpt>
      <trkpt lat="47.55349" lon="6.43822">
        <ele>276.55</ele>
        <time>2019-09-30T08:05:10Z</time>
      </trkpt>
      <trkpt lat="47.55268" lon="6.43694">
        <ele>278.568</ele>
        <time>2019-09-30T08:05:40Z</time>
      </trkpt>
      <trkpt lat="47.55195" lon="6.43593">
        <ele>285.08</ele>
        <time>2019-09-30T08:06:10Z</time>
      </trkpt>
      <trkpt lat="47.55136" lon="6.43528">
        <ele>291.823</ele>
        <time>2019-09-30T08:06:40Z</time>
      </trkpt>
      <trkpt lat="47.55062" lon="6.43412">
        <ele>298.701</ele>
        <time>2019-09-30T08:07:10Z</time>
      </trkpt>
      <trkpt lat="47.55006" lon="6.43169">
        <ele>285.402</ele>
        <time>2019-09-30T08:07:40Z</time>
      </trkpt>
      <trkpt lat="47.54954" lon="6.42879">
        <ele>270.696</ele>
        <time>2019-09-30T08:08:10Z</time>
      </trkpt>
      <trkpt lat="47.54973" lon="6.42822">
        <ele>267.242</ele>
        <time>2019-09-30T08:09:22Z</time>
      </trkpt>
      <trkpt lat="47.54955" lon="6.42802">
        <ele>273.743</ele>
        <time>2019-09-30T08:37:07Z</time>
      </trkpt>
      <trkpt lat="47.54946" lon="6.42938">
        <ele>275.381</ele>
        <time>2019-09-30T08:37:37Z</time>
      </trkpt>
      <trkpt lat="47.54983" lon="6.43065">
        <ele>277.81</ele>
        <time>2019-09-30T08:38:07Z</time>
      </trkpt>
      <trkpt lat="47.55024" lon="6.43167">
        <ele>279.467</ele>
        <time>2019-09-30T08:38:37Z</time>
      </trkpt>
      <trkpt lat="47.55111" lon="6.43192">
        <ele>284.521</ele>
        <time>2019-09-30T08:39:10Z</time>
      </trkpt>
      <trkpt lat="47.55082" lon="6.4324">
        <ele>288.382</ele>
        <time>2019-09-30T08:39:40Z</time>
      </trkpt>
      <trkpt lat="47.55012" lon="6.43295">
        <ele>281.381</ele>
        <time>2019-09-30T08:40:10Z</time>
      </trkpt>
      <trkpt lat="47.55021" lon="6.4338">
        <ele>285.557</ele>
        <time>2019-09-30T08:40:40Z</time>
      </trkpt>
      <trkpt lat="47.551" lon="6.43454">
        <ele>290.705</ele>
        <time>2019-09-30T08:41:10Z</time>
      </trkpt>
      <trkpt lat="47.55292" lon="6.43511">
        <ele>279.823</ele>
        <time>2019-09-30T08:41:40Z</time>
      </trkpt>
      <trkpt lat="47.55449" lon="6.43504">
        <ele>268.437</ele>
        <time>2019-09-30T08:42:10Z</time>
      </trkpt>
      <trkpt lat="47.55604" lon="6.43489">
        <ele>263.2</ele>
        <time>2019-09-30T08:42:40Z</time>
      </trkpt>
      <trkpt lat="47.55648" lon="6.43273">
        <ele>267.838</ele>
        <time>2019-09-30T08:43:10Z</time>
      </trkpt>
      <trkpt lat="47.55625" lon="6.43141">
        <ele>270.313</ele>
        <time>2019-09-30T08:43:40Z</time>
      </trkpt>
      <trkpt lat="47.55558" lon="6.4297">
        <ele>269.55</ele>
        <time>2019-09-30T08:44:10Z</time>
      </trkpt>
      <trkpt lat="47.55531" lon="6.42759">
        <ele>268.025</ele>
        <time>2019-09-30T08:44:40Z</time>
      </trkpt>
      <trkpt lat="47.55516" lon="6.42499">
        <ele>266.459</ele>
        <time>2019-09-30T08:45:10Z</time>
      </trkpt>
      <trkpt lat="47.55503" lon="6.42256">
        <ele>264.6</ele>
        <time>2019-09-30T08:45:40Z</time>
      </trkpt>
      <trkpt lat="47.55491" lon="6.4203">
        <ele>263.78</ele>
        <time>2019-09-30T08:46:10Z</time>
      </trkpt>
      <trkpt lat="47.55481" lon="6.41818">
        <ele>265.747</ele>
        <time>2019-09-30T08:46:40Z</time>
      </trkpt>
      <trkpt lat="47.55474" lon="6.41722">
        <ele>265.354</ele>
        <time>2019-09-30T08:47:22Z</time>
      </trkpt>
      <trkpt lat="47.55382" lon="6.41514">
        <ele>262.946</ele>
        <time>2019-09-30T08:47:52Z</time>
      </trkpt>
      <trkpt lat="47.55399" lon="6.41445">
        <ele>260.056</ele>
        <time>2019-09-30T08:48:22Z</time>
      </trkpt>
      <trkpt lat="47.55345" lon="6.41314">
        <ele>266.217</ele>
        <time>2019-09-30T08:48:52Z</time>
      </trkpt>
      <trkpt lat="47.55215" lon="6.41137">
        <ele>269.505</ele>
        <time>2019-09-30T08:49:22Z</time>
      </trkpt>
      <trkpt lat="47.5509" lon="6.4101">
        <ele>262.49</ele>
        <time>2019-09-30T08:49:52Z</time>
      </trkpt>
      <trkpt lat="47.54949" lon="6.40916">
        <ele>262.954</ele>
        <time>2019-09-30T08:50:22Z</time>
      </trkpt>
      <trkpt lat="47.54794" lon="6.40856">
        <ele>268.053</ele>
        <time>2019-09-30T08:50:52Z</time>
      </trkpt>
      <trkpt lat="47.54634" lon="6.40851">
        <ele>268.39</ele>
        <time>2019-09-30T08:51:22Z</time>
      </trkpt>
      <trkpt lat="47.54503" lon="6.40818">
        <ele>276.617</ele>
        <time>2019-09-30T08:51:52Z</time>
      </trkpt>
      <trkpt lat="47.54383" lon="6.40749">
        <ele>277.997</ele>
        <time>2019-09-30T08:52:22Z</time>
      </trkpt>
      <trkpt lat="47.54272" lon="6.4066">
        <ele>280.5</ele>
        <time>2019-09-30T08:52:52Z</time>
      </trkpt>
      <trkpt lat="47.54176" lon="6.40551">
        <ele>285.151</ele>
        <time>2019-09-30T08:53:22Z</time>
      </trkpt>
      <trkpt lat="47.54102" lon="6.40435">
        <ele>278.936</ele>
        <time>2019-09-30T08:53:52Z</time>
      </trkpt>
      <trkpt lat="47.54053" lon="6.40297">
        <ele>280.626</ele>
        <time>2019-09-30T08:54:22Z</time>
      </trkpt>
      <trkpt lat="47.53985" lon="6.40056">
        <ele>281.672</ele>
        <time>2019-09-30T08:54:52Z</time>
      </trkpt>
      <trkpt lat="47.53965" lon="6.39975">
        <ele>276.276</ele>
        <time>2019-09-30T08:55:55Z</time>
      </trkpt>
      <trkpt lat="47.53914" lon="6.39767">
        <ele>277.149</ele>
        <time>2019-09-30T08:56:25Z</time>
      </trkpt>
      <trkpt lat="47.53855" lon="6.39525">
        <ele>282.933</ele>
        <time>2019-09-30T08:56:55Z</time>
      </trkpt>
      <trkpt lat="47.53796" lon="6.39284">
        <ele>279.294</ele>
        <time>2019-09-30T08:57:25Z</time>
      </trkpt>
      <trkpt lat="47.53727" lon="6.39043">
        <ele>260.754</ele>
        <time>2019-09-30T08:57:55Z</time>
      </trkpt>
      <trkpt lat="47.53665" lon="6.38778">
        <ele>260.033</ele>
        <time>2019-09-30T08:58:25Z</time>
      </trkpt>
      <trkpt lat="47.5365" lon="6.38721">
        <ele>259.645</ele>
        <time>2019-09-30T08:59:34Z</time>
      </trkpt>
      <trkpt lat="47.53596" lon="6.38568">
        <ele>259.276</ele>
        <time>2019-09-30T09:00:04Z</time>
      </trkpt>
      <trkpt lat="47.53488" lon="6.38422">
        <ele>261.083</ele>
        <time>2019-09-30T09:00:34Z</time>
      </trkpt>
      <trkpt lat="47.53337" lon="6.38345">
        <ele>258.976</ele>
        <time>2019-09-30T09:01:04Z</time>
      </trkpt>
      <trkpt lat="47.53219" lon="6.38358">
        <ele>263.622</ele>
        <time>2019-09-30T09:01:34Z</time>
      </trkpt>
      <trkpt lat="47.53103" lon="6.38423">
        <ele>267.103</ele>
        <time>2019-09-30T09:02:04Z</time>
      </trkpt>
      <trkpt lat="47.52943" lon="6.38516">
        <ele>264.13</ele>
        <time>2019-09-30T09:02:34Z</time>
      </trkpt>
      <trkpt lat="47.52798" lon="6.38604">
        <ele>264.363</ele>
        <time>2019-09-30T09:03:04Z</time>
      </trkpt>
      <trkpt lat="47.52661" lon="6.38696">
        <ele>266.951</ele>
        <time>2019-09-30T09:03:34Z</time>
      </trkpt>
      <trkpt lat="47.52513" lon="6.38726">
        <ele>270.603</ele>
        <time>2019-09-30T09:04:04Z</time>
      </trkpt>
      <trkpt lat="47.52373" lon="6.38718">
        <ele>268.931</ele>
        <time>2019-09-30T09:04:34Z</time>
      </trkpt>
      <trkpt lat="47.52203" lon="6.38671">
        <ele>258.724</ele>
        <time>2019-09-30T09:05:04Z</time>
      </trkpt>
      <trkpt lat="47.52083" lon="6.38567">
        <ele>259.611</ele>
        <time>2019-09-30T09:05:34Z</time>
      </trkpt>
      <trkpt lat="47.51985" lon="6.38417">
        <ele>261.016</ele>
        <time>2019-09-30T09:06:04Z</time>
      </trkpt>
      <trkpt lat="47.51898" lon="6.3828">
        <ele>261.33</ele>
        <time>2019-09-30T09:06:34Z</time>
      </trkpt>
      <trkpt lat="47.51859" lon="6.38213">
        <ele>265.739</ele>
        <time>2019-09-30T09:07:07Z</time>
      </trkpt>
      <trkpt lat="47.51784" lon="6.3809">
        <ele>265.203</ele>
        <time>2019-09-30T09:07:37Z</time>
      </trkpt>
      <trkpt lat="47.51701" lon="6.37951">
        <ele>266.731</ele>
        <time>2019-09-30T09:08:07Z</time>
      </trkpt>
      <trkpt lat="47.51609" lon="6.37815">
        <ele>269.09</ele>
        <time>2019-09-30T09:08:37Z</time>
      </trkpt>
      <trkpt lat="47.51477" lon="6.37716">
        <ele>268.63</ele>
        <time>2019-09-30T09:09:07Z</time>
      </trkpt>
      <trkpt lat="47.51365" lon="6.37686">
        <ele>268.058</ele>
        <time>2019-09-30T09:09:37Z</time>
      </trkpt>
      <trkpt lat="47.51223" lon="6.37678">
        <ele>267.347</ele>
        <time>2019-09-30T09:10:10Z</time>
      </trkpt>
      <trkpt lat="47.51109" lon="6.37643">
        <ele>275.347</ele>
        <time>2019-09-30T09:10:40Z</time>
      </trkpt>
      <trkpt lat="47.50998" lon="6.37558">
        <ele>284.211</ele>
        <time>2019-09-30T09:11:10Z</time>
      </trkpt>
      <trkpt lat="47.50914" lon="6.37438">
        <ele>281.094</ele>
        <time>2019-09-30T09:11:40Z</time>
      </trkpt>
      <trkpt lat="47.50851" lon="6.37301">
        <ele>284.14</ele>
        <time>2019-09-30T09:12:10Z</time>
      </trkpt>
      <trkpt lat="47.5079" lon="6.37131">
        <ele>291.949</ele>
        <time>2019-09-30T09:12:40Z</time>
      </trkpt>
      <trkpt lat="47.50698" lon="6.36936">
        <ele>289.564</ele>
        <time>2019-09-30T09:13:10Z</time>
      </trkpt>
      <trkpt lat="47.50669" lon="6.36882">
        <ele>280.427</ele>
        <time>2019-09-30T09:14:10Z</time>
      </trkpt>
      <trkpt lat="47.50658" lon="6.36785">
        <ele>275.569</ele>
        <time>2019-09-30T09:14:40Z</time>
      </trkpt>
      <trkpt lat="47.50584" lon="6.36696">
        <ele>274.835</ele>
        <time>2019-09-30T09:15:10Z</time>
      </trkpt>
      <trkpt lat="47.50559" lon="6.36562">
        <ele>273.872</ele>
        <time>2019-09-30T09:15:40Z</time>
      </trkpt>
      <trkpt lat="47.50516" lon="6.36482">
        <ele>275.26</ele>
        <time>2019-09-30T09:16:10Z</time>
      </trkpt>
      <trkpt lat="47.50478" lon="6.3639">
        <ele>280.95</ele>
        <time>2019-09-30T09:16:40Z</time>
      </trkpt>
      <trkpt lat="47.50445" lon="6.36213">
        <ele>282.359</ele>
        <time>2019-09-30T09:17:10Z</time>
      </trkpt>
      <trkpt lat="47.50392" lon="6.3598">
        <ele>267.097</ele>
        <time>2019-09-30T09:17:40Z</time>
      </trkpt>
      <trkpt lat="47.50423" lon="6.35833">
        <ele>264.131</ele>
        <time>2019-09-30T09:18:10Z</time>
      </trkpt>
      <trkpt lat="47.50575" lon="6.3563">
        <ele>266.118</ele>
        <time>2019-09-30T09:18:40Z</time>
      </trkpt>
      <trkpt lat="47.50635" lon="6.35528">
        <ele>259.028</ele>
        <time>2019-09-30T09:19:10Z</time>
      </trkpt>
      <trkpt lat="47.50529" lon="6.35371">
        <ele>260.966</ele>
        <time>2019-09-30T09:19:40Z</time>
      </trkpt>
      <trkpt lat="47.50452" lon="6.35393">
        <ele>268.941</ele>
        <time>2019-09-30T09:20:10Z</time>
      </trkpt>
      <trkpt lat="47.50379" lon="6.35435">
        <ele>281.147</ele>
        <time>2019-09-30T09:20:40Z</time>
      </trkpt>
      <trkpt lat="47.50299" lon="6.35461">
        <ele>285.493</ele>
        <time>2019-09-30T09:21:10Z</time>
      </trkpt>
      <trkpt lat="47.50242" lon="6.35539">
        <ele>289.527</ele>
        <time>2019-09-30T09:21:40Z</time>
      </trkpt>
      <trkpt lat="47.50195" lon="6.35614">
        <ele>296.491</ele>
        <time>2019-09-30T09:22:10Z</time>
      </trkpt>
      <trkpt lat="47.50119" lon="6.35604">
        <ele>297.885</ele>
        <time>2019-09-30T09:22:40Z</time>
      </trkpt>
      <trkpt lat="47.5007" lon="6.35543">
        <ele>303.45</ele>
        <time>2019-09-30T09:23:10Z</time>
      </trkpt>
      <trkpt lat="47.5001" lon="6.35461">
        <ele>311.59</ele>
        <time>2019-09-30T09:23:40Z</time>
      </trkpt>
      <trkpt lat="47.49917" lon="6.35345">
        <ele>308.142</ele>
        <time>2019-09-30T09:24:10Z</time>
      </trkpt>
      <trkpt lat="47.49801" lon="6.35255">
        <ele>308.144</ele>
        <time>2019-09-30T09:24:40Z</time>
      </trkpt>
      <trkpt lat="47.49649" lon="6.35273">
        <ele>286.303</ele>
        <time>2019-09-30T09:25:10Z</time>
      </trkpt>
      <trkpt lat="47.4941" lon="6.3531">
        <ele>272.286</ele>
        <time>2019-09-30T09:25:40Z</time>
      </trkpt>
      <trkpt lat="47.49268" lon="6.35316">
        <ele>274.18</ele>
        <time>2019-09-30T09:26:10Z</time>
      </trkpt>
      <trkpt lat="47.49175" lon="6.35309">
        <ele>281.503</ele>
        <time>2019-09-30T09:26:40Z</time>
      </trkpt>
      <trkpt lat="47.49082" lon="6.35373">
        <ele>281.731</ele>
        <time>2019-09-30T09:27:10Z</time>
      </trkpt>
      <trkpt lat="47.48904" lon="6.35402">
        <ele>273.675</ele>
        <time>2019-09-30T09:27:40Z</time>
      </trkpt>
      <trkpt lat="47.48638" lon="6.355">
        <ele>262.804</ele>
        <time>2019-09-30T09:28:10Z</time>
      </trkpt>
      <trkpt lat="47.4835" lon="6.35465">
        <ele>253.306</ele>
        <time>2019-09-30T09:28:40Z</time>
      </trkpt>
      <trkpt lat="47.48196" lon="6.35587">
        <ele>250.276</ele>
        <time>2019-09-30T09:29:10Z</time>
      </trkpt>
      <trkpt lat="47.48069" lon="6.35506">
        <ele>259.642</ele>
        <time>2019-09-30T09:29:40Z</time>
      </trkpt>
      <trkpt lat="47.48023" lon="6.35593">
        <ele>260.046</ele>
        <time>2019-09-30T09:30:10Z</time>
      </trkpt>
      <trkpt lat="47.47961" lon="6.35757">
        <ele>260.34</ele>
        <time>2019-09-30T09:30:40Z</time>
      </trkpt>
      <trkpt lat="47.48008" lon="6.35956">
        <ele>256.731</ele>
        <time>2019-09-30T09:31:10Z</time>
      </trkpt>
      <trkpt lat="47.48001" lon="6.36177">
        <ele>254.757</ele>
        <time>2019-09-30T09:31:40Z</time>
      </trkpt>
      <trkpt lat="47.47995" lon="6.36276">
        <ele>254.966</ele>
        <time>2019-09-30T09:33:40Z</time>
      </trkpt>
      <trkpt lat="47.47986" lon="6.36465">
        <ele>253.546</ele>
        <time>2019-09-30T09:34:10Z</time>
      </trkpt>
      <trkpt lat="47.47965" lon="6.36639">
        <ele>260.482</ele>
        <time>2019-09-30T09:34:40Z</time>
      </trkpt>
      <trkpt lat="47.4792" lon="6.36809">
        <ele>262.937</ele>
        <time>2019-09-30T09:35:10Z</time>
      </trkpt>
      <trkpt lat="47.47884" lon="6.37011">
        <ele>260.321</ele>
        <time>2019-09-30T09:35:40Z</time>
      </trkpt>
      <trkpt lat="47.47966" lon="6.37233">
        <ele>259.054</ele>
        <time>2019-09-30T09:36:10Z</time>
      </trkpt>
      <trkpt lat="47.48044" lon="6.37432">
        <ele>260.281</ele>
        <time>2019-09-30T09:36:40Z</time>
      </trkpt>
      <trkpt lat="47.48121" lon="6.37633">
        <ele>262.68</ele>
        <time>2019-09-30T09:37:10Z</time>
      </trkpt>
      <trkpt lat="47.48141" lon="6.37842">
        <ele>264.557</ele>
        <time>2019-09-30T09:37:40Z</time>
      </trkpt>
      <trkpt lat="47.48131" lon="6.38041">
        <ele>272.767</ele>
        <time>2019-09-30T09:38:10Z</time>
      </trkpt>
      <trkpt lat="47.48135" lon="6.38233">
        <ele>269.089</ele>
        <time>2019-09-30T09:38:40Z</time>
      </trkpt>
      <trkpt lat="47.47978" lon="6.38114">
        <ele>268.874</ele>
        <time>2019-09-30T09:39:10Z</time>
      </trkpt>
      <trkpt lat="47.47853" lon="6.38093">
        <ele>266.777</ele>
        <time>2019-09-30T09:39:40Z</time>
      </trkpt>
      <trkpt lat="47.47782" lon="6.38096">
        <ele>267.838</ele>
        <time>2019-09-30T09:40:10Z</time>
      </trkpt>
      <trkpt lat="47.47713" lon="6.38102">
        <ele>273.04</ele>
        <time>2019-09-30T09:40:40Z</time>
      </trkpt>
      <trkpt lat="47.47651" lon="6.38106">
        <ele>279.204</ele>
        <time>2019-09-30T09:41:10Z</time>
      </trkpt>
      <trkpt lat="47.47589" lon="6.38108">
        <ele>285.063</ele>
        <time>2019-09-30T09:41:40Z</time>
      </trkpt>
      <trkpt lat="47.47515" lon="6.38111">
        <ele>292.163</ele>
        <time>2019-09-30T09:42:10Z</time>
      </trkpt>
      <trkpt lat="47.47432" lon="6.38088">
        <ele>291.533</ele>
        <time>2019-09-30T09:42:40Z</time>
      </trkpt>
      <trkpt lat="47.4733" lon="6.38044">
        <ele>292.859</ele>
        <time>2019-09-30T09:43:10Z</time>
      </trkpt>
      <trkpt lat="47.47189" lon="6.37983">
        <ele>291.888</ele>
        <time>2019-09-30T09:43:40Z</time>
      </trkpt>
      <trkpt lat="47.47029" lon="6.3796">
        <ele>291.871</ele>
        <time>2019-09-30T09:44:10Z</time>
      </trkpt>
      <trkpt lat="47.46892" lon="6.38005">
        <ele>288.761</ele>
        <time>2019-09-30T09:44:40Z</time>
      </trkpt>
      <trkpt lat="47.46813" lon="6.38046">
        <ele>288.504</ele>
        <time>2019-09-30T09:45:10Z</time>
      </trkpt>
      <trkpt lat="47.4675" lon="6.3807">
        <ele>295.314</ele>
        <time>2019-09-30T09:45:40Z</time>
      </trkpt>
      <trkpt lat="47.4669" lon="6.38067">
        <ele>300.643</ele>
        <time>2019-09-30T09:46:10Z</time>
      </trkpt>
      <trkpt lat="47.46631" lon="6.38039">
        <ele>306.321</ele>
        <time>2019-09-30T09:46:40Z</time>
      </trkpt>
      <trkpt lat="47.46573" lon="6.37986">
        <ele>307.909</ele>
        <time>2019-09-30T09:47:10Z</time>
      </trkpt>
      <trkpt lat="47.46518" lon="6.37927">
        <ele>309.837</ele>
        <time>2019-09-30T09:47:40Z</time>
      </trkpt>
      <trkpt lat="47.46449" lon="6.37875">
        <ele>313.319</ele>
        <time>2019-09-30T09:48:10Z</time>
      </trkpt>
      <trkpt lat="47.46384" lon="6.37827">
        <ele>316.25</ele>
        <time>2019-09-30T09:48:40Z</time>
      </trkpt>
      <trkpt lat="47.46319" lon="6.37784">
        <ele>318.349</ele>
        <time>2019-09-30T09:49:10Z</time>
      </trkpt>
      <trkpt lat="47.46249" lon="6.37748">
        <ele>323.564</ele>
        <time>2019-09-30T09:49:40Z</time>
      </trkpt>
      <trkpt lat="47.46168" lon="6.37707">
        <ele>327.031</ele>
        <time>2019-09-30T09:50:10Z</time>
      </trkpt>
      <trkpt lat="47.4606" lon="6.37629">
        <ele>323.466</ele>
        <time>2019-09-30T09:50:40Z</time>
      </trkpt>
      <trkpt lat="47.45963" lon="6.37557">
        <ele>323.8</ele>
        <time>2019-09-30T09:51:10Z</time>
      </trkpt>
      <trkpt lat="47.45897" lon="6.37483">
        <ele>326.12</ele>
        <time>2019-09-30T09:51:40Z</time>
      </trkpt>
      <trkpt lat="47.45844" lon="6.3741">
        <ele>332.565</ele>
        <time>2019-09-30T09:52:10Z</time>
      </trkpt>
      <trkpt lat="47.45786" lon="6.37335">
        <ele>338.274</ele>
        <time>2019-09-30T09:52:40Z</time>
      </trkpt>
      <trkpt lat="47.45713" lon="6.37272">
        <ele>343.004</ele>
        <time>2019-09-30T09:53:10Z</time>
      </trkpt>
      <trkpt lat="47.45586" lon="6.37239">
        <ele>339.715</ele>
        <time>2019-09-30T09:53:40Z</time>
      </trkpt>
      <trkpt lat="47.45458" lon="6.37267">
        <ele>335.856</ele>
        <time>2019-09-30T09:54:10Z</time>
      </trkpt>
      <trkpt lat="47.4536" lon="6.37294">
        <ele>337.26</ele>
        <time>2019-09-30T09:54:40Z</time>
      </trkpt>
      <trkpt lat="47.45287" lon="6.37275">
        <ele>344.104</ele>
        <time>2019-09-30T09:55:10Z</time>
      </trkpt>
      <trkpt lat="47.45231" lon="6.37235">
        <ele>353.649</ele>
        <time>2019-09-30T09:55:40Z</time>
      </trkpt>
      <trkpt lat="47.45178" lon="6.37196">
        <ele>358.56</ele>
        <time>2019-09-30T09:56:10Z</time>
      </trkpt>
      <trkpt lat="47.45116" lon="6.37172">
        <ele>360.498</ele>
        <time>2019-09-30T09:56:40Z</time>
      </trkpt>
      <trkpt lat="47.45042" lon="6.37182">
        <ele>354.268</ele>
        <time>2019-09-30T09:57:10Z</time>
      </trkpt>
      <trkpt lat="47.44955" lon="6.37256">
        <ele>351.304</ele>
        <time>2019-09-30T09:57:40Z</time>
      </trkpt>
      <trkpt lat="47.44858" lon="6.3738">
        <ele>356.768</ele>
        <time>2019-09-30T09:58:10Z</time>
      </trkpt>
      <trkpt lat="47.44731" lon="6.37437">
        <ele>355.412</ele>
        <time>2019-09-30T09:58:40Z</time>
      </trkpt>
      <trkpt lat="47.44567" lon="6.3747">
        <ele>357.904</ele>
        <time>2019-09-30T09:59:10Z</time>
      </trkpt>
      <trkpt lat="47.44413" lon="6.37542">
        <ele>354.418</ele>
        <time>2019-09-30T09:59:40Z</time>
      </trkpt>
      <trkpt lat="47.44315" lon="6.37566">
        <ele>360.01</ele>
        <time>2019-09-30T10:00:10Z</time>
      </trkpt>
      <trkpt lat="47.44217" lon="6.37584">
        <ele>361.152</ele>
        <time>2019-09-30T10:00:40Z</time>
      </trkpt>
      <trkpt lat="47.44098" lon="6.37591">
        <ele>363.939</ele>
        <time>2019-09-30T10:01:10Z</time>
      </trkpt>
      <trkpt lat="47.43884" lon="6.3748">
        <ele>356.091</ele>
        <time>2019-09-30T10:01:40Z</time>
      </trkpt>
      <trkpt lat="47.43654" lon="6.37351">
        <ele>347.029</ele>
        <time>2019-09-30T10:02:10Z</time>
      </trkpt>
      <trkpt lat="47.43527" lon="6.37346">
        <ele>349.417</ele>
        <time>2019-09-30T10:02:40Z</time>
      </trkpt>
      <trkpt lat="47.4342" lon="6.37382">
        <ele>349.961</ele>
        <time>2019-09-30T10:03:10Z</time>
      </trkpt>
      <trkpt lat="47.43299" lon="6.37401">
        <ele>351.219</ele>
        <time>2019-09-30T10:03:40Z</time>
      </trkpt>
      <trkpt lat="47.43179" lon="6.37422">
        <ele>351.283</ele>
        <time>2019-09-30T10:04:10Z</time>
      </trkpt>
      <trkpt lat="47.43056" lon="6.3746">
        <ele>354.581</ele>
        <time>2019-09-30T10:04:40Z</time>
      </trkpt>
      <trkpt lat="47.4297" lon="6.37486">
        <ele>359.869</ele>
        <time>2019-09-30T10:05:10Z</time>
      </trkpt>
      <trkpt lat="47.42899" lon="6.37514">
        <ele>364.081</ele>
        <time>2019-09-30T10:05:40Z</time>
      </trkpt>
      <trkpt lat="47.4283" lon="6.37568">
        <ele>369.295</ele>
        <time>2019-09-30T10:06:10Z</time>
      </trkpt>
      <trkpt lat="47.42756" lon="6.37608">
        <ele>370.968</ele>
        <time>2019-09-30T10:06:40Z</time>
      </trkpt>
      <trkpt lat="47.42686" lon="6.3763">
        <ele>374.908</ele>
        <time>2019-09-30T10:07:10Z</time>
      </trkpt>
      <trkpt lat="47.42619" lon="6.37649">
        <ele>379.659</ele>
        <time>2019-09-30T10:07:40Z</time>
      </trkpt>
      <trkpt lat="47.42552" lon="6.37668">
        <ele>381.199</ele>
        <time>2019-09-30T10:08:10Z</time>
      </trkpt>
      <trkpt lat="47.4249" lon="6.37685">
        <ele>384.656</ele>
        <time>2019-09-30T10:08:40Z</time>
      </trkpt>
      <trkpt lat="47.42429" lon="6.37702">
        <ele>391.418</ele>
        <time>2019-09-30T10:09:10Z</time>
      </trkpt>
      <trkpt lat="47.42358" lon="6.37703">
        <ele>398.179</ele>
        <time>2019-09-30T10:09:40Z</time>
      </trkpt>
      <trkpt lat="47.42291" lon="6.37699">
        <ele>402.151</ele>
        <time>2019-09-30T10:10:10Z</time>
      </trkpt>
      <trkpt lat="47.42222" lon="6.37692">
        <ele>399.946</ele>
        <time>2019-09-30T10:10:40Z</time>
      </trkpt>
      <trkpt lat="47.42156" lon="6.37694">
        <ele>402.299</ele>
        <time>2019-09-30T10:11:10Z</time>
      </trkpt>
      <trkpt lat="47.42089" lon="6.37692">
        <ele>409.462</ele>
        <time>2019-09-30T10:11:40Z</time>
      </trkpt>
      <trkpt lat="47.4202" lon="6.37692">
        <ele>411.332</ele>
        <time>2019-09-30T10:12:10Z</time>
      </trkpt>
      <trkpt lat="47.41954" lon="6.3769">
        <ele>412.101</ele>
        <time>2019-09-30T10:12:40Z</time>
      </trkpt>
      <trkpt lat="47.41882" lon="6.37685">
        <ele>412.924</ele>
        <time>2019-09-30T10:13:10Z</time>
      </trkpt>
      <trkpt lat="47.41805" lon="6.37686">
        <ele>414.632</ele>
        <time>2019-09-30T10:13:40Z</time>
      </trkpt>
      <trkpt lat="47.41714" lon="6.37682">
        <ele>417.066</ele>
        <time>2019-09-30T10:14:10Z</time>
      </trkpt>
      <trkpt lat="47.41586" lon="6.37681">
        <ele>417.695</ele>
        <time>2019-09-30T10:14:40Z</time>
      </trkpt>
      <trkpt lat="47.41451" lon="6.37681">
        <ele>416.108</ele>
        <time>2019-09-30T10:15:10Z</time>
      </trkpt>
      <trkpt lat="47.41318" lon="6.37678">
        <ele>415.24</ele>
        <time>2019-09-30T10:15:40Z</time>
      </trkpt>
      <trkpt lat="47.41189" lon="6.37678">
        <ele>416.561</ele>
        <time>2019-09-30T10:16:10Z</time>
      </trkpt>
      <trkpt lat="47.41063" lon="6.37675">
        <ele>417.347</ele>
        <time>2019-09-30T10:16:40Z</time>
      </trkpt>
      <trkpt lat="47.40939" lon="6.37673">
        <ele>417.659</ele>
        <time>2019-09-30T10:17:10Z</time>
      </trkpt>
      <trkpt lat="47.40823" lon="6.37669">
        <ele>419.909</ele>
        <time>2019-09-30T10:17:40Z</time>
      </trkpt>
      <trkpt lat="47.40723" lon="6.37669">
        <ele>423.581</ele>
        <time>2019-09-30T10:18:10Z</time>
      </trkpt>
      <trkpt lat="47.40633" lon="6.37668">
        <ele>428.263</ele>
        <time>2019-09-30T10:18:40Z</time>
      </trkpt>
      <trkpt lat="47.40549" lon="6.37665">
        <ele>431.397</ele>
        <time>2019-09-30T10:19:10Z</time>
      </trkpt>
      <trkpt lat="47.40458" lon="6.37663">
        <ele>435.672</ele>
        <time>2019-09-30T10:19:40Z</time>
      </trkpt>
      <trkpt lat="47.40358" lon="6.3766">
        <ele>435.231</ele>
        <time>2019-09-30T10:20:10Z</time>
      </trkpt>
      <trkpt lat="47.40258" lon="6.3766">
        <ele>433.857</ele>
        <time>2019-09-30T10:20:40Z</time>
      </trkpt>
      <trkpt lat="47.40159" lon="6.37659">
        <ele>436.894</ele>
        <time>2019-09-30T10:21:10Z</time>
      </trkpt>
      <trkpt lat="47.40061" lon="6.37657">
        <ele>440.14</ele>
        <time>2019-09-30T10:21:40Z</time>
      </trkpt>
      <trkpt lat="47.39956" lon="6.37655">
        <ele>438.286</ele>
        <time>2019-09-30T10:22:10Z</time>
      </trkpt>
      <trkpt lat="47.39851" lon="6.37655">
        <ele>440.243</ele>
        <time>2019-09-30T10:22:40Z</time>
      </trkpt>
      <trkpt lat="47.39721" lon="6.37663">
        <ele>441.7</ele>
        <time>2019-09-30T10:23:10Z</time>
      </trkpt>
      <trkpt lat="47.39567" lon="6.37673">
        <ele>440.28</ele>
        <time>2019-09-30T10:23:40Z</time>
      </trkpt>
      <trkpt lat="47.39383" lon="6.37683">
        <ele>437.936</ele>
        <time>2019-09-30T10:24:13Z</time>
      </trkpt>
      <trkpt lat="47.39244" lon="6.37694">
        <ele>439.148</ele>
        <time>2019-09-30T10:24:43Z</time>
      </trkpt>
      <trkpt lat="47.39124" lon="6.377">
        <ele>440.642</ele>
        <time>2019-09-30T10:25:13Z</time>
      </trkpt>
      <trkpt lat="47.38994" lon="6.3771">
        <ele>441.207</ele>
        <time>2019-09-30T10:25:43Z</time>
      </trkpt>
      <trkpt lat="47.38859" lon="6.37722">
        <ele>444.047</ele>
        <time>2019-09-30T10:26:13Z</time>
      </trkpt>
      <trkpt lat="47.3869" lon="6.3773">
        <ele>442.85</ele>
        <time>2019-09-30T10:26:43Z</time>
      </trkpt>
      <trkpt lat="47.38491" lon="6.37742">
        <ele>437.538</ele>
        <time>2019-09-30T10:27:13Z</time>
      </trkpt>
      <trkpt lat="47.38288" lon="6.37754">
        <ele>430.821</ele>
        <time>2019-09-30T10:27:43Z</time>
      </trkpt>
      <trkpt lat="47.38061" lon="6.37771">
        <ele>428.05</ele>
        <time>2019-09-30T10:28:13Z</time>
      </trkpt>
      <trkpt lat="47.37872" lon="6.37783">
        <ele>426.878</ele>
        <time>2019-09-30T10:28:43Z</time>
      </trkpt>
      <trkpt lat="47.37742" lon="6.37787">
        <ele>431.345</ele>
        <time>2019-09-30T10:29:13Z</time>
      </trkpt>
      <trkpt lat="47.37611" lon="6.37798">
        <ele>435.37</ele>
        <time>2019-09-30T10:29:43Z</time>
      </trkpt>
      <trkpt lat="47.37443" lon="6.37819">
        <ele>430.863</ele>
        <time>2019-09-30T10:30:13Z</time>
      </trkpt>
      <trkpt lat="47.37215" lon="6.37822">
        <ele>422.776</ele>
        <time>2019-09-30T10:30:43Z</time>
      </trkpt>
      <trkpt lat="47.37024" lon="6.37825">
        <ele>423.657</ele>
        <time>2019-09-30T10:31:13Z</time>
      </trkpt>
      <trkpt lat="47.36898" lon="6.37832">
        <ele>428.053</ele>
        <time>2019-09-30T10:31:43Z</time>
      </trkpt>
      <trkpt lat="47.36816" lon="6.3784">
        <ele>430.149</ele>
        <time>2019-09-30T10:32:13Z</time>
      </trkpt>
      <trkpt lat="47.36739" lon="6.37845">
        <ele>433.178</ele>
        <time>2019-09-30T10:32:43Z</time>
      </trkpt>
      <trkpt lat="47.36642" lon="6.37853">
        <ele>446.068</ele>
        <time>2019-09-30T10:33:13Z</time>
      </trkpt>
      <trkpt lat="47.36461" lon="6.37792">
        <ele>429.059</ele>
        <time>2019-09-30T10:33:43Z</time>
      </trkpt>
      <trkpt lat="47.36391" lon="6.37729">
        <ele>421.597</ele>
        <time>2019-09-30T10:35:58Z</time>
      </trkpt>
      <trkpt lat="47.36205" lon="6.37523">
        <ele>410.274</ele>
        <time>2019-09-30T10:36:28Z</time>
      </trkpt>
      <trkpt lat="47.35885" lon="6.37154">
        <ele>378.24</ele>
        <time>2019-09-30T10:36:58Z</time>
      </trkpt>
      <trkpt lat="47.3561" lon="6.36736">
        <ele>349.27</ele>
        <time>2019-09-30T10:37:28Z</time>
      </trkpt>
      <trkpt lat="47.35271" lon="6.36539">
        <ele>329.867</ele>
        <time>2019-09-30T10:37:58Z</time>
      </trkpt>
      <trkpt lat="47.35183" lon="6.36903">
        <ele>308.764</ele>
        <time>2019-09-30T10:38:28Z</time>
      </trkpt>
      <trkpt lat="47.35095" lon="6.36723">
        <ele>296.907</ele>
        <time>2019-09-30T10:38:58Z</time>
      </trkpt>
      <trkpt lat="47.35053" lon="6.36327">
        <ele>292.358</ele>
        <time>2019-09-30T10:39:28Z</time>
      </trkpt>
      <trkpt lat="47.34964" lon="6.36171">
        <ele>282.913</ele>
        <time>2019-09-30T10:39:58Z</time>
      </trkpt>
      <trkpt lat="47.34891" lon="6.36122">
        <ele>279.523</ele>
        <time>2019-09-30T10:41:31Z</time>
      </trkpt>
      <trkpt lat="47.34706" lon="6.36098">
        <ele>275.963</ele>
        <time>2019-09-30T10:42:01Z</time>
      </trkpt>
      <trkpt lat="47.345" lon="6.36123">
        <ele>264.611</ele>
        <time>2019-09-30T10:42:31Z</time>
      </trkpt>
      <trkpt lat="47.3442" lon="6.36001">
        <ele>262.578</ele>
        <time>2019-09-30T10:43:01Z</time>
      </trkpt>
      <trkpt lat="47.34392" lon="6.36005">
        <ele>259.339</ele>
        <time>2019-09-30T10:44:34Z</time>
      </trkpt>
      <trkpt lat="47.34386" lon="6.35934">
        <ele>264.616</ele>
        <time>2019-09-30T11:22:49Z</time>
      </trkpt>
      <trkpt lat="47.34294" lon="6.35843">
        <ele>269.623</ele>
        <time>2019-09-30T11:23:19Z</time>
      </trkpt>
      <trkpt lat="47.34183" lon="6.35693">
        <ele>270.128</ele>
        <time>2019-09-30T11:23:49Z</time>
      </trkpt>
      <trkpt lat="47.34108" lon="6.35516">
        <ele>263.509</ele>
        <time>2019-09-30T11:24:19Z</time>
      </trkpt>
      <trkpt lat="47.34017" lon="6.3537">
        <ele>263.32</ele>
        <time>2019-09-30T11:24:49Z</time>
      </trkpt>
      <trkpt lat="47.33924" lon="6.35263">
        <ele>269.351</ele>
        <time>2019-09-30T11:25:19Z</time>
      </trkpt>
      <trkpt lat="47.33771" lon="6.35132">
        <ele>271.284</ele>
        <time>2019-09-30T11:25:49Z</time>
      </trkpt>
      <trkpt lat="47.33658" lon="6.35024">
        <ele>273.03</ele>
        <time>2019-09-30T11:26:19Z</time>
      </trkpt>
      <trkpt lat="47.33553" lon="6.34877">
        <ele>273.151</ele>
        <time>2019-09-30T11:26:49Z</time>
      </trkpt>
      <trkpt lat="47.33559" lon="6.34835">
        <ele>271.991</ele>
        <time>2019-09-30T11:27:40Z</time>
      </trkpt>
      <trkpt lat="47.3358" lon="6.34796">
        <ele>270.795</ele>
        <time>2019-09-30T11:28:22Z</time>
      </trkpt>
      <trkpt lat="47.33642" lon="6.3471">
        <ele>272.086</ele>
        <time>2019-09-30T11:28:52Z</time>
      </trkpt>
      <trkpt lat="47.33822" lon="6.34529">
        <ele>266.171</ele>
        <time>2019-09-30T11:29:22Z</time>
      </trkpt>
      <trkpt lat="47.33958" lon="6.34317">
        <ele>270.736</ele>
        <time>2019-09-30T11:29:52Z</time>
      </trkpt>
      <trkpt lat="47.34042" lon="6.34142">
        <ele>273.532</ele>
        <time>2019-09-30T11:30:22Z</time>
      </trkpt>
      <trkpt lat="47.341" lon="6.33933">
        <ele>272.374</ele>
        <time>2019-09-30T11:30:52Z</time>
      </trkpt>
      <trkpt lat="47.34129" lon="6.33701">
        <ele>269.328</ele>
        <time>2019-09-30T11:31:22Z</time>
      </trkpt>
      <trkpt lat="47.34181" lon="6.3346">
        <ele>258.308</ele>
        <time>2019-09-30T11:31:52Z</time>
      </trkpt>
      <trkpt lat="47.34225" lon="6.33246">
        <ele>257.929</ele>
        <time>2019-09-30T11:32:22Z</time>
      </trkpt>
      <trkpt lat="47.3427" lon="6.33019">
        <ele>262.6</ele>
        <time>2019-09-30T11:32:52Z</time>
      </trkpt>
      <trkpt lat="47.34319" lon="6.32804">
        <ele>261.576</ele>
        <time>2019-09-30T11:33:22Z</time>
      </trkpt>
      <trkpt lat="47.34352" lon="6.32577">
        <ele>266.945</ele>
        <time>2019-09-30T11:33:52Z</time>
      </trkpt>
      <trkpt lat="47.34324" lon="6.32359">
        <ele>270.688</ele>
        <time>2019-09-30T11:34:22Z</time>
      </trkpt>
      <trkpt lat="47.34277" lon="6.32132">
        <ele>270.042</ele>
        <time>2019-09-30T11:34:52Z</time>
      </trkpt>
      <trkpt lat="47.34182" lon="6.31937">
        <ele>270.401</ele>
        <time>2019-09-30T11:35:22Z</time>
      </trkpt>
      <trkpt lat="47.34075" lon="6.31751">
        <ele>264.467</ele>
        <time>2019-09-30T11:35:52Z</time>
      </trkpt>
      <trkpt lat="47.33942" lon="6.31603">
        <ele>262.822</ele>
        <time>2019-09-30T11:36:22Z</time>
      </trkpt>
      <trkpt lat="47.33798" lon="6.31511">
        <ele>262.713</ele>
        <time>2019-09-30T11:36:52Z</time>
      </trkpt>
      <trkpt lat="47.33646" lon="6.31446">
        <ele>262.807</ele>
        <time>2019-09-30T11:37:22Z</time>
      </trkpt>
      <trkpt lat="47.33497" lon="6.3139">
        <ele>259.858</ele>
        <time>2019-09-30T11:37:52Z</time>
      </trkpt>
      <trkpt lat="47.3335" lon="6.31339">
        <ele>260.524</ele>
        <time>2019-09-30T11:38:22Z</time>
      </trkpt>
      <trkpt lat="47.33193" lon="6.31272">
        <ele>259.94</ele>
        <time>2019-09-30T11:38:52Z</time>
      </trkpt>
      <trkpt lat="47.33064" lon="6.3114">
        <ele>261.948</ele>
        <time>2019-09-30T11:39:22Z</time>
      </trkpt>
      <trkpt lat="47.32995" lon="6.30943">
        <ele>267.367</ele>
        <time>2019-09-30T11:39:52Z</time>
      </trkpt>
      <trkpt lat="47.3298" lon="6.30721">
        <ele>266.674</ele>
        <time>2019-09-30T11:40:22Z</time>
      </trkpt>
      <trkpt lat="47.32973" lon="6.30495">
        <ele>262.382</ele>
        <time>2019-09-30T11:40:52Z</time>
      </trkpt>
      <trkpt lat="47.32989" lon="6.30233">
        <ele>255.96</ele>
        <time>2019-09-30T11:41:22Z</time>
      </trkpt>
      <trkpt lat="47.33014" lon="6.30036">
        <ele>254.099</ele>
        <time>2019-09-30T11:41:52Z</time>
      </trkpt>
      <trkpt lat="47.33022" lon="6.29828">
        <ele>255.969</ele>
        <time>2019-09-30T11:42:22Z</time>
      </trkpt>
      <trkpt lat="47.33015" lon="6.29612">
        <ele>259.602</ele>
        <time>2019-09-30T11:42:52Z</time>
      </trkpt>
      <trkpt lat="47.32987" lon="6.29429">
        <ele>266.316</ele>
        <time>2019-09-30T11:43:22Z</time>
      </trkpt>
      <trkpt lat="47.32909" lon="6.29244">
        <ele>269.686</ele>
        <time>2019-09-30T11:43:52Z</time>
      </trkpt>
      <trkpt lat="47.32819" lon="6.29056">
        <ele>265.878</ele>
        <time>2019-09-30T11:44:22Z</time>
      </trkpt>
      <trkpt lat="47.32715" lon="6.28879">
        <ele>262.789</ele>
        <time>2019-09-30T11:44:52Z</time>
      </trkpt>
      <trkpt lat="47.32602" lon="6.28737">
        <ele>262.197</ele>
        <time>2019-09-30T11:45:22Z</time>
      </trkpt>
      <trkpt lat="47.32489" lon="6.28616">
        <ele>259.577</ele>
        <time>2019-09-30T11:45:52Z</time>
      </trkpt>
      <trkpt lat="47.32363" lon="6.28499">
        <ele>258.379</ele>
        <time>2019-09-30T11:46:22Z</time>
      </trkpt>
      <trkpt lat="47.32241" lon="6.28344">
        <ele>261.249</ele>
        <time>2019-09-30T11:46:52Z</time>
      </trkpt>
      <trkpt lat="47.3216" lon="6.2815">
        <ele>258.951</ele>
        <time>2019-09-30T11:47:22Z</time>
      </trkpt>
      <trkpt lat="47.32133" lon="6.2795">
        <ele>258.54</ele>
        <time>2019-09-30T11:47:52Z</time>
      </trkpt>
      <trkpt lat="47.32148" lon="6.27712">
        <ele>258.465</ele>
        <time>2019-09-30T11:48:22Z</time>
      </trkpt>
      <trkpt lat="47.32124" lon="6.27493">
        <ele>256.552</ele>
        <time>2019-09-30T11:48:52Z</time>
      </trkpt>
      <trkpt lat="47.32094" lon="6.27267">
        <ele>254.038</ele>
        <time>2019-09-30T11:49:22Z</time>
      </trkpt>
      <trkpt lat="47.32083" lon="6.27028">
        <ele>254.155</ele>
        <time>2019-09-30T11:49:52Z</time>
      </trkpt>
      <trkpt lat="47.32087" lon="6.26786">
        <ele>255.376</ele>
        <time>2019-09-30T11:50:22Z</time>
      </trkpt>
      <trkpt lat="47.32025" lon="6.26566">
        <ele>259.872</ele>
        <time>2019-09-30T11:50:52Z</time>
      </trkpt>
      <trkpt lat="47.31881" lon="6.26455">
        <ele>257.003</ele>
        <time>2019-09-30T11:51:22Z</time>
      </trkpt>
      <trkpt lat="47.31725" lon="6.26363">
        <ele>255.031</ele>
        <time>2019-09-30T11:51:52Z</time>
      </trkpt>
      <trkpt lat="47.3157" lon="6.26261">
        <ele>253.599</ele>
        <time>2019-09-30T11:52:22Z</time>
      </trkpt>
      <trkpt lat="47.31431" lon="6.26153">
        <ele>252.242</ele>
        <time>2019-09-30T11:52:52Z</time>
      </trkpt>
      <trkpt lat="47.31296" lon="6.26064">
        <ele>250.926</ele>
        <time>2019-09-30T11:53:22Z</time>
      </trkpt>
      <trkpt lat="47.31161" lon="6.25963">
        <ele>251.841</ele>
        <time>2019-09-30T11:53:52Z</time>
      </trkpt>
      <trkpt lat="47.31074" lon="6.25803">
        <ele>257.235</ele>
        <time>2019-09-30T11:54:22Z</time>
      </trkpt>
      <trkpt lat="47.30998" lon="6.25597">
        <ele>254.698</ele>
        <time>2019-09-30T11:54:52Z</time>
      </trkpt>
      <trkpt lat="47.30965" lon="6.25389">
        <ele>257.115</ele>
        <time>2019-09-30T11:55:22Z</time>
      </trkpt>
      <trkpt lat="47.30933" lon="6.25162">
        <ele>252.421</ele>
        <time>2019-09-30T11:55:52Z</time>
      </trkpt>
      <trkpt lat="47.30903" lon="6.24966">
        <ele>252.676</ele>
        <time>2019-09-30T11:56:22Z</time>
      </trkpt>
      <trkpt lat="47.30868" lon="6.24744">
        <ele>248.462</ele>
        <time>2019-09-30T11:56:52Z</time>
      </trkpt>
      <trkpt lat="47.30839" lon="6.24539">
        <ele>249.519</ele>
        <time>2019-09-30T11:57:22Z</time>
      </trkpt>
      <trkpt lat="47.30792" lon="6.24336">
        <ele>248.838</ele>
        <time>2019-09-30T11:57:52Z</time>
      </trkpt>
      <trkpt lat="47.30741" lon="6.24145">
        <ele>249.773</ele>
        <time>2019-09-30T11:58:22Z</time>
      </trkpt>
      <trkpt lat="47.30696" lon="6.23941">
        <ele>249.546</ele>
        <time>2019-09-30T11:58:52Z</time>
      </trkpt>
      <trkpt lat="47.30622" lon="6.23748">
        <ele>250.104</ele>
        <time>2019-09-30T11:59:22Z</time>
      </trkpt>
      <trkpt lat="47.30499" lon="6.23629">
        <ele>251.446</ele>
        <time>2019-09-30T11:59:52Z</time>
      </trkpt>
      <trkpt lat="47.30365" lon="6.23559">
        <ele>252.486</ele>
        <time>2019-09-30T12:00:22Z</time>
      </trkpt>
      <trkpt lat="47.30223" lon="6.23521">
        <ele>250.716</ele>
        <time>2019-09-30T12:00:52Z</time>
      </trkpt>
      <trkpt lat="47.30092" lon="6.2353">
        <ele>247.737</ele>
        <time>2019-09-30T12:01:22Z</time>
      </trkpt>
      <trkpt lat="47.30005" lon="6.23505">
        <ele>254.9</ele>
        <time>2019-09-30T12:01:52Z</time>
      </trkpt>
      <trkpt lat="47.29942" lon="6.23433">
        <ele>260.029</ele>
        <time>2019-09-30T12:02:22Z</time>
      </trkpt>
      <trkpt lat="47.29848" lon="6.23413">
        <ele>260.514</ele>
        <time>2019-09-30T12:02:52Z</time>
      </trkpt>
      <trkpt lat="47.29717" lon="6.23304">
        <ele>253.587</ele>
        <time>2019-09-30T12:03:22Z</time>
      </trkpt>
      <trkpt lat="47.29595" lon="6.23216">
        <ele>248.194</ele>
        <time>2019-09-30T12:03:52Z</time>
      </trkpt>
      <trkpt lat="47.2961" lon="6.22971">
        <ele>249.099</ele>
        <time>2019-09-30T12:04:22Z</time>
      </trkpt>
      <trkpt lat="47.29681" lon="6.22792">
        <ele>253.522</ele>
        <time>2019-09-30T12:04:52Z</time>
      </trkpt>
      <trkpt lat="47.29762" lon="6.22601">
        <ele>256.773</ele>
        <time>2019-09-30T12:05:22Z</time>
      </trkpt>
      <trkpt lat="47.29824" lon="6.22383">
        <ele>258.876</ele>
        <time>2019-09-30T12:05:52Z</time>
      </trkpt>
      <trkpt lat="47.29874" lon="6.22169">
        <ele>251.559</ele>
        <time>2019-09-30T12:06:22Z</time>
      </trkpt>
      <trkpt lat="47.29965" lon="6.22014">
        <ele>252.412</ele>
        <time>2019-09-30T12:06:52Z</time>
      </trkpt>
      <trkpt lat="47.30074" lon="6.21846">
        <ele>255.608</ele>
        <time>2019-09-30T12:07:22Z</time>
      </trkpt>
      <trkpt lat="47.30174" lon="6.21677">
        <ele>261.71</ele>
        <time>2019-09-30T12:07:52Z</time>
      </trkpt>
      <trkpt lat="47.30284" lon="6.21498">
        <ele>261.35</ele>
        <time>2019-09-30T12:08:22Z</time>
      </trkpt>
      <trkpt lat="47.30346" lon="6.21307">
        <ele>264.26</ele>
        <time>2019-09-30T12:08:52Z</time>
      </trkpt>
      <trkpt lat="47.30388" lon="6.21094">
        <ele>266.116</ele>
        <time>2019-09-30T12:09:22Z</time>
      </trkpt>
      <trkpt lat="47.30389" lon="6.20996">
        <ele>262.515</ele>
        <time>2019-09-30T12:12:10Z</time>
      </trkpt>
      <trkpt lat="47.30353" lon="6.20825">
        <ele>254.06</ele>
        <time>2019-09-30T12:12:40Z</time>
      </trkpt>
      <trkpt lat="47.30281" lon="6.20724">
        <ele>256.382</ele>
        <time>2019-09-30T12:13:10Z</time>
      </trkpt>
      <trkpt lat="47.30199" lon="6.20653">
        <ele>259.36</ele>
        <time>2019-09-30T12:13:40Z</time>
      </trkpt>
      <trkpt lat="47.29996" lon="6.20567">
        <ele>249.658</ele>
        <time>2019-09-30T12:14:10Z</time>
      </trkpt>
      <trkpt lat="47.29842" lon="6.20506">
        <ele>247.825</ele>
        <time>2019-09-30T12:14:40Z</time>
      </trkpt>
      <trkpt lat="47.29694" lon="6.20456">
        <ele>248.031</ele>
        <time>2019-09-30T12:15:10Z</time>
      </trkpt>
      <trkpt lat="47.29552" lon="6.20426">
        <ele>253.536</ele>
        <time>2019-09-30T12:15:40Z</time>
      </trkpt>
      <trkpt lat="47.29404" lon="6.20375">
        <ele>253.4</ele>
        <time>2019-09-30T12:16:10Z</time>
      </trkpt>
      <trkpt lat="47.29261" lon="6.20298">
        <ele>254.1</ele>
        <time>2019-09-30T12:16:40Z</time>
      </trkpt>
      <trkpt lat="47.29159" lon="6.20266">
        <ele>253.341</ele>
        <time>2019-09-30T12:17:10Z</time>
      </trkpt>
      <trkpt lat="47.29052" lon="6.20206">
        <ele>254.856</ele>
        <time>2019-09-30T12:17:40Z</time>
      </trkpt>
      <trkpt lat="47.29008" lon="6.20065">
        <ele>256.329</ele>
        <time>2019-09-30T12:18:10Z</time>
      </trkpt>
      <trkpt lat="47.28948" lon="6.19878">
        <ele>250.538</ele>
        <time>2019-09-30T12:18:40Z</time>
      </trkpt>
      <trkpt lat="47.28913" lon="6.19661">
        <ele>244.937</ele>
        <time>2019-09-30T12:19:10Z</time>
      </trkpt>
      <trkpt lat="47.28892" lon="6.19438">
        <ele>240.052</ele>
        <time>2019-09-30T12:19:40Z</time>
      </trkpt>
      <trkpt lat="47.28879" lon="6.19218">
        <ele>243.401</ele>
        <time>2019-09-30T12:20:10Z</time>
      </trkpt>
      <trkpt lat="47.2888" lon="6.18996">
        <ele>240.445</ele>
        <time>2019-09-30T12:20:40Z</time>
      </trkpt>
      <trkpt lat="47.28913" lon="6.1879">
        <ele>243.206</ele>
        <time>2019-09-30T12:21:10Z</time>
      </trkpt>
      <trkpt lat="47.28958" lon="6.18598">
        <ele>250.468</ele>
        <time>2019-09-30T12:21:40Z</time>
      </trkpt>
      <trkpt lat="47.29012" lon="6.18394">
        <ele>252.794</ele>
        <time>2019-09-30T12:22:10Z</time>
      </trkpt>
      <trkpt lat="47.29066" lon="6.18189">
        <ele>252.139</ele>
        <time>2019-09-30T12:22:40Z</time>
      </trkpt>
      <trkpt lat="47.29077" lon="6.17966">
        <ele>250.982</ele>
        <time>2019-09-30T12:23:10Z</time>
      </trkpt>
      <trkpt lat="47.29048" lon="6.17756">
        <ele>251.635</ele>
        <time>2019-09-30T12:23:40Z</time>
      </trkpt>
      <trkpt lat="47.29004" lon="6.17571">
        <ele>251.943</ele>
        <time>2019-09-30T12:24:10Z</time>
      </trkpt>
      <trkpt lat="47.28963" lon="6.17373">
        <ele>245.778</ele>
        <time>2019-09-30T12:24:40Z</time>
      </trkpt>
      <trkpt lat="47.28949" lon="6.17157">
        <ele>244.24</ele>
        <time>2019-09-30T12:25:10Z</time>
      </trkpt>
      <trkpt lat="47.28932" lon="6.16949">
        <ele>245.956</ele>
        <time>2019-09-30T12:25:40Z</time>
      </trkpt>
      <trkpt lat="47.28918" lon="6.16742">
        <ele>246.851</ele>
        <time>2019-09-30T12:26:10Z</time>
      </trkpt>
      <trkpt lat="47.28909" lon="6.16534">
        <ele>247.568</ele>
        <time>2019-09-30T12:26:40Z</time>
      </trkpt>
      <trkpt lat="47.28888" lon="6.1631">
        <ele>247.502</ele>
        <time>2019-09-30T12:27:10Z</time>
      </trkpt>
      <trkpt lat="47.28861" lon="6.16099">
        <ele>244.933</ele>
        <time>2019-09-30T12:27:40Z</time>
      </trkpt>
      <trkpt lat="47.28839" lon="6.15889">
        <ele>247.628</ele>
        <time>2019-09-30T12:28:10Z</time>
      </trkpt>
      <trkpt lat="47.28808" lon="6.15682">
        <ele>248.429</ele>
        <time>2019-09-30T12:28:40Z</time>
      </trkpt>
      <trkpt lat="47.28763" lon="6.15469">
        <ele>248.077</ele>
        <time>2019-09-30T12:29:10Z</time>
      </trkpt>
      <trkpt lat="47.28721" lon="6.15257">
        <ele>248.92</ele>
        <time>2019-09-30T12:29:40Z</time>
      </trkpt>
      <trkpt lat="47.28664" lon="6.15062">
        <ele>248.57</ele>
        <time>2019-09-30T12:30:10Z</time>
      </trkpt>
      <trkpt lat="47.28592" lon="6.1488">
        <ele>247.998</ele>
        <time>2019-09-30T12:30:40Z</time>
      </trkpt>
      <trkpt lat="47.28526" lon="6.14675">
        <ele>250.004</ele>
        <time>2019-09-30T12:31:10Z</time>
      </trkpt>
      <trkpt lat="47.28487" lon="6.14449">
        <ele>249.384</ele>
        <time>2019-09-30T12:31:40Z</time>
      </trkpt>
      <trkpt lat="47.28475" lon="6.14228">
        <ele>249.663</ele>
        <time>2019-09-30T12:32:10Z</time>
      </trkpt>
      <trkpt lat="47.28455" lon="6.14015">
        <ele>247.761</ele>
        <time>2019-09-30T12:32:40Z</time>
      </trkpt>
      <trkpt lat="47.28384" lon="6.13834">
        <ele>250.692</ele>
        <time>2019-09-30T12:33:10Z</time>
      </trkpt>
      <trkpt lat="47.28274" lon="6.13672">
        <ele>252.569</ele>
        <time>2019-09-30T12:33:40Z</time>
      </trkpt>
      <trkpt lat="47.28187" lon="6.13488">
        <ele>250.773</ele>
        <time>2019-09-30T12:34:10Z</time>
      </trkpt>
      <trkpt lat="47.2815" lon="6.13271">
        <ele>249.377</ele>
        <time>2019-09-30T12:34:40Z</time>
      </trkpt>
      <trkpt lat="47.28113" lon="6.13034">
        <ele>250.711</ele>
        <time>2019-09-30T12:35:10Z</time>
      </trkpt>
      <trkpt lat="47.28094" lon="6.12809">
        <ele>249.231</ele>
        <time>2019-09-30T12:35:40Z</time>
      </trkpt>
      <trkpt lat="47.28064" lon="6.12605">
        <ele>249.529</ele>
        <time>2019-09-30T12:36:10Z</time>
      </trkpt>
      <trkpt lat="47.27973" lon="6.12415">
        <ele>250.29</ele>
        <time>2019-09-30T12:36:40Z</time>
      </trkpt>
      <trkpt lat="47.27862" lon="6.12232">
        <ele>250.851</ele>
        <time>2019-09-30T12:37:10Z</time>
      </trkpt>
      <trkpt lat="47.27738" lon="6.12093">
        <ele>252.271</ele>
        <time>2019-09-30T12:37:40Z</time>
      </trkpt>
      <trkpt lat="47.27612" lon="6.11947">
        <ele>250.627</ele>
        <time>2019-09-30T12:38:10Z</time>
      </trkpt>
      <trkpt lat="47.2749" lon="6.11802">
        <ele>249.583</ele>
        <time>2019-09-30T12:38:40Z</time>
      </trkpt>
      <trkpt lat="47.27369" lon="6.11712">
        <ele>249.042</ele>
        <time>2019-09-30T12:39:10Z</time>
      </trkpt>
      <trkpt lat="47.27269" lon="6.116">
        <ele>250.665</ele>
        <time>2019-09-30T12:39:40Z</time>
      </trkpt>
      <trkpt lat="47.27134" lon="6.11467">
        <ele>250.709</ele>
        <time>2019-09-30T12:40:10Z</time>
      </trkpt>
      <trkpt lat="47.27025" lon="6.11301">
        <ele>247.389</ele>
        <time>2019-09-30T12:40:40Z</time>
      </trkpt>
      <trkpt lat="47.26952" lon="6.11098">
        <ele>246.61</ele>
        <time>2019-09-30T12:41:10Z</time>
      </trkpt>
      <trkpt lat="47.26915" lon="6.10875">
        <ele>247.046</ele>
        <time>2019-09-30T12:41:40Z</time>
      </trkpt>
      <trkpt lat="47.26903" lon="6.10653">
        <ele>245.066</ele>
        <time>2019-09-30T12:42:10Z</time>
      </trkpt>
      <trkpt lat="47.26915" lon="6.10426">
        <ele>245.144</ele>
        <time>2019-09-30T12:42:40Z</time>
      </trkpt>
      <trkpt lat="47.26955" lon="6.10196">
        <ele>242.085</ele>
        <time>2019-09-30T12:43:10Z</time>
      </trkpt>
      <trkpt lat="47.2699" lon="6.09965">
        <ele>245.15</ele>
        <time>2019-09-30T12:43:40Z</time>
      </trkpt>
      <trkpt lat="47.26986" lon="6.09724">
        <ele>247.581</ele>
        <time>2019-09-30T12:44:10Z</time>
      </trkpt>
      <trkpt lat="47.26984" lon="6.09485">
        <ele>246.514</ele>
        <time>2019-09-30T12:44:40Z</time>
      </trkpt>
      <trkpt lat="47.27011" lon="6.09246">
        <ele>249.593</ele>
        <time>2019-09-30T12:45:10Z</time>
      </trkpt>
      <trkpt lat="47.27045" lon="6.09018">
        <ele>249.365</ele>
        <time>2019-09-30T12:45:40Z</time>
      </trkpt>
      <trkpt lat="47.2708" lon="6.08798">
        <ele>244.858</ele>
        <time>2019-09-30T12:46:10Z</time>
      </trkpt>
      <trkpt lat="47.27091" lon="6.08572">
        <ele>244.595</ele>
        <time>2019-09-30T12:46:40Z</time>
      </trkpt>
      <trkpt lat="47.27072" lon="6.08478">
        <ele>246.842</ele>
        <time>2019-09-30T12:47:22Z</time>
      </trkpt>
      <trkpt lat="47.26984" lon="6.08498">
        <ele>251.836</ele>
        <time>2019-09-30T12:47:52Z</time>
      </trkpt>
      <trkpt lat="47.26853" lon="6.08564">
        <ele>246.771</ele>
        <time>2019-09-30T12:48:22Z</time>
      </trkpt>
      <trkpt lat="47.26811" lon="6.08804">
        <ele>245.756</ele>
        <time>2019-09-30T12:48:52Z</time>
      </trkpt>
      <trkpt lat="47.26688" lon="6.08871">
        <ele>252.812</ele>
        <time>2019-09-30T12:49:22Z</time>
      </trkpt>
      <trkpt lat="47.26526" lon="6.08806">
        <ele>249.229</ele>
        <time>2019-09-30T12:49:52Z</time>
      </trkpt>
      <trkpt lat="47.26379" lon="6.08728">
        <ele>248.803</ele>
        <time>2019-09-30T12:50:22Z</time>
      </trkpt>
      <trkpt lat="47.26236" lon="6.08659">
        <ele>247.659</ele>
        <time>2019-09-30T12:50:52Z</time>
      </trkpt>
      <trkpt lat="47.26106" lon="6.08559">
        <ele>249.176</ele>
        <time>2019-09-30T12:51:22.001Z</time>
      </trkpt>
      <trkpt lat="47.25976" lon="6.08469">
        <ele>247.155</ele>
        <time>2019-09-30T12:51:52.001Z</time>
      </trkpt>
      <trkpt lat="47.25834" lon="6.08393">
        <ele>245.939</ele>
        <time>2019-09-30T12:52:22.001Z</time>
      </trkpt>
      <trkpt lat="47.25707" lon="6.08312">
        <ele>249.432</ele>
        <time>2019-09-30T12:52:52.001Z</time>
      </trkpt>
      <trkpt lat="47.25552" lon="6.08225">
        <ele>243.387</ele>
        <time>2019-09-30T12:53:22.001Z</time>
      </trkpt>
      <trkpt lat="47.25411" lon="6.08128">
        <ele>245.133</ele>
        <time>2019-09-30T12:53:52.001Z</time>
      </trkpt>
      <trkpt lat="47.253" lon="6.07996">
        <ele>247.457</ele>
        <time>2019-09-30T12:54:22.001Z</time>
      </trkpt>
      <trkpt lat="47.25246" lon="6.07793">
        <ele>247.162</ele>
        <time>2019-09-30T12:54:52.001Z</time>
      </trkpt>
      <trkpt lat="47.25165" lon="6.07597">
        <ele>246.302</ele>
        <time>2019-09-30T12:55:22.001Z</time>
      </trkpt>
      <trkpt lat="47.25037" lon="6.0745">
        <ele>241.566</ele>
        <time>2019-09-30T12:55:52.001Z</time>
      </trkpt>
      <trkpt lat="47.24906" lon="6.07341">
        <ele>240.337</ele>
        <time>2019-09-30T12:56:22.001Z</time>
      </trkpt>
      <trkpt lat="47.24798" lon="6.07213">
        <ele>240.701</ele>
        <time>2019-09-30T12:56:52.001Z</time>
      </trkpt>
      <trkpt lat="47.24709" lon="6.07064">
        <ele>245</ele>
        <time>2019-09-30T12:57:22.001Z</time>
      </trkpt>
      <trkpt lat="47.24608" lon="6.06926">
        <ele>243.234</ele>
        <time>2019-09-30T12:57:52.001Z</time>
      </trkpt>
      <trkpt lat="47.2449" lon="6.06827">
        <ele>245.509</ele>
        <time>2019-09-30T12:58:22.001Z</time>
      </trkpt>
      <trkpt lat="47.24347" lon="6.0677">
        <ele>242.532</ele>
        <time>2019-09-30T12:58:52.001Z</time>
      </trkpt>
      <trkpt lat="47.24201" lon="6.06707">
        <ele>242.221</ele>
        <time>2019-09-30T12:59:22.001Z</time>
      </trkpt>
      <trkpt lat="47.24077" lon="6.06577">
        <ele>243.915</ele>
        <time>2019-09-30T12:59:52.001Z</time>
      </trkpt>
      <trkpt lat="47.23957" lon="6.0644">
        <ele>246.754</ele>
        <time>2019-09-30T13:00:22.001Z</time>
      </trkpt>
      <trkpt lat="47.23847" lon="6.06291">
        <ele>247.526</ele>
        <time>2019-09-30T13:00:52.001Z</time>
      </trkpt>
      <trkpt lat="47.23699" lon="6.0618">
        <ele>242.75</ele>
        <time>2019-09-30T13:01:22.001Z</time>
      </trkpt>
      <trkpt lat="47.23547" lon="6.06127">
        <ele>242.206</ele>
        <time>2019-09-30T13:01:52.001Z</time>
      </trkpt>
      <trkpt lat="47.23396" lon="6.06087">
        <ele>241.45</ele>
        <time>2019-09-30T13:02:22.001Z</time>
      </trkpt>
      <trkpt lat="47.2326" lon="6.05983">
        <ele>244.89</ele>
        <time>2019-09-30T13:02:52.001Z</time>
      </trkpt>
      <trkpt lat="47.23132" lon="6.05869">
        <ele>249.344</ele>
        <time>2019-09-30T13:03:22.001Z</time>
      </trkpt>
      <trkpt lat="47.23006" lon="6.05761">
        <ele>242.853</ele>
        <time>2019-09-30T13:03:52.001Z</time>
      </trkpt>
      <trkpt lat="47.22894" lon="6.05604">
        <ele>247.029</ele>
        <time>2019-09-30T13:04:22.001Z</time>
      </trkpt>
      <trkpt lat="47.22792" lon="6.05431">
        <ele>243.999</ele>
        <time>2019-09-30T13:04:52.001Z</time>
      </trkpt>
      <trkpt lat="47.2272" lon="6.05239">
        <ele>244.043</ele>
        <time>2019-09-30T13:05:22.001Z</time>
      </trkpt>
      <trkpt lat="47.2266" lon="6.0503">
        <ele>246.097</ele>
        <time>2019-09-30T13:05:52.001Z</time>
      </trkpt>
      <trkpt lat="47.22637" lon="6.04945">
        <ele>243.643</ele>
        <time>2019-09-30T13:08:01.001Z</time>
      </trkpt>
      <trkpt lat="47.22603" lon="6.04756">
        <ele>244.406</ele>
        <time>2019-09-30T13:08:31.001Z</time>
      </trkpt>
      <trkpt lat="47.22585" lon="6.04542">
        <ele>243.198</ele>
        <time>2019-09-30T13:09:01.001Z</time>
      </trkpt>
      <trkpt lat="47.22608" lon="6.04311">
        <ele>246.275</ele>
        <time>2019-09-30T13:09:31.001Z</time>
      </trkpt>
      <trkpt lat="47.22665" lon="6.0411">
        <ele>245.6</ele>
        <time>2019-09-30T13:10:01.001Z</time>
      </trkpt>
      <trkpt lat="47.22758" lon="6.0393">
        <ele>243.253</ele>
        <time>2019-09-30T13:10:31.001Z</time>
      </trkpt>
      <trkpt lat="47.22896" lon="6.03843">
        <ele>246.221</ele>
        <time>2019-09-30T13:11:01.001Z</time>
      </trkpt>
      <trkpt lat="47.23033" lon="6.0372">
        <ele>242.699</ele>
        <time>2019-09-30T13:11:31.001Z</time>
      </trkpt>
      <trkpt lat="47.23142" lon="6.03607">
        <ele>242.049</ele>
        <time>2019-09-30T13:12:01.001Z</time>
      </trkpt>
      <trkpt lat="47.2295" lon="6.03044">
        <ele>228.366</ele>
        <time>2019-09-30T13:13:53.001Z</time>
      </trkpt>
      <trkpt lat="47.22846" lon="6.03117">
        <ele>238.725</ele>
        <time>2019-09-30T13:14:23.001Z</time>
      </trkpt>
      <trkpt lat="47.22796" lon="6.03194">
        <ele>240.873</ele>
        <time>2019-09-30T13:15:35.001Z</time>
      </trkpt>
      <trkpt lat="47.22829" lon="6.03156">
        <ele>239.902</ele>
        <time>2019-09-30T13:19:56.001Z</time>
      </trkpt>
      <trkpt lat="47.22921" lon="6.03039">
        <ele>238.055</ele>
        <time>2019-09-30T13:20:26.001Z</time>
      </trkpt>
      <trkpt lat="47.22979" lon="6.0305">
        <ele>236.505</ele>
        <time>2019-09-30T13:20:56.001Z</time>
      </trkpt>
      <trkpt lat="47.23126" lon="6.03638">
        <ele>248.036</ele>
        <time>2019-09-30T13:22:46.001Z</time>
      </trkpt>
      <trkpt lat="47.23164" lon="6.03572">
        <ele>243.899</ele>
        <time>2019-09-30T13:23:16Z</time>
      </trkpt>
      <trkpt lat="47.23314" lon="6.03559">
        <ele>245.266</ele>
        <time>2019-09-30T13:23:46.001Z</time>
      </trkpt>
      <trkpt lat="47.2344" lon="6.03491">
        <ele>243.752</ele>
        <time>2019-09-30T13:24:16Z</time>
      </trkpt>
      <trkpt lat="47.23556" lon="6.03435">
        <ele>249.747</ele>
        <time>2019-09-30T13:24:46.001Z</time>
      </trkpt>
      <trkpt lat="47.23687" lon="6.03358">
        <ele>243.657</ele>
        <time>2019-09-30T13:25:16Z</time>
      </trkpt>
      <trkpt lat="47.23782" lon="6.0326">
        <ele>245.377</ele>
        <time>2019-09-30T13:25:49.001Z</time>
      </trkpt>
      <trkpt lat="47.23778" lon="6.03269">
        <ele>242.819</ele>
        <time>2019-09-30T13:27:10.001Z</time>
      </trkpt>
      <trkpt lat="47.23808" lon="6.03271">
        <ele>240.731</ele>
        <time>2019-09-30T13:27:43.001Z</time>
      </trkpt>
      <trkpt lat="47.2391" lon="6.0317">
        <ele>233.465</ele>
        <time>2019-09-30T13:28:13.001Z</time>
      </trkpt>
      <trkpt lat="47.23997" lon="6.03027">
        <ele>238.776</ele>
        <time>2019-09-30T13:28:43.001Z</time>
      </trkpt>
      <trkpt lat="47.24044" lon="6.02936">
        <ele>247.62</ele>
        <time>2019-09-30T13:29:13.001Z</time>
      </trkpt>
      <trkpt lat="47.24116" lon="6.02793">
        <ele>244.431</ele>
        <time>2019-09-30T13:29:43.001Z</time>
      </trkpt>
      <trkpt lat="47.24175" lon="6.02627">
        <ele>249.95</ele>
        <time>2019-09-30T13:30:13.001Z</time>
      </trkpt>
      <trkpt lat="47.24193" lon="6.0245">
        <ele>249.689</ele>
        <time>2019-09-30T13:30:43.001Z</time>
      </trkpt>
      <trkpt lat="47.24156" lon="6.0232">
        <ele>235.08</ele>
        <time>2019-09-30T13:31:13.001Z</time>
      </trkpt>
      <trkpt lat="47.24093" lon="6.02246">
        <ele>238.382</ele>
        <time>2019-09-30T13:31:43.001Z</time>
      </trkpt>
      <trkpt lat="47.24042" lon="6.02181">
        <ele>243.58</ele>
        <time>2019-09-30T13:32:13.001Z</time>
      </trkpt>
      <trkpt lat="47.24021" lon="6.02186">
        <ele>243.179</ele>
        <time>2019-09-30T13:32:52.001Z</time>
      </trkpt>
      <trkpt lat="47.24002" lon="6.02213">
        <ele>240.042</ele>
        <time>2019-09-30T13:34:37.001Z</time>
      </trkpt>
      <trkpt lat="47.23969" lon="6.02139">
        <ele>240.552</ele>
        <time>2019-09-30T13:35:07.001Z</time>
      </trkpt>
      <trkpt lat="47.23953" lon="6.02123">
        <ele>242.775</ele>
        <time>2019-09-30T13:37:34.001Z</time>
      </trkpt>
      <trkpt lat="47.24018" lon="6.02187">
        <ele>210.442</ele>
        <time>2019-09-30T15:07:16.501Z</time>
      </trkpt>
      <trkpt lat="47.24005" lon="6.02209">
        <ele>242.693</ele>
        <time>2019-09-30T15:12:05Z</time>
      </trkpt>
      <trkpt lat="47.23961" lon="6.02128">
        <ele>250.222</ele>
        <time>2019-09-30T15:12:59Z</time>
      </trkpt>
      <trkpt lat="47.23999" lon="6.0201">
        <ele>240.662</ele>
        <time>2019-09-30T15:13:29Z</time>
      </trkpt>
      <trkpt lat="47.24081" lon="6.0204">
        <ele>253.12</ele>
        <time>2019-09-30T15:13:59Z</time>
      </trkpt>
      <trkpt lat="47.24184" lon="6.02077">
        <ele>271.891</ele>
        <time>2019-09-30T15:14:29Z</time>
      </trkpt>
      <trkpt lat="47.24281" lon="6.02129">
        <ele>281.168</ele>
        <time>2019-09-30T15:14:59Z</time>
      </trkpt>
      <trkpt lat="47.24356" lon="6.02189">
        <ele>289.211</ele>
        <time>2019-09-30T15:15:29Z</time>
      </trkpt>
      <trkpt lat="47.24442" lon="6.02184">
        <ele>272.22</ele>
        <time>2019-09-30T15:16:02Z</time>
      </trkpt>
      <trkpt lat="47.24492" lon="6.02113">
        <ele>272.548</ele>
        <time>2019-09-30T15:16:32Z</time>
      </trkpt>
      <trkpt lat="47.24526" lon="6.02047">
        <ele>281.956</ele>
        <time>2019-09-30T15:17:02Z</time>
      </trkpt>
      <trkpt lat="47.24555" lon="6.01948">
        <ele>287.442</ele>
        <time>2019-09-30T15:17:38Z</time>
      </trkpt>
      <trkpt lat="47.24631" lon="6.01919">
        <ele>295.13</ele>
        <time>2019-09-30T15:18:08Z</time>
      </trkpt>
      <trkpt lat="47.24638" lon="6.01892">
        <ele>284.366</ele>
        <time>2019-09-30T15:18:38Z</time>
      </trkpt>
      <trkpt lat="47.24561" lon="6.01792">
        <ele>291.875</ele>
        <time>2019-09-30T15:19:08Z</time>
      </trkpt>
      <trkpt lat="47.24617" lon="6.01715">
        <ele>295.757</ele>
        <time>2019-09-30T15:19:38Z</time>
      </trkpt>
      <trkpt lat="47.24697" lon="6.01703">
        <ele>298.83</ele>
        <time>2019-09-30T15:20:08Z</time>
      </trkpt>
      <trkpt lat="47.24757" lon="6.01681">
        <ele>302.681</ele>
        <time>2019-09-30T15:20:38Z</time>
      </trkpt>
      <trkpt lat="47.24819" lon="6.01657">
        <ele>305.974</ele>
        <time>2019-09-30T15:21:08Z</time>
      </trkpt>
      <trkpt lat="47.24876" lon="6.01628">
        <ele>321.647</ele>
        <time>2019-09-30T15:21:41Z</time>
      </trkpt>
      <trkpt lat="47.24929" lon="6.01684">
        <ele>317.108</ele>
        <time>2019-09-30T15:22:14Z</time>
      </trkpt>
      <trkpt lat="47.24906" lon="6.0168">
        <ele>317.908</ele>
        <time>2019-09-30T15:29:56Z</time>
      </trkpt>
      <trkpt lat="47.24909" lon="6.01666">
        <ele>314.461</ele>
        <time>2019-09-30T15:30:44Z</time>
      </trkpt>
      <trkpt lat="47.24847" lon="6.0179">
        <ele>290.711</ele>
        <time>2019-09-30T15:34:43Z</time>
      </trkpt>
      <trkpt lat="47.2492" lon="6.01669">
        <ele>320.809</ele>
        <time>2019-09-30T15:38:58.001Z</time>
      </trkpt>
      <trkpt lat="47.24977" lon="6.01666">
        <ele>328.155</ele>
        <time>2019-09-30T15:40:04.001Z</time>
      </trkpt>
      <trkpt lat="47.2499" lon="6.01678">
        <ele>308</ele>
        <time>2019-09-30T15:41:40.001Z</time>
      </trkpt>
      <trkpt lat="47.24978" lon="6.01653">
        <ele>331.681</ele>
        <time>2019-09-30T15:45:28.001Z</time>
      </trkpt>
    </trkseg>
  </trk>
  <trk>
    <name><![CDATA[Tracé 20191001-100459]]></name>
    <trkseg>
      <trkpt lat="47.24918" lon="6.01638">
        <ele>317.54</ele>
        <time>2019-10-01T08:07:26Z</time>
      </trkpt>
      <trkpt lat="47.24879" lon="6.01629">
        <ele>314.093</ele>
        <time>2019-10-01T08:08:32Z</time>
      </trkpt>
      <trkpt lat="47.2461" lon="6.01726">
        <ele>311.653</ele>
        <time>2019-10-01T08:09:05Z</time>
      </trkpt>
      <trkpt lat="47.24584" lon="6.01834">
        <ele>293.425</ele>
        <time>2019-10-01T08:09:35Z</time>
      </trkpt>
      <trkpt lat="47.24621" lon="6.01897">
        <ele>283.487</ele>
        <time>2019-10-01T08:10:05Z</time>
      </trkpt>
      <trkpt lat="47.24517" lon="6.0206">
        <ele>272.719</ele>
        <time>2019-10-01T08:10:35Z</time>
      </trkpt>
      <trkpt lat="47.24428" lon="6.0217">
        <ele>266.958</ele>
        <time>2019-10-01T08:11:29Z</time>
      </trkpt>
      <trkpt lat="47.24309" lon="6.02141">
        <ele>267.847</ele>
        <time>2019-10-01T08:12:02Z</time>
      </trkpt>
      <trkpt lat="47.24198" lon="6.02076">
        <ele>274.407</ele>
        <time>2019-10-01T08:12:32Z</time>
      </trkpt>
      <trkpt lat="47.24071" lon="6.02026">
        <ele>276.915</ele>
        <time>2019-10-01T08:13:02Z</time>
      </trkpt>
      <trkpt lat="47.23966" lon="6.02062">
        <ele>259.353</ele>
        <time>2019-10-01T08:13:35Z</time>
      </trkpt>
      <trkpt lat="47.23913" lon="6.0215">
        <ele>253.982</ele>
        <time>2019-10-01T08:14:08Z</time>
      </trkpt>
      <trkpt lat="47.23865" lon="6.02235">
        <ele>262.064</ele>
        <time>2019-10-01T08:14:38Z</time>
      </trkpt>
      <trkpt lat="47.23815" lon="6.0235">
        <ele>263.763</ele>
        <time>2019-10-01T08:15:08Z</time>
      </trkpt>
      <trkpt lat="47.23753" lon="6.0245">
        <ele>277.39</ele>
        <time>2019-10-01T08:15:44Z</time>
      </trkpt>
      <trkpt lat="47.23669" lon="6.02524">
        <ele>282.366</ele>
        <time>2019-10-01T08:16:14Z</time>
      </trkpt>
      <trkpt lat="47.23616" lon="6.02632">
        <ele>287.672</ele>
        <time>2019-10-01T08:16:44Z</time>
      </trkpt>
      <trkpt lat="47.2357" lon="6.02768">
        <ele>271.75</ele>
        <time>2019-10-01T08:17:14Z</time>
      </trkpt>
      <trkpt lat="47.23494" lon="6.02847">
        <ele>257.534</ele>
        <time>2019-10-01T08:17:47Z</time>
      </trkpt>
      <trkpt lat="47.23415" lon="6.02738">
        <ele>264.871</ele>
        <time>2019-10-01T08:18:17Z</time>
      </trkpt>
      <trkpt lat="47.23367" lon="6.02671">
        <ele>269.583</ele>
        <time>2019-10-01T08:18:47Z</time>
      </trkpt>
      <trkpt lat="47.23263" lon="6.02561">
        <ele>279.769</ele>
        <time>2019-10-01T08:19:17Z</time>
      </trkpt>
      <trkpt lat="47.23209" lon="6.02469">
        <ele>264.831</ele>
        <time>2019-10-01T08:19:59Z</time>
      </trkpt>
      <trkpt lat="47.23108" lon="6.02497">
        <ele>251.657</ele>
        <time>2019-10-01T08:20:32Z</time>
      </trkpt>
      <trkpt lat="47.23087" lon="6.02702">
        <ele>245.626</ele>
        <time>2019-10-01T08:21:02Z</time>
      </trkpt>
      <trkpt lat="47.23039" lon="6.02864">
        <ele>247.909</ele>
        <time>2019-10-01T08:21:35Z</time>
      </trkpt>
      <trkpt lat="47.22989" lon="6.03015">
        <ele>243.105</ele>
        <time>2019-10-01T08:22:05Z</time>
      </trkpt>
      <trkpt lat="47.22962" lon="6.03037">
        <ele>246.454</ele>
        <time>2019-10-01T08:22:38Z</time>
      </trkpt>
      <trkpt lat="47.22879" lon="6.03089">
        <ele>242.911</ele>
        <time>2019-10-01T08:23:08Z</time>
      </trkpt>
      <trkpt lat="47.22778" lon="6.03208">
        <ele>242.323</ele>
        <time>2019-10-01T08:23:38Z</time>
      </trkpt>
      <trkpt lat="47.22664" lon="6.03254">
        <ele>257.14</ele>
        <time>2019-10-01T08:24:08Z</time>
      </trkpt>
      <trkpt lat="47.225" lon="6.03182">
        <ele>246.723</ele>
        <time>2019-10-01T08:24:41Z</time>
      </trkpt>
      <trkpt lat="47.22366" lon="6.03116">
        <ele>245.39</ele>
        <time>2019-10-01T08:25:11Z</time>
      </trkpt>
      <trkpt lat="47.22227" lon="6.03039">
        <ele>244.739</ele>
        <time>2019-10-01T08:25:41Z</time>
      </trkpt>
      <trkpt lat="47.22102" lon="6.02927">
        <ele>249.41</ele>
        <time>2019-10-01T08:26:11Z</time>
      </trkpt>
      <trkpt lat="47.22015" lon="6.02728">
        <ele>250.541</ele>
        <time>2019-10-01T08:26:44Z</time>
      </trkpt>
      <trkpt lat="47.2198" lon="6.025">
        <ele>245.353</ele>
        <time>2019-10-01T08:27:14Z</time>
      </trkpt>
      <trkpt lat="47.21926" lon="6.02301">
        <ele>240.471</ele>
        <time>2019-10-01T08:27:44Z</time>
      </trkpt>
      <trkpt lat="47.21829" lon="6.02089">
        <ele>239.637</ele>
        <time>2019-10-01T08:28:14Z</time>
      </trkpt>
      <trkpt lat="47.21741" lon="6.01881">
        <ele>245.983</ele>
        <time>2019-10-01T08:28:47Z</time>
      </trkpt>
      <trkpt lat="47.21706" lon="6.01643">
        <ele>244.518</ele>
        <time>2019-10-01T08:29:17Z</time>
      </trkpt>
      <trkpt lat="47.21688" lon="6.01407">
        <ele>243.891</ele>
        <time>2019-10-01T08:29:47Z</time>
      </trkpt>
      <trkpt lat="47.21669" lon="6.01181">
        <ele>243.5</ele>
        <time>2019-10-01T08:30:17Z</time>
      </trkpt>
      <trkpt lat="47.21652" lon="6.00931">
        <ele>248.842</ele>
        <time>2019-10-01T08:30:50Z</time>
      </trkpt>
      <trkpt lat="47.21643" lon="6.00719">
        <ele>254.424</ele>
        <time>2019-10-01T08:31:20Z</time>
      </trkpt>
      <trkpt lat="47.21613" lon="6.00484">
        <ele>241.79</ele>
        <time>2019-10-01T08:31:50Z</time>
      </trkpt>
      <trkpt lat="47.21539" lon="6.00295">
        <ele>236.74</ele>
        <time>2019-10-01T08:32:20Z</time>
      </trkpt>
      <trkpt lat="47.214" lon="6.00109">
        <ele>241.866</ele>
        <time>2019-10-01T08:32:53Z</time>
      </trkpt>
      <trkpt lat="47.21255" lon="5.99962">
        <ele>237.261</ele>
        <time>2019-10-01T08:33:23Z</time>
      </trkpt>
      <trkpt lat="47.21123" lon="5.99834">
        <ele>236.931</ele>
        <time>2019-10-01T08:33:53Z</time>
      </trkpt>
      <trkpt lat="47.20994" lon="5.99711">
        <ele>235.646</ele>
        <time>2019-10-01T08:34:23.001Z</time>
      </trkpt>
      <trkpt lat="47.20843" lon="5.99581">
        <ele>237.528</ele>
        <time>2019-10-01T08:34:56.001Z</time>
      </trkpt>
      <trkpt lat="47.20685" lon="5.99511">
        <ele>235.362</ele>
        <time>2019-10-01T08:35:26.001Z</time>
      </trkpt>
      <trkpt lat="47.20611" lon="5.99552">
        <ele>238.464</ele>
        <time>2019-10-01T08:35:56.001Z</time>
      </trkpt>
      <trkpt lat="47.20468" lon="5.99494">
        <ele>239.732</ele>
        <time>2019-10-01T08:36:26.001Z</time>
      </trkpt>
      <trkpt lat="47.20304" lon="5.99425">
        <ele>237.981</ele>
        <time>2019-10-01T08:36:59.001Z</time>
      </trkpt>
      <trkpt lat="47.20156" lon="5.99312">
        <ele>241.962</ele>
        <time>2019-10-01T08:37:29.001Z</time>
      </trkpt>
      <trkpt lat="47.20054" lon="5.99167">
        <ele>244.407</ele>
        <time>2019-10-01T08:37:59.001Z</time>
      </trkpt>
      <trkpt lat="47.19986" lon="5.98942">
        <ele>241.856</ele>
        <time>2019-10-01T08:38:29.001Z</time>
      </trkpt>
      <trkpt lat="47.1991" lon="5.98743">
        <ele>234.812</ele>
        <time>2019-10-01T08:38:59.001Z</time>
      </trkpt>
      <trkpt lat="47.19832" lon="5.98527">
        <ele>237.22</ele>
        <time>2019-10-01T08:39:32.001Z</time>
      </trkpt>
      <trkpt lat="47.1982" lon="5.98307">
        <ele>242.57</ele>
        <time>2019-10-01T08:40:02Z</time>
      </trkpt>
      <trkpt lat="47.1987" lon="5.98101">
        <ele>240.204</ele>
        <time>2019-10-01T08:40:32.001Z</time>
      </trkpt>
      <trkpt lat="47.19896" lon="5.97869">
        <ele>238.537</ele>
        <time>2019-10-01T08:41:02Z</time>
      </trkpt>
      <trkpt lat="47.19903" lon="5.97614">
        <ele>241.039</ele>
        <time>2019-10-01T08:41:35.001Z</time>
      </trkpt>
      <trkpt lat="47.19917" lon="5.97381">
        <ele>240.967</ele>
        <time>2019-10-01T08:42:05.001Z</time>
      </trkpt>
      <trkpt lat="47.19928" lon="5.97155">
        <ele>241.33</ele>
        <time>2019-10-01T08:42:35.001Z</time>
      </trkpt>
      <trkpt lat="47.19934" lon="5.96926">
        <ele>241.352</ele>
        <time>2019-10-01T08:43:05.001Z</time>
      </trkpt>
      <trkpt lat="47.199" lon="5.96683">
        <ele>235.881</ele>
        <time>2019-10-01T08:43:38.001Z</time>
      </trkpt>
      <trkpt lat="47.19905" lon="5.96475">
        <ele>240.739</ele>
        <time>2019-10-01T08:44:08.001Z</time>
      </trkpt>
      <trkpt lat="47.19905" lon="5.96256">
        <ele>243.554</ele>
        <time>2019-10-01T08:44:38.001Z</time>
      </trkpt>
      <trkpt lat="47.19868" lon="5.96054">
        <ele>241.491</ele>
        <time>2019-10-01T08:45:11.001Z</time>
      </trkpt>
      <trkpt lat="47.19733" lon="5.95938">
        <ele>234.766</ele>
        <time>2019-10-01T08:45:44.001Z</time>
      </trkpt>
      <trkpt lat="47.19589" lon="5.95931">
        <ele>234.12</ele>
        <time>2019-10-01T08:46:14.001Z</time>
      </trkpt>
      <trkpt lat="47.19445" lon="5.95934">
        <ele>233.853</ele>
        <time>2019-10-01T08:46:44.001Z</time>
      </trkpt>
      <trkpt lat="47.19328" lon="5.96055">
        <ele>236.132</ele>
        <time>2019-10-01T08:47:14.001Z</time>
      </trkpt>
      <trkpt lat="47.19221" lon="5.96228">
        <ele>236.372</ele>
        <time>2019-10-01T08:47:47.001Z</time>
      </trkpt>
      <trkpt lat="47.19116" lon="5.96379">
        <ele>239.112</ele>
        <time>2019-10-01T08:48:17.001Z</time>
      </trkpt>
      <trkpt lat="47.18968" lon="5.96434">
        <ele>241.123</ele>
        <time>2019-10-01T08:48:47.001Z</time>
      </trkpt>
      <trkpt lat="47.18811" lon="5.96396">
        <ele>232.487</ele>
        <time>2019-10-01T08:49:17.001Z</time>
      </trkpt>
      <trkpt lat="47.18663" lon="5.9628">
        <ele>237.548</ele>
        <time>2019-10-01T08:49:50.001Z</time>
      </trkpt>
      <trkpt lat="47.18551" lon="5.96103">
        <ele>242.85</ele>
        <time>2019-10-01T08:50:20.001Z</time>
      </trkpt>
      <trkpt lat="47.18448" lon="5.95924">
        <ele>240.763</ele>
        <time>2019-10-01T08:50:50.001Z</time>
      </trkpt>
      <trkpt lat="47.18341" lon="5.95745">
        <ele>240.963</ele>
        <time>2019-10-01T08:51:20.001Z</time>
      </trkpt>
      <trkpt lat="47.18242" lon="5.95525">
        <ele>241.526</ele>
        <time>2019-10-01T08:51:53.001Z</time>
      </trkpt>
      <trkpt lat="47.18191" lon="5.95321">
        <ele>236.419</ele>
        <time>2019-10-01T08:52:23.001Z</time>
      </trkpt>
      <trkpt lat="47.18144" lon="5.95122">
        <ele>238.078</ele>
        <time>2019-10-01T08:52:53.001Z</time>
      </trkpt>
      <trkpt lat="47.18092" lon="5.94905">
        <ele>240.319</ele>
        <time>2019-10-01T08:53:23.001Z</time>
      </trkpt>
      <trkpt lat="47.18006" lon="5.94643">
        <ele>236.688</ele>
        <time>2019-10-01T08:53:56.001Z</time>
      </trkpt>
      <trkpt lat="47.17886" lon="5.94483">
        <ele>233.646</ele>
        <time>2019-10-01T08:54:26.001Z</time>
      </trkpt>
      <trkpt lat="47.17732" lon="5.94344">
        <ele>232.055</ele>
        <time>2019-10-01T08:54:56.001Z</time>
      </trkpt>
      <trkpt lat="47.17579" lon="5.94234">
        <ele>227.869</ele>
        <time>2019-10-01T08:55:26.001Z</time>
      </trkpt>
      <trkpt lat="47.17458" lon="5.94041">
        <ele>226.446</ele>
        <time>2019-10-01T08:55:59.001Z</time>
      </trkpt>
      <trkpt lat="47.17394" lon="5.938">
        <ele>231.582</ele>
        <time>2019-10-01T08:56:29.001Z</time>
      </trkpt>
      <trkpt lat="47.17326" lon="5.93567">
        <ele>229.883</ele>
        <time>2019-10-01T08:56:59.001Z</time>
      </trkpt>
      <trkpt lat="47.17252" lon="5.93372">
        <ele>231.516</ele>
        <time>2019-10-01T08:57:29.001Z</time>
      </trkpt>
      <trkpt lat="47.17188" lon="5.93164">
        <ele>231.755</ele>
        <time>2019-10-01T08:58:02Z</time>
      </trkpt>
      <trkpt lat="47.17166" lon="5.9307">
        <ele>231.442</ele>
        <time>2019-10-01T09:00:32.001Z</time>
      </trkpt>
      <trkpt lat="47.1713" lon="5.92885">
        <ele>230.041</ele>
        <time>2019-10-01T09:01:02Z</time>
      </trkpt>
      <trkpt lat="47.17105" lon="5.92672">
        <ele>232.167</ele>
        <time>2019-10-01T09:01:32.001Z</time>
      </trkpt>
      <trkpt lat="47.17083" lon="5.92432">
        <ele>233.729</ele>
        <time>2019-10-01T09:02:02Z</time>
      </trkpt>
      <trkpt lat="47.17068" lon="5.92178">
        <ele>232.16</ele>
        <time>2019-10-01T09:02:35.001Z</time>
      </trkpt>
      <trkpt lat="47.17062" lon="5.91946">
        <ele>231.64</ele>
        <time>2019-10-01T09:03:05.001Z</time>
      </trkpt>
      <trkpt lat="47.17051" lon="5.91721">
        <ele>232.068</ele>
        <time>2019-10-01T09:03:35.001Z</time>
      </trkpt>
      <trkpt lat="47.16994" lon="5.9151">
        <ele>231.832</ele>
        <time>2019-10-01T09:04:05.001Z</time>
      </trkpt>
      <trkpt lat="47.16985" lon="5.91309">
        <ele>234.356</ele>
        <time>2019-10-01T09:04:38.001Z</time>
      </trkpt>
      <trkpt lat="47.17032" lon="5.91082">
        <ele>238.315</ele>
        <time>2019-10-01T09:05:08.001Z</time>
      </trkpt>
      <trkpt lat="47.17103" lon="5.90865">
        <ele>237.66</ele>
        <time>2019-10-01T09:05:38.001Z</time>
      </trkpt>
      <trkpt lat="47.17179" lon="5.90691">
        <ele>243.489</ele>
        <time>2019-10-01T09:06:08.001Z</time>
      </trkpt>
      <trkpt lat="47.1725" lon="5.90577">
        <ele>247.973</ele>
        <time>2019-10-01T09:06:41.001Z</time>
      </trkpt>
      <trkpt lat="47.17238" lon="5.90488">
        <ele>251.272</ele>
        <time>2019-10-01T09:07:11.001Z</time>
      </trkpt>
      <trkpt lat="47.17101" lon="5.90539">
        <ele>243.204</ele>
        <time>2019-10-01T09:07:41.001Z</time>
      </trkpt>
      <trkpt lat="47.17012" lon="5.90586">
        <ele>237.272</ele>
        <time>2019-10-01T09:08:11.001Z</time>
      </trkpt>
      <trkpt lat="47.16894" lon="5.90473">
        <ele>238.743</ele>
        <time>2019-10-01T09:08:44.001Z</time>
      </trkpt>
      <trkpt lat="47.16781" lon="5.90317">
        <ele>234.661</ele>
        <time>2019-10-01T09:09:14.001Z</time>
      </trkpt>
      <trkpt lat="47.16618" lon="5.9033">
        <ele>228.748</ele>
        <time>2019-10-01T09:09:44.001Z</time>
      </trkpt>
      <trkpt lat="47.16518" lon="5.90269">
        <ele>237.047</ele>
        <time>2019-10-01T09:10:14.001Z</time>
      </trkpt>
      <trkpt lat="47.16423" lon="5.90117">
        <ele>247.239</ele>
        <time>2019-10-01T09:10:47.001Z</time>
      </trkpt>
      <trkpt lat="47.16347" lon="5.89923">
        <ele>254.804</ele>
        <time>2019-10-01T09:11:17.001Z</time>
      </trkpt>
      <trkpt lat="47.16291" lon="5.89695">
        <ele>259.074</ele>
        <time>2019-10-01T09:11:47.001Z</time>
      </trkpt>
      <trkpt lat="47.16235" lon="5.89461">
        <ele>247.63</ele>
        <time>2019-10-01T09:12:17.001Z</time>
      </trkpt>
      <trkpt lat="47.1618" lon="5.89208">
        <ele>240.462</ele>
        <time>2019-10-01T09:12:50.001Z</time>
      </trkpt>
      <trkpt lat="47.16138" lon="5.89034">
        <ele>231.455</ele>
        <time>2019-10-01T09:13:20.001Z</time>
      </trkpt>
      <trkpt lat="47.16046" lon="5.88871">
        <ele>226.844</ele>
        <time>2019-10-01T09:13:50.001Z</time>
      </trkpt>
      <trkpt lat="47.15983" lon="5.88751">
        <ele>234.934</ele>
        <time>2019-10-01T09:14:20.001Z</time>
      </trkpt>
      <trkpt lat="47.16098" lon="5.88669">
        <ele>237.531</ele>
        <time>2019-10-01T09:14:53.001Z</time>
      </trkpt>
      <trkpt lat="47.16257" lon="5.88586">
        <ele>229.843</ele>
        <time>2019-10-01T09:15:23.001Z</time>
      </trkpt>
      <trkpt lat="47.16251" lon="5.88414">
        <ele>227.352</ele>
        <time>2019-10-01T09:15:53.001Z</time>
      </trkpt>
      <trkpt lat="47.16129" lon="5.88287">
        <ele>228.449</ele>
        <time>2019-10-01T09:16:23.001Z</time>
      </trkpt>
      <trkpt lat="47.15967" lon="5.88234">
        <ele>228.164</ele>
        <time>2019-10-01T09:16:56.001Z</time>
      </trkpt>
      <trkpt lat="47.15821" lon="5.88269">
        <ele>231.426</ele>
        <time>2019-10-01T09:17:26.001Z</time>
      </trkpt>
      <trkpt lat="47.15665" lon="5.8834">
        <ele>227.359</ele>
        <time>2019-10-01T09:17:56.001Z</time>
      </trkpt>
      <trkpt lat="47.15524" lon="5.8835">
        <ele>226.988</ele>
        <time>2019-10-01T09:18:26.001Z</time>
      </trkpt>
      <trkpt lat="47.15359" lon="5.88346">
        <ele>229.333</ele>
        <time>2019-10-01T09:18:59.001Z</time>
      </trkpt>
      <trkpt lat="47.15209" lon="5.88337">
        <ele>230.327</ele>
        <time>2019-10-01T09:19:29.001Z</time>
      </trkpt>
      <trkpt lat="47.15051" lon="5.8833">
        <ele>229.656</ele>
        <time>2019-10-01T09:19:59.001Z</time>
      </trkpt>
      <trkpt lat="47.14888" lon="5.88323">
        <ele>233.978</ele>
        <time>2019-10-01T09:20:29.001Z</time>
      </trkpt>
      <trkpt lat="47.14736" lon="5.88252">
        <ele>231.835</ele>
        <time>2019-10-01T09:20:59.001Z</time>
      </trkpt>
      <trkpt lat="47.14583" lon="5.88107">
        <ele>229.631</ele>
        <time>2019-10-01T09:21:32.001Z</time>
      </trkpt>
      <trkpt lat="47.14457" lon="5.87951">
        <ele>228.777</ele>
        <time>2019-10-01T09:22:02Z</time>
      </trkpt>
      <trkpt lat="47.14373" lon="5.8775">
        <ele>228.868</ele>
        <time>2019-10-01T09:22:32.001Z</time>
      </trkpt>
      <trkpt lat="47.14291" lon="5.87549">
        <ele>227.554</ele>
        <time>2019-10-01T09:23:02Z</time>
      </trkpt>
      <trkpt lat="47.14198" lon="5.87338">
        <ele>227.243</ele>
        <time>2019-10-01T09:23:35.001Z</time>
      </trkpt>
      <trkpt lat="47.14131" lon="5.87146">
        <ele>226.471</ele>
        <time>2019-10-01T09:24:05.001Z</time>
      </trkpt>
      <trkpt lat="47.14075" lon="5.87001">
        <ele>227.384</ele>
        <time>2019-10-01T09:24:35.001Z</time>
      </trkpt>
      <trkpt lat="47.14008" lon="5.86788">
        <ele>229.01</ele>
        <time>2019-10-01T09:25:05.001Z</time>
      </trkpt>
      <trkpt lat="47.13947" lon="5.86534">
        <ele>227.129</ele>
        <time>2019-10-01T09:25:38.001Z</time>
      </trkpt>
      <trkpt lat="47.13896" lon="5.86312">
        <ele>223.735</ele>
        <time>2019-10-01T09:26:08.001Z</time>
      </trkpt>
      <trkpt lat="47.13909" lon="5.86083">
        <ele>226.752</ele>
        <time>2019-10-01T09:26:38.001Z</time>
      </trkpt>
      <trkpt lat="47.13927" lon="5.85854">
        <ele>230.817</ele>
        <time>2019-10-01T09:27:08.001Z</time>
      </trkpt>
      <trkpt lat="47.13955" lon="5.8558">
        <ele>225.946</ele>
        <time>2019-10-01T09:27:41.001Z</time>
      </trkpt>
      <trkpt lat="47.13976" lon="5.85339">
        <ele>224.301</ele>
        <time>2019-10-01T09:28:11.001Z</time>
      </trkpt>
      <trkpt lat="47.13989" lon="5.85162">
        <ele>229.337</ele>
        <time>2019-10-01T09:28:41.001Z</time>
      </trkpt>
      <trkpt lat="47.14117" lon="5.85044">
        <ele>228.426</ele>
        <time>2019-10-01T09:29:11.001Z</time>
      </trkpt>
      <trkpt lat="47.14295" lon="5.85098">
        <ele>222.453</ele>
        <time>2019-10-01T09:29:44.001Z</time>
      </trkpt>
      <trkpt lat="47.14453" lon="5.85175">
        <ele>221.911</ele>
        <time>2019-10-01T09:30:14.001Z</time>
      </trkpt>
      <trkpt lat="47.14615" lon="5.85249">
        <ele>220.91</ele>
        <time>2019-10-01T09:30:44.001Z</time>
      </trkpt>
      <trkpt lat="47.14774" lon="5.85327">
        <ele>221.421</ele>
        <time>2019-10-01T09:31:14.001Z</time>
      </trkpt>
      <trkpt lat="47.14942" lon="5.85408">
        <ele>225.794</ele>
        <time>2019-10-01T09:31:47.001Z</time>
      </trkpt>
      <trkpt lat="47.15104" lon="5.8549">
        <ele>229.962</ele>
        <time>2019-10-01T09:32:17.001Z</time>
      </trkpt>
      <trkpt lat="47.1527" lon="5.85567">
        <ele>231.194</ele>
        <time>2019-10-01T09:32:47.001Z</time>
      </trkpt>
      <trkpt lat="47.15442" lon="5.85615">
        <ele>228.118</ele>
        <time>2019-10-01T09:33:17.002Z</time>
      </trkpt>
      <trkpt lat="47.15579" lon="5.85643">
        <ele>226.053</ele>
        <time>2019-10-01T09:33:50.001Z</time>
      </trkpt>
      <trkpt lat="47.15735" lon="5.8563">
        <ele>223.049</ele>
        <time>2019-10-01T09:34:20.001Z</time>
      </trkpt>
      <trkpt lat="47.15892" lon="5.85529">
        <ele>221.778</ele>
        <time>2019-10-01T09:34:50.001Z</time>
      </trkpt>
      <trkpt lat="47.16038" lon="5.8541">
        <ele>221.392</ele>
        <time>2019-10-01T09:35:20.001Z</time>
      </trkpt>
      <trkpt lat="47.16198" lon="5.85282">
        <ele>221.796</ele>
        <time>2019-10-01T09:35:53.001Z</time>
      </trkpt>
      <trkpt lat="47.16337" lon="5.85155">
        <ele>220.985</ele>
        <time>2019-10-01T09:36:23.001Z</time>
      </trkpt>
      <trkpt lat="47.16453" lon="5.84988">
        <ele>223.749</ele>
        <time>2019-10-01T09:36:53.001Z</time>
      </trkpt>
      <trkpt lat="47.16544" lon="5.84784">
        <ele>225.406</ele>
        <time>2019-10-01T09:37:23.001Z</time>
      </trkpt>
      <trkpt lat="47.166" lon="5.84536">
        <ele>225.809</ele>
        <time>2019-10-01T09:37:56.001Z</time>
      </trkpt>
      <trkpt lat="47.16646" lon="5.84294">
        <ele>221.431</ele>
        <time>2019-10-01T09:38:26.001Z</time>
      </trkpt>
      <trkpt lat="47.16689" lon="5.84064">
        <ele>225.258</ele>
        <time>2019-10-01T09:38:56.001Z</time>
      </trkpt>
      <trkpt lat="47.16729" lon="5.83827">
        <ele>225.822</ele>
        <time>2019-10-01T09:39:26.001Z</time>
      </trkpt>
      <trkpt lat="47.16742" lon="5.83652">
        <ele>226.825</ele>
        <time>2019-10-01T09:50:53.001Z</time>
      </trkpt>
      <trkpt lat="47.16738" lon="5.83466">
        <ele>228.827</ele>
        <time>2019-10-01T09:51:23.001Z</time>
      </trkpt>
      <trkpt lat="47.16704" lon="5.83248">
        <ele>227.197</ele>
        <time>2019-10-01T09:51:53.001Z</time>
      </trkpt>
      <trkpt lat="47.16642" lon="5.83026">
        <ele>228.821</ele>
        <time>2019-10-01T09:52:23.001Z</time>
      </trkpt>
      <trkpt lat="47.16609" lon="5.82808">
        <ele>229.813</ele>
        <time>2019-10-01T09:52:53.001Z</time>
      </trkpt>
      <trkpt lat="47.16609" lon="5.8255">
        <ele>228.365</ele>
        <time>2019-10-01T09:53:26.001Z</time>
      </trkpt>
      <trkpt lat="47.16672" lon="5.82331">
        <ele>225.287</ele>
        <time>2019-10-01T09:53:56.001Z</time>
      </trkpt>
      <trkpt lat="47.16752" lon="5.82129">
        <ele>222.127</ele>
        <time>2019-10-01T09:54:26.001Z</time>
      </trkpt>
      <trkpt lat="47.16798" lon="5.81903">
        <ele>222.943</ele>
        <time>2019-10-01T09:54:56.001Z</time>
      </trkpt>
      <trkpt lat="47.16811" lon="5.81626">
        <ele>223.889</ele>
        <time>2019-10-01T09:55:29.001Z</time>
      </trkpt>
      <trkpt lat="47.16815" lon="5.81391">
        <ele>222.845</ele>
        <time>2019-10-01T09:55:59.001Z</time>
      </trkpt>
      <trkpt lat="47.16935" lon="5.81224">
        <ele>217.149</ele>
        <time>2019-10-01T09:56:29.001Z</time>
      </trkpt>
      <trkpt lat="47.17043" lon="5.81051">
        <ele>215.783</ele>
        <time>2019-10-01T09:56:59.001Z</time>
      </trkpt>
      <trkpt lat="47.17149" lon="5.80851">
        <ele>215.93</ele>
        <time>2019-10-01T09:57:32.001Z</time>
      </trkpt>
      <trkpt lat="47.17231" lon="5.80644">
        <ele>218.238</ele>
        <time>2019-10-01T09:58:02Z</time>
      </trkpt>
      <trkpt lat="47.17286" lon="5.80426">
        <ele>219.818</ele>
        <time>2019-10-01T09:58:32.001Z</time>
      </trkpt>
      <trkpt lat="47.17309" lon="5.80197">
        <ele>222.015</ele>
        <time>2019-10-01T09:59:02Z</time>
      </trkpt>
      <trkpt lat="47.17339" lon="5.79936">
        <ele>220.264</ele>
        <time>2019-10-01T09:59:35.001Z</time>
      </trkpt>
      <trkpt lat="47.1738" lon="5.79704">
        <ele>219.215</ele>
        <time>2019-10-01T10:00:05.001Z</time>
      </trkpt>
      <trkpt lat="47.1742" lon="5.79497">
        <ele>218.01</ele>
        <time>2019-10-01T10:00:35.001Z</time>
      </trkpt>
      <trkpt lat="47.17456" lon="5.79437">
        <ele>217.03</ele>
        <time>2019-10-01T10:14:59.001Z</time>
      </trkpt>
      <trkpt lat="47.17472" lon="5.79401">
        <ele>217.97</ele>
        <time>2019-10-01T10:33:14.002Z</time>
      </trkpt>
      <trkpt lat="47.17479" lon="5.7927">
        <ele>219.936</ele>
        <time>2019-10-01T10:33:44.001Z</time>
      </trkpt>
      <trkpt lat="47.17395" lon="5.79106">
        <ele>215.702</ele>
        <time>2019-10-01T10:34:14.001Z</time>
      </trkpt>
      <trkpt lat="47.17361" lon="5.78901">
        <ele>218.08</ele>
        <time>2019-10-01T10:34:44.001Z</time>
      </trkpt>
      <trkpt lat="47.17288" lon="5.78685">
        <ele>217.808</ele>
        <time>2019-10-01T10:35:17.001Z</time>
      </trkpt>
      <trkpt lat="47.17183" lon="5.78523">
        <ele>218.776</ele>
        <time>2019-10-01T10:35:47.001Z</time>
      </trkpt>
      <trkpt lat="47.17045" lon="5.78414">
        <ele>218.419</ele>
        <time>2019-10-01T10:36:17.001Z</time>
      </trkpt>
      <trkpt lat="47.16903" lon="5.78336">
        <ele>220.137</ele>
        <time>2019-10-01T10:36:47.001Z</time>
      </trkpt>
      <trkpt lat="47.16748" lon="5.78218">
        <ele>219.916</ele>
        <time>2019-10-01T10:37:20.001Z</time>
      </trkpt>
      <trkpt lat="47.1661" lon="5.78096">
        <ele>217.581</ele>
        <time>2019-10-01T10:37:50.001Z</time>
      </trkpt>
      <trkpt lat="47.16478" lon="5.77958">
        <ele>217.224</ele>
        <time>2019-10-01T10:38:20.001Z</time>
      </trkpt>
      <trkpt lat="47.16363" lon="5.77802">
        <ele>216.897</ele>
        <time>2019-10-01T10:38:50.001Z</time>
      </trkpt>
      <trkpt lat="47.1627" lon="5.77593">
        <ele>216.8</ele>
        <time>2019-10-01T10:39:23.001Z</time>
      </trkpt>
      <trkpt lat="47.16206" lon="5.77389">
        <ele>218.761</ele>
        <time>2019-10-01T10:39:53.001Z</time>
      </trkpt>
      <trkpt lat="47.16149" lon="5.77184">
        <ele>218.757</ele>
        <time>2019-10-01T10:40:23.001Z</time>
      </trkpt>
      <trkpt lat="47.161" lon="5.76969">
        <ele>220.423</ele>
        <time>2019-10-01T10:40:53.001Z</time>
      </trkpt>
      <trkpt lat="47.16" lon="5.76794">
        <ele>218.57</ele>
        <time>2019-10-01T10:41:26.001Z</time>
      </trkpt>
      <trkpt lat="47.15934" lon="5.76586">
        <ele>218.726</ele>
        <time>2019-10-01T10:41:56.001Z</time>
      </trkpt>
      <trkpt lat="47.15876" lon="5.76383">
        <ele>217.856</ele>
        <time>2019-10-01T10:42:26.001Z</time>
      </trkpt>
      <trkpt lat="47.15813" lon="5.76177">
        <ele>220.253</ele>
        <time>2019-10-01T10:42:56.001Z</time>
      </trkpt>
      <trkpt lat="47.15764" lon="5.76008">
        <ele>219.92</ele>
        <time>2019-10-01T10:43:26.001Z</time>
      </trkpt>
      <trkpt lat="47.15692" lon="5.75759">
        <ele>218.231</ele>
        <time>2019-10-01T10:43:59.001Z</time>
      </trkpt>
      <trkpt lat="47.1563" lon="5.75552">
        <ele>216.861</ele>
        <time>2019-10-01T10:44:29.001Z</time>
      </trkpt>
      <trkpt lat="47.15568" lon="5.7534">
        <ele>216.03</ele>
        <time>2019-10-01T10:44:59.001Z</time>
      </trkpt>
      <trkpt lat="47.15506" lon="5.75133">
        <ele>216.54</ele>
        <time>2019-10-01T10:45:29.001Z</time>
      </trkpt>
      <trkpt lat="47.15442" lon="5.7491">
        <ele>218.706</ele>
        <time>2019-10-01T10:46:02Z</time>
      </trkpt>
      <trkpt lat="47.15378" lon="5.74708">
        <ele>219.338</ele>
        <time>2019-10-01T10:46:32.001Z</time>
      </trkpt>
      <trkpt lat="47.15324" lon="5.74505">
        <ele>215.572</ele>
        <time>2019-10-01T10:47:02Z</time>
      </trkpt>
      <trkpt lat="47.15263" lon="5.74298">
        <ele>220.882</ele>
        <time>2019-10-01T10:47:32.001Z</time>
      </trkpt>
      <trkpt lat="47.15195" lon="5.74064">
        <ele>216.048</ele>
        <time>2019-10-01T10:48:05.001Z</time>
      </trkpt>
      <trkpt lat="47.15161" lon="5.7385">
        <ele>214.092</ele>
        <time>2019-10-01T10:48:35.001Z</time>
      </trkpt>
      <trkpt lat="47.15137" lon="5.73642">
        <ele>213.369</ele>
        <time>2019-10-01T10:49:05.001Z</time>
      </trkpt>
      <trkpt lat="47.15077" lon="5.73437">
        <ele>212.951</ele>
        <time>2019-10-01T10:49:35.001Z</time>
      </trkpt>
      <trkpt lat="47.15002" lon="5.73213">
        <ele>213.88</ele>
        <time>2019-10-01T10:50:08.001Z</time>
      </trkpt>
      <trkpt lat="47.14912" lon="5.7304">
        <ele>214.488</ele>
        <time>2019-10-01T10:50:38.001Z</time>
      </trkpt>
      <trkpt lat="47.14836" lon="5.72852">
        <ele>216.276</ele>
        <time>2019-10-01T10:51:08.001Z</time>
      </trkpt>
      <trkpt lat="47.14821" lon="5.72641">
        <ele>218.565</ele>
        <time>2019-10-01T10:51:38.001Z</time>
      </trkpt>
      <trkpt lat="47.14836" lon="5.72421">
        <ele>212.147</ele>
        <time>2019-10-01T10:52:11.001Z</time>
      </trkpt>
      <trkpt lat="47.14851" lon="5.72333">
        <ele>213.255</ele>
        <time>2019-10-01T10:53:23.001Z</time>
      </trkpt>
      <trkpt lat="47.14869" lon="5.72171">
        <ele>213.98</ele>
        <time>2019-10-01T10:53:53.001Z</time>
      </trkpt>
      <trkpt lat="47.14902" lon="5.71953">
        <ele>212.111</ele>
        <time>2019-10-01T10:54:23.001Z</time>
      </trkpt>
      <trkpt lat="47.14939" lon="5.717">
        <ele>214.203</ele>
        <time>2019-10-01T10:54:56.001Z</time>
      </trkpt>
      <trkpt lat="47.1497" lon="5.71466">
        <ele>214.101</ele>
        <time>2019-10-01T10:55:26.001Z</time>
      </trkpt>
      <trkpt lat="47.15053" lon="5.71274">
        <ele>212.457</ele>
        <time>2019-10-01T10:55:56.001Z</time>
      </trkpt>
      <trkpt lat="47.15089" lon="5.71042">
        <ele>209.082</ele>
        <time>2019-10-01T10:56:26.001Z</time>
      </trkpt>
      <trkpt lat="47.15096" lon="5.70795">
        <ele>209.678</ele>
        <time>2019-10-01T10:56:59.001Z</time>
      </trkpt>
      <trkpt lat="47.15069" lon="5.70584">
        <ele>212.993</ele>
        <time>2019-10-01T10:57:29.001Z</time>
      </trkpt>
      <trkpt lat="47.15053" lon="5.70364">
        <ele>215.925</ele>
        <time>2019-10-01T10:57:59.001Z</time>
      </trkpt>
      <trkpt lat="47.15073" lon="5.702">
        <ele>211.828</ele>
        <time>2019-10-01T10:58:29.001Z</time>
      </trkpt>
      <trkpt lat="47.15138" lon="5.6998">
        <ele>211.474</ele>
        <time>2019-10-01T10:59:02Z</time>
      </trkpt>
      <trkpt lat="47.15117" lon="5.69806">
        <ele>219.574</ele>
        <time>2019-10-01T10:59:32.001Z</time>
      </trkpt>
      <trkpt lat="47.15118" lon="5.69663">
        <ele>225.625</ele>
        <time>2019-10-01T11:00:02Z</time>
      </trkpt>
      <trkpt lat="47.1513" lon="5.69537">
        <ele>229.557</ele>
        <time>2019-10-01T11:00:32.001Z</time>
      </trkpt>
      <trkpt lat="47.15164" lon="5.69443">
        <ele>233.011</ele>
        <time>2019-10-01T11:01:05.001Z</time>
      </trkpt>
      <trkpt lat="47.15214" lon="5.69389">
        <ele>237.937</ele>
        <time>2019-10-01T11:01:35.001Z</time>
      </trkpt>
      <trkpt lat="47.15248" lon="5.69312">
        <ele>243.337</ele>
        <time>2019-10-01T11:02:05.001Z</time>
      </trkpt>
      <trkpt lat="47.15233" lon="5.69215">
        <ele>244.854</ele>
        <time>2019-10-01T11:02:35.001Z</time>
      </trkpt>
      <trkpt lat="47.15225" lon="5.69095">
        <ele>250.535</ele>
        <time>2019-10-01T11:03:08.001Z</time>
      </trkpt>
      <trkpt lat="47.15195" lon="5.68979">
        <ele>250.346</ele>
        <time>2019-10-01T11:03:38.001Z</time>
      </trkpt>
      <trkpt lat="47.15123" lon="5.68858">
        <ele>246.708</ele>
        <time>2019-10-01T11:04:08.001Z</time>
      </trkpt>
      <trkpt lat="47.15021" lon="5.68688">
        <ele>245.521</ele>
        <time>2019-10-01T11:04:38.001Z</time>
      </trkpt>
      <trkpt lat="47.14961" lon="5.68545">
        <ele>249.042</ele>
        <time>2019-10-01T11:05:08.001Z</time>
      </trkpt>
      <trkpt lat="47.14861" lon="5.68424">
        <ele>257.435</ele>
        <time>2019-10-01T11:05:41.001Z</time>
      </trkpt>
      <trkpt lat="47.14766" lon="5.68291">
        <ele>253.062</ele>
        <time>2019-10-01T11:06:11.001Z</time>
      </trkpt>
      <trkpt lat="47.14853" lon="5.68174">
        <ele>247.766</ele>
        <time>2019-10-01T11:06:41.001Z</time>
      </trkpt>
      <trkpt lat="47.14885" lon="5.68003">
        <ele>247.194</ele>
        <time>2019-10-01T11:07:11.001Z</time>
      </trkpt>
      <trkpt lat="47.14969" lon="5.67919">
        <ele>251.767</ele>
        <time>2019-10-01T11:07:44.001Z</time>
      </trkpt>
      <trkpt lat="47.14951" lon="5.67706">
        <ele>250.375</ele>
        <time>2019-10-01T11:08:14.001Z</time>
      </trkpt>
      <trkpt lat="47.14932" lon="5.67499">
        <ele>248.86</ele>
        <time>2019-10-01T11:08:44.001Z</time>
      </trkpt>
      <trkpt lat="47.14915" lon="5.67286">
        <ele>249.566</ele>
        <time>2019-10-01T11:09:14.001Z</time>
      </trkpt>
      <trkpt lat="47.14892" lon="5.67042">
        <ele>248.2</ele>
        <time>2019-10-01T11:09:47.001Z</time>
      </trkpt>
      <trkpt lat="47.14869" lon="5.66823">
        <ele>247.71</ele>
        <time>2019-10-01T11:10:17.001Z</time>
      </trkpt>
      <trkpt lat="47.14843" lon="5.66605">
        <ele>247.653</ele>
        <time>2019-10-01T11:10:47.001Z</time>
      </trkpt>
      <trkpt lat="47.1478" lon="5.66343">
        <ele>240.996</ele>
        <time>2019-10-01T11:11:17.001Z</time>
      </trkpt>
      <trkpt lat="47.14723" lon="5.66222">
        <ele>231.381</ele>
        <time>2019-10-01T11:11:50.001Z</time>
      </trkpt>
      <trkpt lat="47.14648" lon="5.66069">
        <ele>221.936</ele>
        <time>2019-10-01T11:12:20.001Z</time>
      </trkpt>
      <trkpt lat="47.14601" lon="5.65919">
        <ele>216.489</ele>
        <time>2019-10-01T11:12:50.001Z</time>
      </trkpt>
      <trkpt lat="47.14587" lon="5.65728">
        <ele>210.555</ele>
        <time>2019-10-01T11:13:20.001Z</time>
      </trkpt>
      <trkpt lat="47.14542" lon="5.65609">
        <ele>211.259</ele>
        <time>2019-10-01T11:13:53.001Z</time>
      </trkpt>
      <trkpt lat="47.144" lon="5.65584">
        <ele>210.873</ele>
        <time>2019-10-01T11:14:23.001Z</time>
      </trkpt>
      <trkpt lat="47.14246" lon="5.65562">
        <ele>207.299</ele>
        <time>2019-10-01T11:14:53.001Z</time>
      </trkpt>
      <trkpt lat="47.14114" lon="5.65529">
        <ele>208.476</ele>
        <time>2019-10-01T11:15:23.001Z</time>
      </trkpt>
      <trkpt lat="47.14006" lon="5.65385">
        <ele>210.371</ele>
        <time>2019-10-01T11:15:56.001Z</time>
      </trkpt>
      <trkpt lat="47.1391" lon="5.6526">
        <ele>207.912</ele>
        <time>2019-10-01T11:16:26.001Z</time>
      </trkpt>
      <trkpt lat="47.13814" lon="5.65139">
        <ele>207.89</ele>
        <time>2019-10-01T11:16:56.001Z</time>
      </trkpt>
      <trkpt lat="47.13692" lon="5.65076">
        <ele>206.076</ele>
        <time>2019-10-01T11:17:26.001Z</time>
      </trkpt>
      <trkpt lat="47.13542" lon="5.65022">
        <ele>209.366</ele>
        <time>2019-10-01T11:17:59.001Z</time>
      </trkpt>
      <trkpt lat="47.13403" lon="5.65026">
        <ele>209.946</ele>
        <time>2019-10-01T11:18:29.001Z</time>
      </trkpt>
      <trkpt lat="47.13322" lon="5.65067">
        <ele>215.441</ele>
        <time>2019-10-01T11:18:59.001Z</time>
      </trkpt>
      <trkpt lat="47.13267" lon="5.65067">
        <ele>220.509</ele>
        <time>2019-10-01T11:19:29.001Z</time>
      </trkpt>
      <trkpt lat="47.13221" lon="5.64973">
        <ele>225.038</ele>
        <time>2019-10-01T11:20:02Z</time>
      </trkpt>
      <trkpt lat="47.13206" lon="5.64646">
        <ele>215.98</ele>
        <time>2019-10-01T11:20:32.001Z</time>
      </trkpt>
      <trkpt lat="47.13319" lon="5.64411">
        <ele>210.921</ele>
        <time>2019-10-01T11:21:02Z</time>
      </trkpt>
      <trkpt lat="47.13438" lon="5.64255">
        <ele>212.307</ele>
        <time>2019-10-01T11:21:32.001Z</time>
      </trkpt>
      <trkpt lat="47.13533" lon="5.64045">
        <ele>221.434</ele>
        <time>2019-10-01T11:22:05.001Z</time>
      </trkpt>
      <trkpt lat="47.13559" lon="5.63832">
        <ele>225.205</ele>
        <time>2019-10-01T11:22:35.001Z</time>
      </trkpt>
      <trkpt lat="47.13529" lon="5.63621">
        <ele>228.386</ele>
        <time>2019-10-01T11:23:05.001Z</time>
      </trkpt>
      <trkpt lat="47.13579" lon="5.63399">
        <ele>230.57</ele>
        <time>2019-10-01T11:23:35.001Z</time>
      </trkpt>
      <trkpt lat="47.13614" lon="5.63176">
        <ele>221.969</ele>
        <time>2019-10-01T11:24:05.001Z</time>
      </trkpt>
      <trkpt lat="47.13638" lon="5.62904">
        <ele>216.173</ele>
        <time>2019-10-01T11:24:38.001Z</time>
      </trkpt>
      <trkpt lat="47.13629" lon="5.62676">
        <ele>215.719</ele>
        <time>2019-10-01T11:25:08.001Z</time>
      </trkpt>
      <trkpt lat="47.13618" lon="5.62457">
        <ele>221.979</ele>
        <time>2019-10-01T11:25:38.001Z</time>
      </trkpt>
      <trkpt lat="47.13598" lon="5.62232">
        <ele>227.047</ele>
        <time>2019-10-01T11:26:08.001Z</time>
      </trkpt>
      <trkpt lat="47.13547" lon="5.62012">
        <ele>217.479</ele>
        <time>2019-10-01T11:26:41.001Z</time>
      </trkpt>
      <trkpt lat="47.1346" lon="5.61817">
        <ele>206.149</ele>
        <time>2019-10-01T11:27:11.001Z</time>
      </trkpt>
      <trkpt lat="47.13396" lon="5.61633">
        <ele>207.802</ele>
        <time>2019-10-01T11:27:41.001Z</time>
      </trkpt>
      <trkpt lat="47.13336" lon="5.6143">
        <ele>208.031</ele>
        <time>2019-10-01T11:28:11.001Z</time>
      </trkpt>
      <trkpt lat="47.13249" lon="5.61224">
        <ele>210.291</ele>
        <time>2019-10-01T11:28:44.001Z</time>
      </trkpt>
      <trkpt lat="47.1316" lon="5.61034">
        <ele>210.726</ele>
        <time>2019-10-01T11:29:14.001Z</time>
      </trkpt>
      <trkpt lat="47.13078" lon="5.60863">
        <ele>214.781</ele>
        <time>2019-10-01T11:29:44.001Z</time>
      </trkpt>
      <trkpt lat="47.12999" lon="5.60688">
        <ele>218.725</ele>
        <time>2019-10-01T11:30:14.001Z</time>
      </trkpt>
      <trkpt lat="47.12898" lon="5.60468">
        <ele>215.812</ele>
        <time>2019-10-01T11:30:47.001Z</time>
      </trkpt>
      <trkpt lat="47.12786" lon="5.60323">
        <ele>214.039</ele>
        <time>2019-10-01T11:31:17.001Z</time>
      </trkpt>
      <trkpt lat="47.12706" lon="5.6021">
        <ele>214.29</ele>
        <time>2019-10-01T11:31:47.001Z</time>
      </trkpt>
      <trkpt lat="47.12687" lon="5.59986">
        <ele>215.037</ele>
        <time>2019-10-01T11:32:17.001Z</time>
      </trkpt>
      <trkpt lat="47.12723" lon="5.59766">
        <ele>208.189</ele>
        <time>2019-10-01T11:32:50.001Z</time>
      </trkpt>
      <trkpt lat="47.12725" lon="5.59567">
        <ele>207.644</ele>
        <time>2019-10-01T11:33:20.001Z</time>
      </trkpt>
      <trkpt lat="47.12723" lon="5.59366">
        <ele>208.406</ele>
        <time>2019-10-01T11:33:50.001Z</time>
      </trkpt>
      <trkpt lat="47.12721" lon="5.59176">
        <ele>205.23</ele>
        <time>2019-10-01T11:34:20.001Z</time>
      </trkpt>
      <trkpt lat="47.12664" lon="5.58997">
        <ele>208.182</ele>
        <time>2019-10-01T11:34:53.001Z</time>
      </trkpt>
      <trkpt lat="47.12578" lon="5.58844">
        <ele>209.134</ele>
        <time>2019-10-01T11:35:23.001Z</time>
      </trkpt>
      <trkpt lat="47.12553" lon="5.58659">
        <ele>208.671</ele>
        <time>2019-10-01T11:35:53.001Z</time>
      </trkpt>
      <trkpt lat="47.12569" lon="5.5849">
        <ele>207.312</ele>
        <time>2019-10-01T11:36:23.001Z</time>
      </trkpt>
      <trkpt lat="47.1259" lon="5.58312">
        <ele>209.33</ele>
        <time>2019-10-01T11:36:56.001Z</time>
      </trkpt>
      <trkpt lat="47.12571" lon="5.58167">
        <ele>210.219</ele>
        <time>2019-10-01T11:37:26.001Z</time>
      </trkpt>
      <trkpt lat="47.12541" lon="5.58032">
        <ele>212.269</ele>
        <time>2019-10-01T11:37:56.001Z</time>
      </trkpt>
      <trkpt lat="47.12517" lon="5.5788">
        <ele>212.508</ele>
        <time>2019-10-01T11:38:26.001Z</time>
      </trkpt>
      <trkpt lat="47.1248" lon="5.57687">
        <ele>212.521</ele>
        <time>2019-10-01T11:38:59.001Z</time>
      </trkpt>
      <trkpt lat="47.12439" lon="5.57499">
        <ele>209.635</ele>
        <time>2019-10-01T11:39:29.001Z</time>
      </trkpt>
      <trkpt lat="47.12398" lon="5.57306">
        <ele>205.433</ele>
        <time>2019-10-01T11:39:59.001Z</time>
      </trkpt>
      <trkpt lat="47.12357" lon="5.57116">
        <ele>205.72</ele>
        <time>2019-10-01T11:40:29.001Z</time>
      </trkpt>
      <trkpt lat="47.12311" lon="5.56915">
        <ele>206.865</ele>
        <time>2019-10-01T11:41:02Z</time>
      </trkpt>
      <trkpt lat="47.12306" lon="5.56718">
        <ele>207.012</ele>
        <time>2019-10-01T11:41:32.001Z</time>
      </trkpt>
      <trkpt lat="47.12325" lon="5.56566">
        <ele>209.84</ele>
        <time>2019-10-01T11:42:02Z</time>
      </trkpt>
      <trkpt lat="47.1241" lon="5.56442">
        <ele>210.978</ele>
        <time>2019-10-01T11:42:32.001Z</time>
      </trkpt>
      <trkpt lat="47.12418" lon="5.56292">
        <ele>208.169</ele>
        <time>2019-10-01T11:43:05.001Z</time>
      </trkpt>
      <trkpt lat="47.12298" lon="5.56157">
        <ele>205.802</ele>
        <time>2019-10-01T11:43:35.001Z</time>
      </trkpt>
      <trkpt lat="47.12244" lon="5.56085">
        <ele>205.395</ele>
        <time>2019-10-01T11:47:02Z</time>
      </trkpt>
      <trkpt lat="47.12154" lon="5.55951">
        <ele>207.649</ele>
        <time>2019-10-01T11:47:32.001Z</time>
      </trkpt>
      <trkpt lat="47.12058" lon="5.55818">
        <ele>208.212</ele>
        <time>2019-10-01T11:48:02Z</time>
      </trkpt>
      <trkpt lat="47.11954" lon="5.55674">
        <ele>206.229</ele>
        <time>2019-10-01T11:48:35.001Z</time>
      </trkpt>
      <trkpt lat="47.11857" lon="5.55538">
        <ele>204.748</ele>
        <time>2019-10-01T11:49:05.001Z</time>
      </trkpt>
      <trkpt lat="47.11768" lon="5.55412">
        <ele>206.717</ele>
        <time>2019-10-01T11:49:35.001Z</time>
      </trkpt>
      <trkpt lat="47.11672" lon="5.55275">
        <ele>205.118</ele>
        <time>2019-10-01T11:50:05.001Z</time>
      </trkpt>
      <trkpt lat="47.11567" lon="5.55133">
        <ele>206.12</ele>
        <time>2019-10-01T11:50:38.001Z</time>
      </trkpt>
      <trkpt lat="47.11482" lon="5.55014">
        <ele>204.173</ele>
        <time>2019-10-01T11:51:08.001Z</time>
      </trkpt>
      <trkpt lat="47.11451" lon="5.54964">
        <ele>204.859</ele>
        <time>2019-10-01T11:51:50.001Z</time>
      </trkpt>
      <trkpt lat="47.11391" lon="5.54882">
        <ele>205.586</ele>
        <time>2019-10-01T11:52:29.001Z</time>
      </trkpt>
      <trkpt lat="47.1125" lon="5.54782">
        <ele>207.601</ele>
        <time>2019-10-01T11:53:02Z</time>
      </trkpt>
      <trkpt lat="47.1111" lon="5.54727">
        <ele>205.531</ele>
        <time>2019-10-01T11:53:32.001Z</time>
      </trkpt>
      <trkpt lat="47.10975" lon="5.54673">
        <ele>205.564</ele>
        <time>2019-10-01T11:54:02Z</time>
      </trkpt>
      <trkpt lat="47.10836" lon="5.54616">
        <ele>202.228</ele>
        <time>2019-10-01T11:54:32.001Z</time>
      </trkpt>
      <trkpt lat="47.10683" lon="5.54554">
        <ele>205.3</ele>
        <time>2019-10-01T11:55:05.001Z</time>
      </trkpt>
      <trkpt lat="47.10541" lon="5.54502">
        <ele>209.234</ele>
        <time>2019-10-01T11:55:35.001Z</time>
      </trkpt>
      <trkpt lat="47.10397" lon="5.54441">
        <ele>208.711</ele>
        <time>2019-10-01T11:56:05.001Z</time>
      </trkpt>
      <trkpt lat="47.10255" lon="5.54385">
        <ele>209.701</ele>
        <time>2019-10-01T11:56:35.001Z</time>
      </trkpt>
      <trkpt lat="47.10093" lon="5.54318">
        <ele>208.259</ele>
        <time>2019-10-01T11:57:08.001Z</time>
      </trkpt>
      <trkpt lat="47.09953" lon="5.54208">
        <ele>204.598</ele>
        <time>2019-10-01T11:57:38.001Z</time>
      </trkpt>
      <trkpt lat="47.0985" lon="5.54041">
        <ele>204.768</ele>
        <time>2019-10-01T11:58:08.001Z</time>
      </trkpt>
      <trkpt lat="47.09782" lon="5.53847">
        <ele>203.745</ele>
        <time>2019-10-01T11:58:38.001Z</time>
      </trkpt>
      <trkpt lat="47.09738" lon="5.53633">
        <ele>207.106</ele>
        <time>2019-10-01T11:59:11.001Z</time>
      </trkpt>
      <trkpt lat="47.09695" lon="5.53416">
        <ele>206.04</ele>
        <time>2019-10-01T11:59:41.001Z</time>
      </trkpt>
      <trkpt lat="47.09651" lon="5.53201">
        <ele>204.014</ele>
        <time>2019-10-01T12:00:11.001Z</time>
      </trkpt>
      <trkpt lat="47.09612" lon="5.53001">
        <ele>205.293</ele>
        <time>2019-10-01T12:00:41.001Z</time>
      </trkpt>
      <trkpt lat="47.09564" lon="5.52773">
        <ele>206.576</ele>
        <time>2019-10-01T12:01:14.001Z</time>
      </trkpt>
      <trkpt lat="47.09536" lon="5.52686">
        <ele>207.31</ele>
        <time>2019-10-01T12:01:47.001Z</time>
      </trkpt>
      <trkpt lat="47.09483" lon="5.52487">
        <ele>204.923</ele>
        <time>2019-10-01T12:02:17.001Z</time>
      </trkpt>
      <trkpt lat="47.09444" lon="5.52294">
        <ele>204.772</ele>
        <time>2019-10-01T12:02:47.001Z</time>
      </trkpt>
      <trkpt lat="47.094" lon="5.52075">
        <ele>205.888</ele>
        <time>2019-10-01T12:03:20.001Z</time>
      </trkpt>
      <trkpt lat="47.09357" lon="5.51869">
        <ele>202.724</ele>
        <time>2019-10-01T12:03:50.001Z</time>
      </trkpt>
      <trkpt lat="47.09319" lon="5.51665">
        <ele>201.823</ele>
        <time>2019-10-01T12:04:20.001Z</time>
      </trkpt>
      <trkpt lat="47.09285" lon="5.51453">
        <ele>202.977</ele>
        <time>2019-10-01T12:04:50.001Z</time>
      </trkpt>
      <trkpt lat="47.0928" lon="5.51245">
        <ele>199.649</ele>
        <time>2019-10-01T12:05:23.001Z</time>
      </trkpt>
      <trkpt lat="47.0929" lon="5.51066">
        <ele>199.33</ele>
        <time>2019-10-01T12:05:53.001Z</time>
      </trkpt>
      <trkpt lat="47.09311" lon="5.5087">
        <ele>202.34</ele>
        <time>2019-10-01T12:06:23.001Z</time>
      </trkpt>
      <trkpt lat="47.09313" lon="5.50666">
        <ele>202.438</ele>
        <time>2019-10-01T12:06:53.001Z</time>
      </trkpt>
      <trkpt lat="47.09314" lon="5.50483">
        <ele>198.844</ele>
        <time>2019-10-01T12:07:23.001Z</time>
      </trkpt>
      <trkpt lat="47.09319" lon="5.50324">
        <ele>203.935</ele>
        <time>2019-10-01T12:07:56.001Z</time>
      </trkpt>
      <trkpt lat="47.09365" lon="5.50205">
        <ele>209.698</ele>
        <time>2019-10-01T12:08:26.001Z</time>
      </trkpt>
      <trkpt lat="47.09377" lon="5.49991">
        <ele>200.041</ele>
        <time>2019-10-01T12:08:56.001Z</time>
      </trkpt>
      <trkpt lat="47.09369" lon="5.49928">
        <ele>201.114</ele>
        <time>2019-10-01T12:14:08.001Z</time>
      </trkpt>
      <trkpt lat="47.09382" lon="5.49961">
        <ele>206.387</ele>
        <time>2019-10-01T12:14:44.001Z</time>
      </trkpt>
      <trkpt lat="47.09375" lon="5.49854">
        <ele>209.915</ele>
        <time>2019-10-01T12:15:14.001Z</time>
      </trkpt>
      <trkpt lat="47.09395" lon="5.49773">
        <ele>218.345</ele>
        <time>2019-10-01T12:15:47.001Z</time>
      </trkpt>
      <trkpt lat="47.09427" lon="5.49699">
        <ele>222.285</ele>
        <time>2019-10-01T12:16:20.001Z</time>
      </trkpt>
      <trkpt lat="47.09497" lon="5.49693">
        <ele>228.261</ele>
        <time>2019-10-01T12:16:53.001Z</time>
      </trkpt>
      <trkpt lat="47.09474" lon="5.49581">
        <ele>238.86</ele>
        <time>2019-10-01T12:17:23.001Z</time>
      </trkpt>
      <trkpt lat="47.09407" lon="5.49416">
        <ele>243.415</ele>
        <time>2019-10-01T12:17:53.001Z</time>
      </trkpt>
      <trkpt lat="47.09356" lon="5.49408">
        <ele>233.478</ele>
        <time>2019-10-01T12:18:29.001Z</time>
      </trkpt>
      <trkpt lat="47.09292" lon="5.49409">
        <ele>232.26</ele>
        <time>2019-10-01T12:19:05.001Z</time>
      </trkpt>
      <trkpt lat="47.09281" lon="5.49421">
        <ele>238.533</ele>
        <time>2019-10-01T12:22:38.001Z</time>
      </trkpt>
      <trkpt lat="47.09279" lon="5.49414">
        <ele>247.731</ele>
        <time>2019-10-01T12:24:29.001Z</time>
      </trkpt>
      <trkpt lat="47.09279" lon="5.49412">
        <ele>247.381</ele>
        <time>2019-10-01T12:26:20.001Z</time>
      </trkpt>
      <trkpt lat="47.09283" lon="5.49406">
        <ele>243.823</ele>
        <time>2019-10-01T12:39:02Z</time>
      </trkpt>
      <trkpt lat="47.0928" lon="5.49408">
        <ele>242.907</ele>
        <time>2019-10-01T12:43:47.001Z</time>
      </trkpt>
    </trkseg>
  </trk>
  <trk>
    <name><![CDATA[Tracé 20191002-091155]]></name>
    <trkseg>
      <trkpt lat="47.09617" lon="5.48166">
        <ele>240.474</ele>
        <time>2019-10-02T07:17:25Z</time>
      </trkpt>
      <trkpt lat="47.09598" lon="5.48338">
        <ele>237.488</ele>
        <time>2019-10-02T07:17:55Z</time>
      </trkpt>
      <trkpt lat="47.09543" lon="5.48459">
        <ele>237.454</ele>
        <time>2019-10-02T07:18:25Z</time>
      </trkpt>
      <trkpt lat="47.09402" lon="5.48637">
        <ele>239.672</ele>
        <time>2019-10-02T07:18:58Z</time>
      </trkpt>
      <trkpt lat="47.09316" lon="5.48791">
        <ele>235.541</ele>
        <time>2019-10-02T07:19:28Z</time>
      </trkpt>
      <trkpt lat="47.09224" lon="5.48981">
        <ele>231.897</ele>
        <time>2019-10-02T07:19:58Z</time>
      </trkpt>
      <trkpt lat="47.09159" lon="5.4914">
        <ele>229.452</ele>
        <time>2019-10-02T07:20:28Z</time>
      </trkpt>
      <trkpt lat="47.0911" lon="5.49108">
        <ele>226.999</ele>
        <time>2019-10-02T07:21:04Z</time>
      </trkpt>
      <trkpt lat="47.09165" lon="5.49172">
        <ele>218.961</ele>
        <time>2019-10-02T07:21:43Z</time>
      </trkpt>
      <trkpt lat="47.09245" lon="5.49274">
        <ele>222.094</ele>
        <time>2019-10-02T07:22:13Z</time>
      </trkpt>
      <trkpt lat="47.09181" lon="5.49285">
        <ele>230.502</ele>
        <time>2019-10-02T07:22:49Z</time>
      </trkpt>
      <trkpt lat="47.09098" lon="5.49323">
        <ele>221.6</ele>
        <time>2019-10-02T07:23:19Z</time>
      </trkpt>
      <trkpt lat="47.0909" lon="5.49335">
        <ele>220.637</ele>
        <time>2019-10-02T07:28:28Z</time>
      </trkpt>
      <trkpt lat="47.0902" lon="5.49362">
        <ele>215.571</ele>
        <time>2019-10-02T07:29:37Z</time>
      </trkpt>
      <trkpt lat="47.08928" lon="5.49402">
        <ele>209.181</ele>
        <time>2019-10-02T07:30:07Z</time>
      </trkpt>
      <trkpt lat="47.08858" lon="5.49282">
        <ele>203.363</ele>
        <time>2019-10-02T07:30:37Z</time>
      </trkpt>
      <trkpt lat="47.08804" lon="5.49156">
        <ele>200.164</ele>
        <time>2019-10-02T07:31:10Z</time>
      </trkpt>
      <trkpt lat="47.0871" lon="5.4902">
        <ele>200.085</ele>
        <time>2019-10-02T07:31:40Z</time>
      </trkpt>
      <trkpt lat="47.08639" lon="5.48858">
        <ele>204.336</ele>
        <time>2019-10-02T07:32:10Z</time>
      </trkpt>
      <trkpt lat="47.08564" lon="5.48689">
        <ele>205.041</ele>
        <time>2019-10-02T07:32:40Z</time>
      </trkpt>
      <trkpt lat="47.0847" lon="5.48542">
        <ele>206.546</ele>
        <time>2019-10-02T07:33:10Z</time>
      </trkpt>
      <trkpt lat="47.08376" lon="5.48384">
        <ele>207.184</ele>
        <time>2019-10-02T07:33:40Z</time>
      </trkpt>
      <trkpt lat="47.08261" lon="5.48246">
        <ele>206.428</ele>
        <time>2019-10-02T07:34:10Z</time>
      </trkpt>
      <trkpt lat="47.0815" lon="5.48076">
        <ele>206.493</ele>
        <time>2019-10-02T07:34:43Z</time>
      </trkpt>
      <trkpt lat="47.08036" lon="5.47957">
        <ele>203.869</ele>
        <time>2019-10-02T07:35:13Z</time>
      </trkpt>
      <trkpt lat="47.07926" lon="5.47788">
        <ele>200.806</ele>
        <time>2019-10-02T07:35:43Z</time>
      </trkpt>
      <trkpt lat="47.07814" lon="5.47617">
        <ele>204.167</ele>
        <time>2019-10-02T07:36:13Z</time>
      </trkpt>
      <trkpt lat="47.07714" lon="5.47461">
        <ele>197.134</ele>
        <time>2019-10-02T07:36:43Z</time>
      </trkpt>
      <trkpt lat="47.07613" lon="5.47301">
        <ele>197.441</ele>
        <time>2019-10-02T07:37:13Z</time>
      </trkpt>
      <trkpt lat="47.07469" lon="5.47176">
        <ele>200.151</ele>
        <time>2019-10-02T07:37:46Z</time>
      </trkpt>
      <trkpt lat="47.07339" lon="5.47071">
        <ele>200.997</ele>
        <time>2019-10-02T07:38:16Z</time>
      </trkpt>
      <trkpt lat="47.07213" lon="5.46968">
        <ele>197.759</ele>
        <time>2019-10-02T07:38:46Z</time>
      </trkpt>
      <trkpt lat="47.07093" lon="5.46859">
        <ele>197.195</ele>
        <time>2019-10-02T07:39:16Z</time>
      </trkpt>
      <trkpt lat="47.06961" lon="5.46757">
        <ele>198.613</ele>
        <time>2019-10-02T07:39:46Z</time>
      </trkpt>
      <trkpt lat="47.06833" lon="5.46655">
        <ele>197.14</ele>
        <time>2019-10-02T07:40:16Z</time>
      </trkpt>
      <trkpt lat="47.06692" lon="5.46558">
        <ele>199.396</ele>
        <time>2019-10-02T07:40:46Z</time>
      </trkpt>
      <trkpt lat="47.06553" lon="5.46449">
        <ele>199.286</ele>
        <time>2019-10-02T07:41:19Z</time>
      </trkpt>
      <trkpt lat="47.06423" lon="5.46349">
        <ele>196.519</ele>
        <time>2019-10-02T07:41:49Z</time>
      </trkpt>
      <trkpt lat="47.06301" lon="5.46242">
        <ele>197.546</ele>
        <time>2019-10-02T07:42:19Z</time>
      </trkpt>
      <trkpt lat="47.06161" lon="5.46152">
        <ele>198.661</ele>
        <time>2019-10-02T07:42:49Z</time>
      </trkpt>
      <trkpt lat="47.0605" lon="5.46038">
        <ele>197.459</ele>
        <time>2019-10-02T07:43:19Z</time>
      </trkpt>
      <trkpt lat="47.05992" lon="5.4584">
        <ele>196.694</ele>
        <time>2019-10-02T07:43:49Z</time>
      </trkpt>
      <trkpt lat="47.05929" lon="5.4564">
        <ele>199.349</ele>
        <time>2019-10-02T07:44:22.001Z</time>
      </trkpt>
      <trkpt lat="47.05871" lon="5.45457">
        <ele>201.273</ele>
        <time>2019-10-02T07:44:52.001Z</time>
      </trkpt>
      <trkpt lat="47.05807" lon="5.45259">
        <ele>200.886</ele>
        <time>2019-10-02T07:45:22.001Z</time>
      </trkpt>
      <trkpt lat="47.05747" lon="5.45069">
        <ele>199.963</ele>
        <time>2019-10-02T07:45:52.001Z</time>
      </trkpt>
      <trkpt lat="47.05688" lon="5.44874">
        <ele>196.736</ele>
        <time>2019-10-02T07:46:22.001Z</time>
      </trkpt>
      <trkpt lat="47.05631" lon="5.44689">
        <ele>194.499</ele>
        <time>2019-10-02T07:46:52.001Z</time>
      </trkpt>
      <trkpt lat="47.05569" lon="5.44492">
        <ele>196.069</ele>
        <time>2019-10-02T07:47:22.001Z</time>
      </trkpt>
      <trkpt lat="47.0559" lon="5.44292">
        <ele>196.567</ele>
        <time>2019-10-02T07:47:55.001Z</time>
      </trkpt>
      <trkpt lat="47.05706" lon="5.4415">
        <ele>198.548</ele>
        <time>2019-10-02T07:48:25.001Z</time>
      </trkpt>
      <trkpt lat="47.05824" lon="5.44001">
        <ele>198.487</ele>
        <time>2019-10-02T07:48:55.001Z</time>
      </trkpt>
      <trkpt lat="47.05934" lon="5.43849">
        <ele>198.719</ele>
        <time>2019-10-02T07:49:25.001Z</time>
      </trkpt>
      <trkpt lat="47.05972" lon="5.43672">
        <ele>196.344</ele>
        <time>2019-10-02T07:49:55.001Z</time>
      </trkpt>
      <trkpt lat="47.0597" lon="5.43451">
        <ele>194.867</ele>
        <time>2019-10-02T07:50:25.001Z</time>
      </trkpt>
      <trkpt lat="47.05969" lon="5.43234">
        <ele>195.771</ele>
        <time>2019-10-02T07:50:58.001Z</time>
      </trkpt>
      <trkpt lat="47.05969" lon="5.43037">
        <ele>196.681</ele>
        <time>2019-10-02T07:51:28.001Z</time>
      </trkpt>
      <trkpt lat="47.05965" lon="5.42842">
        <ele>198.98</ele>
        <time>2019-10-02T07:51:58.001Z</time>
      </trkpt>
      <trkpt lat="47.05966" lon="5.42676">
        <ele>200.886</ele>
        <time>2019-10-02T07:52:28.001Z</time>
      </trkpt>
      <trkpt lat="47.05941" lon="5.42497">
        <ele>200.344</ele>
        <time>2019-10-02T07:52:58.001Z</time>
      </trkpt>
      <trkpt lat="47.05944" lon="5.42296">
        <ele>199.765</ele>
        <time>2019-10-02T07:53:28.001Z</time>
      </trkpt>
      <trkpt lat="47.05945" lon="5.42083">
        <ele>197.54</ele>
        <time>2019-10-02T07:53:58.001Z</time>
      </trkpt>
      <trkpt lat="47.05944" lon="5.41851">
        <ele>199.348</ele>
        <time>2019-10-02T07:54:31.001Z</time>
      </trkpt>
      <trkpt lat="47.05942" lon="5.41641">
        <ele>199.037</ele>
        <time>2019-10-02T07:55:01.001Z</time>
      </trkpt>
      <trkpt lat="47.05939" lon="5.41436">
        <ele>201.898</ele>
        <time>2019-10-02T07:55:31.001Z</time>
      </trkpt>
      <trkpt lat="47.05945" lon="5.41269">
        <ele>202.573</ele>
        <time>2019-10-02T07:56:01.001Z</time>
      </trkpt>
      <trkpt lat="47.06062" lon="5.41324">
        <ele>203.371</ele>
        <time>2019-10-02T07:56:31.001Z</time>
      </trkpt>
      <trkpt lat="47.06149" lon="5.4138">
        <ele>213.394</ele>
        <time>2019-10-02T07:57:01.001Z</time>
      </trkpt>
      <trkpt lat="47.06232" lon="5.41485">
        <ele>213.13</ele>
        <time>2019-10-02T07:57:34.001Z</time>
      </trkpt>
      <trkpt lat="47.063" lon="5.41578">
        <ele>215.697</ele>
        <time>2019-10-02T07:58:04.001Z</time>
      </trkpt>
      <trkpt lat="47.06394" lon="5.41588">
        <ele>225.813</ele>
        <time>2019-10-02T07:58:34.001Z</time>
      </trkpt>
      <trkpt lat="47.06495" lon="5.41545">
        <ele>227.443</ele>
        <time>2019-10-02T07:59:04.001Z</time>
      </trkpt>
      <trkpt lat="47.06562" lon="5.4152">
        <ele>223.596</ele>
        <time>2019-10-02T08:08:16Z</time>
      </trkpt>
      <trkpt lat="47.06697" lon="5.41475">
        <ele>221.768</ele>
        <time>2019-10-02T08:08:46.001Z</time>
      </trkpt>
      <trkpt lat="47.06829" lon="5.41405">
        <ele>219.967</ele>
        <time>2019-10-02T08:09:19.001Z</time>
      </trkpt>
      <trkpt lat="47.06977" lon="5.4134">
        <ele>222.172</ele>
        <time>2019-10-02T08:09:49.001Z</time>
      </trkpt>
      <trkpt lat="47.07122" lon="5.41247">
        <ele>218.452</ele>
        <time>2019-10-02T08:10:19.001Z</time>
      </trkpt>
      <trkpt lat="47.07284" lon="5.4128">
        <ele>216.611</ele>
        <time>2019-10-02T08:10:49.001Z</time>
      </trkpt>
      <trkpt lat="47.07412" lon="5.41303">
        <ele>219.042</ele>
        <time>2019-10-02T08:11:19.001Z</time>
      </trkpt>
      <trkpt lat="47.0754" lon="5.41175">
        <ele>219.538</ele>
        <time>2019-10-02T08:11:49.001Z</time>
      </trkpt>
      <trkpt lat="47.07442" lon="5.41018">
        <ele>214.636</ele>
        <time>2019-10-02T08:12:19.001Z</time>
      </trkpt>
      <trkpt lat="47.07526" lon="5.40827">
        <ele>209.014</ele>
        <time>2019-10-02T08:12:52.001Z</time>
      </trkpt>
      <trkpt lat="47.07568" lon="5.4058">
        <ele>201.73</ele>
        <time>2019-10-02T08:13:22.001Z</time>
      </trkpt>
      <trkpt lat="47.07596" lon="5.40393">
        <ele>201.16</ele>
        <time>2019-10-02T08:13:52.001Z</time>
      </trkpt>
      <trkpt lat="47.0762" lon="5.402">
        <ele>202.307</ele>
        <time>2019-10-02T08:14:22.001Z</time>
      </trkpt>
      <trkpt lat="47.07643" lon="5.39991">
        <ele>210.042</ele>
        <time>2019-10-02T08:14:52.001Z</time>
      </trkpt>
      <trkpt lat="47.07677" lon="5.39769">
        <ele>207.176</ele>
        <time>2019-10-02T08:15:22.001Z</time>
      </trkpt>
      <trkpt lat="47.07717" lon="5.39425">
        <ele>203.332</ele>
        <time>2019-10-02T08:15:55.001Z</time>
      </trkpt>
      <trkpt lat="47.07749" lon="5.39181">
        <ele>195.671</ele>
        <time>2019-10-02T08:16:25.001Z</time>
      </trkpt>
      <trkpt lat="47.0769" lon="5.38952">
        <ele>192.955</ele>
        <time>2019-10-02T08:16:55.001Z</time>
      </trkpt>
      <trkpt lat="47.07608" lon="5.38733">
        <ele>189.31</ele>
        <time>2019-10-02T08:17:25.001Z</time>
      </trkpt>
      <trkpt lat="47.07575" lon="5.38496">
        <ele>187.007</ele>
        <time>2019-10-02T08:17:55.001Z</time>
      </trkpt>
      <trkpt lat="47.07545" lon="5.38266">
        <ele>189.029</ele>
        <time>2019-10-02T08:18:25.001Z</time>
      </trkpt>
      <trkpt lat="47.07515" lon="5.3803">
        <ele>190.998</ele>
        <time>2019-10-02T08:18:55.001Z</time>
      </trkpt>
      <trkpt lat="47.07496" lon="5.37776">
        <ele>192.684</ele>
        <time>2019-10-02T08:19:28.001Z</time>
      </trkpt>
      <trkpt lat="47.07468" lon="5.37533">
        <ele>191.36</ele>
        <time>2019-10-02T08:19:58.001Z</time>
      </trkpt>
      <trkpt lat="47.07418" lon="5.37303">
        <ele>190.041</ele>
        <time>2019-10-02T08:20:28.001Z</time>
      </trkpt>
      <trkpt lat="47.07311" lon="5.37115">
        <ele>195.246</ele>
        <time>2019-10-02T08:20:58.001Z</time>
      </trkpt>
      <trkpt lat="47.07181" lon="5.37016">
        <ele>196.204</ele>
        <time>2019-10-02T08:21:28.001Z</time>
      </trkpt>
      <trkpt lat="47.07173" lon="5.3686">
        <ele>194.006</ele>
        <time>2019-10-02T08:21:58.001Z</time>
      </trkpt>
      <trkpt lat="47.07249" lon="5.36643">
        <ele>193.958</ele>
        <time>2019-10-02T08:22:31.001Z</time>
      </trkpt>
      <trkpt lat="47.07327" lon="5.36433">
        <ele>189.807</ele>
        <time>2019-10-02T08:23:01.001Z</time>
      </trkpt>
      <trkpt lat="47.0747" lon="5.3633">
        <ele>194.37</ele>
        <time>2019-10-02T08:23:31.001Z</time>
      </trkpt>
      <trkpt lat="47.07618" lon="5.36237">
        <ele>197.8</ele>
        <time>2019-10-02T08:24:01.001Z</time>
      </trkpt>
      <trkpt lat="47.0778" lon="5.3614">
        <ele>194.952</ele>
        <time>2019-10-02T08:24:31.001Z</time>
      </trkpt>
      <trkpt lat="47.07936" lon="5.36042">
        <ele>196.323</ele>
        <time>2019-10-02T08:25:01.001Z</time>
      </trkpt>
      <trkpt lat="47.08092" lon="5.35944">
        <ele>199.491</ele>
        <time>2019-10-02T08:25:31.001Z</time>
      </trkpt>
      <trkpt lat="47.08266" lon="5.35842">
        <ele>195.995</ele>
        <time>2019-10-02T08:26:04.001Z</time>
      </trkpt>
      <trkpt lat="47.08379" lon="5.35687">
        <ele>193.547</ele>
        <time>2019-10-02T08:26:34.001Z</time>
      </trkpt>
      <trkpt lat="47.0841" lon="5.35502">
        <ele>194.522</ele>
        <time>2019-10-02T08:27:04.001Z</time>
      </trkpt>
      <trkpt lat="47.08448" lon="5.3529">
        <ele>191.704</ele>
        <time>2019-10-02T08:27:34.001Z</time>
      </trkpt>
      <trkpt lat="47.08484" lon="5.35083">
        <ele>191.96</ele>
        <time>2019-10-02T08:28:04.001Z</time>
      </trkpt>
      <trkpt lat="47.0852" lon="5.34869">
        <ele>192.43</ele>
        <time>2019-10-02T08:28:34.001Z</time>
      </trkpt>
      <trkpt lat="47.08561" lon="5.34642">
        <ele>190.855</ele>
        <time>2019-10-02T08:29:07.001Z</time>
      </trkpt>
      <trkpt lat="47.08598" lon="5.3444">
        <ele>191.47</ele>
        <time>2019-10-02T08:29:37.001Z</time>
      </trkpt>
      <trkpt lat="47.08633" lon="5.34236">
        <ele>189.79</ele>
        <time>2019-10-02T08:30:07.001Z</time>
      </trkpt>
      <trkpt lat="47.08665" lon="5.34035">
        <ele>192.593</ele>
        <time>2019-10-02T08:30:37.001Z</time>
      </trkpt>
      <trkpt lat="47.08695" lon="5.3384">
        <ele>190.061</ele>
        <time>2019-10-02T08:31:07.001Z</time>
      </trkpt>
      <trkpt lat="47.08763" lon="5.33655">
        <ele>192.949</ele>
        <time>2019-10-02T08:31:37.001Z</time>
      </trkpt>
      <trkpt lat="47.08819" lon="5.3346">
        <ele>190.475</ele>
        <time>2019-10-02T08:32:07.001Z</time>
      </trkpt>
      <trkpt lat="47.08827" lon="5.33241">
        <ele>190.133</ele>
        <time>2019-10-02T08:32:40.001Z</time>
      </trkpt>
      <trkpt lat="47.08835" lon="5.33023">
        <ele>193.633</ele>
        <time>2019-10-02T08:33:10.001Z</time>
      </trkpt>
      <trkpt lat="47.08884" lon="5.32841">
        <ele>195.011</ele>
        <time>2019-10-02T08:33:40.001Z</time>
      </trkpt>
      <trkpt lat="47.09008" lon="5.32758">
        <ele>198.574</ele>
        <time>2019-10-02T08:34:10.001Z</time>
      </trkpt>
      <trkpt lat="47.09133" lon="5.32654">
        <ele>198.423</ele>
        <time>2019-10-02T08:34:40.001Z</time>
      </trkpt>
      <trkpt lat="47.09248" lon="5.32543">
        <ele>194.08</ele>
        <time>2019-10-02T08:35:10.001Z</time>
      </trkpt>
      <trkpt lat="47.09406" lon="5.32514">
        <ele>190.363</ele>
        <time>2019-10-02T08:35:43.001Z</time>
      </trkpt>
      <trkpt lat="47.09546" lon="5.32531">
        <ele>187.979</ele>
        <time>2019-10-02T08:36:13.001Z</time>
      </trkpt>
      <trkpt lat="47.09683" lon="5.32498">
        <ele>186.615</ele>
        <time>2019-10-02T08:36:43.001Z</time>
      </trkpt>
      <trkpt lat="47.09697" lon="5.32298">
        <ele>186.36</ele>
        <time>2019-10-02T08:37:13.001Z</time>
      </trkpt>
      <trkpt lat="47.09765" lon="5.32107">
        <ele>190.281</ele>
        <time>2019-10-02T08:37:43.001Z</time>
      </trkpt>
      <trkpt lat="47.09875" lon="5.31999">
        <ele>196.352</ele>
        <time>2019-10-02T08:38:13.001Z</time>
      </trkpt>
      <trkpt lat="47.09995" lon="5.31906">
        <ele>189.637</ele>
        <time>2019-10-02T08:38:43.001Z</time>
      </trkpt>
      <trkpt lat="47.10105" lon="5.31726">
        <ele>189.128</ele>
        <time>2019-10-02T08:39:16Z</time>
      </trkpt>
      <trkpt lat="47.10242" lon="5.31662">
        <ele>191.265</ele>
        <time>2019-10-02T08:39:46.001Z</time>
      </trkpt>
      <trkpt lat="47.10393" lon="5.31633">
        <ele>185.563</ele>
        <time>2019-10-02T08:40:16Z</time>
      </trkpt>
      <trkpt lat="47.10537" lon="5.31592">
        <ele>184.724</ele>
        <time>2019-10-02T08:40:46.001Z</time>
      </trkpt>
      <trkpt lat="47.10691" lon="5.31521">
        <ele>186.282</ele>
        <time>2019-10-02T08:41:16Z</time>
      </trkpt>
      <trkpt lat="47.10771" lon="5.31369">
        <ele>189.012</ele>
        <time>2019-10-02T08:41:46.001Z</time>
      </trkpt>
      <trkpt lat="47.1076" lon="5.31249">
        <ele>186.519</ele>
        <time>2019-10-02T08:42:19.001Z</time>
      </trkpt>
      <trkpt lat="47.10731" lon="5.31039">
        <ele>181.788</ele>
        <time>2019-10-02T08:42:49.001Z</time>
      </trkpt>
      <trkpt lat="47.10703" lon="5.30834">
        <ele>180.96</ele>
        <time>2019-10-02T08:43:19.001Z</time>
      </trkpt>
      <trkpt lat="47.10665" lon="5.3064">
        <ele>184.388</ele>
        <time>2019-10-02T08:43:49.001Z</time>
      </trkpt>
      <trkpt lat="47.10598" lon="5.30462">
        <ele>185.466</ele>
        <time>2019-10-02T08:44:19.001Z</time>
      </trkpt>
      <trkpt lat="47.10512" lon="5.30302">
        <ele>185.021</ele>
        <time>2019-10-02T08:44:49.001Z</time>
      </trkpt>
      <trkpt lat="47.10396" lon="5.30195">
        <ele>186.394</ele>
        <time>2019-10-02T08:45:19.001Z</time>
      </trkpt>
      <trkpt lat="47.10274" lon="5.30049">
        <ele>186.471</ele>
        <time>2019-10-02T08:45:52.001Z</time>
      </trkpt>
      <trkpt lat="47.1019" lon="5.29887">
        <ele>185.285</ele>
        <time>2019-10-02T08:46:22.001Z</time>
      </trkpt>
      <trkpt lat="47.10147" lon="5.29713">
        <ele>184.477</ele>
        <time>2019-10-02T08:46:52.001Z</time>
      </trkpt>
      <trkpt lat="47.10146" lon="5.29617">
        <ele>184.494</ele>
        <time>2019-10-02T08:51:04.001Z</time>
      </trkpt>
      <trkpt lat="47.10142" lon="5.29439">
        <ele>182.554</ele>
        <time>2019-10-02T08:51:34.001Z</time>
      </trkpt>
      <trkpt lat="47.10154" lon="5.29264">
        <ele>180.662</ele>
        <time>2019-10-02T08:52:04.001Z</time>
      </trkpt>
      <trkpt lat="47.10174" lon="5.29066">
        <ele>180.855</ele>
        <time>2019-10-02T08:52:37.001Z</time>
      </trkpt>
      <trkpt lat="47.10196" lon="5.28891">
        <ele>181.424</ele>
        <time>2019-10-02T08:53:07.001Z</time>
      </trkpt>
      <trkpt lat="47.10219" lon="5.28713">
        <ele>182.44</ele>
        <time>2019-10-02T08:53:37.001Z</time>
      </trkpt>
      <trkpt lat="47.10221" lon="5.28519">
        <ele>182.263</ele>
        <time>2019-10-02T08:54:07.001Z</time>
      </trkpt>
      <trkpt lat="47.10203" lon="5.28336">
        <ele>181.687</ele>
        <time>2019-10-02T08:54:37.001Z</time>
      </trkpt>
      <trkpt lat="47.10179" lon="5.28166">
        <ele>180.997</ele>
        <time>2019-10-02T08:55:07.001Z</time>
      </trkpt>
      <trkpt lat="47.10154" lon="5.27996">
        <ele>183.242</ele>
        <time>2019-10-02T08:55:37.001Z</time>
      </trkpt>
      <trkpt lat="47.10127" lon="5.27807">
        <ele>181.53</ele>
        <time>2019-10-02T08:56:10.001Z</time>
      </trkpt>
      <trkpt lat="47.10086" lon="5.27632">
        <ele>180.819</ele>
        <time>2019-10-02T08:56:40.001Z</time>
      </trkpt>
      <trkpt lat="47.10068" lon="5.27445">
        <ele>182.259</ele>
        <time>2019-10-02T08:57:10.001Z</time>
      </trkpt>
      <trkpt lat="47.10039" lon="5.27258">
        <ele>184.222</ele>
        <time>2019-10-02T08:57:40.001Z</time>
      </trkpt>
      <trkpt lat="47.10002" lon="5.27075">
        <ele>181.142</ele>
        <time>2019-10-02T08:58:10.001Z</time>
      </trkpt>
      <trkpt lat="47.0996" lon="5.26901">
        <ele>183.335</ele>
        <time>2019-10-02T08:58:40.001Z</time>
      </trkpt>
      <trkpt lat="47.09936" lon="5.26685">
        <ele>184.091</ele>
        <time>2019-10-02T08:59:13.001Z</time>
      </trkpt>
      <trkpt lat="47.09963" lon="5.26492">
        <ele>183.757</ele>
        <time>2019-10-02T08:59:43.001Z</time>
      </trkpt>
      <trkpt lat="47.09969" lon="5.26333">
        <ele>187.571</ele>
        <time>2019-10-02T09:00:13.001Z</time>
      </trkpt>
      <trkpt lat="47.09982" lon="5.26217">
        <ele>187.808</ele>
        <time>2019-10-02T09:00:55.001Z</time>
      </trkpt>
      <trkpt lat="47.09889" lon="5.26161">
        <ele>188.357</ele>
        <time>2019-10-02T09:01:25.001Z</time>
      </trkpt>
      <trkpt lat="47.09808" lon="5.26142">
        <ele>190.942</ele>
        <time>2019-10-02T09:03:31.001Z</time>
      </trkpt>
      <trkpt lat="47.09685" lon="5.26114">
        <ele>188.623</ele>
        <time>2019-10-02T09:04:01.001Z</time>
      </trkpt>
      <trkpt lat="47.09561" lon="5.26086">
        <ele>183.475</ele>
        <time>2019-10-02T09:04:34.001Z</time>
      </trkpt>
      <trkpt lat="47.09443" lon="5.26053">
        <ele>178.177</ele>
        <time>2019-10-02T09:05:04.001Z</time>
      </trkpt>
      <trkpt lat="47.09361" lon="5.26033">
        <ele>179.124</ele>
        <time>2019-10-02T09:05:49.001Z</time>
      </trkpt>
      <trkpt lat="47.09243" lon="5.26006">
        <ele>183.688</ele>
        <time>2019-10-02T09:06:19.001Z</time>
      </trkpt>
      <trkpt lat="47.09112" lon="5.25972">
        <ele>184.638</ele>
        <time>2019-10-02T09:06:49.001Z</time>
      </trkpt>
      <trkpt lat="47.0899" lon="5.25941">
        <ele>182.071</ele>
        <time>2019-10-02T09:07:19.001Z</time>
      </trkpt>
      <trkpt lat="47.08869" lon="5.2587">
        <ele>182.734</ele>
        <time>2019-10-02T09:07:52.001Z</time>
      </trkpt>
      <trkpt lat="47.08817" lon="5.25727">
        <ele>187.904</ele>
        <time>2019-10-02T09:08:22.001Z</time>
      </trkpt>
      <trkpt lat="47.08732" lon="5.25616">
        <ele>186.188</ele>
        <time>2019-10-02T09:08:52.001Z</time>
      </trkpt>
      <trkpt lat="47.08671" lon="5.25514">
        <ele>188.222</ele>
        <time>2019-10-02T09:09:22.001Z</time>
      </trkpt>
      <trkpt lat="47.08577" lon="5.25274">
        <ele>184.184</ele>
        <time>2019-10-02T09:09:52.001Z</time>
      </trkpt>
      <trkpt lat="47.08446" lon="5.25132">
        <ele>181.721</ele>
        <time>2019-10-02T09:10:22.001Z</time>
      </trkpt>
      <trkpt lat="47.08344" lon="5.24995">
        <ele>181.754</ele>
        <time>2019-10-02T09:10:52.001Z</time>
      </trkpt>
      <trkpt lat="47.08194" lon="5.24901">
        <ele>183.046</ele>
        <time>2019-10-02T09:11:25.001Z</time>
      </trkpt>
      <trkpt lat="47.08047" lon="5.24794">
        <ele>184.635</ele>
        <time>2019-10-02T09:11:55.001Z</time>
      </trkpt>
      <trkpt lat="47.07973" lon="5.24601">
        <ele>182.124</ele>
        <time>2019-10-02T09:12:25.001Z</time>
      </trkpt>
      <trkpt lat="47.07933" lon="5.24395">
        <ele>181.459</ele>
        <time>2019-10-02T09:12:55.001Z</time>
      </trkpt>
      <trkpt lat="47.07901" lon="5.24214">
        <ele>183.215</ele>
        <time>2019-10-02T09:13:25.001Z</time>
      </trkpt>
      <trkpt lat="47.07844" lon="5.24056">
        <ele>184.534</ele>
        <time>2019-10-02T09:13:55.001Z</time>
      </trkpt>
      <trkpt lat="47.07728" lon="5.23908">
        <ele>181.859</ele>
        <time>2019-10-02T09:14:28.001Z</time>
      </trkpt>
      <trkpt lat="47.07648" lon="5.23725">
        <ele>180.22</ele>
        <time>2019-10-02T09:14:58.001Z</time>
      </trkpt>
      <trkpt lat="47.07589" lon="5.23566">
        <ele>181.757</ele>
        <time>2019-10-02T09:15:28.001Z</time>
      </trkpt>
      <trkpt lat="47.07538" lon="5.23412">
        <ele>183.73</ele>
        <time>2019-10-02T09:15:58.001Z</time>
      </trkpt>
      <trkpt lat="47.07497" lon="5.23251">
        <ele>183.598</ele>
        <time>2019-10-02T09:16:28.001Z</time>
      </trkpt>
      <trkpt lat="47.07463" lon="5.23082">
        <ele>185.273</ele>
        <time>2019-10-02T09:16:58.001Z</time>
      </trkpt>
      <trkpt lat="47.07434" lon="5.22916">
        <ele>182.573</ele>
        <time>2019-10-02T09:17:28.001Z</time>
      </trkpt>
      <trkpt lat="47.07395" lon="5.22718">
        <ele>182.706</ele>
        <time>2019-10-02T09:18:01.001Z</time>
      </trkpt>
      <trkpt lat="47.0737" lon="5.22538">
        <ele>184.043</ele>
        <time>2019-10-02T09:18:31.001Z</time>
      </trkpt>
      <trkpt lat="47.07328" lon="5.22351">
        <ele>184.588</ele>
        <time>2019-10-02T09:19:01.001Z</time>
      </trkpt>
      <trkpt lat="47.07283" lon="5.22179">
        <ele>183.164</ele>
        <time>2019-10-02T09:19:31.001Z</time>
      </trkpt>
      <trkpt lat="47.07229" lon="5.22011">
        <ele>181.004</ele>
        <time>2019-10-02T09:20:01.001Z</time>
      </trkpt>
      <trkpt lat="47.07169" lon="5.21851">
        <ele>182.198</ele>
        <time>2019-10-02T09:20:31.001Z</time>
      </trkpt>
      <trkpt lat="47.07131" lon="5.2176">
        <ele>182.578</ele>
        <time>2019-10-02T09:22:31.001Z</time>
      </trkpt>
      <trkpt lat="47.07051" lon="5.21635">
        <ele>181.905</ele>
        <time>2019-10-02T09:23:01.001Z</time>
      </trkpt>
      <trkpt lat="47.0694" lon="5.21506">
        <ele>183.215</ele>
        <time>2019-10-02T09:23:31.001Z</time>
      </trkpt>
      <trkpt lat="47.06828" lon="5.21378">
        <ele>182.875</ele>
        <time>2019-10-02T09:24:01.001Z</time>
      </trkpt>
      <trkpt lat="47.06723" lon="5.21256">
        <ele>183.222</ele>
        <time>2019-10-02T09:24:31.001Z</time>
      </trkpt>
      <trkpt lat="47.06619" lon="5.21142">
        <ele>182.564</ele>
        <time>2019-10-02T09:25:01.001Z</time>
      </trkpt>
      <trkpt lat="47.06501" lon="5.21049">
        <ele>181.744</ele>
        <time>2019-10-02T09:25:31.001Z</time>
      </trkpt>
      <trkpt lat="47.06365" lon="5.20959">
        <ele>181.517</ele>
        <time>2019-10-02T09:26:04.001Z</time>
      </trkpt>
      <trkpt lat="47.06255" lon="5.20886">
        <ele>182.317</ele>
        <time>2019-10-02T09:26:34.001Z</time>
      </trkpt>
      <trkpt lat="47.06137" lon="5.2083">
        <ele>182.704</ele>
        <time>2019-10-02T09:27:04.001Z</time>
      </trkpt>
      <trkpt lat="47.06054" lon="5.20808">
        <ele>184.156</ele>
        <time>2019-10-02T09:28:04.001Z</time>
      </trkpt>
      <trkpt lat="47.06106" lon="5.20706">
        <ele>184.27</ele>
        <time>2019-10-02T09:28:40.001Z</time>
      </trkpt>
      <trkpt lat="47.06165" lon="5.20546">
        <ele>185.435</ele>
        <time>2019-10-02T09:29:10.001Z</time>
      </trkpt>
      <trkpt lat="47.06155" lon="5.20335">
        <ele>186.346</ele>
        <time>2019-10-02T09:29:43.001Z</time>
      </trkpt>
      <trkpt lat="47.06117" lon="5.20156">
        <ele>183.035</ele>
        <time>2019-10-02T09:30:13.001Z</time>
      </trkpt>
      <trkpt lat="47.06134" lon="5.19999">
        <ele>183.297</ele>
        <time>2019-10-02T09:30:43.001Z</time>
      </trkpt>
      <trkpt lat="47.06217" lon="5.19887">
        <ele>186.093</ele>
        <time>2019-10-02T09:31:13.001Z</time>
      </trkpt>
      <trkpt lat="47.06311" lon="5.19761">
        <ele>186.355</ele>
        <time>2019-10-02T09:31:43.001Z</time>
      </trkpt>
      <trkpt lat="47.06375" lon="5.19641">
        <ele>185.649</ele>
        <time>2019-10-02T09:32:13.001Z</time>
      </trkpt>
      <trkpt lat="47.0626" lon="5.19533">
        <ele>183.644</ele>
        <time>2019-10-02T09:32:46.001Z</time>
      </trkpt>
      <trkpt lat="47.06155" lon="5.19432">
        <ele>185.116</ele>
        <time>2019-10-02T09:33:16Z</time>
      </trkpt>
      <trkpt lat="47.06049" lon="5.19324">
        <ele>184.598</ele>
        <time>2019-10-02T09:33:46.001Z</time>
      </trkpt>
      <trkpt lat="47.05947" lon="5.19227">
        <ele>185.149</ele>
        <time>2019-10-02T09:34:16Z</time>
      </trkpt>
      <trkpt lat="47.05855" lon="5.19135">
        <ele>184.355</ele>
        <time>2019-10-02T09:34:46.001Z</time>
      </trkpt>
      <trkpt lat="47.05748" lon="5.19026">
        <ele>185.183</ele>
        <time>2019-10-02T09:35:16Z</time>
      </trkpt>
      <trkpt lat="47.05655" lon="5.18929">
        <ele>181.897</ele>
        <time>2019-10-02T09:35:46.001Z</time>
      </trkpt>
      <trkpt lat="47.05545" lon="5.18819">
        <ele>185.731</ele>
        <time>2019-10-02T09:36:19.001Z</time>
      </trkpt>
      <trkpt lat="47.05441" lon="5.18738">
        <ele>183.944</ele>
        <time>2019-10-02T09:36:49.001Z</time>
      </trkpt>
      <trkpt lat="47.05328" lon="5.18837">
        <ele>185.415</ele>
        <time>2019-10-02T09:37:19.001Z</time>
      </trkpt>
      <trkpt lat="47.05248" lon="5.1887">
        <ele>183.373</ele>
        <time>2019-10-02T09:37:49.001Z</time>
      </trkpt>
      <trkpt lat="47.05311" lon="5.18793">
        <ele>187.002</ele>
        <time>2019-10-02T09:40:01.001Z</time>
      </trkpt>
      <trkpt lat="47.05385" lon="5.1871">
        <ele>187.493</ele>
        <time>2019-10-02T09:40:31.001Z</time>
      </trkpt>
      <trkpt lat="47.05467" lon="5.18618">
        <ele>192.486</ele>
        <time>2019-10-02T09:41:04.001Z</time>
      </trkpt>
      <trkpt lat="47.05578" lon="5.18518">
        <ele>190.274</ele>
        <time>2019-10-02T09:41:34.001Z</time>
      </trkpt>
      <trkpt lat="47.05539" lon="5.18678">
        <ele>186.361</ele>
        <time>2019-10-02T09:42:04.001Z</time>
      </trkpt>
      <trkpt lat="47.05652" lon="5.18797">
        <ele>183.983</ele>
        <time>2019-10-02T09:42:34.001Z</time>
      </trkpt>
      <trkpt lat="47.05763" lon="5.18911">
        <ele>185.766</ele>
        <time>2019-10-02T09:43:04.001Z</time>
      </trkpt>
      <trkpt lat="47.05874" lon="5.19023">
        <ele>186.622</ele>
        <time>2019-10-02T09:43:34.001Z</time>
      </trkpt>
      <trkpt lat="47.05986" lon="5.19134">
        <ele>185.906</ele>
        <time>2019-10-02T09:44:04.001Z</time>
      </trkpt>
      <trkpt lat="47.06107" lon="5.19251">
        <ele>184.622</ele>
        <time>2019-10-02T09:44:37.001Z</time>
      </trkpt>
      <trkpt lat="47.06218" lon="5.19358">
        <ele>184.876</ele>
        <time>2019-10-02T09:45:07.001Z</time>
      </trkpt>
      <trkpt lat="47.06334" lon="5.19471">
        <ele>186.134</ele>
        <time>2019-10-02T09:45:37.001Z</time>
      </trkpt>
      <trkpt lat="47.06367" lon="5.19362">
        <ele>187.415</ele>
        <time>2019-10-02T09:46:07.001Z</time>
      </trkpt>
      <trkpt lat="47.0638" lon="5.19153">
        <ele>185.97</ele>
        <time>2019-10-02T09:46:37.001Z</time>
      </trkpt>
      <trkpt lat="47.06417" lon="5.18964">
        <ele>187.973</ele>
        <time>2019-10-02T09:47:07.001Z</time>
      </trkpt>
      <trkpt lat="47.06452" lon="5.18754">
        <ele>189.477</ele>
        <time>2019-10-02T09:47:40.001Z</time>
      </trkpt>
      <trkpt lat="47.06462" lon="5.18552">
        <ele>189.88</ele>
        <time>2019-10-02T09:48:10.001Z</time>
      </trkpt>
      <trkpt lat="47.06436" lon="5.18341">
        <ele>184.07</ele>
        <time>2019-10-02T09:48:40.001Z</time>
      </trkpt>
      <trkpt lat="47.0641" lon="5.18155">
        <ele>183.575</ele>
        <time>2019-10-02T09:49:10.001Z</time>
      </trkpt>
      <trkpt lat="47.06377" lon="5.17952">
        <ele>183.004</ele>
        <time>2019-10-02T09:49:40.001Z</time>
      </trkpt>
      <trkpt lat="47.0635" lon="5.17762">
        <ele>181.915</ele>
        <time>2019-10-02T09:50:10.001Z</time>
      </trkpt>
      <trkpt lat="47.06322" lon="5.17614">
        <ele>181.558</ele>
        <time>2019-10-02T09:50:40.001Z</time>
      </trkpt>
      <trkpt lat="47.06315" lon="5.17627">
        <ele>181.74</ele>
        <time>2019-10-02T09:54:16Z</time>
      </trkpt>
      <trkpt lat="47.06313" lon="5.17612">
        <ele>181.607</ele>
        <time>2019-10-02T09:57:13.001Z</time>
      </trkpt>
      <trkpt lat="47.06313" lon="5.1763">
        <ele>179.573</ele>
        <time>2019-10-02T10:00:16Z</time>
      </trkpt>
      <trkpt lat="47.06309" lon="5.17688">
        <ele>177.757</ele>
        <time>2019-10-02T10:01:13.001Z</time>
      </trkpt>
      <trkpt lat="47.06309" lon="5.17691">
        <ele>178.169</ele>
        <time>2019-10-02T10:36:40.001Z</time>
      </trkpt>
      <trkpt lat="47.06305" lon="5.17693">
        <ele>179.237</ele>
        <time>2019-10-02T11:04:55.001Z</time>
      </trkpt>
      <trkpt lat="47.06315" lon="5.17627">
        <ele>178.7</ele>
        <time>2019-10-02T11:05:55.001Z</time>
      </trkpt>
      <trkpt lat="47.06267" lon="5.17587">
        <ele>179.964</ele>
        <time>2019-10-02T11:16:16Z</time>
      </trkpt>
      <trkpt lat="47.06245" lon="5.17478">
        <ele>185.784</ele>
        <time>2019-10-02T11:16:49.001Z</time>
      </trkpt>
      <trkpt lat="47.06178" lon="5.17393">
        <ele>186.438</ele>
        <time>2019-10-02T11:17:19.001Z</time>
      </trkpt>
      <trkpt lat="47.06208" lon="5.17263">
        <ele>183.333</ele>
        <time>2019-10-02T11:19:52.001Z</time>
      </trkpt>
      <trkpt lat="47.06231" lon="5.17131">
        <ele>184.126</ele>
        <time>2019-10-02T11:20:22.001Z</time>
      </trkpt>
      <trkpt lat="47.06142" lon="5.16981">
        <ele>180.819</ele>
        <time>2019-10-02T11:20:52.001Z</time>
      </trkpt>
      <trkpt lat="47.06124" lon="5.16779">
        <ele>175.812</ele>
        <time>2019-10-02T11:21:25.001Z</time>
      </trkpt>
      <trkpt lat="47.0611" lon="5.1661">
        <ele>174.395</ele>
        <time>2019-10-02T11:21:55.001Z</time>
      </trkpt>
      <trkpt lat="47.06095" lon="5.16448">
        <ele>175.646</ele>
        <time>2019-10-02T11:22:25.001Z</time>
      </trkpt>
      <trkpt lat="47.06086" lon="5.16277">
        <ele>176.543</ele>
        <time>2019-10-02T11:22:55.001Z</time>
      </trkpt>
      <trkpt lat="47.0605" lon="5.16108">
        <ele>177.201</ele>
        <time>2019-10-02T11:23:25.001Z</time>
      </trkpt>
      <trkpt lat="47.06039" lon="5.15916">
        <ele>177.964</ele>
        <time>2019-10-02T11:23:55.001Z</time>
      </trkpt>
      <trkpt lat="47.06078" lon="5.15728">
        <ele>176.748</ele>
        <time>2019-10-02T11:24:28.001Z</time>
      </trkpt>
      <trkpt lat="47.06127" lon="5.15557">
        <ele>176.489</ele>
        <time>2019-10-02T11:24:58.001Z</time>
      </trkpt>
      <trkpt lat="47.0618" lon="5.15384">
        <ele>177.248</ele>
        <time>2019-10-02T11:25:28.001Z</time>
      </trkpt>
      <trkpt lat="47.0625" lon="5.15222">
        <ele>175.355</ele>
        <time>2019-10-02T11:25:58.001Z</time>
      </trkpt>
      <trkpt lat="47.06315" lon="5.1506">
        <ele>177.58</ele>
        <time>2019-10-02T11:26:28.001Z</time>
      </trkpt>
      <trkpt lat="47.06298" lon="5.14867">
        <ele>176.894</ele>
        <time>2019-10-02T11:26:58.001Z</time>
      </trkpt>
      <trkpt lat="47.0634" lon="5.14663">
        <ele>179.456</ele>
        <time>2019-10-02T11:27:28.001Z</time>
      </trkpt>
      <trkpt lat="47.06285" lon="5.14492">
        <ele>179.854</ele>
        <time>2019-10-02T11:28:01.001Z</time>
      </trkpt>
      <trkpt lat="47.06148" lon="5.14416">
        <ele>180.542</ele>
        <time>2019-10-02T11:28:31.001Z</time>
      </trkpt>
      <trkpt lat="47.06035" lon="5.14331">
        <ele>182.244</ele>
        <time>2019-10-02T11:29:01.001Z</time>
      </trkpt>
      <trkpt lat="47.05916" lon="5.14247">
        <ele>183.106</ele>
        <time>2019-10-02T11:29:31.001Z</time>
      </trkpt>
      <trkpt lat="47.0592" lon="5.14256">
        <ele>183.68</ele>
        <time>2019-10-02T11:30:01.001Z</time>
      </trkpt>
      <trkpt lat="47.0586" lon="5.14374">
        <ele>180.873</ele>
        <time>2019-10-02T11:30:31.001Z</time>
      </trkpt>
      <trkpt lat="47.05709" lon="5.1437">
        <ele>181.095</ele>
        <time>2019-10-02T11:31:04.001Z</time>
      </trkpt>
      <trkpt lat="47.0557" lon="5.14399">
        <ele>178.983</ele>
        <time>2019-10-02T11:31:34.001Z</time>
      </trkpt>
      <trkpt lat="47.05423" lon="5.14405">
        <ele>179.825</ele>
        <time>2019-10-02T11:32:04.001Z</time>
      </trkpt>
      <trkpt lat="47.05261" lon="5.1441">
        <ele>178.836</ele>
        <time>2019-10-02T11:32:34.001Z</time>
      </trkpt>
      <trkpt lat="47.05118" lon="5.14388">
        <ele>180.4</ele>
        <time>2019-10-02T11:33:04.001Z</time>
      </trkpt>
      <trkpt lat="47.04964" lon="5.14429">
        <ele>180.359</ele>
        <time>2019-10-02T11:33:34.001Z</time>
      </trkpt>
      <trkpt lat="47.04822" lon="5.14492">
        <ele>182.098</ele>
        <time>2019-10-02T11:34:04.001Z</time>
      </trkpt>
      <trkpt lat="47.04661" lon="5.14575">
        <ele>189.539</ele>
        <time>2019-10-02T11:34:37.001Z</time>
      </trkpt>
      <trkpt lat="47.04516" lon="5.14657">
        <ele>197.367</ele>
        <time>2019-10-02T11:35:07.001Z</time>
      </trkpt>
      <trkpt lat="47.04363" lon="5.14737">
        <ele>184.649</ele>
        <time>2019-10-02T11:35:37.001Z</time>
      </trkpt>
      <trkpt lat="47.04214" lon="5.14821">
        <ele>180.942</ele>
        <time>2019-10-02T11:36:07.001Z</time>
      </trkpt>
      <trkpt lat="47.04057" lon="5.14861">
        <ele>178.846</ele>
        <time>2019-10-02T11:36:37.001Z</time>
      </trkpt>
      <trkpt lat="47.0391" lon="5.14941">
        <ele>178.664</ele>
        <time>2019-10-02T11:37:07.001Z</time>
      </trkpt>
      <trkpt lat="47.03735" lon="5.14914">
        <ele>178.272</ele>
        <time>2019-10-02T11:37:40.001Z</time>
      </trkpt>
      <trkpt lat="47.03579" lon="5.14887">
        <ele>179.243</ele>
        <time>2019-10-02T11:38:10.001Z</time>
      </trkpt>
      <trkpt lat="47.03425" lon="5.14898">
        <ele>179.727</ele>
        <time>2019-10-02T11:38:40.001Z</time>
      </trkpt>
      <trkpt lat="47.0327" lon="5.14857">
        <ele>181.233</ele>
        <time>2019-10-02T11:39:10.001Z</time>
      </trkpt>
      <trkpt lat="47.03104" lon="5.14802">
        <ele>176.813</ele>
        <time>2019-10-02T11:39:40.001Z</time>
      </trkpt>
      <trkpt lat="47.02959" lon="5.14763">
        <ele>179.816</ele>
        <time>2019-10-02T11:40:10.001Z</time>
      </trkpt>
      <trkpt lat="47.02809" lon="5.14734">
        <ele>178.894</ele>
        <time>2019-10-02T11:40:40.001Z</time>
      </trkpt>
      <trkpt lat="47.02693" lon="5.14602">
        <ele>177.914</ele>
        <time>2019-10-02T11:41:13.001Z</time>
      </trkpt>
      <trkpt lat="47.02593" lon="5.14464">
        <ele>181.288</ele>
        <time>2019-10-02T11:41:43.001Z</time>
      </trkpt>
      <trkpt lat="47.02501" lon="5.14432">
        <ele>187.229</ele>
        <time>2019-10-02T11:42:13.001Z</time>
      </trkpt>
      <trkpt lat="47.02416" lon="5.14477">
        <ele>191.262</ele>
        <time>2019-10-02T11:42:43.001Z</time>
      </trkpt>
      <trkpt lat="47.0228" lon="5.14567">
        <ele>187.005</ele>
        <time>2019-10-02T11:43:13.001Z</time>
      </trkpt>
      <trkpt lat="47.02071" lon="5.14765">
        <ele>175.853</ele>
        <time>2019-10-02T11:43:43.001Z</time>
      </trkpt>
      <trkpt lat="47.01995" lon="5.1493">
        <ele>178.271</ele>
        <time>2019-10-02T11:46:58.001Z</time>
      </trkpt>
      <trkpt lat="47.01932" lon="5.14928">
        <ele>180.914</ele>
        <time>2019-10-02T11:47:28.001Z</time>
      </trkpt>
      <trkpt lat="47.01813" lon="5.14889">
        <ele>181.731</ele>
        <time>2019-10-02T11:47:58.001Z</time>
      </trkpt>
      <trkpt lat="47.01689" lon="5.14873">
        <ele>181.074</ele>
        <time>2019-10-02T11:48:28.001Z</time>
      </trkpt>
      <trkpt lat="47.01593" lon="5.14953">
        <ele>185.322</ele>
        <time>2019-10-02T11:48:58.001Z</time>
      </trkpt>
      <trkpt lat="47.01485" lon="5.15047">
        <ele>186.99</ele>
        <time>2019-10-02T11:49:28.001Z</time>
      </trkpt>
      <trkpt lat="47.0133" lon="5.1507">
        <ele>180.431</ele>
        <time>2019-10-02T11:49:58.001Z</time>
      </trkpt>
      <trkpt lat="47.01154" lon="5.15065">
        <ele>177.067</ele>
        <time>2019-10-02T11:50:31.001Z</time>
      </trkpt>
      <trkpt lat="47.01002" lon="5.15053">
        <ele>178.088</ele>
        <time>2019-10-02T11:51:01.001Z</time>
      </trkpt>
      <trkpt lat="47.00851" lon="5.15031">
        <ele>177.341</ele>
        <time>2019-10-02T11:51:31.001Z</time>
      </trkpt>
      <trkpt lat="47.00716" lon="5.14953">
        <ele>177.589</ele>
        <time>2019-10-02T11:52:01.001Z</time>
      </trkpt>
      <trkpt lat="47.0061" lon="5.14873">
        <ele>180.478</ele>
        <time>2019-10-02T11:52:31.001Z</time>
      </trkpt>
      <trkpt lat="47.00493" lon="5.14783">
        <ele>181.537</ele>
        <time>2019-10-02T11:53:01.001Z</time>
      </trkpt>
      <trkpt lat="47.00348" lon="5.14694">
        <ele>179.965</ele>
        <time>2019-10-02T11:53:34.001Z</time>
      </trkpt>
      <trkpt lat="47.00252" lon="5.14646">
        <ele>179.227</ele>
        <time>2019-10-02T11:54:04.001Z</time>
      </trkpt>
      <trkpt lat="47.00264" lon="5.14469">
        <ele>179.661</ele>
        <time>2019-10-02T11:54:34.001Z</time>
      </trkpt>
      <trkpt lat="47.00209" lon="5.14332">
        <ele>180.396</ele>
        <time>2019-10-02T11:55:04.001Z</time>
      </trkpt>
      <trkpt lat="47.00068" lon="5.14357">
        <ele>179.579</ele>
        <time>2019-10-02T11:55:34.001Z</time>
      </trkpt>
      <trkpt lat="46.99942" lon="5.14426">
        <ele>182.292</ele>
        <time>2019-10-02T11:56:04.001Z</time>
      </trkpt>
      <trkpt lat="46.9983" lon="5.14435">
        <ele>185.788</ele>
        <time>2019-10-02T11:56:34.001Z</time>
      </trkpt>
      <trkpt lat="46.99651" lon="5.14527">
        <ele>181.207</ele>
        <time>2019-10-02T11:57:07.001Z</time>
      </trkpt>
      <trkpt lat="46.99515" lon="5.14642">
        <ele>178.298</ele>
        <time>2019-10-02T11:57:37.001Z</time>
      </trkpt>
      <trkpt lat="46.99369" lon="5.14742">
        <ele>180.282</ele>
        <time>2019-10-02T11:58:07.001Z</time>
      </trkpt>
      <trkpt lat="46.99204" lon="5.14697">
        <ele>180.371</ele>
        <time>2019-10-02T11:58:37.001Z</time>
      </trkpt>
      <trkpt lat="46.99073" lon="5.146">
        <ele>180.293</ele>
        <time>2019-10-02T11:59:07.001Z</time>
      </trkpt>
      <trkpt lat="46.98939" lon="5.14514">
        <ele>179.141</ele>
        <time>2019-10-02T11:59:37.001Z</time>
      </trkpt>
      <trkpt lat="46.98783" lon="5.14493">
        <ele>179.174</ele>
        <time>2019-10-02T12:00:10.001Z</time>
      </trkpt>
      <trkpt lat="46.98659" lon="5.14387">
        <ele>176.374</ele>
        <time>2019-10-02T12:00:40.001Z</time>
      </trkpt>
      <trkpt lat="46.98592" lon="5.14218">
        <ele>175.893</ele>
        <time>2019-10-02T12:01:10.001Z</time>
      </trkpt>
      <trkpt lat="46.98527" lon="5.14051">
        <ele>175.663</ele>
        <time>2019-10-02T12:01:40.001Z</time>
      </trkpt>
      <trkpt lat="46.98449" lon="5.13889">
        <ele>176.469</ele>
        <time>2019-10-02T12:02:10.001Z</time>
      </trkpt>
      <trkpt lat="46.9836" lon="5.13739">
        <ele>175.067</ele>
        <time>2019-10-02T12:02:40.001Z</time>
      </trkpt>
      <trkpt lat="46.98265" lon="5.13646">
        <ele>179.898</ele>
        <time>2019-10-02T12:03:10.001Z</time>
      </trkpt>
      <trkpt lat="46.98116" lon="5.1353">
        <ele>177.366</ele>
        <time>2019-10-02T12:03:43.001Z</time>
      </trkpt>
      <trkpt lat="46.97989" lon="5.13428">
        <ele>175.701</ele>
        <time>2019-10-02T12:04:13.001Z</time>
      </trkpt>
      <trkpt lat="46.97864" lon="5.13329">
        <ele>176.199</ele>
        <time>2019-10-02T12:04:43.001Z</time>
      </trkpt>
      <trkpt lat="46.97768" lon="5.13253">
        <ele>181.713</ele>
        <time>2019-10-02T12:05:16Z</time>
      </trkpt>
      <trkpt lat="46.97627" lon="5.1318">
        <ele>176.455</ele>
        <time>2019-10-02T12:05:46.001Z</time>
      </trkpt>
      <trkpt lat="46.97496" lon="5.13112">
        <ele>177.197</ele>
        <time>2019-10-02T12:06:16Z</time>
      </trkpt>
      <trkpt lat="46.97387" lon="5.12973">
        <ele>176.547</ele>
        <time>2019-10-02T12:06:49.001Z</time>
      </trkpt>
      <trkpt lat="46.97318" lon="5.128">
        <ele>172.661</ele>
        <time>2019-10-02T12:07:19.001Z</time>
      </trkpt>
      <trkpt lat="46.97289" lon="5.12613">
        <ele>174.396</ele>
        <time>2019-10-02T12:07:49.001Z</time>
      </trkpt>
      <trkpt lat="46.97277" lon="5.12427">
        <ele>175.771</ele>
        <time>2019-10-02T12:08:19.001Z</time>
      </trkpt>
      <trkpt lat="46.97242" lon="5.12228">
        <ele>176.223</ele>
        <time>2019-10-02T12:08:49.001Z</time>
      </trkpt>
      <trkpt lat="46.97156" lon="5.12073">
        <ele>176.024</ele>
        <time>2019-10-02T12:09:19.001Z</time>
      </trkpt>
      <trkpt lat="46.97012" lon="5.11995">
        <ele>174.499</ele>
        <time>2019-10-02T12:09:52.001Z</time>
      </trkpt>
      <trkpt lat="46.96888" lon="5.1196">
        <ele>177.022</ele>
        <time>2019-10-02T12:10:22.001Z</time>
      </trkpt>
      <trkpt lat="46.9675" lon="5.11941">
        <ele>176.393</ele>
        <time>2019-10-02T12:10:52.001Z</time>
      </trkpt>
      <trkpt lat="46.96614" lon="5.11953">
        <ele>176.201</ele>
        <time>2019-10-02T12:11:22.001Z</time>
      </trkpt>
      <trkpt lat="46.96477" lon="5.12005">
        <ele>175.867</ele>
        <time>2019-10-02T12:11:52.001Z</time>
      </trkpt>
      <trkpt lat="46.96346" lon="5.12096">
        <ele>176.952</ele>
        <time>2019-10-02T12:12:22.001Z</time>
      </trkpt>
      <trkpt lat="46.96208" lon="5.1215">
        <ele>174.435</ele>
        <time>2019-10-02T12:12:52.001Z</time>
      </trkpt>
      <trkpt lat="46.96072" lon="5.12091">
        <ele>175.803</ele>
        <time>2019-10-02T12:13:25.001Z</time>
      </trkpt>
      <trkpt lat="46.95986" lon="5.12005">
        <ele>181.421</ele>
        <time>2019-10-02T12:13:55.001Z</time>
      </trkpt>
      <trkpt lat="46.95866" lon="5.1199">
        <ele>179.437</ele>
        <time>2019-10-02T12:14:25.001Z</time>
      </trkpt>
      <trkpt lat="46.95777" lon="5.12136">
        <ele>178.82</ele>
        <time>2019-10-02T12:14:55.001Z</time>
      </trkpt>
      <trkpt lat="46.95729" lon="5.12336">
        <ele>179.532</ele>
        <time>2019-10-02T12:15:25.001Z</time>
      </trkpt>
      <trkpt lat="46.95597" lon="5.12407">
        <ele>179.073</ele>
        <time>2019-10-02T12:15:55.001Z</time>
      </trkpt>
      <trkpt lat="46.95458" lon="5.12422">
        <ele>180.462</ele>
        <time>2019-10-02T12:16:28.001Z</time>
      </trkpt>
      <trkpt lat="46.95358" lon="5.12419">
        <ele>184.149</ele>
        <time>2019-10-02T12:16:58.001Z</time>
      </trkpt>
      <trkpt lat="46.95258" lon="5.12414">
        <ele>187.647</ele>
        <time>2019-10-02T12:17:28.001Z</time>
      </trkpt>
      <trkpt lat="46.95155" lon="5.12393">
        <ele>189.159</ele>
        <time>2019-10-02T12:17:58.001Z</time>
      </trkpt>
      <trkpt lat="46.95037" lon="5.12354">
        <ele>189.19</ele>
        <time>2019-10-02T12:18:28.001Z</time>
      </trkpt>
      <trkpt lat="46.94944" lon="5.12289">
        <ele>188.369</ele>
        <time>2019-10-02T12:18:58.001Z</time>
      </trkpt>
      <trkpt lat="46.94817" lon="5.12178">
        <ele>189.601</ele>
        <time>2019-10-02T12:19:28.001Z</time>
      </trkpt>
      <trkpt lat="46.94717" lon="5.11996">
        <ele>188.855</ele>
        <time>2019-10-02T12:20:01.001Z</time>
      </trkpt>
      <trkpt lat="46.94667" lon="5.11812">
        <ele>186.691</ele>
        <time>2019-10-02T12:20:31.001Z</time>
      </trkpt>
      <trkpt lat="46.94578" lon="5.11664">
        <ele>186.85</ele>
        <time>2019-10-02T12:21:01.001Z</time>
      </trkpt>
      <trkpt lat="46.9451" lon="5.11494">
        <ele>185.501</ele>
        <time>2019-10-02T12:21:31.001Z</time>
      </trkpt>
      <trkpt lat="46.94473" lon="5.11277">
        <ele>184.895</ele>
        <time>2019-10-02T12:22:01.001Z</time>
      </trkpt>
      <trkpt lat="46.94439" lon="5.11074">
        <ele>183.795</ele>
        <time>2019-10-02T12:22:31.001Z</time>
      </trkpt>
      <trkpt lat="46.94367" lon="5.1087">
        <ele>182.599</ele>
        <time>2019-10-02T12:23:04.001Z</time>
      </trkpt>
      <trkpt lat="46.94325" lon="5.10674">
        <ele>182.685</ele>
        <time>2019-10-02T12:23:34.001Z</time>
      </trkpt>
      <trkpt lat="46.94298" lon="5.10493">
        <ele>182.58</ele>
        <time>2019-10-02T12:24:04.001Z</time>
      </trkpt>
      <trkpt lat="46.94252" lon="5.10342">
        <ele>186.649</ele>
        <time>2019-10-02T12:24:34.001Z</time>
      </trkpt>
      <trkpt lat="46.94207" lon="5.10202">
        <ele>189.741</ele>
        <time>2019-10-02T12:25:04.001Z</time>
      </trkpt>
      <trkpt lat="46.94148" lon="5.10031">
        <ele>187.75</ele>
        <time>2019-10-02T12:25:34.001Z</time>
      </trkpt>
      <trkpt lat="46.9407" lon="5.09872">
        <ele>185.64</ele>
        <time>2019-10-02T12:26:04.001Z</time>
      </trkpt>
      <trkpt lat="46.93963" lon="5.09666">
        <ele>183.976</ele>
        <time>2019-10-02T12:26:37.001Z</time>
      </trkpt>
      <trkpt lat="46.93855" lon="5.09478">
        <ele>181.851</ele>
        <time>2019-10-02T12:27:07.001Z</time>
      </trkpt>
      <trkpt lat="46.93715" lon="5.09481">
        <ele>180.592</ele>
        <time>2019-10-02T12:27:37.001Z</time>
      </trkpt>
      <trkpt lat="46.93549" lon="5.09426">
        <ele>178.133</ele>
        <time>2019-10-02T12:28:07.001Z</time>
      </trkpt>
      <trkpt lat="46.93489" lon="5.09397">
        <ele>176.794</ele>
        <time>2019-10-02T12:30:25.002Z</time>
      </trkpt>
      <trkpt lat="46.93356" lon="5.09404">
        <ele>178.335</ele>
        <time>2019-10-02T12:30:55.001Z</time>
      </trkpt>
      <trkpt lat="46.93198" lon="5.0943">
        <ele>177.994</ele>
        <time>2019-10-02T12:31:28.001Z</time>
      </trkpt>
      <trkpt lat="46.93055" lon="5.09435">
        <ele>178.953</ele>
        <time>2019-10-02T12:31:58.001Z</time>
      </trkpt>
      <trkpt lat="46.93006" lon="5.0942">
        <ele>177.93</ele>
        <time>2019-10-02T12:34:43.001Z</time>
      </trkpt>
      <trkpt lat="46.9289" lon="5.09376">
        <ele>178.469</ele>
        <time>2019-10-02T12:35:13.001Z</time>
      </trkpt>
      <trkpt lat="46.92757" lon="5.09307">
        <ele>178.083</ele>
        <time>2019-10-02T12:35:43.001Z</time>
      </trkpt>
      <trkpt lat="46.92634" lon="5.09207">
        <ele>179.226</ele>
        <time>2019-10-02T12:36:13.001Z</time>
      </trkpt>
      <trkpt lat="46.925" lon="5.09132">
        <ele>179.319</ele>
        <time>2019-10-02T12:36:43.001Z</time>
      </trkpt>
      <trkpt lat="46.92368" lon="5.09009">
        <ele>179.988</ele>
        <time>2019-10-02T12:37:16Z</time>
      </trkpt>
      <trkpt lat="46.92271" lon="5.08873">
        <ele>177.664</ele>
        <time>2019-10-02T12:37:46.001Z</time>
      </trkpt>
      <trkpt lat="46.92141" lon="5.08793">
        <ele>179.824</ele>
        <time>2019-10-02T12:38:16Z</time>
      </trkpt>
      <trkpt lat="46.91991" lon="5.08794">
        <ele>179.612</ele>
        <time>2019-10-02T12:38:46.001Z</time>
      </trkpt>
      <trkpt lat="46.91827" lon="5.08826">
        <ele>177.94</ele>
        <time>2019-10-02T12:39:16Z</time>
      </trkpt>
      <trkpt lat="46.91674" lon="5.08811">
        <ele>175.69</ele>
        <time>2019-10-02T12:39:46.001Z</time>
      </trkpt>
      <trkpt lat="46.91532" lon="5.08772">
        <ele>178.759</ele>
        <time>2019-10-02T12:40:19.001Z</time>
      </trkpt>
      <trkpt lat="46.91419" lon="5.08659">
        <ele>177.523</ele>
        <time>2019-10-02T12:40:49.001Z</time>
      </trkpt>
      <trkpt lat="46.91313" lon="5.08544">
        <ele>179.422</ele>
        <time>2019-10-02T12:41:19.001Z</time>
      </trkpt>
      <trkpt lat="46.912" lon="5.08434">
        <ele>181.531</ele>
        <time>2019-10-02T12:41:49.001Z</time>
      </trkpt>
      <trkpt lat="46.91074" lon="5.08342">
        <ele>179.84</ele>
        <time>2019-10-02T12:42:19.001Z</time>
      </trkpt>
      <trkpt lat="46.90934" lon="5.08293">
        <ele>178.08</ele>
        <time>2019-10-02T12:42:49.001Z</time>
      </trkpt>
      <trkpt lat="46.9079" lon="5.08182">
        <ele>177.592</ele>
        <time>2019-10-02T12:43:19.001Z</time>
      </trkpt>
      <trkpt lat="46.90631" lon="5.08109">
        <ele>179.775</ele>
        <time>2019-10-02T12:43:52.001Z</time>
      </trkpt>
      <trkpt lat="46.90496" lon="5.08097">
        <ele>178.576</ele>
        <time>2019-10-02T12:44:22.001Z</time>
      </trkpt>
      <trkpt lat="46.904" lon="5.08268">
        <ele>175.364</ele>
        <time>2019-10-02T12:44:52.001Z</time>
      </trkpt>
      <trkpt lat="46.90295" lon="5.08282">
        <ele>179.252</ele>
        <time>2019-10-02T12:45:22.001Z</time>
      </trkpt>
      <trkpt lat="46.90177" lon="5.08132">
        <ele>181.517</ele>
        <time>2019-10-02T12:45:52.001Z</time>
      </trkpt>
      <trkpt lat="46.90079" lon="5.07949">
        <ele>178.661</ele>
        <time>2019-10-02T12:46:22.001Z</time>
      </trkpt>
      <trkpt lat="46.89979" lon="5.07751">
        <ele>178.453</ele>
        <time>2019-10-02T12:46:55.001Z</time>
      </trkpt>
      <trkpt lat="46.89908" lon="5.07579">
        <ele>178.187</ele>
        <time>2019-10-02T12:47:25.001Z</time>
      </trkpt>
      <trkpt lat="46.89917" lon="5.07436">
        <ele>179.11</ele>
        <time>2019-10-02T12:47:55.001Z</time>
      </trkpt>
      <trkpt lat="46.89945" lon="5.07268">
        <ele>180.545</ele>
        <time>2019-10-02T12:48:25.001Z</time>
      </trkpt>
      <trkpt lat="46.89999" lon="5.07097">
        <ele>178.724</ele>
        <time>2019-10-02T12:48:55.001Z</time>
      </trkpt>
      <trkpt lat="46.89992" lon="5.06915">
        <ele>177.564</ele>
        <time>2019-10-02T12:49:25.001Z</time>
      </trkpt>
      <trkpt lat="46.89985" lon="5.06734">
        <ele>175.664</ele>
        <time>2019-10-02T12:49:55.001Z</time>
      </trkpt>
      <trkpt lat="46.89978" lon="5.06539">
        <ele>174.051</ele>
        <time>2019-10-02T12:50:28.001Z</time>
      </trkpt>
      <trkpt lat="46.89973" lon="5.06366">
        <ele>173.722</ele>
        <time>2019-10-02T12:50:58.001Z</time>
      </trkpt>
      <trkpt lat="46.89968" lon="5.06195">
        <ele>172.917</ele>
        <time>2019-10-02T12:51:28.001Z</time>
      </trkpt>
      <trkpt lat="46.89964" lon="5.06028">
        <ele>173.53</ele>
        <time>2019-10-02T12:51:58.001Z</time>
      </trkpt>
      <trkpt lat="46.89957" lon="5.05853">
        <ele>172.834</ele>
        <time>2019-10-02T12:52:28.001Z</time>
      </trkpt>
      <trkpt lat="46.89952" lon="5.0568">
        <ele>173.224</ele>
        <time>2019-10-02T12:52:58.001Z</time>
      </trkpt>
      <trkpt lat="46.89921" lon="5.05493">
        <ele>172.029</ele>
        <time>2019-10-02T12:53:31.001Z</time>
      </trkpt>
      <trkpt lat="46.89885" lon="5.05332">
        <ele>170.845</ele>
        <time>2019-10-02T12:54:01.001Z</time>
      </trkpt>
      <trkpt lat="46.89849" lon="5.05176">
        <ele>171.423</ele>
        <time>2019-10-02T12:54:31.001Z</time>
      </trkpt>
      <trkpt lat="46.89821" lon="5.05017">
        <ele>171.115</ele>
        <time>2019-10-02T12:55:01.001Z</time>
      </trkpt>
      <trkpt lat="46.89794" lon="5.04857">
        <ele>171.87</ele>
        <time>2019-10-02T12:55:31.001Z</time>
      </trkpt>
      <trkpt lat="46.89761" lon="5.04709">
        <ele>173.004</ele>
        <time>2019-10-02T12:56:01.001Z</time>
      </trkpt>
      <trkpt lat="46.89728" lon="5.04558">
        <ele>173.319</ele>
        <time>2019-10-02T12:56:31.001Z</time>
      </trkpt>
      <trkpt lat="46.89689" lon="5.04373">
        <ele>172.539</ele>
        <time>2019-10-02T12:57:04.001Z</time>
      </trkpt>
      <trkpt lat="46.89653" lon="5.04201">
        <ele>173.714</ele>
        <time>2019-10-02T12:57:34.001Z</time>
      </trkpt>
      <trkpt lat="46.89616" lon="5.04022">
        <ele>172.711</ele>
        <time>2019-10-02T12:58:04.001Z</time>
      </trkpt>
      <trkpt lat="46.89586" lon="5.03858">
        <ele>172.413</ele>
        <time>2019-10-02T12:58:34.001Z</time>
      </trkpt>
      <trkpt lat="46.8956" lon="5.03695">
        <ele>182.151</ele>
        <time>2019-10-02T12:59:04.001Z</time>
      </trkpt>
      <trkpt lat="46.89535" lon="5.03503">
        <ele>186.018</ele>
        <time>2019-10-02T12:59:34.001Z</time>
      </trkpt>
      <trkpt lat="46.89517" lon="5.03283">
        <ele>179.761</ele>
        <time>2019-10-02T13:00:07.001Z</time>
      </trkpt>
      <trkpt lat="46.89543" lon="5.03103">
        <ele>179.127</ele>
        <time>2019-10-02T13:00:37.001Z</time>
      </trkpt>
      <trkpt lat="46.896" lon="5.02955">
        <ele>183.47</ele>
        <time>2019-10-02T13:01:07.001Z</time>
      </trkpt>
      <trkpt lat="46.89538" lon="5.02821">
        <ele>179.174</ele>
        <time>2019-10-02T13:01:37.001Z</time>
      </trkpt>
      <trkpt lat="46.89455" lon="5.02721">
        <ele>175.35</ele>
        <time>2019-10-02T13:02:07.001Z</time>
      </trkpt>
      <trkpt lat="46.89449" lon="5.02682">
        <ele>177.78</ele>
        <time>2019-10-02T13:03:22.001Z</time>
      </trkpt>
      <trkpt lat="46.89455" lon="5.02558">
        <ele>177.975</ele>
        <time>2019-10-02T13:03:52.001Z</time>
      </trkpt>
      <trkpt lat="46.89442" lon="5.02427">
        <ele>178.174</ele>
        <time>2019-10-02T13:04:25.001Z</time>
      </trkpt>
      <trkpt lat="46.89365" lon="5.02472">
        <ele>179.966</ele>
        <time>2019-10-02T13:05:34.001Z</time>
      </trkpt>
      <trkpt lat="46.8926" lon="5.02465">
        <ele>171.086</ele>
        <time>2019-10-02T13:06:04.001Z</time>
      </trkpt>
      <trkpt lat="46.89187" lon="5.02473">
        <ele>177.811</ele>
        <time>2019-10-02T13:24:19.001Z</time>
      </trkpt>
      <trkpt lat="46.89291" lon="5.02462">
        <ele>179.896</ele>
        <time>2019-10-02T13:24:49.001Z</time>
      </trkpt>
      <trkpt lat="46.89398" lon="5.02461">
        <ele>183.513</ele>
        <time>2019-10-02T13:25:19.001Z</time>
      </trkpt>
      <trkpt lat="46.89483" lon="5.02405">
        <ele>181.814</ele>
        <time>2019-10-02T13:25:52.001Z</time>
      </trkpt>
      <trkpt lat="46.89492" lon="5.02439">
        <ele>185.557</ele>
        <time>2019-10-02T13:28:40.001Z</time>
      </trkpt>
      <trkpt lat="46.89499" lon="5.02452">
        <ele>183.718</ele>
        <time>2019-10-02T13:30:52.001Z</time>
      </trkpt>
      <trkpt lat="46.89506" lon="5.02456">
        <ele>183.952</ele>
        <time>2019-10-02T15:02:30.001Z</time>
      </trkpt>
      <trkpt lat="46.895" lon="5.02449">
        <ele>180.298</ele>
        <time>2019-10-02T15:14:39.001Z</time>
      </trkpt>
      <trkpt lat="46.8954" lon="5.02428">
        <ele>182.412</ele>
        <time>2019-10-02T15:15:57.001Z</time>
      </trkpt>
      <trkpt lat="46.89649" lon="5.02468">
        <ele>186.916</ele>
        <time>2019-10-02T15:16:27.001Z</time>
      </trkpt>
      <trkpt lat="46.89648" lon="5.02429">
        <ele>189.689</ele>
        <time>2019-10-02T15:21:06.001Z</time>
      </trkpt>
      <trkpt lat="46.89735" lon="5.025">
        <ele>188.775</ele>
        <time>2019-10-02T15:21:39.001Z</time>
      </trkpt>
      <trkpt lat="46.89834" lon="5.02477">
        <ele>186.577</ele>
        <time>2019-10-02T15:22:09.001Z</time>
      </trkpt>
      <trkpt lat="46.89891" lon="5.0241">
        <ele>182.564</ele>
        <time>2019-10-02T15:23:33.001Z</time>
      </trkpt>
      <trkpt lat="46.89984" lon="5.02282">
        <ele>183.693</ele>
        <time>2019-10-02T15:24:03.001Z</time>
      </trkpt>
      <trkpt lat="46.90095" lon="5.0217">
        <ele>182.989</ele>
        <time>2019-10-02T15:24:33.001Z</time>
      </trkpt>
      <trkpt lat="46.9019" lon="5.02222">
        <ele>190.251</ele>
        <time>2019-10-02T15:25:06.001Z</time>
      </trkpt>
      <trkpt lat="46.90288" lon="5.02293">
        <ele>189.707</ele>
        <time>2019-10-02T15:25:36.001Z</time>
      </trkpt>
      <trkpt lat="46.90358" lon="5.02403">
        <ele>177.999</ele>
        <time>2019-10-02T15:26:06.001Z</time>
      </trkpt>
      <trkpt lat="46.90358" lon="5.02186">
        <ele>174.125</ele>
        <time>2019-10-02T15:26:36.001Z</time>
      </trkpt>
      <trkpt lat="46.90433" lon="5.01982">
        <ele>175.33</ele>
        <time>2019-10-02T15:27:06.001Z</time>
      </trkpt>
      <trkpt lat="46.90513" lon="5.01776">
        <ele>176.415</ele>
        <time>2019-10-02T15:27:36.001Z</time>
      </trkpt>
      <trkpt lat="46.90605" lon="5.01588">
        <ele>176.882</ele>
        <time>2019-10-02T15:28:06.001Z</time>
      </trkpt>
      <trkpt lat="46.90709" lon="5.01385">
        <ele>175.238</ele>
        <time>2019-10-02T15:28:39.001Z</time>
      </trkpt>
      <trkpt lat="46.90768" lon="5.01208">
        <ele>176.902</ele>
        <time>2019-10-02T15:29:09.001Z</time>
      </trkpt>
      <trkpt lat="46.90795" lon="5.00984">
        <ele>178.715</ele>
        <time>2019-10-02T15:29:39.001Z</time>
      </trkpt>
      <trkpt lat="46.90785" lon="5.00775">
        <ele>180.45</ele>
        <time>2019-10-02T15:30:09.001Z</time>
      </trkpt>
      <trkpt lat="46.90735" lon="5.00579">
        <ele>179.715</ele>
        <time>2019-10-02T15:30:39.001Z</time>
      </trkpt>
      <trkpt lat="46.90712" lon="5.00384">
        <ele>179.115</ele>
        <time>2019-10-02T15:31:09.001Z</time>
      </trkpt>
      <trkpt lat="46.90755" lon="5.00204">
        <ele>179.214</ele>
        <time>2019-10-02T15:31:42.001Z</time>
      </trkpt>
      <trkpt lat="46.90697" lon="5.00148">
        <ele>183.229</ele>
        <time>2019-10-02T15:32:57.001Z</time>
      </trkpt>
      <trkpt lat="46.90646" lon="5.00081">
        <ele>184.206</ele>
        <time>2019-10-02T15:33:27.001Z</time>
      </trkpt>
      <trkpt lat="46.90563" lon="5.00223">
        <ele>177.946</ele>
        <time>2019-10-02T15:33:57.001Z</time>
      </trkpt>
      <trkpt lat="46.90509" lon="5.00165">
        <ele>178.854</ele>
        <time>2019-10-02T15:34:27.001Z</time>
      </trkpt>
      <trkpt lat="46.90425" lon="5.00014">
        <ele>175.028</ele>
        <time>2019-10-02T15:34:57.001Z</time>
      </trkpt>
      <trkpt lat="46.90359" lon="4.99846">
        <ele>175.411</ele>
        <time>2019-10-02T15:35:27.001Z</time>
      </trkpt>
      <trkpt lat="46.90403" lon="4.99701">
        <ele>176.627</ele>
        <time>2019-10-02T15:36:00Z</time>
      </trkpt>
      <trkpt lat="46.90484" lon="4.99526">
        <ele>178.354</ele>
        <time>2019-10-02T15:36:30.001Z</time>
      </trkpt>
      <trkpt lat="46.90501" lon="4.99311">
        <ele>172.055</ele>
        <time>2019-10-02T15:37:00Z</time>
      </trkpt>
      <trkpt lat="46.90476" lon="4.99106">
        <ele>179.702</ele>
        <time>2019-10-02T15:37:30.001Z</time>
      </trkpt>
      <trkpt lat="46.90437" lon="4.98897">
        <ele>180.263</ele>
        <time>2019-10-02T15:38:00Z</time>
      </trkpt>
      <trkpt lat="46.9038" lon="4.98691">
        <ele>181.287</ele>
        <time>2019-10-02T15:38:30.001Z</time>
      </trkpt>
      <trkpt lat="46.90345" lon="4.98453">
        <ele>176.401</ele>
        <time>2019-10-02T15:39:03.001Z</time>
      </trkpt>
      <trkpt lat="46.90309" lon="4.98255">
        <ele>179.322</ele>
        <time>2019-10-02T15:39:33.001Z</time>
      </trkpt>
      <trkpt lat="46.90306" lon="4.98044">
        <ele>179.637</ele>
        <time>2019-10-02T15:40:03.001Z</time>
      </trkpt>
      <trkpt lat="46.9028" lon="4.97834">
        <ele>182.12</ele>
        <time>2019-10-02T15:40:33.001Z</time>
      </trkpt>
      <trkpt lat="46.90239" lon="4.97667">
        <ele>182.152</ele>
        <time>2019-10-02T15:41:03.001Z</time>
      </trkpt>
      <trkpt lat="46.90188" lon="4.97438">
        <ele>183.374</ele>
        <time>2019-10-02T15:41:33.001Z</time>
      </trkpt>
      <trkpt lat="46.90132" lon="4.97219">
        <ele>177.486</ele>
        <time>2019-10-02T15:42:06.001Z</time>
      </trkpt>
      <trkpt lat="46.90046" lon="4.97093">
        <ele>177.334</ele>
        <time>2019-10-02T15:42:36.001Z</time>
      </trkpt>
      <trkpt lat="46.89863" lon="4.97132">
        <ele>173.234</ele>
        <time>2019-10-02T15:43:06.001Z</time>
      </trkpt>
      <trkpt lat="46.89725" lon="4.97082">
        <ele>172.963</ele>
        <time>2019-10-02T15:43:36.001Z</time>
      </trkpt>
      <trkpt lat="46.89605" lon="4.9691">
        <ele>176.349</ele>
        <time>2019-10-02T15:44:06.001Z</time>
      </trkpt>
      <trkpt lat="46.89508" lon="4.96722">
        <ele>177.551</ele>
        <time>2019-10-02T15:44:36.001Z</time>
      </trkpt>
      <trkpt lat="46.89425" lon="4.9653">
        <ele>177.636</ele>
        <time>2019-10-02T15:45:06.001Z</time>
      </trkpt>
      <trkpt lat="46.89381" lon="4.96275">
        <ele>177.119</ele>
        <time>2019-10-02T15:45:39.001Z</time>
      </trkpt>
      <trkpt lat="46.89365" lon="4.96034">
        <ele>173.357</ele>
        <time>2019-10-02T15:46:09.001Z</time>
      </trkpt>
      <trkpt lat="46.8934" lon="4.95796">
        <ele>173.174</ele>
        <time>2019-10-02T15:46:39.001Z</time>
      </trkpt>
      <trkpt lat="46.89299" lon="4.95573">
        <ele>175.227</ele>
        <time>2019-10-02T15:47:09.001Z</time>
      </trkpt>
      <trkpt lat="46.89218" lon="4.95405">
        <ele>185.326</ele>
        <time>2019-10-02T15:47:39.001Z</time>
      </trkpt>
      <trkpt lat="46.89141" lon="4.9532">
        <ele>188.118</ele>
        <time>2019-10-02T15:48:09.001Z</time>
      </trkpt>
      <trkpt lat="46.8902" lon="4.95242">
        <ele>185.414</ele>
        <time>2019-10-02T15:48:42.001Z</time>
      </trkpt>
      <trkpt lat="46.88927" lon="4.95187">
        <ele>184.228</ele>
        <time>2019-10-02T15:49:12.001Z</time>
      </trkpt>
      <trkpt lat="46.88781" lon="4.95105">
        <ele>177.982</ele>
        <time>2019-10-02T15:49:42.001Z</time>
      </trkpt>
      <trkpt lat="46.88603" lon="4.95045">
        <ele>175.192</ele>
        <time>2019-10-02T15:50:12.001Z</time>
      </trkpt>
      <trkpt lat="46.88459" lon="4.95017">
        <ele>175.782</ele>
        <time>2019-10-02T15:50:42.001Z</time>
      </trkpt>
      <trkpt lat="46.88285" lon="4.95047">
        <ele>173.108</ele>
        <time>2019-10-02T15:51:12.001Z</time>
      </trkpt>
      <trkpt lat="46.8813" lon="4.95128">
        <ele>173.021</ele>
        <time>2019-10-02T15:51:42.001Z</time>
      </trkpt>
      <trkpt lat="46.8799" lon="4.95232">
        <ele>176.191</ele>
        <time>2019-10-02T15:52:15.001Z</time>
      </trkpt>
      <trkpt lat="46.87964" lon="4.95192">
        <ele>179.611</ele>
        <time>2019-10-02T15:55:03.001Z</time>
      </trkpt>
      <trkpt lat="46.87942" lon="4.95021">
        <ele>178.249</ele>
        <time>2019-10-02T15:55:33.001Z</time>
      </trkpt>
      <trkpt lat="46.87902" lon="4.94905">
        <ele>177.07</ele>
        <time>2019-10-02T15:56:03.001Z</time>
      </trkpt>
      <trkpt lat="46.87874" lon="4.94795">
        <ele>176.917</ele>
        <time>2019-10-02T15:56:33.001Z</time>
      </trkpt>
      <trkpt lat="46.87829" lon="4.9467">
        <ele>183.485</ele>
        <time>2019-10-02T15:57:03.001Z</time>
      </trkpt>
      <trkpt lat="46.8775" lon="4.94591">
        <ele>170.99</ele>
        <time>2019-10-02T15:57:36.001Z</time>
      </trkpt>
      <trkpt lat="46.87677" lon="4.94486">
        <ele>172.722</ele>
        <time>2019-10-02T15:58:06.001Z</time>
      </trkpt>
      <trkpt lat="46.87535" lon="4.9453">
        <ele>172.147</ele>
        <time>2019-10-02T15:58:36.001Z</time>
      </trkpt>
      <trkpt lat="46.87387" lon="4.94528">
        <ele>172.213</ele>
        <time>2019-10-02T15:59:06.001Z</time>
      </trkpt>
      <trkpt lat="46.87248" lon="4.94454">
        <ele>175.823</ele>
        <time>2019-10-02T15:59:36.001Z</time>
      </trkpt>
      <trkpt lat="46.87117" lon="4.94314">
        <ele>180.038</ele>
        <time>2019-10-02T16:00:06.001Z</time>
      </trkpt>
      <trkpt lat="46.87" lon="4.94177">
        <ele>186.745</ele>
        <time>2019-10-02T16:00:36.001Z</time>
      </trkpt>
      <trkpt lat="46.86884" lon="4.94">
        <ele>183.569</ele>
        <time>2019-10-02T16:01:09.001Z</time>
      </trkpt>
      <trkpt lat="46.86814" lon="4.93802">
        <ele>183.444</ele>
        <time>2019-10-02T16:01:39.001Z</time>
      </trkpt>
      <trkpt lat="46.86732" lon="4.93594">
        <ele>187.183</ele>
        <time>2019-10-02T16:02:09.001Z</time>
      </trkpt>
      <trkpt lat="46.86679" lon="4.9338">
        <ele>181.13</ele>
        <time>2019-10-02T16:02:39.001Z</time>
      </trkpt>
      <trkpt lat="46.86666" lon="4.93177">
        <ele>184.026</ele>
        <time>2019-10-02T16:03:09.001Z</time>
      </trkpt>
      <trkpt lat="46.86664" lon="4.92975">
        <ele>184.754</ele>
        <time>2019-10-02T16:03:39.001Z</time>
      </trkpt>
      <trkpt lat="46.86641" lon="4.92736">
        <ele>182.075</ele>
        <time>2019-10-02T16:04:12.001Z</time>
      </trkpt>
      <trkpt lat="46.86646" lon="4.9261">
        <ele>183.226</ele>
        <time>2019-10-02T16:05:27.001Z</time>
      </trkpt>
      <trkpt lat="46.86615" lon="4.92764">
        <ele>185.806</ele>
        <time>2019-10-02T16:05:57.001Z</time>
      </trkpt>
      <trkpt lat="46.86423" lon="4.92742">
        <ele>176.304</ele>
        <time>2019-10-02T16:06:27.001Z</time>
      </trkpt>
      <trkpt lat="46.86268" lon="4.92719">
        <ele>174.653</ele>
        <time>2019-10-02T16:06:57.001Z</time>
      </trkpt>
      <trkpt lat="46.86163" lon="4.92569">
        <ele>178.055</ele>
        <time>2019-10-02T16:07:27.001Z</time>
      </trkpt>
      <trkpt lat="46.86168" lon="4.92376">
        <ele>183.817</ele>
        <time>2019-10-02T16:07:57.001Z</time>
      </trkpt>
      <trkpt lat="46.8623" lon="4.92315">
        <ele>180.648</ele>
        <time>2019-10-02T16:08:54.001Z</time>
      </trkpt>
      <trkpt lat="46.8624" lon="4.92318">
        <ele>178.99</ele>
        <time>2019-10-02T16:12:24.001Z</time>
      </trkpt>
      <trkpt lat="46.86231" lon="4.92336">
        <ele>177.967</ele>
        <time>2019-10-02T16:13:57.001Z</time>
      </trkpt>
      <trkpt lat="46.86245" lon="4.92312">
        <ele>172.075</ele>
        <time>2019-10-02T16:14:57.001Z</time>
      </trkpt>
      <trkpt lat="46.86237" lon="4.92312">
        <ele>171.391</ele>
        <time>2019-10-02T16:16:48.001Z</time>
      </trkpt>
      <trkpt lat="46.86227" lon="4.92306">
        <ele>172.6</ele>
        <time>2019-10-02T16:19:00Z</time>
      </trkpt>
      <trkpt lat="46.86237" lon="4.92327">
        <ele>161.342</ele>
        <time>2019-10-02T16:20:15.001Z</time>
      </trkpt>
      <trkpt lat="46.86249" lon="4.92313">
        <ele>158.463</ele>
        <time>2019-10-02T16:22:57.001Z</time>
      </trkpt>
      <trkpt lat="46.86245" lon="4.92325">
        <ele>149.836</ele>
        <time>2019-10-02T16:24:45.001Z</time>
      </trkpt>
      <trkpt lat="46.86241" lon="4.92294">
        <ele>146.511</ele>
        <time>2019-10-02T16:26:19.001Z</time>
      </trkpt>
      <trkpt lat="46.86245" lon="4.92338">
        <ele>179.164</ele>
        <time>2019-10-02T16:29:21.001Z</time>
      </trkpt>
      <trkpt lat="46.86238" lon="4.9233">
        <ele>162.795</ele>
        <time>2019-10-02T16:36:06.001Z</time>
      </trkpt>
      <trkpt lat="46.86243" lon="4.92327">
        <ele>158.995</ele>
        <time>2019-10-02T16:37:21.001Z</time>
      </trkpt>
      <trkpt lat="46.86234" lon="4.92321">
        <ele>167.752</ele>
        <time>2019-10-02T16:39:18.001Z</time>
      </trkpt>
      <trkpt lat="46.86245" lon="4.9232">
        <ele>169.121</ele>
        <time>2019-10-02T16:40:27.001Z</time>
      </trkpt>
      <trkpt lat="46.86252" lon="4.9232">
        <ele>177.699</ele>
        <time>2019-10-02T16:41:36.001Z</time>
      </trkpt>
    </trkseg>
  </trk>
  <trk>
    <name><![CDATA[Tracé 20191003-091411]]></name>
    <trkseg>
      <trkpt lat="46.86233" lon="4.92307">
        <ele>190.782</ele>
        <time>2019-10-03T07:24:53Z</time>
      </trkpt>
      <trkpt lat="46.86154" lon="4.924">
        <ele>190.513</ele>
        <time>2019-10-03T07:25:23Z</time>
      </trkpt>
      <trkpt lat="46.86154" lon="4.92614">
        <ele>187.476</ele>
        <time>2019-10-03T07:25:53Z</time>
      </trkpt>
      <trkpt lat="46.86135" lon="4.92824">
        <ele>186.475</ele>
        <time>2019-10-03T07:26:23Z</time>
      </trkpt>
      <trkpt lat="46.86132" lon="4.93035">
        <ele>186.149</ele>
        <time>2019-10-03T07:26:53Z</time>
      </trkpt>
      <trkpt lat="46.8612" lon="4.93236">
        <ele>184.366</ele>
        <time>2019-10-03T07:27:23Z</time>
      </trkpt>
      <trkpt lat="46.86115" lon="4.93445">
        <ele>186.128</ele>
        <time>2019-10-03T07:27:53Z</time>
      </trkpt>
      <trkpt lat="46.86051" lon="4.93659">
        <ele>187.926</ele>
        <time>2019-10-03T07:28:26Z</time>
      </trkpt>
      <trkpt lat="46.85973" lon="4.93815">
        <ele>187.864</ele>
        <time>2019-10-03T07:28:56Z</time>
      </trkpt>
      <trkpt lat="46.85874" lon="4.93938">
        <ele>189.162</ele>
        <time>2019-10-03T07:29:26Z</time>
      </trkpt>
      <trkpt lat="46.85744" lon="4.9401">
        <ele>190.135</ele>
        <time>2019-10-03T07:29:56Z</time>
      </trkpt>
      <trkpt lat="46.85613" lon="4.94155">
        <ele>186.957</ele>
        <time>2019-10-03T07:30:26Z</time>
      </trkpt>
      <trkpt lat="46.8548" lon="4.94283">
        <ele>184.962</ele>
        <time>2019-10-03T07:30:56Z</time>
      </trkpt>
      <trkpt lat="46.85329" lon="4.94385">
        <ele>183.591</ele>
        <time>2019-10-03T07:31:26Z</time>
      </trkpt>
      <trkpt lat="46.85207" lon="4.94535">
        <ele>182.855</ele>
        <time>2019-10-03T07:31:56Z</time>
      </trkpt>
      <trkpt lat="46.85088" lon="4.94671">
        <ele>184.594</ele>
        <time>2019-10-03T07:32:26Z</time>
      </trkpt>
      <trkpt lat="46.84947" lon="4.94759">
        <ele>183.666</ele>
        <time>2019-10-03T07:32:56Z</time>
      </trkpt>
      <trkpt lat="46.84799" lon="4.94849">
        <ele>185.099</ele>
        <time>2019-10-03T07:33:26Z</time>
      </trkpt>
      <trkpt lat="46.84648" lon="4.94927">
        <ele>183.969</ele>
        <time>2019-10-03T07:33:56Z</time>
      </trkpt>
      <trkpt lat="46.84488" lon="4.94986">
        <ele>182.867</ele>
        <time>2019-10-03T07:34:26Z</time>
      </trkpt>
      <trkpt lat="46.84324" lon="4.95024">
        <ele>186.848</ele>
        <time>2019-10-03T07:34:56Z</time>
      </trkpt>
      <trkpt lat="46.84172" lon="4.95068">
        <ele>185.06</ele>
        <time>2019-10-03T07:35:26Z</time>
      </trkpt>
      <trkpt lat="46.84085" lon="4.95199">
        <ele>182.233</ele>
        <time>2019-10-03T07:35:59Z</time>
      </trkpt>
      <trkpt lat="46.84076" lon="4.95417">
        <ele>179.074</ele>
        <time>2019-10-03T07:36:29Z</time>
      </trkpt>
      <trkpt lat="46.84031" lon="4.95626">
        <ele>173.716</ele>
        <time>2019-10-03T07:36:59Z</time>
      </trkpt>
      <trkpt lat="46.83982" lon="4.95799">
        <ele>172.656</ele>
        <time>2019-10-03T07:37:29Z</time>
      </trkpt>
      <trkpt lat="46.83926" lon="4.95892">
        <ele>171.988</ele>
        <time>2019-10-03T07:37:59Z</time>
      </trkpt>
      <trkpt lat="46.8384" lon="4.95792">
        <ele>173.805</ele>
        <time>2019-10-03T07:38:29Z</time>
      </trkpt>
      <trkpt lat="46.83747" lon="4.95666">
        <ele>176.79</ele>
        <time>2019-10-03T07:38:59Z</time>
      </trkpt>
      <trkpt lat="46.83646" lon="4.95537">
        <ele>174.746</ele>
        <time>2019-10-03T07:39:29Z</time>
      </trkpt>
      <trkpt lat="46.83581" lon="4.9547">
        <ele>174.946</ele>
        <time>2019-10-03T07:51:05.001Z</time>
      </trkpt>
      <trkpt lat="46.83487" lon="4.95375">
        <ele>175.745</ele>
        <time>2019-10-03T07:51:35.001Z</time>
      </trkpt>
      <trkpt lat="46.83381" lon="4.95251">
        <ele>176.614</ele>
        <time>2019-10-03T07:52:05.001Z</time>
      </trkpt>
      <trkpt lat="46.83269" lon="4.95117">
        <ele>178.642</ele>
        <time>2019-10-03T07:52:35.001Z</time>
      </trkpt>
      <trkpt lat="46.83151" lon="4.94978">
        <ele>180.885</ele>
        <time>2019-10-03T07:53:05.001Z</time>
      </trkpt>
      <trkpt lat="46.83038" lon="4.94821">
        <ele>185.563</ele>
        <time>2019-10-03T07:53:35.001Z</time>
      </trkpt>
      <trkpt lat="46.82928" lon="4.94644">
        <ele>184.08</ele>
        <time>2019-10-03T07:54:08.001Z</time>
      </trkpt>
      <trkpt lat="46.82839" lon="4.94474">
        <ele>181.295</ele>
        <time>2019-10-03T07:54:38.001Z</time>
      </trkpt>
      <trkpt lat="46.82742" lon="4.94314">
        <ele>176.326</ele>
        <time>2019-10-03T07:55:08.001Z</time>
      </trkpt>
      <trkpt lat="46.82633" lon="4.94163">
        <ele>177.023</ele>
        <time>2019-10-03T07:55:38.001Z</time>
      </trkpt>
      <trkpt lat="46.82515" lon="4.94027">
        <ele>177.632</ele>
        <time>2019-10-03T07:56:08.001Z</time>
      </trkpt>
      <trkpt lat="46.82596" lon="4.93869">
        <ele>176.185</ele>
        <time>2019-10-03T07:56:38.001Z</time>
      </trkpt>
      <trkpt lat="46.82555" lon="4.93778">
        <ele>177.618</ele>
        <time>2019-10-03T07:57:08.001Z</time>
      </trkpt>
      <trkpt lat="46.82464" lon="4.93624">
        <ele>176.332</ele>
        <time>2019-10-03T07:57:38.001Z</time>
      </trkpt>
      <trkpt lat="46.82377" lon="4.93426">
        <ele>175.066</ele>
        <time>2019-10-03T07:58:08.001Z</time>
      </trkpt>
      <trkpt lat="46.82339" lon="4.93253">
        <ele>175.895</ele>
        <time>2019-10-03T07:58:38.001Z</time>
      </trkpt>
      <trkpt lat="46.82446" lon="4.93105">
        <ele>176.135</ele>
        <time>2019-10-03T07:59:08.001Z</time>
      </trkpt>
      <trkpt lat="46.82555" lon="4.92968">
        <ele>180.558</ele>
        <time>2019-10-03T07:59:38.001Z</time>
      </trkpt>
      <trkpt lat="46.82599" lon="4.9282">
        <ele>180.735</ele>
        <time>2019-10-03T08:00:08.001Z</time>
      </trkpt>
      <trkpt lat="46.82486" lon="4.92651">
        <ele>175.358</ele>
        <time>2019-10-03T08:00:38.001Z</time>
      </trkpt>
      <trkpt lat="46.82378" lon="4.9248">
        <ele>175.76</ele>
        <time>2019-10-03T08:01:08.001Z</time>
      </trkpt>
      <trkpt lat="46.82271" lon="4.92287">
        <ele>176.436</ele>
        <time>2019-10-03T08:01:41.001Z</time>
      </trkpt>
      <trkpt lat="46.82227" lon="4.92082">
        <ele>176.21</ele>
        <time>2019-10-03T08:02:11.001Z</time>
      </trkpt>
      <trkpt lat="46.82199" lon="4.91872">
        <ele>179.216</ele>
        <time>2019-10-03T08:02:41.001Z</time>
      </trkpt>
      <trkpt lat="46.82147" lon="4.91665">
        <ele>179.023</ele>
        <time>2019-10-03T08:03:11.001Z</time>
      </trkpt>
      <trkpt lat="46.82073" lon="4.9146">
        <ele>180.578</ele>
        <time>2019-10-03T08:03:41.001Z</time>
      </trkpt>
      <trkpt lat="46.82007" lon="4.9127">
        <ele>181.813</ele>
        <time>2019-10-03T08:04:11.001Z</time>
      </trkpt>
      <trkpt lat="46.81958" lon="4.91085">
        <ele>180.101</ele>
        <time>2019-10-03T08:04:41.001Z</time>
      </trkpt>
      <trkpt lat="46.81891" lon="4.90905">
        <ele>177.848</ele>
        <time>2019-10-03T08:05:11.001Z</time>
      </trkpt>
      <trkpt lat="46.81827" lon="4.9073">
        <ele>173.899</ele>
        <time>2019-10-03T08:05:41.001Z</time>
      </trkpt>
      <trkpt lat="46.81738" lon="4.90552">
        <ele>172.579</ele>
        <time>2019-10-03T08:06:11.001Z</time>
      </trkpt>
      <trkpt lat="46.81666" lon="4.90357">
        <ele>174.085</ele>
        <time>2019-10-03T08:06:41.001Z</time>
      </trkpt>
      <trkpt lat="46.81589" lon="4.90176">
        <ele>176.376</ele>
        <time>2019-10-03T08:07:11.001Z</time>
      </trkpt>
      <trkpt lat="46.81552" lon="4.90008">
        <ele>178.101</ele>
        <time>2019-10-03T08:07:41.001Z</time>
      </trkpt>
      <trkpt lat="46.81497" lon="4.89885">
        <ele>181.243</ele>
        <time>2019-10-03T08:08:11.001Z</time>
      </trkpt>
      <trkpt lat="46.81452" lon="4.89771">
        <ele>179.432</ele>
        <time>2019-10-03T08:08:41.001Z</time>
      </trkpt>
      <trkpt lat="46.81489" lon="4.89545">
        <ele>179.41</ele>
        <time>2019-10-03T08:09:14.001Z</time>
      </trkpt>
      <trkpt lat="46.81496" lon="4.89349">
        <ele>179.867</ele>
        <time>2019-10-03T08:09:44.001Z</time>
      </trkpt>
      <trkpt lat="46.81533" lon="4.8917">
        <ele>180.283</ele>
        <time>2019-10-03T08:10:14.001Z</time>
      </trkpt>
      <trkpt lat="46.81486" lon="4.88997">
        <ele>181.129</ele>
        <time>2019-10-03T08:10:44.001Z</time>
      </trkpt>
      <trkpt lat="46.81429" lon="4.88813">
        <ele>178.692</ele>
        <time>2019-10-03T08:11:14.001Z</time>
      </trkpt>
      <trkpt lat="46.81323" lon="4.88645">
        <ele>175.9</ele>
        <time>2019-10-03T08:11:44.001Z</time>
      </trkpt>
      <trkpt lat="46.8132" lon="4.88451">
        <ele>175.948</ele>
        <time>2019-10-03T08:12:14.001Z</time>
      </trkpt>
      <trkpt lat="46.81435" lon="4.88358">
        <ele>182.153</ele>
        <time>2019-10-03T08:12:44.001Z</time>
      </trkpt>
      <trkpt lat="46.81438" lon="4.88202">
        <ele>180.386</ele>
        <time>2019-10-03T08:13:14.001Z</time>
      </trkpt>
      <trkpt lat="46.81547" lon="4.88085">
        <ele>181.466</ele>
        <time>2019-10-03T08:13:44.001Z</time>
      </trkpt>
      <trkpt lat="46.81562" lon="4.87984">
        <ele>182.017</ele>
        <time>2019-10-03T08:14:14.001Z</time>
      </trkpt>
      <trkpt lat="46.81603" lon="4.87913">
        <ele>188.329</ele>
        <time>2019-10-03T08:14:47.001Z</time>
      </trkpt>
      <trkpt lat="46.81577" lon="4.87806">
        <ele>193.557</ele>
        <time>2019-10-03T08:15:17.001Z</time>
      </trkpt>
      <trkpt lat="46.81542" lon="4.877">
        <ele>194.823</ele>
        <time>2019-10-03T08:15:47.001Z</time>
      </trkpt>
      <trkpt lat="46.81498" lon="4.87571">
        <ele>192.476</ele>
        <time>2019-10-03T08:16:20.001Z</time>
      </trkpt>
      <trkpt lat="46.81426" lon="4.87419">
        <ele>193.242</ele>
        <time>2019-10-03T08:16:50.001Z</time>
      </trkpt>
      <trkpt lat="46.81348" lon="4.87255">
        <ele>196.18</ele>
        <time>2019-10-03T08:17:20.001Z</time>
      </trkpt>
      <trkpt lat="46.81261" lon="4.87079">
        <ele>191.89</ele>
        <time>2019-10-03T08:17:50.001Z</time>
      </trkpt>
      <trkpt lat="46.81183" lon="4.86922">
        <ele>190.161</ele>
        <time>2019-10-03T08:18:20.001Z</time>
      </trkpt>
      <trkpt lat="46.81097" lon="4.86739">
        <ele>189.301</ele>
        <time>2019-10-03T08:18:50.001Z</time>
      </trkpt>
      <trkpt lat="46.81002" lon="4.86588">
        <ele>188.387</ele>
        <time>2019-10-03T08:19:20.001Z</time>
      </trkpt>
      <trkpt lat="46.80881" lon="4.86474">
        <ele>188.934</ele>
        <time>2019-10-03T08:19:50.001Z</time>
      </trkpt>
      <trkpt lat="46.80743" lon="4.86383">
        <ele>190.039</ele>
        <time>2019-10-03T08:20:20.001Z</time>
      </trkpt>
      <trkpt lat="46.80789" lon="4.86226">
        <ele>187.456</ele>
        <time>2019-10-03T08:20:50.001Z</time>
      </trkpt>
      <trkpt lat="46.80775" lon="4.8628">
        <ele>188.978</ele>
        <time>2019-10-03T08:21:20.001Z</time>
      </trkpt>
      <trkpt lat="46.80664" lon="4.86206">
        <ele>193.326</ele>
        <time>2019-10-03T08:21:50.001Z</time>
      </trkpt>
      <trkpt lat="46.80605" lon="4.86155">
        <ele>193.459</ele>
        <time>2019-10-03T08:25:02Z</time>
      </trkpt>
      <trkpt lat="46.80392" lon="4.86121">
        <ele>186.588</ele>
        <time>2019-10-03T08:25:32.001Z</time>
      </trkpt>
      <trkpt lat="46.80323" lon="4.86126">
        <ele>180.21</ele>
        <time>2019-10-03T08:26:23.001Z</time>
      </trkpt>
      <trkpt lat="46.80265" lon="4.86298">
        <ele>180.215</ele>
        <time>2019-10-03T08:26:56.001Z</time>
      </trkpt>
      <trkpt lat="46.80181" lon="4.8647">
        <ele>181.945</ele>
        <time>2019-10-03T08:27:26.001Z</time>
      </trkpt>
      <trkpt lat="46.80076" lon="4.86632">
        <ele>185.566</ele>
        <time>2019-10-03T08:27:56.001Z</time>
      </trkpt>
      <trkpt lat="46.79966" lon="4.86768">
        <ele>177.729</ele>
        <time>2019-10-03T08:28:26.001Z</time>
      </trkpt>
      <trkpt lat="46.79831" lon="4.86839">
        <ele>178.031</ele>
        <time>2019-10-03T08:28:56.001Z</time>
      </trkpt>
      <trkpt lat="46.79685" lon="4.86838">
        <ele>181.097</ele>
        <time>2019-10-03T08:29:26.001Z</time>
      </trkpt>
      <trkpt lat="46.79533" lon="4.86831">
        <ele>184.518</ele>
        <time>2019-10-03T08:29:56.001Z</time>
      </trkpt>
      <trkpt lat="46.79395" lon="4.86779">
        <ele>182.902</ele>
        <time>2019-10-03T08:30:26.001Z</time>
      </trkpt>
      <trkpt lat="46.79252" lon="4.86747">
        <ele>187.276</ele>
        <time>2019-10-03T08:30:56.001Z</time>
      </trkpt>
      <trkpt lat="46.79103" lon="4.86739">
        <ele>186.419</ele>
        <time>2019-10-03T08:31:26.001Z</time>
      </trkpt>
      <trkpt lat="46.78968" lon="4.86659">
        <ele>182.198</ele>
        <time>2019-10-03T08:31:56.001Z</time>
      </trkpt>
      <trkpt lat="46.78863" lon="4.86539">
        <ele>179.622</ele>
        <time>2019-10-03T08:32:26.001Z</time>
      </trkpt>
      <trkpt lat="46.78777" lon="4.86554">
        <ele>179.235</ele>
        <time>2019-10-03T08:32:59.001Z</time>
      </trkpt>
      <trkpt lat="46.78711" lon="4.86623">
        <ele>178.154</ele>
        <time>2019-10-03T08:37:32.001Z</time>
      </trkpt>
      <trkpt lat="46.78601" lon="4.86747">
        <ele>178.451</ele>
        <time>2019-10-03T08:38:05.001Z</time>
      </trkpt>
      <trkpt lat="46.78531" lon="4.86863">
        <ele>182.922</ele>
        <time>2019-10-03T08:38:35.001Z</time>
      </trkpt>
      <trkpt lat="46.78447" lon="4.86992">
        <ele>181.89</ele>
        <time>2019-10-03T08:39:05.001Z</time>
      </trkpt>
      <trkpt lat="46.78394" lon="4.87069">
        <ele>181.678</ele>
        <time>2019-10-03T08:40:41.001Z</time>
      </trkpt>
      <trkpt lat="46.78298" lon="4.87209">
        <ele>180.696</ele>
        <time>2019-10-03T08:41:11.001Z</time>
      </trkpt>
      <trkpt lat="46.78311" lon="4.87174">
        <ele>179.464</ele>
        <time>2019-10-03T08:42:53.001Z</time>
      </trkpt>
      <trkpt lat="46.78266" lon="4.87248">
        <ele>176.717</ele>
        <time>2019-10-03T08:43:23.001Z</time>
      </trkpt>
      <trkpt lat="46.78163" lon="4.87408">
        <ele>175.575</ele>
        <time>2019-10-03T08:43:53.001Z</time>
      </trkpt>
      <trkpt lat="46.78053" lon="4.8756">
        <ele>172.387</ele>
        <time>2019-10-03T08:44:23.001Z</time>
      </trkpt>
      <trkpt lat="46.77928" lon="4.8766">
        <ele>170.89</ele>
        <time>2019-10-03T08:44:53.001Z</time>
      </trkpt>
      <trkpt lat="46.77791" lon="4.87701">
        <ele>168.907</ele>
        <time>2019-10-03T08:45:23.001Z</time>
      </trkpt>
      <trkpt lat="46.77731" lon="4.8762">
        <ele>169.76</ele>
        <time>2019-10-03T08:45:56.001Z</time>
      </trkpt>
      <trkpt lat="46.77651" lon="4.87619">
        <ele>167.295</ele>
        <time>2019-10-03T08:46:26.001Z</time>
      </trkpt>
      <trkpt lat="46.77583" lon="4.87717">
        <ele>169.93</ele>
        <time>2019-10-03T08:46:59.001Z</time>
      </trkpt>
      <trkpt lat="46.77506" lon="4.87835">
        <ele>171.649</ele>
        <time>2019-10-03T08:47:29.001Z</time>
      </trkpt>
      <trkpt lat="46.77354" lon="4.87804">
        <ele>173.751</ele>
        <time>2019-10-03T08:48:02Z</time>
      </trkpt>
      <trkpt lat="46.77244" lon="4.8785">
        <ele>171.292</ele>
        <time>2019-10-03T08:48:32.001Z</time>
      </trkpt>
      <trkpt lat="46.7721" lon="4.88029">
        <ele>172.078</ele>
        <time>2019-10-03T08:49:02Z</time>
      </trkpt>
      <trkpt lat="46.77228" lon="4.882">
        <ele>175.489</ele>
        <time>2019-10-03T08:49:32.001Z</time>
      </trkpt>
      <trkpt lat="46.77213" lon="4.88394">
        <ele>175.529</ele>
        <time>2019-10-03T08:50:02Z</time>
      </trkpt>
      <trkpt lat="46.77191" lon="4.88576">
        <ele>183.018</ele>
        <time>2019-10-03T08:50:32.001Z</time>
      </trkpt>
      <trkpt lat="46.77286" lon="4.88677">
        <ele>180.72</ele>
        <time>2019-10-03T08:51:02Z</time>
      </trkpt>
      <trkpt lat="46.77347" lon="4.88808">
        <ele>179.594</ele>
        <time>2019-10-03T08:51:32.001Z</time>
      </trkpt>
      <trkpt lat="46.7735" lon="4.88984">
        <ele>180.064</ele>
        <time>2019-10-03T08:52:02Z</time>
      </trkpt>
      <trkpt lat="46.77322" lon="4.89166">
        <ele>180.696</ele>
        <time>2019-10-03T08:52:32.001Z</time>
      </trkpt>
      <trkpt lat="46.77278" lon="4.89303">
        <ele>185.88</ele>
        <time>2019-10-03T08:53:02Z</time>
      </trkpt>
      <trkpt lat="46.7714" lon="4.8933">
        <ele>181.379</ele>
        <time>2019-10-03T08:53:32.001Z</time>
      </trkpt>
      <trkpt lat="46.77018" lon="4.89404">
        <ele>184.049</ele>
        <time>2019-10-03T08:54:02Z</time>
      </trkpt>
      <trkpt lat="46.76945" lon="4.8957">
        <ele>187.802</ele>
        <time>2019-10-03T08:54:32.001Z</time>
      </trkpt>
      <trkpt lat="46.76852" lon="4.89666">
        <ele>187.614</ele>
        <time>2019-10-03T08:55:02Z</time>
      </trkpt>
      <trkpt lat="46.76753" lon="4.89841">
        <ele>180.683</ele>
        <time>2019-10-03T08:55:35.001Z</time>
      </trkpt>
      <trkpt lat="46.76666" lon="4.89954">
        <ele>178.469</ele>
        <time>2019-10-03T08:56:05.001Z</time>
      </trkpt>
      <trkpt lat="46.76544" lon="4.90055">
        <ele>178.008</ele>
        <time>2019-10-03T08:56:35.001Z</time>
      </trkpt>
      <trkpt lat="46.76398" lon="4.90118">
        <ele>175.822</ele>
        <time>2019-10-03T08:57:05.001Z</time>
      </trkpt>
      <trkpt lat="46.76252" lon="4.90132">
        <ele>182</ele>
        <time>2019-10-03T08:57:35.001Z</time>
      </trkpt>
      <trkpt lat="46.76104" lon="4.90118">
        <ele>184.457</ele>
        <time>2019-10-03T08:58:05.001Z</time>
      </trkpt>
      <trkpt lat="46.75953" lon="4.90105">
        <ele>178.791</ele>
        <time>2019-10-03T08:58:35.001Z</time>
      </trkpt>
      <trkpt lat="46.75808" lon="4.90083">
        <ele>177.804</ele>
        <time>2019-10-03T08:59:05.001Z</time>
      </trkpt>
      <trkpt lat="46.7567" lon="4.90084">
        <ele>179.095</ele>
        <time>2019-10-03T08:59:35.001Z</time>
      </trkpt>
      <trkpt lat="46.75542" lon="4.90115">
        <ele>181.162</ele>
        <time>2019-10-03T09:00:05.001Z</time>
      </trkpt>
      <trkpt lat="46.75483" lon="4.90088">
        <ele>183.205</ele>
        <time>2019-10-03T09:03:23.001Z</time>
      </trkpt>
      <trkpt lat="46.75485" lon="4.9012">
        <ele>184.109</ele>
        <time>2019-10-03T09:04:17.001Z</time>
      </trkpt>
      <trkpt lat="46.75421" lon="4.90176">
        <ele>182.817</ele>
        <time>2019-10-03T09:04:47.001Z</time>
      </trkpt>
      <trkpt lat="46.75302" lon="4.90238">
        <ele>182.721</ele>
        <time>2019-10-03T09:05:17.001Z</time>
      </trkpt>
      <trkpt lat="46.75166" lon="4.90315">
        <ele>186.983</ele>
        <time>2019-10-03T09:05:50.001Z</time>
      </trkpt>
      <trkpt lat="46.75065" lon="4.90391">
        <ele>191.679</ele>
        <time>2019-10-03T09:06:20.001Z</time>
      </trkpt>
      <trkpt lat="46.74973" lon="4.90507">
        <ele>192.42</ele>
        <time>2019-10-03T09:06:50.001Z</time>
      </trkpt>
      <trkpt lat="46.74902" lon="4.90638">
        <ele>190.298</ele>
        <time>2019-10-03T09:07:20.001Z</time>
      </trkpt>
      <trkpt lat="46.74841" lon="4.90782">
        <ele>189.34</ele>
        <time>2019-10-03T09:07:50.001Z</time>
      </trkpt>
      <trkpt lat="46.74781" lon="4.90928">
        <ele>190.493</ele>
        <time>2019-10-03T09:08:20.001Z</time>
      </trkpt>
      <trkpt lat="46.74719" lon="4.91071">
        <ele>191.56</ele>
        <time>2019-10-03T09:08:50.001Z</time>
      </trkpt>
      <trkpt lat="46.74662" lon="4.91213">
        <ele>194.312</ele>
        <time>2019-10-03T09:09:20.001Z</time>
      </trkpt>
      <trkpt lat="46.74599" lon="4.91365">
        <ele>195.164</ele>
        <time>2019-10-03T09:09:50.001Z</time>
      </trkpt>
      <trkpt lat="46.74529" lon="4.91525">
        <ele>198.302</ele>
        <time>2019-10-03T09:10:20.001Z</time>
      </trkpt>
      <trkpt lat="46.74465" lon="4.91679">
        <ele>195.318</ele>
        <time>2019-10-03T09:10:50.001Z</time>
      </trkpt>
      <trkpt lat="46.74398" lon="4.91846">
        <ele>195.007</ele>
        <time>2019-10-03T09:11:20.001Z</time>
      </trkpt>
      <trkpt lat="46.74332" lon="4.92004">
        <ele>193.29</ele>
        <time>2019-10-03T09:11:50.001Z</time>
      </trkpt>
      <trkpt lat="46.74266" lon="4.92164">
        <ele>196.716</ele>
        <time>2019-10-03T09:12:20.001Z</time>
      </trkpt>
      <trkpt lat="46.74196" lon="4.92338">
        <ele>203.433</ele>
        <time>2019-10-03T09:12:50.001Z</time>
      </trkpt>
      <trkpt lat="46.74111" lon="4.92548">
        <ele>202.414</ele>
        <time>2019-10-03T09:13:23.001Z</time>
      </trkpt>
      <trkpt lat="46.74031" lon="4.92738">
        <ele>198.207</ele>
        <time>2019-10-03T09:13:53.001Z</time>
      </trkpt>
      <trkpt lat="46.73962" lon="4.92894">
        <ele>193.9</ele>
        <time>2019-10-03T09:14:23.001Z</time>
      </trkpt>
      <trkpt lat="46.73902" lon="4.93041">
        <ele>193.102</ele>
        <time>2019-10-03T09:14:53.001Z</time>
      </trkpt>
      <trkpt lat="46.73837" lon="4.93198">
        <ele>188.468</ele>
        <time>2019-10-03T09:15:23.001Z</time>
      </trkpt>
      <trkpt lat="46.73772" lon="4.93354">
        <ele>191.412</ele>
        <time>2019-10-03T09:15:53.001Z</time>
      </trkpt>
      <trkpt lat="46.73714" lon="4.93499">
        <ele>191.48</ele>
        <time>2019-10-03T09:16:23.001Z</time>
      </trkpt>
      <trkpt lat="46.7365" lon="4.93651">
        <ele>193.132</ele>
        <time>2019-10-03T09:16:53.001Z</time>
      </trkpt>
      <trkpt lat="46.73589" lon="4.93807">
        <ele>193.241</ele>
        <time>2019-10-03T09:17:23.001Z</time>
      </trkpt>
      <trkpt lat="46.73521" lon="4.93968">
        <ele>198.786</ele>
        <time>2019-10-03T09:17:53.001Z</time>
      </trkpt>
      <trkpt lat="46.73454" lon="4.94121">
        <ele>194.772</ele>
        <time>2019-10-03T09:18:23.001Z</time>
      </trkpt>
      <trkpt lat="46.73388" lon="4.94276">
        <ele>192.75</ele>
        <time>2019-10-03T09:18:53.001Z</time>
      </trkpt>
      <trkpt lat="46.73322" lon="4.94434">
        <ele>194.123</ele>
        <time>2019-10-03T09:19:23.001Z</time>
      </trkpt>
      <trkpt lat="46.73271" lon="4.94556">
        <ele>196.005</ele>
        <time>2019-10-03T09:19:53.001Z</time>
      </trkpt>
      <trkpt lat="46.73195" lon="4.94741">
        <ele>194.336</ele>
        <time>2019-10-03T09:20:26.001Z</time>
      </trkpt>
      <trkpt lat="46.73123" lon="4.9491">
        <ele>198.403</ele>
        <time>2019-10-03T09:20:56.001Z</time>
      </trkpt>
      <trkpt lat="46.73053" lon="4.95074">
        <ele>193.208</ele>
        <time>2019-10-03T09:21:26.001Z</time>
      </trkpt>
      <trkpt lat="46.72983" lon="4.9525">
        <ele>193.865</ele>
        <time>2019-10-03T09:21:56.001Z</time>
      </trkpt>
      <trkpt lat="46.72905" lon="4.95439">
        <ele>194.061</ele>
        <time>2019-10-03T09:22:26.001Z</time>
      </trkpt>
      <trkpt lat="46.72818" lon="4.9564">
        <ele>186.486</ele>
        <time>2019-10-03T09:22:56.001Z</time>
      </trkpt>
      <trkpt lat="46.72734" lon="4.95825">
        <ele>188.163</ele>
        <time>2019-10-03T09:23:26.001Z</time>
      </trkpt>
      <trkpt lat="46.72666" lon="4.95984">
        <ele>192.08</ele>
        <time>2019-10-03T09:23:56.001Z</time>
      </trkpt>
      <trkpt lat="46.72603" lon="4.96153">
        <ele>190.145</ele>
        <time>2019-10-03T09:24:26.001Z</time>
      </trkpt>
      <trkpt lat="46.72536" lon="4.96322">
        <ele>188.736</ele>
        <time>2019-10-03T09:24:56.001Z</time>
      </trkpt>
      <trkpt lat="46.72466" lon="4.96486">
        <ele>188.515</ele>
        <time>2019-10-03T09:25:26.001Z</time>
      </trkpt>
      <trkpt lat="46.72394" lon="4.96654">
        <ele>190.902</ele>
        <time>2019-10-03T09:25:56.001Z</time>
      </trkpt>
      <trkpt lat="46.7232" lon="4.96782">
        <ele>189.339</ele>
        <time>2019-10-03T09:26:26.001Z</time>
      </trkpt>
      <trkpt lat="46.72214" lon="4.96931">
        <ele>190.891</ele>
        <time>2019-10-03T09:26:56.001Z</time>
      </trkpt>
      <trkpt lat="46.72087" lon="4.97057">
        <ele>190.798</ele>
        <time>2019-10-03T09:27:26.001Z</time>
      </trkpt>
      <trkpt lat="46.71955" lon="4.97186">
        <ele>187.852</ele>
        <time>2019-10-03T09:27:59.001Z</time>
      </trkpt>
      <trkpt lat="46.71827" lon="4.97305">
        <ele>185.043</ele>
        <time>2019-10-03T09:28:29.001Z</time>
      </trkpt>
      <trkpt lat="46.71699" lon="4.97438">
        <ele>185.935</ele>
        <time>2019-10-03T09:28:59.001Z</time>
      </trkpt>
      <trkpt lat="46.71552" lon="4.97535">
        <ele>187.541</ele>
        <time>2019-10-03T09:29:29.001Z</time>
      </trkpt>
      <trkpt lat="46.71386" lon="4.97603">
        <ele>180.964</ele>
        <time>2019-10-03T09:29:59.001Z</time>
      </trkpt>
      <trkpt lat="46.71263" lon="4.97727">
        <ele>171.159</ele>
        <time>2019-10-03T09:30:29.001Z</time>
      </trkpt>
      <trkpt lat="46.71149" lon="4.9787">
        <ele>172.519</ele>
        <time>2019-10-03T09:30:59.001Z</time>
      </trkpt>
      <trkpt lat="46.71038" lon="4.97987">
        <ele>174.078</ele>
        <time>2019-10-03T09:31:29.001Z</time>
      </trkpt>
      <trkpt lat="46.7092" lon="4.98076">
        <ele>176.825</ele>
        <time>2019-10-03T09:31:59.001Z</time>
      </trkpt>
      <trkpt lat="46.70814" lon="4.98153">
        <ele>176.301</ele>
        <time>2019-10-03T09:32:29.001Z</time>
      </trkpt>
      <trkpt lat="46.70709" lon="4.98233">
        <ele>176.246</ele>
        <time>2019-10-03T09:32:59.001Z</time>
      </trkpt>
      <trkpt lat="46.70631" lon="4.9833">
        <ele>178.037</ele>
        <time>2019-10-03T09:33:29.001Z</time>
      </trkpt>
      <trkpt lat="46.70635" lon="4.98322">
        <ele>178.617</ele>
        <time>2019-10-03T09:37:23.001Z</time>
      </trkpt>
      <trkpt lat="46.70633" lon="4.98319">
        <ele>179.957</ele>
        <time>2019-10-03T09:42:26.001Z</time>
      </trkpt>
      <trkpt lat="46.70634" lon="4.98319">
        <ele>180.019</ele>
        <time>2019-10-03T09:45:11.001Z</time>
      </trkpt>
      <trkpt lat="46.70636" lon="4.9832">
        <ele>182.12</ele>
        <time>2019-10-03T09:52:05.001Z</time>
      </trkpt>
      <trkpt lat="46.70636" lon="4.9832">
        <ele>182.12</ele>
        <time>2019-10-03T10:04:20.001Z</time>
      </trkpt>
      <trkpt lat="46.70636" lon="4.9832">
        <ele>182.12</ele>
        <time>2019-10-03T10:09:59.001Z</time>
      </trkpt>
      <trkpt lat="46.7063" lon="4.98323">
        <ele>182.889</ele>
        <time>2019-10-03T10:13:26.001Z</time>
      </trkpt>
      <trkpt lat="46.70571" lon="4.98411">
        <ele>187.202</ele>
        <time>2019-10-03T10:13:59.001Z</time>
      </trkpt>
      <trkpt lat="46.70509" lon="4.98287">
        <ele>186.908</ele>
        <time>2019-10-03T10:14:29.001Z</time>
      </trkpt>
      <trkpt lat="46.70431" lon="4.98221">
        <ele>188.252</ele>
        <time>2019-10-03T10:14:59.001Z</time>
      </trkpt>
      <trkpt lat="46.70362" lon="4.98171">
        <ele>187.409</ele>
        <time>2019-10-03T10:15:29.001Z</time>
      </trkpt>
      <trkpt lat="46.70305" lon="4.98082">
        <ele>188.293</ele>
        <time>2019-10-03T10:15:59.001Z</time>
      </trkpt>
      <trkpt lat="46.70117" lon="4.97977">
        <ele>185.236</ele>
        <time>2019-10-03T10:16:29.001Z</time>
      </trkpt>
      <trkpt lat="46.69893" lon="4.97945">
        <ele>176.351</ele>
        <time>2019-10-03T10:16:59.001Z</time>
      </trkpt>
      <trkpt lat="46.6975" lon="4.97856">
        <ele>177.753</ele>
        <time>2019-10-03T10:17:29.001Z</time>
      </trkpt>
      <trkpt lat="46.69667" lon="4.97789">
        <ele>180.861</ele>
        <time>2019-10-03T10:17:59.001Z</time>
      </trkpt>
      <trkpt lat="46.69587" lon="4.97727">
        <ele>183.832</ele>
        <time>2019-10-03T10:18:29.001Z</time>
      </trkpt>
      <trkpt lat="46.69406" lon="4.97581">
        <ele>181.186</ele>
        <time>2019-10-03T10:19:02Z</time>
      </trkpt>
      <trkpt lat="46.69219" lon="4.97428">
        <ele>174.136</ele>
        <time>2019-10-03T10:19:32.001Z</time>
      </trkpt>
      <trkpt lat="46.69111" lon="4.97449">
        <ele>169.821</ele>
        <time>2019-10-03T10:20:02Z</time>
      </trkpt>
      <trkpt lat="46.68982" lon="4.97475">
        <ele>175.638</ele>
        <time>2019-10-03T10:20:32.001Z</time>
      </trkpt>
      <trkpt lat="46.68885" lon="4.97393">
        <ele>177.805</ele>
        <time>2019-10-03T10:21:02Z</time>
      </trkpt>
      <trkpt lat="46.68839" lon="4.97154">
        <ele>179.173</ele>
        <time>2019-10-03T10:21:32.001Z</time>
      </trkpt>
      <trkpt lat="46.6872" lon="4.96999">
        <ele>178.857</ele>
        <time>2019-10-03T10:22:02Z</time>
      </trkpt>
      <trkpt lat="46.6861" lon="4.96838">
        <ele>175.205</ele>
        <time>2019-10-03T10:22:32.001Z</time>
      </trkpt>
      <trkpt lat="46.68504" lon="4.96677">
        <ele>177.373</ele>
        <time>2019-10-03T10:23:02Z</time>
      </trkpt>
      <trkpt lat="46.68432" lon="4.96472">
        <ele>174.056</ele>
        <time>2019-10-03T10:23:32.001Z</time>
      </trkpt>
      <trkpt lat="46.68368" lon="4.96277">
        <ele>174.222</ele>
        <time>2019-10-03T10:24:02Z</time>
      </trkpt>
      <trkpt lat="46.68266" lon="4.96123">
        <ele>180.329</ele>
        <time>2019-10-03T10:24:32.001Z</time>
      </trkpt>
      <trkpt lat="46.68173" lon="4.95953">
        <ele>182.698</ele>
        <time>2019-10-03T10:25:02Z</time>
      </trkpt>
      <trkpt lat="46.6814" lon="4.95736">
        <ele>177.74</ele>
        <time>2019-10-03T10:25:32.001Z</time>
      </trkpt>
      <trkpt lat="46.68108" lon="4.95527">
        <ele>175.711</ele>
        <time>2019-10-03T10:26:02Z</time>
      </trkpt>
      <trkpt lat="46.67963" lon="4.95482">
        <ele>175.986</ele>
        <time>2019-10-03T10:26:35.001Z</time>
      </trkpt>
      <trkpt lat="46.67848" lon="4.95373">
        <ele>171.911</ele>
        <time>2019-10-03T10:27:05.001Z</time>
      </trkpt>
      <trkpt lat="46.67752" lon="4.9521">
        <ele>171.657</ele>
        <time>2019-10-03T10:27:35.001Z</time>
      </trkpt>
      <trkpt lat="46.67601" lon="4.95201">
        <ele>169.249</ele>
        <time>2019-10-03T10:28:05.001Z</time>
      </trkpt>
      <trkpt lat="46.67457" lon="4.95195">
        <ele>171.249</ele>
        <time>2019-10-03T10:28:35.001Z</time>
      </trkpt>
      <trkpt lat="46.67308" lon="4.9519">
        <ele>174.703</ele>
        <time>2019-10-03T10:29:05.001Z</time>
      </trkpt>
      <trkpt lat="46.67151" lon="4.95183">
        <ele>176.265</ele>
        <time>2019-10-03T10:29:35.001Z</time>
      </trkpt>
      <trkpt lat="46.66991" lon="4.95173">
        <ele>173.73</ele>
        <time>2019-10-03T10:30:05.001Z</time>
      </trkpt>
      <trkpt lat="46.66848" lon="4.95137">
        <ele>174.004</ele>
        <time>2019-10-03T10:30:35.001Z</time>
      </trkpt>
      <trkpt lat="46.66824" lon="4.9499">
        <ele>181.477</ele>
        <time>2019-10-03T10:31:08.001Z</time>
      </trkpt>
      <trkpt lat="46.66811" lon="4.9484">
        <ele>183.031</ele>
        <time>2019-10-03T10:31:38.001Z</time>
      </trkpt>
      <trkpt lat="46.66723" lon="4.94592">
        <ele>178.462</ele>
        <time>2019-10-03T10:32:08.001Z</time>
      </trkpt>
      <trkpt lat="46.66559" lon="4.94595">
        <ele>173.199</ele>
        <time>2019-10-03T10:32:38.001Z</time>
      </trkpt>
      <trkpt lat="46.66404" lon="4.94548">
        <ele>169.546</ele>
        <time>2019-10-03T10:33:08.001Z</time>
      </trkpt>
      <trkpt lat="46.66292" lon="4.94385">
        <ele>173.182</ele>
        <time>2019-10-03T10:33:41.001Z</time>
      </trkpt>
      <trkpt lat="46.66215" lon="4.94185">
        <ele>176.121</ele>
        <time>2019-10-03T10:34:11.001Z</time>
      </trkpt>
      <trkpt lat="46.66166" lon="4.94149">
        <ele>176.553</ele>
        <time>2019-10-03T10:36:26.001Z</time>
      </trkpt>
      <trkpt lat="46.66091" lon="4.94187">
        <ele>178.124</ele>
        <time>2019-10-03T10:36:56.001Z</time>
      </trkpt>
      <trkpt lat="46.65981" lon="4.94184">
        <ele>175.704</ele>
        <time>2019-10-03T10:37:26.001Z</time>
      </trkpt>
      <trkpt lat="46.65853" lon="4.94165">
        <ele>173.31</ele>
        <time>2019-10-03T10:37:56.001Z</time>
      </trkpt>
      <trkpt lat="46.65704" lon="4.94165">
        <ele>172.211</ele>
        <time>2019-10-03T10:38:26.001Z</time>
      </trkpt>
      <trkpt lat="46.6555" lon="4.94157">
        <ele>173.265</ele>
        <time>2019-10-03T10:38:56.001Z</time>
      </trkpt>
      <trkpt lat="46.65397" lon="4.94167">
        <ele>174.761</ele>
        <time>2019-10-03T10:39:26.001Z</time>
      </trkpt>
      <trkpt lat="46.65275" lon="4.94159">
        <ele>174.977</ele>
        <time>2019-10-03T10:39:56.001Z</time>
      </trkpt>
      <trkpt lat="46.65153" lon="4.94136">
        <ele>178.268</ele>
        <time>2019-10-03T10:40:26.001Z</time>
      </trkpt>
      <trkpt lat="46.64981" lon="4.94057">
        <ele>177.426</ele>
        <time>2019-10-03T10:40:56.001Z</time>
      </trkpt>
      <trkpt lat="46.64847" lon="4.93956">
        <ele>176.787</ele>
        <time>2019-10-03T10:41:26.001Z</time>
      </trkpt>
      <trkpt lat="46.64736" lon="4.93851">
        <ele>179.812</ele>
        <time>2019-10-03T10:41:56.001Z</time>
      </trkpt>
      <trkpt lat="46.64635" lon="4.93788">
        <ele>177.938</ele>
        <time>2019-10-03T10:42:26.001Z</time>
      </trkpt>
      <trkpt lat="46.64452" lon="4.93751">
        <ele>175.764</ele>
        <time>2019-10-03T10:42:59.001Z</time>
      </trkpt>
      <trkpt lat="46.64337" lon="4.93604">
        <ele>174.41</ele>
        <time>2019-10-03T10:43:29.001Z</time>
      </trkpt>
      <trkpt lat="46.64255" lon="4.9349">
        <ele>174.965</ele>
        <time>2019-10-03T10:43:59.001Z</time>
      </trkpt>
      <trkpt lat="46.64134" lon="4.93439">
        <ele>176.682</ele>
        <time>2019-10-03T10:44:29.001Z</time>
      </trkpt>
      <trkpt lat="46.64008" lon="4.93341">
        <ele>177.704</ele>
        <time>2019-10-03T10:44:59.001Z</time>
      </trkpt>
      <trkpt lat="46.63873" lon="4.9326">
        <ele>177.995</ele>
        <time>2019-10-03T10:45:29.001Z</time>
      </trkpt>
      <trkpt lat="46.63734" lon="4.9317">
        <ele>177.52</ele>
        <time>2019-10-03T10:45:59.001Z</time>
      </trkpt>
      <trkpt lat="46.63597" lon="4.93092">
        <ele>177.947</ele>
        <time>2019-10-03T10:46:29.001Z</time>
      </trkpt>
      <trkpt lat="46.63461" lon="4.92972">
        <ele>178.7</ele>
        <time>2019-10-03T10:46:59.001Z</time>
      </trkpt>
      <trkpt lat="46.63321" lon="4.92875">
        <ele>176.811</ele>
        <time>2019-10-03T10:47:29.001Z</time>
      </trkpt>
      <trkpt lat="46.63156" lon="4.92833">
        <ele>176.095</ele>
        <time>2019-10-03T10:47:59.001Z</time>
      </trkpt>
      <trkpt lat="46.63006" lon="4.92776">
        <ele>177.31</ele>
        <time>2019-10-03T10:48:29.001Z</time>
      </trkpt>
      <trkpt lat="46.62866" lon="4.9274">
        <ele>177.146</ele>
        <time>2019-10-03T10:48:59.001Z</time>
      </trkpt>
      <trkpt lat="46.62705" lon="4.92694">
        <ele>179.489</ele>
        <time>2019-10-03T10:49:29.001Z</time>
      </trkpt>
      <trkpt lat="46.62554" lon="4.92647">
        <ele>182.335</ele>
        <time>2019-10-03T10:49:59.001Z</time>
      </trkpt>
      <trkpt lat="46.62383" lon="4.92583">
        <ele>175.797</ele>
        <time>2019-10-03T10:50:32.001Z</time>
      </trkpt>
      <trkpt lat="46.62236" lon="4.92536">
        <ele>172.33</ele>
        <time>2019-10-03T10:51:02Z</time>
      </trkpt>
      <trkpt lat="46.62086" lon="4.92496">
        <ele>175.639</ele>
        <time>2019-10-03T10:51:32.001Z</time>
      </trkpt>
      <trkpt lat="46.61914" lon="4.9245">
        <ele>174.457</ele>
        <time>2019-10-03T10:52:02Z</time>
      </trkpt>
      <trkpt lat="46.61762" lon="4.92421">
        <ele>176.407</ele>
        <time>2019-10-03T10:52:32.001Z</time>
      </trkpt>
      <trkpt lat="46.61621" lon="4.92367">
        <ele>177.241</ele>
        <time>2019-10-03T10:53:02Z</time>
      </trkpt>
      <trkpt lat="46.6149" lon="4.92339">
        <ele>177.651</ele>
        <time>2019-10-03T10:53:32.001Z</time>
      </trkpt>
      <trkpt lat="46.61331" lon="4.9234">
        <ele>174.883</ele>
        <time>2019-10-03T10:54:02Z</time>
      </trkpt>
      <trkpt lat="46.61169" lon="4.92343">
        <ele>175.437</ele>
        <time>2019-10-03T10:54:32.001Z</time>
      </trkpt>
      <trkpt lat="46.61021" lon="4.92351">
        <ele>172.975</ele>
        <time>2019-10-03T10:55:02Z</time>
      </trkpt>
      <trkpt lat="46.60923" lon="4.92288">
        <ele>174.2</ele>
        <time>2019-10-03T10:55:32.001Z</time>
      </trkpt>
      <trkpt lat="46.60927" lon="4.92179">
        <ele>180.407</ele>
        <time>2019-10-03T10:56:02Z</time>
      </trkpt>
      <trkpt lat="46.60781" lon="4.9203">
        <ele>180.735</ele>
        <time>2019-10-03T10:56:32.001Z</time>
      </trkpt>
      <trkpt lat="46.60614" lon="4.91947">
        <ele>178.743</ele>
        <time>2019-10-03T10:57:02Z</time>
      </trkpt>
      <trkpt lat="46.60472" lon="4.9184">
        <ele>179.017</ele>
        <time>2019-10-03T10:57:35.001Z</time>
      </trkpt>
      <trkpt lat="46.60398" lon="4.91707">
        <ele>180.191</ele>
        <time>2019-10-03T10:58:08.001Z</time>
      </trkpt>
      <trkpt lat="46.60362" lon="4.91866">
        <ele>181.944</ele>
        <time>2019-10-03T10:58:38.001Z</time>
      </trkpt>
      <trkpt lat="46.60288" lon="4.92017">
        <ele>181.753</ele>
        <time>2019-10-03T10:59:08.001Z</time>
      </trkpt>
      <trkpt lat="46.60174" lon="4.92126">
        <ele>180.764</ele>
        <time>2019-10-03T10:59:38.001Z</time>
      </trkpt>
      <trkpt lat="46.60059" lon="4.92149">
        <ele>178.282</ele>
        <time>2019-10-03T11:00:08.001Z</time>
      </trkpt>
      <trkpt lat="46.59935" lon="4.92126">
        <ele>172.97</ele>
        <time>2019-10-03T11:00:38.001Z</time>
      </trkpt>
      <trkpt lat="46.59816" lon="4.92081">
        <ele>169.405</ele>
        <time>2019-10-03T11:01:08.001Z</time>
      </trkpt>
      <trkpt lat="46.59745" lon="4.91959">
        <ele>174.846</ele>
        <time>2019-10-03T11:01:38.001Z</time>
      </trkpt>
      <trkpt lat="46.59697" lon="4.91814">
        <ele>179.125</ele>
        <time>2019-10-03T11:02:08.001Z</time>
      </trkpt>
      <trkpt lat="46.59615" lon="4.91701">
        <ele>178.979</ele>
        <time>2019-10-03T11:02:38.001Z</time>
      </trkpt>
      <trkpt lat="46.59542" lon="4.91588">
        <ele>177.566</ele>
        <time>2019-10-03T11:03:08.001Z</time>
      </trkpt>
      <trkpt lat="46.59481" lon="4.91677">
        <ele>171.989</ele>
        <time>2019-10-03T11:03:38.001Z</time>
      </trkpt>
      <trkpt lat="46.5945" lon="4.91851">
        <ele>171.721</ele>
        <time>2019-10-03T11:04:08.001Z</time>
      </trkpt>
      <trkpt lat="46.59413" lon="4.91958">
        <ele>173.212</ele>
        <time>2019-10-03T11:04:38.001Z</time>
      </trkpt>
      <trkpt lat="46.59372" lon="4.92099">
        <ele>173.54</ele>
        <time>2019-10-03T11:07:08.001Z</time>
      </trkpt>
      <trkpt lat="46.59327" lon="4.92217">
        <ele>171.658</ele>
        <time>2019-10-03T11:07:38.001Z</time>
      </trkpt>
      <trkpt lat="46.59259" lon="4.92319">
        <ele>167.923</ele>
        <time>2019-10-03T11:08:08.001Z</time>
      </trkpt>
      <trkpt lat="46.59187" lon="4.92241">
        <ele>170.877</ele>
        <time>2019-10-03T11:08:38.001Z</time>
      </trkpt>
      <trkpt lat="46.59113" lon="4.92155">
        <ele>175.916</ele>
        <time>2019-10-03T11:09:08.001Z</time>
      </trkpt>
      <trkpt lat="46.59043" lon="4.9206">
        <ele>177.204</ele>
        <time>2019-10-03T11:09:38.001Z</time>
      </trkpt>
      <trkpt lat="46.58978" lon="4.91937">
        <ele>176.108</ele>
        <time>2019-10-03T11:10:08.001Z</time>
      </trkpt>
      <trkpt lat="46.58893" lon="4.91832">
        <ele>174.632</ele>
        <time>2019-10-03T11:10:38.001Z</time>
      </trkpt>
      <trkpt lat="46.58804" lon="4.91736">
        <ele>171.585</ele>
        <time>2019-10-03T11:11:08.001Z</time>
      </trkpt>
      <trkpt lat="46.58719" lon="4.91642">
        <ele>171.03</ele>
        <time>2019-10-03T11:11:38.001Z</time>
      </trkpt>
      <trkpt lat="46.58628" lon="4.91557">
        <ele>171.866</ele>
        <time>2019-10-03T11:12:08.001Z</time>
      </trkpt>
      <trkpt lat="46.58539" lon="4.915">
        <ele>173.794</ele>
        <time>2019-10-03T11:12:38.001Z</time>
      </trkpt>
      <trkpt lat="46.58441" lon="4.91435">
        <ele>171.591</ele>
        <time>2019-10-03T11:13:08.001Z</time>
      </trkpt>
      <trkpt lat="46.58322" lon="4.91348">
        <ele>172.052</ele>
        <time>2019-10-03T11:13:38.001Z</time>
      </trkpt>
      <trkpt lat="46.58181" lon="4.91266">
        <ele>173.137</ele>
        <time>2019-10-03T11:14:11.001Z</time>
      </trkpt>
      <trkpt lat="46.5805" lon="4.91212">
        <ele>172.095</ele>
        <time>2019-10-03T11:14:41.001Z</time>
      </trkpt>
      <trkpt lat="46.57908" lon="4.91205">
        <ele>171.226</ele>
        <time>2019-10-03T11:15:11.001Z</time>
      </trkpt>
      <trkpt lat="46.57752" lon="4.91193">
        <ele>171.481</ele>
        <time>2019-10-03T11:15:41.001Z</time>
      </trkpt>
      <trkpt lat="46.57597" lon="4.91192">
        <ele>169.927</ele>
        <time>2019-10-03T11:16:11.001Z</time>
      </trkpt>
      <trkpt lat="46.57459" lon="4.91219">
        <ele>167.96</ele>
        <time>2019-10-03T11:16:41.001Z</time>
      </trkpt>
      <trkpt lat="46.57314" lon="4.91244">
        <ele>167.717</ele>
        <time>2019-10-03T11:17:11.001Z</time>
      </trkpt>
      <trkpt lat="46.5715" lon="4.91234">
        <ele>170.893</ele>
        <time>2019-10-03T11:17:41.001Z</time>
      </trkpt>
      <trkpt lat="46.57005" lon="4.91196">
        <ele>172.609</ele>
        <time>2019-10-03T11:18:11.001Z</time>
      </trkpt>
      <trkpt lat="46.56859" lon="4.91148">
        <ele>172.503</ele>
        <time>2019-10-03T11:18:41.001Z</time>
      </trkpt>
      <trkpt lat="46.56719" lon="4.9112">
        <ele>174.921</ele>
        <time>2019-10-03T11:19:11.001Z</time>
      </trkpt>
      <trkpt lat="46.56597" lon="4.91123">
        <ele>175.885</ele>
        <time>2019-10-03T11:19:41.001Z</time>
      </trkpt>
      <trkpt lat="46.56465" lon="4.91183">
        <ele>170.512</ele>
        <time>2019-10-03T11:20:11.001Z</time>
      </trkpt>
      <trkpt lat="46.56369" lon="4.91226">
        <ele>172.16</ele>
        <time>2019-10-03T11:20:41.001Z</time>
      </trkpt>
      <trkpt lat="46.56198" lon="4.91353">
        <ele>169.743</ele>
        <time>2019-10-03T11:21:11.001Z</time>
      </trkpt>
      <trkpt lat="46.5607" lon="4.91485">
        <ele>169.089</ele>
        <time>2019-10-03T11:21:44.001Z</time>
      </trkpt>
      <trkpt lat="46.55939" lon="4.9159">
        <ele>166.649</ele>
        <time>2019-10-03T11:22:14.001Z</time>
      </trkpt>
      <trkpt lat="46.558" lon="4.91678">
        <ele>167.837</ele>
        <time>2019-10-03T11:22:44.001Z</time>
      </trkpt>
      <trkpt lat="46.55652" lon="4.91746">
        <ele>166.074</ele>
        <time>2019-10-03T11:23:14.001Z</time>
      </trkpt>
      <trkpt lat="46.55504" lon="4.91794">
        <ele>169.906</ele>
        <time>2019-10-03T11:23:44.001Z</time>
      </trkpt>
      <trkpt lat="46.55412" lon="4.91851">
        <ele>174.185</ele>
        <time>2019-10-03T11:26:29.001Z</time>
      </trkpt>
      <trkpt lat="46.55353" lon="4.91883">
        <ele>173.996</ele>
        <time>2019-10-03T11:33:23.001Z</time>
      </trkpt>
      <trkpt lat="46.55243" lon="4.91941">
        <ele>172.186</ele>
        <time>2019-10-03T11:33:53.001Z</time>
      </trkpt>
      <trkpt lat="46.55133" lon="4.91993">
        <ele>171.842</ele>
        <time>2019-10-03T11:34:23.001Z</time>
      </trkpt>
      <trkpt lat="46.55001" lon="4.92038">
        <ele>172.388</ele>
        <time>2019-10-03T11:34:53.001Z</time>
      </trkpt>
      <trkpt lat="46.54861" lon="4.92107">
        <ele>169.464</ele>
        <time>2019-10-03T11:35:23.001Z</time>
      </trkpt>
      <trkpt lat="46.54729" lon="4.92232">
        <ele>169.982</ele>
        <time>2019-10-03T11:35:53.001Z</time>
      </trkpt>
      <trkpt lat="46.5459" lon="4.92323">
        <ele>170.804</ele>
        <time>2019-10-03T11:36:23.001Z</time>
      </trkpt>
      <trkpt lat="46.54461" lon="4.9242">
        <ele>170.76</ele>
        <time>2019-10-03T11:36:53.001Z</time>
      </trkpt>
      <trkpt lat="46.54331" lon="4.92489">
        <ele>171.71</ele>
        <time>2019-10-03T11:37:23.001Z</time>
      </trkpt>
      <trkpt lat="46.54177" lon="4.92575">
        <ele>171.285</ele>
        <time>2019-10-03T11:37:56.001Z</time>
      </trkpt>
      <trkpt lat="46.54027" lon="4.92641">
        <ele>169.406</ele>
        <time>2019-10-03T11:38:26.001Z</time>
      </trkpt>
      <trkpt lat="46.53888" lon="4.92704">
        <ele>170.791</ele>
        <time>2019-10-03T11:38:56.001Z</time>
      </trkpt>
      <trkpt lat="46.53749" lon="4.92785">
        <ele>169.217</ele>
        <time>2019-10-03T11:39:26.001Z</time>
      </trkpt>
      <trkpt lat="46.5361" lon="4.92863">
        <ele>170.336</ele>
        <time>2019-10-03T11:39:56.001Z</time>
      </trkpt>
      <trkpt lat="46.53497" lon="4.92926">
        <ele>174.064</ele>
        <time>2019-10-03T11:40:26.001Z</time>
      </trkpt>
      <trkpt lat="46.53347" lon="4.93036">
        <ele>171.315</ele>
        <time>2019-10-03T11:40:56.001Z</time>
      </trkpt>
      <trkpt lat="46.53218" lon="4.93138">
        <ele>169.063</ele>
        <time>2019-10-03T11:41:26.001Z</time>
      </trkpt>
      <trkpt lat="46.53091" lon="4.9323">
        <ele>167.85</ele>
        <time>2019-10-03T11:41:56.001Z</time>
      </trkpt>
      <trkpt lat="46.52978" lon="4.93336">
        <ele>171.193</ele>
        <time>2019-10-03T11:42:26.001Z</time>
      </trkpt>
      <trkpt lat="46.52846" lon="4.93457">
        <ele>173.808</ele>
        <time>2019-10-03T11:42:56.001Z</time>
      </trkpt>
      <trkpt lat="46.52689" lon="4.9355">
        <ele>168.036</ele>
        <time>2019-10-03T11:43:26.001Z</time>
      </trkpt>
      <trkpt lat="46.52545" lon="4.93602">
        <ele>168.896</ele>
        <time>2019-10-03T11:43:56.001Z</time>
      </trkpt>
      <trkpt lat="46.52406" lon="4.93636">
        <ele>167.888</ele>
        <time>2019-10-03T11:44:26.001Z</time>
      </trkpt>
      <trkpt lat="46.52244" lon="4.93689">
        <ele>167.697</ele>
        <time>2019-10-03T11:44:59.001Z</time>
      </trkpt>
      <trkpt lat="46.52102" lon="4.93699">
        <ele>168.494</ele>
        <time>2019-10-03T11:45:29.001Z</time>
      </trkpt>
      <trkpt lat="46.51952" lon="4.93685">
        <ele>168.926</ele>
        <time>2019-10-03T11:45:59.001Z</time>
      </trkpt>
      <trkpt lat="46.51799" lon="4.93641">
        <ele>172.331</ele>
        <time>2019-10-03T11:46:29.001Z</time>
      </trkpt>
      <trkpt lat="46.51654" lon="4.93554">
        <ele>172.614</ele>
        <time>2019-10-03T11:46:59.001Z</time>
      </trkpt>
      <trkpt lat="46.51524" lon="4.93434">
        <ele>171.016</ele>
        <time>2019-10-03T11:47:29.001Z</time>
      </trkpt>
      <trkpt lat="46.5139" lon="4.93287">
        <ele>172.416</ele>
        <time>2019-10-03T11:47:59.001Z</time>
      </trkpt>
      <trkpt lat="46.5126" lon="4.93166">
        <ele>170.998</ele>
        <time>2019-10-03T11:48:29.001Z</time>
      </trkpt>
      <trkpt lat="46.51126" lon="4.93043">
        <ele>171.928</ele>
        <time>2019-10-03T11:48:59.001Z</time>
      </trkpt>
      <trkpt lat="46.50982" lon="4.92955">
        <ele>170.894</ele>
        <time>2019-10-03T11:49:29.001Z</time>
      </trkpt>
      <trkpt lat="46.50835" lon="4.92899">
        <ele>172.96</ele>
        <time>2019-10-03T11:49:59.001Z</time>
      </trkpt>
      <trkpt lat="46.50684" lon="4.92858">
        <ele>174.156</ele>
        <time>2019-10-03T11:50:29.001Z</time>
      </trkpt>
      <trkpt lat="46.50535" lon="4.92803">
        <ele>172.1</ele>
        <time>2019-10-03T11:50:59.001Z</time>
      </trkpt>
      <trkpt lat="46.50415" lon="4.92723">
        <ele>172.157</ele>
        <time>2019-10-03T11:51:29.001Z</time>
      </trkpt>
      <trkpt lat="46.50267" lon="4.92644">
        <ele>171.413</ele>
        <time>2019-10-03T11:51:59.001Z</time>
      </trkpt>
      <trkpt lat="46.50104" lon="4.92612">
        <ele>167.323</ele>
        <time>2019-10-03T11:52:32.001Z</time>
      </trkpt>
      <trkpt lat="46.49963" lon="4.92567">
        <ele>169.354</ele>
        <time>2019-10-03T11:53:02Z</time>
      </trkpt>
      <trkpt lat="46.49822" lon="4.92487">
        <ele>170.878</ele>
        <time>2019-10-03T11:53:32.001Z</time>
      </trkpt>
      <trkpt lat="46.49688" lon="4.92394">
        <ele>171.923</ele>
        <time>2019-10-03T11:54:02Z</time>
      </trkpt>
      <trkpt lat="46.49579" lon="4.92254">
        <ele>173.501</ele>
        <time>2019-10-03T11:54:32.001Z</time>
      </trkpt>
      <trkpt lat="46.49487" lon="4.92094">
        <ele>174.353</ele>
        <time>2019-10-03T11:55:02Z</time>
      </trkpt>
      <trkpt lat="46.49388" lon="4.91933">
        <ele>173.271</ele>
        <time>2019-10-03T11:55:32.001Z</time>
      </trkpt>
      <trkpt lat="46.49279" lon="4.91789">
        <ele>173.084</ele>
        <time>2019-10-03T11:56:02Z</time>
      </trkpt>
      <trkpt lat="46.49171" lon="4.91612">
        <ele>171.508</ele>
        <time>2019-10-03T11:56:32.001Z</time>
      </trkpt>
      <trkpt lat="46.49079" lon="4.9143">
        <ele>171.26</ele>
        <time>2019-10-03T11:57:02Z</time>
      </trkpt>
      <trkpt lat="46.48947" lon="4.91316">
        <ele>168.129</ele>
        <time>2019-10-03T11:57:32.001Z</time>
      </trkpt>
      <trkpt lat="46.48808" lon="4.91258">
        <ele>172.257</ele>
        <time>2019-10-03T11:58:02Z</time>
      </trkpt>
      <trkpt lat="46.48673" lon="4.91233">
        <ele>171.23</ele>
        <time>2019-10-03T11:58:32.001Z</time>
      </trkpt>
      <trkpt lat="46.48527" lon="4.9124">
        <ele>167.273</ele>
        <time>2019-10-03T11:59:02Z</time>
      </trkpt>
      <trkpt lat="46.48366" lon="4.91252">
        <ele>168.595</ele>
        <time>2019-10-03T11:59:35.001Z</time>
      </trkpt>
      <trkpt lat="46.48213" lon="4.91258">
        <ele>169.093</ele>
        <time>2019-10-03T12:00:05.001Z</time>
      </trkpt>
      <trkpt lat="46.48059" lon="4.91257">
        <ele>170.004</ele>
        <time>2019-10-03T12:00:35.001Z</time>
      </trkpt>
      <trkpt lat="46.47902" lon="4.91276">
        <ele>167.836</ele>
        <time>2019-10-03T12:01:05.001Z</time>
      </trkpt>
      <trkpt lat="46.47749" lon="4.91312">
        <ele>163.793</ele>
        <time>2019-10-03T12:01:35.001Z</time>
      </trkpt>
      <trkpt lat="46.47605" lon="4.91349">
        <ele>164.532</ele>
        <time>2019-10-03T12:02:05.001Z</time>
      </trkpt>
      <trkpt lat="46.47458" lon="4.91398">
        <ele>168.925</ele>
        <time>2019-10-03T12:02:35.001Z</time>
      </trkpt>
      <trkpt lat="46.47377" lon="4.91411">
        <ele>170.126</ele>
        <time>2019-10-03T12:05:05.001Z</time>
      </trkpt>
      <trkpt lat="46.47254" lon="4.91414">
        <ele>168.855</ele>
        <time>2019-10-03T12:05:35.001Z</time>
      </trkpt>
      <trkpt lat="46.47114" lon="4.9141">
        <ele>167.996</ele>
        <time>2019-10-03T12:06:05.001Z</time>
      </trkpt>
      <trkpt lat="46.46965" lon="4.91413">
        <ele>171.446</ele>
        <time>2019-10-03T12:06:35.001Z</time>
      </trkpt>
      <trkpt lat="46.46818" lon="4.91418">
        <ele>170.871</ele>
        <time>2019-10-03T12:07:05.001Z</time>
      </trkpt>
      <trkpt lat="46.46679" lon="4.91372">
        <ele>171.766</ele>
        <time>2019-10-03T12:07:35.001Z</time>
      </trkpt>
      <trkpt lat="46.46541" lon="4.91327">
        <ele>170.96</ele>
        <time>2019-10-03T12:08:05.001Z</time>
      </trkpt>
      <trkpt lat="46.46398" lon="4.91301">
        <ele>169.66</ele>
        <time>2019-10-03T12:08:35.001Z</time>
      </trkpt>
      <trkpt lat="46.46243" lon="4.91256">
        <ele>167.541</ele>
        <time>2019-10-03T12:09:08.001Z</time>
      </trkpt>
      <trkpt lat="46.46111" lon="4.91183">
        <ele>169.102</ele>
        <time>2019-10-03T12:09:38.001Z</time>
      </trkpt>
      <trkpt lat="46.45981" lon="4.91076">
        <ele>172.964</ele>
        <time>2019-10-03T12:10:08.001Z</time>
      </trkpt>
      <trkpt lat="46.4588" lon="4.90951">
        <ele>172.659</ele>
        <time>2019-10-03T12:10:38.001Z</time>
      </trkpt>
      <trkpt lat="46.45767" lon="4.90812">
        <ele>171.67</ele>
        <time>2019-10-03T12:11:08.001Z</time>
      </trkpt>
      <trkpt lat="46.45675" lon="4.90666">
        <ele>167.073</ele>
        <time>2019-10-03T12:11:38.001Z</time>
      </trkpt>
      <trkpt lat="46.45596" lon="4.90503">
        <ele>173.989</ele>
        <time>2019-10-03T12:12:08.001Z</time>
      </trkpt>
      <trkpt lat="46.45505" lon="4.90335">
        <ele>174.049</ele>
        <time>2019-10-03T12:12:38.001Z</time>
      </trkpt>
      <trkpt lat="46.45403" lon="4.90199">
        <ele>174.018</ele>
        <time>2019-10-03T12:13:08.001Z</time>
      </trkpt>
      <trkpt lat="46.45298" lon="4.90056">
        <ele>171.6</ele>
        <time>2019-10-03T12:13:38.001Z</time>
      </trkpt>
      <trkpt lat="46.45205" lon="4.89908">
        <ele>173.568</ele>
        <time>2019-10-03T12:14:08.001Z</time>
      </trkpt>
      <trkpt lat="46.451" lon="4.89752">
        <ele>172.416</ele>
        <time>2019-10-03T12:14:38.001Z</time>
      </trkpt>
      <trkpt lat="46.44995" lon="4.89632">
        <ele>173.247</ele>
        <time>2019-10-03T12:15:08.001Z</time>
      </trkpt>
      <trkpt lat="46.44869" lon="4.89518">
        <ele>173.655</ele>
        <time>2019-10-03T12:15:38.001Z</time>
      </trkpt>
      <trkpt lat="46.44751" lon="4.89432">
        <ele>170.943</ele>
        <time>2019-10-03T12:16:08.001Z</time>
      </trkpt>
      <trkpt lat="46.4463" lon="4.89311">
        <ele>173.819</ele>
        <time>2019-10-03T12:16:41.001Z</time>
      </trkpt>
      <trkpt lat="46.44641" lon="4.8914">
        <ele>172.853</ele>
        <time>2019-10-03T12:17:11.001Z</time>
      </trkpt>
      <trkpt lat="46.44699" lon="4.88947">
        <ele>173.104</ele>
        <time>2019-10-03T12:17:41.001Z</time>
      </trkpt>
      <trkpt lat="46.4475" lon="4.8876">
        <ele>170.895</ele>
        <time>2019-10-03T12:18:11.001Z</time>
      </trkpt>
      <trkpt lat="46.44711" lon="4.88642">
        <ele>170.041</ele>
        <time>2019-10-03T12:18:41.001Z</time>
      </trkpt>
      <trkpt lat="46.44652" lon="4.88578">
        <ele>171.701</ele>
        <time>2019-10-03T12:19:29.001Z</time>
      </trkpt>
      <trkpt lat="46.44607" lon="4.88563">
        <ele>172.693</ele>
        <time>2019-10-03T12:24:11.001Z</time>
      </trkpt>
      <trkpt lat="46.44514" lon="4.88639">
        <ele>171.646</ele>
        <time>2019-10-03T12:24:41.001Z</time>
      </trkpt>
      <trkpt lat="46.44448" lon="4.8849">
        <ele>171.026</ele>
        <time>2019-10-03T12:25:11.001Z</time>
      </trkpt>
      <trkpt lat="46.44356" lon="4.88445">
        <ele>171.567</ele>
        <time>2019-10-03T12:25:41.001Z</time>
      </trkpt>
      <trkpt lat="46.44265" lon="4.88482">
        <ele>172.293</ele>
        <time>2019-10-03T12:26:11.001Z</time>
      </trkpt>
      <trkpt lat="46.44131" lon="4.88417">
        <ele>173.319</ele>
        <time>2019-10-03T12:26:41.001Z</time>
      </trkpt>
      <trkpt lat="46.4399" lon="4.88347">
        <ele>172.683</ele>
        <time>2019-10-03T12:27:11.001Z</time>
      </trkpt>
      <trkpt lat="46.4389" lon="4.88407">
        <ele>174.187</ele>
        <time>2019-10-03T12:27:41.001Z</time>
      </trkpt>
      <trkpt lat="46.43773" lon="4.8846">
        <ele>171.704</ele>
        <time>2019-10-03T12:28:14.001Z</time>
      </trkpt>
      <trkpt lat="46.43622" lon="4.88408">
        <ele>172.687</ele>
        <time>2019-10-03T12:28:44.001Z</time>
      </trkpt>
      <trkpt lat="46.4353" lon="4.88574">
        <ele>171.669</ele>
        <time>2019-10-03T12:29:14.001Z</time>
      </trkpt>
      <trkpt lat="46.4345" lon="4.88756">
        <ele>171.094</ele>
        <time>2019-10-03T12:29:44.001Z</time>
      </trkpt>
      <trkpt lat="46.43297" lon="4.88737">
        <ele>169.178</ele>
        <time>2019-10-03T12:30:14.001Z</time>
      </trkpt>
      <trkpt lat="46.43149" lon="4.88733">
        <ele>170.744</ele>
        <time>2019-10-03T12:30:44.001Z</time>
      </trkpt>
      <trkpt lat="46.43008" lon="4.88799">
        <ele>171.937</ele>
        <time>2019-10-03T12:31:14.001Z</time>
      </trkpt>
      <trkpt lat="46.42869" lon="4.88849">
        <ele>170.155</ele>
        <time>2019-10-03T12:31:44.001Z</time>
      </trkpt>
      <trkpt lat="46.42711" lon="4.88844">
        <ele>168.858</ele>
        <time>2019-10-03T12:32:14.001Z</time>
      </trkpt>
      <trkpt lat="46.42556" lon="4.88834">
        <ele>172.363</ele>
        <time>2019-10-03T12:32:44.001Z</time>
      </trkpt>
      <trkpt lat="46.42406" lon="4.88814">
        <ele>172.398</ele>
        <time>2019-10-03T12:33:14.001Z</time>
      </trkpt>
      <trkpt lat="46.4225" lon="4.88785">
        <ele>172.13</ele>
        <time>2019-10-03T12:33:44.001Z</time>
      </trkpt>
      <trkpt lat="46.42092" lon="4.88753">
        <ele>171.752</ele>
        <time>2019-10-03T12:34:14.001Z</time>
      </trkpt>
      <trkpt lat="46.41937" lon="4.88722">
        <ele>170.54</ele>
        <time>2019-10-03T12:34:44.001Z</time>
      </trkpt>
      <trkpt lat="46.41787" lon="4.88699">
        <ele>171.265</ele>
        <time>2019-10-03T12:35:14.001Z</time>
      </trkpt>
      <trkpt lat="46.41623" lon="4.88653">
        <ele>171.465</ele>
        <time>2019-10-03T12:35:47.001Z</time>
      </trkpt>
      <trkpt lat="46.41477" lon="4.88606">
        <ele>169.949</ele>
        <time>2019-10-03T12:36:17.001Z</time>
      </trkpt>
      <trkpt lat="46.41325" lon="4.88583">
        <ele>170.519</ele>
        <time>2019-10-03T12:36:47.001Z</time>
      </trkpt>
      <trkpt lat="46.41171" lon="4.88573">
        <ele>170.275</ele>
        <time>2019-10-03T12:37:17.001Z</time>
      </trkpt>
      <trkpt lat="46.41019" lon="4.88579">
        <ele>170.306</ele>
        <time>2019-10-03T12:37:47.001Z</time>
      </trkpt>
      <trkpt lat="46.40993" lon="4.88541">
        <ele>170.734</ele>
        <time>2019-10-03T12:38:47.001Z</time>
      </trkpt>
      <trkpt lat="46.409" lon="4.88654">
        <ele>171.524</ele>
        <time>2019-10-03T12:39:17.001Z</time>
      </trkpt>
      <trkpt lat="46.40748" lon="4.88694">
        <ele>169.249</ele>
        <time>2019-10-03T12:39:47.001Z</time>
      </trkpt>
      <trkpt lat="46.40599" lon="4.88736">
        <ele>168.574</ele>
        <time>2019-10-03T12:40:17.001Z</time>
      </trkpt>
      <trkpt lat="46.40448" lon="4.88697">
        <ele>169.565</ele>
        <time>2019-10-03T12:40:47.001Z</time>
      </trkpt>
      <trkpt lat="46.40314" lon="4.88587">
        <ele>169.492</ele>
        <time>2019-10-03T12:41:17.001Z</time>
      </trkpt>
      <trkpt lat="46.40185" lon="4.88486">
        <ele>172.019</ele>
        <time>2019-10-03T12:41:47.001Z</time>
      </trkpt>
      <trkpt lat="46.4005" lon="4.88383">
        <ele>168.259</ele>
        <time>2019-10-03T12:42:17.001Z</time>
      </trkpt>
      <trkpt lat="46.39926" lon="4.88264">
        <ele>167.23</ele>
        <time>2019-10-03T12:42:47.001Z</time>
      </trkpt>
      <trkpt lat="46.3978" lon="4.88146">
        <ele>169.145</ele>
        <time>2019-10-03T12:43:20.001Z</time>
      </trkpt>
      <trkpt lat="46.39635" lon="4.88057">
        <ele>168.882</ele>
        <time>2019-10-03T12:43:50.001Z</time>
      </trkpt>
      <trkpt lat="46.39483" lon="4.87979">
        <ele>167.884</ele>
        <time>2019-10-03T12:44:20.001Z</time>
      </trkpt>
      <trkpt lat="46.3934" lon="4.87874">
        <ele>169.621</ele>
        <time>2019-10-03T12:44:50.001Z</time>
      </trkpt>
      <trkpt lat="46.39203" lon="4.87753">
        <ele>171.609</ele>
        <time>2019-10-03T12:45:20.001Z</time>
      </trkpt>
      <trkpt lat="46.3909" lon="4.8762">
        <ele>170.511</ele>
        <time>2019-10-03T12:45:50.001Z</time>
      </trkpt>
      <trkpt lat="46.38967" lon="4.87507">
        <ele>171.026</ele>
        <time>2019-10-03T12:46:20.001Z</time>
      </trkpt>
      <trkpt lat="46.38844" lon="4.87403">
        <ele>169.464</ele>
        <time>2019-10-03T12:46:50.001Z</time>
      </trkpt>
      <trkpt lat="46.38703" lon="4.87316">
        <ele>170.941</ele>
        <time>2019-10-03T12:47:20.001Z</time>
      </trkpt>
      <trkpt lat="46.38549" lon="4.87232">
        <ele>171.006</ele>
        <time>2019-10-03T12:47:50.001Z</time>
      </trkpt>
      <trkpt lat="46.38408" lon="4.87146">
        <ele>170.515</ele>
        <time>2019-10-03T12:48:20.001Z</time>
      </trkpt>
      <trkpt lat="46.38275" lon="4.87042">
        <ele>168.568</ele>
        <time>2019-10-03T12:48:50.001Z</time>
      </trkpt>
      <trkpt lat="46.38154" lon="4.86911">
        <ele>171.23</ele>
        <time>2019-10-03T12:49:20.001Z</time>
      </trkpt>
      <trkpt lat="46.38015" lon="4.86774">
        <ele>169.866</ele>
        <time>2019-10-03T12:49:50.001Z</time>
      </trkpt>
      <trkpt lat="46.3789" lon="4.86651">
        <ele>171.021</ele>
        <time>2019-10-03T12:50:20.001Z</time>
      </trkpt>
      <trkpt lat="46.37743" lon="4.86535">
        <ele>169.935</ele>
        <time>2019-10-03T12:50:53.001Z</time>
      </trkpt>
      <trkpt lat="46.37611" lon="4.86419">
        <ele>172.356</ele>
        <time>2019-10-03T12:51:23.001Z</time>
      </trkpt>
      <trkpt lat="46.37482" lon="4.863">
        <ele>173.171</ele>
        <time>2019-10-03T12:51:53.001Z</time>
      </trkpt>
      <trkpt lat="46.37364" lon="4.86196">
        <ele>171.054</ele>
        <time>2019-10-03T12:52:23.001Z</time>
      </trkpt>
      <trkpt lat="46.37232" lon="4.8607">
        <ele>172.967</ele>
        <time>2019-10-03T12:52:53.001Z</time>
      </trkpt>
      <trkpt lat="46.37107" lon="4.85951">
        <ele>171.968</ele>
        <time>2019-10-03T12:53:23.001Z</time>
      </trkpt>
      <trkpt lat="46.36964" lon="4.85837">
        <ele>169.997</ele>
        <time>2019-10-03T12:53:53.001Z</time>
      </trkpt>
      <trkpt lat="46.36824" lon="4.85733">
        <ele>171.688</ele>
        <time>2019-10-03T12:54:23.001Z</time>
      </trkpt>
      <trkpt lat="46.3669" lon="4.8564">
        <ele>172.708</ele>
        <time>2019-10-03T12:54:53.001Z</time>
      </trkpt>
      <trkpt lat="46.36547" lon="4.8553">
        <ele>171.672</ele>
        <time>2019-10-03T12:55:23.001Z</time>
      </trkpt>
      <trkpt lat="46.36422" lon="4.85432">
        <ele>170.555</ele>
        <time>2019-10-03T12:55:53.001Z</time>
      </trkpt>
      <trkpt lat="46.36274" lon="4.85351">
        <ele>169.028</ele>
        <time>2019-10-03T12:56:23.001Z</time>
      </trkpt>
      <trkpt lat="46.36131" lon="4.85305">
        <ele>169.496</ele>
        <time>2019-10-03T12:56:53.001Z</time>
      </trkpt>
      <trkpt lat="46.35979" lon="4.85253">
        <ele>169.562</ele>
        <time>2019-10-03T12:57:23.001Z</time>
      </trkpt>
      <trkpt lat="46.3584" lon="4.85155">
        <ele>171.649</ele>
        <time>2019-10-03T12:57:53.001Z</time>
      </trkpt>
      <trkpt lat="46.35677" lon="4.85057">
        <ele>171.657</ele>
        <time>2019-10-03T12:58:26.001Z</time>
      </trkpt>
      <trkpt lat="46.35529" lon="4.84998">
        <ele>170.424</ele>
        <time>2019-10-03T12:58:56.001Z</time>
      </trkpt>
      <trkpt lat="46.35363" lon="4.84977">
        <ele>172.187</ele>
        <time>2019-10-03T12:59:26.001Z</time>
      </trkpt>
      <trkpt lat="46.35199" lon="4.84991">
        <ele>170.325</ele>
        <time>2019-10-03T12:59:56.001Z</time>
      </trkpt>
      <trkpt lat="46.35048" lon="4.85023">
        <ele>172.282</ele>
        <time>2019-10-03T13:00:26.001Z</time>
      </trkpt>
      <trkpt lat="46.34898" lon="4.85048">
        <ele>173.932</ele>
        <time>2019-10-03T13:00:56.001Z</time>
      </trkpt>
      <trkpt lat="46.34716" lon="4.8509">
        <ele>171.21</ele>
        <time>2019-10-03T13:01:26.001Z</time>
      </trkpt>
      <trkpt lat="46.34558" lon="4.85102">
        <ele>168.429</ele>
        <time>2019-10-03T13:01:56.001Z</time>
      </trkpt>
      <trkpt lat="46.34402" lon="4.85108">
        <ele>172.886</ele>
        <time>2019-10-03T13:02:26.001Z</time>
      </trkpt>
      <trkpt lat="46.34241" lon="4.85117">
        <ele>174.735</ele>
        <time>2019-10-03T13:02:56.001Z</time>
      </trkpt>
      <trkpt lat="46.34071" lon="4.85091">
        <ele>174.975</ele>
        <time>2019-10-03T13:03:26.001Z</time>
      </trkpt>
      <trkpt lat="46.33924" lon="4.85082">
        <ele>173.002</ele>
        <time>2019-10-03T13:03:56.001Z</time>
      </trkpt>
      <trkpt lat="46.33757" lon="4.85067">
        <ele>174.855</ele>
        <time>2019-10-03T13:04:26.001Z</time>
      </trkpt>
      <trkpt lat="46.336" lon="4.85055">
        <ele>172.247</ele>
        <time>2019-10-03T13:04:56.001Z</time>
      </trkpt>
      <trkpt lat="46.33422" lon="4.85067">
        <ele>170.041</ele>
        <time>2019-10-03T13:05:29.001Z</time>
      </trkpt>
      <trkpt lat="46.33272" lon="4.85086">
        <ele>172.611</ele>
        <time>2019-10-03T13:05:59.001Z</time>
      </trkpt>
      <trkpt lat="46.33116" lon="4.85086">
        <ele>174.161</ele>
        <time>2019-10-03T13:06:29.001Z</time>
      </trkpt>
      <trkpt lat="46.32955" lon="4.85058">
        <ele>172.349</ele>
        <time>2019-10-03T13:06:59.001Z</time>
      </trkpt>
      <trkpt lat="46.32822" lon="4.84964">
        <ele>167.908</ele>
        <time>2019-10-03T13:07:29.001Z</time>
      </trkpt>
      <trkpt lat="46.32695" lon="4.84795">
        <ele>166.572</ele>
        <time>2019-10-03T13:07:59.001Z</time>
      </trkpt>
      <trkpt lat="46.32611" lon="4.8462">
        <ele>166.673</ele>
        <time>2019-10-03T13:08:29.001Z</time>
      </trkpt>
      <trkpt lat="46.32577" lon="4.84514">
        <ele>166.927</ele>
        <time>2019-10-03T13:10:35.001Z</time>
      </trkpt>
      <trkpt lat="46.3256" lon="4.84384">
        <ele>166.354</ele>
        <time>2019-10-03T13:11:05.001Z</time>
      </trkpt>
      <trkpt lat="46.32515" lon="4.8423">
        <ele>169.908</ele>
        <time>2019-10-03T13:11:35.001Z</time>
      </trkpt>
      <trkpt lat="46.32567" lon="4.842">
        <ele>180.188</ele>
        <time>2019-10-03T13:12:05.001Z</time>
      </trkpt>
      <trkpt lat="46.32691" lon="4.84254">
        <ele>188.544</ele>
        <time>2019-10-03T13:12:35.001Z</time>
      </trkpt>
      <trkpt lat="46.32818" lon="4.84306">
        <ele>177.572</ele>
        <time>2019-10-03T13:13:05.001Z</time>
      </trkpt>
      <trkpt lat="46.32945" lon="4.84344">
        <ele>174.6</ele>
        <time>2019-10-03T13:13:35.001Z</time>
      </trkpt>
      <trkpt lat="46.33059" lon="4.84335">
        <ele>183.178</ele>
        <time>2019-10-03T13:14:05.001Z</time>
      </trkpt>
      <trkpt lat="46.33035" lon="4.84369">
        <ele>183.952</ele>
        <time>2019-10-03T13:20:53.001Z</time>
      </trkpt>
      <trkpt lat="46.33021" lon="4.84447">
        <ele>180.384</ele>
        <time>2019-10-03T13:21:23.001Z</time>
      </trkpt>
      <trkpt lat="46.33034" lon="4.84547">
        <ele>183.607</ele>
        <time>2019-10-03T13:21:53.001Z</time>
      </trkpt>
      <trkpt lat="46.33039" lon="4.84634">
        <ele>177.747</ele>
        <time>2019-10-03T13:22:23.001Z</time>
      </trkpt>
      <trkpt lat="46.33001" lon="4.84646">
        <ele>182.285</ele>
        <time>2019-10-03T13:23:41.001Z</time>
      </trkpt>
      <trkpt lat="46.32944" lon="4.84628">
        <ele>182.007</ele>
        <time>2019-10-03T13:24:11.001Z</time>
      </trkpt>
      <trkpt lat="46.32942" lon="4.8461">
        <ele>178.288</ele>
        <time>2019-10-03T13:24:53.001Z</time>
      </trkpt>
    </trkseg>
  </trk>
  <trk>
    <name><![CDATA[Tracé 20191004-113502]]></name>
    <trkseg>
      <trkpt lat="46.32954" lon="4.8464">
        <ele>158.719</ele>
        <time>2019-10-04T09:35:14Z</time>
      </trkpt>
      <trkpt lat="46.32952" lon="4.84629">
        <ele>165.219</ele>
        <time>2019-10-04T09:56:02Z</time>
      </trkpt>
      <trkpt lat="46.33017" lon="4.84632">
        <ele>170.836</ele>
        <time>2019-10-04T10:03:27Z</time>
      </trkpt>
      <trkpt lat="46.33048" lon="4.84524">
        <ele>178.251</ele>
        <time>2019-10-04T10:03:57Z</time>
      </trkpt>
      <trkpt lat="46.33057" lon="4.84384">
        <ele>177.298</ele>
        <time>2019-10-04T10:04:27Z</time>
      </trkpt>
      <trkpt lat="46.33119" lon="4.84319">
        <ele>179.863</ele>
        <time>2019-10-04T10:04:57Z</time>
      </trkpt>
      <trkpt lat="46.33194" lon="4.84335">
        <ele>178.317</ele>
        <time>2019-10-04T10:05:45Z</time>
      </trkpt>
      <trkpt lat="46.33338" lon="4.84394">
        <ele>176.867</ele>
        <time>2019-10-04T10:06:15.001Z</time>
      </trkpt>
      <trkpt lat="46.33494" lon="4.84458">
        <ele>179.331</ele>
        <time>2019-10-04T10:06:45.001Z</time>
      </trkpt>
      <trkpt lat="46.33626" lon="4.84545">
        <ele>178.748</ele>
        <time>2019-10-04T10:07:15.001Z</time>
      </trkpt>
      <trkpt lat="46.33585" lon="4.84442">
        <ele>173.772</ele>
        <time>2019-10-04T10:07:45.001Z</time>
      </trkpt>
      <trkpt lat="46.33576" lon="4.84441">
        <ele>175.706</ele>
        <time>2019-10-04T10:15:09.001Z</time>
      </trkpt>
      <trkpt lat="46.33571" lon="4.84434">
        <ele>175.387</ele>
        <time>2019-10-04T10:16:39.001Z</time>
      </trkpt>
      <trkpt lat="46.33576" lon="4.84413">
        <ele>180.29</ele>
        <time>2019-10-04T10:17:24.001Z</time>
      </trkpt>
      <trkpt lat="46.33571" lon="4.84423">
        <ele>179.578</ele>
        <time>2019-10-04T10:21:03.001Z</time>
      </trkpt>
      <trkpt lat="46.33587" lon="4.84391">
        <ele>173.279</ele>
        <time>2019-10-04T10:21:45.001Z</time>
      </trkpt>
      <trkpt lat="46.33578" lon="4.84428">
        <ele>170.922</ele>
        <time>2019-10-04T10:26:54.001Z</time>
      </trkpt>
      <trkpt lat="46.33579" lon="4.84436">
        <ele>173.417</ele>
        <time>2019-10-04T10:29:27.001Z</time>
      </trkpt>
      <trkpt lat="46.33578" lon="4.84424">
        <ele>176.246</ele>
        <time>2019-10-04T10:30:54.001Z</time>
      </trkpt>
      <trkpt lat="46.33578" lon="4.84426">
        <ele>175.347</ele>
        <time>2019-10-04T10:32:27.001Z</time>
      </trkpt>
      <trkpt lat="46.33578" lon="4.84432">
        <ele>178.732</ele>
        <time>2019-10-04T10:37:15.001Z</time>
      </trkpt>
      <trkpt lat="46.33518" lon="4.84422">
        <ele>186.593</ele>
        <time>2019-10-04T10:37:45.001Z</time>
      </trkpt>
      <trkpt lat="46.33397" lon="4.84337">
        <ele>189.225</ele>
        <time>2019-10-04T10:38:15.001Z</time>
      </trkpt>
      <trkpt lat="46.33366" lon="4.8419">
        <ele>184.192</ele>
        <time>2019-10-04T10:38:45.001Z</time>
      </trkpt>
      <trkpt lat="46.33222" lon="4.8412">
        <ele>179.428</ele>
        <time>2019-10-04T10:39:15.001Z</time>
      </trkpt>
      <trkpt lat="46.33149" lon="4.84228">
        <ele>176.566</ele>
        <time>2019-10-04T10:39:45.001Z</time>
      </trkpt>
      <trkpt lat="46.33103" lon="4.84317">
        <ele>174.062</ele>
        <time>2019-10-04T10:40:21.001Z</time>
      </trkpt>
      <trkpt lat="46.32952" lon="4.84334">
        <ele>173.147</ele>
        <time>2019-10-04T10:40:51.001Z</time>
      </trkpt>
      <trkpt lat="46.32808" lon="4.84296">
        <ele>174.143</ele>
        <time>2019-10-04T10:41:21.001Z</time>
      </trkpt>
      <trkpt lat="46.32661" lon="4.84235">
        <ele>176.88</ele>
        <time>2019-10-04T10:41:51.001Z</time>
      </trkpt>
      <trkpt lat="46.32514" lon="4.84183">
        <ele>181.959</ele>
        <time>2019-10-04T10:42:21.001Z</time>
      </trkpt>
      <trkpt lat="46.32407" lon="4.84093">
        <ele>174.261</ele>
        <time>2019-10-04T10:42:51.001Z</time>
      </trkpt>
      <trkpt lat="46.32261" lon="4.84033">
        <ele>170.149</ele>
        <time>2019-10-04T10:43:21.001Z</time>
      </trkpt>
      <trkpt lat="46.32119" lon="4.83974">
        <ele>173.247</ele>
        <time>2019-10-04T10:43:51.001Z</time>
      </trkpt>
      <trkpt lat="46.32001" lon="4.83927">
        <ele>174.145</ele>
        <time>2019-10-04T10:44:21.001Z</time>
      </trkpt>
      <trkpt lat="46.31882" lon="4.83955">
        <ele>172.355</ele>
        <time>2019-10-04T10:44:51.001Z</time>
      </trkpt>
      <trkpt lat="46.3183" lon="4.8415">
        <ele>180.824</ele>
        <time>2019-10-04T10:45:21.001Z</time>
      </trkpt>
      <trkpt lat="46.31724" lon="4.84226">
        <ele>179.796</ele>
        <time>2019-10-04T10:45:51.001Z</time>
      </trkpt>
      <trkpt lat="46.31599" lon="4.84146">
        <ele>171.077</ele>
        <time>2019-10-04T10:46:21.001Z</time>
      </trkpt>
      <trkpt lat="46.31481" lon="4.84076">
        <ele>166.378</ele>
        <time>2019-10-04T10:46:51.001Z</time>
      </trkpt>
      <trkpt lat="46.31373" lon="4.84003">
        <ele>172.534</ele>
        <time>2019-10-04T10:47:21.001Z</time>
      </trkpt>
      <trkpt lat="46.31254" lon="4.83951">
        <ele>173.645</ele>
        <time>2019-10-04T10:47:51.001Z</time>
      </trkpt>
      <trkpt lat="46.31136" lon="4.83861">
        <ele>173.762</ele>
        <time>2019-10-04T10:48:21.001Z</time>
      </trkpt>
      <trkpt lat="46.31003" lon="4.83811">
        <ele>172.529</ele>
        <time>2019-10-04T10:48:51.001Z</time>
      </trkpt>
      <trkpt lat="46.30876" lon="4.83764">
        <ele>172.989</ele>
        <time>2019-10-04T10:49:21.001Z</time>
      </trkpt>
      <trkpt lat="46.30748" lon="4.83708">
        <ele>175.804</ele>
        <time>2019-10-04T10:49:51.001Z</time>
      </trkpt>
      <trkpt lat="46.30611" lon="4.83655">
        <ele>175.425</ele>
        <time>2019-10-04T10:50:24.001Z</time>
      </trkpt>
      <trkpt lat="46.30531" lon="4.83605">
        <ele>180.195</ele>
        <time>2019-10-04T10:50:54.001Z</time>
      </trkpt>
      <trkpt lat="46.30465" lon="4.83525">
        <ele>176.979</ele>
        <time>2019-10-04T10:51:30.001Z</time>
      </trkpt>
      <trkpt lat="46.30339" lon="4.83422">
        <ele>173.188</ele>
        <time>2019-10-04T10:52:00Z</time>
      </trkpt>
      <trkpt lat="46.30227" lon="4.83323">
        <ele>171.123</ele>
        <time>2019-10-04T10:52:30.001Z</time>
      </trkpt>
      <trkpt lat="46.30106" lon="4.83251">
        <ele>171.353</ele>
        <time>2019-10-04T10:53:00Z</time>
      </trkpt>
      <trkpt lat="46.29995" lon="4.83174">
        <ele>176.066</ele>
        <time>2019-10-04T10:53:30.001Z</time>
      </trkpt>
      <trkpt lat="46.29886" lon="4.83108">
        <ele>176.531</ele>
        <time>2019-10-04T10:54:00Z</time>
      </trkpt>
      <trkpt lat="46.29777" lon="4.83045">
        <ele>180.931</ele>
        <time>2019-10-04T10:54:30.001Z</time>
      </trkpt>
      <trkpt lat="46.29746" lon="4.83066">
        <ele>177.812</ele>
        <time>2019-10-04T10:55:42.001Z</time>
      </trkpt>
      <trkpt lat="46.29738" lon="4.83154">
        <ele>179.565</ele>
        <time>2019-10-04T10:56:12.001Z</time>
      </trkpt>
      <trkpt lat="46.29728" lon="4.83291">
        <ele>181.561</ele>
        <time>2019-10-04T10:56:42.001Z</time>
      </trkpt>
      <trkpt lat="46.29665" lon="4.83368">
        <ele>175.252</ele>
        <time>2019-10-04T10:57:12.001Z</time>
      </trkpt>
      <trkpt lat="46.29676" lon="4.83376">
        <ele>174.858</ele>
        <time>2019-10-04T10:58:54.001Z</time>
      </trkpt>
      <trkpt lat="46.29628" lon="4.83454">
        <ele>176.537</ele>
        <time>2019-10-04T10:59:24.001Z</time>
      </trkpt>
      <trkpt lat="46.29516" lon="4.835">
        <ele>178.639</ele>
        <time>2019-10-04T10:59:54.001Z</time>
      </trkpt>
      <trkpt lat="46.2943" lon="4.83564">
        <ele>181.966</ele>
        <time>2019-10-04T11:00:24.001Z</time>
      </trkpt>
      <trkpt lat="46.29333" lon="4.83642">
        <ele>182.958</ele>
        <time>2019-10-04T11:00:54.001Z</time>
      </trkpt>
      <trkpt lat="46.29162" lon="4.83728">
        <ele>178.099</ele>
        <time>2019-10-04T11:01:24.001Z</time>
      </trkpt>
      <trkpt lat="46.29006" lon="4.83539">
        <ele>167.269</ele>
        <time>2019-10-04T11:01:54.001Z</time>
      </trkpt>
      <trkpt lat="46.28946" lon="4.83343">
        <ele>169.222</ele>
        <time>2019-10-04T11:02:24.001Z</time>
      </trkpt>
      <trkpt lat="46.28844" lon="4.83206">
        <ele>168.439</ele>
        <time>2019-10-04T11:02:54.001Z</time>
      </trkpt>
      <trkpt lat="46.28706" lon="4.8315">
        <ele>167.812</ele>
        <time>2019-10-04T11:03:24.001Z</time>
      </trkpt>
      <trkpt lat="46.28576" lon="4.8306">
        <ele>168.36</ele>
        <time>2019-10-04T11:03:54.001Z</time>
      </trkpt>
      <trkpt lat="46.28437" lon="4.83052">
        <ele>171.263</ele>
        <time>2019-10-04T11:04:24.001Z</time>
      </trkpt>
      <trkpt lat="46.28302" lon="4.83007">
        <ele>171.098</ele>
        <time>2019-10-04T11:04:54.001Z</time>
      </trkpt>
      <trkpt lat="46.28166" lon="4.82969">
        <ele>173.36</ele>
        <time>2019-10-04T11:05:24.001Z</time>
      </trkpt>
      <trkpt lat="46.28026" lon="4.82942">
        <ele>172.174</ele>
        <time>2019-10-04T11:05:54.001Z</time>
      </trkpt>
      <trkpt lat="46.27884" lon="4.82912">
        <ele>172.94</ele>
        <time>2019-10-04T11:06:24.001Z</time>
      </trkpt>
      <trkpt lat="46.27752" lon="4.82894">
        <ele>174.591</ele>
        <time>2019-10-04T11:06:54.001Z</time>
      </trkpt>
      <trkpt lat="46.27637" lon="4.82861">
        <ele>172.563</ele>
        <time>2019-10-04T11:07:27.001Z</time>
      </trkpt>
      <trkpt lat="46.27524" lon="4.82796">
        <ele>171.446</ele>
        <time>2019-10-04T11:07:57.001Z</time>
      </trkpt>
      <trkpt lat="46.27412" lon="4.82707">
        <ele>170.083</ele>
        <time>2019-10-04T11:08:27.001Z</time>
      </trkpt>
      <trkpt lat="46.27294" lon="4.8265">
        <ele>169.283</ele>
        <time>2019-10-04T11:08:57.001Z</time>
      </trkpt>
      <trkpt lat="46.27183" lon="4.82561">
        <ele>169.93</ele>
        <time>2019-10-04T11:09:27.001Z</time>
      </trkpt>
      <trkpt lat="46.27075" lon="4.82461">
        <ele>170.577</ele>
        <time>2019-10-04T11:09:57.001Z</time>
      </trkpt>
      <trkpt lat="46.26962" lon="4.82378">
        <ele>169.733</ele>
        <time>2019-10-04T11:10:27.001Z</time>
      </trkpt>
      <trkpt lat="46.2686" lon="4.82283">
        <ele>168.118</ele>
        <time>2019-10-04T11:10:57.001Z</time>
      </trkpt>
      <trkpt lat="46.26825" lon="4.82243">
        <ele>168.932</ele>
        <time>2019-10-04T11:12:27.001Z</time>
      </trkpt>
      <trkpt lat="46.26794" lon="4.82214">
        <ele>169.352</ele>
        <time>2019-10-04T11:13:54.001Z</time>
      </trkpt>
      <trkpt lat="46.26715" lon="4.8212">
        <ele>170.084</ele>
        <time>2019-10-04T11:14:24.001Z</time>
      </trkpt>
      <trkpt lat="46.26658" lon="4.82054">
        <ele>169.444</ele>
        <time>2019-10-04T11:15:51.001Z</time>
      </trkpt>
      <trkpt lat="46.26608" lon="4.81997">
        <ele>168.679</ele>
        <time>2019-10-04T11:16:51.001Z</time>
      </trkpt>
      <trkpt lat="46.26523" lon="4.81884">
        <ele>169.255</ele>
        <time>2019-10-04T11:17:21.001Z</time>
      </trkpt>
      <trkpt lat="46.26443" lon="4.81858">
        <ele>167.569</ele>
        <time>2019-10-04T11:17:51.001Z</time>
      </trkpt>
      <trkpt lat="46.2635" lon="4.81928">
        <ele>170.907</ele>
        <time>2019-10-04T11:18:21.001Z</time>
      </trkpt>
      <trkpt lat="46.26253" lon="4.81861">
        <ele>171.18</ele>
        <time>2019-10-04T11:18:51.001Z</time>
      </trkpt>
      <trkpt lat="46.26205" lon="4.81712">
        <ele>173.592</ele>
        <time>2019-10-04T11:19:21.001Z</time>
      </trkpt>
      <trkpt lat="46.26117" lon="4.8181">
        <ele>179.278</ele>
        <time>2019-10-04T11:19:51.001Z</time>
      </trkpt>
      <trkpt lat="46.26018" lon="4.81913">
        <ele>167.97</ele>
        <time>2019-10-04T11:20:21.001Z</time>
      </trkpt>
      <trkpt lat="46.25972" lon="4.82056">
        <ele>168.839</ele>
        <time>2019-10-04T11:20:51.001Z</time>
      </trkpt>
      <trkpt lat="46.25934" lon="4.82178">
        <ele>172.513</ele>
        <time>2019-10-04T11:21:21.001Z</time>
      </trkpt>
      <trkpt lat="46.25846" lon="4.82217">
        <ele>177.125</ele>
        <time>2019-10-04T11:21:51.001Z</time>
      </trkpt>
      <trkpt lat="46.25728" lon="4.82189">
        <ele>173.683</ele>
        <time>2019-10-04T11:22:21.001Z</time>
      </trkpt>
      <trkpt lat="46.25623" lon="4.82145">
        <ele>173.796</ele>
        <time>2019-10-04T11:22:51.001Z</time>
      </trkpt>
      <trkpt lat="46.2553" lon="4.82114">
        <ele>174.556</ele>
        <time>2019-10-04T11:23:21.001Z</time>
      </trkpt>
      <trkpt lat="46.25476" lon="4.82224">
        <ele>175.479</ele>
        <time>2019-10-04T11:23:51.001Z</time>
      </trkpt>
      <trkpt lat="46.25367" lon="4.82264">
        <ele>175.181</ele>
        <time>2019-10-04T11:24:21.001Z</time>
      </trkpt>
      <trkpt lat="46.25272" lon="4.8225">
        <ele>175.067</ele>
        <time>2019-10-04T11:24:51.001Z</time>
      </trkpt>
      <trkpt lat="46.25164" lon="4.82207">
        <ele>172.62</ele>
        <time>2019-10-04T11:25:21.001Z</time>
      </trkpt>
      <trkpt lat="46.25064" lon="4.82162">
        <ele>171.163</ele>
        <time>2019-10-04T11:25:51.001Z</time>
      </trkpt>
      <trkpt lat="46.24956" lon="4.82118">
        <ele>175.997</ele>
        <time>2019-10-04T11:26:24.001Z</time>
      </trkpt>
      <trkpt lat="46.24889" lon="4.82076">
        <ele>177.605</ele>
        <time>2019-10-04T11:26:54.001Z</time>
      </trkpt>
      <trkpt lat="46.2495" lon="4.81889">
        <ele>170.498</ele>
        <time>2019-10-04T11:27:24.001Z</time>
      </trkpt>
      <trkpt lat="46.25009" lon="4.81719">
        <ele>168.824</ele>
        <time>2019-10-04T11:27:54.001Z</time>
      </trkpt>
      <trkpt lat="46.25052" lon="4.81561">
        <ele>172.302</ele>
        <time>2019-10-04T11:28:24.001Z</time>
      </trkpt>
      <trkpt lat="46.25015" lon="4.81407">
        <ele>174.416</ele>
        <time>2019-10-04T11:28:54.001Z</time>
      </trkpt>
      <trkpt lat="46.24934" lon="4.81378">
        <ele>176.041</ele>
        <time>2019-10-04T11:29:24.001Z</time>
      </trkpt>
      <trkpt lat="46.24812" lon="4.81358">
        <ele>174.045</ele>
        <time>2019-10-04T11:29:54.001Z</time>
      </trkpt>
      <trkpt lat="46.24715" lon="4.81338">
        <ele>174.735</ele>
        <time>2019-10-04T11:30:24.001Z</time>
      </trkpt>
      <trkpt lat="46.24682" lon="4.81332">
        <ele>174.605</ele>
        <time>2019-10-04T11:31:27.001Z</time>
      </trkpt>
      <trkpt lat="46.24583" lon="4.81305">
        <ele>175.434</ele>
        <time>2019-10-04T11:31:57.001Z</time>
      </trkpt>
      <trkpt lat="46.24485" lon="4.81266">
        <ele>172.853</ele>
        <time>2019-10-04T11:32:27.001Z</time>
      </trkpt>
      <trkpt lat="46.24379" lon="4.8123">
        <ele>171.665</ele>
        <time>2019-10-04T11:32:57.001Z</time>
      </trkpt>
      <trkpt lat="46.24271" lon="4.81193">
        <ele>173.948</ele>
        <time>2019-10-04T11:33:27.001Z</time>
      </trkpt>
      <trkpt lat="46.24199" lon="4.81167">
        <ele>174.847</ele>
        <time>2019-10-04T11:34:27.001Z</time>
      </trkpt>
      <trkpt lat="46.24102" lon="4.81116">
        <ele>176.294</ele>
        <time>2019-10-04T11:34:57.001Z</time>
      </trkpt>
      <trkpt lat="46.24007" lon="4.81104">
        <ele>171.14</ele>
        <time>2019-10-04T11:35:27.001Z</time>
      </trkpt>
      <trkpt lat="46.2398" lon="4.81106">
        <ele>172.907</ele>
        <time>2019-10-04T11:45:21.001Z</time>
      </trkpt>
      <trkpt lat="46.23897" lon="4.81087">
        <ele>172.782</ele>
        <time>2019-10-04T11:45:51.001Z</time>
      </trkpt>
      <trkpt lat="46.23785" lon="4.81049">
        <ele>169.597</ele>
        <time>2019-10-04T11:46:21.001Z</time>
      </trkpt>
      <trkpt lat="46.23677" lon="4.80987">
        <ele>171.56</ele>
        <time>2019-10-04T11:46:51.001Z</time>
      </trkpt>
      <trkpt lat="46.2357" lon="4.80911">
        <ele>170.48</ele>
        <time>2019-10-04T11:47:21.001Z</time>
      </trkpt>
      <trkpt lat="46.23524" lon="4.80873">
        <ele>171.268</ele>
        <time>2019-10-04T11:48:06.001Z</time>
      </trkpt>
      <trkpt lat="46.23474" lon="4.80821">
        <ele>169.234</ele>
        <time>2019-10-04T11:48:42.001Z</time>
      </trkpt>
      <trkpt lat="46.23443" lon="4.80795">
        <ele>169.055</ele>
        <time>2019-10-04T11:50:03.001Z</time>
      </trkpt>
      <trkpt lat="46.23357" lon="4.80704">
        <ele>171.832</ele>
        <time>2019-10-04T11:50:33.001Z</time>
      </trkpt>
      <trkpt lat="46.2326" lon="4.80593">
        <ele>172.091</ele>
        <time>2019-10-04T11:51:03.001Z</time>
      </trkpt>
      <trkpt lat="46.23165" lon="4.80477">
        <ele>174.537</ele>
        <time>2019-10-04T11:51:33.001Z</time>
      </trkpt>
      <trkpt lat="46.23065" lon="4.80369">
        <ele>173.028</ele>
        <time>2019-10-04T11:52:03.001Z</time>
      </trkpt>
      <trkpt lat="46.22975" lon="4.80285">
        <ele>171.755</ele>
        <time>2019-10-04T11:52:33.001Z</time>
      </trkpt>
      <trkpt lat="46.22942" lon="4.80264">
        <ele>172.786</ele>
        <time>2019-10-04T11:54:30.001Z</time>
      </trkpt>
      <trkpt lat="46.22844" lon="4.80184">
        <ele>175.408</ele>
        <time>2019-10-04T11:55:03.001Z</time>
      </trkpt>
      <trkpt lat="46.2275" lon="4.80128">
        <ele>172.734</ele>
        <time>2019-10-04T11:55:33.001Z</time>
      </trkpt>
      <trkpt lat="46.22657" lon="4.80076">
        <ele>171.491</ele>
        <time>2019-10-04T11:56:03.001Z</time>
      </trkpt>
      <trkpt lat="46.22552" lon="4.8003">
        <ele>171.224</ele>
        <time>2019-10-04T11:56:33.001Z</time>
      </trkpt>
      <trkpt lat="46.2245" lon="4.79988">
        <ele>174.006</ele>
        <time>2019-10-04T11:57:03.001Z</time>
      </trkpt>
      <trkpt lat="46.22335" lon="4.79932">
        <ele>175.836</ele>
        <time>2019-10-04T11:57:33.001Z</time>
      </trkpt>
      <trkpt lat="46.22228" lon="4.79886">
        <ele>173.938</ele>
        <time>2019-10-04T11:58:03.001Z</time>
      </trkpt>
      <trkpt lat="46.22119" lon="4.79825">
        <ele>172.229</ele>
        <time>2019-10-04T11:58:33.001Z</time>
      </trkpt>
      <trkpt lat="46.22017" lon="4.79758">
        <ele>172.881</ele>
        <time>2019-10-04T11:59:03.001Z</time>
      </trkpt>
      <trkpt lat="46.21911" lon="4.79685">
        <ele>177.234</ele>
        <time>2019-10-04T11:59:33.001Z</time>
      </trkpt>
      <trkpt lat="46.218" lon="4.79627">
        <ele>174.733</ele>
        <time>2019-10-04T12:00:03.001Z</time>
      </trkpt>
      <trkpt lat="46.21689" lon="4.79582">
        <ele>174.486</ele>
        <time>2019-10-04T12:00:33.001Z</time>
      </trkpt>
      <trkpt lat="46.21558" lon="4.79542">
        <ele>170.378</ele>
        <time>2019-10-04T12:01:03.001Z</time>
      </trkpt>
      <trkpt lat="46.21434" lon="4.79505">
        <ele>169.582</ele>
        <time>2019-10-04T12:01:33.001Z</time>
      </trkpt>
      <trkpt lat="46.21312" lon="4.79482">
        <ele>171.979</ele>
        <time>2019-10-04T12:02:03.001Z</time>
      </trkpt>
      <trkpt lat="46.2119" lon="4.79468">
        <ele>171.758</ele>
        <time>2019-10-04T12:02:33.001Z</time>
      </trkpt>
      <trkpt lat="46.21061" lon="4.7946">
        <ele>171.47</ele>
        <time>2019-10-04T12:03:03.001Z</time>
      </trkpt>
      <trkpt lat="46.20935" lon="4.79463">
        <ele>171.308</ele>
        <time>2019-10-04T12:03:33.001Z</time>
      </trkpt>
      <trkpt lat="46.20819" lon="4.79482">
        <ele>171.176</ele>
        <time>2019-10-04T12:04:03.001Z</time>
      </trkpt>
      <trkpt lat="46.20713" lon="4.7949">
        <ele>172.097</ele>
        <time>2019-10-04T12:04:33.001Z</time>
      </trkpt>
      <trkpt lat="46.20634" lon="4.79489">
        <ele>170.686</ele>
        <time>2019-10-04T12:05:03.001Z</time>
      </trkpt>
      <trkpt lat="46.20556" lon="4.79551">
        <ele>173.053</ele>
        <time>2019-10-04T12:05:33.001Z</time>
      </trkpt>
      <trkpt lat="46.20454" lon="4.79579">
        <ele>171.948</ele>
        <time>2019-10-04T12:06:03.001Z</time>
      </trkpt>
      <trkpt lat="46.20363" lon="4.79595">
        <ele>169.074</ele>
        <time>2019-10-04T12:06:33.001Z</time>
      </trkpt>
      <trkpt lat="46.20265" lon="4.79577">
        <ele>169.016</ele>
        <time>2019-10-04T12:07:03.001Z</time>
      </trkpt>
      <trkpt lat="46.20181" lon="4.79509">
        <ele>172.564</ele>
        <time>2019-10-04T12:07:33.001Z</time>
      </trkpt>
      <trkpt lat="46.20089" lon="4.79424">
        <ele>176.108</ele>
        <time>2019-10-04T12:08:03.001Z</time>
      </trkpt>
      <trkpt lat="46.20001" lon="4.79317">
        <ele>172.687</ele>
        <time>2019-10-04T12:08:33.001Z</time>
      </trkpt>
      <trkpt lat="46.19907" lon="4.79204">
        <ele>171.627</ele>
        <time>2019-10-04T12:09:03.001Z</time>
      </trkpt>
      <trkpt lat="46.19808" lon="4.7909">
        <ele>172.106</ele>
        <time>2019-10-04T12:09:33.001Z</time>
      </trkpt>
      <trkpt lat="46.19711" lon="4.79008">
        <ele>173.465</ele>
        <time>2019-10-04T12:10:06.001Z</time>
      </trkpt>
      <trkpt lat="46.19595" lon="4.79132">
        <ele>172.961</ele>
        <time>2019-10-04T12:10:36.001Z</time>
      </trkpt>
      <trkpt lat="46.19495" lon="4.79259">
        <ele>174.937</ele>
        <time>2019-10-04T12:11:06.001Z</time>
      </trkpt>
      <trkpt lat="46.19376" lon="4.79396">
        <ele>169.796</ele>
        <time>2019-10-04T12:11:36.001Z</time>
      </trkpt>
      <trkpt lat="46.1927" lon="4.79526">
        <ele>168.955</ele>
        <time>2019-10-04T12:12:06.001Z</time>
      </trkpt>
      <trkpt lat="46.19162" lon="4.79643">
        <ele>170.098</ele>
        <time>2019-10-04T12:12:36.001Z</time>
      </trkpt>
      <trkpt lat="46.19058" lon="4.79753">
        <ele>174.584</ele>
        <time>2019-10-04T12:13:06.001Z</time>
      </trkpt>
      <trkpt lat="46.18954" lon="4.79876">
        <ele>174.327</ele>
        <time>2019-10-04T12:13:36.001Z</time>
      </trkpt>
      <trkpt lat="46.18847" lon="4.80003">
        <ele>173.715</ele>
        <time>2019-10-04T12:14:06.001Z</time>
      </trkpt>
      <trkpt lat="46.18742" lon="4.80124">
        <ele>172.902</ele>
        <time>2019-10-04T12:14:36.001Z</time>
      </trkpt>
      <trkpt lat="46.18641" lon="4.80244">
        <ele>171.3</ele>
        <time>2019-10-04T12:15:06.001Z</time>
      </trkpt>
      <trkpt lat="46.18544" lon="4.80363">
        <ele>170.54</ele>
        <time>2019-10-04T12:15:36.001Z</time>
      </trkpt>
      <trkpt lat="46.1844" lon="4.80462">
        <ele>171.63</ele>
        <time>2019-10-04T12:16:06.001Z</time>
      </trkpt>
      <trkpt lat="46.18345" lon="4.80332">
        <ele>169.674</ele>
        <time>2019-10-04T12:16:36.001Z</time>
      </trkpt>
      <trkpt lat="46.18204" lon="4.80317">
        <ele>171.481</ele>
        <time>2019-10-04T12:17:06.001Z</time>
      </trkpt>
      <trkpt lat="46.18113" lon="4.80262">
        <ele>173.947</ele>
        <time>2019-10-04T12:17:36.001Z</time>
      </trkpt>
      <trkpt lat="46.18043" lon="4.8026">
        <ele>183.288</ele>
        <time>2019-10-04T12:18:06.001Z</time>
      </trkpt>
      <trkpt lat="46.17959" lon="4.80337">
        <ele>194.139</ele>
        <time>2019-10-04T12:18:36.001Z</time>
      </trkpt>
      <trkpt lat="46.17885" lon="4.80457">
        <ele>192.904</ele>
        <time>2019-10-04T12:19:06.001Z</time>
      </trkpt>
      <trkpt lat="46.17797" lon="4.80513">
        <ele>183.44</ele>
        <time>2019-10-04T12:19:36.001Z</time>
      </trkpt>
      <trkpt lat="46.17683" lon="4.80431">
        <ele>179.083</ele>
        <time>2019-10-04T12:20:06.001Z</time>
      </trkpt>
      <trkpt lat="46.17535" lon="4.80398">
        <ele>175.15</ele>
        <time>2019-10-04T12:20:36.001Z</time>
      </trkpt>
      <trkpt lat="46.17411" lon="4.805">
        <ele>177.819</ele>
        <time>2019-10-04T12:21:06.001Z</time>
      </trkpt>
      <trkpt lat="46.17323" lon="4.80433">
        <ele>185.902</ele>
        <time>2019-10-04T12:21:36.001Z</time>
      </trkpt>
      <trkpt lat="46.17251" lon="4.80296">
        <ele>190.539</ele>
        <time>2019-10-04T12:22:06.001Z</time>
      </trkpt>
      <trkpt lat="46.17224" lon="4.80183">
        <ele>179.078</ele>
        <time>2019-10-04T12:22:36.001Z</time>
      </trkpt>
      <trkpt lat="46.17184" lon="4.80193">
        <ele>180.571</ele>
        <time>2019-10-04T12:28:51.001Z</time>
      </trkpt>
      <trkpt lat="46.17104" lon="4.80156">
        <ele>178.021</ele>
        <time>2019-10-04T12:29:21.001Z</time>
      </trkpt>
      <trkpt lat="46.16999" lon="4.802">
        <ele>180.761</ele>
        <time>2019-10-04T12:29:51.001Z</time>
      </trkpt>
      <trkpt lat="46.16978" lon="4.80337">
        <ele>183.664</ele>
        <time>2019-10-04T12:30:21.001Z</time>
      </trkpt>
      <trkpt lat="46.16932" lon="4.80406">
        <ele>171.102</ele>
        <time>2019-10-04T12:30:51.001Z</time>
      </trkpt>
      <trkpt lat="46.16841" lon="4.80423">
        <ele>168.348</ele>
        <time>2019-10-04T12:31:24.001Z</time>
      </trkpt>
      <trkpt lat="46.16738" lon="4.80429">
        <ele>172.229</ele>
        <time>2019-10-04T12:31:54.001Z</time>
      </trkpt>
      <trkpt lat="46.16621" lon="4.80467">
        <ele>168.656</ele>
        <time>2019-10-04T12:32:24.001Z</time>
      </trkpt>
      <trkpt lat="46.16514" lon="4.80531">
        <ele>167.853</ele>
        <time>2019-10-04T12:32:54.001Z</time>
      </trkpt>
      <trkpt lat="46.16419" lon="4.80596">
        <ele>169.78</ele>
        <time>2019-10-04T12:33:24.001Z</time>
      </trkpt>
      <trkpt lat="46.16315" lon="4.80667">
        <ele>170.697</ele>
        <time>2019-10-04T12:33:54.001Z</time>
      </trkpt>
      <trkpt lat="46.16203" lon="4.80716">
        <ele>170.077</ele>
        <time>2019-10-04T12:34:24.001Z</time>
      </trkpt>
      <trkpt lat="46.16098" lon="4.80733">
        <ele>169.952</ele>
        <time>2019-10-04T12:34:54.001Z</time>
      </trkpt>
      <trkpt lat="46.15995" lon="4.8077">
        <ele>170.655</ele>
        <time>2019-10-04T12:35:24.001Z</time>
      </trkpt>
      <trkpt lat="46.15894" lon="4.80843">
        <ele>167.78</ele>
        <time>2019-10-04T12:35:54.001Z</time>
      </trkpt>
      <trkpt lat="46.15837" lon="4.80873">
        <ele>167.924</ele>
        <time>2019-10-04T12:36:51.001Z</time>
      </trkpt>
      <trkpt lat="46.15821" lon="4.80777">
        <ele>171.409</ele>
        <time>2019-10-04T12:37:24.001Z</time>
      </trkpt>
      <trkpt lat="46.15778" lon="4.80651">
        <ele>170.327</ele>
        <time>2019-10-04T12:37:54.001Z</time>
      </trkpt>
      <trkpt lat="46.15732" lon="4.80532">
        <ele>171.812</ele>
        <time>2019-10-04T12:38:24.001Z</time>
      </trkpt>
      <trkpt lat="46.15669" lon="4.80478">
        <ele>175.843</ele>
        <time>2019-10-04T12:38:54.001Z</time>
      </trkpt>
      <trkpt lat="46.15549" lon="4.80523">
        <ele>176.38</ele>
        <time>2019-10-04T12:39:24.001Z</time>
      </trkpt>
      <trkpt lat="46.15434" lon="4.80529">
        <ele>176.761</ele>
        <time>2019-10-04T12:39:54.001Z</time>
      </trkpt>
      <trkpt lat="46.15317" lon="4.80497">
        <ele>174.561</ele>
        <time>2019-10-04T12:40:24.001Z</time>
      </trkpt>
      <trkpt lat="46.15199" lon="4.80458">
        <ele>171.702</ele>
        <time>2019-10-04T12:40:54.001Z</time>
      </trkpt>
      <trkpt lat="46.15072" lon="4.80416">
        <ele>172.7</ele>
        <time>2019-10-04T12:41:24.001Z</time>
      </trkpt>
      <trkpt lat="46.14946" lon="4.80378">
        <ele>166.412</ele>
        <time>2019-10-04T12:41:54.001Z</time>
      </trkpt>
      <trkpt lat="46.14827" lon="4.80329">
        <ele>165.201</ele>
        <time>2019-10-04T12:42:24.001Z</time>
      </trkpt>
      <trkpt lat="46.14711" lon="4.80281">
        <ele>166.277</ele>
        <time>2019-10-04T12:42:54.001Z</time>
      </trkpt>
      <trkpt lat="46.14591" lon="4.80252">
        <ele>163.886</ele>
        <time>2019-10-04T12:43:24.001Z</time>
      </trkpt>
      <trkpt lat="46.14468" lon="4.80222">
        <ele>166.035</ele>
        <time>2019-10-04T12:43:54.001Z</time>
      </trkpt>
      <trkpt lat="46.1436" lon="4.80184">
        <ele>165.284</ele>
        <time>2019-10-04T12:44:24.001Z</time>
      </trkpt>
      <trkpt lat="46.14238" lon="4.80118">
        <ele>166.772</ele>
        <time>2019-10-04T12:44:54.001Z</time>
      </trkpt>
      <trkpt lat="46.14119" lon="4.80031">
        <ele>165.399</ele>
        <time>2019-10-04T12:45:24.001Z</time>
      </trkpt>
      <trkpt lat="46.1402" lon="4.79922">
        <ele>163.054</ele>
        <time>2019-10-04T12:45:54.001Z</time>
      </trkpt>
      <trkpt lat="46.13918" lon="4.79812">
        <ele>166.286</ele>
        <time>2019-10-04T12:46:24.001Z</time>
      </trkpt>
      <trkpt lat="46.13806" lon="4.79688">
        <ele>171.887</ele>
        <time>2019-10-04T12:46:57.001Z</time>
      </trkpt>
      <trkpt lat="46.13714" lon="4.79588">
        <ele>172.2</ele>
        <time>2019-10-04T12:47:27.001Z</time>
      </trkpt>
      <trkpt lat="46.13621" lon="4.79493">
        <ele>169.339</ele>
        <time>2019-10-04T12:47:57.001Z</time>
      </trkpt>
      <trkpt lat="46.13534" lon="4.79411">
        <ele>168.46</ele>
        <time>2019-10-04T12:48:27.001Z</time>
      </trkpt>
      <trkpt lat="46.13446" lon="4.79328">
        <ele>165.876</ele>
        <time>2019-10-04T12:48:57.001Z</time>
      </trkpt>
      <trkpt lat="46.13359" lon="4.79248">
        <ele>165.768</ele>
        <time>2019-10-04T12:49:27.001Z</time>
      </trkpt>
      <trkpt lat="46.13275" lon="4.79171">
        <ele>164.992</ele>
        <time>2019-10-04T12:49:57.001Z</time>
      </trkpt>
      <trkpt lat="46.1319" lon="4.79074">
        <ele>167.17</ele>
        <time>2019-10-04T12:50:27.001Z</time>
      </trkpt>
      <trkpt lat="46.1311" lon="4.78975">
        <ele>169.231</ele>
        <time>2019-10-04T12:50:57.001Z</time>
      </trkpt>
      <trkpt lat="46.13032" lon="4.78895">
        <ele>166.594</ele>
        <time>2019-10-04T12:51:27.001Z</time>
      </trkpt>
      <trkpt lat="46.12949" lon="4.7881">
        <ele>166.205</ele>
        <time>2019-10-04T12:51:57.001Z</time>
      </trkpt>
      <trkpt lat="46.12869" lon="4.78707">
        <ele>166.44</ele>
        <time>2019-10-04T12:52:27.001Z</time>
      </trkpt>
      <trkpt lat="46.12789" lon="4.78599">
        <ele>166.398</ele>
        <time>2019-10-04T12:52:57.001Z</time>
      </trkpt>
      <trkpt lat="46.12718" lon="4.785">
        <ele>169.729</ele>
        <time>2019-10-04T12:53:27.001Z</time>
      </trkpt>
      <trkpt lat="46.12638" lon="4.78396">
        <ele>171.037</ele>
        <time>2019-10-04T12:53:57.001Z</time>
      </trkpt>
      <trkpt lat="46.12555" lon="4.78286">
        <ele>170.612</ele>
        <time>2019-10-04T12:54:27.001Z</time>
      </trkpt>
      <trkpt lat="46.12474" lon="4.78182">
        <ele>171.258</ele>
        <time>2019-10-04T12:54:57.001Z</time>
      </trkpt>
      <trkpt lat="46.12392" lon="4.78077">
        <ele>171.254</ele>
        <time>2019-10-04T12:55:27.001Z</time>
      </trkpt>
      <trkpt lat="46.12299" lon="4.77972">
        <ele>168.258</ele>
        <time>2019-10-04T12:55:57.001Z</time>
      </trkpt>
      <trkpt lat="46.12222" lon="4.77882">
        <ele>167.197</ele>
        <time>2019-10-04T12:56:27.001Z</time>
      </trkpt>
      <trkpt lat="46.12144" lon="4.77788">
        <ele>164.397</ele>
        <time>2019-10-04T12:56:57.001Z</time>
      </trkpt>
      <trkpt lat="46.12036" lon="4.77682">
        <ele>167.655</ele>
        <time>2019-10-04T12:57:27.001Z</time>
      </trkpt>
      <trkpt lat="46.11916" lon="4.77616">
        <ele>169.604</ele>
        <time>2019-10-04T12:57:57.001Z</time>
      </trkpt>
      <trkpt lat="46.11795" lon="4.77552">
        <ele>169.19</ele>
        <time>2019-10-04T12:58:27.001Z</time>
      </trkpt>
      <trkpt lat="46.11686" lon="4.77476">
        <ele>167.737</ele>
        <time>2019-10-04T12:58:57.001Z</time>
      </trkpt>
      <trkpt lat="46.11578" lon="4.77405">
        <ele>165.862</ele>
        <time>2019-10-04T12:59:27.001Z</time>
      </trkpt>
      <trkpt lat="46.11458" lon="4.7736">
        <ele>165.023</ele>
        <time>2019-10-04T12:59:57.001Z</time>
      </trkpt>
      <trkpt lat="46.11339" lon="4.77334">
        <ele>166.962</ele>
        <time>2019-10-04T13:00:27.001Z</time>
      </trkpt>
      <trkpt lat="46.11222" lon="4.77319">
        <ele>164.075</ele>
        <time>2019-10-04T13:00:57.001Z</time>
      </trkpt>
      <trkpt lat="46.11102" lon="4.77288">
        <ele>168.177</ele>
        <time>2019-10-04T13:01:27.001Z</time>
      </trkpt>
      <trkpt lat="46.11002" lon="4.77227">
        <ele>170.116</ele>
        <time>2019-10-04T13:01:57.001Z</time>
      </trkpt>
      <trkpt lat="46.10903" lon="4.77119">
        <ele>169.271</ele>
        <time>2019-10-04T13:02:30.001Z</time>
      </trkpt>
      <trkpt lat="46.10816" lon="4.76995">
        <ele>167.652</ele>
        <time>2019-10-04T13:03:00Z</time>
      </trkpt>
      <trkpt lat="46.10716" lon="4.76886">
        <ele>166.165</ele>
        <time>2019-10-04T13:03:30.001Z</time>
      </trkpt>
      <trkpt lat="46.10619" lon="4.76788">
        <ele>166.769</ele>
        <time>2019-10-04T13:04:00Z</time>
      </trkpt>
      <trkpt lat="46.10515" lon="4.76687">
        <ele>167.053</ele>
        <time>2019-10-04T13:04:30.001Z</time>
      </trkpt>
      <trkpt lat="46.10414" lon="4.76587">
        <ele>170.908</ele>
        <time>2019-10-04T13:05:00Z</time>
      </trkpt>
      <trkpt lat="46.10306" lon="4.76485">
        <ele>172.207</ele>
        <time>2019-10-04T13:05:30.001Z</time>
      </trkpt>
      <trkpt lat="46.10229" lon="4.76343">
        <ele>165.838</ele>
        <time>2019-10-04T13:06:00Z</time>
      </trkpt>
      <trkpt lat="46.10139" lon="4.76276">
        <ele>166.568</ele>
        <time>2019-10-04T13:06:30.001Z</time>
      </trkpt>
      <trkpt lat="46.10035" lon="4.76175">
        <ele>169.231</ele>
        <time>2019-10-04T13:07:00Z</time>
      </trkpt>
      <trkpt lat="46.09944" lon="4.76068">
        <ele>168.837</ele>
        <time>2019-10-04T13:07:30.001Z</time>
      </trkpt>
      <trkpt lat="46.09857" lon="4.75963">
        <ele>166.53</ele>
        <time>2019-10-04T13:08:00Z</time>
      </trkpt>
      <trkpt lat="46.09761" lon="4.75863">
        <ele>169.427</ele>
        <time>2019-10-04T13:08:30.001Z</time>
      </trkpt>
      <trkpt lat="46.09653" lon="4.75764">
        <ele>167.522</ele>
        <time>2019-10-04T13:09:00Z</time>
      </trkpt>
      <trkpt lat="46.09537" lon="4.75687">
        <ele>171.75</ele>
        <time>2019-10-04T13:09:30.001Z</time>
      </trkpt>
      <trkpt lat="46.0942" lon="4.75623">
        <ele>168.681</ele>
        <time>2019-10-04T13:10:00Z</time>
      </trkpt>
      <trkpt lat="46.09307" lon="4.75563">
        <ele>168.886</ele>
        <time>2019-10-04T13:10:30.001Z</time>
      </trkpt>
      <trkpt lat="46.0919" lon="4.75512">
        <ele>169.159</ele>
        <time>2019-10-04T13:11:00Z</time>
      </trkpt>
      <trkpt lat="46.09066" lon="4.75461">
        <ele>169.971</ele>
        <time>2019-10-04T13:11:30.001Z</time>
      </trkpt>
      <trkpt lat="46.08939" lon="4.7541">
        <ele>171.188</ele>
        <time>2019-10-04T13:12:00Z</time>
      </trkpt>
      <trkpt lat="46.08811" lon="4.75357">
        <ele>173.502</ele>
        <time>2019-10-04T13:12:30.001Z</time>
      </trkpt>
      <trkpt lat="46.08659" lon="4.75312">
        <ele>171.45</ele>
        <time>2019-10-04T13:13:00Z</time>
      </trkpt>
      <trkpt lat="46.08584" lon="4.75299">
        <ele>173.769</ele>
        <time>2019-10-04T13:17:00Z</time>
      </trkpt>
      <trkpt lat="46.08579" lon="4.75298">
        <ele>171.009</ele>
        <time>2019-10-04T13:26:39.001Z</time>
      </trkpt>
      <trkpt lat="46.08579" lon="4.75298">
        <ele>170.382</ele>
        <time>2019-10-04T13:44:48.001Z</time>
      </trkpt>
      <trkpt lat="46.08571" lon="4.75296">
        <ele>169.23</ele>
        <time>2019-10-04T13:52:57.001Z</time>
      </trkpt>
      <trkpt lat="46.08518" lon="4.75297">
        <ele>172.762</ele>
        <time>2019-10-04T13:53:36.001Z</time>
      </trkpt>
      <trkpt lat="46.08399" lon="4.75304">
        <ele>170.269</ele>
        <time>2019-10-04T13:54:06.001Z</time>
      </trkpt>
      <trkpt lat="46.0827" lon="4.75335">
        <ele>173.269</ele>
        <time>2019-10-04T13:54:36.001Z</time>
      </trkpt>
      <trkpt lat="46.08182" lon="4.75465">
        <ele>169.474</ele>
        <time>2019-10-04T13:55:06.001Z</time>
      </trkpt>
      <trkpt lat="46.08082" lon="4.75562">
        <ele>167.092</ele>
        <time>2019-10-04T13:55:39.001Z</time>
      </trkpt>
      <trkpt lat="46.08049" lon="4.75599">
        <ele>176.849</ele>
        <time>2019-10-04T13:56:48.001Z</time>
      </trkpt>
      <trkpt lat="46.07949" lon="4.75709">
        <ele>173.695</ele>
        <time>2019-10-04T13:57:18.001Z</time>
      </trkpt>
      <trkpt lat="46.07841" lon="4.75815">
        <ele>170.749</ele>
        <time>2019-10-04T13:57:48.001Z</time>
      </trkpt>
      <trkpt lat="46.07726" lon="4.75925">
        <ele>169.994</ele>
        <time>2019-10-04T13:58:18.001Z</time>
      </trkpt>
      <trkpt lat="46.07621" lon="4.76001">
        <ele>170.782</ele>
        <time>2019-10-04T13:58:48.001Z</time>
      </trkpt>
      <trkpt lat="46.07515" lon="4.76066">
        <ele>172.111</ele>
        <time>2019-10-04T13:59:18.001Z</time>
      </trkpt>
      <trkpt lat="46.07396" lon="4.76114">
        <ele>169.922</ele>
        <time>2019-10-04T13:59:48.001Z</time>
      </trkpt>
      <trkpt lat="46.07268" lon="4.76156">
        <ele>173.042</ele>
        <time>2019-10-04T14:00:18.001Z</time>
      </trkpt>
      <trkpt lat="46.07166" lon="4.7621">
        <ele>175.455</ele>
        <time>2019-10-04T14:00:48.001Z</time>
      </trkpt>
      <trkpt lat="46.0706" lon="4.76261">
        <ele>170.926</ele>
        <time>2019-10-04T14:01:18.001Z</time>
      </trkpt>
      <trkpt lat="46.06959" lon="4.76314">
        <ele>165.56</ele>
        <time>2019-10-04T14:01:48.001Z</time>
      </trkpt>
      <trkpt lat="46.0685" lon="4.76344">
        <ele>164.956</ele>
        <time>2019-10-04T14:02:18.001Z</time>
      </trkpt>
      <trkpt lat="46.06752" lon="4.76389">
        <ele>165.827</ele>
        <time>2019-10-04T14:02:48.001Z</time>
      </trkpt>
      <trkpt lat="46.06657" lon="4.7638">
        <ele>170.852</ele>
        <time>2019-10-04T14:03:18.001Z</time>
      </trkpt>
      <trkpt lat="46.06537" lon="4.7637">
        <ele>179.84</ele>
        <time>2019-10-04T14:03:48.001Z</time>
      </trkpt>
      <trkpt lat="46.06405" lon="4.76323">
        <ele>176.316</ele>
        <time>2019-10-04T14:04:18.001Z</time>
      </trkpt>
      <trkpt lat="46.06277" lon="4.76264">
        <ele>168.018</ele>
        <time>2019-10-04T14:04:48.001Z</time>
      </trkpt>
      <trkpt lat="46.06168" lon="4.76186">
        <ele>170.318</ele>
        <time>2019-10-04T14:05:18.001Z</time>
      </trkpt>
      <trkpt lat="46.06058" lon="4.76112">
        <ele>177.378</ele>
        <time>2019-10-04T14:05:48.001Z</time>
      </trkpt>
      <trkpt lat="46.05936" lon="4.76143">
        <ele>170.093</ele>
        <time>2019-10-04T14:06:18.001Z</time>
      </trkpt>
      <trkpt lat="46.05837" lon="4.76141">
        <ele>167.74</ele>
        <time>2019-10-04T14:06:48.001Z</time>
      </trkpt>
      <trkpt lat="46.05742" lon="4.76147">
        <ele>167.866</ele>
        <time>2019-10-04T14:07:18.001Z</time>
      </trkpt>
      <trkpt lat="46.05645" lon="4.76169">
        <ele>171.263</ele>
        <time>2019-10-04T14:07:48.001Z</time>
      </trkpt>
      <trkpt lat="46.05537" lon="4.76278">
        <ele>174.761</ele>
        <time>2019-10-04T14:08:18.001Z</time>
      </trkpt>
      <trkpt lat="46.05436" lon="4.76375">
        <ele>179.399</ele>
        <time>2019-10-04T14:08:48.001Z</time>
      </trkpt>
      <trkpt lat="46.05359" lon="4.76272">
        <ele>170.77</ele>
        <time>2019-10-04T14:09:18.001Z</time>
      </trkpt>
      <trkpt lat="46.05321" lon="4.76178">
        <ele>168.294</ele>
        <time>2019-10-04T14:13:33.001Z</time>
      </trkpt>
      <trkpt lat="46.05266" lon="4.76046">
        <ele>166.904</ele>
        <time>2019-10-04T14:14:03.001Z</time>
      </trkpt>
      <trkpt lat="46.05213" lon="4.7592">
        <ele>168.516</ele>
        <time>2019-10-04T14:14:33.001Z</time>
      </trkpt>
      <trkpt lat="46.05153" lon="4.75791">
        <ele>167.039</ele>
        <time>2019-10-04T14:15:03.001Z</time>
      </trkpt>
      <trkpt lat="46.05069" lon="4.75734">
        <ele>167.47</ele>
        <time>2019-10-04T14:15:36.001Z</time>
      </trkpt>
      <trkpt lat="46.04977" lon="4.7566">
        <ele>174.967</ele>
        <time>2019-10-04T14:16:06.001Z</time>
      </trkpt>
      <trkpt lat="46.04868" lon="4.75591">
        <ele>185.157</ele>
        <time>2019-10-04T14:16:36.001Z</time>
      </trkpt>
      <trkpt lat="46.04731" lon="4.75541">
        <ele>179.386</ele>
        <time>2019-10-04T14:17:06.001Z</time>
      </trkpt>
      <trkpt lat="46.04615" lon="4.75443">
        <ele>177.685</ele>
        <time>2019-10-04T14:17:36.001Z</time>
      </trkpt>
      <trkpt lat="46.045" lon="4.75439">
        <ele>180.095</ele>
        <time>2019-10-04T14:18:06.001Z</time>
      </trkpt>
      <trkpt lat="46.04382" lon="4.75489">
        <ele>184.972</ele>
        <time>2019-10-04T14:18:36.001Z</time>
      </trkpt>
      <trkpt lat="46.04266" lon="4.75519">
        <ele>183.613</ele>
        <time>2019-10-04T14:19:06.001Z</time>
      </trkpt>
      <trkpt lat="46.04157" lon="4.7553">
        <ele>184.737</ele>
        <time>2019-10-04T14:19:36.001Z</time>
      </trkpt>
      <trkpt lat="46.04044" lon="4.75537">
        <ele>182.253</ele>
        <time>2019-10-04T14:20:06.001Z</time>
      </trkpt>
      <trkpt lat="46.03932" lon="4.75603">
        <ele>185.804</ele>
        <time>2019-10-04T14:20:36.001Z</time>
      </trkpt>
      <trkpt lat="46.03825" lon="4.75619">
        <ele>187.407</ele>
        <time>2019-10-04T14:21:06.001Z</time>
      </trkpt>
      <trkpt lat="46.0367" lon="4.75606">
        <ele>187.192</ele>
        <time>2019-10-04T14:21:36.001Z</time>
      </trkpt>
      <trkpt lat="46.03501" lon="4.75606">
        <ele>186.627</ele>
        <time>2019-10-04T14:22:06.001Z</time>
      </trkpt>
      <trkpt lat="46.03322" lon="4.75626">
        <ele>185.03</ele>
        <time>2019-10-04T14:22:36.001Z</time>
      </trkpt>
      <trkpt lat="46.03146" lon="4.75543">
        <ele>186.59</ele>
        <time>2019-10-04T14:23:06.001Z</time>
      </trkpt>
      <trkpt lat="46.02963" lon="4.7544">
        <ele>182</ele>
        <time>2019-10-04T14:23:36.001Z</time>
      </trkpt>
      <trkpt lat="46.02727" lon="4.75326">
        <ele>173.595</ele>
        <time>2019-10-04T14:24:06.001Z</time>
      </trkpt>
      <trkpt lat="46.02561" lon="4.7528">
        <ele>177.702</ele>
        <time>2019-10-04T14:24:36.001Z</time>
      </trkpt>
      <trkpt lat="46.0239" lon="4.75271">
        <ele>177.67</ele>
        <time>2019-10-04T14:25:06.001Z</time>
      </trkpt>
      <trkpt lat="46.02251" lon="4.75287">
        <ele>184.376</ele>
        <time>2019-10-04T14:25:36.001Z</time>
      </trkpt>
      <trkpt lat="46.02094" lon="4.75328">
        <ele>184.698</ele>
        <time>2019-10-04T14:26:06.001Z</time>
      </trkpt>
      <trkpt lat="46.01861" lon="4.75342">
        <ele>176.686</ele>
        <time>2019-10-04T14:26:36.001Z</time>
      </trkpt>
      <trkpt lat="46.01663" lon="4.75346">
        <ele>175.124</ele>
        <time>2019-10-04T14:27:06.001Z</time>
      </trkpt>
      <trkpt lat="46.01488" lon="4.7531">
        <ele>174.532</ele>
        <time>2019-10-04T14:27:36.001Z</time>
      </trkpt>
      <trkpt lat="46.01325" lon="4.75268">
        <ele>173.428</ele>
        <time>2019-10-04T14:28:06.001Z</time>
      </trkpt>
      <trkpt lat="46.01165" lon="4.75216">
        <ele>172.927</ele>
        <time>2019-10-04T14:28:36.001Z</time>
      </trkpt>
      <trkpt lat="46.0099" lon="4.75163">
        <ele>177.071</ele>
        <time>2019-10-04T14:29:06.001Z</time>
      </trkpt>
      <trkpt lat="46.00816" lon="4.75114">
        <ele>184.45</ele>
        <time>2019-10-04T14:29:36.001Z</time>
      </trkpt>
      <trkpt lat="46.00621" lon="4.75084">
        <ele>185.75</ele>
        <time>2019-10-04T14:30:06.001Z</time>
      </trkpt>
      <trkpt lat="46.00426" lon="4.75089">
        <ele>179.149</ele>
        <time>2019-10-04T14:30:39.001Z</time>
      </trkpt>
      <trkpt lat="46.00271" lon="4.7511">
        <ele>184.561</ele>
        <time>2019-10-04T14:31:09.001Z</time>
      </trkpt>
      <trkpt lat="46.00099" lon="4.75111">
        <ele>191.081</ele>
        <time>2019-10-04T14:31:39.001Z</time>
      </trkpt>
      <trkpt lat="45.99916" lon="4.75105">
        <ele>185.25</ele>
        <time>2019-10-04T14:32:09.001Z</time>
      </trkpt>
      <trkpt lat="45.99857" lon="4.7511">
        <ele>179.197</ele>
        <time>2019-10-04T14:33:39.001Z</time>
      </trkpt>
      <trkpt lat="45.99723" lon="4.75147">
        <ele>176.341</ele>
        <time>2019-10-04T14:34:09.001Z</time>
      </trkpt>
      <trkpt lat="45.9961" lon="4.75143">
        <ele>172.78</ele>
        <time>2019-10-04T14:34:39.001Z</time>
      </trkpt>
      <trkpt lat="45.99521" lon="4.75195">
        <ele>174.588</ele>
        <time>2019-10-04T14:35:09.001Z</time>
      </trkpt>
      <trkpt lat="45.99407" lon="4.75224">
        <ele>177.763</ele>
        <time>2019-10-04T14:35:39.001Z</time>
      </trkpt>
      <trkpt lat="45.99283" lon="4.75222">
        <ele>178.091</ele>
        <time>2019-10-04T14:36:09.001Z</time>
      </trkpt>
      <trkpt lat="45.99149" lon="4.752">
        <ele>177.275</ele>
        <time>2019-10-04T14:36:39.001Z</time>
      </trkpt>
      <trkpt lat="45.99016" lon="4.75191">
        <ele>178.051</ele>
        <time>2019-10-04T14:37:09.001Z</time>
      </trkpt>
      <trkpt lat="45.98895" lon="4.75209">
        <ele>185.215</ele>
        <time>2019-10-04T14:37:39.001Z</time>
      </trkpt>
      <trkpt lat="45.98761" lon="4.75217">
        <ele>176.257</ele>
        <time>2019-10-04T14:38:09.001Z</time>
      </trkpt>
      <trkpt lat="45.98721" lon="4.75209">
        <ele>172.377</ele>
        <time>2019-10-04T14:38:45.001Z</time>
      </trkpt>
      <trkpt lat="45.98714" lon="4.75215">
        <ele>172.855</ele>
        <time>2019-10-04T14:39:45.001Z</time>
      </trkpt>
      <trkpt lat="45.98702" lon="4.75275">
        <ele>176.473</ele>
        <time>2019-10-04T14:40:45.001Z</time>
      </trkpt>
      <trkpt lat="45.98687" lon="4.75404">
        <ele>182.507</ele>
        <time>2019-10-04T14:41:15.001Z</time>
      </trkpt>
      <trkpt lat="45.9857" lon="4.75438">
        <ele>184.65</ele>
        <time>2019-10-04T14:41:45.001Z</time>
      </trkpt>
      <trkpt lat="45.98534" lon="4.7533">
        <ele>187.018</ele>
        <time>2019-10-04T14:42:15.001Z</time>
      </trkpt>
      <trkpt lat="45.98395" lon="4.75303">
        <ele>176.613</ele>
        <time>2019-10-04T14:42:45.001Z</time>
      </trkpt>
      <trkpt lat="45.98221" lon="4.75319">
        <ele>174.841</ele>
        <time>2019-10-04T14:43:15.001Z</time>
      </trkpt>
      <trkpt lat="45.98047" lon="4.75397">
        <ele>173.274</ele>
        <time>2019-10-04T14:43:45.001Z</time>
      </trkpt>
      <trkpt lat="45.97884" lon="4.7549">
        <ele>169.481</ele>
        <time>2019-10-04T14:44:15.001Z</time>
      </trkpt>
      <trkpt lat="45.97723" lon="4.75587">
        <ele>168.979</ele>
        <time>2019-10-04T14:44:45.001Z</time>
      </trkpt>
      <trkpt lat="45.97564" lon="4.7566">
        <ele>170.062</ele>
        <time>2019-10-04T14:45:15.001Z</time>
      </trkpt>
      <trkpt lat="45.97404" lon="4.75677">
        <ele>170.053</ele>
        <time>2019-10-04T14:45:45.001Z</time>
      </trkpt>
      <trkpt lat="45.97234" lon="4.75658">
        <ele>169.682</ele>
        <time>2019-10-04T14:46:15.001Z</time>
      </trkpt>
      <trkpt lat="45.97072" lon="4.75582">
        <ele>168.47</ele>
        <time>2019-10-04T14:46:45.001Z</time>
      </trkpt>
      <trkpt lat="45.96921" lon="4.75526">
        <ele>169.359</ele>
        <time>2019-10-04T14:47:15.001Z</time>
      </trkpt>
      <trkpt lat="45.96757" lon="4.7546">
        <ele>168.697</ele>
        <time>2019-10-04T14:47:45.001Z</time>
      </trkpt>
      <trkpt lat="45.966" lon="4.75379">
        <ele>175.599</ele>
        <time>2019-10-04T14:48:18.001Z</time>
      </trkpt>
      <trkpt lat="45.96477" lon="4.75296">
        <ele>183.999</ele>
        <time>2019-10-04T14:48:48.001Z</time>
      </trkpt>
      <trkpt lat="45.9633" lon="4.75224">
        <ele>193.058</ele>
        <time>2019-10-04T14:49:18.001Z</time>
      </trkpt>
      <trkpt lat="45.96208" lon="4.75167">
        <ele>195.177</ele>
        <time>2019-10-04T14:49:48.001Z</time>
      </trkpt>
      <trkpt lat="45.961" lon="4.75067">
        <ele>196.972</ele>
        <time>2019-10-04T14:50:18.001Z</time>
      </trkpt>
      <trkpt lat="45.95989" lon="4.75067">
        <ele>198.4</ele>
        <time>2019-10-04T14:50:48.001Z</time>
      </trkpt>
      <trkpt lat="45.95879" lon="4.75118">
        <ele>196.237</ele>
        <time>2019-10-04T14:51:18.001Z</time>
      </trkpt>
      <trkpt lat="45.95822" lon="4.75187">
        <ele>193.826</ele>
        <time>2019-10-04T14:54:33.001Z</time>
      </trkpt>
      <trkpt lat="45.9573" lon="4.75304">
        <ele>194.759</ele>
        <time>2019-10-04T14:55:03.001Z</time>
      </trkpt>
      <trkpt lat="45.95567" lon="4.7544">
        <ele>192.415</ele>
        <time>2019-10-04T14:55:33.001Z</time>
      </trkpt>
      <trkpt lat="45.95327" lon="4.75611">
        <ele>175.603</ele>
        <time>2019-10-04T14:56:03.001Z</time>
      </trkpt>
      <trkpt lat="45.95171" lon="4.75808">
        <ele>177.452</ele>
        <time>2019-10-04T14:56:33.001Z</time>
      </trkpt>
      <trkpt lat="45.95042" lon="4.75842">
        <ele>187.356</ele>
        <time>2019-10-04T14:57:03.001Z</time>
      </trkpt>
      <trkpt lat="45.94944" lon="4.75829">
        <ele>192.296</ele>
        <time>2019-10-04T14:57:33.001Z</time>
      </trkpt>
      <trkpt lat="45.94855" lon="4.75809">
        <ele>197.378</ele>
        <time>2019-10-04T14:58:03.001Z</time>
      </trkpt>
      <trkpt lat="45.94726" lon="4.75865">
        <ele>194.646</ele>
        <time>2019-10-04T14:58:33.001Z</time>
      </trkpt>
      <trkpt lat="45.94556" lon="4.75987">
        <ele>195.181</ele>
        <time>2019-10-04T14:59:03.001Z</time>
      </trkpt>
      <trkpt lat="45.94388" lon="4.76135">
        <ele>188.583</ele>
        <time>2019-10-04T14:59:33.001Z</time>
      </trkpt>
      <trkpt lat="45.94221" lon="4.76291">
        <ele>184.564</ele>
        <time>2019-10-04T15:00:03.001Z</time>
      </trkpt>
      <trkpt lat="45.94162" lon="4.76567">
        <ele>184.682</ele>
        <time>2019-10-04T15:00:33.001Z</time>
      </trkpt>
      <trkpt lat="45.94092" lon="4.76899">
        <ele>187.663</ele>
        <time>2019-10-04T15:01:03.001Z</time>
      </trkpt>
      <trkpt lat="45.94029" lon="4.77157">
        <ele>180.736</ele>
        <time>2019-10-04T15:01:33.001Z</time>
      </trkpt>
      <trkpt lat="45.94012" lon="4.77277">
        <ele>178.592</ele>
        <time>2019-10-04T15:02:24.001Z</time>
      </trkpt>
      <trkpt lat="45.94017" lon="4.77233">
        <ele>180.53</ele>
        <time>2019-10-04T15:03:09.001Z</time>
      </trkpt>
      <trkpt lat="45.94013" lon="4.77252">
        <ele>178.758</ele>
        <time>2019-10-04T15:04:15.001Z</time>
      </trkpt>
      <trkpt lat="45.93968" lon="4.77248">
        <ele>182.904</ele>
        <time>2019-10-04T15:05:15.001Z</time>
      </trkpt>
      <trkpt lat="45.93931" lon="4.7724">
        <ele>182.628</ele>
        <time>2019-10-04T15:06:03.001Z</time>
      </trkpt>
      <trkpt lat="45.93862" lon="4.7722">
        <ele>178.317</ele>
        <time>2019-10-04T15:09:48.001Z</time>
      </trkpt>
      <trkpt lat="45.93775" lon="4.77269">
        <ele>174.682</ele>
        <time>2019-10-04T15:10:18.001Z</time>
      </trkpt>
      <trkpt lat="45.93676" lon="4.77435">
        <ele>172.526</ele>
        <time>2019-10-04T15:10:48.001Z</time>
      </trkpt>
      <trkpt lat="45.93549" lon="4.77446">
        <ele>171.483</ele>
        <time>2019-10-04T15:11:18.001Z</time>
      </trkpt>
      <trkpt lat="45.93371" lon="4.77497">
        <ele>169.564</ele>
        <time>2019-10-04T15:11:51.001Z</time>
      </trkpt>
      <trkpt lat="45.93208" lon="4.77514">
        <ele>168.476</ele>
        <time>2019-10-04T15:12:21.001Z</time>
      </trkpt>
      <trkpt lat="45.93067" lon="4.77525">
        <ele>167.294</ele>
        <time>2019-10-04T15:12:51.001Z</time>
      </trkpt>
      <trkpt lat="45.92934" lon="4.77571">
        <ele>173.565</ele>
        <time>2019-10-04T15:13:21.001Z</time>
      </trkpt>
      <trkpt lat="45.92793" lon="4.77601">
        <ele>180.566</ele>
        <time>2019-10-04T15:13:51.001Z</time>
      </trkpt>
      <trkpt lat="45.92621" lon="4.77614">
        <ele>170.99</ele>
        <time>2019-10-04T15:14:21.001Z</time>
      </trkpt>
      <trkpt lat="45.92451" lon="4.77586">
        <ele>167.273</ele>
        <time>2019-10-04T15:14:51.001Z</time>
      </trkpt>
      <trkpt lat="45.92286" lon="4.77547">
        <ele>167.542</ele>
        <time>2019-10-04T15:15:21.001Z</time>
      </trkpt>
      <trkpt lat="45.92113" lon="4.7757">
        <ele>167.714</ele>
        <time>2019-10-04T15:15:51.001Z</time>
      </trkpt>
      <trkpt lat="45.91984" lon="4.77583">
        <ele>169.749</ele>
        <time>2019-10-04T15:16:21.001Z</time>
      </trkpt>
      <trkpt lat="45.919" lon="4.77552">
        <ele>176.883</ele>
        <time>2019-10-04T15:16:51.001Z</time>
      </trkpt>
      <trkpt lat="45.91751" lon="4.77481">
        <ele>173.202</ele>
        <time>2019-10-04T15:17:21.001Z</time>
      </trkpt>
      <trkpt lat="45.9167" lon="4.776">
        <ele>171.478</ele>
        <time>2019-10-04T15:17:51.001Z</time>
      </trkpt>
      <trkpt lat="45.91612" lon="4.77832">
        <ele>171.173</ele>
        <time>2019-10-04T15:18:22.001Z</time>
      </trkpt>
      <trkpt lat="45.91523" lon="4.78019">
        <ele>167.021</ele>
        <time>2019-10-04T15:18:52.001Z</time>
      </trkpt>
      <trkpt lat="45.9144" lon="4.78201">
        <ele>168.341</ele>
        <time>2019-10-04T15:19:22.001Z</time>
      </trkpt>
      <trkpt lat="45.91361" lon="4.78374">
        <ele>172.35</ele>
        <time>2019-10-04T15:19:52.001Z</time>
      </trkpt>
      <trkpt lat="45.91285" lon="4.78533">
        <ele>175.028</ele>
        <time>2019-10-04T15:20:22.001Z</time>
      </trkpt>
      <trkpt lat="45.912" lon="4.7872">
        <ele>176.777</ele>
        <time>2019-10-04T15:20:52.001Z</time>
      </trkpt>
      <trkpt lat="45.91096" lon="4.78912">
        <ele>175.528</ele>
        <time>2019-10-04T15:21:22.001Z</time>
      </trkpt>
      <trkpt lat="45.91002" lon="4.79081">
        <ele>176.392</ele>
        <time>2019-10-04T15:21:52.001Z</time>
      </trkpt>
      <trkpt lat="45.90908" lon="4.79259">
        <ele>178.09</ele>
        <time>2019-10-04T15:22:22.001Z</time>
      </trkpt>
      <trkpt lat="45.90778" lon="4.79421">
        <ele>176.932</ele>
        <time>2019-10-04T15:22:52.001Z</time>
      </trkpt>
      <trkpt lat="45.90614" lon="4.79519">
        <ele>171.914</ele>
        <time>2019-10-04T15:23:22.001Z</time>
      </trkpt>
      <trkpt lat="45.90459" lon="4.79644">
        <ele>170.151</ele>
        <time>2019-10-04T15:23:52.001Z</time>
      </trkpt>
      <trkpt lat="45.90328" lon="4.79812">
        <ele>170.63</ele>
        <time>2019-10-04T15:24:22.001Z</time>
      </trkpt>
      <trkpt lat="45.90175" lon="4.79939">
        <ele>171.006</ele>
        <time>2019-10-04T15:24:52.001Z</time>
      </trkpt>
      <trkpt lat="45.89996" lon="4.80016">
        <ele>171.435</ele>
        <time>2019-10-04T15:25:22.001Z</time>
      </trkpt>
      <trkpt lat="45.8982" lon="4.80091">
        <ele>166.187</ele>
        <time>2019-10-04T15:25:52.001Z</time>
      </trkpt>
      <trkpt lat="45.89662" lon="4.80163">
        <ele>170.354</ele>
        <time>2019-10-04T15:26:22.001Z</time>
      </trkpt>
      <trkpt lat="45.89478" lon="4.80242">
        <ele>173.17</ele>
        <time>2019-10-04T15:26:55.001Z</time>
      </trkpt>
      <trkpt lat="45.89326" lon="4.8034">
        <ele>175.648</ele>
        <time>2019-10-04T15:27:25.001Z</time>
      </trkpt>
      <trkpt lat="45.89186" lon="4.80468">
        <ele>177.897</ele>
        <time>2019-10-04T15:27:55.001Z</time>
      </trkpt>
      <trkpt lat="45.89025" lon="4.80544">
        <ele>169.933</ele>
        <time>2019-10-04T15:28:25.001Z</time>
      </trkpt>
      <trkpt lat="45.88874" lon="4.80621">
        <ele>173.347</ele>
        <time>2019-10-04T15:28:55.001Z</time>
      </trkpt>
      <trkpt lat="45.88728" lon="4.80768">
        <ele>175.057</ele>
        <time>2019-10-04T15:29:25.001Z</time>
      </trkpt>
      <trkpt lat="45.88643" lon="4.80855">
        <ele>172.434</ele>
        <time>2019-10-04T15:29:58.001Z</time>
      </trkpt>
      <trkpt lat="45.88694" lon="4.80789">
        <ele>173.843</ele>
        <time>2019-10-04T15:30:37.001Z</time>
      </trkpt>
      <trkpt lat="45.88696" lon="4.80785">
        <ele>172.131</ele>
        <time>2019-10-04T15:41:20.001Z</time>
      </trkpt>
      <trkpt lat="45.88606" lon="4.80897">
        <ele>170.632</ele>
        <time>2019-10-04T15:41:50.001Z</time>
      </trkpt>
      <trkpt lat="45.88491" lon="4.8104">
        <ele>170.485</ele>
        <time>2019-10-04T15:42:20.001Z</time>
      </trkpt>
      <trkpt lat="45.8839" lon="4.81197">
        <ele>170.915</ele>
        <time>2019-10-04T15:42:50.001Z</time>
      </trkpt>
      <trkpt lat="45.88299" lon="4.81377">
        <ele>177.441</ele>
        <time>2019-10-04T15:43:20.001Z</time>
      </trkpt>
      <trkpt lat="45.88213" lon="4.81571">
        <ele>181.334</ele>
        <time>2019-10-04T15:43:50.001Z</time>
      </trkpt>
      <trkpt lat="45.88131" lon="4.81764">
        <ele>177.964</ele>
        <time>2019-10-04T15:44:20.001Z</time>
      </trkpt>
      <trkpt lat="45.8805" lon="4.81983">
        <ele>176.708</ele>
        <time>2019-10-04T15:44:50.001Z</time>
      </trkpt>
      <trkpt lat="45.87961" lon="4.82184">
        <ele>171.408</ele>
        <time>2019-10-04T15:45:20.001Z</time>
      </trkpt>
      <trkpt lat="45.87927" lon="4.82444">
        <ele>165.272</ele>
        <time>2019-10-04T15:45:50.001Z</time>
      </trkpt>
      <trkpt lat="45.87876" lon="4.8269">
        <ele>167.877</ele>
        <time>2019-10-04T15:46:20.001Z</time>
      </trkpt>
      <trkpt lat="45.87886" lon="4.82941">
        <ele>163.025</ele>
        <time>2019-10-04T15:46:50.001Z</time>
      </trkpt>
      <trkpt lat="45.87858" lon="4.83181">
        <ele>163.4</ele>
        <time>2019-10-04T15:47:20.001Z</time>
      </trkpt>
      <trkpt lat="45.87818" lon="4.83336">
        <ele>169.665</ele>
        <time>2019-10-04T15:47:50.001Z</time>
      </trkpt>
      <trkpt lat="45.87756" lon="4.83469">
        <ele>171.817</ele>
        <time>2019-10-04T15:48:20.001Z</time>
      </trkpt>
      <trkpt lat="45.87674" lon="4.8356">
        <ele>170.63</ele>
        <time>2019-10-04T15:48:50.001Z</time>
      </trkpt>
      <trkpt lat="45.87686" lon="4.837">
        <ele>173.196</ele>
        <time>2019-10-04T15:49:23.001Z</time>
      </trkpt>
      <trkpt lat="45.8766" lon="4.83836">
        <ele>167.148</ele>
        <time>2019-10-04T15:49:56.001Z</time>
      </trkpt>
      <trkpt lat="45.87551" lon="4.83867">
        <ele>170.971</ele>
        <time>2019-10-04T15:50:26.001Z</time>
      </trkpt>
      <trkpt lat="45.87392" lon="4.83909">
        <ele>171.94</ele>
        <time>2019-10-04T15:50:56.001Z</time>
      </trkpt>
      <trkpt lat="45.87218" lon="4.83953">
        <ele>176.383</ele>
        <time>2019-10-04T15:51:26.001Z</time>
      </trkpt>
      <trkpt lat="45.87052" lon="4.8398">
        <ele>178.633</ele>
        <time>2019-10-04T15:51:56.001Z</time>
      </trkpt>
      <trkpt lat="45.86872" lon="4.83972">
        <ele>173.139</ele>
        <time>2019-10-04T15:52:26.001Z</time>
      </trkpt>
      <trkpt lat="45.86694" lon="4.83954">
        <ele>167.957</ele>
        <time>2019-10-04T15:52:59.001Z</time>
      </trkpt>
      <trkpt lat="45.86537" lon="4.83973">
        <ele>169.692</ele>
        <time>2019-10-04T15:53:29.001Z</time>
      </trkpt>
      <trkpt lat="45.86374" lon="4.84024">
        <ele>172.041</ele>
        <time>2019-10-04T15:53:59.001Z</time>
      </trkpt>
      <trkpt lat="45.86214" lon="4.84064">
        <ele>168.503</ele>
        <time>2019-10-04T15:54:29.001Z</time>
      </trkpt>
      <trkpt lat="45.86046" lon="4.84105">
        <ele>168.945</ele>
        <time>2019-10-04T15:54:59.001Z</time>
      </trkpt>
      <trkpt lat="45.85873" lon="4.84123">
        <ele>168.643</ele>
        <time>2019-10-04T15:55:29.001Z</time>
      </trkpt>
      <trkpt lat="45.85709" lon="4.84046">
        <ele>167.16</ele>
        <time>2019-10-04T15:55:59.001Z</time>
      </trkpt>
      <trkpt lat="45.85547" lon="4.83966">
        <ele>166.67</ele>
        <time>2019-10-04T15:56:29.001Z</time>
      </trkpt>
      <trkpt lat="45.85382" lon="4.83885">
        <ele>166.341</ele>
        <time>2019-10-04T15:56:59.001Z</time>
      </trkpt>
      <trkpt lat="45.85228" lon="4.83824">
        <ele>168.881</ele>
        <time>2019-10-04T15:57:29.001Z</time>
      </trkpt>
      <trkpt lat="45.85062" lon="4.83778">
        <ele>171.108</ele>
        <time>2019-10-04T15:57:59.001Z</time>
      </trkpt>
      <trkpt lat="45.84912" lon="4.83714">
        <ele>169.527</ele>
        <time>2019-10-04T15:58:29.001Z</time>
      </trkpt>
      <trkpt lat="45.84749" lon="4.83631">
        <ele>168.774</ele>
        <time>2019-10-04T15:58:59.001Z</time>
      </trkpt>
      <trkpt lat="45.84592" lon="4.8355">
        <ele>168.371</ele>
        <time>2019-10-04T15:59:29.001Z</time>
      </trkpt>
      <trkpt lat="45.84483" lon="4.83502">
        <ele>164.858</ele>
        <time>2019-10-04T15:59:59.001Z</time>
      </trkpt>
      <trkpt lat="45.84348" lon="4.83449">
        <ele>166.198</ele>
        <time>2019-10-04T16:00:29.001Z</time>
      </trkpt>
      <trkpt lat="45.84199" lon="4.83389">
        <ele>167.309</ele>
        <time>2019-10-04T16:00:59.001Z</time>
      </trkpt>
      <trkpt lat="45.84042" lon="4.83376">
        <ele>169.723</ele>
        <time>2019-10-04T16:01:29.001Z</time>
      </trkpt>
      <trkpt lat="45.8397" lon="4.83395">
        <ele>173.77</ele>
        <time>2019-10-04T16:02:35.001Z</time>
      </trkpt>
      <trkpt lat="45.83863" lon="4.83455">
        <ele>174.156</ele>
        <time>2019-10-04T16:03:05.001Z</time>
      </trkpt>
      <trkpt lat="45.83739" lon="4.83596">
        <ele>177.102</ele>
        <time>2019-10-04T16:03:35.001Z</time>
      </trkpt>
      <trkpt lat="45.83619" lon="4.83779">
        <ele>177.31</ele>
        <time>2019-10-04T16:04:05.001Z</time>
      </trkpt>
      <trkpt lat="45.83532" lon="4.83929">
        <ele>176.355</ele>
        <time>2019-10-04T16:04:35.001Z</time>
      </trkpt>
      <trkpt lat="45.83452" lon="4.84128">
        <ele>170.911</ele>
        <time>2019-10-04T16:05:05.001Z</time>
      </trkpt>
      <trkpt lat="45.83384" lon="4.84348">
        <ele>170.545</ele>
        <time>2019-10-04T16:05:35.001Z</time>
      </trkpt>
      <trkpt lat="45.83326" lon="4.84557">
        <ele>168.547</ele>
        <time>2019-10-04T16:06:05.001Z</time>
      </trkpt>
      <trkpt lat="45.83268" lon="4.84764">
        <ele>165.701</ele>
        <time>2019-10-04T16:06:35.001Z</time>
      </trkpt>
      <trkpt lat="45.83186" lon="4.84962">
        <ele>165.09</ele>
        <time>2019-10-04T16:07:05.001Z</time>
      </trkpt>
      <trkpt lat="45.83138" lon="4.85046">
        <ele>164.558</ele>
        <time>2019-10-04T16:09:29.001Z</time>
      </trkpt>
      <trkpt lat="45.83169" lon="4.85092">
        <ele>161.865</ele>
        <time>2019-10-04T16:10:26.001Z</time>
      </trkpt>
      <trkpt lat="45.83187" lon="4.85262">
        <ele>164.255</ele>
        <time>2019-10-04T16:10:59.001Z</time>
      </trkpt>
      <trkpt lat="45.83163" lon="4.85393">
        <ele>173.767</ele>
        <time>2019-10-04T16:11:29.001Z</time>
      </trkpt>
      <trkpt lat="45.8313" lon="4.85482">
        <ele>184.375</ele>
        <time>2019-10-04T16:11:59.001Z</time>
      </trkpt>
      <trkpt lat="45.83089" lon="4.85555">
        <ele>195.836</ele>
        <time>2019-10-04T16:12:29.001Z</time>
      </trkpt>
      <trkpt lat="45.83048" lon="4.85629">
        <ele>201.022</ele>
        <time>2019-10-04T16:12:59.001Z</time>
      </trkpt>
      <trkpt lat="45.83006" lon="4.857">
        <ele>206.055</ele>
        <time>2019-10-04T16:13:32.001Z</time>
      </trkpt>
      <trkpt lat="45.82963" lon="4.85766">
        <ele>210.311</ele>
        <time>2019-10-04T16:14:02Z</time>
      </trkpt>
      <trkpt lat="45.82916" lon="4.85815">
        <ele>210.307</ele>
        <time>2019-10-04T16:14:32.001Z</time>
      </trkpt>
      <trkpt lat="45.82869" lon="4.85862">
        <ele>211.639</ele>
        <time>2019-10-04T16:15:02Z</time>
      </trkpt>
      <trkpt lat="45.82815" lon="4.85912">
        <ele>214.241</ele>
        <time>2019-10-04T16:15:32.001Z</time>
      </trkpt>
      <trkpt lat="45.82763" lon="4.85951">
        <ele>220.481</ele>
        <time>2019-10-04T16:16:02Z</time>
      </trkpt>
      <trkpt lat="45.82708" lon="4.85981">
        <ele>228.257</ele>
        <time>2019-10-04T16:16:32.001Z</time>
      </trkpt>
      <trkpt lat="45.82653" lon="4.8601">
        <ele>233.129</ele>
        <time>2019-10-04T16:17:02Z</time>
      </trkpt>
      <trkpt lat="45.82595" lon="4.86044">
        <ele>237.373</ele>
        <time>2019-10-04T16:17:32.001Z</time>
      </trkpt>
      <trkpt lat="45.82531" lon="4.8607">
        <ele>243.244</ele>
        <time>2019-10-04T16:18:02Z</time>
      </trkpt>
      <trkpt lat="45.8247" lon="4.86087">
        <ele>250.458</ele>
        <time>2019-10-04T16:18:32.001Z</time>
      </trkpt>
      <trkpt lat="45.82406" lon="4.86089">
        <ele>254.48</ele>
        <time>2019-10-04T16:19:05.001Z</time>
      </trkpt>
      <trkpt lat="45.82343" lon="4.86132">
        <ele>251.759</ele>
        <time>2019-10-04T16:19:35.001Z</time>
      </trkpt>
      <trkpt lat="45.82285" lon="4.86179">
        <ele>252.569</ele>
        <time>2019-10-04T16:20:05.001Z</time>
      </trkpt>
      <trkpt lat="45.82223" lon="4.86218">
        <ele>257.088</ele>
        <time>2019-10-04T16:20:35.001Z</time>
      </trkpt>
      <trkpt lat="45.82144" lon="4.86242">
        <ele>264.885</ele>
        <time>2019-10-04T16:21:05.001Z</time>
      </trkpt>
      <trkpt lat="45.82055" lon="4.86263">
        <ele>267.704</ele>
        <time>2019-10-04T16:21:35.001Z</time>
      </trkpt>
      <trkpt lat="45.8195" lon="4.8628">
        <ele>270.651</ele>
        <time>2019-10-04T16:22:05.001Z</time>
      </trkpt>
      <trkpt lat="45.81814" lon="4.86295">
        <ele>270.135</ele>
        <time>2019-10-04T16:22:35.001Z</time>
      </trkpt>
      <trkpt lat="45.81675" lon="4.863">
        <ele>270.293</ele>
        <time>2019-10-04T16:23:05.001Z</time>
      </trkpt>
      <trkpt lat="45.81531" lon="4.86272">
        <ele>265.667</ele>
        <time>2019-10-04T16:23:35.001Z</time>
      </trkpt>
      <trkpt lat="45.81446" lon="4.86192">
        <ele>263.898</ele>
        <time>2019-10-04T16:24:11.001Z</time>
      </trkpt>
      <trkpt lat="45.81339" lon="4.86077">
        <ele>265.339</ele>
        <time>2019-10-04T16:24:41.001Z</time>
      </trkpt>
      <trkpt lat="45.81246" lon="4.85966">
        <ele>265.023</ele>
        <time>2019-10-04T16:25:11.001Z</time>
      </trkpt>
      <trkpt lat="45.81148" lon="4.8589">
        <ele>262.87</ele>
        <time>2019-10-04T16:25:44.001Z</time>
      </trkpt>
      <trkpt lat="45.81" lon="4.8575">
        <ele>264.223</ele>
        <time>2019-10-04T16:26:14.001Z</time>
      </trkpt>
      <trkpt lat="45.8092" lon="4.8571">
        <ele>268.322</ele>
        <time>2019-10-04T16:27:02Z</time>
      </trkpt>
      <trkpt lat="45.80856" lon="4.85665">
        <ele>267.536</ele>
        <time>2019-10-04T16:27:35.001Z</time>
      </trkpt>
      <trkpt lat="45.8079" lon="4.8561">
        <ele>261.174</ele>
        <time>2019-10-04T16:28:05.001Z</time>
      </trkpt>
      <trkpt lat="45.80705" lon="4.85542">
        <ele>258.232</ele>
        <time>2019-10-04T16:28:35.001Z</time>
      </trkpt>
      <trkpt lat="45.8058" lon="4.85403">
        <ele>259.821</ele>
        <time>2019-10-04T16:29:05.001Z</time>
      </trkpt>
      <trkpt lat="45.8044" lon="4.85269">
        <ele>256.147</ele>
        <time>2019-10-04T16:29:35.001Z</time>
      </trkpt>
      <trkpt lat="45.80272" lon="4.85125">
        <ele>254.311</ele>
        <time>2019-10-04T16:30:05.001Z</time>
      </trkpt>
      <trkpt lat="45.80139" lon="4.85132">
        <ele>252.809</ele>
        <time>2019-10-04T16:30:35.001Z</time>
      </trkpt>
      <trkpt lat="45.80084" lon="4.85132">
        <ele>250.886</ele>
        <time>2019-10-04T16:31:14.001Z</time>
      </trkpt>
      <trkpt lat="45.79975" lon="4.8513">
        <ele>257.908</ele>
        <time>2019-10-04T16:31:44.001Z</time>
      </trkpt>
      <trkpt lat="45.79828" lon="4.85047">
        <ele>246.265</ele>
        <time>2019-10-04T16:32:14.001Z</time>
      </trkpt>
      <trkpt lat="45.79756" lon="4.8507">
        <ele>247.909</ele>
        <time>2019-10-04T16:32:44.001Z</time>
      </trkpt>
      <trkpt lat="45.79689" lon="4.84974">
        <ele>250.271</ele>
        <time>2019-10-04T16:33:14.001Z</time>
      </trkpt>
      <trkpt lat="45.79644" lon="4.84905">
        <ele>252.05</ele>
        <time>2019-10-04T16:33:44.001Z</time>
      </trkpt>
      <trkpt lat="45.79608" lon="4.84953">
        <ele>260.551</ele>
        <time>2019-10-04T16:34:14.001Z</time>
      </trkpt>
    </trkseg>
  </trk>
  <trk>
    <name><![CDATA[Tracé 20191005-091114]]></name>
    <trkseg>
      <trkpt lat="45.79582" lon="4.84961">
        <ele>265.224</ele>
        <time>2019-10-05T07:12:17Z</time>
      </trkpt>
      <trkpt lat="45.79626" lon="4.84908">
        <ele>260.193</ele>
        <time>2019-10-05T07:18:23Z</time>
      </trkpt>
      <trkpt lat="45.7958" lon="4.84826">
        <ele>259.792</ele>
        <time>2019-10-05T07:18:56Z</time>
      </trkpt>
      <trkpt lat="45.7953" lon="4.84764">
        <ele>261.787</ele>
        <time>2019-10-05T07:19:29Z</time>
      </trkpt>
      <trkpt lat="45.79466" lon="4.84805">
        <ele>263.468</ele>
        <time>2019-10-05T07:20:02Z</time>
      </trkpt>
      <trkpt lat="45.79412" lon="4.84919">
        <ele>270.808</ele>
        <time>2019-10-05T07:20:32Z</time>
      </trkpt>
      <trkpt lat="45.79281" lon="4.84892">
        <ele>283.664</ele>
        <time>2019-10-05T07:21:02Z</time>
      </trkpt>
      <trkpt lat="45.79116" lon="4.8485">
        <ele>280.624</ele>
        <time>2019-10-05T07:21:32Z</time>
      </trkpt>
      <trkpt lat="45.79014" lon="4.84906">
        <ele>267.42</ele>
        <time>2019-10-05T07:22:02Z</time>
      </trkpt>
      <trkpt lat="45.79189" lon="4.84958">
        <ele>252.108</ele>
        <time>2019-10-05T07:22:32Z</time>
      </trkpt>
      <trkpt lat="45.79305" lon="4.85126">
        <ele>255.998</ele>
        <time>2019-10-05T07:23:02Z</time>
      </trkpt>
      <trkpt lat="45.79219" lon="4.85386">
        <ele>250.139</ele>
        <time>2019-10-05T07:24:57Z</time>
      </trkpt>
      <trkpt lat="45.79048" lon="4.85449">
        <ele>244.395</ele>
        <time>2019-10-05T07:25:27Z</time>
      </trkpt>
      <trkpt lat="45.78935" lon="4.85372">
        <ele>220.101</ele>
        <time>2019-10-05T07:25:57Z</time>
      </trkpt>
      <trkpt lat="45.78935" lon="4.85287">
        <ele>195.719</ele>
        <time>2019-10-05T07:26:30Z</time>
      </trkpt>
      <trkpt lat="45.78857" lon="4.85312">
        <ele>193.642</ele>
        <time>2019-10-05T07:27:03Z</time>
      </trkpt>
      <trkpt lat="45.78811" lon="4.85317">
        <ele>176.332</ele>
        <time>2019-10-05T07:27:33Z</time>
      </trkpt>
      <trkpt lat="45.7879" lon="4.8543">
        <ele>169.929</ele>
        <time>2019-10-05T07:28:03Z</time>
      </trkpt>
      <trkpt lat="45.78679" lon="4.85455">
        <ele>173.748</ele>
        <time>2019-10-05T07:28:33Z</time>
      </trkpt>
      <trkpt lat="45.78612" lon="4.85517">
        <ele>172.461</ele>
        <time>2019-10-05T07:29:06Z</time>
      </trkpt>
      <trkpt lat="45.78631" lon="4.85689">
        <ele>165.54</ele>
        <time>2019-10-05T07:29:36Z</time>
      </trkpt>
      <trkpt lat="45.78624" lon="4.85883">
        <ele>161.75</ele>
        <time>2019-10-05T07:30:06Z</time>
      </trkpt>
      <trkpt lat="45.78616" lon="4.8607">
        <ele>162.054</ele>
        <time>2019-10-05T07:30:36Z</time>
      </trkpt>
      <trkpt lat="45.78598" lon="4.86251">
        <ele>165.69</ele>
        <time>2019-10-05T07:31:06Z</time>
      </trkpt>
      <trkpt lat="45.78575" lon="4.86382">
        <ele>170.742</ele>
        <time>2019-10-05T07:31:36Z</time>
      </trkpt>
      <trkpt lat="45.78599" lon="4.86558">
        <ele>172.847</ele>
        <time>2019-10-05T07:32:06Z</time>
      </trkpt>
      <trkpt lat="45.78643" lon="4.86744">
        <ele>176.311</ele>
        <time>2019-10-05T07:32:39Z</time>
      </trkpt>
      <trkpt lat="45.78685" lon="4.86875">
        <ele>176.707</ele>
        <time>2019-10-05T07:33:09Z</time>
      </trkpt>
      <trkpt lat="45.78734" lon="4.87029">
        <ele>178.49</ele>
        <time>2019-10-05T07:33:39Z</time>
      </trkpt>
      <trkpt lat="45.78743" lon="4.87202">
        <ele>171.798</ele>
        <time>2019-10-05T07:34:09Z</time>
      </trkpt>
      <trkpt lat="45.78762" lon="4.87374">
        <ele>171.397</ele>
        <time>2019-10-05T07:34:39Z</time>
      </trkpt>
      <trkpt lat="45.7878" lon="4.87534">
        <ele>173.63</ele>
        <time>2019-10-05T07:35:09Z</time>
      </trkpt>
      <trkpt lat="45.78794" lon="4.87662">
        <ele>172.518</ele>
        <time>2019-10-05T07:37:12Z</time>
      </trkpt>
      <trkpt lat="45.78852" lon="4.87718">
        <ele>172.197</ele>
        <time>2019-10-05T07:38:06Z</time>
      </trkpt>
      <trkpt lat="45.78964" lon="4.87821">
        <ele>167.826</ele>
        <time>2019-10-05T07:38:36Z</time>
      </trkpt>
      <trkpt lat="45.79072" lon="4.87921">
        <ele>169.931</ele>
        <time>2019-10-05T07:39:06Z</time>
      </trkpt>
      <trkpt lat="45.79188" lon="4.88027">
        <ele>173.128</ele>
        <time>2019-10-05T07:39:36Z</time>
      </trkpt>
      <trkpt lat="45.79291" lon="4.8813">
        <ele>172.855</ele>
        <time>2019-10-05T07:40:06Z</time>
      </trkpt>
      <trkpt lat="45.79292" lon="4.88315">
        <ele>174.022</ele>
        <time>2019-10-05T07:40:36Z</time>
      </trkpt>
      <trkpt lat="45.79204" lon="4.88429">
        <ele>179.466</ele>
        <time>2019-10-05T07:41:06Z</time>
      </trkpt>
      <trkpt lat="45.7911" lon="4.8854">
        <ele>177.865</ele>
        <time>2019-10-05T07:41:36Z</time>
      </trkpt>
      <trkpt lat="45.78982" lon="4.88659">
        <ele>173.767</ele>
        <time>2019-10-05T07:42:09Z</time>
      </trkpt>
      <trkpt lat="45.7888" lon="4.88781">
        <ele>176.325</ele>
        <time>2019-10-05T07:42:39Z</time>
      </trkpt>
      <trkpt lat="45.78816" lon="4.8892">
        <ele>180.847</ele>
        <time>2019-10-05T07:43:09Z</time>
      </trkpt>
      <trkpt lat="45.78742" lon="4.89036">
        <ele>178.058</ele>
        <time>2019-10-05T07:43:39Z</time>
      </trkpt>
      <trkpt lat="45.78639" lon="4.89141">
        <ele>180.949</ele>
        <time>2019-10-05T07:44:09Z</time>
      </trkpt>
      <trkpt lat="45.78533" lon="4.89205">
        <ele>179.06</ele>
        <time>2019-10-05T07:44:39Z</time>
      </trkpt>
      <trkpt lat="45.78454" lon="4.89251">
        <ele>186.355</ele>
        <time>2019-10-05T07:48:39Z</time>
      </trkpt>
      <trkpt lat="45.7832" lon="4.89317">
        <ele>183.802</ele>
        <time>2019-10-05T07:49:12Z</time>
      </trkpt>
      <trkpt lat="45.78175" lon="4.89389">
        <ele>173.822</ele>
        <time>2019-10-05T07:49:42Z</time>
      </trkpt>
      <trkpt lat="45.78032" lon="4.89478">
        <ele>175.383</ele>
        <time>2019-10-05T07:50:12Z</time>
      </trkpt>
      <trkpt lat="45.779" lon="4.89586">
        <ele>177.032</ele>
        <time>2019-10-05T07:50:42Z</time>
      </trkpt>
      <trkpt lat="45.7777" lon="4.89692">
        <ele>180.053</ele>
        <time>2019-10-05T07:51:12Z</time>
      </trkpt>
      <trkpt lat="45.77633" lon="4.89803">
        <ele>180.9</ele>
        <time>2019-10-05T07:51:42Z</time>
      </trkpt>
      <trkpt lat="45.77499" lon="4.89912">
        <ele>183.884</ele>
        <time>2019-10-05T07:52:12Z</time>
      </trkpt>
      <trkpt lat="45.77357" lon="4.90022">
        <ele>181.401</ele>
        <time>2019-10-05T07:52:42Z</time>
      </trkpt>
      <trkpt lat="45.77207" lon="4.90146">
        <ele>179.727</ele>
        <time>2019-10-05T07:53:15Z</time>
      </trkpt>
      <trkpt lat="45.77068" lon="4.90259">
        <ele>178.893</ele>
        <time>2019-10-05T07:53:45Z</time>
      </trkpt>
      <trkpt lat="45.7693" lon="4.90388">
        <ele>181.614</ele>
        <time>2019-10-05T07:54:15Z</time>
      </trkpt>
      <trkpt lat="45.76833" lon="4.90558">
        <ele>185.223</ele>
        <time>2019-10-05T07:54:45Z</time>
      </trkpt>
      <trkpt lat="45.76796" lon="4.90765">
        <ele>185.415</ele>
        <time>2019-10-05T07:55:15Z</time>
      </trkpt>
      <trkpt lat="45.76725" lon="4.90947">
        <ele>183.564</ele>
        <time>2019-10-05T07:55:45Z</time>
      </trkpt>
      <trkpt lat="45.76674" lon="4.91129">
        <ele>185.039</ele>
        <time>2019-10-05T07:56:15Z</time>
      </trkpt>
      <trkpt lat="45.76676" lon="4.91284">
        <ele>187.869</ele>
        <time>2019-10-05T07:56:48Z</time>
      </trkpt>
      <trkpt lat="45.76686" lon="4.91362">
        <ele>190.111</ele>
        <time>2019-10-05T08:00:57Z</time>
      </trkpt>
      <trkpt lat="45.76677" lon="4.91484">
        <ele>192.528</ele>
        <time>2019-10-05T08:01:33Z</time>
      </trkpt>
      <trkpt lat="45.76679" lon="4.91658">
        <ele>191.065</ele>
        <time>2019-10-05T08:02:03Z</time>
      </trkpt>
      <trkpt lat="45.767" lon="4.91849">
        <ele>190.678</ele>
        <time>2019-10-05T08:02:33Z</time>
      </trkpt>
      <trkpt lat="45.76733" lon="4.92071">
        <ele>190.217</ele>
        <time>2019-10-05T08:03:03Z</time>
      </trkpt>
      <trkpt lat="45.7678" lon="4.92284">
        <ele>191.559</ele>
        <time>2019-10-05T08:03:33Z</time>
      </trkpt>
      <trkpt lat="45.76858" lon="4.92559">
        <ele>190.816</ele>
        <time>2019-10-05T08:04:06Z</time>
      </trkpt>
      <trkpt lat="45.76884" lon="4.92773">
        <ele>186.611</ele>
        <time>2019-10-05T08:04:36Z</time>
      </trkpt>
      <trkpt lat="45.76922" lon="4.92956">
        <ele>185.571</ele>
        <time>2019-10-05T08:05:06Z</time>
      </trkpt>
      <trkpt lat="45.7694" lon="4.93179">
        <ele>183.936</ele>
        <time>2019-10-05T08:05:36Z</time>
      </trkpt>
      <trkpt lat="45.76998" lon="4.93402">
        <ele>185.838</ele>
        <time>2019-10-05T08:06:06Z</time>
      </trkpt>
      <trkpt lat="45.77072" lon="4.93591">
        <ele>184.51</ele>
        <time>2019-10-05T08:06:36Z</time>
      </trkpt>
      <trkpt lat="45.77151" lon="4.93806">
        <ele>183.322</ele>
        <time>2019-10-05T08:07:06Z</time>
      </trkpt>
      <trkpt lat="45.77246" lon="4.94011">
        <ele>183.906</ele>
        <time>2019-10-05T08:07:36Z</time>
      </trkpt>
      <trkpt lat="45.77356" lon="4.94239">
        <ele>184.693</ele>
        <time>2019-10-05T08:08:09Z</time>
      </trkpt>
      <trkpt lat="45.77362" lon="4.94489">
        <ele>179.467</ele>
        <time>2019-10-05T08:08:39Z</time>
      </trkpt>
      <trkpt lat="45.77324" lon="4.94728">
        <ele>178.706</ele>
        <time>2019-10-05T08:09:09Z</time>
      </trkpt>
      <trkpt lat="45.77337" lon="4.94972">
        <ele>181.094</ele>
        <time>2019-10-05T08:09:39Z</time>
      </trkpt>
      <trkpt lat="45.77398" lon="4.95199">
        <ele>185.101</ele>
        <time>2019-10-05T08:10:09Z</time>
      </trkpt>
      <trkpt lat="45.77486" lon="4.95398">
        <ele>184.721</ele>
        <time>2019-10-05T08:10:39Z</time>
      </trkpt>
      <trkpt lat="45.77543" lon="4.95613">
        <ele>183.589</ele>
        <time>2019-10-05T08:11:09Z</time>
      </trkpt>
      <trkpt lat="45.77639" lon="4.95834">
        <ele>187.745</ele>
        <time>2019-10-05T08:11:42Z</time>
      </trkpt>
      <trkpt lat="45.77726" lon="4.96049">
        <ele>185.501</ele>
        <time>2019-10-05T08:12:12Z</time>
      </trkpt>
      <trkpt lat="45.77813" lon="4.96279">
        <ele>185.116</ele>
        <time>2019-10-05T08:12:42Z</time>
      </trkpt>
      <trkpt lat="45.77877" lon="4.96484">
        <ele>186.562</ele>
        <time>2019-10-05T08:13:12Z</time>
      </trkpt>
      <trkpt lat="45.77854" lon="4.96705">
        <ele>184.53</ele>
        <time>2019-10-05T08:13:42Z</time>
      </trkpt>
      <trkpt lat="45.77808" lon="4.96935">
        <ele>183.209</ele>
        <time>2019-10-05T08:14:12Z</time>
      </trkpt>
      <trkpt lat="45.77772" lon="4.97172">
        <ele>181.216</ele>
        <time>2019-10-05T08:14:42Z</time>
      </trkpt>
      <trkpt lat="45.77762" lon="4.97429">
        <ele>185.277</ele>
        <time>2019-10-05T08:15:12Z</time>
      </trkpt>
      <trkpt lat="45.77819" lon="4.97683">
        <ele>186.087</ele>
        <time>2019-10-05T08:15:45Z</time>
      </trkpt>
      <trkpt lat="45.77927" lon="4.97889">
        <ele>190.055</ele>
        <time>2019-10-05T08:16:15Z</time>
      </trkpt>
      <trkpt lat="45.77914" lon="4.9809">
        <ele>189.069</ele>
        <time>2019-10-05T08:16:45Z</time>
      </trkpt>
      <trkpt lat="45.77911" lon="4.98243">
        <ele>192.348</ele>
        <time>2019-10-05T08:17:15Z</time>
      </trkpt>
      <trkpt lat="45.7794" lon="4.98455">
        <ele>194.316</ele>
        <time>2019-10-05T08:17:45Z</time>
      </trkpt>
      <trkpt lat="45.7799" lon="4.98605">
        <ele>192.06</ele>
        <time>2019-10-05T08:18:15Z</time>
      </trkpt>
      <trkpt lat="45.78121" lon="4.98768">
        <ele>188.303</ele>
        <time>2019-10-05T08:18:45Z</time>
      </trkpt>
      <trkpt lat="45.78305" lon="4.98906">
        <ele>181.796</ele>
        <time>2019-10-05T08:19:18Z</time>
      </trkpt>
      <trkpt lat="45.78381" lon="4.9902">
        <ele>185.219</ele>
        <time>2019-10-05T08:19:48Z</time>
      </trkpt>
      <trkpt lat="45.78531" lon="4.9906">
        <ele>187.749</ele>
        <time>2019-10-05T08:20:18Z</time>
      </trkpt>
      <trkpt lat="45.78672" lon="4.98988">
        <ele>191.612</ele>
        <time>2019-10-05T08:20:48Z</time>
      </trkpt>
      <trkpt lat="45.78758" lon="4.98941">
        <ele>191</ele>
        <time>2019-10-05T08:21:21Z</time>
      </trkpt>
      <trkpt lat="45.7882" lon="4.98926">
        <ele>189.781</ele>
        <time>2019-10-05T08:23:15Z</time>
      </trkpt>
      <trkpt lat="45.7897" lon="4.98939">
        <ele>189.258</ele>
        <time>2019-10-05T08:23:45Z</time>
      </trkpt>
      <trkpt lat="45.79146" lon="4.98991">
        <ele>183.255</ele>
        <time>2019-10-05T08:24:18Z</time>
      </trkpt>
      <trkpt lat="45.79273" lon="4.98972">
        <ele>183.764</ele>
        <time>2019-10-05T08:24:48Z</time>
      </trkpt>
      <trkpt lat="45.79347" lon="4.99019">
        <ele>179.072</ele>
        <time>2019-10-05T08:25:18Z</time>
      </trkpt>
      <trkpt lat="45.79439" lon="4.99107">
        <ele>184.725</ele>
        <time>2019-10-05T08:25:48Z</time>
      </trkpt>
      <trkpt lat="45.79447" lon="4.99277">
        <ele>182.531</ele>
        <time>2019-10-05T08:26:18Z</time>
      </trkpt>
      <trkpt lat="45.7936" lon="4.99447">
        <ele>181.968</ele>
        <time>2019-10-05T08:26:48Z</time>
      </trkpt>
      <trkpt lat="45.79213" lon="4.99568">
        <ele>181.797</ele>
        <time>2019-10-05T08:27:18Z</time>
      </trkpt>
      <trkpt lat="45.79089" lon="4.99697">
        <ele>187.311</ele>
        <time>2019-10-05T08:27:48Z</time>
      </trkpt>
      <trkpt lat="45.7896" lon="4.99869">
        <ele>184.057</ele>
        <time>2019-10-05T08:28:21Z</time>
      </trkpt>
      <trkpt lat="45.78825" lon="4.99992">
        <ele>184.428</ele>
        <time>2019-10-05T08:28:51Z</time>
      </trkpt>
      <trkpt lat="45.78715" lon="5.00175">
        <ele>188.154</ele>
        <time>2019-10-05T08:29:21Z</time>
      </trkpt>
      <trkpt lat="45.7865" lon="5.0037">
        <ele>189.886</ele>
        <time>2019-10-05T08:29:51Z</time>
      </trkpt>
      <trkpt lat="45.78603" lon="5.00598">
        <ele>186.2</ele>
        <time>2019-10-05T08:30:21Z</time>
      </trkpt>
      <trkpt lat="45.78585" lon="5.00842">
        <ele>183.02</ele>
        <time>2019-10-05T08:30:51Z</time>
      </trkpt>
      <trkpt lat="45.78608" lon="5.01043">
        <ele>182.2</ele>
        <time>2019-10-05T08:31:21Z</time>
      </trkpt>
      <trkpt lat="45.78645" lon="5.01144">
        <ele>185.518</ele>
        <time>2019-10-05T08:36:45Z</time>
      </trkpt>
      <trkpt lat="45.78601" lon="5.01365">
        <ele>184.278</ele>
        <time>2019-10-05T08:37:15Z</time>
      </trkpt>
      <trkpt lat="45.78542" lon="5.01549">
        <ele>189.621</ele>
        <time>2019-10-05T08:37:45Z</time>
      </trkpt>
      <trkpt lat="45.78529" lon="5.01759">
        <ele>187.467</ele>
        <time>2019-10-05T08:38:15Z</time>
      </trkpt>
      <trkpt lat="45.78559" lon="5.01961">
        <ele>184.634</ele>
        <time>2019-10-05T08:38:45Z</time>
      </trkpt>
      <trkpt lat="45.78635" lon="5.02149">
        <ele>188.248</ele>
        <time>2019-10-05T08:39:15Z</time>
      </trkpt>
      <trkpt lat="45.78742" lon="5.02279">
        <ele>191.669</ele>
        <time>2019-10-05T08:39:45Z</time>
      </trkpt>
      <trkpt lat="45.7885" lon="5.02445">
        <ele>186.005</ele>
        <time>2019-10-05T08:40:15Z</time>
      </trkpt>
      <trkpt lat="45.78919" lon="5.02593">
        <ele>186.09</ele>
        <time>2019-10-05T08:40:48Z</time>
      </trkpt>
      <trkpt lat="45.79007" lon="5.02666">
        <ele>192.409</ele>
        <time>2019-10-05T08:41:18Z</time>
      </trkpt>
      <trkpt lat="45.79118" lon="5.02768">
        <ele>192.273</ele>
        <time>2019-10-05T08:41:48Z</time>
      </trkpt>
      <trkpt lat="45.79245" lon="5.02891">
        <ele>193.109</ele>
        <time>2019-10-05T08:42:18Z</time>
      </trkpt>
      <trkpt lat="45.79374" lon="5.03017">
        <ele>196.5</ele>
        <time>2019-10-05T08:42:48Z</time>
      </trkpt>
      <trkpt lat="45.79488" lon="5.03165">
        <ele>192.248</ele>
        <time>2019-10-05T08:43:18Z</time>
      </trkpt>
      <trkpt lat="45.79532" lon="5.03362">
        <ele>186.775</ele>
        <time>2019-10-05T08:43:48Z</time>
      </trkpt>
      <trkpt lat="45.7958" lon="5.03603">
        <ele>187.824</ele>
        <time>2019-10-05T08:44:21Z</time>
      </trkpt>
      <trkpt lat="45.79651" lon="5.03799">
        <ele>189.284</ele>
        <time>2019-10-05T08:44:51Z</time>
      </trkpt>
      <trkpt lat="45.79761" lon="5.03943">
        <ele>190.684</ele>
        <time>2019-10-05T08:45:21Z</time>
      </trkpt>
      <trkpt lat="45.79844" lon="5.04038">
        <ele>192.791</ele>
        <time>2019-10-05T08:45:51Z</time>
      </trkpt>
      <trkpt lat="45.79971" lon="5.04196">
        <ele>191.43</ele>
        <time>2019-10-05T08:46:21Z</time>
      </trkpt>
      <trkpt lat="45.80056" lon="5.04355">
        <ele>188.082</ele>
        <time>2019-10-05T08:46:51Z</time>
      </trkpt>
      <trkpt lat="45.80157" lon="5.04525">
        <ele>185.229</ele>
        <time>2019-10-05T08:47:21Z</time>
      </trkpt>
      <trkpt lat="45.80224" lon="5.04733">
        <ele>186.59</ele>
        <time>2019-10-05T08:47:54Z</time>
      </trkpt>
      <trkpt lat="45.80286" lon="5.04933">
        <ele>185.903</ele>
        <time>2019-10-05T08:48:24Z</time>
      </trkpt>
      <trkpt lat="45.80359" lon="5.05121">
        <ele>185.381</ele>
        <time>2019-10-05T08:48:54Z</time>
      </trkpt>
      <trkpt lat="45.8043" lon="5.05315">
        <ele>187.845</ele>
        <time>2019-10-05T08:49:24Z</time>
      </trkpt>
      <trkpt lat="45.80459" lon="5.05513">
        <ele>187.697</ele>
        <time>2019-10-05T08:49:54Z</time>
      </trkpt>
      <trkpt lat="45.80505" lon="5.05733">
        <ele>190.408</ele>
        <time>2019-10-05T08:50:24Z</time>
      </trkpt>
      <trkpt lat="45.80544" lon="5.05944">
        <ele>192.895</ele>
        <time>2019-10-05T08:50:54Z</time>
      </trkpt>
      <trkpt lat="45.80593" lon="5.06147">
        <ele>191.277</ele>
        <time>2019-10-05T08:51:24Z</time>
      </trkpt>
      <trkpt lat="45.80657" lon="5.06348">
        <ele>188.568</ele>
        <time>2019-10-05T08:51:57Z</time>
      </trkpt>
      <trkpt lat="45.80717" lon="5.06555">
        <ele>186.88</ele>
        <time>2019-10-05T08:52:27Z</time>
      </trkpt>
      <trkpt lat="45.80769" lon="5.0675">
        <ele>190.906</ele>
        <time>2019-10-05T08:52:57Z</time>
      </trkpt>
      <trkpt lat="45.80791" lon="5.06956">
        <ele>189.337</ele>
        <time>2019-10-05T08:53:27Z</time>
      </trkpt>
      <trkpt lat="45.80833" lon="5.07142">
        <ele>189.215</ele>
        <time>2019-10-05T08:53:57Z</time>
      </trkpt>
      <trkpt lat="45.80907" lon="5.07352">
        <ele>186.002</ele>
        <time>2019-10-05T08:54:27Z</time>
      </trkpt>
      <trkpt lat="45.8095" lon="5.07546">
        <ele>187.885</ele>
        <time>2019-10-05T08:54:57Z</time>
      </trkpt>
      <trkpt lat="45.80974" lon="5.07758">
        <ele>188.338</ele>
        <time>2019-10-05T08:55:30Z</time>
      </trkpt>
      <trkpt lat="45.80967" lon="5.07808">
        <ele>194.539</ele>
        <time>2019-10-05T08:56:33Z</time>
      </trkpt>
      <trkpt lat="45.80932" lon="5.078">
        <ele>204.455</ele>
        <time>2019-10-05T08:57:09Z</time>
      </trkpt>
      <trkpt lat="45.80917" lon="5.07808">
        <ele>208.051</ele>
        <time>2019-10-05T08:57:45Z</time>
      </trkpt>
      <trkpt lat="45.80885" lon="5.0782">
        <ele>211.868</ele>
        <time>2019-10-05T08:58:18Z</time>
      </trkpt>
      <trkpt lat="45.80833" lon="5.0783">
        <ele>215.616</ele>
        <time>2019-10-05T08:59:06Z</time>
      </trkpt>
      <trkpt lat="45.80799" lon="5.07837">
        <ele>218.351</ele>
        <time>2019-10-05T09:00:18Z</time>
      </trkpt>
      <trkpt lat="45.80729" lon="5.07858">
        <ele>218.768</ele>
        <time>2019-10-05T09:00:48Z</time>
      </trkpt>
      <trkpt lat="45.80635" lon="5.07927">
        <ele>220.596</ele>
        <time>2019-10-05T09:01:21Z</time>
      </trkpt>
      <trkpt lat="45.80609" lon="5.07931">
        <ele>217.117</ele>
        <time>2019-10-05T09:02:36Z</time>
      </trkpt>
      <trkpt lat="45.80514" lon="5.08012">
        <ele>215.9</ele>
        <time>2019-10-05T09:03:06Z</time>
      </trkpt>
      <trkpt lat="45.80414" lon="5.08074">
        <ele>215.818</ele>
        <time>2019-10-05T09:03:36Z</time>
      </trkpt>
      <trkpt lat="45.80298" lon="5.08183">
        <ele>214.356</ele>
        <time>2019-10-05T09:04:06Z</time>
      </trkpt>
      <trkpt lat="45.80188" lon="5.08351">
        <ele>213.177</ele>
        <time>2019-10-05T09:04:36Z</time>
      </trkpt>
      <trkpt lat="45.80084" lon="5.08422">
        <ele>213.274</ele>
        <time>2019-10-05T09:05:06Z</time>
      </trkpt>
      <trkpt lat="45.79908" lon="5.08489">
        <ele>214.774</ele>
        <time>2019-10-05T09:05:39Z</time>
      </trkpt>
      <trkpt lat="45.79819" lon="5.08513">
        <ele>213.425</ele>
        <time>2019-10-05T09:06:09Z</time>
      </trkpt>
      <trkpt lat="45.79736" lon="5.08493">
        <ele>215.126</ele>
        <time>2019-10-05T09:06:39Z</time>
      </trkpt>
      <trkpt lat="45.79639" lon="5.08481">
        <ele>218.359</ele>
        <time>2019-10-05T09:07:09Z</time>
      </trkpt>
      <trkpt lat="45.79521" lon="5.08435">
        <ele>216.962</ele>
        <time>2019-10-05T09:07:39Z</time>
      </trkpt>
      <trkpt lat="45.79413" lon="5.085">
        <ele>221.823</ele>
        <time>2019-10-05T09:08:09Z</time>
      </trkpt>
      <trkpt lat="45.79328" lon="5.08612">
        <ele>220.731</ele>
        <time>2019-10-05T09:08:39Z</time>
      </trkpt>
      <trkpt lat="45.79239" lon="5.08767">
        <ele>220.343</ele>
        <time>2019-10-05T09:09:12Z</time>
      </trkpt>
      <trkpt lat="45.79126" lon="5.09009">
        <ele>213.397</ele>
        <time>2019-10-05T09:09:42Z</time>
      </trkpt>
      <trkpt lat="45.7893" lon="5.09104">
        <ele>207.865</ele>
        <time>2019-10-05T09:10:12Z</time>
      </trkpt>
      <trkpt lat="45.78802" lon="5.09008">
        <ele>213.087</ele>
        <time>2019-10-05T09:10:42Z</time>
      </trkpt>
      <trkpt lat="45.78742" lon="5.08902">
        <ele>213.764</ele>
        <time>2019-10-05T09:11:12Z</time>
      </trkpt>
      <trkpt lat="45.78649" lon="5.08892">
        <ele>214.96</ele>
        <time>2019-10-05T09:11:42Z</time>
      </trkpt>
      <trkpt lat="45.78546" lon="5.08909">
        <ele>216.558</ele>
        <time>2019-10-05T09:12:12Z</time>
      </trkpt>
      <trkpt lat="45.78454" lon="5.08922">
        <ele>220.157</ele>
        <time>2019-10-05T09:12:42Z</time>
      </trkpt>
      <trkpt lat="45.78431" lon="5.09059">
        <ele>220.788</ele>
        <time>2019-10-05T09:13:15Z</time>
      </trkpt>
      <trkpt lat="45.78386" lon="5.09257">
        <ele>219.461</ele>
        <time>2019-10-05T09:13:45Z</time>
      </trkpt>
      <trkpt lat="45.7834" lon="5.09464">
        <ele>219.247</ele>
        <time>2019-10-05T09:14:15Z</time>
      </trkpt>
      <trkpt lat="45.783" lon="5.09634">
        <ele>220.69</ele>
        <time>2019-10-05T09:14:45Z</time>
      </trkpt>
      <trkpt lat="45.78266" lon="5.09783">
        <ele>223.15</ele>
        <time>2019-10-05T09:15:15Z</time>
      </trkpt>
      <trkpt lat="45.78225" lon="5.09961">
        <ele>224.226</ele>
        <time>2019-10-05T09:15:45Z</time>
      </trkpt>
      <trkpt lat="45.78174" lon="5.10213">
        <ele>220.378</ele>
        <time>2019-10-05T09:16:15Z</time>
      </trkpt>
      <trkpt lat="45.78113" lon="5.1046">
        <ele>220.154</ele>
        <time>2019-10-05T09:16:48Z</time>
      </trkpt>
      <trkpt lat="45.78056" lon="5.10597">
        <ele>224.781</ele>
        <time>2019-10-05T09:17:18Z</time>
      </trkpt>
      <trkpt lat="45.78024" lon="5.10662">
        <ele>226.599</ele>
        <time>2019-10-05T09:18:06Z</time>
      </trkpt>
      <trkpt lat="45.78051" lon="5.10706">
        <ele>227.035</ele>
        <time>2019-10-05T09:20:30Z</time>
      </trkpt>
      <trkpt lat="45.78007" lon="5.10812">
        <ele>233.129</ele>
        <time>2019-10-05T09:21:00Z</time>
      </trkpt>
      <trkpt lat="45.77962" lon="5.10943">
        <ele>234.503</ele>
        <time>2019-10-05T09:21:30Z</time>
      </trkpt>
      <trkpt lat="45.77929" lon="5.11104">
        <ele>234.982</ele>
        <time>2019-10-05T09:22:00Z</time>
      </trkpt>
      <trkpt lat="45.77877" lon="5.11295">
        <ele>233.024</ele>
        <time>2019-10-05T09:22:30Z</time>
      </trkpt>
      <trkpt lat="45.77842" lon="5.11529">
        <ele>232.703</ele>
        <time>2019-10-05T09:23:03Z</time>
      </trkpt>
      <trkpt lat="45.77797" lon="5.11693">
        <ele>232.858</ele>
        <time>2019-10-05T09:23:33Z</time>
      </trkpt>
      <trkpt lat="45.7777" lon="5.11828">
        <ele>236.038</ele>
        <time>2019-10-05T09:24:03Z</time>
      </trkpt>
      <trkpt lat="45.77654" lon="5.11854">
        <ele>238.207</ele>
        <time>2019-10-05T09:24:33Z</time>
      </trkpt>
      <trkpt lat="45.77499" lon="5.11796">
        <ele>239.159</ele>
        <time>2019-10-05T09:25:03Z</time>
      </trkpt>
      <trkpt lat="45.77352" lon="5.11786">
        <ele>237.394</ele>
        <time>2019-10-05T09:25:33Z</time>
      </trkpt>
      <trkpt lat="45.77208" lon="5.11773">
        <ele>236.303</ele>
        <time>2019-10-05T09:26:03Z</time>
      </trkpt>
      <trkpt lat="45.77054" lon="5.11783">
        <ele>238.059</ele>
        <time>2019-10-05T09:26:36Z</time>
      </trkpt>
      <trkpt lat="45.7691" lon="5.11797">
        <ele>239.516</ele>
        <time>2019-10-05T09:27:06Z</time>
      </trkpt>
      <trkpt lat="45.76774" lon="5.11801">
        <ele>238.141</ele>
        <time>2019-10-05T09:27:36Z</time>
      </trkpt>
      <trkpt lat="45.76698" lon="5.11878">
        <ele>237.452</ele>
        <time>2019-10-05T09:28:06Z</time>
      </trkpt>
      <trkpt lat="45.76712" lon="5.11877">
        <ele>238.876</ele>
        <time>2019-10-05T09:31:18Z</time>
      </trkpt>
      <trkpt lat="45.76807" lon="5.11973">
        <ele>240.981</ele>
        <time>2019-10-05T09:31:48Z</time>
      </trkpt>
      <trkpt lat="45.76882" lon="5.12118">
        <ele>240.431</ele>
        <time>2019-10-05T09:32:18Z</time>
      </trkpt>
      <trkpt lat="45.76956" lon="5.12268">
        <ele>242.637</ele>
        <time>2019-10-05T09:32:48Z</time>
      </trkpt>
      <trkpt lat="45.7703" lon="5.1242">
        <ele>243.411</ele>
        <time>2019-10-05T09:33:21Z</time>
      </trkpt>
      <trkpt lat="45.77097" lon="5.12552">
        <ele>246.839</ele>
        <time>2019-10-05T09:33:51Z</time>
      </trkpt>
      <trkpt lat="45.77164" lon="5.12685">
        <ele>249.672</ele>
        <time>2019-10-05T09:34:21Z</time>
      </trkpt>
      <trkpt lat="45.77236" lon="5.12824">
        <ele>251.652</ele>
        <time>2019-10-05T09:34:51Z</time>
      </trkpt>
      <trkpt lat="45.77308" lon="5.12972">
        <ele>252.988</ele>
        <time>2019-10-05T09:35:21Z</time>
      </trkpt>
      <trkpt lat="45.77477" lon="5.13188">
        <ele>244.597</ele>
        <time>2019-10-05T09:35:51Z</time>
      </trkpt>
      <trkpt lat="45.77757" lon="5.13335">
        <ele>234.995</ele>
        <time>2019-10-05T09:36:21Z</time>
      </trkpt>
      <trkpt lat="45.78007" lon="5.13316">
        <ele>230.362</ele>
        <time>2019-10-05T09:36:54Z</time>
      </trkpt>
      <trkpt lat="45.78218" lon="5.13267">
        <ele>228.92</ele>
        <time>2019-10-05T09:37:24Z</time>
      </trkpt>
      <trkpt lat="45.78412" lon="5.1321">
        <ele>225.302</ele>
        <time>2019-10-05T09:37:54Z</time>
      </trkpt>
      <trkpt lat="45.7861" lon="5.13193">
        <ele>223.141</ele>
        <time>2019-10-05T09:38:24Z</time>
      </trkpt>
      <trkpt lat="45.78857" lon="5.13207">
        <ele>217.565</ele>
        <time>2019-10-05T09:38:54Z</time>
      </trkpt>
      <trkpt lat="45.7901" lon="5.13279">
        <ele>214.527</ele>
        <time>2019-10-05T09:39:24Z</time>
      </trkpt>
      <trkpt lat="45.79022" lon="5.13279">
        <ele>214.359</ele>
        <time>2019-10-05T09:48:15Z</time>
      </trkpt>
      <trkpt lat="45.79045" lon="5.13379">
        <ele>217.547</ele>
        <time>2019-10-05T09:48:48Z</time>
      </trkpt>
      <trkpt lat="45.79044" lon="5.13523">
        <ele>219.937</ele>
        <time>2019-10-05T09:49:18Z</time>
      </trkpt>
      <trkpt lat="45.79026" lon="5.13676">
        <ele>222.196</ele>
        <time>2019-10-05T09:49:48Z</time>
      </trkpt>
      <trkpt lat="45.78953" lon="5.13858">
        <ele>224.08</ele>
        <time>2019-10-05T09:50:18Z</time>
      </trkpt>
      <trkpt lat="45.78852" lon="5.14091">
        <ele>220.727</ele>
        <time>2019-10-05T09:50:48Z</time>
      </trkpt>
      <trkpt lat="45.78743" lon="5.14343">
        <ele>217.635</ele>
        <time>2019-10-05T09:51:18Z</time>
      </trkpt>
      <trkpt lat="45.78651" lon="5.14555">
        <ele>218.014</ele>
        <time>2019-10-05T09:51:48Z</time>
      </trkpt>
      <trkpt lat="45.78648" lon="5.14726">
        <ele>217.674</ele>
        <time>2019-10-05T09:52:18Z</time>
      </trkpt>
      <trkpt lat="45.78706" lon="5.15071">
        <ele>213.435</ele>
        <time>2019-10-05T09:52:51Z</time>
      </trkpt>
      <trkpt lat="45.78759" lon="5.15369">
        <ele>207.762</ele>
        <time>2019-10-05T09:53:21Z</time>
      </trkpt>
      <trkpt lat="45.78811" lon="5.15678">
        <ele>205.814</ele>
        <time>2019-10-05T09:53:51Z</time>
      </trkpt>
      <trkpt lat="45.78853" lon="5.15922">
        <ele>205.389</ele>
        <time>2019-10-05T09:54:21Z</time>
      </trkpt>
      <trkpt lat="45.78897" lon="5.1618">
        <ele>204.783</ele>
        <time>2019-10-05T09:54:51Z</time>
      </trkpt>
      <trkpt lat="45.78938" lon="5.16426">
        <ele>206.59</ele>
        <time>2019-10-05T09:55:21Z</time>
      </trkpt>
      <trkpt lat="45.78973" lon="5.16649">
        <ele>205.305</ele>
        <time>2019-10-05T09:55:51Z</time>
      </trkpt>
      <trkpt lat="45.79046" lon="5.16935">
        <ele>200.213</ele>
        <time>2019-10-05T09:56:24Z</time>
      </trkpt>
      <trkpt lat="45.79083" lon="5.17088">
        <ele>199.84</ele>
        <time>2019-10-05T09:56:54Z</time>
      </trkpt>
      <trkpt lat="45.79086" lon="5.17118">
        <ele>201.88</ele>
        <time>2019-10-05T10:02:51Z</time>
      </trkpt>
      <trkpt lat="45.79153" lon="5.1723">
        <ele>202.436</ele>
        <time>2019-10-05T10:03:21Z</time>
      </trkpt>
      <trkpt lat="45.79223" lon="5.17352">
        <ele>201.343</ele>
        <time>2019-10-05T10:03:51Z</time>
      </trkpt>
      <trkpt lat="45.79365" lon="5.17437">
        <ele>205.183</ele>
        <time>2019-10-05T10:04:21Z</time>
      </trkpt>
      <trkpt lat="45.79388" lon="5.1749">
        <ele>196.106</ele>
        <time>2019-10-05T10:05:06Z</time>
      </trkpt>
      <trkpt lat="45.79391" lon="5.17495">
        <ele>186.951</ele>
        <time>2019-10-05T10:48:36Z</time>
      </trkpt>
      <trkpt lat="45.7936" lon="5.17436">
        <ele>193.911</ele>
        <time>2019-10-05T10:55:12Z</time>
      </trkpt>
      <trkpt lat="45.79307" lon="5.17406">
        <ele>205.064</ele>
        <time>2019-10-05T10:55:42Z</time>
      </trkpt>
      <trkpt lat="45.79238" lon="5.17362">
        <ele>207.897</ele>
        <time>2019-10-05T10:56:12Z</time>
      </trkpt>
      <trkpt lat="45.79176" lon="5.17285">
        <ele>210.711</ele>
        <time>2019-10-05T10:56:42Z</time>
      </trkpt>
      <trkpt lat="45.79106" lon="5.17131">
        <ele>204.661</ele>
        <time>2019-10-05T10:57:12Z</time>
      </trkpt>
      <trkpt lat="45.79049" lon="5.16992">
        <ele>201.863</ele>
        <time>2019-10-05T10:57:42Z</time>
      </trkpt>
      <trkpt lat="45.7896" lon="5.16978">
        <ele>203.702</ele>
        <time>2019-10-05T10:58:12Z</time>
      </trkpt>
      <trkpt lat="45.78873" lon="5.16996">
        <ele>208.255</ele>
        <time>2019-10-05T10:58:45Z</time>
      </trkpt>
      <trkpt lat="45.78794" lon="5.17012">
        <ele>211.032</ele>
        <time>2019-10-05T10:59:15Z</time>
      </trkpt>
      <trkpt lat="45.78718" lon="5.16988">
        <ele>212.05</ele>
        <time>2019-10-05T10:59:45Z</time>
      </trkpt>
      <trkpt lat="45.78653" lon="5.16954">
        <ele>217.188</ele>
        <time>2019-10-05T11:00:15Z</time>
      </trkpt>
      <trkpt lat="45.78599" lon="5.16928">
        <ele>220.454</ele>
        <time>2019-10-05T11:00:45Z</time>
      </trkpt>
      <trkpt lat="45.78547" lon="5.16904">
        <ele>225.005</ele>
        <time>2019-10-05T11:01:15Z</time>
      </trkpt>
      <trkpt lat="45.78483" lon="5.16875">
        <ele>225.771</ele>
        <time>2019-10-05T11:01:45Z</time>
      </trkpt>
      <trkpt lat="45.78381" lon="5.16865">
        <ele>228.089</ele>
        <time>2019-10-05T11:02:18Z</time>
      </trkpt>
      <trkpt lat="45.78153" lon="5.16865">
        <ele>218.485</ele>
        <time>2019-10-05T11:02:48Z</time>
      </trkpt>
      <trkpt lat="45.77985" lon="5.17089">
        <ele>213.924</ele>
        <time>2019-10-05T11:03:18Z</time>
      </trkpt>
      <trkpt lat="45.77882" lon="5.17263">
        <ele>213.057</ele>
        <time>2019-10-05T11:03:48Z</time>
      </trkpt>
      <trkpt lat="45.77766" lon="5.17465">
        <ele>212.525</ele>
        <time>2019-10-05T11:04:18Z</time>
      </trkpt>
      <trkpt lat="45.77683" lon="5.17763">
        <ele>204.245</ele>
        <time>2019-10-05T11:04:48Z</time>
      </trkpt>
      <trkpt lat="45.77624" lon="5.18129">
        <ele>200.209</ele>
        <time>2019-10-05T11:05:18Z</time>
      </trkpt>
      <trkpt lat="45.7753" lon="5.18368">
        <ele>196.18</ele>
        <time>2019-10-05T11:05:48Z</time>
      </trkpt>
      <trkpt lat="45.77288" lon="5.18571">
        <ele>186.412</ele>
        <time>2019-10-05T11:06:21Z</time>
      </trkpt>
      <trkpt lat="45.77212" lon="5.18787">
        <ele>188.388</ele>
        <time>2019-10-05T11:06:51Z</time>
      </trkpt>
      <trkpt lat="45.77132" lon="5.18983">
        <ele>192.516</ele>
        <time>2019-10-05T11:07:21Z</time>
      </trkpt>
      <trkpt lat="45.77029" lon="5.19136">
        <ele>194.322</ele>
        <time>2019-10-05T11:07:51Z</time>
      </trkpt>
      <trkpt lat="45.76903" lon="5.19246">
        <ele>196.017</ele>
        <time>2019-10-05T11:08:21Z</time>
      </trkpt>
      <trkpt lat="45.76811" lon="5.19367">
        <ele>196.728</ele>
        <time>2019-10-05T11:08:51Z</time>
      </trkpt>
      <trkpt lat="45.76726" lon="5.19486">
        <ele>204.158</ele>
        <time>2019-10-05T11:09:21Z</time>
      </trkpt>
      <trkpt lat="45.76653" lon="5.19609">
        <ele>199.972</ele>
        <time>2019-10-05T11:09:54Z</time>
      </trkpt>
      <trkpt lat="45.76757" lon="5.19746">
        <ele>203.928</ele>
        <time>2019-10-05T11:10:24Z</time>
      </trkpt>
      <trkpt lat="45.76887" lon="5.19917">
        <ele>199.33</ele>
        <time>2019-10-05T11:10:54Z</time>
      </trkpt>
      <trkpt lat="45.76918" lon="5.20129">
        <ele>196.895</ele>
        <time>2019-10-05T11:11:24Z</time>
      </trkpt>
      <trkpt lat="45.769" lon="5.20328">
        <ele>194.472</ele>
        <time>2019-10-05T11:11:54Z</time>
      </trkpt>
      <trkpt lat="45.76853" lon="5.2056">
        <ele>194.919</ele>
        <time>2019-10-05T11:12:24Z</time>
      </trkpt>
      <trkpt lat="45.76834" lon="5.20738">
        <ele>195.963</ele>
        <time>2019-10-05T11:12:54Z</time>
      </trkpt>
      <trkpt lat="45.77003" lon="5.20834">
        <ele>193.885</ele>
        <time>2019-10-05T11:13:24Z</time>
      </trkpt>
      <trkpt lat="45.77045" lon="5.20988">
        <ele>193.767</ele>
        <time>2019-10-05T11:13:57Z</time>
      </trkpt>
      <trkpt lat="45.76949" lon="5.21061">
        <ele>196.306</ele>
        <time>2019-10-05T11:14:27Z</time>
      </trkpt>
      <trkpt lat="45.7684" lon="5.21198">
        <ele>196.453</ele>
        <time>2019-10-05T11:14:57Z</time>
      </trkpt>
      <trkpt lat="45.76741" lon="5.21362">
        <ele>192.921</ele>
        <time>2019-10-05T11:15:27Z</time>
      </trkpt>
      <trkpt lat="45.76704" lon="5.21573">
        <ele>191.529</ele>
        <time>2019-10-05T11:15:57Z</time>
      </trkpt>
      <trkpt lat="45.7669" lon="5.21782">
        <ele>191.959</ele>
        <time>2019-10-05T11:16:27Z</time>
      </trkpt>
      <trkpt lat="45.76682" lon="5.21997">
        <ele>191.848</ele>
        <time>2019-10-05T11:16:57Z</time>
      </trkpt>
      <trkpt lat="45.76594" lon="5.22111">
        <ele>194.041</ele>
        <time>2019-10-05T11:17:30Z</time>
      </trkpt>
      <trkpt lat="45.76509" lon="5.22269">
        <ele>194.976</ele>
        <time>2019-10-05T11:18:00Z</time>
      </trkpt>
      <trkpt lat="45.76425" lon="5.22351">
        <ele>199.898</ele>
        <time>2019-10-05T11:18:30Z</time>
      </trkpt>
      <trkpt lat="45.7643" lon="5.22472">
        <ele>203.579</ele>
        <time>2019-10-05T11:19:00Z</time>
      </trkpt>
      <trkpt lat="45.76555" lon="5.22574">
        <ele>201.55</ele>
        <time>2019-10-05T11:19:30Z</time>
      </trkpt>
      <trkpt lat="45.7666" lon="5.22698">
        <ele>200.384</ele>
        <time>2019-10-05T11:20:00Z</time>
      </trkpt>
      <trkpt lat="45.76745" lon="5.2281">
        <ele>202.353</ele>
        <time>2019-10-05T11:20:30Z</time>
      </trkpt>
      <trkpt lat="45.76843" lon="5.22947">
        <ele>199.773</ele>
        <time>2019-10-05T11:21:03Z</time>
      </trkpt>
      <trkpt lat="45.76934" lon="5.23075">
        <ele>198.793</ele>
        <time>2019-10-05T11:21:33Z</time>
      </trkpt>
      <trkpt lat="45.77035" lon="5.23191">
        <ele>200.237</ele>
        <time>2019-10-05T11:22:03Z</time>
      </trkpt>
      <trkpt lat="45.77127" lon="5.23301">
        <ele>199.949</ele>
        <time>2019-10-05T11:22:33Z</time>
      </trkpt>
      <trkpt lat="45.77244" lon="5.23459">
        <ele>197.71</ele>
        <time>2019-10-05T11:23:03Z</time>
      </trkpt>
      <trkpt lat="45.77332" lon="5.23605">
        <ele>193.338</ele>
        <time>2019-10-05T11:23:33Z</time>
      </trkpt>
      <trkpt lat="45.7739" lon="5.23702">
        <ele>198.131</ele>
        <time>2019-10-05T11:24:03Z</time>
      </trkpt>
      <trkpt lat="45.77434" lon="5.23789">
        <ele>201.942</ele>
        <time>2019-10-05T11:24:33Z</time>
      </trkpt>
      <trkpt lat="45.77491" lon="5.23902">
        <ele>204.99</ele>
        <time>2019-10-05T11:25:06Z</time>
      </trkpt>
      <trkpt lat="45.7754" lon="5.23981">
        <ele>209.069</ele>
        <time>2019-10-05T11:28:09Z</time>
      </trkpt>
      <trkpt lat="45.77625" lon="5.24099">
        <ele>202.473</ele>
        <time>2019-10-05T11:28:39Z</time>
      </trkpt>
      <trkpt lat="45.77639" lon="5.24216">
        <ele>201.619</ele>
        <time>2019-10-05T11:29:09Z</time>
      </trkpt>
      <trkpt lat="45.77571" lon="5.24358">
        <ele>202.204</ele>
        <time>2019-10-05T11:29:39Z</time>
      </trkpt>
      <trkpt lat="45.77502" lon="5.245">
        <ele>202.17</ele>
        <time>2019-10-05T11:30:09Z</time>
      </trkpt>
      <trkpt lat="45.77435" lon="5.24645">
        <ele>201.835</ele>
        <time>2019-10-05T11:30:39Z</time>
      </trkpt>
      <trkpt lat="45.77358" lon="5.24806">
        <ele>202.216</ele>
        <time>2019-10-05T11:31:12Z</time>
      </trkpt>
      <trkpt lat="45.77284" lon="5.24974">
        <ele>200.323</ele>
        <time>2019-10-05T11:31:42Z</time>
      </trkpt>
      <trkpt lat="45.77211" lon="5.25133">
        <ele>200.449</ele>
        <time>2019-10-05T11:32:12Z</time>
      </trkpt>
      <trkpt lat="45.7714" lon="5.25286">
        <ele>203.417</ele>
        <time>2019-10-05T11:32:42Z</time>
      </trkpt>
      <trkpt lat="45.77072" lon="5.25432">
        <ele>206.378</ele>
        <time>2019-10-05T11:33:12Z</time>
      </trkpt>
      <trkpt lat="45.77046" lon="5.25576">
        <ele>203.754</ele>
        <time>2019-10-05T11:33:42Z</time>
      </trkpt>
      <trkpt lat="45.77068" lon="5.25741">
        <ele>202.496</ele>
        <time>2019-10-05T11:34:12Z</time>
      </trkpt>
      <trkpt lat="45.77141" lon="5.25929">
        <ele>202.069</ele>
        <time>2019-10-05T11:34:42Z</time>
      </trkpt>
      <trkpt lat="45.77197" lon="5.2614">
        <ele>202.246</ele>
        <time>2019-10-05T11:35:15Z</time>
      </trkpt>
      <trkpt lat="45.7725" lon="5.26336">
        <ele>205.312</ele>
        <time>2019-10-05T11:35:45Z</time>
      </trkpt>
      <trkpt lat="45.77292" lon="5.26494">
        <ele>208.954</ele>
        <time>2019-10-05T11:36:15Z</time>
      </trkpt>
      <trkpt lat="45.77321" lon="5.26601">
        <ele>212.585</ele>
        <time>2019-10-05T11:36:45Z</time>
      </trkpt>
      <trkpt lat="45.77349" lon="5.26695">
        <ele>214.604</ele>
        <time>2019-10-05T11:37:15Z</time>
      </trkpt>
      <trkpt lat="45.77385" lon="5.26828">
        <ele>214.568</ele>
        <time>2019-10-05T11:37:45Z</time>
      </trkpt>
      <trkpt lat="45.77413" lon="5.26998">
        <ele>219.365</ele>
        <time>2019-10-05T11:38:15Z</time>
      </trkpt>
      <trkpt lat="45.77486" lon="5.27125">
        <ele>221.697</ele>
        <time>2019-10-05T11:38:48Z</time>
      </trkpt>
      <trkpt lat="45.77557" lon="5.27158">
        <ele>224.373</ele>
        <time>2019-10-05T11:39:18Z</time>
      </trkpt>
      <trkpt lat="45.77629" lon="5.27229">
        <ele>229.353</ele>
        <time>2019-10-05T11:39:48Z</time>
      </trkpt>
      <trkpt lat="45.77663" lon="5.27349">
        <ele>230.788</ele>
        <time>2019-10-05T11:40:18Z</time>
      </trkpt>
      <trkpt lat="45.7766" lon="5.2749">
        <ele>229.273</ele>
        <time>2019-10-05T11:40:48Z</time>
      </trkpt>
      <trkpt lat="45.77636" lon="5.27635">
        <ele>228.564</ele>
        <time>2019-10-05T11:41:18Z</time>
      </trkpt>
      <trkpt lat="45.7762" lon="5.27798">
        <ele>227.244</ele>
        <time>2019-10-05T11:41:48Z</time>
      </trkpt>
      <trkpt lat="45.77601" lon="5.2792">
        <ele>231.655</ele>
        <time>2019-10-05T11:42:21Z</time>
      </trkpt>
      <trkpt lat="45.77614" lon="5.27995">
        <ele>239.787</ele>
        <time>2019-10-05T11:42:51Z</time>
      </trkpt>
      <trkpt lat="45.77617" lon="5.28076">
        <ele>246.623</ele>
        <time>2019-10-05T11:43:21Z</time>
      </trkpt>
      <trkpt lat="45.77647" lon="5.28121">
        <ele>250.846</ele>
        <time>2019-10-05T11:43:51Z</time>
      </trkpt>
      <trkpt lat="45.77739" lon="5.28152">
        <ele>256.667</ele>
        <time>2019-10-05T11:44:21Z</time>
      </trkpt>
      <trkpt lat="45.77837" lon="5.28218">
        <ele>255.948</ele>
        <time>2019-10-05T11:44:51Z</time>
      </trkpt>
      <trkpt lat="45.77935" lon="5.28307">
        <ele>246.391</ele>
        <time>2019-10-05T11:45:21Z</time>
      </trkpt>
      <trkpt lat="45.78029" lon="5.28349">
        <ele>243.283</ele>
        <time>2019-10-05T11:45:51Z</time>
      </trkpt>
      <trkpt lat="45.781" lon="5.28385">
        <ele>253.828</ele>
        <time>2019-10-05T11:46:24Z</time>
      </trkpt>
      <trkpt lat="45.78211" lon="5.28424">
        <ele>254.798</ele>
        <time>2019-10-05T11:46:54Z</time>
      </trkpt>
      <trkpt lat="45.7836" lon="5.28427">
        <ele>250.121</ele>
        <time>2019-10-05T11:47:24Z</time>
      </trkpt>
      <trkpt lat="45.78532" lon="5.28515">
        <ele>248.923</ele>
        <time>2019-10-05T11:47:54Z</time>
      </trkpt>
      <trkpt lat="45.78726" lon="5.286">
        <ele>240.119</ele>
        <time>2019-10-05T11:48:24Z</time>
      </trkpt>
      <trkpt lat="45.78936" lon="5.28697">
        <ele>230.318</ele>
        <time>2019-10-05T11:48:54Z</time>
      </trkpt>
      <trkpt lat="45.7917" lon="5.28765">
        <ele>222.048</ele>
        <time>2019-10-05T11:49:24Z</time>
      </trkpt>
      <trkpt lat="45.79278" lon="5.28841">
        <ele>222.622</ele>
        <time>2019-10-05T11:49:57Z</time>
      </trkpt>
      <trkpt lat="45.79364" lon="5.28968">
        <ele>224.228</ele>
        <time>2019-10-05T11:50:27Z</time>
      </trkpt>
      <trkpt lat="45.79407" lon="5.29049">
        <ele>229.905</ele>
        <time>2019-10-05T11:50:57Z</time>
      </trkpt>
      <trkpt lat="45.79448" lon="5.29104">
        <ele>232.546</ele>
        <time>2019-10-05T11:51:27Z</time>
      </trkpt>
      <trkpt lat="45.79543" lon="5.29174">
        <ele>234.861</ele>
        <time>2019-10-05T11:51:57Z</time>
      </trkpt>
      <trkpt lat="45.79698" lon="5.29292">
        <ele>236.164</ele>
        <time>2019-10-05T11:52:27Z</time>
      </trkpt>
      <trkpt lat="45.79762" lon="5.29514">
        <ele>222.437</ele>
        <time>2019-10-05T11:52:57Z</time>
      </trkpt>
      <trkpt lat="45.79893" lon="5.29516">
        <ele>221.174</ele>
        <time>2019-10-05T11:53:27Z</time>
      </trkpt>
      <trkpt lat="45.80047" lon="5.29401">
        <ele>215.544</ele>
        <time>2019-10-05T11:54:00Z</time>
      </trkpt>
      <trkpt lat="45.8008" lon="5.29271">
        <ele>213.664</ele>
        <time>2019-10-05T11:57:51Z</time>
      </trkpt>
      <trkpt lat="45.80232" lon="5.29133">
        <ele>211.527</ele>
        <time>2019-10-05T11:58:21Z</time>
      </trkpt>
      <trkpt lat="45.80345" lon="5.29244">
        <ele>210.645</ele>
        <time>2019-10-05T11:58:51Z</time>
      </trkpt>
      <trkpt lat="45.80395" lon="5.29426">
        <ele>210.312</ele>
        <time>2019-10-05T11:59:21Z</time>
      </trkpt>
      <trkpt lat="45.80431" lon="5.29604">
        <ele>213.349</ele>
        <time>2019-10-05T11:59:51Z</time>
      </trkpt>
      <trkpt lat="45.80466" lon="5.29722">
        <ele>209.555</ele>
        <time>2019-10-05T12:00:21Z</time>
      </trkpt>
      <trkpt lat="45.80433" lon="5.29913">
        <ele>209.359</ele>
        <time>2019-10-05T12:00:54Z</time>
      </trkpt>
      <trkpt lat="45.8039" lon="5.30078">
        <ele>212.282</ele>
        <time>2019-10-05T12:01:24Z</time>
      </trkpt>
      <trkpt lat="45.80449" lon="5.30147">
        <ele>212.804</ele>
        <time>2019-10-05T12:01:54Z</time>
      </trkpt>
      <trkpt lat="45.80592" lon="5.30196">
        <ele>211.648</ele>
        <time>2019-10-05T12:02:24Z</time>
      </trkpt>
      <trkpt lat="45.80726" lon="5.3024">
        <ele>210.368</ele>
        <time>2019-10-05T12:02:54Z</time>
      </trkpt>
      <trkpt lat="45.80859" lon="5.30274">
        <ele>211.709</ele>
        <time>2019-10-05T12:03:24Z</time>
      </trkpt>
      <trkpt lat="45.80958" lon="5.30151">
        <ele>211.429</ele>
        <time>2019-10-05T12:03:54Z</time>
      </trkpt>
      <trkpt lat="45.81051" lon="5.29966">
        <ele>217.083</ele>
        <time>2019-10-05T12:04:27Z</time>
      </trkpt>
      <trkpt lat="45.81153" lon="5.29796">
        <ele>213.472</ele>
        <time>2019-10-05T12:04:57Z</time>
      </trkpt>
      <trkpt lat="45.81254" lon="5.29855">
        <ele>209.985</ele>
        <time>2019-10-05T12:05:27Z</time>
      </trkpt>
      <trkpt lat="45.81329" lon="5.29708">
        <ele>208.134</ele>
        <time>2019-10-05T12:05:57Z</time>
      </trkpt>
      <trkpt lat="45.81407" lon="5.29578">
        <ele>208.01</ele>
        <time>2019-10-05T12:06:27Z</time>
      </trkpt>
      <trkpt lat="45.81541" lon="5.29613">
        <ele>208.342</ele>
        <time>2019-10-05T12:06:57Z</time>
      </trkpt>
      <trkpt lat="45.81682" lon="5.29708">
        <ele>206.043</ele>
        <time>2019-10-05T12:07:27Z</time>
      </trkpt>
      <trkpt lat="45.8183" lon="5.29789">
        <ele>204.155</ele>
        <time>2019-10-05T12:07:57Z</time>
      </trkpt>
      <trkpt lat="45.82099" lon="5.29751">
        <ele>199.503</ele>
        <time>2019-10-05T12:08:30Z</time>
      </trkpt>
      <trkpt lat="45.82302" lon="5.29761">
        <ele>192.985</ele>
        <time>2019-10-05T12:09:00Z</time>
      </trkpt>
      <trkpt lat="45.82446" lon="5.29825">
        <ele>193.548</ele>
        <time>2019-10-05T12:09:30Z</time>
      </trkpt>
      <trkpt lat="45.8259" lon="5.29795">
        <ele>193.198</ele>
        <time>2019-10-05T12:10:00Z</time>
      </trkpt>
      <trkpt lat="45.82688" lon="5.29839">
        <ele>205.768</ele>
        <time>2019-10-05T12:10:30Z</time>
      </trkpt>
      <trkpt lat="45.82794" lon="5.29881">
        <ele>202.118</ele>
        <time>2019-10-05T12:11:00Z</time>
      </trkpt>
      <trkpt lat="45.82923" lon="5.29955">
        <ele>200.045</ele>
        <time>2019-10-05T12:11:30Z</time>
      </trkpt>
      <trkpt lat="45.8306" lon="5.30031">
        <ele>196.276</ele>
        <time>2019-10-05T12:12:03Z</time>
      </trkpt>
      <trkpt lat="45.83202" lon="5.30086">
        <ele>196.744</ele>
        <time>2019-10-05T12:12:33Z</time>
      </trkpt>
      <trkpt lat="45.83333" lon="5.30156">
        <ele>200.116</ele>
        <time>2019-10-05T12:13:03Z</time>
      </trkpt>
      <trkpt lat="45.8344" lon="5.30216">
        <ele>202.001</ele>
        <time>2019-10-05T12:13:33Z</time>
      </trkpt>
      <trkpt lat="45.8355" lon="5.30279">
        <ele>202.269</ele>
        <time>2019-10-05T12:14:03Z</time>
      </trkpt>
      <trkpt lat="45.83659" lon="5.30339">
        <ele>204.16</ele>
        <time>2019-10-05T12:14:33Z</time>
      </trkpt>
      <trkpt lat="45.83786" lon="5.30415">
        <ele>202.843</ele>
        <time>2019-10-05T12:15:03Z</time>
      </trkpt>
      <trkpt lat="45.83909" lon="5.30492">
        <ele>202.124</ele>
        <time>2019-10-05T12:15:33Z</time>
      </trkpt>
      <trkpt lat="45.84062" lon="5.30577">
        <ele>197.757</ele>
        <time>2019-10-05T12:16:06Z</time>
      </trkpt>
      <trkpt lat="45.84169" lon="5.30681">
        <ele>195.41</ele>
        <time>2019-10-05T12:16:36Z</time>
      </trkpt>
      <trkpt lat="45.84286" lon="5.30763">
        <ele>196.646</ele>
        <time>2019-10-05T12:17:06Z</time>
      </trkpt>
      <trkpt lat="45.8439" lon="5.30882">
        <ele>198.325</ele>
        <time>2019-10-05T12:17:36Z</time>
      </trkpt>
      <trkpt lat="45.84501" lon="5.30991">
        <ele>198.875</ele>
        <time>2019-10-05T12:18:06Z</time>
      </trkpt>
      <trkpt lat="45.84612" lon="5.31109">
        <ele>201.505</ele>
        <time>2019-10-05T12:18:36Z</time>
      </trkpt>
      <trkpt lat="45.84736" lon="5.31227">
        <ele>194.033</ele>
        <time>2019-10-05T12:19:06Z</time>
      </trkpt>
      <trkpt lat="45.84856" lon="5.31357">
        <ele>193.531</ele>
        <time>2019-10-05T12:19:39Z</time>
      </trkpt>
      <trkpt lat="45.84971" lon="5.31471">
        <ele>192.118</ele>
        <time>2019-10-05T12:20:09Z</time>
      </trkpt>
      <trkpt lat="45.85066" lon="5.31606">
        <ele>195.3</ele>
        <time>2019-10-05T12:20:39Z</time>
      </trkpt>
      <trkpt lat="45.85055" lon="5.31786">
        <ele>204.829</ele>
        <time>2019-10-05T12:21:09Z</time>
      </trkpt>
      <trkpt lat="45.85046" lon="5.31988">
        <ele>204.318</ele>
        <time>2019-10-05T12:21:39Z</time>
      </trkpt>
      <trkpt lat="45.85018" lon="5.32186">
        <ele>210.325</ele>
        <time>2019-10-05T12:22:09Z</time>
      </trkpt>
      <trkpt lat="45.85026" lon="5.32367">
        <ele>198.748</ele>
        <time>2019-10-05T12:22:39Z</time>
      </trkpt>
      <trkpt lat="45.85086" lon="5.32531">
        <ele>195.29</ele>
        <time>2019-10-05T12:23:09Z</time>
      </trkpt>
      <trkpt lat="45.85153" lon="5.32702">
        <ele>195.762</ele>
        <time>2019-10-05T12:23:42Z</time>
      </trkpt>
      <trkpt lat="45.85177" lon="5.32874">
        <ele>205.499</ele>
        <time>2019-10-05T12:24:12Z</time>
      </trkpt>
      <trkpt lat="45.8515" lon="5.33061">
        <ele>209.206</ele>
        <time>2019-10-05T12:24:42Z</time>
      </trkpt>
      <trkpt lat="45.85232" lon="5.33165">
        <ele>206.14</ele>
        <time>2019-10-05T12:25:12Z</time>
      </trkpt>
      <trkpt lat="45.85368" lon="5.33199">
        <ele>205.897</ele>
        <time>2019-10-05T12:25:42Z</time>
      </trkpt>
      <trkpt lat="45.85499" lon="5.33251">
        <ele>207.323</ele>
        <time>2019-10-05T12:26:12Z</time>
      </trkpt>
      <trkpt lat="45.85629" lon="5.33287">
        <ele>206.223</ele>
        <time>2019-10-05T12:26:42Z</time>
      </trkpt>
      <trkpt lat="45.85774" lon="5.33369">
        <ele>201.349</ele>
        <time>2019-10-05T12:27:15Z</time>
      </trkpt>
      <trkpt lat="45.85888" lon="5.33437">
        <ele>201.672</ele>
        <time>2019-10-05T12:27:45Z</time>
      </trkpt>
      <trkpt lat="45.85976" lon="5.335">
        <ele>206.282</ele>
        <time>2019-10-05T12:28:15.001Z</time>
      </trkpt>
      <trkpt lat="45.86077" lon="5.33552">
        <ele>204.47</ele>
        <time>2019-10-05T12:28:45Z</time>
      </trkpt>
      <trkpt lat="45.86189" lon="5.33576">
        <ele>206.309</ele>
        <time>2019-10-05T12:29:15Z</time>
      </trkpt>
      <trkpt lat="45.86293" lon="5.33604">
        <ele>212.866</ele>
        <time>2019-10-05T12:29:45Z</time>
      </trkpt>
      <trkpt lat="45.86383" lon="5.33632">
        <ele>202.48</ele>
        <time>2019-10-05T12:30:15Z</time>
      </trkpt>
      <trkpt lat="45.86485" lon="5.33656">
        <ele>204.022</ele>
        <time>2019-10-05T12:30:48Z</time>
      </trkpt>
      <trkpt lat="45.86578" lon="5.33698">
        <ele>201.035</ele>
        <time>2019-10-05T12:31:18Z</time>
      </trkpt>
      <trkpt lat="45.86658" lon="5.33747">
        <ele>202.668</ele>
        <time>2019-10-05T12:31:48Z</time>
      </trkpt>
      <trkpt lat="45.8673" lon="5.33787">
        <ele>202.717</ele>
        <time>2019-10-05T12:32:18Z</time>
      </trkpt>
      <trkpt lat="45.86815" lon="5.3385">
        <ele>202.833</ele>
        <time>2019-10-05T12:32:48Z</time>
      </trkpt>
      <trkpt lat="45.86888" lon="5.33968">
        <ele>203.04</ele>
        <time>2019-10-05T12:33:18Z</time>
      </trkpt>
      <trkpt lat="45.86957" lon="5.34078">
        <ele>205.546</ele>
        <time>2019-10-05T12:33:48Z</time>
      </trkpt>
      <trkpt lat="45.87043" lon="5.34196">
        <ele>204.4</ele>
        <time>2019-10-05T12:34:18Z</time>
      </trkpt>
      <trkpt lat="45.87126" lon="5.34311">
        <ele>203.51</ele>
        <time>2019-10-05T12:34:51Z</time>
      </trkpt>
      <trkpt lat="45.87252" lon="5.34385">
        <ele>200.972</ele>
        <time>2019-10-05T12:35:21Z</time>
      </trkpt>
      <trkpt lat="45.8738" lon="5.34476">
        <ele>200.572</ele>
        <time>2019-10-05T12:35:51Z</time>
      </trkpt>
      <trkpt lat="45.87516" lon="5.34575">
        <ele>202.282</ele>
        <time>2019-10-05T12:36:21Z</time>
      </trkpt>
      <trkpt lat="45.87663" lon="5.34677">
        <ele>198.743</ele>
        <time>2019-10-05T12:36:51Z</time>
      </trkpt>
      <trkpt lat="45.87815" lon="5.34789">
        <ele>196.894</ele>
        <time>2019-10-05T12:37:21Z</time>
      </trkpt>
      <trkpt lat="45.87998" lon="5.34768">
        <ele>196.018</ele>
        <time>2019-10-05T12:37:51Z</time>
      </trkpt>
      <trkpt lat="45.88133" lon="5.34765">
        <ele>203.816</ele>
        <time>2019-10-05T12:38:24Z</time>
      </trkpt>
      <trkpt lat="45.88239" lon="5.34761">
        <ele>211.129</ele>
        <time>2019-10-05T12:38:54Z</time>
      </trkpt>
      <trkpt lat="45.88374" lon="5.34759">
        <ele>204.798</ele>
        <time>2019-10-05T12:39:24Z</time>
      </trkpt>
      <trkpt lat="45.88501" lon="5.34842">
        <ele>202.368</ele>
        <time>2019-10-05T12:39:54Z</time>
      </trkpt>
      <trkpt lat="45.88534" lon="5.3511">
        <ele>197.256</ele>
        <time>2019-10-05T12:40:24Z</time>
      </trkpt>
      <trkpt lat="45.88555" lon="5.35321">
        <ele>193.78</ele>
        <time>2019-10-05T12:40:54Z</time>
      </trkpt>
      <trkpt lat="45.88448" lon="5.35487">
        <ele>195.172</ele>
        <time>2019-10-05T12:41:24Z</time>
      </trkpt>
      <trkpt lat="45.88315" lon="5.35631">
        <ele>193.543</ele>
        <time>2019-10-05T12:41:54Z</time>
      </trkpt>
      <trkpt lat="45.88213" lon="5.35826">
        <ele>195.002</ele>
        <time>2019-10-05T12:42:27Z</time>
      </trkpt>
      <trkpt lat="45.88141" lon="5.3602">
        <ele>196.091</ele>
        <time>2019-10-05T12:42:57Z</time>
      </trkpt>
      <trkpt lat="45.88077" lon="5.36223">
        <ele>194.429</ele>
        <time>2019-10-05T12:43:27Z</time>
      </trkpt>
      <trkpt lat="45.87988" lon="5.36395">
        <ele>194.086</ele>
        <time>2019-10-05T12:43:57Z</time>
      </trkpt>
      <trkpt lat="45.87878" lon="5.3654">
        <ele>194.52</ele>
        <time>2019-10-05T12:44:27Z</time>
      </trkpt>
      <trkpt lat="45.87771" lon="5.36688">
        <ele>193.088</ele>
        <time>2019-10-05T12:44:57Z</time>
      </trkpt>
      <trkpt lat="45.87714" lon="5.36815">
        <ele>196.207</ele>
        <time>2019-10-05T12:47:57Z</time>
      </trkpt>
      <trkpt lat="45.87667" lon="5.36971">
        <ele>199.152</ele>
        <time>2019-10-05T12:48:33Z</time>
      </trkpt>
      <trkpt lat="45.87598" lon="5.37136">
        <ele>197.495</ele>
        <time>2019-10-05T12:49:03Z</time>
      </trkpt>
      <trkpt lat="45.87504" lon="5.3727">
        <ele>196.427</ele>
        <time>2019-10-05T12:49:33Z</time>
      </trkpt>
      <trkpt lat="45.87398" lon="5.37419">
        <ele>196.172</ele>
        <time>2019-10-05T12:50:03Z</time>
      </trkpt>
      <trkpt lat="45.87288" lon="5.37567">
        <ele>194.045</ele>
        <time>2019-10-05T12:50:33Z</time>
      </trkpt>
      <trkpt lat="45.87178" lon="5.37703">
        <ele>195.715</ele>
        <time>2019-10-05T12:51:03Z</time>
      </trkpt>
      <trkpt lat="45.87076" lon="5.37859">
        <ele>195.27</ele>
        <time>2019-10-05T12:51:33Z</time>
      </trkpt>
      <trkpt lat="45.87003" lon="5.38058">
        <ele>197.683</ele>
        <time>2019-10-05T12:52:06Z</time>
      </trkpt>
      <trkpt lat="45.86932" lon="5.38237">
        <ele>197.271</ele>
        <time>2019-10-05T12:52:36Z</time>
      </trkpt>
      <trkpt lat="45.86831" lon="5.3839">
        <ele>196.188</ele>
        <time>2019-10-05T12:53:06Z</time>
      </trkpt>
      <trkpt lat="45.86692" lon="5.38486">
        <ele>194.635</ele>
        <time>2019-10-05T12:53:36Z</time>
      </trkpt>
      <trkpt lat="45.8661" lon="5.38645">
        <ele>197.842</ele>
        <time>2019-10-05T12:54:06Z</time>
      </trkpt>
      <trkpt lat="45.86539" lon="5.38839">
        <ele>194.129</ele>
        <time>2019-10-05T12:54:36Z</time>
      </trkpt>
      <trkpt lat="45.86477" lon="5.39024">
        <ele>196.575</ele>
        <time>2019-10-05T12:55:06Z</time>
      </trkpt>
      <trkpt lat="45.86378" lon="5.39178">
        <ele>195.676</ele>
        <time>2019-10-05T12:55:36Z</time>
      </trkpt>
      <trkpt lat="45.86295" lon="5.39369">
        <ele>198.676</ele>
        <time>2019-10-05T12:56:09Z</time>
      </trkpt>
      <trkpt lat="45.86228" lon="5.3955">
        <ele>199.087</ele>
        <time>2019-10-05T12:56:39Z</time>
      </trkpt>
      <trkpt lat="45.86164" lon="5.39718">
        <ele>199.66</ele>
        <time>2019-10-05T12:57:09Z</time>
      </trkpt>
      <trkpt lat="45.86089" lon="5.39893">
        <ele>201.259</ele>
        <time>2019-10-05T12:57:39Z</time>
      </trkpt>
      <trkpt lat="45.85999" lon="5.40098">
        <ele>197.713</ele>
        <time>2019-10-05T12:58:09Z</time>
      </trkpt>
      <trkpt lat="45.85907" lon="5.40248">
        <ele>195.134</ele>
        <time>2019-10-05T12:58:39Z</time>
      </trkpt>
      <trkpt lat="45.85803" lon="5.40397">
        <ele>194.846</ele>
        <time>2019-10-05T12:59:09Z</time>
      </trkpt>
      <trkpt lat="45.85691" lon="5.40557">
        <ele>196.291</ele>
        <time>2019-10-05T12:59:42Z</time>
      </trkpt>
      <trkpt lat="45.85599" lon="5.40693">
        <ele>197.592</ele>
        <time>2019-10-05T13:00:12Z</time>
      </trkpt>
      <trkpt lat="45.85605" lon="5.40702">
        <ele>194.238</ele>
        <time>2019-10-05T13:02:48Z</time>
      </trkpt>
      <trkpt lat="45.85658" lon="5.40642">
        <ele>195.784</ele>
        <time>2019-10-05T13:03:42Z</time>
      </trkpt>
      <trkpt lat="45.85662" lon="5.40605">
        <ele>187.211</ele>
        <time>2019-10-05T13:05:15Z</time>
      </trkpt>
      <trkpt lat="45.85647" lon="5.40619">
        <ele>188.73</ele>
        <time>2019-10-05T13:06:24Z</time>
      </trkpt>
      <trkpt lat="45.856" lon="5.40695">
        <ele>191.063</ele>
        <time>2019-10-05T13:07:18Z</time>
      </trkpt>
      <trkpt lat="45.856" lon="5.40688">
        <ele>188.805</ele>
        <time>2019-10-05T13:12:42Z</time>
      </trkpt>
      <trkpt lat="45.85596" lon="5.40693">
        <ele>192.855</ele>
        <time>2019-10-05T13:21:18Z</time>
      </trkpt>
      <trkpt lat="45.85607" lon="5.40688">
        <ele>190.165</ele>
        <time>2019-10-05T13:22:39Z</time>
      </trkpt>
      <trkpt lat="45.85579" lon="5.4072">
        <ele>197.136</ele>
        <time>2019-10-05T13:25:48Z</time>
      </trkpt>
      <trkpt lat="45.85568" lon="5.40783">
        <ele>203.156</ele>
        <time>2019-10-05T13:26:21Z</time>
      </trkpt>
      <trkpt lat="45.85511" lon="5.40888">
        <ele>212.775</ele>
        <time>2019-10-05T13:26:51Z</time>
      </trkpt>
      <trkpt lat="45.85436" lon="5.40839">
        <ele>213.731</ele>
        <time>2019-10-05T13:27:21Z</time>
      </trkpt>
      <trkpt lat="45.85364" lon="5.40686">
        <ele>200.909</ele>
        <time>2019-10-05T13:27:51Z</time>
      </trkpt>
      <trkpt lat="45.8528" lon="5.40529">
        <ele>200.716</ele>
        <time>2019-10-05T13:28:24Z</time>
      </trkpt>
      <trkpt lat="45.85196" lon="5.4061">
        <ele>207.259</ele>
        <time>2019-10-05T13:28:54Z</time>
      </trkpt>
      <trkpt lat="45.85089" lon="5.40709">
        <ele>210.308</ele>
        <time>2019-10-05T13:29:24Z</time>
      </trkpt>
      <trkpt lat="45.84972" lon="5.40893">
        <ele>208.481</ele>
        <time>2019-10-05T13:29:54Z</time>
      </trkpt>
      <trkpt lat="45.84867" lon="5.41084">
        <ele>204.076</ele>
        <time>2019-10-05T13:30:24Z</time>
      </trkpt>
      <trkpt lat="45.84762" lon="5.41268">
        <ele>203.306</ele>
        <time>2019-10-05T13:30:54Z</time>
      </trkpt>
      <trkpt lat="45.84637" lon="5.4142">
        <ele>200.964</ele>
        <time>2019-10-05T13:31:24Z</time>
      </trkpt>
      <trkpt lat="45.8447" lon="5.41528">
        <ele>201.293</ele>
        <time>2019-10-05T13:31:57Z</time>
      </trkpt>
      <trkpt lat="45.8431" lon="5.41575">
        <ele>202.86</ele>
        <time>2019-10-05T13:32:27Z</time>
      </trkpt>
      <trkpt lat="45.84152" lon="5.41618">
        <ele>201.219</ele>
        <time>2019-10-05T13:32:57Z</time>
      </trkpt>
      <trkpt lat="45.84" lon="5.41647">
        <ele>204.277</ele>
        <time>2019-10-05T13:33:27Z</time>
      </trkpt>
      <trkpt lat="45.83874" lon="5.41785">
        <ele>204.933</ele>
        <time>2019-10-05T13:33:57Z</time>
      </trkpt>
      <trkpt lat="45.83776" lon="5.41973">
        <ele>203.701</ele>
        <time>2019-10-05T13:34:27Z</time>
      </trkpt>
      <trkpt lat="45.83685" lon="5.42241">
        <ele>196.996</ele>
        <time>2019-10-05T13:34:57Z</time>
      </trkpt>
      <trkpt lat="45.83607" lon="5.42475">
        <ele>194.41</ele>
        <time>2019-10-05T13:35:27Z</time>
      </trkpt>
      <trkpt lat="45.83486" lon="5.42703">
        <ele>200.726</ele>
        <time>2019-10-05T13:36:00Z</time>
      </trkpt>
      <trkpt lat="45.83354" lon="5.42857">
        <ele>203.247</ele>
        <time>2019-10-05T13:36:30Z</time>
      </trkpt>
      <trkpt lat="45.83217" lon="5.43007">
        <ele>201.641</ele>
        <time>2019-10-05T13:37:00Z</time>
      </trkpt>
      <trkpt lat="45.8308" lon="5.43165">
        <ele>200.392</ele>
        <time>2019-10-05T13:37:30Z</time>
      </trkpt>
      <trkpt lat="45.8294" lon="5.43278">
        <ele>200.17</ele>
        <time>2019-10-05T13:38:00Z</time>
      </trkpt>
      <trkpt lat="45.82774" lon="5.43364">
        <ele>198.189</ele>
        <time>2019-10-05T13:38:30Z</time>
      </trkpt>
      <trkpt lat="45.82632" lon="5.43294">
        <ele>198.922</ele>
        <time>2019-10-05T13:39:00Z</time>
      </trkpt>
      <trkpt lat="45.82618" lon="5.43039">
        <ele>199.266</ele>
        <time>2019-10-05T13:39:33Z</time>
      </trkpt>
      <trkpt lat="45.8261" lon="5.42809">
        <ele>198.595</ele>
        <time>2019-10-05T13:40:03Z</time>
      </trkpt>
      <trkpt lat="45.82604" lon="5.4258">
        <ele>198.838</ele>
        <time>2019-10-05T13:40:33Z</time>
      </trkpt>
      <trkpt lat="45.82598" lon="5.42407">
        <ele>201.439</ele>
        <time>2019-10-05T13:41:03Z</time>
      </trkpt>
      <trkpt lat="45.8256" lon="5.42247">
        <ele>199.65</ele>
        <time>2019-10-05T13:41:33Z</time>
      </trkpt>
      <trkpt lat="45.82552" lon="5.42085">
        <ele>204.574</ele>
        <time>2019-10-05T13:42:03Z</time>
      </trkpt>
      <trkpt lat="45.82461" lon="5.42012">
        <ele>205.556</ele>
        <time>2019-10-05T13:42:33Z</time>
      </trkpt>
      <trkpt lat="45.82319" lon="5.41993">
        <ele>204.253</ele>
        <time>2019-10-05T13:43:03Z</time>
      </trkpt>
      <trkpt lat="45.8219" lon="5.41947">
        <ele>201.03</ele>
        <time>2019-10-05T13:43:36Z</time>
      </trkpt>
      <trkpt lat="45.82059" lon="5.41929">
        <ele>199.651</ele>
        <time>2019-10-05T13:44:06Z</time>
      </trkpt>
      <trkpt lat="45.81905" lon="5.41885">
        <ele>200.221</ele>
        <time>2019-10-05T13:44:36Z</time>
      </trkpt>
      <trkpt lat="45.81819" lon="5.41735">
        <ele>200.17</ele>
        <time>2019-10-05T13:45:06Z</time>
      </trkpt>
      <trkpt lat="45.81734" lon="5.41601">
        <ele>200.721</ele>
        <time>2019-10-05T13:45:36Z</time>
      </trkpt>
      <trkpt lat="45.81696" lon="5.41419">
        <ele>201.158</ele>
        <time>2019-10-05T13:46:06Z</time>
      </trkpt>
      <trkpt lat="45.81654" lon="5.41258">
        <ele>200.66</ele>
        <time>2019-10-05T13:46:36Z</time>
      </trkpt>
      <trkpt lat="45.81608" lon="5.4105">
        <ele>204.769</ele>
        <time>2019-10-05T13:47:09Z</time>
      </trkpt>
      <trkpt lat="45.81572" lon="5.40888">
        <ele>200.624</ele>
        <time>2019-10-05T13:47:39Z</time>
      </trkpt>
      <trkpt lat="45.81556" lon="5.40765">
        <ele>213.933</ele>
        <time>2019-10-05T13:48:09Z</time>
      </trkpt>
      <trkpt lat="45.81517" lon="5.40694">
        <ele>221.108</ele>
        <time>2019-10-05T13:48:39Z</time>
      </trkpt>
      <trkpt lat="45.81538" lon="5.40582">
        <ele>221.397</ele>
        <time>2019-10-05T13:49:09Z</time>
      </trkpt>
      <trkpt lat="45.81559" lon="5.40478">
        <ele>228.163</ele>
        <time>2019-10-05T13:49:39Z</time>
      </trkpt>
      <trkpt lat="45.81514" lon="5.40412">
        <ele>231.6</ele>
        <time>2019-10-05T13:50:15Z</time>
      </trkpt>
      <trkpt lat="45.81359" lon="5.40371">
        <ele>227.542</ele>
        <time>2019-10-05T13:50:48Z</time>
      </trkpt>
      <trkpt lat="45.81174" lon="5.4032">
        <ele>221.856</ele>
        <time>2019-10-05T13:51:18Z</time>
      </trkpt>
      <trkpt lat="45.81064" lon="5.40295">
        <ele>219.597</ele>
        <time>2019-10-05T13:51:48Z</time>
      </trkpt>
      <trkpt lat="45.81025" lon="5.40347">
        <ele>221.353</ele>
        <time>2019-10-05T13:52:18Z</time>
      </trkpt>
      <trkpt lat="45.81046" lon="5.40401">
        <ele>217.358</ele>
        <time>2019-10-05T14:08:27Z</time>
      </trkpt>
      <trkpt lat="45.81065" lon="5.40384">
        <ele>216.574</ele>
        <time>2019-10-05T14:21:48Z</time>
      </trkpt>
      <trkpt lat="45.81041" lon="5.40294">
        <ele>225.273</ele>
        <time>2019-10-05T14:22:18Z</time>
      </trkpt>
      <trkpt lat="45.80939" lon="5.40259">
        <ele>232.185</ele>
        <time>2019-10-05T14:22:48Z</time>
      </trkpt>
      <trkpt lat="45.80824" lon="5.40298">
        <ele>223.391</ele>
        <time>2019-10-05T14:23:21Z</time>
      </trkpt>
      <trkpt lat="45.80749" lon="5.40564">
        <ele>218.017</ele>
        <time>2019-10-05T14:23:51Z</time>
      </trkpt>
      <trkpt lat="45.80678" lon="5.40807">
        <ele>214.449</ele>
        <time>2019-10-05T14:24:21Z</time>
      </trkpt>
      <trkpt lat="45.80612" lon="5.41029">
        <ele>217.2</ele>
        <time>2019-10-05T14:24:51Z</time>
      </trkpt>
      <trkpt lat="45.80556" lon="5.41076">
        <ele>218.996</ele>
        <time>2019-10-05T14:25:21Z</time>
      </trkpt>
      <trkpt lat="45.80508" lon="5.40985">
        <ele>225.573</ele>
        <time>2019-10-05T14:25:51Z</time>
      </trkpt>
      <trkpt lat="45.80403" lon="5.40912">
        <ele>232.615</ele>
        <time>2019-10-05T14:26:21Z</time>
      </trkpt>
      <trkpt lat="45.80421" lon="5.40933">
        <ele>228.603</ele>
        <time>2019-10-05T14:27:42Z</time>
      </trkpt>
      <trkpt lat="45.80526" lon="5.41025">
        <ele>224.454</ele>
        <time>2019-10-05T14:28:12Z</time>
      </trkpt>
      <trkpt lat="45.8054" lon="5.41219">
        <ele>212.057</ele>
        <time>2019-10-05T14:28:45Z</time>
      </trkpt>
      <trkpt lat="45.80464" lon="5.41385">
        <ele>214.581</ele>
        <time>2019-10-05T14:29:15Z</time>
      </trkpt>
      <trkpt lat="45.80378" lon="5.41547">
        <ele>219.246</ele>
        <time>2019-10-05T14:29:45Z</time>
      </trkpt>
      <trkpt lat="45.80299" lon="5.41712">
        <ele>222</ele>
        <time>2019-10-05T14:30:15Z</time>
      </trkpt>
      <trkpt lat="45.8021" lon="5.41677">
        <ele>216.871</ele>
        <time>2019-10-05T14:30:45Z</time>
      </trkpt>
      <trkpt lat="45.80094" lon="5.4156">
        <ele>220.85</ele>
        <time>2019-10-05T14:31:15Z</time>
      </trkpt>
      <trkpt lat="45.79985" lon="5.41509">
        <ele>228.238</ele>
        <time>2019-10-05T14:31:48Z</time>
      </trkpt>
      <trkpt lat="45.79887" lon="5.41392">
        <ele>225.534</ele>
        <time>2019-10-05T14:32:18Z</time>
      </trkpt>
      <trkpt lat="45.79764" lon="5.41436">
        <ele>225.191</ele>
        <time>2019-10-05T14:32:48Z</time>
      </trkpt>
      <trkpt lat="45.79696" lon="5.41479">
        <ele>228.716</ele>
        <time>2019-10-05T14:33:18Z</time>
      </trkpt>
      <trkpt lat="45.79638" lon="5.41484">
        <ele>236.535</ele>
        <time>2019-10-05T14:33:51Z</time>
      </trkpt>
      <trkpt lat="45.79565" lon="5.41497">
        <ele>250.808</ele>
        <time>2019-10-05T14:34:30Z</time>
      </trkpt>
      <trkpt lat="45.79516" lon="5.41432">
        <ele>248.21</ele>
        <time>2019-10-05T14:35:00Z</time>
      </trkpt>
      <trkpt lat="45.79518" lon="5.41526">
        <ele>240.567</ele>
        <time>2019-10-05T14:35:33Z</time>
      </trkpt>
      <trkpt lat="45.79463" lon="5.41554">
        <ele>244.295</ele>
        <time>2019-10-05T14:36:48Z</time>
      </trkpt>
      <trkpt lat="45.79376" lon="5.4157">
        <ele>247.863</ele>
        <time>2019-10-05T14:37:18Z</time>
      </trkpt>
      <trkpt lat="45.79469" lon="5.41552">
        <ele>248.319</ele>
        <time>2019-10-05T14:39:00Z</time>
      </trkpt>
      <trkpt lat="45.79559" lon="5.41544">
        <ele>242.371</ele>
        <time>2019-10-05T14:39:30Z</time>
      </trkpt>
      <trkpt lat="45.79543" lon="5.41501">
        <ele>244.14</ele>
        <time>2019-10-05T14:46:27Z</time>
      </trkpt>
      <trkpt lat="45.79483" lon="5.41361">
        <ele>244.543</ele>
        <time>2019-10-05T14:46:57Z</time>
      </trkpt>
      <trkpt lat="45.79396" lon="5.41271">
        <ele>244.652</ele>
        <time>2019-10-05T14:47:30Z</time>
      </trkpt>
      <trkpt lat="45.79359" lon="5.41172">
        <ele>252.022</ele>
        <time>2019-10-05T14:48:00Z</time>
      </trkpt>
      <trkpt lat="45.79379" lon="5.41065">
        <ele>258.672</ele>
        <time>2019-10-05T14:48:30Z</time>
      </trkpt>
      <trkpt lat="45.79363" lon="5.40963">
        <ele>263.49</ele>
        <time>2019-10-05T14:49:00Z</time>
      </trkpt>
      <trkpt lat="45.79285" lon="5.40862">
        <ele>264.436</ele>
        <time>2019-10-05T14:49:30Z</time>
      </trkpt>
      <trkpt lat="45.79205" lon="5.40781">
        <ele>266.303</ele>
        <time>2019-10-05T14:50:00Z</time>
      </trkpt>
      <trkpt lat="45.79125" lon="5.40753">
        <ele>271.342</ele>
        <time>2019-10-05T14:50:30Z</time>
      </trkpt>
      <trkpt lat="45.79066" lon="5.40736">
        <ele>278.614</ele>
        <time>2019-10-05T14:51:00Z</time>
      </trkpt>
      <trkpt lat="45.78991" lon="5.40724">
        <ele>282.753</ele>
        <time>2019-10-05T14:51:33Z</time>
      </trkpt>
      <trkpt lat="45.78917" lon="5.40744">
        <ele>284.972</ele>
        <time>2019-10-05T14:52:03Z</time>
      </trkpt>
      <trkpt lat="45.78806" lon="5.40727">
        <ele>283.239</ele>
        <time>2019-10-05T14:52:33Z</time>
      </trkpt>
      <trkpt lat="45.78713" lon="5.40693">
        <ele>286.853</ele>
        <time>2019-10-05T14:53:03Z</time>
      </trkpt>
      <trkpt lat="45.78649" lon="5.40649">
        <ele>294.326</ele>
        <time>2019-10-05T14:53:33Z</time>
      </trkpt>
      <trkpt lat="45.78597" lon="5.40597">
        <ele>298.901</ele>
        <time>2019-10-05T14:54:03Z</time>
      </trkpt>
      <trkpt lat="45.78541" lon="5.40615">
        <ele>307.609</ele>
        <time>2019-10-05T14:54:36Z</time>
      </trkpt>
      <trkpt lat="45.78539" lon="5.40665">
        <ele>305.811</ele>
        <time>2019-10-05T14:55:24Z</time>
      </trkpt>
      <trkpt lat="45.78604" lon="5.40698">
        <ele>309.09</ele>
        <time>2019-10-05T14:55:54Z</time>
      </trkpt>
      <trkpt lat="45.78622" lon="5.40767">
        <ele>308.103</ele>
        <time>2019-10-05T14:56:24Z</time>
      </trkpt>
      <trkpt lat="45.78599" lon="5.40795">
        <ele>306.289</ele>
        <time>2019-10-05T14:59:36Z</time>
      </trkpt>
    </trkseg>
  </trk>
  <trk>
    <name><![CDATA[Tracé 20191117-084809]]></name>
    <trkseg>
      <trkpt lat="50.06812" lon="1.38587">
        <ele>13.43</ele>
        <time>2019-11-17T08:06:54Z</time>
      </trkpt>
      <trkpt lat="50.06677" lon="1.38492">
        <ele>17.001</ele>
        <time>2019-11-17T08:07:27Z</time>
      </trkpt>
      <trkpt lat="50.06609" lon="1.38544">
        <ele>11.255</ele>
        <time>2019-11-17T08:07:57Z</time>
      </trkpt>
      <trkpt lat="50.06604" lon="1.38757">
        <ele>6.786</ele>
        <time>2019-11-17T08:08:27Z</time>
      </trkpt>
      <trkpt lat="50.06566" lon="1.39">
        <ele>8.316</ele>
        <time>2019-11-17T08:09:00Z</time>
      </trkpt>
      <trkpt lat="50.06533" lon="1.39209">
        <ele>12.414</ele>
        <time>2019-11-17T08:09:30Z</time>
      </trkpt>
      <trkpt lat="50.06491" lon="1.39439">
        <ele>17.091</ele>
        <time>2019-11-17T08:10:03Z</time>
      </trkpt>
      <trkpt lat="50.06447" lon="1.3966">
        <ele>11.412</ele>
        <time>2019-11-17T08:10:33Z</time>
      </trkpt>
      <trkpt lat="50.06398" lon="1.39855">
        <ele>18.402</ele>
        <time>2019-11-17T08:11:03Z</time>
      </trkpt>
      <trkpt lat="50.06328" lon="1.40064">
        <ele>8.99</ele>
        <time>2019-11-17T08:11:36Z</time>
      </trkpt>
      <trkpt lat="50.06266" lon="1.40254">
        <ele>8.601</ele>
        <time>2019-11-17T08:12:06Z</time>
      </trkpt>
      <trkpt lat="50.06199" lon="1.40452">
        <ele>7.953</ele>
        <time>2019-11-17T08:12:36Z</time>
      </trkpt>
      <trkpt lat="50.06124" lon="1.4067">
        <ele>5.271</ele>
        <time>2019-11-17T08:13:09Z</time>
      </trkpt>
      <trkpt lat="50.06045" lon="1.40854">
        <ele>5.21</ele>
        <time>2019-11-17T08:13:39Z</time>
      </trkpt>
      <trkpt lat="50.05997" lon="1.41054">
        <ele>6.029</ele>
        <time>2019-11-17T08:14:12Z</time>
      </trkpt>
      <trkpt lat="50.06005" lon="1.41243">
        <ele>9.229</ele>
        <time>2019-11-17T08:14:42Z</time>
      </trkpt>
      <trkpt lat="50.05958" lon="1.41402">
        <ele>11.343</ele>
        <time>2019-11-17T08:15:12Z</time>
      </trkpt>
      <trkpt lat="50.05903" lon="1.4156">
        <ele>15.266</ele>
        <time>2019-11-17T08:15:45Z</time>
      </trkpt>
      <trkpt lat="50.0586" lon="1.41727">
        <ele>15.511</ele>
        <time>2019-11-17T08:16:15Z</time>
      </trkpt>
      <trkpt lat="50.05781" lon="1.41964">
        <ele>12.142</ele>
        <time>2019-11-17T08:16:48Z</time>
      </trkpt>
      <trkpt lat="50.05702" lon="1.42151">
        <ele>9.84</ele>
        <time>2019-11-17T08:17:18Z</time>
      </trkpt>
      <trkpt lat="50.05625" lon="1.42385">
        <ele>11.728</ele>
        <time>2019-11-17T08:17:48Z</time>
      </trkpt>
      <trkpt lat="50.05717" lon="1.424">
        <ele>12.27</ele>
        <time>2019-11-17T08:18:21Z</time>
      </trkpt>
      <trkpt lat="50.05842" lon="1.42392">
        <ele>12.485</ele>
        <time>2019-11-17T08:18:51Z</time>
      </trkpt>
      <trkpt lat="50.05955" lon="1.42378">
        <ele>18.058</ele>
        <time>2019-11-17T08:19:24Z</time>
      </trkpt>
      <trkpt lat="50.06058" lon="1.42382">
        <ele>22.536</ele>
        <time>2019-11-17T08:19:54Z</time>
      </trkpt>
      <trkpt lat="50.06161" lon="1.42403">
        <ele>20.814</ele>
        <time>2019-11-17T08:20:24Z</time>
      </trkpt>
      <trkpt lat="50.06253" lon="1.42467">
        <ele>19.086</ele>
        <time>2019-11-17T08:20:57Z</time>
      </trkpt>
      <trkpt lat="50.06314" lon="1.42567">
        <ele>29.755</ele>
        <time>2019-11-17T08:21:27Z</time>
      </trkpt>
      <trkpt lat="50.06395" lon="1.42685">
        <ele>29.985</ele>
        <time>2019-11-17T08:22:00Z</time>
      </trkpt>
      <trkpt lat="50.06453" lon="1.42752">
        <ele>29.654</ele>
        <time>2019-11-17T08:22:30Z</time>
      </trkpt>
      <trkpt lat="50.06496" lon="1.42809">
        <ele>36.975</ele>
        <time>2019-11-17T08:23:00Z</time>
      </trkpt>
      <trkpt lat="50.06546" lon="1.4291">
        <ele>42.604</ele>
        <time>2019-11-17T08:23:33Z</time>
      </trkpt>
      <trkpt lat="50.066" lon="1.43019">
        <ele>45.143</ele>
        <time>2019-11-17T08:24:03Z</time>
      </trkpt>
      <trkpt lat="50.06656" lon="1.43129">
        <ele>44.373</ele>
        <time>2019-11-17T08:24:33Z</time>
      </trkpt>
      <trkpt lat="50.0672" lon="1.43269">
        <ele>44.757</ele>
        <time>2019-11-17T08:25:06Z</time>
      </trkpt>
      <trkpt lat="50.06768" lon="1.4341">
        <ele>47.175</ele>
        <time>2019-11-17T08:25:36Z</time>
      </trkpt>
      <trkpt lat="50.06813" lon="1.43585">
        <ele>46.615</ele>
        <time>2019-11-17T08:26:09Z</time>
      </trkpt>
      <trkpt lat="50.06841" lon="1.43708">
        <ele>50.216</ele>
        <time>2019-11-17T08:26:39Z</time>
      </trkpt>
      <trkpt lat="50.06853" lon="1.43845">
        <ele>52.883</ele>
        <time>2019-11-17T08:27:09Z</time>
      </trkpt>
      <trkpt lat="50.06846" lon="1.43976">
        <ele>58.187</ele>
        <time>2019-11-17T08:27:42Z</time>
      </trkpt>
      <trkpt lat="50.06844" lon="1.44088">
        <ele>60.372</ele>
        <time>2019-11-17T08:28:12Z</time>
      </trkpt>
      <trkpt lat="50.06829" lon="1.44204">
        <ele>64.594</ele>
        <time>2019-11-17T08:28:45Z</time>
      </trkpt>
      <trkpt lat="50.06814" lon="1.44314">
        <ele>67.965</ele>
        <time>2019-11-17T08:29:15Z</time>
      </trkpt>
      <trkpt lat="50.068" lon="1.44442">
        <ele>66.937</ele>
        <time>2019-11-17T08:29:45Z</time>
      </trkpt>
      <trkpt lat="50.06806" lon="1.44606">
        <ele>67.855</ele>
        <time>2019-11-17T08:30:18Z</time>
      </trkpt>
      <trkpt lat="50.0683" lon="1.44706">
        <ele>76.448</ele>
        <time>2019-11-17T08:30:48Z</time>
      </trkpt>
      <trkpt lat="50.06866" lon="1.44808">
        <ele>80.806</ele>
        <time>2019-11-17T08:31:21Z</time>
      </trkpt>
      <trkpt lat="50.06903" lon="1.44899">
        <ele>79.378</ele>
        <time>2019-11-17T08:31:51Z</time>
      </trkpt>
      <trkpt lat="50.06963" lon="1.44968">
        <ele>77.176</ele>
        <time>2019-11-17T08:32:21Z</time>
      </trkpt>
      <trkpt lat="50.07032" lon="1.45064">
        <ele>83.828</ele>
        <time>2019-11-17T08:32:54Z</time>
      </trkpt>
      <trkpt lat="50.07086" lon="1.45165">
        <ele>91.923</ele>
        <time>2019-11-17T08:33:24Z</time>
      </trkpt>
      <trkpt lat="50.07125" lon="1.45258">
        <ele>102.44</ele>
        <time>2019-11-17T08:33:57Z</time>
      </trkpt>
      <trkpt lat="50.07163" lon="1.45345">
        <ele>94.389</ele>
        <time>2019-11-17T08:34:27Z</time>
      </trkpt>
      <trkpt lat="50.07203" lon="1.45425">
        <ele>98.935</ele>
        <time>2019-11-17T08:34:57Z</time>
      </trkpt>
      <trkpt lat="50.07249" lon="1.45518">
        <ele>100.459</ele>
        <time>2019-11-17T08:35:30Z</time>
      </trkpt>
      <trkpt lat="50.07308" lon="1.45595">
        <ele>103.187</ele>
        <time>2019-11-17T08:36:00Z</time>
      </trkpt>
      <trkpt lat="50.07364" lon="1.45675">
        <ele>103.572</ele>
        <time>2019-11-17T08:36:30Z</time>
      </trkpt>
      <trkpt lat="50.0743" lon="1.45771">
        <ele>110.238</ele>
        <time>2019-11-17T08:37:03Z</time>
      </trkpt>
      <trkpt lat="50.0749" lon="1.4584">
        <ele>111.732</ele>
        <time>2019-11-17T08:37:33Z</time>
      </trkpt>
      <trkpt lat="50.07569" lon="1.45931">
        <ele>108.653</ele>
        <time>2019-11-17T08:38:06Z</time>
      </trkpt>
      <trkpt lat="50.07653" lon="1.46017">
        <ele>112.754</ele>
        <time>2019-11-17T08:38:36Z</time>
      </trkpt>
      <trkpt lat="50.07754" lon="1.46114">
        <ele>111.271</ele>
        <time>2019-11-17T08:39:06Z</time>
      </trkpt>
      <trkpt lat="50.07873" lon="1.46254">
        <ele>108.385</ele>
        <time>2019-11-17T08:39:39Z</time>
      </trkpt>
      <trkpt lat="50.07995" lon="1.46407">
        <ele>103.774</ele>
        <time>2019-11-17T08:40:09Z</time>
      </trkpt>
      <trkpt lat="50.08147" lon="1.4658">
        <ele>102.31</ele>
        <time>2019-11-17T08:40:42Z</time>
      </trkpt>
      <trkpt lat="50.08259" lon="1.46778">
        <ele>97.553</ele>
        <time>2019-11-17T08:41:12Z</time>
      </trkpt>
      <trkpt lat="50.08375" lon="1.46979">
        <ele>98.164</ele>
        <time>2019-11-17T08:41:42Z</time>
      </trkpt>
      <trkpt lat="50.08518" lon="1.47151">
        <ele>99.212</ele>
        <time>2019-11-17T08:42:15Z</time>
      </trkpt>
      <trkpt lat="50.0865" lon="1.47307">
        <ele>93.286</ele>
        <time>2019-11-17T08:42:45Z</time>
      </trkpt>
      <trkpt lat="50.08824" lon="1.47415">
        <ele>91.941</ele>
        <time>2019-11-17T08:43:18Z</time>
      </trkpt>
      <trkpt lat="50.08936" lon="1.47487">
        <ele>94.69</ele>
        <time>2019-11-17T08:43:51Z</time>
      </trkpt>
      <trkpt lat="50.09052" lon="1.47532">
        <ele>96.257</ele>
        <time>2019-11-17T08:44:21Z</time>
      </trkpt>
      <trkpt lat="50.09174" lon="1.4764">
        <ele>98.265</ele>
        <time>2019-11-17T08:44:54Z</time>
      </trkpt>
      <trkpt lat="50.09252" lon="1.4779">
        <ele>96.13</ele>
        <time>2019-11-17T08:45:24Z</time>
      </trkpt>
      <trkpt lat="50.09341" lon="1.48015">
        <ele>92.205</ele>
        <time>2019-11-17T08:45:57Z</time>
      </trkpt>
      <trkpt lat="50.09467" lon="1.48275">
        <ele>88.06</ele>
        <time>2019-11-17T08:46:27Z</time>
      </trkpt>
      <trkpt lat="50.09537" lon="1.48545">
        <ele>85.245</ele>
        <time>2019-11-17T08:46:57Z</time>
      </trkpt>
      <trkpt lat="50.09668" lon="1.48772">
        <ele>79.917</ele>
        <time>2019-11-17T08:47:30Z</time>
      </trkpt>
      <trkpt lat="50.09803" lon="1.48984">
        <ele>75.934</ele>
        <time>2019-11-17T08:48:00Z</time>
      </trkpt>
      <trkpt lat="50.09902" lon="1.49216">
        <ele>74.657</ele>
        <time>2019-11-17T08:48:30Z</time>
      </trkpt>
      <trkpt lat="50.10003" lon="1.49526">
        <ele>68.755</ele>
        <time>2019-11-17T08:49:03Z</time>
      </trkpt>
      <trkpt lat="50.10129" lon="1.49842">
        <ele>59.756</ele>
        <time>2019-11-17T08:49:33Z</time>
      </trkpt>
      <trkpt lat="50.10199" lon="1.50188">
        <ele>54.768</ele>
        <time>2019-11-17T08:50:06Z</time>
      </trkpt>
      <trkpt lat="50.10228" lon="1.503">
        <ele>60.472</ele>
        <time>2019-11-17T08:50:36Z</time>
      </trkpt>
      <trkpt lat="50.10253" lon="1.50432">
        <ele>63.299</ele>
        <time>2019-11-17T08:51:06Z</time>
      </trkpt>
      <trkpt lat="50.10282" lon="1.50638">
        <ele>62.487</ele>
        <time>2019-11-17T08:51:39Z</time>
      </trkpt>
      <trkpt lat="50.10315" lon="1.50855">
        <ele>60.964</ele>
        <time>2019-11-17T08:52:09Z</time>
      </trkpt>
      <trkpt lat="50.10358" lon="1.51098">
        <ele>58.912</ele>
        <time>2019-11-17T08:52:42Z</time>
      </trkpt>
      <trkpt lat="50.10402" lon="1.51295">
        <ele>60.412</ele>
        <time>2019-11-17T08:53:12Z</time>
      </trkpt>
      <trkpt lat="50.10411" lon="1.51505">
        <ele>61.566</ele>
        <time>2019-11-17T08:53:42Z</time>
      </trkpt>
      <trkpt lat="50.10414" lon="1.51763">
        <ele>59.927</ele>
        <time>2019-11-17T08:54:15Z</time>
      </trkpt>
      <trkpt lat="50.10293" lon="1.51878">
        <ele>65.987</ele>
        <time>2019-11-17T08:54:45Z</time>
      </trkpt>
      <trkpt lat="50.10235" lon="1.51984">
        <ele>73.059</ele>
        <time>2019-11-17T08:55:18Z</time>
      </trkpt>
      <trkpt lat="50.10371" lon="1.5208">
        <ele>69.744</ele>
        <time>2019-11-17T08:55:48Z</time>
      </trkpt>
      <trkpt lat="50.10484" lon="1.52242">
        <ele>69.465</ele>
        <time>2019-11-17T08:56:18Z</time>
      </trkpt>
      <trkpt lat="50.10545" lon="1.52425">
        <ele>64.38</ele>
        <time>2019-11-17T08:56:51Z</time>
      </trkpt>
      <trkpt lat="50.10598" lon="1.52632">
        <ele>64.745</ele>
        <time>2019-11-17T08:57:21Z</time>
      </trkpt>
      <trkpt lat="50.10635" lon="1.52869">
        <ele>59.454</ele>
        <time>2019-11-17T08:57:54Z</time>
      </trkpt>
      <trkpt lat="50.10755" lon="1.5297">
        <ele>62.861</ele>
        <time>2019-11-17T08:58:24Z</time>
      </trkpt>
      <trkpt lat="50.10855" lon="1.53147">
        <ele>64.231</ele>
        <time>2019-11-17T08:58:54Z</time>
      </trkpt>
      <trkpt lat="50.10996" lon="1.53165">
        <ele>60.867</ele>
        <time>2019-11-17T08:59:27Z</time>
      </trkpt>
      <trkpt lat="50.11141" lon="1.53197">
        <ele>61.7</ele>
        <time>2019-11-17T08:59:57Z</time>
      </trkpt>
      <trkpt lat="50.11274" lon="1.53264">
        <ele>61.728</ele>
        <time>2019-11-17T09:00:27Z</time>
      </trkpt>
      <trkpt lat="50.11385" lon="1.53376">
        <ele>58.401</ele>
        <time>2019-11-17T09:01:00Z</time>
      </trkpt>
      <trkpt lat="50.11441" lon="1.53547">
        <ele>60.094</ele>
        <time>2019-11-17T09:01:30Z</time>
      </trkpt>
      <trkpt lat="50.11488" lon="1.53765">
        <ele>57.509</ele>
        <time>2019-11-17T09:02:03Z</time>
      </trkpt>
      <trkpt lat="50.11563" lon="1.53942">
        <ele>57.434</ele>
        <time>2019-11-17T09:02:33Z</time>
      </trkpt>
      <trkpt lat="50.11639" lon="1.54116">
        <ele>57.313</ele>
        <time>2019-11-17T09:03:03Z</time>
      </trkpt>
      <trkpt lat="50.11715" lon="1.54317">
        <ele>57.525</ele>
        <time>2019-11-17T09:03:36Z</time>
      </trkpt>
      <trkpt lat="50.1175" lon="1.54533">
        <ele>62.245</ele>
        <time>2019-11-17T09:04:06Z</time>
      </trkpt>
      <trkpt lat="50.1181" lon="1.54799">
        <ele>59.774</ele>
        <time>2019-11-17T09:04:39Z</time>
      </trkpt>
      <trkpt lat="50.11952" lon="1.54933">
        <ele>55.236</ele>
        <time>2019-11-17T09:05:09Z</time>
      </trkpt>
      <trkpt lat="50.1201" lon="1.55172">
        <ele>57.509</ele>
        <time>2019-11-17T09:05:39Z</time>
      </trkpt>
      <trkpt lat="50.12179" lon="1.55305">
        <ele>51.981</ele>
        <time>2019-11-17T09:06:12Z</time>
      </trkpt>
      <trkpt lat="50.12336" lon="1.55466">
        <ele>49.548</ele>
        <time>2019-11-17T09:06:42Z</time>
      </trkpt>
      <trkpt lat="50.12509" lon="1.55662">
        <ele>39.676</ele>
        <time>2019-11-17T09:07:15Z</time>
      </trkpt>
      <trkpt lat="50.12662" lon="1.55911">
        <ele>32.443</ele>
        <time>2019-11-17T09:07:45Z</time>
      </trkpt>
      <trkpt lat="50.12721" lon="1.5619">
        <ele>32.414</ele>
        <time>2019-11-17T09:08:15Z</time>
      </trkpt>
      <trkpt lat="50.12834" lon="1.56342">
        <ele>34.211</ele>
        <time>2019-11-17T09:08:48Z</time>
      </trkpt>
      <trkpt lat="50.12899" lon="1.56432">
        <ele>40.465</ele>
        <time>2019-11-17T09:09:18Z</time>
      </trkpt>
      <trkpt lat="50.12936" lon="1.56525">
        <ele>51.603</ele>
        <time>2019-11-17T09:09:51Z</time>
      </trkpt>
      <trkpt lat="50.12963" lon="1.56605">
        <ele>68.438</ele>
        <time>2019-11-17T09:10:21Z</time>
      </trkpt>
      <trkpt lat="50.13021" lon="1.56702">
        <ele>75.11</ele>
        <time>2019-11-17T09:10:51Z</time>
      </trkpt>
      <trkpt lat="50.13116" lon="1.56819">
        <ele>57.204</ele>
        <time>2019-11-17T09:11:24Z</time>
      </trkpt>
      <trkpt lat="50.13259" lon="1.56868">
        <ele>50.62</ele>
        <time>2019-11-17T09:11:54Z</time>
      </trkpt>
      <trkpt lat="50.13362" lon="1.57042">
        <ele>45.041</ele>
        <time>2019-11-17T09:12:24Z</time>
      </trkpt>
      <trkpt lat="50.13512" lon="1.5722">
        <ele>43.791</ele>
        <time>2019-11-17T09:12:57Z</time>
      </trkpt>
      <trkpt lat="50.13632" lon="1.57436">
        <ele>42.499</ele>
        <time>2019-11-17T09:13:27Z</time>
      </trkpt>
      <trkpt lat="50.13705" lon="1.57708">
        <ele>44.181</ele>
        <time>2019-11-17T09:14:00Z</time>
      </trkpt>
      <trkpt lat="50.1377" lon="1.57929">
        <ele>45.213</ele>
        <time>2019-11-17T09:14:30Z</time>
      </trkpt>
      <trkpt lat="50.13883" lon="1.58108">
        <ele>43.323</ele>
        <time>2019-11-17T09:15:00Z</time>
      </trkpt>
      <trkpt lat="50.14009" lon="1.58282">
        <ele>39.813</ele>
        <time>2019-11-17T09:15:33Z</time>
      </trkpt>
      <trkpt lat="50.14054" lon="1.58492">
        <ele>42.047</ele>
        <time>2019-11-17T09:16:03Z</time>
      </trkpt>
      <trkpt lat="50.14106" lon="1.58733">
        <ele>43.361</ele>
        <time>2019-11-17T09:16:36Z</time>
      </trkpt>
      <trkpt lat="50.14147" lon="1.58975">
        <ele>41.563</ele>
        <time>2019-11-17T09:17:06Z</time>
      </trkpt>
      <trkpt lat="50.14219" lon="1.59241">
        <ele>38.379</ele>
        <time>2019-11-17T09:17:36Z</time>
      </trkpt>
      <trkpt lat="50.144" lon="1.5943">
        <ele>31.995</ele>
        <time>2019-11-17T09:18:09Z</time>
      </trkpt>
      <trkpt lat="50.1455" lon="1.59612">
        <ele>28.213</ele>
        <time>2019-11-17T09:18:39Z</time>
      </trkpt>
      <trkpt lat="50.14703" lon="1.59799">
        <ele>26.127</ele>
        <time>2019-11-17T09:19:12Z</time>
      </trkpt>
      <trkpt lat="50.14798" lon="1.59971">
        <ele>26.955</ele>
        <time>2019-11-17T09:19:42Z</time>
      </trkpt>
      <trkpt lat="50.14894" lon="1.6014">
        <ele>28.326</ele>
        <time>2019-11-17T09:20:12Z</time>
      </trkpt>
      <trkpt lat="50.15004" lon="1.60353">
        <ele>25.996</ele>
        <time>2019-11-17T09:20:45Z</time>
      </trkpt>
      <trkpt lat="50.15115" lon="1.6059">
        <ele>24.061</ele>
        <time>2019-11-17T09:21:15Z</time>
      </trkpt>
      <trkpt lat="50.15261" lon="1.60874">
        <ele>14.353</ele>
        <time>2019-11-17T09:21:48Z</time>
      </trkpt>
      <trkpt lat="50.15456" lon="1.60982">
        <ele>8.018</ele>
        <time>2019-11-17T09:22:18Z</time>
      </trkpt>
      <trkpt lat="50.15553" lon="1.60795">
        <ele>8.294</ele>
        <time>2019-11-17T09:22:48Z</time>
      </trkpt>
      <trkpt lat="50.15552" lon="1.60791">
        <ele>10.345</ele>
        <time>2019-11-17T09:23:33Z</time>
      </trkpt>
      <trkpt lat="50.15644" lon="1.6092">
        <ele>8.537</ele>
        <time>2019-11-17T09:24:03Z</time>
      </trkpt>
      <trkpt lat="50.15707" lon="1.60996">
        <ele>18.401</ele>
        <time>2019-11-17T09:24:33Z</time>
      </trkpt>
      <trkpt lat="50.15788" lon="1.61105">
        <ele>21.703</ele>
        <time>2019-11-17T09:25:06Z</time>
      </trkpt>
      <trkpt lat="50.15854" lon="1.6119">
        <ele>11.394</ele>
        <time>2019-11-17T09:25:36Z</time>
      </trkpt>
      <trkpt lat="50.15898" lon="1.61352">
        <ele>9.013</ele>
        <time>2019-11-17T09:26:09Z</time>
      </trkpt>
      <trkpt lat="50.15989" lon="1.61496">
        <ele>11.445</ele>
        <time>2019-11-17T09:26:39Z</time>
      </trkpt>
      <trkpt lat="50.16064" lon="1.61661">
        <ele>12.195</ele>
        <time>2019-11-17T09:27:09Z</time>
      </trkpt>
      <trkpt lat="50.16131" lon="1.61875">
        <ele>12.422</ele>
        <time>2019-11-17T09:27:42Z</time>
      </trkpt>
      <trkpt lat="50.16257" lon="1.61979">
        <ele>9.528</ele>
        <time>2019-11-17T09:28:12Z</time>
      </trkpt>
      <trkpt lat="50.16316" lon="1.62199">
        <ele>10.864</ele>
        <time>2019-11-17T09:28:45Z</time>
      </trkpt>
      <trkpt lat="50.16408" lon="1.62391">
        <ele>11.057</ele>
        <time>2019-11-17T09:29:15Z</time>
      </trkpt>
      <trkpt lat="50.16508" lon="1.62546">
        <ele>13.718</ele>
        <time>2019-11-17T09:29:45Z</time>
      </trkpt>
      <trkpt lat="50.16634" lon="1.62657">
        <ele>11.733</ele>
        <time>2019-11-17T09:30:18Z</time>
      </trkpt>
      <trkpt lat="50.16761" lon="1.62785">
        <ele>6.304</ele>
        <time>2019-11-17T09:30:48Z</time>
      </trkpt>
      <trkpt lat="50.16767" lon="1.63053">
        <ele>7.195</ele>
        <time>2019-11-17T09:31:21Z</time>
      </trkpt>
      <trkpt lat="50.16786" lon="1.63268">
        <ele>10.456</ele>
        <time>2019-11-17T09:31:51Z</time>
      </trkpt>
      <trkpt lat="50.16856" lon="1.6345">
        <ele>11.954</ele>
        <time>2019-11-17T09:32:21Z</time>
      </trkpt>
      <trkpt lat="50.16934" lon="1.6365">
        <ele>10.654</ele>
        <time>2019-11-17T09:32:54Z</time>
      </trkpt>
      <trkpt lat="50.17024" lon="1.63836">
        <ele>10.072</ele>
        <time>2019-11-17T09:33:24Z</time>
      </trkpt>
      <trkpt lat="50.17058" lon="1.64058">
        <ele>10.009</ele>
        <time>2019-11-17T09:33:57Z</time>
      </trkpt>
      <trkpt lat="50.17044" lon="1.64268">
        <ele>8.516</ele>
        <time>2019-11-17T09:34:27Z</time>
      </trkpt>
      <trkpt lat="50.17067" lon="1.64474">
        <ele>7.08</ele>
        <time>2019-11-17T09:34:57Z</time>
      </trkpt>
      <trkpt lat="50.17156" lon="1.64635">
        <ele>14.007</ele>
        <time>2019-11-17T09:35:30Z</time>
      </trkpt>
      <trkpt lat="50.17227" lon="1.6477">
        <ele>19.678</ele>
        <time>2019-11-17T09:36:00Z</time>
      </trkpt>
      <trkpt lat="50.17178" lon="1.64931">
        <ele>10.615</ele>
        <time>2019-11-17T09:36:30Z</time>
      </trkpt>
      <trkpt lat="50.17165" lon="1.64824">
        <ele>10.238</ele>
        <time>2019-11-17T09:37:03Z</time>
      </trkpt>
      <trkpt lat="50.17135" lon="1.64921">
        <ele>8.035</ele>
        <time>2019-11-17T09:39:18.001Z</time>
      </trkpt>
      <trkpt lat="50.17237" lon="1.64968">
        <ele>9.495</ele>
        <time>2019-11-17T09:39:51.001Z</time>
      </trkpt>
      <trkpt lat="50.17211" lon="1.65168">
        <ele>6.433</ele>
        <time>2019-11-17T09:40:21.001Z</time>
      </trkpt>
      <trkpt lat="50.17196" lon="1.6539">
        <ele>3.949</ele>
        <time>2019-11-17T09:40:51.001Z</time>
      </trkpt>
      <trkpt lat="50.17229" lon="1.65599">
        <ele>5.552</ele>
        <time>2019-11-17T09:41:24.001Z</time>
      </trkpt>
      <trkpt lat="50.17296" lon="1.65744">
        <ele>11.737</ele>
        <time>2019-11-17T09:41:54.001Z</time>
      </trkpt>
      <trkpt lat="50.1738" lon="1.6596">
        <ele>15.022</ele>
        <time>2019-11-17T09:42:27.001Z</time>
      </trkpt>
      <trkpt lat="50.17378" lon="1.66209">
        <ele>7.195</ele>
        <time>2019-11-17T09:42:57.001Z</time>
      </trkpt>
      <trkpt lat="50.17368" lon="1.66432">
        <ele>5.26</ele>
        <time>2019-11-17T09:43:27.001Z</time>
      </trkpt>
      <trkpt lat="50.17358" lon="1.66678">
        <ele>2.163</ele>
        <time>2019-11-17T09:44:00.001Z</time>
      </trkpt>
      <trkpt lat="50.17349" lon="1.66893">
        <ele>5.204</ele>
        <time>2019-11-17T09:44:30.001Z</time>
      </trkpt>
      <trkpt lat="50.17354" lon="1.67111">
        <ele>6.742</ele>
        <time>2019-11-17T09:45:03.001Z</time>
      </trkpt>
      <trkpt lat="50.17373" lon="1.67312">
        <ele>4.104</ele>
        <time>2019-11-17T09:45:33.001Z</time>
      </trkpt>
      <trkpt lat="50.17394" lon="1.67505">
        <ele>4.286</ele>
        <time>2019-11-17T09:46:03.001Z</time>
      </trkpt>
      <trkpt lat="50.17416" lon="1.67725">
        <ele>5.586</ele>
        <time>2019-11-17T09:46:36.001Z</time>
      </trkpt>
      <trkpt lat="50.17437" lon="1.6793">
        <ele>3.78</ele>
        <time>2019-11-17T09:47:06.001Z</time>
      </trkpt>
      <trkpt lat="50.17461" lon="1.68152">
        <ele>7.041</ele>
        <time>2019-11-17T09:47:39.001Z</time>
      </trkpt>
      <trkpt lat="50.17481" lon="1.68354">
        <ele>7.766</ele>
        <time>2019-11-17T09:48:09.001Z</time>
      </trkpt>
      <trkpt lat="50.17505" lon="1.68533">
        <ele>5.536</ele>
        <time>2019-11-17T09:48:39.001Z</time>
      </trkpt>
      <trkpt lat="50.17581" lon="1.68709">
        <ele>8.402</ele>
        <time>2019-11-17T09:49:12.001Z</time>
      </trkpt>
      <trkpt lat="50.17682" lon="1.68838">
        <ele>7.683</ele>
        <time>2019-11-17T09:49:42.001Z</time>
      </trkpt>
      <trkpt lat="50.17784" lon="1.68966">
        <ele>8.035</ele>
        <time>2019-11-17T09:50:12.001Z</time>
      </trkpt>
      <trkpt lat="50.17896" lon="1.69105">
        <ele>7.999</ele>
        <time>2019-11-17T09:50:45.001Z</time>
      </trkpt>
      <trkpt lat="50.17995" lon="1.69229">
        <ele>9.954</ele>
        <time>2019-11-17T09:51:15.001Z</time>
      </trkpt>
      <trkpt lat="50.18092" lon="1.69383">
        <ele>10.402</ele>
        <time>2019-11-17T09:51:48.001Z</time>
      </trkpt>
      <trkpt lat="50.18133" lon="1.69534">
        <ele>12.598</ele>
        <time>2019-11-17T09:52:18.001Z</time>
      </trkpt>
      <trkpt lat="50.18228" lon="1.69585">
        <ele>12.532</ele>
        <time>2019-11-17T09:52:48.001Z</time>
      </trkpt>
      <trkpt lat="50.18363" lon="1.69692">
        <ele>6.881</ele>
        <time>2019-11-17T09:53:21.001Z</time>
      </trkpt>
      <trkpt lat="50.18466" lon="1.69806">
        <ele>9.194</ele>
        <time>2019-11-17T09:53:51.001Z</time>
      </trkpt>
      <trkpt lat="50.18576" lon="1.6994">
        <ele>10.206</ele>
        <time>2019-11-17T09:54:24.001Z</time>
      </trkpt>
      <trkpt lat="50.18679" lon="1.69923">
        <ele>11.421</ele>
        <time>2019-11-17T09:54:54.001Z</time>
      </trkpt>
      <trkpt lat="50.18802" lon="1.69938">
        <ele>13.87</ele>
        <time>2019-11-17T09:55:24.001Z</time>
      </trkpt>
      <trkpt lat="50.1893" lon="1.69951">
        <ele>22.589</ele>
        <time>2019-11-17T09:55:57.001Z</time>
      </trkpt>
      <trkpt lat="50.19048" lon="1.69964">
        <ele>23.518</ele>
        <time>2019-11-17T09:56:27.001Z</time>
      </trkpt>
      <trkpt lat="50.19187" lon="1.69979">
        <ele>15.289</ele>
        <time>2019-11-17T09:57:00.001Z</time>
      </trkpt>
      <trkpt lat="50.19302" lon="1.69929">
        <ele>10.588</ele>
        <time>2019-11-17T09:57:30.001Z</time>
      </trkpt>
      <trkpt lat="50.19428" lon="1.69849">
        <ele>8.986</ele>
        <time>2019-11-17T09:58:00.001Z</time>
      </trkpt>
      <trkpt lat="50.19544" lon="1.69709">
        <ele>8.968</ele>
        <time>2019-11-17T09:58:33.001Z</time>
      </trkpt>
      <trkpt lat="50.19642" lon="1.69547">
        <ele>7.749</ele>
        <time>2019-11-17T09:59:03.001Z</time>
      </trkpt>
      <trkpt lat="50.19753" lon="1.69347">
        <ele>8.108</ele>
        <time>2019-11-17T09:59:36.001Z</time>
      </trkpt>
      <trkpt lat="50.1981" lon="1.69143">
        <ele>8.001</ele>
        <time>2019-11-17T10:00:06.001Z</time>
      </trkpt>
      <trkpt lat="50.19897" lon="1.68957">
        <ele>7.422</ele>
        <time>2019-11-17T10:00:36.001Z</time>
      </trkpt>
      <trkpt lat="50.20015" lon="1.68803">
        <ele>9.777</ele>
        <time>2019-11-17T10:01:09.001Z</time>
      </trkpt>
      <trkpt lat="50.20114" lon="1.68683">
        <ele>8.886</ele>
        <time>2019-11-17T10:01:39.001Z</time>
      </trkpt>
      <trkpt lat="50.20244" lon="1.6857">
        <ele>7.727</ele>
        <time>2019-11-17T10:02:09.001Z</time>
      </trkpt>
      <trkpt lat="50.20388" lon="1.68445">
        <ele>7.98</ele>
        <time>2019-11-17T10:02:42.001Z</time>
      </trkpt>
      <trkpt lat="50.20519" lon="1.68317">
        <ele>8.108</ele>
        <time>2019-11-17T10:03:12.001Z</time>
      </trkpt>
      <trkpt lat="50.20658" lon="1.68156">
        <ele>5.447</ele>
        <time>2019-11-17T10:03:45.001Z</time>
      </trkpt>
      <trkpt lat="50.20783" lon="1.68008">
        <ele>4.924</ele>
        <time>2019-11-17T10:04:15.001Z</time>
      </trkpt>
      <trkpt lat="50.20894" lon="1.67854">
        <ele>7.505</ele>
        <time>2019-11-17T10:04:45.001Z</time>
      </trkpt>
      <trkpt lat="50.20995" lon="1.67649">
        <ele>7.513</ele>
        <time>2019-11-17T10:05:18.001Z</time>
      </trkpt>
      <trkpt lat="50.21068" lon="1.6744">
        <ele>6.564</ele>
        <time>2019-11-17T10:05:48.001Z</time>
      </trkpt>
      <trkpt lat="50.21141" lon="1.67211">
        <ele>3.75</ele>
        <time>2019-11-17T10:06:21.001Z</time>
      </trkpt>
      <trkpt lat="50.21202" lon="1.67027">
        <ele>6.768</ele>
        <time>2019-11-17T10:06:51.001Z</time>
      </trkpt>
      <trkpt lat="50.21273" lon="1.66813">
        <ele>8.45</ele>
        <time>2019-11-17T10:07:21.001Z</time>
      </trkpt>
      <trkpt lat="50.21351" lon="1.66571">
        <ele>5.511</ele>
        <time>2019-11-17T10:07:54.001Z</time>
      </trkpt>
      <trkpt lat="50.21426" lon="1.66343">
        <ele>4.752</ele>
        <time>2019-11-17T10:08:24.001Z</time>
      </trkpt>
      <trkpt lat="50.21479" lon="1.66137">
        <ele>6.495</ele>
        <time>2019-11-17T10:08:57.001Z</time>
      </trkpt>
      <trkpt lat="50.21533" lon="1.65892">
        <ele>3.373</ele>
        <time>2019-11-17T10:09:27.001Z</time>
      </trkpt>
      <trkpt lat="50.21592" lon="1.65673">
        <ele>4.137</ele>
        <time>2019-11-17T10:09:57.001Z</time>
      </trkpt>
      <trkpt lat="50.21658" lon="1.65421">
        <ele>4.781</ele>
        <time>2019-11-17T10:10:30.001Z</time>
      </trkpt>
      <trkpt lat="50.21714" lon="1.65203">
        <ele>6.666</ele>
        <time>2019-11-17T10:11:00.001Z</time>
      </trkpt>
      <trkpt lat="50.21773" lon="1.64984">
        <ele>9.08</ele>
        <time>2019-11-17T10:11:30.001Z</time>
      </trkpt>
      <trkpt lat="50.21838" lon="1.64746">
        <ele>3.86</ele>
        <time>2019-11-17T10:12:03.001Z</time>
      </trkpt>
      <trkpt lat="50.21898" lon="1.6452">
        <ele>6.254</ele>
        <time>2019-11-17T10:12:33.001Z</time>
      </trkpt>
      <trkpt lat="50.21971" lon="1.64294">
        <ele>8.975</ele>
        <time>2019-11-17T10:13:06.001Z</time>
      </trkpt>
      <trkpt lat="50.22056" lon="1.64118">
        <ele>10.053</ele>
        <time>2019-11-17T10:13:36.001Z</time>
      </trkpt>
      <trkpt lat="50.22149" lon="1.63935">
        <ele>11.66</ele>
        <time>2019-11-17T10:14:06.001Z</time>
      </trkpt>
      <trkpt lat="50.22243" lon="1.63741">
        <ele>7.204</ele>
        <time>2019-11-17T10:14:39.001Z</time>
      </trkpt>
      <trkpt lat="50.22325" lon="1.63576">
        <ele>9.155</ele>
        <time>2019-11-17T10:15:09.001Z</time>
      </trkpt>
      <trkpt lat="50.22375" lon="1.63453">
        <ele>12.807</ele>
        <time>2019-11-17T10:15:42.001Z</time>
      </trkpt>
      <trkpt lat="50.22387" lon="1.6353">
        <ele>9.385</ele>
        <time>2019-11-17T10:16:12.001Z</time>
      </trkpt>
      <trkpt lat="50.22427" lon="1.6333">
        <ele>7.524</ele>
        <time>2019-11-17T10:16:42.001Z</time>
      </trkpt>
      <trkpt lat="50.22481" lon="1.63102">
        <ele>9.154</ele>
        <time>2019-11-17T10:17:15.001Z</time>
      </trkpt>
      <trkpt lat="50.22534" lon="1.62893">
        <ele>8.009</ele>
        <time>2019-11-17T10:17:45.001Z</time>
      </trkpt>
      <trkpt lat="50.22602" lon="1.62664">
        <ele>9.022</ele>
        <time>2019-11-17T10:18:18.001Z</time>
      </trkpt>
      <trkpt lat="50.22663" lon="1.62467">
        <ele>7.642</ele>
        <time>2019-11-17T10:18:48.001Z</time>
      </trkpt>
      <trkpt lat="50.22684" lon="1.62371">
        <ele>9.108</ele>
        <time>2019-11-17T10:23:00.001Z</time>
      </trkpt>
      <trkpt lat="50.22722" lon="1.62159">
        <ele>9.421</ele>
        <time>2019-11-17T10:23:33.001Z</time>
      </trkpt>
      <trkpt lat="50.22755" lon="1.61987">
        <ele>10.118</ele>
        <time>2019-11-17T10:24:03.001Z</time>
      </trkpt>
      <trkpt lat="50.2278" lon="1.61838">
        <ele>13.058</ele>
        <time>2019-11-17T10:24:36.001Z</time>
      </trkpt>
      <trkpt lat="50.22807" lon="1.61693">
        <ele>15.154</ele>
        <time>2019-11-17T10:25:06.001Z</time>
      </trkpt>
      <trkpt lat="50.22848" lon="1.61479">
        <ele>16.259</ele>
        <time>2019-11-17T10:25:36.001Z</time>
      </trkpt>
      <trkpt lat="50.22939" lon="1.6145">
        <ele>12.471</ele>
        <time>2019-11-17T10:26:09.001Z</time>
      </trkpt>
      <trkpt lat="50.2304" lon="1.61481">
        <ele>12.433</ele>
        <time>2019-11-17T10:26:39.001Z</time>
      </trkpt>
      <trkpt lat="50.23086" lon="1.61498">
        <ele>12.653</ele>
        <time>2019-11-17T10:43:00.001Z</time>
      </trkpt>
      <trkpt lat="50.23226" lon="1.61534">
        <ele>9.892</ele>
        <time>2019-11-17T10:43:33.001Z</time>
      </trkpt>
      <trkpt lat="50.23353" lon="1.61566">
        <ele>9.791</ele>
        <time>2019-11-17T10:44:03.001Z</time>
      </trkpt>
      <trkpt lat="50.23511" lon="1.61605">
        <ele>11.728</ele>
        <time>2019-11-17T10:44:36.001Z</time>
      </trkpt>
      <trkpt lat="50.2366" lon="1.61644">
        <ele>12.863</ele>
        <time>2019-11-17T10:45:06.001Z</time>
      </trkpt>
      <trkpt lat="50.2381" lon="1.61682">
        <ele>12.231</ele>
        <time>2019-11-17T10:45:36.001Z</time>
      </trkpt>
      <trkpt lat="50.23974" lon="1.61724">
        <ele>12.07</ele>
        <time>2019-11-17T10:46:09.001Z</time>
      </trkpt>
      <trkpt lat="50.24125" lon="1.61761">
        <ele>9.091</ele>
        <time>2019-11-17T10:46:39.001Z</time>
      </trkpt>
      <trkpt lat="50.24286" lon="1.61803">
        <ele>12.87</ele>
        <time>2019-11-17T10:47:12.001Z</time>
      </trkpt>
      <trkpt lat="50.24404" lon="1.6184">
        <ele>12.322</ele>
        <time>2019-11-17T10:47:42.001Z</time>
      </trkpt>
      <trkpt lat="50.24492" lon="1.61915">
        <ele>9.09</ele>
        <time>2019-11-17T10:48:12.001Z</time>
      </trkpt>
      <trkpt lat="50.24653" lon="1.61943">
        <ele>10.951</ele>
        <time>2019-11-17T10:48:45.001Z</time>
      </trkpt>
      <trkpt lat="50.24795" lon="1.61934">
        <ele>15.016</ele>
        <time>2019-11-17T10:49:15.001Z</time>
      </trkpt>
      <trkpt lat="50.2496" lon="1.6194">
        <ele>16.481</ele>
        <time>2019-11-17T10:49:48.001Z</time>
      </trkpt>
      <trkpt lat="50.25114" lon="1.62008">
        <ele>11.044</ele>
        <time>2019-11-17T10:50:18.001Z</time>
      </trkpt>
      <trkpt lat="50.25259" lon="1.6209">
        <ele>10.643</ele>
        <time>2019-11-17T10:50:48.001Z</time>
      </trkpt>
      <trkpt lat="50.25411" lon="1.62192">
        <ele>9.316</ele>
        <time>2019-11-17T10:51:21.001Z</time>
      </trkpt>
      <trkpt lat="50.25561" lon="1.62206">
        <ele>10.814</ele>
        <time>2019-11-17T10:51:51.001Z</time>
      </trkpt>
      <trkpt lat="50.25732" lon="1.6222">
        <ele>13.318</ele>
        <time>2019-11-17T10:52:24.001Z</time>
      </trkpt>
      <trkpt lat="50.25895" lon="1.62208">
        <ele>9.513</ele>
        <time>2019-11-17T10:52:54.001Z</time>
      </trkpt>
      <trkpt lat="50.26055" lon="1.62178">
        <ele>12.019</ele>
        <time>2019-11-17T10:53:24.001Z</time>
      </trkpt>
      <trkpt lat="50.26218" lon="1.62196">
        <ele>11.209</ele>
        <time>2019-11-17T10:53:57.001Z</time>
      </trkpt>
      <trkpt lat="50.2637" lon="1.62224">
        <ele>14.257</ele>
        <time>2019-11-17T10:54:27.001Z</time>
      </trkpt>
      <trkpt lat="50.26522" lon="1.62246">
        <ele>12.055</ele>
        <time>2019-11-17T10:54:57.001Z</time>
      </trkpt>
      <trkpt lat="50.26675" lon="1.62203">
        <ele>15.421</ele>
        <time>2019-11-17T10:55:30.001Z</time>
      </trkpt>
      <trkpt lat="50.26781" lon="1.62038">
        <ele>14.233</ele>
        <time>2019-11-17T10:56:00.001Z</time>
      </trkpt>
      <trkpt lat="50.26926" lon="1.61894">
        <ele>11.928</ele>
        <time>2019-11-17T10:56:33.001Z</time>
      </trkpt>
      <trkpt lat="50.27042" lon="1.61759">
        <ele>9.126</ele>
        <time>2019-11-17T10:57:03.001Z</time>
      </trkpt>
      <trkpt lat="50.27168" lon="1.61632">
        <ele>9.371</ele>
        <time>2019-11-17T10:57:33.001Z</time>
      </trkpt>
      <trkpt lat="50.27298" lon="1.61753">
        <ele>9.966</ele>
        <time>2019-11-17T10:58:06.001Z</time>
      </trkpt>
      <trkpt lat="50.27429" lon="1.61763">
        <ele>10.273</ele>
        <time>2019-11-17T10:58:36.001Z</time>
      </trkpt>
      <trkpt lat="50.27564" lon="1.6162">
        <ele>11.128</ele>
        <time>2019-11-17T10:59:09.001Z</time>
      </trkpt>
      <trkpt lat="50.27657" lon="1.61468">
        <ele>7.097</ele>
        <time>2019-11-17T10:59:39.001Z</time>
      </trkpt>
      <trkpt lat="50.27767" lon="1.6132">
        <ele>3.447</ele>
        <time>2019-11-17T11:00:09.001Z</time>
      </trkpt>
      <trkpt lat="50.27893" lon="1.61204">
        <ele>3.735</ele>
        <time>2019-11-17T11:00:42.001Z</time>
      </trkpt>
      <trkpt lat="50.28006" lon="1.61074">
        <ele>4.551</ele>
        <time>2019-11-17T11:01:12.001Z</time>
      </trkpt>
      <trkpt lat="50.28163" lon="1.61064">
        <ele>11.145</ele>
        <time>2019-11-17T11:01:45.001Z</time>
      </trkpt>
      <trkpt lat="50.28268" lon="1.61243">
        <ele>7.735</ele>
        <time>2019-11-17T11:02:15.001Z</time>
      </trkpt>
      <trkpt lat="50.28386" lon="1.61391">
        <ele>10.178</ele>
        <time>2019-11-17T11:02:45.001Z</time>
      </trkpt>
      <trkpt lat="50.28499" lon="1.61558">
        <ele>5.213</ele>
        <time>2019-11-17T11:03:18.001Z</time>
      </trkpt>
      <trkpt lat="50.28639" lon="1.61621">
        <ele>6.818</ele>
        <time>2019-11-17T11:03:48.001Z</time>
      </trkpt>
      <trkpt lat="50.28801" lon="1.61619">
        <ele>7.221</ele>
        <time>2019-11-17T11:04:21.001Z</time>
      </trkpt>
      <trkpt lat="50.28939" lon="1.61541">
        <ele>7.993</ele>
        <time>2019-11-17T11:04:51.001Z</time>
      </trkpt>
      <trkpt lat="50.29052" lon="1.61525">
        <ele>9.362</ele>
        <time>2019-11-17T11:05:21.001Z</time>
      </trkpt>
      <trkpt lat="50.29159" lon="1.61725">
        <ele>5.883</ele>
        <time>2019-11-17T11:05:54.001Z</time>
      </trkpt>
      <trkpt lat="50.29271" lon="1.6187">
        <ele>8.014</ele>
        <time>2019-11-17T11:06:24.001Z</time>
      </trkpt>
      <trkpt lat="50.29392" lon="1.61999">
        <ele>9.518</ele>
        <time>2019-11-17T11:06:54.001Z</time>
      </trkpt>
      <trkpt lat="50.29542" lon="1.62036">
        <ele>16.334</ele>
        <time>2019-11-17T11:07:27.001Z</time>
      </trkpt>
      <trkpt lat="50.29683" lon="1.6211">
        <ele>14.654</ele>
        <time>2019-11-17T11:07:57.001Z</time>
      </trkpt>
      <trkpt lat="50.29801" lon="1.62278">
        <ele>8.785</ele>
        <time>2019-11-17T11:08:30.001Z</time>
      </trkpt>
      <trkpt lat="50.29865" lon="1.62479">
        <ele>4.121</ele>
        <time>2019-11-17T11:09:00.001Z</time>
      </trkpt>
      <trkpt lat="50.29946" lon="1.62641">
        <ele>5.374</ele>
        <time>2019-11-17T11:09:30.001Z</time>
      </trkpt>
      <trkpt lat="50.30049" lon="1.6282">
        <ele>5.002</ele>
        <time>2019-11-17T11:10:03.001Z</time>
      </trkpt>
      <trkpt lat="50.30191" lon="1.62734">
        <ele>3.764</ele>
        <time>2019-11-17T11:10:33.001Z</time>
      </trkpt>
      <trkpt lat="50.30298" lon="1.62842">
        <ele>5.473</ele>
        <time>2019-11-17T11:11:06.001Z</time>
      </trkpt>
      <trkpt lat="50.30383" lon="1.63023">
        <ele>5.422</ele>
        <time>2019-11-17T11:11:36.001Z</time>
      </trkpt>
      <trkpt lat="50.30463" lon="1.63058">
        <ele>6.939</ele>
        <time>2019-11-17T11:12:06.001Z</time>
      </trkpt>
      <trkpt lat="50.30584" lon="1.62919">
        <ele>8.874</ele>
        <time>2019-11-17T11:12:39.001Z</time>
      </trkpt>
      <trkpt lat="50.30702" lon="1.62866">
        <ele>9.425</ele>
        <time>2019-11-17T11:13:09.001Z</time>
      </trkpt>
      <trkpt lat="50.30762" lon="1.63055">
        <ele>9.704</ele>
        <time>2019-11-17T11:13:42.001Z</time>
      </trkpt>
      <trkpt lat="50.30851" lon="1.63202">
        <ele>3.088</ele>
        <time>2019-11-17T11:14:12.001Z</time>
      </trkpt>
      <trkpt lat="50.30967" lon="1.63304">
        <ele>7.85</ele>
        <time>2019-11-17T11:14:42.001Z</time>
      </trkpt>
      <trkpt lat="50.31063" lon="1.63421">
        <ele>10.573</ele>
        <time>2019-11-17T11:15:15.001Z</time>
      </trkpt>
      <trkpt lat="50.31195" lon="1.63373">
        <ele>10.026</ele>
        <time>2019-11-17T11:15:45.001Z</time>
      </trkpt>
      <trkpt lat="50.31339" lon="1.63403">
        <ele>9.578</ele>
        <time>2019-11-17T11:16:18.001Z</time>
      </trkpt>
      <trkpt lat="50.31448" lon="1.63525">
        <ele>12.241</ele>
        <time>2019-11-17T11:16:48.001Z</time>
      </trkpt>
      <trkpt lat="50.31561" lon="1.63574">
        <ele>13.661</ele>
        <time>2019-11-17T11:17:18.001Z</time>
      </trkpt>
      <trkpt lat="50.31631" lon="1.63689">
        <ele>10.392</ele>
        <time>2019-11-17T11:17:51.001Z</time>
      </trkpt>
      <trkpt lat="50.31759" lon="1.63771">
        <ele>7.159</ele>
        <time>2019-11-17T11:18:21.001Z</time>
      </trkpt>
      <trkpt lat="50.31884" lon="1.6391">
        <ele>5.934</ele>
        <time>2019-11-17T11:18:51.001Z</time>
      </trkpt>
      <trkpt lat="50.32004" lon="1.63983">
        <ele>7.118</ele>
        <time>2019-11-17T11:19:24.001Z</time>
      </trkpt>
      <trkpt lat="50.32146" lon="1.64001">
        <ele>8.107</ele>
        <time>2019-11-17T11:19:54.001Z</time>
      </trkpt>
      <trkpt lat="50.32281" lon="1.64019">
        <ele>9.644</ele>
        <time>2019-11-17T11:20:27.001Z</time>
      </trkpt>
      <trkpt lat="50.32406" lon="1.64046">
        <ele>11.818</ele>
        <time>2019-11-17T11:20:57.001Z</time>
      </trkpt>
      <trkpt lat="50.32541" lon="1.64075">
        <ele>10.624</ele>
        <time>2019-11-17T11:21:27.001Z</time>
      </trkpt>
      <trkpt lat="50.32697" lon="1.6412">
        <ele>12.566</ele>
        <time>2019-11-17T11:22:00.001Z</time>
      </trkpt>
      <trkpt lat="50.32843" lon="1.64166">
        <ele>11.173</ele>
        <time>2019-11-17T11:22:30.001Z</time>
      </trkpt>
      <trkpt lat="50.32998" lon="1.64308">
        <ele>8.743</ele>
        <time>2019-11-17T11:23:03.001Z</time>
      </trkpt>
      <trkpt lat="50.33136" lon="1.64394">
        <ele>9.35</ele>
        <time>2019-11-17T11:23:33.001Z</time>
      </trkpt>
      <trkpt lat="50.33283" lon="1.64417">
        <ele>12.165</ele>
        <time>2019-11-17T11:24:03.001Z</time>
      </trkpt>
      <trkpt lat="50.33472" lon="1.64379">
        <ele>6.802</ele>
        <time>2019-11-17T11:24:36.001Z</time>
      </trkpt>
      <trkpt lat="50.33638" lon="1.64421">
        <ele>7.694</ele>
        <time>2019-11-17T11:25:06.001Z</time>
      </trkpt>
      <trkpt lat="50.33803" lon="1.64476">
        <ele>14.398</ele>
        <time>2019-11-17T11:25:39.001Z</time>
      </trkpt>
      <trkpt lat="50.33948" lon="1.64425">
        <ele>10.395</ele>
        <time>2019-11-17T11:26:09.001Z</time>
      </trkpt>
      <trkpt lat="50.34081" lon="1.64397">
        <ele>15.494</ele>
        <time>2019-11-17T11:26:39.001Z</time>
      </trkpt>
      <trkpt lat="50.34236" lon="1.6442">
        <ele>16.899</ele>
        <time>2019-11-17T11:27:12.001Z</time>
      </trkpt>
      <trkpt lat="50.34365" lon="1.64482">
        <ele>12.535</ele>
        <time>2019-11-17T11:27:42.001Z</time>
      </trkpt>
      <trkpt lat="50.34494" lon="1.64585">
        <ele>9.512</ele>
        <time>2019-11-17T11:28:15.001Z</time>
      </trkpt>
      <trkpt lat="50.34622" lon="1.64668">
        <ele>8.763</ele>
        <time>2019-11-17T11:28:45.001Z</time>
      </trkpt>
      <trkpt lat="50.3476" lon="1.64717">
        <ele>9.18</ele>
        <time>2019-11-17T11:29:15.001Z</time>
      </trkpt>
      <trkpt lat="50.3491" lon="1.64762">
        <ele>11.395</ele>
        <time>2019-11-17T11:29:48.001Z</time>
      </trkpt>
      <trkpt lat="50.35009" lon="1.64783">
        <ele>16.416</ele>
        <time>2019-11-17T11:30:18.001Z</time>
      </trkpt>
      <trkpt lat="50.35157" lon="1.64836">
        <ele>22.788</ele>
        <time>2019-11-17T11:30:48.001Z</time>
      </trkpt>
      <trkpt lat="50.35296" lon="1.64883">
        <ele>11.63</ele>
        <time>2019-11-17T11:31:21.001Z</time>
      </trkpt>
      <trkpt lat="50.35427" lon="1.64935">
        <ele>12.588</ele>
        <time>2019-11-17T11:31:51.001Z</time>
      </trkpt>
      <trkpt lat="50.35578" lon="1.64998">
        <ele>12.045</ele>
        <time>2019-11-17T11:32:24.001Z</time>
      </trkpt>
      <trkpt lat="50.35709" lon="1.65052">
        <ele>15.184</ele>
        <time>2019-11-17T11:32:54.001Z</time>
      </trkpt>
      <trkpt lat="50.35845" lon="1.65112">
        <ele>20.423</ele>
        <time>2019-11-17T11:33:24.001Z</time>
      </trkpt>
      <trkpt lat="50.36004" lon="1.65175">
        <ele>14.582</ele>
        <time>2019-11-17T11:33:57.001Z</time>
      </trkpt>
      <trkpt lat="50.36129" lon="1.65223">
        <ele>14.424</ele>
        <time>2019-11-17T11:34:27.001Z</time>
      </trkpt>
      <trkpt lat="50.36271" lon="1.65268">
        <ele>12.767</ele>
        <time>2019-11-17T11:35:00.001Z</time>
      </trkpt>
      <trkpt lat="50.36388" lon="1.65351">
        <ele>13.136</ele>
        <time>2019-11-17T11:35:30.001Z</time>
      </trkpt>
      <trkpt lat="50.36513" lon="1.65495">
        <ele>12.694</ele>
        <time>2019-11-17T11:36:00.001Z</time>
      </trkpt>
      <trkpt lat="50.36651" lon="1.65595">
        <ele>9.468</ele>
        <time>2019-11-17T11:36:33.001Z</time>
      </trkpt>
      <trkpt lat="50.36781" lon="1.65682">
        <ele>6.587</ele>
        <time>2019-11-17T11:37:03.001Z</time>
      </trkpt>
      <trkpt lat="50.36922" lon="1.65825">
        <ele>13.097</ele>
        <time>2019-11-17T11:37:36.001Z</time>
      </trkpt>
      <trkpt lat="50.37057" lon="1.65944">
        <ele>12.153</ele>
        <time>2019-11-17T11:38:06.001Z</time>
      </trkpt>
      <trkpt lat="50.37162" lon="1.6606">
        <ele>8.793</ele>
        <time>2019-11-17T11:38:36.001Z</time>
      </trkpt>
      <trkpt lat="50.37314" lon="1.66043">
        <ele>10.238</ele>
        <time>2019-11-17T11:39:09.001Z</time>
      </trkpt>
      <trkpt lat="50.3744" lon="1.6598">
        <ele>15.907</ele>
        <time>2019-11-17T11:39:39.001Z</time>
      </trkpt>
      <trkpt lat="50.37581" lon="1.6586">
        <ele>13.369</ele>
        <time>2019-11-17T11:40:12.001Z</time>
      </trkpt>
      <trkpt lat="50.377" lon="1.65674">
        <ele>14.912</ele>
        <time>2019-11-17T11:40:42.001Z</time>
      </trkpt>
      <trkpt lat="50.37793" lon="1.6545">
        <ele>9.716</ele>
        <time>2019-11-17T11:41:12.001Z</time>
      </trkpt>
      <trkpt lat="50.37904" lon="1.65305">
        <ele>12.674</ele>
        <time>2019-11-17T11:41:45.001Z</time>
      </trkpt>
      <trkpt lat="50.38054" lon="1.65274">
        <ele>21.037</ele>
        <time>2019-11-17T11:42:15.001Z</time>
      </trkpt>
      <trkpt lat="50.38214" lon="1.65201">
        <ele>13.507</ele>
        <time>2019-11-17T11:42:45.001Z</time>
      </trkpt>
      <trkpt lat="50.38392" lon="1.65177">
        <ele>11.649</ele>
        <time>2019-11-17T11:43:18.001Z</time>
      </trkpt>
      <trkpt lat="50.38529" lon="1.65153">
        <ele>7.773</ele>
        <time>2019-11-17T11:43:48.001Z</time>
      </trkpt>
      <trkpt lat="50.38687" lon="1.65168">
        <ele>8.414</ele>
        <time>2019-11-17T11:44:21.001Z</time>
      </trkpt>
      <trkpt lat="50.38823" lon="1.65167">
        <ele>9.325</ele>
        <time>2019-11-17T11:44:51.001Z</time>
      </trkpt>
      <trkpt lat="50.38939" lon="1.65138">
        <ele>10.819</ele>
        <time>2019-11-17T11:45:21.001Z</time>
      </trkpt>
      <trkpt lat="50.39093" lon="1.65119">
        <ele>10.855</ele>
        <time>2019-11-17T11:45:54.001Z</time>
      </trkpt>
      <trkpt lat="50.39252" lon="1.6511">
        <ele>9.68</ele>
        <time>2019-11-17T11:46:24.001Z</time>
      </trkpt>
      <trkpt lat="50.39411" lon="1.65067">
        <ele>12.703</ele>
        <time>2019-11-17T11:46:57.001Z</time>
      </trkpt>
      <trkpt lat="50.39548" lon="1.65027">
        <ele>15.626</ele>
        <time>2019-11-17T11:47:27.001Z</time>
      </trkpt>
      <trkpt lat="50.39685" lon="1.64962">
        <ele>21.199</ele>
        <time>2019-11-17T11:47:57.001Z</time>
      </trkpt>
      <trkpt lat="50.3983" lon="1.64918">
        <ele>21.91</ele>
        <time>2019-11-17T11:48:30.001Z</time>
      </trkpt>
      <trkpt lat="50.39962" lon="1.64922">
        <ele>21.158</ele>
        <time>2019-11-17T11:49:00.001Z</time>
      </trkpt>
      <trkpt lat="50.40097" lon="1.64961">
        <ele>19.711</ele>
        <time>2019-11-17T11:49:33.001Z</time>
      </trkpt>
      <trkpt lat="50.40226" lon="1.65002">
        <ele>16.814</ele>
        <time>2019-11-17T11:50:03.001Z</time>
      </trkpt>
      <trkpt lat="50.40362" lon="1.65005">
        <ele>25.59</ele>
        <time>2019-11-17T11:50:33.001Z</time>
      </trkpt>
      <trkpt lat="50.40509" lon="1.64868">
        <ele>23.796</ele>
        <time>2019-11-17T11:51:06.001Z</time>
      </trkpt>
      <trkpt lat="50.4064" lon="1.64763">
        <ele>23.617</ele>
        <time>2019-11-17T11:51:36.001Z</time>
      </trkpt>
      <trkpt lat="50.40774" lon="1.64764">
        <ele>17.623</ele>
        <time>2019-11-17T11:52:09.001Z</time>
      </trkpt>
      <trkpt lat="50.40935" lon="1.64774">
        <ele>18.728</ele>
        <time>2019-11-17T11:52:39.001Z</time>
      </trkpt>
      <trkpt lat="50.41084" lon="1.64771">
        <ele>18.976</ele>
        <time>2019-11-17T11:53:09.001Z</time>
      </trkpt>
      <trkpt lat="50.41254" lon="1.64772">
        <ele>21.118</ele>
        <time>2019-11-17T11:53:42.001Z</time>
      </trkpt>
      <trkpt lat="50.4141" lon="1.64769">
        <ele>19.272</ele>
        <time>2019-11-17T11:54:12.001Z</time>
      </trkpt>
      <trkpt lat="50.41546" lon="1.64768">
        <ele>22.693</ele>
        <time>2019-11-17T11:54:42.001Z</time>
      </trkpt>
      <trkpt lat="50.41686" lon="1.64763">
        <ele>18.946</ele>
        <time>2019-11-17T11:55:15.001Z</time>
      </trkpt>
      <trkpt lat="50.41756" lon="1.64704">
        <ele>15.714</ele>
        <time>2019-11-17T11:55:45.001Z</time>
      </trkpt>
      <trkpt lat="50.41726" lon="1.64399">
        <ele>10.088</ele>
        <time>2019-11-17T11:56:18.001Z</time>
      </trkpt>
      <trkpt lat="50.41723" lon="1.6412">
        <ele>3.196</ele>
        <time>2019-11-17T11:56:48.001Z</time>
      </trkpt>
      <trkpt lat="50.4177" lon="1.63915">
        <ele>8.909</ele>
        <time>2019-11-17T11:57:18.001Z</time>
      </trkpt>
      <trkpt lat="50.41827" lon="1.63695">
        <ele>14.837</ele>
        <time>2019-11-17T11:57:51.001Z</time>
      </trkpt>
      <trkpt lat="50.4191" lon="1.63537">
        <ele>11.229</ele>
        <time>2019-11-17T11:58:21.001Z</time>
      </trkpt>
      <trkpt lat="50.42077" lon="1.63452">
        <ele>12.009</ele>
        <time>2019-11-17T11:58:54.001Z</time>
      </trkpt>
      <trkpt lat="50.42228" lon="1.63518">
        <ele>7.063</ele>
        <time>2019-11-17T11:59:24.001Z</time>
      </trkpt>
      <trkpt lat="50.42371" lon="1.635">
        <ele>8.513</ele>
        <time>2019-11-17T11:59:54.001Z</time>
      </trkpt>
      <trkpt lat="50.4253" lon="1.63384">
        <ele>11.947</ele>
        <time>2019-11-17T12:00:27.001Z</time>
      </trkpt>
      <trkpt lat="50.42624" lon="1.63202">
        <ele>17.091</ele>
        <time>2019-11-17T12:00:57.001Z</time>
      </trkpt>
      <trkpt lat="50.42699" lon="1.62948">
        <ele>12.194</ele>
        <time>2019-11-17T12:01:30.001Z</time>
      </trkpt>
      <trkpt lat="50.42795" lon="1.62772">
        <ele>11.49</ele>
        <time>2019-11-17T12:02:00.001Z</time>
      </trkpt>
      <trkpt lat="50.42879" lon="1.62579">
        <ele>8.03</ele>
        <time>2019-11-17T12:02:30.001Z</time>
      </trkpt>
      <trkpt lat="50.42967" lon="1.62366">
        <ele>10.945</ele>
        <time>2019-11-17T12:03:03.001Z</time>
      </trkpt>
      <trkpt lat="50.43049" lon="1.62173">
        <ele>9.352</ele>
        <time>2019-11-17T12:03:33.001Z</time>
      </trkpt>
      <trkpt lat="50.43142" lon="1.61987">
        <ele>12.536</ele>
        <time>2019-11-17T12:04:06.001Z</time>
      </trkpt>
      <trkpt lat="50.43264" lon="1.61875">
        <ele>25.332</ele>
        <time>2019-11-17T12:04:36.001Z</time>
      </trkpt>
      <trkpt lat="50.43394" lon="1.61771">
        <ele>29.773</ele>
        <time>2019-11-17T12:05:06.001Z</time>
      </trkpt>
      <trkpt lat="50.43546" lon="1.61641">
        <ele>27.196</ele>
        <time>2019-11-17T12:05:39.001Z</time>
      </trkpt>
      <trkpt lat="50.43703" lon="1.61573">
        <ele>23.89</ele>
        <time>2019-11-17T12:06:09.001Z</time>
      </trkpt>
      <trkpt lat="50.43843" lon="1.61537">
        <ele>19.81</ele>
        <time>2019-11-17T12:06:39.001Z</time>
      </trkpt>
      <trkpt lat="50.43983" lon="1.61518">
        <ele>17.351</ele>
        <time>2019-11-17T12:07:15.001Z</time>
      </trkpt>
      <trkpt lat="50.44134" lon="1.61521">
        <ele>14.352</ele>
        <time>2019-11-17T12:07:45.001Z</time>
      </trkpt>
      <trkpt lat="50.44271" lon="1.61611">
        <ele>6.816</ele>
        <time>2019-11-17T12:08:18.001Z</time>
      </trkpt>
      <trkpt lat="50.44359" lon="1.61717">
        <ele>5.677</ele>
        <time>2019-11-17T12:08:48.001Z</time>
      </trkpt>
      <trkpt lat="50.44501" lon="1.61767">
        <ele>10.944</ele>
        <time>2019-11-17T12:09:18.001Z</time>
      </trkpt>
      <trkpt lat="50.44655" lon="1.6173">
        <ele>19.951</ele>
        <time>2019-11-17T12:09:51.001Z</time>
      </trkpt>
      <trkpt lat="50.44798" lon="1.61631">
        <ele>15.406</ele>
        <time>2019-11-17T12:10:21.001Z</time>
      </trkpt>
      <trkpt lat="50.4497" lon="1.6155">
        <ele>16.648</ele>
        <time>2019-11-17T12:10:54.001Z</time>
      </trkpt>
      <trkpt lat="50.45116" lon="1.61526">
        <ele>20.409</ele>
        <time>2019-11-17T12:11:24.001Z</time>
      </trkpt>
      <trkpt lat="50.45273" lon="1.61438">
        <ele>15.372</ele>
        <time>2019-11-17T12:11:54.001Z</time>
      </trkpt>
      <trkpt lat="50.45432" lon="1.61394">
        <ele>21.634</ele>
        <time>2019-11-17T12:12:27.001Z</time>
      </trkpt>
      <trkpt lat="50.45566" lon="1.61359">
        <ele>14.213</ele>
        <time>2019-11-17T12:12:57.001Z</time>
      </trkpt>
      <trkpt lat="50.45572" lon="1.61108">
        <ele>4.381</ele>
        <time>2019-11-17T12:13:30.001Z</time>
      </trkpt>
      <trkpt lat="50.45586" lon="1.60917">
        <ele>12.746</ele>
        <time>2019-11-17T12:14:00.001Z</time>
      </trkpt>
      <trkpt lat="50.45576" lon="1.60723">
        <ele>13.263</ele>
        <time>2019-11-17T12:14:30.001Z</time>
      </trkpt>
      <trkpt lat="50.4565" lon="1.60556">
        <ele>21.092</ele>
        <time>2019-11-17T12:15:03.001Z</time>
      </trkpt>
      <trkpt lat="50.45742" lon="1.60391">
        <ele>16.036</ele>
        <time>2019-11-17T12:15:33.001Z</time>
      </trkpt>
      <trkpt lat="50.45829" lon="1.60184">
        <ele>13.139</ele>
        <time>2019-11-17T12:16:06.001Z</time>
      </trkpt>
      <trkpt lat="50.4587" lon="1.59945">
        <ele>8.989</ele>
        <time>2019-11-17T12:16:36.001Z</time>
      </trkpt>
      <trkpt lat="50.45909" lon="1.59687">
        <ele>10.667</ele>
        <time>2019-11-17T12:17:06.001Z</time>
      </trkpt>
      <trkpt lat="50.45951" lon="1.5941">
        <ele>13.484</ele>
        <time>2019-11-17T12:17:39.001Z</time>
      </trkpt>
      <trkpt lat="50.45992" lon="1.59164">
        <ele>9.398</ele>
        <time>2019-11-17T12:18:09.001Z</time>
      </trkpt>
      <trkpt lat="50.4603" lon="1.58923">
        <ele>13.913</ele>
        <time>2019-11-17T12:18:39.001Z</time>
      </trkpt>
      <trkpt lat="50.46071" lon="1.58659">
        <ele>12.523</ele>
        <time>2019-11-17T12:19:12.001Z</time>
      </trkpt>
      <trkpt lat="50.46108" lon="1.58416">
        <ele>12.269</ele>
        <time>2019-11-17T12:19:42.001Z</time>
      </trkpt>
      <trkpt lat="50.46151" lon="1.58145">
        <ele>11.572</ele>
        <time>2019-11-17T12:20:15.001Z</time>
      </trkpt>
      <trkpt lat="50.4623" lon="1.57948">
        <ele>13.621</ele>
        <time>2019-11-17T12:20:48.001Z</time>
      </trkpt>
      <trkpt lat="50.46365" lon="1.57853">
        <ele>16.418</ele>
        <time>2019-11-17T12:21:18.001Z</time>
      </trkpt>
      <trkpt lat="50.46489" lon="1.57769">
        <ele>15.506</ele>
        <time>2019-11-17T12:21:51.001Z</time>
      </trkpt>
    </trkseg>
  </trk>
</gpx>